<?xml version='1.0' encoding='UTF-8'?><gpx version="1.1" creator="JPX - https://github.com/jenetics/jpx" xmlns="http://www.topografix.com/GPX/1/1"><trk><trkseg><trkpt lat="45.506553487371434" lon="9.239415918944648"><ele>129.0</ele><time>2026-04-30T05:27:27.037Z</time></trkpt><trkpt lat="45.50654419966305" lon="9.239278080486661"><ele>129.0</ele><time>2026-04-30T05:27:31.037Z</time></trkpt><trkpt lat="45.5065587424337" lon="9.239187766827818"><ele>129.0</ele><time>2026-04-30T05:27:45.037Z</time></trkpt><trkpt lat="45.50666313640156" lon="9.239126006232436"><ele>129.0</ele><time>2026-04-30T05:28:12.037Z</time></trkpt><trkpt lat="45.50664550278873" lon="9.238987548704618"><ele>129.0</ele><time>2026-04-30T05:28:16.037Z</time></trkpt><trkpt lat="45.50662576900815" lon="9.238843152271858"><ele>129.6</ele><time>2026-04-30T05:28:18.037Z</time></trkpt><trkpt lat="45.506598348080644" lon="9.238701949815542"><ele>130.2</ele><time>2026-04-30T05:28:20.037Z</time></trkpt><trkpt lat="45.50658730577358" lon="9.238595792366748"><ele>130.79999999999998</ele><time>2026-04-30T05:28:22.037Z</time></trkpt><trkpt lat="45.50656802677182" lon="9.238482124318958"><ele>131.4</ele><time>2026-04-30T05:28:24.037Z</time></trkpt><trkpt lat="45.506540898501726" lon="9.238329267899886"><ele>132.0</ele><time>2026-04-30T05:28:26.037Z</time></trkpt><trkpt lat="45.50651431595399" lon="9.238148818746115"><ele>132.0</ele><time>2026-04-30T05:28:28.037Z</time></trkpt><trkpt lat="45.506498037944" lon="9.237969279547254"><ele>132.0</ele><time>2026-04-30T05:28:30.037Z</time></trkpt><trkpt lat="45.5064674928812" lon="9.23783122086701"><ele>132.0</ele><time>2026-04-30T05:28:32.037Z</time></trkpt><trkpt lat="45.50643698871376" lon="9.23769579976231"><ele>132.0</ele><time>2026-04-30T05:28:34.037Z</time></trkpt><trkpt lat="45.50640937876072" lon="9.237586429232831"><ele>132.0</ele><time>2026-04-30T05:28:36.037Z</time></trkpt><trkpt lat="45.50638590258693" lon="9.23747146165955"><ele>132.0</ele><time>2026-04-30T05:28:39.037Z</time></trkpt><trkpt lat="45.50636273011349" lon="9.237377603204113"><ele>132.0</ele><time>2026-04-30T05:28:41.037Z</time></trkpt><trkpt lat="45.506322219138845" lon="9.237279383013451"><ele>132.0</ele><time>2026-04-30T05:28:47.037Z</time></trkpt><trkpt lat="45.50619514745735" lon="9.237295933292774"><ele>132.0</ele><time>2026-04-30T05:28:50.037Z</time></trkpt><trkpt lat="45.50607580668552" lon="9.23732685379237"><ele>132.0</ele><time>2026-04-30T05:28:52.037Z</time></trkpt><trkpt lat="45.506010005273176" lon="9.237358256131731"><ele>132.0</ele><time>2026-04-30T05:28:53.037Z</time></trkpt><trkpt lat="45.505942255500905" lon="9.237387850305197"><ele>132.0</ele><time>2026-04-30T05:28:54.037Z</time></trkpt><trkpt lat="45.505861996647965" lon="9.237419414362162"><ele>132.0</ele><time>2026-04-30T05:28:55.037Z</time></trkpt><trkpt lat="45.5057851385711" lon="9.237453189704702"><ele>132.0</ele><time>2026-04-30T05:28:56.037Z</time></trkpt><trkpt lat="45.505711880672685" lon="9.237480400356805"><ele>132.0</ele><time>2026-04-30T05:28:57.037Z</time></trkpt><trkpt lat="45.50563751650496" lon="9.23751023966536"><ele>132.0</ele><time>2026-04-30T05:28:58.037Z</time></trkpt><trkpt lat="45.505562655464736" lon="9.237528008915003"><ele>132.0</ele><time>2026-04-30T05:28:59.037Z</time></trkpt><trkpt lat="45.50548162859014" lon="9.237552888844752"><ele>132.0</ele><time>2026-04-30T05:29:00.037Z</time></trkpt><trkpt lat="45.5054101549163" lon="9.237594017600726"><ele>132.0</ele><time>2026-04-30T05:29:01.037Z</time></trkpt><trkpt lat="45.505326158368476" lon="9.237650767057541"><ele>132.0</ele><time>2026-04-30T05:29:02.037Z</time></trkpt><trkpt lat="45.50524665934722" lon="9.237693501432418"><ele>132.0</ele><time>2026-04-30T05:29:03.037Z</time></trkpt><trkpt lat="45.50516043139417" lon="9.237742382375247"><ele>132.0</ele><time>2026-04-30T05:29:04.037Z</time></trkpt><trkpt lat="45.505074576774845" lon="9.237816850890606"><ele>131.79999999999998</ele><time>2026-04-30T05:29:05.037Z</time></trkpt><trkpt lat="45.5049960787686" lon="9.237908238659958"><ele>131.6</ele><time>2026-04-30T05:29:06.037Z</time></trkpt><trkpt lat="45.50492898198768" lon="9.237992680091802"><ele>131.39999999999998</ele><time>2026-04-30T05:29:07.037Z</time></trkpt><trkpt lat="45.50487095967467" lon="9.238085241844178"><ele>131.2</ele><time>2026-04-30T05:29:08.037Z</time></trkpt><trkpt lat="45.50481372832693" lon="9.238177989515279"><ele>131.0</ele><time>2026-04-30T05:29:09.037Z</time></trkpt><trkpt lat="45.504744290680534" lon="9.2382703842545"><ele>131.0</ele><time>2026-04-30T05:29:10.037Z</time></trkpt><trkpt lat="45.50466651193027" lon="9.238378713795704"><ele>131.0</ele><time>2026-04-30T05:29:11.037Z</time></trkpt><trkpt lat="45.504587388114636" lon="9.238501482308877"><ele>131.0</ele><time>2026-04-30T05:29:12.037Z</time></trkpt><trkpt lat="45.50452015588739" lon="9.23859973494886"><ele>131.0</ele><time>2026-04-30T05:29:13.037Z</time></trkpt><trkpt lat="45.504456414547434" lon="9.238696384222742"><ele>131.0</ele><time>2026-04-30T05:29:14.037Z</time></trkpt><trkpt lat="45.504391888634075" lon="9.238799746173308"><ele>130.83333333333331</ele><time>2026-04-30T05:29:15.037Z</time></trkpt><trkpt lat="45.50433576692118" lon="9.238894945822455"><ele>130.66666666666666</ele><time>2026-04-30T05:29:16.037Z</time></trkpt><trkpt lat="45.50427437515084" lon="9.23900943256215"><ele>130.5</ele><time>2026-04-30T05:29:17.037Z</time></trkpt><trkpt lat="45.50421800341389" lon="9.239107858061521"><ele>130.33333333333334</ele><time>2026-04-30T05:29:18.037Z</time></trkpt><trkpt lat="45.50417284304979" lon="9.23918457352802"><ele>130.16666666666669</ele><time>2026-04-30T05:29:19.037Z</time></trkpt><trkpt lat="45.50412633771207" lon="9.239257623215359"><ele>130.0</ele><time>2026-04-30T05:29:20.037Z</time></trkpt><trkpt lat="45.50408104608945" lon="9.239322617564808"><ele>130.0</ele><time>2026-04-30T05:29:21.037Z</time></trkpt><trkpt lat="45.50400225390714" lon="9.239445662293802"><ele>130.0</ele><time>2026-04-30T05:29:23.037Z</time></trkpt><trkpt lat="45.503941417703935" lon="9.239562022807538"><ele>130.0</ele><time>2026-04-30T05:29:25.037Z</time></trkpt><trkpt lat="45.50389031157224" lon="9.239681345814573"><ele>130.0</ele><time>2026-04-30T05:29:27.037Z</time></trkpt><trkpt lat="45.503812392351335" lon="9.239768731803304"><ele>130.0</ele><time>2026-04-30T05:29:29.038Z</time></trkpt><trkpt lat="45.503769843900336" lon="9.239835274175688"><ele>130.0</ele><time>2026-04-30T05:29:31.038Z</time></trkpt><trkpt lat="45.50367591956422" lon="9.239823740868054"><ele>130.0</ele><time>2026-04-30T05:29:35.038Z</time></trkpt><trkpt lat="45.503621587101065" lon="9.23975135959463"><ele>130.0</ele><time>2026-04-30T05:29:36.038Z</time></trkpt><trkpt lat="45.50355662368198" lon="9.239664815839271"><ele>130.0</ele><time>2026-04-30T05:29:37.038Z</time></trkpt><trkpt lat="45.50348404331144" lon="9.23956812483044"><ele>130.0</ele><time>2026-04-30T05:29:38.038Z</time></trkpt><trkpt lat="45.50339939759605" lon="9.239481543907289"><ele>129.75</ele><time>2026-04-30T05:29:39.038Z</time></trkpt><trkpt lat="45.503309251280434" lon="9.239392553782222"><ele>129.5</ele><time>2026-04-30T05:29:40.038Z</time></trkpt><trkpt lat="45.50323045164175" lon="9.239285142113662"><ele>129.25</ele><time>2026-04-30T05:29:41.038Z</time></trkpt><trkpt lat="45.503146710365236" lon="9.239172743346947"><ele>129.0</ele><time>2026-04-30T05:29:42.038Z</time></trkpt><trkpt lat="45.50305438582748" lon="9.239067491862736"><ele>129.0</ele><time>2026-04-30T05:29:43.038Z</time></trkpt><trkpt lat="45.50296535527189" lon="9.238965685108507"><ele>129.0</ele><time>2026-04-30T05:29:44.038Z</time></trkpt><trkpt lat="45.502879186632015" lon="9.238863006686657"><ele>129.0</ele><time>2026-04-30T05:29:45.038Z</time></trkpt><trkpt lat="45.50279799628398" lon="9.238756661523555"><ele>129.0</ele><time>2026-04-30T05:29:46.038Z</time></trkpt><trkpt lat="45.50272185627219" lon="9.238639045445964"><ele>129.0</ele><time>2026-04-30T05:29:47.038Z</time></trkpt><trkpt lat="45.50264433240793" lon="9.238531925792918"><ele>129.0</ele><time>2026-04-30T05:29:48.038Z</time></trkpt><trkpt lat="45.50256389552092" lon="9.238435417454545"><ele>129.0</ele><time>2026-04-30T05:29:49.038Z</time></trkpt><trkpt lat="45.50250198024401" lon="9.238315915153262"><ele>129.0</ele><time>2026-04-30T05:29:50.038Z</time></trkpt><trkpt lat="45.50244088967252" lon="9.238213589052137"><ele>129.0</ele><time>2026-04-30T05:29:51.038Z</time></trkpt><trkpt lat="45.50237091230963" lon="9.23814041331052"><ele>129.0</ele><time>2026-04-30T05:29:52.038Z</time></trkpt><trkpt lat="45.502307941195994" lon="9.238066535664842"><ele>128.83333333333334</ele><time>2026-04-30T05:29:53.038Z</time></trkpt><trkpt lat="45.50225136617356" lon="9.237992704026608"><ele>128.66666666666666</ele><time>2026-04-30T05:29:54.038Z</time></trkpt><trkpt lat="45.50219900472573" lon="9.237932301614853"><ele>128.5</ele><time>2026-04-30T05:29:55.038Z</time></trkpt><trkpt lat="45.502111231125596" lon="9.23783455606704"><ele>128.33333333333331</ele><time>2026-04-30T05:29:57.038Z</time></trkpt><trkpt lat="45.50205355156423" lon="9.237769316646116"><ele>128.16666666666666</ele><time>2026-04-30T05:29:59.038Z</time></trkpt><trkpt lat="45.502005865052055" lon="9.23770503105652"><ele>128.0</ele><time>2026-04-30T05:30:01.038Z</time></trkpt><trkpt lat="45.50193027088714" lon="9.237609137513472"><ele>128.33333333333331</ele><time>2026-04-30T05:30:03.038Z</time></trkpt><trkpt lat="45.50187873988057" lon="9.237545038839958"><ele>128.66666666666666</ele><time>2026-04-30T05:30:04.038Z</time></trkpt><trkpt lat="45.501821967264995" lon="9.23746466834422"><ele>129.0</ele><time>2026-04-30T05:30:05.038Z</time></trkpt><trkpt lat="45.50175973803449" lon="9.237380262329484"><ele>129.33333333333334</ele><time>2026-04-30T05:30:06.038Z</time></trkpt><trkpt lat="45.50169303773911" lon="9.23728193191681"><ele>129.66666666666669</ele><time>2026-04-30T05:30:07.038Z</time></trkpt><trkpt lat="45.50161961797787" lon="9.237187785814118"><ele>130.0</ele><time>2026-04-30T05:30:08.038Z</time></trkpt><trkpt lat="45.50155175619252" lon="9.23708682631159"><ele>130.2</ele><time>2026-04-30T05:30:09.038Z</time></trkpt><trkpt lat="45.50148006243567" lon="9.236989833185525"><ele>130.4</ele><time>2026-04-30T05:30:10.038Z</time></trkpt><trkpt lat="45.50140214279101" lon="9.236894630185521"><ele>130.6</ele><time>2026-04-30T05:30:11.038Z</time></trkpt><trkpt lat="45.50132209717944" lon="9.236799103427337"><ele>130.8</ele><time>2026-04-30T05:30:12.038Z</time></trkpt><trkpt lat="45.50124934327056" lon="9.236688015776737"><ele>131.0</ele><time>2026-04-30T05:30:13.038Z</time></trkpt><trkpt lat="45.501166237547075" lon="9.236584732347705"><ele>131.0</ele><time>2026-04-30T05:30:14.038Z</time></trkpt><trkpt lat="45.50108470707072" lon="9.23648602485729"><ele>131.0</ele><time>2026-04-30T05:30:15.038Z</time></trkpt><trkpt lat="45.50100708194594" lon="9.236384038789012"><ele>131.0</ele><time>2026-04-30T05:30:16.038Z</time></trkpt><trkpt lat="45.500929806329104" lon="9.236279520757208"><ele>131.0</ele><time>2026-04-30T05:30:17.038Z</time></trkpt><trkpt lat="45.50085279678609" lon="9.236172136703223"><ele>131.0</ele><time>2026-04-30T05:30:18.038Z</time></trkpt><trkpt lat="45.50077015431882" lon="9.236063877949585"><ele>130.75</ele><time>2026-04-30T05:30:19.038Z</time></trkpt><trkpt lat="45.50068490650841" lon="9.235962826970383"><ele>130.5</ele><time>2026-04-30T05:30:20.038Z</time></trkpt><trkpt lat="45.500598844059674" lon="9.235861353497672"><ele>130.25</ele><time>2026-04-30T05:30:21.038Z</time></trkpt><trkpt lat="45.50051668200868" lon="9.235749500278798"><ele>130.0</ele><time>2026-04-30T05:30:22.038Z</time></trkpt><trkpt lat="45.500456198413424" lon="9.235594895610932"><ele>129.5</ele><time>2026-04-30T05:30:23.038Z</time></trkpt><trkpt lat="45.50037031199247" lon="9.235484004932822"><ele>129.0</ele><time>2026-04-30T05:30:24.038Z</time></trkpt><trkpt lat="45.50028082717593" lon="9.235382583529129"><ele>128.5</ele><time>2026-04-30T05:30:25.038Z</time></trkpt><trkpt lat="45.50019367562551" lon="9.235276678412724"><ele>128.0</ele><time>2026-04-30T05:30:26.038Z</time></trkpt><trkpt lat="45.50010376441781" lon="9.235183333626425"><ele>128.0</ele><time>2026-04-30T05:30:27.038Z</time></trkpt><trkpt lat="45.500023677775076" lon="9.235074901473412"><ele>128.0</ele><time>2026-04-30T05:30:28.038Z</time></trkpt><trkpt lat="45.49994738540786" lon="9.234963495160509"><ele>128.0</ele><time>2026-04-30T05:30:29.038Z</time></trkpt><trkpt lat="45.499879649235915" lon="9.23485266372196"><ele>128.0</ele><time>2026-04-30T05:30:30.038Z</time></trkpt><trkpt lat="45.49981219826937" lon="9.234761248327635"><ele>128.0</ele><time>2026-04-30T05:30:31.038Z</time></trkpt><trkpt lat="45.499752693909784" lon="9.234686847916603"><ele>127.80000000000001</ele><time>2026-04-30T05:30:32.038Z</time></trkpt><trkpt lat="45.499661789653004" lon="9.234579135389428"><ele>127.60000000000001</ele><time>2026-04-30T05:30:34.038Z</time></trkpt><trkpt lat="45.49956892528638" lon="9.234456744696791"><ele>127.39999999999999</ele><time>2026-04-30T05:30:36.038Z</time></trkpt><trkpt lat="45.49948407370742" lon="9.23447387064213"><ele>127.19999999999999</ele><time>2026-04-30T05:30:37.038Z</time></trkpt><trkpt lat="45.49937811499888" lon="9.234495128245825"><ele>127.0</ele><time>2026-04-30T05:30:39.038Z</time></trkpt><trkpt lat="45.49927988980315" lon="9.23451808950869"><ele>127.39999999999999</ele><time>2026-04-30T05:30:41.038Z</time></trkpt><trkpt lat="45.49916646050488" lon="9.234584418111607"><ele>127.79999999999998</ele><time>2026-04-30T05:30:43.038Z</time></trkpt><trkpt lat="45.499049525191204" lon="9.23461762048338"><ele>128.2</ele><time>2026-04-30T05:30:45.038Z</time></trkpt><trkpt lat="45.49897773035487" lon="9.234632135512028"><ele>128.6</ele><time>2026-04-30T05:30:46.038Z</time></trkpt><trkpt lat="45.498901615424515" lon="9.234649259054063"><ele>129.0</ele><time>2026-04-30T05:30:47.038Z</time></trkpt><trkpt lat="45.498831651260424" lon="9.234665553713658"><ele>129.2</ele><time>2026-04-30T05:30:48.038Z</time></trkpt><trkpt lat="45.49871669878789" lon="9.234684507814443"><ele>129.4</ele><time>2026-04-30T05:30:50.038Z</time></trkpt><trkpt lat="45.498626616522344" lon="9.234710807917613"><ele>129.6</ele><time>2026-04-30T05:30:52.038Z</time></trkpt><trkpt lat="45.498576853515566" lon="9.234791110582648"><ele>129.8</ele><time>2026-04-30T05:30:56.038Z</time></trkpt><trkpt lat="45.49851932708548" lon="9.234834824711873"><ele>130.0</ele><time>2026-04-30T05:31:04.038Z</time></trkpt><trkpt lat="45.49849667893173" lon="9.234679423943126"><ele>130.0</ele><time>2026-04-30T05:31:06.038Z</time></trkpt><trkpt lat="45.498408534040614" lon="9.234563153792575"><ele>130.0</ele><time>2026-04-30T05:31:08.038Z</time></trkpt><trkpt lat="45.498360349515266" lon="9.234499594541795"><ele>130.0</ele><time>2026-04-30T05:31:09.038Z</time></trkpt><trkpt lat="45.49830889074986" lon="9.234431716318882"><ele>130.0</ele><time>2026-04-30T05:31:10.038Z</time></trkpt><trkpt lat="45.49825959217677" lon="9.234366687546444"><ele>130.0</ele><time>2026-04-30T05:31:11.038Z</time></trkpt><trkpt lat="45.4982016067505" lon="9.234290160719878"><ele>130.0</ele><time>2026-04-30T05:31:12.038Z</time></trkpt><trkpt lat="45.498146388008855" lon="9.234217228665537"><ele>130.0</ele><time>2026-04-30T05:31:13.038Z</time></trkpt><trkpt lat="45.49809784005294" lon="9.23415310740973"><ele>130.0</ele><time>2026-04-30T05:31:14.038Z</time></trkpt><trkpt lat="45.49800926256775" lon="9.234072859463499"><ele>130.0</ele><time>2026-04-30T05:31:16.038Z</time></trkpt><trkpt lat="45.49787638999786" lon="9.234183051821754"><ele>130.0</ele><time>2026-04-30T05:31:17.038Z</time></trkpt><trkpt lat="45.49778893719732" lon="9.234227225407142"><ele>130.0</ele><time>2026-04-30T05:31:18.038Z</time></trkpt><trkpt lat="45.497700992704" lon="9.234264672340547"><ele>130.0</ele><time>2026-04-30T05:31:19.038Z</time></trkpt><trkpt lat="45.497621684917306" lon="9.234356157314036"><ele>130.0</ele><time>2026-04-30T05:31:20.038Z</time></trkpt><trkpt lat="45.49753000533322" lon="9.234393034348374"><ele>130.0</ele><time>2026-04-30T05:31:21.038Z</time></trkpt><trkpt lat="45.4974384786007" lon="9.23443246464682"><ele>130.0</ele><time>2026-04-30T05:31:22.038Z</time></trkpt><trkpt lat="45.49734716719508" lon="9.234469823415237"><ele>130.0</ele><time>2026-04-30T05:31:23.038Z</time></trkpt><trkpt lat="45.49725353171537" lon="9.234501802916116"><ele>130.0</ele><time>2026-04-30T05:31:24.038Z</time></trkpt><trkpt lat="45.4972313313973" lon="9.2348488135028"><ele>130.0</ele><time>2026-04-30T05:31:25.038Z</time></trkpt><trkpt lat="45.497124610198796" lon="9.2348993098832"><ele>130.0</ele><time>2026-04-30T05:31:26.038Z</time></trkpt><trkpt lat="45.49702858036779" lon="9.23494417549477"><ele>130.0</ele><time>2026-04-30T05:31:27.038Z</time></trkpt><trkpt lat="45.496932633039506" lon="9.23498770955241"><ele>130.0</ele><time>2026-04-30T05:31:28.038Z</time></trkpt><trkpt lat="45.496833008751096" lon="9.235032296864851"><ele>130.0</ele><time>2026-04-30T05:31:29.038Z</time></trkpt><trkpt lat="45.496723944173944" lon="9.235078634392888"><ele>130.0</ele><time>2026-04-30T05:31:30.038Z</time></trkpt><trkpt lat="45.496596275111976" lon="9.23512783772308"><ele>130.0</ele><time>2026-04-30T05:31:31.038Z</time></trkpt><trkpt lat="45.49647410946359" lon="9.235169252016027"><ele>130.0</ele><time>2026-04-30T05:31:32.038Z</time></trkpt><trkpt lat="45.49637976842303" lon="9.235200661543075"><ele>130.0</ele><time>2026-04-30T05:31:33.038Z</time></trkpt><trkpt lat="45.49631262984468" lon="9.235222872091805"><ele>130.0</ele><time>2026-04-30T05:31:34.038Z</time></trkpt><trkpt lat="45.49621851541023" lon="9.235264348042795"><ele>130.0</ele><time>2026-04-30T05:31:36.038Z</time></trkpt><trkpt lat="45.49614995344518" lon="9.235294638169519"><ele>129.2</ele><time>2026-04-30T05:31:39.038Z</time></trkpt><trkpt lat="45.496085966720834" lon="9.235322906980816"><ele>128.4</ele><time>2026-04-30T05:31:55.039Z</time></trkpt><trkpt lat="45.49600742442529" lon="9.235357606362385"><ele>127.6</ele><time>2026-04-30T05:32:46.039Z</time></trkpt><trkpt lat="45.49582853047227" lon="9.235277439586334"><ele>126.8</ele><time>2026-04-30T05:33:00.039Z</time></trkpt><trkpt lat="45.495769037652416" lon="9.235155997045"><ele>126.0</ele><time>2026-04-30T05:33:01.039Z</time></trkpt><trkpt lat="45.495798329508574" lon="9.235450157092858"><ele>126.0</ele><time>2026-04-30T05:33:03.039Z</time></trkpt><trkpt lat="45.495494348870494" lon="9.235537929538618"><ele>126.0</ele><time>2026-04-30T05:33:05.039Z</time></trkpt><trkpt lat="45.49533927486982" lon="9.235589549335703"><ele>126.66666666666666</ele><time>2026-04-30T05:33:06.039Z</time></trkpt><trkpt lat="45.49517558374475" lon="9.235643071983333"><ele>127.33333333333333</ele><time>2026-04-30T05:33:07.039Z</time></trkpt><trkpt lat="45.49498672977863" lon="9.235698120145715"><ele>128.0</ele><time>2026-04-30T05:33:08.039Z</time></trkpt><trkpt lat="45.49481444226823" lon="9.235748547386518"><ele>128.0</ele><time>2026-04-30T05:33:09.039Z</time></trkpt><trkpt lat="45.4946341165925" lon="9.235804514633337"><ele>128.0</ele><time>2026-04-30T05:33:10.039Z</time></trkpt><trkpt lat="45.49444797643861" lon="9.23586424918318"><ele>128.0</ele><time>2026-04-30T05:33:11.039Z</time></trkpt><trkpt lat="45.49425992449861" lon="9.235924597124024"><ele>127.5</ele><time>2026-04-30T05:33:12.039Z</time></trkpt><trkpt lat="45.49397421570877" lon="9.236027708471351"><ele>127.0</ele><time>2026-04-30T05:33:13.039Z</time></trkpt><trkpt lat="45.49372990867694" lon="9.23610048932847"><ele>127.0</ele><time>2026-04-30T05:33:14.039Z</time></trkpt><trkpt lat="45.49353378233111" lon="9.236194838773928"><ele>127.0</ele><time>2026-04-30T05:33:15.039Z</time></trkpt><trkpt lat="45.49335950734562" lon="9.236243769331592"><ele>127.0</ele><time>2026-04-30T05:33:16.039Z</time></trkpt><trkpt lat="45.493199631969176" lon="9.236295144559458"><ele>127.0</ele><time>2026-04-30T05:33:17.039Z</time></trkpt><trkpt lat="45.49306216601308" lon="9.236335273101844"><ele>127.0</ele><time>2026-04-30T05:33:18.039Z</time></trkpt><trkpt lat="45.49292668563505" lon="9.23634723052705"><ele>127.0</ele><time>2026-04-30T05:33:19.039Z</time></trkpt><trkpt lat="45.49282614504972" lon="9.236383011094869"><ele>127.0</ele><time>2026-04-30T05:33:20.039Z</time></trkpt><trkpt lat="45.49271894054855" lon="9.236422598391927"><ele>127.0</ele><time>2026-04-30T05:33:21.039Z</time></trkpt><trkpt lat="45.49258689004272" lon="9.236467155332273"><ele>127.0</ele><time>2026-04-30T05:33:22.039Z</time></trkpt><trkpt lat="45.49244131274277" lon="9.236489045961317"><ele>127.0</ele><time>2026-04-30T05:33:23.039Z</time></trkpt><trkpt lat="45.49230526232482" lon="9.236541869319897"><ele>127.0</ele><time>2026-04-30T05:33:24.039Z</time></trkpt><trkpt lat="45.49216964263262" lon="9.23658780746293"><ele>126.0</ele><time>2026-04-30T05:33:25.039Z</time></trkpt><trkpt lat="45.492016776953236" lon="9.236633542950791"><ele>125.0</ele><time>2026-04-30T05:33:26.039Z</time></trkpt><trkpt lat="45.49188028020791" lon="9.236672253585425"><ele>124.0</ele><time>2026-04-30T05:33:27.039Z</time></trkpt><trkpt lat="45.491747894727055" lon="9.236709830029316"><ele>123.0</ele><time>2026-04-30T05:33:28.039Z</time></trkpt><trkpt lat="45.49163934953193" lon="9.236738288611333"><ele>123.0</ele><time>2026-04-30T05:33:29.039Z</time></trkpt><trkpt lat="45.491547810555225" lon="9.236792377545845"><ele>123.0</ele><time>2026-04-30T05:33:30.039Z</time></trkpt><trkpt lat="45.49146225111571" lon="9.23681714305769"><ele>123.0</ele><time>2026-04-30T05:33:31.039Z</time></trkpt><trkpt lat="45.491386772031845" lon="9.236847191277297"><ele>123.0</ele><time>2026-04-30T05:33:32.039Z</time></trkpt><trkpt lat="45.4913194476137" lon="9.236864027861053"><ele>123.0</ele><time>2026-04-30T05:33:33.039Z</time></trkpt><trkpt lat="45.49126463777616" lon="9.236915362983565"><ele>123.0</ele><time>2026-04-30T05:33:34.039Z</time></trkpt><trkpt lat="45.49119116968663" lon="9.236794169279895"><ele>123.16666666666667</ele><time>2026-04-30T05:33:36.039Z</time></trkpt><trkpt lat="45.49112732722218" lon="9.236725204424266"><ele>123.33333333333334</ele><time>2026-04-30T05:33:37.039Z</time></trkpt><trkpt lat="45.491050138776885" lon="9.236608713543717"><ele>123.5</ele><time>2026-04-30T05:33:38.039Z</time></trkpt><trkpt lat="45.49098468156551" lon="9.23661859310979"><ele>123.66666666666667</ele><time>2026-04-30T05:33:39.039Z</time></trkpt><trkpt lat="45.49092079116745" lon="9.236674825677934"><ele>123.83333333333334</ele><time>2026-04-30T05:33:40.039Z</time></trkpt><trkpt lat="45.49086611777239" lon="9.23677084775194"><ele>124.0</ele><time>2026-04-30T05:33:41.039Z</time></trkpt><trkpt lat="45.49081370672635" lon="9.236885829783855"><ele>124.0</ele><time>2026-04-30T05:33:42.039Z</time></trkpt><trkpt lat="45.490766529375364" lon="9.236989019455525"><ele>124.0</ele><time>2026-04-30T05:33:43.039Z</time></trkpt><trkpt lat="45.49060605742047" lon="9.236990507951809"><ele>124.0</ele><time>2026-04-30T05:33:44.039Z</time></trkpt><trkpt lat="45.490486210620915" lon="9.237004536589318"><ele>124.0</ele><time>2026-04-30T05:33:45.039Z</time></trkpt><trkpt lat="45.49030006740038" lon="9.237022057464259"><ele>125.0</ele><time>2026-04-30T05:33:46.039Z</time></trkpt><trkpt lat="45.49013879764758" lon="9.237022190574777"><ele>126.0</ele><time>2026-04-30T05:33:47.039Z</time></trkpt><trkpt lat="45.4899583564274" lon="9.237031359799879"><ele>127.0</ele><time>2026-04-30T05:33:48.039Z</time></trkpt><trkpt lat="45.4897884526936" lon="9.23703999558162"><ele>127.0</ele><time>2026-04-30T05:33:49.039Z</time></trkpt><trkpt lat="45.489624923202896" lon="9.237063250681667"><ele>127.0</ele><time>2026-04-30T05:33:50.039Z</time></trkpt><trkpt lat="45.48946949257872" lon="9.237078139332294"><ele>127.0</ele><time>2026-04-30T05:33:51.039Z</time></trkpt><trkpt lat="45.489307218113986" lon="9.237064449789328"><ele>127.0</ele><time>2026-04-30T05:33:52.039Z</time></trkpt><trkpt lat="45.489145193973435" lon="9.237073026111949"><ele>127.0</ele><time>2026-04-30T05:33:53.039Z</time></trkpt><trkpt lat="45.48899610807432" lon="9.237080956910138"><ele>127.0</ele><time>2026-04-30T05:33:54.039Z</time></trkpt><trkpt lat="45.48883247420589" lon="9.23708966159344"><ele>126.0</ele><time>2026-04-30T05:33:55.043Z</time></trkpt><trkpt lat="45.48867346267744" lon="9.237098120399178"><ele>125.0</ele><time>2026-04-30T05:33:56.043Z</time></trkpt><trkpt lat="45.488526057561366" lon="9.237071652329456"><ele>124.0</ele><time>2026-04-30T05:33:57.043Z</time></trkpt><trkpt lat="45.48840206843682" lon="9.237105320262621"><ele>123.0</ele><time>2026-04-30T05:33:58.041Z</time></trkpt><trkpt lat="45.48825740343639" lon="9.237119124700174"><ele>123.0</ele><time>2026-04-30T05:33:59.038Z</time></trkpt><trkpt lat="45.4881083079175" lon="9.237183309985195"><ele>123.0</ele><time>2026-04-30T05:34:00.035Z</time></trkpt><trkpt lat="45.48796160652733" lon="9.237199435214343"><ele>123.0</ele><time>2026-04-30T05:34:01.033Z</time></trkpt><trkpt lat="45.487849629833725" lon="9.23714585213518"><ele>123.0</ele><time>2026-04-30T05:34:02.031Z</time></trkpt><trkpt lat="45.487717671921025" lon="9.237152969570388"><ele>123.0</ele><time>2026-04-30T05:34:03.029Z</time></trkpt><trkpt lat="45.487592339900246" lon="9.23715382005802"><ele>123.0</ele><time>2026-04-30T05:34:04.027Z</time></trkpt><trkpt lat="45.48747847083675" lon="9.237159762347721"><ele>123.0</ele><time>2026-04-30T05:34:05.025Z</time></trkpt><trkpt lat="45.48735168334421" lon="9.237165997560998"><ele>123.0</ele><time>2026-04-30T05:34:06.023Z</time></trkpt><trkpt lat="45.48724014176282" lon="9.237171556404368"><ele>123.0</ele><time>2026-04-30T05:34:07.022Z</time></trkpt><trkpt lat="45.48711872687724" lon="9.237177607308421"><ele>123.0</ele><time>2026-04-30T05:34:08.02Z</time></trkpt><trkpt lat="45.48702686509862" lon="9.237182185380389"><ele>123.0</ele><time>2026-04-30T05:34:09.018Z</time></trkpt><trkpt lat="45.48695814071507" lon="9.237185610369426"><ele>123.0</ele><time>2026-04-30T05:34:10.017Z</time></trkpt><trkpt lat="45.48687574020284" lon="9.237189716927105"><ele>123.0</ele><time>2026-04-30T05:34:11.016Z</time></trkpt><trkpt lat="45.4867961087053" lon="9.237193685486666"><ele>123.0</ele><time>2026-04-30T05:34:12.015Z</time></trkpt><trkpt lat="45.48670249158405" lon="9.237198351045476"><ele>123.0</ele><time>2026-04-30T05:34:13.014Z</time></trkpt><trkpt lat="45.486631158523835" lon="9.237201906037"><ele>123.00000000000001</ele><time>2026-04-30T05:34:14.013Z</time></trkpt><trkpt lat="45.48652243011555" lon="9.237207324691674"><ele>123.00000000000001</ele><time>2026-04-30T05:34:16.011Z</time></trkpt><trkpt lat="45.48636618736165" lon="9.237180638168523"><ele>123.0</ele><time>2026-04-30T05:34:58Z</time></trkpt><trkpt lat="45.48629482403869" lon="9.237237455093648"><ele>123.0</ele><time>2026-04-30T05:34:59Z</time></trkpt><trkpt lat="45.48623357270715" lon="9.237265160883238"><ele>123.5</ele><time>2026-04-30T05:35:00Z</time></trkpt><trkpt lat="45.486122710929905" lon="9.237417232594504"><ele>124.0</ele><time>2026-04-30T05:35:01.999Z</time></trkpt><trkpt lat="45.48604601613283" lon="9.237511769887297"><ele>124.5</ele><time>2026-04-30T05:35:03Z</time></trkpt><trkpt lat="45.486001008780036" lon="9.237654767738427"><ele>125.0</ele><time>2026-04-30T05:35:03.999Z</time></trkpt><trkpt lat="45.48597684001931" lon="9.237797765526572"><ele>124.99999999999999</ele><time>2026-04-30T05:35:04.999Z</time></trkpt><trkpt lat="45.485959936043095" lon="9.237937971761255"><ele>125.0</ele><time>2026-04-30T05:35:05.999Z</time></trkpt><trkpt lat="45.48594407571677" lon="9.238056671259626"><ele>125.0</ele><time>2026-04-30T05:35:06.999Z</time></trkpt><trkpt lat="45.48593146773234" lon="9.238228352109989"><ele>125.0</ele><time>2026-04-30T05:35:08.999Z</time></trkpt><trkpt lat="45.48592450599023" lon="9.23834089008345"><ele>124.99999999999999</ele><time>2026-04-30T05:35:10.999Z</time></trkpt><trkpt lat="45.485875208170384" lon="9.238399464534792"><ele>125.0</ele><time>2026-04-30T05:35:31.999Z</time></trkpt><trkpt lat="45.48590001267671" lon="9.238577215915713"><ele>124.75</ele><time>2026-04-30T05:35:33.999Z</time></trkpt><trkpt lat="45.48591191890121" lon="9.238736886582025"><ele>124.5</ele><time>2026-04-30T05:35:34.999Z</time></trkpt><trkpt lat="45.485941891414036" lon="9.238905529167058"><ele>124.25</ele><time>2026-04-30T05:35:35.999Z</time></trkpt><trkpt lat="45.48593109304242" lon="9.239088546041936"><ele>124.0</ele><time>2026-04-30T05:35:36.999Z</time></trkpt><trkpt lat="45.485990949181414" lon="9.239279538561824"><ele>124.0</ele><time>2026-04-30T05:35:37.999Z</time></trkpt><trkpt lat="45.48597961175575" lon="9.23948370885552"><ele>124.0</ele><time>2026-04-30T05:35:38.999Z</time></trkpt><trkpt lat="45.485982943410505" lon="9.239669621274688"><ele>124.0</ele><time>2026-04-30T05:35:39.999Z</time></trkpt><trkpt lat="45.485996681381884" lon="9.239818437028212"><ele>124.0</ele><time>2026-04-30T05:35:40.999Z</time></trkpt><trkpt lat="45.48603045446637" lon="9.239941859138742"><ele>124.0</ele><time>2026-04-30T05:35:41.999Z</time></trkpt><trkpt lat="45.486047538827115" lon="9.240068080660485"><ele>124.0</ele><time>2026-04-30T05:35:43.999Z</time></trkpt><trkpt lat="45.486054009445404" lon="9.24016795528051"><ele>124.0</ele><time>2026-04-30T05:35:46.999Z</time></trkpt><trkpt lat="45.48607063078938" lon="9.2403179546565"><ele>124.0</ele><time>2026-04-30T05:35:55.999Z</time></trkpt><trkpt lat="45.486083249815984" lon="9.240505613581329"><ele>124.0</ele><time>2026-04-30T05:35:57.999Z</time></trkpt><trkpt lat="45.4860957264928" lon="9.240689154760993"><ele>124.0</ele><time>2026-04-30T05:35:58.999Z</time></trkpt><trkpt lat="45.486115041427134" lon="9.240899814726012"><ele>124.0</ele><time>2026-04-30T05:35:59.999Z</time></trkpt><trkpt lat="45.486117205487254" lon="9.241127066332979"><ele>124.0</ele><time>2026-04-30T05:36:00.998Z</time></trkpt><trkpt lat="45.48611761210777" lon="9.241350613244746"><ele>124.0</ele><time>2026-04-30T05:36:01.998Z</time></trkpt><trkpt lat="45.48612329813433" lon="9.241559694250345"><ele>124.0</ele><time>2026-04-30T05:36:02.998Z</time></trkpt><trkpt lat="45.48613631972622" lon="9.241740233816586"><ele>124.0</ele><time>2026-04-30T05:36:03.998Z</time></trkpt><trkpt lat="45.486160964195214" lon="9.241911932612103"><ele>124.0</ele><time>2026-04-30T05:36:04.998Z</time></trkpt><trkpt lat="45.48616889193395" lon="9.242029261500981"><ele>124.00000000000001</ele><time>2026-04-30T05:36:05.998Z</time></trkpt><trkpt lat="45.48618582534787" lon="9.24213265224907"><ele>124.0</ele><time>2026-04-30T05:36:06.998Z</time></trkpt><trkpt lat="45.48619101238576" lon="9.242227284625024"><ele>124.0</ele><time>2026-04-30T05:36:07.998Z</time></trkpt><trkpt lat="45.486189133577795" lon="9.242332767801749"><ele>124.0</ele><time>2026-04-30T05:36:08.998Z</time></trkpt><trkpt lat="45.4862472068699" lon="9.242405322800032"><ele>124.00000000000001</ele><time>2026-04-30T05:36:10.998Z</time></trkpt><trkpt lat="45.48625978280632" lon="9.242510150502694"><ele>124.0</ele><time>2026-04-30T05:36:13.998Z</time></trkpt><trkpt lat="45.486274253890606" lon="9.242670951738939"><ele>124.75</ele><time>2026-04-30T05:36:46.998Z</time></trkpt><trkpt lat="45.48630650862105" lon="9.242882772923242"><ele>125.5</ele><time>2026-04-30T05:36:48.998Z</time></trkpt><trkpt lat="45.4863397526047" lon="9.24301175475534"><ele>126.25</ele><time>2026-04-30T05:36:49.998Z</time></trkpt><trkpt lat="45.48636145978384" lon="9.243163234802712"><ele>127.0</ele><time>2026-04-30T05:36:50.998Z</time></trkpt><trkpt lat="45.48636557554835" lon="9.243328211368468"><ele>127.0</ele><time>2026-04-30T05:36:51.998Z</time></trkpt><trkpt lat="45.486397457522266" lon="9.243468783702534"><ele>126.99999999999999</ele><time>2026-04-30T05:36:52.998Z</time></trkpt><trkpt lat="45.48636977121292" lon="9.243648634160117"><ele>126.99999999999999</ele><time>2026-04-30T05:36:53.998Z</time></trkpt><trkpt lat="45.48638506338943" lon="9.243807490722455"><ele>127.0</ele><time>2026-04-30T05:36:54.998Z</time></trkpt><trkpt lat="45.48639841391323" lon="9.24394952865569"><ele>127.0</ele><time>2026-04-30T05:36:55.998Z</time></trkpt><trkpt lat="45.486418943522885" lon="9.244095034082276"><ele>126.25</ele><time>2026-04-30T05:36:56.998Z</time></trkpt><trkpt lat="45.48643458428659" lon="9.244256840054828"><ele>125.5</ele><time>2026-04-30T05:36:57.998Z</time></trkpt><trkpt lat="45.48645076698855" lon="9.244414068261218"><ele>124.75</ele><time>2026-04-30T05:36:58.998Z</time></trkpt><trkpt lat="45.48648552911145" lon="9.244710496372685"><ele>124.0</ele><time>2026-04-30T05:37:00.998Z</time></trkpt><trkpt lat="45.48650059718552" lon="9.244844341488447"><ele>124.0</ele><time>2026-04-30T05:37:01.998Z</time></trkpt><trkpt lat="45.486504691641365" lon="9.244992097704976"><ele>124.0</ele><time>2026-04-30T05:37:02.998Z</time></trkpt><trkpt lat="45.486515027342634" lon="9.245153972846143"><ele>124.0</ele><time>2026-04-30T05:37:03.998Z</time></trkpt><trkpt lat="45.48652321144163" lon="9.245301324157952"><ele>124.0</ele><time>2026-04-30T05:37:04.998Z</time></trkpt><trkpt lat="45.486537643224544" lon="9.24544441059066"><ele>124.0</ele><time>2026-04-30T05:37:05.998Z</time></trkpt><trkpt lat="45.486555439191235" lon="9.245598079508008"><ele>123.83333333333334</ele><time>2026-04-30T05:37:06.998Z</time></trkpt><trkpt lat="45.48658163935203" lon="9.245754319465346"><ele>123.66666666666667</ele><time>2026-04-30T05:37:07.998Z</time></trkpt><trkpt lat="45.48659055162259" lon="9.245882160499225"><ele>123.5</ele><time>2026-04-30T05:37:08.998Z</time></trkpt><trkpt lat="45.48658873564851" lon="9.245974337124506"><ele>123.33333333333334</ele><time>2026-04-30T05:37:09.998Z</time></trkpt><trkpt lat="45.48659651187004" lon="9.24612471719573"><ele>123.16666666666667</ele><time>2026-04-30T05:37:11.998Z</time></trkpt><trkpt lat="45.48660611187953" lon="9.246220246732237"><ele>123.0</ele><time>2026-04-30T05:37:12.998Z</time></trkpt><trkpt lat="45.48661839290321" lon="9.246400638679653"><ele>122.80000000000001</ele><time>2026-04-30T05:37:14.998Z</time></trkpt><trkpt lat="45.486640641952704" lon="9.24651060645337"><ele>122.60000000000001</ele><time>2026-04-30T05:37:15.998Z</time></trkpt><trkpt lat="45.48668802655415" lon="9.246613834123867"><ele>122.39999999999999</ele><time>2026-04-30T05:37:16.998Z</time></trkpt><trkpt lat="45.48670137125975" lon="9.246719002940647"><ele>122.19999999999999</ele><time>2026-04-30T05:37:17.998Z</time></trkpt><trkpt lat="45.486716232845204" lon="9.24685361980659"><ele>122.0</ele><time>2026-04-30T05:37:18.998Z</time></trkpt><trkpt lat="45.48673672894488" lon="9.247029843303254"><ele>122.0</ele><time>2026-04-30T05:37:19.998Z</time></trkpt><trkpt lat="45.48675867433913" lon="9.24721852769209"><ele>122.0</ele><time>2026-04-30T05:37:20.998Z</time></trkpt><trkpt lat="45.48678718344157" lon="9.247408367304258"><ele>122.0</ele><time>2026-04-30T05:37:21.998Z</time></trkpt><trkpt lat="45.48679570701899" lon="9.24764100795579"><ele>122.0</ele><time>2026-04-30T05:37:22.998Z</time></trkpt><trkpt lat="45.48681927419165" lon="9.247869761283047"><ele>121.33333333333333</ele><time>2026-04-30T05:37:23.998Z</time></trkpt><trkpt lat="45.486791153922745" lon="9.2481223038304"><ele>120.66666666666666</ele><time>2026-04-30T05:37:24.998Z</time></trkpt><trkpt lat="45.48678715855621" lon="9.248359514940898"><ele>120.0</ele><time>2026-04-30T05:37:25.998Z</time></trkpt><trkpt lat="45.48681282377369" lon="9.248604150576133"><ele>119.66666666666666</ele><time>2026-04-30T05:37:26.998Z</time></trkpt><trkpt lat="45.48683268754685" lon="9.248829493199434"><ele>119.33333333333333</ele><time>2026-04-30T05:37:27.998Z</time></trkpt><trkpt lat="45.486849765052575" lon="9.249062863563557"><ele>119.0</ele><time>2026-04-30T05:37:28.998Z</time></trkpt><trkpt lat="45.48688686543769" lon="9.249285368260104"><ele>118.5</ele><time>2026-04-30T05:37:29.998Z</time></trkpt><trkpt lat="45.48689547820282" lon="9.249491584870194"><ele>118.0</ele><time>2026-04-30T05:37:30.998Z</time></trkpt><trkpt lat="45.48691156339721" lon="9.249697579156026"><ele>117.5</ele><time>2026-04-30T05:37:31.998Z</time></trkpt><trkpt lat="45.48693282091072" lon="9.24990310655832"><ele>117.0</ele><time>2026-04-30T05:37:32.998Z</time></trkpt><trkpt lat="45.48694217893827" lon="9.250084868260615"><ele>117.0</ele><time>2026-04-30T05:37:33.998Z</time></trkpt><trkpt lat="45.48695033945178" lon="9.250260383371852"><ele>117.0</ele><time>2026-04-30T05:37:34.998Z</time></trkpt><trkpt lat="45.48693518291912" lon="9.250416118576654"><ele>117.0</ele><time>2026-04-30T05:37:35.998Z</time></trkpt><trkpt lat="45.486884788887934" lon="9.250550745678083"><ele>117.0</ele><time>2026-04-30T05:37:36.998Z</time></trkpt><trkpt lat="45.486793571231885" lon="9.250689635949222"><ele>116.75</ele><time>2026-04-30T05:37:37.998Z</time></trkpt><trkpt lat="45.48672108110266" lon="9.250830172868692"><ele>116.5</ele><time>2026-04-30T05:37:38.998Z</time></trkpt><trkpt lat="45.48660937971382" lon="9.250892552338671"><ele>116.25</ele><time>2026-04-30T05:37:39.998Z</time></trkpt><trkpt lat="45.48646668403366" lon="9.250948753833608"><ele>116.0</ele><time>2026-04-30T05:37:40.998Z</time></trkpt><trkpt lat="45.486290766939476" lon="9.250981205272193"><ele>116.66666666666666</ele><time>2026-04-30T05:37:41.998Z</time></trkpt><trkpt lat="45.48614062249355" lon="9.250964326652305"><ele>117.33333333333334</ele><time>2026-04-30T05:37:42.998Z</time></trkpt><trkpt lat="45.48597554664122" lon="9.250987483293393"><ele>118.0</ele><time>2026-04-30T05:37:43.998Z</time></trkpt><trkpt lat="45.48580411596244" lon="9.25094025584449"><ele>118.0</ele><time>2026-04-30T05:37:44.998Z</time></trkpt><trkpt lat="45.485639666447064" lon="9.250859235557321"><ele>118.0</ele><time>2026-04-30T05:37:45.998Z</time></trkpt><trkpt lat="45.48546226607465" lon="9.25083449439592"><ele>118.0</ele><time>2026-04-30T05:37:46.998Z</time></trkpt><trkpt lat="45.485310716766776" lon="9.250848996709292"><ele>118.0</ele><time>2026-04-30T05:37:47.998Z</time></trkpt><trkpt lat="45.485140890259736" lon="9.25081091630156"><ele>118.0</ele><time>2026-04-30T05:37:48.998Z</time></trkpt><trkpt lat="45.48494992314571" lon="9.250828231585912"><ele>118.0</ele><time>2026-04-30T05:37:49.998Z</time></trkpt><trkpt lat="45.48474956108417" lon="9.250779958644879"><ele>118.66666666666667</ele><time>2026-04-30T05:37:50.998Z</time></trkpt><trkpt lat="45.48457522849359" lon="9.250779958642152"><ele>119.33333333333334</ele><time>2026-04-30T05:37:51.998Z</time></trkpt><trkpt lat="45.4843852266269" lon="9.250772041461294"><ele>120.0</ele><time>2026-04-30T05:37:52.998Z</time></trkpt><trkpt lat="45.484207150713424" lon="9.250783559345681"><ele>120.0</ele><time>2026-04-30T05:37:53.998Z</time></trkpt><trkpt lat="45.48404224049448" lon="9.25082045807562"><ele>120.0</ele><time>2026-04-30T05:37:54.998Z</time></trkpt><trkpt lat="45.48387041519449" lon="9.250853491505518"><ele>120.0</ele><time>2026-04-30T05:37:55.998Z</time></trkpt><trkpt lat="45.48370811871786" lon="9.250884296556583"><ele>119.33333333333334</ele><time>2026-04-30T05:37:56.998Z</time></trkpt><trkpt lat="45.483551286673645" lon="9.250902949908625"><ele>118.66666666666667</ele><time>2026-04-30T05:37:57.998Z</time></trkpt><trkpt lat="45.483407727328675" lon="9.250961640530287"><ele>118.0</ele><time>2026-04-30T05:37:58.998Z</time></trkpt><trkpt lat="45.48323760661517" lon="9.251020863305394"><ele>118.0</ele><time>2026-04-30T05:37:59.998Z</time></trkpt><trkpt lat="45.48308361063864" lon="9.251093400972776"><ele>118.0</ele><time>2026-04-30T05:38:00.998Z</time></trkpt><trkpt lat="45.48292685939154" lon="9.251154383444016"><ele>118.0</ele><time>2026-04-30T05:38:01.998Z</time></trkpt><trkpt lat="45.48275609013562" lon="9.251200986748339"><ele>118.66666666666667</ele><time>2026-04-30T05:38:02.998Z</time></trkpt><trkpt lat="45.48259924804681" lon="9.251302371872052"><ele>119.33333333333334</ele><time>2026-04-30T05:38:03.998Z</time></trkpt><trkpt lat="45.48242777208316" lon="9.251348954626307"><ele>120.0</ele><time>2026-04-30T05:38:04.998Z</time></trkpt><trkpt lat="45.48226145820243" lon="9.251409699807938"><ele>120.0</ele><time>2026-04-30T05:38:05.998Z</time></trkpt><trkpt lat="45.48212031613496" lon="9.251463795278331"><ele>120.0</ele><time>2026-04-30T05:38:06.998Z</time></trkpt><trkpt lat="45.48197912428847" lon="9.251536582527724"><ele>120.0</ele><time>2026-04-30T05:38:07.998Z</time></trkpt><trkpt lat="45.48183577459143" lon="9.251586922338397"><ele>120.0</ele><time>2026-04-30T05:38:08.998Z</time></trkpt><trkpt lat="45.481675960768726" lon="9.251649941343732"><ele>120.25</ele><time>2026-04-30T05:38:09.998Z</time></trkpt><trkpt lat="45.48153442369723" lon="9.251710486931241"><ele>120.5</ele><time>2026-04-30T05:38:10.998Z</time></trkpt><trkpt lat="45.48139977205342" lon="9.251772606561255"><ele>120.75</ele><time>2026-04-30T05:38:11.998Z</time></trkpt><trkpt lat="45.48126223805205" lon="9.251837404525292"><ele>121.0</ele><time>2026-04-30T05:38:12.998Z</time></trkpt><trkpt lat="45.48114205291494" lon="9.251893870167999"><ele>121.0</ele><time>2026-04-30T05:38:13.998Z</time></trkpt><trkpt lat="45.48103345376076" lon="9.251943845212526"><ele>121.0</ele><time>2026-04-30T05:38:14.998Z</time></trkpt><trkpt lat="45.480891989452466" lon="9.25190111980415"><ele>121.0</ele><time>2026-04-30T05:38:15.998Z</time></trkpt><trkpt lat="45.48075729799893" lon="9.251942802984232"><ele>121.0</ele><time>2026-04-30T05:38:16.998Z</time></trkpt><trkpt lat="45.48063641788984" lon="9.252005741271848"><ele>121.0</ele><time>2026-04-30T05:38:17.998Z</time></trkpt><trkpt lat="45.48050698099879" lon="9.252062928447268"><ele>121.0</ele><time>2026-04-30T05:38:18.998Z</time></trkpt><trkpt lat="45.48038346717101" lon="9.252142858882022"><ele>121.0</ele><time>2026-04-30T05:38:19.998Z</time></trkpt><trkpt lat="45.480263553766534" lon="9.252196606407756"><ele>121.0</ele><time>2026-04-30T05:38:20.998Z</time></trkpt><trkpt lat="45.48018437311441" lon="9.252239519989041"><ele>120.33333333333334</ele><time>2026-04-30T05:38:21.998Z</time></trkpt><trkpt lat="45.48011157205756" lon="9.25227373120213"><ele>119.66666666666667</ele><time>2026-04-30T05:38:22.998Z</time></trkpt><trkpt lat="45.480045361988644" lon="9.252300656830867"><ele>119.0</ele><time>2026-04-30T05:38:23.998Z</time></trkpt><trkpt lat="45.479964078912815" lon="9.252332275609112"><ele>118.33333333333334</ele><time>2026-04-30T05:38:24.997Z</time></trkpt><trkpt lat="45.47989144077507" lon="9.252368562205762"><ele>117.66666666666667</ele><time>2026-04-30T05:38:25.997Z</time></trkpt><trkpt lat="45.47980339829687" lon="9.25240183290242"><ele>117.0</ele><time>2026-04-30T05:38:26.997Z</time></trkpt><trkpt lat="45.47972162599278" lon="9.25244841395112"><ele>117.0</ele><time>2026-04-30T05:38:27.997Z</time></trkpt><trkpt lat="45.47963489383915" lon="9.252493269992907"><ele>117.0</ele><time>2026-04-30T05:38:28.997Z</time></trkpt><trkpt lat="45.479560798334255" lon="9.252523577101355"><ele>117.0</ele><time>2026-04-30T05:38:29.997Z</time></trkpt><trkpt lat="45.479485894250516" lon="9.252549194105445"><ele>117.0</ele><time>2026-04-30T05:38:30.997Z</time></trkpt><trkpt lat="45.479415415296316" lon="9.252577068679738"><ele>117.0</ele><time>2026-04-30T05:38:31.997Z</time></trkpt><trkpt lat="45.47934448617757" lon="9.25261412978792"><ele>117.0</ele><time>2026-04-30T05:38:32.997Z</time></trkpt><trkpt lat="45.47920994458242" lon="9.252689025820507"><ele>116.83333333333333</ele><time>2026-04-30T05:38:34.997Z</time></trkpt><trkpt lat="45.47914440562698" lon="9.252715537074728"><ele>116.66666666666666</ele><time>2026-04-30T05:38:35.997Z</time></trkpt><trkpt lat="45.4790607355357" lon="9.252751938057163"><ele>116.5</ele><time>2026-04-30T05:38:36.997Z</time></trkpt><trkpt lat="45.478976804252184" lon="9.252778812348778"><ele>116.33333333333333</ele><time>2026-04-30T05:38:37.997Z</time></trkpt><trkpt lat="45.47890064611035" lon="9.252814569160096"><ele>116.16666666666666</ele><time>2026-04-30T05:38:38.997Z</time></trkpt><trkpt lat="45.478791549142755" lon="9.252870675201697"><ele>116.0</ele><time>2026-04-30T05:38:39.997Z</time></trkpt><trkpt lat="45.478679267269804" lon="9.252918757046274"><ele>116.0</ele><time>2026-04-30T05:38:40.997Z</time></trkpt><trkpt lat="45.47855306886525" lon="9.252979472493756"><ele>116.0</ele><time>2026-04-30T05:38:41.997Z</time></trkpt><trkpt lat="45.47843826768961" lon="9.253070006792568"><ele>116.0</ele><time>2026-04-30T05:38:42.997Z</time></trkpt><trkpt lat="45.47831160472188" lon="9.253117190637706"><ele>116.0</ele><time>2026-04-30T05:38:43.997Z</time></trkpt><trkpt lat="45.47818122926699" lon="9.253193481398455"><ele>116.25</ele><time>2026-04-30T05:38:44.997Z</time></trkpt><trkpt lat="45.4780361558136" lon="9.253249145526967"><ele>116.5</ele><time>2026-04-30T05:38:45.997Z</time></trkpt><trkpt lat="45.477887976378476" lon="9.253309785032531"><ele>116.75</ele><time>2026-04-30T05:38:46.997Z</time></trkpt><trkpt lat="45.4777512615015" lon="9.253353456014166"><ele>117.0</ele><time>2026-04-30T05:38:47.997Z</time></trkpt><trkpt lat="45.47761945862396" lon="9.253399687958835"><ele>117.0</ele><time>2026-04-30T05:38:48.997Z</time></trkpt><trkpt lat="45.47748086825627" lon="9.253466962773645"><ele>117.0</ele><time>2026-04-30T05:38:49.997Z</time></trkpt><trkpt lat="45.47733306652209" lon="9.253498888199443"><ele>117.0</ele><time>2026-04-30T05:38:50.997Z</time></trkpt><trkpt lat="45.47719262625022" lon="9.253523184035567"><ele>117.0</ele><time>2026-04-30T05:38:51.997Z</time></trkpt><trkpt lat="45.4770487253813" lon="9.253549425726929"><ele>117.0</ele><time>2026-04-30T05:38:52.997Z</time></trkpt><trkpt lat="45.47691473416166" lon="9.253568390268581"><ele>117.0</ele><time>2026-04-30T05:38:53.997Z</time></trkpt><trkpt lat="45.4767679115448" lon="9.253579697575198"><ele>117.0</ele><time>2026-04-30T05:38:54.997Z</time></trkpt><trkpt lat="45.47662112412823" lon="9.253588063367578"><ele>117.0</ele><time>2026-04-30T05:38:55.997Z</time></trkpt><trkpt lat="45.476465742910456" lon="9.25349983840458"><ele>117.0</ele><time>2026-04-30T05:38:56.997Z</time></trkpt><trkpt lat="45.47633384096065" lon="9.253489204713025"><ele>117.0</ele><time>2026-04-30T05:38:57.997Z</time></trkpt><trkpt lat="45.47618209488414" lon="9.253535464207673"><ele>117.0</ele><time>2026-04-30T05:38:58.997Z</time></trkpt><trkpt lat="45.47604210204548" lon="9.253549034917304"><ele>117.0</ele><time>2026-04-30T05:38:59.997Z</time></trkpt><trkpt lat="45.47591239197902" lon="9.253535653589921"><ele>117.0</ele><time>2026-04-30T05:39:00.997Z</time></trkpt><trkpt lat="45.47577552385654" lon="9.253554784417672"><ele>117.0</ele><time>2026-04-30T05:39:01.997Z</time></trkpt><trkpt lat="45.47564731473608" lon="9.253519597769227"><ele>117.0</ele><time>2026-04-30T05:39:02.997Z</time></trkpt><trkpt lat="45.47551098603259" lon="9.25348773955093"><ele>117.0</ele><time>2026-04-30T05:39:03.997Z</time></trkpt><trkpt lat="45.47538277808805" lon="9.253452845497751"><ele>117.75</ele><time>2026-04-30T05:39:04.997Z</time></trkpt><trkpt lat="45.475250163098885" lon="9.253416714846198"><ele>118.5</ele><time>2026-04-30T05:39:05.997Z</time></trkpt><trkpt lat="45.47513742301699" lon="9.253385595089199"><ele>119.25</ele><time>2026-04-30T05:39:06.997Z</time></trkpt><trkpt lat="45.4750303532406" lon="9.253352128544858"><ele>120.0</ele><time>2026-04-30T05:39:07.997Z</time></trkpt><trkpt lat="45.474904148964015" lon="9.253308775932737"><ele>120.0</ele><time>2026-04-30T05:39:08.997Z</time></trkpt><trkpt lat="45.4748238730118" lon="9.253221002271795"><ele>120.0</ele><time>2026-04-30T05:39:09.997Z</time></trkpt><trkpt lat="45.47471925659141" lon="9.253162600751132"><ele>120.0</ele><time>2026-04-30T05:39:10.997Z</time></trkpt><trkpt lat="45.47459879854199" lon="9.25312240737819"><ele>120.0</ele><time>2026-04-30T05:39:11.997Z</time></trkpt><trkpt lat="45.47448718348595" lon="9.253080055852772"><ele>119.4</ele><time>2026-04-30T05:39:12.997Z</time></trkpt><trkpt lat="45.47437833033285" lon="9.253036643501773"><ele>118.8</ele><time>2026-04-30T05:39:13.997Z</time></trkpt><trkpt lat="45.47427523798933" lon="9.25302247282736"><ele>118.19999999999999</ele><time>2026-04-30T05:39:14.997Z</time></trkpt><trkpt lat="45.47416270386739" lon="9.253017605544711"><ele>117.6</ele><time>2026-04-30T05:39:15.997Z</time></trkpt><trkpt lat="45.474051838004094" lon="9.253022202237046"><ele>117.0</ele><time>2026-04-30T05:39:16.997Z</time></trkpt><trkpt lat="45.4739416799973" lon="9.252981374021045"><ele>117.0</ele><time>2026-04-30T05:39:17.997Z</time></trkpt><trkpt lat="45.473842988526634" lon="9.252944795638156"><ele>117.0</ele><time>2026-04-30T05:39:18.997Z</time></trkpt><trkpt lat="45.47372699293711" lon="9.25290180377749"><ele>117.0</ele><time>2026-04-30T05:39:19.997Z</time></trkpt><trkpt lat="45.4735961601025" lon="9.252851845860752"><ele>117.0</ele><time>2026-04-30T05:39:20.997Z</time></trkpt><trkpt lat="45.47348269285915" lon="9.25280751453528"><ele>117.5</ele><time>2026-04-30T05:39:21.997Z</time></trkpt><trkpt lat="45.47335420777182" lon="9.252760488752122"><ele>118.0</ele><time>2026-04-30T05:39:22.997Z</time></trkpt><trkpt lat="45.473224820500306" lon="9.25271693891667"><ele>118.5</ele><time>2026-04-30T05:39:23.997Z</time></trkpt><trkpt lat="45.473095935526246" lon="9.252673791945949"><ele>119.0</ele><time>2026-04-30T05:39:24.997Z</time></trkpt><trkpt lat="45.47296418973849" lon="9.252568433141619"><ele>119.66666666666666</ele><time>2026-04-30T05:39:25.997Z</time></trkpt><trkpt lat="45.47282983637134" lon="9.252543433342288"><ele>120.33333333333334</ele><time>2026-04-30T05:39:26.997Z</time></trkpt><trkpt lat="45.472657736731676" lon="9.252496482046926"><ele>121.0</ele><time>2026-04-30T05:39:27.997Z</time></trkpt><trkpt lat="45.4725174416247" lon="9.252506008563818"><ele>121.0</ele><time>2026-04-30T05:39:28.997Z</time></trkpt><trkpt lat="45.472357760555624" lon="9.252460661979015"><ele>121.0</ele><time>2026-04-30T05:39:29.997Z</time></trkpt><trkpt lat="45.472179627492054" lon="9.252451967083418"><ele>121.0</ele><time>2026-04-30T05:39:30.997Z</time></trkpt><trkpt lat="45.472008267656825" lon="9.25239105415216"><ele>119.66666666666667</ele><time>2026-04-30T05:39:31.997Z</time></trkpt><trkpt lat="45.471849808375005" lon="9.25235530141405"><ele>118.33333333333334</ele><time>2026-04-30T05:39:32.997Z</time></trkpt><trkpt lat="45.47169917799924" lon="9.25232183122864"><ele>117.0</ele><time>2026-04-30T05:39:33.997Z</time></trkpt><trkpt lat="45.47155166427925" lon="9.25229207050814"><ele>116.0</ele><time>2026-04-30T05:39:34.997Z</time></trkpt><trkpt lat="45.471400990622875" lon="9.252261988711968"><ele>115.0</ele><time>2026-04-30T05:39:35.997Z</time></trkpt><trkpt lat="45.471255898456825" lon="9.252235226479014"><ele>114.0</ele><time>2026-04-30T05:39:36.997Z</time></trkpt><trkpt lat="45.47110207813854" lon="9.252206862712532"><ele>113.66666666666666</ele><time>2026-04-30T05:39:37.997Z</time></trkpt><trkpt lat="45.47095587533819" lon="9.252184219269783"><ele>113.33333333333333</ele><time>2026-04-30T05:39:38.997Z</time></trkpt><trkpt lat="45.47079023338523" lon="9.252161257949112"><ele>113.0</ele><time>2026-04-30T05:39:39.997Z</time></trkpt><trkpt lat="45.47064452432657" lon="9.252144213663295"><ele>113.0</ele><time>2026-04-30T05:39:40.997Z</time></trkpt><trkpt lat="45.47047794490528" lon="9.252126040133172"><ele>113.0</ele><time>2026-04-30T05:39:41.997Z</time></trkpt><trkpt lat="45.47033190013904" lon="9.252110977608764"><ele>113.0</ele><time>2026-04-30T05:39:42.997Z</time></trkpt><trkpt lat="45.470189931506894" lon="9.252097734843607"><ele>113.33333333333333</ele><time>2026-04-30T05:39:43.997Z</time></trkpt><trkpt lat="45.4700222001703" lon="9.25208321605389"><ele>113.66666666666666</ele><time>2026-04-30T05:39:44.997Z</time></trkpt><trkpt lat="45.46987383915888" lon="9.252073003473303"><ele>114.0</ele><time>2026-04-30T05:39:45.997Z</time></trkpt><trkpt lat="45.46971257147129" lon="9.252063005190964"><ele>113.5</ele><time>2026-04-30T05:39:46.997Z</time></trkpt><trkpt lat="45.46956977951982" lon="9.252056494415932"><ele>113.0</ele><time>2026-04-30T05:39:47.997Z</time></trkpt><trkpt lat="45.46942643182391" lon="9.252050172561352"><ele>112.5</ele><time>2026-04-30T05:39:48.997Z</time></trkpt><trkpt lat="45.469272006066944" lon="9.252046816585539"><ele>112.0</ele><time>2026-04-30T05:39:49.997Z</time></trkpt><trkpt lat="45.46908583420237" lon="9.252046234572669"><ele>112.0</ele><time>2026-04-30T05:39:50.997Z</time></trkpt><trkpt lat="45.46891774048444" lon="9.252046234572672"><ele>112.0</ele><time>2026-04-30T05:39:51.997Z</time></trkpt><trkpt lat="45.46874893974615" lon="9.252049373600732"><ele>112.0</ele><time>2026-04-30T05:39:52.997Z</time></trkpt><trkpt lat="45.46858436884819" lon="9.252052861557164"><ele>113.0</ele><time>2026-04-30T05:39:53.997Z</time></trkpt><trkpt lat="45.468408907201436" lon="9.25205706650896"><ele>114.0</ele><time>2026-04-30T05:39:54.997Z</time></trkpt><trkpt lat="45.468254929032405" lon="9.252062123995993"><ele>115.0</ele><time>2026-04-30T05:39:55.997Z</time></trkpt><trkpt lat="45.46808413448143" lon="9.25206768603438"><ele>115.0</ele><time>2026-04-30T05:39:56.997Z</time></trkpt><trkpt lat="45.46793530730618" lon="9.252072532692203"><ele>115.0</ele><time>2026-04-30T05:39:57.997Z</time></trkpt><trkpt lat="45.46777779426943" lon="9.252075488879813"><ele>115.0</ele><time>2026-04-30T05:39:58.997Z</time></trkpt><trkpt lat="45.46761831134521" lon="9.252074769238634"><ele>115.0</ele><time>2026-04-30T05:39:59.997Z</time></trkpt><trkpt lat="45.46746306130678" lon="9.252070624364698"><ele>115.0</ele><time>2026-04-30T05:40:00.997Z</time></trkpt><trkpt lat="45.46731539728792" lon="9.252061225438293"><ele>115.0</ele><time>2026-04-30T05:40:01.997Z</time></trkpt><trkpt lat="45.46717169665939" lon="9.252045296544802"><ele>115.0</ele><time>2026-04-30T05:40:02.997Z</time></trkpt><trkpt lat="45.4670270577245" lon="9.252025546857915"><ele>115.0</ele><time>2026-04-30T05:40:03.997Z</time></trkpt><trkpt lat="45.46690179616448" lon="9.252004065448995"><ele>115.0</ele><time>2026-04-30T05:40:04.997Z</time></trkpt><trkpt lat="45.46677792581177" lon="9.251978419052737"><ele>115.0</ele><time>2026-04-30T05:40:05.997Z</time></trkpt><trkpt lat="45.46664767327225" lon="9.251948878343542"><ele>115.0</ele><time>2026-04-30T05:40:06.997Z</time></trkpt><trkpt lat="45.466522500095145" lon="9.251917879035442"><ele>115.0</ele><time>2026-04-30T05:40:07.997Z</time></trkpt><trkpt lat="45.466402456498024" lon="9.251886995862593"><ele>115.0</ele><time>2026-04-30T05:40:08.997Z</time></trkpt><trkpt lat="45.4662903663845" lon="9.251855593407287"><ele>115.0</ele><time>2026-04-30T05:40:09.997Z</time></trkpt><trkpt lat="45.46618320215523" lon="9.251823650511877"><ele>115.0</ele><time>2026-04-30T05:40:10.997Z</time></trkpt><trkpt lat="45.46608984445674" lon="9.251794069383504"><ele>115.0</ele><time>2026-04-30T05:40:11.997Z</time></trkpt><trkpt lat="45.466002794428576" lon="9.251762429106316"><ele>114.83333333333334</ele><time>2026-04-30T05:40:12.997Z</time></trkpt><trkpt lat="45.465907986347574" lon="9.251726547081219"><ele>114.66666666666667</ele><time>2026-04-30T05:40:13.997Z</time></trkpt><trkpt lat="45.46581889298181" lon="9.251688628765123"><ele>114.5</ele><time>2026-04-30T05:40:14.997Z</time></trkpt><trkpt lat="45.465742351433136" lon="9.251656281498832"><ele>114.33333333333334</ele><time>2026-04-30T05:40:15.997Z</time></trkpt><trkpt lat="45.46566990520884" lon="9.251625665070085"><ele>114.16666666666667</ele><time>2026-04-30T05:40:16.997Z</time></trkpt><trkpt lat="45.46560289627047" lon="9.251597346364342"><ele>114.0</ele><time>2026-04-30T05:40:17.997Z</time></trkpt><trkpt lat="45.46547818530651" lon="9.251544129997598"><ele>113.80000000000001</ele><time>2026-04-30T05:40:19.997Z</time></trkpt><trkpt lat="45.465360929114404" lon="9.25149371599948"><ele>113.60000000000001</ele><time>2026-04-30T05:40:21.997Z</time></trkpt><trkpt lat="45.46525686055317" lon="9.25144897206381"><ele>113.4</ele><time>2026-04-30T05:40:22.997Z</time></trkpt><trkpt lat="45.46513701069987" lon="9.251397141240604"><ele>113.2</ele><time>2026-04-30T05:40:24.997Z</time></trkpt><trkpt lat="45.465065243462924" lon="9.25136971459404"><ele>113.0</ele><time>2026-04-30T05:40:25.997Z</time></trkpt><trkpt lat="45.46500309716336" lon="9.251345802337948"><ele>112.99999999999999</ele><time>2026-04-30T05:40:26.997Z</time></trkpt><trkpt lat="45.46491268023642" lon="9.251397810983663"><ele>113.0</ele><time>2026-04-30T05:40:27.997Z</time></trkpt><trkpt lat="45.46480809965183" lon="9.251413590100665"><ele>113.0</ele><time>2026-04-30T05:40:29.997Z</time></trkpt><trkpt lat="45.46475411927015" lon="9.251358337671276"><ele>113.0</ele><time>2026-04-30T05:40:30.997Z</time></trkpt><trkpt lat="45.464700194469046" lon="9.251238153228536"><ele>112.99999999999999</ele><time>2026-04-30T05:40:31.997Z</time></trkpt><trkpt lat="45.46463173581021" lon="9.25121690526863"><ele>113.0</ele><time>2026-04-30T05:40:32.997Z</time></trkpt><trkpt lat="45.46455369296818" lon="9.251194463215958"><ele>113.4</ele><time>2026-04-30T05:40:33.997Z</time></trkpt><trkpt lat="45.46446919754601" lon="9.251171893220597"><ele>113.80000000000001</ele><time>2026-04-30T05:40:34.997Z</time></trkpt><trkpt lat="45.4643828713222" lon="9.251151714767186"><ele>114.2</ele><time>2026-04-30T05:40:35.997Z</time></trkpt><trkpt lat="45.464287842440555" lon="9.251131698897778"><ele>114.6</ele><time>2026-04-30T05:40:36.997Z</time></trkpt><trkpt lat="45.46416280209722" lon="9.251107283115578"><ele>115.0</ele><time>2026-04-30T05:40:38.997Z</time></trkpt><trkpt lat="45.464074741371235" lon="9.25109169096717"><ele>115.0</ele><time>2026-04-30T05:40:39.997Z</time></trkpt><trkpt lat="45.46397708565767" lon="9.251076575104976"><ele>115.0</ele><time>2026-04-30T05:40:40.997Z</time></trkpt><trkpt lat="45.463912797162806" lon="9.251068447417966"><ele>115.0</ele><time>2026-04-30T05:40:41.997Z</time></trkpt><trkpt lat="45.46383786394184" lon="9.251058973959438"><ele>115.0</ele><time>2026-04-30T05:40:42.997Z</time></trkpt><trkpt lat="45.46375012086813" lon="9.25105048727626"><ele>115.0</ele><time>2026-04-30T05:40:43.997Z</time></trkpt><trkpt lat="45.46361382018745" lon="9.251040060967384"><ele>115.00000000000001</ele><time>2026-04-30T05:40:45.997Z</time></trkpt><trkpt lat="45.463536459277044" lon="9.251037165266958"><ele>115.0</ele><time>2026-04-30T05:40:46.997Z</time></trkpt><trkpt lat="45.46345359310827" lon="9.251034802264439"><ele>115.0</ele><time>2026-04-30T05:40:47.997Z</time></trkpt><trkpt lat="45.46337049805464" lon="9.25103491040217"><ele>115.0</ele><time>2026-04-30T05:40:48.997Z</time></trkpt><trkpt lat="45.4633022433054" lon="9.251034910407425"><ele>115.00000000000001</ele><time>2026-04-30T05:40:49.996Z</time></trkpt><trkpt lat="45.463224129470554" lon="9.2510378310923"><ele>115.0</ele><time>2026-04-30T05:40:50.996Z</time></trkpt><trkpt lat="45.46313365729737" lon="9.251041383338885"><ele>115.0</ele><time>2026-04-30T05:40:51.996Z</time></trkpt><trkpt lat="45.463059717239055" lon="9.251045003002044"><ele>115.0</ele><time>2026-04-30T05:40:52.996Z</time></trkpt><trkpt lat="45.462979211725" lon="9.251048944068838"><ele>115.0</ele><time>2026-04-30T05:40:53.996Z</time></trkpt><trkpt lat="45.462862613988925" lon="9.250985972044049"><ele>115.0</ele><time>2026-04-30T05:40:55.996Z</time></trkpt><trkpt lat="45.46276988168517" lon="9.250987120395118"><ele>115.0</ele><time>2026-04-30T05:40:56.996Z</time></trkpt><trkpt lat="45.462670761974486" lon="9.25099175905993"><ele>113.25</ele><time>2026-04-30T05:40:57.996Z</time></trkpt><trkpt lat="45.46256407839933" lon="9.25099989509673"><ele>111.5</ele><time>2026-04-30T05:40:58.996Z</time></trkpt><trkpt lat="45.462462456148835" lon="9.251007393826818"><ele>109.75</ele><time>2026-04-30T05:40:59.996Z</time></trkpt><trkpt lat="45.462340929243084" lon="9.251025245548847"><ele>108.0</ele><time>2026-04-30T05:41:00.999Z</time></trkpt><trkpt lat="45.46219550270064" lon="9.251027456734175"><ele>110.0</ele><time>2026-04-30T05:41:01.999Z</time></trkpt><trkpt lat="45.46208186626461" lon="9.251034561912105"><ele>112.0</ele><time>2026-04-30T05:41:02.999Z</time></trkpt><trkpt lat="45.46196070878853" lon="9.25105055128069"><ele>114.0</ele><time>2026-04-30T05:41:03.999Z</time></trkpt><trkpt lat="45.46183350408662" lon="9.251060147778865"><ele>116.0</ele><time>2026-04-30T05:41:04.999Z</time></trkpt><trkpt lat="45.46172580559087" lon="9.251077222661458"><ele>116.0</ele><time>2026-04-30T05:41:05.999Z</time></trkpt><trkpt lat="45.46160944443091" lon="9.251086076691191"><ele>116.0</ele><time>2026-04-30T05:41:06.999Z</time></trkpt><trkpt lat="45.46150986265527" lon="9.251088020565394"><ele>116.0</ele><time>2026-04-30T05:41:07.999Z</time></trkpt><trkpt lat="45.46140943474248" lon="9.251095510716844"><ele>116.0</ele><time>2026-04-30T05:41:08.999Z</time></trkpt><trkpt lat="45.46131048690682" lon="9.251103254148157"><ele>116.0</ele><time>2026-04-30T05:41:09.999Z</time></trkpt><trkpt lat="45.46120055361951" lon="9.25111648225966"><ele>116.19999999999999</ele><time>2026-04-30T05:41:10.999Z</time></trkpt><trkpt lat="45.46107069182572" lon="9.251138780140604"><ele>116.39999999999999</ele><time>2026-04-30T05:41:11.999Z</time></trkpt><trkpt lat="45.46098558634473" lon="9.251141495895638"><ele>116.6</ele><time>2026-04-30T05:41:12.999Z</time></trkpt><trkpt lat="45.46088560364924" lon="9.251146460590162"><ele>116.8</ele><time>2026-04-30T05:41:13.999Z</time></trkpt><trkpt lat="45.460786058792614" lon="9.251153015238609"><ele>117.0</ele><time>2026-04-30T05:41:14.999Z</time></trkpt><trkpt lat="45.46071656564358" lon="9.251148086303939"><ele>117.0</ele><time>2026-04-30T05:41:15.999Z</time></trkpt><trkpt lat="45.46061174578808" lon="9.251163945414124"><ele>117.0</ele><time>2026-04-30T05:41:16.999Z</time></trkpt><trkpt lat="45.460548364708096" lon="9.251158602411955"><ele>117.0</ele><time>2026-04-30T05:41:17.999Z</time></trkpt><trkpt lat="45.46047827595034" lon="9.251172250052225"><ele>117.0</ele><time>2026-04-30T05:41:18.999Z</time></trkpt><trkpt lat="45.46040109250827" lon="9.251185886670891"><ele>117.0</ele><time>2026-04-30T05:41:19.999Z</time></trkpt><trkpt lat="45.46028550259212" lon="9.251205874156533"><ele>117.0</ele><time>2026-04-30T05:41:20.999Z</time></trkpt><trkpt lat="45.46016051969817" lon="9.251202594640569"><ele>116.33333333333333</ele><time>2026-04-30T05:41:22.999Z</time></trkpt><trkpt lat="45.460077826596304" lon="9.251219333796332"><ele>115.66666666666666</ele><time>2026-04-30T05:41:23.999Z</time></trkpt><trkpt lat="45.46000643795335" lon="9.251249118228344"><ele>115.0</ele><time>2026-04-30T05:41:24.999Z</time></trkpt><trkpt lat="45.459920968828676" lon="9.251230437078815"><ele>114.33333333333333</ele><time>2026-04-30T05:41:25.999Z</time></trkpt><trkpt lat="45.459840266444914" lon="9.251245754342113"><ele>113.66666666666666</ele><time>2026-04-30T05:41:26.999Z</time></trkpt><trkpt lat="45.4597711818239" lon="9.251262453283994"><ele>113.0</ele><time>2026-04-30T05:41:27.999Z</time></trkpt><trkpt lat="45.459686034440914" lon="9.25127806773189"><ele>112.99999999999999</ele><time>2026-04-30T05:41:28.999Z</time></trkpt><trkpt lat="45.45958664060017" lon="9.251292081111472"><ele>113.0</ele><time>2026-04-30T05:41:29.999Z</time></trkpt><trkpt lat="45.459503353861216" lon="9.25129821958121"><ele>113.0</ele><time>2026-04-30T05:41:30.999Z</time></trkpt><trkpt lat="45.45942855913682" lon="9.251317215568168"><ele>113.0</ele><time>2026-04-30T05:41:31.999Z</time></trkpt><trkpt lat="45.45934612865721" lon="9.251337643636424"><ele>112.99999999999999</ele><time>2026-04-30T05:41:32.999Z</time></trkpt><trkpt lat="45.45925622866632" lon="9.251415572329565"><ele>113.0</ele><time>2026-04-30T05:41:33.999Z</time></trkpt><trkpt lat="45.45919281055589" lon="9.251470180795614"><ele>113.0</ele><time>2026-04-30T05:41:34.999Z</time></trkpt><trkpt lat="45.45906491167401" lon="9.251498495217891"><ele>113.00000000000001</ele><time>2026-04-30T05:41:36.999Z</time></trkpt><trkpt lat="45.45897250684274" lon="9.251523768197382"><ele>113.00000000000001</ele><time>2026-04-30T05:41:37.999Z</time></trkpt><trkpt lat="45.458884818516836" lon="9.251549220482636"><ele>113.0</ele><time>2026-04-30T05:41:38.999Z</time></trkpt><trkpt lat="45.45878789514848" lon="9.251578618857653"><ele>113.0</ele><time>2026-04-30T05:41:39.999Z</time></trkpt><trkpt lat="45.45869101709945" lon="9.251609394800429"><ele>113.2</ele><time>2026-04-30T05:41:40.999Z</time></trkpt><trkpt lat="45.45859258112909" lon="9.251641585490356"><ele>113.4</ele><time>2026-04-30T05:41:41.999Z</time></trkpt><trkpt lat="45.458516647922536" lon="9.251666716324461"><ele>113.60000000000001</ele><time>2026-04-30T05:41:42.999Z</time></trkpt><trkpt lat="45.458428139032236" lon="9.251697486191638"><ele>113.80000000000001</ele><time>2026-04-30T05:41:43.999Z</time></trkpt><trkpt lat="45.458337606521965" lon="9.251729318178766"><ele>114.0</ele><time>2026-04-30T05:41:44.999Z</time></trkpt><trkpt lat="45.45824850901112" lon="9.251763623683331"><ele>114.0</ele><time>2026-04-30T05:41:45.999Z</time></trkpt><trkpt lat="45.45817058704213" lon="9.251795767099479"><ele>114.0</ele><time>2026-04-30T05:41:46.999Z</time></trkpt><trkpt lat="45.45806154853328" lon="9.251844152135357"><ele>114.0</ele><time>2026-04-30T05:41:47.999Z</time></trkpt><trkpt lat="45.45796939237522" lon="9.251888133861623"><ele>114.0</ele><time>2026-04-30T05:41:48.999Z</time></trkpt><trkpt lat="45.457865475975446" lon="9.251938620356759"><ele>114.0</ele><time>2026-04-30T05:41:49.999Z</time></trkpt><trkpt lat="45.457760085035716" lon="9.25198982312011"><ele>113.25</ele><time>2026-04-30T05:41:50.999Z</time></trkpt><trkpt lat="45.45762525387953" lon="9.252056710493632"><ele>112.5</ele><time>2026-04-30T05:41:51.999Z</time></trkpt><trkpt lat="45.45752591596563" lon="9.252110140000655"><ele>111.75</ele><time>2026-04-30T05:41:52.999Z</time></trkpt><trkpt lat="45.45742686805729" lon="9.252166586680774"><ele>111.0</ele><time>2026-04-30T05:41:53.999Z</time></trkpt><trkpt lat="45.45733308458622" lon="9.252220618833011"><ele>111.0</ele><time>2026-04-30T05:41:54.999Z</time></trkpt><trkpt lat="45.457225573660224" lon="9.252284714207036"><ele>111.0</ele><time>2026-04-30T05:41:55.999Z</time></trkpt><trkpt lat="45.4571310332334" lon="9.252342493243749"><ele>111.0</ele><time>2026-04-30T05:41:56.999Z</time></trkpt><trkpt lat="45.45704165505918" lon="9.252397752046466"><ele>111.0</ele><time>2026-04-30T05:41:57.999Z</time></trkpt><trkpt lat="45.456962641712146" lon="9.252447662901142"><ele>111.0</ele><time>2026-04-30T05:41:58.999Z</time></trkpt><trkpt lat="45.45687367696256" lon="9.252504611490235"><ele>111.25</ele><time>2026-04-30T05:41:59.999Z</time></trkpt><trkpt lat="45.45676467710268" lon="9.252576141582445"><ele>111.5</ele><time>2026-04-30T05:42:00.999Z</time></trkpt><trkpt lat="45.45665453928885" lon="9.252650283703248"><ele>111.75</ele><time>2026-04-30T05:42:01.999Z</time></trkpt><trkpt lat="45.4565383813651" lon="9.252731641396824"><ele>112.0</ele><time>2026-04-30T05:42:02.999Z</time></trkpt><trkpt lat="45.456419232297755" lon="9.252821256243472"><ele>112.0</ele><time>2026-04-30T05:42:03.999Z</time></trkpt><trkpt lat="45.4563121049106" lon="9.252906102004888"><ele>112.0</ele><time>2026-04-30T05:42:04.999Z</time></trkpt><trkpt lat="45.456195889753005" lon="9.253001481590259"><ele>112.0</ele><time>2026-04-30T05:42:05.999Z</time></trkpt><trkpt lat="45.45608794602459" lon="9.253090642847683"><ele>112.0</ele><time>2026-04-30T05:42:06.999Z</time></trkpt><trkpt lat="45.45597372382924" lon="9.253186036241328"><ele>111.75</ele><time>2026-04-30T05:42:07.999Z</time></trkpt><trkpt lat="45.45586064538421" lon="9.25328060136323"><ele>111.5</ele><time>2026-04-30T05:42:08.999Z</time></trkpt><trkpt lat="45.45574625657912" lon="9.253377001252643"><ele>111.25</ele><time>2026-04-30T05:42:09.999Z</time></trkpt><trkpt lat="45.45563010541653" lon="9.253475084012267"><ele>111.0</ele><time>2026-04-30T05:42:10.999Z</time></trkpt><trkpt lat="45.45551667024146" lon="9.253570873356441"><ele>110.75</ele><time>2026-04-30T05:42:11.999Z</time></trkpt><trkpt lat="45.455402163019585" lon="9.253667532920534"><ele>110.5</ele><time>2026-04-30T05:42:12.999Z</time></trkpt><trkpt lat="45.45528989621722" lon="9.253762105267535"><ele>110.25</ele><time>2026-04-30T05:42:13.999Z</time></trkpt><trkpt lat="45.455181515611756" lon="9.253853404020035"><ele>110.0</ele><time>2026-04-30T05:42:14.999Z</time></trkpt><trkpt lat="45.45507515776909" lon="9.253942998712821"><ele>111.25</ele><time>2026-04-30T05:42:15.999Z</time></trkpt><trkpt lat="45.454971370464655" lon="9.254030428050104"><ele>112.5</ele><time>2026-04-30T05:42:16.999Z</time></trkpt><trkpt lat="45.4548698544963" lon="9.254115689330398"><ele>113.75</ele><time>2026-04-30T05:42:17.999Z</time></trkpt><trkpt lat="45.454768234332306" lon="9.254200475703655"><ele>115.0</ele><time>2026-04-30T05:42:18.999Z</time></trkpt><trkpt lat="45.454666722921445" lon="9.254285171340369"><ele>113.5</ele><time>2026-04-30T05:42:19.999Z</time></trkpt><trkpt lat="45.45456444521894" lon="9.254371350574681"><ele>112.0</ele><time>2026-04-30T05:42:20.999Z</time></trkpt><trkpt lat="45.45446234741427" lon="9.25445744869919"><ele>110.5</ele><time>2026-04-30T05:42:21.999Z</time></trkpt><trkpt lat="45.45435873932383" lon="9.254544820534647"><ele>109.0</ele><time>2026-04-30T05:42:22.999Z</time></trkpt><trkpt lat="45.45425495106126" lon="9.254632304201413"><ele>109.0</ele><time>2026-04-30T05:42:23.999Z</time></trkpt><trkpt lat="45.45414833686872" lon="9.254720780841485"><ele>109.0</ele><time>2026-04-30T05:42:24.999Z</time></trkpt><trkpt lat="45.45404054211858" lon="9.25481023735425"><ele>109.0</ele><time>2026-04-30T05:42:25.999Z</time></trkpt><trkpt lat="45.45393480000643" lon="9.254897461438972"><ele>109.0</ele><time>2026-04-30T05:42:26.999Z</time></trkpt><trkpt lat="45.453825531887446" lon="9.254987166740555"><ele>109.25</ele><time>2026-04-30T05:42:27.999Z</time></trkpt><trkpt lat="45.45371476126055" lon="9.255079038425459"><ele>109.5</ele><time>2026-04-30T05:42:28.999Z</time></trkpt><trkpt lat="45.45360114304469" lon="9.255173857749108"><ele>109.75</ele><time>2026-04-30T05:42:29.999Z</time></trkpt><trkpt lat="45.45348558968256" lon="9.255270291973162"><ele>110.0</ele><time>2026-04-30T05:42:30.999Z</time></trkpt><trkpt lat="45.453371515900265" lon="9.255365491349384"><ele>110.0</ele><time>2026-04-30T05:42:31.999Z</time></trkpt><trkpt lat="45.453255665729124" lon="9.255462355784589"><ele>110.0</ele><time>2026-04-30T05:42:32.999Z</time></trkpt><trkpt lat="45.45314086100351" lon="9.255558087398356"><ele>110.0</ele><time>2026-04-30T05:42:33.999Z</time></trkpt><trkpt lat="45.45302324564392" lon="9.255655528818973"><ele>110.0</ele><time>2026-04-30T05:42:34.999Z</time></trkpt><trkpt lat="45.45291435305583" lon="9.255771784771904"><ele>110.0</ele><time>2026-04-30T05:42:35.999Z</time></trkpt><trkpt lat="45.452789875192934" lon="9.255851013627346"><ele>110.0</ele><time>2026-04-30T05:42:36.999Z</time></trkpt><trkpt lat="45.45266516121757" lon="9.255943443810812"><ele>110.0</ele><time>2026-04-30T05:42:37.999Z</time></trkpt><trkpt lat="45.452530310234756" lon="9.256020625596427"><ele>110.0</ele><time>2026-04-30T05:42:38.999Z</time></trkpt><trkpt lat="45.45239563384963" lon="9.256107490449313"><ele>110.0</ele><time>2026-04-30T05:42:39.999Z</time></trkpt><trkpt lat="45.452259335940965" lon="9.256206269442874"><ele>110.0</ele><time>2026-04-30T05:42:40.999Z</time></trkpt><trkpt lat="45.452125195809884" lon="9.256321196182178"><ele>110.0</ele><time>2026-04-30T05:42:41.999Z</time></trkpt><trkpt lat="45.45199279743202" lon="9.25641197383208"><ele>110.33333333333333</ele><time>2026-04-30T05:42:42.999Z</time></trkpt><trkpt lat="45.45184481675594" lon="9.256518878271525"><ele>110.66666666666666</ele><time>2026-04-30T05:42:43.999Z</time></trkpt><trkpt lat="45.451712093216145" lon="9.256678260222712"><ele>111.0</ele><time>2026-04-30T05:42:44.999Z</time></trkpt><trkpt lat="45.4515368206045" lon="9.256793721944636"><ele>111.0</ele><time>2026-04-30T05:42:45.999Z</time></trkpt><trkpt lat="45.451375056571585" lon="9.25692998646746"><ele>111.0</ele><time>2026-04-30T05:42:46.999Z</time></trkpt><trkpt lat="45.451228174332044" lon="9.257085898346272"><ele>111.0</ele><time>2026-04-30T05:42:47.999Z</time></trkpt><trkpt lat="45.45107132003482" lon="9.257236826766656"><ele>111.33333333333334</ele><time>2026-04-30T05:42:48.999Z</time></trkpt><trkpt lat="45.45092159387514" lon="9.25737770536162"><ele>111.66666666666667</ele><time>2026-04-30T05:42:49.999Z</time></trkpt><trkpt lat="45.450774114402755" lon="9.257519466150192"><ele>112.0</ele><time>2026-04-30T05:42:50.999Z</time></trkpt><trkpt lat="45.45060905603386" lon="9.257652672109772"><ele>112.33333333333334</ele><time>2026-04-30T05:42:51.999Z</time></trkpt><trkpt lat="45.45044675230431" lon="9.25779871513091"><ele>112.66666666666666</ele><time>2026-04-30T05:42:53Z</time></trkpt><trkpt lat="45.45026045943705" lon="9.257940863136982"><ele>113.0</ele><time>2026-04-30T05:42:54Z</time></trkpt><trkpt lat="45.450066707762815" lon="9.258073680660942"><ele>112.5</ele><time>2026-04-30T05:42:55Z</time></trkpt><trkpt lat="45.44985047157897" lon="9.258200885988611"><ele>112.0</ele><time>2026-04-30T05:42:56Z</time></trkpt><trkpt lat="45.449636154040135" lon="9.258316805755724"><ele>110.5</ele><time>2026-04-30T05:42:57Z</time></trkpt><trkpt lat="45.44940836502343" lon="9.25841011407931"><ele>109.0</ele><time>2026-04-30T05:42:58Z</time></trkpt><trkpt lat="45.44918163338641" lon="9.258510725973869"><ele>109.0</ele><time>2026-04-30T05:42:59Z</time></trkpt><trkpt lat="45.44896352382595" lon="9.25860336446282"><ele>109.0</ele><time>2026-04-30T05:43:00Z</time></trkpt><trkpt lat="45.4487188315412" lon="9.258687599250381"><ele>108.0</ele><time>2026-04-30T05:43:01Z</time></trkpt><trkpt lat="45.44848643750645" lon="9.25873397196624"><ele>107.0</ele><time>2026-04-30T05:43:02Z</time></trkpt><trkpt lat="45.448246674915396" lon="9.258764558781692"><ele>107.0</ele><time>2026-04-30T05:43:03Z</time></trkpt><trkpt lat="45.44802347611297" lon="9.258779058995284"><ele>107.0</ele><time>2026-04-30T05:43:04Z</time></trkpt><trkpt lat="45.44779307535343" lon="9.258787009525115"><ele>105.5</ele><time>2026-04-30T05:43:05Z</time></trkpt><trkpt lat="45.447552712145914" lon="9.258792436075383"><ele>104.0</ele><time>2026-04-30T05:43:06Z</time></trkpt><trkpt lat="45.44732270127398" lon="9.258799449443247"><ele>107.5</ele><time>2026-04-30T05:43:07Z</time></trkpt><trkpt lat="45.44709135784563" lon="9.258794499960898"><ele>111.0</ele><time>2026-04-30T05:43:08Z</time></trkpt><trkpt lat="45.4468646746338" lon="9.25876422288091"><ele>111.0</ele><time>2026-04-30T05:43:09Z</time></trkpt><trkpt lat="45.4466203985138" lon="9.258716798068251"><ele>111.0</ele><time>2026-04-30T05:43:10Z</time></trkpt><trkpt lat="45.44641357173107" lon="9.258669715649278"><ele>107.66666666666666</ele><time>2026-04-30T05:43:11Z</time></trkpt><trkpt lat="45.446197414683915" lon="9.258613606334988"><ele>104.33333333333333</ele><time>2026-04-30T05:43:12Z</time></trkpt><trkpt lat="45.44597793510888" lon="9.258550267650369"><ele>101.0</ele><time>2026-04-30T05:43:13Z</time></trkpt><trkpt lat="45.44576035233649" lon="9.258490286337631"><ele>101.0</ele><time>2026-04-30T05:43:14Z</time></trkpt><trkpt lat="45.44554863630742" lon="9.258431721304223"><ele>101.0</ele><time>2026-04-30T05:43:15Z</time></trkpt><trkpt lat="45.44531330585033" lon="9.258364782098251"><ele>96.0</ele><time>2026-04-30T05:43:16Z</time></trkpt><trkpt lat="45.44508167365345" lon="9.258298894767073"><ele>91.0</ele><time>2026-04-30T05:43:17Z</time></trkpt><trkpt lat="45.44486212593531" lon="9.25823644510197"><ele>91.0</ele><time>2026-04-30T05:43:18Z</time></trkpt><trkpt lat="45.4446608948513" lon="9.258179145311082"><ele>91.0</ele><time>2026-04-30T05:43:19Z</time></trkpt><trkpt lat="45.4444330372015" lon="9.258114012769395"><ele>91.0</ele><time>2026-04-30T05:43:20Z</time></trkpt><trkpt lat="45.44419321924737" lon="9.258045593565885"><ele>92.5</ele><time>2026-04-30T05:43:21Z</time></trkpt><trkpt lat="45.44397072872949" lon="9.257982170379996"><ele>94.0</ele><time>2026-04-30T05:43:22Z</time></trkpt><trkpt lat="45.443741902838276" lon="9.257916941224822"><ele>95.5</ele><time>2026-04-30T05:43:23Z</time></trkpt><trkpt lat="45.44351650097037" lon="9.257853389306577"><ele>97.0</ele><time>2026-04-30T05:43:24Z</time></trkpt><trkpt lat="45.44327012829079" lon="9.25778360511779"><ele>97.0</ele><time>2026-04-30T05:43:25Z</time></trkpt><trkpt lat="45.443030437651224" lon="9.257714781083736"><ele>97.0</ele><time>2026-04-30T05:43:26Z</time></trkpt><trkpt lat="45.442794844582906" lon="9.25764713369912"><ele>100.5</ele><time>2026-04-30T05:43:27Z</time></trkpt><trkpt lat="45.44256382825492" lon="9.257577034011813"><ele>104.0</ele><time>2026-04-30T05:43:28Z</time></trkpt><trkpt lat="45.44233863434091" lon="9.257482833859676"><ele>101.0</ele><time>2026-04-30T05:43:29Z</time></trkpt><trkpt lat="45.44206812653131" lon="9.257392987237557"><ele>98.0</ele><time>2026-04-30T05:43:30Z</time></trkpt><trkpt lat="45.44184551858979" lon="9.257330170017823"><ele>101.0</ele><time>2026-04-30T05:43:31Z</time></trkpt><trkpt lat="45.44163533320331" lon="9.257270858264498"><ele>104.0</ele><time>2026-04-30T05:43:32Z</time></trkpt><trkpt lat="45.44139606071718" lon="9.257203338497197"><ele>104.0</ele><time>2026-04-30T05:43:33Z</time></trkpt><trkpt lat="45.441145329827044" lon="9.257132585273206"><ele>104.0</ele><time>2026-04-30T05:43:34Z</time></trkpt><trkpt lat="45.440911805238855" lon="9.257066687537474"><ele>104.0</ele><time>2026-04-30T05:43:35Z</time></trkpt><trkpt lat="45.44068873135234" lon="9.257005512319477"><ele>104.0</ele><time>2026-04-30T05:43:36Z</time></trkpt><trkpt lat="45.440480755108624" lon="9.256950263996279"><ele>104.0</ele><time>2026-04-30T05:43:37Z</time></trkpt><trkpt lat="45.44027242239083" lon="9.256895062307395"><ele>104.0</ele><time>2026-04-30T05:43:38Z</time></trkpt><trkpt lat="45.44003884238817" lon="9.25683317281766"><ele>104.0</ele><time>2026-04-30T05:43:39Z</time></trkpt><trkpt lat="45.43983059867756" lon="9.256777949265658"><ele>104.0</ele><time>2026-04-30T05:43:40Z</time></trkpt><trkpt lat="45.43961516118152" lon="9.256721501194937"><ele>104.0</ele><time>2026-04-30T05:43:41Z</time></trkpt><trkpt lat="45.43940828354187" lon="9.256627479776851"><ele>104.0</ele><time>2026-04-30T05:43:42Z</time></trkpt><trkpt lat="45.43920863536696" lon="9.256617182417784"><ele>104.0</ele><time>2026-04-30T05:43:43Z</time></trkpt><trkpt lat="45.438989276355315" lon="9.256561592001427"><ele>104.0</ele><time>2026-04-30T05:43:44Z</time></trkpt><trkpt lat="45.438765395426934" lon="9.256499967803459"><ele>104.0</ele><time>2026-04-30T05:43:45Z</time></trkpt><trkpt lat="45.43853480429194" lon="9.256436496555017"><ele>104.5</ele><time>2026-04-30T05:43:46Z</time></trkpt><trkpt lat="45.438300207546824" lon="9.256371536229427"><ele>105.0</ele><time>2026-04-30T05:43:47Z</time></trkpt><trkpt lat="45.438070164890846" lon="9.256304182900456"><ele>106.5</ele><time>2026-04-30T05:43:48Z</time></trkpt><trkpt lat="45.43785153223241" lon="9.256240170356913"><ele>108.0</ele><time>2026-04-30T05:43:49Z</time></trkpt><trkpt lat="45.43760595623296" lon="9.25634957786139"><ele>108.0</ele><time>2026-04-30T05:43:50Z</time></trkpt><trkpt lat="45.437386002853884" lon="9.25625245577884"><ele>108.0</ele><time>2026-04-30T05:43:51Z</time></trkpt><trkpt lat="45.437175731299575" lon="9.256163609518497"><ele>107.0</ele><time>2026-04-30T05:43:52Z</time></trkpt><trkpt lat="45.436947357774535" lon="9.256135091770608"><ele>106.0</ele><time>2026-04-30T05:43:53Z</time></trkpt><trkpt lat="45.43675775600455" lon="9.25590451602064"><ele>106.0</ele><time>2026-04-30T05:43:54Z</time></trkpt><trkpt lat="45.43655079087424" lon="9.255829412904108"><ele>106.0</ele><time>2026-04-30T05:43:55Z</time></trkpt><trkpt lat="45.436330390449626" lon="9.255742554263723"><ele>106.0</ele><time>2026-04-30T05:43:56Z</time></trkpt><trkpt lat="45.43611120950259" lon="9.25565380759582"><ele>106.0</ele><time>2026-04-30T05:43:57Z</time></trkpt><trkpt lat="45.435898416444154" lon="9.255561633688151"><ele>106.0</ele><time>2026-04-30T05:43:58Z</time></trkpt><trkpt lat="45.435689262929806" lon="9.255460622166158"><ele>106.0</ele><time>2026-04-30T05:43:59Z</time></trkpt><trkpt lat="45.43545768179701" lon="9.255342170918535"><ele>106.0</ele><time>2026-04-30T05:44:00Z</time></trkpt><trkpt lat="45.435242139967876" lon="9.255226805470622"><ele>106.0</ele><time>2026-04-30T05:44:01Z</time></trkpt><trkpt lat="45.4350448330098" lon="9.255114804442071"><ele>106.0</ele><time>2026-04-30T05:44:02Z</time></trkpt><trkpt lat="45.43483097984189" lon="9.254983943779994"><ele>106.5</ele><time>2026-04-30T05:44:03Z</time></trkpt><trkpt lat="45.43461713373811" lon="9.254849026916983"><ele>107.0</ele><time>2026-04-30T05:44:04Z</time></trkpt><trkpt lat="45.434400607323994" lon="9.25471040396016"><ele>107.0</ele><time>2026-04-30T05:44:04.999Z</time></trkpt><trkpt lat="45.434208247778336" lon="9.254576987959194"><ele>107.0</ele><time>2026-04-30T05:44:05.999Z</time></trkpt><trkpt lat="45.43395842107799" lon="9.254380803576394"><ele>107.0</ele><time>2026-04-30T05:44:06.999Z</time></trkpt><trkpt lat="45.433760581165885" lon="9.254225443888169"><ele>107.0</ele><time>2026-04-30T05:44:07.999Z</time></trkpt><trkpt lat="45.43353828749277" lon="9.25404928218068"><ele>107.0</ele><time>2026-04-30T05:44:08.999Z</time></trkpt><trkpt lat="45.43335211425266" lon="9.25388934609475"><ele>107.0</ele><time>2026-04-30T05:44:09.999Z</time></trkpt><trkpt lat="45.43315898019029" lon="9.25371450601101"><ele>107.0</ele><time>2026-04-30T05:44:10.999Z</time></trkpt><trkpt lat="45.432969519049095" lon="9.253542990909695"><ele>105.33333333333333</ele><time>2026-04-30T05:44:11.999Z</time></trkpt><trkpt lat="45.43279504973576" lon="9.25337474487682"><ele>103.66666666666666</ele><time>2026-04-30T05:44:12.999Z</time></trkpt><trkpt lat="45.432609147521305" lon="9.253180385876854"><ele>102.0</ele><time>2026-04-30T05:44:13.999Z</time></trkpt><trkpt lat="45.43243348142101" lon="9.252994133892809"><ele>102.0</ele><time>2026-04-30T05:44:14.999Z</time></trkpt><trkpt lat="45.432242639956954" lon="9.252789455373366"><ele>102.0</ele><time>2026-04-30T05:44:15.999Z</time></trkpt><trkpt lat="45.43206645897178" lon="9.252583043759978"><ele>103.0</ele><time>2026-04-30T05:44:16.999Z</time></trkpt><trkpt lat="45.43190203902156" lon="9.252377265982112"><ele>104.0</ele><time>2026-04-30T05:44:17.999Z</time></trkpt><trkpt lat="45.43173186536717" lon="9.25214569163297"><ele>104.5</ele><time>2026-04-30T05:44:18.999Z</time></trkpt><trkpt lat="45.431546636016265" lon="9.251901642975735"><ele>105.0</ele><time>2026-04-30T05:44:19.999Z</time></trkpt><trkpt lat="45.43137496984355" lon="9.251668136089846"><ele>105.5</ele><time>2026-04-30T05:44:20.999Z</time></trkpt><trkpt lat="45.43119848847653" lon="9.251417866692561"><ele>106.0</ele><time>2026-04-30T05:44:21.999Z</time></trkpt><trkpt lat="45.431023301731315" lon="9.251165555277586"><ele>106.0</ele><time>2026-04-30T05:44:22.999Z</time></trkpt><trkpt lat="45.43085288423681" lon="9.25091785120081"><ele>106.0</ele><time>2026-04-30T05:44:23.999Z</time></trkpt><trkpt lat="45.43068529558582" lon="9.250671332338278"><ele>106.5</ele><time>2026-04-30T05:44:24.999Z</time></trkpt><trkpt lat="45.430524760941324" lon="9.250432540140318"><ele>107.0</ele><time>2026-04-30T05:44:25.999Z</time></trkpt><trkpt lat="45.43036704475051" lon="9.250197353984206"><ele>107.0</ele><time>2026-04-30T05:44:26.999Z</time></trkpt><trkpt lat="45.43020039113953" lon="9.249951222574882"><ele>107.0</ele><time>2026-04-30T05:44:27.999Z</time></trkpt><trkpt lat="45.430049679564064" lon="9.249713178499023"><ele>107.0</ele><time>2026-04-30T05:44:28.999Z</time></trkpt><trkpt lat="45.42989489975208" lon="9.249465850326057"><ele>107.0</ele><time>2026-04-30T05:44:29.999Z</time></trkpt><trkpt lat="45.42973320846337" lon="9.249207218355913"><ele>107.5</ele><time>2026-04-30T05:44:30.999Z</time></trkpt><trkpt lat="45.42958037716332" lon="9.248962759150473"><ele>108.0</ele><time>2026-04-30T05:44:31.999Z</time></trkpt><trkpt lat="45.42943103773272" lon="9.248723572230238"><ele>109.0</ele><time>2026-04-30T05:44:32.999Z</time></trkpt><trkpt lat="45.42928128545525" lon="9.248483673097082"><ele>110.0</ele><time>2026-04-30T05:44:33.999Z</time></trkpt><trkpt lat="45.42912208298598" lon="9.248231480524343"><ele>110.5</ele><time>2026-04-30T05:44:34.999Z</time></trkpt><trkpt lat="45.42896945152327" lon="9.24799856152361"><ele>111.0</ele><time>2026-04-30T05:44:35.999Z</time></trkpt><trkpt lat="45.42880402891763" lon="9.247752773896746"><ele>111.0</ele><time>2026-04-30T05:44:36.999Z</time></trkpt><trkpt lat="45.42865412983875" lon="9.247532780294904"><ele>111.0</ele><time>2026-04-30T05:44:37.999Z</time></trkpt><trkpt lat="45.42848162849355" lon="9.247318239145752"><ele>111.0</ele><time>2026-04-30T05:44:38.999Z</time></trkpt><trkpt lat="45.42832511007237" lon="9.24710721583663"><ele>111.33333333333334</ele><time>2026-04-30T05:44:39.999Z</time></trkpt><trkpt lat="45.42815299859544" lon="9.246893911737088"><ele>111.66666666666667</ele><time>2026-04-30T05:44:40.999Z</time></trkpt><trkpt lat="45.42797473479379" lon="9.246713504022333"><ele>112.0</ele><time>2026-04-30T05:44:41.999Z</time></trkpt><trkpt lat="45.42778992354726" lon="9.24653183529772"><ele>108.0</ele><time>2026-04-30T05:44:42.999Z</time></trkpt><trkpt lat="45.42759239056274" lon="9.246365955316634"><ele>104.0</ele><time>2026-04-30T05:44:43.999Z</time></trkpt><trkpt lat="45.42739767862661" lon="9.246212828526447"><ele>104.0</ele><time>2026-04-30T05:44:44.999Z</time></trkpt><trkpt lat="45.42715040222515" lon="9.246043499848208"><ele>104.0</ele><time>2026-04-30T05:44:45.999Z</time></trkpt><trkpt lat="45.42695597753872" lon="9.245878900274446"><ele>102.5</ele><time>2026-04-30T05:44:46.999Z</time></trkpt><trkpt lat="45.4267300753329" lon="9.245755060045614"><ele>101.0</ele><time>2026-04-30T05:44:47.999Z</time></trkpt><trkpt lat="45.42652117227729" lon="9.245656073308345"><ele>103.0</ele><time>2026-04-30T05:44:48.999Z</time></trkpt><trkpt lat="45.42630126142727" lon="9.245573084709191"><ele>105.0</ele><time>2026-04-30T05:44:49.999Z</time></trkpt><trkpt lat="45.42607743307648" lon="9.245511287171269"><ele>105.0</ele><time>2026-04-30T05:44:50.999Z</time></trkpt><trkpt lat="45.42584983344058" lon="9.245476291151945"><ele>105.0</ele><time>2026-04-30T05:44:51.999Z</time></trkpt><trkpt lat="45.4256119192204" lon="9.245486612221782"><ele>104.66666666666666</ele><time>2026-04-30T05:44:52.999Z</time></trkpt><trkpt lat="45.42540392610458" lon="9.24546815620588"><ele>104.33333333333333</ele><time>2026-04-30T05:44:53.999Z</time></trkpt><trkpt lat="45.42519620715813" lon="9.245447696677799"><ele>104.0</ele><time>2026-04-30T05:44:54.999Z</time></trkpt><trkpt lat="45.42498613493893" lon="9.245455182281463"><ele>104.0</ele><time>2026-04-30T05:44:55.999Z</time></trkpt><trkpt lat="45.42475908499715" lon="9.245457906659826"><ele>104.0</ele><time>2026-04-30T05:44:56.999Z</time></trkpt><trkpt lat="45.424547810895405" lon="9.245440050982777"><ele>104.0</ele><time>2026-04-30T05:44:57.999Z</time></trkpt><trkpt lat="45.42434733423412" lon="9.245468216783868"><ele>104.0</ele><time>2026-04-30T05:44:58.999Z</time></trkpt><trkpt lat="45.4241542556825" lon="9.245535708472339"><ele>104.0</ele><time>2026-04-30T05:44:59.999Z</time></trkpt><trkpt lat="45.42393879616199" lon="9.245551113034432"><ele>104.0</ele><time>2026-04-30T05:45:00.999Z</time></trkpt><trkpt lat="45.42372370533409" lon="9.24558995864073"><ele>104.5</ele><time>2026-04-30T05:45:01.999Z</time></trkpt><trkpt lat="45.423489431097124" lon="9.245628654466357"><ele>105.0</ele><time>2026-04-30T05:45:02.999Z</time></trkpt><trkpt lat="45.42325769401958" lon="9.245687254926377"><ele>105.0</ele><time>2026-04-30T05:45:03.999Z</time></trkpt><trkpt lat="45.42301114231481" lon="9.245705467095291"><ele>105.0</ele><time>2026-04-30T05:45:04.999Z</time></trkpt><trkpt lat="45.422777610986" lon="9.24573240435494"><ele>105.0</ele><time>2026-04-30T05:45:05.999Z</time></trkpt><trkpt lat="45.42254662870059" lon="9.245811999262063"><ele>105.0</ele><time>2026-04-30T05:45:06.999Z</time></trkpt><trkpt lat="45.42230019274899" lon="9.245858832359033"><ele>106.0</ele><time>2026-04-30T05:45:07.999Z</time></trkpt><trkpt lat="45.42206359953055" lon="9.245898096716353"><ele>107.0</ele><time>2026-04-30T05:45:08.999Z</time></trkpt><trkpt lat="45.42182200981231" lon="9.245846320669951"><ele>107.0</ele><time>2026-04-30T05:45:09.999Z</time></trkpt><trkpt lat="45.421580884315006" lon="9.245874856151035"><ele>107.0</ele><time>2026-04-30T05:45:10.999Z</time></trkpt><trkpt lat="45.42133219468648" lon="9.245904955927129"><ele>107.0</ele><time>2026-04-30T05:45:11.999Z</time></trkpt><trkpt lat="45.4210943369428" lon="9.245935174335132"><ele>107.0</ele><time>2026-04-30T05:45:12.999Z</time></trkpt><trkpt lat="45.42085119935163" lon="9.245969422676094"><ele>107.0</ele><time>2026-04-30T05:45:13.999Z</time></trkpt><trkpt lat="45.42061384603651" lon="9.246008816303402"><ele>107.0</ele><time>2026-04-30T05:45:14.999Z</time></trkpt><trkpt lat="45.42039094679713" lon="9.246052734640815"><ele>106.0</ele><time>2026-04-30T05:45:15.999Z</time></trkpt><trkpt lat="45.42014549196758" lon="9.246110780307264"><ele>105.0</ele><time>2026-04-30T05:45:16.999Z</time></trkpt><trkpt lat="45.41991026159475" lon="9.246180049171906"><ele>105.0</ele><time>2026-04-30T05:45:17.999Z</time></trkpt><trkpt lat="45.41967331079829" lon="9.246273315876406"><ele>105.0</ele><time>2026-04-30T05:45:18.999Z</time></trkpt><trkpt lat="45.41944646660341" lon="9.24637562090332"><ele>105.0</ele><time>2026-04-30T05:45:19.999Z</time></trkpt><trkpt lat="45.41921575020629" lon="9.246488074284967"><ele>105.0</ele><time>2026-04-30T05:45:20.999Z</time></trkpt><trkpt lat="45.41899422422866" lon="9.24663050865552"><ele>103.0</ele><time>2026-04-30T05:45:21.999Z</time></trkpt><trkpt lat="45.4187643975589" lon="9.246729522089039"><ele>101.0</ele><time>2026-04-30T05:45:22.999Z</time></trkpt><trkpt lat="45.418540898346265" lon="9.246873461937234"><ele>101.0</ele><time>2026-04-30T05:45:23.999Z</time></trkpt><trkpt lat="45.418334683124506" lon="9.24703052445033"><ele>101.0</ele><time>2026-04-30T05:45:24.999Z</time></trkpt><trkpt lat="45.41813968057136" lon="9.247215119622762"><ele>100.5</ele><time>2026-04-30T05:45:25.999Z</time></trkpt><trkpt lat="45.417944876591584" lon="9.247398051715205"><ele>100.0</ele><time>2026-04-30T05:45:26.999Z</time></trkpt><trkpt lat="45.417779536920385" lon="9.247597687488357"><ele>100.0</ele><time>2026-04-30T05:45:27.999Z</time></trkpt><trkpt lat="45.41758009011327" lon="9.24778968887703"><ele>100.0</ele><time>2026-04-30T05:45:28.999Z</time></trkpt><trkpt lat="45.41740873310265" lon="9.247984997154735"><ele>99.0</ele><time>2026-04-30T05:45:29.999Z</time></trkpt><trkpt lat="45.41722920815875" lon="9.24821847371102"><ele>98.0</ele><time>2026-04-30T05:45:30.999Z</time></trkpt><trkpt lat="45.41705911078191" lon="9.24846421841875"><ele>100.0</ele><time>2026-04-30T05:45:31.999Z</time></trkpt><trkpt lat="45.41690016530182" lon="9.248742557200611"><ele>102.0</ele><time>2026-04-30T05:45:32.999Z</time></trkpt><trkpt lat="45.41673128700758" lon="9.249004280201996"><ele>102.0</ele><time>2026-04-30T05:45:33.999Z</time></trkpt><trkpt lat="45.41657829817169" lon="9.249285525131642"><ele>102.0</ele><time>2026-04-30T05:45:34.999Z</time></trkpt><trkpt lat="45.41642086458742" lon="9.249563978696413"><ele>102.5</ele><time>2026-04-30T05:45:35.999Z</time></trkpt><trkpt lat="45.41625622535425" lon="9.249797709459976"><ele>103.0</ele><time>2026-04-30T05:45:36.999Z</time></trkpt><trkpt lat="45.416123366858685" lon="9.250050544701155"><ele>103.0</ele><time>2026-04-30T05:45:37.999Z</time></trkpt><trkpt lat="45.4159789829636" lon="9.250269953240265"><ele>103.0</ele><time>2026-04-30T05:45:38.999Z</time></trkpt><trkpt lat="45.41581218964018" lon="9.250503337614255"><ele>103.0</ele><time>2026-04-30T05:45:39.999Z</time></trkpt><trkpt lat="45.41566047924243" lon="9.250732360140148"><ele>101.5</ele><time>2026-04-30T05:45:40.999Z</time></trkpt><trkpt lat="45.41550173100667" lon="9.250973368387987"><ele>100.0</ele><time>2026-04-30T05:45:41.999Z</time></trkpt><trkpt lat="45.4153343711603" lon="9.251229012265132"><ele>99.5</ele><time>2026-04-30T05:45:42.999Z</time></trkpt><trkpt lat="45.41517185492963" lon="9.251475863041351"><ele>99.0</ele><time>2026-04-30T05:45:43.999Z</time></trkpt><trkpt lat="45.414987640039115" lon="9.251746662896677"><ele>99.0</ele><time>2026-04-30T05:45:44.999Z</time></trkpt><trkpt lat="45.414831584867" lon="9.251973659339122"><ele>99.0</ele><time>2026-04-30T05:45:45.999Z</time></trkpt><trkpt lat="45.414673537233284" lon="9.252205334466142"><ele>102.5</ele><time>2026-04-30T05:45:46.999Z</time></trkpt><trkpt lat="45.41450744980343" lon="9.25244415188209"><ele>106.0</ele><time>2026-04-30T05:45:47.999Z</time></trkpt><trkpt lat="45.41434508200653" lon="9.252675271155358"><ele>106.0</ele><time>2026-04-30T05:45:48.999Z</time></trkpt><trkpt lat="45.41417744407425" lon="9.252911667907126"><ele>106.0</ele><time>2026-04-30T05:45:49.999Z</time></trkpt><trkpt lat="45.41401346395653" lon="9.2531451712012"><ele>104.5</ele><time>2026-04-30T05:45:50.999Z</time></trkpt><trkpt lat="45.41384270731052" lon="9.253383715170344"><ele>103.0</ele><time>2026-04-30T05:45:51.999Z</time></trkpt><trkpt lat="45.41366776105622" lon="9.253621352373665"><ele>103.0</ele><time>2026-04-30T05:45:52.999Z</time></trkpt><trkpt lat="45.41348976616548" lon="9.253863130269176"><ele>103.0</ele><time>2026-04-30T05:45:53.999Z</time></trkpt><trkpt lat="45.41331943576367" lon="9.254090640276429"><ele>102.0</ele><time>2026-04-30T05:45:54.999Z</time></trkpt><trkpt lat="45.41313445680563" lon="9.254336429991694"><ele>101.0</ele><time>2026-04-30T05:45:55.999Z</time></trkpt><trkpt lat="45.41294524408383" lon="9.254582466373737"><ele>100.5</ele><time>2026-04-30T05:45:56.999Z</time></trkpt><trkpt lat="45.4127601797462" lon="9.254823114440105"><ele>100.0</ele><time>2026-04-30T05:45:57.999Z</time></trkpt><trkpt lat="45.41257573937364" lon="9.255062951084524"><ele>100.0</ele><time>2026-04-30T05:45:58.999Z</time></trkpt><trkpt lat="45.4124058085188" lon="9.25528107867838"><ele>100.0</ele><time>2026-04-30T05:45:59.999Z</time></trkpt><trkpt lat="45.412222145646275" lon="9.255516245506012"><ele>100.0</ele><time>2026-04-30T05:46:00.999Z</time></trkpt><trkpt lat="45.41204353963407" lon="9.255744937448753"><ele>100.0</ele><time>2026-04-30T05:46:01.999Z</time></trkpt><trkpt lat="45.411856569138514" lon="9.255984339443575"><ele>100.0</ele><time>2026-04-30T05:46:02.999Z</time></trkpt><trkpt lat="45.411665577949776" lon="9.256220567338179"><ele>100.0</ele><time>2026-04-30T05:46:03.999Z</time></trkpt><trkpt lat="45.41148687662082" lon="9.256443608475411"><ele>99.5</ele><time>2026-04-30T05:46:04.999Z</time></trkpt><trkpt lat="45.41130290031797" lon="9.256675126328227"><ele>99.0</ele><time>2026-04-30T05:46:05.999Z</time></trkpt><trkpt lat="45.41112858937545" lon="9.256895535889594"><ele>99.0</ele><time>2026-04-30T05:46:06.999Z</time></trkpt><trkpt lat="45.41095140865992" lon="9.257119130532491"><ele>99.0</ele><time>2026-04-30T05:46:07.999Z</time></trkpt><trkpt lat="45.41077790055028" lon="9.25733770373167"><ele>99.5</ele><time>2026-04-30T05:46:08.999Z</time></trkpt><trkpt lat="45.41060642015324" lon="9.257553816875257"><ele>100.0</ele><time>2026-04-30T05:46:09.999Z</time></trkpt><trkpt lat="45.41043128087515" lon="9.257775242140074"><ele>100.0</ele><time>2026-04-30T05:46:10.999Z</time></trkpt><trkpt lat="45.410269134822286" lon="9.257981152917601"><ele>100.0</ele><time>2026-04-30T05:46:11.999Z</time></trkpt><trkpt lat="45.41010445073363" lon="9.258190286898532"><ele>100.0</ele><time>2026-04-30T05:46:12.999Z</time></trkpt><trkpt lat="45.409944970604954" lon="9.258391872325026"><ele>100.66666666666667</ele><time>2026-04-30T05:46:13.999Z</time></trkpt><trkpt lat="45.40979485878379" lon="9.258581119633863"><ele>101.33333333333334</ele><time>2026-04-30T05:46:14.999Z</time></trkpt><trkpt lat="45.40964579538778" lon="9.258768274957452"><ele>102.0</ele><time>2026-04-30T05:46:15.999Z</time></trkpt><trkpt lat="45.409495279513116" lon="9.258956452505497"><ele>100.66666666666666</ele><time>2026-04-30T05:46:16.999Z</time></trkpt><trkpt lat="45.40933894005461" lon="9.259152150577547"><ele>99.33333333333333</ele><time>2026-04-30T05:46:17.999Z</time></trkpt><trkpt lat="45.40919804761197" lon="9.259329684622525"><ele>98.0</ele><time>2026-04-30T05:46:18.999Z</time></trkpt><trkpt lat="45.40904754643746" lon="9.259455187229332"><ele>98.0</ele><time>2026-04-30T05:46:19.999Z</time></trkpt><trkpt lat="45.40887660300548" lon="9.25963127065122"><ele>98.0</ele><time>2026-04-30T05:46:20.999Z</time></trkpt><trkpt lat="45.408695821114584" lon="9.259789270453318"><ele>98.0</ele><time>2026-04-30T05:46:21.999Z</time></trkpt><trkpt lat="45.40851255815638" lon="9.259971873048917"><ele>98.0</ele><time>2026-04-30T05:46:22.999Z</time></trkpt><trkpt lat="45.408344222324914" lon="9.260165926386716"><ele>98.0</ele><time>2026-04-30T05:46:23.999Z</time></trkpt><trkpt lat="45.40817796278721" lon="9.260346796410927"><ele>98.0</ele><time>2026-04-30T05:46:24.999Z</time></trkpt><trkpt lat="45.4080367572014" lon="9.260537150024803"><ele>98.0</ele><time>2026-04-30T05:46:25.999Z</time></trkpt><trkpt lat="45.40786881299368" lon="9.26072997362247"><ele>98.0</ele><time>2026-04-30T05:46:26.999Z</time></trkpt><trkpt lat="45.4076642753085" lon="9.26084729806056"><ele>98.0</ele><time>2026-04-30T05:46:27.999Z</time></trkpt><trkpt lat="45.40745119001533" lon="9.260974945274398"><ele>98.0</ele><time>2026-04-30T05:46:28.999Z</time></trkpt><trkpt lat="45.407240335268675" lon="9.26108146022601"><ele>98.0</ele><time>2026-04-30T05:46:29.999Z</time></trkpt><trkpt lat="45.40702449028948" lon="9.261168885713822"><ele>98.0</ele><time>2026-04-30T05:46:30.999Z</time></trkpt><trkpt lat="45.406826669372414" lon="9.261342937548836"><ele>98.5</ele><time>2026-04-30T05:46:31.999Z</time></trkpt><trkpt lat="45.40660581926101" lon="9.261444270220558"><ele>99.0</ele><time>2026-04-30T05:46:32.998Z</time></trkpt><trkpt lat="45.406383616862655" lon="9.26149564705718"><ele>99.0</ele><time>2026-04-30T05:46:33.998Z</time></trkpt><trkpt lat="45.40616968868885" lon="9.261513279787605"><ele>99.0</ele><time>2026-04-30T05:46:34.998Z</time></trkpt><trkpt lat="45.40594766526831" lon="9.261394102278693"><ele>99.33333333333334</ele><time>2026-04-30T05:46:35.998Z</time></trkpt><trkpt lat="45.40571899992138" lon="9.261397160332743"><ele>99.66666666666667</ele><time>2026-04-30T05:46:36.998Z</time></trkpt><trkpt lat="45.405504090946295" lon="9.261385020462958"><ele>100.0</ele><time>2026-04-30T05:46:37.998Z</time></trkpt><trkpt lat="45.40527159354287" lon="9.261382006370818"><ele>99.66666666666667</ele><time>2026-04-30T05:46:38.998Z</time></trkpt><trkpt lat="45.405016900105096" lon="9.261336493253502"><ele>99.33333333333334</ele><time>2026-04-30T05:46:39.998Z</time></trkpt><trkpt lat="45.40483890235319" lon="9.261317667084242"><ele>99.0</ele><time>2026-04-30T05:46:40.998Z</time></trkpt><trkpt lat="45.40461064750627" lon="9.261292937571858"><ele>99.0</ele><time>2026-04-30T05:46:41.998Z</time></trkpt><trkpt lat="45.4043856575579" lon="9.261268216977367"><ele>99.0</ele><time>2026-04-30T05:46:42.998Z</time></trkpt><trkpt lat="45.404195400163275" lon="9.261247312633966"><ele>99.0</ele><time>2026-04-30T05:46:43.998Z</time></trkpt><trkpt lat="45.403971728153614" lon="9.261222736801221"><ele>99.5</ele><time>2026-04-30T05:46:44.998Z</time></trkpt><trkpt lat="45.4037470900422" lon="9.261198132839995"><ele>100.0</ele><time>2026-04-30T05:46:45.998Z</time></trkpt><trkpt lat="45.4034817205389" lon="9.261170135988515"><ele>100.0</ele><time>2026-04-30T05:46:46.998Z</time></trkpt><trkpt lat="45.403246487987325" lon="9.261145310290283"><ele>100.0</ele><time>2026-04-30T05:46:47.998Z</time></trkpt><trkpt lat="45.403025226523695" lon="9.26112196663308"><ele>99.5</ele><time>2026-04-30T05:46:48.998Z</time></trkpt><trkpt lat="45.402802854679" lon="9.261096342292152"><ele>99.0</ele><time>2026-04-30T05:46:49.998Z</time></trkpt><trkpt lat="45.40256081825619" lon="9.261067368951224"><ele>99.0</ele><time>2026-04-30T05:46:50.998Z</time></trkpt><trkpt lat="45.40233290596784" lon="9.261037527841188"><ele>99.0</ele><time>2026-04-30T05:46:51.998Z</time></trkpt><trkpt lat="45.40210702169531" lon="9.26099828909177"><ele>99.0</ele><time>2026-04-30T05:46:52.998Z</time></trkpt><trkpt lat="45.401877222322504" lon="9.260966038079104"><ele>99.0</ele><time>2026-04-30T05:46:53.998Z</time></trkpt><trkpt lat="45.40165645194054" lon="9.260944163825437"><ele>99.0</ele><time>2026-04-30T05:46:54.998Z</time></trkpt><trkpt lat="45.401425721049016" lon="9.26091862199838"><ele>99.0</ele><time>2026-04-30T05:46:55.998Z</time></trkpt><trkpt lat="45.40120983419352" lon="9.260894723396724"><ele>99.0</ele><time>2026-04-30T05:46:56.998Z</time></trkpt><trkpt lat="45.40099103683513" lon="9.260870502599209"><ele>98.66666666666666</ele><time>2026-04-30T05:46:57.998Z</time></trkpt><trkpt lat="45.40076484779052" lon="9.260845256060438"><ele>98.33333333333333</ele><time>2026-04-30T05:46:58.998Z</time></trkpt><trkpt lat="45.40054772432709" lon="9.260820918760555"><ele>98.0</ele><time>2026-04-30T05:46:59.998Z</time></trkpt><trkpt lat="45.40031198094577" lon="9.260795867136645"><ele>98.0</ele><time>2026-04-30T05:47:00.998Z</time></trkpt><trkpt lat="45.400089799141284" lon="9.260778466284293"><ele>98.0</ele><time>2026-04-30T05:47:01.998Z</time></trkpt><trkpt lat="45.39987662423805" lon="9.260762782050419"><ele>98.0</ele><time>2026-04-30T05:47:02.998Z</time></trkpt><trkpt lat="45.399655601248185" lon="9.260743605116808"><ele>99.0</ele><time>2026-04-30T05:47:03.998Z</time></trkpt><trkpt lat="45.39944272256211" lon="9.26072206811532"><ele>100.0</ele><time>2026-04-30T05:47:04.998Z</time></trkpt><trkpt lat="45.39922506873356" lon="9.260697588846812"><ele>101.0</ele><time>2026-04-30T05:47:05.998Z</time></trkpt><trkpt lat="45.39900600967467" lon="9.260672943810285"><ele>101.0</ele><time>2026-04-30T05:47:06.998Z</time></trkpt><trkpt lat="45.398787349273476" lon="9.260648351304473"><ele>101.0</ele><time>2026-04-30T05:47:07.998Z</time></trkpt><trkpt lat="45.39857115415789" lon="9.260624036104979"><ele>101.0</ele><time>2026-04-30T05:47:08.998Z</time></trkpt><trkpt lat="45.39834909984844" lon="9.260599736754553"><ele>101.0</ele><time>2026-04-30T05:47:09.998Z</time></trkpt><trkpt lat="45.39813346490953" lon="9.260574801669662"><ele>101.0</ele><time>2026-04-30T05:47:10.998Z</time></trkpt><trkpt lat="45.39790245597672" lon="9.26054544377393"><ele>101.0</ele><time>2026-04-30T05:47:11.998Z</time></trkpt><trkpt lat="45.3976854763298" lon="9.260508494121355"><ele>101.0</ele><time>2026-04-30T05:47:12.998Z</time></trkpt><trkpt lat="45.39746262866974" lon="9.260477382146158"><ele>101.0</ele><time>2026-04-30T05:47:13.998Z</time></trkpt><trkpt lat="45.39722143343879" lon="9.26045036308557"><ele>100.5</ele><time>2026-04-30T05:47:14.998Z</time></trkpt><trkpt lat="45.396988676798806" lon="9.260426220533631"><ele>100.0</ele><time>2026-04-30T05:47:15.998Z</time></trkpt><trkpt lat="45.39674356039937" lon="9.260400576694527"><ele>100.0</ele><time>2026-04-30T05:47:16.998Z</time></trkpt><trkpt lat="45.396553353646325" lon="9.260379108688591"><ele>100.0</ele><time>2026-04-30T05:47:17.998Z</time></trkpt><trkpt lat="45.39633009402175" lon="9.2603549115223"><ele>100.0</ele><time>2026-04-30T05:47:18.998Z</time></trkpt><trkpt lat="45.39611933150152" lon="9.26033735430934"><ele>100.0</ele><time>2026-04-30T05:47:19.998Z</time></trkpt><trkpt lat="45.39590902177948" lon="9.260321349069065"><ele>100.0</ele><time>2026-04-30T05:47:20.998Z</time></trkpt><trkpt lat="45.39568481787657" lon="9.26030740630751"><ele>100.0</ele><time>2026-04-30T05:47:21.998Z</time></trkpt><trkpt lat="45.39546935002331" lon="9.260301972340901"><ele>100.0</ele><time>2026-04-30T05:47:22.998Z</time></trkpt><trkpt lat="45.39524530868312" lon="9.260326292487019"><ele>100.0</ele><time>2026-04-30T05:47:23.998Z</time></trkpt><trkpt lat="45.395016945649424" lon="9.260317398342181"><ele>100.0</ele><time>2026-04-30T05:47:24.998Z</time></trkpt><trkpt lat="45.394791644102675" lon="9.260331926749803"><ele>100.0</ele><time>2026-04-30T05:47:25.998Z</time></trkpt><trkpt lat="45.39457893353995" lon="9.260353205678514"><ele>100.0</ele><time>2026-04-30T05:47:26.998Z</time></trkpt><trkpt lat="45.39437099934541" lon="9.260391203629336"><ele>101.0</ele><time>2026-04-30T05:47:27.998Z</time></trkpt><trkpt lat="45.394130564235425" lon="9.260372151972774"><ele>102.0</ele><time>2026-04-30T05:47:28.998Z</time></trkpt><trkpt lat="45.39390032263425" lon="9.26033577670564"><ele>101.5</ele><time>2026-04-30T05:47:29.998Z</time></trkpt><trkpt lat="45.39365396916498" lon="9.26039010811246"><ele>101.0</ele><time>2026-04-30T05:47:30.998Z</time></trkpt><trkpt lat="45.39341602993152" lon="9.26043832881792"><ele>101.0</ele><time>2026-04-30T05:47:31.998Z</time></trkpt><trkpt lat="45.393179238272104" lon="9.260475312853915"><ele>101.0</ele><time>2026-04-30T05:47:32.998Z</time></trkpt><trkpt lat="45.39295419384328" lon="9.260539423672487"><ele>101.0</ele><time>2026-04-30T05:47:33.998Z</time></trkpt><trkpt lat="45.39273987056884" lon="9.260596389825169"><ele>101.0</ele><time>2026-04-30T05:47:34.998Z</time></trkpt><trkpt lat="45.39258645902421" lon="9.260748118609024"><ele>101.0</ele><time>2026-04-30T05:47:35.998Z</time></trkpt><trkpt lat="45.392410311603975" lon="9.260840849335333"><ele>101.0</ele><time>2026-04-30T05:47:36.998Z</time></trkpt><trkpt lat="45.392215833909404" lon="9.26096030140894"><ele>101.0</ele><time>2026-04-30T05:47:37.998Z</time></trkpt><trkpt lat="45.39201237971851" lon="9.261071386231833"><ele>101.0</ele><time>2026-04-30T05:47:38.998Z</time></trkpt><trkpt lat="45.39179298254636" lon="9.261182852954912"><ele>99.5</ele><time>2026-04-30T05:47:39.998Z</time></trkpt><trkpt lat="45.391555361399895" lon="9.261263809972094"><ele>98.0</ele><time>2026-04-30T05:47:40.998Z</time></trkpt><trkpt lat="45.39134499363848" lon="9.261388009582216"><ele>98.33333333333333</ele><time>2026-04-30T05:47:41.998Z</time></trkpt><trkpt lat="45.39114094853976" lon="9.261491577826659"><ele>98.66666666666666</ele><time>2026-04-30T05:47:42.998Z</time></trkpt><trkpt lat="45.39093937320082" lon="9.261591116444576"><ele>99.0</ele><time>2026-04-30T05:47:43.998Z</time></trkpt><trkpt lat="45.39073186895648" lon="9.261720652298314"><ele>99.0</ele><time>2026-04-30T05:47:44.998Z</time></trkpt><trkpt lat="45.39050738136925" lon="9.261838534637278"><ele>99.0</ele><time>2026-04-30T05:47:45.998Z</time></trkpt><trkpt lat="45.39032485589142" lon="9.261977194404867"><ele>99.0</ele><time>2026-04-30T05:47:46.998Z</time></trkpt><trkpt lat="45.39013170536168" lon="9.262124261863864"><ele>99.0</ele><time>2026-04-30T05:47:47.998Z</time></trkpt><trkpt lat="45.38994633419649" lon="9.262250908256446"><ele>99.0</ele><time>2026-04-30T05:47:48.998Z</time></trkpt><trkpt lat="45.38976551875399" lon="9.262421509285904"><ele>99.0</ele><time>2026-04-30T05:47:49.998Z</time></trkpt><trkpt lat="45.389572417790085" lon="9.26258978968758"><ele>98.0</ele><time>2026-04-30T05:47:50.998Z</time></trkpt><trkpt lat="45.38937196882618" lon="9.262741922594362"><ele>97.0</ele><time>2026-04-30T05:47:51.998Z</time></trkpt><trkpt lat="45.38917170583142" lon="9.262912439019846"><ele>97.0</ele><time>2026-04-30T05:47:52.998Z</time></trkpt><trkpt lat="45.38899958681916" lon="9.263106373026478"><ele>97.0</ele><time>2026-04-30T05:47:53.998Z</time></trkpt><trkpt lat="45.38882348723264" lon="9.263266094607765"><ele>97.0</ele><time>2026-04-30T05:47:54.998Z</time></trkpt><trkpt lat="45.38865767155619" lon="9.26344895267563"><ele>97.33333333333334</ele><time>2026-04-30T05:47:55.998Z</time></trkpt><trkpt lat="45.388502301450806" lon="9.263651449940106"><ele>97.66666666666666</ele><time>2026-04-30T05:47:56.998Z</time></trkpt><trkpt lat="45.38833317255636" lon="9.263856275264"><ele>98.0</ele><time>2026-04-30T05:47:57.998Z</time></trkpt><trkpt lat="45.38817589139911" lon="9.264064018273647"><ele>98.33333333333333</ele><time>2026-04-30T05:47:58.998Z</time></trkpt><trkpt lat="45.388028615995" lon="9.264266822813576"><ele>98.66666666666666</ele><time>2026-04-30T05:47:59.998Z</time></trkpt><trkpt lat="45.38786292442293" lon="9.264490674753315"><ele>99.0</ele><time>2026-04-30T05:48:00.998Z</time></trkpt><trkpt lat="45.387684148556694" lon="9.264707989203853"><ele>98.66666666666666</ele><time>2026-04-30T05:48:01.998Z</time></trkpt><trkpt lat="45.38751727757955" lon="9.264893831393412"><ele>98.33333333333333</ele><time>2026-04-30T05:48:02.998Z</time></trkpt><trkpt lat="45.387358653803986" lon="9.265103001243338"><ele>98.0</ele><time>2026-04-30T05:48:03.998Z</time></trkpt><trkpt lat="45.38718632599998" lon="9.26530445678268"><ele>97.5</ele><time>2026-04-30T05:48:04.998Z</time></trkpt><trkpt lat="45.38700948123838" lon="9.265521282298142"><ele>97.0</ele><time>2026-04-30T05:48:05.998Z</time></trkpt><trkpt lat="45.38681522418524" lon="9.26575912415593"><ele>97.0</ele><time>2026-04-30T05:48:07Z</time></trkpt><trkpt lat="45.386632655122284" lon="9.265925747685488"><ele>97.0</ele><time>2026-04-30T05:48:08Z</time></trkpt><trkpt lat="45.38648548785411" lon="9.266125357221316"><ele>97.0</ele><time>2026-04-30T05:48:09Z</time></trkpt><trkpt lat="45.386318107894354" lon="9.266314406716486"><ele>97.0</ele><time>2026-04-30T05:48:10Z</time></trkpt><trkpt lat="45.38616008819744" lon="9.266525708104535"><ele>97.0</ele><time>2026-04-30T05:48:11Z</time></trkpt><trkpt lat="45.385993000444614" lon="9.26673200174469"><ele>97.0</ele><time>2026-04-30T05:48:12Z</time></trkpt><trkpt lat="45.38580541328954" lon="9.266906360579444"><ele>97.0</ele><time>2026-04-30T05:48:13Z</time></trkpt><trkpt lat="45.38564321546375" lon="9.267130338572173"><ele>97.0</ele><time>2026-04-30T05:48:14Z</time></trkpt><trkpt lat="45.38547536190803" lon="9.267322939154939"><ele>97.0</ele><time>2026-04-30T05:48:15Z</time></trkpt><trkpt lat="45.385306362152456" lon="9.267520803927718"><ele>97.0</ele><time>2026-04-30T05:48:16Z</time></trkpt><trkpt lat="45.385144639497106" lon="9.26770637092674"><ele>97.0</ele><time>2026-04-30T05:48:17Z</time></trkpt><trkpt lat="45.3849617869556" lon="9.267877806841746"><ele>97.0</ele><time>2026-04-30T05:48:18Z</time></trkpt><trkpt lat="45.38477814200553" lon="9.268080960387936"><ele>97.33333333333334</ele><time>2026-04-30T05:48:19Z</time></trkpt><trkpt lat="45.38461842910986" lon="9.268283536638993"><ele>97.66666666666666</ele><time>2026-04-30T05:48:20Z</time></trkpt><trkpt lat="45.38445919693284" lon="9.268470452355091"><ele>98.0</ele><time>2026-04-30T05:48:21Z</time></trkpt><trkpt lat="45.38432228339114" lon="9.26870963710836"><ele>98.0</ele><time>2026-04-30T05:48:22Z</time></trkpt><trkpt lat="45.384125944763746" lon="9.26887572652367"><ele>98.0</ele><time>2026-04-30T05:48:23Z</time></trkpt><trkpt lat="45.38397237106365" lon="9.269075593320535"><ele>98.0</ele><time>2026-04-30T05:48:24Z</time></trkpt><trkpt lat="45.38381154521127" lon="9.269290865944551"><ele>97.66666666666666</ele><time>2026-04-30T05:48:25Z</time></trkpt><trkpt lat="45.383621460529824" lon="9.269481211898622"><ele>97.33333333333334</ele><time>2026-04-30T05:48:26Z</time></trkpt><trkpt lat="45.38345797823052" lon="9.269676374344344"><ele>97.0</ele><time>2026-04-30T05:48:27Z</time></trkpt><trkpt lat="45.38329763044452" lon="9.269875497335319"><ele>97.0</ele><time>2026-04-30T05:48:28Z</time></trkpt><trkpt lat="45.38314438972841" lon="9.270059570432272"><ele>97.0</ele><time>2026-04-30T05:48:29Z</time></trkpt><trkpt lat="45.38298858218229" lon="9.270251002920967"><ele>97.0</ele><time>2026-04-30T05:48:30Z</time></trkpt><trkpt lat="45.38281829888495" lon="9.27045838356331"><ele>96.0</ele><time>2026-04-30T05:48:31Z</time></trkpt><trkpt lat="45.382640314038376" lon="9.270654035649915"><ele>95.0</ele><time>2026-04-30T05:48:32Z</time></trkpt><trkpt lat="45.382479235172944" lon="9.270850036910947"><ele>94.0</ele><time>2026-04-30T05:48:33Z</time></trkpt><trkpt lat="45.382326744148706" lon="9.271038443242922"><ele>95.0</ele><time>2026-04-30T05:48:34Z</time></trkpt><trkpt lat="45.38215504633078" lon="9.271262276264224"><ele>96.0</ele><time>2026-04-30T05:48:35Z</time></trkpt><trkpt lat="45.38198582221238" lon="9.271474085021792"><ele>96.0</ele><time>2026-04-30T05:48:36Z</time></trkpt><trkpt lat="45.38180604588404" lon="9.271674420447413"><ele>96.0</ele><time>2026-04-30T05:48:37Z</time></trkpt><trkpt lat="45.381636187590644" lon="9.271874244375653"><ele>96.0</ele><time>2026-04-30T05:48:38Z</time></trkpt><trkpt lat="45.381464051861684" lon="9.27206891669468"><ele>96.0</ele><time>2026-04-30T05:48:39Z</time></trkpt><trkpt lat="45.381289468009214" lon="9.272258951041266"><ele>96.0</ele><time>2026-04-30T05:48:40Z</time></trkpt><trkpt lat="45.38111243662059" lon="9.272449263510257"><ele>96.0</ele><time>2026-04-30T05:48:41Z</time></trkpt><trkpt lat="45.3809422354568" lon="9.272680152050208"><ele>96.0</ele><time>2026-04-30T05:48:42Z</time></trkpt><trkpt lat="45.380763128630875" lon="9.27288415473631"><ele>96.0</ele><time>2026-04-30T05:48:43Z</time></trkpt><trkpt lat="45.380587166468814" lon="9.273069855444737"><ele>96.0</ele><time>2026-04-30T05:48:44Z</time></trkpt><trkpt lat="45.3804070827833" lon="9.273280659584499"><ele>96.33333333333334</ele><time>2026-04-30T05:48:45Z</time></trkpt><trkpt lat="45.38024087498038" lon="9.273488155641843"><ele>96.66666666666667</ele><time>2026-04-30T05:48:46Z</time></trkpt><trkpt lat="45.380054896925" lon="9.273620572302725"><ele>97.0</ele><time>2026-04-30T05:48:47Z</time></trkpt><trkpt lat="45.37988596513857" lon="9.273794606592894"><ele>97.0</ele><time>2026-04-30T05:48:48Z</time></trkpt><trkpt lat="45.37971066813016" lon="9.27397617998358"><ele>97.0</ele><time>2026-04-30T05:48:49Z</time></trkpt><trkpt lat="45.3795190408747" lon="9.274165768157225"><ele>97.0</ele><time>2026-04-30T05:48:50Z</time></trkpt><trkpt lat="45.37936394329591" lon="9.27441264423727"><ele>97.0</ele><time>2026-04-30T05:48:51Z</time></trkpt><trkpt lat="45.379211977643756" lon="9.274641261136493"><ele>96.66666666666667</ele><time>2026-04-30T05:48:52Z</time></trkpt><trkpt lat="45.37906407487288" lon="9.27486442004996"><ele>96.33333333333334</ele><time>2026-04-30T05:48:53Z</time></trkpt><trkpt lat="45.3789113569139" lon="9.275076931791757"><ele>96.0</ele><time>2026-04-30T05:48:54Z</time></trkpt><trkpt lat="45.37874110384238" lon="9.275283118086813"><ele>96.0</ele><time>2026-04-30T05:48:55Z</time></trkpt><trkpt lat="45.378582245720374" lon="9.275518415392893"><ele>96.0</ele><time>2026-04-30T05:48:56Z</time></trkpt><trkpt lat="45.37839570924318" lon="9.27567747255994"><ele>96.0</ele><time>2026-04-30T05:48:57Z</time></trkpt><trkpt lat="45.37824545632814" lon="9.275932270445166"><ele>96.0</ele><time>2026-04-30T05:48:58Z</time></trkpt><trkpt lat="45.37803128949752" lon="9.276153911353397"><ele>96.0</ele><time>2026-04-30T05:48:59Z</time></trkpt><trkpt lat="45.377840992470674" lon="9.276332836171866"><ele>96.0</ele><time>2026-04-30T05:49:00Z</time></trkpt><trkpt lat="45.377655103174554" lon="9.27655863672115"><ele>96.0</ele><time>2026-04-30T05:49:01Z</time></trkpt><trkpt lat="45.377470606361605" lon="9.276727062785316"><ele>96.0</ele><time>2026-04-30T05:49:02Z</time></trkpt><trkpt lat="45.37728580093654" lon="9.27696056286169"><ele>96.0</ele><time>2026-04-30T05:49:03Z</time></trkpt><trkpt lat="45.377099401198166" lon="9.277121343696338"><ele>96.0</ele><time>2026-04-30T05:49:04Z</time></trkpt><trkpt lat="45.37691502348823" lon="9.277312381365551"><ele>96.0</ele><time>2026-04-30T05:49:05Z</time></trkpt><trkpt lat="45.37673305014261" lon="9.277512391508392"><ele>96.0</ele><time>2026-04-30T05:49:06Z</time></trkpt><trkpt lat="45.37652739657976" lon="9.277691142622318"><ele>96.0</ele><time>2026-04-30T05:49:07Z</time></trkpt><trkpt lat="45.37633381296899" lon="9.277902910383323"><ele>95.0</ele><time>2026-04-30T05:49:08Z</time></trkpt><trkpt lat="45.37618873445523" lon="9.278136779614737"><ele>94.0</ele><time>2026-04-30T05:49:09Z</time></trkpt><trkpt lat="45.376002755092244" lon="9.278340677889153"><ele>94.0</ele><time>2026-04-30T05:49:10Z</time></trkpt><trkpt lat="45.37581765656829" lon="9.278561657103404"><ele>94.0</ele><time>2026-04-30T05:49:11Z</time></trkpt><trkpt lat="45.37562751137381" lon="9.278781916008144"><ele>94.5</ele><time>2026-04-30T05:49:12Z</time></trkpt><trkpt lat="45.37546068613167" lon="9.279013618342102"><ele>95.0</ele><time>2026-04-30T05:49:13Z</time></trkpt><trkpt lat="45.37526611267042" lon="9.279221790947723"><ele>95.0</ele><time>2026-04-30T05:49:14Z</time></trkpt><trkpt lat="45.3750716581569" lon="9.279431383490694"><ele>95.0</ele><time>2026-04-30T05:49:15Z</time></trkpt><trkpt lat="45.37490468154918" lon="9.279663393923986"><ele>95.0</ele><time>2026-04-30T05:49:16Z</time></trkpt><trkpt lat="45.37473567640515" lon="9.279901047096375"><ele>95.0</ele><time>2026-04-30T05:49:17Z</time></trkpt><trkpt lat="45.37453421396672" lon="9.280100895383242"><ele>95.0</ele><time>2026-04-30T05:49:18Z</time></trkpt><trkpt lat="45.3743318155687" lon="9.28032459767775"><ele>95.0</ele><time>2026-04-30T05:49:19Z</time></trkpt><trkpt lat="45.37413593952488" lon="9.280508561758028"><ele>94.5</ele><time>2026-04-30T05:49:20Z</time></trkpt><trkpt lat="45.37395419882412" lon="9.280721349642123"><ele>94.0</ele><time>2026-04-30T05:49:21Z</time></trkpt><trkpt lat="45.37375898997089" lon="9.280949320659174"><ele>94.0</ele><time>2026-04-30T05:49:22Z</time></trkpt><trkpt lat="45.37357216722549" lon="9.28116749821032"><ele>94.0</ele><time>2026-04-30T05:49:23Z</time></trkpt><trkpt lat="45.37340565312214" lon="9.281361958489702"><ele>93.66666666666666</ele><time>2026-04-30T05:49:24Z</time></trkpt><trkpt lat="45.37327299359444" lon="9.281603527098662"><ele>93.33333333333333</ele><time>2026-04-30T05:49:25Z</time></trkpt><trkpt lat="45.37310469718072" lon="9.281821269594587"><ele>93.0</ele><time>2026-04-30T05:49:26Z</time></trkpt><trkpt lat="45.37292690780759" lon="9.282024924254513"><ele>93.0</ele><time>2026-04-30T05:49:27Z</time></trkpt><trkpt lat="45.372748159417306" lon="9.28222807609117"><ele>93.0</ele><time>2026-04-30T05:49:28Z</time></trkpt><trkpt lat="45.37256839899806" lon="9.282455691402534"><ele>93.0</ele><time>2026-04-30T05:49:29Z</time></trkpt><trkpt lat="45.37239708984279" lon="9.282659199874434"><ele>93.0</ele><time>2026-04-30T05:49:30Z</time></trkpt><trkpt lat="45.372196767021826" lon="9.282831725320063"><ele>92.5</ele><time>2026-04-30T05:49:31Z</time></trkpt><trkpt lat="45.372006598955814" lon="9.283008842270933"><ele>92.0</ele><time>2026-04-30T05:49:32Z</time></trkpt><trkpt lat="45.371863661569364" lon="9.283261447706225"><ele>93.0</ele><time>2026-04-30T05:49:33Z</time></trkpt><trkpt lat="45.371702196857065" lon="9.28348628175019"><ele>94.0</ele><time>2026-04-30T05:49:34Z</time></trkpt><trkpt lat="45.37152001637458" lon="9.283681252944849"><ele>93.5</ele><time>2026-04-30T05:49:35Z</time></trkpt><trkpt lat="45.37135355430766" lon="9.283912236985069"><ele>93.0</ele><time>2026-04-30T05:49:36Z</time></trkpt><trkpt lat="45.37119226548852" lon="9.284120402716843"><ele>93.0</ele><time>2026-04-30T05:49:37Z</time></trkpt><trkpt lat="45.37100109040129" lon="9.284307276280238"><ele>93.0</ele><time>2026-04-30T05:49:38Z</time></trkpt><trkpt lat="45.37080995663202" lon="9.28450967618241"><ele>93.0</ele><time>2026-04-30T05:49:39Z</time></trkpt><trkpt lat="45.37065080354522" lon="9.284748102025448"><ele>93.0</ele><time>2026-04-30T05:49:40Z</time></trkpt><trkpt lat="45.37047547361298" lon="9.284970818299772"><ele>93.0</ele><time>2026-04-30T05:49:41Z</time></trkpt><trkpt lat="45.370271894530994" lon="9.285170636622071"><ele>93.0</ele><time>2026-04-30T05:49:42Z</time></trkpt><trkpt lat="45.37011326037507" lon="9.285367820690125"><ele>93.0</ele><time>2026-04-30T05:49:43Z</time></trkpt><trkpt lat="45.36991466752721" lon="9.285596613620921"><ele>93.0</ele><time>2026-04-30T05:49:44Z</time></trkpt><trkpt lat="45.36971695750572" lon="9.285808865456119"><ele>93.5</ele><time>2026-04-30T05:49:45Z</time></trkpt><trkpt lat="45.36955100087341" lon="9.286015582992121"><ele>94.0</ele><time>2026-04-30T05:49:46Z</time></trkpt><trkpt lat="45.36937568660237" lon="9.28622638828795"><ele>93.5</ele><time>2026-04-30T05:49:47Z</time></trkpt><trkpt lat="45.36917776570291" lon="9.286446154986555"><ele>93.0</ele><time>2026-04-30T05:49:48Z</time></trkpt><trkpt lat="45.36898333618469" lon="9.286636024770301"><ele>92.66666666666667</ele><time>2026-04-30T05:49:49Z</time></trkpt><trkpt lat="45.368788982898636" lon="9.286777378677215"><ele>92.33333333333334</ele><time>2026-04-30T05:49:50Z</time></trkpt><trkpt lat="45.36861277218118" lon="9.286989602379307"><ele>92.0</ele><time>2026-04-30T05:49:51Z</time></trkpt><trkpt lat="45.368434035404036" lon="9.287239361050187"><ele>92.5</ele><time>2026-04-30T05:49:52Z</time></trkpt><trkpt lat="45.36826251334154" lon="9.287462513988496"><ele>93.0</ele><time>2026-04-30T05:49:53Z</time></trkpt><trkpt lat="45.36808353840155" lon="9.28764580216564"><ele>92.5</ele><time>2026-04-30T05:49:54Z</time></trkpt><trkpt lat="45.36792628096601" lon="9.2878785277378"><ele>92.0</ele><time>2026-04-30T05:49:55Z</time></trkpt><trkpt lat="45.367740843462954" lon="9.288088553646107"><ele>92.0</ele><time>2026-04-30T05:49:56Z</time></trkpt><trkpt lat="45.36758807616233" lon="9.288310779072688"><ele>92.0</ele><time>2026-04-30T05:49:57Z</time></trkpt><trkpt lat="45.367400067260185" lon="9.288548673512919"><ele>92.0</ele><time>2026-04-30T05:49:58Z</time></trkpt><trkpt lat="45.367218030976225" lon="9.288728591344888"><ele>92.0</ele><time>2026-04-30T05:49:59Z</time></trkpt><trkpt lat="45.367043764521085" lon="9.288927616215977"><ele>92.0</ele><time>2026-04-30T05:50:00Z</time></trkpt><trkpt lat="45.366876245630756" lon="9.289148226247876"><ele>92.0</ele><time>2026-04-30T05:50:01Z</time></trkpt><trkpt lat="45.3667074124759" lon="9.289360267192551"><ele>92.0</ele><time>2026-04-30T05:50:02Z</time></trkpt><trkpt lat="45.36652815459142" lon="9.289559005297802"><ele>92.0</ele><time>2026-04-30T05:50:03Z</time></trkpt><trkpt lat="45.36634219784792" lon="9.289731666919062"><ele>92.0</ele><time>2026-04-30T05:50:04Z</time></trkpt><trkpt lat="45.366178328307036" lon="9.289918118161097"><ele>92.0</ele><time>2026-04-30T05:50:05Z</time></trkpt><trkpt lat="45.366005600580785" lon="9.290130944639396"><ele>92.33333333333334</ele><time>2026-04-30T05:50:06Z</time></trkpt><trkpt lat="45.36582794049526" lon="9.290323288725542"><ele>92.66666666666667</ele><time>2026-04-30T05:50:07Z</time></trkpt><trkpt lat="45.365654340995455" lon="9.290519062558138"><ele>93.0</ele><time>2026-04-30T05:50:08Z</time></trkpt><trkpt lat="45.365497000901534" lon="9.290745498975202"><ele>93.0</ele><time>2026-04-30T05:50:09Z</time></trkpt><trkpt lat="45.36533904959813" lon="9.290953378279223"><ele>93.0</ele><time>2026-04-30T05:50:10Z</time></trkpt><trkpt lat="45.365159404317374" lon="9.291168288427837"><ele>93.0</ele><time>2026-04-30T05:50:11Z</time></trkpt><trkpt lat="45.36497316576398" lon="9.291342861816867"><ele>93.0</ele><time>2026-04-30T05:50:12Z</time></trkpt><trkpt lat="45.364803890408055" lon="9.29154704872294"><ele>93.0</ele><time>2026-04-30T05:50:13Z</time></trkpt><trkpt lat="45.36463395966563" lon="9.291758114739643"><ele>93.0</ele><time>2026-04-30T05:50:14Z</time></trkpt><trkpt lat="45.364451966860415" lon="9.291970015800066"><ele>93.0</ele><time>2026-04-30T05:50:15Z</time></trkpt><trkpt lat="45.3642922267657" lon="9.292172002689261"><ele>93.0</ele><time>2026-04-30T05:50:16Z</time></trkpt><trkpt lat="45.36411109397961" lon="9.292356182965397"><ele>92.5</ele><time>2026-04-30T05:50:17Z</time></trkpt><trkpt lat="45.36394438321759" lon="9.292571949787781"><ele>92.0</ele><time>2026-04-30T05:50:18Z</time></trkpt><trkpt lat="45.36378098108571" lon="9.292790834774884"><ele>92.0</ele><time>2026-04-30T05:50:19Z</time></trkpt><trkpt lat="45.36360655634014" lon="9.29298127170058"><ele>92.0</ele><time>2026-04-30T05:50:20Z</time></trkpt><trkpt lat="45.363433157694864" lon="9.293176905331782"><ele>92.0</ele><time>2026-04-30T05:50:21Z</time></trkpt><trkpt lat="45.36324053281993" lon="9.293383449759059"><ele>92.0</ele><time>2026-04-30T05:50:21.999Z</time></trkpt><trkpt lat="45.36305354533618" lon="9.2935582816348"><ele>92.0</ele><time>2026-04-30T05:50:22.999Z</time></trkpt><trkpt lat="45.36288757934155" lon="9.29375393773448"><ele>92.0</ele><time>2026-04-30T05:50:23.999Z</time></trkpt><trkpt lat="45.36272405764814" lon="9.293948942640018"><ele>91.66666666666667</ele><time>2026-04-30T05:50:24.999Z</time></trkpt><trkpt lat="45.36256365696174" lon="9.294152354567748"><ele>91.33333333333333</ele><time>2026-04-30T05:50:25.999Z</time></trkpt><trkpt lat="45.36240848990489" lon="9.294375201586949"><ele>91.0</ele><time>2026-04-30T05:50:26.999Z</time></trkpt><trkpt lat="45.36223655330888" lon="9.29455796873713"><ele>91.0</ele><time>2026-04-30T05:50:27.999Z</time></trkpt><trkpt lat="45.362069485712844" lon="9.294746551258216"><ele>91.0</ele><time>2026-04-30T05:50:28.999Z</time></trkpt><trkpt lat="45.36190547606452" lon="9.294941402755917"><ele>91.0</ele><time>2026-04-30T05:50:29.999Z</time></trkpt><trkpt lat="45.361748187192575" lon="9.295148439773294"><ele>91.0</ele><time>2026-04-30T05:50:30.999Z</time></trkpt><trkpt lat="45.361579551456664" lon="9.295346179760855"><ele>91.0</ele><time>2026-04-30T05:50:31.999Z</time></trkpt><trkpt lat="45.36137871742341" lon="9.295572015989755"><ele>91.0</ele><time>2026-04-30T05:50:32.999Z</time></trkpt><trkpt lat="45.36121698625929" lon="9.29575755671851"><ele>91.0</ele><time>2026-04-30T05:50:33.999Z</time></trkpt><trkpt lat="45.36105186957043" lon="9.295949667603743"><ele>91.0</ele><time>2026-04-30T05:50:34.999Z</time></trkpt><trkpt lat="45.360887382201625" lon="9.296146159990496"><ele>91.0</ele><time>2026-04-30T05:50:35.999Z</time></trkpt><trkpt lat="45.360764983886455" lon="9.296367677556297"><ele>91.0</ele><time>2026-04-30T05:50:36.999Z</time></trkpt><trkpt lat="45.36061841371731" lon="9.29657966338383"><ele>91.0</ele><time>2026-04-30T05:50:37.999Z</time></trkpt><trkpt lat="45.3604474263718" lon="9.296805498585627"><ele>90.5</ele><time>2026-04-30T05:50:38.999Z</time></trkpt><trkpt lat="45.36025585724032" lon="9.297033096414797"><ele>90.0</ele><time>2026-04-30T05:50:39.999Z</time></trkpt><trkpt lat="45.36006872729201" lon="9.297250313725593"><ele>90.5</ele><time>2026-04-30T05:50:40.999Z</time></trkpt><trkpt lat="45.35987919934094" lon="9.297471720406365"><ele>91.0</ele><time>2026-04-30T05:50:41.999Z</time></trkpt><trkpt lat="45.35969410868621" lon="9.29768764869932"><ele>91.0</ele><time>2026-04-30T05:50:42.999Z</time></trkpt><trkpt lat="45.359513087379874" lon="9.297900096245113"><ele>91.0</ele><time>2026-04-30T05:50:43.999Z</time></trkpt><trkpt lat="45.35934178498425" lon="9.298068187140313"><ele>91.0</ele><time>2026-04-30T05:50:44.999Z</time></trkpt><trkpt lat="45.35915971546029" lon="9.298260762443812"><ele>91.0</ele><time>2026-04-30T05:50:45.999Z</time></trkpt><trkpt lat="45.35897668349447" lon="9.29844224649258"><ele>91.0</ele><time>2026-04-30T05:50:46.999Z</time></trkpt><trkpt lat="45.35878563352713" lon="9.298629635200175"><ele>91.33333333333333</ele><time>2026-04-30T05:50:47.999Z</time></trkpt><trkpt lat="45.35862230560717" lon="9.29879103120349"><ele>91.66666666666667</ele><time>2026-04-30T05:50:48.999Z</time></trkpt><trkpt lat="45.358448776294516" lon="9.298990696390774"><ele>92.0</ele><time>2026-04-30T05:50:49.999Z</time></trkpt><trkpt lat="45.35828331662367" lon="9.29919978069168"><ele>92.33333333333334</ele><time>2026-04-30T05:50:50.999Z</time></trkpt><trkpt lat="45.358111185957696" lon="9.299391441372297"><ele>92.66666666666667</ele><time>2026-04-30T05:50:51.999Z</time></trkpt><trkpt lat="45.357938375324224" lon="9.299580325336029"><ele>93.0</ele><time>2026-04-30T05:50:52.999Z</time></trkpt><trkpt lat="45.35776505470704" lon="9.299778484328812"><ele>93.5</ele><time>2026-04-30T05:50:53.999Z</time></trkpt><trkpt lat="45.357590769272214" lon="9.299971032559448"><ele>94.0</ele><time>2026-04-30T05:50:54.999Z</time></trkpt><trkpt lat="45.357435991310375" lon="9.300216144733321"><ele>94.0</ele><time>2026-04-30T05:50:55.999Z</time></trkpt><trkpt lat="45.35726621042584" lon="9.300417985110997"><ele>94.0</ele><time>2026-04-30T05:50:56.999Z</time></trkpt><trkpt lat="45.357113230595004" lon="9.300631879723673"><ele>94.0</ele><time>2026-04-30T05:50:57.999Z</time></trkpt><trkpt lat="45.35692170601676" lon="9.300801535270917"><ele>93.0</ele><time>2026-04-30T05:50:58.999Z</time></trkpt><trkpt lat="45.35676080910348" lon="9.300978035403466"><ele>92.0</ele><time>2026-04-30T05:50:59.999Z</time></trkpt><trkpt lat="45.35658471291632" lon="9.30116212743325"><ele>91.0</ele><time>2026-04-30T05:51:00.999Z</time></trkpt><trkpt lat="45.356432885274366" lon="9.301321299728098"><ele>91.33333333333333</ele><time>2026-04-30T05:51:01.999Z</time></trkpt><trkpt lat="45.356277924819274" lon="9.301540607696987"><ele>91.66666666666667</ele><time>2026-04-30T05:51:02.999Z</time></trkpt><trkpt lat="45.35612104585159" lon="9.301747935175975"><ele>92.0</ele><time>2026-04-30T05:51:03.999Z</time></trkpt><trkpt lat="45.35594962287167" lon="9.30193992082471"><ele>92.0</ele><time>2026-04-30T05:51:04.999Z</time></trkpt><trkpt lat="45.35579351624846" lon="9.302149043008358"><ele>92.0</ele><time>2026-04-30T05:51:05.999Z</time></trkpt><trkpt lat="45.35562464339357" lon="9.30232026069853"><ele>92.0</ele><time>2026-04-30T05:51:06.999Z</time></trkpt><trkpt lat="45.355464118092264" lon="9.302521589048512"><ele>92.0</ele><time>2026-04-30T05:51:07.999Z</time></trkpt><trkpt lat="45.35529137041777" lon="9.302692123851147"><ele>92.0</ele><time>2026-04-30T05:51:08.999Z</time></trkpt><trkpt lat="45.35512310358144" lon="9.302889601114892"><ele>92.0</ele><time>2026-04-30T05:51:09.999Z</time></trkpt><trkpt lat="45.354973333495984" lon="9.303107407371229"><ele>91.66666666666667</ele><time>2026-04-30T05:51:10.999Z</time></trkpt><trkpt lat="45.354815793212694" lon="9.303297984112573"><ele>91.33333333333333</ele><time>2026-04-30T05:51:11.999Z</time></trkpt><trkpt lat="45.35465657116345" lon="9.303477840313157"><ele>91.0</ele><time>2026-04-30T05:51:12.999Z</time></trkpt><trkpt lat="45.354476098435285" lon="9.303614350973696"><ele>90.0</ele><time>2026-04-30T05:51:13.999Z</time></trkpt><trkpt lat="45.35429135418706" lon="9.303835544958075"><ele>89.0</ele><time>2026-04-30T05:51:14.999Z</time></trkpt><trkpt lat="45.35411143262082" lon="9.304059116953747"><ele>88.66666666666667</ele><time>2026-04-30T05:51:15.999Z</time></trkpt><trkpt lat="45.353963817191364" lon="9.304280612889865"><ele>88.33333333333333</ele><time>2026-04-30T05:51:16.999Z</time></trkpt><trkpt lat="45.35379829071495" lon="9.304476340146795"><ele>88.0</ele><time>2026-04-30T05:51:17.999Z</time></trkpt><trkpt lat="45.35363001310519" lon="9.304659048721545"><ele>89.0</ele><time>2026-04-30T05:51:18.999Z</time></trkpt><trkpt lat="45.353462456474425" lon="9.304841082097942"><ele>90.0</ele><time>2026-04-30T05:51:19.999Z</time></trkpt><trkpt lat="45.353302192002545" lon="9.305011998640971"><ele>91.0</ele><time>2026-04-30T05:51:20.999Z</time></trkpt><trkpt lat="45.353135787414715" lon="9.3051890729847"><ele>91.0</ele><time>2026-04-30T05:51:21.999Z</time></trkpt><trkpt lat="45.35298008695644" lon="9.305425090361913"><ele>91.0</ele><time>2026-04-30T05:51:22.999Z</time></trkpt><trkpt lat="45.35277581203407" lon="9.30557688910283"><ele>91.0</ele><time>2026-04-30T05:51:23.999Z</time></trkpt><trkpt lat="45.35262131217835" lon="9.305784813375997"><ele>91.0</ele><time>2026-04-30T05:51:24.999Z</time></trkpt><trkpt lat="45.3524844229152" lon="9.306019926622254"><ele>91.0</ele><time>2026-04-30T05:51:25.999Z</time></trkpt><trkpt lat="45.35233088307218" lon="9.306229296922412"><ele>90.66666666666666</ele><time>2026-04-30T05:51:26.999Z</time></trkpt><trkpt lat="45.35218002013106" lon="9.306404241471661"><ele>90.33333333333333</ele><time>2026-04-30T05:51:27.999Z</time></trkpt><trkpt lat="45.35202875459348" lon="9.306585666727457"><ele>90.0</ele><time>2026-04-30T05:51:28.999Z</time></trkpt><trkpt lat="45.35187358422433" lon="9.30678514355803"><ele>90.0</ele><time>2026-04-30T05:51:29.999Z</time></trkpt><trkpt lat="45.351696433978624" lon="9.306926116514546"><ele>90.0</ele><time>2026-04-30T05:51:30.999Z</time></trkpt><trkpt lat="45.35154369771253" lon="9.307122150236255"><ele>90.0</ele><time>2026-04-30T05:51:31.999Z</time></trkpt><trkpt lat="45.35140383087313" lon="9.307288517418328"><ele>90.0</ele><time>2026-04-30T05:51:32.999Z</time></trkpt><trkpt lat="45.351253237366095" lon="9.307469557449952"><ele>90.0</ele><time>2026-04-30T05:51:33.999Z</time></trkpt><trkpt lat="45.35109702868947" lon="9.307656543491415"><ele>90.0</ele><time>2026-04-30T05:51:34.999Z</time></trkpt><trkpt lat="45.350913770362" lon="9.307851233630348"><ele>90.0</ele><time>2026-04-30T05:51:35.999Z</time></trkpt><trkpt lat="45.35076353163898" lon="9.30800449542251"><ele>90.0</ele><time>2026-04-30T05:51:36.999Z</time></trkpt><trkpt lat="45.350604799839786" lon="9.30817743964336"><ele>90.0</ele><time>2026-04-30T05:51:37.999Z</time></trkpt><trkpt lat="45.350428892766715" lon="9.308281390086792"><ele>89.66666666666667</ele><time>2026-04-30T05:51:38.999Z</time></trkpt><trkpt lat="45.350269021957686" lon="9.308371969251628"><ele>89.33333333333334</ele><time>2026-04-30T05:51:39.999Z</time></trkpt><trkpt lat="45.35011493538832" lon="9.308442523285272"><ele>89.0</ele><time>2026-04-30T05:51:40.999Z</time></trkpt><trkpt lat="45.34996390775774" lon="9.308525620380705"><ele>89.0</ele><time>2026-04-30T05:51:41.999Z</time></trkpt><trkpt lat="45.349818563597616" lon="9.30861446753276"><ele>89.0</ele><time>2026-04-30T05:51:42.999Z</time></trkpt><trkpt lat="45.349687567168914" lon="9.308706027724796"><ele>89.0</ele><time>2026-04-30T05:51:43.999Z</time></trkpt><trkpt lat="45.34957541845194" lon="9.308795234419316"><ele>89.0</ele><time>2026-04-30T05:51:44.999Z</time></trkpt><trkpt lat="45.349451121600225" lon="9.308824450876443"><ele>89.2</ele><time>2026-04-30T05:51:45.999Z</time></trkpt><trkpt lat="45.349365516452146" lon="9.30889430060905"><ele>89.4</ele><time>2026-04-30T05:51:46.999Z</time></trkpt><trkpt lat="45.349292565827874" lon="9.308988970354081"><ele>89.6</ele><time>2026-04-30T05:51:47.999Z</time></trkpt><trkpt lat="45.34919943088369" lon="9.309059878300365"><ele>89.8</ele><time>2026-04-30T05:51:48.999Z</time></trkpt><trkpt lat="45.349139215026284" lon="9.309150390913619"><ele>90.0</ele><time>2026-04-30T05:51:49.999Z</time></trkpt><trkpt lat="45.34908085649234" lon="9.309199994607644"><ele>90.0</ele><time>2026-04-30T05:51:50.999Z</time></trkpt><trkpt lat="45.34902014080419" lon="9.30927359202584"><ele>90.0</ele><time>2026-04-30T05:51:53.999Z</time></trkpt><trkpt lat="45.348975509470016" lon="9.309343100542339"><ele>90.0</ele><time>2026-04-30T05:51:56.999Z</time></trkpt><trkpt lat="45.34887812470506" lon="9.3094321551589"><ele>90.0</ele><time>2026-04-30T05:52:13.999Z</time></trkpt><trkpt lat="45.34879506019004" lon="9.309550147082494"><ele>90.0</ele><time>2026-04-30T05:52:14.999Z</time></trkpt><trkpt lat="45.348695533744895" lon="9.309694820475277"><ele>90.25</ele><time>2026-04-30T05:52:15.999Z</time></trkpt><trkpt lat="45.34859101775898" lon="9.309825921884118"><ele>90.5</ele><time>2026-04-30T05:52:16.999Z</time></trkpt><trkpt lat="45.3484908459546" lon="9.309967293516491"><ele>90.75</ele><time>2026-04-30T05:52:17.999Z</time></trkpt><trkpt lat="45.348404643824445" lon="9.310153560364045"><ele>91.0</ele><time>2026-04-30T05:52:18.999Z</time></trkpt><trkpt lat="45.34830724075375" lon="9.310345482381125"><ele>91.0</ele><time>2026-04-30T05:52:19.999Z</time></trkpt><trkpt lat="45.348219767383966" lon="9.310547575659712"><ele>91.0</ele><time>2026-04-30T05:52:20.999Z</time></trkpt><trkpt lat="45.34813345774457" lon="9.310785247272223"><ele>91.0</ele><time>2026-04-30T05:52:21.999Z</time></trkpt><trkpt lat="45.34803045481988" lon="9.311017535741417"><ele>90.33333333333333</ele><time>2026-04-30T05:52:22.999Z</time></trkpt><trkpt lat="45.347928135051404" lon="9.311241913200654"><ele>89.66666666666667</ele><time>2026-04-30T05:52:23.999Z</time></trkpt><trkpt lat="45.34779982845495" lon="9.311464506226388"><ele>89.0</ele><time>2026-04-30T05:52:24.999Z</time></trkpt><trkpt lat="45.34765179375189" lon="9.311688890121733"><ele>89.0</ele><time>2026-04-30T05:52:25.999Z</time></trkpt><trkpt lat="45.347497978630855" lon="9.311924268309227"><ele>89.0</ele><time>2026-04-30T05:52:26.999Z</time></trkpt><trkpt lat="45.34736166123506" lon="9.312129705657076"><ele>89.0</ele><time>2026-04-30T05:52:27.999Z</time></trkpt><trkpt lat="45.34718049302581" lon="9.312345612911285"><ele>90.5</ele><time>2026-04-30T05:52:28.999Z</time></trkpt><trkpt lat="45.346999041187786" lon="9.312562675843727"><ele>92.0</ele><time>2026-04-30T05:52:29.999Z</time></trkpt><trkpt lat="45.346808707729714" lon="9.312782587654784"><ele>92.0</ele><time>2026-04-30T05:52:30.999Z</time></trkpt><trkpt lat="45.346618095765294" lon="9.313002952478751"><ele>92.0</ele><time>2026-04-30T05:52:31.999Z</time></trkpt><trkpt lat="45.346438668322435" lon="9.31321247764744"><ele>90.5</ele><time>2026-04-30T05:52:32.999Z</time></trkpt><trkpt lat="45.346262194945744" lon="9.313420195495112"><ele>89.0</ele><time>2026-04-30T05:52:33.999Z</time></trkpt><trkpt lat="45.346080227452624" lon="9.313634380080432"><ele>89.0</ele><time>2026-04-30T05:52:34.999Z</time></trkpt><trkpt lat="45.34591081137294" lon="9.313834323383427"><ele>89.0</ele><time>2026-04-30T05:52:35.999Z</time></trkpt><trkpt lat="45.345712398798135" lon="9.31406968936089"><ele>89.0</ele><time>2026-04-30T05:52:36.999Z</time></trkpt><trkpt lat="45.34552259801734" lon="9.314292873246435"><ele>89.0</ele><time>2026-04-30T05:52:37.999Z</time></trkpt><trkpt lat="45.345328740071444" lon="9.314521017839601"><ele>89.5</ele><time>2026-04-30T05:52:38.999Z</time></trkpt><trkpt lat="45.34513577666649" lon="9.314768008863478"><ele>90.0</ele><time>2026-04-30T05:52:39.999Z</time></trkpt><trkpt lat="45.34493567436341" lon="9.315010355290434"><ele>90.0</ele><time>2026-04-30T05:52:40.999Z</time></trkpt><trkpt lat="45.34474928930486" lon="9.315230662442831"><ele>90.0</ele><time>2026-04-30T05:52:41.999Z</time></trkpt><trkpt lat="45.344570888400774" lon="9.315461017730133"><ele>89.5</ele><time>2026-04-30T05:52:42.999Z</time></trkpt><trkpt lat="45.34439471749048" lon="9.31569425315196"><ele>89.0</ele><time>2026-04-30T05:52:43.999Z</time></trkpt><trkpt lat="45.34421478261751" lon="9.31594025047206"><ele>89.0</ele><time>2026-04-30T05:52:44.999Z</time></trkpt><trkpt lat="45.34402429338538" lon="9.316206500563958"><ele>89.0</ele><time>2026-04-30T05:52:45.999Z</time></trkpt><trkpt lat="45.3438516965904" lon="9.316470518492148"><ele>89.0</ele><time>2026-04-30T05:52:46.999Z</time></trkpt><trkpt lat="45.343665331758736" lon="9.316727630159807"><ele>89.0</ele><time>2026-04-30T05:52:47.999Z</time></trkpt><trkpt lat="45.34349483055753" lon="9.316979489702893"><ele>89.0</ele><time>2026-04-30T05:52:48.999Z</time></trkpt><trkpt lat="45.34333370487195" lon="9.317225729502038"><ele>89.0</ele><time>2026-04-30T05:52:49.999Z</time></trkpt><trkpt lat="45.343166010942504" lon="9.31748969948772"><ele>91.0</ele><time>2026-04-30T05:52:50.999Z</time></trkpt><trkpt lat="45.34299823825765" lon="9.317759603601191"><ele>93.0</ele><time>2026-04-30T05:52:51.999Z</time></trkpt><trkpt lat="45.34283405966089" lon="9.318029231907618"><ele>92.0</ele><time>2026-04-30T05:52:52.999Z</time></trkpt><trkpt lat="45.34267192978476" lon="9.31829901208327"><ele>91.0</ele><time>2026-04-30T05:52:53.999Z</time></trkpt><trkpt lat="45.342511198840945" lon="9.318569726538344"><ele>91.0</ele><time>2026-04-30T05:52:54.999Z</time></trkpt><trkpt lat="45.342354939241105" lon="9.318839640030568"><ele>91.0</ele><time>2026-04-30T05:52:55.999Z</time></trkpt><trkpt lat="45.34220078488843" lon="9.319121989089343"><ele>90.0</ele><time>2026-04-30T05:52:56.999Z</time></trkpt><trkpt lat="45.34205173325514" lon="9.319398984403799"><ele>89.0</ele><time>2026-04-30T05:52:57.999Z</time></trkpt><trkpt lat="45.34190783916447" lon="9.319694804465431"><ele>89.0</ele><time>2026-04-30T05:52:58.999Z</time></trkpt><trkpt lat="45.341743911585915" lon="9.319960777205095"><ele>89.0</ele><time>2026-04-30T05:52:59.999Z</time></trkpt><trkpt lat="45.341590055291945" lon="9.320239681942871"><ele>89.0</ele><time>2026-04-30T05:53:00.999Z</time></trkpt><trkpt lat="45.34146889071144" lon="9.320523218397508"><ele>89.0</ele><time>2026-04-30T05:53:01.999Z</time></trkpt><trkpt lat="45.34132582434403" lon="9.320783460439648"><ele>90.0</ele><time>2026-04-30T05:53:02.999Z</time></trkpt><trkpt lat="45.34119689032697" lon="9.321053483631985"><ele>91.0</ele><time>2026-04-30T05:53:03.999Z</time></trkpt><trkpt lat="45.341081491300116" lon="9.321336743338842"><ele>90.5</ele><time>2026-04-30T05:53:04.999Z</time></trkpt><trkpt lat="45.34090405804476" lon="9.321593572189487"><ele>90.0</ele><time>2026-04-30T05:53:05.999Z</time></trkpt><trkpt lat="45.34078791681772" lon="9.32189855380546"><ele>90.0</ele><time>2026-04-30T05:53:06.999Z</time></trkpt><trkpt lat="45.34067155687232" lon="9.322196056681014"><ele>90.0</ele><time>2026-04-30T05:53:07.999Z</time></trkpt><trkpt lat="45.34055313719212" lon="9.322508127603673"><ele>89.0</ele><time>2026-04-30T05:53:08.998Z</time></trkpt><trkpt lat="45.340440498341124" lon="9.322793936745002"><ele>88.0</ele><time>2026-04-30T05:53:09.998Z</time></trkpt><trkpt lat="45.34033363582642" lon="9.323074555989194"><ele>88.0</ele><time>2026-04-30T05:53:10.998Z</time></trkpt><trkpt lat="45.34023491044843" lon="9.323374686821863"><ele>88.0</ele><time>2026-04-30T05:53:11.998Z</time></trkpt><trkpt lat="45.340119403705444" lon="9.323650028826131"><ele>88.5</ele><time>2026-04-30T05:53:12.998Z</time></trkpt><trkpt lat="45.34001697026147" lon="9.323931149344293"><ele>89.0</ele><time>2026-04-30T05:53:13.998Z</time></trkpt><trkpt lat="45.33992385551546" lon="9.324225896591908"><ele>89.0</ele><time>2026-04-30T05:53:14.998Z</time></trkpt><trkpt lat="45.33982941640257" lon="9.324508919857776"><ele>89.0</ele><time>2026-04-30T05:53:15.998Z</time></trkpt><trkpt lat="45.33973371561579" lon="9.324786067100336"><ele>89.0</ele><time>2026-04-30T05:53:16.998Z</time></trkpt><trkpt lat="45.33963427437269" lon="9.325085842688962"><ele>88.5</ele><time>2026-04-30T05:53:17.998Z</time></trkpt><trkpt lat="45.33953358604542" lon="9.3253967527974"><ele>88.0</ele><time>2026-04-30T05:53:18.998Z</time></trkpt><trkpt lat="45.339431883031764" lon="9.325697540145171"><ele>88.0</ele><time>2026-04-30T05:53:19.998Z</time></trkpt><trkpt lat="45.33936271430322" lon="9.326012195315684"><ele>88.0</ele><time>2026-04-30T05:53:20.998Z</time></trkpt><trkpt lat="45.339304823133425" lon="9.32634758619218"><ele>87.0</ele><time>2026-04-30T05:53:21.998Z</time></trkpt><trkpt lat="45.33919798582478" lon="9.32662912260145"><ele>86.0</ele><time>2026-04-30T05:53:22.998Z</time></trkpt><trkpt lat="45.3391087922363" lon="9.326932729787163"><ele>86.0</ele><time>2026-04-30T05:53:23.998Z</time></trkpt><trkpt lat="45.33902088638735" lon="9.327258178883486"><ele>86.0</ele><time>2026-04-30T05:53:24.998Z</time></trkpt><trkpt lat="45.338923773730635" lon="9.327521440561108"><ele>86.0</ele><time>2026-04-30T05:53:25.998Z</time></trkpt><trkpt lat="45.338841657270805" lon="9.32781587494596"><ele>86.0</ele><time>2026-04-30T05:53:26.998Z</time></trkpt><trkpt lat="45.338821397218766" lon="9.328138962166479"><ele>86.0</ele><time>2026-04-30T05:53:27.998Z</time></trkpt><trkpt lat="45.33869791011167" lon="9.328402090315707"><ele>86.0</ele><time>2026-04-30T05:53:28.998Z</time></trkpt><trkpt lat="45.33863269393196" lon="9.328684473157148"><ele>86.0</ele><time>2026-04-30T05:53:29.998Z</time></trkpt><trkpt lat="45.33856725783346" lon="9.328982030848131"><ele>86.33333333333334</ele><time>2026-04-30T05:53:30.998Z</time></trkpt><trkpt lat="45.33850437510824" lon="9.329279879283467"><ele>86.66666666666667</ele><time>2026-04-30T05:53:31.998Z</time></trkpt><trkpt lat="45.33844136009135" lon="9.329590818980117"><ele>87.0</ele><time>2026-04-30T05:53:32.998Z</time></trkpt><trkpt lat="45.338376273159135" lon="9.329916490593721"><ele>87.0</ele><time>2026-04-30T05:53:33.998Z</time></trkpt><trkpt lat="45.33830635456869" lon="9.330293186643082"><ele>87.0</ele><time>2026-04-30T05:53:34.998Z</time></trkpt><trkpt lat="45.33824997426011" lon="9.330617435228932"><ele>87.0</ele><time>2026-04-30T05:53:35.998Z</time></trkpt><trkpt lat="45.338192062371576" lon="9.330951081719592"><ele>87.0</ele><time>2026-04-30T05:53:36.998Z</time></trkpt><trkpt lat="45.338138887709526" lon="9.33129939240497"><ele>86.5</ele><time>2026-04-30T05:53:37.998Z</time></trkpt><trkpt lat="45.33807736263351" lon="9.33162127125131"><ele>86.0</ele><time>2026-04-30T05:53:38.998Z</time></trkpt><trkpt lat="45.33804427032641" lon="9.33198275568688"><ele>84.5</ele><time>2026-04-30T05:53:39.998Z</time></trkpt><trkpt lat="45.337975215184954" lon="9.332346656224331"><ele>83.0</ele><time>2026-04-30T05:53:40.998Z</time></trkpt><trkpt lat="45.33792067496302" lon="9.332707912294776"><ele>83.0</ele><time>2026-04-30T05:53:41.998Z</time></trkpt><trkpt lat="45.33786745517818" lon="9.33304833952388"><ele>83.0</ele><time>2026-04-30T05:53:42.998Z</time></trkpt><trkpt lat="45.33782148227782" lon="9.333342411113232"><ele>83.33333333333334</ele><time>2026-04-30T05:53:43.998Z</time></trkpt><trkpt lat="45.337771964258756" lon="9.333664446839085"><ele>83.66666666666667</ele><time>2026-04-30T05:53:44.998Z</time></trkpt><trkpt lat="45.337727753583934" lon="9.333956763618525"><ele>84.0</ele><time>2026-04-30T05:53:45.998Z</time></trkpt><trkpt lat="45.337678186816056" lon="9.334284494110673"><ele>84.0</ele><time>2026-04-30T05:53:46.998Z</time></trkpt><trkpt lat="45.33762707866907" lon="9.334586737202685"><ele>84.0</ele><time>2026-04-30T05:53:47.998Z</time></trkpt><trkpt lat="45.337574619982604" lon="9.334914576698619"><ele>84.0</ele><time>2026-04-30T05:53:48.998Z</time></trkpt><trkpt lat="45.33751591949025" lon="9.335233140924563"><ele>84.0</ele><time>2026-04-30T05:53:49.998Z</time></trkpt><trkpt lat="45.33745853001739" lon="9.335584316436446"><ele>84.0</ele><time>2026-04-30T05:53:50.998Z</time></trkpt><trkpt lat="45.33743271586966" lon="9.335910604615796"><ele>84.0</ele><time>2026-04-30T05:53:51.998Z</time></trkpt><trkpt lat="45.3373944883471" lon="9.336236916442905"><ele>84.0</ele><time>2026-04-30T05:53:52.998Z</time></trkpt><trkpt lat="45.33734542898941" lon="9.336579079719975"><ele>84.0</ele><time>2026-04-30T05:53:53.998Z</time></trkpt><trkpt lat="45.33727456855693" lon="9.3369270978355"><ele>84.0</ele><time>2026-04-30T05:53:54.998Z</time></trkpt><trkpt lat="45.337215033894985" lon="9.337275792741783"><ele>84.0</ele><time>2026-04-30T05:53:55.998Z</time></trkpt><trkpt lat="45.3371607670139" lon="9.337616093258026"><ele>84.0</ele><time>2026-04-30T05:53:56.998Z</time></trkpt><trkpt lat="45.337122291542336" lon="9.337943222542522"><ele>84.0</ele><time>2026-04-30T05:53:57.998Z</time></trkpt><trkpt lat="45.33707042185872" lon="9.338262689236478"><ele>83.0</ele><time>2026-04-30T05:53:58.998Z</time></trkpt><trkpt lat="45.33702030383065" lon="9.338596129073188"><ele>82.0</ele><time>2026-04-30T05:53:59.998Z</time></trkpt><trkpt lat="45.3369706219547" lon="9.338927977797056"><ele>80.5</ele><time>2026-04-30T05:54:00.998Z</time></trkpt><trkpt lat="45.33691002923133" lon="9.33929239296808"><ele>79.0</ele><time>2026-04-30T05:54:01.998Z</time></trkpt><trkpt lat="45.33687469975074" lon="9.339643330755685"><ele>77.0</ele><time>2026-04-30T05:54:02.998Z</time></trkpt><trkpt lat="45.336820644634756" lon="9.339968245780831"><ele>75.0</ele><time>2026-04-30T05:54:03.998Z</time></trkpt><trkpt lat="45.33675874009512" lon="9.340332918876822"><ele>74.0</ele><time>2026-04-30T05:54:04.998Z</time></trkpt><trkpt lat="45.336677166926215" lon="9.340708051926118"><ele>73.0</ele><time>2026-04-30T05:54:05.998Z</time></trkpt><trkpt lat="45.336597663377034" lon="9.341075854014537"><ele>74.5</ele><time>2026-04-30T05:54:06.998Z</time></trkpt><trkpt lat="45.33653795230621" lon="9.341408493624918"><ele>76.0</ele><time>2026-04-30T05:54:07.998Z</time></trkpt><trkpt lat="45.336487753523315" lon="9.341745255702401"><ele>76.0</ele><time>2026-04-30T05:54:08.998Z</time></trkpt><trkpt lat="45.33644526137224" lon="9.342093454863164"><ele>76.0</ele><time>2026-04-30T05:54:09.998Z</time></trkpt><trkpt lat="45.33640104583388" lon="9.342432118655065"><ele>75.5</ele><time>2026-04-30T05:54:10.998Z</time></trkpt><trkpt lat="45.33633511500881" lon="9.342747779876463"><ele>75.0</ele><time>2026-04-30T05:54:11.998Z</time></trkpt><trkpt lat="45.3363127605012" lon="9.343111135404728"><ele>75.0</ele><time>2026-04-30T05:54:12.998Z</time></trkpt><trkpt lat="45.33626266481693" lon="9.343445258893434"><ele>75.0</ele><time>2026-04-30T05:54:13.998Z</time></trkpt><trkpt lat="45.33623021582103" lon="9.343754732066738"><ele>76.0</ele><time>2026-04-30T05:54:14.998Z</time></trkpt><trkpt lat="45.33618012091921" lon="9.344051858309168"><ele>77.0</ele><time>2026-04-30T05:54:15.998Z</time></trkpt><trkpt lat="45.33613567817827" lon="9.34432452575726"><ele>78.0</ele><time>2026-04-30T05:54:16.998Z</time></trkpt><trkpt lat="45.336100849841436" lon="9.34465730788825"><ele>78.5</ele><time>2026-04-30T05:54:17.998Z</time></trkpt><trkpt lat="45.33601854136014" lon="9.344966267645965"><ele>79.0</ele><time>2026-04-30T05:54:18.998Z</time></trkpt><trkpt lat="45.33597034440343" lon="9.345278073751402"><ele>79.0</ele><time>2026-04-30T05:54:19.998Z</time></trkpt><trkpt lat="45.335927947684475" lon="9.345589078425624"><ele>79.0</ele><time>2026-04-30T05:54:20.998Z</time></trkpt><trkpt lat="45.33589551807058" lon="9.345892379792803"><ele>79.0</ele><time>2026-04-30T05:54:21.998Z</time></trkpt><trkpt lat="45.33585795490451" lon="9.346209426568162"><ele>79.0</ele><time>2026-04-30T05:54:22.998Z</time></trkpt><trkpt lat="45.33582432291129" lon="9.346534000675451"><ele>79.0</ele><time>2026-04-30T05:54:23.998Z</time></trkpt><trkpt lat="45.33576006688222" lon="9.346862993805928"><ele>79.0</ele><time>2026-04-30T05:54:24.998Z</time></trkpt><trkpt lat="45.335709582335156" lon="9.347203256754964"><ele>79.0</ele><time>2026-04-30T05:54:25.998Z</time></trkpt><trkpt lat="45.33566429473705" lon="9.347506967184971"><ele>79.5</ele><time>2026-04-30T05:54:26.998Z</time></trkpt><trkpt lat="45.335609761219956" lon="9.34784946546113"><ele>80.0</ele><time>2026-04-30T05:54:27.998Z</time></trkpt><trkpt lat="45.335558417964876" lon="9.348167438658415"><ele>80.0</ele><time>2026-04-30T05:54:28.998Z</time></trkpt><trkpt lat="45.33559781774328" lon="9.348462412773682"><ele>80.0</ele><time>2026-04-30T05:54:29.998Z</time></trkpt><trkpt lat="45.33554011168409" lon="9.348744803157155"><ele>80.0</ele><time>2026-04-30T05:54:30.998Z</time></trkpt><trkpt lat="45.335498265630825" lon="9.349046506459553"><ele>79.5</ele><time>2026-04-30T05:54:31.998Z</time></trkpt><trkpt lat="45.33546983921703" lon="9.349366262998519"><ele>79.0</ele><time>2026-04-30T05:54:32.998Z</time></trkpt><trkpt lat="45.33529674578559" lon="9.349632250328135"><ele>79.33333333333333</ele><time>2026-04-30T05:54:33.998Z</time></trkpt><trkpt lat="45.33523509827596" lon="9.349939086381744"><ele>79.66666666666667</ele><time>2026-04-30T05:54:34.998Z</time></trkpt><trkpt lat="45.33517358943184" lon="9.35023614465751"><ele>80.0</ele><time>2026-04-30T05:54:35.998Z</time></trkpt><trkpt lat="45.33511191981293" lon="9.350528807414669"><ele>80.33333333333334</ele><time>2026-04-30T05:54:36.998Z</time></trkpt><trkpt lat="45.33505152004996" lon="9.350799034889423"><ele>80.66666666666667</ele><time>2026-04-30T05:54:37.998Z</time></trkpt><trkpt lat="45.33498218049807" lon="9.35109377269936"><ele>81.0</ele><time>2026-04-30T05:54:38.998Z</time></trkpt><trkpt lat="45.334912461894056" lon="9.351382340505934"><ele>80.33333333333333</ele><time>2026-04-30T05:54:39.998Z</time></trkpt><trkpt lat="45.33484014645085" lon="9.351672320750586"><ele>79.66666666666666</ele><time>2026-04-30T05:54:40.998Z</time></trkpt><trkpt lat="45.334766205101964" lon="9.351968289100482"><ele>79.0</ele><time>2026-04-30T05:54:41.998Z</time></trkpt><trkpt lat="45.334689264231926" lon="9.352268721700103"><ele>79.0</ele><time>2026-04-30T05:54:42.998Z</time></trkpt><trkpt lat="45.33460974945666" lon="9.352560841397557"><ele>79.0</ele><time>2026-04-30T05:54:43.998Z</time></trkpt><trkpt lat="45.33452554227084" lon="9.352860424630212"><ele>79.0</ele><time>2026-04-30T05:54:44.998Z</time></trkpt><trkpt lat="45.33443902730661" lon="9.353158382016767"><ele>79.33333333333333</ele><time>2026-04-30T05:54:45.998Z</time></trkpt><trkpt lat="45.3343560942481" lon="9.35343998594228"><ele>79.66666666666667</ele><time>2026-04-30T05:54:46.998Z</time></trkpt><trkpt lat="45.33427120042682" lon="9.353726214574813"><ele>80.0</ele><time>2026-04-30T05:54:47.998Z</time></trkpt><trkpt lat="45.33417524629418" lon="9.354033666116921"><ele>80.5</ele><time>2026-04-30T05:54:48.998Z</time></trkpt><trkpt lat="45.33407466416381" lon="9.35434453428973"><ele>81.0</ele><time>2026-04-30T05:54:49.998Z</time></trkpt><trkpt lat="45.33397065567219" lon="9.354657436951031"><ele>80.5</ele><time>2026-04-30T05:54:50.998Z</time></trkpt><trkpt lat="45.333868831729156" lon="9.354959462791498"><ele>80.0</ele><time>2026-04-30T05:54:51.998Z</time></trkpt><trkpt lat="45.33375473635287" lon="9.35529014799317"><ele>79.66666666666667</ele><time>2026-04-30T05:54:52.998Z</time></trkpt><trkpt lat="45.33365970881781" lon="9.35555505245578"><ele>79.33333333333333</ele><time>2026-04-30T05:54:53.998Z</time></trkpt><trkpt lat="45.333552645463485" lon="9.355838097914072"><ele>79.0</ele><time>2026-04-30T05:54:54.998Z</time></trkpt><trkpt lat="45.33345177087191" lon="9.356100534829274"><ele>79.5</ele><time>2026-04-30T05:54:55.998Z</time></trkpt><trkpt lat="45.33334240979687" lon="9.356383790541358"><ele>80.0</ele><time>2026-04-30T05:54:56.998Z</time></trkpt><trkpt lat="45.33322404292037" lon="9.356682045396694"><ele>80.0</ele><time>2026-04-30T05:54:57.998Z</time></trkpt><trkpt lat="45.33310908259942" lon="9.356968723328112"><ele>80.0</ele><time>2026-04-30T05:54:58.998Z</time></trkpt><trkpt lat="45.33298759300498" lon="9.357267126302878"><ele>81.0</ele><time>2026-04-30T05:54:59.998Z</time></trkpt><trkpt lat="45.33286230546101" lon="9.35756309817808"><ele>82.0</ele><time>2026-04-30T05:55:00.998Z</time></trkpt><trkpt lat="45.332739845079274" lon="9.357845103394705"><ele>83.5</ele><time>2026-04-30T05:55:01.998Z</time></trkpt><trkpt lat="45.33261506347079" lon="9.358125625840094"><ele>85.0</ele><time>2026-04-30T05:55:02.998Z</time></trkpt><trkpt lat="45.332482235078515" lon="9.35841673598948"><ele>85.0</ele><time>2026-04-30T05:55:03.998Z</time></trkpt><trkpt lat="45.332341445253675" lon="9.35871884977453"><ele>85.0</ele><time>2026-04-30T05:55:04.998Z</time></trkpt><trkpt lat="45.33219992879673" lon="9.359014122865695"><ele>84.5</ele><time>2026-04-30T05:55:05.998Z</time></trkpt><trkpt lat="45.33205538310767" lon="9.359309773659184"><ele>84.0</ele><time>2026-04-30T05:55:06.998Z</time></trkpt><trkpt lat="45.33192245664818" lon="9.359577002205247"><ele>83.66666666666667</ele><time>2026-04-30T05:55:07.998Z</time></trkpt><trkpt lat="45.331797029735796" lon="9.359822690491178"><ele>83.33333333333334</ele><time>2026-04-30T05:55:08.998Z</time></trkpt><trkpt lat="45.33166006826446" lon="9.360085724539617"><ele>83.0</ele><time>2026-04-30T05:55:09.998Z</time></trkpt><trkpt lat="45.33151920623194" lon="9.360346191202877"><ele>84.0</ele><time>2026-04-30T05:55:10.998Z</time></trkpt><trkpt lat="45.331381466578186" lon="9.360596728529291"><ele>85.0</ele><time>2026-04-30T05:55:11.998Z</time></trkpt><trkpt lat="45.331248411683646" lon="9.360837910736667"><ele>86.0</ele><time>2026-04-30T05:55:12.999Z</time></trkpt><trkpt lat="45.33111653048232" lon="9.361072675647021"><ele>86.0</ele><time>2026-04-30T05:55:13.999Z</time></trkpt><trkpt lat="45.33099079671439" lon="9.361328795673124"><ele>86.0</ele><time>2026-04-30T05:55:14.999Z</time></trkpt><trkpt lat="45.3308352044644" lon="9.361565831904848"><ele>86.0</ele><time>2026-04-30T05:55:15.999Z</time></trkpt><trkpt lat="45.33067694104697" lon="9.361793186860073"><ele>86.0</ele><time>2026-04-30T05:55:16.999Z</time></trkpt><trkpt lat="45.33053252035863" lon="9.362032749674846"><ele>86.0</ele><time>2026-04-30T05:55:17.999Z</time></trkpt><trkpt lat="45.330381925300465" lon="9.362261389928134"><ele>86.0</ele><time>2026-04-30T05:55:18.999Z</time></trkpt><trkpt lat="45.33020130053492" lon="9.362509052304587"><ele>86.0</ele><time>2026-04-30T05:55:19.999Z</time></trkpt><trkpt lat="45.33002030526141" lon="9.36277061305814"><ele>86.0</ele><time>2026-04-30T05:55:20.999Z</time></trkpt><trkpt lat="45.329862950525616" lon="9.363027409458898"><ele>85.5</ele><time>2026-04-30T05:55:21.999Z</time></trkpt><trkpt lat="45.32968694075827" lon="9.363250759532916"><ele>85.0</ele><time>2026-04-30T05:55:22.999Z</time></trkpt><trkpt lat="45.329526896111105" lon="9.363508523788008"><ele>85.0</ele><time>2026-04-30T05:55:23.999Z</time></trkpt><trkpt lat="45.32936480439746" lon="9.363763096949258"><ele>85.0</ele><time>2026-04-30T05:55:24.999Z</time></trkpt><trkpt lat="45.32923562233638" lon="9.364002753414626"><ele>85.0</ele><time>2026-04-30T05:55:25.999Z</time></trkpt><trkpt lat="45.32906728085296" lon="9.364246881161833"><ele>85.0</ele><time>2026-04-30T05:55:26.999Z</time></trkpt><trkpt lat="45.328899997030724" lon="9.364506377140156"><ele>84.0</ele><time>2026-04-30T05:55:27.999Z</time></trkpt><trkpt lat="45.328739650383014" lon="9.364768006114115"><ele>83.0</ele><time>2026-04-30T05:55:28.999Z</time></trkpt><trkpt lat="45.328596929931656" lon="9.365027260774088"><ele>83.0</ele><time>2026-04-30T05:55:29.999Z</time></trkpt><trkpt lat="45.32845179098056" lon="9.365259826189716"><ele>83.0</ele><time>2026-04-30T05:55:30.999Z</time></trkpt><trkpt lat="45.32828289007886" lon="9.36548368180238"><ele>83.0</ele><time>2026-04-30T05:55:31.999Z</time></trkpt><trkpt lat="45.328119554719805" lon="9.365691508114184"><ele>83.0</ele><time>2026-04-30T05:55:32.999Z</time></trkpt><trkpt lat="45.32795349354939" lon="9.36591951943213"><ele>83.0</ele><time>2026-04-30T05:55:33.999Z</time></trkpt><trkpt lat="45.32777207252599" lon="9.366160846433825"><ele>83.0</ele><time>2026-04-30T05:55:34.999Z</time></trkpt><trkpt lat="45.32758460305864" lon="9.366396709629365"><ele>83.0</ele><time>2026-04-30T05:55:35.999Z</time></trkpt><trkpt lat="45.32741346104242" lon="9.36664949347744"><ele>83.0</ele><time>2026-04-30T05:55:36.999Z</time></trkpt><trkpt lat="45.32725526728275" lon="9.366916296454942"><ele>83.0</ele><time>2026-04-30T05:55:37.999Z</time></trkpt><trkpt lat="45.327089570322535" lon="9.367136170045617"><ele>83.0</ele><time>2026-04-30T05:55:38.999Z</time></trkpt><trkpt lat="45.32692313501921" lon="9.367377446908076"><ele>83.0</ele><time>2026-04-30T05:55:39.999Z</time></trkpt><trkpt lat="45.32674185389334" lon="9.3676342203715"><ele>83.0</ele><time>2026-04-30T05:55:40.999Z</time></trkpt><trkpt lat="45.32659203160612" lon="9.367873603864375"><ele>83.0</ele><time>2026-04-30T05:55:41.999Z</time></trkpt><trkpt lat="45.32646003053678" lon="9.368150583097318"><ele>83.0</ele><time>2026-04-30T05:55:43Z</time></trkpt><trkpt lat="45.32630135873399" lon="9.368394492279743"><ele>83.0</ele><time>2026-04-30T05:55:44Z</time></trkpt><trkpt lat="45.32613898997573" lon="9.368633181268585"><ele>83.0</ele><time>2026-04-30T05:55:45Z</time></trkpt><trkpt lat="45.32598307423528" lon="9.368869831418738"><ele>83.0</ele><time>2026-04-30T05:55:46Z</time></trkpt><trkpt lat="45.325820262202754" lon="9.369124712642618"><ele>83.0</ele><time>2026-04-30T05:55:47Z</time></trkpt><trkpt lat="45.32565948384344" lon="9.369375245074941"><ele>83.0</ele><time>2026-04-30T05:55:48Z</time></trkpt><trkpt lat="45.3255034693737" lon="9.369620341596088"><ele>82.5</ele><time>2026-04-30T05:55:49Z</time></trkpt><trkpt lat="45.32534892768321" lon="9.369835479108936"><ele>82.0</ele><time>2026-04-30T05:55:50Z</time></trkpt><trkpt lat="45.32517462104742" lon="9.37008112008607"><ele>82.0</ele><time>2026-04-30T05:55:51Z</time></trkpt><trkpt lat="45.32500346702477" lon="9.370313642302236"><ele>82.0</ele><time>2026-04-30T05:55:52Z</time></trkpt><trkpt lat="45.32484285975854" lon="9.370534845827986"><ele>83.0</ele><time>2026-04-30T05:55:53Z</time></trkpt><trkpt lat="45.32469782063567" lon="9.37080884144943"><ele>84.0</ele><time>2026-04-30T05:55:54Z</time></trkpt><trkpt lat="45.32453907643866" lon="9.371056546190042"><ele>84.0</ele><time>2026-04-30T05:55:55Z</time></trkpt><trkpt lat="45.324378413405704" lon="9.371312051897606"><ele>84.0</ele><time>2026-04-30T05:55:56Z</time></trkpt><trkpt lat="45.324201426537506" lon="9.371551630765566"><ele>84.5</ele><time>2026-04-30T05:55:57Z</time></trkpt><trkpt lat="45.32405480738738" lon="9.371796568091213"><ele>85.0</ele><time>2026-04-30T05:55:58Z</time></trkpt><trkpt lat="45.32388373080676" lon="9.372049518517958"><ele>83.5</ele><time>2026-04-30T05:55:59Z</time></trkpt><trkpt lat="45.323710258976234" lon="9.372286753041237"><ele>82.0</ele><time>2026-04-30T05:56:00Z</time></trkpt><trkpt lat="45.32356005141291" lon="9.37252855336629"><ele>82.0</ele><time>2026-04-30T05:56:01Z</time></trkpt><trkpt lat="45.32340870593431" lon="9.372776181716112"><ele>82.0</ele><time>2026-04-30T05:56:02Z</time></trkpt><trkpt lat="45.32326847111785" lon="9.373031808071481"><ele>82.0</ele><time>2026-04-30T05:56:03Z</time></trkpt><trkpt lat="45.323112484889236" lon="9.373254993430864"><ele>82.0</ele><time>2026-04-30T05:56:04Z</time></trkpt><trkpt lat="45.32296110376703" lon="9.373487586118136"><ele>82.0</ele><time>2026-04-30T05:56:05Z</time></trkpt><trkpt lat="45.322793228661105" lon="9.373714097519084"><ele>83.0</ele><time>2026-04-30T05:56:06Z</time></trkpt><trkpt lat="45.322626446124204" lon="9.373957372945998"><ele>84.0</ele><time>2026-04-30T05:56:07Z</time></trkpt><trkpt lat="45.32245018808318" lon="9.374184947323776"><ele>84.0</ele><time>2026-04-30T05:56:08Z</time></trkpt><trkpt lat="45.322280368643725" lon="9.374433128302718"><ele>84.0</ele><time>2026-04-30T05:56:09Z</time></trkpt><trkpt lat="45.32212168413682" lon="9.374672938399192"><ele>84.0</ele><time>2026-04-30T05:56:10Z</time></trkpt><trkpt lat="45.3219778491332" lon="9.374910949422734"><ele>84.0</ele><time>2026-04-30T05:56:11Z</time></trkpt><trkpt lat="45.32185950706845" lon="9.37514033444831"><ele>84.0</ele><time>2026-04-30T05:56:12Z</time></trkpt><trkpt lat="45.321727432736225" lon="9.375386168964525"><ele>84.0</ele><time>2026-04-30T05:56:13Z</time></trkpt><trkpt lat="45.32157224935789" lon="9.375596577612667"><ele>84.0</ele><time>2026-04-30T05:56:14Z</time></trkpt><trkpt lat="45.32142800764454" lon="9.375794872374788"><ele>84.0</ele><time>2026-04-30T05:56:15Z</time></trkpt><trkpt lat="45.321294389442876" lon="9.376031111258886"><ele>84.33333333333333</ele><time>2026-04-30T05:56:16Z</time></trkpt><trkpt lat="45.3211515225874" lon="9.376249517467011"><ele>84.66666666666666</ele><time>2026-04-30T05:56:17Z</time></trkpt><trkpt lat="45.32100270615069" lon="9.376474973831185"><ele>85.0</ele><time>2026-04-30T05:56:18Z</time></trkpt><trkpt lat="45.320856269161645" lon="9.376714296204607"><ele>85.0</ele><time>2026-04-30T05:56:19Z</time></trkpt><trkpt lat="45.320709639356" lon="9.376937959251135"><ele>85.0</ele><time>2026-04-30T05:56:20Z</time></trkpt><trkpt lat="45.320549578628984" lon="9.377177418253064"><ele>85.0</ele><time>2026-04-30T05:56:21Z</time></trkpt><trkpt lat="45.320439962979805" lon="9.377412183038475"><ele>85.33333333333333</ele><time>2026-04-30T05:56:22Z</time></trkpt><trkpt lat="45.320282351304606" lon="9.377625301544388"><ele>85.66666666666667</ele><time>2026-04-30T05:56:23Z</time></trkpt><trkpt lat="45.32017931541481" lon="9.37782999258671"><ele>86.0</ele><time>2026-04-30T05:56:24Z</time></trkpt><trkpt lat="45.320062801977656" lon="9.378045647709811"><ele>85.66666666666667</ele><time>2026-04-30T05:56:25Z</time></trkpt><trkpt lat="45.31991653869847" lon="9.378276053953755"><ele>85.33333333333333</ele><time>2026-04-30T05:56:26Z</time></trkpt><trkpt lat="45.31978471085011" lon="9.378522261082642"><ele>85.0</ele><time>2026-04-30T05:56:27Z</time></trkpt><trkpt lat="45.31964256848094" lon="9.378761787829873"><ele>84.66666666666666</ele><time>2026-04-30T05:56:28Z</time></trkpt><trkpt lat="45.319503484373456" lon="9.378959170273093"><ele>84.33333333333333</ele><time>2026-04-30T05:56:29Z</time></trkpt><trkpt lat="45.31934358506655" lon="9.379192461291264"><ele>84.0</ele><time>2026-04-30T05:56:30Z</time></trkpt><trkpt lat="45.3192052344107" lon="9.379405011951611"><ele>84.0</ele><time>2026-04-30T05:56:31Z</time></trkpt><trkpt lat="45.31905163474977" lon="9.379647821115874"><ele>84.0</ele><time>2026-04-30T05:56:32Z</time></trkpt><trkpt lat="45.31888053694592" lon="9.379910076288256"><ele>83.0</ele><time>2026-04-30T05:56:33Z</time></trkpt><trkpt lat="45.318710062211" lon="9.38016215725503"><ele>82.0</ele><time>2026-04-30T05:56:34Z</time></trkpt><trkpt lat="45.31854586226936" lon="9.380401655267553"><ele>82.5</ele><time>2026-04-30T05:56:35Z</time></trkpt><trkpt lat="45.31838775122042" lon="9.380633279037458"><ele>83.0</ele><time>2026-04-30T05:56:36Z</time></trkpt><trkpt lat="45.318222794586795" lon="9.380865051311401"><ele>82.5</ele><time>2026-04-30T05:56:37Z</time></trkpt><trkpt lat="45.318061699334216" lon="9.381107215692408"><ele>82.0</ele><time>2026-04-30T05:56:38Z</time></trkpt><trkpt lat="45.31787039036362" lon="9.381342776379567"><ele>82.0</ele><time>2026-04-30T05:56:38.999Z</time></trkpt><trkpt lat="45.317690403202896" lon="9.381596236746912"><ele>82.0</ele><time>2026-04-30T05:56:39.999Z</time></trkpt><trkpt lat="45.317547145798045" lon="9.381849851568205"><ele>82.0</ele><time>2026-04-30T05:56:40.999Z</time></trkpt><trkpt lat="45.31741959759136" lon="9.382114158633176"><ele>82.0</ele><time>2026-04-30T05:56:41.999Z</time></trkpt><trkpt lat="45.317282976826384" lon="9.382356171344579"><ele>82.0</ele><time>2026-04-30T05:56:42.999Z</time></trkpt><trkpt lat="45.317127201675596" lon="9.382595691746168"><ele>82.0</ele><time>2026-04-30T05:56:43.999Z</time></trkpt><trkpt lat="45.31698097697564" lon="9.382850327940877"><ele>82.0</ele><time>2026-04-30T05:56:44.999Z</time></trkpt><trkpt lat="45.316824293653546" lon="9.383065026441631"><ele>82.0</ele><time>2026-04-30T05:56:45.999Z</time></trkpt><trkpt lat="45.316665067075355" lon="9.38327896780836"><ele>82.0</ele><time>2026-04-30T05:56:46.999Z</time></trkpt><trkpt lat="45.316492182704266" lon="9.383499579403"><ele>82.0</ele><time>2026-04-30T05:56:47.999Z</time></trkpt><trkpt lat="45.31633388006635" lon="9.383722100768399"><ele>81.5</ele><time>2026-04-30T05:56:48.999Z</time></trkpt><trkpt lat="45.31615582897211" lon="9.383933858497835"><ele>81.0</ele><time>2026-04-30T05:56:49.999Z</time></trkpt><trkpt lat="45.31598446493121" lon="9.384147666667774"><ele>81.0</ele><time>2026-04-30T05:56:50.999Z</time></trkpt><trkpt lat="45.315865159204414" lon="9.384375684543885"><ele>81.0</ele><time>2026-04-30T05:56:51.999Z</time></trkpt><trkpt lat="45.31570387701042" lon="9.384586494587134"><ele>81.0</ele><time>2026-04-30T05:56:52.999Z</time></trkpt><trkpt lat="45.315568891825095" lon="9.384819955887902"><ele>81.33333333333333</ele><time>2026-04-30T05:56:53.999Z</time></trkpt><trkpt lat="45.315432661403825" lon="9.385040404829772"><ele>81.66666666666666</ele><time>2026-04-30T05:56:54.999Z</time></trkpt><trkpt lat="45.315317303558885" lon="9.385288214189245"><ele>82.0</ele><time>2026-04-30T05:56:55.999Z</time></trkpt><trkpt lat="45.315218431954456" lon="9.385495538587122"><ele>81.33333333333333</ele><time>2026-04-30T05:56:56.999Z</time></trkpt><trkpt lat="45.31510621895326" lon="9.38574076317918"><ele>80.66666666666667</ele><time>2026-04-30T05:56:57.999Z</time></trkpt><trkpt lat="45.314952063704744" lon="9.385965392937875"><ele>80.0</ele><time>2026-04-30T05:56:58.999Z</time></trkpt><trkpt lat="45.31480618276446" lon="9.386164422980226"><ele>81.0</ele><time>2026-04-30T05:56:59.999Z</time></trkpt><trkpt lat="45.31464787933393" lon="9.386400972126108"><ele>82.0</ele><time>2026-04-30T05:57:00.999Z</time></trkpt><trkpt lat="45.3145033817869" lon="9.38662327470087"><ele>83.0</ele><time>2026-04-30T05:57:01.999Z</time></trkpt><trkpt lat="45.314337638653875" lon="9.386861950238742"><ele>83.0</ele><time>2026-04-30T05:57:02.999Z</time></trkpt><trkpt lat="45.31420355948502" lon="9.387105456532353"><ele>83.0</ele><time>2026-04-30T05:57:03.999Z</time></trkpt><trkpt lat="45.314060152945785" lon="9.387323090015718"><ele>83.0</ele><time>2026-04-30T05:57:04.999Z</time></trkpt><trkpt lat="45.31392477929101" lon="9.387547301316943"><ele>82.5</ele><time>2026-04-30T05:57:05.999Z</time></trkpt><trkpt lat="45.31378244101386" lon="9.387769527351416"><ele>82.0</ele><time>2026-04-30T05:57:06.999Z</time></trkpt><trkpt lat="45.313617853378204" lon="9.388016201675043"><ele>82.0</ele><time>2026-04-30T05:57:07.999Z</time></trkpt><trkpt lat="45.31344855458928" lon="9.388241590224377"><ele>82.0</ele><time>2026-04-30T05:57:08.999Z</time></trkpt><trkpt lat="45.31328524845038" lon="9.388459785280144"><ele>82.0</ele><time>2026-04-30T05:57:09.999Z</time></trkpt><trkpt lat="45.31312783948161" lon="9.388702534166173"><ele>82.0</ele><time>2026-04-30T05:57:10.999Z</time></trkpt><trkpt lat="45.312962640067354" lon="9.388928943206599"><ele>81.66666666666666</ele><time>2026-04-30T05:57:11.999Z</time></trkpt><trkpt lat="45.31283043647452" lon="9.389183762590523"><ele>81.33333333333333</ele><time>2026-04-30T05:57:12.999Z</time></trkpt><trkpt lat="45.31267840906741" lon="9.389412109721231"><ele>81.0</ele><time>2026-04-30T05:57:13.999Z</time></trkpt><trkpt lat="45.31252589237547" lon="9.389649034325656"><ele>80.66666666666667</ele><time>2026-04-30T05:57:14.999Z</time></trkpt><trkpt lat="45.312402879893554" lon="9.389839777258624"><ele>80.33333333333334</ele><time>2026-04-30T05:57:15.999Z</time></trkpt><trkpt lat="45.31224894175934" lon="9.390075603446686"><ele>80.0</ele><time>2026-04-30T05:57:16.999Z</time></trkpt><trkpt lat="45.31212161999756" lon="9.39031623118177"><ele>80.0</ele><time>2026-04-30T05:57:17.999Z</time></trkpt><trkpt lat="45.31195623643948" lon="9.390552016931549"><ele>80.0</ele><time>2026-04-30T05:57:18.999Z</time></trkpt><trkpt lat="45.31179400428951" lon="9.39081263011716"><ele>80.0</ele><time>2026-04-30T05:57:19.999Z</time></trkpt><trkpt lat="45.31161653538537" lon="9.391043451023979"><ele>80.0</ele><time>2026-04-30T05:57:20.999Z</time></trkpt><trkpt lat="45.31145348914698" lon="9.391286695721774"><ele>80.0</ele><time>2026-04-30T05:57:21.999Z</time></trkpt><trkpt lat="45.311303100774005" lon="9.39153195446526"><ele>80.0</ele><time>2026-04-30T05:57:22.999Z</time></trkpt><trkpt lat="45.311145227439326" lon="9.391763499189874"><ele>80.0</ele><time>2026-04-30T05:57:23.999Z</time></trkpt><trkpt lat="45.31099143992007" lon="9.392021283913055"><ele>80.0</ele><time>2026-04-30T05:57:24.999Z</time></trkpt><trkpt lat="45.31083005219588" lon="9.392260725079241"><ele>80.5</ele><time>2026-04-30T05:57:25.999Z</time></trkpt><trkpt lat="45.31067350104061" lon="9.392489106504245"><ele>81.0</ele><time>2026-04-30T05:57:26.999Z</time></trkpt><trkpt lat="45.31051631276623" lon="9.392730571768372"><ele>81.0</ele><time>2026-04-30T05:57:27.999Z</time></trkpt><trkpt lat="45.31035327507894" lon="9.392955438205052"><ele>81.0</ele><time>2026-04-30T05:57:28.999Z</time></trkpt><trkpt lat="45.31018592187337" lon="9.39317977855153"><ele>81.0</ele><time>2026-04-30T05:57:29.999Z</time></trkpt><trkpt lat="45.31003187065742" lon="9.393455945729244"><ele>81.0</ele><time>2026-04-30T05:57:30.999Z</time></trkpt><trkpt lat="45.309871385716654" lon="9.393688744045225"><ele>81.0</ele><time>2026-04-30T05:57:31.999Z</time></trkpt><trkpt lat="45.30972067730051" lon="9.393945709671458"><ele>81.0</ele><time>2026-04-30T05:57:32.999Z</time></trkpt><trkpt lat="45.309563783574866" lon="9.394215054063084"><ele>81.0</ele><time>2026-04-30T05:57:33.999Z</time></trkpt><trkpt lat="45.30940907616365" lon="9.394463967075348"><ele>81.0</ele><time>2026-04-30T05:57:34.999Z</time></trkpt><trkpt lat="45.30923956971393" lon="9.394723634766617"><ele>80.5</ele><time>2026-04-30T05:57:35.999Z</time></trkpt><trkpt lat="45.309082950513435" lon="9.394963102059883"><ele>80.0</ele><time>2026-04-30T05:57:36.999Z</time></trkpt><trkpt lat="45.30892951718242" lon="9.395197698644223"><ele>80.5</ele><time>2026-04-30T05:57:37.999Z</time></trkpt><trkpt lat="45.308765016624285" lon="9.395476475665577"><ele>81.0</ele><time>2026-04-30T05:57:38.999Z</time></trkpt><trkpt lat="45.308592987454276" lon="9.395724068817245"><ele>81.0</ele><time>2026-04-30T05:57:39.999Z</time></trkpt><trkpt lat="45.30843685834169" lon="9.395981393560755"><ele>81.0</ele><time>2026-04-30T05:57:40.999Z</time></trkpt><trkpt lat="45.30826740503069" lon="9.396221288586158"><ele>81.0</ele><time>2026-04-30T05:57:41.999Z</time></trkpt><trkpt lat="45.308099549380074" lon="9.396470796059978"><ele>81.0</ele><time>2026-04-30T05:57:42.999Z</time></trkpt><trkpt lat="45.30794391496669" lon="9.396704164919022"><ele>80.5</ele><time>2026-04-30T05:57:43.999Z</time></trkpt><trkpt lat="45.307785465571484" lon="9.396946566090095"><ele>80.0</ele><time>2026-04-30T05:57:44.999Z</time></trkpt><trkpt lat="45.30763588704637" lon="9.397194468222098"><ele>80.0</ele><time>2026-04-30T05:57:45.999Z</time></trkpt><trkpt lat="45.30748457501593" lon="9.397438030472731"><ele>80.0</ele><time>2026-04-30T05:57:46.999Z</time></trkpt><trkpt lat="45.30732650036741" lon="9.397656880031573"><ele>80.0</ele><time>2026-04-30T05:57:47.999Z</time></trkpt><trkpt lat="45.30716283790683" lon="9.397931707580778"><ele>81.0</ele><time>2026-04-30T05:57:48.999Z</time></trkpt><trkpt lat="45.3070099783383" lon="9.398162198580087"><ele>82.0</ele><time>2026-04-30T05:57:49.999Z</time></trkpt><trkpt lat="45.306849984778935" lon="9.398405312009068"><ele>82.0</ele><time>2026-04-30T05:57:50.999Z</time></trkpt><trkpt lat="45.30666454750647" lon="9.398682302541808"><ele>82.0</ele><time>2026-04-30T05:57:51.999Z</time></trkpt><trkpt lat="45.306455719221624" lon="9.398945604890365"><ele>81.5</ele><time>2026-04-30T05:57:52.999Z</time></trkpt><trkpt lat="45.30628516486445" lon="9.3992141237888"><ele>81.0</ele><time>2026-04-30T05:57:53.999Z</time></trkpt><trkpt lat="45.30613222177289" lon="9.399499336030715"><ele>81.0</ele><time>2026-04-30T05:57:54.999Z</time></trkpt><trkpt lat="45.30596578798099" lon="9.399763889351568"><ele>81.0</ele><time>2026-04-30T05:57:55.999Z</time></trkpt><trkpt lat="45.305784664346604" lon="9.400015896563435"><ele>81.0</ele><time>2026-04-30T05:57:56.999Z</time></trkpt><trkpt lat="45.30562027646648" lon="9.400283624436875"><ele>81.0</ele><time>2026-04-30T05:57:57.999Z</time></trkpt><trkpt lat="45.305430072538805" lon="9.400494213175682"><ele>81.0</ele><time>2026-04-30T05:57:58.999Z</time></trkpt><trkpt lat="45.305252040575795" lon="9.400758205262012"><ele>81.0</ele><time>2026-04-30T05:57:59.999Z</time></trkpt><trkpt lat="45.30507786603811" lon="9.401000199151524"><ele>81.0</ele><time>2026-04-30T05:58:00.999Z</time></trkpt><trkpt lat="45.30491347131628" lon="9.401252699705205"><ele>81.0</ele><time>2026-04-30T05:58:01.999Z</time></trkpt><trkpt lat="45.304783509526864" lon="9.401529658749999"><ele>81.0</ele><time>2026-04-30T05:58:02.999Z</time></trkpt><trkpt lat="45.30462632245438" lon="9.401744795888963"><ele>81.0</ele><time>2026-04-30T05:58:03.999Z</time></trkpt><trkpt lat="45.30445216866923" lon="9.401988567108921"><ele>80.0</ele><time>2026-04-30T05:58:04.999Z</time></trkpt><trkpt lat="45.304299810011784" lon="9.402247949808983"><ele>79.0</ele><time>2026-04-30T05:58:05.999Z</time></trkpt><trkpt lat="45.30408858384965" lon="9.40248479045986"><ele>80.0</ele><time>2026-04-30T05:58:06.999Z</time></trkpt><trkpt lat="45.30390788367567" lon="9.402731841725315"><ele>81.0</ele><time>2026-04-30T05:58:07.999Z</time></trkpt><trkpt lat="45.303729713836965" lon="9.40298189889521"><ele>80.0</ele><time>2026-04-30T05:58:08.999Z</time></trkpt><trkpt lat="45.303550864751195" lon="9.403211488340533"><ele>79.0</ele><time>2026-04-30T05:58:09.999Z</time></trkpt><trkpt lat="45.303402997648206" lon="9.403432474428557"><ele>79.0</ele><time>2026-04-30T05:58:10.999Z</time></trkpt><trkpt lat="45.30325165751276" lon="9.403679456427934"><ele>79.0</ele><time>2026-04-30T05:58:11.999Z</time></trkpt><trkpt lat="45.30309891905544" lon="9.403923753791197"><ele>79.0</ele><time>2026-04-30T05:58:12.999Z</time></trkpt><trkpt lat="45.30293528779767" lon="9.404158791292188"><ele>79.0</ele><time>2026-04-30T05:58:13.999Z</time></trkpt><trkpt lat="45.302754451755256" lon="9.404379399829308"><ele>79.0</ele><time>2026-04-30T05:58:14.999Z</time></trkpt><trkpt lat="45.3025896608748" lon="9.404609267948342"><ele>79.0</ele><time>2026-04-30T05:58:15.999Z</time></trkpt><trkpt lat="45.30242413684236" lon="9.404841082664303"><ele>77.5</ele><time>2026-04-30T05:58:16.999Z</time></trkpt><trkpt lat="45.30224165576945" lon="9.405074648412551"><ele>76.0</ele><time>2026-04-30T05:58:17.999Z</time></trkpt><trkpt lat="45.3020662400661" lon="9.40530650219141"><ele>77.5</ele><time>2026-04-30T05:58:18.999Z</time></trkpt><trkpt lat="45.301887926690476" lon="9.40555527352661"><ele>79.0</ele><time>2026-04-30T05:58:19.999Z</time></trkpt><trkpt lat="45.30171370746886" lon="9.405812627127961"><ele>79.0</ele><time>2026-04-30T05:58:20.999Z</time></trkpt><trkpt lat="45.30156272085886" lon="9.40607082029438"><ele>79.0</ele><time>2026-04-30T05:58:21.999Z</time></trkpt><trkpt lat="45.30139488975157" lon="9.406309753850222"><ele>79.5</ele><time>2026-04-30T05:58:22.999Z</time></trkpt><trkpt lat="45.30122581220207" lon="9.406544232949706"><ele>80.0</ele><time>2026-04-30T05:58:23.999Z</time></trkpt><trkpt lat="45.30106266144203" lon="9.406771735670898"><ele>80.0</ele><time>2026-04-30T05:58:24.999Z</time></trkpt><trkpt lat="45.30089675709349" lon="9.407000079759012"><ele>80.0</ele><time>2026-04-30T05:58:25.999Z</time></trkpt><trkpt lat="45.30071392116413" lon="9.407250077975386"><ele>80.0</ele><time>2026-04-30T05:58:26.999Z</time></trkpt><trkpt lat="45.3005424824337" lon="9.407485163924571"><ele>80.0</ele><time>2026-04-30T05:58:27.999Z</time></trkpt><trkpt lat="45.300369636513324" lon="9.407719453599466"><ele>80.0</ele><time>2026-04-30T05:58:28.999Z</time></trkpt><trkpt lat="45.300188703648736" lon="9.407959185884321"><ele>80.0</ele><time>2026-04-30T05:58:29.999Z</time></trkpt><trkpt lat="45.29999279048333" lon="9.408185260321064"><ele>80.0</ele><time>2026-04-30T05:58:30.999Z</time></trkpt><trkpt lat="45.299815395194585" lon="9.408424537085226"><ele>80.0</ele><time>2026-04-30T05:58:31.999Z</time></trkpt><trkpt lat="45.29963266295663" lon="9.408672026079065"><ele>79.0</ele><time>2026-04-30T05:58:32.999Z</time></trkpt><trkpt lat="45.299457420609755" lon="9.408914951441238"><ele>78.0</ele><time>2026-04-30T05:58:33.999Z</time></trkpt><trkpt lat="45.29928379821641" lon="9.409147277604234"><ele>78.0</ele><time>2026-04-30T05:58:34.999Z</time></trkpt><trkpt lat="45.29912336409513" lon="9.409398262221265"><ele>78.0</ele><time>2026-04-30T05:58:35.999Z</time></trkpt><trkpt lat="45.29896266107541" lon="9.409650480253072"><ele>77.5</ele><time>2026-04-30T05:58:36.999Z</time></trkpt><trkpt lat="45.29878036706558" lon="9.409878969976818"><ele>77.0</ele><time>2026-04-30T05:58:37.999Z</time></trkpt><trkpt lat="45.29861930018419" lon="9.410128671474345"><ele>77.0</ele><time>2026-04-30T05:58:38.999Z</time></trkpt><trkpt lat="45.298449526833984" lon="9.410363380236065"><ele>77.0</ele><time>2026-04-30T05:58:39.999Z</time></trkpt><trkpt lat="45.298293072588265" lon="9.41060187350713"><ele>77.0</ele><time>2026-04-30T05:58:40.999Z</time></trkpt><trkpt lat="45.29813217563385" lon="9.410835542174375"><ele>77.0</ele><time>2026-04-30T05:58:41.999Z</time></trkpt><trkpt lat="45.29797854359813" lon="9.411080299312164"><ele>77.0</ele><time>2026-04-30T05:58:42.999Z</time></trkpt><trkpt lat="45.29782017628242" lon="9.411339057458813"><ele>77.0</ele><time>2026-04-30T05:58:43.999Z</time></trkpt><trkpt lat="45.29764976120417" lon="9.411573916476673"><ele>77.0</ele><time>2026-04-30T05:58:44.999Z</time></trkpt><trkpt lat="45.29747598605952" lon="9.411784518513624"><ele>77.0</ele><time>2026-04-30T05:58:45.999Z</time></trkpt><trkpt lat="45.297317952562956" lon="9.412030316094047"><ele>78.0</ele><time>2026-04-30T05:58:46.999Z</time></trkpt><trkpt lat="45.2971694251351" lon="9.412285003283706"><ele>79.0</ele><time>2026-04-30T05:58:47.999Z</time></trkpt><trkpt lat="45.29700981933025" lon="9.4125297450229"><ele>79.0</ele><time>2026-04-30T05:58:48.999Z</time></trkpt><trkpt lat="45.296876009259215" lon="9.412734814293605"><ele>79.0</ele><time>2026-04-30T05:58:49.999Z</time></trkpt><trkpt lat="45.296736519688714" lon="9.412996696453837"><ele>79.0</ele><time>2026-04-30T05:58:50.999Z</time></trkpt><trkpt lat="45.29658758590878" lon="9.4132316266529"><ele>78.66666666666666</ele><time>2026-04-30T05:58:51.999Z</time></trkpt><trkpt lat="45.2964622276562" lon="9.413469013261496"><ele>78.33333333333333</ele><time>2026-04-30T05:58:52.999Z</time></trkpt><trkpt lat="45.29631215394539" lon="9.41368411981611"><ele>78.0</ele><time>2026-04-30T05:58:53.999Z</time></trkpt><trkpt lat="45.29615998898177" lon="9.413914475612152"><ele>77.33333333333333</ele><time>2026-04-30T05:58:54.999Z</time></trkpt><trkpt lat="45.29600635104058" lon="9.414158952608076"><ele>76.66666666666666</ele><time>2026-04-30T05:58:55.999Z</time></trkpt><trkpt lat="45.29586154974883" lon="9.414363333580486"><ele>76.0</ele><time>2026-04-30T05:58:56.999Z</time></trkpt><trkpt lat="45.295741696580485" lon="9.414621319848566"><ele>76.0</ele><time>2026-04-30T05:58:57.999Z</time></trkpt><trkpt lat="45.29559948338698" lon="9.41485803167491"><ele>76.0</ele><time>2026-04-30T05:58:58.999Z</time></trkpt><trkpt lat="45.29545354257522" lon="9.415105828586093"><ele>76.0</ele><time>2026-04-30T05:58:59.999Z</time></trkpt><trkpt lat="45.295312309813106" lon="9.415340361964788"><ele>76.33333333333333</ele><time>2026-04-30T05:59:00.999Z</time></trkpt><trkpt lat="45.29517802099954" lon="9.415581004748566"><ele>76.66666666666667</ele><time>2026-04-30T05:59:01.999Z</time></trkpt><trkpt lat="45.29502529579295" lon="9.415807198644462"><ele>77.0</ele><time>2026-04-30T05:59:02.999Z</time></trkpt><trkpt lat="45.294888007775256" lon="9.416037292292847"><ele>77.0</ele><time>2026-04-30T05:59:03.999Z</time></trkpt><trkpt lat="45.29474673798419" lon="9.416274882034475"><ele>77.0</ele><time>2026-04-30T05:59:04.999Z</time></trkpt><trkpt lat="45.29459416117499" lon="9.416534124634437"><ele>76.5</ele><time>2026-04-30T05:59:05.999Z</time></trkpt><trkpt lat="45.29444723634071" lon="9.416783764184954"><ele>76.0</ele><time>2026-04-30T05:59:06.999Z</time></trkpt><trkpt lat="45.29429436207791" lon="9.417038097618201"><ele>76.5</ele><time>2026-04-30T05:59:07.999Z</time></trkpt><trkpt lat="45.29413885488598" lon="9.417298613763919"><ele>77.0</ele><time>2026-04-30T05:59:08.999Z</time></trkpt><trkpt lat="45.293998222372544" lon="9.417541042458648"><ele>77.0</ele><time>2026-04-30T05:59:09.999Z</time></trkpt><trkpt lat="45.29384446257666" lon="9.417806100589665"><ele>77.0</ele><time>2026-04-30T05:59:10.999Z</time></trkpt><trkpt lat="45.29369112992076" lon="9.418070422749272"><ele>76.66666666666667</ele><time>2026-04-30T05:59:11.999Z</time></trkpt><trkpt lat="45.29355000648061" lon="9.418313697396796"><ele>76.33333333333333</ele><time>2026-04-30T05:59:12.999Z</time></trkpt><trkpt lat="45.293409727962484" lon="9.418559099693628"><ele>76.0</ele><time>2026-04-30T05:59:13.999Z</time></trkpt><trkpt lat="45.293268634994" lon="9.418822627003417"><ele>76.0</ele><time>2026-04-30T05:59:14.999Z</time></trkpt><trkpt lat="45.29313012822489" lon="9.419066793283282"><ele>76.0</ele><time>2026-04-30T05:59:15.999Z</time></trkpt><trkpt lat="45.29298800751719" lon="9.41930291075788"><ele>76.0</ele><time>2026-04-30T05:59:16.999Z</time></trkpt><trkpt lat="45.29285813786438" lon="9.419567396765977"><ele>75.5</ele><time>2026-04-30T05:59:17.999Z</time></trkpt><trkpt lat="45.292706615831555" lon="9.419798863849374"><ele>75.0</ele><time>2026-04-30T05:59:18.999Z</time></trkpt><trkpt lat="45.2925560984028" lon="9.420067948145011"><ele>75.0</ele><time>2026-04-30T05:59:19.999Z</time></trkpt><trkpt lat="45.29244027838272" lon="9.420290416056451"><ele>75.0</ele><time>2026-04-30T05:59:20.999Z</time></trkpt><trkpt lat="45.29229168953065" lon="9.420550011017916"><ele>75.0</ele><time>2026-04-30T05:59:21.999Z</time></trkpt><trkpt lat="45.292138743641175" lon="9.42081496208995"><ele>75.5</ele><time>2026-04-30T05:59:22.999Z</time></trkpt><trkpt lat="45.29198574222106" lon="9.421080096129385"><ele>76.0</ele><time>2026-04-30T05:59:23.999Z</time></trkpt><trkpt lat="45.291830265057115" lon="9.421320936847373"><ele>76.0</ele><time>2026-04-30T05:59:24.999Z</time></trkpt><trkpt lat="45.291695512920995" lon="9.421565387798564"><ele>76.0</ele><time>2026-04-30T05:59:25.999Z</time></trkpt><trkpt lat="45.2915594061273" lon="9.42181445683763"><ele>76.0</ele><time>2026-04-30T05:59:26.999Z</time></trkpt><trkpt lat="45.29142072055552" lon="9.42206453471734"><ele>76.0</ele><time>2026-04-30T05:59:27.999Z</time></trkpt><trkpt lat="45.29129378956673" lon="9.422285683272701"><ele>76.0</ele><time>2026-04-30T05:59:28.999Z</time></trkpt><trkpt lat="45.29117328007654" lon="9.422513657877348"><ele>76.0</ele><time>2026-04-30T05:59:29.999Z</time></trkpt><trkpt lat="45.291041514347164" lon="9.422759167571757"><ele>76.0</ele><time>2026-04-30T05:59:30.999Z</time></trkpt><trkpt lat="45.29090598548945" lon="9.422987337135641"><ele>76.0</ele><time>2026-04-30T05:59:31.999Z</time></trkpt><trkpt lat="45.29077794532955" lon="9.423243910822226"><ele>76.0</ele><time>2026-04-30T05:59:32.999Z</time></trkpt><trkpt lat="45.29064407805891" lon="9.423493694018596"><ele>76.0</ele><time>2026-04-30T05:59:33.999Z</time></trkpt><trkpt lat="45.290511450190834" lon="9.423722446366783"><ele>76.0</ele><time>2026-04-30T05:59:34.999Z</time></trkpt><trkpt lat="45.29038231217946" lon="9.423981023273184"><ele>76.0</ele><time>2026-04-30T05:59:35.999Z</time></trkpt><trkpt lat="45.29023874867564" lon="9.424201634323515"><ele>76.0</ele><time>2026-04-30T05:59:36.999Z</time></trkpt><trkpt lat="45.29010295592036" lon="9.42445184218953"><ele>76.0</ele><time>2026-04-30T05:59:37.999Z</time></trkpt><trkpt lat="45.289961523206934" lon="9.424718869757156"><ele>76.0</ele><time>2026-04-30T05:59:38.999Z</time></trkpt><trkpt lat="45.289817616387836" lon="9.424970170116366"><ele>76.0</ele><time>2026-04-30T05:59:39.999Z</time></trkpt><trkpt lat="45.289672254991075" lon="9.425228681312479"><ele>76.0</ele><time>2026-04-30T05:59:40.999Z</time></trkpt><trkpt lat="45.289524237275685" lon="9.42546103648147"><ele>76.0</ele><time>2026-04-30T05:59:41.999Z</time></trkpt><trkpt lat="45.28937861331042" lon="9.425701994147198"><ele>76.0</ele><time>2026-04-30T05:59:42.999Z</time></trkpt><trkpt lat="45.28924120193356" lon="9.425934042053342"><ele>76.0</ele><time>2026-04-30T05:59:43.999Z</time></trkpt><trkpt lat="45.289099790000485" lon="9.426193903263359"><ele>76.0</ele><time>2026-04-30T05:59:44.999Z</time></trkpt><trkpt lat="45.28896790881085" lon="9.426452359527367"><ele>76.33333333333333</ele><time>2026-04-30T05:59:45.999Z</time></trkpt><trkpt lat="45.28883022642089" lon="9.426699729432686"><ele>76.66666666666667</ele><time>2026-04-30T05:59:46.999Z</time></trkpt><trkpt lat="45.2886964144093" lon="9.426948957764846"><ele>77.0</ele><time>2026-04-30T05:59:47.999Z</time></trkpt><trkpt lat="45.28857325610203" lon="9.427186160677932"><ele>77.0</ele><time>2026-04-30T05:59:48.999Z</time></trkpt><trkpt lat="45.28843349530335" lon="9.427435239234967"><ele>77.0</ele><time>2026-04-30T05:59:49.999Z</time></trkpt><trkpt lat="45.28829525375517" lon="9.427680610642403"><ele>77.0</ele><time>2026-04-30T05:59:50.999Z</time></trkpt><trkpt lat="45.2881768485554" lon="9.42789244929432"><ele>77.33333333333334</ele><time>2026-04-30T05:59:51.999Z</time></trkpt><trkpt lat="45.288033560947476" lon="9.42815022888709"><ele>77.66666666666667</ele><time>2026-04-30T05:59:52.999Z</time></trkpt><trkpt lat="45.28790288410161" lon="9.428385321054458"><ele>78.0</ele><time>2026-04-30T05:59:53.999Z</time></trkpt><trkpt lat="45.28776080443576" lon="9.428638328665416"><ele>79.0</ele><time>2026-04-30T05:59:54.999Z</time></trkpt><trkpt lat="45.28761937810861" lon="9.428889896513999"><ele>80.0</ele><time>2026-04-30T05:59:55.999Z</time></trkpt><trkpt lat="45.28746917709864" lon="9.429160072679272"><ele>80.0</ele><time>2026-04-30T05:59:56.999Z</time></trkpt><trkpt lat="45.28731948742453" lon="9.429428046729948"><ele>80.0</ele><time>2026-04-30T05:59:57.999Z</time></trkpt><trkpt lat="45.287170973366784" lon="9.429692190924571"><ele>79.0</ele><time>2026-04-30T05:59:58.999Z</time></trkpt><trkpt lat="45.28702188889044" lon="9.42995734918367"><ele>78.0</ele><time>2026-04-30T05:59:59.999Z</time></trkpt><trkpt lat="45.286904131308354" lon="9.430195334950714"><ele>77.0</ele><time>2026-04-30T06:00:00.999Z</time></trkpt><trkpt lat="45.28676236069445" lon="9.430451581819762"><ele>75.5</ele><time>2026-04-30T06:00:01.999Z</time></trkpt><trkpt lat="45.28660209648041" lon="9.430701882707494"><ele>74.0</ele><time>2026-04-30T06:00:02.999Z</time></trkpt><trkpt lat="45.286449028945725" lon="9.430969597561074"><ele>74.5</ele><time>2026-04-30T06:00:03.999Z</time></trkpt><trkpt lat="45.28629497439148" lon="9.431238298033344"><ele>75.0</ele><time>2026-04-30T06:00:04.999Z</time></trkpt><trkpt lat="45.2861493086612" lon="9.431520279888801"><ele>75.0</ele><time>2026-04-30T06:00:05.999Z</time></trkpt><trkpt lat="45.285974911143875" lon="9.431767362436146"><ele>75.0</ele><time>2026-04-30T06:00:06.999Z</time></trkpt><trkpt lat="45.285819763567645" lon="9.432017612745916"><ele>75.0</ele><time>2026-04-30T06:00:07.999Z</time></trkpt><trkpt lat="45.28567313449332" lon="9.432275299676471"><ele>75.0</ele><time>2026-04-30T06:00:08.999Z</time></trkpt><trkpt lat="45.285524820411666" lon="9.432555287690752"><ele>75.0</ele><time>2026-04-30T06:00:09.999Z</time></trkpt><trkpt lat="45.2853756852065" lon="9.43280616363126"><ele>75.0</ele><time>2026-04-30T06:00:10.999Z</time></trkpt><trkpt lat="45.285234274820304" lon="9.43304357606285"><ele>75.5</ele><time>2026-04-30T06:00:11.999Z</time></trkpt><trkpt lat="45.28508815656218" lon="9.433288710469947"><ele>76.0</ele><time>2026-04-30T06:00:12.999Z</time></trkpt><trkpt lat="45.284942309765015" lon="9.433532978430668"><ele>76.0</ele><time>2026-04-30T06:00:13.999Z</time></trkpt><trkpt lat="45.284786433352146" lon="9.433794044277102"><ele>76.0</ele><time>2026-04-30T06:00:14.999Z</time></trkpt><trkpt lat="45.284625180088995" lon="9.434063744850329"><ele>74.5</ele><time>2026-04-30T06:00:15.999Z</time></trkpt><trkpt lat="45.284474870354074" lon="9.434309103964344"><ele>73.0</ele><time>2026-04-30T06:00:16.999Z</time></trkpt><trkpt lat="45.284332784729514" lon="9.434559628258535"><ele>73.33333333333333</ele><time>2026-04-30T06:00:17.999Z</time></trkpt><trkpt lat="45.28419342030174" lon="9.434778342005623"><ele>73.66666666666667</ele><time>2026-04-30T06:00:18.999Z</time></trkpt><trkpt lat="45.2840357008882" lon="9.435024824614864"><ele>74.0</ele><time>2026-04-30T06:00:19.999Z</time></trkpt><trkpt lat="45.2838982293022" lon="9.435284121933147"><ele>74.5</ele><time>2026-04-30T06:00:20.999Z</time></trkpt><trkpt lat="45.2837321077026" lon="9.4355253476345"><ele>75.0</ele><time>2026-04-30T06:00:21.999Z</time></trkpt><trkpt lat="45.28357310687948" lon="9.435796958840264"><ele>75.0</ele><time>2026-04-30T06:00:22.999Z</time></trkpt><trkpt lat="45.28340958377759" lon="9.436059059294003"><ele>75.0</ele><time>2026-04-30T06:00:23.999Z</time></trkpt><trkpt lat="45.28322872068517" lon="9.436297652920446"><ele>74.5</ele><time>2026-04-30T06:00:24.999Z</time></trkpt><trkpt lat="45.28305086055399" lon="9.43652704634571"><ele>74.0</ele><time>2026-04-30T06:00:25.999Z</time></trkpt><trkpt lat="45.28290621120649" lon="9.436780480603185"><ele>74.0</ele><time>2026-04-30T06:00:26.999Z</time></trkpt><trkpt lat="45.28277189792" lon="9.43703994171811"><ele>74.0</ele><time>2026-04-30T06:00:27.999Z</time></trkpt><trkpt lat="45.28264882366311" lon="9.437290475294562"><ele>74.0</ele><time>2026-04-30T06:00:28.999Z</time></trkpt><trkpt lat="45.28248571931752" lon="9.437515159475627"><ele>74.0</ele><time>2026-04-30T06:00:29.999Z</time></trkpt><trkpt lat="45.28235378292329" lon="9.437802934371986"><ele>74.0</ele><time>2026-04-30T06:00:30.999Z</time></trkpt><trkpt lat="45.28220125970743" lon="9.438045268837111"><ele>73.66666666666667</ele><time>2026-04-30T06:00:31.999Z</time></trkpt><trkpt lat="45.28205006195034" lon="9.438293252150913"><ele>73.33333333333333</ele><time>2026-04-30T06:00:32.999Z</time></trkpt><trkpt lat="45.28190852008658" lon="9.438522188713224"><ele>73.0</ele><time>2026-04-30T06:00:33.999Z</time></trkpt><trkpt lat="45.28173227135387" lon="9.438756262006848"><ele>73.0</ele><time>2026-04-30T06:00:34.999Z</time></trkpt><trkpt lat="45.28156589099859" lon="9.438996888098764"><ele>73.0</ele><time>2026-04-30T06:00:35.999Z</time></trkpt><trkpt lat="45.281396462947214" lon="9.439243483806791"><ele>73.0</ele><time>2026-04-30T06:00:36.999Z</time></trkpt><trkpt lat="45.28124444839786" lon="9.439479967601788"><ele>73.0</ele><time>2026-04-30T06:00:37.999Z</time></trkpt><trkpt lat="45.28108547361276" lon="9.439719124136955"><ele>73.0</ele><time>2026-04-30T06:00:38.999Z</time></trkpt><trkpt lat="45.28094178455445" lon="9.439960019555855"><ele>73.0</ele><time>2026-04-30T06:00:39.999Z</time></trkpt><trkpt lat="45.280835090682" lon="9.440223089176017"><ele>73.0</ele><time>2026-04-30T06:00:40.999Z</time></trkpt><trkpt lat="45.28070218870821" lon="9.440467559400552"><ele>73.0</ele><time>2026-04-30T06:00:41.999Z</time></trkpt><trkpt lat="45.28053740497431" lon="9.440698112364316"><ele>73.0</ele><time>2026-04-30T06:00:42.999Z</time></trkpt><trkpt lat="45.28038728896076" lon="9.4409529115393"><ele>73.0</ele><time>2026-04-30T06:00:43.999Z</time></trkpt><trkpt lat="45.28023486142749" lon="9.441202425787322"><ele>73.0</ele><time>2026-04-30T06:00:44.999Z</time></trkpt><trkpt lat="45.28009738870525" lon="9.441470106496876"><ele>73.0</ele><time>2026-04-30T06:00:45.999Z</time></trkpt><trkpt lat="45.27997311016462" lon="9.441728456997057"><ele>73.0</ele><time>2026-04-30T06:00:46.999Z</time></trkpt><trkpt lat="45.279827568422064" lon="9.441974079920378"><ele>73.0</ele><time>2026-04-30T06:00:47.999Z</time></trkpt><trkpt lat="45.27965594239952" lon="9.442213333844679"><ele>73.0</ele><time>2026-04-30T06:00:48.999Z</time></trkpt><trkpt lat="45.27951288772508" lon="9.442500970163701"><ele>73.0</ele><time>2026-04-30T06:00:49.999Z</time></trkpt><trkpt lat="45.27936973339611" lon="9.442739007962725"><ele>73.0</ele><time>2026-04-30T06:00:50.999Z</time></trkpt><trkpt lat="45.27919864275642" lon="9.442957321677541"><ele>73.0</ele><time>2026-04-30T06:00:51.998Z</time></trkpt><trkpt lat="45.27904332574638" lon="9.443205561424069"><ele>73.0</ele><time>2026-04-30T06:00:52.998Z</time></trkpt><trkpt lat="45.27890039338507" lon="9.443463692573026"><ele>73.0</ele><time>2026-04-30T06:00:53.998Z</time></trkpt><trkpt lat="45.27876460084253" lon="9.443707157897677"><ele>73.5</ele><time>2026-04-30T06:00:54.998Z</time></trkpt><trkpt lat="45.27861077268834" lon="9.443950559029528"><ele>74.0</ele><time>2026-04-30T06:00:55.998Z</time></trkpt><trkpt lat="45.27847647219691" lon="9.444199865344437"><ele>74.0</ele><time>2026-04-30T06:00:56.998Z</time></trkpt><trkpt lat="45.2783475493206" lon="9.444462488207307"><ele>74.0</ele><time>2026-04-30T06:00:57.998Z</time></trkpt><trkpt lat="45.27820473841865" lon="9.444691440767809"><ele>74.0</ele><time>2026-04-30T06:00:58.998Z</time></trkpt><trkpt lat="45.27806373303936" lon="9.444920186502586"><ele>74.0</ele><time>2026-04-30T06:00:59.998Z</time></trkpt><trkpt lat="45.277915182573935" lon="9.445138161167748"><ele>74.0</ele><time>2026-04-30T06:01:00.998Z</time></trkpt><trkpt lat="45.27775719545358" lon="9.445368394566005"><ele>74.0</ele><time>2026-04-30T06:01:01.998Z</time></trkpt><trkpt lat="45.27762164218336" lon="9.445615763109014"><ele>74.0</ele><time>2026-04-30T06:01:02.998Z</time></trkpt><trkpt lat="45.2775084617193" lon="9.445866157342184"><ele>74.0</ele><time>2026-04-30T06:01:03.998Z</time></trkpt><trkpt lat="45.2773827117001" lon="9.44611342106899"><ele>74.0</ele><time>2026-04-30T06:01:04.998Z</time></trkpt><trkpt lat="45.277232508496255" lon="9.446332762769712"><ele>74.0</ele><time>2026-04-30T06:01:05.998Z</time></trkpt><trkpt lat="45.27710028336948" lon="9.44655254835721"><ele>74.0</ele><time>2026-04-30T06:01:06.998Z</time></trkpt><trkpt lat="45.276964437337796" lon="9.446776400958083"><ele>74.0</ele><time>2026-04-30T06:01:07.998Z</time></trkpt><trkpt lat="45.276822542584476" lon="9.447011440929991"><ele>74.0</ele><time>2026-04-30T06:01:08.998Z</time></trkpt><trkpt lat="45.27667161134495" lon="9.447260688408953"><ele>74.0</ele><time>2026-04-30T06:01:09.998Z</time></trkpt><trkpt lat="45.27652690239909" lon="9.447497433572977"><ele>74.66666666666667</ele><time>2026-04-30T06:01:10.998Z</time></trkpt><trkpt lat="45.276383053782126" lon="9.447731185611868"><ele>75.33333333333333</ele><time>2026-04-30T06:01:11.998Z</time></trkpt><trkpt lat="45.27624600622488" lon="9.447966738398566"><ele>76.0</ele><time>2026-04-30T06:01:12.998Z</time></trkpt><trkpt lat="45.27610456548222" lon="9.448223341170573"><ele>77.0</ele><time>2026-04-30T06:01:13.998Z</time></trkpt><trkpt lat="45.275951364079745" lon="9.448451281240859"><ele>78.0</ele><time>2026-04-30T06:01:14.998Z</time></trkpt><trkpt lat="45.275801392584555" lon="9.448700235550408"><ele>77.0</ele><time>2026-04-30T06:01:15.998Z</time></trkpt><trkpt lat="45.27564753899761" lon="9.448955634171176"><ele>76.0</ele><time>2026-04-30T06:01:16.998Z</time></trkpt><trkpt lat="45.27549596329955" lon="9.44920688582135"><ele>75.5</ele><time>2026-04-30T06:01:17.998Z</time></trkpt><trkpt lat="45.27535645371409" lon="9.449438040375638"><ele>75.0</ele><time>2026-04-30T06:01:18.998Z</time></trkpt><trkpt lat="45.27519794215048" lon="9.449700679468535"><ele>76.0</ele><time>2026-04-30T06:01:19.998Z</time></trkpt><trkpt lat="45.27503966359626" lon="9.449962932483356"><ele>77.0</ele><time>2026-04-30T06:01:20.998Z</time></trkpt><trkpt lat="45.27488324519666" lon="9.450221506575634"><ele>76.0</ele><time>2026-04-30T06:01:21.998Z</time></trkpt><trkpt lat="45.27472839355954" lon="9.450506983988229"><ele>75.0</ele><time>2026-04-30T06:01:22.998Z</time></trkpt><trkpt lat="45.2745628809624" lon="9.450742343181284"><ele>75.0</ele><time>2026-04-30T06:01:23.998Z</time></trkpt><trkpt lat="45.274395443810256" lon="9.450973898039452"><ele>75.0</ele><time>2026-04-30T06:01:24.998Z</time></trkpt><trkpt lat="45.27422067206241" lon="9.451198866057245"><ele>75.0</ele><time>2026-04-30T06:01:25.998Z</time></trkpt><trkpt lat="45.27405237277024" lon="9.451469869726793"><ele>75.0</ele><time>2026-04-30T06:01:26.998Z</time></trkpt><trkpt lat="45.27388710180894" lon="9.451736783854692"><ele>74.5</ele><time>2026-04-30T06:01:27.998Z</time></trkpt><trkpt lat="45.27371345073313" lon="9.452013002622158"><ele>74.0</ele><time>2026-04-30T06:01:28.998Z</time></trkpt><trkpt lat="45.27355351047267" lon="9.452269171963597"><ele>74.0</ele><time>2026-04-30T06:01:29.998Z</time></trkpt><trkpt lat="45.273365456535515" lon="9.452543929482543"><ele>74.0</ele><time>2026-04-30T06:01:30.998Z</time></trkpt><trkpt lat="45.27322154963916" lon="9.452807329136164"><ele>74.5</ele><time>2026-04-30T06:01:31.998Z</time></trkpt><trkpt lat="45.27308030438934" lon="9.453066696744921"><ele>75.0</ele><time>2026-04-30T06:01:32.998Z</time></trkpt><trkpt lat="45.272959507554646" lon="9.453332942691539"><ele>75.0</ele><time>2026-04-30T06:01:33.998Z</time></trkpt><trkpt lat="45.27281714102746" lon="9.453572565324931"><ele>75.0</ele><time>2026-04-30T06:01:34.998Z</time></trkpt><trkpt lat="45.27263938744637" lon="9.453804438197466"><ele>74.0</ele><time>2026-04-30T06:01:35.998Z</time></trkpt><trkpt lat="45.272480655576025" lon="9.454058467812123"><ele>73.0</ele><time>2026-04-30T06:01:36.998Z</time></trkpt><trkpt lat="45.27231524030912" lon="9.45428847490443"><ele>73.5</ele><time>2026-04-30T06:01:37.998Z</time></trkpt><trkpt lat="45.27215985014436" lon="9.454530895723131"><ele>74.0</ele><time>2026-04-30T06:01:38.998Z</time></trkpt><trkpt lat="45.27203173475612" lon="9.454793843433132"><ele>74.0</ele><time>2026-04-30T06:01:39.998Z</time></trkpt><trkpt lat="45.27189094969173" lon="9.455037429029314"><ele>74.0</ele><time>2026-04-30T06:01:40.998Z</time></trkpt><trkpt lat="45.27175112904244" lon="9.455292818175108"><ele>73.5</ele><time>2026-04-30T06:01:41.998Z</time></trkpt><trkpt lat="45.27155846276987" lon="9.455544904759488"><ele>73.0</ele><time>2026-04-30T06:01:42.998Z</time></trkpt><trkpt lat="45.27137852077098" lon="9.455788427368379"><ele>73.0</ele><time>2026-04-30T06:01:43.998Z</time></trkpt><trkpt lat="45.27121692564022" lon="9.456045734947278"><ele>73.0</ele><time>2026-04-30T06:01:44.998Z</time></trkpt><trkpt lat="45.271050514219525" lon="9.456300878341578"><ele>73.0</ele><time>2026-04-30T06:01:45.998Z</time></trkpt><trkpt lat="45.270880118197894" lon="9.456558336587536"><ele>73.0</ele><time>2026-04-30T06:01:46.998Z</time></trkpt><trkpt lat="45.27070419317588" lon="9.456798073356925"><ele>74.0</ele><time>2026-04-30T06:01:47.998Z</time></trkpt><trkpt lat="45.27053845970941" lon="9.457042799033466"><ele>75.0</ele><time>2026-04-30T06:01:48.998Z</time></trkpt><trkpt lat="45.27036497870094" lon="9.45728148656069"><ele>75.0</ele><time>2026-04-30T06:01:49.998Z</time></trkpt><trkpt lat="45.27019364489608" lon="9.457538606381199"><ele>75.0</ele><time>2026-04-30T06:01:50.998Z</time></trkpt><trkpt lat="45.27000875956136" lon="9.457776091160891"><ele>74.33333333333333</ele><time>2026-04-30T06:01:51.998Z</time></trkpt><trkpt lat="45.26987074434592" lon="9.458001646262375"><ele>73.66666666666666</ele><time>2026-04-30T06:01:52.998Z</time></trkpt><trkpt lat="45.269712395433736" lon="9.458229033074797"><ele>73.0</ele><time>2026-04-30T06:01:53.998Z</time></trkpt><trkpt lat="45.269540605359275" lon="9.458460915202629"><ele>73.0</ele><time>2026-04-30T06:01:54.998Z</time></trkpt><trkpt lat="45.269352262320744" lon="9.45868886387203"><ele>73.0</ele><time>2026-04-30T06:01:55.998Z</time></trkpt><trkpt lat="45.269190895152256" lon="9.458908742592046"><ele>72.5</ele><time>2026-04-30T06:01:56.998Z</time></trkpt><trkpt lat="45.26902061695013" lon="9.459144831180863"><ele>72.0</ele><time>2026-04-30T06:01:57.998Z</time></trkpt><trkpt lat="45.268852199288496" lon="9.459351765831094"><ele>73.0</ele><time>2026-04-30T06:01:58.998Z</time></trkpt><trkpt lat="45.268703193303466" lon="9.459591775528569"><ele>74.0</ele><time>2026-04-30T06:01:59.998Z</time></trkpt><trkpt lat="45.26848717327784" lon="9.459782272425374"><ele>74.0</ele><time>2026-04-30T06:02:00.998Z</time></trkpt><trkpt lat="45.268312484927826" lon="9.460013887298505"><ele>74.0</ele><time>2026-04-30T06:02:01.998Z</time></trkpt><trkpt lat="45.26811617039943" lon="9.460226472244994"><ele>73.5</ele><time>2026-04-30T06:02:02.998Z</time></trkpt><trkpt lat="45.26796434239051" lon="9.460471041014488"><ele>73.0</ele><time>2026-04-30T06:02:03.998Z</time></trkpt><trkpt lat="45.267804416636245" lon="9.460713799191732"><ele>73.0</ele><time>2026-04-30T06:02:04.998Z</time></trkpt><trkpt lat="45.2675996545634" lon="9.460895689190837"><ele>73.0</ele><time>2026-04-30T06:02:05.998Z</time></trkpt><trkpt lat="45.26744199655234" lon="9.461136621944002"><ele>73.0</ele><time>2026-04-30T06:02:06.998Z</time></trkpt><trkpt lat="45.26728601729214" lon="9.461349733733426"><ele>73.0</ele><time>2026-04-30T06:02:07.998Z</time></trkpt><trkpt lat="45.26712775863156" lon="9.461578266918218"><ele>73.0</ele><time>2026-04-30T06:02:08.998Z</time></trkpt><trkpt lat="45.26694539062773" lon="9.461783448328116"><ele>73.0</ele><time>2026-04-30T06:02:09.998Z</time></trkpt><trkpt lat="45.26682604582542" lon="9.462050112591633"><ele>73.0</ele><time>2026-04-30T06:02:10.998Z</time></trkpt><trkpt lat="45.26664934054873" lon="9.46223687656068"><ele>73.0</ele><time>2026-04-30T06:02:11.998Z</time></trkpt><trkpt lat="45.26648141583769" lon="9.46245229000787"><ele>73.0</ele><time>2026-04-30T06:02:12.998Z</time></trkpt><trkpt lat="45.26631750025977" lon="9.46267123280831"><ele>73.0</ele><time>2026-04-30T06:02:13.998Z</time></trkpt><trkpt lat="45.26614340223819" lon="9.462895784472348"><ele>72.5</ele><time>2026-04-30T06:02:14.998Z</time></trkpt><trkpt lat="45.26599058620364" lon="9.463146752843732"><ele>72.0</ele><time>2026-04-30T06:02:15.998Z</time></trkpt><trkpt lat="45.26583106420186" lon="9.463390123544245"><ele>72.0</ele><time>2026-04-30T06:02:16.998Z</time></trkpt><trkpt lat="45.265674688543186" lon="9.463650499731209"><ele>72.0</ele><time>2026-04-30T06:02:17.998Z</time></trkpt><trkpt lat="45.26550029257355" lon="9.463873557499443"><ele>72.5</ele><time>2026-04-30T06:02:19Z</time></trkpt><trkpt lat="45.26537186480088" lon="9.4641181174628"><ele>73.0</ele><time>2026-04-30T06:02:20Z</time></trkpt><trkpt lat="45.26518977461722" lon="9.464339499015805"><ele>73.0</ele><time>2026-04-30T06:02:21Z</time></trkpt><trkpt lat="45.265019773879175" lon="9.464533938469598"><ele>73.0</ele><time>2026-04-30T06:02:22Z</time></trkpt><trkpt lat="45.26484062633625" lon="9.464760514054884"><ele>72.5</ele><time>2026-04-30T06:02:23Z</time></trkpt><trkpt lat="45.26464808978225" lon="9.464979822369445"><ele>72.0</ele><time>2026-04-30T06:02:24Z</time></trkpt><trkpt lat="45.264478649921806" lon="9.46519438385276"><ele>72.0</ele><time>2026-04-30T06:02:25Z</time></trkpt><trkpt lat="45.26431741719089" lon="9.46541874657619"><ele>72.0</ele><time>2026-04-30T06:02:26Z</time></trkpt><trkpt lat="45.264160514978336" lon="9.46564754403521"><ele>72.0</ele><time>2026-04-30T06:02:27Z</time></trkpt><trkpt lat="45.2639810868349" lon="9.465858020470385"><ele>72.0</ele><time>2026-04-30T06:02:28Z</time></trkpt><trkpt lat="45.26381906295232" lon="9.466091615198795"><ele>73.5</ele><time>2026-04-30T06:02:29Z</time></trkpt><trkpt lat="45.2636387298797" lon="9.46631182876035"><ele>75.0</ele><time>2026-04-30T06:02:30Z</time></trkpt><trkpt lat="45.26350093234793" lon="9.466562135887793"><ele>75.0</ele><time>2026-04-30T06:02:31Z</time></trkpt><trkpt lat="45.263324647877624" lon="9.46678541110271"><ele>75.0</ele><time>2026-04-30T06:02:32Z</time></trkpt><trkpt lat="45.26316994157565" lon="9.467001472332424"><ele>74.0</ele><time>2026-04-30T06:02:33Z</time></trkpt><trkpt lat="45.2629866949618" lon="9.467248452114426"><ele>73.0</ele><time>2026-04-30T06:02:34Z</time></trkpt><trkpt lat="45.26283006498646" lon="9.46746142163378"><ele>73.0</ele><time>2026-04-30T06:02:35Z</time></trkpt><trkpt lat="45.26265849464403" lon="9.467645683299487"><ele>73.0</ele><time>2026-04-30T06:02:36Z</time></trkpt><trkpt lat="45.26245818103947" lon="9.467807166836225"><ele>73.0</ele><time>2026-04-30T06:02:37Z</time></trkpt><trkpt lat="45.262281667234184" lon="9.468011906420832"><ele>73.0</ele><time>2026-04-30T06:02:37.999Z</time></trkpt><trkpt lat="45.26209878185364" lon="9.468237417875669"><ele>73.0</ele><time>2026-04-30T06:02:38.999Z</time></trkpt><trkpt lat="45.26191545054048" lon="9.468456797397213"><ele>73.0</ele><time>2026-04-30T06:02:39.999Z</time></trkpt><trkpt lat="45.26177649709885" lon="9.468681239328017"><ele>73.0</ele><time>2026-04-30T06:02:40.999Z</time></trkpt><trkpt lat="45.26163365262806" lon="9.4688851256483"><ele>73.0</ele><time>2026-04-30T06:02:41.999Z</time></trkpt><trkpt lat="45.26148556314152" lon="9.46908573577922"><ele>72.66666666666666</ele><time>2026-04-30T06:02:42.999Z</time></trkpt><trkpt lat="45.26133514144144" lon="9.46929238358902"><ele>72.33333333333333</ele><time>2026-04-30T06:02:43.999Z</time></trkpt><trkpt lat="45.26115854233036" lon="9.469522890182073"><ele>72.0</ele><time>2026-04-30T06:02:44.999Z</time></trkpt><trkpt lat="45.26100454903152" lon="9.469709390158599"><ele>71.66666666666667</ele><time>2026-04-30T06:02:45.999Z</time></trkpt><trkpt lat="45.26088375279422" lon="9.469960868298463"><ele>71.33333333333334</ele><time>2026-04-30T06:02:46.998Z</time></trkpt><trkpt lat="45.26071810101325" lon="9.470140273728694"><ele>71.0</ele><time>2026-04-30T06:02:47.998Z</time></trkpt><trkpt lat="45.26056915466311" lon="9.470324387405906"><ele>71.0</ele><time>2026-04-30T06:02:48.998Z</time></trkpt><trkpt lat="45.26042166057349" lon="9.470528104625714"><ele>71.0</ele><time>2026-04-30T06:02:49.998Z</time></trkpt><trkpt lat="45.26026444575172" lon="9.470721424900344"><ele>71.0</ele><time>2026-04-30T06:02:50.998Z</time></trkpt><trkpt lat="45.260105137750024" lon="9.470916957529083"><ele>71.0</ele><time>2026-04-30T06:02:51.998Z</time></trkpt><trkpt lat="45.259967660307" lon="9.471125867323567"><ele>71.0</ele><time>2026-04-30T06:02:52.998Z</time></trkpt><trkpt lat="45.259819283651225" lon="9.471305792189497"><ele>71.0</ele><time>2026-04-30T06:02:53.998Z</time></trkpt><trkpt lat="45.259674280730685" lon="9.471504760380304"><ele>70.33333333333334</ele><time>2026-04-30T06:02:54.998Z</time></trkpt><trkpt lat="45.259513495249585" lon="9.4717096622814"><ele>69.66666666666667</ele><time>2026-04-30T06:02:55.998Z</time></trkpt><trkpt lat="45.25936091167917" lon="9.471918276087148"><ele>69.0</ele><time>2026-04-30T06:02:56.998Z</time></trkpt><trkpt lat="45.25921161642627" lon="9.472120252006574"><ele>69.0</ele><time>2026-04-30T06:02:57.998Z</time></trkpt><trkpt lat="45.259054538933206" lon="9.472347580078893"><ele>69.0</ele><time>2026-04-30T06:02:58.998Z</time></trkpt><trkpt lat="45.25890308807059" lon="9.472575124210898"><ele>69.0</ele><time>2026-04-30T06:02:59.998Z</time></trkpt><trkpt lat="45.25871644418958" lon="9.472809139601315"><ele>70.0</ele><time>2026-04-30T06:03:00.998Z</time></trkpt><trkpt lat="45.25855412754232" lon="9.473034484014462"><ele>71.0</ele><time>2026-04-30T06:03:01.998Z</time></trkpt><trkpt lat="45.25835878514502" lon="9.47324072169632"><ele>71.0</ele><time>2026-04-30T06:03:02.998Z</time></trkpt><trkpt lat="45.25817683946137" lon="9.47348052093927"><ele>71.0</ele><time>2026-04-30T06:03:03.998Z</time></trkpt><trkpt lat="45.257998843115615" lon="9.47369902861467"><ele>70.5</ele><time>2026-04-30T06:03:04.998Z</time></trkpt><trkpt lat="45.257833936454894" lon="9.473924893761506"><ele>70.0</ele><time>2026-04-30T06:03:05.998Z</time></trkpt><trkpt lat="45.257677300535796" lon="9.474170110468279"><ele>70.0</ele><time>2026-04-30T06:03:06.998Z</time></trkpt><trkpt lat="45.257494544747125" lon="9.474383360409002"><ele>70.0</ele><time>2026-04-30T06:03:07.997Z</time></trkpt><trkpt lat="45.25732744766052" lon="9.474608970582652"><ele>69.5</ele><time>2026-04-30T06:03:08.997Z</time></trkpt><trkpt lat="45.25714621117062" lon="9.474816006316363"><ele>69.0</ele><time>2026-04-30T06:03:09.997Z</time></trkpt><trkpt lat="45.25695651537745" lon="9.47502612893284"><ele>69.0</ele><time>2026-04-30T06:03:10.997Z</time></trkpt><trkpt lat="45.25678516855723" lon="9.475241689562854"><ele>69.0</ele><time>2026-04-30T06:03:11.997Z</time></trkpt><trkpt lat="45.25662046639289" lon="9.475459761430173"><ele>69.33333333333333</ele><time>2026-04-30T06:03:12.997Z</time></trkpt><trkpt lat="45.256483035446266" lon="9.475688896421627"><ele>69.66666666666666</ele><time>2026-04-30T06:03:13.997Z</time></trkpt><trkpt lat="45.25635451451383" lon="9.47591150416492"><ele>70.0</ele><time>2026-04-30T06:03:14.997Z</time></trkpt><trkpt lat="45.256174306055556" lon="9.476170828603756"><ele>70.0</ele><time>2026-04-30T06:03:15.997Z</time></trkpt><trkpt lat="45.25601976051956" lon="9.476355118492004"><ele>70.0</ele><time>2026-04-30T06:03:16.997Z</time></trkpt><trkpt lat="45.25586694142597" lon="9.47655614174981"><ele>70.0</ele><time>2026-04-30T06:03:17.997Z</time></trkpt><trkpt lat="45.2556965473118" lon="9.476786822883177"><ele>70.0</ele><time>2026-04-30T06:03:18.997Z</time></trkpt><trkpt lat="45.255543606572495" lon="9.477000290747752"><ele>70.0</ele><time>2026-04-30T06:03:19.997Z</time></trkpt><trkpt lat="45.255388267457604" lon="9.477216861672433"><ele>70.0</ele><time>2026-04-30T06:03:20.997Z</time></trkpt><trkpt lat="45.25521139232221" lon="9.477420569096537"><ele>71.0</ele><time>2026-04-30T06:03:21.997Z</time></trkpt><trkpt lat="45.25504313079112" lon="9.47763636486187"><ele>72.0</ele><time>2026-04-30T06:03:22.997Z</time></trkpt><trkpt lat="45.25486452631011" lon="9.477842835134043"><ele>72.0</ele><time>2026-04-30T06:03:23.997Z</time></trkpt><trkpt lat="45.2546956233352" lon="9.4780464972363"><ele>72.0</ele><time>2026-04-30T06:03:24.997Z</time></trkpt><trkpt lat="45.254550965245976" lon="9.478279849490352"><ele>72.0</ele><time>2026-04-30T06:03:25.997Z</time></trkpt><trkpt lat="45.25438115714521" lon="9.47848324348797"><ele>72.0</ele><time>2026-04-30T06:03:26.997Z</time></trkpt><trkpt lat="45.25423032071898" lon="9.478712820893582"><ele>72.0</ele><time>2026-04-30T06:03:27.997Z</time></trkpt><trkpt lat="45.25406471668733" lon="9.47894866901894"><ele>71.66666666666667</ele><time>2026-04-30T06:03:28.997Z</time></trkpt><trkpt lat="45.25390526294286" lon="9.479164311108054"><ele>71.33333333333334</ele><time>2026-04-30T06:03:29.997Z</time></trkpt><trkpt lat="45.25374831683971" lon="9.479375394255367"><ele>71.0</ele><time>2026-04-30T06:03:30.997Z</time></trkpt><trkpt lat="45.253581850446565" lon="9.47958761464551"><ele>71.0</ele><time>2026-04-30T06:03:31.997Z</time></trkpt><trkpt lat="45.253417262087254" lon="9.479802713593537"><ele>71.0</ele><time>2026-04-30T06:03:32.997Z</time></trkpt><trkpt lat="45.25324042459411" lon="9.480012433737631"><ele>71.0</ele><time>2026-04-30T06:03:33.997Z</time></trkpt><trkpt lat="45.25305833679609" lon="9.480208485652362"><ele>71.0</ele><time>2026-04-30T06:03:34.997Z</time></trkpt><trkpt lat="45.25288091291726" lon="9.48042681627547"><ele>71.0</ele><time>2026-04-30T06:03:35.997Z</time></trkpt><trkpt lat="45.25273110812022" lon="9.480662508509923"><ele>71.0</ele><time>2026-04-30T06:03:36.997Z</time></trkpt><trkpt lat="45.25255038455417" lon="9.480887105838708"><ele>71.0</ele><time>2026-04-30T06:03:37.997Z</time></trkpt><trkpt lat="45.2523794992018" lon="9.481112277518493"><ele>71.0</ele><time>2026-04-30T06:03:38.997Z</time></trkpt><trkpt lat="45.25220355486132" lon="9.481324374851837"><ele>71.0</ele><time>2026-04-30T06:03:39.997Z</time></trkpt><trkpt lat="45.252026238593864" lon="9.481544216991447"><ele>71.0</ele><time>2026-04-30T06:03:40.997Z</time></trkpt><trkpt lat="45.25185722641196" lon="9.481769264171888"><ele>71.0</ele><time>2026-04-30T06:03:41.997Z</time></trkpt><trkpt lat="45.25167742846383" lon="9.481967903335471"><ele>71.0</ele><time>2026-04-30T06:03:42.997Z</time></trkpt><trkpt lat="45.251521659421705" lon="9.482200059633762"><ele>70.0</ele><time>2026-04-30T06:03:43.997Z</time></trkpt><trkpt lat="45.25135985681488" lon="9.482431150847605"><ele>69.0</ele><time>2026-04-30T06:03:44.997Z</time></trkpt><trkpt lat="45.251194914469686" lon="9.482652326856899"><ele>69.0</ele><time>2026-04-30T06:03:45.997Z</time></trkpt><trkpt lat="45.2510012901597" lon="9.48285445135511"><ele>69.0</ele><time>2026-04-30T06:03:46.997Z</time></trkpt><trkpt lat="45.25082952905808" lon="9.48308419677035"><ele>69.5</ele><time>2026-04-30T06:03:47.997Z</time></trkpt><trkpt lat="45.250647245631214" lon="9.483302247188261"><ele>70.0</ele><time>2026-04-30T06:03:48.997Z</time></trkpt><trkpt lat="45.25050226127883" lon="9.483539196755846"><ele>70.0</ele><time>2026-04-30T06:03:49.997Z</time></trkpt><trkpt lat="45.25033886604931" lon="9.483775542084787"><ele>70.0</ele><time>2026-04-30T06:03:50.997Z</time></trkpt><trkpt lat="45.25017941885575" lon="9.484003584478666"><ele>70.0</ele><time>2026-04-30T06:03:51.997Z</time></trkpt><trkpt lat="45.250016529575106" lon="9.484234177744812"><ele>70.0</ele><time>2026-04-30T06:03:52.997Z</time></trkpt><trkpt lat="45.24985222016192" lon="9.484457961529863"><ele>69.5</ele><time>2026-04-30T06:03:53.997Z</time></trkpt><trkpt lat="45.249678690610025" lon="9.484660727302513"><ele>69.0</ele><time>2026-04-30T06:03:54.997Z</time></trkpt><trkpt lat="45.2495029153578" lon="9.484863496628284"><ele>69.0</ele><time>2026-04-30T06:03:55.997Z</time></trkpt><trkpt lat="45.249320457964885" lon="9.485067785793698"><ele>69.0</ele><time>2026-04-30T06:03:56.997Z</time></trkpt><trkpt lat="45.249159731878784" lon="9.485281326311306"><ele>69.0</ele><time>2026-04-30T06:03:57.997Z</time></trkpt><trkpt lat="45.24900539704856" lon="9.485502018684725"><ele>69.0</ele><time>2026-04-30T06:03:58.997Z</time></trkpt><trkpt lat="45.24886185039201" lon="9.485706598083173"><ele>69.0</ele><time>2026-04-30T06:03:59.997Z</time></trkpt><trkpt lat="45.24869969552245" lon="9.485930570558876"><ele>69.0</ele><time>2026-04-30T06:04:00.997Z</time></trkpt><trkpt lat="45.24853422976575" lon="9.486157207896488"><ele>69.0</ele><time>2026-04-30T06:04:01.997Z</time></trkpt><trkpt lat="45.248379868807525" lon="9.486367593046502"><ele>69.0</ele><time>2026-04-30T06:04:02.997Z</time></trkpt><trkpt lat="45.248211696041075" lon="9.486546543048538"><ele>69.33333333333333</ele><time>2026-04-30T06:04:03.997Z</time></trkpt><trkpt lat="45.24808541827255" lon="9.486766631926981"><ele>69.66666666666666</ele><time>2026-04-30T06:04:04.997Z</time></trkpt><trkpt lat="45.24795094450119" lon="9.486984328081784"><ele>70.0</ele><time>2026-04-30T06:04:05.997Z</time></trkpt><trkpt lat="45.24780178163849" lon="9.487175138138412"><ele>70.0</ele><time>2026-04-30T06:04:06.997Z</time></trkpt><trkpt lat="45.24766416091702" lon="9.487347183916588"><ele>70.0</ele><time>2026-04-30T06:04:07.997Z</time></trkpt><trkpt lat="45.24751370086732" lon="9.48757595455784"><ele>70.0</ele><time>2026-04-30T06:04:08.997Z</time></trkpt><trkpt lat="45.247360373274766" lon="9.487801320859717"><ele>71.0</ele><time>2026-04-30T06:04:09.997Z</time></trkpt><trkpt lat="45.247200882659" lon="9.488021154922842"><ele>72.0</ele><time>2026-04-30T06:04:10.997Z</time></trkpt><trkpt lat="45.24703228888563" lon="9.488241928289872"><ele>72.0</ele><time>2026-04-30T06:04:11.997Z</time></trkpt><trkpt lat="45.24686704024314" lon="9.48845958779785"><ele>72.0</ele><time>2026-04-30T06:04:12.997Z</time></trkpt><trkpt lat="45.24670942546655" lon="9.488661319325427"><ele>72.0</ele><time>2026-04-30T06:04:13.997Z</time></trkpt><trkpt lat="45.24653807474296" lon="9.488853902856443"><ele>71.66666666666667</ele><time>2026-04-30T06:04:14.997Z</time></trkpt><trkpt lat="45.246372482968816" lon="9.489030667053443"><ele>71.33333333333334</ele><time>2026-04-30T06:04:15.997Z</time></trkpt><trkpt lat="45.246207141352286" lon="9.489224044239352"><ele>71.0</ele><time>2026-04-30T06:04:16.997Z</time></trkpt><trkpt lat="45.24604988855691" lon="9.489423332048073"><ele>71.0</ele><time>2026-04-30T06:04:17.997Z</time></trkpt><trkpt lat="45.24588076512744" lon="9.489627815637538"><ele>71.0</ele><time>2026-04-30T06:04:18.997Z</time></trkpt><trkpt lat="45.24575318182405" lon="9.489872754927326"><ele>71.0</ele><time>2026-04-30T06:04:19.997Z</time></trkpt><trkpt lat="45.245589195430846" lon="9.490084827413444"><ele>71.0</ele><time>2026-04-30T06:04:20.997Z</time></trkpt><trkpt lat="45.24540632903589" lon="9.49029500988476"><ele>71.0</ele><time>2026-04-30T06:04:21.997Z</time></trkpt><trkpt lat="45.24523183771433" lon="9.490509761158238"><ele>70.33333333333334</ele><time>2026-04-30T06:04:22.997Z</time></trkpt><trkpt lat="45.24505866069957" lon="9.490721428047767"><ele>69.66666666666667</ele><time>2026-04-30T06:04:23.997Z</time></trkpt><trkpt lat="45.2449295855888" lon="9.49095554665854"><ele>69.0</ele><time>2026-04-30T06:04:24.997Z</time></trkpt><trkpt lat="45.244777054305054" lon="9.491182409050149"><ele>69.33333333333333</ele><time>2026-04-30T06:04:25.997Z</time></trkpt><trkpt lat="45.2446118825365" lon="9.491390255371973"><ele>69.66666666666666</ele><time>2026-04-30T06:04:26.997Z</time></trkpt><trkpt lat="45.24445424954862" lon="9.491595886779042"><ele>70.0</ele><time>2026-04-30T06:04:27.997Z</time></trkpt><trkpt lat="45.24430093183013" lon="9.491813130518914"><ele>70.0</ele><time>2026-04-30T06:04:28.997Z</time></trkpt><trkpt lat="45.24413408789075" lon="9.492014198950987"><ele>70.0</ele><time>2026-04-30T06:04:29.997Z</time></trkpt><trkpt lat="45.24394728849489" lon="9.492212799146428"><ele>70.66666666666666</ele><time>2026-04-30T06:04:30.997Z</time></trkpt><trkpt lat="45.24377651280308" lon="9.492431645435097"><ele>71.33333333333333</ele><time>2026-04-30T06:04:31.997Z</time></trkpt><trkpt lat="45.243628946777925" lon="9.49263778465546"><ele>72.0</ele><time>2026-04-30T06:04:32.997Z</time></trkpt><trkpt lat="45.24347204757552" lon="9.492842762806143"><ele>71.33333333333333</ele><time>2026-04-30T06:04:33.997Z</time></trkpt><trkpt lat="45.24332145237986" lon="9.493046771361016"><ele>70.66666666666666</ele><time>2026-04-30T06:04:34.997Z</time></trkpt><trkpt lat="45.24316774532751" lon="9.4932698839824"><ele>70.0</ele><time>2026-04-30T06:04:35.997Z</time></trkpt><trkpt lat="45.24300601552711" lon="9.493465882472181"><ele>70.0</ele><time>2026-04-30T06:04:36.997Z</time></trkpt><trkpt lat="45.24283794175813" lon="9.493662546006561"><ele>70.0</ele><time>2026-04-30T06:04:37.997Z</time></trkpt><trkpt lat="45.24268043877157" lon="9.493886082671741"><ele>70.0</ele><time>2026-04-30T06:04:38.997Z</time></trkpt><trkpt lat="45.24252386626851" lon="9.494116020854939"><ele>69.5</ele><time>2026-04-30T06:04:39.997Z</time></trkpt><trkpt lat="45.24235435200226" lon="9.49432773307471"><ele>69.0</ele><time>2026-04-30T06:04:40.997Z</time></trkpt><trkpt lat="45.24218321353549" lon="9.494538610558887"><ele>69.0</ele><time>2026-04-30T06:04:41.997Z</time></trkpt><trkpt lat="45.24203119275529" lon="9.494726243519098"><ele>69.0</ele><time>2026-04-30T06:04:42.997Z</time></trkpt><trkpt lat="45.24186301098738" lon="9.494912369088995"><ele>69.0</ele><time>2026-04-30T06:04:43.997Z</time></trkpt><trkpt lat="45.24171369879073" lon="9.495125174139941"><ele>69.0</ele><time>2026-04-30T06:04:44.997Z</time></trkpt><trkpt lat="45.24156020638103" lon="9.495342441880954"><ele>69.0</ele><time>2026-04-30T06:04:45.997Z</time></trkpt><trkpt lat="45.2414017235516" lon="9.495564856944489"><ele>69.0</ele><time>2026-04-30T06:04:46.997Z</time></trkpt><trkpt lat="45.241233758416016" lon="9.495764150850459"><ele>69.0</ele><time>2026-04-30T06:04:47.997Z</time></trkpt><trkpt lat="45.241070584586005" lon="9.495962156414276"><ele>69.0</ele><time>2026-04-30T06:04:48.997Z</time></trkpt><trkpt lat="45.24090138540397" lon="9.496195463216143"><ele>69.0</ele><time>2026-04-30T06:04:49.997Z</time></trkpt><trkpt lat="45.24074068632362" lon="9.49641273904148"><ele>69.0</ele><time>2026-04-30T06:04:50.997Z</time></trkpt><trkpt lat="45.24059043954209" lon="9.496643022447833"><ele>69.0</ele><time>2026-04-30T06:04:51.997Z</time></trkpt><trkpt lat="45.2404117972102" lon="9.49684008796502"><ele>69.0</ele><time>2026-04-30T06:04:52.997Z</time></trkpt><trkpt lat="45.24023508240717" lon="9.497083116047373"><ele>69.0</ele><time>2026-04-30T06:04:53.997Z</time></trkpt><trkpt lat="45.24006170148971" lon="9.49728695324096"><ele>69.0</ele><time>2026-04-30T06:04:54.997Z</time></trkpt><trkpt lat="45.23990762718406" lon="9.49750260064511"><ele>69.0</ele><time>2026-04-30T06:04:55.997Z</time></trkpt><trkpt lat="45.23974266390905" lon="9.49771317063498"><ele>69.0</ele><time>2026-04-30T06:04:56.997Z</time></trkpt><trkpt lat="45.239584699054014" lon="9.497939794844193"><ele>69.33333333333333</ele><time>2026-04-30T06:04:57.997Z</time></trkpt><trkpt lat="45.239434982508655" lon="9.498147931064487"><ele>69.66666666666666</ele><time>2026-04-30T06:04:58.997Z</time></trkpt><trkpt lat="45.239274248194484" lon="9.498355524284392"><ele>70.0</ele><time>2026-04-30T06:04:59.997Z</time></trkpt><trkpt lat="45.23912034337369" lon="9.498551361703633"><ele>70.0</ele><time>2026-04-30T06:05:00.997Z</time></trkpt><trkpt lat="45.23896154457712" lon="9.498759198506017"><ele>70.0</ele><time>2026-04-30T06:05:01.997Z</time></trkpt><trkpt lat="45.238807858694564" lon="9.498971855570073"><ele>70.0</ele><time>2026-04-30T06:05:02.997Z</time></trkpt><trkpt lat="45.238653579315496" lon="9.499190088309996"><ele>70.0</ele><time>2026-04-30T06:05:03.997Z</time></trkpt><trkpt lat="45.23848420871757" lon="9.49938761586225"><ele>70.0</ele><time>2026-04-30T06:05:04.997Z</time></trkpt><trkpt lat="45.23833343255456" lon="9.49958915138521"><ele>70.0</ele><time>2026-04-30T06:05:05.997Z</time></trkpt><trkpt lat="45.23817634200017" lon="9.499808948937408"><ele>70.0</ele><time>2026-04-30T06:05:06.997Z</time></trkpt><trkpt lat="45.23801881110858" lon="9.500018884098134"><ele>70.0</ele><time>2026-04-30T06:05:07.997Z</time></trkpt><trkpt lat="45.237848849861706" lon="9.500225048103735"><ele>70.0</ele><time>2026-04-30T06:05:08.997Z</time></trkpt><trkpt lat="45.237675330433454" lon="9.500433227828978"><ele>70.0</ele><time>2026-04-30T06:05:09.997Z</time></trkpt><trkpt lat="45.237498785370576" lon="9.500648166893939"><ele>70.0</ele><time>2026-04-30T06:05:10.997Z</time></trkpt><trkpt lat="45.237337076780825" lon="9.500877092185947"><ele>69.5</ele><time>2026-04-30T06:05:11.997Z</time></trkpt><trkpt lat="45.23715419193682" lon="9.501079313900888"><ele>69.0</ele><time>2026-04-30T06:05:12.997Z</time></trkpt><trkpt lat="45.2369765156632" lon="9.501292065528341"><ele>70.0</ele><time>2026-04-30T06:05:13.997Z</time></trkpt><trkpt lat="45.23681812509444" lon="9.501512820793698"><ele>71.0</ele><time>2026-04-30T06:05:14.997Z</time></trkpt><trkpt lat="45.236623719872576" lon="9.501735011630341"><ele>71.0</ele><time>2026-04-30T06:05:15.997Z</time></trkpt><trkpt lat="45.23645219052627" lon="9.501950690308785"><ele>71.0</ele><time>2026-04-30T06:05:16.997Z</time></trkpt><trkpt lat="45.23628027177661" lon="9.502163121771458"><ele>71.0</ele><time>2026-04-30T06:05:17.997Z</time></trkpt><trkpt lat="45.23612227865774" lon="9.502391153074475"><ele>71.0</ele><time>2026-04-30T06:05:18.997Z</time></trkpt><trkpt lat="45.235974677377634" lon="9.502646322800032"><ele>71.0</ele><time>2026-04-30T06:05:19.997Z</time></trkpt><trkpt lat="45.23582701686922" lon="9.502887017415937"><ele>71.0</ele><time>2026-04-30T06:05:20.997Z</time></trkpt><trkpt lat="45.23566645738625" lon="9.503133094729323"><ele>70.33333333333334</ele><time>2026-04-30T06:05:21.997Z</time></trkpt><trkpt lat="45.23550367815321" lon="9.503361330175922"><ele>69.66666666666667</ele><time>2026-04-30T06:05:22.997Z</time></trkpt><trkpt lat="45.23533409827198" lon="9.50355459151109"><ele>69.0</ele><time>2026-04-30T06:05:23.997Z</time></trkpt><trkpt lat="45.23516350346766" lon="9.503749435797873"><ele>68.66666666666667</ele><time>2026-04-30T06:05:24.997Z</time></trkpt><trkpt lat="45.23498594032102" lon="9.503954986827228"><ele>68.33333333333334</ele><time>2026-04-30T06:05:25.997Z</time></trkpt><trkpt lat="45.2348370381627" lon="9.504148166217677"><ele>68.0</ele><time>2026-04-30T06:05:26.997Z</time></trkpt><trkpt lat="45.23470258011246" lon="9.504386691117288"><ele>68.0</ele><time>2026-04-30T06:05:27.997Z</time></trkpt><trkpt lat="45.23453948816557" lon="9.504606482364768"><ele>68.0</ele><time>2026-04-30T06:05:28.997Z</time></trkpt><trkpt lat="45.234384111679994" lon="9.50483237160537"><ele>68.0</ele><time>2026-04-30T06:05:29.997Z</time></trkpt><trkpt lat="45.234239439202234" lon="9.50505412649703"><ele>68.0</ele><time>2026-04-30T06:05:30.997Z</time></trkpt><trkpt lat="45.23407344281381" lon="9.505262771153149"><ele>68.0</ele><time>2026-04-30T06:05:31.997Z</time></trkpt><trkpt lat="45.233912067639075" lon="9.505460205416249"><ele>68.0</ele><time>2026-04-30T06:05:32.997Z</time></trkpt><trkpt lat="45.233729389197464" lon="9.505685125377727"><ele>68.0</ele><time>2026-04-30T06:05:33.997Z</time></trkpt><trkpt lat="45.23356226265413" lon="9.505885211839425"><ele>68.0</ele><time>2026-04-30T06:05:34.997Z</time></trkpt><trkpt lat="45.2334176331065" lon="9.506088238896945"><ele>68.0</ele><time>2026-04-30T06:05:35.997Z</time></trkpt><trkpt lat="45.23327570999585" lon="9.506292036260751"><ele>68.0</ele><time>2026-04-30T06:05:36.997Z</time></trkpt><trkpt lat="45.23314215857951" lon="9.506500628018228"><ele>68.0</ele><time>2026-04-30T06:05:37.997Z</time></trkpt><trkpt lat="45.232991841649955" lon="9.50672297548524"><ele>68.0</ele><time>2026-04-30T06:05:38.997Z</time></trkpt><trkpt lat="45.23280807970474" lon="9.506936063811485"><ele>68.66666666666667</ele><time>2026-04-30T06:05:39.997Z</time></trkpt><trkpt lat="45.23265413885379" lon="9.507137889856397"><ele>69.33333333333333</ele><time>2026-04-30T06:05:40.997Z</time></trkpt><trkpt lat="45.23249390251955" lon="9.507347969582504"><ele>70.0</ele><time>2026-04-30T06:05:41.997Z</time></trkpt><trkpt lat="45.2323139415869" lon="9.507584140987527"><ele>69.0</ele><time>2026-04-30T06:05:42.997Z</time></trkpt><trkpt lat="45.23214889584398" lon="9.507814924613802"><ele>68.0</ele><time>2026-04-30T06:05:43.997Z</time></trkpt><trkpt lat="45.23196852861474" lon="9.508046777967257"><ele>67.5</ele><time>2026-04-30T06:05:44.997Z</time></trkpt><trkpt lat="45.231800173370196" lon="9.508265228599074"><ele>67.0</ele><time>2026-04-30T06:05:45.997Z</time></trkpt><trkpt lat="45.231629340207945" lon="9.508489783459023"><ele>67.0</ele><time>2026-04-30T06:05:46.997Z</time></trkpt><trkpt lat="45.23147059597068" lon="9.508702992064926"><ele>67.0</ele><time>2026-04-30T06:05:47.997Z</time></trkpt><trkpt lat="45.23129532722148" lon="9.508912515878439"><ele>67.0</ele><time>2026-04-30T06:05:48.997Z</time></trkpt><trkpt lat="45.23111310991848" lon="9.509135302562257"><ele>67.0</ele><time>2026-04-30T06:05:49.997Z</time></trkpt><trkpt lat="45.23091932774643" lon="9.509359582230706"><ele>67.0</ele><time>2026-04-30T06:05:50.997Z</time></trkpt><trkpt lat="45.230752403753165" lon="9.509587695325449"><ele>67.5</ele><time>2026-04-30T06:05:51.997Z</time></trkpt><trkpt lat="45.23059259933256" lon="9.509856247551333"><ele>68.0</ele><time>2026-04-30T06:05:52.997Z</time></trkpt><trkpt lat="45.23041045782143" lon="9.510085603414842"><ele>68.0</ele><time>2026-04-30T06:05:53.997Z</time></trkpt><trkpt lat="45.2302316155937" lon="9.510346112194297"><ele>68.0</ele><time>2026-04-30T06:05:54.997Z</time></trkpt><trkpt lat="45.230053411523066" lon="9.510581305361523"><ele>68.0</ele><time>2026-04-30T06:05:55.997Z</time></trkpt><trkpt lat="45.22987238429612" lon="9.510814579160053"><ele>68.0</ele><time>2026-04-30T06:05:56.997Z</time></trkpt><trkpt lat="45.229681821261984" lon="9.51100347499425"><ele>68.0</ele><time>2026-04-30T06:05:57.997Z</time></trkpt><trkpt lat="45.22948345446713" lon="9.51121282927208"><ele>68.0</ele><time>2026-04-30T06:05:58.997Z</time></trkpt><trkpt lat="45.22928808338327" lon="9.51142881025105"><ele>68.0</ele><time>2026-04-30T06:05:59.997Z</time></trkpt><trkpt lat="45.22911249451869" lon="9.511672974983865"><ele>68.0</ele><time>2026-04-30T06:06:00.997Z</time></trkpt><trkpt lat="45.22894462178784" lon="9.511921080210795"><ele>68.5</ele><time>2026-04-30T06:06:01.997Z</time></trkpt><trkpt lat="45.228766816899196" lon="9.512157980758666"><ele>69.0</ele><time>2026-04-30T06:06:02.997Z</time></trkpt><trkpt lat="45.228569797566436" lon="9.512373648574185"><ele>69.0</ele><time>2026-04-30T06:06:03.997Z</time></trkpt><trkpt lat="45.22836523905308" lon="9.51258992419951"><ele>69.0</ele><time>2026-04-30T06:06:04.997Z</time></trkpt><trkpt lat="45.22816948559264" lon="9.512782551709316"><ele>67.5</ele><time>2026-04-30T06:06:05.997Z</time></trkpt><trkpt lat="45.22798851374768" lon="9.513008175187865"><ele>66.0</ele><time>2026-04-30T06:06:06.997Z</time></trkpt><trkpt lat="45.227841761994206" lon="9.51323237116358"><ele>66.0</ele><time>2026-04-30T06:06:07.997Z</time></trkpt><trkpt lat="45.22772082155366" lon="9.513491760030856"><ele>66.0</ele><time>2026-04-30T06:06:08.997Z</time></trkpt><trkpt lat="45.227554180324056" lon="9.513701853831705"><ele>66.0</ele><time>2026-04-30T06:06:09.997Z</time></trkpt><trkpt lat="45.227379809943294" lon="9.513915063248575"><ele>66.5</ele><time>2026-04-30T06:06:10.997Z</time></trkpt><trkpt lat="45.22721405974641" lon="9.514150319569405"><ele>67.0</ele><time>2026-04-30T06:06:11.997Z</time></trkpt><trkpt lat="45.227051562645585" lon="9.51436747644718"><ele>66.66666666666666</ele><time>2026-04-30T06:06:12.997Z</time></trkpt><trkpt lat="45.22690821762836" lon="9.514593669810305"><ele>66.33333333333333</ele><time>2026-04-30T06:06:13.997Z</time></trkpt><trkpt lat="45.22674322760235" lon="9.514797166347963"><ele>66.0</ele><time>2026-04-30T06:06:14.997Z</time></trkpt><trkpt lat="45.22656174501512" lon="9.515031897439565"><ele>66.5</ele><time>2026-04-30T06:06:15.997Z</time></trkpt><trkpt lat="45.2263961857571" lon="9.515264087742587"><ele>67.0</ele><time>2026-04-30T06:06:16.997Z</time></trkpt><trkpt lat="45.22622485423135" lon="9.515502854091135"><ele>67.0</ele><time>2026-04-30T06:06:17.997Z</time></trkpt><trkpt lat="45.22603726052344" lon="9.515709438854284"><ele>67.0</ele><time>2026-04-30T06:06:18.997Z</time></trkpt><trkpt lat="45.22586767021813" lon="9.51591539242758"><ele>67.0</ele><time>2026-04-30T06:06:19.997Z</time></trkpt><trkpt lat="45.225672184117556" lon="9.516114701234542"><ele>67.0</ele><time>2026-04-30T06:06:20.997Z</time></trkpt><trkpt lat="45.22548997079042" lon="9.516319783805928"><ele>66.66666666666666</ele><time>2026-04-30T06:06:21.997Z</time></trkpt><trkpt lat="45.22531350556075" lon="9.516514433728215"><ele>66.33333333333333</ele><time>2026-04-30T06:06:22.997Z</time></trkpt><trkpt lat="45.22519000688059" lon="9.516757451445834"><ele>66.0</ele><time>2026-04-30T06:06:23.997Z</time></trkpt><trkpt lat="45.22505338891884" lon="9.516994270749539"><ele>65.66666666666667</ele><time>2026-04-30T06:06:24.997Z</time></trkpt><trkpt lat="45.22490740256591" lon="9.517222496128744"><ele>65.33333333333334</ele><time>2026-04-30T06:06:25.997Z</time></trkpt><trkpt lat="45.22475169821497" lon="9.517462246729181"><ele>65.0</ele><time>2026-04-30T06:06:26.997Z</time></trkpt><trkpt lat="45.22459190677907" lon="9.517679777376685"><ele>65.0</ele><time>2026-04-30T06:06:27.997Z</time></trkpt><trkpt lat="45.22442478861976" lon="9.517896833329344"><ele>65.0</ele><time>2026-04-30T06:06:28.997Z</time></trkpt><trkpt lat="45.22426864770665" lon="9.518144540279483"><ele>65.66666666666667</ele><time>2026-04-30T06:06:29.997Z</time></trkpt><trkpt lat="45.22409485189447" lon="9.518353601419257"><ele>66.33333333333333</ele><time>2026-04-30T06:06:30.997Z</time></trkpt><trkpt lat="45.2239356056692" lon="9.518569782983239"><ele>67.0</ele><time>2026-04-30T06:06:31.997Z</time></trkpt><trkpt lat="45.2237368356902" lon="9.518781382743253"><ele>67.0</ele><time>2026-04-30T06:06:32.997Z</time></trkpt><trkpt lat="45.22353920752273" lon="9.5189844602736"><ele>67.0</ele><time>2026-04-30T06:06:33.997Z</time></trkpt><trkpt lat="45.22336594182868" lon="9.519166731413229"><ele>67.0</ele><time>2026-04-30T06:06:34.997Z</time></trkpt><trkpt lat="45.2231786023446" lon="9.519385084139742"><ele>67.0</ele><time>2026-04-30T06:06:35.996Z</time></trkpt><trkpt lat="45.223029519742404" lon="9.519625850337102"><ele>66.0</ele><time>2026-04-30T06:06:36.996Z</time></trkpt><trkpt lat="45.22287164186051" lon="9.519872946505204"><ele>65.0</ele><time>2026-04-30T06:06:37.996Z</time></trkpt><trkpt lat="45.222718654189826" lon="9.52011147419484"><ele>65.0</ele><time>2026-04-30T06:06:38.996Z</time></trkpt><trkpt lat="45.22255558810166" lon="9.520352750294018"><ele>65.0</ele><time>2026-04-30T06:06:39.996Z</time></trkpt><trkpt lat="45.22240623104349" lon="9.520586098242903"><ele>66.0</ele><time>2026-04-30T06:06:40.996Z</time></trkpt><trkpt lat="45.22223960572125" lon="9.520807031384484"><ele>67.0</ele><time>2026-04-30T06:06:41.996Z</time></trkpt><trkpt lat="45.2220635844184" lon="9.521004969866144"><ele>67.0</ele><time>2026-04-30T06:06:42.996Z</time></trkpt><trkpt lat="45.22190973134956" lon="9.52124641577312"><ele>67.0</ele><time>2026-04-30T06:06:43.996Z</time></trkpt><trkpt lat="45.22172468473095" lon="9.521451444284871"><ele>67.0</ele><time>2026-04-30T06:06:44.996Z</time></trkpt><trkpt lat="45.221541556241625" lon="9.521646427906022"><ele>67.0</ele><time>2026-04-30T06:06:45.996Z</time></trkpt><trkpt lat="45.221380541165395" lon="9.521864601124314"><ele>66.5</ele><time>2026-04-30T06:06:46.996Z</time></trkpt><trkpt lat="45.22120567376974" lon="9.522091289067708"><ele>66.0</ele><time>2026-04-30T06:06:47.996Z</time></trkpt><trkpt lat="45.22102514532917" lon="9.52231966779752"><ele>66.0</ele><time>2026-04-30T06:06:48.996Z</time></trkpt><trkpt lat="45.22085350319308" lon="9.522568208912208"><ele>66.0</ele><time>2026-04-30T06:06:49.996Z</time></trkpt><trkpt lat="45.22069077451369" lon="9.522809463064986"><ele>66.0</ele><time>2026-04-30T06:06:50.996Z</time></trkpt><trkpt lat="45.22052155977905" lon="9.523042580922976"><ele>66.0</ele><time>2026-04-30T06:06:51.996Z</time></trkpt><trkpt lat="45.22034653424448" lon="9.523229650892178"><ele>66.0</ele><time>2026-04-30T06:06:52.996Z</time></trkpt><trkpt lat="45.220157055794694" lon="9.523437466661528"><ele>66.0</ele><time>2026-04-30T06:06:53.996Z</time></trkpt><trkpt lat="45.21997189098791" lon="9.523616762739602"><ele>65.5</ele><time>2026-04-30T06:06:54.996Z</time></trkpt><trkpt lat="45.21981362834391" lon="9.523839372117228"><ele>65.0</ele><time>2026-04-30T06:06:55.996Z</time></trkpt><trkpt lat="45.21964391300316" lon="9.52406953745071"><ele>65.0</ele><time>2026-04-30T06:06:56.996Z</time></trkpt><trkpt lat="45.21949098616148" lon="9.524296101908906"><ele>65.0</ele><time>2026-04-30T06:06:57.996Z</time></trkpt><trkpt lat="45.219343637693356" lon="9.524557747081026"><ele>65.0</ele><time>2026-04-30T06:06:58.996Z</time></trkpt><trkpt lat="45.21919199460136" lon="9.52479221701356"><ele>65.0</ele><time>2026-04-30T06:06:59.996Z</time></trkpt><trkpt lat="45.21903018982226" lon="9.525044580536743"><ele>65.0</ele><time>2026-04-30T06:07:00.996Z</time></trkpt><trkpt lat="45.21887224831926" lon="9.52525462539338"><ele>65.0</ele><time>2026-04-30T06:07:01.996Z</time></trkpt><trkpt lat="45.21872324837972" lon="9.525474830496734"><ele>65.0</ele><time>2026-04-30T06:07:02.996Z</time></trkpt><trkpt lat="45.218569955758376" lon="9.525679945904685"><ele>65.0</ele><time>2026-04-30T06:07:03.996Z</time></trkpt><trkpt lat="45.21840075164867" lon="9.525870756874092"><ele>65.0</ele><time>2026-04-30T06:07:04.996Z</time></trkpt><trkpt lat="45.218240848124644" lon="9.526104733596672"><ele>65.0</ele><time>2026-04-30T06:07:05.996Z</time></trkpt><trkpt lat="45.21807869937112" lon="9.526311723471796"><ele>65.0</ele><time>2026-04-30T06:07:06.996Z</time></trkpt><trkpt lat="45.217906957646235" lon="9.5265147335044"><ele>65.0</ele><time>2026-04-30T06:07:07.996Z</time></trkpt><trkpt lat="45.217732091478375" lon="9.526749559465122"><ele>65.0</ele><time>2026-04-30T06:07:08.996Z</time></trkpt><trkpt lat="45.217555060870396" lon="9.526982226098827"><ele>65.0</ele><time>2026-04-30T06:07:09.996Z</time></trkpt><trkpt lat="45.217371842085576" lon="9.527223025715408"><ele>65.0</ele><time>2026-04-30T06:07:10.996Z</time></trkpt><trkpt lat="45.21719189022589" lon="9.527459531731536"><ele>65.0</ele><time>2026-04-30T06:07:11.996Z</time></trkpt><trkpt lat="45.21702079396096" lon="9.527703250176714"><ele>65.0</ele><time>2026-04-30T06:07:12.996Z</time></trkpt><trkpt lat="45.21681652919403" lon="9.527935566988907"><ele>65.0</ele><time>2026-04-30T06:07:13.996Z</time></trkpt><trkpt lat="45.21662816786757" lon="9.528173777273372"><ele>66.5</ele><time>2026-04-30T06:07:14.996Z</time></trkpt><trkpt lat="45.216441134766114" lon="9.528396438960081"><ele>68.0</ele><time>2026-04-30T06:07:15.996Z</time></trkpt><trkpt lat="45.21627296042677" lon="9.528588527913678"><ele>68.0</ele><time>2026-04-30T06:07:16.996Z</time></trkpt><trkpt lat="45.21608550147603" lon="9.528815365902764"><ele>68.0</ele><time>2026-04-30T06:07:17.996Z</time></trkpt><trkpt lat="45.215904938659264" lon="9.529027817100559"><ele>68.0</ele><time>2026-04-30T06:07:18.996Z</time></trkpt><trkpt lat="45.215745665256485" lon="9.529255169339683"><ele>68.0</ele><time>2026-04-30T06:07:19.996Z</time></trkpt><trkpt lat="45.21558746873919" lon="9.529503810048869"><ele>66.0</ele><time>2026-04-30T06:07:20.996Z</time></trkpt><trkpt lat="45.21539088238771" lon="9.529725131403257"><ele>64.0</ele><time>2026-04-30T06:07:21.996Z</time></trkpt><trkpt lat="45.215200320886574" lon="9.529957352051973"><ele>64.0</ele><time>2026-04-30T06:07:22.996Z</time></trkpt><trkpt lat="45.21501108302492" lon="9.530181860266476"><ele>64.0</ele><time>2026-04-30T06:07:23.996Z</time></trkpt><trkpt lat="45.214826982432456" lon="9.530441815911107"><ele>64.5</ele><time>2026-04-30T06:07:24.996Z</time></trkpt><trkpt lat="45.21465105218739" lon="9.530672004794598"><ele>65.0</ele><time>2026-04-30T06:07:25.996Z</time></trkpt><trkpt lat="45.21448180322811" lon="9.530920957216024"><ele>65.0</ele><time>2026-04-30T06:07:26.996Z</time></trkpt><trkpt lat="45.21430155817519" lon="9.5311584782652"><ele>65.0</ele><time>2026-04-30T06:07:27.996Z</time></trkpt><trkpt lat="45.214127642250155" lon="9.531393588175733"><ele>65.0</ele><time>2026-04-30T06:07:28.996Z</time></trkpt><trkpt lat="45.21394689649861" lon="9.531626800514717"><ele>65.0</ele><time>2026-04-30T06:07:29.996Z</time></trkpt><trkpt lat="45.21376577789615" lon="9.53184968485542"><ele>64.5</ele><time>2026-04-30T06:07:30.996Z</time></trkpt><trkpt lat="45.21361173901716" lon="9.5320782526067"><ele>64.0</ele><time>2026-04-30T06:07:31.996Z</time></trkpt><trkpt lat="45.21345586123254" lon="9.53231191204166"><ele>64.0</ele><time>2026-04-30T06:07:32.996Z</time></trkpt><trkpt lat="45.213288624788326" lon="9.53257470417998"><ele>64.0</ele><time>2026-04-30T06:07:33.996Z</time></trkpt><trkpt lat="45.21313471137472" lon="9.532818094603314"><ele>64.33333333333333</ele><time>2026-04-30T06:07:34.996Z</time></trkpt><trkpt lat="45.21296873568984" lon="9.53301701218758"><ele>64.66666666666667</ele><time>2026-04-30T06:07:35.996Z</time></trkpt><trkpt lat="45.21280788370026" lon="9.533228396478918"><ele>65.0</ele><time>2026-04-30T06:07:36.996Z</time></trkpt><trkpt lat="45.21263890783242" lon="9.533473479044023"><ele>65.0</ele><time>2026-04-30T06:07:37.996Z</time></trkpt><trkpt lat="45.21246325845778" lon="9.53369903256985"><ele>65.0</ele><time>2026-04-30T06:07:38.996Z</time></trkpt><trkpt lat="45.21227757467314" lon="9.533915467115229"><ele>65.0</ele><time>2026-04-30T06:07:39.996Z</time></trkpt><trkpt lat="45.212091526066644" lon="9.53411374311435"><ele>65.0</ele><time>2026-04-30T06:07:40.996Z</time></trkpt><trkpt lat="45.21190258504131" lon="9.534323786223776"><ele>65.0</ele><time>2026-04-30T06:07:41.996Z</time></trkpt><trkpt lat="45.21174783371911" lon="9.53455970127577"><ele>65.0</ele><time>2026-04-30T06:07:42.996Z</time></trkpt><trkpt lat="45.21157415455674" lon="9.534773889224828"><ele>65.33333333333334</ele><time>2026-04-30T06:07:43.996Z</time></trkpt><trkpt lat="45.211397538931045" lon="9.534967447306817"><ele>65.66666666666667</ele><time>2026-04-30T06:07:44.996Z</time></trkpt><trkpt lat="45.21123544312227" lon="9.535184338322953"><ele>66.0</ele><time>2026-04-30T06:07:45.996Z</time></trkpt><trkpt lat="45.211088750348466" lon="9.535420595231933"><ele>65.0</ele><time>2026-04-30T06:07:46.996Z</time></trkpt><trkpt lat="45.21093210059208" lon="9.535648642578138"><ele>64.0</ele><time>2026-04-30T06:07:47.996Z</time></trkpt><trkpt lat="45.210759346376555" lon="9.535865328361188"><ele>64.0</ele><time>2026-04-30T06:07:48.996Z</time></trkpt><trkpt lat="45.21057897810668" lon="9.536100862703275"><ele>64.0</ele><time>2026-04-30T06:07:49.996Z</time></trkpt><trkpt lat="45.210408731743314" lon="9.536320321956088"><ele>64.0</ele><time>2026-04-30T06:07:50.996Z</time></trkpt><trkpt lat="45.21025125238205" lon="9.536545455452911"><ele>64.0</ele><time>2026-04-30T06:07:51.996Z</time></trkpt><trkpt lat="45.2100895718097" lon="9.536755222039313"><ele>64.0</ele><time>2026-04-30T06:07:52.996Z</time></trkpt><trkpt lat="45.20992065913887" lon="9.536968901539367"><ele>64.5</ele><time>2026-04-30T06:07:53.996Z</time></trkpt><trkpt lat="45.20973265080252" lon="9.537171712026167"><ele>65.0</ele><time>2026-04-30T06:07:54.996Z</time></trkpt><trkpt lat="45.20955495888973" lon="9.537391303216873"><ele>65.0</ele><time>2026-04-30T06:07:55.996Z</time></trkpt><trkpt lat="45.209385496154894" lon="9.537620637943364"><ele>65.0</ele><time>2026-04-30T06:07:56.996Z</time></trkpt><trkpt lat="45.2092308963996" lon="9.53785326698313"><ele>65.0</ele><time>2026-04-30T06:07:57.996Z</time></trkpt><trkpt lat="45.20910323953059" lon="9.538083412469577"><ele>65.0</ele><time>2026-04-30T06:07:58.996Z</time></trkpt><trkpt lat="45.208945686575696" lon="9.53830020393892"><ele>65.0</ele><time>2026-04-30T06:07:59.996Z</time></trkpt><trkpt lat="45.2087765022176" lon="9.538528348429853"><ele>64.5</ele><time>2026-04-30T06:08:00.996Z</time></trkpt><trkpt lat="45.20859073736066" lon="9.538748439942548"><ele>64.0</ele><time>2026-04-30T06:08:01.996Z</time></trkpt><trkpt lat="45.208410409043175" lon="9.538942133830362"><ele>64.0</ele><time>2026-04-30T06:08:02.996Z</time></trkpt><trkpt lat="45.208243295928405" lon="9.539178694381402"><ele>64.0</ele><time>2026-04-30T06:08:03.996Z</time></trkpt><trkpt lat="45.20806550447127" lon="9.539399198674028"><ele>64.5</ele><time>2026-04-30T06:08:04.996Z</time></trkpt><trkpt lat="45.207894991872195" lon="9.539636203490938"><ele>65.0</ele><time>2026-04-30T06:08:05.996Z</time></trkpt><trkpt lat="45.207730794568675" lon="9.539834442643787"><ele>65.0</ele><time>2026-04-30T06:08:06.996Z</time></trkpt><trkpt lat="45.207561132326845" lon="9.540085992834621"><ele>65.0</ele><time>2026-04-30T06:08:07.996Z</time></trkpt><trkpt lat="45.207423757144824" lon="9.540297719471045"><ele>65.0</ele><time>2026-04-30T06:08:08.996Z</time></trkpt><trkpt lat="45.2072522887412" lon="9.540519902447603"><ele>64.0</ele><time>2026-04-30T06:08:09.996Z</time></trkpt><trkpt lat="45.20705318829035" lon="9.540733413645688"><ele>63.0</ele><time>2026-04-30T06:08:10.996Z</time></trkpt><trkpt lat="45.20688909521258" lon="9.54097332438067"><ele>63.0</ele><time>2026-04-30T06:08:11.996Z</time></trkpt><trkpt lat="45.20671096839254" lon="9.541189840696024"><ele>63.0</ele><time>2026-04-30T06:08:12.996Z</time></trkpt><trkpt lat="45.20652157617343" lon="9.541404148420945"><ele>64.0</ele><time>2026-04-30T06:08:13.996Z</time></trkpt><trkpt lat="45.20634920532428" lon="9.541641365901599"><ele>65.0</ele><time>2026-04-30T06:08:14.996Z</time></trkpt><trkpt lat="45.206168172946484" lon="9.541865761725763"><ele>65.0</ele><time>2026-04-30T06:08:15.996Z</time></trkpt><trkpt lat="45.205995385155305" lon="9.542098292118407"><ele>65.0</ele><time>2026-04-30T06:08:16.996Z</time></trkpt><trkpt lat="45.20582201134542" lon="9.542344034377235"><ele>65.0</ele><time>2026-04-30T06:08:17.996Z</time></trkpt><trkpt lat="45.205648313069396" lon="9.54258208021179"><ele>65.0</ele><time>2026-04-30T06:08:18.996Z</time></trkpt><trkpt lat="45.20546931689519" lon="9.542820247088063"><ele>64.0</ele><time>2026-04-30T06:08:19.996Z</time></trkpt><trkpt lat="45.20528946242668" lon="9.543037192788296"><ele>63.0</ele><time>2026-04-30T06:08:20.996Z</time></trkpt><trkpt lat="45.205101991032706" lon="9.543258250556484"><ele>63.0</ele><time>2026-04-30T06:08:21.996Z</time></trkpt><trkpt lat="45.204928473125285" lon="9.543468181517811"><ele>63.0</ele><time>2026-04-30T06:08:22.996Z</time></trkpt><trkpt lat="45.20474274615629" lon="9.543706637874715"><ele>62.5</ele><time>2026-04-30T06:08:23.996Z</time></trkpt><trkpt lat="45.20458173111232" lon="9.543954292449387"><ele>62.0</ele><time>2026-04-30T06:08:24.996Z</time></trkpt><trkpt lat="45.20439567209135" lon="9.544196195952269"><ele>62.0</ele><time>2026-04-30T06:08:25.996Z</time></trkpt><trkpt lat="45.20420584185141" lon="9.544428503334156"><ele>62.0</ele><time>2026-04-30T06:08:26.996Z</time></trkpt><trkpt lat="45.20401839617204" lon="9.544659486567767"><ele>62.5</ele><time>2026-04-30T06:08:27.996Z</time></trkpt><trkpt lat="45.203851754953455" lon="9.54486643597405"><ele>63.0</ele><time>2026-04-30T06:08:28.996Z</time></trkpt><trkpt lat="45.203682675197854" lon="9.545122472383444"><ele>63.0</ele><time>2026-04-30T06:08:29.996Z</time></trkpt><trkpt lat="45.203502108783674" lon="9.545345010227116"><ele>63.0</ele><time>2026-04-30T06:08:30.996Z</time></trkpt><trkpt lat="45.20331825366625" lon="9.54555914272972"><ele>63.5</ele><time>2026-04-30T06:08:31.996Z</time></trkpt><trkpt lat="45.20313833468313" lon="9.545777936029925"><ele>64.0</ele><time>2026-04-30T06:08:32.996Z</time></trkpt><trkpt lat="45.202948944198326" lon="9.546006855276822"><ele>64.0</ele><time>2026-04-30T06:08:33.996Z</time></trkpt><trkpt lat="45.20276386343813" lon="9.546209432181561"><ele>64.0</ele><time>2026-04-30T06:08:34.996Z</time></trkpt><trkpt lat="45.202584778697805" lon="9.546462368099798"><ele>64.0</ele><time>2026-04-30T06:08:35.996Z</time></trkpt><trkpt lat="45.20240640939127" lon="9.546709407646512"><ele>64.0</ele><time>2026-04-30T06:08:36.996Z</time></trkpt><trkpt lat="45.20225246516257" lon="9.546920331718189"><ele>63.0</ele><time>2026-04-30T06:08:37.996Z</time></trkpt><trkpt lat="45.20208751528427" lon="9.547176907370938"><ele>62.0</ele><time>2026-04-30T06:08:38.996Z</time></trkpt><trkpt lat="45.201919574289384" lon="9.547410995045318"><ele>62.0</ele><time>2026-04-30T06:08:39.996Z</time></trkpt><trkpt lat="45.201742675302555" lon="9.54764224850317"><ele>62.0</ele><time>2026-04-30T06:08:40.996Z</time></trkpt><trkpt lat="45.201569446817736" lon="9.547876045321583"><ele>62.333333333333336</ele><time>2026-04-30T06:08:41.996Z</time></trkpt><trkpt lat="45.20141031982274" lon="9.548079077470826"><ele>62.66666666666667</ele><time>2026-04-30T06:08:42.996Z</time></trkpt><trkpt lat="45.2012398310122" lon="9.548307935310392"><ele>63.0</ele><time>2026-04-30T06:08:43.996Z</time></trkpt><trkpt lat="45.20106505776611" lon="9.548549150906917"><ele>63.0</ele><time>2026-04-30T06:08:44.996Z</time></trkpt><trkpt lat="45.20090591435392" lon="9.5487882938913"><ele>63.0</ele><time>2026-04-30T06:08:45.996Z</time></trkpt><trkpt lat="45.20074966982678" lon="9.549024554167632"><ele>62.5</ele><time>2026-04-30T06:08:46.996Z</time></trkpt><trkpt lat="45.20057117763724" lon="9.549246036126886"><ele>62.0</ele><time>2026-04-30T06:08:47.996Z</time></trkpt><trkpt lat="45.20039135610814" lon="9.549467272108116"><ele>62.0</ele><time>2026-04-30T06:08:48.996Z</time></trkpt><trkpt lat="45.2002063492481" lon="9.54970032464595"><ele>62.0</ele><time>2026-04-30T06:08:49.996Z</time></trkpt><trkpt lat="45.20003671526759" lon="9.549929770957823"><ele>62.0</ele><time>2026-04-30T06:08:50.996Z</time></trkpt><trkpt lat="45.199869522401265" lon="9.55016037876346"><ele>62.0</ele><time>2026-04-30T06:08:51.996Z</time></trkpt><trkpt lat="45.19969563635986" lon="9.550390646697549"><ele>62.0</ele><time>2026-04-30T06:08:52.996Z</time></trkpt><trkpt lat="45.1995087905458" lon="9.550580350702539"><ele>62.0</ele><time>2026-04-30T06:08:53.996Z</time></trkpt><trkpt lat="45.19934301383233" lon="9.550813005977641"><ele>62.0</ele><time>2026-04-30T06:08:54.996Z</time></trkpt><trkpt lat="45.19915604927376" lon="9.551051256956383"><ele>62.0</ele><time>2026-04-30T06:08:55.996Z</time></trkpt><trkpt lat="45.198975815124584" lon="9.551268569312729"><ele>63.5</ele><time>2026-04-30T06:08:56.996Z</time></trkpt><trkpt lat="45.19880260229835" lon="9.55151041137995"><ele>65.0</ele><time>2026-04-30T06:08:57.996Z</time></trkpt><trkpt lat="45.19865487990812" lon="9.551753503969126"><ele>65.0</ele><time>2026-04-30T06:08:58.996Z</time></trkpt><trkpt lat="45.19849100131407" lon="9.551987122900377"><ele>65.0</ele><time>2026-04-30T06:08:59.996Z</time></trkpt><trkpt lat="45.19832160625258" lon="9.552197884004881"><ele>65.0</ele><time>2026-04-30T06:09:00.996Z</time></trkpt><trkpt lat="45.19816976510283" lon="9.552432862922274"><ele>65.0</ele><time>2026-04-30T06:09:01.996Z</time></trkpt><trkpt lat="45.19800831466609" lon="9.552658086051524"><ele>63.5</ele><time>2026-04-30T06:09:02.996Z</time></trkpt><trkpt lat="45.19784171888934" lon="9.552878084998053"><ele>62.0</ele><time>2026-04-30T06:09:03.996Z</time></trkpt><trkpt lat="45.19767453830992" lon="9.553094564004995"><ele>62.0</ele><time>2026-04-30T06:09:04.996Z</time></trkpt><trkpt lat="45.19750184537443" lon="9.55332550737938"><ele>62.0</ele><time>2026-04-30T06:09:05.996Z</time></trkpt><trkpt lat="45.197324020038714" lon="9.553553696003098"><ele>62.5</ele><time>2026-04-30T06:09:06.996Z</time></trkpt><trkpt lat="45.19714178117407" lon="9.553775223482123"><ele>63.0</ele><time>2026-04-30T06:09:07.996Z</time></trkpt><trkpt lat="45.19695796060895" lon="9.553988713542955"><ele>63.0</ele><time>2026-04-30T06:09:08.996Z</time></trkpt><trkpt lat="45.196779161716975" lon="9.554219711700938"><ele>63.0</ele><time>2026-04-30T06:09:09.996Z</time></trkpt><trkpt lat="45.19660539630845" lon="9.554469570715028"><ele>63.0</ele><time>2026-04-30T06:09:10.996Z</time></trkpt><trkpt lat="45.19642019347388" lon="9.55471189159876"><ele>63.0</ele><time>2026-04-30T06:09:11.996Z</time></trkpt><trkpt lat="45.19624105316711" lon="9.554953204679498"><ele>63.0</ele><time>2026-04-30T06:09:12.996Z</time></trkpt><trkpt lat="45.196052322685524" lon="9.555191206327436"><ele>63.0</ele><time>2026-04-30T06:09:13.996Z</time></trkpt><trkpt lat="45.19588373686747" lon="9.555405348449003"><ele>62.33333333333333</ele><time>2026-04-30T06:09:14.996Z</time></trkpt><trkpt lat="45.195732771879285" lon="9.55564634817446"><ele>61.666666666666664</ele><time>2026-04-30T06:09:15.996Z</time></trkpt><trkpt lat="45.195577537174024" lon="9.555869532931737"><ele>61.0</ele><time>2026-04-30T06:09:16.996Z</time></trkpt><trkpt lat="45.19541200774808" lon="9.55609019493213"><ele>61.5</ele><time>2026-04-30T06:09:17.996Z</time></trkpt><trkpt lat="45.19523254581495" lon="9.556315540653632"><ele>62.0</ele><time>2026-04-30T06:09:18.996Z</time></trkpt><trkpt lat="45.19504756435523" lon="9.55653828272111"><ele>62.0</ele><time>2026-04-30T06:09:19.996Z</time></trkpt><trkpt lat="45.19486622688581" lon="9.556800102262391"><ele>62.0</ele><time>2026-04-30T06:09:20.996Z</time></trkpt><trkpt lat="45.194694294107734" lon="9.557067169866672"><ele>62.5</ele><time>2026-04-30T06:09:21.996Z</time></trkpt><trkpt lat="45.194505149805266" lon="9.557301129875743"><ele>63.0</ele><time>2026-04-30T06:09:22.996Z</time></trkpt><trkpt lat="45.194338264819855" lon="9.557546435933931"><ele>63.0</ele><time>2026-04-30T06:09:23.996Z</time></trkpt><trkpt lat="45.19416126659621" lon="9.557748538235188"><ele>63.0</ele><time>2026-04-30T06:09:24.997Z</time></trkpt><trkpt lat="45.19399266953115" lon="9.55795968758245"><ele>63.0</ele><time>2026-04-30T06:09:25.997Z</time></trkpt><trkpt lat="45.19382388671583" lon="9.558195242634852"><ele>63.0</ele><time>2026-04-30T06:09:26.997Z</time></trkpt><trkpt lat="45.19366891783081" lon="9.558428966578957"><ele>63.0</ele><time>2026-04-30T06:09:27.997Z</time></trkpt><trkpt lat="45.19350501473282" lon="9.55865527498531"><ele>63.0</ele><time>2026-04-30T06:09:28.997Z</time></trkpt><trkpt lat="45.19333574006382" lon="9.558901474861328"><ele>62.5</ele><time>2026-04-30T06:09:29.997Z</time></trkpt><trkpt lat="45.1931662433774" lon="9.559122347469922"><ele>62.0</ele><time>2026-04-30T06:09:30.998Z</time></trkpt><trkpt lat="45.19299560690757" lon="9.55937600944171"><ele>61.0</ele><time>2026-04-30T06:09:31.998Z</time></trkpt><trkpt lat="45.19281633962189" lon="9.55961663116413"><ele>60.0</ele><time>2026-04-30T06:09:32.998Z</time></trkpt><trkpt lat="45.19264374519321" lon="9.559877572769693"><ele>60.0</ele><time>2026-04-30T06:09:33.998Z</time></trkpt><trkpt lat="45.192473240928386" lon="9.56012414044626"><ele>60.0</ele><time>2026-04-30T06:09:34.998Z</time></trkpt><trkpt lat="45.19231379594795" lon="9.560381586142572"><ele>60.5</ele><time>2026-04-30T06:09:35.998Z</time></trkpt><trkpt lat="45.19213869163634" lon="9.56060947604638"><ele>61.0</ele><time>2026-04-30T06:09:36.998Z</time></trkpt><trkpt lat="45.191953866616664" lon="9.56084508719826"><ele>61.0</ele><time>2026-04-30T06:09:37.999Z</time></trkpt><trkpt lat="45.19177827542545" lon="9.561093151417811"><ele>61.0</ele><time>2026-04-30T06:09:38.999Z</time></trkpt><trkpt lat="45.19159927373646" lon="9.561335836051029"><ele>62.0</ele><time>2026-04-30T06:09:39.999Z</time></trkpt><trkpt lat="45.19143270772025" lon="9.561576300710113"><ele>63.0</ele><time>2026-04-30T06:09:40.999Z</time></trkpt><trkpt lat="45.19127734866415" lon="9.56182838308555"><ele>62.5</ele><time>2026-04-30T06:09:41.999Z</time></trkpt><trkpt lat="45.19111387303829" lon="9.562080156120732"><ele>62.0</ele><time>2026-04-30T06:09:42.999Z</time></trkpt><trkpt lat="45.190960415745664" lon="9.562332330711646"><ele>62.0</ele><time>2026-04-30T06:09:43.999Z</time></trkpt><trkpt lat="45.19079350969076" lon="9.562576293517038"><ele>62.0</ele><time>2026-04-30T06:09:44.999Z</time></trkpt><trkpt lat="45.19063149381953" lon="9.562828779639672"><ele>62.0</ele><time>2026-04-30T06:09:45.999Z</time></trkpt><trkpt lat="45.190454078606756" lon="9.563073932705201"><ele>62.0</ele><time>2026-04-30T06:09:46.999Z</time></trkpt><trkpt lat="45.190284382677056" lon="9.563311497269662"><ele>62.0</ele><time>2026-04-30T06:09:47.999Z</time></trkpt><trkpt lat="45.19011501362001" lon="9.563558414342454"><ele>62.0</ele><time>2026-04-30T06:09:48.999Z</time></trkpt><trkpt lat="45.1899494965359" lon="9.563815669661338"><ele>62.0</ele><time>2026-04-30T06:09:49.999Z</time></trkpt><trkpt lat="45.18977860713805" lon="9.56406690333003"><ele>62.0</ele><time>2026-04-30T06:09:51Z</time></trkpt><trkpt lat="45.189596381179115" lon="9.564330725740712"><ele>62.0</ele><time>2026-04-30T06:09:52Z</time></trkpt><trkpt lat="45.18942085659282" lon="9.564600923627262"><ele>62.0</ele><time>2026-04-30T06:09:53Z</time></trkpt><trkpt lat="45.189259974334654" lon="9.564855915009447"><ele>62.0</ele><time>2026-04-30T06:09:54Z</time></trkpt><trkpt lat="45.18908879759122" lon="9.565111699585758"><ele>62.0</ele><time>2026-04-30T06:09:55Z</time></trkpt><trkpt lat="45.18892378251049" lon="9.565360118654215"><ele>63.0</ele><time>2026-04-30T06:09:56Z</time></trkpt><trkpt lat="45.18875463388999" lon="9.565620938077924"><ele>64.0</ele><time>2026-04-30T06:09:57Z</time></trkpt><trkpt lat="45.188625056958294" lon="9.565897785920251"><ele>64.0</ele><time>2026-04-30T06:09:58Z</time></trkpt><trkpt lat="45.188475233399735" lon="9.566164529186565"><ele>64.0</ele><time>2026-04-30T06:09:59Z</time></trkpt><trkpt lat="45.18829948981871" lon="9.566413682976012"><ele>62.5</ele><time>2026-04-30T06:10:00Z</time></trkpt><trkpt lat="45.18812855939568" lon="9.566664775760342"><ele>61.0</ele><time>2026-04-30T06:10:01Z</time></trkpt><trkpt lat="45.18796516350112" lon="9.566932076205818"><ele>61.5</ele><time>2026-04-30T06:10:02Z</time></trkpt><trkpt lat="45.18779996741895" lon="9.567186047809455"><ele>62.0</ele><time>2026-04-30T06:10:03Z</time></trkpt><trkpt lat="45.187629594168186" lon="9.567437539634431"><ele>62.0</ele><time>2026-04-30T06:10:04Z</time></trkpt><trkpt lat="45.18745551339954" lon="9.567679817447871"><ele>62.0</ele><time>2026-04-30T06:10:05Z</time></trkpt><trkpt lat="45.18730419676708" lon="9.567946620915468"><ele>62.5</ele><time>2026-04-30T06:10:06Z</time></trkpt><trkpt lat="45.18714104970454" lon="9.56821712571923"><ele>63.0</ele><time>2026-04-30T06:10:07Z</time></trkpt><trkpt lat="45.186970592941535" lon="9.568475113132083"><ele>62.5</ele><time>2026-04-30T06:10:08Z</time></trkpt><trkpt lat="45.18680224257381" lon="9.568694917236204"><ele>62.0</ele><time>2026-04-30T06:10:09Z</time></trkpt><trkpt lat="45.18662932300284" lon="9.568927062644523"><ele>61.5</ele><time>2026-04-30T06:10:10Z</time></trkpt><trkpt lat="45.18646631348807" lon="9.569175651405404"><ele>61.0</ele><time>2026-04-30T06:10:11Z</time></trkpt><trkpt lat="45.1863003716289" lon="9.569419542421876"><ele>62.0</ele><time>2026-04-30T06:10:12Z</time></trkpt><trkpt lat="45.186143218312296" lon="9.569693973353733"><ele>63.0</ele><time>2026-04-30T06:10:13Z</time></trkpt><trkpt lat="45.185986181744276" lon="9.569956645363613"><ele>63.0</ele><time>2026-04-30T06:10:14Z</time></trkpt><trkpt lat="45.185823015130204" lon="9.570233922061021"><ele>63.0</ele><time>2026-04-30T06:10:15Z</time></trkpt><trkpt lat="45.185646133214995" lon="9.570497377519661"><ele>62.5</ele><time>2026-04-30T06:10:16Z</time></trkpt><trkpt lat="45.18548892026884" lon="9.57077966548197"><ele>62.0</ele><time>2026-04-30T06:10:17Z</time></trkpt><trkpt lat="45.18530702455759" lon="9.57103507415928"><ele>61.0</ele><time>2026-04-30T06:10:18Z</time></trkpt><trkpt lat="45.18513640774892" lon="9.571276933392044"><ele>60.0</ele><time>2026-04-30T06:10:19Z</time></trkpt><trkpt lat="45.18497031312837" lon="9.571517643495635"><ele>61.0</ele><time>2026-04-30T06:10:20Z</time></trkpt><trkpt lat="45.184811077875594" lon="9.571794945729486"><ele>62.0</ele><time>2026-04-30T06:10:21Z</time></trkpt><trkpt lat="45.18464287809462" lon="9.572064976364748"><ele>62.0</ele><time>2026-04-30T06:10:22Z</time></trkpt><trkpt lat="45.18447551186064" lon="9.572309145666212"><ele>62.0</ele><time>2026-04-30T06:10:23Z</time></trkpt><trkpt lat="45.18431351999663" lon="9.572555846396158"><ele>62.0</ele><time>2026-04-30T06:10:24Z</time></trkpt><trkpt lat="45.18414041653869" lon="9.572810391920108"><ele>62.0</ele><time>2026-04-30T06:10:25Z</time></trkpt><trkpt lat="45.183972256474235" lon="9.573052404180679"><ele>62.5</ele><time>2026-04-30T06:10:26Z</time></trkpt><trkpt lat="45.183806493847335" lon="9.573290518925283"><ele>63.0</ele><time>2026-04-30T06:10:27Z</time></trkpt><trkpt lat="45.18363252061772" lon="9.573535338938195"><ele>62.5</ele><time>2026-04-30T06:10:28Z</time></trkpt><trkpt lat="45.18347130251257" lon="9.57377653424301"><ele>62.0</ele><time>2026-04-30T06:10:29Z</time></trkpt><trkpt lat="45.183306040745514" lon="9.574028607403504"><ele>62.0</ele><time>2026-04-30T06:10:30Z</time></trkpt><trkpt lat="45.1831575257559" lon="9.574273971501777"><ele>62.0</ele><time>2026-04-30T06:10:31Z</time></trkpt><trkpt lat="45.18298928008376" lon="9.57452458766137"><ele>62.0</ele><time>2026-04-30T06:10:32Z</time></trkpt><trkpt lat="45.18282364863976" lon="9.574765911705308"><ele>62.0</ele><time>2026-04-30T06:10:33Z</time></trkpt><trkpt lat="45.182660252019375" lon="9.574999009974055"><ele>62.0</ele><time>2026-04-30T06:10:34Z</time></trkpt><trkpt lat="45.18252106150409" lon="9.575231523108922"><ele>62.0</ele><time>2026-04-30T06:10:35Z</time></trkpt><trkpt lat="45.18236777662824" lon="9.575470929917312"><ele>62.0</ele><time>2026-04-30T06:10:36Z</time></trkpt><trkpt lat="45.18219629893447" lon="9.575684662081864"><ele>62.0</ele><time>2026-04-30T06:10:37Z</time></trkpt><trkpt lat="45.18205061129462" lon="9.575950402021943"><ele>62.0</ele><time>2026-04-30T06:10:38Z</time></trkpt><trkpt lat="45.181896452109896" lon="9.576197936792315"><ele>62.5</ele><time>2026-04-30T06:10:39Z</time></trkpt><trkpt lat="45.18174313160114" lon="9.576439542293205"><ele>63.0</ele><time>2026-04-30T06:10:40Z</time></trkpt><trkpt lat="45.18159762598491" lon="9.576698469091665"><ele>63.0</ele><time>2026-04-30T06:10:41Z</time></trkpt><trkpt lat="45.181437890059755" lon="9.576964369256391"><ele>63.0</ele><time>2026-04-30T06:10:42Z</time></trkpt><trkpt lat="45.181265254010135" lon="9.577242346476973"><ele>63.0</ele><time>2026-04-30T06:10:43Z</time></trkpt><trkpt lat="45.18110088119788" lon="9.577510525266876"><ele>63.0</ele><time>2026-04-30T06:10:44Z</time></trkpt><trkpt lat="45.180926137787694" lon="9.577775725928822"><ele>62.5</ele><time>2026-04-30T06:10:45Z</time></trkpt><trkpt lat="45.180742951674056" lon="9.57804820945225"><ele>62.0</ele><time>2026-04-30T06:10:46Z</time></trkpt><trkpt lat="45.180568207535444" lon="9.578314086111364"><ele>61.5</ele><time>2026-04-30T06:10:47Z</time></trkpt><trkpt lat="45.18040384926716" lon="9.578565939771241"><ele>61.0</ele><time>2026-04-30T06:10:48Z</time></trkpt><trkpt lat="45.180244656617056" lon="9.578823043756831"><ele>63.0</ele><time>2026-04-30T06:10:49Z</time></trkpt><trkpt lat="45.1800751331932" lon="9.579098936514722"><ele>65.0</ele><time>2026-04-30T06:10:50Z</time></trkpt><trkpt lat="45.179912554589926" lon="9.579365247211477"><ele>64.0</ele><time>2026-04-30T06:10:51Z</time></trkpt><trkpt lat="45.17974493956228" lon="9.579607790546088"><ele>63.0</ele><time>2026-04-30T06:10:52Z</time></trkpt><trkpt lat="45.179578399095305" lon="9.579860949865735"><ele>63.0</ele><time>2026-04-30T06:10:53Z</time></trkpt><trkpt lat="45.17939498224265" lon="9.580123537376776"><ele>63.0</ele><time>2026-04-30T06:10:54Z</time></trkpt><trkpt lat="45.1792255427227" lon="9.58038961043818"><ele>62.5</ele><time>2026-04-30T06:10:55Z</time></trkpt><trkpt lat="45.17905557669497" lon="9.58065651556331"><ele>62.0</ele><time>2026-04-30T06:10:56Z</time></trkpt><trkpt lat="45.17893457434359" lon="9.580917704376176"><ele>62.5</ele><time>2026-04-30T06:10:57Z</time></trkpt><trkpt lat="45.17876154510719" lon="9.58117716516797"><ele>63.0</ele><time>2026-04-30T06:10:58Z</time></trkpt><trkpt lat="45.178591006936564" lon="9.581442706857793"><ele>63.0</ele><time>2026-04-30T06:10:59Z</time></trkpt><trkpt lat="45.17841811388152" lon="9.581699832666002"><ele>63.0</ele><time>2026-04-30T06:11:00Z</time></trkpt><trkpt lat="45.17824650126423" lon="9.58196345819193"><ele>64.5</ele><time>2026-04-30T06:11:01Z</time></trkpt><trkpt lat="45.17808716584326" lon="9.58224159871373"><ele>66.0</ele><time>2026-04-30T06:11:02Z</time></trkpt><trkpt lat="45.177922442957886" lon="9.582510513154183"><ele>66.0</ele><time>2026-04-30T06:11:03Z</time></trkpt><trkpt lat="45.17775086667708" lon="9.582792419287683"><ele>66.0</ele><time>2026-04-30T06:11:04Z</time></trkpt><trkpt lat="45.17757976183757" lon="9.583050343102755"><ele>66.0</ele><time>2026-04-30T06:11:05Z</time></trkpt><trkpt lat="45.17739090335598" lon="9.583345374817934"><ele>66.0</ele><time>2026-04-30T06:11:06Z</time></trkpt><trkpt lat="45.17720455015733" lon="9.583615540252511"><ele>64.5</ele><time>2026-04-30T06:11:07Z</time></trkpt><trkpt lat="45.177020984511984" lon="9.583848435649807"><ele>63.0</ele><time>2026-04-30T06:11:08Z</time></trkpt><trkpt lat="45.17684931423183" lon="9.584120835361187"><ele>63.0</ele><time>2026-04-30T06:11:09Z</time></trkpt><trkpt lat="45.17667400927227" lon="9.584391764825007"><ele>63.0</ele><time>2026-04-30T06:11:10Z</time></trkpt><trkpt lat="45.17649826655335" lon="9.584668575566337"><ele>63.5</ele><time>2026-04-30T06:11:11Z</time></trkpt><trkpt lat="45.176328488437655" lon="9.584934856545273"><ele>64.0</ele><time>2026-04-30T06:11:12Z</time></trkpt><trkpt lat="45.17615580241413" lon="9.585205306034416"><ele>64.0</ele><time>2026-04-30T06:11:13Z</time></trkpt><trkpt lat="45.175985950977285" lon="9.585471018317632"><ele>64.0</ele><time>2026-04-30T06:11:14Z</time></trkpt><trkpt lat="45.17581042187837" lon="9.58574561287149"><ele>64.0</ele><time>2026-04-30T06:11:15Z</time></trkpt><trkpt lat="45.17564225851244" lon="9.586008684424552"><ele>64.0</ele><time>2026-04-30T06:11:16Z</time></trkpt><trkpt lat="45.17548355796635" lon="9.586250933916917"><ele>64.0</ele><time>2026-04-30T06:11:17Z</time></trkpt><trkpt lat="45.17532617491366" lon="9.586503125094941"><ele>64.0</ele><time>2026-04-30T06:11:18Z</time></trkpt><trkpt lat="45.17516214815655" lon="9.58675959697537"><ele>64.0</ele><time>2026-04-30T06:11:19Z</time></trkpt><trkpt lat="45.17500118045992" lon="9.587011285729732"><ele>64.0</ele><time>2026-04-30T06:11:20Z</time></trkpt><trkpt lat="45.17484464339349" lon="9.587273161771158"><ele>64.0</ele><time>2026-04-30T06:11:21Z</time></trkpt><trkpt lat="45.174699472169884" lon="9.587535797913153"><ele>64.0</ele><time>2026-04-30T06:11:22Z</time></trkpt><trkpt lat="45.17453728671289" lon="9.587809243890417"><ele>63.0</ele><time>2026-04-30T06:11:23Z</time></trkpt><trkpt lat="45.17436580848369" lon="9.588084498733803"><ele>62.0</ele><time>2026-04-30T06:11:24Z</time></trkpt><trkpt lat="45.17420498288536" lon="9.58836462096501"><ele>62.0</ele><time>2026-04-30T06:11:25Z</time></trkpt><trkpt lat="45.174026939788135" lon="9.588625730432485"><ele>62.0</ele><time>2026-04-30T06:11:26Z</time></trkpt><trkpt lat="45.173904596867345" lon="9.588897075899046"><ele>63.0</ele><time>2026-04-30T06:11:27Z</time></trkpt><trkpt lat="45.17376385749761" lon="9.589175428246838"><ele>64.0</ele><time>2026-04-30T06:11:28Z</time></trkpt><trkpt lat="45.173604891421824" lon="9.589423626487786"><ele>64.5</ele><time>2026-04-30T06:11:29Z</time></trkpt><trkpt lat="45.17343358031155" lon="9.589702430860662"><ele>65.0</ele><time>2026-04-30T06:11:30Z</time></trkpt><trkpt lat="45.17325034582411" lon="9.589957334795947"><ele>65.0</ele><time>2026-04-30T06:11:31Z</time></trkpt><trkpt lat="45.17305368457135" lon="9.590209798846416"><ele>65.0</ele><time>2026-04-30T06:11:32Z</time></trkpt><trkpt lat="45.172845137423465" lon="9.590456753377762"><ele>65.0</ele><time>2026-04-30T06:11:33Z</time></trkpt><trkpt lat="45.17266789022779" lon="9.590708961421461"><ele>65.0</ele><time>2026-04-30T06:11:34Z</time></trkpt><trkpt lat="45.1724922254268" lon="9.590970258198412"><ele>64.5</ele><time>2026-04-30T06:11:35Z</time></trkpt><trkpt lat="45.17231415129424" lon="9.591242359343898"><ele>64.0</ele><time>2026-04-30T06:11:36Z</time></trkpt><trkpt lat="45.172163204401826" lon="9.591504241786918"><ele>64.0</ele><time>2026-04-30T06:11:37Z</time></trkpt><trkpt lat="45.171999090742226" lon="9.591770090290169"><ele>64.0</ele><time>2026-04-30T06:11:38Z</time></trkpt><trkpt lat="45.17185176090494" lon="9.59201373295403"><ele>65.0</ele><time>2026-04-30T06:11:39Z</time></trkpt><trkpt lat="45.17169436354054" lon="9.592287038136465"><ele>66.0</ele><time>2026-04-30T06:11:40Z</time></trkpt><trkpt lat="45.171533892317946" lon="9.592580330076498"><ele>66.0</ele><time>2026-04-30T06:11:41Z</time></trkpt><trkpt lat="45.17136976814508" lon="9.592843031486343"><ele>66.0</ele><time>2026-04-30T06:11:42Z</time></trkpt><trkpt lat="45.17124909676918" lon="9.593125825579287"><ele>66.0</ele><time>2026-04-30T06:11:43Z</time></trkpt><trkpt lat="45.17108396829793" lon="9.593409143420407"><ele>66.0</ele><time>2026-04-30T06:11:44Z</time></trkpt><trkpt lat="45.1709142532769" lon="9.593675765750888"><ele>66.0</ele><time>2026-04-30T06:11:45Z</time></trkpt><trkpt lat="45.17074931326488" lon="9.593934780859673"><ele>66.0</ele><time>2026-04-30T06:11:46Z</time></trkpt><trkpt lat="45.17058475706039" lon="9.594193194096995"><ele>66.5</ele><time>2026-04-30T06:11:47Z</time></trkpt><trkpt lat="45.17043260828451" lon="9.594432121533966"><ele>67.0</ele><time>2026-04-30T06:11:48Z</time></trkpt><trkpt lat="45.170282771198515" lon="9.594667419236648"><ele>67.0</ele><time>2026-04-30T06:11:49Z</time></trkpt><trkpt lat="45.17013458163661" lon="9.594930095555638"><ele>67.0</ele><time>2026-04-30T06:11:50Z</time></trkpt><trkpt lat="45.16997590321201" lon="9.595172705058648"><ele>65.0</ele><time>2026-04-30T06:11:51Z</time></trkpt><trkpt lat="45.16980075868658" lon="9.595419874866794"><ele>63.0</ele><time>2026-04-30T06:11:52Z</time></trkpt><trkpt lat="45.16962706904079" lon="9.595690792431279"><ele>63.0</ele><time>2026-04-30T06:11:53Z</time></trkpt><trkpt lat="45.16944967001054" lon="9.59593813529643"><ele>63.0</ele><time>2026-04-30T06:11:54Z</time></trkpt><trkpt lat="45.169270998025674" lon="9.596175286403462"><ele>63.0</ele><time>2026-04-30T06:11:55Z</time></trkpt><trkpt lat="45.169097422880895" lon="9.596420836581803"><ele>63.0</ele><time>2026-04-30T06:11:56Z</time></trkpt><trkpt lat="45.16891133180144" lon="9.596639469389341"><ele>62.5</ele><time>2026-04-30T06:11:57Z</time></trkpt><trkpt lat="45.168750877403475" lon="9.596896966648622"><ele>62.0</ele><time>2026-04-30T06:11:58Z</time></trkpt><trkpt lat="45.168553679617574" lon="9.597134584121786"><ele>61.5</ele><time>2026-04-30T06:11:59Z</time></trkpt><trkpt lat="45.168382786502896" lon="9.597400417325877"><ele>61.0</ele><time>2026-04-30T06:12:00Z</time></trkpt><trkpt lat="45.16819950044882" lon="9.597653922627817"><ele>60.666666666666664</ele><time>2026-04-30T06:12:01Z</time></trkpt><trkpt lat="45.16803621197167" lon="9.59786838673891"><ele>60.33333333333333</ele><time>2026-04-30T06:12:02Z</time></trkpt><trkpt lat="45.16792345245436" lon="9.59814644420717"><ele>60.0</ele><time>2026-04-30T06:12:03Z</time></trkpt><trkpt lat="45.167791916250465" lon="9.598409838077478"><ele>60.0</ele><time>2026-04-30T06:12:04Z</time></trkpt><trkpt lat="45.167620753835266" lon="9.598661539722785"><ele>60.0</ele><time>2026-04-30T06:12:05Z</time></trkpt><trkpt lat="45.16746707312786" lon="9.598916375012145"><ele>60.5</ele><time>2026-04-30T06:12:06Z</time></trkpt><trkpt lat="45.16729961772518" lon="9.599158252116808"><ele>61.0</ele><time>2026-04-30T06:12:07Z</time></trkpt><trkpt lat="45.1671332979131" lon="9.59940253492579"><ele>61.5</ele><time>2026-04-30T06:12:08Z</time></trkpt><trkpt lat="45.16695950855872" lon="9.599644657906985"><ele>62.0</ele><time>2026-04-30T06:12:09Z</time></trkpt><trkpt lat="45.16681009113223" lon="9.599898877895043"><ele>62.0</ele><time>2026-04-30T06:12:10Z</time></trkpt><trkpt lat="45.16665399276188" lon="9.60014357687475"><ele>62.0</ele><time>2026-04-30T06:12:11Z</time></trkpt><trkpt lat="45.166482395203786" lon="9.600397780656403"><ele>62.0</ele><time>2026-04-30T06:12:12Z</time></trkpt><trkpt lat="45.166316270100495" lon="9.600630170495988"><ele>62.0</ele><time>2026-04-30T06:12:13Z</time></trkpt><trkpt lat="45.166162155737396" lon="9.600873468844487"><ele>62.0</ele><time>2026-04-30T06:12:14Z</time></trkpt><trkpt lat="45.16599710981727" lon="9.601115486584748"><ele>62.0</ele><time>2026-04-30T06:12:15Z</time></trkpt><trkpt lat="45.165855014636875" lon="9.601380860947284"><ele>61.5</ele><time>2026-04-30T06:12:16Z</time></trkpt><trkpt lat="45.16569028956896" lon="9.601624029469741"><ele>61.0</ele><time>2026-04-30T06:12:17Z</time></trkpt><trkpt lat="45.16551971238926" lon="9.601844351026866"><ele>60.5</ele><time>2026-04-30T06:12:18Z</time></trkpt><trkpt lat="45.165343685955236" lon="9.602099417963826"><ele>60.0</ele><time>2026-04-30T06:12:19Z</time></trkpt><trkpt lat="45.1651681553086" lon="9.60235928482932"><ele>60.0</ele><time>2026-04-30T06:12:20Z</time></trkpt><trkpt lat="45.16498963570541" lon="9.602581940246843"><ele>60.0</ele><time>2026-04-30T06:12:21Z</time></trkpt><trkpt lat="45.16485610308246" lon="9.602839690022401"><ele>60.5</ele><time>2026-04-30T06:12:22Z</time></trkpt><trkpt lat="45.164718384280015" lon="9.603085261911584"><ele>61.0</ele><time>2026-04-30T06:12:23Z</time></trkpt><trkpt lat="45.16456304550095" lon="9.603358187829832"><ele>61.0</ele><time>2026-04-30T06:12:24Z</time></trkpt><trkpt lat="45.16440664193487" lon="9.603556725333755"><ele>61.0</ele><time>2026-04-30T06:12:25Z</time></trkpt><trkpt lat="45.164256255161" lon="9.60376847882803"><ele>61.0</ele><time>2026-04-30T06:12:26Z</time></trkpt><trkpt lat="45.164086393206" lon="9.604006646630234"><ele>63.0</ele><time>2026-04-30T06:12:27Z</time></trkpt><trkpt lat="45.1639106685881" lon="9.604251603434081"><ele>65.0</ele><time>2026-04-30T06:12:28Z</time></trkpt><trkpt lat="45.16372724056426" lon="9.604507298352914"><ele>65.0</ele><time>2026-04-30T06:12:29Z</time></trkpt><trkpt lat="45.163553953889654" lon="9.604774336439217"><ele>65.0</ele><time>2026-04-30T06:12:30Z</time></trkpt><trkpt lat="45.16336510605965" lon="9.605032789383689"><ele>64.0</ele><time>2026-04-30T06:12:31Z</time></trkpt><trkpt lat="45.163172884140394" lon="9.60526567395613"><ele>63.0</ele><time>2026-04-30T06:12:32Z</time></trkpt><trkpt lat="45.162968643772615" lon="9.605530882514831"><ele>62.0</ele><time>2026-04-30T06:12:33Z</time></trkpt><trkpt lat="45.162790058512286" lon="9.605739803159345"><ele>61.0</ele><time>2026-04-30T06:12:34Z</time></trkpt><trkpt lat="45.1626340940365" lon="9.605992193840883"><ele>61.5</ele><time>2026-04-30T06:12:35Z</time></trkpt><trkpt lat="45.16246141392962" lon="9.606224472835137"><ele>62.0</ele><time>2026-04-30T06:12:36Z</time></trkpt><trkpt lat="45.16229595259216" lon="9.606504767562008"><ele>62.0</ele><time>2026-04-30T06:12:37Z</time></trkpt><trkpt lat="45.162126608286904" lon="9.606746987693866"><ele>62.0</ele><time>2026-04-30T06:12:38Z</time></trkpt><trkpt lat="45.16194284969496" lon="9.607004119081077"><ele>62.0</ele><time>2026-04-30T06:12:39Z</time></trkpt><trkpt lat="45.161755863331884" lon="9.607264986044514"><ele>62.0</ele><time>2026-04-30T06:12:40Z</time></trkpt><trkpt lat="45.161563304623584" lon="9.60750606683952"><ele>62.0</ele><time>2026-04-30T06:12:41Z</time></trkpt><trkpt lat="45.16136506618275" lon="9.607730957664437"><ele>62.0</ele><time>2026-04-30T06:12:42Z</time></trkpt><trkpt lat="45.161163467118456" lon="9.607958188014871"><ele>62.0</ele><time>2026-04-30T06:12:43Z</time></trkpt><trkpt lat="45.16096019170738" lon="9.608200230010398"><ele>62.0</ele><time>2026-04-30T06:12:44Z</time></trkpt><trkpt lat="45.160743141070675" lon="9.608418428039956"><ele>62.0</ele><time>2026-04-30T06:12:45Z</time></trkpt><trkpt lat="45.16055606299649" lon="9.608677465586688"><ele>62.0</ele><time>2026-04-30T06:12:46Z</time></trkpt><trkpt lat="45.16036978399757" lon="9.608938404955802"><ele>62.0</ele><time>2026-04-30T06:12:47Z</time></trkpt><trkpt lat="45.16018433606166" lon="9.609197185340735"><ele>62.0</ele><time>2026-04-30T06:12:48Z</time></trkpt><trkpt lat="45.16000648182545" lon="9.609445621717894"><ele>61.5</ele><time>2026-04-30T06:12:49Z</time></trkpt><trkpt lat="45.15983576268681" lon="9.609684306049978"><ele>61.0</ele><time>2026-04-30T06:12:50Z</time></trkpt><trkpt lat="45.159679769623686" lon="9.609902407348747"><ele>61.0</ele><time>2026-04-30T06:12:51Z</time></trkpt><trkpt lat="45.15951291874515" lon="9.610135683024131"><ele>61.0</ele><time>2026-04-30T06:12:52Z</time></trkpt><trkpt lat="45.159380333462146" lon="9.61032105239938"><ele>61.0</ele><time>2026-04-30T06:12:53Z</time></trkpt><trkpt lat="45.159228036173026" lon="9.610533962401295"><ele>60.5</ele><time>2026-04-30T06:12:54Z</time></trkpt><trkpt lat="45.159025803080375" lon="9.610694356160296"><ele>60.0</ele><time>2026-04-30T06:12:55Z</time></trkpt><trkpt lat="45.158839718877346" lon="9.610961345730917"><ele>60.0</ele><time>2026-04-30T06:12:56Z</time></trkpt><trkpt lat="45.158655102284214" lon="9.611216176610668"><ele>60.0</ele><time>2026-04-30T06:12:57Z</time></trkpt><trkpt lat="45.158474498786255" lon="9.6114602421222"><ele>60.0</ele><time>2026-04-30T06:12:58Z</time></trkpt><trkpt lat="45.15834493877739" lon="9.611761908462606"><ele>60.0</ele><time>2026-04-30T06:12:59Z</time></trkpt><trkpt lat="45.15817190988645" lon="9.612002027264001"><ele>60.0</ele><time>2026-04-30T06:13:00Z</time></trkpt><trkpt lat="45.15798569131162" lon="9.612261954436576"><ele>60.0</ele><time>2026-04-30T06:13:01Z</time></trkpt><trkpt lat="45.15781754156689" lon="9.6124969807277"><ele>60.0</ele><time>2026-04-30T06:13:02Z</time></trkpt><trkpt lat="45.15764383850599" lon="9.612739769130783"><ele>60.0</ele><time>2026-04-30T06:13:03Z</time></trkpt><trkpt lat="45.15746741227056" lon="9.612986444318627"><ele>60.0</ele><time>2026-04-30T06:13:04Z</time></trkpt><trkpt lat="45.15734442077506" lon="9.61315921258089"><ele>60.0</ele><time>2026-04-30T06:13:05Z</time></trkpt><trkpt lat="45.1571720144278" lon="9.613401393764255"><ele>60.0</ele><time>2026-04-30T06:13:06Z</time></trkpt><trkpt lat="45.15699267870486" lon="9.613653308910578"><ele>59.5</ele><time>2026-04-30T06:13:07Z</time></trkpt><trkpt lat="45.15681989964065" lon="9.61389601442519"><ele>59.0</ele><time>2026-04-30T06:13:08Z</time></trkpt><trkpt lat="45.15662975572771" lon="9.614163112039002"><ele>59.5</ele><time>2026-04-30T06:13:09Z</time></trkpt><trkpt lat="45.15645251498388" lon="9.614411686696203"><ele>60.0</ele><time>2026-04-30T06:13:10Z</time></trkpt><trkpt lat="45.15626359246039" lon="9.614674045506469"><ele>60.5</ele><time>2026-04-30T06:13:11Z</time></trkpt><trkpt lat="45.15608244088281" lon="9.614925612449348"><ele>61.0</ele><time>2026-04-30T06:13:12Z</time></trkpt><trkpt lat="45.15590338602302" lon="9.615175708045435"><ele>60.5</ele><time>2026-04-30T06:13:13Z</time></trkpt><trkpt lat="45.155718556015245" lon="9.615436092153"><ele>60.0</ele><time>2026-04-30T06:13:14Z</time></trkpt><trkpt lat="45.1555426930523" lon="9.615683843655164"><ele>59.5</ele><time>2026-04-30T06:13:15Z</time></trkpt><trkpt lat="45.15537574230963" lon="9.615919040670704"><ele>59.0</ele><time>2026-04-30T06:13:16Z</time></trkpt><trkpt lat="45.15520648454869" lon="9.616156359824425"><ele>59.0</ele><time>2026-04-30T06:13:17Z</time></trkpt><trkpt lat="45.1550416629399" lon="9.616384382890345"><ele>59.0</ele><time>2026-04-30T06:13:18Z</time></trkpt><trkpt lat="45.15486537550394" lon="9.61662703900927"><ele>59.0</ele><time>2026-04-30T06:13:19Z</time></trkpt><trkpt lat="45.15469723145064" lon="9.616858443016186"><ele>59.0</ele><time>2026-04-30T06:13:20Z</time></trkpt><trkpt lat="45.15453547178101" lon="9.617082062208897"><ele>59.0</ele><time>2026-04-30T06:13:21Z</time></trkpt><trkpt lat="45.15437447936958" lon="9.617306057809234"><ele>59.0</ele><time>2026-04-30T06:13:22Z</time></trkpt><trkpt lat="45.15420477116875" lon="9.617542495452708"><ele>59.0</ele><time>2026-04-30T06:13:23Z</time></trkpt><trkpt lat="45.154040759520804" lon="9.617770996899477"><ele>59.0</ele><time>2026-04-30T06:13:24Z</time></trkpt><trkpt lat="45.15387298845499" lon="9.618004735921515"><ele>60.5</ele><time>2026-04-30T06:13:25Z</time></trkpt><trkpt lat="45.153713873953926" lon="9.61822641460973"><ele>62.0</ele><time>2026-04-30T06:13:26Z</time></trkpt><trkpt lat="45.153533157891296" lon="9.618478283313841"><ele>61.0</ele><time>2026-04-30T06:13:27Z</time></trkpt><trkpt lat="45.153372991399586" lon="9.618704238408846"><ele>60.0</ele><time>2026-04-30T06:13:28Z</time></trkpt><trkpt lat="45.15321116922633" lon="9.61893168180594"><ele>60.0</ele><time>2026-04-30T06:13:29Z</time></trkpt><trkpt lat="45.15304916310652" lon="9.619159068669672"><ele>60.0</ele><time>2026-04-30T06:13:30Z</time></trkpt><trkpt lat="45.152878759859924" lon="9.619398262090305"><ele>60.0</ele><time>2026-04-30T06:13:31Z</time></trkpt><trkpt lat="45.15271651379236" lon="9.61962637659779"><ele>60.0</ele><time>2026-04-30T06:13:32Z</time></trkpt><trkpt lat="45.152555897616566" lon="9.619852200504809"><ele>60.0</ele><time>2026-04-30T06:13:33Z</time></trkpt><trkpt lat="45.15238766933418" lon="9.620087132448482"><ele>60.0</ele><time>2026-04-30T06:13:34Z</time></trkpt><trkpt lat="45.15223332098533" lon="9.620302646131472"><ele>60.0</ele><time>2026-04-30T06:13:35Z</time></trkpt><trkpt lat="45.15206850492158" lon="9.620532775649593"><ele>60.0</ele><time>2026-04-30T06:13:36Z</time></trkpt><trkpt lat="45.15190398558847" lon="9.620762490935238"><ele>60.0</ele><time>2026-04-30T06:13:37Z</time></trkpt><trkpt lat="45.151740555186606" lon="9.620990685807923"><ele>60.0</ele><time>2026-04-30T06:13:38Z</time></trkpt><trkpt lat="45.15157219834516" lon="9.621225758968436"><ele>59.5</ele><time>2026-04-30T06:13:39Z</time></trkpt><trkpt lat="45.15140646874171" lon="9.621457164419505"><ele>59.0</ele><time>2026-04-30T06:13:40Z</time></trkpt><trkpt lat="45.1512466710128" lon="9.621680287036824"><ele>59.0</ele><time>2026-04-30T06:13:41Z</time></trkpt><trkpt lat="45.15107242655155" lon="9.621923582377699"><ele>59.0</ele><time>2026-04-30T06:13:42Z</time></trkpt><trkpt lat="45.15089622455524" lon="9.622169866543198"><ele>59.0</ele><time>2026-04-30T06:13:43Z</time></trkpt><trkpt lat="45.15072040573024" lon="9.6224157681409"><ele>59.0</ele><time>2026-04-30T06:13:44Z</time></trkpt><trkpt lat="45.15054713668603" lon="9.622658103616892"><ele>59.0</ele><time>2026-04-30T06:13:45Z</time></trkpt><trkpt lat="45.15037011754867" lon="9.622905683961758"><ele>59.0</ele><time>2026-04-30T06:13:46Z</time></trkpt><trkpt lat="45.15020836816392" lon="9.62313190824641"><ele>59.0</ele><time>2026-04-30T06:13:47Z</time></trkpt><trkpt lat="45.150042724833284" lon="9.623363578320847"><ele>59.0</ele><time>2026-04-30T06:13:48Z</time></trkpt><trkpt lat="45.149789502669755" lon="9.623493494295504"><ele>59.0</ele><time>2026-04-30T06:13:49Z</time></trkpt><trkpt lat="45.14962372329383" lon="9.623722110099896"><ele>59.0</ele><time>2026-04-30T06:13:50Z</time></trkpt><trkpt lat="45.14946882006116" lon="9.623959341504408"><ele>59.0</ele><time>2026-04-30T06:13:51Z</time></trkpt><trkpt lat="45.14930476974652" lon="9.624195689039661"><ele>59.0</ele><time>2026-04-30T06:13:52Z</time></trkpt><trkpt lat="45.149218857481316" lon="9.624516428251997"><ele>59.0</ele><time>2026-04-30T06:13:53Z</time></trkpt><trkpt lat="45.14906036694395" lon="9.624738323308295"><ele>59.0</ele><time>2026-04-30T06:13:54Z</time></trkpt><trkpt lat="45.14889800375822" lon="9.624965640050137"><ele>60.0</ele><time>2026-04-30T06:13:55Z</time></trkpt><trkpt lat="45.14873042148113" lon="9.625200263613108"><ele>61.0</ele><time>2026-04-30T06:13:56Z</time></trkpt><trkpt lat="45.148553832516285" lon="9.625447496929935"><ele>61.0</ele><time>2026-04-30T06:13:57Z</time></trkpt><trkpt lat="45.148384855815515" lon="9.625683200062424"><ele>61.0</ele><time>2026-04-30T06:13:58Z</time></trkpt><trkpt lat="45.14820908882933" lon="9.625928903067372"><ele>59.5</ele><time>2026-04-30T06:13:59Z</time></trkpt><trkpt lat="45.14804724283995" lon="9.62615514607239"><ele>58.0</ele><time>2026-04-30T06:14:00Z</time></trkpt><trkpt lat="45.1478736551779" lon="9.62639780261525"><ele>58.0</ele><time>2026-04-30T06:14:00.999Z</time></trkpt><trkpt lat="45.147696096035084" lon="9.62664601114293"><ele>58.0</ele><time>2026-04-30T06:14:01.999Z</time></trkpt><trkpt lat="45.14751474003631" lon="9.626899527260782"><ele>57.0</ele><time>2026-04-30T06:14:02.999Z</time></trkpt><trkpt lat="45.14734799820054" lon="9.627132614257818"><ele>56.0</ele><time>2026-04-30T06:14:03.999Z</time></trkpt><trkpt lat="45.14716242602442" lon="9.627392024600187"><ele>56.0</ele><time>2026-04-30T06:14:04.999Z</time></trkpt><trkpt lat="45.146989379379015" lon="9.62763392449372"><ele>56.0</ele><time>2026-04-30T06:14:05.999Z</time></trkpt><trkpt lat="45.14681943680545" lon="9.62787137791063"><ele>56.0</ele><time>2026-04-30T06:14:06.999Z</time></trkpt><trkpt lat="45.146646518330044" lon="9.628112900590322"><ele>56.0</ele><time>2026-04-30T06:14:07.999Z</time></trkpt><trkpt lat="45.146487897510895" lon="9.628334453437073"><ele>56.0</ele><time>2026-04-30T06:14:08.999Z</time></trkpt><trkpt lat="45.14630958423107" lon="9.628583512531549"><ele>56.0</ele><time>2026-04-30T06:14:09.999Z</time></trkpt><trkpt lat="45.146145215290936" lon="9.628813093936394"><ele>56.5</ele><time>2026-04-30T06:14:10.999Z</time></trkpt><trkpt lat="45.145978224463676" lon="9.629046336807807"><ele>57.0</ele><time>2026-04-30T06:14:11.999Z</time></trkpt><trkpt lat="45.14581666876574" lon="9.629271989003666"><ele>56.5</ele><time>2026-04-30T06:14:12.999Z</time></trkpt><trkpt lat="45.14565428549961" lon="9.629498796819393"><ele>56.0</ele><time>2026-04-30T06:14:13.999Z</time></trkpt><trkpt lat="45.14549321910578" lon="9.629723765423282"><ele>56.0</ele><time>2026-04-30T06:14:14.999Z</time></trkpt><trkpt lat="45.14532663439544" lon="9.629956441410588"><ele>56.0</ele><time>2026-04-30T06:14:15.999Z</time></trkpt><trkpt lat="45.14517064108006" lon="9.630174323957602"><ele>56.333333333333336</ele><time>2026-04-30T06:14:16.999Z</time></trkpt><trkpt lat="45.14502722439136" lon="9.630374640405309"><ele>56.66666666666667</ele><time>2026-04-30T06:14:17.999Z</time></trkpt><trkpt lat="45.1448805375199" lon="9.630579524282"><ele>57.0</ele><time>2026-04-30T06:14:18.999Z</time></trkpt><trkpt lat="45.144737169892075" lon="9.63077977200579"><ele>56.66666666666667</ele><time>2026-04-30T06:14:19.999Z</time></trkpt><trkpt lat="45.14459080282945" lon="9.630983996672144"><ele>56.333333333333336</ele><time>2026-04-30T06:14:20.999Z</time></trkpt><trkpt lat="45.14445894430705" lon="9.63116806594639"><ele>56.0</ele><time>2026-04-30T06:14:21.999Z</time></trkpt><trkpt lat="45.14431115059347" lon="9.631374501834605"><ele>56.0</ele><time>2026-04-30T06:14:22.999Z</time></trkpt><trkpt lat="45.144173540083386" lon="9.631566713975078"><ele>56.0</ele><time>2026-04-30T06:14:23.999Z</time></trkpt><trkpt lat="45.14403542483544" lon="9.631759630966929"><ele>56.0</ele><time>2026-04-30T06:14:24.999Z</time></trkpt><trkpt lat="45.14389914938519" lon="9.631949976534173"><ele>56.5</ele><time>2026-04-30T06:14:25.999Z</time></trkpt><trkpt lat="45.143764525528915" lon="9.632137631857887"><ele>57.0</ele><time>2026-04-30T06:14:26.999Z</time></trkpt><trkpt lat="45.143463995969796" lon="9.632075047450748"><ele>57.0</ele><time>2026-04-30T06:14:27.999Z</time></trkpt><trkpt lat="45.1433624439799" lon="9.63226474962396"><ele>57.0</ele><time>2026-04-30T06:14:28.999Z</time></trkpt><trkpt lat="45.143259318095275" lon="9.632450063341858"><ele>57.0</ele><time>2026-04-30T06:14:29.999Z</time></trkpt><trkpt lat="45.14314424814146" lon="9.632600994813084"><ele>57.0</ele><time>2026-04-30T06:14:30.999Z</time></trkpt><trkpt lat="45.14302338956648" lon="9.632709517837627"><ele>57.0</ele><time>2026-04-30T06:14:31.999Z</time></trkpt><trkpt lat="45.14294022980376" lon="9.632871446043506"><ele>57.0</ele><time>2026-04-30T06:14:32.999Z</time></trkpt><trkpt lat="45.142882315605526" lon="9.632958430507491"><ele>57.0</ele><time>2026-04-30T06:14:33.999Z</time></trkpt><trkpt lat="45.14281673797428" lon="9.633046462151201"><ele>56.8</ele><time>2026-04-30T06:14:34.999Z</time></trkpt><trkpt lat="45.142739358147765" lon="9.633140523442854"><ele>56.6</ele><time>2026-04-30T06:14:35.999Z</time></trkpt><trkpt lat="45.142649405583164" lon="9.633228901209106"><ele>56.39999999999999</ele><time>2026-04-30T06:14:37.999Z</time></trkpt><trkpt lat="45.14256656844638" lon="9.633286335885305"><ele>56.199999999999996</ele><time>2026-04-30T06:14:38.999Z</time></trkpt><trkpt lat="45.14250145930184" lon="9.633437222943755"><ele>56.0</ele><time>2026-04-30T06:14:39.999Z</time></trkpt><trkpt lat="45.142368573611755" lon="9.63336217307071"><ele>56.0</ele><time>2026-04-30T06:14:40.999Z</time></trkpt><trkpt lat="45.14227990004122" lon="9.633417273113922"><ele>55.99999999999999</ele><time>2026-04-30T06:14:41.999Z</time></trkpt><trkpt lat="45.14219846090724" lon="9.633435247771946"><ele>55.99999999999999</ele><time>2026-04-30T06:14:42.999Z</time></trkpt><trkpt lat="45.14212964297287" lon="9.633423559302585"><ele>56.0</ele><time>2026-04-30T06:14:43.999Z</time></trkpt><trkpt lat="45.14214040967091" lon="9.633210931626012"><ele>56.0</ele><time>2026-04-30T06:14:44.999Z</time></trkpt><trkpt lat="45.14207573713186" lon="9.633091712533675"><ele>56.00000000000001</ele><time>2026-04-30T06:14:47.999Z</time></trkpt><trkpt lat="45.142022055535804" lon="9.633000794314883"><ele>56.0</ele><time>2026-04-30T06:14:50.999Z</time></trkpt><trkpt lat="45.1419033052449" lon="9.633127569098695"><ele>56.0</ele><time>2026-04-30T06:14:53.999Z</time></trkpt><trkpt lat="45.141852097700685" lon="9.633199743558439"><ele>56.0</ele><time>2026-04-30T06:14:55.999Z</time></trkpt><trkpt lat="45.14180475245596" lon="9.633267105163453"><ele>56.00000000000001</ele><time>2026-04-30T06:14:58.999Z</time></trkpt><trkpt lat="45.141751056699235" lon="9.633343502096617"><ele>56.0</ele><time>2026-04-30T06:15:01.999Z</time></trkpt><trkpt lat="45.141705091753295" lon="9.633408899764161"><ele>56.00000000000001</ele><time>2026-04-30T06:15:07.999Z</time></trkpt><trkpt lat="45.14175430543438" lon="9.633338881098814"><ele>56.0</ele><time>2026-04-30T06:15:10.999Z</time></trkpt><trkpt lat="45.14180827066258" lon="9.633262099717992"><ele>56.0</ele><time>2026-04-30T06:15:14.999Z</time></trkpt><trkpt lat="45.14174969855268" lon="9.633345434423168"><ele>56.0</ele><time>2026-04-30T06:15:17.999Z</time></trkpt><trkpt lat="45.14179976965299" lon="9.633274194944123"><ele>56.00000000000001</ele><time>2026-04-30T06:15:28.999Z</time></trkpt><trkpt lat="45.14168792981625" lon="9.63315407138868"><ele>56.0</ele><time>2026-04-30T06:15:32.999Z</time></trkpt><trkpt lat="45.14167696988851" lon="9.632977557503198"><ele>56.0</ele><time>2026-04-30T06:15:35.999Z</time></trkpt></trkseg><trkseg><trkpt lat="45.1419095292804" lon="9.6330600719192"><ele>56.0</ele><time>2026-04-30T06:28:52.999Z</time></trkpt><trkpt lat="45.14192863557197" lon="9.63315800347137"><ele>55.99999999999999</ele><time>2026-04-30T06:29:04.999Z</time></trkpt><trkpt lat="45.14201258982574" lon="9.633262616508262"><ele>55.99999999999999</ele><time>2026-04-30T06:29:07.999Z</time></trkpt><trkpt lat="45.14205619874256" lon="9.633362708662625"><ele>56.0</ele><time>2026-04-30T06:29:10Z</time></trkpt><trkpt lat="45.14209455683404" lon="9.633511522676779"><ele>56.0</ele><time>2026-04-30T06:29:12Z</time></trkpt><trkpt lat="45.1421064081097" lon="9.633651326237391"><ele>55.833333333333336</ele><time>2026-04-30T06:29:14Z</time></trkpt><trkpt lat="45.142109923917644" lon="9.633833110625785"><ele>55.66666666666667</ele><time>2026-04-30T06:29:16Z</time></trkpt><trkpt lat="45.142107710445856" lon="9.633943846906053"><ele>55.5</ele><time>2026-04-30T06:29:17Z</time></trkpt><trkpt lat="45.14210872045348" lon="9.63404912541114"><ele>55.33333333333333</ele><time>2026-04-30T06:29:18Z</time></trkpt><trkpt lat="45.14210921618306" lon="9.634156458838333"><ele>55.166666666666664</ele><time>2026-04-30T06:29:19Z</time></trkpt><trkpt lat="45.14208331048097" lon="9.634255824392994"><ele>55.0</ele><time>2026-04-30T06:29:20Z</time></trkpt><trkpt lat="45.14204546991541" lon="9.634343044819275"><ele>55.0</ele><time>2026-04-30T06:29:21Z</time></trkpt><trkpt lat="45.141996473131314" lon="9.634418832676069"><ele>55.0</ele><time>2026-04-30T06:29:22Z</time></trkpt><trkpt lat="45.141929671536694" lon="9.634512200250631"><ele>55.0</ele><time>2026-04-30T06:29:23Z</time></trkpt><trkpt lat="45.141857912420804" lon="9.634621804115953"><ele>55.0</ele><time>2026-04-30T06:29:24Z</time></trkpt><trkpt lat="45.141790879848536" lon="9.634715029228477"><ele>55.0</ele><time>2026-04-30T06:29:25Z</time></trkpt><trkpt lat="45.14170891865146" lon="9.634826610057523"><ele>54.0</ele><time>2026-04-30T06:29:26Z</time></trkpt><trkpt lat="45.1416195006374" lon="9.63496889015079"><ele>53.0</ele><time>2026-04-30T06:29:27Z</time></trkpt><trkpt lat="45.14152294074806" lon="9.635126164398173"><ele>52.0</ele><time>2026-04-30T06:29:28Z</time></trkpt><trkpt lat="45.141422733913686" lon="9.635297890934732"><ele>51.0</ele><time>2026-04-30T06:29:29Z</time></trkpt><trkpt lat="45.14132268120442" lon="9.635471822323353"><ele>50.33333333333333</ele><time>2026-04-30T06:29:30Z</time></trkpt><trkpt lat="45.14121895706865" lon="9.635649398096026"><ele>49.666666666666664</ele><time>2026-04-30T06:29:31Z</time></trkpt><trkpt lat="45.141115432064446" lon="9.635834723478874"><ele>49.0</ele><time>2026-04-30T06:29:32Z</time></trkpt><trkpt lat="45.141014300865656" lon="9.636033364468732"><ele>49.0</ele><time>2026-04-30T06:29:33Z</time></trkpt><trkpt lat="45.14090096033529" lon="9.63623706308831"><ele>49.0</ele><time>2026-04-30T06:29:34Z</time></trkpt><trkpt lat="45.14079024452407" lon="9.636437334108937"><ele>49.0</ele><time>2026-04-30T06:29:35Z</time></trkpt><trkpt lat="45.140688861361724" lon="9.636650478132655"><ele>49.0</ele><time>2026-04-30T06:29:36Z</time></trkpt><trkpt lat="45.140574935259906" lon="9.636875845291788"><ele>49.0</ele><time>2026-04-30T06:29:37Z</time></trkpt><trkpt lat="45.140458215013766" lon="9.63713918387889"><ele>49.0</ele><time>2026-04-30T06:29:38Z</time></trkpt><trkpt lat="45.14033904554374" lon="9.637373965151387"><ele>49.0</ele><time>2026-04-30T06:29:39Z</time></trkpt><trkpt lat="45.14021202193746" lon="9.637622917772195"><ele>49.0</ele><time>2026-04-30T06:29:40Z</time></trkpt><trkpt lat="45.14008530035697" lon="9.63788077284851"><ele>49.0</ele><time>2026-04-30T06:29:41Z</time></trkpt><trkpt lat="45.13995953900538" lon="9.63814126016027"><ele>48.666666666666664</ele><time>2026-04-30T06:29:42Z</time></trkpt><trkpt lat="45.139837959876665" lon="9.638389555917962"><ele>48.33333333333333</ele><time>2026-04-30T06:29:43Z</time></trkpt><trkpt lat="45.13970611139313" lon="9.638634817743412"><ele>48.0</ele><time>2026-04-30T06:29:44Z</time></trkpt><trkpt lat="45.13957429727856" lon="9.638887686593337"><ele>48.0</ele><time>2026-04-30T06:29:45Z</time></trkpt><trkpt lat="45.13944350665689" lon="9.639147340789899"><ele>48.0</ele><time>2026-04-30T06:29:46Z</time></trkpt><trkpt lat="45.139345887866675" lon="9.6394220712702"><ele>48.0</ele><time>2026-04-30T06:29:47Z</time></trkpt><trkpt lat="45.139223881767975" lon="9.639656991475006"><ele>48.0</ele><time>2026-04-30T06:29:48Z</time></trkpt><trkpt lat="45.13910002750247" lon="9.639913414264413"><ele>48.0</ele><time>2026-04-30T06:29:49Z</time></trkpt><trkpt lat="45.13896255601306" lon="9.640161304653478"><ele>48.0</ele><time>2026-04-30T06:29:50Z</time></trkpt><trkpt lat="45.13881650235294" lon="9.64042145408158"><ele>48.5</ele><time>2026-04-30T06:29:51Z</time></trkpt><trkpt lat="45.13868129618402" lon="9.64070346167136"><ele>49.0</ele><time>2026-04-30T06:29:52Z</time></trkpt><trkpt lat="45.138543267004096" lon="9.640993838588978"><ele>49.5</ele><time>2026-04-30T06:29:53Z</time></trkpt><trkpt lat="45.138409025531026" lon="9.641269952423594"><ele>50.0</ele><time>2026-04-30T06:29:54Z</time></trkpt><trkpt lat="45.13825135336327" lon="9.641536830295232"><ele>50.0</ele><time>2026-04-30T06:29:55Z</time></trkpt><trkpt lat="45.13810009681772" lon="9.641805654846332"><ele>50.0</ele><time>2026-04-30T06:29:56Z</time></trkpt><trkpt lat="45.13795664761612" lon="9.64207395978272"><ele>50.5</ele><time>2026-04-30T06:29:57Z</time></trkpt><trkpt lat="45.13781620490545" lon="9.642315837697868"><ele>51.0</ele><time>2026-04-30T06:29:58Z</time></trkpt><trkpt lat="45.13768340718574" lon="9.642590336018285"><ele>49.5</ele><time>2026-04-30T06:29:59Z</time></trkpt><trkpt lat="45.13752491462764" lon="9.642862309078568"><ele>48.0</ele><time>2026-04-30T06:30:00Z</time></trkpt><trkpt lat="45.13740219468014" lon="9.643172277770171"><ele>48.0</ele><time>2026-04-30T06:30:01Z</time></trkpt><trkpt lat="45.137269460382655" lon="9.643433109681343"><ele>48.0</ele><time>2026-04-30T06:30:02Z</time></trkpt><trkpt lat="45.13714292046078" lon="9.643703666630554"><ele>48.0</ele><time>2026-04-30T06:30:03Z</time></trkpt><trkpt lat="45.13701250536766" lon="9.643990505075202"><ele>48.0</ele><time>2026-04-30T06:30:04Z</time></trkpt><trkpt lat="45.13687294041798" lon="9.644249454014993"><ele>48.0</ele><time>2026-04-30T06:30:05Z</time></trkpt><trkpt lat="45.13673876657143" lon="9.644514340872226"><ele>48.0</ele><time>2026-04-30T06:30:06Z</time></trkpt><trkpt lat="45.1366018685729" lon="9.64477583852707"><ele>47.5</ele><time>2026-04-30T06:30:07Z</time></trkpt><trkpt lat="45.1364592628954" lon="9.6450458606695"><ele>47.0</ele><time>2026-04-30T06:30:08Z</time></trkpt><trkpt lat="45.136307029438306" lon="9.645324602118158"><ele>46.5</ele><time>2026-04-30T06:30:09Z</time></trkpt><trkpt lat="45.13616423265224" lon="9.645575912557968"><ele>46.0</ele><time>2026-04-30T06:30:10Z</time></trkpt><trkpt lat="45.13603619322008" lon="9.645862582986139"><ele>46.0</ele><time>2026-04-30T06:30:11Z</time></trkpt><trkpt lat="45.135884885490114" lon="9.646129163094052"><ele>46.0</ele><time>2026-04-30T06:30:12Z</time></trkpt><trkpt lat="45.13572848856656" lon="9.646399903970446"><ele>47.0</ele><time>2026-04-30T06:30:13Z</time></trkpt><trkpt lat="45.13558809832138" lon="9.646672752733602"><ele>48.0</ele><time>2026-04-30T06:30:14Z</time></trkpt><trkpt lat="45.135439777824196" lon="9.646943858918037"><ele>48.0</ele><time>2026-04-30T06:30:15Z</time></trkpt><trkpt lat="45.135304500196526" lon="9.647204690022232"><ele>48.0</ele><time>2026-04-30T06:30:16Z</time></trkpt><trkpt lat="45.135172260854986" lon="9.647489911610462"><ele>47.5</ele><time>2026-04-30T06:30:17Z</time></trkpt><trkpt lat="45.13503244398567" lon="9.647801810587831"><ele>47.0</ele><time>2026-04-30T06:30:18Z</time></trkpt><trkpt lat="45.134879520559416" lon="9.648073310303621"><ele>47.0</ele><time>2026-04-30T06:30:19Z</time></trkpt><trkpt lat="45.134728834221136" lon="9.648348582771082"><ele>47.0</ele><time>2026-04-30T06:30:20Z</time></trkpt><trkpt lat="45.134577360416365" lon="9.648632500779174"><ele>46.5</ele><time>2026-04-30T06:30:21Z</time></trkpt><trkpt lat="45.134432038360934" lon="9.648912081637556"><ele>46.0</ele><time>2026-04-30T06:30:22Z</time></trkpt><trkpt lat="45.134304527640715" lon="9.64922857826106"><ele>46.5</ele><time>2026-04-30T06:30:23Z</time></trkpt><trkpt lat="45.13415119908953" lon="9.649507554611644"><ele>47.0</ele><time>2026-04-30T06:30:24Z</time></trkpt><trkpt lat="45.134021081231914" lon="9.6497744815005"><ele>47.0</ele><time>2026-04-30T06:30:25Z</time></trkpt><trkpt lat="45.13388352620219" lon="9.65005204381973"><ele>47.0</ele><time>2026-04-30T06:30:26Z</time></trkpt><trkpt lat="45.13373863115826" lon="9.650331964279191"><ele>46.5</ele><time>2026-04-30T06:30:27Z</time></trkpt><trkpt lat="45.13359130787323" lon="9.650600303446298"><ele>46.0</ele><time>2026-04-30T06:30:28Z</time></trkpt><trkpt lat="45.13345516606686" lon="9.650875069652628"><ele>46.5</ele><time>2026-04-30T06:30:29Z</time></trkpt><trkpt lat="45.13332198178734" lon="9.651151175897226"><ele>47.0</ele><time>2026-04-30T06:30:30Z</time></trkpt><trkpt lat="45.133179883170705" lon="9.651452251749731"><ele>47.0</ele><time>2026-04-30T06:30:31Z</time></trkpt><trkpt lat="45.133037710343906" lon="9.65174934471115"><ele>47.0</ele><time>2026-04-30T06:30:32Z</time></trkpt><trkpt lat="45.13288086011026" lon="9.652052494294928"><ele>47.5</ele><time>2026-04-30T06:30:33Z</time></trkpt><trkpt lat="45.132736012477665" lon="9.652362312779813"><ele>48.0</ele><time>2026-04-30T06:30:34Z</time></trkpt><trkpt lat="45.13257252668753" lon="9.652654976712247"><ele>48.0</ele><time>2026-04-30T06:30:35Z</time></trkpt><trkpt lat="45.132414600095" lon="9.652965292514608"><ele>48.0</ele><time>2026-04-30T06:30:36Z</time></trkpt><trkpt lat="45.132258928426374" lon="9.65325518555069"><ele>48.0</ele><time>2026-04-30T06:30:37Z</time></trkpt><trkpt lat="45.13209753229397" lon="9.653553905856269"><ele>48.0</ele><time>2026-04-30T06:30:38Z</time></trkpt><trkpt lat="45.131946771073096" lon="9.65386028511336"><ele>48.0</ele><time>2026-04-30T06:30:39Z</time></trkpt><trkpt lat="45.13179364538424" lon="9.654171566937647"><ele>48.0</ele><time>2026-04-30T06:30:40Z</time></trkpt><trkpt lat="45.13164230236034" lon="9.654467571818572"><ele>49.0</ele><time>2026-04-30T06:30:41Z</time></trkpt><trkpt lat="45.131491652379104" lon="9.654777531598262"><ele>50.0</ele><time>2026-04-30T06:30:42Z</time></trkpt><trkpt lat="45.13132757978607" lon="9.6550786016595"><ele>48.5</ele><time>2026-04-30T06:30:43Z</time></trkpt><trkpt lat="45.131151989183024" lon="9.655378046035759"><ele>47.0</ele><time>2026-04-30T06:30:44Z</time></trkpt><trkpt lat="45.13100530497215" lon="9.655724073512975"><ele>47.0</ele><time>2026-04-30T06:30:45Z</time></trkpt><trkpt lat="45.130856335342955" lon="9.656018168078132"><ele>47.0</ele><time>2026-04-30T06:30:46Z</time></trkpt><trkpt lat="45.130705376297975" lon="9.656330092355777"><ele>48.5</ele><time>2026-04-30T06:30:47Z</time></trkpt><trkpt lat="45.13056597516034" lon="9.65665513213544"><ele>50.0</ele><time>2026-04-30T06:30:48Z</time></trkpt><trkpt lat="45.13041939233902" lon="9.656957015256532"><ele>50.0</ele><time>2026-04-30T06:30:49Z</time></trkpt><trkpt lat="45.13023683337083" lon="9.65723865668796"><ele>50.0</ele><time>2026-04-30T06:30:50Z</time></trkpt><trkpt lat="45.130092738282535" lon="9.657539162087936"><ele>50.0</ele><time>2026-04-30T06:30:51Z</time></trkpt><trkpt lat="45.12995343446805" lon="9.65783967249709"><ele>50.0</ele><time>2026-04-30T06:30:52Z</time></trkpt><trkpt lat="45.12981051449383" lon="9.658170085869036"><ele>48.5</ele><time>2026-04-30T06:30:53Z</time></trkpt><trkpt lat="45.12964841202217" lon="9.658451601120419"><ele>47.0</ele><time>2026-04-30T06:30:54Z</time></trkpt><trkpt lat="45.12948468458864" lon="9.658740721176262"><ele>47.0</ele><time>2026-04-30T06:30:55Z</time></trkpt><trkpt lat="45.129340757255264" lon="9.659027231767826"><ele>47.0</ele><time>2026-04-30T06:30:56Z</time></trkpt><trkpt lat="45.12919345417399" lon="9.659333722768142"><ele>46.5</ele><time>2026-04-30T06:30:57Z</time></trkpt><trkpt lat="45.12904372834525" lon="9.659624183601347"><ele>46.0</ele><time>2026-04-30T06:30:58Z</time></trkpt><trkpt lat="45.12888394132444" lon="9.65990763445774"><ele>46.0</ele><time>2026-04-30T06:30:59Z</time></trkpt><trkpt lat="45.12873195894826" lon="9.660196575502388"><ele>46.0</ele><time>2026-04-30T06:31:00Z</time></trkpt><trkpt lat="45.12858727683192" lon="9.66048299770266"><ele>47.0</ele><time>2026-04-30T06:31:01Z</time></trkpt><trkpt lat="45.12843698503259" lon="9.660755612031917"><ele>48.0</ele><time>2026-04-30T06:31:02Z</time></trkpt><trkpt lat="45.12829486839892" lon="9.661025681439693"><ele>47.5</ele><time>2026-04-30T06:31:03Z</time></trkpt><trkpt lat="45.12813524883024" lon="9.661281609502195"><ele>47.0</ele><time>2026-04-30T06:31:04Z</time></trkpt><trkpt lat="45.12798189525887" lon="9.66153880086495"><ele>47.0</ele><time>2026-04-30T06:31:05Z</time></trkpt><trkpt lat="45.12781286025684" lon="9.66177926760176"><ele>47.0</ele><time>2026-04-30T06:31:06Z</time></trkpt><trkpt lat="45.12766115404085" lon="9.662045751650329"><ele>47.5</ele><time>2026-04-30T06:31:07Z</time></trkpt><trkpt lat="45.12750607113613" lon="9.662308423262214"><ele>48.0</ele><time>2026-04-30T06:31:08Z</time></trkpt><trkpt lat="45.12735537002689" lon="9.66256606095001"><ele>47.5</ele><time>2026-04-30T06:31:09Z</time></trkpt><trkpt lat="45.12720874236159" lon="9.662850035587276"><ele>47.0</ele><time>2026-04-30T06:31:10Z</time></trkpt><trkpt lat="45.12705881578543" lon="9.663116986774222"><ele>47.0</ele><time>2026-04-30T06:31:11Z</time></trkpt><trkpt lat="45.12690380867818" lon="9.663414797734513"><ele>47.0</ele><time>2026-04-30T06:31:12Z</time></trkpt><trkpt lat="45.1267386182659" lon="9.66366455873326"><ele>47.0</ele><time>2026-04-30T06:31:13Z</time></trkpt><trkpt lat="45.12657223649137" lon="9.663911146096748"><ele>47.0</ele><time>2026-04-30T06:31:14Z</time></trkpt><trkpt lat="45.126399156478485" lon="9.664173316395566"><ele>47.0</ele><time>2026-04-30T06:31:15Z</time></trkpt><trkpt lat="45.126224354524375" lon="9.664420431705993"><ele>47.0</ele><time>2026-04-30T06:31:16Z</time></trkpt><trkpt lat="45.12604268952401" lon="9.664662042861867"><ele>47.0</ele><time>2026-04-30T06:31:17Z</time></trkpt><trkpt lat="45.12586588602144" lon="9.664965663023606"><ele>47.0</ele><time>2026-04-30T06:31:18Z</time></trkpt><trkpt lat="45.125698657663115" lon="9.665205336024462"><ele>47.0</ele><time>2026-04-30T06:31:19Z</time></trkpt><trkpt lat="45.12552511541293" lon="9.665458360770492"><ele>47.0</ele><time>2026-04-30T06:31:20Z</time></trkpt><trkpt lat="45.12537586873327" lon="9.66570380265818"><ele>47.0</ele><time>2026-04-30T06:31:21Z</time></trkpt><trkpt lat="45.12521178719078" lon="9.665946446803416"><ele>47.0</ele><time>2026-04-30T06:31:22Z</time></trkpt><trkpt lat="45.12505152007357" lon="9.666201119110593"><ele>46.5</ele><time>2026-04-30T06:31:23Z</time></trkpt><trkpt lat="45.124882071570134" lon="9.666442574211091"><ele>46.0</ele><time>2026-04-30T06:31:24Z</time></trkpt><trkpt lat="45.124710970602216" lon="9.666659876101397"><ele>46.0</ele><time>2026-04-30T06:31:25Z</time></trkpt><trkpt lat="45.12453698155832" lon="9.66690408432743"><ele>46.0</ele><time>2026-04-30T06:31:26Z</time></trkpt><trkpt lat="45.12434908338723" lon="9.667172931969006"><ele>45.5</ele><time>2026-04-30T06:31:27Z</time></trkpt><trkpt lat="45.12416377044851" lon="9.667392675933396"><ele>45.0</ele><time>2026-04-30T06:31:28Z</time></trkpt><trkpt lat="45.123983047871235" lon="9.667644642958926"><ele>45.0</ele><time>2026-04-30T06:31:29Z</time></trkpt><trkpt lat="45.1238138967222" lon="9.667890136761642"><ele>45.0</ele><time>2026-04-30T06:31:30Z</time></trkpt><trkpt lat="45.1236442384798" lon="9.668167183630084"><ele>45.0</ele><time>2026-04-30T06:31:31Z</time></trkpt><trkpt lat="45.12346723558852" lon="9.668371053198472"><ele>45.0</ele><time>2026-04-30T06:31:32Z</time></trkpt><trkpt lat="45.12327932314781" lon="9.66862529284728"><ele>44.5</ele><time>2026-04-30T06:31:33Z</time></trkpt><trkpt lat="45.12312562180274" lon="9.66887090523778"><ele>44.0</ele><time>2026-04-30T06:31:34Z</time></trkpt><trkpt lat="45.12297398876474" lon="9.669106404753675"><ele>44.0</ele><time>2026-04-30T06:31:35Z</time></trkpt><trkpt lat="45.122808051625874" lon="9.669329525785374"><ele>44.0</ele><time>2026-04-30T06:31:36Z</time></trkpt><trkpt lat="45.12264268249232" lon="9.66957012338351"><ele>44.0</ele><time>2026-04-30T06:31:37Z</time></trkpt><trkpt lat="45.12249667699675" lon="9.669831763708991"><ele>44.0</ele><time>2026-04-30T06:31:38Z</time></trkpt><trkpt lat="45.12234011480963" lon="9.670070279471402"><ele>44.5</ele><time>2026-04-30T06:31:39Z</time></trkpt><trkpt lat="45.122179914352365" lon="9.670311298704846"><ele>45.0</ele><time>2026-04-30T06:31:40Z</time></trkpt><trkpt lat="45.12201717885058" lon="9.670525066186796"><ele>45.0</ele><time>2026-04-30T06:31:41Z</time></trkpt><trkpt lat="45.12185916446781" lon="9.670742649797324"><ele>45.0</ele><time>2026-04-30T06:31:42Z</time></trkpt><trkpt lat="45.12167590047981" lon="9.670967136732347"><ele>45.5</ele><time>2026-04-30T06:31:43Z</time></trkpt><trkpt lat="45.12150123081573" lon="9.671199433745343"><ele>46.0</ele><time>2026-04-30T06:31:44Z</time></trkpt><trkpt lat="45.12132887207309" lon="9.671434613898073"><ele>46.0</ele><time>2026-04-30T06:31:45Z</time></trkpt><trkpt lat="45.12116962617562" lon="9.67166212950364"><ele>46.0</ele><time>2026-04-30T06:31:46Z</time></trkpt><trkpt lat="45.12100741308284" lon="9.671900488271492"><ele>46.0</ele><time>2026-04-30T06:31:47Z</time></trkpt><trkpt lat="45.120848655540975" lon="9.672140027524955"><ele>46.0</ele><time>2026-04-30T06:31:48Z</time></trkpt><trkpt lat="45.12068471145486" lon="9.672361940331633"><ele>46.5</ele><time>2026-04-30T06:31:49Z</time></trkpt><trkpt lat="45.12052162604206" lon="9.67258041437388"><ele>47.0</ele><time>2026-04-30T06:31:50Z</time></trkpt><trkpt lat="45.12036384304797" lon="9.672827297947657"><ele>47.0</ele><time>2026-04-30T06:31:51Z</time></trkpt><trkpt lat="45.1202098353114" lon="9.673077212118066"><ele>47.0</ele><time>2026-04-30T06:31:52Z</time></trkpt><trkpt lat="45.1200571920565" lon="9.67327733130288"><ele>47.0</ele><time>2026-04-30T06:31:53Z</time></trkpt><trkpt lat="45.11989354525803" lon="9.673522536467416"><ele>46.0</ele><time>2026-04-30T06:31:54Z</time></trkpt><trkpt lat="45.11975204338648" lon="9.67373952956058"><ele>45.0</ele><time>2026-04-30T06:31:55Z</time></trkpt><trkpt lat="45.119589545875485" lon="9.673955303628981"><ele>44.0</ele><time>2026-04-30T06:31:56Z</time></trkpt><trkpt lat="45.11942736760647" lon="9.674183367325549"><ele>44.0</ele><time>2026-04-30T06:31:57Z</time></trkpt><trkpt lat="45.11926606473275" lon="9.674429813287945"><ele>44.0</ele><time>2026-04-30T06:31:58Z</time></trkpt><trkpt lat="45.119098103438695" lon="9.674671759026857"><ele>44.5</ele><time>2026-04-30T06:31:59Z</time></trkpt><trkpt lat="45.11892629484499" lon="9.674900120984697"><ele>45.0</ele><time>2026-04-30T06:32:00Z</time></trkpt><trkpt lat="45.1187659264005" lon="9.675132696158043"><ele>45.0</ele><time>2026-04-30T06:32:01Z</time></trkpt><trkpt lat="45.118603831939666" lon="9.675357623723022"><ele>45.0</ele><time>2026-04-30T06:32:02Z</time></trkpt><trkpt lat="45.11844977022744" lon="9.675584389995556"><ele>45.0</ele><time>2026-04-30T06:32:03Z</time></trkpt><trkpt lat="45.118297381293466" lon="9.675801253815532"><ele>44.333333333333336</ele><time>2026-04-30T06:32:04Z</time></trkpt><trkpt lat="45.11813810228374" lon="9.676025483104866"><ele>43.66666666666667</ele><time>2026-04-30T06:32:05Z</time></trkpt><trkpt lat="45.117999005663115" lon="9.676257154697621"><ele>43.0</ele><time>2026-04-30T06:32:06Z</time></trkpt><trkpt lat="45.117849301892754" lon="9.67646083931832"><ele>43.5</ele><time>2026-04-30T06:32:07Z</time></trkpt><trkpt lat="45.11770136850799" lon="9.676712646240903"><ele>44.0</ele><time>2026-04-30T06:32:08Z</time></trkpt><trkpt lat="45.117543640574134" lon="9.67694922011775"><ele>44.0</ele><time>2026-04-30T06:32:09Z</time></trkpt><trkpt lat="45.11739299937306" lon="9.677170665970964"><ele>44.0</ele><time>2026-04-30T06:32:10Z</time></trkpt><trkpt lat="45.11724535265915" lon="9.677375946853042"><ele>44.0</ele><time>2026-04-30T06:32:11Z</time></trkpt><trkpt lat="45.11708342610338" lon="9.677576932324424"><ele>44.0</ele><time>2026-04-30T06:32:12Z</time></trkpt><trkpt lat="45.11693159466494" lon="9.677807385409801"><ele>44.0</ele><time>2026-04-30T06:32:13Z</time></trkpt><trkpt lat="45.116778580465166" lon="9.678013595437951"><ele>44.0</ele><time>2026-04-30T06:32:14Z</time></trkpt><trkpt lat="45.11663004375091" lon="9.678236288976585"><ele>44.33333333333333</ele><time>2026-04-30T06:32:15Z</time></trkpt><trkpt lat="45.11646291631213" lon="9.678474309251193"><ele>44.666666666666664</ele><time>2026-04-30T06:32:16Z</time></trkpt><trkpt lat="45.11632697821127" lon="9.678688476793516"><ele>45.0</ele><time>2026-04-30T06:32:17Z</time></trkpt><trkpt lat="45.11617488542874" lon="9.678917920257653"><ele>45.0</ele><time>2026-04-30T06:32:18Z</time></trkpt><trkpt lat="45.11601884315076" lon="9.679131045390402"><ele>45.0</ele><time>2026-04-30T06:32:19Z</time></trkpt><trkpt lat="45.11585251940076" lon="9.67934710254898"><ele>45.0</ele><time>2026-04-30T06:32:20Z</time></trkpt><trkpt lat="45.11568880839485" lon="9.67957733077942"><ele>45.0</ele><time>2026-04-30T06:32:21Z</time></trkpt><trkpt lat="45.115531658121036" lon="9.679805972102683"><ele>45.0</ele><time>2026-04-30T06:32:22Z</time></trkpt><trkpt lat="45.11539052734187" lon="9.680065478048189"><ele>45.0</ele><time>2026-04-30T06:32:23Z</time></trkpt><trkpt lat="45.1152316651854" lon="9.680287685486379"><ele>45.0</ele><time>2026-04-30T06:32:24Z</time></trkpt><trkpt lat="45.11507711765011" lon="9.680499601126703"><ele>45.0</ele><time>2026-04-30T06:32:25Z</time></trkpt><trkpt lat="45.11492045598651" lon="9.680714232874923"><ele>44.333333333333336</ele><time>2026-04-30T06:32:26Z</time></trkpt><trkpt lat="45.11476352507817" lon="9.68094078098715"><ele>43.66666666666667</ele><time>2026-04-30T06:32:27Z</time></trkpt><trkpt lat="45.11460951449829" lon="9.681167371173943"><ele>43.0</ele><time>2026-04-30T06:32:28Z</time></trkpt><trkpt lat="45.11446111340668" lon="9.681391574164888"><ele>43.0</ele><time>2026-04-30T06:32:29Z</time></trkpt><trkpt lat="45.11431312557556" lon="9.681620945113442"><ele>43.0</ele><time>2026-04-30T06:32:30Z</time></trkpt><trkpt lat="45.11416007200607" lon="9.681854895211172"><ele>43.0</ele><time>2026-04-30T06:32:31Z</time></trkpt><trkpt lat="45.11401200874234" lon="9.682084405023023"><ele>43.5</ele><time>2026-04-30T06:32:32Z</time></trkpt><trkpt lat="45.11383114658866" lon="9.682314738180319"><ele>44.0</ele><time>2026-04-30T06:32:33Z</time></trkpt><trkpt lat="45.113668375998536" lon="9.68254795291188"><ele>43.5</ele><time>2026-04-30T06:32:34Z</time></trkpt><trkpt lat="45.11350729709922" lon="9.682771665752142"><ele>43.0</ele><time>2026-04-30T06:32:35Z</time></trkpt><trkpt lat="45.11333546893485" lon="9.682999005753922"><ele>43.0</ele><time>2026-04-30T06:32:36Z</time></trkpt><trkpt lat="45.113174183590814" lon="9.683235754655737"><ele>43.0</ele><time>2026-04-30T06:32:37Z</time></trkpt><trkpt lat="45.11300518593084" lon="9.683474329834683"><ele>44.0</ele><time>2026-04-30T06:32:38Z</time></trkpt><trkpt lat="45.112842722954014" lon="9.68371090724929"><ele>45.0</ele><time>2026-04-30T06:32:39Z</time></trkpt><trkpt lat="45.112674611131204" lon="9.683951502337848"><ele>45.0</ele><time>2026-04-30T06:32:40Z</time></trkpt><trkpt lat="45.11253410467316" lon="9.684180603110743"><ele>45.0</ele><time>2026-04-30T06:32:41Z</time></trkpt><trkpt lat="45.11238030748593" lon="9.684406445743875"><ele>45.0</ele><time>2026-04-30T06:32:42Z</time></trkpt><trkpt lat="45.11222113202819" lon="9.684629632057128"><ele>45.0</ele><time>2026-04-30T06:32:43Z</time></trkpt><trkpt lat="45.11206728173172" lon="9.684847254992912"><ele>45.0</ele><time>2026-04-30T06:32:44Z</time></trkpt><trkpt lat="45.1119071692185" lon="9.68507978794619"><ele>45.0</ele><time>2026-04-30T06:32:45Z</time></trkpt><trkpt lat="45.111742264646054" lon="9.685305585714353"><ele>45.0</ele><time>2026-04-30T06:32:46Z</time></trkpt><trkpt lat="45.111588015708236" lon="9.685529967697896"><ele>45.0</ele><time>2026-04-30T06:32:47Z</time></trkpt><trkpt lat="45.111429064272635" lon="9.685750805599534"><ele>45.0</ele><time>2026-04-30T06:32:48Z</time></trkpt><trkpt lat="45.111279811887925" lon="9.685984466046651"><ele>45.666666666666664</ele><time>2026-04-30T06:32:49Z</time></trkpt><trkpt lat="45.11111012616988" lon="9.68619114252025"><ele>46.33333333333333</ele><time>2026-04-30T06:32:50Z</time></trkpt><trkpt lat="45.11094802088555" lon="9.686409938508678"><ele>47.0</ele><time>2026-04-30T06:32:51Z</time></trkpt><trkpt lat="45.110777028916125" lon="9.686635357911893"><ele>47.0</ele><time>2026-04-30T06:32:52Z</time></trkpt><trkpt lat="45.110592905585214" lon="9.686812199583864"><ele>47.0</ele><time>2026-04-30T06:32:53Z</time></trkpt><trkpt lat="45.110401139291646" lon="9.686999300642926"><ele>47.0</ele><time>2026-04-30T06:32:54Z</time></trkpt><trkpt lat="45.110033780671486" lon="9.68743031957207"><ele>46.5</ele><time>2026-04-30T06:32:56Z</time></trkpt><trkpt lat="45.10984708656475" lon="9.687640379600174"><ele>46.0</ele><time>2026-04-30T06:32:57Z</time></trkpt><trkpt lat="45.10967200760832" lon="9.68785478297371"><ele>46.0</ele><time>2026-04-30T06:32:58Z</time></trkpt><trkpt lat="45.10950912814114" lon="9.688068078546841"><ele>46.0</ele><time>2026-04-30T06:32:59Z</time></trkpt><trkpt lat="45.10934157839973" lon="9.68827810428775"><ele>46.0</ele><time>2026-04-30T06:33:00Z</time></trkpt><trkpt lat="45.109180907031146" lon="9.688471443563394"><ele>46.66666666666667</ele><time>2026-04-30T06:33:01Z</time></trkpt><trkpt lat="45.10902508576504" lon="9.68866872516307"><ele>47.333333333333336</ele><time>2026-04-30T06:33:02Z</time></trkpt><trkpt lat="45.1088643725429" lon="9.688898841444583"><ele>48.0</ele><time>2026-04-30T06:33:03Z</time></trkpt><trkpt lat="45.108686452325394" lon="9.689077057908971"><ele>48.0</ele><time>2026-04-30T06:33:04Z</time></trkpt><trkpt lat="45.10852417536629" lon="9.689268067700485"><ele>48.0</ele><time>2026-04-30T06:33:05Z</time></trkpt><trkpt lat="45.10835927940251" lon="9.689474332285375"><ele>48.0</ele><time>2026-04-30T06:33:06Z</time></trkpt><trkpt lat="45.10820173624039" lon="9.689642938962903"><ele>47.666666666666664</ele><time>2026-04-30T06:33:07Z</time></trkpt><trkpt lat="45.108028384855196" lon="9.68981035293372"><ele>47.33333333333333</ele><time>2026-04-30T06:33:08Z</time></trkpt><trkpt lat="45.107868946109335" lon="9.689969151842721"><ele>47.0</ele><time>2026-04-30T06:33:09Z</time></trkpt><trkpt lat="45.107716329945994" lon="9.690113496415938"><ele>47.0</ele><time>2026-04-30T06:33:10Z</time></trkpt><trkpt lat="45.10758231381662" lon="9.690231744585596"><ele>47.0</ele><time>2026-04-30T06:33:11Z</time></trkpt><trkpt lat="45.10745715491305" lon="9.690348888307165"><ele>47.0</ele><time>2026-04-30T06:33:12Z</time></trkpt><trkpt lat="45.107333640456005" lon="9.69048030191493"><ele>46.666666666666664</ele><time>2026-04-30T06:33:13Z</time></trkpt><trkpt lat="45.107205116295866" lon="9.690565677362523"><ele>46.333333333333336</ele><time>2026-04-30T06:33:14Z</time></trkpt><trkpt lat="45.10706715613257" lon="9.690655296089947"><ele>46.0</ele><time>2026-04-30T06:33:15Z</time></trkpt><trkpt lat="45.10692907747549" lon="9.690773204929485"><ele>46.0</ele><time>2026-04-30T06:33:16Z</time></trkpt><trkpt lat="45.10678022686936" lon="9.690830225351721"><ele>46.0</ele><time>2026-04-30T06:33:17Z</time></trkpt><trkpt lat="45.10659314204743" lon="9.690783328443207"><ele>46.0</ele><time>2026-04-30T06:33:18Z</time></trkpt><trkpt lat="45.106430096647664" lon="9.69080759369022"><ele>46.0</ele><time>2026-04-30T06:33:19Z</time></trkpt><trkpt lat="45.10627674132712" lon="9.690797004884455"><ele>46.0</ele><time>2026-04-30T06:33:20Z</time></trkpt><trkpt lat="45.106111302589646" lon="9.690789651225835"><ele>46.0</ele><time>2026-04-30T06:33:21Z</time></trkpt><trkpt lat="45.10595193229254" lon="9.690734658232971"><ele>46.0</ele><time>2026-04-30T06:33:22Z</time></trkpt><trkpt lat="45.105830056608625" lon="9.690642701800327"><ele>46.0</ele><time>2026-04-30T06:33:23Z</time></trkpt><trkpt lat="45.105726032952354" lon="9.690515863546377"><ele>46.0</ele><time>2026-04-30T06:33:24Z</time></trkpt><trkpt lat="45.105633855265864" lon="9.690355928581601"><ele>46.0</ele><time>2026-04-30T06:33:25Z</time></trkpt><trkpt lat="45.10551720093377" lon="9.689990390250015"><ele>45.75</ele><time>2026-04-30T06:33:27Z</time></trkpt><trkpt lat="45.10546288409636" lon="9.689821186000739"><ele>45.5</ele><time>2026-04-30T06:33:28Z</time></trkpt><trkpt lat="45.105461860569044" lon="9.689661275909591"><ele>45.25</ele><time>2026-04-30T06:33:29Z</time></trkpt><trkpt lat="45.10546716266825" lon="9.689505574651115"><ele>45.0</ele><time>2026-04-30T06:33:30Z</time></trkpt><trkpt lat="45.10547804952784" lon="9.689342269636532"><ele>45.5</ele><time>2026-04-30T06:33:31Z</time></trkpt><trkpt lat="45.1055027692197" lon="9.689212269028888"><ele>46.0</ele><time>2026-04-30T06:33:32Z</time></trkpt><trkpt lat="45.105542349716934" lon="9.68906987702399"><ele>46.5</ele><time>2026-04-30T06:33:33Z</time></trkpt><trkpt lat="45.105551476603495" lon="9.688957102946624"><ele>47.0</ele><time>2026-04-30T06:33:34Z</time></trkpt><trkpt lat="45.105571686348966" lon="9.688856472931025"><ele>47.5</ele><time>2026-04-30T06:33:35Z</time></trkpt><trkpt lat="45.1055550018442" lon="9.688728481424244"><ele>48.0</ele><time>2026-04-30T06:33:36Z</time></trkpt><trkpt lat="45.10557876631404" lon="9.688622555312815"><ele>48.0</ele><time>2026-04-30T06:33:37Z</time></trkpt><trkpt lat="45.105594850439594" lon="9.688451752513576"><ele>48.0</ele><time>2026-04-30T06:33:39Z</time></trkpt><trkpt lat="45.105606890071066" lon="9.6882944349576"><ele>48.0</ele><time>2026-04-30T06:33:41Z</time></trkpt><trkpt lat="45.1056103076414" lon="9.688204788304548"><ele>48.0</ele><time>2026-04-30T06:33:45Z</time></trkpt><trkpt lat="45.105617584960214" lon="9.688101960433878"><ele>48.0</ele><time>2026-04-30T06:34:43Z</time></trkpt><trkpt lat="45.10561304374901" lon="9.687965038455895"><ele>48.0</ele><time>2026-04-30T06:34:45Z</time></trkpt><trkpt lat="45.1056234974674" lon="9.687843673174228"><ele>48.0</ele><time>2026-04-30T06:34:47Z</time></trkpt><trkpt lat="45.10562024199689" lon="9.687730838720215"><ele>48.0</ele><time>2026-04-30T06:34:49Z</time></trkpt><trkpt lat="45.10563743273784" lon="9.687577576423951"><ele>48.0</ele><time>2026-04-30T06:34:51Z</time></trkpt><trkpt lat="45.10563045822708" lon="9.687480523985368"><ele>48.0</ele><time>2026-04-30T06:34:52Z</time></trkpt><trkpt lat="45.10565239417353" lon="9.687391036986973"><ele>48.0</ele><time>2026-04-30T06:34:54Z</time></trkpt><trkpt lat="45.10565294999962" lon="9.687490510501153"><ele>47.8</ele><time>2026-04-30T06:35:18.001Z</time></trkpt><trkpt lat="45.10565407743153" lon="9.687341865990172"><ele>47.599999999999994</ele><time>2026-04-30T06:35:23.001Z</time></trkpt><trkpt lat="45.10566521457165" lon="9.687194108145173"><ele>47.400000000000006</ele><time>2026-04-30T06:35:25.001Z</time></trkpt><trkpt lat="45.105661621608256" lon="9.687072821849284"><ele>47.2</ele><time>2026-04-30T06:35:26.001Z</time></trkpt><trkpt lat="45.1056638133662" lon="9.68692469699068"><ele>47.0</ele><time>2026-04-30T06:35:27.001Z</time></trkpt><trkpt lat="45.1056880808271" lon="9.686769976683296"><ele>46.75</ele><time>2026-04-30T06:35:28.003Z</time></trkpt><trkpt lat="45.105695258755965" lon="9.686602081467283"><ele>46.5</ele><time>2026-04-30T06:35:29.003Z</time></trkpt><trkpt lat="45.1057073411757" lon="9.686419767123637"><ele>46.25</ele><time>2026-04-30T06:35:30.003Z</time></trkpt><trkpt lat="45.105704955098126" lon="9.686240734232127"><ele>46.0</ele><time>2026-04-30T06:35:31.003Z</time></trkpt><trkpt lat="45.10571691259656" lon="9.686077772338335"><ele>46.0</ele><time>2026-04-30T06:35:32.003Z</time></trkpt><trkpt lat="45.10574231126077" lon="9.685928906982552"><ele>46.0</ele><time>2026-04-30T06:35:33.003Z</time></trkpt><trkpt lat="45.105734743606085" lon="9.68578850880835"><ele>46.0</ele><time>2026-04-30T06:35:34.003Z</time></trkpt><trkpt lat="45.105752872804004" lon="9.6856652728629"><ele>46.0</ele><time>2026-04-30T06:35:35.003Z</time></trkpt><trkpt lat="45.10577698986702" lon="9.685543849508031"><ele>46.0</ele><time>2026-04-30T06:35:36.003Z</time></trkpt><trkpt lat="45.105797646777155" lon="9.685427110050554"><ele>46.0</ele><time>2026-04-30T06:35:37.003Z</time></trkpt><trkpt lat="45.10583186931957" lon="9.685318449628992"><ele>46.0</ele><time>2026-04-30T06:35:38.002Z</time></trkpt><trkpt lat="45.10586391620701" lon="9.685195026798334"><ele>46.0</ele><time>2026-04-30T06:35:39.002Z</time></trkpt><trkpt lat="45.10590077759162" lon="9.685077183400828"><ele>46.0</ele><time>2026-04-30T06:35:40.002Z</time></trkpt><trkpt lat="45.10594921058817" lon="9.684960788867539"><ele>46.0</ele><time>2026-04-30T06:35:41.002Z</time></trkpt><trkpt lat="45.10597538639508" lon="9.684817908091711"><ele>45.8</ele><time>2026-04-30T06:35:42.002Z</time></trkpt><trkpt lat="45.1059428700422" lon="9.684670609938054"><ele>45.599999999999994</ele><time>2026-04-30T06:35:43.002Z</time></trkpt><trkpt lat="45.105872675415284" lon="9.684609612412011"><ele>45.4</ele><time>2026-04-30T06:35:44.002Z</time></trkpt><trkpt lat="45.10580126200025" lon="9.684556402104064"><ele>45.2</ele><time>2026-04-30T06:35:45.002Z</time></trkpt><trkpt lat="45.10570654281973" lon="9.684545772600133"><ele>45.0</ele><time>2026-04-30T06:35:46.002Z</time></trkpt><trkpt lat="45.1056021491321" lon="9.684554771743116"><ele>45.5</ele><time>2026-04-30T06:35:47.002Z</time></trkpt><trkpt lat="45.10548774416323" lon="9.684560741954183"><ele>46.0</ele><time>2026-04-30T06:35:48.002Z</time></trkpt><trkpt lat="45.10536983670972" lon="9.684565963464655"><ele>46.5</ele><time>2026-04-30T06:35:49.002Z</time></trkpt><trkpt lat="45.105252366201796" lon="9.684568862421688"><ele>47.0</ele><time>2026-04-30T06:35:50.001Z</time></trkpt><trkpt lat="45.10512951919916" lon="9.68456672720771"><ele>47.0</ele><time>2026-04-30T06:35:51.001Z</time></trkpt><trkpt lat="45.10499943702232" lon="9.684579315728683"><ele>47.0</ele><time>2026-04-30T06:35:52.001Z</time></trkpt><trkpt lat="45.10486250940906" lon="9.68459461949143"><ele>47.0</ele><time>2026-04-30T06:35:53.001Z</time></trkpt><trkpt lat="45.10472517487643" lon="9.684615666690016"><ele>47.0</ele><time>2026-04-30T06:35:54.001Z</time></trkpt><trkpt lat="45.1045902938717" lon="9.68464265765709"><ele>46.75</ele><time>2026-04-30T06:35:55.001Z</time></trkpt><trkpt lat="45.10445547026493" lon="9.684662775948434"><ele>46.5</ele><time>2026-04-30T06:35:56.001Z</time></trkpt><trkpt lat="45.10432261780441" lon="9.684687943794346"><ele>46.25</ele><time>2026-04-30T06:35:57.001Z</time></trkpt><trkpt lat="45.104195252121734" lon="9.684711028404559"><ele>46.0</ele><time>2026-04-30T06:35:58.001Z</time></trkpt><trkpt lat="45.10407653170794" lon="9.684722278293423"><ele>46.0</ele><time>2026-04-30T06:35:59.001Z</time></trkpt><trkpt lat="45.103967765884335" lon="9.684732328893489"><ele>46.0</ele><time>2026-04-30T06:36:00.001Z</time></trkpt><trkpt lat="45.10386429956772" lon="9.684747873328925"><ele>46.0</ele><time>2026-04-30T06:36:01.001Z</time></trkpt><trkpt lat="45.103766000885116" lon="9.684761011351465"><ele>46.0</ele><time>2026-04-30T06:36:02.001Z</time></trkpt><trkpt lat="45.10367288361426" lon="9.68476747093377"><ele>46.0</ele><time>2026-04-30T06:36:03.001Z</time></trkpt><trkpt lat="45.103584963841335" lon="9.68477963279251"><ele>46.0</ele><time>2026-04-30T06:36:04.001Z</time></trkpt><trkpt lat="45.103503994972726" lon="9.684795862115882"><ele>46.0</ele><time>2026-04-30T06:36:05.001Z</time></trkpt><trkpt lat="45.10343036669752" lon="9.684806715112066"><ele>46.0</ele><time>2026-04-30T06:36:06.001Z</time></trkpt><trkpt lat="45.10336104088602" lon="9.684817844938532"><ele>46.0</ele><time>2026-04-30T06:36:07.001Z</time></trkpt><trkpt lat="45.103290671309345" lon="9.684827157895104"><ele>46.0</ele><time>2026-04-30T06:36:08.001Z</time></trkpt><trkpt lat="45.10320953030576" lon="9.684835928165175"><ele>46.0</ele><time>2026-04-30T06:36:09.001Z</time></trkpt><trkpt lat="45.103118279244086" lon="9.684840466231167"><ele>46.199999999999996</ele><time>2026-04-30T06:36:10.001Z</time></trkpt><trkpt lat="45.103019600668084" lon="9.684840357859128"><ele>46.4</ele><time>2026-04-30T06:36:11.001Z</time></trkpt><trkpt lat="45.102916621606305" lon="9.684843944523065"><ele>46.6</ele><time>2026-04-30T06:36:12.001Z</time></trkpt><trkpt lat="45.10281031159112" lon="9.684852342394986"><ele>46.8</ele><time>2026-04-30T06:36:13.001Z</time></trkpt><trkpt lat="45.10270510644708" lon="9.684861393284223"><ele>47.0</ele><time>2026-04-30T06:36:14.001Z</time></trkpt><trkpt lat="45.10260545081032" lon="9.68486625926685"><ele>47.0</ele><time>2026-04-30T06:36:15.001Z</time></trkpt><trkpt lat="45.102511426171574" lon="9.684868670413971"><ele>47.0</ele><time>2026-04-30T06:36:16.001Z</time></trkpt><trkpt lat="45.102421159354506" lon="9.684865323572962"><ele>47.0</ele><time>2026-04-30T06:36:17.001Z</time></trkpt><trkpt lat="45.102333249874135" lon="9.684874555033375"><ele>47.0</ele><time>2026-04-30T06:36:18.001Z</time></trkpt><trkpt lat="45.10224231099061" lon="9.684880586060775"><ele>47.0</ele><time>2026-04-30T06:36:19.001Z</time></trkpt><trkpt lat="45.10214990774709" lon="9.684884662733062"><ele>46.5</ele><time>2026-04-30T06:36:20.001Z</time></trkpt><trkpt lat="45.10205704447399" lon="9.684890938629408"><ele>46.0</ele><time>2026-04-30T06:36:21.001Z</time></trkpt><trkpt lat="45.1019649599989" lon="9.684902511437368"><ele>45.5</ele><time>2026-04-30T06:36:22.001Z</time></trkpt><trkpt lat="45.101875899711544" lon="9.684909339755574"><ele>45.0</ele><time>2026-04-30T06:36:23.001Z</time></trkpt><trkpt lat="45.10179152429731" lon="9.684913494363208"><ele>44.5</ele><time>2026-04-30T06:36:24.001Z</time></trkpt><trkpt lat="45.10171328193329" lon="9.684917323374512"><ele>44.0</ele><time>2026-04-30T06:36:25.001Z</time></trkpt><trkpt lat="45.101639031848535" lon="9.68491794712541"><ele>44.0</ele><time>2026-04-30T06:36:26.001Z</time></trkpt><trkpt lat="45.10156957840613" lon="9.684924779376274"><ele>44.0</ele><time>2026-04-30T06:36:27.001Z</time></trkpt><trkpt lat="45.10150626212487" lon="9.684930478755907"><ele>44.0</ele><time>2026-04-30T06:36:28.001Z</time></trkpt><trkpt lat="45.10139904303213" lon="9.684933953721702"><ele>44.0</ele><time>2026-04-30T06:36:30.001Z</time></trkpt><trkpt lat="45.10130516915438" lon="9.684915573877946"><ele>44.0</ele><time>2026-04-30T06:36:32.001Z</time></trkpt><trkpt lat="45.101219509842814" lon="9.684880126810693"><ele>44.0</ele><time>2026-04-30T06:36:34.001Z</time></trkpt><trkpt lat="45.10115157044567" lon="9.684806129861865"><ele>44.0</ele><time>2026-04-30T06:36:36.001Z</time></trkpt><trkpt lat="45.101065426888276" lon="9.684804706212562"><ele>44.0</ele><time>2026-04-30T06:36:38.001Z</time></trkpt><trkpt lat="45.10095744285365" lon="9.684898740626137"><ele>44.0</ele><time>2026-04-30T06:36:40Z</time></trkpt><trkpt lat="45.10088638279941" lon="9.684966994098735"><ele>44.0</ele><time>2026-04-30T06:36:41Z</time></trkpt><trkpt lat="45.10080409149321" lon="9.685033948553547"><ele>44.0</ele><time>2026-04-30T06:36:42Z</time></trkpt><trkpt lat="45.10070686265598" lon="9.685108786747033"><ele>44.5</ele><time>2026-04-30T06:36:43Z</time></trkpt><trkpt lat="45.10058917017233" lon="9.685176378075816"><ele>45.0</ele><time>2026-04-30T06:36:44Z</time></trkpt><trkpt lat="45.10046479346524" lon="9.685259386192566"><ele>45.5</ele><time>2026-04-30T06:36:45Z</time></trkpt><trkpt lat="45.100331173568186" lon="9.685354189223034"><ele>46.0</ele><time>2026-04-30T06:36:46Z</time></trkpt><trkpt lat="45.10019217673241" lon="9.685462455761327"><ele>46.0</ele><time>2026-04-30T06:36:47Z</time></trkpt><trkpt lat="45.10004424697351" lon="9.685574932328896"><ele>46.0</ele><time>2026-04-30T06:36:48Z</time></trkpt><trkpt lat="45.099889382864134" lon="9.685684837072301"><ele>46.0</ele><time>2026-04-30T06:36:49Z</time></trkpt><trkpt lat="45.09973223686613" lon="9.685797855797738"><ele>46.0</ele><time>2026-04-30T06:36:50Z</time></trkpt><trkpt lat="45.09957380731352" lon="9.685925755949008"><ele>46.0</ele><time>2026-04-30T06:36:51Z</time></trkpt><trkpt lat="45.09942032348791" lon="9.686048015135324"><ele>46.0</ele><time>2026-04-30T06:36:52Z</time></trkpt><trkpt lat="45.09927717995937" lon="9.686193736093783"><ele>46.0</ele><time>2026-04-30T06:36:53Z</time></trkpt><trkpt lat="45.09911300304634" lon="9.686315999807546"><ele>46.0</ele><time>2026-04-30T06:36:54Z</time></trkpt><trkpt lat="45.098940069588004" lon="9.686427986226859"><ele>46.0</ele><time>2026-04-30T06:36:55Z</time></trkpt><trkpt lat="45.098774418280094" lon="9.686558700099784"><ele>46.0</ele><time>2026-04-30T06:36:56Z</time></trkpt><trkpt lat="45.09862233040637" lon="9.686668650780575"><ele>46.0</ele><time>2026-04-30T06:36:57Z</time></trkpt><trkpt lat="45.098472759029775" lon="9.686773162465958"><ele>46.0</ele><time>2026-04-30T06:36:58Z</time></trkpt><trkpt lat="45.098319603963716" lon="9.686871997185444"><ele>45.25</ele><time>2026-04-30T06:36:59Z</time></trkpt><trkpt lat="45.098180019918665" lon="9.686977754402864"><ele>44.5</ele><time>2026-04-30T06:37:00Z</time></trkpt><trkpt lat="45.09806006232379" lon="9.687088360131186"><ele>43.75</ele><time>2026-04-30T06:37:01Z</time></trkpt><trkpt lat="45.09792896302118" lon="9.687168562987276"><ele>43.0</ele><time>2026-04-30T06:37:02Z</time></trkpt><trkpt lat="45.09782573723866" lon="9.68724702174614"><ele>43.0</ele><time>2026-04-30T06:37:03Z</time></trkpt><trkpt lat="45.097747067303786" lon="9.687330638408193"><ele>43.0</ele><time>2026-04-30T06:37:04Z</time></trkpt><trkpt lat="45.0976428579144" lon="9.687397745089495"><ele>43.0</ele><time>2026-04-30T06:37:05Z</time></trkpt><trkpt lat="45.09752108802547" lon="9.687446822098705"><ele>43.0</ele><time>2026-04-30T06:37:06Z</time></trkpt><trkpt lat="45.097423189109236" lon="9.687427398599572"><ele>43.0</ele><time>2026-04-30T06:37:07Z</time></trkpt><trkpt lat="45.09733632372008" lon="9.687499945637217"><ele>43.4</ele><time>2026-04-30T06:37:08Z</time></trkpt><trkpt lat="45.09724029134131" lon="9.68753361311598"><ele>43.8</ele><time>2026-04-30T06:37:09Z</time></trkpt><trkpt lat="45.097183249461665" lon="9.687643244066352"><ele>44.2</ele><time>2026-04-30T06:37:10Z</time></trkpt><trkpt lat="45.09713139774678" lon="9.687780606464477"><ele>44.6</ele><time>2026-04-30T06:37:11Z</time></trkpt><trkpt lat="45.097028516322766" lon="9.68786833506601"><ele>45.0</ele><time>2026-04-30T06:37:12Z</time></trkpt><trkpt lat="45.096903118120714" lon="9.687961390105388"><ele>45.25</ele><time>2026-04-30T06:37:13Z</time></trkpt><trkpt lat="45.096788449048695" lon="9.688040551255177"><ele>45.5</ele><time>2026-04-30T06:37:14Z</time></trkpt><trkpt lat="45.09667604829116" lon="9.688125112014282"><ele>45.75</ele><time>2026-04-30T06:37:15Z</time></trkpt><trkpt lat="45.096574044134776" lon="9.6882196482188"><ele>46.0</ele><time>2026-04-30T06:37:16Z</time></trkpt><trkpt lat="45.09645321047227" lon="9.688309496082072"><ele>47.0</ele><time>2026-04-30T06:37:17Z</time></trkpt><trkpt lat="45.096329067704474" lon="9.688398538982653"><ele>48.0</ele><time>2026-04-30T06:37:18Z</time></trkpt><trkpt lat="45.09617485390553" lon="9.688466001532447"><ele>49.0</ele><time>2026-04-30T06:37:19Z</time></trkpt><trkpt lat="45.0960301997362" lon="9.688552661806044"><ele>48.33333333333333</ele><time>2026-04-30T06:37:20Z</time></trkpt><trkpt lat="45.09587285373291" lon="9.688617512204848"><ele>47.666666666666664</ele><time>2026-04-30T06:37:21Z</time></trkpt><trkpt lat="45.09570464061588" lon="9.688664411708375"><ele>47.0</ele><time>2026-04-30T06:37:22Z</time></trkpt><trkpt lat="45.095539910276855" lon="9.688716082909211"><ele>47.0</ele><time>2026-04-30T06:37:23Z</time></trkpt><trkpt lat="45.09537689261328" lon="9.688746281459"><ele>47.0</ele><time>2026-04-30T06:37:24Z</time></trkpt><trkpt lat="45.0952068339481" lon="9.688810666062805"><ele>47.0</ele><time>2026-04-30T06:37:25Z</time></trkpt><trkpt lat="45.095060118660385" lon="9.688849882785009"><ele>47.0</ele><time>2026-04-30T06:37:26Z</time></trkpt><trkpt lat="45.09489210801743" lon="9.688921359610754"><ele>47.0</ele><time>2026-04-30T06:37:27Z</time></trkpt><trkpt lat="45.09471374945647" lon="9.688956727980475"><ele>47.0</ele><time>2026-04-30T06:37:28Z</time></trkpt><trkpt lat="45.09452481462561" lon="9.689015052990104"><ele>47.0</ele><time>2026-04-30T06:37:29Z</time></trkpt><trkpt lat="45.09430646489834" lon="9.689081445398823"><ele>47.0</ele><time>2026-04-30T06:37:30Z</time></trkpt><trkpt lat="45.09409868822188" lon="9.689132232137654"><ele>47.0</ele><time>2026-04-30T06:37:31Z</time></trkpt><trkpt lat="45.093887237152835" lon="9.689202441196201"><ele>46.0</ele><time>2026-04-30T06:37:32Z</time></trkpt><trkpt lat="45.093653803387895" lon="9.68929068960989"><ele>45.0</ele><time>2026-04-30T06:37:33Z</time></trkpt><trkpt lat="45.09342007215084" lon="9.689340089635452"><ele>44.5</ele><time>2026-04-30T06:37:34Z</time></trkpt><trkpt lat="45.09318961226099" lon="9.689402250943846"><ele>44.0</ele><time>2026-04-30T06:37:35Z</time></trkpt><trkpt lat="45.092980425241095" lon="9.689493068169337"><ele>44.0</ele><time>2026-04-30T06:37:36Z</time></trkpt><trkpt lat="45.09276427278868" lon="9.689549882721268"><ele>44.0</ele><time>2026-04-30T06:37:37Z</time></trkpt><trkpt lat="45.092560361350806" lon="9.68959267365758"><ele>44.0</ele><time>2026-04-30T06:37:38Z</time></trkpt><trkpt lat="45.09234883928609" lon="9.68967198639025"><ele>44.33333333333333</ele><time>2026-04-30T06:37:39Z</time></trkpt><trkpt lat="45.092152121643906" lon="9.689736761084651"><ele>44.666666666666664</ele><time>2026-04-30T06:37:40Z</time></trkpt><trkpt lat="45.09197298244522" lon="9.68977366342566"><ele>45.0</ele><time>2026-04-30T06:37:41Z</time></trkpt><trkpt lat="45.09180342215605" lon="9.68985025976096"><ele>45.0</ele><time>2026-04-30T06:37:42Z</time></trkpt><trkpt lat="45.09161822252598" lon="9.689916470819176"><ele>45.0</ele><time>2026-04-30T06:37:43Z</time></trkpt><trkpt lat="45.091452225255274" lon="9.689948150137205"><ele>45.0</ele><time>2026-04-30T06:37:44Z</time></trkpt><trkpt lat="45.091275827980176" lon="9.690010575410646"><ele>45.0</ele><time>2026-04-30T06:37:45Z</time></trkpt><trkpt lat="45.09111078950545" lon="9.690042524155265"><ele>45.0</ele><time>2026-04-30T06:37:46Z</time></trkpt><trkpt lat="45.090948042507506" lon="9.69004354931056"><ele>45.0</ele><time>2026-04-30T06:37:47Z</time></trkpt><trkpt lat="45.090791720277956" lon="9.690021884775382"><ele>45.666666666666664</ele><time>2026-04-30T06:37:48Z</time></trkpt><trkpt lat="45.090637756299344" lon="9.689986362719045"><ele>46.33333333333333</ele><time>2026-04-30T06:37:49Z</time></trkpt><trkpt lat="45.090478369699824" lon="9.689948729369767"><ele>47.0</ele><time>2026-04-30T06:37:50Z</time></trkpt><trkpt lat="45.090325707158726" lon="9.689910931266054"><ele>47.0</ele><time>2026-04-30T06:37:51Z</time></trkpt><trkpt lat="45.090169645240856" lon="9.689871457658162"><ele>47.0</ele><time>2026-04-30T06:37:52Z</time></trkpt><trkpt lat="45.08998604784664" lon="9.689826672148524"><ele>47.0</ele><time>2026-04-30T06:37:53Z</time></trkpt><trkpt lat="45.08980422717456" lon="9.689782994995216"><ele>47.0</ele><time>2026-04-30T06:37:54Z</time></trkpt><trkpt lat="45.089625752795065" lon="9.689740121756197"><ele>47.0</ele><time>2026-04-30T06:37:55Z</time></trkpt><trkpt lat="45.08943278203986" lon="9.689693766068542"><ele>47.0</ele><time>2026-04-30T06:37:56Z</time></trkpt><trkpt lat="45.08923578900596" lon="9.68964644419204"><ele>46.666666666666664</ele><time>2026-04-30T06:37:57Z</time></trkpt><trkpt lat="45.08903610564944" lon="9.689598472364066"><ele>46.333333333333336</ele><time>2026-04-30T06:37:58Z</time></trkpt><trkpt lat="45.0888466412267" lon="9.68955264095232"><ele>46.0</ele><time>2026-04-30T06:37:59Z</time></trkpt><trkpt lat="45.08866289519575" lon="9.689508192911205"><ele>46.0</ele><time>2026-04-30T06:38:00Z</time></trkpt><trkpt lat="45.0884936639077" lon="9.689467255986374"><ele>46.0</ele><time>2026-04-30T06:38:01Z</time></trkpt><trkpt lat="45.08831780140637" lon="9.689424714942113"><ele>46.0</ele><time>2026-04-30T06:38:02Z</time></trkpt><trkpt lat="45.08814492425338" lon="9.689382896055715"><ele>46.0</ele><time>2026-04-30T06:38:03Z</time></trkpt><trkpt lat="45.08796556597109" lon="9.689339509413953"><ele>46.0</ele><time>2026-04-30T06:38:04Z</time></trkpt><trkpt lat="45.08777566954868" lon="9.689293573605118"><ele>46.0</ele><time>2026-04-30T06:38:05Z</time></trkpt><trkpt lat="45.08760105506887" lon="9.68925117165679"><ele>46.0</ele><time>2026-04-30T06:38:06Z</time></trkpt><trkpt lat="45.08743046189604" lon="9.689209957391737"><ele>46.0</ele><time>2026-04-30T06:38:07Z</time></trkpt><trkpt lat="45.08726492244566" lon="9.689170551385237"><ele>46.0</ele><time>2026-04-30T06:38:08Z</time></trkpt><trkpt lat="45.08711347279384" lon="9.68914310526608"><ele>45.75</ele><time>2026-04-30T06:38:09Z</time></trkpt><trkpt lat="45.086963570572706" lon="9.689134428344314"><ele>45.5</ele><time>2026-04-30T06:38:10Z</time></trkpt><trkpt lat="45.08683939176445" lon="9.689138540912275"><ele>45.25</ele><time>2026-04-30T06:38:11Z</time></trkpt><trkpt lat="45.08671501335021" lon="9.689127493272744"><ele>45.0</ele><time>2026-04-30T06:38:12Z</time></trkpt><trkpt lat="45.08658102186545" lon="9.68914651145888"><ele>45.0</ele><time>2026-04-30T06:38:13Z</time></trkpt><trkpt lat="45.08645127548222" lon="9.689195589643528"><ele>45.0</ele><time>2026-04-30T06:38:14Z</time></trkpt><trkpt lat="45.08631468615008" lon="9.689262954677517"><ele>45.0</ele><time>2026-04-30T06:38:15Z</time></trkpt><trkpt lat="45.08619589197422" lon="9.689346734871732"><ele>45.0</ele><time>2026-04-30T06:38:16Z</time></trkpt><trkpt lat="45.08610040814109" lon="9.689451400161515"><ele>45.0</ele><time>2026-04-30T06:38:17Z</time></trkpt><trkpt lat="45.086002021900555" lon="9.68954243031726"><ele>45.0</ele><time>2026-04-30T06:38:18Z</time></trkpt><trkpt lat="45.08589702029753" lon="9.689656357941434"><ele>45.0</ele><time>2026-04-30T06:38:19Z</time></trkpt><trkpt lat="45.085771054994396" lon="9.689729220883496"><ele>45.0</ele><time>2026-04-30T06:38:20Z</time></trkpt><trkpt lat="45.08563927517132" lon="9.689823039258439"><ele>45.333333333333336</ele><time>2026-04-30T06:38:21Z</time></trkpt><trkpt lat="45.08549538849113" lon="9.689925450142956"><ele>45.66666666666667</ele><time>2026-04-30T06:38:22Z</time></trkpt><trkpt lat="45.08534960255804" lon="9.690029033550443"><ele>46.0</ele><time>2026-04-30T06:38:23Z</time></trkpt><trkpt lat="45.08520714025383" lon="9.69013078805446"><ele>46.0</ele><time>2026-04-30T06:38:24Z</time></trkpt><trkpt lat="45.08505001707222" lon="9.690243014251223"><ele>46.0</ele><time>2026-04-30T06:38:25Z</time></trkpt><trkpt lat="45.084900336769216" lon="9.690349924254724"><ele>46.0</ele><time>2026-04-30T06:38:26Z</time></trkpt><trkpt lat="45.08473248937338" lon="9.690469810163382"><ele>46.0</ele><time>2026-04-30T06:38:27Z</time></trkpt><trkpt lat="45.084575416283926" lon="9.690582000584882"><ele>46.0</ele><time>2026-04-30T06:38:28Z</time></trkpt><trkpt lat="45.08441152815238" lon="9.690699046779764"><ele>46.0</ele><time>2026-04-30T06:38:29Z</time></trkpt><trkpt lat="45.084230692598254" lon="9.69082775560625"><ele>46.66666666666667</ele><time>2026-04-30T06:38:30Z</time></trkpt><trkpt lat="45.08404691519754" lon="9.690951829478802"><ele>47.333333333333336</ele><time>2026-04-30T06:38:31Z</time></trkpt><trkpt lat="45.08384199233704" lon="9.691082006343363"><ele>48.0</ele><time>2026-04-30T06:38:32Z</time></trkpt><trkpt lat="45.08363259378769" lon="9.691212447852473"><ele>48.0</ele><time>2026-04-30T06:38:33Z</time></trkpt><trkpt lat="45.08343138240809" lon="9.691334183309804"><ele>48.0</ele><time>2026-04-30T06:38:34Z</time></trkpt><trkpt lat="45.083221935936095" lon="9.691459600772784"><ele>48.0</ele><time>2026-04-30T06:38:35Z</time></trkpt><trkpt lat="45.08301786758813" lon="9.691657541449242"><ele>48.0</ele><time>2026-04-30T06:38:36Z</time></trkpt><trkpt lat="45.082802814199404" lon="9.69172404720706"><ele>48.0</ele><time>2026-04-30T06:38:37Z</time></trkpt><trkpt lat="45.082584840941045" lon="9.691820068350514"><ele>48.0</ele><time>2026-04-30T06:38:38Z</time></trkpt><trkpt lat="45.082386326717696" lon="9.691934121816653"><ele>48.33333333333333</ele><time>2026-04-30T06:38:39Z</time></trkpt><trkpt lat="45.08218877111137" lon="9.692055198897725"><ele>48.666666666666664</ele><time>2026-04-30T06:38:40Z</time></trkpt><trkpt lat="45.08199934951961" lon="9.692163441480922"><ele>49.0</ele><time>2026-04-30T06:38:41Z</time></trkpt><trkpt lat="45.08179416770261" lon="9.692251014810347"><ele>49.0</ele><time>2026-04-30T06:38:42Z</time></trkpt><trkpt lat="45.081618143555836" lon="9.692373857405277"><ele>49.0</ele><time>2026-04-30T06:38:43Z</time></trkpt><trkpt lat="45.08143528295807" lon="9.692417525818515"><ele>49.0</ele><time>2026-04-30T06:38:44Z</time></trkpt><trkpt lat="45.08123627021559" lon="9.692289501916871"><ele>48.0</ele><time>2026-04-30T06:38:45Z</time></trkpt><trkpt lat="45.0810465924489" lon="9.692354169620824"><ele>47.0</ele><time>2026-04-30T06:38:46Z</time></trkpt><trkpt lat="45.08089658682285" lon="9.692458071724351"><ele>46.0</ele><time>2026-04-30T06:38:47Z</time></trkpt><trkpt lat="45.08074188779714" lon="9.692572833493559"><ele>46.333333333333336</ele><time>2026-04-30T06:38:48Z</time></trkpt><trkpt lat="45.08060988012401" lon="9.692770102551307"><ele>46.666666666666664</ele><time>2026-04-30T06:38:49Z</time></trkpt><trkpt lat="45.08051702331688" lon="9.693006886622893"><ele>47.0</ele><time>2026-04-30T06:38:50Z</time></trkpt><trkpt lat="45.08044367766203" lon="9.693276223618629"><ele>47.0</ele><time>2026-04-30T06:38:51Z</time></trkpt><trkpt lat="45.08038113904322" lon="9.69354735871594"><ele>47.0</ele><time>2026-04-30T06:38:52Z</time></trkpt><trkpt lat="45.08032098878837" lon="9.693799825619552"><ele>47.0</ele><time>2026-04-30T06:38:53Z</time></trkpt><trkpt lat="45.080249759026856" lon="9.694058085622947"><ele>47.0</ele><time>2026-04-30T06:38:54Z</time></trkpt><trkpt lat="45.080180899105464" lon="9.69430775325711"><ele>47.0</ele><time>2026-04-30T06:38:55Z</time></trkpt><trkpt lat="45.08011335932802" lon="9.694552896662398"><ele>47.0</ele><time>2026-04-30T06:38:56Z</time></trkpt><trkpt lat="45.08004570854923" lon="9.694798785211425"><ele>47.0</ele><time>2026-04-30T06:38:57Z</time></trkpt><trkpt lat="45.0799898831238" lon="9.69500169241569"><ele>47.0</ele><time>2026-04-30T06:38:58Z</time></trkpt><trkpt lat="45.07993695691806" lon="9.695194061899535"><ele>47.0</ele><time>2026-04-30T06:38:59Z</time></trkpt><trkpt lat="45.07989340391244" lon="9.695352362858326"><ele>47.0</ele><time>2026-04-30T06:39:00Z</time></trkpt><trkpt lat="45.07984119054538" lon="9.695542141414343"><ele>46.75</ele><time>2026-04-30T06:39:01Z</time></trkpt><trkpt lat="45.079792927124245" lon="9.695717563187046"><ele>46.5</ele><time>2026-04-30T06:39:02Z</time></trkpt><trkpt lat="45.07974500106719" lon="9.69589175875476"><ele>46.25</ele><time>2026-04-30T06:39:03Z</time></trkpt><trkpt lat="45.07969927232787" lon="9.69605934711117"><ele>46.0</ele><time>2026-04-30T06:39:04Z</time></trkpt><trkpt lat="45.07964340965322" lon="9.696264917897606"><ele>46.0</ele><time>2026-04-30T06:39:05Z</time></trkpt><trkpt lat="45.07958317560482" lon="9.696486575094923"><ele>46.0</ele><time>2026-04-30T06:39:06Z</time></trkpt><trkpt lat="45.07951978375479" lon="9.696719852718479"><ele>46.0</ele><time>2026-04-30T06:39:07Z</time></trkpt><trkpt lat="45.079454181839246" lon="9.696959669382151"><ele>46.66666666666667</ele><time>2026-04-30T06:39:08Z</time></trkpt><trkpt lat="45.079394133453405" lon="9.697176895559664"><ele>47.333333333333336</ele><time>2026-04-30T06:39:09Z</time></trkpt><trkpt lat="45.07933730166276" lon="9.697382485668006"><ele>48.0</ele><time>2026-04-30T06:39:10Z</time></trkpt><trkpt lat="45.079282618674746" lon="9.697580302425905"><ele>47.666666666666664</ele><time>2026-04-30T06:39:11Z</time></trkpt><trkpt lat="45.079219952162966" lon="9.697806999775043"><ele>47.33333333333333</ele><time>2026-04-30T06:39:12Z</time></trkpt><trkpt lat="45.07915513801085" lon="9.69804146620549"><ele>47.0</ele><time>2026-04-30T06:39:13Z</time></trkpt><trkpt lat="45.07908455282305" lon="9.69829801235022"><ele>46.33333333333333</ele><time>2026-04-30T06:39:14Z</time></trkpt><trkpt lat="45.07901018188811" lon="9.698571298065353"><ele>45.666666666666664</ele><time>2026-04-30T06:39:15Z</time></trkpt><trkpt lat="45.07893486111566" lon="9.698848074148673"><ele>45.0</ele><time>2026-04-30T06:39:16Z</time></trkpt><trkpt lat="45.07885929366694" lon="9.699125756648115"><ele>45.0</ele><time>2026-04-30T06:39:17Z</time></trkpt><trkpt lat="45.07878583340157" lon="9.699393803406656"><ele>45.0</ele><time>2026-04-30T06:39:18Z</time></trkpt><trkpt lat="45.07871833345082" lon="9.699637577840596"><ele>45.0</ele><time>2026-04-30T06:39:19Z</time></trkpt><trkpt lat="45.07865249568035" lon="9.699875349223827"><ele>45.0</ele><time>2026-04-30T06:39:20Z</time></trkpt><trkpt lat="45.07858810209093" lon="9.700107905053699"><ele>45.0</ele><time>2026-04-30T06:39:21Z</time></trkpt><trkpt lat="45.07852839783514" lon="9.70032342743023"><ele>45.0</ele><time>2026-04-30T06:39:22Z</time></trkpt><trkpt lat="45.07847386780036" lon="9.700520198326249"><ele>45.8</ele><time>2026-04-30T06:39:23Z</time></trkpt><trkpt lat="45.0784274791954" lon="9.700683819655445"><ele>46.6</ele><time>2026-04-30T06:39:24Z</time></trkpt><trkpt lat="45.078384905962245" lon="9.700832870855981"><ele>47.400000000000006</ele><time>2026-04-30T06:39:25Z</time></trkpt><trkpt lat="45.078359264503405" lon="9.700971976378193"><ele>48.2</ele><time>2026-04-30T06:39:26Z</time></trkpt><trkpt lat="45.07832279711958" lon="9.701084360767455"><ele>49.0</ele><time>2026-04-30T06:39:27Z</time></trkpt><trkpt lat="45.078276071533615" lon="9.701196917800006"><ele>48.400000000000006</ele><time>2026-04-30T06:39:28Z</time></trkpt><trkpt lat="45.078237967890686" lon="9.701319171889827"><ele>47.8</ele><time>2026-04-30T06:39:29Z</time></trkpt><trkpt lat="45.078194526455974" lon="9.701449673942452"><ele>47.2</ele><time>2026-04-30T06:39:30Z</time></trkpt><trkpt lat="45.07814624214973" lon="9.70158815499447"><ele>46.599999999999994</ele><time>2026-04-30T06:39:31Z</time></trkpt><trkpt lat="45.078097300393694" lon="9.701723009724622"><ele>46.0</ele><time>2026-04-30T06:39:32Z</time></trkpt><trkpt lat="45.078048332062615" lon="9.701853961500927"><ele>45.599999999999994</ele><time>2026-04-30T06:39:33Z</time></trkpt><trkpt lat="45.078002063153704" lon="9.701976795115474"><ele>45.2</ele><time>2026-04-30T06:39:34Z</time></trkpt><trkpt lat="45.0779568859573" lon="9.7020938445746"><ele>44.8</ele><time>2026-04-30T06:39:35Z</time></trkpt><trkpt lat="45.07790702943506" lon="9.702223605077728"><ele>44.400000000000006</ele><time>2026-04-30T06:39:36Z</time></trkpt><trkpt lat="45.07785508450905" lon="9.702357364122012"><ele>44.0</ele><time>2026-04-30T06:39:37Z</time></trkpt><trkpt lat="45.0777994280771" lon="9.702497644525224"><ele>44.0</ele><time>2026-04-30T06:39:38Z</time></trkpt><trkpt lat="45.07774628117355" lon="9.702625275919331"><ele>44.0</ele><time>2026-04-30T06:39:39Z</time></trkpt><trkpt lat="45.07768560730367" lon="9.70276170969369"><ele>44.0</ele><time>2026-04-30T06:39:40Z</time></trkpt><trkpt lat="45.07762278458784" lon="9.70289140350023"><ele>44.0</ele><time>2026-04-30T06:39:41Z</time></trkpt><trkpt lat="45.07756296022569" lon="9.703006767631168"><ele>44.0</ele><time>2026-04-30T06:39:42Z</time></trkpt><trkpt lat="45.07750232020718" lon="9.703119987583321"><ele>44.0</ele><time>2026-04-30T06:39:43Z</time></trkpt><trkpt lat="45.07749165983993" lon="9.703269086681656"><ele>44.0</ele><time>2026-04-30T06:39:44Z</time></trkpt><trkpt lat="45.07743452154145" lon="9.70335127486149"><ele>44.0</ele><time>2026-04-30T06:39:45Z</time></trkpt><trkpt lat="45.077378307223604" lon="9.703474265987179"><ele>44.0</ele><time>2026-04-30T06:39:47Z</time></trkpt><trkpt lat="45.077290824002105" lon="9.703590789133933"><ele>44.0</ele><time>2026-04-30T06:39:49Z</time></trkpt><trkpt lat="45.077233359559" lon="9.703640673208458"><ele>44.166666666666664</ele><time>2026-04-30T06:39:50Z</time></trkpt><trkpt lat="45.07713452864113" lon="9.70374066041889"><ele>44.33333333333333</ele><time>2026-04-30T06:39:52Z</time></trkpt><trkpt lat="45.07707291683413" lon="9.703784552404496"><ele>44.5</ele><time>2026-04-30T06:39:53Z</time></trkpt><trkpt lat="45.076999375322" lon="9.703907890435687"><ele>44.666666666666664</ele><time>2026-04-30T06:39:55Z</time></trkpt><trkpt lat="45.07700760064229" lon="9.704001499612145"><ele>44.833333333333336</ele><time>2026-04-30T06:39:56Z</time></trkpt><trkpt lat="45.07701899947202" lon="9.704102389339022"><ele>45.0</ele><time>2026-04-30T06:39:57Z</time></trkpt><trkpt lat="45.07699181189277" lon="9.704192387586728"><ele>45.0</ele><time>2026-04-30T06:39:58Z</time></trkpt><trkpt lat="45.076912508693276" lon="9.70434636541356"><ele>45.0</ele><time>2026-04-30T06:40:00Z</time></trkpt><trkpt lat="45.07685024721054" lon="9.70440069189891"><ele>45.0</ele><time>2026-04-30T06:40:01Z</time></trkpt><trkpt lat="45.07677925490916" lon="9.704495197164059"><ele>45.0</ele><time>2026-04-30T06:40:02Z</time></trkpt><trkpt lat="45.07667182486194" lon="9.70450910545593"><ele>45.0</ele><time>2026-04-30T06:40:03Z</time></trkpt><trkpt lat="45.07658045740361" lon="9.704602551972746"><ele>45.75</ele><time>2026-04-30T06:40:04Z</time></trkpt><trkpt lat="45.07647611620668" lon="9.70468363726032"><ele>46.5</ele><time>2026-04-30T06:40:05Z</time></trkpt><trkpt lat="45.076369211592436" lon="9.704784101694445"><ele>47.25</ele><time>2026-04-30T06:40:06Z</time></trkpt><trkpt lat="45.07624853970328" lon="9.704849508570572"><ele>48.0</ele><time>2026-04-30T06:40:07Z</time></trkpt><trkpt lat="45.07612054079762" lon="9.70493803712209"><ele>48.0</ele><time>2026-04-30T06:40:08Z</time></trkpt><trkpt lat="45.07600342496377" lon="9.705031605329745"><ele>48.0</ele><time>2026-04-30T06:40:09Z</time></trkpt><trkpt lat="45.075874710531515" lon="9.705137742146286"><ele>48.0</ele><time>2026-04-30T06:40:10Z</time></trkpt><trkpt lat="45.075754512356475" lon="9.705237418633393"><ele>48.0</ele><time>2026-04-30T06:40:11Z</time></trkpt><trkpt lat="45.075633112393724" lon="9.705338096718464"><ele>48.0</ele><time>2026-04-30T06:40:12Z</time></trkpt><trkpt lat="45.07551698391452" lon="9.70543440310001"><ele>48.0</ele><time>2026-04-30T06:40:13Z</time></trkpt><trkpt lat="45.07541382073961" lon="9.705519266526297"><ele>48.0</ele><time>2026-04-30T06:40:14Z</time></trkpt><trkpt lat="45.075303208346135" lon="9.705610105585198"><ele>48.0</ele><time>2026-04-30T06:40:15Z</time></trkpt><trkpt lat="45.07519899494497" lon="9.705695689520795"><ele>48.0</ele><time>2026-04-30T06:40:16Z</time></trkpt><trkpt lat="45.0751039727063" lon="9.705771160597198"><ele>48.0</ele><time>2026-04-30T06:40:17Z</time></trkpt><trkpt lat="45.07499511707817" lon="9.705857568318905"><ele>48.0</ele><time>2026-04-30T06:40:18Z</time></trkpt><trkpt lat="45.07489247958999" lon="9.70593931053451"><ele>48.0</ele><time>2026-04-30T06:40:19Z</time></trkpt><trkpt lat="45.074785118490624" lon="9.706025461053283"><ele>47.75</ele><time>2026-04-30T06:40:20Z</time></trkpt><trkpt lat="45.07467813617009" lon="9.706111735203278"><ele>47.5</ele><time>2026-04-30T06:40:21Z</time></trkpt><trkpt lat="45.0745620982834" lon="9.706205327902499"><ele>47.25</ele><time>2026-04-30T06:40:22Z</time></trkpt><trkpt lat="45.07443622691729" lon="9.706306851967588"><ele>47.0</ele><time>2026-04-30T06:40:23Z</time></trkpt><trkpt lat="45.07428520103464" lon="9.706428421595044"><ele>47.0</ele><time>2026-04-30T06:40:24Z</time></trkpt><trkpt lat="45.07411675723953" lon="9.70656396530133"><ele>47.0</ele><time>2026-04-30T06:40:25Z</time></trkpt><trkpt lat="45.07393380353784" lon="9.706711186510685"><ele>47.0</ele><time>2026-04-30T06:40:26Z</time></trkpt><trkpt lat="45.073751487941934" lon="9.706857899123444"><ele>47.33333333333333</ele><time>2026-04-30T06:40:27Z</time></trkpt><trkpt lat="45.07357165563018" lon="9.707002617392266"><ele>47.666666666666664</ele><time>2026-04-30T06:40:28Z</time></trkpt><trkpt lat="45.07339338544745" lon="9.707146261581647"><ele>48.0</ele><time>2026-04-30T06:40:29Z</time></trkpt><trkpt lat="45.07321367133267" lon="9.707291161048518"><ele>47.0</ele><time>2026-04-30T06:40:30Z</time></trkpt><trkpt lat="45.07303439039254" lon="9.707435711179746"><ele>46.0</ele><time>2026-04-30T06:40:31Z</time></trkpt><trkpt lat="45.07285069437137" lon="9.707584238336377"><ele>45.0</ele><time>2026-04-30T06:40:32Z</time></trkpt><trkpt lat="45.072666101085986" lon="9.70773366724054"><ele>45.666666666666664</ele><time>2026-04-30T06:40:33Z</time></trkpt><trkpt lat="45.07249086232733" lon="9.707875523630294"><ele>46.33333333333333</ele><time>2026-04-30T06:40:34Z</time></trkpt><trkpt lat="45.07231897574213" lon="9.708015131496413"><ele>47.0</ele><time>2026-04-30T06:40:35Z</time></trkpt><trkpt lat="45.07214996087971" lon="9.708152609119404"><ele>47.0</ele><time>2026-04-30T06:40:36Z</time></trkpt><trkpt lat="45.071977872081014" lon="9.708292587052009"><ele>47.0</ele><time>2026-04-30T06:40:37Z</time></trkpt><trkpt lat="45.0718118652773" lon="9.708427617848125"><ele>47.0</ele><time>2026-04-30T06:40:38Z</time></trkpt><trkpt lat="45.07165188359398" lon="9.708558233827848"><ele>47.666666666666664</ele><time>2026-04-30T06:40:39Z</time></trkpt><trkpt lat="45.07147703480676" lon="9.708701719389241"><ele>48.33333333333333</ele><time>2026-04-30T06:40:40Z</time></trkpt><trkpt lat="45.07130681886753" lon="9.708841403053471"><ele>49.0</ele><time>2026-04-30T06:40:41Z</time></trkpt><trkpt lat="45.07114286589946" lon="9.708975704502645"><ele>49.0</ele><time>2026-04-30T06:40:42Z</time></trkpt><trkpt lat="45.07098491010531" lon="9.709105664458452"><ele>49.0</ele><time>2026-04-30T06:40:43Z</time></trkpt><trkpt lat="45.07083644178887" lon="9.709228082937713"><ele>49.0</ele><time>2026-04-30T06:40:44Z</time></trkpt><trkpt lat="45.07068135818212" lon="9.709357071611082"><ele>49.0</ele><time>2026-04-30T06:40:45Z</time></trkpt><trkpt lat="45.070547900619" lon="9.709461544752086"><ele>49.0</ele><time>2026-04-30T06:40:46Z</time></trkpt><trkpt lat="45.07040959918882" lon="9.709560763086117"><ele>49.0</ele><time>2026-04-30T06:40:47Z</time></trkpt><trkpt lat="45.07026125662838" lon="9.709645473474383"><ele>49.0</ele><time>2026-04-30T06:40:48Z</time></trkpt><trkpt lat="45.070114017167874" lon="9.709695057099815"><ele>49.0</ele><time>2026-04-30T06:40:49Z</time></trkpt><trkpt lat="45.06998977769575" lon="9.709702960728514"><ele>49.0</ele><time>2026-04-30T06:40:50Z</time></trkpt><trkpt lat="45.06983114811299" lon="9.709696827408473"><ele>49.0</ele><time>2026-04-30T06:40:51Z</time></trkpt><trkpt lat="45.06970093158538" lon="9.709680949899996"><ele>49.5</ele><time>2026-04-30T06:40:52Z</time></trkpt><trkpt lat="45.06957615122523" lon="9.709646901326208"><ele>50.0</ele><time>2026-04-30T06:40:53Z</time></trkpt><trkpt lat="45.06946258476248" lon="9.709596065781746"><ele>50.5</ele><time>2026-04-30T06:40:54Z</time></trkpt><trkpt lat="45.06934269022997" lon="9.709520388569478"><ele>51.0</ele><time>2026-04-30T06:40:55Z</time></trkpt><trkpt lat="45.069217440205094" lon="9.709433074848274"><ele>50.66666666666667</ele><time>2026-04-30T06:40:56Z</time></trkpt><trkpt lat="45.069058976814034" lon="9.709318809632467"><ele>50.333333333333336</ele><time>2026-04-30T06:40:57Z</time></trkpt><trkpt lat="45.068899629493096" lon="9.709197144558942"><ele>50.0</ele><time>2026-04-30T06:40:58Z</time></trkpt><trkpt lat="45.068738611856276" lon="9.709079799588917"><ele>50.0</ele><time>2026-04-30T06:40:59Z</time></trkpt><trkpt lat="45.06859496308183" lon="9.70897438149131"><ele>50.0</ele><time>2026-04-30T06:41:00Z</time></trkpt><trkpt lat="45.068485711487746" lon="9.708895782732945"><ele>50.0</ele><time>2026-04-30T06:41:01Z</time></trkpt><trkpt lat="45.068361373930145" lon="9.708803525598421"><ele>50.0</ele><time>2026-04-30T06:41:02Z</time></trkpt><trkpt lat="45.06823427208125" lon="9.708709668976434"><ele>50.66666666666667</ele><time>2026-04-30T06:41:03Z</time></trkpt><trkpt lat="45.06808996112585" lon="9.708603357103486"><ele>51.33333333333333</ele><time>2026-04-30T06:41:04Z</time></trkpt><trkpt lat="45.06793208805299" lon="9.708487156506795"><ele>52.0</ele><time>2026-04-30T06:41:05Z</time></trkpt><trkpt lat="45.06777145428205" lon="9.708368923955147"><ele>50.666666666666664</ele><time>2026-04-30T06:41:06Z</time></trkpt><trkpt lat="45.06763458340424" lon="9.708268181706707"><ele>49.33333333333333</ele><time>2026-04-30T06:41:07Z</time></trkpt><trkpt lat="45.067498390317034" lon="9.708167938414716"><ele>48.0</ele><time>2026-04-30T06:41:08Z</time></trkpt><trkpt lat="45.067366143458905" lon="9.70807051042085"><ele>48.0</ele><time>2026-04-30T06:41:09Z</time></trkpt><trkpt lat="45.067230960907196" lon="9.707972316660438"><ele>48.0</ele><time>2026-04-30T06:41:10Z</time></trkpt><trkpt lat="45.0670937506383" lon="9.70787264979775"><ele>48.0</ele><time>2026-04-30T06:41:11Z</time></trkpt><trkpt lat="45.06695207564903" lon="9.707769739911972"><ele>48.33333333333333</ele><time>2026-04-30T06:41:12Z</time></trkpt><trkpt lat="45.0668022000406" lon="9.707659769299543"><ele>48.666666666666664</ele><time>2026-04-30T06:41:13Z</time></trkpt><trkpt lat="45.06665669940086" lon="9.7075543847688"><ele>49.0</ele><time>2026-04-30T06:41:14Z</time></trkpt><trkpt lat="45.06654474788761" lon="9.707473295087954"><ele>48.0</ele><time>2026-04-30T06:41:15Z</time></trkpt><trkpt lat="45.06640374884185" lon="9.707371165418188"><ele>47.0</ele><time>2026-04-30T06:41:16Z</time></trkpt><trkpt lat="45.06626356715071" lon="9.707269456231366"><ele>46.0</ele><time>2026-04-30T06:41:17Z</time></trkpt><trkpt lat="45.066128896320464" lon="9.707171390812183"><ele>46.0</ele><time>2026-04-30T06:41:18Z</time></trkpt><trkpt lat="45.06599019938062" lon="9.707070316410103"><ele>46.0</ele><time>2026-04-30T06:41:19Z</time></trkpt><trkpt lat="45.06584304938817" lon="9.706963050853643"><ele>46.0</ele><time>2026-04-30T06:41:20Z</time></trkpt><trkpt lat="45.065709942615655" lon="9.706865720439092"><ele>45.66666666666667</ele><time>2026-04-30T06:41:21Z</time></trkpt><trkpt lat="45.06554819298112" lon="9.70674745366816"><ele>45.333333333333336</ele><time>2026-04-30T06:41:21.999Z</time></trkpt><trkpt lat="45.065383419926384" lon="9.706626976177455"><ele>45.0</ele><time>2026-04-30T06:41:22.999Z</time></trkpt><trkpt lat="45.06522809587654" lon="9.706513407646927"><ele>45.0</ele><time>2026-04-30T06:41:23.999Z</time></trkpt><trkpt lat="45.06506724344767" lon="9.706395796810929"><ele>45.0</ele><time>2026-04-30T06:41:24.999Z</time></trkpt><trkpt lat="45.06488664711629" lon="9.706263749869647"><ele>45.0</ele><time>2026-04-30T06:41:25.999Z</time></trkpt><trkpt lat="45.064738743173116" lon="9.70615575071626"><ele>46.33333333333333</ele><time>2026-04-30T06:41:26.999Z</time></trkpt><trkpt lat="45.06458950798618" lon="9.706046833591353"><ele>47.666666666666664</ele><time>2026-04-30T06:41:27.999Z</time></trkpt><trkpt lat="45.06443100792996" lon="9.705931154718865"><ele>49.0</ele><time>2026-04-30T06:41:28.999Z</time></trkpt><trkpt lat="45.06427002294795" lon="9.705813663990028"><ele>48.0</ele><time>2026-04-30T06:41:29.999Z</time></trkpt><trkpt lat="45.06410317958562" lon="9.705691896069936"><ele>47.0</ele><time>2026-04-30T06:41:30.999Z</time></trkpt><trkpt lat="45.063937306923854" lon="9.705570836198754"><ele>46.0</ele><time>2026-04-30T06:41:31.999Z</time></trkpt><trkpt lat="45.06378563203961" lon="9.705460138647327"><ele>46.0</ele><time>2026-04-30T06:41:32.999Z</time></trkpt><trkpt lat="45.06362011686257" lon="9.705339339876321"><ele>46.0</ele><time>2026-04-30T06:41:33.999Z</time></trkpt><trkpt lat="45.06347240677043" lon="9.705231559338731"><ele>46.0</ele><time>2026-04-30T06:41:34.999Z</time></trkpt><trkpt lat="45.06331810711315" lon="9.705118902466827"><ele>47.333333333333336</ele><time>2026-04-30T06:41:35.999Z</time></trkpt><trkpt lat="45.06314575485635" lon="9.704992735420218"><ele>48.66666666666667</ele><time>2026-04-30T06:41:36.999Z</time></trkpt><trkpt lat="45.06295887155049" lon="9.704855931316859"><ele>50.0</ele><time>2026-04-30T06:41:37.999Z</time></trkpt><trkpt lat="45.062783447862444" lon="9.704727515983354"><ele>50.0</ele><time>2026-04-30T06:41:38.999Z</time></trkpt><trkpt lat="45.06259901863822" lon="9.70459250824608"><ele>50.0</ele><time>2026-04-30T06:41:39.999Z</time></trkpt><trkpt lat="45.06245148138769" lon="9.704484506543267"><ele>50.0</ele><time>2026-04-30T06:41:40.999Z</time></trkpt><trkpt lat="45.06228997597167" lon="9.704366279758773"><ele>49.0</ele><time>2026-04-30T06:41:41.999Z</time></trkpt><trkpt lat="45.06211907426584" lon="9.704241174603377"><ele>48.0</ele><time>2026-04-30T06:41:42.999Z</time></trkpt><trkpt lat="45.06195087593014" lon="9.704118054707983"><ele>47.0</ele><time>2026-04-30T06:41:43.999Z</time></trkpt><trkpt lat="45.06177912479695" lon="9.703992481521343"><ele>45.33333333333333</ele><time>2026-04-30T06:41:44.999Z</time></trkpt><trkpt lat="45.06160745948578" lon="9.703866801167868"><ele>43.666666666666664</ele><time>2026-04-30T06:41:45.999Z</time></trkpt><trkpt lat="45.06143926547122" lon="9.703743636669536"><ele>42.0</ele><time>2026-04-30T06:41:46.999Z</time></trkpt><trkpt lat="45.061283740709456" lon="9.703629865995385"><ele>41.666666666666664</ele><time>2026-04-30T06:41:47.999Z</time></trkpt><trkpt lat="45.06112000946355" lon="9.703510549968763"><ele>41.33333333333333</ele><time>2026-04-30T06:41:48.999Z</time></trkpt><trkpt lat="45.06095376798622" lon="9.70338940475865"><ele>41.0</ele><time>2026-04-30T06:41:49.999Z</time></trkpt><trkpt lat="45.0607895956099" lon="9.703269767275351"><ele>41.0</ele><time>2026-04-30T06:41:50.999Z</time></trkpt><trkpt lat="45.06064441528208" lon="9.703163969871202"><ele>41.0</ele><time>2026-04-30T06:41:51.999Z</time></trkpt><trkpt lat="45.060483641402236" lon="9.703047115848177"><ele>41.0</ele><time>2026-04-30T06:41:52.999Z</time></trkpt><trkpt lat="45.0603151714023" lon="9.702925184259824"><ele>41.0</ele><time>2026-04-30T06:41:53.999Z</time></trkpt><trkpt lat="45.060151198860375" lon="9.702806507743956"><ele>41.0</ele><time>2026-04-30T06:41:54.999Z</time></trkpt><trkpt lat="45.059992228109145" lon="9.702690941358652"><ele>41.0</ele><time>2026-04-30T06:41:55.999Z</time></trkpt><trkpt lat="45.05986053118263" lon="9.702594202146782"><ele>43.0</ele><time>2026-04-30T06:41:56.999Z</time></trkpt><trkpt lat="45.05975526112169" lon="9.702516101316762"><ele>45.0</ele><time>2026-04-30T06:41:57.999Z</time></trkpt><trkpt lat="45.059693864606785" lon="9.702469979353198"><ele>47.0</ele><time>2026-04-30T06:41:58.999Z</time></trkpt><trkpt lat="45.059614378983404" lon="9.702432735415053"><ele>49.0</ele><time>2026-04-30T06:41:59.999Z</time></trkpt><trkpt lat="45.059556903081145" lon="9.702364635657595"><ele>51.00000000000001</ele><time>2026-04-30T06:42:01.999Z</time></trkpt><trkpt lat="45.05948594312842" lon="9.702309064217289"><ele>53.0</ele><time>2026-04-30T06:42:04.999Z</time></trkpt><trkpt lat="45.05942508589609" lon="9.702255737729486"><ele>53.0</ele><time>2026-04-30T06:42:06.999Z</time></trkpt><trkpt lat="45.05932993885361" lon="9.702160149355441"><ele>53.0</ele><time>2026-04-30T06:42:08.999Z</time></trkpt><trkpt lat="45.05927698242244" lon="9.702100550890316"><ele>53.0</ele><time>2026-04-30T06:42:09.999Z</time></trkpt><trkpt lat="45.05920409669777" lon="9.702015793692778"><ele>53.0</ele><time>2026-04-30T06:42:10.999Z</time></trkpt><trkpt lat="45.059114144311195" lon="9.701901158972817"><ele>53.0</ele><time>2026-04-30T06:42:12.999Z</time></trkpt><trkpt lat="45.059047359297516" lon="9.701817418595175"><ele>52.599999999999994</ele><time>2026-04-30T06:42:13.999Z</time></trkpt><trkpt lat="45.058975275847985" lon="9.701727034091052"><ele>52.199999999999996</ele><time>2026-04-30T06:42:14.999Z</time></trkpt><trkpt lat="45.05889532437875" lon="9.701628155692484"><ele>51.8</ele><time>2026-04-30T06:42:15.999Z</time></trkpt><trkpt lat="45.058819983781646" lon="9.701534250978488"><ele>51.4</ele><time>2026-04-30T06:42:16.999Z</time></trkpt><trkpt lat="45.05874438144063" lon="9.70144002008666"><ele>51.0</ele><time>2026-04-30T06:42:17.999Z</time></trkpt><trkpt lat="45.05865697295512" lon="9.701331596800225"><ele>51.0</ele><time>2026-04-30T06:42:18.999Z</time></trkpt><trkpt lat="45.058579312457525" lon="9.701235398557733"><ele>51.0</ele><time>2026-04-30T06:42:19.999Z</time></trkpt><trkpt lat="45.05852593087961" lon="9.701169274499172"><ele>51.0</ele><time>2026-04-30T06:42:20.999Z</time></trkpt><trkpt lat="45.0584176769467" lon="9.701061561300877"><ele>51.0</ele><time>2026-04-30T06:42:21.999Z</time></trkpt><trkpt lat="45.058353013836815" lon="9.700976813321114"><ele>51.0</ele><time>2026-04-30T06:42:22.999Z</time></trkpt><trkpt lat="45.05828995303512" lon="9.700894225508339"><ele>51.5</ele><time>2026-04-30T06:42:23.999Z</time></trkpt><trkpt lat="45.05823779162135" lon="9.700804808387918"><ele>52.0</ele><time>2026-04-30T06:42:24.999Z</time></trkpt><trkpt lat="45.05817656266084" lon="9.700723118580324"><ele>52.5</ele><time>2026-04-30T06:42:25.999Z</time></trkpt><trkpt lat="45.05810076965546" lon="9.700642977426913"><ele>53.0</ele><time>2026-04-30T06:42:26.999Z</time></trkpt><trkpt lat="45.05804613127369" lon="9.70054338409736"><ele>53.5</ele><time>2026-04-30T06:42:27.999Z</time></trkpt><trkpt lat="45.0579804351027" lon="9.700456036365807"><ele>54.0</ele><time>2026-04-30T06:42:28.999Z</time></trkpt><trkpt lat="45.05792367007421" lon="9.700383869193836"><ele>54.0</ele><time>2026-04-30T06:42:29.999Z</time></trkpt><trkpt lat="45.05785021312596" lon="9.700290481066661"><ele>54.0</ele><time>2026-04-30T06:42:31.999Z</time></trkpt><trkpt lat="45.057787914960585" lon="9.700212177650242"><ele>54.0</ele><time>2026-04-30T06:42:34.002Z</time></trkpt><trkpt lat="45.05773492481146" lon="9.7001465387134"><ele>54.0</ele><time>2026-04-30T06:42:36.002Z</time></trkpt><trkpt lat="45.057670733336366" lon="9.700099062920547"><ele>54.0</ele><time>2026-04-30T06:42:38.002Z</time></trkpt><trkpt lat="45.057591611865696" lon="9.700072960087278"><ele>54.0</ele><time>2026-04-30T06:42:41.002Z</time></trkpt><trkpt lat="45.057544598014665" lon="9.699939809514182"><ele>54.0</ele><time>2026-04-30T06:43:06.001Z</time></trkpt><trkpt lat="45.05752110256275" lon="9.699844195304976"><ele>54.0</ele><time>2026-04-30T06:43:07Z</time></trkpt><trkpt lat="45.05750241269351" lon="9.699727489007685"><ele>54.0</ele><time>2026-04-30T06:43:08Z</time></trkpt><trkpt lat="45.05738185731723" lon="9.699679850371687"><ele>54.0</ele><time>2026-04-30T06:43:10Z</time></trkpt><trkpt lat="45.05732381050792" lon="9.699742220996983"><ele>54.0</ele><time>2026-04-30T06:43:11Z</time></trkpt><trkpt lat="45.05726830262438" lon="9.699795465807478"><ele>54.0</ele><time>2026-04-30T06:43:12Z</time></trkpt><trkpt lat="45.05722317801679" lon="9.69988120692477"><ele>54.0</ele><time>2026-04-30T06:43:13Z</time></trkpt><trkpt lat="45.05720437723922" lon="9.700005126078475"><ele>54.0</ele><time>2026-04-30T06:43:14Z</time></trkpt><trkpt lat="45.05716043975112" lon="9.700154262260938"><ele>54.0</ele><time>2026-04-30T06:43:15Z</time></trkpt><trkpt lat="45.057129270696635" lon="9.70035081645785"><ele>54.0</ele><time>2026-04-30T06:43:16Z</time></trkpt><trkpt lat="45.05708810999309" lon="9.700496163014453"><ele>54.2</ele><time>2026-04-30T06:43:17Z</time></trkpt><trkpt lat="45.05705070198744" lon="9.700648795988968"><ele>54.400000000000006</ele><time>2026-04-30T06:43:18Z</time></trkpt><trkpt lat="45.05699284489343" lon="9.700784627003642"><ele>54.6</ele><time>2026-04-30T06:43:19Z</time></trkpt><trkpt lat="45.05694207748237" lon="9.700923283616115"><ele>54.8</ele><time>2026-04-30T06:43:20Z</time></trkpt><trkpt lat="45.056900192351634" lon="9.701043482250212"><ele>55.0</ele><time>2026-04-30T06:43:21Z</time></trkpt><trkpt lat="45.056859925060785" lon="9.701156173113331"><ele>54.6</ele><time>2026-04-30T06:43:22Z</time></trkpt><trkpt lat="45.05682082453564" lon="9.701265598852848"><ele>54.2</ele><time>2026-04-30T06:43:23Z</time></trkpt><trkpt lat="45.05678416115499" lon="9.70137505437718"><ele>53.8</ele><time>2026-04-30T06:43:24Z</time></trkpt><trkpt lat="45.05674526190589" lon="9.70149634160782"><ele>53.4</ele><time>2026-04-30T06:43:25Z</time></trkpt><trkpt lat="45.05666737063263" lon="9.701558936925908"><ele>53.0</ele><time>2026-04-30T06:43:26Z</time></trkpt><trkpt lat="45.05661099574515" lon="9.701669439639645"><ele>52.8</ele><time>2026-04-30T06:43:27Z</time></trkpt><trkpt lat="45.05657235039268" lon="9.701806103375443"><ele>52.599999999999994</ele><time>2026-04-30T06:43:28Z</time></trkpt><trkpt lat="45.05645893296348" lon="9.701916326501776"><ele>52.400000000000006</ele><time>2026-04-30T06:43:29Z</time></trkpt><trkpt lat="45.05639493116007" lon="9.702010933907173"><ele>52.2</ele><time>2026-04-30T06:43:30Z</time></trkpt><trkpt lat="45.05632381589864" lon="9.702103006592566"><ele>52.0</ele><time>2026-04-30T06:43:31Z</time></trkpt><trkpt lat="45.056272541441906" lon="9.702178968202446"><ele>51.99999999999999</ele><time>2026-04-30T06:43:32Z</time></trkpt><trkpt lat="45.05622339546993" lon="9.70225716678762"><ele>52.0</ele><time>2026-04-30T06:43:33Z</time></trkpt><trkpt lat="45.056166038810225" lon="9.702349401483074"><ele>52.0</ele><time>2026-04-30T06:43:34Z</time></trkpt><trkpt lat="45.056115894932525" lon="9.70243694447249"><ele>52.0</ele><time>2026-04-30T06:43:35Z</time></trkpt><trkpt lat="45.05605880683239" lon="9.702517846769458"><ele>51.99999999999999</ele><time>2026-04-30T06:43:36Z</time></trkpt><trkpt lat="45.05600091673444" lon="9.702607979301249"><ele>52.0</ele><time>2026-04-30T06:43:37Z</time></trkpt><trkpt lat="45.05593830160784" lon="9.702705600431996"><ele>52.2</ele><time>2026-04-30T06:43:38Z</time></trkpt><trkpt lat="45.05585301079419" lon="9.702749225669045"><ele>52.400000000000006</ele><time>2026-04-30T06:43:39Z</time></trkpt><trkpt lat="45.055764622119526" lon="9.702809305450536"><ele>52.599999999999994</ele><time>2026-04-30T06:43:40Z</time></trkpt><trkpt lat="45.055656800380234" lon="9.702874319777479"><ele>52.8</ele><time>2026-04-30T06:43:41Z</time></trkpt><trkpt lat="45.05555912528857" lon="9.702929990616946"><ele>53.0</ele><time>2026-04-30T06:43:42Z</time></trkpt><trkpt lat="45.055457947066856" lon="9.702987686688045"><ele>53.0</ele><time>2026-04-30T06:43:43Z</time></trkpt><trkpt lat="45.05536244833739" lon="9.703043167733238"><ele>53.0</ele><time>2026-04-30T06:43:44Z</time></trkpt><trkpt lat="45.05525925243546" lon="9.703103120398671"><ele>53.0</ele><time>2026-04-30T06:43:45Z</time></trkpt><trkpt lat="45.055158117588284" lon="9.703161875791052"><ele>53.0</ele><time>2026-04-30T06:43:46Z</time></trkpt><trkpt lat="45.05502124335771" lon="9.703240938646212"><ele>52.75</ele><time>2026-04-30T06:43:47Z</time></trkpt><trkpt lat="45.05489219813879" lon="9.703313286315701"><ele>52.5</ele><time>2026-04-30T06:43:48Z</time></trkpt><trkpt lat="45.05474717404289" lon="9.7033923813547"><ele>52.25</ele><time>2026-04-30T06:43:49Z</time></trkpt><trkpt lat="45.054623083456804" lon="9.703456583160676"><ele>52.0</ele><time>2026-04-30T06:43:50Z</time></trkpt><trkpt lat="45.054513897937646" lon="9.703505427234738"><ele>52.0</ele><time>2026-04-30T06:43:51Z</time></trkpt><trkpt lat="45.054411106928505" lon="9.703532363401994"><ele>52.0</ele><time>2026-04-30T06:43:52Z</time></trkpt><trkpt lat="45.054313335946716" lon="9.703560726368925"><ele>52.0</ele><time>2026-04-30T06:43:53Z</time></trkpt><trkpt lat="45.05422831993004" lon="9.703562999090202"><ele>52.0</ele><time>2026-04-30T06:43:54Z</time></trkpt><trkpt lat="45.05416264091036" lon="9.703588673993174"><ele>52.0</ele><time>2026-04-30T06:43:55Z</time></trkpt><trkpt lat="45.05409094133972" lon="9.703674814520223"><ele>51.8</ele><time>2026-04-30T06:43:56Z</time></trkpt><trkpt lat="45.05402279982214" lon="9.703773536906182"><ele>51.6</ele><time>2026-04-30T06:43:57Z</time></trkpt><trkpt lat="45.05393424866785" lon="9.70385335121199"><ele>51.4</ele><time>2026-04-30T06:43:58Z</time></trkpt><trkpt lat="45.05383639349107" lon="9.703930234346311"><ele>51.199999999999996</ele><time>2026-04-30T06:43:59Z</time></trkpt><trkpt lat="45.05372461714442" lon="9.703989577080039"><ele>51.0</ele><time>2026-04-30T06:44:00Z</time></trkpt><trkpt lat="45.053616304565885" lon="9.704045841871471"><ele>51.0</ele><time>2026-04-30T06:44:01Z</time></trkpt><trkpt lat="45.053502349907724" lon="9.704102231792127"><ele>51.0</ele><time>2026-04-30T06:44:02Z</time></trkpt><trkpt lat="45.05339064056112" lon="9.704155278270942"><ele>51.0</ele><time>2026-04-30T06:44:03Z</time></trkpt><trkpt lat="45.053272751188764" lon="9.704196805920157"><ele>51.0</ele><time>2026-04-30T06:44:04Z</time></trkpt><trkpt lat="45.05316013706187" lon="9.704246871070296"><ele>51.5</ele><time>2026-04-30T06:44:05Z</time></trkpt><trkpt lat="45.05305439720199" lon="9.704303875302259"><ele>52.0</ele><time>2026-04-30T06:44:06Z</time></trkpt><trkpt lat="45.05294837459484" lon="9.704361505603462"><ele>52.5</ele><time>2026-04-30T06:44:07Z</time></trkpt><trkpt lat="45.052840339953306" lon="9.704424460010348"><ele>53.0</ele><time>2026-04-30T06:44:08Z</time></trkpt><trkpt lat="45.05273726135513" lon="9.704494492235792"><ele>53.0</ele><time>2026-04-30T06:44:09Z</time></trkpt><trkpt lat="45.052636001807635" lon="9.704560887498097"><ele>53.0</ele><time>2026-04-30T06:44:10Z</time></trkpt><trkpt lat="45.052537682513645" lon="9.704620971548888"><ele>53.0</ele><time>2026-04-30T06:44:11Z</time></trkpt><trkpt lat="45.05244125643773" lon="9.704672723780218"><ele>53.0</ele><time>2026-04-30T06:44:12Z</time></trkpt><trkpt lat="45.052351232790315" lon="9.704712792910373"><ele>53.0</ele><time>2026-04-30T06:44:13Z</time></trkpt><trkpt lat="45.05227065143693" lon="9.704754549887134"><ele>52.833333333333336</ele><time>2026-04-30T06:44:14Z</time></trkpt><trkpt lat="45.05220390542457" lon="9.704777328420615"><ele>52.66666666666667</ele><time>2026-04-30T06:44:15Z</time></trkpt><trkpt lat="45.05211566574133" lon="9.704809803906807"><ele>52.5</ele><time>2026-04-30T06:44:17Z</time></trkpt><trkpt lat="45.05204234632371" lon="9.704794855543385"><ele>52.33333333333333</ele><time>2026-04-30T06:44:19Z</time></trkpt><trkpt lat="45.051974870071376" lon="9.704757268926802"><ele>52.166666666666664</ele><time>2026-04-30T06:44:21Z</time></trkpt><trkpt lat="45.05187878605652" lon="9.704751599672074"><ele>52.0</ele><time>2026-04-30T06:44:23Z</time></trkpt><trkpt lat="45.05181662755136" lon="9.704736181797985"><ele>52.0</ele><time>2026-04-30T06:44:25Z</time></trkpt><trkpt lat="45.05179989237174" lon="9.70483890611868"><ele>52.0</ele><time>2026-04-30T06:44:35Z</time></trkpt><trkpt lat="45.05172501173145" lon="9.704926421977751"><ele>52.0</ele><time>2026-04-30T06:44:38Z</time></trkpt><trkpt lat="45.05165836622746" lon="9.705004355160629"><ele>52.0</ele><time>2026-04-30T06:44:40Z</time></trkpt><trkpt lat="45.05160500007919" lon="9.705130081099876"><ele>52.0</ele><time>2026-04-30T06:44:42Z</time></trkpt><trkpt lat="45.05151379999439" lon="9.705191159094731"><ele>52.8</ele><time>2026-04-30T06:44:44Z</time></trkpt><trkpt lat="45.05140453485196" lon="9.705240874088558"><ele>53.6</ele><time>2026-04-30T06:44:46Z</time></trkpt><trkpt lat="45.05129198151441" lon="9.705318046347053"><ele>54.39999999999999</ele><time>2026-04-30T06:44:48Z</time></trkpt><trkpt lat="45.05122169775196" lon="9.705358371074608"><ele>55.199999999999996</ele><time>2026-04-30T06:44:49Z</time></trkpt><trkpt lat="45.051162873315306" lon="9.705400325467908"><ele>56.0</ele><time>2026-04-30T06:44:49.999Z</time></trkpt><trkpt lat="45.05110018988689" lon="9.70544854722357"><ele>56.833333333333336</ele><time>2026-04-30T06:44:50.999Z</time></trkpt><trkpt lat="45.05103368598018" lon="9.705500055961034"><ele>57.66666666666667</ele><time>2026-04-30T06:44:51.999Z</time></trkpt><trkpt lat="45.050962880099874" lon="9.705555114548725"><ele>58.5</ele><time>2026-04-30T06:44:52.999Z</time></trkpt><trkpt lat="45.05088670649368" lon="9.705614347197436"><ele>59.33333333333333</ele><time>2026-04-30T06:44:53.999Z</time></trkpt><trkpt lat="45.05080793877181" lon="9.705674205272562"><ele>60.166666666666664</ele><time>2026-04-30T06:44:54.999Z</time></trkpt><trkpt lat="45.050735618561816" lon="9.70575117883921"><ele>61.0</ele><time>2026-04-30T06:44:55.999Z</time></trkpt><trkpt lat="45.050645377709856" lon="9.705795796580635"><ele>61.33333333333333</ele><time>2026-04-30T06:44:56.999Z</time></trkpt><trkpt lat="45.05057300513238" lon="9.70587070848853"><ele>61.666666666666664</ele><time>2026-04-30T06:44:57.999Z</time></trkpt><trkpt lat="45.050501652088215" lon="9.705925288095761"><ele>62.0</ele><time>2026-04-30T06:44:58.999Z</time></trkpt><trkpt lat="45.05042651870074" lon="9.705971772295308"><ele>62.33333333333333</ele><time>2026-04-30T06:44:59.999Z</time></trkpt><trkpt lat="45.050348875892276" lon="9.706022166853812"><ele>62.666666666666664</ele><time>2026-04-30T06:45:00.999Z</time></trkpt><trkpt lat="45.0502749963995" lon="9.706073734402075"><ele>63.0</ele><time>2026-04-30T06:45:01.999Z</time></trkpt><trkpt lat="45.05020819479969" lon="9.70611386023241"><ele>62.0</ele><time>2026-04-30T06:45:02.999Z</time></trkpt><trkpt lat="45.05011363149264" lon="9.7061741830482"><ele>61.0</ele><time>2026-04-30T06:45:04.999Z</time></trkpt><trkpt lat="45.05000399546545" lon="9.706173142092627"><ele>60.0</ele><time>2026-04-30T06:45:06.999Z</time></trkpt><trkpt lat="45.049943121123306" lon="9.706134645365731"><ele>59.0</ele><time>2026-04-30T06:45:07.999Z</time></trkpt><trkpt lat="45.04987780684194" lon="9.70612162460934"><ele>58.0</ele><time>2026-04-30T06:45:08.999Z</time></trkpt><trkpt lat="45.04980748012988" lon="9.706114417831069"><ele>57.0</ele><time>2026-04-30T06:45:09.999Z</time></trkpt><trkpt lat="45.04975990197575" lon="9.706179889448713"><ele>57.0</ele><time>2026-04-30T06:45:10.999Z</time></trkpt><trkpt lat="45.049696921192286" lon="9.706188809708902"><ele>57.0</ele><time>2026-04-30T06:45:11.999Z</time></trkpt><trkpt lat="45.04963355231453" lon="9.706212521829912"><ele>57.0</ele><time>2026-04-30T06:45:12.999Z</time></trkpt><trkpt lat="45.04952475001459" lon="9.706269823692557"><ele>57.0</ele><time>2026-04-30T06:45:14.999Z</time></trkpt><trkpt lat="45.04946331421795" lon="9.706304145894794"><ele>57.0</ele><time>2026-04-30T06:45:15.999Z</time></trkpt><trkpt lat="45.04939600822797" lon="9.706354961685136"><ele>57.0</ele><time>2026-04-30T06:45:16.999Z</time></trkpt><trkpt lat="45.04932245806288" lon="9.70639713160137"><ele>57.0</ele><time>2026-04-30T06:45:17.999Z</time></trkpt><trkpt lat="45.049249781529056" lon="9.706437874252758"><ele>57.0</ele><time>2026-04-30T06:45:18.999Z</time></trkpt><trkpt lat="45.04917338028885" lon="9.706466996564785"><ele>57.0</ele><time>2026-04-30T06:45:19.999Z</time></trkpt><trkpt lat="45.04909528242506" lon="9.706512980304563"><ele>57.0</ele><time>2026-04-30T06:45:20.999Z</time></trkpt><trkpt lat="45.049014110741226" lon="9.706558851665946"><ele>57.0</ele><time>2026-04-30T06:45:21.999Z</time></trkpt><trkpt lat="45.04893809816489" lon="9.70660192147881"><ele>57.0</ele><time>2026-04-30T06:45:22.999Z</time></trkpt><trkpt lat="45.04885640293328" lon="9.70664862024103"><ele>56.833333333333336</ele><time>2026-04-30T06:45:23.999Z</time></trkpt><trkpt lat="45.04878257345909" lon="9.706690441676892"><ele>56.66666666666667</ele><time>2026-04-30T06:45:24.999Z</time></trkpt><trkpt lat="45.04870167230763" lon="9.706711771239716"><ele>56.5</ele><time>2026-04-30T06:45:25.999Z</time></trkpt><trkpt lat="45.048620249325005" lon="9.706684863693305"><ele>56.333333333333336</ele><time>2026-04-30T06:45:26.999Z</time></trkpt><trkpt lat="45.04853877471663" lon="9.706641095255902"><ele>56.16666666666667</ele><time>2026-04-30T06:45:27.999Z</time></trkpt><trkpt lat="45.04844986703335" lon="9.70659036177893"><ele>56.0</ele><time>2026-04-30T06:45:28.999Z</time></trkpt><trkpt lat="45.048371647512795" lon="9.70650005940479"><ele>56.0</ele><time>2026-04-30T06:45:29.999Z</time></trkpt><trkpt lat="45.048295242369555" lon="9.706410148082698"><ele>55.99999999999999</ele><time>2026-04-30T06:45:30.999Z</time></trkpt><trkpt lat="45.048221599319604" lon="9.706306228207575"><ele>55.99999999999999</ele><time>2026-04-30T06:45:31.999Z</time></trkpt><trkpt lat="45.04811447282501" lon="9.706259981084598"><ele>56.0</ele><time>2026-04-30T06:45:32.999Z</time></trkpt><trkpt lat="45.04803132107736" lon="9.706189822478338"><ele>56.0</ele><time>2026-04-30T06:45:33.999Z</time></trkpt><trkpt lat="45.04796296808388" lon="9.70611875712526"><ele>56.333333333333336</ele><time>2026-04-30T06:45:34.999Z</time></trkpt><trkpt lat="45.0478983383024" lon="9.706059193925924"><ele>56.66666666666667</ele><time>2026-04-30T06:45:35.999Z</time></trkpt><trkpt lat="45.047846872622564" lon="9.706002144999768"><ele>57.0</ele><time>2026-04-30T06:45:36.999Z</time></trkpt><trkpt lat="45.04775987395928" lon="9.705893623191503"><ele>57.33333333333333</ele><time>2026-04-30T06:45:38.999Z</time></trkpt><trkpt lat="45.047701134051" lon="9.705783036568375"><ele>57.666666666666664</ele><time>2026-04-30T06:45:40.999Z</time></trkpt><trkpt lat="45.047654847880246" lon="9.70568094134795"><ele>58.0</ele><time>2026-04-30T06:45:42.999Z</time></trkpt><trkpt lat="45.047637870761285" lon="9.705536191605821"><ele>57.99999999999999</ele><time>2026-04-30T06:45:44.999Z</time></trkpt><trkpt lat="45.04759031814805" lon="9.705431493425012"><ele>58.0</ele><time>2026-04-30T06:45:46.999Z</time></trkpt><trkpt lat="45.04753817925953" lon="9.705345593610003"><ele>58.0</ele><time>2026-04-30T06:45:47.999Z</time></trkpt><trkpt lat="45.047459130328235" lon="9.705335982054955"><ele>58.0</ele><time>2026-04-30T06:45:48.999Z</time></trkpt><trkpt lat="45.04738460529294" lon="9.705388983503902"><ele>57.99999999999999</ele><time>2026-04-30T06:45:49.999Z</time></trkpt><trkpt lat="45.04733820094283" lon="9.705465987178316"><ele>58.0</ele><time>2026-04-30T06:45:50.999Z</time></trkpt><trkpt lat="45.04730398623487" lon="9.705554859551684"><ele>57.99999999999999</ele><time>2026-04-30T06:45:51.999Z</time></trkpt><trkpt lat="45.04728760188919" lon="9.705652475430899"><ele>58.0</ele><time>2026-04-30T06:45:52.999Z</time></trkpt><trkpt lat="45.04724541983072" lon="9.705720532554317"><ele>58.0</ele><time>2026-04-30T06:45:53.999Z</time></trkpt><trkpt lat="45.04717067114673" lon="9.705708329724848"><ele>58.0</ele><time>2026-04-30T06:45:54.999Z</time></trkpt><trkpt lat="45.04711314471485" lon="9.705800947032351"><ele>57.99999999999999</ele><time>2026-04-30T06:45:56.999Z</time></trkpt><trkpt lat="45.047020154182" lon="9.705779276820337"><ele>58.0</ele><time>2026-04-30T06:45:58.999Z</time></trkpt><trkpt lat="45.04692218617134" lon="9.705774956078"><ele>57.99999999999999</ele><time>2026-04-30T06:45:59.999Z</time></trkpt><trkpt lat="45.04687390474525" lon="9.705709979765244"><ele>58.0</ele><time>2026-04-30T06:46:00.999Z</time></trkpt><trkpt lat="45.046819248117856" lon="9.705637941393153"><ele>58.0</ele><time>2026-04-30T06:46:01.999Z</time></trkpt><trkpt lat="45.046753125855176" lon="9.705556866681347"><ele>58.0</ele><time>2026-04-30T06:46:02.999Z</time></trkpt><trkpt lat="45.04668497721614" lon="9.70547289680255"><ele>57.99999999999999</ele><time>2026-04-30T06:46:03.999Z</time></trkpt><trkpt lat="45.046615333582075" lon="9.705380774408386"><ele>58.0</ele><time>2026-04-30T06:46:04.999Z</time></trkpt><trkpt lat="45.04654556416158" lon="9.705269277150313"><ele>57.8</ele><time>2026-04-30T06:46:05.999Z</time></trkpt><trkpt lat="45.046452657998756" lon="9.705177684144495"><ele>57.599999999999994</ele><time>2026-04-30T06:46:06.999Z</time></trkpt><trkpt lat="45.0463638201716" lon="9.705070541734296"><ele>57.400000000000006</ele><time>2026-04-30T06:46:07.999Z</time></trkpt><trkpt lat="45.04627921224852" lon="9.70496051818134"><ele>57.2</ele><time>2026-04-30T06:46:08.999Z</time></trkpt><trkpt lat="45.046203737030915" lon="9.704866839700905"><ele>57.0</ele><time>2026-04-30T06:46:09.999Z</time></trkpt><trkpt lat="45.046148803738575" lon="9.704787119234586"><ele>57.0</ele><time>2026-04-30T06:46:10.999Z</time></trkpt><trkpt lat="45.046106814960616" lon="9.704718814443684"><ele>57.0</ele><time>2026-04-30T06:46:11.999Z</time></trkpt><trkpt lat="45.046056416303706" lon="9.704621181755261"><ele>57.0</ele><time>2026-04-30T06:46:13.999Z</time></trkpt><trkpt lat="45.045994428793975" lon="9.7045135116886"><ele>57.0</ele><time>2026-04-30T06:46:16.999Z</time></trkpt><trkpt lat="45.04592408857379" lon="9.704436302804572"><ele>57.0</ele><time>2026-04-30T06:46:18.999Z</time></trkpt><trkpt lat="45.045818583682255" lon="9.704355539994454"><ele>57.0</ele><time>2026-04-30T06:46:20.999Z</time></trkpt><trkpt lat="45.045772148387684" lon="9.704226635535866"><ele>57.0</ele><time>2026-04-30T06:46:22.999Z</time></trkpt><trkpt lat="45.045724905675854" lon="9.704132632500084"><ele>57.0</ele><time>2026-04-30T06:46:24.999Z</time></trkpt><trkpt lat="45.04571691542283" lon="9.703972711370572"><ele>57.0</ele><time>2026-04-30T06:46:26.999Z</time></trkpt><trkpt lat="45.045686675629405" lon="9.704087726107845"><ele>57.0</ele><time>2026-04-30T06:46:27.999Z</time></trkpt><trkpt lat="45.04564362119526" lon="9.704167285796228"><ele>57.0</ele><time>2026-04-30T06:46:29.999Z</time></trkpt><trkpt lat="45.04546237747071" lon="9.704234549728696"><ele>57.0</ele><time>2026-04-30T06:46:31.999Z</time></trkpt><trkpt lat="45.045403816808786" lon="9.704344899183276"><ele>57.0</ele><time>2026-04-30T06:46:35.999Z</time></trkpt><trkpt lat="45.045346172465734" lon="9.704426814148308"><ele>57.0</ele><time>2026-04-30T06:46:37.999Z</time></trkpt><trkpt lat="45.04526482892151" lon="9.704545553234155"><ele>57.0</ele><time>2026-04-30T06:46:39.999Z</time></trkpt><trkpt lat="45.04517339803563" lon="9.704679319824002"><ele>57.0</ele><time>2026-04-30T06:46:41.999Z</time></trkpt><trkpt lat="45.04512248655143" lon="9.704753805291105"><ele>57.0</ele><time>2026-04-30T06:46:42.999Z</time></trkpt><trkpt lat="45.04507342305595" lon="9.704827451100998"><ele>57.0</ele><time>2026-04-30T06:46:43.999Z</time></trkpt><trkpt lat="45.04502978350628" lon="9.704893218843594"><ele>57.0</ele><time>2026-04-30T06:46:44.999Z</time></trkpt><trkpt lat="45.04495867902741" lon="9.705003308825939"><ele>57.0</ele><time>2026-04-30T06:46:46.999Z</time></trkpt><trkpt lat="45.044855619393964" lon="9.705088864559706"><ele>57.0</ele><time>2026-04-30T06:46:48.999Z</time></trkpt><trkpt lat="45.044787619632295" lon="9.705090551321494"><ele>57.0</ele><time>2026-04-30T06:46:49.999Z</time></trkpt><trkpt lat="45.04470553210134" lon="9.705062511004488"><ele>57.0</ele><time>2026-04-30T06:46:50.999Z</time></trkpt><trkpt lat="45.04463712128006" lon="9.704966649743024"><ele>57.0</ele><time>2026-04-30T06:46:51.999Z</time></trkpt><trkpt lat="45.04455290239971" lon="9.704886591559013"><ele>57.0</ele><time>2026-04-30T06:46:52.999Z</time></trkpt><trkpt lat="45.044469100515656" lon="9.704789711824565"><ele>57.0</ele><time>2026-04-30T06:46:53.999Z</time></trkpt><trkpt lat="45.044384079965674" lon="9.704683961320367"><ele>57.0</ele><time>2026-04-30T06:46:54.999Z</time></trkpt><trkpt lat="45.04429074978667" lon="9.704576471373631"><ele>57.0</ele><time>2026-04-30T06:46:55.999Z</time></trkpt><trkpt lat="45.04419826566119" lon="9.704461755151554"><ele>57.0</ele><time>2026-04-30T06:46:56.999Z</time></trkpt><trkpt lat="45.044108374657135" lon="9.704340879369369"><ele>57.25</ele><time>2026-04-30T06:46:57.999Z</time></trkpt><trkpt lat="45.044016828491365" lon="9.70422254398088"><ele>57.5</ele><time>2026-04-30T06:46:58.999Z</time></trkpt><trkpt lat="45.04392681183434" lon="9.704101573649753"><ele>57.75</ele><time>2026-04-30T06:46:59.999Z</time></trkpt><trkpt lat="45.043838036097526" lon="9.703977809409258"><ele>58.0</ele><time>2026-04-30T06:47:00.999Z</time></trkpt><trkpt lat="45.04375118845617" lon="9.703853088536988"><ele>58.0</ele><time>2026-04-30T06:47:01.999Z</time></trkpt><trkpt lat="45.04366308043158" lon="9.703728892991197"><ele>58.0</ele><time>2026-04-30T06:47:02.999Z</time></trkpt><trkpt lat="45.04358312211161" lon="9.703602848165929"><ele>58.0</ele><time>2026-04-30T06:47:03.999Z</time></trkpt><trkpt lat="45.04349376668373" lon="9.703494794477052"><ele>58.0</ele><time>2026-04-30T06:47:04.999Z</time></trkpt><trkpt lat="45.04340789830895" lon="9.703397658754527"><ele>57.666666666666664</ele><time>2026-04-30T06:47:05.999Z</time></trkpt><trkpt lat="45.04333166610754" lon="9.703300828105256"><ele>57.33333333333333</ele><time>2026-04-30T06:47:06.999Z</time></trkpt><trkpt lat="45.043258325112326" lon="9.70321840735523"><ele>57.0</ele><time>2026-04-30T06:47:07.999Z</time></trkpt><trkpt lat="45.04319198160645" lon="9.703137871883841"><ele>56.66666666666667</ele><time>2026-04-30T06:47:08.998Z</time></trkpt><trkpt lat="45.04312975676216" lon="9.70306184657768"><ele>56.333333333333336</ele><time>2026-04-30T06:47:09.998Z</time></trkpt><trkpt lat="45.043071694335026" lon="9.702988952133628"><ele>56.0</ele><time>2026-04-30T06:47:10.998Z</time></trkpt><trkpt lat="45.04301601684391" lon="9.702911473465443"><ele>55.833333333333336</ele><time>2026-04-30T06:47:11.998Z</time></trkpt><trkpt lat="45.042954855477646" lon="9.7028305511127"><ele>55.66666666666667</ele><time>2026-04-30T06:47:12.998Z</time></trkpt><trkpt lat="45.04289146697625" lon="9.702743862582036"><ele>55.5</ele><time>2026-04-30T06:47:13.998Z</time></trkpt><trkpt lat="45.042829839668904" lon="9.702661064097628"><ele>55.33333333333333</ele><time>2026-04-30T06:47:14.998Z</time></trkpt><trkpt lat="45.04277238881407" lon="9.702592769805134"><ele>55.166666666666664</ele><time>2026-04-30T06:47:15.998Z</time></trkpt><trkpt lat="45.04272535437007" lon="9.702527852299527"><ele>55.0</ele><time>2026-04-30T06:47:16.998Z</time></trkpt><trkpt lat="45.04263716080417" lon="9.702403148484054"><ele>54.83333333333333</ele><time>2026-04-30T06:47:18.998Z</time></trkpt><trkpt lat="45.04259704326212" lon="9.702324192040019"><ele>54.666666666666664</ele><time>2026-04-30T06:47:19.998Z</time></trkpt><trkpt lat="45.04256784672784" lon="9.702227718868041"><ele>54.5</ele><time>2026-04-30T06:47:20.998Z</time></trkpt><trkpt lat="45.04253875660309" lon="9.702121281254026"><ele>54.33333333333333</ele><time>2026-04-30T06:47:21.998Z</time></trkpt><trkpt lat="45.042499151458884" lon="9.702023917282714"><ele>54.166666666666664</ele><time>2026-04-30T06:47:22.998Z</time></trkpt><trkpt lat="45.042392722810135" lon="9.701945644585678"><ele>54.0</ele><time>2026-04-30T06:47:24.998Z</time></trkpt><trkpt lat="45.04231180896676" lon="9.701954569139566"><ele>54.400000000000006</ele><time>2026-04-30T06:47:25.998Z</time></trkpt><trkpt lat="45.0422175941567" lon="9.70200501028062"><ele>54.800000000000004</ele><time>2026-04-30T06:47:26.998Z</time></trkpt><trkpt lat="45.04211748213119" lon="9.701989205531797"><ele>55.199999999999996</ele><time>2026-04-30T06:47:27.998Z</time></trkpt><trkpt lat="45.0420143976216" lon="9.701932260601593"><ele>55.599999999999994</ele><time>2026-04-30T06:47:28.998Z</time></trkpt><trkpt lat="45.041904089317" lon="9.701863210488233"><ele>56.0</ele><time>2026-04-30T06:47:29.998Z</time></trkpt><trkpt lat="45.04179809346788" lon="9.701778009774044"><ele>56.0</ele><time>2026-04-30T06:47:30.998Z</time></trkpt><trkpt lat="45.04168711474993" lon="9.70171529612803"><ele>55.99999999999999</ele><time>2026-04-30T06:47:31.998Z</time></trkpt><trkpt lat="45.04157671775342" lon="9.701653200307629"><ele>55.99999999999999</ele><time>2026-04-30T06:47:32.998Z</time></trkpt><trkpt lat="45.041472649426744" lon="9.701601255529315"><ele>56.0</ele><time>2026-04-30T06:47:33.998Z</time></trkpt><trkpt lat="45.04137822080463" lon="9.701555172373137"><ele>56.0</ele><time>2026-04-30T06:47:34.998Z</time></trkpt><trkpt lat="45.04129622141801" lon="9.701497021697248"><ele>56.4</ele><time>2026-04-30T06:47:35.998Z</time></trkpt><trkpt lat="45.041224844133296" lon="9.7014231498562"><ele>56.8</ele><time>2026-04-30T06:47:36.998Z</time></trkpt><trkpt lat="45.04114805330161" lon="9.701356675995209"><ele>57.199999999999996</ele><time>2026-04-30T06:47:37.998Z</time></trkpt><trkpt lat="45.041094475403625" lon="9.701250117572563"><ele>57.599999999999994</ele><time>2026-04-30T06:47:38.998Z</time></trkpt><trkpt lat="45.041023798197905" lon="9.70117545477198"><ele>58.0</ele><time>2026-04-30T06:47:39.998Z</time></trkpt><trkpt lat="45.04094181618181" lon="9.701100036452413"><ele>58.0</ele><time>2026-04-30T06:47:40.998Z</time></trkpt><trkpt lat="45.04084192542995" lon="9.70111207919212"><ele>58.0</ele><time>2026-04-30T06:47:41.998Z</time></trkpt><trkpt lat="45.04074776449583" lon="9.701176859021485"><ele>58.0</ele><time>2026-04-30T06:47:42.998Z</time></trkpt><trkpt lat="45.040649562785454" lon="9.701218564378681"><ele>58.0</ele><time>2026-04-30T06:47:43.998Z</time></trkpt><trkpt lat="45.04052783816473" lon="9.701201412779412"><ele>58.0</ele><time>2026-04-30T06:47:44.998Z</time></trkpt><trkpt lat="45.04038504759227" lon="9.701161789466239"><ele>58.666666666666664</ele><time>2026-04-30T06:47:45.998Z</time></trkpt><trkpt lat="45.040230663670485" lon="9.70111430088472"><ele>59.33333333333333</ele><time>2026-04-30T06:47:46.998Z</time></trkpt><trkpt lat="45.0400638789269" lon="9.701063033858581"><ele>60.0</ele><time>2026-04-30T06:47:47.998Z</time></trkpt><trkpt lat="45.03989468735223" lon="9.701011027111752"><ele>58.66666666666667</ele><time>2026-04-30T06:47:48.998Z</time></trkpt><trkpt lat="45.03972403836979" lon="9.700965331544039"><ele>57.333333333333336</ele><time>2026-04-30T06:47:49.998Z</time></trkpt><trkpt lat="45.03956328476022" lon="9.700885866836972"><ele>56.0</ele><time>2026-04-30T06:47:50.998Z</time></trkpt><trkpt lat="45.039416759628345" lon="9.700824390229256"><ele>56.0</ele><time>2026-04-30T06:47:51.998Z</time></trkpt><trkpt lat="45.039298648038" lon="9.70076351035298"><ele>56.0</ele><time>2026-04-30T06:47:52.998Z</time></trkpt><trkpt lat="45.03919249348477" lon="9.700711399020308"><ele>56.0</ele><time>2026-04-30T06:47:53.998Z</time></trkpt><trkpt lat="45.03908283573429" lon="9.700615892181276"><ele>56.0</ele><time>2026-04-30T06:47:54.998Z</time></trkpt><trkpt lat="45.03898963804135" lon="9.700553678854666"><ele>56.25</ele><time>2026-04-30T06:47:55.998Z</time></trkpt><trkpt lat="45.03887069544862" lon="9.700577693085656"><ele>56.5</ele><time>2026-04-30T06:47:56.998Z</time></trkpt><trkpt lat="45.03875642073621" lon="9.70058881646256"><ele>56.75</ele><time>2026-04-30T06:47:57.998Z</time></trkpt><trkpt lat="45.03860071804622" lon="9.700566845921195"><ele>57.0</ele><time>2026-04-30T06:47:58.998Z</time></trkpt><trkpt lat="45.03842025891481" lon="9.7005299108634"><ele>57.66666666666667</ele><time>2026-04-30T06:47:59.998Z</time></trkpt><trkpt lat="45.038260093582736" lon="9.700481744464149"><ele>58.333333333333336</ele><time>2026-04-30T06:48:00.998Z</time></trkpt><trkpt lat="45.03809880380524" lon="9.700442182077127"><ele>59.0</ele><time>2026-04-30T06:48:01.998Z</time></trkpt><trkpt lat="45.0379275605737" lon="9.70040487658192"><ele>59.0</ele><time>2026-04-30T06:48:02.998Z</time></trkpt><trkpt lat="45.037760742720636" lon="9.700359653476239"><ele>59.0</ele><time>2026-04-30T06:48:03.998Z</time></trkpt><trkpt lat="45.037590083592185" lon="9.700275961029973"><ele>59.0</ele><time>2026-04-30T06:48:04.998Z</time></trkpt><trkpt lat="45.03742140449557" lon="9.700191431616407"><ele>59.333333333333336</ele><time>2026-04-30T06:48:05.998Z</time></trkpt><trkpt lat="45.03724516529765" lon="9.700160290562062"><ele>59.66666666666667</ele><time>2026-04-30T06:48:06.998Z</time></trkpt><trkpt lat="45.03707179490147" lon="9.70009644263377"><ele>60.0</ele><time>2026-04-30T06:48:07.998Z</time></trkpt><trkpt lat="45.03688734019115" lon="9.700075273257893"><ele>60.0</ele><time>2026-04-30T06:48:08.998Z</time></trkpt><trkpt lat="45.036728838774614" lon="9.700002536166641"><ele>60.0</ele><time>2026-04-30T06:48:09.998Z</time></trkpt><trkpt lat="45.03656349188789" lon="9.69993833646756"><ele>60.0</ele><time>2026-04-30T06:48:10.998Z</time></trkpt><trkpt lat="45.03641483735893" lon="9.699878326514867"><ele>60.0</ele><time>2026-04-30T06:48:11.998Z</time></trkpt><trkpt lat="45.03626895752363" lon="9.699765592170978"><ele>60.0</ele><time>2026-04-30T06:48:12.998Z</time></trkpt><trkpt lat="45.036129375348395" lon="9.69968630190364"><ele>60.0</ele><time>2026-04-30T06:48:13.998Z</time></trkpt><trkpt lat="45.036019999667126" lon="9.699557774499679"><ele>60.0</ele><time>2026-04-30T06:48:14.998Z</time></trkpt><trkpt lat="45.0359125081883" lon="9.699441292405382"><ele>60.0</ele><time>2026-04-30T06:48:15.998Z</time></trkpt><trkpt lat="45.03581839262652" lon="9.699321073432957"><ele>60.0</ele><time>2026-04-30T06:48:16.998Z</time></trkpt><trkpt lat="45.03576539830481" lon="9.699164039108716"><ele>60.0</ele><time>2026-04-30T06:48:17.998Z</time></trkpt><trkpt lat="45.035716329046544" lon="9.699046300876667"><ele>60.2</ele><time>2026-04-30T06:48:18.998Z</time></trkpt><trkpt lat="45.035642947872" lon="9.698984350749283"><ele>60.4</ele><time>2026-04-30T06:48:19.998Z</time></trkpt><trkpt lat="45.035583751494904" lon="9.69891372641244"><ele>60.599999999999994</ele><time>2026-04-30T06:48:20.998Z</time></trkpt><trkpt lat="45.035482118496915" lon="9.698895843614956"><ele>60.8</ele><time>2026-04-30T06:48:22.998Z</time></trkpt><trkpt lat="45.03539151971474" lon="9.698769594712527"><ele>61.0</ele><time>2026-04-30T06:48:24.998Z</time></trkpt><trkpt lat="45.03525653212999" lon="9.698714577810852"><ele>61.0</ele><time>2026-04-30T06:48:26.998Z</time></trkpt><trkpt lat="45.03516663498131" lon="9.698758325009141"><ele>60.99999999999999</ele><time>2026-04-30T06:48:27.998Z</time></trkpt><trkpt lat="45.03510430097245" lon="9.698883158596697"><ele>60.99999999999999</ele><time>2026-04-30T06:48:29.998Z</time></trkpt><trkpt lat="45.0350609000121" lon="9.699036855994002"><ele>61.0</ele><time>2026-04-30T06:48:31.998Z</time></trkpt><trkpt lat="45.03508217237209" lon="9.699133375441708"><ele>61.0</ele><time>2026-04-30T06:48:32.998Z</time></trkpt><trkpt lat="45.03511901411609" lon="9.69922884741702"><ele>60.99999999999999</ele><time>2026-04-30T06:48:33.998Z</time></trkpt><trkpt lat="45.03513605350687" lon="9.699332437270341"><ele>61.0</ele><time>2026-04-30T06:48:34.998Z</time></trkpt><trkpt lat="45.03514597763241" lon="9.699440561394766"><ele>61.0</ele><time>2026-04-30T06:48:35.998Z</time></trkpt><trkpt lat="45.035142220904014" lon="9.699553306036309"><ele>61.0</ele><time>2026-04-30T06:48:36.998Z</time></trkpt><trkpt lat="45.03515316887993" lon="9.699641379323639"><ele>60.99999999999999</ele><time>2026-04-30T06:48:37.998Z</time></trkpt><trkpt lat="45.03512528812812" lon="9.699757853853026"><ele>61.0</ele><time>2026-04-30T06:48:38.998Z</time></trkpt><trkpt lat="45.03512893952" lon="9.699874108901177"><ele>60.8</ele><time>2026-04-30T06:48:39.998Z</time></trkpt><trkpt lat="45.035132155191846" lon="9.699992880632369"><ele>60.599999999999994</ele><time>2026-04-30T06:48:40.998Z</time></trkpt><trkpt lat="45.035135397213196" lon="9.70011548437692"><ele>60.4</ele><time>2026-04-30T06:48:41.998Z</time></trkpt><trkpt lat="45.035138889660324" lon="9.700247558172906"><ele>60.2</ele><time>2026-04-30T06:48:42.998Z</time></trkpt><trkpt lat="45.03514250656024" lon="9.700384338695592"><ele>60.0</ele><time>2026-04-30T06:48:43.998Z</time></trkpt><trkpt lat="45.03514652846752" lon="9.700536435253696"><ele>59.833333333333336</ele><time>2026-04-30T06:48:44.998Z</time></trkpt><trkpt lat="45.0351503198596" lon="9.700679814281317"><ele>59.66666666666667</ele><time>2026-04-30T06:48:45.998Z</time></trkpt><trkpt lat="45.03515399153933" lon="9.70081866628805"><ele>59.5</ele><time>2026-04-30T06:48:46.998Z</time></trkpt><trkpt lat="45.035157580612456" lon="9.70095598860779"><ele>59.333333333333336</ele><time>2026-04-30T06:48:47.998Z</time></trkpt><trkpt lat="45.03516021484352" lon="9.701061760737673"><ele>59.16666666666667</ele><time>2026-04-30T06:48:48.998Z</time></trkpt><trkpt lat="45.035162931957615" lon="9.701170861013733"><ele>59.0</ele><time>2026-04-30T06:48:49.998Z</time></trkpt><trkpt lat="45.03516521251869" lon="9.701262433373582"><ele>59.00000000000001</ele><time>2026-04-30T06:48:50.998Z</time></trkpt><trkpt lat="45.03516751617039" lon="9.701354934819372"><ele>59.0</ele><time>2026-04-30T06:48:53.998Z</time></trkpt><trkpt lat="45.03516467936038" lon="9.701241024646201"><ele>59.0</ele><time>2026-04-30T06:49:07.998Z</time></trkpt><trkpt lat="45.03516690326907" lon="9.701330324987369"><ele>59.0</ele><time>2026-04-30T06:49:32.997Z</time></trkpt><trkpt lat="45.03518364006628" lon="9.701466897767807"><ele>59.00000000000001</ele><time>2026-04-30T06:49:34.997Z</time></trkpt><trkpt lat="45.03520062629797" lon="9.701570699859328"><ele>59.0</ele><time>2026-04-30T06:49:35.997Z</time></trkpt><trkpt lat="45.035202958628545" lon="9.701679730846724"><ele>59.0</ele><time>2026-04-30T06:49:36.997Z</time></trkpt><trkpt lat="45.035217308425665" lon="9.701778323628677"><ele>59.00000000000001</ele><time>2026-04-30T06:49:37.997Z</time></trkpt><trkpt lat="45.03522154640879" lon="9.701909222803227"><ele>59.00000000000001</ele><time>2026-04-30T06:49:39.001Z</time></trkpt><trkpt lat="45.03517898287574" lon="9.702032156961975"><ele>59.0</ele><time>2026-04-30T06:49:40.002Z</time></trkpt><trkpt lat="45.035170955283036" lon="9.702196363169401"><ele>59.0</ele><time>2026-04-30T06:49:41.001Z</time></trkpt><trkpt lat="45.0351756703811" lon="9.70232977638145"><ele>59.16666666666667</ele><time>2026-04-30T06:49:42.001Z</time></trkpt><trkpt lat="45.03517505382293" lon="9.70245893854082"><ele>59.333333333333336</ele><time>2026-04-30T06:49:43.001Z</time></trkpt><trkpt lat="45.03516795975946" lon="9.702577480757483"><ele>59.5</ele><time>2026-04-30T06:49:44.001Z</time></trkpt><trkpt lat="45.035166505156866" lon="9.702694811433732"><ele>59.66666666666667</ele><time>2026-04-30T06:49:45.001Z</time></trkpt><trkpt lat="45.035165233797215" lon="9.7028053493633"><ele>59.833333333333336</ele><time>2026-04-30T06:49:46.001Z</time></trkpt><trkpt lat="45.03516332136611" lon="9.702915713388931"><ele>60.0</ele><time>2026-04-30T06:49:48.001Z</time></trkpt><trkpt lat="45.035161588402815" lon="9.703069679178205"><ele>60.0</ele><time>2026-04-30T06:49:50.001Z</time></trkpt><trkpt lat="45.03515962231451" lon="9.703244356987096"><ele>60.0</ele><time>2026-04-30T06:49:52.001Z</time></trkpt><trkpt lat="45.035158138725386" lon="9.703376167277733"><ele>60.0</ele><time>2026-04-30T06:49:53.001Z</time></trkpt><trkpt lat="45.035156167396906" lon="9.703551310720613"><ele>60.0</ele><time>2026-04-30T06:49:54.001Z</time></trkpt><trkpt lat="45.03515366780432" lon="9.703773388069129"><ele>60.0</ele><time>2026-04-30T06:49:55.001Z</time></trkpt><trkpt lat="45.03515099295898" lon="9.704011035563804"><ele>60.0</ele><time>2026-04-30T06:49:56.001Z</time></trkpt><trkpt lat="45.03514826529299" lon="9.704218086592032"><ele>60.0</ele><time>2026-04-30T06:49:57.001Z</time></trkpt><trkpt lat="45.03514516920857" lon="9.70443824592615"><ele>60.0</ele><time>2026-04-30T06:49:58.001Z</time></trkpt><trkpt lat="45.03514245559962" lon="9.704663809882168"><ele>60.0</ele><time>2026-04-30T06:49:59.001Z</time></trkpt><trkpt lat="45.03521671684857" lon="9.704909560817905"><ele>60.0</ele><time>2026-04-30T06:50:00Z</time></trkpt><trkpt lat="45.03522668772764" lon="9.705122191439406"><ele>59.5</ele><time>2026-04-30T06:50:01Z</time></trkpt><trkpt lat="45.035236232232" lon="9.705318057049666"><ele>59.0</ele><time>2026-04-30T06:50:02Z</time></trkpt><trkpt lat="45.03523884636665" lon="9.705497540106226"><ele>58.5</ele><time>2026-04-30T06:50:03Z</time></trkpt><trkpt lat="45.03513033416327" lon="9.70568218950977"><ele>58.0</ele><time>2026-04-30T06:50:04Z</time></trkpt><trkpt lat="45.03512651874912" lon="9.705875927429966"><ele>58.0</ele><time>2026-04-30T06:50:05Z</time></trkpt><trkpt lat="45.03512246112634" lon="9.706082637500732"><ele>58.0</ele><time>2026-04-30T06:50:06Z</time></trkpt><trkpt lat="45.03511832286962" lon="9.706295573180713"><ele>58.0</ele><time>2026-04-30T06:50:07Z</time></trkpt><trkpt lat="45.03523635929188" lon="9.706514673184742"><ele>58.0</ele><time>2026-04-30T06:50:08Z</time></trkpt><trkpt lat="45.03523393291976" lon="9.706726124628757"><ele>58.0</ele><time>2026-04-30T06:50:09Z</time></trkpt><trkpt lat="45.035228615177964" lon="9.706939626893075"><ele>58.0</ele><time>2026-04-30T06:50:10Z</time></trkpt><trkpt lat="45.03522169343071" lon="9.707148486259468"><ele>58.0</ele><time>2026-04-30T06:50:11Z</time></trkpt><trkpt lat="45.03509615005022" lon="9.707343571202632"><ele>58.0</ele><time>2026-04-30T06:50:12Z</time></trkpt><trkpt lat="45.03509173755066" lon="9.707549073788359"><ele>58.0</ele><time>2026-04-30T06:50:13Z</time></trkpt><trkpt lat="45.03508785546784" lon="9.70772993655556"><ele>58.0</ele><time>2026-04-30T06:50:14Z</time></trkpt><trkpt lat="45.03508434595372" lon="9.707893441878698"><ele>58.0</ele><time>2026-04-30T06:50:15Z</time></trkpt><trkpt lat="45.035080709800994" lon="9.70806470437581"><ele>58.4</ele><time>2026-04-30T06:50:16Z</time></trkpt><trkpt lat="45.0350774970138" lon="9.70821625272339"><ele>58.8</ele><time>2026-04-30T06:50:17Z</time></trkpt><trkpt lat="45.0350743249278" lon="9.70836587824866"><ele>59.2</ele><time>2026-04-30T06:50:18Z</time></trkpt><trkpt lat="45.03507123004458" lon="9.708511864256236"><ele>59.6</ele><time>2026-04-30T06:50:19Z</time></trkpt><trkpt lat="45.0350681897071" lon="9.70865322040477"><ele>60.0</ele><time>2026-04-30T06:50:20Z</time></trkpt><trkpt lat="45.035065344682955" lon="9.708786075318477"><ele>60.166666666666664</ele><time>2026-04-30T06:50:21Z</time></trkpt><trkpt lat="45.035062702219115" lon="9.708909471211355"><ele>60.33333333333333</ele><time>2026-04-30T06:50:22Z</time></trkpt><trkpt lat="45.035060577121556" lon="9.709008707551968"><ele>60.5</ele><time>2026-04-30T06:50:23Z</time></trkpt><trkpt lat="45.03505862118369" lon="9.709100044398578"><ele>60.666666666666664</ele><time>2026-04-30T06:50:24Z</time></trkpt><trkpt lat="45.035070111995395" lon="9.709209011004669"><ele>60.83333333333333</ele><time>2026-04-30T06:50:26Z</time></trkpt><trkpt lat="45.03505330284929" lon="9.709353472793003"><ele>61.0</ele><time>2026-04-30T06:50:29Z</time></trkpt><trkpt lat="45.03504946311773" lon="9.709536663514204"><ele>60.666666666666664</ele><time>2026-04-30T06:50:31Z</time></trkpt><trkpt lat="45.03504755599707" lon="9.709627650752283"><ele>60.33333333333333</ele><time>2026-04-30T06:50:32Z</time></trkpt><trkpt lat="45.035045518814826" lon="9.709724843244627"><ele>60.0</ele><time>2026-04-30T06:50:33Z</time></trkpt><trkpt lat="45.0350420327462" lon="9.709911584186623"><ele>59.66666666666667</ele><time>2026-04-30T06:50:35Z</time></trkpt><trkpt lat="45.035040348099166" lon="9.71000336463335"><ele>59.333333333333336</ele><time>2026-04-30T06:50:36Z</time></trkpt><trkpt lat="45.03503725096063" lon="9.710165859736506"><ele>59.0</ele><time>2026-04-30T06:50:38Z</time></trkpt><trkpt lat="45.03503334619284" lon="9.71026807843545"><ele>59.00000000000001</ele><time>2026-04-30T06:50:39Z</time></trkpt><trkpt lat="45.035027030314545" lon="9.710372425480498"><ele>59.0</ele><time>2026-04-30T06:50:40Z</time></trkpt><trkpt lat="45.0350134481576" lon="9.7104780320245"><ele>59.0</ele><time>2026-04-30T06:50:41Z</time></trkpt><trkpt lat="45.03499966170584" lon="9.710580456634368"><ele>59.0</ele><time>2026-04-30T06:50:42Z</time></trkpt><trkpt lat="45.0349554064683" lon="9.710694745139078"><ele>59.00000000000001</ele><time>2026-04-30T06:50:44Z</time></trkpt><trkpt lat="45.034916770704164" lon="9.710765656660646"><ele>59.0</ele><time>2026-04-30T06:50:46Z</time></trkpt><trkpt lat="45.0348708126682" lon="9.710870613444762"><ele>59.0</ele><time>2026-04-30T06:50:48Z</time></trkpt><trkpt lat="45.034784987937655" lon="9.71103522724371"><ele>59.00000000000001</ele><time>2026-04-30T06:50:49.999Z</time></trkpt><trkpt lat="45.03473472988252" lon="9.711138674858953"><ele>59.00000000000001</ele><time>2026-04-30T06:50:50.999Z</time></trkpt><trkpt lat="45.034672651678164" lon="9.711159003245177"><ele>59.0</ele><time>2026-04-30T06:50:51.999Z</time></trkpt><trkpt lat="45.03458202214723" lon="9.711214128384615"><ele>59.0</ele><time>2026-04-30T06:50:52.999Z</time></trkpt><trkpt lat="45.034488064095825" lon="9.711270411992368"><ele>59.0</ele><time>2026-04-30T06:50:53.999Z</time></trkpt><trkpt lat="45.03437913250697" lon="9.711328680325288"><ele>59.00000000000001</ele><time>2026-04-30T06:50:54.999Z</time></trkpt><trkpt lat="45.034287935143624" lon="9.711379989136844"><ele>59.00000000000001</ele><time>2026-04-30T06:50:55.999Z</time></trkpt><trkpt lat="45.03420644605867" lon="9.71142583644305"><ele>59.0</ele><time>2026-04-30T06:50:56.999Z</time></trkpt><trkpt lat="45.03411249336843" lon="9.711492299541028"><ele>59.0</ele><time>2026-04-30T06:50:57.999Z</time></trkpt><trkpt lat="45.03405115538127" lon="9.711554578179765"><ele>59.16666666666667</ele><time>2026-04-30T06:50:58.999Z</time></trkpt><trkpt lat="45.03400259297394" lon="9.71165097838811"><ele>59.333333333333336</ele><time>2026-04-30T06:50:59.999Z</time></trkpt><trkpt lat="45.0339278126884" lon="9.711704451625712"><ele>59.5</ele><time>2026-04-30T06:51:00.999Z</time></trkpt><trkpt lat="45.03384539561331" lon="9.711762711821143"><ele>59.66666666666667</ele><time>2026-04-30T06:51:01.999Z</time></trkpt><trkpt lat="45.03376459430851" lon="9.711795193953813"><ele>59.833333333333336</ele><time>2026-04-30T06:51:02.999Z</time></trkpt><trkpt lat="45.03369701766172" lon="9.711839429898683"><ele>60.0</ele><time>2026-04-30T06:51:03.999Z</time></trkpt><trkpt lat="45.033624987259614" lon="9.711869552650912"><ele>60.0</ele><time>2026-04-30T06:51:04.999Z</time></trkpt><trkpt lat="45.03352497638497" lon="9.711817320541076"><ele>60.0</ele><time>2026-04-30T06:51:05.999Z</time></trkpt><trkpt lat="45.03345157551657" lon="9.711859295438211"><ele>60.0</ele><time>2026-04-30T06:51:06.999Z</time></trkpt><trkpt lat="45.03338423749516" lon="9.71189802442568"><ele>60.0</ele><time>2026-04-30T06:51:07.999Z</time></trkpt><trkpt lat="45.033314270582466" lon="9.71193967517939"><ele>60.0</ele><time>2026-04-30T06:51:08.999Z</time></trkpt><trkpt lat="45.03323931273556" lon="9.711984296368263"><ele>60.0</ele><time>2026-04-30T06:51:09.999Z</time></trkpt><trkpt lat="45.03317142723967" lon="9.712024036994906"><ele>59.5</ele><time>2026-04-30T06:51:10.999Z</time></trkpt><trkpt lat="45.0330849701926" lon="9.712075349080179"><ele>59.0</ele><time>2026-04-30T06:51:11.999Z</time></trkpt><trkpt lat="45.033021686273216" lon="9.712112993800162"><ele>58.5</ele><time>2026-04-30T06:51:12.999Z</time></trkpt><trkpt lat="45.03295464336103" lon="9.712153010404291"><ele>58.0</ele><time>2026-04-30T06:51:13.999Z</time></trkpt><trkpt lat="45.032882510317336" lon="9.71219610670607"><ele>57.5</ele><time>2026-04-30T06:51:14.999Z</time></trkpt><trkpt lat="45.032806754955025" lon="9.712242015181564"><ele>57.0</ele><time>2026-04-30T06:51:15.999Z</time></trkpt><trkpt lat="45.032732533744046" lon="9.712287024751449"><ele>57.0</ele><time>2026-04-30T06:51:16.999Z</time></trkpt><trkpt lat="45.03265565159918" lon="9.712326260630176"><ele>57.0</ele><time>2026-04-30T06:51:17.999Z</time></trkpt><trkpt lat="45.032573813102175" lon="9.71237042738586"><ele>57.0</ele><time>2026-04-30T06:51:18.999Z</time></trkpt><trkpt lat="45.03248493200418" lon="9.712419506988542"><ele>57.0</ele><time>2026-04-30T06:51:19.999Z</time></trkpt><trkpt lat="45.03238337411265" lon="9.712475766270591"><ele>57.0</ele><time>2026-04-30T06:51:20.999Z</time></trkpt><trkpt lat="45.032274765440526" lon="9.712537118551204"><ele>57.0</ele><time>2026-04-30T06:51:21.999Z</time></trkpt><trkpt lat="45.03216693783314" lon="9.712598816310686"><ele>57.0</ele><time>2026-04-30T06:51:22.999Z</time></trkpt><trkpt lat="45.03205789085753" lon="9.71266121182201"><ele>57.0</ele><time>2026-04-30T06:51:23.999Z</time></trkpt><trkpt lat="45.03196112574609" lon="9.712724618995233"><ele>57.0</ele><time>2026-04-30T06:51:24.999Z</time></trkpt><trkpt lat="45.031876979012424" lon="9.712757516394724"><ele>57.0</ele><time>2026-04-30T06:51:25.999Z</time></trkpt><trkpt lat="45.031801667052115" lon="9.712795935256008"><ele>57.0</ele><time>2026-04-30T06:51:26.999Z</time></trkpt><trkpt lat="45.03173923556733" lon="9.712826166626112"><ele>57.0</ele><time>2026-04-30T06:51:27.999Z</time></trkpt><trkpt lat="45.031646248271265" lon="9.712892429084867"><ele>57.0</ele><time>2026-04-30T06:51:28.999Z</time></trkpt><trkpt lat="45.031527191606884" lon="9.712920733198539"><ele>57.0</ele><time>2026-04-30T06:51:29.999Z</time></trkpt><trkpt lat="45.03144041443886" lon="9.712961236532813"><ele>57.0</ele><time>2026-04-30T06:51:30.999Z</time></trkpt><trkpt lat="45.031333331234926" lon="9.7130169162415"><ele>56.75</ele><time>2026-04-30T06:51:31.999Z</time></trkpt><trkpt lat="45.03124442403381" lon="9.713059877181824"><ele>56.5</ele><time>2026-04-30T06:51:33.999Z</time></trkpt><trkpt lat="45.03111304265104" lon="9.713110243699338"><ele>56.25</ele><time>2026-04-30T06:51:35.999Z</time></trkpt><trkpt lat="45.03108493238305" lon="9.713220489600378"><ele>56.0</ele><time>2026-04-30T06:51:38.999Z</time></trkpt><trkpt lat="45.03093691524958" lon="9.713172307187373"><ele>56.00000000000001</ele><time>2026-04-30T06:51:41.999Z</time></trkpt><trkpt lat="45.0308739179365" lon="9.713141835884729"><ele>56.0</ele><time>2026-04-30T06:51:42.999Z</time></trkpt><trkpt lat="45.030845682782974" lon="9.713278247387494"><ele>56.0</ele><time>2026-04-30T06:51:44.999Z</time></trkpt><trkpt lat="45.03076806506249" lon="9.713352038065223"><ele>56.0</ele><time>2026-04-30T06:51:46.999Z</time></trkpt><trkpt lat="45.03071355028199" lon="9.713405686156182"><ele>56.00000000000001</ele><time>2026-04-30T06:51:47.999Z</time></trkpt><trkpt lat="45.03062779686419" lon="9.7134685423233"><ele>56.0</ele><time>2026-04-30T06:51:48.999Z</time></trkpt><trkpt lat="45.03053957168726" lon="9.713510129016589"><ele>56.199999999999996</ele><time>2026-04-30T06:51:49.999Z</time></trkpt><trkpt lat="45.03044282145224" lon="9.71358940441848"><ele>56.39999999999999</ele><time>2026-04-30T06:51:50.999Z</time></trkpt><trkpt lat="45.03034192227431" lon="9.713640695473412"><ele>56.6</ele><time>2026-04-30T06:51:51.999Z</time></trkpt><trkpt lat="45.0302470182654" lon="9.713691899393448"><ele>56.8</ele><time>2026-04-30T06:51:52.999Z</time></trkpt><trkpt lat="45.03014315144115" lon="9.713737151944677"><ele>57.0</ele><time>2026-04-30T06:51:53.999Z</time></trkpt><trkpt lat="45.03003764153167" lon="9.7137975844606"><ele>57.6</ele><time>2026-04-30T06:51:54.999Z</time></trkpt><trkpt lat="45.02992952344243" lon="9.71385888387628"><ele>58.2</ele><time>2026-04-30T06:51:55.999Z</time></trkpt><trkpt lat="45.02983850510075" lon="9.713930825189825"><ele>58.8</ele><time>2026-04-30T06:51:56.999Z</time></trkpt><trkpt lat="45.0297511227657" lon="9.713981990431444"><ele>59.4</ele><time>2026-04-30T06:51:57.999Z</time></trkpt><trkpt lat="45.029663832328566" lon="9.71402194059902"><ele>60.0</ele><time>2026-04-30T06:51:58.999Z</time></trkpt><trkpt lat="45.029594897843396" lon="9.71407826033237"><ele>60.0</ele><time>2026-04-30T06:51:59.999Z</time></trkpt><trkpt lat="45.029502311810965" lon="9.714046640257264"><ele>60.0</ele><time>2026-04-30T06:52:00.999Z</time></trkpt><trkpt lat="45.02943856566562" lon="9.714113371233129"><ele>60.0</ele><time>2026-04-30T06:52:01.999Z</time></trkpt><trkpt lat="45.02936486665345" lon="9.714090024194997"><ele>60.0</ele><time>2026-04-30T06:52:02.999Z</time></trkpt><trkpt lat="45.02929128526958" lon="9.714145335881543"><ele>60.0</ele><time>2026-04-30T06:52:03.999Z</time></trkpt><trkpt lat="45.02922001789985" lon="9.714212496381432"><ele>60.0</ele><time>2026-04-30T06:52:04.999Z</time></trkpt><trkpt lat="45.029135854826805" lon="9.714286421713663"><ele>60.0</ele><time>2026-04-30T06:52:05.999Z</time></trkpt><trkpt lat="45.02905695192572" lon="9.714344329100198"><ele>60.0</ele><time>2026-04-30T06:52:06.999Z</time></trkpt><trkpt lat="45.02896250664301" lon="9.714423054933738"><ele>60.0</ele><time>2026-04-30T06:52:07.999Z</time></trkpt><trkpt lat="45.028860502037276" lon="9.71451177667466"><ele>60.0</ele><time>2026-04-30T06:52:08.999Z</time></trkpt><trkpt lat="45.02874337103045" lon="9.714574021896503"><ele>60.0</ele><time>2026-04-30T06:52:09.999Z</time></trkpt><trkpt lat="45.02863890995542" lon="9.714628949846126"><ele>59.5</ele><time>2026-04-30T06:52:10.999Z</time></trkpt><trkpt lat="45.028524459683815" lon="9.714700214238109"><ele>59.0</ele><time>2026-04-30T06:52:11.999Z</time></trkpt><trkpt lat="45.0284037497823" lon="9.714777902299248"><ele>58.5</ele><time>2026-04-30T06:52:12.999Z</time></trkpt><trkpt lat="45.02826966861214" lon="9.714861562935738"><ele>58.0</ele><time>2026-04-30T06:52:13.999Z</time></trkpt><trkpt lat="45.02813464587055" lon="9.71494370789409"><ele>58.0</ele><time>2026-04-30T06:52:14.999Z</time></trkpt><trkpt lat="45.028003233657806" lon="9.715027867952864"><ele>58.0</ele><time>2026-04-30T06:52:15.999Z</time></trkpt><trkpt lat="45.027870313719546" lon="9.715110166662443"><ele>58.0</ele><time>2026-04-30T06:52:16.999Z</time></trkpt><trkpt lat="45.027740285641784" lon="9.71519943356885"><ele>58.0</ele><time>2026-04-30T06:52:17.999Z</time></trkpt><trkpt lat="45.027610132269096" lon="9.715289518340047"><ele>57.5</ele><time>2026-04-30T06:52:18.999Z</time></trkpt><trkpt lat="45.02747966708735" lon="9.715379823097043"><ele>57.0</ele><time>2026-04-30T06:52:19.999Z</time></trkpt><trkpt lat="45.02734862196163" lon="9.715478603514006"><ele>56.5</ele><time>2026-04-30T06:52:20.999Z</time></trkpt><trkpt lat="45.02721682575572" lon="9.715582823270099"><ele>56.0</ele><time>2026-04-30T06:52:21.999Z</time></trkpt><trkpt lat="45.0270854749033" lon="9.71569417727372"><ele>56.0</ele><time>2026-04-30T06:52:22.999Z</time></trkpt><trkpt lat="45.026952962193725" lon="9.715806923309671"><ele>56.0</ele><time>2026-04-30T06:52:23.999Z</time></trkpt><trkpt lat="45.026816147637255" lon="9.715919948104085"><ele>56.0</ele><time>2026-04-30T06:52:24.999Z</time></trkpt><trkpt lat="45.02668111101394" lon="9.716046963236193"><ele>57.0</ele><time>2026-04-30T06:52:25.999Z</time></trkpt><trkpt lat="45.026548919316745" lon="9.71616724434519"><ele>58.0</ele><time>2026-04-30T06:52:26.999Z</time></trkpt><trkpt lat="45.02641627340751" lon="9.7162951709804"><ele>59.0</ele><time>2026-04-30T06:52:27.998Z</time></trkpt><trkpt lat="45.02627930036859" lon="9.716409710683322"><ele>59.0</ele><time>2026-04-30T06:52:28.998Z</time></trkpt><trkpt lat="45.02613904424518" lon="9.716520854926364"><ele>59.0</ele><time>2026-04-30T06:52:29.998Z</time></trkpt><trkpt lat="45.02601327298577" lon="9.716645765328884"><ele>59.0</ele><time>2026-04-30T06:52:30.998Z</time></trkpt><trkpt lat="45.025883262425516" lon="9.716727196692728"><ele>58.75</ele><time>2026-04-30T06:52:31.998Z</time></trkpt><trkpt lat="45.025764708462354" lon="9.716831474576026"><ele>58.5</ele><time>2026-04-30T06:52:32.998Z</time></trkpt><trkpt lat="45.02563286725673" lon="9.716869371665105"><ele>58.25</ele><time>2026-04-30T06:52:33.998Z</time></trkpt><trkpt lat="45.02553812628098" lon="9.716950948994254"><ele>58.0</ele><time>2026-04-30T06:52:34.998Z</time></trkpt><trkpt lat="45.02545593625085" lon="9.716991399231176"><ele>57.99999999999999</ele><time>2026-04-30T06:52:35.998Z</time></trkpt><trkpt lat="45.02538900938356" lon="9.717034283527848"><ele>58.0</ele><time>2026-04-30T06:52:36.998Z</time></trkpt><trkpt lat="45.02532342996556" lon="9.71709820665551"><ele>58.0</ele><time>2026-04-30T06:52:37.998Z</time></trkpt><trkpt lat="45.02523747375655" lon="9.71715175597091"><ele>58.0</ele><time>2026-04-30T06:52:39.998Z</time></trkpt><trkpt lat="45.02515831873799" lon="9.71715687645807"><ele>57.99999999999999</ele><time>2026-04-30T06:52:41.998Z</time></trkpt><trkpt lat="45.02509332111287" lon="9.717160971154168"><ele>58.0</ele><time>2026-04-30T06:52:46.998Z</time></trkpt><trkpt lat="45.0251790072962" lon="9.717128258956233"><ele>58.0</ele><time>2026-04-30T06:53:06.998Z</time></trkpt><trkpt lat="45.02530314392436" lon="9.717113828929083"><ele>58.0</ele><time>2026-04-30T06:53:23.998Z</time></trkpt><trkpt lat="45.0252252266874" lon="9.717146284321261"><ele>58.0</ele><time>2026-04-30T06:53:41.998Z</time></trkpt><trkpt lat="45.0251613869803" lon="9.71712533792479"><ele>58.0</ele><time>2026-04-30T06:53:45.998Z</time></trkpt><trkpt lat="45.02514486999719" lon="9.717250593707352"><ele>58.0</ele><time>2026-04-30T06:53:47.998Z</time></trkpt><trkpt lat="45.02504162415493" lon="9.717318184087596"><ele>57.599999999999994</ele><time>2026-04-30T06:53:53.998Z</time></trkpt><trkpt lat="45.02496148706982" lon="9.717366722211244"><ele>57.199999999999996</ele><time>2026-04-30T06:53:54.998Z</time></trkpt><trkpt lat="45.024870166138236" lon="9.717422563141348"><ele>56.8</ele><time>2026-04-30T06:53:55.998Z</time></trkpt><trkpt lat="45.02476522820468" lon="9.71747685168595"><ele>56.4</ele><time>2026-04-30T06:53:56.998Z</time></trkpt><trkpt lat="45.0246574635519" lon="9.717554121102523"><ele>56.0</ele><time>2026-04-30T06:53:57.998Z</time></trkpt><trkpt lat="45.024554232564846" lon="9.717618637734876"><ele>56.0</ele><time>2026-04-30T06:53:58.998Z</time></trkpt><trkpt lat="45.02442369815783" lon="9.717698745295518"><ele>56.0</ele><time>2026-04-30T06:53:59.998Z</time></trkpt><trkpt lat="45.024281307770345" lon="9.717786658369734"><ele>56.0</ele><time>2026-04-30T06:54:00.998Z</time></trkpt><trkpt lat="45.02413301993987" lon="9.717873249796682"><ele>56.66666666666667</ele><time>2026-04-30T06:54:01.998Z</time></trkpt><trkpt lat="45.02396865767326" lon="9.717989658556618"><ele>57.33333333333333</ele><time>2026-04-30T06:54:02.998Z</time></trkpt><trkpt lat="45.02378906098071" lon="9.718081089587551"><ele>58.0</ele><time>2026-04-30T06:54:03.998Z</time></trkpt><trkpt lat="45.02360929804093" lon="9.718201715484803"><ele>58.0</ele><time>2026-04-30T06:54:04.998Z</time></trkpt><trkpt lat="45.02340612043093" lon="9.71833979946534"><ele>58.0</ele><time>2026-04-30T06:54:05.998Z</time></trkpt><trkpt lat="45.02319422379442" lon="9.718462765958963"><ele>58.666666666666664</ele><time>2026-04-30T06:54:06.998Z</time></trkpt><trkpt lat="45.02298750836217" lon="9.71856985858232"><ele>59.33333333333333</ele><time>2026-04-30T06:54:07.997Z</time></trkpt><trkpt lat="45.02279090868816" lon="9.718688163386993"><ele>60.0</ele><time>2026-04-30T06:54:08.997Z</time></trkpt><trkpt lat="45.02260275093723" lon="9.718805111883768"><ele>60.0</ele><time>2026-04-30T06:54:09.997Z</time></trkpt><trkpt lat="45.022406361473976" lon="9.718928262879317"><ele>60.0</ele><time>2026-04-30T06:54:10.997Z</time></trkpt><trkpt lat="45.022214034343065" lon="9.719048866376372"><ele>60.0</ele><time>2026-04-30T06:54:11.997Z</time></trkpt><trkpt lat="45.022025344768174" lon="9.71916612821721"><ele>60.0</ele><time>2026-04-30T06:54:12.997Z</time></trkpt><trkpt lat="45.02183994148609" lon="9.719280676810243"><ele>60.0</ele><time>2026-04-30T06:54:13.997Z</time></trkpt><trkpt lat="45.02165140821226" lon="9.71939642406601"><ele>60.0</ele><time>2026-04-30T06:54:14.997Z</time></trkpt><trkpt lat="45.02147287332459" lon="9.719519094770563"><ele>59.66666666666667</ele><time>2026-04-30T06:54:15.997Z</time></trkpt><trkpt lat="45.02129035458249" lon="9.719611962864484"><ele>59.333333333333336</ele><time>2026-04-30T06:54:16.997Z</time></trkpt><trkpt lat="45.021111015766024" lon="9.719717293915995"><ele>59.0</ele><time>2026-04-30T06:54:17.997Z</time></trkpt><trkpt lat="45.02093357231511" lon="9.719819182679608"><ele>58.333333333333336</ele><time>2026-04-30T06:54:18.997Z</time></trkpt><trkpt lat="45.02075370754893" lon="9.719922952994557"><ele>57.66666666666667</ele><time>2026-04-30T06:54:19.997Z</time></trkpt><trkpt lat="45.02056861480244" lon="9.720048430633028"><ele>57.0</ele><time>2026-04-30T06:54:20.997Z</time></trkpt><trkpt lat="45.02036563106549" lon="9.720123108243408"><ele>57.66666666666667</ele><time>2026-04-30T06:54:21.997Z</time></trkpt><trkpt lat="45.02016225451966" lon="9.720275439159803"><ele>58.333333333333336</ele><time>2026-04-30T06:54:22.997Z</time></trkpt><trkpt lat="45.01996958311199" lon="9.720368045346143"><ele>59.0</ele><time>2026-04-30T06:54:23.997Z</time></trkpt><trkpt lat="45.01978457401482" lon="9.720454666473936"><ele>59.333333333333336</ele><time>2026-04-30T06:54:24.997Z</time></trkpt><trkpt lat="45.01958637811362" lon="9.720570590697385"><ele>59.66666666666667</ele><time>2026-04-30T06:54:25.997Z</time></trkpt><trkpt lat="45.01938672605139" lon="9.720651702304176"><ele>60.0</ele><time>2026-04-30T06:54:26.997Z</time></trkpt><trkpt lat="45.0191915142652" lon="9.720753854529029"><ele>60.0</ele><time>2026-04-30T06:54:27.997Z</time></trkpt><trkpt lat="45.019009541444206" lon="9.720907992214908"><ele>60.0</ele><time>2026-04-30T06:54:28.997Z</time></trkpt><trkpt lat="45.018843749145695" lon="9.72101923603686"><ele>60.0</ele><time>2026-04-30T06:54:29.997Z</time></trkpt><trkpt lat="45.01866995215165" lon="9.721122758854905"><ele>60.0</ele><time>2026-04-30T06:54:30.997Z</time></trkpt><trkpt lat="45.018501791963324" lon="9.721233049559462"><ele>60.0</ele><time>2026-04-30T06:54:31.997Z</time></trkpt><trkpt lat="45.01832305248167" lon="9.721333020369139"><ele>60.0</ele><time>2026-04-30T06:54:32.997Z</time></trkpt><trkpt lat="45.0181364137671" lon="9.721405467540455"><ele>60.33333333333333</ele><time>2026-04-30T06:54:33.997Z</time></trkpt><trkpt lat="45.017958705238975" lon="9.72157718377709"><ele>60.666666666666664</ele><time>2026-04-30T06:54:34.997Z</time></trkpt><trkpt lat="45.01777956161358" lon="9.721686270540987"><ele>61.0</ele><time>2026-04-30T06:54:35.997Z</time></trkpt><trkpt lat="45.017629008955566" lon="9.721840671406811"><ele>60.666666666666664</ele><time>2026-04-30T06:54:36.997Z</time></trkpt><trkpt lat="45.017453529250844" lon="9.721944431214823"><ele>60.33333333333333</ele><time>2026-04-30T06:54:37.997Z</time></trkpt><trkpt lat="45.017299965846604" lon="9.722070483725325"><ele>60.0</ele><time>2026-04-30T06:54:38.997Z</time></trkpt><trkpt lat="45.01712905918135" lon="9.722180520096574"><ele>60.0</ele><time>2026-04-30T06:54:39.997Z</time></trkpt><trkpt lat="45.01693415784584" lon="9.72229261095223"><ele>60.0</ele><time>2026-04-30T06:54:40.997Z</time></trkpt><trkpt lat="45.01676552014443" lon="9.722438214358984"><ele>60.0</ele><time>2026-04-30T06:54:41.997Z</time></trkpt><trkpt lat="45.016607253496865" lon="9.722558300501206"><ele>60.0</ele><time>2026-04-30T06:54:42.997Z</time></trkpt><trkpt lat="45.01645271614223" lon="9.722676120695683"><ele>60.0</ele><time>2026-04-30T06:54:43.997Z</time></trkpt><trkpt lat="45.01628245559531" lon="9.722805928331324"><ele>60.0</ele><time>2026-04-30T06:54:44.997Z</time></trkpt><trkpt lat="45.01613162093658" lon="9.722920415742713"><ele>60.0</ele><time>2026-04-30T06:54:45.997Z</time></trkpt><trkpt lat="45.01598821574979" lon="9.723029257556256"><ele>60.0</ele><time>2026-04-30T06:54:46.997Z</time></trkpt><trkpt lat="45.01586184669836" lon="9.723125169267696"><ele>60.0</ele><time>2026-04-30T06:54:47.997Z</time></trkpt><trkpt lat="45.01581252035367" lon="9.72325590122771"><ele>60.0</ele><time>2026-04-30T06:54:48.997Z</time></trkpt><trkpt lat="45.015727156442935" lon="9.723320690892685"><ele>60.333333333333336</ele><time>2026-04-30T06:54:49.997Z</time></trkpt><trkpt lat="45.01566151362973" lon="9.723370512600667"><ele>60.66666666666667</ele><time>2026-04-30T06:54:50.997Z</time></trkpt><trkpt lat="45.015609536052764" lon="9.723435445327313"><ele>61.0</ele><time>2026-04-30T06:54:51.997Z</time></trkpt><trkpt lat="45.015530420888666" lon="9.723415567977481"><ele>61.333333333333336</ele><time>2026-04-30T06:54:52.997Z</time></trkpt><trkpt lat="45.01544943715152" lon="9.723450641259559"><ele>61.66666666666667</ele><time>2026-04-30T06:54:54.997Z</time></trkpt><trkpt lat="45.01552780555241" lon="9.723394556801994"><ele>62.0</ele><time>2026-04-30T06:55:01.997Z</time></trkpt><trkpt lat="45.01563306602506" lon="9.723392103688392"><ele>62.00000000000001</ele><time>2026-04-30T06:55:14.997Z</time></trkpt><trkpt lat="45.01556332776863" lon="9.72339042715231"><ele>62.0</ele><time>2026-04-30T06:55:28.997Z</time></trkpt><trkpt lat="45.01562811151967" lon="9.723395864133591"><ele>62.0</ele><time>2026-04-30T06:55:35.997Z</time></trkpt><trkpt lat="45.01554992455008" lon="9.723455206752174"><ele>62.0</ele><time>2026-04-30T06:55:41.998Z</time></trkpt><trkpt lat="45.015450127361596" lon="9.723530951037821"><ele>62.00000000000001</ele><time>2026-04-30T06:55:43.998Z</time></trkpt><trkpt lat="45.01536948287539" lon="9.723577023041383"><ele>62.0</ele><time>2026-04-30T06:55:45.998Z</time></trkpt><trkpt lat="45.01541049105523" lon="9.7234105654585"><ele>62.0</ele><time>2026-04-30T06:55:46.998Z</time></trkpt><trkpt lat="45.015385366507175" lon="9.723316566020731"><ele>62.0</ele><time>2026-04-30T06:55:47.997Z</time></trkpt><trkpt lat="45.01536126067891" lon="9.723196276704643"><ele>62.0</ele><time>2026-04-30T06:55:48.997Z</time></trkpt><trkpt lat="45.015333838996824" lon="9.72305323682523"><ele>62.0</ele><time>2026-04-30T06:55:49.997Z</time></trkpt><trkpt lat="45.015305755786784" lon="9.722906746011171"><ele>62.0</ele><time>2026-04-30T06:55:50.997Z</time></trkpt><trkpt lat="45.01528239034643" lon="9.72277850625867"><ele>62.2</ele><time>2026-04-30T06:55:51.997Z</time></trkpt><trkpt lat="45.01526191822786" lon="9.722665519902746"><ele>62.400000000000006</ele><time>2026-04-30T06:55:52.997Z</time></trkpt><trkpt lat="45.01523468337703" lon="9.722515209363282"><ele>62.599999999999994</ele><time>2026-04-30T06:55:53.997Z</time></trkpt><trkpt lat="45.01521114428931" lon="9.722385296369053"><ele>62.8</ele><time>2026-04-30T06:55:54.997Z</time></trkpt><trkpt lat="45.01517417380411" lon="9.722236287886888"><ele>63.0</ele><time>2026-04-30T06:55:55.997Z</time></trkpt><trkpt lat="45.015149006395056" lon="9.722097747864902"><ele>63.0</ele><time>2026-04-30T06:55:56.997Z</time></trkpt><trkpt lat="45.01512958817155" lon="9.721986115305727"><ele>63.0</ele><time>2026-04-30T06:55:57.997Z</time></trkpt><trkpt lat="45.01511263946482" lon="9.721892445417701"><ele>63.0</ele><time>2026-04-30T06:55:58.997Z</time></trkpt><trkpt lat="45.01509067902242" lon="9.721799760233276"><ele>63.0</ele><time>2026-04-30T06:55:59.997Z</time></trkpt><trkpt lat="45.0150855585687" lon="9.721692751446467"><ele>63.0</ele><time>2026-04-30T06:56:00.997Z</time></trkpt><trkpt lat="45.01506164452114" lon="9.721602883857184"><ele>63.0</ele><time>2026-04-30T06:56:01.997Z</time></trkpt><trkpt lat="45.015042506532254" lon="9.721491131555434"><ele>63.0</ele><time>2026-04-30T06:56:02.997Z</time></trkpt><trkpt lat="45.01503176574588" lon="9.72137397153956"><ele>63.0</ele><time>2026-04-30T06:56:03.997Z</time></trkpt><trkpt lat="45.01501142930025" lon="9.721269172201199"><ele>63.0</ele><time>2026-04-30T06:56:04.997Z</time></trkpt><trkpt lat="45.01497165520822" lon="9.721141131392178"><ele>63.0</ele><time>2026-04-30T06:56:05.997Z</time></trkpt><trkpt lat="45.014906863426184" lon="9.721009186372747"><ele>63.0</ele><time>2026-04-30T06:56:06.997Z</time></trkpt><trkpt lat="45.0148275115266" lon="9.720898785840756"><ele>63.0</ele><time>2026-04-30T06:56:07.997Z</time></trkpt><trkpt lat="45.014735116207454" lon="9.720820808911583"><ele>63.0</ele><time>2026-04-30T06:56:08.997Z</time></trkpt><trkpt lat="45.014623249995594" lon="9.720812454982486"><ele>63.0</ele><time>2026-04-30T06:56:09.997Z</time></trkpt><trkpt lat="45.01452778172446" lon="9.720806023638845"><ele>63.0</ele><time>2026-04-30T06:56:10.997Z</time></trkpt><trkpt lat="45.01442678959581" lon="9.720794491551178"><ele>63.0</ele><time>2026-04-30T06:56:11.997Z</time></trkpt><trkpt lat="45.01430855203865" lon="9.720802025304549"><ele>63.0</ele><time>2026-04-30T06:56:12.997Z</time></trkpt><trkpt lat="45.01420641986851" lon="9.720805615400973"><ele>62.599999999999994</ele><time>2026-04-30T06:56:13.997Z</time></trkpt><trkpt lat="45.01410266123673" lon="9.720802174863696"><ele>62.199999999999996</ele><time>2026-04-30T06:56:14.997Z</time></trkpt><trkpt lat="45.013995970819046" lon="9.720803453159247"><ele>61.8</ele><time>2026-04-30T06:56:15.997Z</time></trkpt><trkpt lat="45.013891080505246" lon="9.720778574273494"><ele>61.4</ele><time>2026-04-30T06:56:16.997Z</time></trkpt><trkpt lat="45.01379509778111" lon="9.720775937893269"><ele>61.0</ele><time>2026-04-30T06:56:17.997Z</time></trkpt><trkpt lat="45.013680211299885" lon="9.720772388214954"><ele>61.0</ele><time>2026-04-30T06:56:18.997Z</time></trkpt><trkpt lat="45.01356426937921" lon="9.72076867574522"><ele>61.0</ele><time>2026-04-30T06:56:19.997Z</time></trkpt><trkpt lat="45.013462363649275" lon="9.72076541271633"><ele>61.0</ele><time>2026-04-30T06:56:20.997Z</time></trkpt><trkpt lat="45.01333259857196" lon="9.7207612576259"><ele>61.0</ele><time>2026-04-30T06:56:21.997Z</time></trkpt><trkpt lat="45.01315823944898" lon="9.720755674634006"><ele>62.0</ele><time>2026-04-30T06:56:22.997Z</time></trkpt><trkpt lat="45.013000930504" lon="9.720750816695695"><ele>63.0</ele><time>2026-04-30T06:56:23.997Z</time></trkpt><trkpt lat="45.012831430104484" lon="9.720745954149548"><ele>64.0</ele><time>2026-04-30T06:56:24.997Z</time></trkpt><trkpt lat="45.01265193594466" lon="9.720740804908115"><ele>64.0</ele><time>2026-04-30T06:56:25.997Z</time></trkpt><trkpt lat="45.01244495089218" lon="9.720734894828123"><ele>64.0</ele><time>2026-04-30T06:56:26.997Z</time></trkpt><trkpt lat="45.012264449587235" lon="9.720732486028716"><ele>64.0</ele><time>2026-04-30T06:56:27.997Z</time></trkpt><trkpt lat="45.01206594731021" lon="9.720729089423578"><ele>64.0</ele><time>2026-04-30T06:56:28.997Z</time></trkpt><trkpt lat="45.01187999083783" lon="9.720724853628319"><ele>64.0</ele><time>2026-04-30T06:56:29.997Z</time></trkpt><trkpt lat="45.011726029958645" lon="9.720721346643819"><ele>64.0</ele><time>2026-04-30T06:56:30.997Z</time></trkpt><trkpt lat="45.011581897756564" lon="9.720718063536236"><ele>63.800000000000004</ele><time>2026-04-30T06:56:31.997Z</time></trkpt><trkpt lat="45.011466431766124" lon="9.720716604251043"><ele>63.60000000000001</ele><time>2026-04-30T06:56:32.997Z</time></trkpt><trkpt lat="45.0113567199406" lon="9.72071520565922"><ele>63.4</ele><time>2026-04-30T06:56:33.997Z</time></trkpt><trkpt lat="45.01123451293873" lon="9.720713366932403"><ele>63.2</ele><time>2026-04-30T06:56:34.997Z</time></trkpt><trkpt lat="45.011157115751764" lon="9.72070533406764"><ele>63.0</ele><time>2026-04-30T06:56:35.997Z</time></trkpt><trkpt lat="45.01106987903861" lon="9.720653094931071"><ele>63.0</ele><time>2026-04-30T06:56:37.997Z</time></trkpt><trkpt lat="45.011033247255135" lon="9.720531410293244"><ele>63.0</ele><time>2026-04-30T06:56:39.997Z</time></trkpt><trkpt lat="45.011033216753326" lon="9.720386780623745"><ele>63.0</ele><time>2026-04-30T06:56:40.997Z</time></trkpt><trkpt lat="45.011040518340636" lon="9.720211775821623"><ele>63.0</ele><time>2026-04-30T06:56:41.997Z</time></trkpt><trkpt lat="45.01104878378829" lon="9.720013670083757"><ele>63.0</ele><time>2026-04-30T06:56:42.997Z</time></trkpt><trkpt lat="45.01105642691086" lon="9.719810572982318"><ele>63.0</ele><time>2026-04-30T06:56:43.997Z</time></trkpt><trkpt lat="45.01106498294581" lon="9.719588355977645"><ele>63.0</ele><time>2026-04-30T06:56:44.999Z</time></trkpt><trkpt lat="45.01107329391727" lon="9.719389838476273"><ele>63.0</ele><time>2026-04-30T06:56:45.999Z</time></trkpt><trkpt lat="45.01108349119365" lon="9.71914626399592"><ele>62.0</ele><time>2026-04-30T06:56:46.999Z</time></trkpt><trkpt lat="45.01109365535326" lon="9.718903480859113"><ele>61.0</ele><time>2026-04-30T06:56:47.999Z</time></trkpt><trkpt lat="45.0111108328442" lon="9.718687489483449"><ele>60.0</ele><time>2026-04-30T06:56:48.999Z</time></trkpt><trkpt lat="45.01113701595605" lon="9.718455229941387"><ele>60.0</ele><time>2026-04-30T06:56:49.999Z</time></trkpt><trkpt lat="45.01114502777715" lon="9.718225881908198"><ele>60.0</ele><time>2026-04-30T06:56:50.999Z</time></trkpt><trkpt lat="45.0111444676484" lon="9.717975306875301"><ele>60.0</ele><time>2026-04-30T06:56:51.999Z</time></trkpt><trkpt lat="45.01114091603875" lon="9.717757345276395"><ele>60.66666666666667</ele><time>2026-04-30T06:56:52.999Z</time></trkpt><trkpt lat="45.01112446106824" lon="9.717528267526182"><ele>61.333333333333336</ele><time>2026-04-30T06:56:53.999Z</time></trkpt><trkpt lat="45.011105592025146" lon="9.717287764531983"><ele>62.0</ele><time>2026-04-30T06:56:54.999Z</time></trkpt><trkpt lat="45.011085496475566" lon="9.717031628631386"><ele>62.66666666666667</ele><time>2026-04-30T06:56:55.999Z</time></trkpt><trkpt lat="45.011062272048314" lon="9.716791591949734"><ele>63.33333333333333</ele><time>2026-04-30T06:56:56.999Z</time></trkpt><trkpt lat="45.01105246600499" lon="9.716532611021888"><ele>64.0</ele><time>2026-04-30T06:56:57.999Z</time></trkpt><trkpt lat="45.011027336485945" lon="9.716258531296935"><ele>64.66666666666666</ele><time>2026-04-30T06:56:59Z</time></trkpt><trkpt lat="45.01101759073205" lon="9.715996661179002"><ele>65.33333333333333</ele><time>2026-04-30T06:57:00Z</time></trkpt><trkpt lat="45.011036746179045" lon="9.715735731779256"><ele>66.0</ele><time>2026-04-30T06:57:01Z</time></trkpt><trkpt lat="45.01107273536324" lon="9.715490529949609"><ele>66.0</ele><time>2026-04-30T06:57:02Z</time></trkpt><trkpt lat="45.01108909194451" lon="9.71526330574299"><ele>66.0</ele><time>2026-04-30T06:57:03Z</time></trkpt><trkpt lat="45.011126850471626" lon="9.715011958518707"><ele>66.0</ele><time>2026-04-30T06:57:04Z</time></trkpt><trkpt lat="45.01114697786403" lon="9.714744501680796"><ele>65.66666666666667</ele><time>2026-04-30T06:57:05Z</time></trkpt><trkpt lat="45.01117098969247" lon="9.71447854921677"><ele>65.33333333333334</ele><time>2026-04-30T06:57:06Z</time></trkpt><trkpt lat="45.0112052776071" lon="9.714233961826501"><ele>65.0</ele><time>2026-04-30T06:57:07Z</time></trkpt><trkpt lat="45.011227641385226" lon="9.713943439727851"><ele>65.0</ele><time>2026-04-30T06:57:08Z</time></trkpt><trkpt lat="45.01126733061857" lon="9.713715093502142"><ele>65.0</ele><time>2026-04-30T06:57:09Z</time></trkpt><trkpt lat="45.01132489063348" lon="9.713467549584935"><ele>65.0</ele><time>2026-04-30T06:57:10Z</time></trkpt><trkpt lat="45.01134797657529" lon="9.713201407474708"><ele>65.0</ele><time>2026-04-30T06:57:11Z</time></trkpt><trkpt lat="45.011376890748785" lon="9.712929116573843"><ele>65.0</ele><time>2026-04-30T06:57:12Z</time></trkpt><trkpt lat="45.01140351229874" lon="9.712666275147097"><ele>65.0</ele><time>2026-04-30T06:57:13Z</time></trkpt><trkpt lat="45.01144148469832" lon="9.712400003732782"><ele>64.66666666666667</ele><time>2026-04-30T06:57:14Z</time></trkpt><trkpt lat="45.011465309921" lon="9.712132568658037"><ele>64.33333333333333</ele><time>2026-04-30T06:57:15Z</time></trkpt><trkpt lat="45.01149610926736" lon="9.711867154873756"><ele>64.0</ele><time>2026-04-30T06:57:16Z</time></trkpt><trkpt lat="45.01151566491246" lon="9.71161027846157"><ele>65.0</ele><time>2026-04-30T06:57:17Z</time></trkpt><trkpt lat="45.01154473813694" lon="9.711344711785205"><ele>66.0</ele><time>2026-04-30T06:57:18Z</time></trkpt><trkpt lat="45.01157490859773" lon="9.711076070424637"><ele>67.0</ele><time>2026-04-30T06:57:19Z</time></trkpt><trkpt lat="45.01160922020838" lon="9.710770555841624"><ele>67.0</ele><time>2026-04-30T06:57:20Z</time></trkpt><trkpt lat="45.01163972410539" lon="9.710500989898705"><ele>67.0</ele><time>2026-04-30T06:57:21Z</time></trkpt><trkpt lat="45.01166944673215" lon="9.710242999077972"><ele>67.0</ele><time>2026-04-30T06:57:22Z</time></trkpt><trkpt lat="45.01170249375444" lon="9.70995772563666"><ele>66.33333333333333</ele><time>2026-04-30T06:57:23Z</time></trkpt><trkpt lat="45.0117344771034" lon="9.709681634150353"><ele>65.66666666666667</ele><time>2026-04-30T06:57:24Z</time></trkpt><trkpt lat="45.01176695414594" lon="9.709401281098463"><ele>65.0</ele><time>2026-04-30T06:57:25Z</time></trkpt><trkpt lat="45.01179658645427" lon="9.70912572176066"><ele>65.0</ele><time>2026-04-30T06:57:26Z</time></trkpt><trkpt lat="45.011814896656425" lon="9.708843903175383"><ele>65.0</ele><time>2026-04-30T06:57:27Z</time></trkpt><trkpt lat="45.0118481115711" lon="9.70857052738512"><ele>65.0</ele><time>2026-04-30T06:57:28Z</time></trkpt><trkpt lat="45.011889214764174" lon="9.708329780338977"><ele>65.33333333333334</ele><time>2026-04-30T06:57:29Z</time></trkpt><trkpt lat="45.01193032785675" lon="9.708062069262315"><ele>65.66666666666667</ele><time>2026-04-30T06:57:30Z</time></trkpt><trkpt lat="45.01196056152134" lon="9.707791955670027"><ele>66.0</ele><time>2026-04-30T06:57:31Z</time></trkpt><trkpt lat="45.011974767845665" lon="9.707547777383637"><ele>66.0</ele><time>2026-04-30T06:57:32Z</time></trkpt><trkpt lat="45.01200340979741" lon="9.707287651995873"><ele>66.0</ele><time>2026-04-30T06:57:33Z</time></trkpt><trkpt lat="45.01203103330913" lon="9.707037440775787"><ele>66.0</ele><time>2026-04-30T06:57:34Z</time></trkpt><trkpt lat="45.0120610253651" lon="9.706782483477031"><ele>66.0</ele><time>2026-04-30T06:57:35Z</time></trkpt><trkpt lat="45.01209448998222" lon="9.706522953808394"><ele>66.0</ele><time>2026-04-30T06:57:36Z</time></trkpt><trkpt lat="45.012120012652225" lon="9.706258375867137"><ele>66.0</ele><time>2026-04-30T06:57:37Z</time></trkpt><trkpt lat="45.012155311261" lon="9.70601919549264"><ele>67.0</ele><time>2026-04-30T06:57:38Z</time></trkpt><trkpt lat="45.01216054836531" lon="9.705755834209244"><ele>68.0</ele><time>2026-04-30T06:57:39Z</time></trkpt><trkpt lat="45.01218643816969" lon="9.705529154169874"><ele>69.0</ele><time>2026-04-30T06:57:40Z</time></trkpt><trkpt lat="45.012210026055286" lon="9.705284476426861"><ele>69.33333333333333</ele><time>2026-04-30T06:57:41Z</time></trkpt><trkpt lat="45.01224671048262" lon="9.705046389645313"><ele>69.66666666666666</ele><time>2026-04-30T06:57:42Z</time></trkpt><trkpt lat="45.01227286066199" lon="9.704808424244122"><ele>70.0</ele><time>2026-04-30T06:57:43Z</time></trkpt><trkpt lat="45.01229410278362" lon="9.704585855056393"><ele>68.75</ele><time>2026-04-30T06:57:44Z</time></trkpt><trkpt lat="45.01232310216316" lon="9.704345823174954"><ele>67.5</ele><time>2026-04-30T06:57:45Z</time></trkpt><trkpt lat="45.01235859303716" lon="9.704154674390013"><ele>66.25</ele><time>2026-04-30T06:57:46Z</time></trkpt><trkpt lat="45.01238844978832" lon="9.703967259757565"><ele>65.0</ele><time>2026-04-30T06:57:47Z</time></trkpt><trkpt lat="45.012400489986895" lon="9.70376763803586"><ele>65.0</ele><time>2026-04-30T06:57:48Z</time></trkpt><trkpt lat="45.01242585977223" lon="9.703540184154896"><ele>65.0</ele><time>2026-04-30T06:57:49Z</time></trkpt><trkpt lat="45.01245337767178" lon="9.703302878025301"><ele>65.0</ele><time>2026-04-30T06:57:50Z</time></trkpt><trkpt lat="45.012496203887" lon="9.703074182642984"><ele>65.0</ele><time>2026-04-30T06:57:51Z</time></trkpt><trkpt lat="45.012523790180786" lon="9.702841188086657"><ele>65.0</ele><time>2026-04-30T06:57:52Z</time></trkpt><trkpt lat="45.012528763290035" lon="9.70258018032193"><ele>65.0</ele><time>2026-04-30T06:57:53Z</time></trkpt><trkpt lat="45.01254615175435" lon="9.70232885153783"><ele>65.0</ele><time>2026-04-30T06:57:54Z</time></trkpt><trkpt lat="45.01258361114121" lon="9.702064124036134"><ele>65.0</ele><time>2026-04-30T06:57:55Z</time></trkpt><trkpt lat="45.01261081691824" lon="9.70180328421698"><ele>65.0</ele><time>2026-04-30T06:57:56Z</time></trkpt><trkpt lat="45.012636859905776" lon="9.701523882669337"><ele>65.0</ele><time>2026-04-30T06:57:57Z</time></trkpt><trkpt lat="45.012658437283065" lon="9.701274054469977"><ele>65.0</ele><time>2026-04-30T06:57:58Z</time></trkpt><trkpt lat="45.01268869394313" lon="9.701012396244236"><ele>65.0</ele><time>2026-04-30T06:57:59Z</time></trkpt><trkpt lat="45.01272544531349" lon="9.700743750467781"><ele>64.33333333333334</ele><time>2026-04-30T06:58:00Z</time></trkpt><trkpt lat="45.01275431903098" lon="9.700490791512316"><ele>63.66666666666667</ele><time>2026-04-30T06:58:01Z</time></trkpt><trkpt lat="45.01278433892675" lon="9.700225527505458"><ele>63.0</ele><time>2026-04-30T06:58:02Z</time></trkpt><trkpt lat="45.01282440066406" lon="9.699966803167834"><ele>62.66666666666667</ele><time>2026-04-30T06:58:03Z</time></trkpt><trkpt lat="45.0128517431002" lon="9.699709968310831"><ele>62.333333333333336</ele><time>2026-04-30T06:58:04Z</time></trkpt><trkpt lat="45.01288885490053" lon="9.699453803351169"><ele>62.0</ele><time>2026-04-30T06:58:05Z</time></trkpt><trkpt lat="45.012906481262846" lon="9.699190839015124"><ele>63.66666666666667</ele><time>2026-04-30T06:58:06Z</time></trkpt><trkpt lat="45.012932202355216" lon="9.69893537846617"><ele>65.33333333333333</ele><time>2026-04-30T06:58:07Z</time></trkpt><trkpt lat="45.01295540939202" lon="9.698705186948462"><ele>67.0</ele><time>2026-04-30T06:58:08Z</time></trkpt><trkpt lat="45.01298705836356" lon="9.698495068108349"><ele>67.0</ele><time>2026-04-30T06:58:09Z</time></trkpt><trkpt lat="45.01303089891497" lon="9.698308247448617"><ele>67.0</ele><time>2026-04-30T06:58:10Z</time></trkpt><trkpt lat="45.01304691188153" lon="9.698125210079365"><ele>67.0</ele><time>2026-04-30T06:58:11Z</time></trkpt><trkpt lat="45.01306049274996" lon="9.69793774846757"><ele>67.0</ele><time>2026-04-30T06:58:12Z</time></trkpt><trkpt lat="45.01309673096317" lon="9.697744473734481"><ele>68.0</ele><time>2026-04-30T06:58:13Z</time></trkpt><trkpt lat="45.01311183660094" lon="9.697557849382072"><ele>69.0</ele><time>2026-04-30T06:58:14Z</time></trkpt><trkpt lat="45.013131237876536" lon="9.697385984478819"><ele>70.0</ele><time>2026-04-30T06:58:15Z</time></trkpt><trkpt lat="45.01315270457739" lon="9.697194368723236"><ele>71.0</ele><time>2026-04-30T06:58:16Z</time></trkpt><trkpt lat="45.013170242855566" lon="9.69703705485291"><ele>70.75</ele><time>2026-04-30T06:58:17Z</time></trkpt><trkpt lat="45.013187049600276" lon="9.696860629712448"><ele>70.5</ele><time>2026-04-30T06:58:18Z</time></trkpt><trkpt lat="45.013214523141514" lon="9.696680702144965"><ele>70.25</ele><time>2026-04-30T06:58:19Z</time></trkpt><trkpt lat="45.013197617005346" lon="9.696475872987143"><ele>70.0</ele><time>2026-04-30T06:58:20Z</time></trkpt><trkpt lat="45.01318931056916" lon="9.69628837337013"><ele>69.66666666666666</ele><time>2026-04-30T06:58:21Z</time></trkpt><trkpt lat="45.013171019556246" lon="9.696054868466263"><ele>69.33333333333333</ele><time>2026-04-30T06:58:22Z</time></trkpt><trkpt lat="45.01314986141976" lon="9.69580823797977"><ele>69.0</ele><time>2026-04-30T06:58:23Z</time></trkpt><trkpt lat="45.013128276647684" lon="9.695560041226765"><ele>69.0</ele><time>2026-04-30T06:58:24Z</time></trkpt><trkpt lat="45.01311545107085" lon="9.695311312488595"><ele>69.0</ele><time>2026-04-30T06:58:25Z</time></trkpt><trkpt lat="45.01306253215528" lon="9.695097202482282"><ele>69.0</ele><time>2026-04-30T06:58:26Z</time></trkpt><trkpt lat="45.013047116752105" lon="9.694860268325066"><ele>69.25</ele><time>2026-04-30T06:58:27Z</time></trkpt><trkpt lat="45.013032744974694" lon="9.694639006948801"><ele>69.5</ele><time>2026-04-30T06:58:28Z</time></trkpt><trkpt lat="45.013016864799525" lon="9.694438825888051"><ele>69.75</ele><time>2026-04-30T06:58:29Z</time></trkpt><trkpt lat="45.01299810568762" lon="9.694228958402192"><ele>70.0</ele><time>2026-04-30T06:58:30Z</time></trkpt><trkpt lat="45.01298480630983" lon="9.694078106383756"><ele>70.0</ele><time>2026-04-30T06:58:31Z</time></trkpt><trkpt lat="45.01296814884606" lon="9.693889814487038"><ele>70.0</ele><time>2026-04-30T06:58:32Z</time></trkpt><trkpt lat="45.01294989090306" lon="9.693683431132676"><ele>70.0</ele><time>2026-04-30T06:58:33Z</time></trkpt><trkpt lat="45.01292865018974" lon="9.693443331295196"><ele>70.0</ele><time>2026-04-30T06:58:34Z</time></trkpt><trkpt lat="45.0129097909742" lon="9.693230151322124"><ele>70.0</ele><time>2026-04-30T06:58:35Z</time></trkpt><trkpt lat="45.01289245601412" lon="9.693029689922215"><ele>70.0</ele><time>2026-04-30T06:58:36Z</time></trkpt><trkpt lat="45.01287583660104" lon="9.692816643444237"><ele>70.0</ele><time>2026-04-30T06:58:37Z</time></trkpt><trkpt lat="45.01285914428773" lon="9.692609509534323"><ele>70.0</ele><time>2026-04-30T06:58:38Z</time></trkpt><trkpt lat="45.012844974189434" lon="9.692432453889477"><ele>70.0</ele><time>2026-04-30T06:58:39Z</time></trkpt><trkpt lat="45.01282944119847" lon="9.692238368862569"><ele>70.0</ele><time>2026-04-30T06:58:40Z</time></trkpt><trkpt lat="45.01281344164382" lon="9.692038454227873"><ele>70.0</ele><time>2026-04-30T06:58:41Z</time></trkpt><trkpt lat="45.012789872170956" lon="9.691850731514814"><ele>70.25</ele><time>2026-04-30T06:58:42Z</time></trkpt><trkpt lat="45.01278767818524" lon="9.691643436717367"><ele>70.5</ele><time>2026-04-30T06:58:43Z</time></trkpt><trkpt lat="45.01278334387023" lon="9.691448450191427"><ele>70.75</ele><time>2026-04-30T06:58:44Z</time></trkpt><trkpt lat="45.012733057730934" lon="9.691252668190273"><ele>71.0</ele><time>2026-04-30T06:58:45Z</time></trkpt><trkpt lat="45.01269631785063" lon="9.691091780086726"><ele>70.75</ele><time>2026-04-30T06:58:45.999Z</time></trkpt><trkpt lat="45.01268660006397" lon="9.690925766691656"><ele>70.5</ele><time>2026-04-30T06:58:46.999Z</time></trkpt><trkpt lat="45.01265150339396" lon="9.690763886001642"><ele>70.25</ele><time>2026-04-30T06:58:47.999Z</time></trkpt><trkpt lat="45.01262062515605" lon="9.690610155187926"><ele>70.0</ele><time>2026-04-30T06:58:48.999Z</time></trkpt><trkpt lat="45.01258484954834" lon="9.690440032368947"><ele>70.0</ele><time>2026-04-30T06:58:49.999Z</time></trkpt><trkpt lat="45.01254804062133" lon="9.690267315128423"><ele>70.0</ele><time>2026-04-30T06:58:50.999Z</time></trkpt><trkpt lat="45.01252464665635" lon="9.690079068476233"><ele>70.0</ele><time>2026-04-30T06:58:51.999Z</time></trkpt><trkpt lat="45.012466963702494" lon="9.689870531683988"><ele>70.0</ele><time>2026-04-30T06:58:52.999Z</time></trkpt><trkpt lat="45.01243299459267" lon="9.689688748366306"><ele>70.0</ele><time>2026-04-30T06:58:53.999Z</time></trkpt><trkpt lat="45.0124081149205" lon="9.689534982454276"><ele>70.0</ele><time>2026-04-30T06:58:54.999Z</time></trkpt><trkpt lat="45.01240911063831" lon="9.689397523504905"><ele>70.0</ele><time>2026-04-30T06:58:55.999Z</time></trkpt><trkpt lat="45.012357694927005" lon="9.689305915502244"><ele>70.0</ele><time>2026-04-30T06:58:56.999Z</time></trkpt><trkpt lat="45.012349901717336" lon="9.689198507301873"><ele>70.0</ele><time>2026-04-30T06:58:57.999Z</time></trkpt><trkpt lat="45.012363023961484" lon="9.68901774265125"><ele>70.0</ele><time>2026-04-30T06:58:59.999Z</time></trkpt><trkpt lat="45.01235479196257" lon="9.688877018858703"><ele>70.0</ele><time>2026-04-30T06:59:01.999Z</time></trkpt><trkpt lat="45.01236164025642" lon="9.688736748576533"><ele>70.0</ele><time>2026-04-30T06:59:06.999Z</time></trkpt><trkpt lat="45.01236562190643" lon="9.688582915245872"><ele>70.0</ele><time>2026-04-30T06:59:08.999Z</time></trkpt><trkpt lat="45.0123696666426" lon="9.688468356600664"><ele>70.0</ele><time>2026-04-30T06:59:10.999Z</time></trkpt><trkpt lat="45.012340799555275" lon="9.688372399757016"><ele>70.0</ele><time>2026-04-30T06:59:16.999Z</time></trkpt><trkpt lat="45.01217918616953" lon="9.688330636373442"><ele>70.0</ele><time>2026-04-30T06:59:18.999Z</time></trkpt><trkpt lat="45.01207923699907" lon="9.688442094846403"><ele>70.0</ele><time>2026-04-30T06:59:20.999Z</time></trkpt><trkpt lat="45.012050315989434" lon="9.68852649163258"><ele>70.0</ele><time>2026-04-30T06:59:22.999Z</time></trkpt><trkpt lat="45.01206723361878" lon="9.688615936773413"><ele>70.0</ele><time>2026-04-30T06:59:24.999Z</time></trkpt><trkpt lat="45.012125214528446" lon="9.688759960340416"><ele>70.0</ele><time>2026-04-30T06:59:42.999Z</time></trkpt><trkpt lat="45.01222513536466" lon="9.688747469273343"><ele>70.0</ele><time>2026-04-30T06:59:43.999Z</time></trkpt><trkpt lat="45.012318471306244" lon="9.6887607320815"><ele>70.0</ele><time>2026-04-30T06:59:44.999Z</time></trkpt><trkpt lat="45.01241535301556" lon="9.688788860064538"><ele>70.0</ele><time>2026-04-30T06:59:45.999Z</time></trkpt><trkpt lat="45.01251770402889" lon="9.68878406335735"><ele>70.0</ele><time>2026-04-30T06:59:46.999Z</time></trkpt><trkpt lat="45.01262849399089" lon="9.68873549118199"><ele>70.25</ele><time>2026-04-30T06:59:47.999Z</time></trkpt><trkpt lat="45.01275181257283" lon="9.6887356740416"><ele>70.5</ele><time>2026-04-30T06:59:48.999Z</time></trkpt><trkpt lat="45.01288483048869" lon="9.68869343676213"><ele>70.75</ele><time>2026-04-30T06:59:49.999Z</time></trkpt><trkpt lat="45.013005990835055" lon="9.68866413850947"><ele>71.0</ele><time>2026-04-30T06:59:50.999Z</time></trkpt><trkpt lat="45.013122292600606" lon="9.688641036365098"><ele>71.0</ele><time>2026-04-30T06:59:51.999Z</time></trkpt><trkpt lat="45.01325385137276" lon="9.68861939913351"><ele>71.0</ele><time>2026-04-30T06:59:52.999Z</time></trkpt><trkpt lat="45.01338593022854" lon="9.688598094616392"><ele>71.0</ele><time>2026-04-30T06:59:53.999Z</time></trkpt><trkpt lat="45.013527810309604" lon="9.688653143662016"><ele>71.0</ele><time>2026-04-30T06:59:54.999Z</time></trkpt><trkpt lat="45.01366106944817" lon="9.688662266088752"><ele>70.6</ele><time>2026-04-30T06:59:55.999Z</time></trkpt><trkpt lat="45.013771691694195" lon="9.688669838876315"><ele>70.19999999999999</ele><time>2026-04-30T06:59:56.999Z</time></trkpt><trkpt lat="45.01388839282753" lon="9.688677827801609"><ele>69.80000000000001</ele><time>2026-04-30T06:59:57.999Z</time></trkpt><trkpt lat="45.01399866369709" lon="9.688685376533792"><ele>69.4</ele><time>2026-04-30T06:59:58.999Z</time></trkpt><trkpt lat="45.01410921951359" lon="9.68869294477752"><ele>69.0</ele><time>2026-04-30T06:59:59.999Z</time></trkpt><trkpt lat="45.01422472520682" lon="9.688700851869541"><ele>69.0</ele><time>2026-04-30T07:00:00.999Z</time></trkpt><trkpt lat="45.01435522205426" lon="9.688709785194032"><ele>69.0</ele><time>2026-04-30T07:00:01.999Z</time></trkpt><trkpt lat="45.01447913267336" lon="9.6887182696537"><ele>69.0</ele><time>2026-04-30T07:00:02.999Z</time></trkpt><trkpt lat="45.01459927813623" lon="9.68872649433627"><ele>69.0</ele><time>2026-04-30T07:00:03.999Z</time></trkpt><trkpt lat="45.014718181875786" lon="9.688734634071773"><ele>69.0</ele><time>2026-04-30T07:00:04.999Z</time></trkpt><trkpt lat="45.014836710131675" lon="9.688742748067513"><ele>69.0</ele><time>2026-04-30T07:00:05.999Z</time></trkpt><trkpt lat="45.014958544290934" lon="9.688751088374817"><ele>69.0</ele><time>2026-04-30T07:00:06.999Z</time></trkpt><trkpt lat="45.015083814960086" lon="9.688736738233398"><ele>69.0</ele><time>2026-04-30T07:00:07.999Z</time></trkpt><trkpt lat="45.0152201243864" lon="9.688751635680731"><ele>68.75</ele><time>2026-04-30T07:00:08.999Z</time></trkpt><trkpt lat="45.01536608964292" lon="9.688762155843191"><ele>68.5</ele><time>2026-04-30T07:00:09.999Z</time></trkpt><trkpt lat="45.015512148324675" lon="9.688788986055402"><ele>68.25</ele><time>2026-04-30T07:00:10.999Z</time></trkpt><trkpt lat="45.01565303129266" lon="9.688775280676724"><ele>68.0</ele><time>2026-04-30T07:00:11.999Z</time></trkpt><trkpt lat="45.015790329841046" lon="9.68880910774998"><ele>67.5</ele><time>2026-04-30T07:00:12.999Z</time></trkpt><trkpt lat="45.01593821530396" lon="9.68882455212297"><ele>67.0</ele><time>2026-04-30T07:00:13.999Z</time></trkpt><trkpt lat="45.01609444443005" lon="9.68883209891016"><ele>66.5</ele><time>2026-04-30T07:00:14.999Z</time></trkpt><trkpt lat="45.016207979443685" lon="9.688838790911564"><ele>66.0</ele><time>2026-04-30T07:00:15.999Z</time></trkpt><trkpt lat="45.01633079250575" lon="9.688846029769"><ele>66.0</ele><time>2026-04-30T07:00:16.999Z</time></trkpt><trkpt lat="45.01646423318491" lon="9.688855379246638"><ele>66.0</ele><time>2026-04-30T07:00:17.999Z</time></trkpt><trkpt lat="45.0166003167441" lon="9.688865283556703"><ele>66.0</ele><time>2026-04-30T07:00:18.999Z</time></trkpt><trkpt lat="45.01672992274551" lon="9.688874716431494"><ele>66.0</ele><time>2026-04-30T07:00:19.999Z</time></trkpt><trkpt lat="45.016858153079276" lon="9.688884049182757"><ele>66.25</ele><time>2026-04-30T07:00:20.999Z</time></trkpt><trkpt lat="45.017000476651404" lon="9.688894407652295"><ele>66.5</ele><time>2026-04-30T07:00:21.999Z</time></trkpt><trkpt lat="45.01714045580525" lon="9.688904595498197"><ele>66.75</ele><time>2026-04-30T07:00:22.999Z</time></trkpt><trkpt lat="45.01727980476147" lon="9.688914737473512"><ele>67.0</ele><time>2026-04-30T07:00:23.999Z</time></trkpt><trkpt lat="45.01743551754521" lon="9.688926070430524"><ele>67.5</ele><time>2026-04-30T07:00:24.999Z</time></trkpt><trkpt lat="45.01758154253409" lon="9.688936698295576"><ele>68.0</ele><time>2026-04-30T07:00:25.999Z</time></trkpt><trkpt lat="45.01773096845597" lon="9.68894757368637"><ele>68.5</ele><time>2026-04-30T07:00:26.999Z</time></trkpt><trkpt lat="45.01786407931427" lon="9.68895726164114"><ele>69.0</ele><time>2026-04-30T07:00:27.999Z</time></trkpt><trkpt lat="45.01799433989938" lon="9.688956623435276"><ele>69.0</ele><time>2026-04-30T07:00:28.999Z</time></trkpt><trkpt lat="45.01815246032649" lon="9.688979136496597"><ele>69.0</ele><time>2026-04-30T07:00:29.999Z</time></trkpt><trkpt lat="45.018307520637975" lon="9.6889911365742"><ele>69.0</ele><time>2026-04-30T07:00:30.999Z</time></trkpt><trkpt lat="45.01844623049183" lon="9.689001397571852"><ele>69.0</ele><time>2026-04-30T07:00:31.999Z</time></trkpt><trkpt lat="45.018581989033514" lon="9.689010684466956"><ele>69.0</ele><time>2026-04-30T07:00:32.999Z</time></trkpt><trkpt lat="45.01873039256095" lon="9.689020836380209"><ele>69.0</ele><time>2026-04-30T07:00:33.999Z</time></trkpt><trkpt lat="45.01888157109892" lon="9.689017482794458"><ele>69.0</ele><time>2026-04-30T07:00:34.999Z</time></trkpt><trkpt lat="45.0190313045429" lon="9.68903362616766"><ele>69.0</ele><time>2026-04-30T07:00:35.999Z</time></trkpt><trkpt lat="45.01918976920544" lon="9.689054536805347"><ele>69.0</ele><time>2026-04-30T07:00:36.999Z</time></trkpt><trkpt lat="45.01937396238432" lon="9.689068205531447"><ele>69.0</ele><time>2026-04-30T07:00:37.999Z</time></trkpt><trkpt lat="45.01952278631194" lon="9.689079249561297"><ele>69.0</ele><time>2026-04-30T07:00:38.999Z</time></trkpt><trkpt lat="45.0196691106643" lon="9.689090108100913"><ele>69.0</ele><time>2026-04-30T07:00:39.999Z</time></trkpt><trkpt lat="45.01981483549226" lon="9.689100922145803"><ele>69.0</ele><time>2026-04-30T07:00:40.999Z</time></trkpt><trkpt lat="45.01992319630673" lon="9.68910896346066"><ele>69.0</ele><time>2026-04-30T07:00:41.999Z</time></trkpt><trkpt lat="45.02002278151264" lon="9.689116353542769"><ele>68.5</ele><time>2026-04-30T07:00:42.999Z</time></trkpt><trkpt lat="45.02013525527459" lon="9.689124655923633"><ele>68.0</ele><time>2026-04-30T07:00:43.999Z</time></trkpt><trkpt lat="45.02026449324543" lon="9.689134190310474"><ele>67.5</ele><time>2026-04-30T07:00:44.999Z</time></trkpt><trkpt lat="45.02040346671591" lon="9.689144442931022"><ele>67.0</ele><time>2026-04-30T07:00:45.999Z</time></trkpt><trkpt lat="45.02054859683567" lon="9.689155149750464"><ele>67.0</ele><time>2026-04-30T07:00:46.999Z</time></trkpt><trkpt lat="45.02067657066376" lon="9.689164590879887"><ele>67.0</ele><time>2026-04-30T07:00:47.999Z</time></trkpt><trkpt lat="45.020795841558666" lon="9.689173389965674"><ele>67.0</ele><time>2026-04-30T07:00:48.999Z</time></trkpt><trkpt lat="45.02089742505352" lon="9.689180884178244"><ele>67.0</ele><time>2026-04-30T07:00:49.999Z</time></trkpt><trkpt lat="45.02096901328528" lon="9.689186165521996"><ele>67.0</ele><time>2026-04-30T07:00:50.999Z</time></trkpt><trkpt lat="45.02106546298042" lon="9.689193280997149"><ele>66.6</ele><time>2026-04-30T07:00:52.999Z</time></trkpt><trkpt lat="45.02116097785622" lon="9.689200327503958"><ele>66.2</ele><time>2026-04-30T07:00:54.999Z</time></trkpt><trkpt lat="45.0212344121291" lon="9.689115755064861"><ele>65.8</ele><time>2026-04-30T07:00:55.999Z</time></trkpt><trkpt lat="45.021308909844926" lon="9.689205735704826"><ele>65.4</ele><time>2026-04-30T07:00:56.999Z</time></trkpt><trkpt lat="45.021367738621436" lon="9.689312355169449"><ele>65.0</ele><time>2026-04-30T07:00:57.999Z</time></trkpt><trkpt lat="45.02143024151308" lon="9.689406275834944"><ele>65.0</ele><time>2026-04-30T07:00:58.999Z</time></trkpt><trkpt lat="45.021488110904706" lon="9.689542032386766"><ele>65.0</ele><time>2026-04-30T07:00:59.998Z</time></trkpt><trkpt lat="45.021569840498806" lon="9.689531596665116"><ele>65.0</ele><time>2026-04-30T07:01:00.998Z</time></trkpt><trkpt lat="45.02165278044227" lon="9.689522907461743"><ele>65.0</ele><time>2026-04-30T07:01:01.999Z</time></trkpt><trkpt lat="45.0217377768944" lon="9.68947091021091"><ele>65.0</ele><time>2026-04-30T07:01:02.998Z</time></trkpt><trkpt lat="45.0218148010208" lon="9.689396381196975"><ele>65.0</ele><time>2026-04-30T07:01:03.998Z</time></trkpt><trkpt lat="45.0218936575771" lon="9.689315427495982"><ele>65.0</ele><time>2026-04-30T07:01:04.998Z</time></trkpt><trkpt lat="45.0219620981197" lon="9.68921580817964"><ele>65.0</ele><time>2026-04-30T07:01:05.998Z</time></trkpt><trkpt lat="45.02203264905761" lon="9.68911476833657"><ele>65.0</ele><time>2026-04-30T07:01:06.998Z</time></trkpt><trkpt lat="45.022075721888044" lon="9.688988318865686"><ele>65.0</ele><time>2026-04-30T07:01:07.998Z</time></trkpt><trkpt lat="45.02210080521235" lon="9.68886159619322"><ele>65.0</ele><time>2026-04-30T07:01:08.998Z</time></trkpt><trkpt lat="45.02208013960049" lon="9.688734249263373"><ele>65.0</ele><time>2026-04-30T07:01:09.998Z</time></trkpt><trkpt lat="45.02203304051782" lon="9.688633893076721"><ele>65.0</ele><time>2026-04-30T07:01:10.998Z</time></trkpt><trkpt lat="45.02195855595906" lon="9.688547487533196"><ele>65.0</ele><time>2026-04-30T07:01:11.998Z</time></trkpt><trkpt lat="45.02186985763371" lon="9.688497194906356"><ele>65.0</ele><time>2026-04-30T07:01:12.998Z</time></trkpt><trkpt lat="45.02177586574657" lon="9.688493416594138"><ele>65.0</ele><time>2026-04-30T07:01:13.998Z</time></trkpt><trkpt lat="45.0216758079198" lon="9.688540547901932"><ele>65.0</ele><time>2026-04-30T07:01:14.998Z</time></trkpt><trkpt lat="45.021589200834235" lon="9.688620509411686"><ele>65.0</ele><time>2026-04-30T07:01:15.998Z</time></trkpt><trkpt lat="45.02151150687693" lon="9.688711801201341"><ele>65.0</ele><time>2026-04-30T07:01:16.998Z</time></trkpt><trkpt lat="45.02143101810166" lon="9.688811960504912"><ele>65.0</ele><time>2026-04-30T07:01:17.998Z</time></trkpt><trkpt lat="45.021357325073026" lon="9.688921214377398"><ele>65.0</ele><time>2026-04-30T07:01:18.998Z</time></trkpt><trkpt lat="45.02129455752588" lon="9.689022488626625"><ele>65.0</ele><time>2026-04-30T07:01:19.998Z</time></trkpt><trkpt lat="45.02123669192514" lon="9.689145902529003"><ele>65.0</ele><time>2026-04-30T07:01:20.998Z</time></trkpt><trkpt lat="45.021149564224956" lon="9.689152479350641"><ele>65.0</ele><time>2026-04-30T07:01:21.998Z</time></trkpt><trkpt lat="45.02102758875384" lon="9.689143480744749"><ele>65.0</ele><time>2026-04-30T07:01:22.998Z</time></trkpt><trkpt lat="45.0208879660741" lon="9.689133180230579"><ele>65.66666666666667</ele><time>2026-04-30T07:01:23.998Z</time></trkpt><trkpt lat="45.020748066976" lon="9.689122859323358"><ele>66.33333333333333</ele><time>2026-04-30T07:01:24.998Z</time></trkpt><trkpt lat="45.020597673517685" lon="9.689111764211283"><ele>67.0</ele><time>2026-04-30T07:01:25.998Z</time></trkpt><trkpt lat="45.02043887505521" lon="9.689100049029006"><ele>67.0</ele><time>2026-04-30T07:01:26.998Z</time></trkpt><trkpt lat="45.02029863039441" lon="9.689089702626761"><ele>67.0</ele><time>2026-04-30T07:01:27.998Z</time></trkpt><trkpt lat="45.02014631296455" lon="9.689078465565299"><ele>67.0</ele><time>2026-04-30T07:01:28.998Z</time></trkpt><trkpt lat="45.01999962003955" lon="9.689067627881194"><ele>67.0</ele><time>2026-04-30T07:01:29.998Z</time></trkpt><trkpt lat="45.01986986789661" lon="9.68905799914409"><ele>67.5</ele><time>2026-04-30T07:01:30.998Z</time></trkpt><trkpt lat="45.01972861045726" lon="9.689047516617348"><ele>68.0</ele><time>2026-04-30T07:01:31.998Z</time></trkpt><trkpt lat="45.019576111075736" lon="9.689036199846692"><ele>68.5</ele><time>2026-04-30T07:01:32.998Z</time></trkpt><trkpt lat="45.01945158762147" lon="9.68902695912005"><ele>69.0</ele><time>2026-04-30T07:01:33.998Z</time></trkpt><trkpt lat="45.01931368204802" lon="9.689016725332289"><ele>69.0</ele><time>2026-04-30T07:01:34.998Z</time></trkpt><trkpt lat="45.01918917157764" lon="9.689007485575004"><ele>69.0</ele><time>2026-04-30T07:01:35.998Z</time></trkpt><trkpt lat="45.0190734520871" lon="9.688998711739472"><ele>69.0</ele><time>2026-04-30T07:01:36.998Z</time></trkpt><trkpt lat="45.018956410260266" lon="9.688989832278695"><ele>69.0</ele><time>2026-04-30T07:01:37.998Z</time></trkpt><trkpt lat="45.01883834805307" lon="9.688980875467143"><ele>69.0</ele><time>2026-04-30T07:01:38.998Z</time></trkpt><trkpt lat="45.018725609728364" lon="9.688973514007305"><ele>69.0</ele><time>2026-04-30T07:01:39.998Z</time></trkpt><trkpt lat="45.0186178729393" lon="9.688966144007837"><ele>69.0</ele><time>2026-04-30T07:01:40.998Z</time></trkpt><trkpt lat="45.018505380577245" lon="9.688958448689748"><ele>69.0</ele><time>2026-04-30T07:01:41.998Z</time></trkpt><trkpt lat="45.01838380879386" lon="9.688958298763877"><ele>69.0</ele><time>2026-04-30T07:01:42.998Z</time></trkpt><trkpt lat="45.01828398338762" lon="9.688954949999225"><ele>69.0</ele><time>2026-04-30T07:01:43.998Z</time></trkpt><trkpt lat="45.018170279802824" lon="9.68892701812678"><ele>69.0</ele><time>2026-04-30T07:01:44.998Z</time></trkpt><trkpt lat="45.018053013201595" lon="9.688922448658996"><ele>69.0</ele><time>2026-04-30T07:01:45.998Z</time></trkpt><trkpt lat="45.01793125630054" lon="9.688915148397873"><ele>69.0</ele><time>2026-04-30T07:01:46.998Z</time></trkpt><trkpt lat="45.017788663169604" lon="9.688904770306172"><ele>69.0</ele><time>2026-04-30T07:01:47.998Z</time></trkpt><trkpt lat="45.0176396945629" lon="9.688893928207513"><ele>69.0</ele><time>2026-04-30T07:01:48.998Z</time></trkpt><trkpt lat="45.01748423119029" lon="9.688882613397405"><ele>69.0</ele><time>2026-04-30T07:01:49.998Z</time></trkpt><trkpt lat="45.017331526094345" lon="9.688871499345565"><ele>68.33333333333333</ele><time>2026-04-30T07:01:50.998Z</time></trkpt><trkpt lat="45.017148933652784" lon="9.688858210061053"><ele>67.66666666666666</ele><time>2026-04-30T07:01:51.998Z</time></trkpt><trkpt lat="45.01697504803926" lon="9.688845554469406"><ele>67.0</ele><time>2026-04-30T07:01:52.998Z</time></trkpt><trkpt lat="45.01679393375809" lon="9.688832372763747"><ele>66.66666666666666</ele><time>2026-04-30T07:01:53.998Z</time></trkpt><trkpt lat="45.01662634986207" lon="9.688820175819092"><ele>66.33333333333333</ele><time>2026-04-30T07:01:54.998Z</time></trkpt><trkpt lat="45.01645661927629" lon="9.688807822626936"><ele>66.0</ele><time>2026-04-30T07:01:55.998Z</time></trkpt><trkpt lat="45.01629033395344" lon="9.688796664098673"><ele>66.0</ele><time>2026-04-30T07:01:56.998Z</time></trkpt><trkpt lat="45.01612657809068" lon="9.688787011987584"><ele>66.0</ele><time>2026-04-30T07:01:57.998Z</time></trkpt><trkpt lat="45.01596972810009" lon="9.688777766894141"><ele>66.0</ele><time>2026-04-30T07:01:58.998Z</time></trkpt><trkpt lat="45.01579174995661" lon="9.68876218751537"><ele>66.66666666666667</ele><time>2026-04-30T07:01:59.998Z</time></trkpt><trkpt lat="45.01561022473762" lon="9.688748704744599"><ele>67.33333333333334</ele><time>2026-04-30T07:02:00.998Z</time></trkpt><trkpt lat="45.015412495343575" lon="9.688735168912396"><ele>68.0</ele><time>2026-04-30T07:02:01.998Z</time></trkpt><trkpt lat="45.01520934912337" lon="9.688721262291676"><ele>68.0</ele><time>2026-04-30T07:02:02.998Z</time></trkpt><trkpt lat="45.01499742430817" lon="9.688706754715085"><ele>68.0</ele><time>2026-04-30T07:02:03.998Z</time></trkpt><trkpt lat="45.014804895710704" lon="9.688693576926488"><ele>68.0</ele><time>2026-04-30T07:02:04.998Z</time></trkpt><trkpt lat="45.01459889738367" lon="9.6886794750477"><ele>68.33333333333334</ele><time>2026-04-30T07:02:05.998Z</time></trkpt><trkpt lat="45.01442905487874" lon="9.688667848261769"><ele>68.66666666666667</ele><time>2026-04-30T07:02:06.998Z</time></trkpt><trkpt lat="45.014249040672226" lon="9.688655525157444"><ele>69.0</ele><time>2026-04-30T07:02:07.998Z</time></trkpt><trkpt lat="45.014065102492964" lon="9.688642933433389"><ele>69.0</ele><time>2026-04-30T07:02:08.998Z</time></trkpt><trkpt lat="45.01388944139041" lon="9.688630908328046"><ele>69.0</ele><time>2026-04-30T07:02:09.998Z</time></trkpt><trkpt lat="45.01371789532495" lon="9.688619164922702"><ele>69.0</ele><time>2026-04-30T07:02:10.998Z</time></trkpt><trkpt lat="45.013542768347826" lon="9.688607176380913"><ele>69.0</ele><time>2026-04-30T07:02:11.998Z</time></trkpt><trkpt lat="45.01336965578351" lon="9.688595325737305"><ele>69.0</ele><time>2026-04-30T07:02:12.998Z</time></trkpt><trkpt lat="45.01322636086095" lon="9.688591499362008"><ele>69.0</ele><time>2026-04-30T07:02:13.998Z</time></trkpt><trkpt lat="45.0130632781502" lon="9.68854146326181"><ele>69.66666666666667</ele><time>2026-04-30T07:02:14.998Z</time></trkpt><trkpt lat="45.01291624117874" lon="9.688496350234189"><ele>70.33333333333334</ele><time>2026-04-30T07:02:15.998Z</time></trkpt><trkpt lat="45.01275737096968" lon="9.688446016039435"><ele>71.0</ele><time>2026-04-30T07:02:16.998Z</time></trkpt><trkpt lat="45.012596383561146" lon="9.68839439923324"><ele>70.66666666666667</ele><time>2026-04-30T07:02:17.998Z</time></trkpt><trkpt lat="45.01243160067654" lon="9.68836108857162"><ele>70.33333333333333</ele><time>2026-04-30T07:02:18.998Z</time></trkpt><trkpt lat="45.01226140428436" lon="9.688336228726165"><ele>70.0</ele><time>2026-04-30T07:02:19.998Z</time></trkpt><trkpt lat="45.01208557571853" lon="9.688341729134406"><ele>70.0</ele><time>2026-04-30T07:02:20.998Z</time></trkpt><trkpt lat="45.01190333235109" lon="9.68833677080732"><ele>70.0</ele><time>2026-04-30T07:02:21.998Z</time></trkpt><trkpt lat="45.011704334961934" lon="9.688368252839995"><ele>70.0</ele><time>2026-04-30T07:02:22.998Z</time></trkpt><trkpt lat="45.01152390270969" lon="9.688406954462373"><ele>70.0</ele><time>2026-04-30T07:02:23.998Z</time></trkpt><trkpt lat="45.01135845281836" lon="9.688432347004493"><ele>70.0</ele><time>2026-04-30T07:02:24.998Z</time></trkpt><trkpt lat="45.011176085325936" lon="9.688452947829125"><ele>70.0</ele><time>2026-04-30T07:02:25.998Z</time></trkpt><trkpt lat="45.011003278911495" lon="9.688409784445502"><ele>70.0</ele><time>2026-04-30T07:02:26.998Z</time></trkpt><trkpt lat="45.01082568519884" lon="9.688397042240313"><ele>70.0</ele><time>2026-04-30T07:02:27.998Z</time></trkpt><trkpt lat="45.01063872150515" lon="9.688383627751131"><ele>70.0</ele><time>2026-04-30T07:02:28.998Z</time></trkpt><trkpt lat="45.01045630721462" lon="9.688370539646817"><ele>70.0</ele><time>2026-04-30T07:02:29.998Z</time></trkpt><trkpt lat="45.010256519798276" lon="9.688355475842203"><ele>70.0</ele><time>2026-04-30T07:02:30.998Z</time></trkpt><trkpt lat="45.01006058146432" lon="9.688344725306152"><ele>70.0</ele><time>2026-04-30T07:02:31.998Z</time></trkpt><trkpt lat="45.0098863516025" lon="9.68832719826177"><ele>70.0</ele><time>2026-04-30T07:02:32.998Z</time></trkpt><trkpt lat="45.00967864438842" lon="9.688311330148117"><ele>70.0</ele><time>2026-04-30T07:02:33.998Z</time></trkpt><trkpt lat="45.00947794961012" lon="9.688295997737253"><ele>70.0</ele><time>2026-04-30T07:02:34.998Z</time></trkpt><trkpt lat="45.009278265572604" lon="9.688280742549807"><ele>70.33333333333333</ele><time>2026-04-30T07:02:35.998Z</time></trkpt><trkpt lat="45.00907080968155" lon="9.688264893632484"><ele>70.66666666666667</ele><time>2026-04-30T07:02:36.998Z</time></trkpt><trkpt lat="45.00886632100312" lon="9.688249271373882"><ele>71.0</ele><time>2026-04-30T07:02:37.998Z</time></trkpt><trkpt lat="45.00866378200503" lon="9.6882535533825"><ele>71.0</ele><time>2026-04-30T07:02:38.998Z</time></trkpt><trkpt lat="45.00846378197308" lon="9.688217254261673"><ele>71.0</ele><time>2026-04-30T07:02:39.998Z</time></trkpt><trkpt lat="45.00826553688436" lon="9.688200336102868"><ele>71.0</ele><time>2026-04-30T07:02:40.998Z</time></trkpt><trkpt lat="45.00806762952199" lon="9.688183446781432"><ele>71.0</ele><time>2026-04-30T07:02:41.998Z</time></trkpt><trkpt lat="45.00786089556396" lon="9.688165804165786"><ele>71.0</ele><time>2026-04-30T07:02:42.998Z</time></trkpt><trkpt lat="45.00765257117458" lon="9.688148025834002"><ele>71.0</ele><time>2026-04-30T07:02:43.998Z</time></trkpt><trkpt lat="45.0074581874157" lon="9.6881314372057"><ele>71.33333333333334</ele><time>2026-04-30T07:02:44.998Z</time></trkpt><trkpt lat="45.0072548193908" lon="9.688114081849914"><ele>71.66666666666667</ele><time>2026-04-30T07:02:45.998Z</time></trkpt><trkpt lat="45.007050532161735" lon="9.688096647504032"><ele>72.0</ele><time>2026-04-30T07:02:46.998Z</time></trkpt><trkpt lat="45.006848829906" lon="9.688079434926868"><ele>72.33333333333333</ele><time>2026-04-30T07:02:47.998Z</time></trkpt><trkpt lat="45.00665146989474" lon="9.688062889339012"><ele>72.66666666666666</ele><time>2026-04-30T07:02:48.998Z</time></trkpt><trkpt lat="45.00644976206098" lon="9.688047327843089"><ele>73.0</ele><time>2026-04-30T07:02:49.998Z</time></trkpt><trkpt lat="45.00623908760246" lon="9.6880355879024"><ele>73.0</ele><time>2026-04-30T07:02:50.998Z</time></trkpt><trkpt lat="45.00603779867123" lon="9.688028400363802"><ele>73.0</ele><time>2026-04-30T07:02:51.998Z</time></trkpt><trkpt lat="45.00583802682439" lon="9.68803769261324"><ele>73.0</ele><time>2026-04-30T07:02:52.998Z</time></trkpt><trkpt lat="45.005644333121104" lon="9.688053403114557"><ele>73.0</ele><time>2026-04-30T07:02:53.998Z</time></trkpt><trkpt lat="45.005459276415564" lon="9.688060283093787"><ele>73.0</ele><time>2026-04-30T07:02:54.998Z</time></trkpt><trkpt lat="45.005274494645555" lon="9.688049518282842"><ele>73.0</ele><time>2026-04-30T07:02:55.998Z</time></trkpt><trkpt lat="45.00509589082138" lon="9.688034309157457"><ele>72.66666666666666</ele><time>2026-04-30T07:02:56.998Z</time></trkpt><trkpt lat="45.0049317765165" lon="9.688020361177932"><ele>72.33333333333333</ele><time>2026-04-30T07:02:57.998Z</time></trkpt><trkpt lat="45.00474651763692" lon="9.688004613910957"><ele>72.0</ele><time>2026-04-30T07:02:58.998Z</time></trkpt><trkpt lat="45.00453772301782" lon="9.688133874833087"><ele>72.0</ele><time>2026-04-30T07:02:59.998Z</time></trkpt><trkpt lat="45.00434699225656" lon="9.688103123896088"><ele>72.0</ele><time>2026-04-30T07:03:00.998Z</time></trkpt><trkpt lat="45.004147949788624" lon="9.68809332943688"><ele>72.0</ele><time>2026-04-30T07:03:01.998Z</time></trkpt><trkpt lat="45.003943370839686" lon="9.688049170956068"><ele>72.33333333333333</ele><time>2026-04-30T07:03:02.998Z</time></trkpt><trkpt lat="45.00374842264435" lon="9.688004289426587"><ele>72.66666666666666</ele><time>2026-04-30T07:03:03.998Z</time></trkpt><trkpt lat="45.00354402768" lon="9.687994831993796"><ele>73.0</ele><time>2026-04-30T07:03:04.998Z</time></trkpt><trkpt lat="45.00335715637731" lon="9.688009302264271"><ele>73.33333333333333</ele><time>2026-04-30T07:03:05.998Z</time></trkpt><trkpt lat="45.003165259054036" lon="9.688013505160518"><ele>73.66666666666667</ele><time>2026-04-30T07:03:06.998Z</time></trkpt><trkpt lat="45.00297224943309" lon="9.688034008182235"><ele>74.0</ele><time>2026-04-30T07:03:07.998Z</time></trkpt><trkpt lat="45.00277490914791" lon="9.688059974125446"><ele>74.0</ele><time>2026-04-30T07:03:08.998Z</time></trkpt><trkpt lat="45.002577493813604" lon="9.6879429816681"><ele>74.0</ele><time>2026-04-30T07:03:09.998Z</time></trkpt><trkpt lat="45.00238783830359" lon="9.687952963677159"><ele>74.0</ele><time>2026-04-30T07:03:10.998Z</time></trkpt><trkpt lat="45.00222003790695" lon="9.687961795397944"><ele>73.66666666666667</ele><time>2026-04-30T07:03:11.998Z</time></trkpt><trkpt lat="45.002043568670004" lon="9.687969058123059"><ele>73.33333333333333</ele><time>2026-04-30T07:03:12.998Z</time></trkpt><trkpt lat="45.001891042820795" lon="9.687973650663483"><ele>73.0</ele><time>2026-04-30T07:03:13.998Z</time></trkpt><trkpt lat="45.001748156093605" lon="9.68797078635886"><ele>73.25</ele><time>2026-04-30T07:03:14.997Z</time></trkpt><trkpt lat="45.00161517803174" lon="9.687960338667398"><ele>73.5</ele><time>2026-04-30T07:03:15.997Z</time></trkpt><trkpt lat="45.00146673785818" lon="9.68795432473181"><ele>73.75</ele><time>2026-04-30T07:03:16.997Z</time></trkpt><trkpt lat="45.001355711213805" lon="9.687963761687804"><ele>74.0</ele><time>2026-04-30T07:03:17.997Z</time></trkpt><trkpt lat="45.00123975096056" lon="9.687976316452298"><ele>74.0</ele><time>2026-04-30T07:03:18.997Z</time></trkpt><trkpt lat="45.00112973251881" lon="9.687990839064994"><ele>74.0</ele><time>2026-04-30T07:03:19.997Z</time></trkpt><trkpt lat="45.001053477630116" lon="9.688096233662385"><ele>74.0</ele><time>2026-04-30T07:03:20.997Z</time></trkpt><trkpt lat="45.00096453510256" lon="9.688062782221438"><ele>74.0</ele><time>2026-04-30T07:03:21.997Z</time></trkpt><trkpt lat="45.000858197079154" lon="9.688002787393373"><ele>74.0</ele><time>2026-04-30T07:03:22.997Z</time></trkpt><trkpt lat="45.00071417912935" lon="9.687922089431796"><ele>74.0</ele><time>2026-04-30T07:03:23.997Z</time></trkpt><trkpt lat="45.000574253817526" lon="9.687942076256478"><ele>74.0</ele><time>2026-04-30T07:03:24.997Z</time></trkpt><trkpt lat="45.00043793423405" lon="9.687868286091607"><ele>74.0</ele><time>2026-04-30T07:03:25.997Z</time></trkpt><trkpt lat="45.00030023922865" lon="9.687858157666835"><ele>74.0</ele><time>2026-04-30T07:03:26.997Z</time></trkpt><trkpt lat="45.00016526617785" lon="9.687928546602556"><ele>74.0</ele><time>2026-04-30T07:03:27.997Z</time></trkpt><trkpt lat="45.00002901709033" lon="9.687910326195889"><ele>74.0</ele><time>2026-04-30T07:03:28.997Z</time></trkpt><trkpt lat="44.99990016769369" lon="9.687920245536079"><ele>74.0</ele><time>2026-04-30T07:03:29.997Z</time></trkpt><trkpt lat="44.999777869077526" lon="9.687934240242432"><ele>74.0</ele><time>2026-04-30T07:03:30.997Z</time></trkpt><trkpt lat="44.99963611828684" lon="9.687916840492594"><ele>74.0</ele><time>2026-04-30T07:03:31.997Z</time></trkpt><trkpt lat="44.9994846131123" lon="9.687793746767356"><ele>74.0</ele><time>2026-04-30T07:03:32.997Z</time></trkpt><trkpt lat="44.999319469886046" lon="9.687781454910496"><ele>74.0</ele><time>2026-04-30T07:03:33.997Z</time></trkpt><trkpt lat="44.99916322291162" lon="9.687772591870688"><ele>74.66666666666667</ele><time>2026-04-30T07:03:34.997Z</time></trkpt><trkpt lat="44.998996696601694" lon="9.68776923128932"><ele>75.33333333333333</ele><time>2026-04-30T07:03:35.997Z</time></trkpt><trkpt lat="44.998834578089095" lon="9.68778404198637"><ele>76.0</ele><time>2026-04-30T07:03:36.997Z</time></trkpt><trkpt lat="44.99867139777853" lon="9.68781803741355"><ele>76.0</ele><time>2026-04-30T07:03:37.997Z</time></trkpt><trkpt lat="44.99851729992388" lon="9.687832336355873"><ele>76.0</ele><time>2026-04-30T07:03:38.997Z</time></trkpt><trkpt lat="44.998366495126035" lon="9.687861977967605"><ele>76.0</ele><time>2026-04-30T07:03:39.997Z</time></trkpt><trkpt lat="44.99820624817744" lon="9.687893067534095"><ele>75.66666666666666</ele><time>2026-04-30T07:03:40.997Z</time></trkpt><trkpt lat="44.998058540091876" lon="9.687918880498367"><ele>75.33333333333333</ele><time>2026-04-30T07:03:41.997Z</time></trkpt><trkpt lat="44.9979041487372" lon="9.687941810447283"><ele>75.0</ele><time>2026-04-30T07:03:42.997Z</time></trkpt><trkpt lat="44.99774415593487" lon="9.687960933280031"><ele>75.0</ele><time>2026-04-30T07:03:43.997Z</time></trkpt><trkpt lat="44.99756906840431" lon="9.687971943697004"><ele>75.0</ele><time>2026-04-30T07:03:44.997Z</time></trkpt><trkpt lat="44.99740264976528" lon="9.687974450270021"><ele>75.0</ele><time>2026-04-30T07:03:45.997Z</time></trkpt><trkpt lat="44.9972319999444" lon="9.68797218414596"><ele>75.33333333333333</ele><time>2026-04-30T07:03:46.997Z</time></trkpt><trkpt lat="44.9970745685024" lon="9.687968410831527"><ele>75.66666666666666</ele><time>2026-04-30T07:03:47.997Z</time></trkpt><trkpt lat="44.99691119650846" lon="9.687964495132011"><ele>76.0</ele><time>2026-04-30T07:03:48.997Z</time></trkpt><trkpt lat="44.99673791637984" lon="9.687960341957943"><ele>76.33333333333333</ele><time>2026-04-30T07:03:49.997Z</time></trkpt><trkpt lat="44.99657346860232" lon="9.687956400472686"><ele>76.66666666666667</ele><time>2026-04-30T07:03:50.999Z</time></trkpt><trkpt lat="44.99640441053364" lon="9.687952846731404"><ele>77.0</ele><time>2026-04-30T07:03:51.999Z</time></trkpt><trkpt lat="44.996246198137044" lon="9.68795000858709"><ele>77.0</ele><time>2026-04-30T07:03:52.999Z</time></trkpt><trkpt lat="44.99608891485423" lon="9.687947187106511"><ele>77.0</ele><time>2026-04-30T07:03:53.999Z</time></trkpt><trkpt lat="44.99591052666956" lon="9.688060912452976"><ele>77.0</ele><time>2026-04-30T07:03:54.999Z</time></trkpt><trkpt lat="44.995721930459915" lon="9.688094319043197"><ele>76.66666666666667</ele><time>2026-04-30T07:03:55.999Z</time></trkpt><trkpt lat="44.99555100527397" lon="9.688049334729596"><ele>76.33333333333333</ele><time>2026-04-30T07:03:56.999Z</time></trkpt><trkpt lat="44.99539544986062" lon="9.688063644453388"><ele>76.0</ele><time>2026-04-30T07:03:57.999Z</time></trkpt><trkpt lat="44.9952262486601" lon="9.688014819526236"><ele>76.0</ele><time>2026-04-30T07:03:58.999Z</time></trkpt><trkpt lat="44.99508161483301" lon="9.688045745846262"><ele>76.0</ele><time>2026-04-30T07:03:59.999Z</time></trkpt><trkpt lat="44.99492220960769" lon="9.688080309407832"><ele>76.0</ele><time>2026-04-30T07:04:00.999Z</time></trkpt><trkpt lat="44.9947701334559" lon="9.688113924592365"><ele>76.0</ele><time>2026-04-30T07:04:01.999Z</time></trkpt><trkpt lat="44.994625951430464" lon="9.68814663764862"><ele>76.0</ele><time>2026-04-30T07:04:02.999Z</time></trkpt><trkpt lat="44.99449161758141" lon="9.688175158888981"><ele>76.0</ele><time>2026-04-30T07:04:03.999Z</time></trkpt><trkpt lat="44.99437211608428" lon="9.688199616282818"><ele>76.0</ele><time>2026-04-30T07:04:04.999Z</time></trkpt><trkpt lat="44.99427279006179" lon="9.688213441219398"><ele>76.0</ele><time>2026-04-30T07:04:05.999Z</time></trkpt><trkpt lat="44.99416025312857" lon="9.688228511976106"><ele>76.0</ele><time>2026-04-30T07:04:06.999Z</time></trkpt><trkpt lat="44.99407728660625" lon="9.688361173036819"><ele>76.0</ele><time>2026-04-30T07:04:07.999Z</time></trkpt><trkpt lat="44.993995184413706" lon="9.6884007653316"><ele>76.0</ele><time>2026-04-30T07:04:09Z</time></trkpt><trkpt lat="44.99391567750893" lon="9.688369651006903"><ele>76.0</ele><time>2026-04-30T07:04:10Z</time></trkpt><trkpt lat="44.993838757387415" lon="9.688319080118436"><ele>76.0</ele><time>2026-04-30T07:04:11Z</time></trkpt><trkpt lat="44.99374860530087" lon="9.688345408224125"><ele>76.0</ele><time>2026-04-30T07:04:12Z</time></trkpt><trkpt lat="44.99364490036367" lon="9.68835053776"><ele>76.0</ele><time>2026-04-30T07:04:13Z</time></trkpt><trkpt lat="44.99352969376501" lon="9.688331389121476"><ele>76.0</ele><time>2026-04-30T07:04:14Z</time></trkpt><trkpt lat="44.99341478208875" lon="9.688376556471878"><ele>76.0</ele><time>2026-04-30T07:04:15Z</time></trkpt><trkpt lat="44.993305883324496" lon="9.688419359810394"><ele>76.25</ele><time>2026-04-30T07:04:16Z</time></trkpt><trkpt lat="44.99319265755247" lon="9.688462394268237"><ele>76.5</ele><time>2026-04-30T07:04:17Z</time></trkpt><trkpt lat="44.99307609425534" lon="9.688500817548192"><ele>76.75</ele><time>2026-04-30T07:04:18Z</time></trkpt><trkpt lat="44.99296145865847" lon="9.688531424445662"><ele>77.0</ele><time>2026-04-30T07:04:19Z</time></trkpt><trkpt lat="44.99282976612278" lon="9.68855755734203"><ele>77.0</ele><time>2026-04-30T07:04:20Z</time></trkpt><trkpt lat="44.99265265986965" lon="9.688581813802225"><ele>77.0</ele><time>2026-04-30T07:04:21Z</time></trkpt><trkpt lat="44.99248737305527" lon="9.688588265473415"><ele>77.0</ele><time>2026-04-30T07:04:22Z</time></trkpt><trkpt lat="44.99233241947101" lon="9.688581250969479"><ele>77.5</ele><time>2026-04-30T07:04:23Z</time></trkpt><trkpt lat="44.992162082681766" lon="9.688559504322258"><ele>78.0</ele><time>2026-04-30T07:04:24Z</time></trkpt><trkpt lat="44.992015846649245" lon="9.68853083969897"><ele>78.5</ele><time>2026-04-30T07:04:25Z</time></trkpt><trkpt lat="44.99188969246615" lon="9.6884958847963"><ele>79.0</ele><time>2026-04-30T07:04:26Z</time></trkpt><trkpt lat="44.991768876675955" lon="9.688451020668657"><ele>79.0</ele><time>2026-04-30T07:04:27Z</time></trkpt><trkpt lat="44.99167871708592" lon="9.688415233017068"><ele>79.0</ele><time>2026-04-30T07:04:28Z</time></trkpt><trkpt lat="44.991585116695056" lon="9.68837441443264"><ele>79.0</ele><time>2026-04-30T07:04:30Z</time></trkpt><trkpt lat="44.99146791218732" lon="9.688323542757882"><ele>79.0</ele><time>2026-04-30T07:04:36Z</time></trkpt><trkpt lat="44.99137398062936" lon="9.688282790750133"><ele>79.0</ele><time>2026-04-30T07:04:38Z</time></trkpt><trkpt lat="44.99123637029452" lon="9.688222072018213"><ele>79.0</ele><time>2026-04-30T07:04:40Z</time></trkpt><trkpt lat="44.991126332532964" lon="9.6881736788068"><ele>79.0</ele><time>2026-04-30T07:04:41Z</time></trkpt><trkpt lat="44.9909764846284" lon="9.68810777776391"><ele>79.0</ele><time>2026-04-30T07:04:42Z</time></trkpt><trkpt lat="44.99082467511011" lon="9.688042410331237"><ele>79.0</ele><time>2026-04-30T07:04:43Z</time></trkpt><trkpt lat="44.99065576546979" lon="9.687971699198478"><ele>79.0</ele><time>2026-04-30T07:04:44Z</time></trkpt><trkpt lat="44.990475769488704" lon="9.687903046095625"><ele>79.0</ele><time>2026-04-30T07:04:45Z</time></trkpt><trkpt lat="44.990268380166064" lon="9.687836698117042"><ele>79.0</ele><time>2026-04-30T07:04:46Z</time></trkpt><trkpt lat="44.99007880880835" lon="9.687782797229936"><ele>79.0</ele><time>2026-04-30T07:04:47Z</time></trkpt><trkpt lat="44.98988031909767" lon="9.687727549304016"><ele>79.0</ele><time>2026-04-30T07:04:48Z</time></trkpt><trkpt lat="44.98968595729992" lon="9.687674226479697"><ele>79.0</ele><time>2026-04-30T07:04:49Z</time></trkpt><trkpt lat="44.98950471369301" lon="9.687628826738177"><ele>79.0</ele><time>2026-04-30T07:04:50Z</time></trkpt><trkpt lat="44.98931782145356" lon="9.687586434268551"><ele>79.0</ele><time>2026-04-30T07:04:51Z</time></trkpt><trkpt lat="44.98913032508672" lon="9.687545194874362"><ele>79.0</ele><time>2026-04-30T07:04:52Z</time></trkpt><trkpt lat="44.988961545448234" lon="9.68751019018073"><ele>79.33333333333333</ele><time>2026-04-30T07:04:53Z</time></trkpt><trkpt lat="44.98877472275728" lon="9.687473189588294"><ele>79.66666666666667</ele><time>2026-04-30T07:04:54Z</time></trkpt><trkpt lat="44.98860935683136" lon="9.687443847931723"><ele>80.0</ele><time>2026-04-30T07:04:55Z</time></trkpt><trkpt lat="44.98843151934128" lon="9.68741385397837"><ele>79.66666666666667</ele><time>2026-04-30T07:04:56Z</time></trkpt><trkpt lat="44.98824534838855" lon="9.687384616350855"><ele>79.33333333333333</ele><time>2026-04-30T07:04:57Z</time></trkpt><trkpt lat="44.98807078019618" lon="9.68735848052816"><ele>79.0</ele><time>2026-04-30T07:04:58Z</time></trkpt><trkpt lat="44.9878841865249" lon="9.687334609690987"><ele>79.0</ele><time>2026-04-30T07:04:59Z</time></trkpt><trkpt lat="44.98770322350278" lon="9.687315303934179"><ele>79.0</ele><time>2026-04-30T07:05:00Z</time></trkpt><trkpt lat="44.98751224114454" lon="9.687300177649144"><ele>79.0</ele><time>2026-04-30T07:05:01Z</time></trkpt><trkpt lat="44.98733607042087" lon="9.68729067068929"><ele>79.0</ele><time>2026-04-30T07:05:02Z</time></trkpt><trkpt lat="44.9871692291606" lon="9.687283234943967"><ele>79.0</ele><time>2026-04-30T07:05:03Z</time></trkpt><trkpt lat="44.98701127465639" lon="9.687276913856444"><ele>79.0</ele><time>2026-04-30T07:05:04Z</time></trkpt><trkpt lat="44.98685776525472" lon="9.687272243988291"><ele>79.0</ele><time>2026-04-30T07:05:05Z</time></trkpt><trkpt lat="44.986704983193206" lon="9.68727291175662"><ele>79.0</ele><time>2026-04-30T07:05:06Z</time></trkpt><trkpt lat="44.98655295231985" lon="9.687273708863414"><ele>79.0</ele><time>2026-04-30T07:05:07Z</time></trkpt><trkpt lat="44.9863886923753" lon="9.687274485517104"><ele>79.5</ele><time>2026-04-30T07:05:08Z</time></trkpt><trkpt lat="44.98625087011645" lon="9.687276329566156"><ele>80.0</ele><time>2026-04-30T07:05:09Z</time></trkpt><trkpt lat="44.98611716588173" lon="9.687277870723829"><ele>80.5</ele><time>2026-04-30T07:05:10Z</time></trkpt><trkpt lat="44.985996808449734" lon="9.68727913198029"><ele>81.0</ele><time>2026-04-30T07:05:11Z</time></trkpt><trkpt lat="44.9858156141843" lon="9.687280936171325"><ele>81.75</ele><time>2026-04-30T07:05:12Z</time></trkpt><trkpt lat="44.98570239001183" lon="9.687282063566938"><ele>82.5</ele><time>2026-04-30T07:05:13Z</time></trkpt><trkpt lat="44.98558832079675" lon="9.687281381424368"><ele>83.25</ele><time>2026-04-30T07:05:14Z</time></trkpt><trkpt lat="44.9854590679765" lon="9.687274899083894"><ele>84.0</ele><time>2026-04-30T07:05:15Z</time></trkpt><trkpt lat="44.9853348274879" lon="9.687257552680919"><ele>84.0</ele><time>2026-04-30T07:05:16Z</time></trkpt><trkpt lat="44.985203591034484" lon="9.687228227695577"><ele>84.0</ele><time>2026-04-30T07:05:17Z</time></trkpt><trkpt lat="44.985062033600926" lon="9.687196410323859"><ele>84.0</ele><time>2026-04-30T07:05:17.999Z</time></trkpt><trkpt lat="44.98490349562073" lon="9.687160246427446"><ele>84.0</ele><time>2026-04-30T07:05:18.999Z</time></trkpt><trkpt lat="44.984745815695646" lon="9.687123387073973"><ele>84.25</ele><time>2026-04-30T07:05:19.999Z</time></trkpt><trkpt lat="44.98460652751504" lon="9.68709082693917"><ele>84.5</ele><time>2026-04-30T07:05:20.999Z</time></trkpt><trkpt lat="44.98446144295825" lon="9.687057142959821"><ele>84.75</ele><time>2026-04-30T07:05:21.999Z</time></trkpt><trkpt lat="44.98430261529478" lon="9.687023835541478"><ele>85.0</ele><time>2026-04-30T07:05:22.999Z</time></trkpt><trkpt lat="44.98415268554111" lon="9.686997021966027"><ele>85.0</ele><time>2026-04-30T07:05:23.999Z</time></trkpt><trkpt lat="44.98399244992628" lon="9.686969267770241"><ele>85.0</ele><time>2026-04-30T07:05:24.999Z</time></trkpt><trkpt lat="44.98383837826224" lon="9.686942581180066"><ele>85.0</ele><time>2026-04-30T07:05:25.999Z</time></trkpt><trkpt lat="44.98368717210772" lon="9.686916390972224"><ele>85.0</ele><time>2026-04-30T07:05:26.999Z</time></trkpt><trkpt lat="44.98355407621249" lon="9.686892351914564"><ele>85.0</ele><time>2026-04-30T07:05:27.999Z</time></trkpt><trkpt lat="44.98342562806542" lon="9.686868322360644"><ele>85.0</ele><time>2026-04-30T07:05:28.999Z</time></trkpt><trkpt lat="44.98329737358459" lon="9.686844329004012"><ele>85.0</ele><time>2026-04-30T07:05:29.999Z</time></trkpt><trkpt lat="44.983193505194976" lon="9.686824897736301"><ele>85.4</ele><time>2026-04-30T07:05:30.999Z</time></trkpt><trkpt lat="44.98311479899893" lon="9.686828672713327"><ele>85.8</ele><time>2026-04-30T07:05:31.999Z</time></trkpt><trkpt lat="44.9830333951352" lon="9.686771472715742"><ele>86.19999999999999</ele><time>2026-04-30T07:05:32.999Z</time></trkpt><trkpt lat="44.98294951025795" lon="9.686703252596399"><ele>86.6</ele><time>2026-04-30T07:05:33.999Z</time></trkpt><trkpt lat="44.98284573885784" lon="9.686566151538575"><ele>87.0</ele><time>2026-04-30T07:05:34.999Z</time></trkpt><trkpt lat="44.98270319454939" lon="9.686575528548007"><ele>87.0</ele><time>2026-04-30T07:05:35.999Z</time></trkpt><trkpt lat="44.982600369743444" lon="9.686674213544102"><ele>87.0</ele><time>2026-04-30T07:05:36.999Z</time></trkpt><trkpt lat="44.98247104448247" lon="9.686699467638427"><ele>87.0</ele><time>2026-04-30T07:05:37.999Z</time></trkpt><trkpt lat="44.98233227618871" lon="9.686677011877034"><ele>87.0</ele><time>2026-04-30T07:05:38.999Z</time></trkpt><trkpt lat="44.98218756881857" lon="9.686654955824354"><ele>86.66666666666667</ele><time>2026-04-30T07:05:39.999Z</time></trkpt><trkpt lat="44.98203455183362" lon="9.686629130544256"><ele>86.33333333333334</ele><time>2026-04-30T07:05:40.999Z</time></trkpt><trkpt lat="44.98187005499872" lon="9.68661115159619"><ele>86.0</ele><time>2026-04-30T07:05:41.999Z</time></trkpt><trkpt lat="44.98171538964455" lon="9.686578513921216"><ele>86.0</ele><time>2026-04-30T07:05:42.999Z</time></trkpt><trkpt lat="44.98156022059956" lon="9.686482975899136"><ele>86.0</ele><time>2026-04-30T07:05:43.999Z</time></trkpt><trkpt lat="44.98139348698679" lon="9.686455517892355"><ele>86.0</ele><time>2026-04-30T07:05:44.999Z</time></trkpt><trkpt lat="44.981235029018016" lon="9.686395326963588"><ele>86.0</ele><time>2026-04-30T07:05:45.999Z</time></trkpt><trkpt lat="44.9810748066211" lon="9.68631471142588"><ele>86.0</ele><time>2026-04-30T07:05:46.999Z</time></trkpt><trkpt lat="44.980906991715685" lon="9.686242543205895"><ele>86.0</ele><time>2026-04-30T07:05:47.999Z</time></trkpt><trkpt lat="44.98071591502741" lon="9.686196739471834"><ele>86.33333333333334</ele><time>2026-04-30T07:05:48.999Z</time></trkpt><trkpt lat="44.980532853153434" lon="9.686179177247393"><ele>86.66666666666667</ele><time>2026-04-30T07:05:49.999Z</time></trkpt><trkpt lat="44.980353114858715" lon="9.686192856787972"><ele>87.0</ele><time>2026-04-30T07:05:50.999Z</time></trkpt><trkpt lat="44.98014987555231" lon="9.686172768539317"><ele>87.33333333333333</ele><time>2026-04-30T07:05:51.999Z</time></trkpt><trkpt lat="44.97994147587422" lon="9.686169474711663"><ele>87.66666666666666</ele><time>2026-04-30T07:05:52.999Z</time></trkpt><trkpt lat="44.97972174215699" lon="9.686166001745038"><ele>88.0</ele><time>2026-04-30T07:05:53.999Z</time></trkpt><trkpt lat="44.97949776428671" lon="9.686180670131813"><ele>88.0</ele><time>2026-04-30T07:05:54.999Z</time></trkpt><trkpt lat="44.97927666091069" lon="9.686157460725255"><ele>88.0</ele><time>2026-04-30T07:05:55.999Z</time></trkpt><trkpt lat="44.979065499193176" lon="9.686161597901975"><ele>88.0</ele><time>2026-04-30T07:05:56.999Z</time></trkpt><trkpt lat="44.97885134366022" lon="9.686150384415813"><ele>88.0</ele><time>2026-04-30T07:05:57.999Z</time></trkpt><trkpt lat="44.97864293538461" lon="9.686155330254486"><ele>88.0</ele><time>2026-04-30T07:05:58.999Z</time></trkpt><trkpt lat="44.978435463694254" lon="9.68614374885936"><ele>88.0</ele><time>2026-04-30T07:05:59.999Z</time></trkpt><trkpt lat="44.97822297662261" lon="9.686157794366077"><ele>88.33333333333333</ele><time>2026-04-30T07:06:00.999Z</time></trkpt><trkpt lat="44.978021576477246" lon="9.6861565744585"><ele>88.66666666666667</ele><time>2026-04-30T07:06:01.999Z</time></trkpt><trkpt lat="44.97781945653293" lon="9.686130904608143"><ele>89.0</ele><time>2026-04-30T07:06:02.999Z</time></trkpt><trkpt lat="44.977612672876326" lon="9.686125945508754"><ele>89.66666666666667</ele><time>2026-04-30T07:06:03.999Z</time></trkpt><trkpt lat="44.9774308554047" lon="9.686111022746285"><ele>90.33333333333333</ele><time>2026-04-30T07:06:04.999Z</time></trkpt><trkpt lat="44.97722985552797" lon="9.686074088210155"><ele>91.0</ele><time>2026-04-30T07:06:05.999Z</time></trkpt><trkpt lat="44.97702606360084" lon="9.686032033656943"><ele>91.0</ele><time>2026-04-30T07:06:06.999Z</time></trkpt><trkpt lat="44.97682912206091" lon="9.68599036926593"><ele>91.0</ele><time>2026-04-30T07:06:07.999Z</time></trkpt><trkpt lat="44.97663167629169" lon="9.685948598112843"><ele>91.0</ele><time>2026-04-30T07:06:08.999Z</time></trkpt><trkpt lat="44.97643708093277" lon="9.685907430207395"><ele>91.66666666666666</ele><time>2026-04-30T07:06:09.999Z</time></trkpt><trkpt lat="44.976242280925725" lon="9.685866218879047"><ele>92.33333333333333</ele><time>2026-04-30T07:06:10.999Z</time></trkpt><trkpt lat="44.976066040014096" lon="9.685828935930335"><ele>93.0</ele><time>2026-04-30T07:06:11.999Z</time></trkpt><trkpt lat="44.97591503209341" lon="9.685811168144077"><ele>92.66666666666667</ele><time>2026-04-30T07:06:12.999Z</time></trkpt><trkpt lat="44.975759387598686" lon="9.685778907116006"><ele>92.33333333333334</ele><time>2026-04-30T07:06:13.999Z</time></trkpt><trkpt lat="44.97561015388058" lon="9.685762748324649"><ele>92.0</ele><time>2026-04-30T07:06:14.999Z</time></trkpt><trkpt lat="44.97545328009307" lon="9.685747521637404"><ele>92.0</ele><time>2026-04-30T07:06:15.999Z</time></trkpt><trkpt lat="44.97529992669385" lon="9.68573342757758"><ele>92.0</ele><time>2026-04-30T07:06:16.999Z</time></trkpt><trkpt lat="44.97513238615859" lon="9.68571768120082"><ele>92.0</ele><time>2026-04-30T07:06:17.999Z</time></trkpt><trkpt lat="44.974958097809974" lon="9.68570116450588"><ele>92.33333333333334</ele><time>2026-04-30T07:06:18.999Z</time></trkpt><trkpt lat="44.97477750597216" lon="9.685682013169242"><ele>92.66666666666667</ele><time>2026-04-30T07:06:19.999Z</time></trkpt><trkpt lat="44.97461546613349" lon="9.685662717794886"><ele>93.0</ele><time>2026-04-30T07:06:20.999Z</time></trkpt><trkpt lat="44.97443462476533" lon="9.685637255471836"><ele>93.0</ele><time>2026-04-30T07:06:21.999Z</time></trkpt><trkpt lat="44.97425738466638" lon="9.685610622656778"><ele>93.0</ele><time>2026-04-30T07:06:22.999Z</time></trkpt><trkpt lat="44.97407099498142" lon="9.685581539610173"><ele>93.0</ele><time>2026-04-30T07:06:23.999Z</time></trkpt><trkpt lat="44.973892570327344" lon="9.68555330288288"><ele>93.33333333333333</ele><time>2026-04-30T07:06:24.999Z</time></trkpt><trkpt lat="44.973708988199846" lon="9.685524249940146"><ele>93.66666666666666</ele><time>2026-04-30T07:06:25.999Z</time></trkpt><trkpt lat="44.9735116254752" lon="9.685491676731976"><ele>94.0</ele><time>2026-04-30T07:06:26.999Z</time></trkpt><trkpt lat="44.97331570376099" lon="9.685459057031174"><ele>94.33333333333333</ele><time>2026-04-30T07:06:27.999Z</time></trkpt><trkpt lat="44.97311830168263" lon="9.685429417310626"><ele>94.66666666666667</ele><time>2026-04-30T07:06:28.999Z</time></trkpt><trkpt lat="44.97291549153104" lon="9.685397898468205"><ele>95.0</ele><time>2026-04-30T07:06:29.999Z</time></trkpt><trkpt lat="44.97272083250528" lon="9.685365995962227"><ele>95.0</ele><time>2026-04-30T07:06:30.999Z</time></trkpt><trkpt lat="44.97251961152066" lon="9.685352554170956"><ele>95.0</ele><time>2026-04-30T07:06:31.999Z</time></trkpt><trkpt lat="44.97232787531992" lon="9.685303032382988"><ele>95.0</ele><time>2026-04-30T07:06:32.999Z</time></trkpt><trkpt lat="44.972125164259374" lon="9.68527099421454"><ele>94.66666666666667</ele><time>2026-04-30T07:06:33.999Z</time></trkpt><trkpt lat="44.97194739078403" lon="9.685242842581484"><ele>94.33333333333333</ele><time>2026-04-30T07:06:34.999Z</time></trkpt><trkpt lat="44.971736791716395" lon="9.685208738789713"><ele>94.0</ele><time>2026-04-30T07:06:35.999Z</time></trkpt><trkpt lat="44.97152033551625" lon="9.68517368647584"><ele>94.0</ele><time>2026-04-30T07:06:36.999Z</time></trkpt><trkpt lat="44.97129556154789" lon="9.68513842378199"><ele>94.0</ele><time>2026-04-30T07:06:37.999Z</time></trkpt><trkpt lat="44.971087881233174" lon="9.685106126222092"><ele>94.0</ele><time>2026-04-30T07:06:38.999Z</time></trkpt><trkpt lat="44.97086772031738" lon="9.685071885734489"><ele>95.0</ele><time>2026-04-30T07:06:39.999Z</time></trkpt><trkpt lat="44.97065884893473" lon="9.685039006860219"><ele>96.0</ele><time>2026-04-30T07:06:40.999Z</time></trkpt><trkpt lat="44.97046011206459" lon="9.685007507608319"><ele>97.0</ele><time>2026-04-30T07:06:41.999Z</time></trkpt><trkpt lat="44.97024791816317" lon="9.68497351665656"><ele>97.0</ele><time>2026-04-30T07:06:42.999Z</time></trkpt><trkpt lat="44.97003473431445" lon="9.684936939225278"><ele>97.0</ele><time>2026-04-30T07:06:43.999Z</time></trkpt><trkpt lat="44.96982761992" lon="9.684903962221117"><ele>97.0</ele><time>2026-04-30T07:06:44.999Z</time></trkpt><trkpt lat="44.969616038212344" lon="9.68487219605995"><ele>97.33333333333334</ele><time>2026-04-30T07:06:45.999Z</time></trkpt><trkpt lat="44.969421048978305" lon="9.684840964466936"><ele>97.66666666666666</ele><time>2026-04-30T07:06:46.999Z</time></trkpt><trkpt lat="44.969238583323914" lon="9.684811332693881"><ele>98.0</ele><time>2026-04-30T07:06:47.999Z</time></trkpt><trkpt lat="44.96904182887796" lon="9.684775699710178"><ele>98.33333333333333</ele><time>2026-04-30T07:06:48.999Z</time></trkpt><trkpt lat="44.96883667098476" lon="9.684727976294559"><ele>98.66666666666666</ele><time>2026-04-30T07:06:49.999Z</time></trkpt><trkpt lat="44.96863758580782" lon="9.684678981391341"><ele>99.0</ele><time>2026-04-30T07:06:50.999Z</time></trkpt><trkpt lat="44.968447213562904" lon="9.684632130738981"><ele>99.66666666666666</ele><time>2026-04-30T07:06:51.999Z</time></trkpt><trkpt lat="44.96823960200206" lon="9.684580950096912"><ele>100.33333333333333</ele><time>2026-04-30T07:06:52.999Z</time></trkpt><trkpt lat="44.968036298742675" lon="9.68452837452301"><ele>101.0</ele><time>2026-04-30T07:06:53.999Z</time></trkpt><trkpt lat="44.967836068985" lon="9.684480347351169"><ele>101.0</ele><time>2026-04-30T07:06:54.999Z</time></trkpt><trkpt lat="44.96762749743424" lon="9.684434962873357"><ele>101.0</ele><time>2026-04-30T07:06:55.999Z</time></trkpt><trkpt lat="44.967437759126895" lon="9.684405531528899"><ele>101.0</ele><time>2026-04-30T07:06:56.999Z</time></trkpt><trkpt lat="44.96722889719077" lon="9.684375729843053"><ele>101.0</ele><time>2026-04-30T07:06:57.999Z</time></trkpt><trkpt lat="44.9670366184877" lon="9.684348294322747"><ele>101.0</ele><time>2026-04-30T07:06:58.999Z</time></trkpt><trkpt lat="44.966840761094055" lon="9.684321720145716"><ele>101.0</ele><time>2026-04-30T07:06:59.999Z</time></trkpt><trkpt lat="44.9666451226293" lon="9.684295653129807"><ele>101.0</ele><time>2026-04-30T07:07:00.999Z</time></trkpt><trkpt lat="44.96647344854271" lon="9.68427278108369"><ele>101.0</ele><time>2026-04-30T07:07:01.999Z</time></trkpt><trkpt lat="44.966315615756045" lon="9.684250973044266"><ele>101.0</ele><time>2026-04-30T07:07:02.999Z</time></trkpt><trkpt lat="44.9661695184481" lon="9.684227874175926"><ele>101.0</ele><time>2026-04-30T07:07:03.999Z</time></trkpt><trkpt lat="44.966029659292325" lon="9.68420430393087"><ele>101.0</ele><time>2026-04-30T07:07:04.999Z</time></trkpt><trkpt lat="44.96591704446353" lon="9.684208147257097"><ele>101.0</ele><time>2026-04-30T07:07:05.999Z</time></trkpt><trkpt lat="44.965843821410665" lon="9.684178898595158"><ele>101.0</ele><time>2026-04-30T07:07:06.999Z</time></trkpt><trkpt lat="44.96578407897809" lon="9.684137232053663"><ele>101.0</ele><time>2026-04-30T07:07:07.999Z</time></trkpt><trkpt lat="44.965694263621096" lon="9.683997447359875"><ele>101.25</ele><time>2026-04-30T07:07:08.999Z</time></trkpt><trkpt lat="44.96558384585946" lon="9.683985134512193"><ele>101.5</ele><time>2026-04-30T07:07:09.999Z</time></trkpt><trkpt lat="44.96545837438273" lon="9.684061858575399"><ele>101.75</ele><time>2026-04-30T07:07:10.999Z</time></trkpt><trkpt lat="44.9653073136501" lon="9.684090622271768"><ele>102.0</ele><time>2026-04-30T07:07:11.999Z</time></trkpt><trkpt lat="44.96515388769069" lon="9.684048251129516"><ele>102.66666666666666</ele><time>2026-04-30T07:07:12.999Z</time></trkpt><trkpt lat="44.96499060806069" lon="9.683982448608532"><ele>103.33333333333333</ele><time>2026-04-30T07:07:13.999Z</time></trkpt><trkpt lat="44.96480336344103" lon="9.683929013285292"><ele>104.0</ele><time>2026-04-30T07:07:14.999Z</time></trkpt><trkpt lat="44.9646280202139" lon="9.683905019428678"><ele>104.0</ele><time>2026-04-30T07:07:15.999Z</time></trkpt><trkpt lat="44.9644517746544" lon="9.683940935636858"><ele>104.0</ele><time>2026-04-30T07:07:16.999Z</time></trkpt><trkpt lat="44.96426558152524" lon="9.68392036152032"><ele>104.0</ele><time>2026-04-30T07:07:17.999Z</time></trkpt><trkpt lat="44.96405841210352" lon="9.683889627822056"><ele>104.33333333333333</ele><time>2026-04-30T07:07:18.999Z</time></trkpt><trkpt lat="44.96384830764605" lon="9.683864448966979"><ele>104.66666666666666</ele><time>2026-04-30T07:07:19.999Z</time></trkpt><trkpt lat="44.9636433020895" lon="9.683826395007042"><ele>105.0</ele><time>2026-04-30T07:07:20.999Z</time></trkpt><trkpt lat="44.96343218797265" lon="9.683779537824256"><ele>105.0</ele><time>2026-04-30T07:07:21.999Z</time></trkpt><trkpt lat="44.96323020628346" lon="9.68373418887262"><ele>105.0</ele><time>2026-04-30T07:07:22.999Z</time></trkpt><trkpt lat="44.963028396945965" lon="9.683692145650186"><ele>105.0</ele><time>2026-04-30T07:07:23.999Z</time></trkpt><trkpt lat="44.9628336567684" lon="9.683648452456485"><ele>105.0</ele><time>2026-04-30T07:07:24.999Z</time></trkpt><trkpt lat="44.96265222331713" lon="9.683601589663683"><ele>105.0</ele><time>2026-04-30T07:07:25.999Z</time></trkpt><trkpt lat="44.96248783144558" lon="9.68354289161896"><ele>105.0</ele><time>2026-04-30T07:07:26.999Z</time></trkpt><trkpt lat="44.96233918835091" lon="9.683453275143664"><ele>106.0</ele><time>2026-04-30T07:07:27.999Z</time></trkpt><trkpt lat="44.96221632197089" lon="9.683359576938251"><ele>107.0</ele><time>2026-04-30T07:07:28.999Z</time></trkpt><trkpt lat="44.962065245254685" lon="9.683231463058425"><ele>108.0</ele><time>2026-04-30T07:07:29.999Z</time></trkpt><trkpt lat="44.96190968095515" lon="9.683097422586718"><ele>108.0</ele><time>2026-04-30T07:07:30.999Z</time></trkpt><trkpt lat="44.96174688149706" lon="9.682956419845516"><ele>108.0</ele><time>2026-04-30T07:07:31.999Z</time></trkpt><trkpt lat="44.96159405368628" lon="9.682824036559351"><ele>108.0</ele><time>2026-04-30T07:07:32.999Z</time></trkpt><trkpt lat="44.96147036755971" lon="9.682669024831162"><ele>109.0</ele><time>2026-04-30T07:07:33.999Z</time></trkpt><trkpt lat="44.961320573309365" lon="9.68252833590211"><ele>110.0</ele><time>2026-04-30T07:07:34.999Z</time></trkpt><trkpt lat="44.96114415690491" lon="9.682529368595386"><ele>111.0</ele><time>2026-04-30T07:07:35.999Z</time></trkpt><trkpt lat="44.96100630143458" lon="9.682381517223504"><ele>111.66666666666666</ele><time>2026-04-30T07:07:36.999Z</time></trkpt><trkpt lat="44.96082606588805" lon="9.68230180313327"><ele>112.33333333333333</ele><time>2026-04-30T07:07:37.999Z</time></trkpt><trkpt lat="44.9606446790827" lon="9.682242471866536"><ele>113.0</ele><time>2026-04-30T07:07:38.999Z</time></trkpt><trkpt lat="44.96046717501583" lon="9.682195369465443"><ele>113.0</ele><time>2026-04-30T07:07:39.999Z</time></trkpt><trkpt lat="44.9602738799502" lon="9.682148538107896"><ele>113.0</ele><time>2026-04-30T07:07:40.999Z</time></trkpt><trkpt lat="44.96009331592296" lon="9.682107200714116"><ele>113.0</ele><time>2026-04-30T07:07:41.999Z</time></trkpt><trkpt lat="44.959913294627256" lon="9.682088317983318"><ele>112.66666666666666</ele><time>2026-04-30T07:07:42.999Z</time></trkpt><trkpt lat="44.95974761014538" lon="9.68205412732442"><ele>112.33333333333334</ele><time>2026-04-30T07:07:43.999Z</time></trkpt><trkpt lat="44.959596147429004" lon="9.682022258068773"><ele>112.0</ele><time>2026-04-30T07:07:44.999Z</time></trkpt><trkpt lat="44.95942885116234" lon="9.6820084550098"><ele>112.0</ele><time>2026-04-30T07:07:45.999Z</time></trkpt><trkpt lat="44.95926972017469" lon="9.681973079656613"><ele>112.0</ele><time>2026-04-30T07:07:46.999Z</time></trkpt><trkpt lat="44.959130202982955" lon="9.681905474779022"><ele>112.0</ele><time>2026-04-30T07:07:47.999Z</time></trkpt><trkpt lat="44.958976423844355" lon="9.681871139798668"><ele>112.33333333333334</ele><time>2026-04-30T07:07:48.999Z</time></trkpt><trkpt lat="44.9588281168394" lon="9.681844320621352"><ele>112.66666666666666</ele><time>2026-04-30T07:07:49.999Z</time></trkpt><trkpt lat="44.958678754773565" lon="9.68182326341685"><ele>113.0</ele><time>2026-04-30T07:07:50.999Z</time></trkpt><trkpt lat="44.958525289184266" lon="9.68181266913472"><ele>113.0</ele><time>2026-04-30T07:07:51.999Z</time></trkpt><trkpt lat="44.95839834915278" lon="9.681815484073494"><ele>113.0</ele><time>2026-04-30T07:07:52.999Z</time></trkpt><trkpt lat="44.95827113411751" lon="9.681789760839084"><ele>113.0</ele><time>2026-04-30T07:07:53.999Z</time></trkpt><trkpt lat="44.95815432885632" lon="9.681685672647495"><ele>113.0</ele><time>2026-04-30T07:07:54.999Z</time></trkpt><trkpt lat="44.958032294933155" lon="9.68165850490313"><ele>113.4</ele><time>2026-04-30T07:07:55.999Z</time></trkpt><trkpt lat="44.95791825761705" lon="9.68163311738781"><ele>113.80000000000001</ele><time>2026-04-30T07:07:56.999Z</time></trkpt><trkpt lat="44.95780213746284" lon="9.681608088528925"><ele>114.2</ele><time>2026-04-30T07:07:57.999Z</time></trkpt><trkpt lat="44.957702452761055" lon="9.681588446353631"><ele>114.6</ele><time>2026-04-30T07:07:58.999Z</time></trkpt><trkpt lat="44.95761436643029" lon="9.681571089581185"><ele>115.0</ele><time>2026-04-30T07:07:59.999Z</time></trkpt><trkpt lat="44.95751364947197" lon="9.681551243961685"><ele>115.2</ele><time>2026-04-30T07:08:00.999Z</time></trkpt><trkpt lat="44.957431846906665" lon="9.681535125326187"><ele>115.4</ele><time>2026-04-30T07:08:01.999Z</time></trkpt><trkpt lat="44.957359181649586" lon="9.68152080683569"><ele>115.6</ele><time>2026-04-30T07:08:02.999Z</time></trkpt><trkpt lat="44.95728483717272" lon="9.68150466608474"><ele>115.8</ele><time>2026-04-30T07:08:03.999Z</time></trkpt><trkpt lat="44.957208721046314" lon="9.68148857337741"><ele>116.0</ele><time>2026-04-30T07:08:04.999Z</time></trkpt><trkpt lat="44.957060996995416" lon="9.681454663568044"><ele>116.0</ele><time>2026-04-30T07:08:06.999Z</time></trkpt><trkpt lat="44.95698049871837" lon="9.681434614005747"><ele>116.0</ele><time>2026-04-30T07:08:07.999Z</time></trkpt><trkpt lat="44.95689081233542" lon="9.681413092049546"><ele>116.0</ele><time>2026-04-30T07:08:08.999Z</time></trkpt><trkpt lat="44.9567987420964" lon="9.68139150921835"><ele>116.0</ele><time>2026-04-30T07:08:09.999Z</time></trkpt><trkpt lat="44.95670666483124" lon="9.681373492135181"><ele>116.0</ele><time>2026-04-30T07:08:10.999Z</time></trkpt><trkpt lat="44.95660897966814" lon="9.681354838352483"><ele>116.4</ele><time>2026-04-30T07:08:11.999Z</time></trkpt><trkpt lat="44.95652407387435" lon="9.681339290982145"><ele>116.8</ele><time>2026-04-30T07:08:12.999Z</time></trkpt><trkpt lat="44.95643117857692" lon="9.681321663315837"><ele>117.20000000000002</ele><time>2026-04-30T07:08:13.999Z</time></trkpt><trkpt lat="44.95632684453577" lon="9.681301373698915"><ele>117.60000000000001</ele><time>2026-04-30T07:08:14.999Z</time></trkpt><trkpt lat="44.95622038408158" lon="9.681280670536223"><ele>118.0</ele><time>2026-04-30T07:08:15.999Z</time></trkpt><trkpt lat="44.956076955887085" lon="9.681252778338884"><ele>118.0</ele><time>2026-04-30T07:08:16.999Z</time></trkpt><trkpt lat="44.955962799387805" lon="9.68123106734659"><ele>118.0</ele><time>2026-04-30T07:08:17.999Z</time></trkpt><trkpt lat="44.95584790140492" lon="9.681209342545348"><ele>118.0</ele><time>2026-04-30T07:08:18.998Z</time></trkpt><trkpt lat="44.955715435086425" lon="9.681184295961021"><ele>118.0</ele><time>2026-04-30T07:08:19.998Z</time></trkpt><trkpt lat="44.955580185897674" lon="9.681158723165025"><ele>118.0</ele><time>2026-04-30T07:08:20.998Z</time></trkpt><trkpt lat="44.95546883723791" lon="9.681137669432694"><ele>118.00000000000001</ele><time>2026-04-30T07:08:21.998Z</time></trkpt><trkpt lat="44.95536316780414" lon="9.681117689568339"><ele>118.00000000000001</ele><time>2026-04-30T07:08:22.998Z</time></trkpt><trkpt lat="44.95526453116333" lon="9.681110812583434"><ele>118.0</ele><time>2026-04-30T07:08:23.998Z</time></trkpt><trkpt lat="44.95517540539784" lon="9.681082187693695"><ele>118.0</ele><time>2026-04-30T07:08:24.998Z</time></trkpt><trkpt lat="44.955087114540504" lon="9.68106549367471"><ele>118.33333333333334</ele><time>2026-04-30T07:08:25.998Z</time></trkpt><trkpt lat="44.95499824852004" lon="9.681048690971199"><ele>118.66666666666667</ele><time>2026-04-30T07:08:26.998Z</time></trkpt><trkpt lat="44.95491613275656" lon="9.681054116112014"><ele>119.0</ele><time>2026-04-30T07:08:27.998Z</time></trkpt><trkpt lat="44.95483593178092" lon="9.68101900226095"><ele>119.33333333333334</ele><time>2026-04-30T07:08:28.998Z</time></trkpt><trkpt lat="44.95475218913473" lon="9.681003256569547"><ele>119.66666666666667</ele><time>2026-04-30T07:08:29.998Z</time></trkpt><trkpt lat="44.95467098451356" lon="9.680988783546317"><ele>120.0</ele><time>2026-04-30T07:08:30.998Z</time></trkpt><trkpt lat="44.95459248147085" lon="9.68097479212444"><ele>120.0</ele><time>2026-04-30T07:08:31.998Z</time></trkpt><trkpt lat="44.95452289916658" lon="9.680962029808724"><ele>120.0</ele><time>2026-04-30T07:08:32.998Z</time></trkpt><trkpt lat="44.954444979100515" lon="9.680946934348675"><ele>120.0</ele><time>2026-04-30T07:08:33.998Z</time></trkpt><trkpt lat="44.95436742149407" lon="9.680930417582998"><ele>120.0</ele><time>2026-04-30T07:08:34.998Z</time></trkpt><trkpt lat="44.954281316147636" lon="9.680911640683062"><ele>120.0</ele><time>2026-04-30T07:08:35.998Z</time></trkpt><trkpt lat="44.95419817546022" lon="9.680890513665808"><ele>120.0</ele><time>2026-04-30T07:08:36.998Z</time></trkpt><trkpt lat="44.95412344855698" lon="9.680871313965886"><ele>120.2</ele><time>2026-04-30T07:08:37.998Z</time></trkpt><trkpt lat="44.954027176896794" lon="9.680846713905245"><ele>120.4</ele><time>2026-04-30T07:08:38.998Z</time></trkpt><trkpt lat="44.953941378706034" lon="9.680822894947157"><ele>120.6</ele><time>2026-04-30T07:08:39.998Z</time></trkpt><trkpt lat="44.953839088768405" lon="9.680794789258114"><ele>120.8</ele><time>2026-04-30T07:08:40.998Z</time></trkpt><trkpt lat="44.95372712377032" lon="9.680764820286162"><ele>121.0</ele><time>2026-04-30T07:08:41.998Z</time></trkpt><trkpt lat="44.953602845361225" lon="9.680732009290471"><ele>121.0</ele><time>2026-04-30T07:08:42.998Z</time></trkpt><trkpt lat="44.95347766059259" lon="9.680698959100457"><ele>121.0</ele><time>2026-04-30T07:08:43.998Z</time></trkpt><trkpt lat="44.95336278784959" lon="9.680668631354752"><ele>121.0</ele><time>2026-04-30T07:08:44.998Z</time></trkpt><trkpt lat="44.953243424963546" lon="9.680637118174268"><ele>121.0</ele><time>2026-04-30T07:08:45.998Z</time></trkpt><trkpt lat="44.953122710408245" lon="9.680605248109803"><ele>121.5</ele><time>2026-04-30T07:08:46.998Z</time></trkpt><trkpt lat="44.95299580733874" lon="9.680571744178947"><ele>122.0</ele><time>2026-04-30T07:08:47.998Z</time></trkpt><trkpt lat="44.95289865567116" lon="9.680546095042775"><ele>122.5</ele><time>2026-04-30T07:08:48.998Z</time></trkpt><trkpt lat="44.95278566152515" lon="9.680516263250063"><ele>123.0</ele><time>2026-04-30T07:08:49.998Z</time></trkpt><trkpt lat="44.95266934573415" lon="9.6804855545293"><ele>123.0</ele><time>2026-04-30T07:08:50.998Z</time></trkpt><trkpt lat="44.95255760849652" lon="9.680456054593082"><ele>123.0</ele><time>2026-04-30T07:08:51.998Z</time></trkpt><trkpt lat="44.95240752767472" lon="9.680416431455118"><ele>123.0</ele><time>2026-04-30T07:08:52.998Z</time></trkpt><trkpt lat="44.95227800867926" lon="9.680382236962018"><ele>123.0</ele><time>2026-04-30T07:08:53.998Z</time></trkpt><trkpt lat="44.95215865774046" lon="9.680350726929378"><ele>122.75</ele><time>2026-04-30T07:08:54.998Z</time></trkpt><trkpt lat="44.95204045092438" lon="9.680319152832098"><ele>122.5</ele><time>2026-04-30T07:08:55.998Z</time></trkpt><trkpt lat="44.9519157516391" lon="9.680285285162176"><ele>122.25</ele><time>2026-04-30T07:08:56.998Z</time></trkpt><trkpt lat="44.95180978339759" lon="9.68025481564341"><ele>122.0</ele><time>2026-04-30T07:08:57.998Z</time></trkpt><trkpt lat="44.95170627815545" lon="9.680225055052732"><ele>122.49999999999999</ele><time>2026-04-30T07:08:58.998Z</time></trkpt><trkpt lat="44.95162673254498" lon="9.680201965285681"><ele>123.0</ele><time>2026-04-30T07:08:59.998Z</time></trkpt><trkpt lat="44.95155140815236" lon="9.680180186474798"><ele>123.5</ele><time>2026-04-30T07:09:00.998Z</time></trkpt><trkpt lat="44.951465187974435" lon="9.680155469839878"><ele>124.0</ele><time>2026-04-30T07:09:01.998Z</time></trkpt><trkpt lat="44.95138445180599" lon="9.680133936521628"><ele>124.49999999999999</ele><time>2026-04-30T07:09:02.998Z</time></trkpt><trkpt lat="44.951284903986334" lon="9.680107385974207"><ele>125.0</ele><time>2026-04-30T07:09:03.998Z</time></trkpt><trkpt lat="44.95119937618922" lon="9.680084574605278"><ele>125.0</ele><time>2026-04-30T07:09:04.998Z</time></trkpt><trkpt lat="44.95111613072198" lon="9.680062372023027"><ele>125.0</ele><time>2026-04-30T07:09:05.998Z</time></trkpt><trkpt lat="44.95101681207055" lon="9.680035882489834"><ele>125.0</ele><time>2026-04-30T07:09:06.998Z</time></trkpt><trkpt lat="44.950919921973096" lon="9.68001004073353"><ele>125.0</ele><time>2026-04-30T07:09:07.998Z</time></trkpt><trkpt lat="44.950834015535534" lon="9.679987128432161"><ele>125.0</ele><time>2026-04-30T07:09:08.998Z</time></trkpt><trkpt lat="44.95074593200964" lon="9.679963635751209"><ele>125.2</ele><time>2026-04-30T07:09:09.998Z</time></trkpt><trkpt lat="44.950641486841185" lon="9.679936030218455"><ele>125.4</ele><time>2026-04-30T07:09:10.998Z</time></trkpt><trkpt lat="44.9505366519707" lon="9.679911675589034"><ele>125.6</ele><time>2026-04-30T07:09:11.998Z</time></trkpt><trkpt lat="44.950451991867276" lon="9.679893095527252"><ele>125.8</ele><time>2026-04-30T07:09:12.998Z</time></trkpt><trkpt lat="44.9503559482628" lon="9.679874590748911"><ele>126.0</ele><time>2026-04-30T07:09:13.998Z</time></trkpt><trkpt lat="44.95028015557466" lon="9.679862312449055"><ele>126.0</ele><time>2026-04-30T07:09:14.998Z</time></trkpt><trkpt lat="44.95019523807737" lon="9.679849678463942"><ele>126.0</ele><time>2026-04-30T07:09:15.998Z</time></trkpt><trkpt lat="44.95009496578792" lon="9.679837358176988"><ele>126.0</ele><time>2026-04-30T07:09:16.998Z</time></trkpt><trkpt lat="44.95000423840545" lon="9.67982621067085"><ele>126.0</ele><time>2026-04-30T07:09:17.998Z</time></trkpt><trkpt lat="44.949917604257486" lon="9.6798133999623"><ele>126.0</ele><time>2026-04-30T07:09:18.998Z</time></trkpt><trkpt lat="44.94982888227182" lon="9.67980020579293"><ele>125.6</ele><time>2026-04-30T07:09:19.998Z</time></trkpt><trkpt lat="44.949726607919786" lon="9.679782491532809"><ele>125.19999999999999</ele><time>2026-04-30T07:09:20.998Z</time></trkpt><trkpt lat="44.949640085657755" lon="9.679766461196904"><ele>124.80000000000001</ele><time>2026-04-30T07:09:21.998Z</time></trkpt><trkpt lat="44.94954080589077" lon="9.679747016504248"><ele>124.4</ele><time>2026-04-30T07:09:22.998Z</time></trkpt><trkpt lat="44.94944210108125" lon="9.6797276844376"><ele>124.0</ele><time>2026-04-30T07:09:23.998Z</time></trkpt><trkpt lat="44.949352715722306" lon="9.67971100351452"><ele>124.0</ele><time>2026-04-30T07:09:24.998Z</time></trkpt><trkpt lat="44.9492461365739" lon="9.679692047656042"><ele>124.0</ele><time>2026-04-30T07:09:25.998Z</time></trkpt><trkpt lat="44.94913134612517" lon="9.67967231647323"><ele>124.0</ele><time>2026-04-30T07:09:26.998Z</time></trkpt><trkpt lat="44.94901270510883" lon="9.679651215587405"><ele>124.0</ele><time>2026-04-30T07:09:27.998Z</time></trkpt><trkpt lat="44.94888207920821" lon="9.679624958120517"><ele>124.25</ele><time>2026-04-30T07:09:28.998Z</time></trkpt><trkpt lat="44.948747852304365" lon="9.679587193376442"><ele>124.5</ele><time>2026-04-30T07:09:29.998Z</time></trkpt><trkpt lat="44.948603616361595" lon="9.679540613021377"><ele>124.75</ele><time>2026-04-30T07:09:30.998Z</time></trkpt><trkpt lat="44.94846787053908" lon="9.679485743964273"><ele>125.0</ele><time>2026-04-30T07:09:31.998Z</time></trkpt><trkpt lat="44.94831885366165" lon="9.679413385296332"><ele>126.0</ele><time>2026-04-30T07:09:32.998Z</time></trkpt><trkpt lat="44.94815622498337" lon="9.679320835688802"><ele>127.0</ele><time>2026-04-30T07:09:33.998Z</time></trkpt><trkpt lat="44.947997782129484" lon="9.679216897129697"><ele>128.0</ele><time>2026-04-30T07:09:34.998Z</time></trkpt><trkpt lat="44.94784028725548" lon="9.679101337795817"><ele>128.0</ele><time>2026-04-30T07:09:35.998Z</time></trkpt><trkpt lat="44.947678809379724" lon="9.678984486788533"><ele>128.0</ele><time>2026-04-30T07:09:36.998Z</time></trkpt><trkpt lat="44.94752005743568" lon="9.678869084589884"><ele>128.0</ele><time>2026-04-30T07:09:37.998Z</time></trkpt><trkpt lat="44.947363258660786" lon="9.678754162925962"><ele>127.75</ele><time>2026-04-30T07:09:38.998Z</time></trkpt><trkpt lat="44.94723210633798" lon="9.678660120962999"><ele>127.5</ele><time>2026-04-30T07:09:39.998Z</time></trkpt><trkpt lat="44.947104755233084" lon="9.678574573322717"><ele>127.25</ele><time>2026-04-30T07:09:40.998Z</time></trkpt><trkpt lat="44.947007350239325" lon="9.67851593900644"><ele>127.0</ele><time>2026-04-30T07:09:41.998Z</time></trkpt><trkpt lat="44.94691506163213" lon="9.678461801834894"><ele>127.0</ele><time>2026-04-30T07:09:42.998Z</time></trkpt><trkpt lat="44.94681973765031" lon="9.67840079821015"><ele>126.99999999999999</ele><time>2026-04-30T07:09:43.998Z</time></trkpt><trkpt lat="44.94673423049863" lon="9.678349900107358"><ele>126.99999999999999</ele><time>2026-04-30T07:09:44.998Z</time></trkpt><trkpt lat="44.94663815657606" lon="9.678336402754848"><ele>127.0</ele><time>2026-04-30T07:09:45.998Z</time></trkpt><trkpt lat="44.94656445680629" lon="9.678237386971029"><ele>127.0</ele><time>2026-04-30T07:09:46.998Z</time></trkpt><trkpt lat="44.94648051629593" lon="9.678146682411906"><ele>127.0</ele><time>2026-04-30T07:09:47.998Z</time></trkpt><trkpt lat="44.946359377565635" lon="9.67807062036861"><ele>127.0</ele><time>2026-04-30T07:09:48.998Z</time></trkpt><trkpt lat="44.946223040155544" lon="9.678044548611648"><ele>127.0</ele><time>2026-04-30T07:09:49.998Z</time></trkpt><trkpt lat="44.94609982366574" lon="9.677962527913087"><ele>127.0</ele><time>2026-04-30T07:09:50.998Z</time></trkpt><trkpt lat="44.94596815301834" lon="9.677874255713977"><ele>127.0</ele><time>2026-04-30T07:09:51.998Z</time></trkpt><trkpt lat="44.94584610903526" lon="9.677802000198007"><ele>127.0</ele><time>2026-04-30T07:09:52.998Z</time></trkpt><trkpt lat="44.94556890714371" lon="9.67765707807646"><ele>127.0</ele><time>2026-04-30T07:09:54.998Z</time></trkpt><trkpt lat="44.94542800779739" lon="9.67758822587802"><ele>127.33333333333334</ele><time>2026-04-30T07:09:55.998Z</time></trkpt><trkpt lat="44.94528666204545" lon="9.677521641952664"><ele>127.66666666666666</ele><time>2026-04-30T07:09:56.998Z</time></trkpt><trkpt lat="44.94514561116269" lon="9.677457121412019"><ele>128.0</ele><time>2026-04-30T07:09:57.998Z</time></trkpt><trkpt lat="44.9449799304287" lon="9.67738189767101"><ele>128.33333333333331</ele><time>2026-04-30T07:09:58.998Z</time></trkpt><trkpt lat="44.94481513966174" lon="9.677311152831901"><ele>128.66666666666666</ele><time>2026-04-30T07:09:59.998Z</time></trkpt><trkpt lat="44.94466625085377" lon="9.67725244846396"><ele>129.0</ele><time>2026-04-30T07:10:00.998Z</time></trkpt><trkpt lat="44.944525905901784" lon="9.67720034924973"><ele>129.0</ele><time>2026-04-30T07:10:01.998Z</time></trkpt><trkpt lat="44.9443782100724" lon="9.677146995702538"><ele>129.0</ele><time>2026-04-30T07:10:02.998Z</time></trkpt><trkpt lat="44.94422384708208" lon="9.677093053317355"><ele>129.0</ele><time>2026-04-30T07:10:03.998Z</time></trkpt><trkpt lat="44.94405828191455" lon="9.677041873812795"><ele>129.33333333333334</ele><time>2026-04-30T07:10:04.998Z</time></trkpt><trkpt lat="44.94390352829955" lon="9.676998286063636"><ele>129.66666666666669</ele><time>2026-04-30T07:10:05.998Z</time></trkpt><trkpt lat="44.94373651777649" lon="9.676952372036823"><ele>130.0</ele><time>2026-04-30T07:10:06.998Z</time></trkpt><trkpt lat="44.94352528379059" lon="9.676895163908894"><ele>130.66666666666669</ele><time>2026-04-30T07:10:07.998Z</time></trkpt><trkpt lat="44.94334574071281" lon="9.676846538443156"><ele>131.33333333333334</ele><time>2026-04-30T07:10:08.998Z</time></trkpt><trkpt lat="44.943162436430335" lon="9.676796893072442"><ele>132.0</ele><time>2026-04-30T07:10:09.998Z</time></trkpt><trkpt lat="44.94298357295299" lon="9.676750964931003"><ele>132.0</ele><time>2026-04-30T07:10:10.998Z</time></trkpt><trkpt lat="44.9427952361373" lon="9.676702505903041"><ele>132.0</ele><time>2026-04-30T07:10:11.998Z</time></trkpt><trkpt lat="44.94263091819599" lon="9.676659304410027"><ele>132.0</ele><time>2026-04-30T07:10:12.998Z</time></trkpt><trkpt lat="44.94246762137069" lon="9.67661650185572"><ele>132.33333333333334</ele><time>2026-04-30T07:10:13.998Z</time></trkpt><trkpt lat="44.942299214571285" lon="9.676572362001755"><ele>132.66666666666669</ele><time>2026-04-30T07:10:14.998Z</time></trkpt><trkpt lat="44.94213161723579" lon="9.67652727885681"><ele>133.0</ele><time>2026-04-30T07:10:15.998Z</time></trkpt><trkpt lat="44.94197804302711" lon="9.676486037089635"><ele>133.0</ele><time>2026-04-30T07:10:16.998Z</time></trkpt><trkpt lat="44.94175318643123" lon="9.676423114287175"><ele>133.0</ele><time>2026-04-30T07:10:17.998Z</time></trkpt><trkpt lat="44.941596987368214" lon="9.676365783801"><ele>133.0</ele><time>2026-04-30T07:10:18.998Z</time></trkpt><trkpt lat="44.94145288249376" lon="9.676296511344098"><ele>133.33333333333334</ele><time>2026-04-30T07:10:19.998Z</time></trkpt><trkpt lat="44.94130641523633" lon="9.676222542914749"><ele>133.66666666666666</ele><time>2026-04-30T07:10:20.998Z</time></trkpt><trkpt lat="44.94117025375655" lon="9.6761479806507"><ele>134.0</ele><time>2026-04-30T07:10:21.998Z</time></trkpt><trkpt lat="44.941023539332576" lon="9.676067639553676"><ele>134.66666666666666</ele><time>2026-04-30T07:10:22.998Z</time></trkpt><trkpt lat="44.940873291464236" lon="9.675985363620978"><ele>135.33333333333334</ele><time>2026-04-30T07:10:23.998Z</time></trkpt><trkpt lat="44.94070883366457" lon="9.67589552187228"><ele>136.0</ele><time>2026-04-30T07:10:24.998Z</time></trkpt><trkpt lat="44.940531069382686" lon="9.675798638433788"><ele>136.0</ele><time>2026-04-30T07:10:25.998Z</time></trkpt><trkpt lat="44.94035503401252" lon="9.675702697347159"><ele>136.0</ele><time>2026-04-30T07:10:26.998Z</time></trkpt><trkpt lat="44.94020221176493" lon="9.675619407610741"><ele>136.0</ele><time>2026-04-30T07:10:27.998Z</time></trkpt><trkpt lat="44.94002131424066" lon="9.675520816540592"><ele>135.66666666666669</ele><time>2026-04-30T07:10:28.998Z</time></trkpt><trkpt lat="44.93984281776067" lon="9.675423534124285"><ele>135.33333333333334</ele><time>2026-04-30T07:10:29.998Z</time></trkpt><trkpt lat="44.93966116903722" lon="9.67532400666661"><ele>135.0</ele><time>2026-04-30T07:10:30.998Z</time></trkpt><trkpt lat="44.93949570628693" lon="9.675233152866756"><ele>134.66666666666666</ele><time>2026-04-30T07:10:31.998Z</time></trkpt><trkpt lat="44.93931340972756" lon="9.675133055848328"><ele>134.33333333333331</ele><time>2026-04-30T07:10:32.998Z</time></trkpt><trkpt lat="44.93911192780715" lon="9.675022424364798"><ele>134.0</ele><time>2026-04-30T07:10:33.998Z</time></trkpt><trkpt lat="44.93892685542997" lon="9.674920803256535"><ele>135.33333333333331</ele><time>2026-04-30T07:10:34.998Z</time></trkpt><trkpt lat="44.93874132139368" lon="9.674818684668255"><ele>136.66666666666666</ele><time>2026-04-30T07:10:35.998Z</time></trkpt><trkpt lat="44.93860268285693" lon="9.674741994665652"><ele>138.0</ele><time>2026-04-30T07:10:36.998Z</time></trkpt><trkpt lat="44.9384451767236" lon="9.674654867718807"><ele>137.66666666666666</ele><time>2026-04-30T07:10:37.998Z</time></trkpt><trkpt lat="44.938262387874026" lon="9.674554305099283"><ele>137.33333333333331</ele><time>2026-04-30T07:10:38.998Z</time></trkpt><trkpt lat="44.93807765440549" lon="9.674453658148426"><ele>137.0</ele><time>2026-04-30T07:10:39.998Z</time></trkpt><trkpt lat="44.93790020242057" lon="9.674356978219894"><ele>136.66666666666666</ele><time>2026-04-30T07:10:40.998Z</time></trkpt><trkpt lat="44.93770100652706" lon="9.674248452006772"><ele>136.33333333333334</ele><time>2026-04-30T07:10:41.998Z</time></trkpt><trkpt lat="44.9375135699676" lon="9.67414633395666"><ele>136.0</ele><time>2026-04-30T07:10:42.998Z</time></trkpt><trkpt lat="44.937331431272234" lon="9.674046107777505"><ele>137.0</ele><time>2026-04-30T07:10:43.998Z</time></trkpt><trkpt lat="44.93711113516036" lon="9.674043932748056"><ele>138.0</ele><time>2026-04-30T07:10:44.998Z</time></trkpt><trkpt lat="44.93693475061134" lon="9.673981879973555"><ele>139.0</ele><time>2026-04-30T07:10:45.998Z</time></trkpt><trkpt lat="44.93677893450978" lon="9.673865813387721"><ele>139.0</ele><time>2026-04-30T07:10:46.998Z</time></trkpt><trkpt lat="44.93662524437593" lon="9.673786693943642"><ele>139.0</ele><time>2026-04-30T07:10:47.998Z</time></trkpt><trkpt lat="44.93647992282342" lon="9.673711520934916"><ele>139.0</ele><time>2026-04-30T07:10:48.998Z</time></trkpt><trkpt lat="44.93638455314755" lon="9.673625433055744"><ele>139.0</ele><time>2026-04-30T07:10:49.998Z</time></trkpt><trkpt lat="44.93628066741645" lon="9.673509688977449"><ele>139.0</ele><time>2026-04-30T07:10:50.998Z</time></trkpt><trkpt lat="44.936231353483585" lon="9.673319680749879"><ele>139.0</ele><time>2026-04-30T07:10:51.998Z</time></trkpt><trkpt lat="44.93613816116363" lon="9.673204009351796"><ele>139.0</ele><time>2026-04-30T07:10:52.998Z</time></trkpt><trkpt lat="44.936058107001884" lon="9.673089913440501"><ele>139.0</ele><time>2026-04-30T07:10:53.998Z</time></trkpt><trkpt lat="44.93598026316459" lon="9.672961459532"><ele>139.0</ele><time>2026-04-30T07:10:54.998Z</time></trkpt><trkpt lat="44.93591082831572" lon="9.672835535901607"><ele>139.0</ele><time>2026-04-30T07:10:55.998Z</time></trkpt><trkpt lat="44.935836243738045" lon="9.672685045554632"><ele>139.0</ele><time>2026-04-30T07:10:57Z</time></trkpt><trkpt lat="44.93576195964168" lon="9.672528987504753"><ele>139.0</ele><time>2026-04-30T07:10:58Z</time></trkpt><trkpt lat="44.93569567221474" lon="9.672381975623948"><ele>139.6</ele><time>2026-04-30T07:10:59Z</time></trkpt><trkpt lat="44.93563465226096" lon="9.672244772615716"><ele>140.2</ele><time>2026-04-30T07:11:00Z</time></trkpt><trkpt lat="44.93555954666527" lon="9.672110647170348"><ele>140.79999999999998</ele><time>2026-04-30T07:11:01Z</time></trkpt><trkpt lat="44.935506803239555" lon="9.671970447411057"><ele>141.4</ele><time>2026-04-30T07:11:02Z</time></trkpt><trkpt lat="44.93545883370432" lon="9.671854945066974"><ele>142.0</ele><time>2026-04-30T07:11:03Z</time></trkpt><trkpt lat="44.93541794726995" lon="9.67176593266561"><ele>142.16666666666669</ele><time>2026-04-30T07:11:04Z</time></trkpt><trkpt lat="44.93542792419091" lon="9.67164707641631"><ele>142.33333333333334</ele><time>2026-04-30T07:11:06Z</time></trkpt><trkpt lat="44.935391596212774" lon="9.671551037897991"><ele>142.5</ele><time>2026-04-30T07:11:07Z</time></trkpt><trkpt lat="44.935394821415805" lon="9.671454425243049"><ele>142.66666666666666</ele><time>2026-04-30T07:11:11Z</time></trkpt><trkpt lat="44.93531466458876" lon="9.671470595524557"><ele>142.83333333333331</ele><time>2026-04-30T07:11:21Z</time></trkpt><trkpt lat="44.935344283096505" lon="9.671380599341457"><ele>143.0</ele><time>2026-04-30T07:15:47.999Z</time></trkpt><trkpt lat="44.93523123992878" lon="9.671284385240332"><ele>143.0</ele><time>2026-04-30T07:16:01.999Z</time></trkpt><trkpt lat="44.93516477923866" lon="9.671218855276276"><ele>143.0</ele><time>2026-04-30T07:16:03.999Z</time></trkpt><trkpt lat="44.935102566479856" lon="9.671054168253027"><ele>143.0</ele><time>2026-04-30T07:16:05.999Z</time></trkpt><trkpt lat="44.935069696201886" lon="9.670966623744041"><ele>143.0</ele><time>2026-04-30T07:16:06.999Z</time></trkpt><trkpt lat="44.935027326470134" lon="9.670879704751458"><ele>143.0</ele><time>2026-04-30T07:16:07.999Z</time></trkpt><trkpt lat="44.93498213995486" lon="9.67078212692866"><ele>143.0</ele><time>2026-04-30T07:16:08.999Z</time></trkpt><trkpt lat="44.934932686095785" lon="9.67068368297999"><ele>142.83333333333331</ele><time>2026-04-30T07:16:09.999Z</time></trkpt><trkpt lat="44.93488406871266" lon="9.670586048938672"><ele>142.66666666666666</ele><time>2026-04-30T07:16:10.999Z</time></trkpt><trkpt lat="44.93483629200345" lon="9.670489236785853"><ele>142.5</ele><time>2026-04-30T07:16:11.999Z</time></trkpt><trkpt lat="44.93478866453531" lon="9.670398580128182"><ele>142.33333333333334</ele><time>2026-04-30T07:16:12.999Z</time></trkpt><trkpt lat="44.93473868827779" lon="9.670328354889191"><ele>142.16666666666669</ele><time>2026-04-30T07:16:13.999Z</time></trkpt><trkpt lat="44.93465148675652" lon="9.670232561475695"><ele>142.0</ele><time>2026-04-30T07:16:15.999Z</time></trkpt><trkpt lat="44.934595895437226" lon="9.670158843729842"><ele>141.85714285714286</ele><time>2026-04-30T07:16:17.999Z</time></trkpt><trkpt lat="44.93453563294069" lon="9.67010358370926"><ele>141.7142857142857</ele><time>2026-04-30T07:16:19.999Z</time></trkpt><trkpt lat="44.93448134721255" lon="9.670048485841143"><ele>141.57142857142856</ele><time>2026-04-30T07:16:22.999Z</time></trkpt><trkpt lat="44.93442230272151" lon="9.670004241265199"><ele>141.42857142857142</ele><time>2026-04-30T07:16:25.999Z</time></trkpt><trkpt lat="44.93435448648254" lon="9.66997182749134"><ele>141.28571428571428</ele><time>2026-04-30T07:16:29.999Z</time></trkpt><trkpt lat="44.93431054075064" lon="9.66988936309772"><ele>141.14285714285714</ele><time>2026-04-30T07:16:33.999Z</time></trkpt><trkpt lat="44.934238941222134" lon="9.669863695554014"><ele>141.0</ele><time>2026-04-30T07:16:37.999Z</time></trkpt><trkpt lat="44.9341673509796" lon="9.669821215447781"><ele>141.33333333333334</ele><time>2026-04-30T07:16:42.999Z</time></trkpt><trkpt lat="44.934053273624905" lon="9.669775383943444"><ele>141.66666666666666</ele><time>2026-04-30T07:19:52Z</time></trkpt><trkpt lat="44.93398673265273" lon="9.669744299036962"><ele>142.0</ele><time>2026-04-30T07:19:54Z</time></trkpt><trkpt lat="44.93388740080958" lon="9.669705527257412"><ele>142.33333333333331</ele><time>2026-04-30T07:19:56Z</time></trkpt><trkpt lat="44.93380606237723" lon="9.669680450857847"><ele>142.66666666666666</ele><time>2026-04-30T07:19:58Z</time></trkpt><trkpt lat="44.93374100998157" lon="9.669666051867196"><ele>143.0</ele><time>2026-04-30T07:20:00Z</time></trkpt><trkpt lat="44.933663072021155" lon="9.669652237315903"><ele>143.0</ele><time>2026-04-30T07:20:03Z</time></trkpt><trkpt lat="44.93358303098204" lon="9.669642603247395"><ele>143.0</ele><time>2026-04-30T07:20:06Z</time></trkpt><trkpt lat="44.93347630132024" lon="9.669634688970664"><ele>143.0</ele><time>2026-04-30T07:20:08Z</time></trkpt><trkpt lat="44.93340612435838" lon="9.669637481412424"><ele>143.0</ele><time>2026-04-30T07:20:09Z</time></trkpt><trkpt lat="44.9333280746263" lon="9.669644600665318"><ele>143.0</ele><time>2026-04-30T07:20:10Z</time></trkpt><trkpt lat="44.933245102009984" lon="9.66965616098195"><ele>143.0</ele><time>2026-04-30T07:20:11Z</time></trkpt><trkpt lat="44.933164822787326" lon="9.66967317110594"><ele>143.0</ele><time>2026-04-30T07:20:12Z</time></trkpt><trkpt lat="44.93308462789257" lon="9.66969494012427"><ele>143.0</ele><time>2026-04-30T07:20:13Z</time></trkpt><trkpt lat="44.93301219822415" lon="9.669714608431223"><ele>143.0</ele><time>2026-04-30T07:20:14Z</time></trkpt><trkpt lat="44.93289941374316" lon="9.669745235018326"><ele>143.0</ele><time>2026-04-30T07:20:16Z</time></trkpt><trkpt lat="44.93282282477469" lon="9.669766032851424"><ele>143.0</ele><time>2026-04-30T07:20:18Z</time></trkpt><trkpt lat="44.932750155212865" lon="9.669785766287092"><ele>143.0</ele><time>2026-04-30T07:20:20Z</time></trkpt><trkpt lat="44.93267817043633" lon="9.669805313773878"><ele>143.0</ele><time>2026-04-30T07:20:22Z</time></trkpt><trkpt lat="44.93260632192844" lon="9.669824824640946"><ele>143.0</ele><time>2026-04-30T07:20:24Z</time></trkpt><trkpt lat="44.93253343656075" lon="9.669845075961598"><ele>143.0</ele><time>2026-04-30T07:20:26Z</time></trkpt><trkpt lat="44.93244705637412" lon="9.669868959940732"><ele>143.0</ele><time>2026-04-30T07:20:28Z</time></trkpt><trkpt lat="44.93234372269462" lon="9.669897531528147"><ele>143.0</ele><time>2026-04-30T07:20:30Z</time></trkpt><trkpt lat="44.932223050845245" lon="9.669930897084306"><ele>142.83333333333331</ele><time>2026-04-30T07:20:32Z</time></trkpt><trkpt lat="44.93215926025949" lon="9.669948535083892"><ele>142.66666666666666</ele><time>2026-04-30T07:20:34Z</time></trkpt><trkpt lat="44.93208998693604" lon="9.66999070139166"><ele>142.5</ele><time>2026-04-30T07:20:41Z</time></trkpt><trkpt lat="44.931979996902776" lon="9.6699981010656"><ele>142.33333333333334</ele><time>2026-04-30T07:20:43Z</time></trkpt><trkpt lat="44.93191064102987" lon="9.67001727871747"><ele>142.16666666666669</ele><time>2026-04-30T07:20:44Z</time></trkpt><trkpt lat="44.93183615096648" lon="9.670037175646026"><ele>142.0</ele><time>2026-04-30T07:20:45Z</time></trkpt><trkpt lat="44.93175665733703" lon="9.670058694108729"><ele>142.0</ele><time>2026-04-30T07:20:46Z</time></trkpt><trkpt lat="44.93167276581783" lon="9.670081448749157"><ele>142.0</ele><time>2026-04-30T07:20:47Z</time></trkpt><trkpt lat="44.93157691855845" lon="9.670107783184896"><ele>142.0</ele><time>2026-04-30T07:20:48Z</time></trkpt><trkpt lat="44.93147360272361" lon="9.670136169590684"><ele>142.0</ele><time>2026-04-30T07:20:49Z</time></trkpt><trkpt lat="44.93136896281141" lon="9.670164919800586"><ele>142.0</ele><time>2026-04-30T07:20:50Z</time></trkpt><trkpt lat="44.931257443163645" lon="9.670195560220352"><ele>142.0</ele><time>2026-04-30T07:20:51Z</time></trkpt><trkpt lat="44.931140758428114" lon="9.670227619853888"><ele>142.0</ele><time>2026-04-30T07:20:52Z</time></trkpt><trkpt lat="44.9310214377367" lon="9.670260403607678"><ele>142.0</ele><time>2026-04-30T07:20:53Z</time></trkpt><trkpt lat="44.93089597794177" lon="9.670315272932207"><ele>142.0</ele><time>2026-04-30T07:20:54Z</time></trkpt><trkpt lat="44.9307543689491" lon="9.670333781768308"><ele>142.66666666666669</ele><time>2026-04-30T07:20:55Z</time></trkpt><trkpt lat="44.93060819900776" lon="9.670373942522335"><ele>143.33333333333334</ele><time>2026-04-30T07:20:56Z</time></trkpt><trkpt lat="44.93045756723416" lon="9.670436118758518"><ele>144.0</ele><time>2026-04-30T07:20:57Z</time></trkpt><trkpt lat="44.93029826481426" lon="9.670479460292407"><ele>144.0</ele><time>2026-04-30T07:20:58Z</time></trkpt><trkpt lat="44.930125539073394" lon="9.670505101658197"><ele>144.0</ele><time>2026-04-30T07:20:59Z</time></trkpt><trkpt lat="44.92996056620779" lon="9.670549852242067"><ele>144.0</ele><time>2026-04-30T07:21:00Z</time></trkpt><trkpt lat="44.92979269390621" lon="9.670595585335704"><ele>144.0</ele><time>2026-04-30T07:21:01Z</time></trkpt><trkpt lat="44.929628357877476" lon="9.670640730442054"><ele>144.0</ele><time>2026-04-30T07:21:02Z</time></trkpt><trkpt lat="44.92945743185195" lon="9.670687685921928"><ele>144.0</ele><time>2026-04-30T07:21:03Z</time></trkpt><trkpt lat="44.929277533459036" lon="9.670737106168623"><ele>145.0</ele><time>2026-04-30T07:21:04Z</time></trkpt><trkpt lat="44.92911489487767" lon="9.670767630412913"><ele>146.0</ele><time>2026-04-30T07:21:05Z</time></trkpt><trkpt lat="44.928956244698036" lon="9.670776732253984"><ele>147.0</ele><time>2026-04-30T07:21:06Z</time></trkpt><trkpt lat="44.92877484670931" lon="9.67076894483932"><ele>147.0</ele><time>2026-04-30T07:21:07Z</time></trkpt><trkpt lat="44.9286233980964" lon="9.670759769580727"><ele>147.0</ele><time>2026-04-30T07:21:08Z</time></trkpt><trkpt lat="44.92845843153436" lon="9.67074977535608"><ele>147.0</ele><time>2026-04-30T07:21:09Z</time></trkpt><trkpt lat="44.92829104151163" lon="9.670739634275991"><ele>147.33333333333334</ele><time>2026-04-30T07:21:10Z</time></trkpt><trkpt lat="44.928125489216356" lon="9.670729573737448"><ele>147.66666666666669</ele><time>2026-04-30T07:21:11Z</time></trkpt><trkpt lat="44.927958993561404" lon="9.670717989615403"><ele>148.0</ele><time>2026-04-30T07:21:12Z</time></trkpt><trkpt lat="44.92779439051349" lon="9.670706010865329"><ele>148.0</ele><time>2026-04-30T07:21:13Z</time></trkpt><trkpt lat="44.92762765872469" lon="9.670693791628517"><ele>148.0</ele><time>2026-04-30T07:21:14Z</time></trkpt><trkpt lat="44.92745460049917" lon="9.670681757481411"><ele>148.0</ele><time>2026-04-30T07:21:15Z</time></trkpt><trkpt lat="44.92726465224666" lon="9.670654965112742"><ele>147.66666666666669</ele><time>2026-04-30T07:21:16Z</time></trkpt><trkpt lat="44.927090384604426" lon="9.670621892785299"><ele>147.33333333333334</ele><time>2026-04-30T07:21:17Z</time></trkpt><trkpt lat="44.926923091788154" lon="9.67062211705122"><ele>147.0</ele><time>2026-04-30T07:21:18Z</time></trkpt><trkpt lat="44.92675899056435" lon="9.670630797470208"><ele>147.33333333333334</ele><time>2026-04-30T07:21:19Z</time></trkpt><trkpt lat="44.926609057771664" lon="9.670658325272314"><ele>147.66666666666669</ele><time>2026-04-30T07:21:20Z</time></trkpt><trkpt lat="44.92644453742078" lon="9.67067466335928"><ele>148.0</ele><time>2026-04-30T07:21:21Z</time></trkpt><trkpt lat="44.92629039733987" lon="9.67068961771151"><ele>148.0</ele><time>2026-04-30T07:21:22Z</time></trkpt><trkpt lat="44.9261295355462" lon="9.670705224191426"><ele>148.0</ele><time>2026-04-30T07:21:23Z</time></trkpt><trkpt lat="44.92597210992218" lon="9.670720497300085"><ele>148.0</ele><time>2026-04-30T07:21:24Z</time></trkpt><trkpt lat="44.92579724570053" lon="9.67073842079106"><ele>148.66666666666669</ele><time>2026-04-30T07:21:25Z</time></trkpt><trkpt lat="44.92564809081287" lon="9.670753790334556"><ele>149.33333333333334</ele><time>2026-04-30T07:21:26Z</time></trkpt><trkpt lat="44.92547154249978" lon="9.670768554369348"><ele>150.0</ele><time>2026-04-30T07:21:27Z</time></trkpt><trkpt lat="44.92532120329668" lon="9.670765664405373"><ele>150.0</ele><time>2026-04-30T07:21:28Z</time></trkpt><trkpt lat="44.925158392191385" lon="9.670756183161895"><ele>150.0</ele><time>2026-04-30T07:21:29Z</time></trkpt><trkpt lat="44.92498633572438" lon="9.670729860513209"><ele>150.0</ele><time>2026-04-30T07:21:30Z</time></trkpt><trkpt lat="44.924820437403994" lon="9.67069725631253"><ele>150.0</ele><time>2026-04-30T07:21:31Z</time></trkpt><trkpt lat="44.924658823689136" lon="9.670663447517617"><ele>150.0</ele><time>2026-04-30T07:21:32Z</time></trkpt><trkpt lat="44.924484043504194" lon="9.670620058068279"><ele>150.0</ele><time>2026-04-30T07:21:33Z</time></trkpt><trkpt lat="44.92430892812422" lon="9.67056819661723"><ele>150.0</ele><time>2026-04-30T07:21:34Z</time></trkpt><trkpt lat="44.92414769293488" lon="9.670510465858444"><ele>150.0</ele><time>2026-04-30T07:21:35Z</time></trkpt><trkpt lat="44.92399552819097" lon="9.670445539572183"><ele>150.0</ele><time>2026-04-30T07:21:36Z</time></trkpt><trkpt lat="44.923822008012706" lon="9.670362674424977"><ele>150.0</ele><time>2026-04-30T07:21:37Z</time></trkpt><trkpt lat="44.92366493941207" lon="9.670280091940397"><ele>150.0</ele><time>2026-04-30T07:21:38Z</time></trkpt><trkpt lat="44.92352162223053" lon="9.67020018920355"><ele>150.0</ele><time>2026-04-30T07:21:39Z</time></trkpt><trkpt lat="44.9233859761267" lon="9.670126720419855"><ele>150.66666666666666</ele><time>2026-04-30T07:21:40Z</time></trkpt><trkpt lat="44.923221885236536" lon="9.670049077402368"><ele>151.33333333333331</ele><time>2026-04-30T07:21:41Z</time></trkpt><trkpt lat="44.92305644718587" lon="9.6700166066523"><ele>152.0</ele><time>2026-04-30T07:21:42Z</time></trkpt><trkpt lat="44.92289922418584" lon="9.6700190855893"><ele>152.0</ele><time>2026-04-30T07:21:43Z</time></trkpt><trkpt lat="44.92273512822054" lon="9.670043003470049"><ele>152.0</ele><time>2026-04-30T07:21:44Z</time></trkpt><trkpt lat="44.92257014722646" lon="9.670088419788058"><ele>152.0</ele><time>2026-04-30T07:21:45Z</time></trkpt><trkpt lat="44.92240612004069" lon="9.67008659468938"><ele>152.33333333333331</ele><time>2026-04-30T07:21:46Z</time></trkpt><trkpt lat="44.922217270925664" lon="9.670139858000987"><ele>152.66666666666666</ele><time>2026-04-30T07:21:47Z</time></trkpt><trkpt lat="44.92206930688302" lon="9.670166911743229"><ele>153.0</ele><time>2026-04-30T07:21:48Z</time></trkpt><trkpt lat="44.92188883428789" lon="9.670199907043541"><ele>153.0</ele><time>2026-04-30T07:21:49Z</time></trkpt><trkpt lat="44.921721340386874" lon="9.670230529476736"><ele>153.0</ele><time>2026-04-30T07:21:50Z</time></trkpt><trkpt lat="44.9215618917212" lon="9.670259681019123"><ele>153.0</ele><time>2026-04-30T07:21:51Z</time></trkpt><trkpt lat="44.92139093779657" lon="9.670290936029906"><ele>153.0</ele><time>2026-04-30T07:21:52Z</time></trkpt><trkpt lat="44.92122149602411" lon="9.67032191458009"><ele>153.0</ele><time>2026-04-30T07:21:53Z</time></trkpt><trkpt lat="44.92106505434653" lon="9.670350516362966"><ele>153.0</ele><time>2026-04-30T07:21:54Z</time></trkpt><trkpt lat="44.92092048768717" lon="9.670376947066812"><ele>153.0</ele><time>2026-04-30T07:21:55Z</time></trkpt><trkpt lat="44.92076979708303" lon="9.67040449740508"><ele>153.0</ele><time>2026-04-30T07:21:56Z</time></trkpt><trkpt lat="44.920627763845076" lon="9.670422063951245"><ele>153.0</ele><time>2026-04-30T07:21:57Z</time></trkpt><trkpt lat="44.92051900496169" lon="9.670423301138227"><ele>153.0</ele><time>2026-04-30T07:21:57.999Z</time></trkpt><trkpt lat="44.92039851466486" lon="9.670411264187845"><ele>153.0</ele><time>2026-04-30T07:21:58.999Z</time></trkpt><trkpt lat="44.92026282871843" lon="9.670381283814176"><ele>153.0</ele><time>2026-04-30T07:21:59.999Z</time></trkpt><trkpt lat="44.920111406967706" lon="9.67033176082291"><ele>153.0</ele><time>2026-04-30T07:22:00.999Z</time></trkpt><trkpt lat="44.91997233605242" lon="9.670277211927198"><ele>153.0</ele><time>2026-04-30T07:22:01.999Z</time></trkpt><trkpt lat="44.919856972310974" lon="9.670229734821419"><ele>153.66666666666666</ele><time>2026-04-30T07:22:02.999Z</time></trkpt><trkpt lat="44.91974486684269" lon="9.670197745514493"><ele>154.33333333333334</ele><time>2026-04-30T07:22:03.999Z</time></trkpt><trkpt lat="44.91966673349571" lon="9.670149382639758"><ele>155.0</ele><time>2026-04-30T07:22:04.999Z</time></trkpt><trkpt lat="44.919606289422454" lon="9.670110874371648"><ele>155.66666666666669</ele><time>2026-04-30T07:22:05.999Z</time></trkpt><trkpt lat="44.919519382258166" lon="9.670109662922703"><ele>156.33333333333334</ele><time>2026-04-30T07:23:02.999Z</time></trkpt><trkpt lat="44.91943411846784" lon="9.670090994867254"><ele>157.0</ele><time>2026-04-30T07:23:04.999Z</time></trkpt><trkpt lat="44.91935840759301" lon="9.670078926454126"><ele>157.8</ele><time>2026-04-30T07:23:05.999Z</time></trkpt><trkpt lat="44.91921420440941" lon="9.67006367350172"><ele>158.6</ele><time>2026-04-30T07:23:07.999Z</time></trkpt><trkpt lat="44.919146420180425" lon="9.670058499190475"><ele>159.4</ele><time>2026-04-30T07:23:08.999Z</time></trkpt><trkpt lat="44.91906613347916" lon="9.670053596431146"><ele>160.20000000000002</ele><time>2026-04-30T07:23:09.999Z</time></trkpt><trkpt lat="44.91896724796096" lon="9.670048289154753"><ele>161.0</ele><time>2026-04-30T07:23:10.999Z</time></trkpt><trkpt lat="44.9188587993939" lon="9.670060126432556"><ele>161.0</ele><time>2026-04-30T07:23:11.999Z</time></trkpt><trkpt lat="44.918721584793126" lon="9.670044595598359"><ele>161.0</ele><time>2026-04-30T07:23:12.999Z</time></trkpt><trkpt lat="44.91859119769356" lon="9.67003852192582"><ele>161.0</ele><time>2026-04-30T07:23:13.999Z</time></trkpt><trkpt lat="44.9184536856128" lon="9.670016717415626"><ele>161.0</ele><time>2026-04-30T07:23:14.999Z</time></trkpt><trkpt lat="44.91832210969894" lon="9.669994221617658"><ele>161.0</ele><time>2026-04-30T07:23:15.999Z</time></trkpt><trkpt lat="44.91817498815917" lon="9.66996492025599"><ele>161.0</ele><time>2026-04-30T07:23:16.999Z</time></trkpt><trkpt lat="44.91803756381144" lon="9.669905449343611"><ele>161.0</ele><time>2026-04-30T07:23:17.999Z</time></trkpt><trkpt lat="44.91789431593672" lon="9.669831156036452"><ele>161.0</ele><time>2026-04-30T07:23:18.999Z</time></trkpt><trkpt lat="44.91774305906062" lon="9.669762307782156"><ele>161.0</ele><time>2026-04-30T07:23:19.999Z</time></trkpt><trkpt lat="44.91757736300639" lon="9.669689851655352"><ele>161.0</ele><time>2026-04-30T07:23:20.999Z</time></trkpt><trkpt lat="44.91747022575191" lon="9.669602069376637"><ele>161.0</ele><time>2026-04-30T07:23:21.999Z</time></trkpt><trkpt lat="44.91732431407879" lon="9.669536311263588"><ele>161.0</ele><time>2026-04-30T07:23:22.999Z</time></trkpt><trkpt lat="44.917164544850955" lon="9.669486271391133"><ele>161.0</ele><time>2026-04-30T07:23:23.999Z</time></trkpt><trkpt lat="44.91700540250693" lon="9.669441685302994"><ele>161.0</ele><time>2026-04-30T07:23:24.999Z</time></trkpt><trkpt lat="44.91685037124195" lon="9.669401776175356"><ele>162.0</ele><time>2026-04-30T07:23:25.999Z</time></trkpt><trkpt lat="44.91669304247604" lon="9.669368910568052"><ele>163.0</ele><time>2026-04-30T07:23:26.999Z</time></trkpt><trkpt lat="44.91653574576258" lon="9.66933925141147"><ele>164.0</ele><time>2026-04-30T07:23:27.999Z</time></trkpt><trkpt lat="44.91638303623679" lon="9.66931258108982"><ele>164.0</ele><time>2026-04-30T07:23:28.999Z</time></trkpt><trkpt lat="44.916209012485545" lon="9.669287024842825"><ele>164.0</ele><time>2026-04-30T07:23:29.999Z</time></trkpt><trkpt lat="44.916070956930376" lon="9.66926479651122"><ele>164.0</ele><time>2026-04-30T07:23:30.999Z</time></trkpt><trkpt lat="44.91595494407085" lon="9.669243138882065"><ele>164.0</ele><time>2026-04-30T07:23:31.999Z</time></trkpt><trkpt lat="44.91583192710116" lon="9.669218436018129"><ele>164.0</ele><time>2026-04-30T07:23:32.999Z</time></trkpt><trkpt lat="44.91571232398378" lon="9.669194418676799"><ele>164.0</ele><time>2026-04-30T07:23:33.999Z</time></trkpt><trkpt lat="44.91560770817676" lon="9.669173410919528"><ele>164.0</ele><time>2026-04-30T07:23:34.999Z</time></trkpt><trkpt lat="44.915506462149786" lon="9.66915307984771"><ele>164.0</ele><time>2026-04-30T07:23:35.999Z</time></trkpt><trkpt lat="44.915384734384986" lon="9.66912867271794"><ele>164.0</ele><time>2026-04-30T07:23:36.999Z</time></trkpt><trkpt lat="44.91526607399425" lon="9.669105182585518"><ele>164.0</ele><time>2026-04-30T07:23:37.999Z</time></trkpt><trkpt lat="44.915148125876655" lon="9.6690838691545"><ele>164.0</ele><time>2026-04-30T07:23:38.999Z</time></trkpt><trkpt lat="44.91506791819383" lon="9.669069113177605"><ele>164.0</ele><time>2026-04-30T07:23:39.999Z</time></trkpt><trkpt lat="44.9149666388398" lon="9.66905047124492"><ele>164.0</ele><time>2026-04-30T07:23:40.999Z</time></trkpt><trkpt lat="44.914883992789015" lon="9.66903525904233"><ele>164.39999999999998</ele><time>2026-04-30T07:23:41.999Z</time></trkpt><trkpt lat="44.91478313554072" lon="9.66901669482913"><ele>164.8</ele><time>2026-04-30T07:23:42.999Z</time></trkpt><trkpt lat="44.91468585852941" lon="9.668997450905248"><ele>165.2</ele><time>2026-04-30T07:23:43.999Z</time></trkpt><trkpt lat="44.914584041715386" lon="9.668976293160439"><ele>165.60000000000002</ele><time>2026-04-30T07:23:44.999Z</time></trkpt><trkpt lat="44.91447207934943" lon="9.668953027137947"><ele>166.0</ele><time>2026-04-30T07:23:45.999Z</time></trkpt><trkpt lat="44.91438386945246" lon="9.66893666253558"><ele>166.0</ele><time>2026-04-30T07:23:46.999Z</time></trkpt><trkpt lat="44.91429647730243" lon="9.66892395663294"><ele>166.0</ele><time>2026-04-30T07:23:47.999Z</time></trkpt><trkpt lat="44.914200973901785" lon="9.66891385040036"><ele>166.0</ele><time>2026-04-30T07:23:48.999Z</time></trkpt><trkpt lat="44.914104859852415" lon="9.6689069944091"><ele>166.0</ele><time>2026-04-30T07:23:49.999Z</time></trkpt><trkpt lat="44.914005191059644" lon="9.668906406182861"><ele>166.0</ele><time>2026-04-30T07:23:50.999Z</time></trkpt><trkpt lat="44.9138827737484" lon="9.668909792513395"><ele>165.8</ele><time>2026-04-30T07:23:51.999Z</time></trkpt><trkpt lat="44.91378629249139" lon="9.668914971999932"><ele>165.60000000000002</ele><time>2026-04-30T07:23:52.999Z</time></trkpt><trkpt lat="44.913671646788956" lon="9.668924135602389"><ele>165.4</ele><time>2026-04-30T07:23:53.999Z</time></trkpt><trkpt lat="44.91356593542418" lon="9.668932585295792"><ele>165.2</ele><time>2026-04-30T07:23:54.999Z</time></trkpt><trkpt lat="44.91344313234293" lon="9.668940857380848"><ele>165.0</ele><time>2026-04-30T07:23:55.999Z</time></trkpt><trkpt lat="44.91334541411003" lon="9.668944066428798"><ele>165.4</ele><time>2026-04-30T07:23:56.999Z</time></trkpt><trkpt lat="44.913253408034" lon="9.668944539862528"><ele>165.8</ele><time>2026-04-30T07:23:57.999Z</time></trkpt><trkpt lat="44.91315285613222" lon="9.668929189086798"><ele>166.2</ele><time>2026-04-30T07:23:58.999Z</time></trkpt><trkpt lat="44.913035420615394" lon="9.66889914403755"><ele>166.6</ele><time>2026-04-30T07:23:59.999Z</time></trkpt><trkpt lat="44.91290485795039" lon="9.668856692748777"><ele>167.0</ele><time>2026-04-30T07:24:00.999Z</time></trkpt><trkpt lat="44.912787868955746" lon="9.668812257332844"><ele>167.0</ele><time>2026-04-30T07:24:01.999Z</time></trkpt><trkpt lat="44.91267366488936" lon="9.668764040913311"><ele>167.0</ele><time>2026-04-30T07:24:02.999Z</time></trkpt><trkpt lat="44.91258414620688" lon="9.668723594425668"><ele>167.0</ele><time>2026-04-30T07:24:03.999Z</time></trkpt><trkpt lat="44.91248987906226" lon="9.66868112562819"><ele>167.0</ele><time>2026-04-30T07:24:04.999Z</time></trkpt><trkpt lat="44.912385731421146" lon="9.668633369444045"><ele>167.0</ele><time>2026-04-30T07:24:05.999Z</time></trkpt><trkpt lat="44.912290697554475" lon="9.668589703003127"><ele>167.25</ele><time>2026-04-30T07:24:06.999Z</time></trkpt><trkpt lat="44.91218610294181" lon="9.668541641280918"><ele>167.5</ele><time>2026-04-30T07:24:07.999Z</time></trkpt><trkpt lat="44.912068679886566" lon="9.6684876849455"><ele>167.75</ele><time>2026-04-30T07:24:08.999Z</time></trkpt><trkpt lat="44.91194923780661" lon="9.66843275110573"><ele>168.0</ele><time>2026-04-30T07:24:09.999Z</time></trkpt><trkpt lat="44.91183943135251" lon="9.66838187796228"><ele>168.25</ele><time>2026-04-30T07:24:10.999Z</time></trkpt><trkpt lat="44.91171986258223" lon="9.668325509646769"><ele>168.5</ele><time>2026-04-30T07:24:11.999Z</time></trkpt><trkpt lat="44.91159758863192" lon="9.668267865979168"><ele>168.75</ele><time>2026-04-30T07:24:12.999Z</time></trkpt><trkpt lat="44.91147129549433" lon="9.668231520124275"><ele>169.0</ele><time>2026-04-30T07:24:13.999Z</time></trkpt><trkpt lat="44.911345221181136" lon="9.668167622609332"><ele>169.0</ele><time>2026-04-30T07:24:14.999Z</time></trkpt><trkpt lat="44.91122753224928" lon="9.668092961288252"><ele>169.0</ele><time>2026-04-30T07:24:15.999Z</time></trkpt><trkpt lat="44.91110290099293" lon="9.668033083361562"><ele>169.0</ele><time>2026-04-30T07:24:16.999Z</time></trkpt><trkpt lat="44.910979208471986" lon="9.667978384518062"><ele>169.0</ele><time>2026-04-30T07:24:17.999Z</time></trkpt><trkpt lat="44.910831962679936" lon="9.667932602134307"><ele>169.33333333333334</ele><time>2026-04-30T07:24:18.999Z</time></trkpt><trkpt lat="44.91068823590931" lon="9.667901653717882"><ele>169.66666666666666</ele><time>2026-04-30T07:24:19.999Z</time></trkpt><trkpt lat="44.910517931443316" lon="9.667886958610605"><ele>170.0</ele><time>2026-04-30T07:24:20.999Z</time></trkpt><trkpt lat="44.910340165281234" lon="9.667874239832082"><ele>170.0</ele><time>2026-04-30T07:24:21.999Z</time></trkpt><trkpt lat="44.910161622516256" lon="9.667861303780672"><ele>170.0</ele><time>2026-04-30T07:24:22.999Z</time></trkpt><trkpt lat="44.909976663407775" lon="9.667847117352657"><ele>170.0</ele><time>2026-04-30T07:24:23.999Z</time></trkpt><trkpt lat="44.90983473698452" lon="9.667835531778552"><ele>170.25</ele><time>2026-04-30T07:24:24.999Z</time></trkpt><trkpt lat="44.90966409306597" lon="9.667817460457542"><ele>170.5</ele><time>2026-04-30T07:24:25.999Z</time></trkpt><trkpt lat="44.90953116558714" lon="9.667803596269989"><ele>170.75</ele><time>2026-04-30T07:24:26.999Z</time></trkpt><trkpt lat="44.909443829706646" lon="9.667793080963948"><ele>171.0</ele><time>2026-04-30T07:24:27.999Z</time></trkpt><trkpt lat="44.909336281229734" lon="9.667743733261009"><ele>171.66666666666666</ele><time>2026-04-30T07:24:28.999Z</time></trkpt><trkpt lat="44.90920468882895" lon="9.667663552046559"><ele>172.33333333333331</ele><time>2026-04-30T07:24:29.999Z</time></trkpt><trkpt lat="44.909059094497614" lon="9.667558803778366"><ele>173.0</ele><time>2026-04-30T07:24:30.999Z</time></trkpt><trkpt lat="44.908891592986826" lon="9.667430646449995"><ele>173.0</ele><time>2026-04-30T07:24:31.999Z</time></trkpt><trkpt lat="44.90874788058006" lon="9.667318746744824"><ele>173.0</ele><time>2026-04-30T07:24:32.999Z</time></trkpt><trkpt lat="44.908600295978125" lon="9.667195073556117"><ele>173.0</ele><time>2026-04-30T07:24:33.999Z</time></trkpt><trkpt lat="44.90843802240138" lon="9.667041896768778"><ele>172.33333333333331</ele><time>2026-04-30T07:24:34.999Z</time></trkpt><trkpt lat="44.90832127294005" lon="9.666891629548555"><ele>171.66666666666666</ele><time>2026-04-30T07:24:35.999Z</time></trkpt><trkpt lat="44.90817601986356" lon="9.666724689854773"><ele>171.0</ele><time>2026-04-30T07:24:36.999Z</time></trkpt><trkpt lat="44.908043710373576" lon="9.666520014018998"><ele>171.0</ele><time>2026-04-30T07:24:37.999Z</time></trkpt><trkpt lat="44.9079075585108" lon="9.666355018783747"><ele>171.0</ele><time>2026-04-30T07:24:38.999Z</time></trkpt><trkpt lat="44.907768485385816" lon="9.666179445964449"><ele>171.0</ele><time>2026-04-30T07:24:39.999Z</time></trkpt><trkpt lat="44.90759853435884" lon="9.665988044115855"><ele>171.33333333333334</ele><time>2026-04-30T07:24:40.999Z</time></trkpt><trkpt lat="44.907435232717084" lon="9.665790027142325"><ele>171.66666666666669</ele><time>2026-04-30T07:24:41.999Z</time></trkpt><trkpt lat="44.90728689031919" lon="9.665603837781488"><ele>172.0</ele><time>2026-04-30T07:24:42.999Z</time></trkpt><trkpt lat="44.90711872344833" lon="9.665393311421642"><ele>172.66666666666669</ele><time>2026-04-30T07:24:43.999Z</time></trkpt><trkpt lat="44.90695552404568" lon="9.665189003754556"><ele>173.33333333333334</ele><time>2026-04-30T07:24:44.999Z</time></trkpt><trkpt lat="44.90679281683927" lon="9.664984751037874"><ele>174.0</ele><time>2026-04-30T07:24:45.999Z</time></trkpt><trkpt lat="44.90663485185563" lon="9.664783709875778"><ele>174.66666666666666</ele><time>2026-04-30T07:24:46.999Z</time></trkpt><trkpt lat="44.90647301274952" lon="9.664575042759543"><ele>175.33333333333331</ele><time>2026-04-30T07:24:47.999Z</time></trkpt><trkpt lat="44.90632581641038" lon="9.664384268765387"><ele>176.0</ele><time>2026-04-30T07:24:48.999Z</time></trkpt><trkpt lat="44.906180060097036" lon="9.664194865429005"><ele>176.0</ele><time>2026-04-30T07:24:49.999Z</time></trkpt><trkpt lat="44.90604001673415" lon="9.664013644559576"><ele>176.0</ele><time>2026-04-30T07:24:50.999Z</time></trkpt><trkpt lat="44.905903103978" lon="9.663838595773136"><ele>176.0</ele><time>2026-04-30T07:24:51.999Z</time></trkpt><trkpt lat="44.90577280496766" lon="9.663688314579145"><ele>176.66666666666666</ele><time>2026-04-30T07:24:52.999Z</time></trkpt><trkpt lat="44.90565174357825" lon="9.663567720793374"><ele>177.33333333333334</ele><time>2026-04-30T07:24:53.999Z</time></trkpt><trkpt lat="44.90551521625523" lon="9.663453809916904"><ele>178.0</ele><time>2026-04-30T07:24:54.999Z</time></trkpt><trkpt lat="44.905369285798514" lon="9.663357331766518"><ele>178.0</ele><time>2026-04-30T07:24:55.999Z</time></trkpt><trkpt lat="44.905205660977664" lon="9.6632704667569"><ele>178.0</ele><time>2026-04-30T07:24:56.999Z</time></trkpt><trkpt lat="44.905041506609265" lon="9.663192564832608"><ele>178.0</ele><time>2026-04-30T07:24:57.999Z</time></trkpt><trkpt lat="44.90487789039305" lon="9.663123515218274"><ele>178.33333333333334</ele><time>2026-04-30T07:24:58.999Z</time></trkpt><trkpt lat="44.904717984116694" lon="9.663052134800838"><ele>178.66666666666666</ele><time>2026-04-30T07:24:59.999Z</time></trkpt><trkpt lat="44.90454540572428" lon="9.663015804875107"><ele>179.0</ele><time>2026-04-30T07:25:00.999Z</time></trkpt><trkpt lat="44.90436576853173" lon="9.663016375690635"><ele>179.33333333333331</ele><time>2026-04-30T07:25:01.999Z</time></trkpt><trkpt lat="44.90415719574987" lon="9.66302453798234"><ele>179.66666666666666</ele><time>2026-04-30T07:25:02.999Z</time></trkpt><trkpt lat="44.90394667710287" lon="9.663050100641145"><ele>180.0</ele><time>2026-04-30T07:25:03.999Z</time></trkpt><trkpt lat="44.90374064725868" lon="9.663060924913344"><ele>180.0</ele><time>2026-04-30T07:25:04.999Z</time></trkpt><trkpt lat="44.903541861146024" lon="9.66306986360509"><ele>180.0</ele><time>2026-04-30T07:25:05.999Z</time></trkpt><trkpt lat="44.90332584216904" lon="9.66306710179968"><ele>180.0</ele><time>2026-04-30T07:25:06.999Z</time></trkpt><trkpt lat="44.90313256111986" lon="9.663061296394243"><ele>180.33333333333334</ele><time>2026-04-30T07:25:07.999Z</time></trkpt><trkpt lat="44.90293154083054" lon="9.66306326433372"><ele>180.66666666666669</ele><time>2026-04-30T07:25:09.001Z</time></trkpt><trkpt lat="44.902744831749395" lon="9.663016764539844"><ele>181.0</ele><time>2026-04-30T07:25:10.001Z</time></trkpt><trkpt lat="44.902561206185034" lon="9.662968840067053"><ele>181.33333333333334</ele><time>2026-04-30T07:25:11.001Z</time></trkpt><trkpt lat="44.90238609197519" lon="9.662898443678465"><ele>181.66666666666666</ele><time>2026-04-30T07:25:12.001Z</time></trkpt><trkpt lat="44.90220509250741" lon="9.662812933427446"><ele>182.0</ele><time>2026-04-30T07:25:13.001Z</time></trkpt><trkpt lat="44.9020142401266" lon="9.662710598909694"><ele>182.0</ele><time>2026-04-30T07:25:14.001Z</time></trkpt><trkpt lat="44.901820062282646" lon="9.662604299605215"><ele>182.0</ele><time>2026-04-30T07:25:15.001Z</time></trkpt><trkpt lat="44.90163456092208" lon="9.662501691336711"><ele>182.0</ele><time>2026-04-30T07:25:16.001Z</time></trkpt><trkpt lat="44.901453140580486" lon="9.662396311638728"><ele>182.0</ele><time>2026-04-30T07:25:17.001Z</time></trkpt><trkpt lat="44.901288821371516" lon="9.662290463030176"><ele>182.0</ele><time>2026-04-30T07:25:18.001Z</time></trkpt><trkpt lat="44.901148101070426" lon="9.66218355234919"><ele>182.0</ele><time>2026-04-30T07:25:19.001Z</time></trkpt><trkpt lat="44.90099888051156" lon="9.662062879525479"><ele>183.33333333333331</ele><time>2026-04-30T07:25:20.001Z</time></trkpt><trkpt lat="44.90084237212955" lon="9.661930422736924"><ele>184.66666666666666</ele><time>2026-04-30T07:25:21.001Z</time></trkpt><trkpt lat="44.900694586752024" lon="9.661807935302946"><ele>186.0</ele><time>2026-04-30T07:25:22.001Z</time></trkpt><trkpt lat="44.90051668910242" lon="9.661682577887603"><ele>186.0</ele><time>2026-04-30T07:25:23.001Z</time></trkpt><trkpt lat="44.90033307376013" lon="9.661563922561871"><ele>186.0</ele><time>2026-04-30T07:25:24.001Z</time></trkpt><trkpt lat="44.900178545749924" lon="9.661465113496003"><ele>186.0</ele><time>2026-04-30T07:25:25.001Z</time></trkpt><trkpt lat="44.89999715023986" lon="9.661351079356093"><ele>186.0</ele><time>2026-04-30T07:25:26.001Z</time></trkpt><trkpt lat="44.899820530240206" lon="9.661240047311106"><ele>186.0</ele><time>2026-04-30T07:25:27.001Z</time></trkpt><trkpt lat="44.8996466374174" lon="9.66112817966129"><ele>186.0</ele><time>2026-04-30T07:25:28.001Z</time></trkpt><trkpt lat="44.89948136711782" lon="9.661018986674701"><ele>186.66666666666666</ele><time>2026-04-30T07:25:29.001Z</time></trkpt><trkpt lat="44.899318740870044" lon="9.660902820961127"><ele>187.33333333333331</ele><time>2026-04-30T07:25:30Z</time></trkpt><trkpt lat="44.89916813204931" lon="9.660787176466966"><ele>188.0</ele><time>2026-04-30T07:25:31Z</time></trkpt><trkpt lat="44.89901049969171" lon="9.660662097954521"><ele>188.33333333333331</ele><time>2026-04-30T07:25:32Z</time></trkpt><trkpt lat="44.89885212559145" lon="9.660533931090171"><ele>188.66666666666666</ele><time>2026-04-30T07:25:33Z</time></trkpt><trkpt lat="44.898707283694506" lon="9.660414065880115"><ele>189.0</ele><time>2026-04-30T07:25:34Z</time></trkpt><trkpt lat="44.898580023653594" lon="9.660307816961025"><ele>188.75</ele><time>2026-04-30T07:25:35Z</time></trkpt><trkpt lat="44.89845297492834" lon="9.660199291917134"><ele>188.5</ele><time>2026-04-30T07:25:36Z</time></trkpt><trkpt lat="44.898345281642264" lon="9.660105031943903"><ele>188.25</ele><time>2026-04-30T07:25:37Z</time></trkpt><trkpt lat="44.8982541961677" lon="9.66002364872145"><ele>188.0</ele><time>2026-04-30T07:25:38Z</time></trkpt><trkpt lat="44.89818779386596" lon="9.659963209674496"><ele>188.0</ele><time>2026-04-30T07:25:39Z</time></trkpt><trkpt lat="44.89812201307008" lon="9.659901300959676"><ele>188.0</ele><time>2026-04-30T07:25:40Z</time></trkpt><trkpt lat="44.89803174099031" lon="9.659832548453004"><ele>188.0</ele><time>2026-04-30T07:25:42Z</time></trkpt><trkpt lat="44.898001688517546" lon="9.659727101076689"><ele>188.0</ele><time>2026-04-30T07:25:43Z</time></trkpt><trkpt lat="44.89796520656946" lon="9.659646793004207"><ele>188.0</ele><time>2026-04-30T07:25:45Z</time></trkpt><trkpt lat="44.89790163488435" lon="9.659580931310408"><ele>188.0</ele><time>2026-04-30T07:25:49Z</time></trkpt><trkpt lat="44.897843708303036" lon="9.659623047695717"><ele>188.0</ele><time>2026-04-30T07:25:54Z</time></trkpt><trkpt lat="44.89773281903586" lon="9.65949848753376"><ele>188.0</ele><time>2026-04-30T07:25:56Z</time></trkpt><trkpt lat="44.89765889294306" lon="9.659432888781009"><ele>188.0</ele><time>2026-04-30T07:25:57Z</time></trkpt><trkpt lat="44.89758274069097" lon="9.65935687708511"><ele>188.0</ele><time>2026-04-30T07:25:58Z</time></trkpt><trkpt lat="44.897481997251546" lon="9.659284779588784"><ele>188.0</ele><time>2026-04-30T07:25:59Z</time></trkpt><trkpt lat="44.89738960063851" lon="9.659205159003214"><ele>189.33333333333331</ele><time>2026-04-30T07:26:00Z</time></trkpt><trkpt lat="44.89725371369668" lon="9.659118043693436"><ele>190.66666666666666</ele><time>2026-04-30T07:26:01Z</time></trkpt><trkpt lat="44.897123786580764" lon="9.659005024735023"><ele>192.0</ele><time>2026-04-30T07:26:02Z</time></trkpt><trkpt lat="44.896991018661176" lon="9.658913205164282"><ele>192.0</ele><time>2026-04-30T07:26:03Z</time></trkpt><trkpt lat="44.896865086290155" lon="9.658826112922922"><ele>192.0</ele><time>2026-04-30T07:26:04Z</time></trkpt><trkpt lat="44.89675782632536" lon="9.658751934144965"><ele>192.0</ele><time>2026-04-30T07:26:05Z</time></trkpt><trkpt lat="44.8966440249227" lon="9.658667582112393"><ele>192.0</ele><time>2026-04-30T07:26:06Z</time></trkpt><trkpt lat="44.89651752656341" lon="9.658570098143276"><ele>193.0</ele><time>2026-04-30T07:26:07Z</time></trkpt><trkpt lat="44.89637754712194" lon="9.658452382303334"><ele>194.0</ele><time>2026-04-30T07:26:08Z</time></trkpt><trkpt lat="44.89624038904951" lon="9.658328383763676"><ele>195.0</ele><time>2026-04-30T07:26:09Z</time></trkpt><trkpt lat="44.89611036357904" lon="9.658199050881214"><ele>195.0</ele><time>2026-04-30T07:26:10Z</time></trkpt><trkpt lat="44.89597990116338" lon="9.658068898586455"><ele>195.0</ele><time>2026-04-30T07:26:11Z</time></trkpt><trkpt lat="44.89583852251995" lon="9.657930233610557"><ele>195.0</ele><time>2026-04-30T07:26:12Z</time></trkpt><trkpt lat="44.89570301198258" lon="9.657803927341718"><ele>194.33333333333331</ele><time>2026-04-30T07:26:13Z</time></trkpt><trkpt lat="44.895551826517206" lon="9.657692575611488"><ele>193.66666666666666</ele><time>2026-04-30T07:26:14Z</time></trkpt><trkpt lat="44.89540909975108" lon="9.657594690552674"><ele>193.0</ele><time>2026-04-30T07:26:15Z</time></trkpt><trkpt lat="44.89526155042896" lon="9.657493905297688"><ele>193.0</ele><time>2026-04-30T07:26:16Z</time></trkpt><trkpt lat="44.89511385529852" lon="9.657388035887472"><ele>193.0</ele><time>2026-04-30T07:26:17Z</time></trkpt><trkpt lat="44.89495511965046" lon="9.65727425252362"><ele>193.0</ele><time>2026-04-30T07:26:18Z</time></trkpt><trkpt lat="44.89480027106618" lon="9.657161851003666"><ele>194.0</ele><time>2026-04-30T07:26:19Z</time></trkpt><trkpt lat="44.89464155416016" lon="9.657046282585782"><ele>195.0</ele><time>2026-04-30T07:26:20Z</time></trkpt><trkpt lat="44.894478464542274" lon="9.65692721676536"><ele>196.0</ele><time>2026-04-30T07:26:21Z</time></trkpt><trkpt lat="44.89431641341718" lon="9.65680745771989"><ele>196.66666666666666</ele><time>2026-04-30T07:26:22Z</time></trkpt><trkpt lat="44.894154703868" lon="9.65668766624504"><ele>197.33333333333331</ele><time>2026-04-30T07:26:23Z</time></trkpt><trkpt lat="44.89399289195662" lon="9.65656786332889"><ele>198.0</ele><time>2026-04-30T07:26:24Z</time></trkpt><trkpt lat="44.89383123237755" lon="9.656450723931952"><ele>198.0</ele><time>2026-04-30T07:26:25Z</time></trkpt><trkpt lat="44.89366891262313" lon="9.656331834739984"><ele>198.0</ele><time>2026-04-30T07:26:26Z</time></trkpt><trkpt lat="44.89351684704956" lon="9.656217283156987"><ele>198.0</ele><time>2026-04-30T07:26:27Z</time></trkpt><trkpt lat="44.893368450620706" lon="9.656101676984798"><ele>198.33333333333331</ele><time>2026-04-30T07:26:28Z</time></trkpt><trkpt lat="44.893214008787105" lon="9.655975732287223"><ele>198.66666666666666</ele><time>2026-04-30T07:26:29Z</time></trkpt><trkpt lat="44.893061086200106" lon="9.65583835653062"><ele>199.0</ele><time>2026-04-30T07:26:30Z</time></trkpt><trkpt lat="44.89291422808353" lon="9.655701134293194"><ele>199.0</ele><time>2026-04-30T07:26:31Z</time></trkpt><trkpt lat="44.89276361313757" lon="9.655557386741476"><ele>199.0</ele><time>2026-04-30T07:26:32Z</time></trkpt><trkpt lat="44.8926145781921" lon="9.65541514567097"><ele>199.0</ele><time>2026-04-30T07:26:33Z</time></trkpt><trkpt lat="44.89245958900402" lon="9.655267221778375"><ele>199.33333333333331</ele><time>2026-04-30T07:26:34Z</time></trkpt><trkpt lat="44.892283818730796" lon="9.655178451808634"><ele>199.66666666666669</ele><time>2026-04-30T07:26:35Z</time></trkpt><trkpt lat="44.89214255756199" lon="9.655028201646203"><ele>200.0</ele><time>2026-04-30T07:26:36Z</time></trkpt><trkpt lat="44.89198206158042" lon="9.654903029620153"><ele>200.0</ele><time>2026-04-30T07:26:37Z</time></trkpt><trkpt lat="44.89184768775513" lon="9.654755151873571"><ele>200.0</ele><time>2026-04-30T07:26:38Z</time></trkpt><trkpt lat="44.89172896757398" lon="9.654563073530028"><ele>200.0</ele><time>2026-04-30T07:26:39Z</time></trkpt><trkpt lat="44.8915914069364" lon="9.654421127814675"><ele>200.0</ele><time>2026-04-30T07:26:40Z</time></trkpt><trkpt lat="44.89146092422969" lon="9.65427064010736"><ele>200.0</ele><time>2026-04-30T07:26:41Z</time></trkpt><trkpt lat="44.89132996315442" lon="9.654108460615564"><ele>200.0</ele><time>2026-04-30T07:26:42Z</time></trkpt><trkpt lat="44.891189636639126" lon="9.653932392970498"><ele>200.0</ele><time>2026-04-30T07:26:43Z</time></trkpt><trkpt lat="44.89104659195149" lon="9.653750463054743"><ele>200.0</ele><time>2026-04-30T07:26:44Z</time></trkpt><trkpt lat="44.890903337696756" lon="9.653566848956606"><ele>200.0</ele><time>2026-04-30T07:26:45Z</time></trkpt><trkpt lat="44.890768092242105" lon="9.653394577207012"><ele>200.0</ele><time>2026-04-30T07:26:46Z</time></trkpt><trkpt lat="44.89062848370846" lon="9.653219670388886"><ele>200.0</ele><time>2026-04-30T07:26:47Z</time></trkpt><trkpt lat="44.89049475483011" lon="9.653053051446875"><ele>200.0</ele><time>2026-04-30T07:26:48Z</time></trkpt><trkpt lat="44.89037131549923" lon="9.652899252709672"><ele>201.0</ele><time>2026-04-30T07:26:49Z</time></trkpt><trkpt lat="44.89022563306239" lon="9.652720544254185"><ele>202.0</ele><time>2026-04-30T07:26:50Z</time></trkpt><trkpt lat="44.89008072459418" lon="9.652549121979494"><ele>203.0</ele><time>2026-04-30T07:26:51Z</time></trkpt><trkpt lat="44.889927038402284" lon="9.65237359387771"><ele>202.0</ele><time>2026-04-30T07:26:52Z</time></trkpt><trkpt lat="44.889778634595544" lon="9.652212496449442"><ele>201.0</ele><time>2026-04-30T07:26:53Z</time></trkpt><trkpt lat="44.88963075116879" lon="9.652053431028405"><ele>200.0</ele><time>2026-04-30T07:26:54Z</time></trkpt><trkpt lat="44.8894850949515" lon="9.651896761220737"><ele>200.0</ele><time>2026-04-30T07:26:55Z</time></trkpt><trkpt lat="44.889340080783896" lon="9.651740782012398"><ele>200.0</ele><time>2026-04-30T07:26:56Z</time></trkpt><trkpt lat="44.8891928545269" lon="9.651582423464978"><ele>200.0</ele><time>2026-04-30T07:26:57Z</time></trkpt><trkpt lat="44.889038158974" lon="9.651421892722043"><ele>200.33333333333334</ele><time>2026-04-30T07:26:58Z</time></trkpt><trkpt lat="44.888875003890625" lon="9.651255055520778"><ele>200.66666666666669</ele><time>2026-04-30T07:26:59Z</time></trkpt><trkpt lat="44.888704475225985" lon="9.651117213775647"><ele>201.0</ele><time>2026-04-30T07:27:00Z</time></trkpt><trkpt lat="44.88853730791845" lon="9.650978040408328"><ele>199.66666666666669</ele><time>2026-04-30T07:27:01Z</time></trkpt><trkpt lat="44.888360117092944" lon="9.650852005489604"><ele>198.33333333333334</ele><time>2026-04-30T07:27:02Z</time></trkpt><trkpt lat="44.88815583019099" lon="9.650764012592983"><ele>197.0</ele><time>2026-04-30T07:27:03Z</time></trkpt><trkpt lat="44.8879595065468" lon="9.650672452886987"><ele>197.0</ele><time>2026-04-30T07:27:04Z</time></trkpt><trkpt lat="44.88777910225092" lon="9.650588630907032"><ele>197.0</ele><time>2026-04-30T07:27:05Z</time></trkpt><trkpt lat="44.88759997232747" lon="9.650497248687527"><ele>197.0</ele><time>2026-04-30T07:27:06Z</time></trkpt><trkpt lat="44.88741404990331" lon="9.650389814814249"><ele>196.66666666666669</ele><time>2026-04-30T07:27:07Z</time></trkpt><trkpt lat="44.887274071479496" lon="9.650295948849426"><ele>196.33333333333331</ele><time>2026-04-30T07:27:08Z</time></trkpt><trkpt lat="44.887115997178846" lon="9.650210426154288"><ele>196.0</ele><time>2026-04-30T07:27:09Z</time></trkpt><trkpt lat="44.88695013957757" lon="9.650123666193636"><ele>197.0</ele><time>2026-04-30T07:27:10Z</time></trkpt><trkpt lat="44.886773532148204" lon="9.650049411760865"><ele>198.0</ele><time>2026-04-30T07:27:11Z</time></trkpt><trkpt lat="44.88660006328532" lon="9.649998711719407"><ele>199.0</ele><time>2026-04-30T07:27:12Z</time></trkpt><trkpt lat="44.88642241257172" lon="9.649969988104964"><ele>199.0</ele><time>2026-04-30T07:27:13Z</time></trkpt><trkpt lat="44.88623338762241" lon="9.64991457727983"><ele>199.0</ele><time>2026-04-30T07:27:14Z</time></trkpt><trkpt lat="44.886045291721224" lon="9.649873934462626"><ele>199.0</ele><time>2026-04-30T07:27:15Z</time></trkpt><trkpt lat="44.88586508675207" lon="9.649836458843852"><ele>197.66666666666666</ele><time>2026-04-30T07:27:16Z</time></trkpt><trkpt lat="44.885686709412205" lon="9.649799363289292"><ele>196.33333333333331</ele><time>2026-04-30T07:27:17Z</time></trkpt><trkpt lat="44.88550181894294" lon="9.64975872332423"><ele>195.0</ele><time>2026-04-30T07:27:18Z</time></trkpt><trkpt lat="44.885336070574915" lon="9.64972207532159"><ele>195.0</ele><time>2026-04-30T07:27:19Z</time></trkpt><trkpt lat="44.885163039444265" lon="9.6496840165057"><ele>195.0</ele><time>2026-04-30T07:27:20Z</time></trkpt><trkpt lat="44.88500686107997" lon="9.649653618032868"><ele>195.0</ele><time>2026-04-30T07:27:21Z</time></trkpt><trkpt lat="44.88483012573309" lon="9.649628725514367"><ele>195.0</ele><time>2026-04-30T07:27:22Z</time></trkpt><trkpt lat="44.88465701563648" lon="9.649614211204547"><ele>195.0</ele><time>2026-04-30T07:27:23Z</time></trkpt><trkpt lat="44.884472525787714" lon="9.649609835452557"><ele>195.0</ele><time>2026-04-30T07:27:24Z</time></trkpt><trkpt lat="44.88429370046266" lon="9.649609079106705"><ele>194.66666666666669</ele><time>2026-04-30T07:27:25Z</time></trkpt><trkpt lat="44.884101654304715" lon="9.64960826681514"><ele>194.33333333333334</ele><time>2026-04-30T07:27:26Z</time></trkpt><trkpt lat="44.8839198449121" lon="9.649607497785679"><ele>194.0</ele><time>2026-04-30T07:27:27Z</time></trkpt><trkpt lat="44.883738914002734" lon="9.649606732535728"><ele>194.0</ele><time>2026-04-30T07:27:28Z</time></trkpt><trkpt lat="44.883546022717574" lon="9.649605103152284"><ele>194.0</ele><time>2026-04-30T07:27:29Z</time></trkpt><trkpt lat="44.88336123914526" lon="9.649601843054628"><ele>194.0</ele><time>2026-04-30T07:27:30Z</time></trkpt><trkpt lat="44.88319356097235" lon="9.649576223297045"><ele>194.33333333333334</ele><time>2026-04-30T07:27:31Z</time></trkpt><trkpt lat="44.88303010570642" lon="9.649541417723169"><ele>194.66666666666669</ele><time>2026-04-30T07:27:32Z</time></trkpt><trkpt lat="44.88287057432703" lon="9.649490312423962"><ele>195.0</ele><time>2026-04-30T07:27:33Z</time></trkpt><trkpt lat="44.88269048713311" lon="9.649413367049341"><ele>194.33333333333331</ele><time>2026-04-30T07:27:34Z</time></trkpt><trkpt lat="44.88251098832368" lon="9.649319004113972"><ele>193.66666666666666</ele><time>2026-04-30T07:27:34.999Z</time></trkpt><trkpt lat="44.88232783244365" lon="9.649208013510982"><ele>193.0</ele><time>2026-04-30T07:27:35.999Z</time></trkpt><trkpt lat="44.88214490658938" lon="9.649085505650964"><ele>193.0</ele><time>2026-04-30T07:27:36.999Z</time></trkpt><trkpt lat="44.881953375916815" lon="9.648961335380422"><ele>193.0</ele><time>2026-04-30T07:27:37.999Z</time></trkpt><trkpt lat="44.88177000963124" lon="9.648846379568193"><ele>193.0</ele><time>2026-04-30T07:27:38.999Z</time></trkpt><trkpt lat="44.88160870501513" lon="9.648748490249917"><ele>193.0</ele><time>2026-04-30T07:27:39.999Z</time></trkpt><trkpt lat="44.8814419386805" lon="9.648655458347157"><ele>193.0</ele><time>2026-04-30T07:27:40.999Z</time></trkpt><trkpt lat="44.88126402178026" lon="9.648580258158772"><ele>193.0</ele><time>2026-04-30T07:27:41.999Z</time></trkpt><trkpt lat="44.88108789215535" lon="9.648523161436128"><ele>194.33333333333331</ele><time>2026-04-30T07:27:42.999Z</time></trkpt><trkpt lat="44.880903872674224" lon="9.648490905296418"><ele>195.66666666666669</ele><time>2026-04-30T07:27:43.999Z</time></trkpt><trkpt lat="44.88070321709052" lon="9.648460202175146"><ele>197.0</ele><time>2026-04-30T07:27:44.999Z</time></trkpt><trkpt lat="44.880504446669256" lon="9.648448798923727"><ele>197.0</ele><time>2026-04-30T07:27:45.999Z</time></trkpt><trkpt lat="44.880310070898815" lon="9.648523206638284"><ele>197.0</ele><time>2026-04-30T07:27:46.999Z</time></trkpt><trkpt lat="44.88009777816044" lon="9.648513383940566"><ele>197.0</ele><time>2026-04-30T07:27:47.999Z</time></trkpt><trkpt lat="44.87988937997185" lon="9.648466578691279"><ele>197.66666666666669</ele><time>2026-04-30T07:27:48.999Z</time></trkpt><trkpt lat="44.87967623212857" lon="9.648439929003992"><ele>198.33333333333331</ele><time>2026-04-30T07:27:49.999Z</time></trkpt><trkpt lat="44.87945759700598" lon="9.648377764196788"><ele>199.0</ele><time>2026-04-30T07:27:50.999Z</time></trkpt><trkpt lat="44.87924225591228" lon="9.648362451430254"><ele>199.0</ele><time>2026-04-30T07:27:51.999Z</time></trkpt><trkpt lat="44.87903347899016" lon="9.648375447475784"><ele>199.0</ele><time>2026-04-30T07:27:52.999Z</time></trkpt><trkpt lat="44.87881732969653" lon="9.6483561126184"><ele>199.0</ele><time>2026-04-30T07:27:53.999Z</time></trkpt><trkpt lat="44.87860796618107" lon="9.648367428133136"><ele>200.0</ele><time>2026-04-30T07:27:54.999Z</time></trkpt><trkpt lat="44.878420647098785" lon="9.648365333156322"><ele>201.0</ele><time>2026-04-30T07:27:55.999Z</time></trkpt><trkpt lat="44.87825463836232" lon="9.648334405956449"><ele>202.0</ele><time>2026-04-30T07:27:56.999Z</time></trkpt><trkpt lat="44.878079581429084" lon="9.648288211591813"><ele>202.0</ele><time>2026-04-30T07:27:57.999Z</time></trkpt><trkpt lat="44.87791515160788" lon="9.648215373925026"><ele>202.0</ele><time>2026-04-30T07:27:58.999Z</time></trkpt><trkpt lat="44.877744168014594" lon="9.648106290413136"><ele>202.0</ele><time>2026-04-30T07:27:59.999Z</time></trkpt><trkpt lat="44.87757406565735" lon="9.647980501502053"><ele>201.66666666666666</ele><time>2026-04-30T07:28:00.999Z</time></trkpt><trkpt lat="44.87740405560542" lon="9.647846767336487"><ele>201.33333333333331</ele><time>2026-04-30T07:28:01.999Z</time></trkpt><trkpt lat="44.87724059931144" lon="9.647714267988809"><ele>201.0</ele><time>2026-04-30T07:28:02.999Z</time></trkpt><trkpt lat="44.877084978827355" lon="9.647605900698194"><ele>202.0</ele><time>2026-04-30T07:28:03.999Z</time></trkpt><trkpt lat="44.8769383037633" lon="9.647468203957022"><ele>203.0</ele><time>2026-04-30T07:28:04.999Z</time></trkpt><trkpt lat="44.876803362709815" lon="9.64732121965569"><ele>204.0</ele><time>2026-04-30T07:28:05.999Z</time></trkpt><trkpt lat="44.8766873594799" lon="9.647208811071891"><ele>204.0</ele><time>2026-04-30T07:28:06.999Z</time></trkpt><trkpt lat="44.87654208228474" lon="9.64710349137535"><ele>204.0</ele><time>2026-04-30T07:28:07.999Z</time></trkpt><trkpt lat="44.87642424483451" lon="9.646956426860786"><ele>204.0</ele><time>2026-04-30T07:28:08.999Z</time></trkpt><trkpt lat="44.876294310815496" lon="9.646800988894553"><ele>204.0</ele><time>2026-04-30T07:28:09.999Z</time></trkpt><trkpt lat="44.87615838839875" lon="9.64665064497091"><ele>204.0</ele><time>2026-04-30T07:28:10.999Z</time></trkpt><trkpt lat="44.87603021495564" lon="9.646452064346672"><ele>204.0</ele><time>2026-04-30T07:28:11.999Z</time></trkpt><trkpt lat="44.87589442277615" lon="9.646269240474975"><ele>207.0</ele><time>2026-04-30T07:28:12.999Z</time></trkpt><trkpt lat="44.87577506421468" lon="9.646100424635463"><ele>210.0</ele><time>2026-04-30T07:28:13.999Z</time></trkpt><trkpt lat="44.87564875824899" lon="9.645916845666228"><ele>213.0</ele><time>2026-04-30T07:28:14.999Z</time></trkpt><trkpt lat="44.875502387653384" lon="9.645699378837168"><ele>213.0</ele><time>2026-04-30T07:28:15.999Z</time></trkpt><trkpt lat="44.875369925648705" lon="9.64552004103462"><ele>213.0</ele><time>2026-04-30T07:28:16.999Z</time></trkpt><trkpt lat="44.87523919352419" lon="9.645331451598196"><ele>213.0</ele><time>2026-04-30T07:28:17.999Z</time></trkpt><trkpt lat="44.87512099764262" lon="9.645121637506143"><ele>211.0</ele><time>2026-04-30T07:28:18.999Z</time></trkpt><trkpt lat="44.87500383264304" lon="9.644958443251367"><ele>209.0</ele><time>2026-04-30T07:28:19.999Z</time></trkpt><trkpt lat="44.87489718530785" lon="9.644755755735561"><ele>207.0</ele><time>2026-04-30T07:28:20.999Z</time></trkpt><trkpt lat="44.87479840685834" lon="9.644565829970883"><ele>211.5</ele><time>2026-04-30T07:28:21.999Z</time></trkpt><trkpt lat="44.87472391600745" lon="9.644382449049798"><ele>216.0</ele><time>2026-04-30T07:28:22.999Z</time></trkpt><trkpt lat="44.874662180412585" lon="9.644206276569601"><ele>220.5</ele><time>2026-04-30T07:28:23.999Z</time></trkpt><trkpt lat="44.87460077981007" lon="9.644045139957969"><ele>225.0</ele><time>2026-04-30T07:28:24.999Z</time></trkpt><trkpt lat="44.87453661341978" lon="9.643886640235769"><ele>225.0</ele><time>2026-04-30T07:28:25.999Z</time></trkpt><trkpt lat="44.87449255503583" lon="9.64374366247629"><ele>225.0</ele><time>2026-04-30T07:28:26.999Z</time></trkpt><trkpt lat="44.87445216862701" lon="9.643649166836129"><ele>225.0</ele><time>2026-04-30T07:28:27.999Z</time></trkpt><trkpt lat="44.87440725251482" lon="9.643573547805094"><ele>225.0</ele><time>2026-04-30T07:28:28.999Z</time></trkpt><trkpt lat="44.874331761140475" lon="9.643473261396778"><ele>225.0</ele><time>2026-04-30T07:28:29.999Z</time></trkpt><trkpt lat="44.87424483087526" lon="9.643506246304845"><ele>219.5</ele><time>2026-04-30T07:28:30.999Z</time></trkpt><trkpt lat="44.874151376899086" lon="9.643518770571768"><ele>214.0</ele><time>2026-04-30T07:28:31.999Z</time></trkpt><trkpt lat="44.874018957838835" lon="9.643605485907614"><ele>208.5</ele><time>2026-04-30T07:28:32.999Z</time></trkpt><trkpt lat="44.87389775279521" lon="9.643669342483081"><ele>203.0</ele><time>2026-04-30T07:28:33.999Z</time></trkpt><trkpt lat="44.87376714309248" lon="9.643743035108868"><ele>202.0</ele><time>2026-04-30T07:28:34.999Z</time></trkpt><trkpt lat="44.873623378906395" lon="9.643816849072866"><ele>201.0</ele><time>2026-04-30T07:28:35.999Z</time></trkpt><trkpt lat="44.87350790380811" lon="9.643862603696558"><ele>200.0</ele><time>2026-04-30T07:28:36.999Z</time></trkpt><trkpt lat="44.87339716882439" lon="9.643936326267845"><ele>199.0</ele><time>2026-04-30T07:28:37.999Z</time></trkpt><trkpt lat="44.873303201691876" lon="9.643956524750083"><ele>198.99999999999997</ele><time>2026-04-30T07:28:38.999Z</time></trkpt><trkpt lat="44.87319693174352" lon="9.644006375441592"><ele>199.0</ele><time>2026-04-30T07:28:39.999Z</time></trkpt><trkpt lat="44.87310474993696" lon="9.644071078043313"><ele>199.0</ele><time>2026-04-30T07:28:40.999Z</time></trkpt><trkpt lat="44.87301810147255" lon="9.644100861061387"><ele>199.0</ele><time>2026-04-30T07:28:41.999Z</time></trkpt><trkpt lat="44.87294657091086" lon="9.644095481905103"><ele>198.99999999999997</ele><time>2026-04-30T07:28:42.999Z</time></trkpt><trkpt lat="44.87289392120446" lon="9.644042206975568"><ele>199.0</ele><time>2026-04-30T07:28:43.999Z</time></trkpt><trkpt lat="44.872823306210734" lon="9.64401268238854"><ele>199.0</ele><time>2026-04-30T07:28:44.999Z</time></trkpt><trkpt lat="44.872793360109306" lon="9.6439075785875"><ele>199.0</ele><time>2026-04-30T07:28:45.999Z</time></trkpt><trkpt lat="44.87271275529137" lon="9.643788062840741"><ele>199.0</ele><time>2026-04-30T07:28:46.999Z</time></trkpt><trkpt lat="44.87264020990043" lon="9.643673285295666"><ele>199.0</ele><time>2026-04-30T07:28:47.999Z</time></trkpt><trkpt lat="44.87255419614966" lon="9.643549760988455"><ele>199.0</ele><time>2026-04-30T07:28:48.999Z</time></trkpt><trkpt lat="44.87246698655253" lon="9.64342507182719"><ele>200.25</ele><time>2026-04-30T07:28:49.999Z</time></trkpt><trkpt lat="44.87238639808443" lon="9.643309849241184"><ele>201.5</ele><time>2026-04-30T07:28:50.999Z</time></trkpt><trkpt lat="44.87229423802061" lon="9.643178182398369"><ele>202.75</ele><time>2026-04-30T07:28:51.999Z</time></trkpt><trkpt lat="44.87219446465417" lon="9.643037481489051"><ele>204.0</ele><time>2026-04-30T07:28:52.999Z</time></trkpt><trkpt lat="44.87208739231994" lon="9.642890294115238"><ele>204.5</ele><time>2026-04-30T07:28:53.999Z</time></trkpt><trkpt lat="44.87198049506511" lon="9.642745698371222"><ele>205.0</ele><time>2026-04-30T07:28:54.999Z</time></trkpt><trkpt lat="44.87187252492586" lon="9.642600962727583"><ele>205.5</ele><time>2026-04-30T07:28:55.999Z</time></trkpt><trkpt lat="44.87176670125678" lon="9.642463315341347"><ele>206.0</ele><time>2026-04-30T07:28:56.999Z</time></trkpt><trkpt lat="44.87168057022946" lon="9.642344678334714"><ele>206.0</ele><time>2026-04-30T07:28:57.999Z</time></trkpt><trkpt lat="44.871580199811305" lon="9.642200392705027"><ele>206.0</ele><time>2026-04-30T07:28:58.999Z</time></trkpt><trkpt lat="44.87146114049078" lon="9.642100485030998"><ele>206.0</ele><time>2026-04-30T07:28:59.999Z</time></trkpt><trkpt lat="44.87134820324837" lon="9.641973959029313"><ele>206.0</ele><time>2026-04-30T07:29:00.999Z</time></trkpt><trkpt lat="44.871232866609574" lon="9.64184035895444"><ele>205.25</ele><time>2026-04-30T07:29:01.999Z</time></trkpt><trkpt lat="44.87116127511182" lon="9.641720270347873"><ele>204.5</ele><time>2026-04-30T07:29:02.999Z</time></trkpt><trkpt lat="44.871060732428376" lon="9.641590807542977"><ele>203.75</ele><time>2026-04-30T07:29:03.999Z</time></trkpt><trkpt lat="44.8709498968641" lon="9.641461530661285"><ele>203.0</ele><time>2026-04-30T07:29:04.999Z</time></trkpt><trkpt lat="44.870864315971104" lon="9.641325766130121"><ele>204.25</ele><time>2026-04-30T07:29:05.999Z</time></trkpt><trkpt lat="44.870744766280254" lon="9.64121552181219"><ele>205.5</ele><time>2026-04-30T07:29:06.999Z</time></trkpt><trkpt lat="44.87061923547624" lon="9.64111145786701"><ele>206.75</ele><time>2026-04-30T07:29:07.999Z</time></trkpt><trkpt lat="44.87048992665326" lon="9.641015694518734"><ele>208.0</ele><time>2026-04-30T07:29:08.999Z</time></trkpt><trkpt lat="44.87036146528408" lon="9.640934969279682"><ele>208.0</ele><time>2026-04-30T07:29:09.999Z</time></trkpt><trkpt lat="44.87024097799761" lon="9.640869605946937"><ele>208.0</ele><time>2026-04-30T07:29:10.999Z</time></trkpt><trkpt lat="44.87009767700515" lon="9.640802613758781"><ele>208.0</ele><time>2026-04-30T07:29:11.999Z</time></trkpt><trkpt lat="44.86994962855237" lon="9.640746014569125"><ele>208.0</ele><time>2026-04-30T07:29:12.999Z</time></trkpt><trkpt lat="44.86978661011018" lon="9.640688349019301"><ele>208.66666666666666</ele><time>2026-04-30T07:29:13.999Z</time></trkpt><trkpt lat="44.869622590018736" lon="9.64063415927721"><ele>209.33333333333331</ele><time>2026-04-30T07:29:14.999Z</time></trkpt><trkpt lat="44.86948812771751" lon="9.640589914500744"><ele>210.0</ele><time>2026-04-30T07:29:15.999Z</time></trkpt><trkpt lat="44.86934695121595" lon="9.640543410856013"><ele>210.66666666666669</ele><time>2026-04-30T07:29:16.999Z</time></trkpt><trkpt lat="44.86918874897173" lon="9.640491699092955"><ele>211.33333333333334</ele><time>2026-04-30T07:29:17.999Z</time></trkpt><trkpt lat="44.86904546386619" lon="9.640444775777496"><ele>212.0</ele><time>2026-04-30T07:29:18.999Z</time></trkpt><trkpt lat="44.86890196223549" lon="9.640397578670173"><ele>212.0</ele><time>2026-04-30T07:29:19.999Z</time></trkpt><trkpt lat="44.868741094036594" lon="9.640344697042655"><ele>212.0</ele><time>2026-04-30T07:29:20.999Z</time></trkpt><trkpt lat="44.868606081904296" lon="9.64029907604455"><ele>212.0</ele><time>2026-04-30T07:29:21.999Z</time></trkpt><trkpt lat="44.86846135917477" lon="9.64025520152047"><ele>212.33333333333334</ele><time>2026-04-30T07:29:22.999Z</time></trkpt><trkpt lat="44.868322476078085" lon="9.64021697830165"><ele>212.66666666666669</ele><time>2026-04-30T07:29:23.999Z</time></trkpt><trkpt lat="44.868169247178166" lon="9.640181655505195"><ele>213.0</ele><time>2026-04-30T07:29:24.999Z</time></trkpt><trkpt lat="44.868006684768346" lon="9.640168320289396"><ele>213.0</ele><time>2026-04-30T07:29:25.999Z</time></trkpt><trkpt lat="44.86786116177685" lon="9.640171495505367"><ele>213.0</ele><time>2026-04-30T07:29:26.999Z</time></trkpt><trkpt lat="44.867687030379685" lon="9.640205709603201"><ele>213.0</ele><time>2026-04-30T07:29:27.999Z</time></trkpt><trkpt lat="44.86754664785843" lon="9.640246804104976"><ele>213.5</ele><time>2026-04-30T07:29:28.999Z</time></trkpt><trkpt lat="44.86740097404661" lon="9.640310771279914"><ele>214.0</ele><time>2026-04-30T07:29:29.999Z</time></trkpt><trkpt lat="44.86727799408166" lon="9.640368611899934"><ele>214.5</ele><time>2026-04-30T07:29:30.999Z</time></trkpt><trkpt lat="44.86713505004229" lon="9.640448655677835"><ele>215.0</ele><time>2026-04-30T07:29:31.999Z</time></trkpt><trkpt lat="44.867032684365874" lon="9.640609109867288"><ele>215.0</ele><time>2026-04-30T07:29:32.999Z</time></trkpt><trkpt lat="44.86688924729739" lon="9.640631891784135"><ele>215.0</ele><time>2026-04-30T07:29:33.999Z</time></trkpt><trkpt lat="44.86675978594996" lon="9.6406789028342"><ele>215.0</ele><time>2026-04-30T07:29:34.999Z</time></trkpt><trkpt lat="44.86664169626183" lon="9.640742941169739"><ele>215.0</ele><time>2026-04-30T07:29:35.999Z</time></trkpt><trkpt lat="44.8665246470148" lon="9.64070790970731"><ele>215.0</ele><time>2026-04-30T07:29:36.999Z</time></trkpt><trkpt lat="44.86641271819161" lon="9.640703696803536"><ele>215.0</ele><time>2026-04-30T07:29:37.999Z</time></trkpt><trkpt lat="44.86630705085577" lon="9.640689143633017"><ele>215.0</ele><time>2026-04-30T07:29:38.999Z</time></trkpt><trkpt lat="44.86620528861511" lon="9.640667342138153"><ele>215.0</ele><time>2026-04-30T07:29:39.999Z</time></trkpt><trkpt lat="44.86610236082421" lon="9.64062818456439"><ele>215.0</ele><time>2026-04-30T07:29:40.999Z</time></trkpt><trkpt lat="44.865993915065445" lon="9.640584300303312"><ele>215.25</ele><time>2026-04-30T07:29:41.999Z</time></trkpt><trkpt lat="44.86588581437314" lon="9.64049206313548"><ele>215.5</ele><time>2026-04-30T07:29:42.999Z</time></trkpt><trkpt lat="44.865783850124366" lon="9.640391092718138"><ele>215.75</ele><time>2026-04-30T07:29:43.999Z</time></trkpt><trkpt lat="44.86568880997861" lon="9.640287734296205"><ele>216.0</ele><time>2026-04-30T07:29:44.999Z</time></trkpt><trkpt lat="44.86559686765141" lon="9.640147497496395"><ele>216.0</ele><time>2026-04-30T07:29:45.999Z</time></trkpt><trkpt lat="44.865502490281585" lon="9.639992252520146"><ele>216.0</ele><time>2026-04-30T07:29:46.999Z</time></trkpt><trkpt lat="44.86540687698754" lon="9.639846196541875"><ele>216.0</ele><time>2026-04-30T07:29:47.999Z</time></trkpt><trkpt lat="44.86530632821114" lon="9.639696450724337"><ele>216.0</ele><time>2026-04-30T07:29:48.999Z</time></trkpt><trkpt lat="44.86520519458715" lon="9.639545833054946"><ele>215.75</ele><time>2026-04-30T07:29:49.999Z</time></trkpt><trkpt lat="44.865106895741164" lon="9.639396424582761"><ele>215.5</ele><time>2026-04-30T07:29:50.999Z</time></trkpt><trkpt lat="44.86501097951413" lon="9.639252981034112"><ele>215.25</ele><time>2026-04-30T07:29:51.999Z</time></trkpt><trkpt lat="44.86491038461366" lon="9.63910426518225"><ele>215.0</ele><time>2026-04-30T07:29:52.999Z</time></trkpt><trkpt lat="44.86481271649181" lon="9.638959057265696"><ele>215.0</ele><time>2026-04-30T07:29:53.999Z</time></trkpt><trkpt lat="44.864708699959515" lon="9.63880668056197"><ele>215.0</ele><time>2026-04-30T07:29:54.999Z</time></trkpt><trkpt lat="44.86461043386471" lon="9.638663157810722"><ele>215.0</ele><time>2026-04-30T07:29:55.999Z</time></trkpt><trkpt lat="44.86450887469407" lon="9.638517341365231"><ele>215.0</ele><time>2026-04-30T07:29:56.999Z</time></trkpt><trkpt lat="44.86440842425501" lon="9.638373115561107"><ele>215.33333333333334</ele><time>2026-04-30T07:29:57.999Z</time></trkpt><trkpt lat="44.86429591831092" lon="9.638220535580766"><ele>215.66666666666669</ele><time>2026-04-30T07:29:58.999Z</time></trkpt><trkpt lat="44.8641834282824" lon="9.638072160162636"><ele>216.0</ele><time>2026-04-30T07:29:59.999Z</time></trkpt><trkpt lat="44.864061222962945" lon="9.637919613151702"><ele>215.75</ele><time>2026-04-30T07:30:00.999Z</time></trkpt><trkpt lat="44.86394731668405" lon="9.637787289997606"><ele>215.5</ele><time>2026-04-30T07:30:01.999Z</time></trkpt><trkpt lat="44.86383546440227" lon="9.637656633271192"><ele>215.25</ele><time>2026-04-30T07:30:02.999Z</time></trkpt><trkpt lat="44.86371659110061" lon="9.63751824545078"><ele>215.0</ele><time>2026-04-30T07:30:03.999Z</time></trkpt><trkpt lat="44.86359479752977" lon="9.637377671943675"><ele>215.0</ele><time>2026-04-30T07:30:04.999Z</time></trkpt><trkpt lat="44.863489595898294" lon="9.63725611215796"><ele>215.0</ele><time>2026-04-30T07:30:05.999Z</time></trkpt><trkpt lat="44.8633871339407" lon="9.63713771787623"><ele>215.0</ele><time>2026-04-30T07:30:06.999Z</time></trkpt><trkpt lat="44.863289796437606" lon="9.637025244988244"><ele>215.0</ele><time>2026-04-30T07:30:07.999Z</time></trkpt><trkpt lat="44.86318067335444" lon="9.636926571537867"><ele>215.75</ele><time>2026-04-30T07:30:08.999Z</time></trkpt><trkpt lat="44.863089987538544" lon="9.636794366944075"><ele>216.5</ele><time>2026-04-30T07:30:09.999Z</time></trkpt><trkpt lat="44.862990868655785" lon="9.636679839212576"><ele>217.25</ele><time>2026-04-30T07:30:10.999Z</time></trkpt><trkpt lat="44.862890786995685" lon="9.636560106356095"><ele>218.0</ele><time>2026-04-30T07:30:11.999Z</time></trkpt><trkpt lat="44.86279138332845" lon="9.636440011753967"><ele>218.0</ele><time>2026-04-30T07:30:12.999Z</time></trkpt><trkpt lat="44.86271319971165" lon="9.636343213773445"><ele>218.0</ele><time>2026-04-30T07:30:13.999Z</time></trkpt><trkpt lat="44.86263122465528" lon="9.636232954073021"><ele>218.0</ele><time>2026-04-30T07:30:14.999Z</time></trkpt><trkpt lat="44.86255351505596" lon="9.636091203681561"><ele>218.0</ele><time>2026-04-30T07:30:15.999Z</time></trkpt><trkpt lat="44.86248199723699" lon="9.635935342146661"><ele>218.5</ele><time>2026-04-30T07:30:16.999Z</time></trkpt><trkpt lat="44.862408850022284" lon="9.635769459586363"><ele>219.0</ele><time>2026-04-30T07:30:17.999Z</time></trkpt><trkpt lat="44.86234030774637" lon="9.635614082683276"><ele>219.5</ele><time>2026-04-30T07:30:18.999Z</time></trkpt><trkpt lat="44.862272509029864" lon="9.635460391479613"><ele>220.0</ele><time>2026-04-30T07:30:19.999Z</time></trkpt><trkpt lat="44.862203007364336" lon="9.635302839786807"><ele>219.0</ele><time>2026-04-30T07:30:20.999Z</time></trkpt><trkpt lat="44.862139111211135" lon="9.635157995270843"><ele>218.0</ele><time>2026-04-30T07:30:21.999Z</time></trkpt><trkpt lat="44.862072661452174" lon="9.635004783959099"><ele>217.0</ele><time>2026-04-30T07:30:22.999Z</time></trkpt><trkpt lat="44.86200803179316" lon="9.63485574881295"><ele>216.0</ele><time>2026-04-30T07:30:23.999Z</time></trkpt><trkpt lat="44.86195439706071" lon="9.634731720229722"><ele>216.0</ele><time>2026-04-30T07:30:24.999Z</time></trkpt><trkpt lat="44.861899508133156" lon="9.634607342599905"><ele>216.00000000000003</ele><time>2026-04-30T07:30:25.999Z</time></trkpt><trkpt lat="44.86184726574832" lon="9.634494049514327"><ele>216.00000000000003</ele><time>2026-04-30T07:30:26.999Z</time></trkpt><trkpt lat="44.86178953119985" lon="9.63437117993048"><ele>216.0</ele><time>2026-04-30T07:30:27.999Z</time></trkpt><trkpt lat="44.86173156485765" lon="9.634247816225841"><ele>216.0</ele><time>2026-04-30T07:30:28.999Z</time></trkpt><trkpt lat="44.86165067920345" lon="9.634124900179135"><ele>217.66666666666669</ele><time>2026-04-30T07:30:29.999Z</time></trkpt><trkpt lat="44.86157850181741" lon="9.633955961886361"><ele>219.33333333333334</ele><time>2026-04-30T07:30:30.999Z</time></trkpt><trkpt lat="44.86147853261117" lon="9.633797596810007"><ele>221.0</ele><time>2026-04-30T07:30:31.999Z</time></trkpt><trkpt lat="44.86135487349008" lon="9.633655256784472"><ele>220.66666666666669</ele><time>2026-04-30T07:30:32.999Z</time></trkpt><trkpt lat="44.86121818749411" lon="9.633485584813835"><ele>220.33333333333331</ele><time>2026-04-30T07:30:33.999Z</time></trkpt><trkpt lat="44.861080605965974" lon="9.633398044309462"><ele>220.0</ele><time>2026-04-30T07:30:34.999Z</time></trkpt><trkpt lat="44.86093868673711" lon="9.633245898326221"><ele>220.66666666666666</ele><time>2026-04-30T07:30:35.999Z</time></trkpt><trkpt lat="44.86078535400032" lon="9.633175417204951"><ele>221.33333333333331</ele><time>2026-04-30T07:30:36.999Z</time></trkpt><trkpt lat="44.86061793193884" lon="9.633119899763022"><ele>222.0</ele><time>2026-04-30T07:30:37.999Z</time></trkpt><trkpt lat="44.86045445478008" lon="9.633048588916038"><ele>222.0</ele><time>2026-04-30T07:30:38.999Z</time></trkpt><trkpt lat="44.86027467955906" lon="9.633042226523662"><ele>222.0</ele><time>2026-04-30T07:30:39.999Z</time></trkpt><trkpt lat="44.860104629920876" lon="9.632979670880978"><ele>222.0</ele><time>2026-04-30T07:30:40.999Z</time></trkpt><trkpt lat="44.85994319931634" lon="9.63296740505588"><ele>223.0</ele><time>2026-04-30T07:30:41.999Z</time></trkpt><trkpt lat="44.859781248463506" lon="9.63290483599655"><ele>224.0</ele><time>2026-04-30T07:30:42.999Z</time></trkpt><trkpt lat="44.85960643373727" lon="9.632862546422489"><ele>225.0</ele><time>2026-04-30T07:30:43.999Z</time></trkpt><trkpt lat="44.8594646788184" lon="9.632784891150319"><ele>225.0</ele><time>2026-04-30T07:30:44.999Z</time></trkpt><trkpt lat="44.85930215236696" lon="9.632703816119001"><ele>225.0</ele><time>2026-04-30T07:30:45.999Z</time></trkpt><trkpt lat="44.85913903086761" lon="9.632596912756364"><ele>225.0</ele><time>2026-04-30T07:30:46.999Z</time></trkpt><trkpt lat="44.85898203286646" lon="9.632461490893895"><ele>226.0</ele><time>2026-04-30T07:30:47.999Z</time></trkpt><trkpt lat="44.85883005577199" lon="9.632328653648068"><ele>227.0</ele><time>2026-04-30T07:30:48.998Z</time></trkpt><trkpt lat="44.85868430062666" lon="9.632175784346659"><ele>228.0</ele><time>2026-04-30T07:30:49.998Z</time></trkpt><trkpt lat="44.85854223785376" lon="9.631998866106231"><ele>230.33333333333331</ele><time>2026-04-30T07:30:50.998Z</time></trkpt><trkpt lat="44.85840004876939" lon="9.631811361561125"><ele>232.66666666666666</ele><time>2026-04-30T07:30:51.998Z</time></trkpt><trkpt lat="44.85826413055851" lon="9.63162919911796"><ele>235.0</ele><time>2026-04-30T07:30:52.998Z</time></trkpt><trkpt lat="44.85811579906628" lon="9.63142547148198"><ele>235.0</ele><time>2026-04-30T07:30:53.998Z</time></trkpt><trkpt lat="44.857965991627985" lon="9.631221464939927"><ele>235.0</ele><time>2026-04-30T07:30:54.998Z</time></trkpt><trkpt lat="44.85781505442932" lon="9.631019500159343"><ele>235.0</ele><time>2026-04-30T07:30:55.998Z</time></trkpt><trkpt lat="44.8576719463924" lon="9.63082917406096"><ele>235.0</ele><time>2026-04-30T07:30:56.998Z</time></trkpt><trkpt lat="44.857529876921724" lon="9.630640229068145"><ele>235.0</ele><time>2026-04-30T07:30:57.998Z</time></trkpt><trkpt lat="44.85738165063095" lon="9.630444005785838"><ele>235.0</ele><time>2026-04-30T07:30:58.998Z</time></trkpt><trkpt lat="44.85722989034169" lon="9.630247066345435"><ele>234.33333333333331</ele><time>2026-04-30T07:30:59.998Z</time></trkpt><trkpt lat="44.857080925691506" lon="9.630058293132816"><ele>233.66666666666669</ele><time>2026-04-30T07:31:00.998Z</time></trkpt><trkpt lat="44.856927040389174" lon="9.629866883940128"><ele>233.0</ele><time>2026-04-30T07:31:01.998Z</time></trkpt><trkpt lat="44.85677400342913" lon="9.629679071184752"><ele>232.66666666666669</ele><time>2026-04-30T07:31:02.998Z</time></trkpt><trkpt lat="44.8566122520738" lon="9.629483637918005"><ele>232.33333333333331</ele><time>2026-04-30T07:31:03.998Z</time></trkpt><trkpt lat="44.856439351975986" lon="9.62928007564474"><ele>232.0</ele><time>2026-04-30T07:31:04.998Z</time></trkpt><trkpt lat="44.856270047162795" lon="9.629083990443718"><ele>231.66666666666666</ele><time>2026-04-30T07:31:05.998Z</time></trkpt><trkpt lat="44.85609764503032" lon="9.628900166581765"><ele>231.33333333333331</ele><time>2026-04-30T07:31:06.998Z</time></trkpt><trkpt lat="44.855951442248596" lon="9.62871816054091"><ele>231.0</ele><time>2026-04-30T07:31:07.998Z</time></trkpt><trkpt lat="44.85578575521916" lon="9.62852781890109"><ele>232.33333333333331</ele><time>2026-04-30T07:31:08.998Z</time></trkpt><trkpt lat="44.855622322525555" lon="9.628339994269913"><ele>233.66666666666666</ele><time>2026-04-30T07:31:09.998Z</time></trkpt><trkpt lat="44.85545856753016" lon="9.628149404861015"><ele>235.0</ele><time>2026-04-30T07:31:10.998Z</time></trkpt><trkpt lat="44.85530106681608" lon="9.627963978768522"><ele>234.33333333333331</ele><time>2026-04-30T07:31:11.998Z</time></trkpt><trkpt lat="44.85514912929991" lon="9.627783658307537"><ele>233.66666666666669</ele><time>2026-04-30T07:31:12.998Z</time></trkpt><trkpt lat="44.85498499261052" lon="9.627587885278547"><ele>233.0</ele><time>2026-04-30T07:31:13.998Z</time></trkpt><trkpt lat="44.85482898056186" lon="9.627394567392951"><ele>233.0</ele><time>2026-04-30T07:31:14.998Z</time></trkpt><trkpt lat="44.854686118858595" lon="9.627207116999783"><ele>233.0</ele><time>2026-04-30T07:31:15.998Z</time></trkpt><trkpt lat="44.85454241965848" lon="9.627005744985178"><ele>233.0</ele><time>2026-04-30T07:31:16.998Z</time></trkpt><trkpt lat="44.854410122236935" lon="9.62680874559794"><ele>234.0</ele><time>2026-04-30T07:31:17.998Z</time></trkpt><trkpt lat="44.854259109415594" lon="9.626573773758826"><ele>235.0</ele><time>2026-04-30T07:31:18.998Z</time></trkpt><trkpt lat="44.85410212588" lon="9.626325830431638"><ele>230.5</ele><time>2026-04-30T07:31:19.998Z</time></trkpt><trkpt lat="44.85394345797013" lon="9.626071035118336"><ele>226.0</ele><time>2026-04-30T07:31:20.998Z</time></trkpt><trkpt lat="44.853791426386415" lon="9.625825039787442"><ele>226.0</ele><time>2026-04-30T07:31:21.998Z</time></trkpt><trkpt lat="44.853641960297416" lon="9.625581317347866"><ele>226.0</ele><time>2026-04-30T07:31:22.998Z</time></trkpt><trkpt lat="44.85349196039402" lon="9.625335364593509"><ele>227.5</ele><time>2026-04-30T07:31:23.998Z</time></trkpt><trkpt lat="44.85333930206059" lon="9.625085935892228"><ele>229.0</ele><time>2026-04-30T07:31:24.998Z</time></trkpt><trkpt lat="44.85319222170445" lon="9.624849552565667"><ele>229.0</ele><time>2026-04-30T07:31:25.998Z</time></trkpt><trkpt lat="44.853050604091834" lon="9.624629653158468"><ele>229.0</ele><time>2026-04-30T07:31:26.998Z</time></trkpt><trkpt lat="44.852897002025585" lon="9.624417041255207"><ele>229.0</ele><time>2026-04-30T07:31:27.998Z</time></trkpt><trkpt lat="44.85274409417283" lon="9.62423132795819"><ele>232.0</ele><time>2026-04-30T07:31:28.998Z</time></trkpt><trkpt lat="44.85256688883868" lon="9.624048010502722"><ele>235.0</ele><time>2026-04-30T07:31:29.998Z</time></trkpt><trkpt lat="44.8523719153165" lon="9.623889551192239"><ele>238.0</ele><time>2026-04-30T07:31:30.998Z</time></trkpt><trkpt lat="44.85216216922342" lon="9.623741053545002"><ele>235.5</ele><time>2026-04-30T07:31:31.998Z</time></trkpt><trkpt lat="44.851947272332275" lon="9.623618352377683"><ele>233.0</ele><time>2026-04-30T07:31:32.998Z</time></trkpt><trkpt lat="44.85172151742222" lon="9.623516037768526"><ele>233.0</ele><time>2026-04-30T07:31:33.998Z</time></trkpt><trkpt lat="44.85150476748424" lon="9.623402021055032"><ele>233.0</ele><time>2026-04-30T07:31:34.998Z</time></trkpt><trkpt lat="44.8513130163763" lon="9.623318766008984"><ele>233.0</ele><time>2026-04-30T07:31:35.998Z</time></trkpt><trkpt lat="44.85112513377258" lon="9.623203634180122"><ele>235.33333333333334</ele><time>2026-04-30T07:31:36.998Z</time></trkpt><trkpt lat="44.85091663786378" lon="9.623099737389069"><ele>237.66666666666669</ele><time>2026-04-30T07:31:37.998Z</time></trkpt><trkpt lat="44.850716190602405" lon="9.622999851416811"><ele>240.0</ele><time>2026-04-30T07:31:38.998Z</time></trkpt><trkpt lat="44.85051626970289" lon="9.62289833811654"><ele>239.66666666666669</ele><time>2026-04-30T07:31:39.998Z</time></trkpt><trkpt lat="44.8503038643968" lon="9.622789303422909"><ele>239.33333333333334</ele><time>2026-04-30T07:31:40.998Z</time></trkpt><trkpt lat="44.85010531933276" lon="9.622680608642918"><ele>239.0</ele><time>2026-04-30T07:31:41.998Z</time></trkpt><trkpt lat="44.84991164618718" lon="9.622559253225466"><ele>239.0</ele><time>2026-04-30T07:31:42.998Z</time></trkpt><trkpt lat="44.84971377429561" lon="9.622418521046097"><ele>239.0</ele><time>2026-04-30T07:31:43.998Z</time></trkpt><trkpt lat="44.84954246321863" lon="9.622267996103988"><ele>239.0</ele><time>2026-04-30T07:31:44.998Z</time></trkpt><trkpt lat="44.8493658096724" lon="9.622086346465766"><ele>238.0</ele><time>2026-04-30T07:31:45.998Z</time></trkpt><trkpt lat="44.849186828133526" lon="9.621878879320159"><ele>237.0</ele><time>2026-04-30T07:31:46.998Z</time></trkpt><trkpt lat="44.849012228460836" lon="9.621663512983226"><ele>237.0</ele><time>2026-04-30T07:31:47.998Z</time></trkpt><trkpt lat="44.84883222543052" lon="9.621439350714812"><ele>237.0</ele><time>2026-04-30T07:31:48.998Z</time></trkpt><trkpt lat="44.848657276256354" lon="9.621219933623228"><ele>236.0</ele><time>2026-04-30T07:31:49.998Z</time></trkpt><trkpt lat="44.848488678325346" lon="9.62100964508742"><ele>235.0</ele><time>2026-04-30T07:31:50.998Z</time></trkpt><trkpt lat="44.84828625824866" lon="9.620847374887225"><ele>235.0</ele><time>2026-04-30T07:31:51.998Z</time></trkpt><trkpt lat="44.84810742575583" lon="9.620617906846075"><ele>235.0</ele><time>2026-04-30T07:31:52.998Z</time></trkpt><trkpt lat="44.847928281329615" lon="9.620407592632999"><ele>233.0</ele><time>2026-04-30T07:31:53.998Z</time></trkpt><trkpt lat="44.847754115365" lon="9.620169153368781"><ele>231.0</ele><time>2026-04-30T07:31:54.998Z</time></trkpt><trkpt lat="44.84760492136603" lon="9.619902625245164"><ele>232.0</ele><time>2026-04-30T07:31:55.998Z</time></trkpt><trkpt lat="44.84743176031065" lon="9.61967957997972"><ele>233.0</ele><time>2026-04-30T07:31:56.998Z</time></trkpt><trkpt lat="44.847249836510365" lon="9.619445247722291"><ele>233.0</ele><time>2026-04-30T07:31:57.998Z</time></trkpt><trkpt lat="44.84708701217042" lon="9.619235648254067"><ele>233.0</ele><time>2026-04-30T07:31:58.998Z</time></trkpt><trkpt lat="44.84692245653753" lon="9.619023859496341"><ele>233.0</ele><time>2026-04-30T07:31:59.998Z</time></trkpt><trkpt lat="44.846752174952044" lon="9.618804700575375"><ele>234.66666666666669</ele><time>2026-04-30T07:32:00.998Z</time></trkpt><trkpt lat="44.846587989843876" lon="9.618593388430297"><ele>236.33333333333331</ele><time>2026-04-30T07:32:01.998Z</time></trkpt><trkpt lat="44.846430752054864" lon="9.61839101780017"><ele>238.0</ele><time>2026-04-30T07:32:02.998Z</time></trkpt><trkpt lat="44.8463101353686" lon="9.61823577986303"><ele>238.0</ele><time>2026-04-30T07:32:03.998Z</time></trkpt><trkpt lat="44.84618720348655" lon="9.618077562107212"><ele>238.0</ele><time>2026-04-30T07:32:04.998Z</time></trkpt><trkpt lat="44.84606810831185" lon="9.617924282365086"><ele>238.0</ele><time>2026-04-30T07:32:05.998Z</time></trkpt><trkpt lat="44.84595869182479" lon="9.617783459300078"><ele>238.33333333333331</ele><time>2026-04-30T07:32:06.998Z</time></trkpt><trkpt lat="44.84584233770874" lon="9.617633707432976"><ele>238.66666666666669</ele><time>2026-04-30T07:32:07.998Z</time></trkpt><trkpt lat="44.8457247237019" lon="9.617482333991388"><ele>239.0</ele><time>2026-04-30T07:32:08.998Z</time></trkpt><trkpt lat="44.845599353155826" lon="9.617320977524338"><ele>239.0</ele><time>2026-04-30T07:32:09.998Z</time></trkpt><trkpt lat="44.845476047148395" lon="9.617162278144434"><ele>239.0</ele><time>2026-04-30T07:32:10.998Z</time></trkpt><trkpt lat="44.845346460259954" lon="9.616995495318845"><ele>239.0</ele><time>2026-04-30T07:32:11.998Z</time></trkpt><trkpt lat="44.8452105337337" lon="9.616820553130623"><ele>240.33333333333334</ele><time>2026-04-30T07:32:12.998Z</time></trkpt><trkpt lat="44.84507077429311" lon="9.616640356092013"><ele>241.66666666666669</ele><time>2026-04-30T07:32:13.998Z</time></trkpt><trkpt lat="44.844912568465205" lon="9.616436316622492"><ele>243.0</ele><time>2026-04-30T07:32:15.001Z</time></trkpt><trkpt lat="44.8447558441801" lon="9.616233112763231"><ele>241.33333333333331</ele><time>2026-04-30T07:32:16.001Z</time></trkpt><trkpt lat="44.84460110253616" lon="9.616030188280622"><ele>239.66666666666666</ele><time>2026-04-30T07:32:17.001Z</time></trkpt><trkpt lat="44.84445689732316" lon="9.615829738232529"><ele>238.0</ele><time>2026-04-30T07:32:18.001Z</time></trkpt><trkpt lat="44.84432850653024" lon="9.615630397786582"><ele>240.33333333333331</ele><time>2026-04-30T07:32:19.001Z</time></trkpt><trkpt lat="44.8442097292949" lon="9.615425772551264"><ele>242.66666666666669</ele><time>2026-04-30T07:32:20.001Z</time></trkpt><trkpt lat="44.84409058250892" lon="9.615208642510193"><ele>245.0</ele><time>2026-04-30T07:32:21.001Z</time></trkpt><trkpt lat="44.8439671273798" lon="9.614975985684616"><ele>245.0</ele><time>2026-04-30T07:32:22.001Z</time></trkpt><trkpt lat="44.84383777494357" lon="9.614726853553735"><ele>245.0</ele><time>2026-04-30T07:32:23.001Z</time></trkpt><trkpt lat="44.8437061392198" lon="9.61448766295055"><ele>245.0</ele><time>2026-04-30T07:32:24.001Z</time></trkpt><trkpt lat="44.84358129983184" lon="9.614233768618439"><ele>244.33333333333334</ele><time>2026-04-30T07:32:25.001Z</time></trkpt><trkpt lat="44.84344755919305" lon="9.61398432703567"><ele>243.66666666666669</ele><time>2026-04-30T07:32:26.001Z</time></trkpt><trkpt lat="44.843314431804345" lon="9.613739056251308"><ele>243.0</ele><time>2026-04-30T07:32:27.001Z</time></trkpt><trkpt lat="44.84317359837328" lon="9.613503272334317"><ele>243.0</ele><time>2026-04-30T07:32:28.001Z</time></trkpt><trkpt lat="44.84301873062214" lon="9.613316497464165"><ele>243.0</ele><time>2026-04-30T07:32:29.001Z</time></trkpt><trkpt lat="44.84286966298555" lon="9.613111112895309"><ele>243.0</ele><time>2026-04-30T07:32:30.001Z</time></trkpt><trkpt lat="44.84269774228924" lon="9.612935888532117"><ele>242.33333333333331</ele><time>2026-04-30T07:32:31Z</time></trkpt><trkpt lat="44.842525733017794" lon="9.612767199433783"><ele>241.66666666666666</ele><time>2026-04-30T07:32:32Z</time></trkpt><trkpt lat="44.84233830155424" lon="9.612584453272603"><ele>241.0</ele><time>2026-04-30T07:32:33Z</time></trkpt><trkpt lat="44.84214434003807" lon="9.612461096019084"><ele>241.0</ele><time>2026-04-30T07:32:34Z</time></trkpt><trkpt lat="44.84193818920802" lon="9.612353350545245"><ele>241.0</ele><time>2026-04-30T07:32:35Z</time></trkpt><trkpt lat="44.84172702877757" lon="9.612284250027143"><ele>241.0</ele><time>2026-04-30T07:32:36Z</time></trkpt><trkpt lat="44.841518421855596" lon="9.612196831820603"><ele>243.0</ele><time>2026-04-30T07:32:37Z</time></trkpt><trkpt lat="44.84130480400432" lon="9.612145358205641"><ele>245.0</ele><time>2026-04-30T07:32:38Z</time></trkpt><trkpt lat="44.84111623813213" lon="9.612116994956388"><ele>247.0</ele><time>2026-04-30T07:32:39Z</time></trkpt><trkpt lat="44.84091181814026" lon="9.612090550275196"><ele>248.33333333333331</ele><time>2026-04-30T07:32:40Z</time></trkpt><trkpt lat="44.84070367216571" lon="9.6120652192443"><ele>249.66666666666669</ele><time>2026-04-30T07:32:41Z</time></trkpt><trkpt lat="44.84049683268472" lon="9.612042209678075"><ele>251.0</ele><time>2026-04-30T07:32:42Z</time></trkpt><trkpt lat="44.84030597778392" lon="9.612020239753184"><ele>251.33333333333334</ele><time>2026-04-30T07:32:43Z</time></trkpt><trkpt lat="44.84010918095625" lon="9.611995657197443"><ele>251.66666666666669</ele><time>2026-04-30T07:32:44Z</time></trkpt><trkpt lat="44.83989668241581" lon="9.61197499318656"><ele>252.0</ele><time>2026-04-30T07:32:45Z</time></trkpt><trkpt lat="44.83969231293641" lon="9.611971324373462"><ele>253.0</ele><time>2026-04-30T07:32:46Z</time></trkpt><trkpt lat="44.839491587860735" lon="9.61198190868508"><ele>254.0</ele><time>2026-04-30T07:32:47Z</time></trkpt><trkpt lat="44.83929371732793" lon="9.612004587502103"><ele>255.0</ele><time>2026-04-30T07:32:48Z</time></trkpt><trkpt lat="44.839092116165084" lon="9.61203754061646"><ele>255.0</ele><time>2026-04-30T07:32:49Z</time></trkpt><trkpt lat="44.83886904955104" lon="9.612091945346382"><ele>255.0</ele><time>2026-04-30T07:32:50Z</time></trkpt><trkpt lat="44.83866401222762" lon="9.612155421790087"><ele>255.0</ele><time>2026-04-30T07:32:51Z</time></trkpt><trkpt lat="44.83847734006535" lon="9.612225289219438"><ele>255.0</ele><time>2026-04-30T07:32:52Z</time></trkpt><trkpt lat="44.83828844559566" lon="9.612310931000113"><ele>255.0</ele><time>2026-04-30T07:32:53Z</time></trkpt><trkpt lat="44.83810017033142" lon="9.612415313574072"><ele>255.0</ele><time>2026-04-30T07:32:54Z</time></trkpt><trkpt lat="44.837909650812364" lon="9.612524038352328"><ele>255.0</ele><time>2026-04-30T07:32:55Z</time></trkpt><trkpt lat="44.837728824072265" lon="9.612641894463737"><ele>255.0</ele><time>2026-04-30T07:32:56Z</time></trkpt><trkpt lat="44.83754387640679" lon="9.61277519656289"><ele>255.0</ele><time>2026-04-30T07:32:57Z</time></trkpt><trkpt lat="44.83734897951893" lon="9.612917022348558"><ele>258.0</ele><time>2026-04-30T07:32:58Z</time></trkpt><trkpt lat="44.83714458819868" lon="9.61306123089312"><ele>261.0</ele><time>2026-04-30T07:32:59Z</time></trkpt><trkpt lat="44.83693089655939" lon="9.613212210008577"><ele>258.0</ele><time>2026-04-30T07:33:00Z</time></trkpt><trkpt lat="44.836725455944" lon="9.613357479293217"><ele>255.0</ele><time>2026-04-30T07:33:01Z</time></trkpt><trkpt lat="44.83651922930189" lon="9.613495696798301"><ele>255.0</ele><time>2026-04-30T07:33:02Z</time></trkpt><trkpt lat="44.83631367700173" lon="9.613652514715037"><ele>255.0</ele><time>2026-04-30T07:33:03Z</time></trkpt><trkpt lat="44.836119549393196" lon="9.6138149389116"><ele>257.0</ele><time>2026-04-30T07:33:04Z</time></trkpt><trkpt lat="44.83589345934972" lon="9.613938456584728"><ele>259.0</ele><time>2026-04-30T07:33:05Z</time></trkpt><trkpt lat="44.83570143636196" lon="9.614103831316951"><ele>259.0</ele><time>2026-04-30T07:33:06Z</time></trkpt><trkpt lat="44.83548501355464" lon="9.614262326252886"><ele>259.0</ele><time>2026-04-30T07:33:07Z</time></trkpt><trkpt lat="44.83527752132504" lon="9.614371751537217"><ele>263.0</ele><time>2026-04-30T07:33:08Z</time></trkpt><trkpt lat="44.83506617532598" lon="9.61452542609021"><ele>267.0</ele><time>2026-04-30T07:33:09Z</time></trkpt><trkpt lat="44.834869953570866" lon="9.614674021301367"><ele>267.0</ele><time>2026-04-30T07:33:10Z</time></trkpt><trkpt lat="44.83466509150661" lon="9.614796474300729"><ele>267.0</ele><time>2026-04-30T07:33:11Z</time></trkpt><trkpt lat="44.83448005990327" lon="9.614990004384648"><ele>267.0</ele><time>2026-04-30T07:33:12Z</time></trkpt><trkpt lat="44.834320618862755" lon="9.615136479209518"><ele>267.0</ele><time>2026-04-30T07:33:13Z</time></trkpt><trkpt lat="44.83414539764067" lon="9.61533600697444"><ele>267.0</ele><time>2026-04-30T07:33:14Z</time></trkpt><trkpt lat="44.8339941550652" lon="9.615521374764553"><ele>268.6666666666667</ele><time>2026-04-30T07:33:15Z</time></trkpt><trkpt lat="44.833844712107556" lon="9.615693131969378"><ele>270.33333333333337</ele><time>2026-04-30T07:33:16Z</time></trkpt><trkpt lat="44.83368977875493" lon="9.61587974498769"><ele>272.0</ele><time>2026-04-30T07:33:17Z</time></trkpt><trkpt lat="44.833539052536615" lon="9.616072462781803"><ele>271.6666666666667</ele><time>2026-04-30T07:33:18Z</time></trkpt><trkpt lat="44.83336091107745" lon="9.616244161758006"><ele>271.3333333333333</ele><time>2026-04-30T07:33:19Z</time></trkpt><trkpt lat="44.83318141881114" lon="9.616402684227829"><ele>271.0</ele><time>2026-04-30T07:33:20Z</time></trkpt><trkpt lat="44.832996556653484" lon="9.616526177725884"><ele>271.0</ele><time>2026-04-30T07:33:20.999Z</time></trkpt><trkpt lat="44.832808088664564" lon="9.616635183726352"><ele>271.0</ele><time>2026-04-30T07:33:21.999Z</time></trkpt><trkpt lat="44.83261675306402" lon="9.61672432060446"><ele>271.0</ele><time>2026-04-30T07:33:22.999Z</time></trkpt><trkpt lat="44.83243009105947" lon="9.616808464708539"><ele>268.0</ele><time>2026-04-30T07:33:23.999Z</time></trkpt><trkpt lat="44.83224054723482" lon="9.616895070486692"><ele>265.0</ele><time>2026-04-30T07:33:24.999Z</time></trkpt><trkpt lat="44.83203914959678" lon="9.616914066216369"><ele>262.0</ele><time>2026-04-30T07:33:25.999Z</time></trkpt><trkpt lat="44.83185553552548" lon="9.616945613661905"><ele>262.0</ele><time>2026-04-30T07:33:26.999Z</time></trkpt><trkpt lat="44.83166154534434" lon="9.61694260725253"><ele>262.0</ele><time>2026-04-30T07:33:27.999Z</time></trkpt><trkpt lat="44.83147154806576" lon="9.616955740116905"><ele>262.0</ele><time>2026-04-30T07:33:28.999Z</time></trkpt><trkpt lat="44.83130064954295" lon="9.616967107889462"><ele>262.0</ele><time>2026-04-30T07:33:29.999Z</time></trkpt><trkpt lat="44.831130457761816" lon="9.61697672551206"><ele>262.0</ele><time>2026-04-30T07:33:30.999Z</time></trkpt><trkpt lat="44.8309425655114" lon="9.616987343399545"><ele>262.0</ele><time>2026-04-30T07:33:31.999Z</time></trkpt><trkpt lat="44.830769465956436" lon="9.616998430653464"><ele>267.3333333333333</ele><time>2026-04-30T07:33:32.999Z</time></trkpt><trkpt lat="44.83058761772652" lon="9.617016704813745"><ele>272.6666666666667</ele><time>2026-04-30T07:33:33.999Z</time></trkpt><trkpt lat="44.830394143718735" lon="9.617048814741407"><ele>278.0</ele><time>2026-04-30T07:33:34.999Z</time></trkpt><trkpt lat="44.83020215868554" lon="9.617092940207135"><ele>277.33333333333337</ele><time>2026-04-30T07:33:35.999Z</time></trkpt><trkpt lat="44.83001841113515" lon="9.61714899343456"><ele>276.6666666666667</ele><time>2026-04-30T07:33:36.999Z</time></trkpt><trkpt lat="44.82983369911666" lon="9.617244081088334"><ele>276.0</ele><time>2026-04-30T07:33:37.999Z</time></trkpt><trkpt lat="44.82964509547293" lon="9.61731315037402"><ele>276.0</ele><time>2026-04-30T07:33:38.999Z</time></trkpt><trkpt lat="44.82946314943949" lon="9.617415900946481"><ele>276.0</ele><time>2026-04-30T07:33:39.999Z</time></trkpt><trkpt lat="44.82929971100598" lon="9.617522975931054"><ele>276.0</ele><time>2026-04-30T07:33:40.999Z</time></trkpt><trkpt lat="44.829135927912446" lon="9.617645019867918"><ele>273.0</ele><time>2026-04-30T07:33:41.999Z</time></trkpt><trkpt lat="44.82898113093544" lon="9.61777660459279"><ele>270.0</ele><time>2026-04-30T07:33:42.999Z</time></trkpt><trkpt lat="44.828842157782084" lon="9.61793518789563"><ele>267.0</ele><time>2026-04-30T07:33:43.999Z</time></trkpt><trkpt lat="44.82869006215124" lon="9.618044891436146"><ele>267.3333333333333</ele><time>2026-04-30T07:33:44.999Z</time></trkpt><trkpt lat="44.82855846796954" lon="9.61822204568972"><ele>267.66666666666663</ele><time>2026-04-30T07:33:45.999Z</time></trkpt><trkpt lat="44.82840828578892" lon="9.618360696327558"><ele>268.0</ele><time>2026-04-30T07:33:46.999Z</time></trkpt><trkpt lat="44.828273158974405" lon="9.618505738502124"><ele>273.66666666666663</ele><time>2026-04-30T07:33:47.999Z</time></trkpt><trkpt lat="44.8281295512233" lon="9.618653407796119"><ele>279.3333333333333</ele><time>2026-04-30T07:33:48.999Z</time></trkpt><trkpt lat="44.82798720890838" lon="9.618795614385549"><ele>285.0</ele><time>2026-04-30T07:33:49.999Z</time></trkpt><trkpt lat="44.8278416541136" lon="9.61893797627988"><ele>285.0</ele><time>2026-04-30T07:33:50.999Z</time></trkpt><trkpt lat="44.8276895403635" lon="9.619078562890822"><ele>285.0</ele><time>2026-04-30T07:33:51.999Z</time></trkpt><trkpt lat="44.82755234207177" lon="9.619196275811168"><ele>285.0</ele><time>2026-04-30T07:33:52.999Z</time></trkpt><trkpt lat="44.82739639933848" lon="9.61931439875152"><ele>286.0</ele><time>2026-04-30T07:33:53.999Z</time></trkpt><trkpt lat="44.82723869952721" lon="9.619421300670595"><ele>287.0</ele><time>2026-04-30T07:33:54.999Z</time></trkpt><trkpt lat="44.82709394458664" lon="9.619512021391996"><ele>288.0</ele><time>2026-04-30T07:33:55.999Z</time></trkpt><trkpt lat="44.82693774101894" lon="9.619602222491254"><ele>283.6666666666667</ele><time>2026-04-30T07:33:56.999Z</time></trkpt><trkpt lat="44.826781331793164" lon="9.619684702915729"><ele>279.33333333333337</ele><time>2026-04-30T07:33:57.999Z</time></trkpt><trkpt lat="44.82661672988211" lon="9.619761672880406"><ele>275.0</ele><time>2026-04-30T07:33:58.999Z</time></trkpt><trkpt lat="44.82645010050846" lon="9.619829348597104"><ele>275.0</ele><time>2026-04-30T07:33:59.999Z</time></trkpt><trkpt lat="44.82629716910223" lon="9.619885087547145"><ele>275.0</ele><time>2026-04-30T07:34:00.999Z</time></trkpt><trkpt lat="44.82613810718041" lon="9.619935800282548"><ele>275.0</ele><time>2026-04-30T07:34:01.999Z</time></trkpt><trkpt lat="44.82596071011024" lon="9.619981967775285"><ele>272.0</ele><time>2026-04-30T07:34:02.999Z</time></trkpt><trkpt lat="44.82576904377474" lon="9.620021141126138"><ele>269.0</ele><time>2026-04-30T07:34:03.999Z</time></trkpt><trkpt lat="44.82557052617598" lon="9.620051884570676"><ele>266.0</ele><time>2026-04-30T07:34:04.999Z</time></trkpt><trkpt lat="44.82538825154099" lon="9.620068220870582"><ele>266.0</ele><time>2026-04-30T07:34:05.999Z</time></trkpt><trkpt lat="44.82516546886801" lon="9.620074478786078"><ele>266.0</ele><time>2026-04-30T07:34:06.999Z</time></trkpt><trkpt lat="44.824993287901144" lon="9.620072870713232"><ele>266.0</ele><time>2026-04-30T07:34:07.999Z</time></trkpt><trkpt lat="44.82480859301002" lon="9.620069031400105"><ele>266.0</ele><time>2026-04-30T07:34:08.999Z</time></trkpt><trkpt lat="44.82462245100127" lon="9.620064146431949"><ele>266.0</ele><time>2026-04-30T07:34:09.999Z</time></trkpt><trkpt lat="44.82443628682907" lon="9.620059906378895"><ele>266.0</ele><time>2026-04-30T07:34:10.999Z</time></trkpt><trkpt lat="44.824268272153745" lon="9.62005607798501"><ele>265.6666666666667</ele><time>2026-04-30T07:34:11.999Z</time></trkpt><trkpt lat="44.82409020692636" lon="9.620052020583072"><ele>265.3333333333333</ele><time>2026-04-30T07:34:12.999Z</time></trkpt><trkpt lat="44.82390466961221" lon="9.620047792923817"><ele>265.0</ele><time>2026-04-30T07:34:13.999Z</time></trkpt><trkpt lat="44.82371718579396" lon="9.620043520913596"><ele>265.0</ele><time>2026-04-30T07:34:14.999Z</time></trkpt><trkpt lat="44.823534097646565" lon="9.620039349064365"><ele>265.0</ele><time>2026-04-30T07:34:15.999Z</time></trkpt><trkpt lat="44.82335810460838" lon="9.620035338877457"><ele>265.0</ele><time>2026-04-30T07:34:16.999Z</time></trkpt><trkpt lat="44.82316800995188" lon="9.620031007384531"><ele>265.66666666666663</ele><time>2026-04-30T07:34:17.999Z</time></trkpt><trkpt lat="44.823010075073725" lon="9.620027408680572"><ele>266.3333333333333</ele><time>2026-04-30T07:34:18.999Z</time></trkpt><trkpt lat="44.82281782295781" lon="9.620023028114863"><ele>267.0</ele><time>2026-04-30T07:34:19.999Z</time></trkpt><trkpt lat="44.822621901210816" lon="9.620017997476456"><ele>268.3333333333333</ele><time>2026-04-30T07:34:20.999Z</time></trkpt><trkpt lat="44.82244970362523" lon="9.620013593418333"><ele>269.66666666666663</ele><time>2026-04-30T07:34:21.999Z</time></trkpt><trkpt lat="44.82226790511899" lon="9.620009183238155"><ele>271.0</ele><time>2026-04-30T07:34:22.999Z</time></trkpt><trkpt lat="44.82209303400609" lon="9.620005015345848"><ele>271.0</ele><time>2026-04-30T07:34:23.999Z</time></trkpt><trkpt lat="44.82188494261761" lon="9.620000055672703"><ele>271.0</ele><time>2026-04-30T07:34:24.999Z</time></trkpt><trkpt lat="44.82169753362684" lon="9.61999558893339"><ele>271.0</ele><time>2026-04-30T07:34:25.999Z</time></trkpt><trkpt lat="44.82151796976909" lon="9.619987009969373"><ele>270.66666666666663</ele><time>2026-04-30T07:34:26.999Z</time></trkpt><trkpt lat="44.82135034494008" lon="9.619973583273392"><ele>270.3333333333333</ele><time>2026-04-30T07:34:27.999Z</time></trkpt><trkpt lat="44.82117997379821" lon="9.619954057244502"><ele>270.0</ele><time>2026-04-30T07:34:28.999Z</time></trkpt><trkpt lat="44.82100270109887" lon="9.619927636489155"><ele>271.0</ele><time>2026-04-30T07:34:29.999Z</time></trkpt><trkpt lat="44.82081932792696" lon="9.619893593072296"><ele>272.0</ele><time>2026-04-30T07:34:30.999Z</time></trkpt><trkpt lat="44.820645837952135" lon="9.619851660087988"><ele>273.0</ele><time>2026-04-30T07:34:31.999Z</time></trkpt><trkpt lat="44.8204819160874" lon="9.61980426003496"><ele>273.0</ele><time>2026-04-30T07:34:32.999Z</time></trkpt><trkpt lat="44.82030604563123" lon="9.61974702381982"><ele>273.0</ele><time>2026-04-30T07:34:33.999Z</time></trkpt><trkpt lat="44.82012402343947" lon="9.619683027809044"><ele>273.0</ele><time>2026-04-30T07:34:34.999Z</time></trkpt><trkpt lat="44.81995471709762" lon="9.619620251602639"><ele>274.0</ele><time>2026-04-30T07:34:35.999Z</time></trkpt><trkpt lat="44.81978602018132" lon="9.619557701430399"><ele>275.0</ele><time>2026-04-30T07:34:36.999Z</time></trkpt><trkpt lat="44.819616503004795" lon="9.619494848884933"><ele>276.0</ele><time>2026-04-30T07:34:37.999Z</time></trkpt><trkpt lat="44.81944094715231" lon="9.619429755497912"><ele>274.6666666666667</ele><time>2026-04-30T07:34:38.999Z</time></trkpt><trkpt lat="44.81925881154686" lon="9.61936222243363"><ele>273.33333333333337</ele><time>2026-04-30T07:34:39.999Z</time></trkpt><trkpt lat="44.81908839056126" lon="9.619299033082696"><ele>272.0</ele><time>2026-04-30T07:34:40.999Z</time></trkpt><trkpt lat="44.81890701152603" lon="9.61923178095707"><ele>272.0</ele><time>2026-04-30T07:34:41.999Z</time></trkpt><trkpt lat="44.81872698005886" lon="9.619165028602035"><ele>272.0</ele><time>2026-04-30T07:34:42.999Z</time></trkpt><trkpt lat="44.81849776419412" lon="9.61908003942372"><ele>272.0</ele><time>2026-04-30T07:34:43.999Z</time></trkpt><trkpt lat="44.818249298072686" lon="9.618987912632186"><ele>275.5</ele><time>2026-04-30T07:34:44.999Z</time></trkpt><trkpt lat="44.817991572879066" lon="9.618892201796756"><ele>279.0</ele><time>2026-04-30T07:34:45.999Z</time></trkpt><trkpt lat="44.81773459322507" lon="9.618796625986313"><ele>279.5</ele><time>2026-04-30T07:34:46.999Z</time></trkpt><trkpt lat="44.81747656750753" lon="9.618700661238506"><ele>280.0</ele><time>2026-04-30T07:34:47.999Z</time></trkpt><trkpt lat="44.817238796348846" lon="9.618612229469548"><ele>278.5</ele><time>2026-04-30T07:34:48.999Z</time></trkpt><trkpt lat="44.81700066358541" lon="9.618523663240161"><ele>277.0</ele><time>2026-04-30T07:34:49.999Z</time></trkpt><trkpt lat="44.81676917364913" lon="9.618437775856782"><ele>277.0</ele><time>2026-04-30T07:34:50.999Z</time></trkpt><trkpt lat="44.816530440158814" lon="9.618349316350102"><ele>277.0</ele><time>2026-04-30T07:34:51.999Z</time></trkpt><trkpt lat="44.816288538302764" lon="9.618258176660602"><ele>277.0</ele><time>2026-04-30T07:34:52.999Z</time></trkpt><trkpt lat="44.8160491196456" lon="9.618167056995624"><ele>277.0</ele><time>2026-04-30T07:34:53.999Z</time></trkpt><trkpt lat="44.81580344117526" lon="9.618077252368435"><ele>280.0</ele><time>2026-04-30T07:34:54.999Z</time></trkpt><trkpt lat="44.81556168684013" lon="9.617986615967428"><ele>283.0</ele><time>2026-04-30T07:34:55.999Z</time></trkpt><trkpt lat="44.81532100842487" lon="9.617885014701967"><ele>278.5</ele><time>2026-04-30T07:34:56.999Z</time></trkpt><trkpt lat="44.81509659032581" lon="9.617781771519128"><ele>274.0</ele><time>2026-04-30T07:34:57.999Z</time></trkpt><trkpt lat="44.814867799718954" lon="9.617666287512627"><ele>274.0</ele><time>2026-04-30T07:34:58.999Z</time></trkpt><trkpt lat="44.81463843027869" lon="9.61753537315745"><ele>274.0</ele><time>2026-04-30T07:34:59.999Z</time></trkpt><trkpt lat="44.8144210903629" lon="9.61740578340414"><ele>277.5</ele><time>2026-04-30T07:35:00.999Z</time></trkpt><trkpt lat="44.814213669319216" lon="9.617275136215236"><ele>281.0</ele><time>2026-04-30T07:35:01.999Z</time></trkpt><trkpt lat="44.814002892271496" lon="9.617130145213986"><ele>276.5</ele><time>2026-04-30T07:35:02.999Z</time></trkpt><trkpt lat="44.81378500493464" lon="9.616973164858866"><ele>272.0</ele><time>2026-04-30T07:35:03.999Z</time></trkpt><trkpt lat="44.8135688590002" lon="9.616816192381233"><ele>274.5</ele><time>2026-04-30T07:35:04.999Z</time></trkpt><trkpt lat="44.81336417623448" lon="9.616667544737123"><ele>277.0</ele><time>2026-04-30T07:35:05.999Z</time></trkpt><trkpt lat="44.81313594203224" lon="9.616502249271457"><ele>277.0</ele><time>2026-04-30T07:35:06.999Z</time></trkpt><trkpt lat="44.81292126146776" lon="9.616347654967106"><ele>277.0</ele><time>2026-04-30T07:35:07.999Z</time></trkpt><trkpt lat="44.81269357996987" lon="9.61618369826621"><ele>278.5</ele><time>2026-04-30T07:35:08.999Z</time></trkpt><trkpt lat="44.812489027238435" lon="9.61603639687298"><ele>280.0</ele><time>2026-04-30T07:35:09.999Z</time></trkpt><trkpt lat="44.812270864697574" lon="9.615879294921852"><ele>280.0</ele><time>2026-04-30T07:35:10.999Z</time></trkpt><trkpt lat="44.81206767093827" lon="9.615733191484331"><ele>280.0</ele><time>2026-04-30T07:35:11.999Z</time></trkpt><trkpt lat="44.811866580863786" lon="9.615589311472895"><ele>279.5</ele><time>2026-04-30T07:35:12.999Z</time></trkpt><trkpt lat="44.81163880250767" lon="9.615426335855883"><ele>279.0</ele><time>2026-04-30T07:35:13.999Z</time></trkpt><trkpt lat="44.811435029834676" lon="9.615280536253799"><ele>279.0</ele><time>2026-04-30T07:35:14.999Z</time></trkpt><trkpt lat="44.81121018636277" lon="9.615119486952354"><ele>279.0</ele><time>2026-04-30T07:35:15.999Z</time></trkpt><trkpt lat="44.81099288610093" lon="9.614963762683223"><ele>282.0</ele><time>2026-04-30T07:35:16.999Z</time></trkpt><trkpt lat="44.81077530740751" lon="9.61481262661837"><ele>285.0</ele><time>2026-04-30T07:35:17.999Z</time></trkpt><trkpt lat="44.81056488930516" lon="9.614684249572063"><ele>285.0</ele><time>2026-04-30T07:35:18.999Z</time></trkpt><trkpt lat="44.81034914983879" lon="9.614674919193599"><ele>285.0</ele><time>2026-04-30T07:35:19.999Z</time></trkpt><trkpt lat="44.810145427945905" lon="9.614554440924207"><ele>285.0</ele><time>2026-04-30T07:35:20.999Z</time></trkpt><trkpt lat="44.80992634473301" lon="9.614522066309137"><ele>285.0</ele><time>2026-04-30T07:35:21.999Z</time></trkpt><trkpt lat="44.809723762279795" lon="9.614430433365396"><ele>285.0</ele><time>2026-04-30T07:35:22.999Z</time></trkpt><trkpt lat="44.80951694930059" lon="9.614362752822208"><ele>285.0</ele><time>2026-04-30T07:35:23.999Z</time></trkpt><trkpt lat="44.80931696503484" lon="9.614313069045554"><ele>285.0</ele><time>2026-04-30T07:35:24.998Z</time></trkpt><trkpt lat="44.80911760419869" lon="9.614259136476944"><ele>285.0</ele><time>2026-04-30T07:35:25.998Z</time></trkpt><trkpt lat="44.808933003276" lon="9.614254148391069"><ele>285.0</ele><time>2026-04-30T07:35:26.998Z</time></trkpt><trkpt lat="44.80874317621688" lon="9.61421613768101"><ele>285.0</ele><time>2026-04-30T07:35:27.998Z</time></trkpt><trkpt lat="44.808543521384436" lon="9.61410512415289"><ele>285.0</ele><time>2026-04-30T07:35:28.998Z</time></trkpt><trkpt lat="44.808343282904794" lon="9.61405864629058"><ele>285.0</ele><time>2026-04-30T07:35:29.998Z</time></trkpt><trkpt lat="44.80812064944718" lon="9.614006970265383"><ele>285.3333333333333</ele><time>2026-04-30T07:35:30.998Z</time></trkpt><trkpt lat="44.80791412434884" lon="9.613959602451514"><ele>285.66666666666663</ele><time>2026-04-30T07:35:31.998Z</time></trkpt><trkpt lat="44.80770414146686" lon="9.613912120902977"><ele>286.0</ele><time>2026-04-30T07:35:32.998Z</time></trkpt><trkpt lat="44.807499588953995" lon="9.613865867262398"><ele>288.66666666666663</ele><time>2026-04-30T07:35:33.998Z</time></trkpt><trkpt lat="44.807280595105404" lon="9.61381634826475"><ele>291.3333333333333</ele><time>2026-04-30T07:35:34.998Z</time></trkpt><trkpt lat="44.807057530390736" lon="9.61376608909635"><ele>294.0</ele><time>2026-04-30T07:35:35.998Z</time></trkpt><trkpt lat="44.806826366860875" lon="9.61371449329712"><ele>296.0</ele><time>2026-04-30T07:35:36.998Z</time></trkpt><trkpt lat="44.80662504490413" lon="9.613669558111749"><ele>298.0</ele><time>2026-04-30T07:35:37.998Z</time></trkpt><trkpt lat="44.80638734530154" lon="9.61361556516819"><ele>300.0</ele><time>2026-04-30T07:35:38.998Z</time></trkpt><trkpt lat="44.80616229089597" lon="9.613562789525952"><ele>293.5</ele><time>2026-04-30T07:35:39.998Z</time></trkpt><trkpt lat="44.805923622085935" lon="9.613617987363622"><ele>287.0</ele><time>2026-04-30T07:35:40.998Z</time></trkpt><trkpt lat="44.80569849534827" lon="9.61357163796516"><ele>287.0</ele><time>2026-04-30T07:35:41.998Z</time></trkpt><trkpt lat="44.80547027417568" lon="9.613514834138435"><ele>287.0</ele><time>2026-04-30T07:35:42.998Z</time></trkpt><trkpt lat="44.80525065891299" lon="9.61348082511625"><ele>289.0</ele><time>2026-04-30T07:35:43.998Z</time></trkpt><trkpt lat="44.80502894320554" lon="9.613421066296878"><ele>291.0</ele><time>2026-04-30T07:35:44.998Z</time></trkpt><trkpt lat="44.80483995566213" lon="9.613225432678743"><ele>291.0</ele><time>2026-04-30T07:35:45.998Z</time></trkpt><trkpt lat="44.80464338467287" lon="9.613133918550712"><ele>291.0</ele><time>2026-04-30T07:35:46.998Z</time></trkpt><trkpt lat="44.80444020949031" lon="9.613032773222159"><ele>291.0</ele><time>2026-04-30T07:35:47.998Z</time></trkpt><trkpt lat="44.80423608799221" lon="9.612917361250135"><ele>290.0</ele><time>2026-04-30T07:35:48.998Z</time></trkpt><trkpt lat="44.80401330611181" lon="9.612767140281708"><ele>289.0</ele><time>2026-04-30T07:35:49.998Z</time></trkpt><trkpt lat="44.80378087581782" lon="9.612590514396892"><ele>289.0</ele><time>2026-04-30T07:35:50.998Z</time></trkpt><trkpt lat="44.80355000177626" lon="9.612386835633778"><ele>289.0</ele><time>2026-04-30T07:35:51.998Z</time></trkpt><trkpt lat="44.80333744514024" lon="9.61217597329282"><ele>289.5</ele><time>2026-04-30T07:35:52.998Z</time></trkpt><trkpt lat="44.80314462428541" lon="9.61195352307643"><ele>290.0</ele><time>2026-04-30T07:35:53.998Z</time></trkpt><trkpt lat="44.80296101745371" lon="9.611726121158384"><ele>290.0</ele><time>2026-04-30T07:35:54.999Z</time></trkpt><trkpt lat="44.80279302368062" lon="9.611495357557601"><ele>290.0</ele><time>2026-04-30T07:35:55.999Z</time></trkpt><trkpt lat="44.80264148495165" lon="9.61125332768529"><ele>291.5</ele><time>2026-04-30T07:35:56.999Z</time></trkpt><trkpt lat="44.80250094762487" lon="9.611011555279841"><ele>293.0</ele><time>2026-04-30T07:35:57.999Z</time></trkpt><trkpt lat="44.80235416218371" lon="9.61075172753107"><ele>293.0</ele><time>2026-04-30T07:35:58.999Z</time></trkpt><trkpt lat="44.802208965590395" lon="9.610520359354307"><ele>293.0</ele><time>2026-04-30T07:35:59.999Z</time></trkpt><trkpt lat="44.80208330431954" lon="9.610279933874416"><ele>293.0</ele><time>2026-04-30T07:36:00.999Z</time></trkpt><trkpt lat="44.80195135396411" lon="9.610052161427253"><ele>293.33333333333337</ele><time>2026-04-30T07:36:01.999Z</time></trkpt><trkpt lat="44.80182554173268" lon="9.609865335443068"><ele>293.6666666666667</ele><time>2026-04-30T07:36:02.999Z</time></trkpt><trkpt lat="44.80172780193408" lon="9.60965304417002"><ele>294.0</ele><time>2026-04-30T07:36:03.999Z</time></trkpt><trkpt lat="44.801588305506634" lon="9.609475564141714"><ele>294.0</ele><time>2026-04-30T07:36:04.999Z</time></trkpt><trkpt lat="44.801478762692874" lon="9.609290167949746"><ele>294.0</ele><time>2026-04-30T07:36:05.999Z</time></trkpt><trkpt lat="44.80136217507088" lon="9.60909133637831"><ele>294.0</ele><time>2026-04-30T07:36:06.999Z</time></trkpt><trkpt lat="44.80122509737215" lon="9.60891080880461"><ele>294.0</ele><time>2026-04-30T07:36:07.999Z</time></trkpt><trkpt lat="44.80108413170643" lon="9.608739002329365"><ele>294.0</ele><time>2026-04-30T07:36:08.999Z</time></trkpt><trkpt lat="44.80094082619879" lon="9.60859781573922"><ele>294.0</ele><time>2026-04-30T07:36:09.999Z</time></trkpt><trkpt lat="44.800798728852996" lon="9.608455571515014"><ele>296.6666666666667</ele><time>2026-04-30T07:36:10.999Z</time></trkpt><trkpt lat="44.800657959010664" lon="9.608329637009781"><ele>299.33333333333337</ele><time>2026-04-30T07:36:11.999Z</time></trkpt><trkpt lat="44.800511270767785" lon="9.608211551339554"><ele>302.0</ele><time>2026-04-30T07:36:12.999Z</time></trkpt><trkpt lat="44.80035104354683" lon="9.608106017969664"><ele>302.0</ele><time>2026-04-30T07:36:13.999Z</time></trkpt><trkpt lat="44.800184978422855" lon="9.608025388700437"><ele>302.0</ele><time>2026-04-30T07:36:14.999Z</time></trkpt><trkpt lat="44.80002468720771" lon="9.60791460675805"><ele>302.0</ele><time>2026-04-30T07:36:15.999Z</time></trkpt><trkpt lat="44.79986172025673" lon="9.607811250050823"><ele>302.33333333333337</ele><time>2026-04-30T07:36:16.999Z</time></trkpt><trkpt lat="44.799680780263486" lon="9.607743634873609"><ele>302.6666666666667</ele><time>2026-04-30T07:36:17.999Z</time></trkpt><trkpt lat="44.79950506620009" lon="9.607700642206394"><ele>303.0</ele><time>2026-04-30T07:36:18.999Z</time></trkpt><trkpt lat="44.79933419526795" lon="9.607677979325029"><ele>304.0</ele><time>2026-04-30T07:36:19.999Z</time></trkpt><trkpt lat="44.79916172790824" lon="9.607640482351668"><ele>305.0</ele><time>2026-04-30T07:36:20.999Z</time></trkpt><trkpt lat="44.79896746461533" lon="9.607637473187257"><ele>306.0</ele><time>2026-04-30T07:36:21.999Z</time></trkpt><trkpt lat="44.798757607570295" lon="9.607651427377633"><ele>306.0</ele><time>2026-04-30T07:36:22.999Z</time></trkpt><trkpt lat="44.79854944997512" lon="9.607683169725664"><ele>306.0</ele><time>2026-04-30T07:36:23.999Z</time></trkpt><trkpt lat="44.797941127905425" lon="9.607782256352936"><ele>306.0</ele><time>2026-04-30T07:36:26.999Z</time></trkpt><trkpt lat="44.79776695808745" lon="9.60779812996284"><ele>306.0</ele><time>2026-04-30T07:36:27.999Z</time></trkpt><trkpt lat="44.79759249544383" lon="9.60779494912237"><ele>306.0</ele><time>2026-04-30T07:36:28.999Z</time></trkpt><trkpt lat="44.79742890080337" lon="9.607777525030688"><ele>305.6666666666667</ele><time>2026-04-30T07:36:29.999Z</time></trkpt><trkpt lat="44.79728657445967" lon="9.607747976553323"><ele>305.33333333333337</ele><time>2026-04-30T07:36:30.999Z</time></trkpt><trkpt lat="44.79712023603052" lon="9.607700411751525"><ele>305.0</ele><time>2026-04-30T07:36:31.999Z</time></trkpt><trkpt lat="44.79693766066604" lon="9.60763095875613"><ele>306.6666666666667</ele><time>2026-04-30T07:36:32.999Z</time></trkpt><trkpt lat="44.79674491981" lon="9.607526076343834"><ele>308.3333333333333</ele><time>2026-04-30T07:36:33.999Z</time></trkpt><trkpt lat="44.79654955220688" lon="9.60739115487228"><ele>310.0</ele><time>2026-04-30T07:36:34.999Z</time></trkpt><trkpt lat="44.796358106438404" lon="9.607250655578909"><ele>310.0</ele><time>2026-04-30T07:36:35.999Z</time></trkpt><trkpt lat="44.79616427650002" lon="9.60710478648826"><ele>310.0</ele><time>2026-04-30T07:36:36.999Z</time></trkpt><trkpt lat="44.79597654991974" lon="9.606963510816838"><ele>310.0</ele><time>2026-04-30T07:36:37.999Z</time></trkpt><trkpt lat="44.79578150519097" lon="9.606816409732927"><ele>312.3333333333333</ele><time>2026-04-30T07:36:38.999Z</time></trkpt><trkpt lat="44.79560262803178" lon="9.606683094555503"><ele>314.6666666666667</ele><time>2026-04-30T07:36:39.999Z</time></trkpt><trkpt lat="44.79539876455147" lon="9.606545538883651"><ele>317.0</ele><time>2026-04-30T07:36:40.999Z</time></trkpt><trkpt lat="44.79522160248371" lon="9.606446754630726"><ele>319.0</ele><time>2026-04-30T07:36:41.999Z</time></trkpt><trkpt lat="44.79501291476696" lon="9.606354021885041"><ele>321.0</ele><time>2026-04-30T07:36:42.999Z</time></trkpt><trkpt lat="44.794803393065166" lon="9.606284024380622"><ele>323.0</ele><time>2026-04-30T07:36:43.999Z</time></trkpt><trkpt lat="44.794601799991895" lon="9.606234177096264"><ele>323.0</ele><time>2026-04-30T07:36:44.999Z</time></trkpt><trkpt lat="44.79439728575056" lon="9.606199089022835"><ele>323.0</ele><time>2026-04-30T07:36:45.999Z</time></trkpt><trkpt lat="44.79418973310991" lon="9.606186675242627"><ele>323.0</ele><time>2026-04-30T07:36:46.999Z</time></trkpt><trkpt lat="44.793973019207804" lon="9.606211697825731"><ele>322.0</ele><time>2026-04-30T07:36:47.999Z</time></trkpt><trkpt lat="44.79376698072261" lon="9.606241306571473"><ele>321.0</ele><time>2026-04-30T07:36:48.999Z</time></trkpt><trkpt lat="44.79355681699488" lon="9.606261745230322"><ele>320.0</ele><time>2026-04-30T07:36:49.999Z</time></trkpt><trkpt lat="44.79335006252697" lon="9.606322447486724"><ele>318.6666666666667</ele><time>2026-04-30T07:36:50.999Z</time></trkpt><trkpt lat="44.79314858470608" lon="9.606403157073315"><ele>317.3333333333333</ele><time>2026-04-30T07:36:51.999Z</time></trkpt><trkpt lat="44.79293090554047" lon="9.606478500663668"><ele>316.0</ele><time>2026-04-30T07:36:52.999Z</time></trkpt><trkpt lat="44.79271671148297" lon="9.606570354679176"><ele>313.3333333333333</ele><time>2026-04-30T07:36:53.999Z</time></trkpt><trkpt lat="44.7925047456793" lon="9.606643447426192"><ele>310.6666666666667</ele><time>2026-04-30T07:36:54.999Z</time></trkpt><trkpt lat="44.79229711120932" lon="9.606738277685047"><ele>308.0</ele><time>2026-04-30T07:36:55.999Z</time></trkpt><trkpt lat="44.79207980291976" lon="9.606812945683547"><ele>308.0</ele><time>2026-04-30T07:36:56.999Z</time></trkpt><trkpt lat="44.79186687913198" lon="9.60691164337605"><ele>308.0</ele><time>2026-04-30T07:36:57.999Z</time></trkpt><trkpt lat="44.79165481740873" lon="9.606968193323057"><ele>308.0</ele><time>2026-04-30T07:36:58.999Z</time></trkpt><trkpt lat="44.79144298700864" lon="9.60701472310642"><ele>308.5</ele><time>2026-04-30T07:36:59.999Z</time></trkpt><trkpt lat="44.79122262733282" lon="9.607083365975058"><ele>309.0</ele><time>2026-04-30T07:37:00.999Z</time></trkpt><trkpt lat="44.790991685909525" lon="9.607151844689824"><ele>309.0</ele><time>2026-04-30T07:37:01.999Z</time></trkpt><trkpt lat="44.79076027907577" lon="9.60721514080186"><ele>309.0</ele><time>2026-04-30T07:37:02.999Z</time></trkpt><trkpt lat="44.790539332902554" lon="9.607275168423282"><ele>309.0</ele><time>2026-04-30T07:37:03.999Z</time></trkpt><trkpt lat="44.79031129847221" lon="9.607351897108613"><ele>309.0</ele><time>2026-04-30T07:37:04.999Z</time></trkpt><trkpt lat="44.79009182356398" lon="9.60739837126207"><ele>309.0</ele><time>2026-04-30T07:37:05.999Z</time></trkpt><trkpt lat="44.789892995753014" lon="9.607456402084411"><ele>309.0</ele><time>2026-04-30T07:37:06.999Z</time></trkpt><trkpt lat="44.78966935295638" lon="9.607504594695826"><ele>309.0</ele><time>2026-04-30T07:37:07.999Z</time></trkpt><trkpt lat="44.78944734111985" lon="9.607568291026698"><ele>308.5</ele><time>2026-04-30T07:37:08.999Z</time></trkpt><trkpt lat="44.789222908347156" lon="9.607625884533386"><ele>308.0</ele><time>2026-04-30T07:37:09.999Z</time></trkpt><trkpt lat="44.789001578351126" lon="9.607682532487475"><ele>308.0</ele><time>2026-04-30T07:37:10.999Z</time></trkpt><trkpt lat="44.78876400879741" lon="9.607713967879095"><ele>308.0</ele><time>2026-04-30T07:37:11.999Z</time></trkpt><trkpt lat="44.78854754990801" lon="9.607776880246298"><ele>309.0</ele><time>2026-04-30T07:37:12.999Z</time></trkpt><trkpt lat="44.78832661352434" lon="9.607831905262545"><ele>310.0</ele><time>2026-04-30T07:37:13.999Z</time></trkpt><trkpt lat="44.788118186159885" lon="9.607911538358168"><ele>311.0</ele><time>2026-04-30T07:37:14.999Z</time></trkpt><trkpt lat="44.78791003387458" lon="9.60794577100019"><ele>311.0</ele><time>2026-04-30T07:37:15.999Z</time></trkpt><trkpt lat="44.78770600412197" lon="9.607997061536988"><ele>311.0</ele><time>2026-04-30T07:37:16.999Z</time></trkpt><trkpt lat="44.78747392398977" lon="9.608055403570313"><ele>311.0</ele><time>2026-04-30T07:37:17.999Z</time></trkpt><trkpt lat="44.787271820455786" lon="9.608106209866449"><ele>312.0</ele><time>2026-04-30T07:37:18.999Z</time></trkpt><trkpt lat="44.787044546744696" lon="9.608177657741082"><ele>313.0</ele><time>2026-04-30T07:37:19.999Z</time></trkpt><trkpt lat="44.78681726154889" lon="9.608220480304322"><ele>313.0</ele><time>2026-04-30T07:37:20.999Z</time></trkpt><trkpt lat="44.786611288115104" lon="9.60827225943184"><ele>313.0</ele><time>2026-04-30T07:37:21.999Z</time></trkpt><trkpt lat="44.786397166580144" lon="9.60839547980839"><ele>313.0</ele><time>2026-04-30T07:37:22.999Z</time></trkpt><trkpt lat="44.78619443424108" lon="9.608458436989059"><ele>313.0</ele><time>2026-04-30T07:37:23.999Z</time></trkpt><trkpt lat="44.78596310270407" lon="9.608496744630939"><ele>313.0</ele><time>2026-04-30T07:37:24.999Z</time></trkpt><trkpt lat="44.785744125586554" lon="9.6085630991609"><ele>313.0</ele><time>2026-04-30T07:37:25.999Z</time></trkpt><trkpt lat="44.785537270637455" lon="9.608630114799874"><ele>313.0</ele><time>2026-04-30T07:37:26.999Z</time></trkpt><trkpt lat="44.785314609911126" lon="9.608677214887097"><ele>313.0</ele><time>2026-04-30T07:37:27.999Z</time></trkpt><trkpt lat="44.78509753768414" lon="9.60873130397561"><ele>314.0</ele><time>2026-04-30T07:37:28.999Z</time></trkpt><trkpt lat="44.78487912077255" lon="9.60877031685082"><ele>315.0</ele><time>2026-04-30T07:37:29.999Z</time></trkpt><trkpt lat="44.784657789289966" lon="9.608764764287995"><ele>316.0</ele><time>2026-04-30T07:37:30.999Z</time></trkpt><trkpt lat="44.78445717172461" lon="9.60881509324014"><ele>315.66666666666663</ele><time>2026-04-30T07:37:31.998Z</time></trkpt><trkpt lat="44.78425405321913" lon="9.608864986804763"><ele>315.3333333333333</ele><time>2026-04-30T07:37:32.998Z</time></trkpt><trkpt lat="44.78405789552078" lon="9.6089147594013"><ele>315.0</ele><time>2026-04-30T07:37:33.998Z</time></trkpt><trkpt lat="44.783879390074695" lon="9.60896613124147"><ele>315.0</ele><time>2026-04-30T07:37:34.998Z</time></trkpt><trkpt lat="44.78369012061737" lon="9.609044510070184"><ele>315.0</ele><time>2026-04-30T07:37:35.998Z</time></trkpt><trkpt lat="44.78348326729895" lon="9.609105813352025"><ele>315.0</ele><time>2026-04-30T07:37:36.998Z</time></trkpt><trkpt lat="44.783330281461296" lon="9.609270133689199"><ele>316.0</ele><time>2026-04-30T07:37:37.998Z</time></trkpt><trkpt lat="44.783151744764005" lon="9.60942764242061"><ele>317.0</ele><time>2026-04-30T07:37:38.998Z</time></trkpt><trkpt lat="44.7829874277471" lon="9.609589761482333"><ele>318.0</ele><time>2026-04-30T07:37:39.998Z</time></trkpt><trkpt lat="44.78283271756317" lon="9.609761200633699"><ele>320.0</ele><time>2026-04-30T07:37:40.998Z</time></trkpt><trkpt lat="44.782706460488264" lon="9.609948569752047"><ele>322.0</ele><time>2026-04-30T07:37:41.998Z</time></trkpt><trkpt lat="44.78259245348766" lon="9.610122038255044"><ele>324.0</ele><time>2026-04-30T07:37:42.998Z</time></trkpt><trkpt lat="44.78247647513834" lon="9.610267695671885"><ele>324.5</ele><time>2026-04-30T07:37:43.998Z</time></trkpt><trkpt lat="44.782333052267205" lon="9.610343341687914"><ele>325.0</ele><time>2026-04-30T07:37:44.998Z</time></trkpt><trkpt lat="44.78219706134863" lon="9.610404815443157"><ele>325.5</ele><time>2026-04-30T07:37:45.998Z</time></trkpt><trkpt lat="44.78206061621331" lon="9.610398351581187"><ele>326.0</ele><time>2026-04-30T07:37:46.998Z</time></trkpt><trkpt lat="44.78191116547079" lon="9.61035419976833"><ele>325.6666666666667</ele><time>2026-04-30T07:37:47.998Z</time></trkpt><trkpt lat="44.7817670122476" lon="9.610283049779975"><ele>325.3333333333333</ele><time>2026-04-30T07:37:48.998Z</time></trkpt><trkpt lat="44.78161588214555" lon="9.610193942188543"><ele>325.0</ele><time>2026-04-30T07:37:49.998Z</time></trkpt><trkpt lat="44.781462065496655" lon="9.610104180024399"><ele>325.0</ele><time>2026-04-30T07:37:50.998Z</time></trkpt><trkpt lat="44.78130998676154" lon="9.610015826889208"><ele>325.0</ele><time>2026-04-30T07:37:51.998Z</time></trkpt><trkpt lat="44.78114690347193" lon="9.609983483743402"><ele>325.0</ele><time>2026-04-30T07:37:52.998Z</time></trkpt><trkpt lat="44.78100212176334" lon="9.609905675172724"><ele>325.0</ele><time>2026-04-30T07:37:53.998Z</time></trkpt><trkpt lat="44.78088133644463" lon="9.609848775076353"><ele>325.0</ele><time>2026-04-30T07:37:54.998Z</time></trkpt><trkpt lat="44.780749322750026" lon="9.609794319935414"><ele>325.0</ele><time>2026-04-30T07:37:55.998Z</time></trkpt><trkpt lat="44.78065403430716" lon="9.609633227714104"><ele>325.0</ele><time>2026-04-30T07:37:56.998Z</time></trkpt><trkpt lat="44.78052538890734" lon="9.609558474396547"><ele>324.75</ele><time>2026-04-30T07:37:57.998Z</time></trkpt><trkpt lat="44.780397800716855" lon="9.60948433723927"><ele>324.5</ele><time>2026-04-30T07:37:58.998Z</time></trkpt><trkpt lat="44.78027587786521" lon="9.609413490560035"><ele>324.25</ele><time>2026-04-30T07:37:59.998Z</time></trkpt><trkpt lat="44.78015515225672" lon="9.609342039692724"><ele>324.0</ele><time>2026-04-30T07:38:00.998Z</time></trkpt><trkpt lat="44.78002486002297" lon="9.609264694792053"><ele>324.5</ele><time>2026-04-30T07:38:01.998Z</time></trkpt><trkpt lat="44.77989783163203" lon="9.609189289063812"><ele>325.0</ele><time>2026-04-30T07:38:02.998Z</time></trkpt><trkpt lat="44.77974737273629" lon="9.609197298342982"><ele>325.5</ele><time>2026-04-30T07:38:03.998Z</time></trkpt><trkpt lat="44.77962187733432" lon="9.60912906451896"><ele>326.0</ele><time>2026-04-30T07:38:04.998Z</time></trkpt><trkpt lat="44.77949107744477" lon="9.609112002180547"><ele>326.0</ele><time>2026-04-30T07:38:05.998Z</time></trkpt><trkpt lat="44.779362988442166" lon="9.609032655211111"><ele>326.0</ele><time>2026-04-30T07:38:06.998Z</time></trkpt><trkpt lat="44.779271720552494" lon="9.608825245555492"><ele>326.0</ele><time>2026-04-30T07:38:07.998Z</time></trkpt><trkpt lat="44.77914776384534" lon="9.608752824225398"><ele>326.0</ele><time>2026-04-30T07:38:08.998Z</time></trkpt><trkpt lat="44.77901713820345" lon="9.60867685971836"><ele>325.75</ele><time>2026-04-30T07:38:09.998Z</time></trkpt><trkpt lat="44.77888884107569" lon="9.608601536667956"><ele>325.5</ele><time>2026-04-30T07:38:10.998Z</time></trkpt><trkpt lat="44.77876509471027" lon="9.608528787379518"><ele>325.25</ele><time>2026-04-30T07:38:11.998Z</time></trkpt><trkpt lat="44.77865043896325" lon="9.608461382392198"><ele>325.0</ele><time>2026-04-30T07:38:12.998Z</time></trkpt><trkpt lat="44.77853798643263" lon="9.608395698141521"><ele>325.75</ele><time>2026-04-30T07:38:13.998Z</time></trkpt><trkpt lat="44.77840664604228" lon="9.608321209316749"><ele>326.5</ele><time>2026-04-30T07:38:14.998Z</time></trkpt><trkpt lat="44.7782884918983" lon="9.608252505449355"><ele>327.25</ele><time>2026-04-30T07:38:15.998Z</time></trkpt><trkpt lat="44.77816515948551" lon="9.608180418885263"><ele>328.0</ele><time>2026-04-30T07:38:16.998Z</time></trkpt><trkpt lat="44.77803278283093" lon="9.60812169204581"><ele>328.0</ele><time>2026-04-30T07:38:17.998Z</time></trkpt><trkpt lat="44.77793105102478" lon="9.60799989378669"><ele>328.0</ele><time>2026-04-30T07:38:18.998Z</time></trkpt><trkpt lat="44.777806190200444" lon="9.607981668272583"><ele>328.0</ele><time>2026-04-30T07:38:19.998Z</time></trkpt><trkpt lat="44.77768555588096" lon="9.607897858862204"><ele>328.0</ele><time>2026-04-30T07:38:20.998Z</time></trkpt><trkpt lat="44.777559774747644" lon="9.607824345867986"><ele>328.0</ele><time>2026-04-30T07:38:21.998Z</time></trkpt><trkpt lat="44.777426183091535" lon="9.60774715868118"><ele>328.0</ele><time>2026-04-30T07:38:22.998Z</time></trkpt><trkpt lat="44.77729767724422" lon="9.607672910124565"><ele>328.0</ele><time>2026-04-30T07:38:23.998Z</time></trkpt><trkpt lat="44.77716615466761" lon="9.607596889869116"><ele>328.0</ele><time>2026-04-30T07:38:24.998Z</time></trkpt><trkpt lat="44.77704154513765" lon="9.607524833256639"><ele>328.0</ele><time>2026-04-30T07:38:25.998Z</time></trkpt><trkpt lat="44.77692020286241" lon="9.607454665936297"><ele>328.0</ele><time>2026-04-30T07:38:26.998Z</time></trkpt><trkpt lat="44.77679661581734" lon="9.607383200518997"><ele>328.0</ele><time>2026-04-30T07:38:27.998Z</time></trkpt><trkpt lat="44.77668610991598" lon="9.607317724878"><ele>328.0</ele><time>2026-04-30T07:38:28.998Z</time></trkpt><trkpt lat="44.77658353564099" lon="9.607256859896498"><ele>328.16666666666663</ele><time>2026-04-30T07:38:29.998Z</time></trkpt><trkpt lat="44.77649309408376" lon="9.607203194023006"><ele>328.3333333333333</ele><time>2026-04-30T07:38:30.998Z</time></trkpt><trkpt lat="44.776420853274026" lon="9.607156819047171"><ele>328.5</ele><time>2026-04-30T07:38:31.998Z</time></trkpt><trkpt lat="44.77635012147429" lon="9.607105881207572"><ele>328.6666666666667</ele><time>2026-04-30T07:38:32.998Z</time></trkpt><trkpt lat="44.776287014092745" lon="9.607055155472588"><ele>328.83333333333337</ele><time>2026-04-30T07:38:33.998Z</time></trkpt><trkpt lat="44.77622555722242" lon="9.606977918859307"><ele>329.0</ele><time>2026-04-30T07:38:35.998Z</time></trkpt><trkpt lat="44.77623268949353" lon="9.606862769471926"><ele>328.0</ele><time>2026-04-30T07:38:36.998Z</time></trkpt><trkpt lat="44.77623993740571" lon="9.60670046347991"><ele>327.0</ele><time>2026-04-30T07:38:37.998Z</time></trkpt><trkpt lat="44.77624862059491" lon="9.606532547921892"><ele>326.0</ele><time>2026-04-30T07:38:38.998Z</time></trkpt><trkpt lat="44.776262479132626" lon="9.606359574491686"><ele>325.0</ele><time>2026-04-30T07:38:39.998Z</time></trkpt><trkpt lat="44.77628052116298" lon="9.606211175473932"><ele>325.0</ele><time>2026-04-30T07:38:40.998Z</time></trkpt><trkpt lat="44.77628769823104" lon="9.60607849334906"><ele>325.0</ele><time>2026-04-30T07:38:41.998Z</time></trkpt><trkpt lat="44.77629613015148" lon="9.605948393666479"><ele>325.0</ele><time>2026-04-30T07:38:42.998Z</time></trkpt><trkpt lat="44.77629722779942" lon="9.60581767442858"><ele>325.0</ele><time>2026-04-30T07:38:43.998Z</time></trkpt><trkpt lat="44.77629461793586" lon="9.605709083393217"><ele>325.0</ele><time>2026-04-30T07:38:44.998Z</time></trkpt><trkpt lat="44.77628507906729" lon="9.605563786135978"><ele>325.0</ele><time>2026-04-30T07:38:46.998Z</time></trkpt><trkpt lat="44.77617619748226" lon="9.605489502060259"><ele>325.0</ele><time>2026-04-30T07:38:48.998Z</time></trkpt><trkpt lat="44.77606304742687" lon="9.605544829960321"><ele>325.0</ele><time>2026-04-30T07:38:49.998Z</time></trkpt><trkpt lat="44.77595585859531" lon="9.605546949033203"><ele>325.0</ele><time>2026-04-30T07:38:50.998Z</time></trkpt><trkpt lat="44.77585198481307" lon="9.605510673387847"><ele>325.5</ele><time>2026-04-30T07:38:51.998Z</time></trkpt><trkpt lat="44.77572937992667" lon="9.605488144285172"><ele>326.0</ele><time>2026-04-30T07:38:52.998Z</time></trkpt><trkpt lat="44.77558726817613" lon="9.6054710877504"><ele>326.5</ele><time>2026-04-30T07:38:53.998Z</time></trkpt><trkpt lat="44.775461629604706" lon="9.605462677848408"><ele>327.0</ele><time>2026-04-30T07:38:54.998Z</time></trkpt><trkpt lat="44.77532808915874" lon="9.60545046534056"><ele>327.0</ele><time>2026-04-30T07:38:55.998Z</time></trkpt><trkpt lat="44.775192660776874" lon="9.605415655187674"><ele>327.0</ele><time>2026-04-30T07:38:56.998Z</time></trkpt><trkpt lat="44.77505752515644" lon="9.6053798301799"><ele>327.0</ele><time>2026-04-30T07:38:57.998Z</time></trkpt><trkpt lat="44.77492136193992" lon="9.605343522708646"><ele>327.0</ele><time>2026-04-30T07:38:58.998Z</time></trkpt><trkpt lat="44.77479267453161" lon="9.605309149891125"><ele>327.25</ele><time>2026-04-30T07:38:59.998Z</time></trkpt><trkpt lat="44.77466261917926" lon="9.605274411777764"><ele>327.5</ele><time>2026-04-30T07:39:00.998Z</time></trkpt><trkpt lat="44.77453719798445" lon="9.605239404631384"><ele>327.75</ele><time>2026-04-30T07:39:01.998Z</time></trkpt><trkpt lat="44.77441283581483" lon="9.605204661056524"><ele>328.0</ele><time>2026-04-30T07:39:02.998Z</time></trkpt><trkpt lat="44.77428360250233" lon="9.605167900084322"><ele>328.5</ele><time>2026-04-30T07:39:03.998Z</time></trkpt><trkpt lat="44.774152413943575" lon="9.605128836228696"><ele>329.0</ele><time>2026-04-30T07:39:04.998Z</time></trkpt><trkpt lat="44.77402083916146" lon="9.605079857410452"><ele>329.5</ele><time>2026-04-30T07:39:05.998Z</time></trkpt><trkpt lat="44.77391467709101" lon="9.605041318227899"><ele>330.0</ele><time>2026-04-30T07:39:06.998Z</time></trkpt><trkpt lat="44.77379140300076" lon="9.604978010534296"><ele>330.0</ele><time>2026-04-30T07:39:07.998Z</time></trkpt><trkpt lat="44.77368414162155" lon="9.604926896100437"><ele>330.0</ele><time>2026-04-30T07:39:08.998Z</time></trkpt><trkpt lat="44.77356993388423" lon="9.604872251519861"><ele>330.0</ele><time>2026-04-30T07:39:09.998Z</time></trkpt><trkpt lat="44.77343741918712" lon="9.604818299728835"><ele>330.0</ele><time>2026-04-30T07:39:10.998Z</time></trkpt><trkpt lat="44.77331872077088" lon="9.604738496631308"><ele>330.5</ele><time>2026-04-30T07:39:11.998Z</time></trkpt><trkpt lat="44.77317784389708" lon="9.604660996911775"><ele>331.0</ele><time>2026-04-30T07:39:12.998Z</time></trkpt><trkpt lat="44.77305533246028" lon="9.604590661384979"><ele>331.5</ele><time>2026-04-30T07:39:13.998Z</time></trkpt><trkpt lat="44.77293400225978" lon="9.604517212135214"><ele>332.0</ele><time>2026-04-30T07:39:14.998Z</time></trkpt><trkpt lat="44.77282012155718" lon="9.604442508133598"><ele>333.6</ele><time>2026-04-30T07:39:15.998Z</time></trkpt><trkpt lat="44.77271724465777" lon="9.604366983818734"><ele>335.20000000000005</ele><time>2026-04-30T07:39:16.998Z</time></trkpt><trkpt lat="44.7726270276332" lon="9.604293947182756"><ele>336.8</ele><time>2026-04-30T07:39:17.998Z</time></trkpt><trkpt lat="44.77254024407117" lon="9.604207520872084"><ele>338.4</ele><time>2026-04-30T07:39:18.998Z</time></trkpt><trkpt lat="44.77247750589814" lon="9.60410524235272"><ele>340.0</ele><time>2026-04-30T07:39:19.998Z</time></trkpt><trkpt lat="44.772427088170964" lon="9.603952901095626"><ele>340.0</ele><time>2026-04-30T07:39:21Z</time></trkpt><trkpt lat="44.77240107349971" lon="9.603725543981446"><ele>340.0</ele><time>2026-04-30T07:39:22Z</time></trkpt><trkpt lat="44.77238350255422" lon="9.60352409537714"><ele>340.0</ele><time>2026-04-30T07:39:23Z</time></trkpt><trkpt lat="44.772376926546" lon="9.603341885787012"><ele>340.0</ele><time>2026-04-30T07:39:24Z</time></trkpt><trkpt lat="44.7723051708449" lon="9.603177286582387"><ele>341.5</ele><time>2026-04-30T07:39:25Z</time></trkpt><trkpt lat="44.77222727390955" lon="9.603009053118706"><ele>343.0</ele><time>2026-04-30T07:39:26Z</time></trkpt><trkpt lat="44.77211803159312" lon="9.602925140809761"><ele>344.5</ele><time>2026-04-30T07:39:27Z</time></trkpt><trkpt lat="44.77198062384087" lon="9.602882061331146"><ele>346.0</ele><time>2026-04-30T07:39:28Z</time></trkpt><trkpt lat="44.77183207575792" lon="9.602842884030172"><ele>349.0</ele><time>2026-04-30T07:39:29Z</time></trkpt><trkpt lat="44.771685615081985" lon="9.602817368394117"><ele>352.0</ele><time>2026-04-30T07:39:30Z</time></trkpt><trkpt lat="44.77155817429175" lon="9.602802994063143"><ele>355.0</ele><time>2026-04-30T07:39:31Z</time></trkpt><trkpt lat="44.77145896202872" lon="9.602784362003307"><ele>358.0</ele><time>2026-04-30T07:39:32Z</time></trkpt><trkpt lat="44.77137763947489" lon="9.602738260324923"><ele>358.0</ele><time>2026-04-30T07:39:33Z</time></trkpt><trkpt lat="44.77132501525905" lon="9.602666704580475"><ele>358.0</ele><time>2026-04-30T07:39:34Z</time></trkpt><trkpt lat="44.77127385855735" lon="9.602565150471223"><ele>358.0</ele><time>2026-04-30T07:39:35Z</time></trkpt><trkpt lat="44.771208069037115" lon="9.602402884025926"><ele>358.0</ele><time>2026-04-30T07:39:36Z</time></trkpt><trkpt lat="44.771137146898845" lon="9.60222978704336"><ele>358.0</ele><time>2026-04-30T07:39:37Z</time></trkpt><trkpt lat="44.77104462123541" lon="9.602089180770006"><ele>358.59999999999997</ele><time>2026-04-30T07:39:38Z</time></trkpt><trkpt lat="44.770912825302105" lon="9.602003553377038"><ele>359.2</ele><time>2026-04-30T07:39:39Z</time></trkpt><trkpt lat="44.77079869807715" lon="9.602048586038102"><ele>359.8</ele><time>2026-04-30T07:39:40Z</time></trkpt><trkpt lat="44.77071319644996" lon="9.60207965932799"><ele>360.4</ele><time>2026-04-30T07:39:41Z</time></trkpt><trkpt lat="44.77065177912642" lon="9.602156495738921"><ele>361.0</ele><time>2026-04-30T07:39:42Z</time></trkpt><trkpt lat="44.77057277530566" lon="9.602217117993558"><ele>361.0</ele><time>2026-04-30T07:39:43Z</time></trkpt><trkpt lat="44.770488094558246" lon="9.602238020200991"><ele>361.0</ele><time>2026-04-30T07:39:44Z</time></trkpt><trkpt lat="44.77036616623664" lon="9.602223445191742"><ele>361.0</ele><time>2026-04-30T07:39:45Z</time></trkpt><trkpt lat="44.77025135244895" lon="9.602182326134054"><ele>361.0</ele><time>2026-04-30T07:39:46Z</time></trkpt><trkpt lat="44.77011528804929" lon="9.60211167362255"><ele>360.4</ele><time>2026-04-30T07:39:47Z</time></trkpt><trkpt lat="44.77003358139994" lon="9.60201414260997"><ele>359.8</ele><time>2026-04-30T07:39:48Z</time></trkpt><trkpt lat="44.769976583814945" lon="9.601909266929747"><ele>359.2</ele><time>2026-04-30T07:39:49Z</time></trkpt><trkpt lat="44.769944661177085" lon="9.601758762057656"><ele>358.59999999999997</ele><time>2026-04-30T07:39:50Z</time></trkpt><trkpt lat="44.76992576641204" lon="9.601573834764455"><ele>358.0</ele><time>2026-04-30T07:39:51Z</time></trkpt><trkpt lat="44.76989997060837" lon="9.601376802341731"><ele>360.75</ele><time>2026-04-30T07:39:52Z</time></trkpt><trkpt lat="44.76985892362099" lon="9.60119852006253"><ele>363.5</ele><time>2026-04-30T07:39:53Z</time></trkpt><trkpt lat="44.76980651501852" lon="9.601039131481313"><ele>366.25</ele><time>2026-04-30T07:39:54Z</time></trkpt><trkpt lat="44.769758419771314" lon="9.600877952280749"><ele>369.0</ele><time>2026-04-30T07:39:55Z</time></trkpt><trkpt lat="44.7697102658055" lon="9.60072547665025"><ele>370.5</ele><time>2026-04-30T07:39:56Z</time></trkpt><trkpt lat="44.769652100046315" lon="9.600578532127926"><ele>372.0</ele><time>2026-04-30T07:39:57Z</time></trkpt><trkpt lat="44.769563363550546" lon="9.600475140280654"><ele>373.5</ele><time>2026-04-30T07:39:58Z</time></trkpt><trkpt lat="44.769465608837166" lon="9.600388398038355"><ele>375.0</ele><time>2026-04-30T07:39:59Z</time></trkpt><trkpt lat="44.7693453753549" lon="9.600315866086111"><ele>377.0</ele><time>2026-04-30T07:40:00Z</time></trkpt><trkpt lat="44.76920842693807" lon="9.60023476478046"><ele>379.0</ele><time>2026-04-30T07:40:01Z</time></trkpt><trkpt lat="44.769070422038624" lon="9.600152522391305"><ele>381.0</ele><time>2026-04-30T07:40:02Z</time></trkpt><trkpt lat="44.76892232020443" lon="9.600072761323146"><ele>381.0</ele><time>2026-04-30T07:40:03Z</time></trkpt><trkpt lat="44.76876263773667" lon="9.599999331071905"><ele>381.0</ele><time>2026-04-30T07:40:04Z</time></trkpt><trkpt lat="44.76859909765" lon="9.59996120847962"><ele>381.0</ele><time>2026-04-30T07:40:05Z</time></trkpt><trkpt lat="44.768422057879825" lon="9.59996554085573"><ele>381.3333333333333</ele><time>2026-04-30T07:40:06Z</time></trkpt><trkpt lat="44.76825960530729" lon="9.599958612547274"><ele>381.66666666666663</ele><time>2026-04-30T07:40:07Z</time></trkpt><trkpt lat="44.76811547255112" lon="9.599898228732506"><ele>382.0</ele><time>2026-04-30T07:40:08Z</time></trkpt><trkpt lat="44.767969178861605" lon="9.599821385024315"><ele>382.0</ele><time>2026-04-30T07:40:09Z</time></trkpt><trkpt lat="44.76782850874027" lon="9.599763216977637"><ele>382.0</ele><time>2026-04-30T07:40:10Z</time></trkpt><trkpt lat="44.76769549229974" lon="9.599721094036234"><ele>382.0</ele><time>2026-04-30T07:40:11Z</time></trkpt><trkpt lat="44.7675581228083" lon="9.599695940760286"><ele>382.0</ele><time>2026-04-30T07:40:12Z</time></trkpt><trkpt lat="44.76742691578675" lon="9.599685503937911"><ele>381.0</ele><time>2026-04-30T07:40:13Z</time></trkpt><trkpt lat="44.76731478745059" lon="9.599634416822294"><ele>380.0</ele><time>2026-04-30T07:40:14Z</time></trkpt><trkpt lat="44.76721786883188" lon="9.599516561733015"><ele>379.0</ele><time>2026-04-30T07:40:15Z</time></trkpt><trkpt lat="44.767105348625996" lon="9.599391408521553"><ele>378.0</ele><time>2026-04-30T07:40:16Z</time></trkpt><trkpt lat="44.766977745692266" lon="9.599256124114262"><ele>382.66666666666663</ele><time>2026-04-30T07:40:17Z</time></trkpt><trkpt lat="44.76686015918138" lon="9.599117601530752"><ele>387.3333333333333</ele><time>2026-04-30T07:40:18Z</time></trkpt><trkpt lat="44.76673115140726" lon="9.598984147138166"><ele>392.0</ele><time>2026-04-30T07:40:19Z</time></trkpt><trkpt lat="44.76658568671236" lon="9.598847068279552"><ele>392.0</ele><time>2026-04-30T07:40:20Z</time></trkpt><trkpt lat="44.76644320342275" lon="9.598759572921896"><ele>392.0</ele><time>2026-04-30T07:40:21Z</time></trkpt><trkpt lat="44.76629315241775" lon="9.598682272464119"><ele>392.0</ele><time>2026-04-30T07:40:22Z</time></trkpt><trkpt lat="44.766133920334006" lon="9.598656411288552"><ele>394.66666666666663</ele><time>2026-04-30T07:40:23Z</time></trkpt><trkpt lat="44.765981727069544" lon="9.598608457400882"><ele>397.33333333333337</ele><time>2026-04-30T07:40:24Z</time></trkpt><trkpt lat="44.76582329730998" lon="9.59853800349784"><ele>400.0</ele><time>2026-04-30T07:40:25Z</time></trkpt><trkpt lat="44.76566973185442" lon="9.598473478307946"><ele>400.0</ele><time>2026-04-30T07:40:26Z</time></trkpt><trkpt lat="44.765522537306026" lon="9.598369397282305"><ele>400.0</ele><time>2026-04-30T07:40:27Z</time></trkpt><trkpt lat="44.76537141893736" lon="9.598280377443036"><ele>400.0</ele><time>2026-04-30T07:40:28Z</time></trkpt><trkpt lat="44.765208875196116" lon="9.598177421764197"><ele>398.0</ele><time>2026-04-30T07:40:29Z</time></trkpt><trkpt lat="44.765069049871045" lon="9.598118817480293"><ele>396.0</ele><time>2026-04-30T07:40:30Z</time></trkpt><trkpt lat="44.76492317398591" lon="9.598067648581509"><ele>394.0</ele><time>2026-04-30T07:40:31Z</time></trkpt><trkpt lat="44.76479670637374" lon="9.598096242957292"><ele>392.0</ele><time>2026-04-30T07:40:32Z</time></trkpt><trkpt lat="44.7646404827414" lon="9.598081113611682"><ele>392.0</ele><time>2026-04-30T07:40:33Z</time></trkpt><trkpt lat="44.764487458711" lon="9.598123045232471"><ele>392.0</ele><time>2026-04-30T07:40:34Z</time></trkpt><trkpt lat="44.76433304494397" lon="9.59817691667201"><ele>392.0</ele><time>2026-04-30T07:40:35Z</time></trkpt><trkpt lat="44.764194038958976" lon="9.598187976437364"><ele>392.3333333333333</ele><time>2026-04-30T07:40:36Z</time></trkpt><trkpt lat="44.76404525047558" lon="9.598203936852668"><ele>392.66666666666663</ele><time>2026-04-30T07:40:37Z</time></trkpt><trkpt lat="44.76387202650539" lon="9.598240557876208"><ele>393.0</ele><time>2026-04-30T07:40:38Z</time></trkpt><trkpt lat="44.76374530294378" lon="9.598245085458368"><ele>393.0</ele><time>2026-04-30T07:40:39Z</time></trkpt><trkpt lat="44.76365387059915" lon="9.598215693473051"><ele>393.0</ele><time>2026-04-30T07:40:40Z</time></trkpt><trkpt lat="44.763567292803195" lon="9.598185240453974"><ele>393.0</ele><time>2026-04-30T07:40:41Z</time></trkpt><trkpt lat="44.76350607325989" lon="9.59810311113735"><ele>393.0</ele><time>2026-04-30T07:40:43Z</time></trkpt><trkpt lat="44.763476427446165" lon="9.598017149916805"><ele>393.0</ele><time>2026-04-30T07:40:44Z</time></trkpt><trkpt lat="44.763469459786926" lon="9.597812672827395"><ele>394.66666666666663</ele><time>2026-04-30T07:40:45Z</time></trkpt><trkpt lat="44.76346338257794" lon="9.597565526072158"><ele>396.3333333333333</ele><time>2026-04-30T07:40:46Z</time></trkpt><trkpt lat="44.76341355387872" lon="9.597297044949867"><ele>398.0</ele><time>2026-04-30T07:40:47Z</time></trkpt><trkpt lat="44.7633364389375" lon="9.597090114893945"><ele>401.25</ele><time>2026-04-30T07:40:48Z</time></trkpt><trkpt lat="44.76324250226084" lon="9.596895593657797"><ele>404.5</ele><time>2026-04-30T07:40:49Z</time></trkpt><trkpt lat="44.76313336412637" lon="9.596762118569494"><ele>407.75</ele><time>2026-04-30T07:40:50Z</time></trkpt><trkpt lat="44.7630146372226" lon="9.596666004056056"><ele>411.0</ele><time>2026-04-30T07:40:51Z</time></trkpt><trkpt lat="44.76287405219774" lon="9.59658872362191"><ele>411.0</ele><time>2026-04-30T07:40:52Z</time></trkpt><trkpt lat="44.762727065714" lon="9.59654043758205"><ele>411.0</ele><time>2026-04-30T07:40:53Z</time></trkpt><trkpt lat="44.76258240135164" lon="9.5964750820069"><ele>411.0</ele><time>2026-04-30T07:40:54Z</time></trkpt><trkpt lat="44.76244642262889" lon="9.596416193058772"><ele>411.0</ele><time>2026-04-30T07:40:55Z</time></trkpt><trkpt lat="44.762315750565065" lon="9.596335597145352"><ele>409.75</ele><time>2026-04-30T07:40:56Z</time></trkpt><trkpt lat="44.76220312004741" lon="9.596289457160857"><ele>408.5</ele><time>2026-04-30T07:40:57Z</time></trkpt><trkpt lat="44.76211058525473" lon="9.59620077851132"><ele>407.25</ele><time>2026-04-30T07:40:58Z</time></trkpt><trkpt lat="44.76203804488058" lon="9.596028514138585"><ele>406.0</ele><time>2026-04-30T07:40:59Z</time></trkpt><trkpt lat="44.76196832943872" lon="9.595836646230524"><ele>407.0</ele><time>2026-04-30T07:41:00Z</time></trkpt><trkpt lat="44.76190955452841" lon="9.59562833957934"><ele>408.0</ele><time>2026-04-30T07:41:01Z</time></trkpt><trkpt lat="44.76182288446061" lon="9.595469280430763"><ele>409.0</ele><time>2026-04-30T07:41:02Z</time></trkpt><trkpt lat="44.761753225717314" lon="9.595256131032915"><ele>411.25</ele><time>2026-04-30T07:41:03Z</time></trkpt><trkpt lat="44.761693954734895" lon="9.595074138494835"><ele>413.5</ele><time>2026-04-30T07:41:04Z</time></trkpt><trkpt lat="44.761667082186406" lon="9.594883065023907"><ele>415.75</ele><time>2026-04-30T07:41:05Z</time></trkpt><trkpt lat="44.761626040844014" lon="9.594713551511058"><ele>418.0</ele><time>2026-04-30T07:41:06Z</time></trkpt><trkpt lat="44.76155756069739" lon="9.594557442071208"><ele>420.75</ele><time>2026-04-30T07:41:07Z</time></trkpt><trkpt lat="44.761439417564326" lon="9.594460750645448"><ele>423.5</ele><time>2026-04-30T07:41:08Z</time></trkpt><trkpt lat="44.76132920421989" lon="9.594391094589549"><ele>426.25</ele><time>2026-04-30T07:41:09Z</time></trkpt><trkpt lat="44.761206555528084" lon="9.59434908208009"><ele>429.0</ele><time>2026-04-30T07:41:10Z</time></trkpt><trkpt lat="44.761127314836564" lon="9.59423118626247"><ele>429.0</ele><time>2026-04-30T07:41:11Z</time></trkpt><trkpt lat="44.76105048889102" lon="9.594096023828174"><ele>429.0</ele><time>2026-04-30T07:41:12Z</time></trkpt><trkpt lat="44.76097490108188" lon="9.593951164782968"><ele>429.0</ele><time>2026-04-30T07:41:13Z</time></trkpt><trkpt lat="44.76090732612562" lon="9.593805827695514"><ele>429.0</ele><time>2026-04-30T07:41:14Z</time></trkpt><trkpt lat="44.760892243145804" lon="9.59359045920741"><ele>428.75</ele><time>2026-04-30T07:41:15Z</time></trkpt><trkpt lat="44.76090132624975" lon="9.593390437382006"><ele>428.5</ele><time>2026-04-30T07:41:16Z</time></trkpt><trkpt lat="44.76089713555518" lon="9.59320907318038"><ele>428.25</ele><time>2026-04-30T07:41:17Z</time></trkpt><trkpt lat="44.76085716311881" lon="9.593036646665535"><ele>428.0</ele><time>2026-04-30T07:41:18Z</time></trkpt><trkpt lat="44.76079971019475" lon="9.592857437455907"><ele>432.0</ele><time>2026-04-30T07:41:19Z</time></trkpt><trkpt lat="44.760677712908205" lon="9.592713387112523"><ele>436.0</ele><time>2026-04-30T07:41:20Z</time></trkpt><trkpt lat="44.76054799557047" lon="9.592604831112833"><ele>440.0</ele><time>2026-04-30T07:41:21Z</time></trkpt><trkpt lat="44.7604374805549" lon="9.59246011924987"><ele>440.0</ele><time>2026-04-30T07:41:22Z</time></trkpt><trkpt lat="44.760320658915845" lon="9.59231637132961"><ele>440.0</ele><time>2026-04-30T07:41:23Z</time></trkpt><trkpt lat="44.76021110390808" lon="9.592177428809405"><ele>440.0</ele><time>2026-04-30T07:41:24Z</time></trkpt><trkpt lat="44.76010875601973" lon="9.592025277796175"><ele>440.25</ele><time>2026-04-30T07:41:24.999Z</time></trkpt><trkpt lat="44.75998451820007" lon="9.591856651841457"><ele>440.5</ele><time>2026-04-30T07:41:25.999Z</time></trkpt><trkpt lat="44.759901903847165" lon="9.59171730944246"><ele>440.75</ele><time>2026-04-30T07:41:26.999Z</time></trkpt><trkpt lat="44.759803567810295" lon="9.591586508224403"><ele>441.0</ele><time>2026-04-30T07:41:27.999Z</time></trkpt><trkpt lat="44.759718371001846" lon="9.59147246600393"><ele>441.0</ele><time>2026-04-30T07:41:28.999Z</time></trkpt><trkpt lat="44.759628471237484" lon="9.591348038137193"><ele>441.0</ele><time>2026-04-30T07:41:29.999Z</time></trkpt><trkpt lat="44.75954400956162" lon="9.591204178435522"><ele>441.0</ele><time>2026-04-30T07:41:30.999Z</time></trkpt><trkpt lat="44.75944432040252" lon="9.59101779208474"><ele>441.0</ele><time>2026-04-30T07:41:31.999Z</time></trkpt><trkpt lat="44.759345307726946" lon="9.590839133396951"><ele>440.66666666666663</ele><time>2026-04-30T07:41:32.999Z</time></trkpt><trkpt lat="44.75923610119957" lon="9.590652252676449"><ele>440.3333333333333</ele><time>2026-04-30T07:41:33.999Z</time></trkpt><trkpt lat="44.75912535307453" lon="9.590484224902534"><ele>440.0</ele><time>2026-04-30T07:41:34.999Z</time></trkpt><trkpt lat="44.75897516285718" lon="9.590367234794176"><ele>439.5</ele><time>2026-04-30T07:41:35.999Z</time></trkpt><trkpt lat="44.75884098306063" lon="9.590270599761077"><ele>439.0</ele><time>2026-04-30T07:41:36.999Z</time></trkpt><trkpt lat="44.75872359965706" lon="9.590191914514087"><ele>438.5</ele><time>2026-04-30T07:41:37.999Z</time></trkpt><trkpt lat="44.75862666367304" lon="9.59006539404626"><ele>438.0</ele><time>2026-04-30T07:41:38.999Z</time></trkpt><trkpt lat="44.75852679703769" lon="9.589922181157464"><ele>438.0</ele><time>2026-04-30T07:41:39.999Z</time></trkpt><trkpt lat="44.75839730629018" lon="9.589793101886082"><ele>438.0</ele><time>2026-04-30T07:41:40.999Z</time></trkpt><trkpt lat="44.75824674044985" lon="9.589659134867896"><ele>438.0</ele><time>2026-04-30T07:41:41.999Z</time></trkpt><trkpt lat="44.75811670176874" lon="9.589569749235233"><ele>440.25</ele><time>2026-04-30T07:41:42.999Z</time></trkpt><trkpt lat="44.75798933657766" lon="9.58949383813278"><ele>442.5</ele><time>2026-04-30T07:41:43.999Z</time></trkpt><trkpt lat="44.75787286527547" lon="9.589450632131916"><ele>444.75</ele><time>2026-04-30T07:41:44.999Z</time></trkpt><trkpt lat="44.75774377482687" lon="9.589413965372055"><ele>447.0</ele><time>2026-04-30T07:41:45.999Z</time></trkpt><trkpt lat="44.7576303949238" lon="9.589493532005779"><ele>444.0</ele><time>2026-04-30T07:41:46.999Z</time></trkpt><trkpt lat="44.75750790843839" lon="9.589610984687136"><ele>441.0</ele><time>2026-04-30T07:41:47.999Z</time></trkpt><trkpt lat="44.757389288022885" lon="9.589751811057047"><ele>438.0</ele><time>2026-04-30T07:41:48.999Z</time></trkpt><trkpt lat="44.757307032271406" lon="9.589934800341878"><ele>438.0</ele><time>2026-04-30T07:41:49.999Z</time></trkpt><trkpt lat="44.75725254465043" lon="9.59016129722251"><ele>438.0</ele><time>2026-04-30T07:41:50.999Z</time></trkpt><trkpt lat="44.757184525003794" lon="9.590357595929866"><ele>438.0</ele><time>2026-04-30T07:41:51.999Z</time></trkpt><trkpt lat="44.757095704355905" lon="9.590501039796656"><ele>436.0</ele><time>2026-04-30T07:41:52.999Z</time></trkpt><trkpt lat="44.757014474902824" lon="9.59062570614073"><ele>433.99999999999994</ele><time>2026-04-30T07:41:53.999Z</time></trkpt><trkpt lat="44.756952726589546" lon="9.590707363519256"><ele>431.99999999999994</ele><time>2026-04-30T07:41:54.999Z</time></trkpt><trkpt lat="44.75687081960578" lon="9.590781527216457"><ele>430.0</ele><time>2026-04-30T07:41:55.999Z</time></trkpt><trkpt lat="44.756768492279555" lon="9.590804867423705"><ele>428.0</ele><time>2026-04-30T07:41:56.999Z</time></trkpt><trkpt lat="44.7566699031403" lon="9.590746684294087"><ele>428.0</ele><time>2026-04-30T07:41:57.999Z</time></trkpt><trkpt lat="44.75654561706662" lon="9.59062742296896"><ele>428.0</ele><time>2026-04-30T07:41:58.999Z</time></trkpt><trkpt lat="44.756422435793326" lon="9.59051363064925"><ele>428.0</ele><time>2026-04-30T07:41:59.999Z</time></trkpt><trkpt lat="44.756307088997175" lon="9.590390021839221"><ele>428.0</ele><time>2026-04-30T07:42:00.999Z</time></trkpt><trkpt lat="44.75618142226749" lon="9.590301667380016"><ele>427.59999999999997</ele><time>2026-04-30T07:42:01.999Z</time></trkpt><trkpt lat="44.756085799970464" lon="9.590160452223984"><ele>427.19999999999993</ele><time>2026-04-30T07:42:02.999Z</time></trkpt><trkpt lat="44.75599802855086" lon="9.590076892020749"><ele>426.8</ele><time>2026-04-30T07:42:03.999Z</time></trkpt><trkpt lat="44.75594718323977" lon="9.589982953374632"><ele>426.4</ele><time>2026-04-30T07:42:04.999Z</time></trkpt><trkpt lat="44.755866132848524" lon="9.589957449282368"><ele>426.0</ele><time>2026-04-30T07:42:05.999Z</time></trkpt><trkpt lat="44.75580428594102" lon="9.589918527849978"><ele>426.0</ele><time>2026-04-30T07:42:06.999Z</time></trkpt><trkpt lat="44.75576538545426" lon="9.59014835001699"><ele>426.0</ele><time>2026-04-30T07:42:08.999Z</time></trkpt><trkpt lat="44.75578815337318" lon="9.590335575232299"><ele>426.0</ele><time>2026-04-30T07:42:09.999Z</time></trkpt><trkpt lat="44.755873939300805" lon="9.590441744434425"><ele>426.0</ele><time>2026-04-30T07:42:10.999Z</time></trkpt><trkpt lat="44.75597595628445" lon="9.590496307742042"><ele>426.4</ele><time>2026-04-30T07:42:11.999Z</time></trkpt><trkpt lat="44.75606077573057" lon="9.590535508082326"><ele>426.8</ele><time>2026-04-30T07:42:12.999Z</time></trkpt><trkpt lat="44.75614916658224" lon="9.590572762926797"><ele>427.19999999999993</ele><time>2026-04-30T07:42:13.999Z</time></trkpt><trkpt lat="44.75623231328159" lon="9.590655903876641"><ele>427.59999999999997</ele><time>2026-04-30T07:42:14.999Z</time></trkpt><trkpt lat="44.756282527350905" lon="9.59076983150626"><ele>428.0</ele><time>2026-04-30T07:42:15.999Z</time></trkpt><trkpt lat="44.75631264873155" lon="9.590947368163048"><ele>428.0</ele><time>2026-04-30T07:42:16.999Z</time></trkpt><trkpt lat="44.7563301087421" lon="9.591126243566888"><ele>428.0</ele><time>2026-04-30T07:42:17.999Z</time></trkpt><trkpt lat="44.756351139752795" lon="9.591295591712509"><ele>428.0</ele><time>2026-04-30T07:42:18.999Z</time></trkpt><trkpt lat="44.756416188542715" lon="9.591480591773053"><ele>428.0</ele><time>2026-04-30T07:42:19.999Z</time></trkpt><trkpt lat="44.75653390077843" lon="9.591590393427966"><ele>426.4</ele><time>2026-04-30T07:42:20.999Z</time></trkpt><trkpt lat="44.756652963273694" lon="9.591663030746469"><ele>424.79999999999995</ele><time>2026-04-30T07:42:21.999Z</time></trkpt><trkpt lat="44.75672686846099" lon="9.591767928597099"><ele>423.2</ele><time>2026-04-30T07:42:22.999Z</time></trkpt><trkpt lat="44.75678032138178" lon="9.591867670790121"><ele>421.6</ele><time>2026-04-30T07:42:23.999Z</time></trkpt><trkpt lat="44.75678988428143" lon="9.592010746551226"><ele>420.0</ele><time>2026-04-30T07:42:25.999Z</time></trkpt><trkpt lat="44.75675386663933" lon="9.592131291399065"><ele>417.6</ele><time>2026-04-30T07:42:26.999Z</time></trkpt><trkpt lat="44.756689775284315" lon="9.592231193361833"><ele>415.2</ele><time>2026-04-30T07:42:27.999Z</time></trkpt><trkpt lat="44.756615886878976" lon="9.592328444707125"><ele>412.79999999999995</ele><time>2026-04-30T07:42:28.999Z</time></trkpt><trkpt lat="44.756512743197824" lon="9.592315637254865"><ele>410.4</ele><time>2026-04-30T07:42:29.999Z</time></trkpt><trkpt lat="44.75639628534367" lon="9.592249817419207"><ele>408.0</ele><time>2026-04-30T07:42:30.999Z</time></trkpt><trkpt lat="44.756331220761766" lon="9.592127709436161"><ele>411.0</ele><time>2026-04-30T07:42:31.999Z</time></trkpt><trkpt lat="44.756267316338594" lon="9.591974980125261"><ele>414.0</ele><time>2026-04-30T07:42:32.999Z</time></trkpt><trkpt lat="44.75621803572356" lon="9.591797468332171"><ele>417.0</ele><time>2026-04-30T07:42:33.999Z</time></trkpt><trkpt lat="44.75617005368748" lon="9.591609764343826"><ele>420.0</ele><time>2026-04-30T07:42:34.999Z</time></trkpt><trkpt lat="44.75610522494273" lon="9.59144816855543"><ele>420.0</ele><time>2026-04-30T07:42:35.999Z</time></trkpt><trkpt lat="44.75603836546735" lon="9.59133772634036"><ele>420.0</ele><time>2026-04-30T07:42:36.999Z</time></trkpt><trkpt lat="44.755957919711165" lon="9.591296011119699"><ele>420.0</ele><time>2026-04-30T07:42:37.999Z</time></trkpt><trkpt lat="44.7558345497501" lon="9.591322550811727"><ele>420.0</ele><time>2026-04-30T07:42:38.999Z</time></trkpt><trkpt lat="44.755752760952184" lon="9.591281735902891"><ele>420.0</ele><time>2026-04-30T07:42:39.999Z</time></trkpt><trkpt lat="44.75567325407714" lon="9.591209880147876"><ele>418.75</ele><time>2026-04-30T07:42:40.999Z</time></trkpt><trkpt lat="44.75558985873598" lon="9.591095752515727"><ele>417.5</ele><time>2026-04-30T07:42:41.999Z</time></trkpt><trkpt lat="44.75552854646333" lon="9.59097267039231"><ele>416.25</ele><time>2026-04-30T07:42:42.999Z</time></trkpt><trkpt lat="44.75543594202416" lon="9.590880387075982"><ele>415.0</ele><time>2026-04-30T07:42:43.999Z</time></trkpt><trkpt lat="44.755324059000316" lon="9.590843583936511"><ele>412.25</ele><time>2026-04-30T07:42:44.999Z</time></trkpt><trkpt lat="44.75520111272885" lon="9.590858658759704"><ele>409.5</ele><time>2026-04-30T07:42:45.999Z</time></trkpt><trkpt lat="44.755067478513716" lon="9.590894704791653"><ele>406.75</ele><time>2026-04-30T07:42:46.999Z</time></trkpt><trkpt lat="44.75492629955849" lon="9.590919243839748"><ele>404.0</ele><time>2026-04-30T07:42:47.999Z</time></trkpt><trkpt lat="44.75479161774233" lon="9.590953931761922"><ele>404.0</ele><time>2026-04-30T07:42:48.999Z</time></trkpt><trkpt lat="44.75465528742983" lon="9.59099629351377"><ele>404.0</ele><time>2026-04-30T07:42:49.999Z</time></trkpt><trkpt lat="44.75453367137389" lon="9.591052673043981"><ele>404.0</ele><time>2026-04-30T07:42:50.999Z</time></trkpt><trkpt lat="44.7543944541621" lon="9.59116121905966"><ele>404.0</ele><time>2026-04-30T07:42:51.999Z</time></trkpt><trkpt lat="44.754293360936394" lon="9.591278815733226"><ele>404.3333333333333</ele><time>2026-04-30T07:42:52.999Z</time></trkpt><trkpt lat="44.75419690155771" lon="9.591446447264932"><ele>404.66666666666663</ele><time>2026-04-30T07:42:53.999Z</time></trkpt><trkpt lat="44.75413283770882" lon="9.591642236029216"><ele>405.0</ele><time>2026-04-30T07:42:54.999Z</time></trkpt><trkpt lat="44.75404421619373" lon="9.591808224915006"><ele>405.0</ele><time>2026-04-30T07:42:55.999Z</time></trkpt><trkpt lat="44.75395201915856" lon="9.59197247400541"><ele>405.0</ele><time>2026-04-30T07:42:56.999Z</time></trkpt><trkpt lat="44.753861565001095" lon="9.592134998216075"><ele>405.0</ele><time>2026-04-30T07:42:57.999Z</time></trkpt><trkpt lat="44.753791373527115" lon="9.592311065602216"><ele>405.0</ele><time>2026-04-30T07:42:58.999Z</time></trkpt><trkpt lat="44.75375776572601" lon="9.592506775653902"><ele>404.25</ele><time>2026-04-30T07:42:59.999Z</time></trkpt><trkpt lat="44.753691815139646" lon="9.59264939044152"><ele>403.5</ele><time>2026-04-30T07:43:00.999Z</time></trkpt><trkpt lat="44.75361243293023" lon="9.592783589771827"><ele>402.75</ele><time>2026-04-30T07:43:01.999Z</time></trkpt><trkpt lat="44.75351857607408" lon="9.592893055304867"><ele>402.0</ele><time>2026-04-30T07:43:02.999Z</time></trkpt><trkpt lat="44.753391635265075" lon="9.592936698003466"><ele>402.0</ele><time>2026-04-30T07:43:03.999Z</time></trkpt><trkpt lat="44.75326602013487" lon="9.592841099039369"><ele>402.0</ele><time>2026-04-30T07:43:04.999Z</time></trkpt><trkpt lat="44.75315008194483" lon="9.592810094951197"><ele>402.0</ele><time>2026-04-30T07:43:05.999Z</time></trkpt><trkpt lat="44.75302631410289" lon="9.59273525481738"><ele>402.0</ele><time>2026-04-30T07:43:06.999Z</time></trkpt><trkpt lat="44.75290258321072" lon="9.592636863535503"><ele>404.5</ele><time>2026-04-30T07:43:07.999Z</time></trkpt><trkpt lat="44.75278456410541" lon="9.592510400906194"><ele>407.0</ele><time>2026-04-30T07:43:08.999Z</time></trkpt><trkpt lat="44.75267028188916" lon="9.592390992706123"><ele>409.5</ele><time>2026-04-30T07:43:09.999Z</time></trkpt><trkpt lat="44.75255943762951" lon="9.592293865881818"><ele>412.0</ele><time>2026-04-30T07:43:10.999Z</time></trkpt><trkpt lat="44.75244366258068" lon="9.59221777123429"><ele>412.0</ele><time>2026-04-30T07:43:11.999Z</time></trkpt><trkpt lat="44.752325076447335" lon="9.592151887541725"><ele>412.0</ele><time>2026-04-30T07:43:12.999Z</time></trkpt><trkpt lat="44.75220329131463" lon="9.59210687892142"><ele>412.0</ele><time>2026-04-30T07:43:13.999Z</time></trkpt><trkpt lat="44.75208808977066" lon="9.592084470519902"><ele>412.0</ele><time>2026-04-30T07:43:14.999Z</time></trkpt><trkpt lat="44.751962369279155" lon="9.592107309363483"><ele>411.0</ele><time>2026-04-30T07:43:15.999Z</time></trkpt><trkpt lat="44.75184657061174" lon="9.592176767660563"><ele>410.0</ele><time>2026-04-30T07:43:16.999Z</time></trkpt><trkpt lat="44.75174664440608" lon="9.59226640383373"><ele>409.0</ele><time>2026-04-30T07:43:17.999Z</time></trkpt><trkpt lat="44.751637995408764" lon="9.59231504022803"><ele>408.0</ele><time>2026-04-30T07:43:18.999Z</time></trkpt><trkpt lat="44.751525417958646" lon="9.592342921887717"><ele>408.0</ele><time>2026-04-30T07:43:19.999Z</time></trkpt><trkpt lat="44.75139601337428" lon="9.592335108462779"><ele>408.0</ele><time>2026-04-30T07:43:20.999Z</time></trkpt><trkpt lat="44.7512582518913" lon="9.592307108766057"><ele>408.0</ele><time>2026-04-30T07:43:21.999Z</time></trkpt><trkpt lat="44.75112065439952" lon="9.59224260444391"><ele>408.0</ele><time>2026-04-30T07:43:22.999Z</time></trkpt><trkpt lat="44.75097576904817" lon="9.592213674696017"><ele>409.0</ele><time>2026-04-30T07:43:23.999Z</time></trkpt><trkpt lat="44.75081558709799" lon="9.592233257753001"><ele>410.0</ele><time>2026-04-30T07:43:24.999Z</time></trkpt><trkpt lat="44.75067938259049" lon="9.592237206114794"><ele>411.0</ele><time>2026-04-30T07:43:25.999Z</time></trkpt><trkpt lat="44.75054281070114" lon="9.592259272373743"><ele>412.0</ele><time>2026-04-30T07:43:26.999Z</time></trkpt><trkpt lat="44.75042083127648" lon="9.592312324647976"><ele>412.0</ele><time>2026-04-30T07:43:27.999Z</time></trkpt><trkpt lat="44.750301095249995" lon="9.59240748667206"><ele>412.0</ele><time>2026-04-30T07:43:28.999Z</time></trkpt><trkpt lat="44.7501942606979" lon="9.592549186402337"><ele>412.0</ele><time>2026-04-30T07:43:29.999Z</time></trkpt><trkpt lat="44.750109785439065" lon="9.592754258329101"><ele>411.5</ele><time>2026-04-30T07:43:30.998Z</time></trkpt><trkpt lat="44.75002638565669" lon="9.592923607319886"><ele>411.0</ele><time>2026-04-30T07:43:31.998Z</time></trkpt><trkpt lat="44.74994295613671" lon="9.59310532126326"><ele>410.5</ele><time>2026-04-30T07:43:32.998Z</time></trkpt><trkpt lat="44.74984318389114" lon="9.59323647810772"><ele>410.0</ele><time>2026-04-30T07:43:33.998Z</time></trkpt><trkpt lat="44.74975105414076" lon="9.593377282619564"><ele>410.0</ele><time>2026-04-30T07:43:34.998Z</time></trkpt><trkpt lat="44.74966895970685" lon="9.59348967414487"><ele>410.0</ele><time>2026-04-30T07:43:35.998Z</time></trkpt><trkpt lat="44.749583992154434" lon="9.593565120042536"><ele>410.0</ele><time>2026-04-30T07:43:36.998Z</time></trkpt><trkpt lat="44.749474678864715" lon="9.593623985652847"><ele>410.0</ele><time>2026-04-30T07:43:37.998Z</time></trkpt><trkpt lat="44.74936682822214" lon="9.593660207349526"><ele>410.0</ele><time>2026-04-30T07:43:38.998Z</time></trkpt><trkpt lat="44.74925435201709" lon="9.593660379157228"><ele>412.75</ele><time>2026-04-30T07:43:39.998Z</time></trkpt><trkpt lat="44.7491296052965" lon="9.593626433917485"><ele>415.5</ele><time>2026-04-30T07:43:40.998Z</time></trkpt><trkpt lat="44.748998201147415" lon="9.593573592427202"><ele>418.25</ele><time>2026-04-30T07:43:41.998Z</time></trkpt><trkpt lat="44.74887063423014" lon="9.593517492449813"><ele>421.0</ele><time>2026-04-30T07:43:42.998Z</time></trkpt><trkpt lat="44.748746196988776" lon="9.593440329348738"><ele>421.0</ele><time>2026-04-30T07:43:43.998Z</time></trkpt><trkpt lat="44.74863783929311" lon="9.593354668347034"><ele>421.0</ele><time>2026-04-30T07:43:44.998Z</time></trkpt><trkpt lat="44.74852470231946" lon="9.593240045756243"><ele>421.0</ele><time>2026-04-30T07:43:45.998Z</time></trkpt><trkpt lat="44.748399602955345" lon="9.593123298780348"><ele>421.0</ele><time>2026-04-30T07:43:46.998Z</time></trkpt><trkpt lat="44.74827771115474" lon="9.593016800450908"><ele>420.75</ele><time>2026-04-30T07:43:47.998Z</time></trkpt><trkpt lat="44.748146056810775" lon="9.592947144438869"><ele>420.5</ele><time>2026-04-30T07:43:48.998Z</time></trkpt><trkpt lat="44.74801206682469" lon="9.592860210595486"><ele>420.25</ele><time>2026-04-30T07:43:49.998Z</time></trkpt><trkpt lat="44.747891041130785" lon="9.592809053042652"><ele>420.0</ele><time>2026-04-30T07:43:50.998Z</time></trkpt><trkpt lat="44.74777226348326" lon="9.592802216052014"><ele>421.25</ele><time>2026-04-30T07:43:51.998Z</time></trkpt><trkpt lat="44.747654605083895" lon="9.592867722404954"><ele>422.5</ele><time>2026-04-30T07:43:52.998Z</time></trkpt><trkpt lat="44.747564259005145" lon="9.592953048694458"><ele>423.75</ele><time>2026-04-30T07:43:53.998Z</time></trkpt><trkpt lat="44.747478802076365" lon="9.593120554481613"><ele>425.0</ele><time>2026-04-30T07:43:54.998Z</time></trkpt><trkpt lat="44.74741647842779" lon="9.593280356383701"><ele>424.99999999999994</ele><time>2026-04-30T07:43:55.998Z</time></trkpt><trkpt lat="44.747405538978796" lon="9.593425192619508"><ele>425.0</ele><time>2026-04-30T07:43:56.998Z</time></trkpt><trkpt lat="44.747351669342365" lon="9.593533358679815"><ele>425.0</ele><time>2026-04-30T07:43:57.998Z</time></trkpt><trkpt lat="44.74730285425913" lon="9.593595405109982"><ele>425.0</ele><time>2026-04-30T07:43:58.998Z</time></trkpt><trkpt lat="44.74724458429989" lon="9.593635498551286"><ele>424.99999999999994</ele><time>2026-04-30T07:43:59.998Z</time></trkpt><trkpt lat="44.74715164016239" lon="9.59364132350885"><ele>425.0</ele><time>2026-04-30T07:44:00.998Z</time></trkpt><trkpt lat="44.74701657212264" lon="9.593596412031056"><ele>426.3333333333333</ele><time>2026-04-30T07:44:01.998Z</time></trkpt><trkpt lat="44.746868913987676" lon="9.593543416193802"><ele>427.66666666666663</ele><time>2026-04-30T07:44:02.998Z</time></trkpt><trkpt lat="44.74672989441512" lon="9.593478410689821"><ele>429.0</ele><time>2026-04-30T07:44:03.998Z</time></trkpt><trkpt lat="44.74658782904329" lon="9.59338764032548"><ele>429.0</ele><time>2026-04-30T07:44:04.998Z</time></trkpt><trkpt lat="44.74641297744052" lon="9.59325643714876"><ele>429.0</ele><time>2026-04-30T07:44:05.998Z</time></trkpt><trkpt lat="44.74625555754262" lon="9.593140273275532"><ele>429.0</ele><time>2026-04-30T07:44:06.998Z</time></trkpt><trkpt lat="44.7461003942231" lon="9.593036624006558"><ele>433.33333333333337</ele><time>2026-04-30T07:44:07.998Z</time></trkpt><trkpt lat="44.74596162431913" lon="9.592910461086792"><ele>437.6666666666667</ele><time>2026-04-30T07:44:08.998Z</time></trkpt><trkpt lat="44.745825967751614" lon="9.592787425113228"><ele>442.0</ele><time>2026-04-30T07:44:09.998Z</time></trkpt><trkpt lat="44.74569181218247" lon="9.59266353310356"><ele>442.0</ele><time>2026-04-30T07:44:10.998Z</time></trkpt><trkpt lat="44.745550203950025" lon="9.592545686711915"><ele>442.0</ele><time>2026-04-30T07:44:11.998Z</time></trkpt><trkpt lat="44.745426732957156" lon="9.592463879335696"><ele>442.0</ele><time>2026-04-30T07:44:12.998Z</time></trkpt><trkpt lat="44.74528281450993" lon="9.592372495532619"><ele>429.33333333333337</ele><time>2026-04-30T07:44:13.998Z</time></trkpt><trkpt lat="44.74512165267406" lon="9.59226001692563"><ele>416.66666666666663</ele><time>2026-04-30T07:44:14.998Z</time></trkpt><trkpt lat="44.74496954769606" lon="9.592177079112636"><ele>404.0</ele><time>2026-04-30T07:44:15.998Z</time></trkpt><trkpt lat="44.74485482584442" lon="9.592069410133279"><ele>418.66666666666663</ele><time>2026-04-30T07:44:16.998Z</time></trkpt><trkpt lat="44.74473075987201" lon="9.591957598444147"><ele>433.33333333333337</ele><time>2026-04-30T07:44:17.998Z</time></trkpt><trkpt lat="44.74457597142806" lon="9.591816207197938"><ele>448.0</ele><time>2026-04-30T07:44:18.998Z</time></trkpt><trkpt lat="44.74442952457491" lon="9.591696128442141"><ele>439.6666666666667</ele><time>2026-04-30T07:44:19.998Z</time></trkpt><trkpt lat="44.744290552599274" lon="9.59158773679585"><ele>431.33333333333337</ele><time>2026-04-30T07:44:20.998Z</time></trkpt><trkpt lat="44.74414358452739" lon="9.59147445858829"><ele>423.0</ele><time>2026-04-30T07:44:21.998Z</time></trkpt><trkpt lat="44.74398738933884" lon="9.59136756066896"><ele>423.0</ele><time>2026-04-30T07:44:22.998Z</time></trkpt><trkpt lat="44.74385223220065" lon="9.591273631089816"><ele>423.0</ele><time>2026-04-30T07:44:23.998Z</time></trkpt><trkpt lat="44.74371112944694" lon="9.591174157555297"><ele>423.0</ele><time>2026-04-30T07:44:24.998Z</time></trkpt><trkpt lat="44.74357065860314" lon="9.591071314577135"><ele>426.33333333333337</ele><time>2026-04-30T07:44:25.998Z</time></trkpt><trkpt lat="44.743413252258875" lon="9.59096573679308"><ele>429.6666666666667</ele><time>2026-04-30T07:44:26.998Z</time></trkpt><trkpt lat="44.74326548115207" lon="9.5908180605294"><ele>433.0</ele><time>2026-04-30T07:44:27.998Z</time></trkpt><trkpt lat="44.74311665935842" lon="9.590695889331254"><ele>433.0</ele><time>2026-04-30T07:44:28.998Z</time></trkpt><trkpt lat="44.7429533552134" lon="9.590570623381529"><ele>433.0</ele><time>2026-04-30T07:44:29.998Z</time></trkpt><trkpt lat="44.74279087923067" lon="9.590441850270135"><ele>433.0</ele><time>2026-04-30T07:44:30.998Z</time></trkpt><trkpt lat="44.742670597830816" lon="9.590321597729156"><ele>433.33333333333337</ele><time>2026-04-30T07:44:31.998Z</time></trkpt><trkpt lat="44.74254942782006" lon="9.590192088729228"><ele>433.66666666666663</ele><time>2026-04-30T07:44:32.998Z</time></trkpt><trkpt lat="44.74239354831719" lon="9.59003402607658"><ele>434.0</ele><time>2026-04-30T07:44:33.998Z</time></trkpt><trkpt lat="44.74225030521074" lon="9.589905849060063"><ele>434.0</ele><time>2026-04-30T07:44:34.998Z</time></trkpt><trkpt lat="44.742107545928825" lon="9.589817746521124"><ele>434.0</ele><time>2026-04-30T07:44:35.998Z</time></trkpt><trkpt lat="44.74200421624927" lon="9.589706818256436"><ele>434.0</ele><time>2026-04-30T07:44:36.998Z</time></trkpt><trkpt lat="44.74189888665516" lon="9.589688522228474"><ele>434.0</ele><time>2026-04-30T07:44:37.998Z</time></trkpt><trkpt lat="44.74177849877565" lon="9.589710404925983"><ele>433.4</ele><time>2026-04-30T07:44:38.998Z</time></trkpt><trkpt lat="44.74166552432514" lon="9.589753878163751"><ele>432.79999999999995</ele><time>2026-04-30T07:44:39.998Z</time></trkpt><trkpt lat="44.74156335566374" lon="9.589781159167597"><ele>432.20000000000005</ele><time>2026-04-30T07:44:40.998Z</time></trkpt><trkpt lat="44.741465189997825" lon="9.589724052839989"><ele>431.6</ele><time>2026-04-30T07:44:41.998Z</time></trkpt><trkpt lat="44.74141810184522" lon="9.589623374570042"><ele>431.0</ele><time>2026-04-30T07:44:42.998Z</time></trkpt><trkpt lat="44.74139616791344" lon="9.58950465745925"><ele>431.0</ele><time>2026-04-30T07:44:43.998Z</time></trkpt><trkpt lat="44.74139942789198" lon="9.589388265834048"><ele>431.0</ele><time>2026-04-30T07:44:44.998Z</time></trkpt><trkpt lat="44.741407145303945" lon="9.58915790169213"><ele>431.0</ele><time>2026-04-30T07:44:45.998Z</time></trkpt><trkpt lat="44.74138683131303" lon="9.588976663881274"><ele>431.0</ele><time>2026-04-30T07:44:46.998Z</time></trkpt><trkpt lat="44.74135749509163" lon="9.588849319586368"><ele>431.0</ele><time>2026-04-30T07:44:47.998Z</time></trkpt><trkpt lat="44.74126136481108" lon="9.588784251305114"><ele>431.0</ele><time>2026-04-30T07:44:48.998Z</time></trkpt><trkpt lat="44.74115348567313" lon="9.588693130307167"><ele>431.0</ele><time>2026-04-30T07:44:49.998Z</time></trkpt><trkpt lat="44.74104632603344" lon="9.588600711965109"><ele>431.0</ele><time>2026-04-30T07:44:50.998Z</time></trkpt><trkpt lat="44.74092605340873" lon="9.58858168868392"><ele>431.75</ele><time>2026-04-30T07:44:51.998Z</time></trkpt><trkpt lat="44.740796227550504" lon="9.588644933780996"><ele>432.5</ele><time>2026-04-30T07:44:52.998Z</time></trkpt><trkpt lat="44.74068379493769" lon="9.588717338835458"><ele>433.25</ele><time>2026-04-30T07:44:53.998Z</time></trkpt><trkpt lat="44.740563219012884" lon="9.588766199205407"><ele>434.0</ele><time>2026-04-30T07:44:54.998Z</time></trkpt><trkpt lat="44.7404301253427" lon="9.588704322583505"><ele>434.0</ele><time>2026-04-30T07:44:55.998Z</time></trkpt><trkpt lat="44.740287342683224" lon="9.588633780940013"><ele>434.0</ele><time>2026-04-30T07:44:56.998Z</time></trkpt><trkpt lat="44.7401676231201" lon="9.588533627957142"><ele>434.0</ele><time>2026-04-30T07:44:57.998Z</time></trkpt><trkpt lat="44.74006237246028" lon="9.588419627707857"><ele>434.0</ele><time>2026-04-30T07:44:58.998Z</time></trkpt><trkpt lat="44.73995165735229" lon="9.588348619086453"><ele>433.5</ele><time>2026-04-30T07:44:59.998Z</time></trkpt><trkpt lat="44.73983432446667" lon="9.588265147909839"><ele>433.0</ele><time>2026-04-30T07:45:00.998Z</time></trkpt><trkpt lat="44.73972627809836" lon="9.588183145441043"><ele>432.5</ele><time>2026-04-30T07:45:01.998Z</time></trkpt><trkpt lat="44.739619714001286" lon="9.588148027886744"><ele>432.0</ele><time>2026-04-30T07:45:02.998Z</time></trkpt><trkpt lat="44.739498184822615" lon="9.58820790513312"><ele>432.0</ele><time>2026-04-30T07:45:03.998Z</time></trkpt><trkpt lat="44.7393865899824" lon="9.588304322135725"><ele>432.0</ele><time>2026-04-30T07:45:04.998Z</time></trkpt><trkpt lat="44.7392960496501" lon="9.588399441784562"><ele>432.0</ele><time>2026-04-30T07:45:05.998Z</time></trkpt><trkpt lat="44.7392193686524" lon="9.588492867569428"><ele>432.0</ele><time>2026-04-30T07:45:06.998Z</time></trkpt><trkpt lat="44.73912281029061" lon="9.588568707347452"><ele>432.25</ele><time>2026-04-30T07:45:07.998Z</time></trkpt><trkpt lat="44.739024511026976" lon="9.588569914782887"><ele>432.5</ele><time>2026-04-30T07:45:08.998Z</time></trkpt><trkpt lat="44.7389007535708" lon="9.588558599975187"><ele>432.75</ele><time>2026-04-30T07:45:09.998Z</time></trkpt><trkpt lat="44.738777061689014" lon="9.588531190077083"><ele>433.0</ele><time>2026-04-30T07:45:10.998Z</time></trkpt><trkpt lat="44.73866619579949" lon="9.588489201087201"><ele>432.25</ele><time>2026-04-30T07:45:11.998Z</time></trkpt><trkpt lat="44.738547001538166" lon="9.588422460642127"><ele>431.5</ele><time>2026-04-30T07:45:12.998Z</time></trkpt><trkpt lat="44.73843862072656" lon="9.588321763863938"><ele>430.75</ele><time>2026-04-30T07:45:13.998Z</time></trkpt><trkpt lat="44.73832754375858" lon="9.588211260661087"><ele>430.0</ele><time>2026-04-30T07:45:14.998Z</time></trkpt><trkpt lat="44.738210679321185" lon="9.588139744726492"><ele>430.0</ele><time>2026-04-30T07:45:15.998Z</time></trkpt><trkpt lat="44.73809366525072" lon="9.58806736630673"><ele>430.0</ele><time>2026-04-30T07:45:16.998Z</time></trkpt><trkpt lat="44.73798304310984" lon="9.588029439143021"><ele>430.0</ele><time>2026-04-30T07:45:17.998Z</time></trkpt><trkpt lat="44.73786521350275" lon="9.588058670544209"><ele>430.0</ele><time>2026-04-30T07:45:18.998Z</time></trkpt><trkpt lat="44.73775595209626" lon="9.588081768793959"><ele>428.0</ele><time>2026-04-30T07:45:19.998Z</time></trkpt><trkpt lat="44.73762093955691" lon="9.58806905132727"><ele>426.0</ele><time>2026-04-30T07:45:20.998Z</time></trkpt><trkpt lat="44.737471989393526" lon="9.588054369776605"><ele>424.0</ele><time>2026-04-30T07:45:21.998Z</time></trkpt><trkpt lat="44.737324264951454" lon="9.588034920581888"><ele>422.0</ele><time>2026-04-30T07:45:22.998Z</time></trkpt><trkpt lat="44.73720902680981" lon="9.587982636241955"><ele>422.0</ele><time>2026-04-30T07:45:23.998Z</time></trkpt><trkpt lat="44.737110376549545" lon="9.587916551823167"><ele>422.0</ele><time>2026-04-30T07:45:24.998Z</time></trkpt><trkpt lat="44.73701227546676" lon="9.587810305752031"><ele>422.0</ele><time>2026-04-30T07:45:25.998Z</time></trkpt><trkpt lat="44.7369280898739" lon="9.587683264190801"><ele>422.0</ele><time>2026-04-30T07:45:26.998Z</time></trkpt><trkpt lat="44.736872424008574" lon="9.587542776910933"><ele>424.75</ele><time>2026-04-30T07:45:27.998Z</time></trkpt><trkpt lat="44.736805567101975" lon="9.587422902803954"><ele>427.5</ele><time>2026-04-30T07:45:28.998Z</time></trkpt><trkpt lat="44.73671908481051" lon="9.587326593700519"><ele>430.25</ele><time>2026-04-30T07:45:29.998Z</time></trkpt><trkpt lat="44.7365883554588" lon="9.587259347221854"><ele>433.0</ele><time>2026-04-30T07:45:30.998Z</time></trkpt><trkpt lat="44.73646886623461" lon="9.587236843335885"><ele>433.0</ele><time>2026-04-30T07:45:31.998Z</time></trkpt><trkpt lat="44.73635488506903" lon="9.587251185413132"><ele>433.0</ele><time>2026-04-30T07:45:32.998Z</time></trkpt><trkpt lat="44.73625488645753" lon="9.587315243984316"><ele>433.0</ele><time>2026-04-30T07:45:33.998Z</time></trkpt><trkpt lat="44.73614198306833" lon="9.587349993831857"><ele>433.0</ele><time>2026-04-30T07:45:34.998Z</time></trkpt><trkpt lat="44.73601214582624" lon="9.587371053658362"><ele>434.25</ele><time>2026-04-30T07:45:35.998Z</time></trkpt><trkpt lat="44.73586740567869" lon="9.58737557636091"><ele>435.5</ele><time>2026-04-30T07:45:36.997Z</time></trkpt><trkpt lat="44.73571668011705" lon="9.587384347812359"><ele>436.75</ele><time>2026-04-30T07:45:37.997Z</time></trkpt><trkpt lat="44.735567979501276" lon="9.587378018581973"><ele>438.0</ele><time>2026-04-30T07:45:38.997Z</time></trkpt><trkpt lat="44.73541406275612" lon="9.587373639891595"><ele>438.0</ele><time>2026-04-30T07:45:39.997Z</time></trkpt><trkpt lat="44.73527129135813" lon="9.587394620488322"><ele>438.0</ele><time>2026-04-30T07:45:40.997Z</time></trkpt><trkpt lat="44.73512071801087" lon="9.587391154548126"><ele>438.0</ele><time>2026-04-30T07:45:41.997Z</time></trkpt><trkpt lat="44.73499530989343" lon="9.587370188864242"><ele>438.0</ele><time>2026-04-30T07:45:42.997Z</time></trkpt><trkpt lat="44.734850065208725" lon="9.58731088127038"><ele>435.66666666666663</ele><time>2026-04-30T07:45:43.997Z</time></trkpt><trkpt lat="44.734697951758896" lon="9.587242301953076"><ele>433.3333333333333</ele><time>2026-04-30T07:45:44.997Z</time></trkpt><trkpt lat="44.73454539507369" lon="9.587172266928809"><ele>431.0</ele><time>2026-04-30T07:45:45.997Z</time></trkpt><trkpt lat="44.73439262533672" lon="9.58710320842526"><ele>429.3333333333333</ele><time>2026-04-30T07:45:46.997Z</time></trkpt><trkpt lat="44.734241469595446" lon="9.587057701215137"><ele>427.66666666666663</ele><time>2026-04-30T07:45:47.997Z</time></trkpt><trkpt lat="44.73406768922704" lon="9.587030839493579"><ele>426.0</ele><time>2026-04-30T07:45:48.997Z</time></trkpt><trkpt lat="44.73390450153126" lon="9.587046321482081"><ele>426.0</ele><time>2026-04-30T07:45:49.997Z</time></trkpt><trkpt lat="44.733776373793916" lon="9.587132417975438"><ele>426.0</ele><time>2026-04-30T07:45:50.997Z</time></trkpt><trkpt lat="44.733661436117494" lon="9.587231703307847"><ele>426.0</ele><time>2026-04-30T07:45:51.997Z</time></trkpt><trkpt lat="44.733525555636774" lon="9.587269604402403"><ele>426.0</ele><time>2026-04-30T07:45:52.997Z</time></trkpt><trkpt lat="44.7333995932668" lon="9.58725533776593"><ele>426.33333333333337</ele><time>2026-04-30T07:45:53.997Z</time></trkpt><trkpt lat="44.733255123753906" lon="9.587192425699795"><ele>426.6666666666667</ele><time>2026-04-30T07:45:54.997Z</time></trkpt><trkpt lat="44.73310364773318" lon="9.587131523979478"><ele>427.0</ele><time>2026-04-30T07:45:55.997Z</time></trkpt><trkpt lat="44.7329514890727" lon="9.587034795279182"><ele>429.6666666666667</ele><time>2026-04-30T07:45:56.997Z</time></trkpt><trkpt lat="44.73279748034334" lon="9.586945855367427"><ele>432.33333333333337</ele><time>2026-04-30T07:45:57.997Z</time></trkpt><trkpt lat="44.73267539990505" lon="9.58683195415041"><ele>435.0</ele><time>2026-04-30T07:45:58.997Z</time></trkpt><trkpt lat="44.73256612968742" lon="9.5867130165309"><ele>435.0</ele><time>2026-04-30T07:45:59.997Z</time></trkpt><trkpt lat="44.73244967834067" lon="9.586585529144415"><ele>435.0</ele><time>2026-04-30T07:46:00.997Z</time></trkpt><trkpt lat="44.73231308425609" lon="9.586455739224897"><ele>435.0</ele><time>2026-04-30T07:46:01.997Z</time></trkpt><trkpt lat="44.73219853702604" lon="9.586317862377467"><ele>435.0</ele><time>2026-04-30T07:46:02.997Z</time></trkpt><trkpt lat="44.73206995390781" lon="9.586216124390981"><ele>435.0</ele><time>2026-04-30T07:46:03.997Z</time></trkpt><trkpt lat="44.73193517784068" lon="9.586115542128164"><ele>435.0</ele><time>2026-04-30T07:46:04.997Z</time></trkpt><trkpt lat="44.731782340477686" lon="9.586026148501203"><ele>437.75</ele><time>2026-04-30T07:46:05.997Z</time></trkpt><trkpt lat="44.731648852358084" lon="9.585998130157463"><ele>440.5</ele><time>2026-04-30T07:46:06.997Z</time></trkpt><trkpt lat="44.731501768569345" lon="9.585962061079936"><ele>443.25</ele><time>2026-04-30T07:46:07.997Z</time></trkpt><trkpt lat="44.73135015554603" lon="9.585943072341042"><ele>446.0</ele><time>2026-04-30T07:46:08.997Z</time></trkpt><trkpt lat="44.731208725143574" lon="9.585906296871089"><ele>446.0</ele><time>2026-04-30T07:46:09.997Z</time></trkpt><trkpt lat="44.73108648632512" lon="9.585816117357828"><ele>446.0</ele><time>2026-04-30T07:46:10.997Z</time></trkpt><trkpt lat="44.73097245723758" lon="9.585724117550388"><ele>446.0</ele><time>2026-04-30T07:46:11.997Z</time></trkpt><trkpt lat="44.73086293631085" lon="9.585653213163846"><ele>446.0</ele><time>2026-04-30T07:46:12.997Z</time></trkpt><trkpt lat="44.73076479591334" lon="9.585564132613081"><ele>446.75</ele><time>2026-04-30T07:46:13.997Z</time></trkpt><trkpt lat="44.73067528029769" lon="9.58541845048522"><ele>447.5</ele><time>2026-04-30T07:46:14.997Z</time></trkpt><trkpt lat="44.73060421300087" lon="9.585240226168635"><ele>448.25</ele><time>2026-04-30T07:46:15.997Z</time></trkpt><trkpt lat="44.73052504936777" lon="9.585036449063061"><ele>449.0</ele><time>2026-04-30T07:46:16.997Z</time></trkpt><trkpt lat="44.730473936090256" lon="9.584821841954993"><ele>449.0</ele><time>2026-04-30T07:46:17.997Z</time></trkpt><trkpt lat="44.7304179972247" lon="9.584596406797047"><ele>449.0</ele><time>2026-04-30T07:46:18.997Z</time></trkpt><trkpt lat="44.730353206233005" lon="9.584394052203537"><ele>449.0</ele><time>2026-04-30T07:46:19.997Z</time></trkpt><trkpt lat="44.7302797706508" lon="9.584198968589071"><ele>445.3333333333333</ele><time>2026-04-30T07:46:20.997Z</time></trkpt><trkpt lat="44.7301824432915" lon="9.583989009891013"><ele>441.66666666666663</ele><time>2026-04-30T07:46:21.997Z</time></trkpt><trkpt lat="44.73005143494" lon="9.583878372106751"><ele>438.0</ele><time>2026-04-30T07:46:22.997Z</time></trkpt><trkpt lat="44.72987512129673" lon="9.583780078348592"><ele>444.33333333333337</ele><time>2026-04-30T07:46:23.997Z</time></trkpt><trkpt lat="44.7297267229586" lon="9.583655730636572"><ele>450.6666666666667</ele><time>2026-04-30T07:46:24.997Z</time></trkpt><trkpt lat="44.729571351234995" lon="9.583530357488032"><ele>457.0</ele><time>2026-04-30T07:46:26Z</time></trkpt><trkpt lat="44.729441730812425" lon="9.583397992037872"><ele>450.6666666666667</ele><time>2026-04-30T07:46:27Z</time></trkpt><trkpt lat="44.72928225298806" lon="9.58330841800367"><ele>444.33333333333337</ele><time>2026-04-30T07:46:28Z</time></trkpt><trkpt lat="44.729154857205955" lon="9.583209141995896"><ele>438.0</ele><time>2026-04-30T07:46:29Z</time></trkpt><trkpt lat="44.72903259004912" lon="9.583080954874864"><ele>438.0</ele><time>2026-04-30T07:46:30Z</time></trkpt><trkpt lat="44.72893649767204" lon="9.582949404703058"><ele>438.0</ele><time>2026-04-30T07:46:31Z</time></trkpt><trkpt lat="44.72881659621319" lon="9.58284138737952"><ele>438.0</ele><time>2026-04-30T07:46:32Z</time></trkpt><trkpt lat="44.728754762091796" lon="9.582669557797475"><ele>438.0</ele><time>2026-04-30T07:46:33Z</time></trkpt><trkpt lat="44.728670532786225" lon="9.582506992392819"><ele>437.0</ele><time>2026-04-30T07:46:34Z</time></trkpt><trkpt lat="44.72856170245022" lon="9.582378482756617"><ele>436.0</ele><time>2026-04-30T07:46:35Z</time></trkpt><trkpt lat="44.728446824089296" lon="9.582297664885054"><ele>435.0</ele><time>2026-04-30T07:46:36Z</time></trkpt><trkpt lat="44.72831005145841" lon="9.582276981816614"><ele>434.0</ele><time>2026-04-30T07:46:37Z</time></trkpt><trkpt lat="44.728209149952214" lon="9.582221833148518"><ele>434.0</ele><time>2026-04-30T07:46:38Z</time></trkpt><trkpt lat="44.728139743644135" lon="9.582127075612256"><ele>434.0</ele><time>2026-04-30T07:46:39Z</time></trkpt><trkpt lat="44.72807646517732" lon="9.58198441384074"><ele>434.0</ele><time>2026-04-30T07:46:40Z</time></trkpt><trkpt lat="44.72804416868101" lon="9.58178653902202"><ele>434.0</ele><time>2026-04-30T07:46:41Z</time></trkpt><trkpt lat="44.72801279740476" lon="9.581588873066556"><ele>439.0</ele><time>2026-04-30T07:46:42Z</time></trkpt><trkpt lat="44.72797550213855" lon="9.58136352789324"><ele>444.0</ele><time>2026-04-30T07:46:43Z</time></trkpt><trkpt lat="44.72794183114117" lon="9.58117994086099"><ele>449.0</ele><time>2026-04-30T07:46:44Z</time></trkpt><trkpt lat="44.72790565920015" lon="9.580982717255992"><ele>454.0</ele><time>2026-04-30T07:46:45Z</time></trkpt><trkpt lat="44.72785738109884" lon="9.580760818631099"><ele>457.25</ele><time>2026-04-30T07:46:46Z</time></trkpt><trkpt lat="44.7278371834277" lon="9.58058714230296"><ele>460.5</ele><time>2026-04-30T07:46:47Z</time></trkpt><trkpt lat="44.72780538282814" lon="9.580381752249023"><ele>463.75</ele><time>2026-04-30T07:46:48Z</time></trkpt><trkpt lat="44.72777841848289" lon="9.580201941027596"><ele>467.0</ele><time>2026-04-30T07:46:49Z</time></trkpt><trkpt lat="44.727745782623266" lon="9.579985357596017"><ele>460.0</ele><time>2026-04-30T07:46:50Z</time></trkpt><trkpt lat="44.72770235323622" lon="9.57978068376938"><ele>453.0</ele><time>2026-04-30T07:46:51Z</time></trkpt><trkpt lat="44.72764400169587" lon="9.57957931610082"><ele>446.0</ele><time>2026-04-30T07:46:52Z</time></trkpt><trkpt lat="44.727543448754865" lon="9.57936141170167"><ele>446.0</ele><time>2026-04-30T07:46:53Z</time></trkpt><trkpt lat="44.72745929665865" lon="9.579192352067928"><ele>446.0</ele><time>2026-04-30T07:46:54Z</time></trkpt><trkpt lat="44.72738656617738" lon="9.579009491386731"><ele>446.0</ele><time>2026-04-30T07:46:55Z</time></trkpt><trkpt lat="44.72734068339303" lon="9.578802586159874"><ele>451.75</ele><time>2026-04-30T07:46:56Z</time></trkpt><trkpt lat="44.727281440337194" lon="9.578600183798306"><ele>457.5</ele><time>2026-04-30T07:46:57Z</time></trkpt><trkpt lat="44.72721999506767" lon="9.57842040088351"><ele>463.25</ele><time>2026-04-30T07:46:58Z</time></trkpt><trkpt lat="44.727158286394065" lon="9.578233637679695"><ele>469.0</ele><time>2026-04-30T07:46:59Z</time></trkpt><trkpt lat="44.72710441465808" lon="9.578042150151157"><ele>469.0</ele><time>2026-04-30T07:47:00Z</time></trkpt><trkpt lat="44.72710822491115" lon="9.577867391541846"><ele>469.0</ele><time>2026-04-30T07:47:01Z</time></trkpt><trkpt lat="44.727147892607675" lon="9.577734070085949"><ele>469.0</ele><time>2026-04-30T07:47:02Z</time></trkpt><trkpt lat="44.72717882297234" lon="9.577550342138839"><ele>469.0</ele><time>2026-04-30T07:47:03Z</time></trkpt><trkpt lat="44.727219676576226" lon="9.577346218585207"><ele>473.75</ele><time>2026-04-30T07:47:04Z</time></trkpt><trkpt lat="44.727268525350894" lon="9.577148381772345"><ele>478.5</ele><time>2026-04-30T07:47:05Z</time></trkpt><trkpt lat="44.72730541787104" lon="9.576965393105718"><ele>483.25</ele><time>2026-04-30T07:47:06Z</time></trkpt><trkpt lat="44.727316278213785" lon="9.576835745003608"><ele>488.0</ele><time>2026-04-30T07:47:07Z</time></trkpt><trkpt lat="44.727281820206734" lon="9.57668357568549"><ele>488.5</ele><time>2026-04-30T07:47:09Z</time></trkpt><trkpt lat="44.72726148284434" lon="9.576542573250215"><ele>489.0</ele><time>2026-04-30T07:47:10Z</time></trkpt><trkpt lat="44.727202975997734" lon="9.576429818091585"><ele>489.5</ele><time>2026-04-30T07:47:11Z</time></trkpt><trkpt lat="44.727074089225205" lon="9.576431414737488"><ele>490.0</ele><time>2026-04-30T07:47:12Z</time></trkpt><trkpt lat="44.72692087838608" lon="9.576438682413883"><ele>482.5</ele><time>2026-04-30T07:47:13Z</time></trkpt><trkpt lat="44.72681759659973" lon="9.576526402603083"><ele>475.0</ele><time>2026-04-30T07:47:14Z</time></trkpt><trkpt lat="44.72676661886397" lon="9.576678325326109"><ele>467.5</ele><time>2026-04-30T07:47:15Z</time></trkpt><trkpt lat="44.72669730867115" lon="9.576797631994841"><ele>460.0</ele><time>2026-04-30T07:47:16Z</time></trkpt><trkpt lat="44.72661047382616" lon="9.576935007627029"><ele>456.0</ele><time>2026-04-30T07:47:17Z</time></trkpt><trkpt lat="44.72651667169636" lon="9.57707369721652"><ele>452.0</ele><time>2026-04-30T07:47:18Z</time></trkpt><trkpt lat="44.726416576856295" lon="9.577167717264777"><ele>448.0</ele><time>2026-04-30T07:47:19Z</time></trkpt><trkpt lat="44.726305979508396" lon="9.577170441896078"><ele>444.0</ele><time>2026-04-30T07:47:20Z</time></trkpt><trkpt lat="44.72618652551451" lon="9.57708702509702"><ele>447.33333333333337</ele><time>2026-04-30T07:47:21Z</time></trkpt><trkpt lat="44.72605871125365" lon="9.576964862970213"><ele>450.6666666666667</ele><time>2026-04-30T07:47:22Z</time></trkpt><trkpt lat="44.72592516160559" lon="9.576864605853428"><ele>454.0</ele><time>2026-04-30T07:47:23Z</time></trkpt><trkpt lat="44.72579968456429" lon="9.576743472607335"><ele>454.0</ele><time>2026-04-30T07:47:24Z</time></trkpt><trkpt lat="44.72568199848472" lon="9.57660735424516"><ele>454.0</ele><time>2026-04-30T07:47:25Z</time></trkpt><trkpt lat="44.72556794873085" lon="9.576470285752428"><ele>454.0</ele><time>2026-04-30T07:47:26Z</time></trkpt><trkpt lat="44.72544158370168" lon="9.576348581071416"><ele>454.0</ele><time>2026-04-30T07:47:27Z</time></trkpt><trkpt lat="44.725315231049976" lon="9.576287468360226"><ele>454.0</ele><time>2026-04-30T07:47:28Z</time></trkpt><trkpt lat="44.72518827835478" lon="9.576239630722066"><ele>454.0</ele><time>2026-04-30T07:47:29Z</time></trkpt><trkpt lat="44.725038998628044" lon="9.57619693397757"><ele>454.0</ele><time>2026-04-30T07:47:30Z</time></trkpt><trkpt lat="44.72488633860909" lon="9.576215235272137"><ele>449.33333333333337</ele><time>2026-04-30T07:47:30.999Z</time></trkpt><trkpt lat="44.72471856913638" lon="9.576243289984939"><ele>444.66666666666663</ele><time>2026-04-30T07:47:31.999Z</time></trkpt><trkpt lat="44.724568455185135" lon="9.576258047299332"><ele>440.0</ele><time>2026-04-30T07:47:32.999Z</time></trkpt><trkpt lat="44.72442008012865" lon="9.576239949665636"><ele>450.0</ele><time>2026-04-30T07:47:33.999Z</time></trkpt><trkpt lat="44.724268509556005" lon="9.57618506803908"><ele>460.0</ele><time>2026-04-30T07:47:34.999Z</time></trkpt><trkpt lat="44.724129035617096" lon="9.576162862023661"><ele>470.0</ele><time>2026-04-30T07:47:35.999Z</time></trkpt><trkpt lat="44.72398216193849" lon="9.576084208738788"><ele>470.0</ele><time>2026-04-30T07:47:36.999Z</time></trkpt><trkpt lat="44.723852351118765" lon="9.575951241623162"><ele>470.0</ele><time>2026-04-30T07:47:37.999Z</time></trkpt><trkpt lat="44.72369345295492" lon="9.575894788401737"><ele>470.0</ele><time>2026-04-30T07:47:38.999Z</time></trkpt><trkpt lat="44.72353804883638" lon="9.575817287975859"><ele>464.3333333333333</ele><time>2026-04-30T07:47:39.999Z</time></trkpt><trkpt lat="44.723382592947516" lon="9.57572078353194"><ele>458.66666666666663</ele><time>2026-04-30T07:47:40.999Z</time></trkpt><trkpt lat="44.72322900775853" lon="9.575657944753317"><ele>453.0</ele><time>2026-04-30T07:47:41.999Z</time></trkpt><trkpt lat="44.72310819579323" lon="9.575616713706953"><ele>453.0</ele><time>2026-04-30T07:47:42.999Z</time></trkpt><trkpt lat="44.72295883896405" lon="9.575571440945238"><ele>453.0</ele><time>2026-04-30T07:47:43.999Z</time></trkpt><trkpt lat="44.72279973567005" lon="9.575535025834766"><ele>453.0</ele><time>2026-04-30T07:47:44.999Z</time></trkpt><trkpt lat="44.72263088193842" lon="9.57550339218796"><ele>448.0</ele><time>2026-04-30T07:47:45.999Z</time></trkpt><trkpt lat="44.72246795811136" lon="9.575468895634"><ele>443.0</ele><time>2026-04-30T07:47:46.999Z</time></trkpt><trkpt lat="44.72230709446526" lon="9.5754194565303"><ele>438.0</ele><time>2026-04-30T07:47:47.999Z</time></trkpt><trkpt lat="44.722150335543255" lon="9.575347089252688"><ele>445.0</ele><time>2026-04-30T07:47:48.999Z</time></trkpt><trkpt lat="44.72199811111514" lon="9.575272288888979"><ele>452.0</ele><time>2026-04-30T07:47:49.999Z</time></trkpt><trkpt lat="44.721830746725594" lon="9.575207129935864"><ele>459.0</ele><time>2026-04-30T07:47:50.999Z</time></trkpt><trkpt lat="44.72167733531136" lon="9.575112510107777"><ele>459.0</ele><time>2026-04-30T07:47:51.999Z</time></trkpt><trkpt lat="44.721562645464374" lon="9.575020533468868"><ele>459.0</ele><time>2026-04-30T07:47:52.999Z</time></trkpt><trkpt lat="44.7214723418211" lon="9.57491008091193"><ele>459.0</ele><time>2026-04-30T07:47:53.999Z</time></trkpt><trkpt lat="44.72138695593585" lon="9.57475424006779"><ele>459.0</ele><time>2026-04-30T07:47:54.999Z</time></trkpt><trkpt lat="44.721281205134275" lon="9.574600890942616"><ele>460.0</ele><time>2026-04-30T07:47:55.999Z</time></trkpt><trkpt lat="44.721178856274854" lon="9.574446732579139"><ele>461.0</ele><time>2026-04-30T07:47:56.999Z</time></trkpt><trkpt lat="44.721061805282496" lon="9.574319455541556"><ele>462.0</ele><time>2026-04-30T07:47:57.999Z</time></trkpt><trkpt lat="44.72090916437979" lon="9.57428263838487"><ele>462.0</ele><time>2026-04-30T07:47:58.999Z</time></trkpt><trkpt lat="44.72075019733261" lon="9.574299071442296"><ele>462.0</ele><time>2026-04-30T07:47:59.999Z</time></trkpt><trkpt lat="44.720594478087015" lon="9.574344886861388"><ele>462.0</ele><time>2026-04-30T07:48:00.999Z</time></trkpt><trkpt lat="44.72043400443154" lon="9.574407097293559"><ele>462.0</ele><time>2026-04-30T07:48:01.999Z</time></trkpt><trkpt lat="44.720284195444975" lon="9.574473309731696"><ele>462.0</ele><time>2026-04-30T07:48:02.999Z</time></trkpt><trkpt lat="44.72012663641249" lon="9.57452442008403"><ele>462.0</ele><time>2026-04-30T07:48:03.999Z</time></trkpt><trkpt lat="44.719961987178586" lon="9.574571778886169"><ele>457.0</ele><time>2026-04-30T07:48:04.999Z</time></trkpt><trkpt lat="44.7198148877051" lon="9.574594057729485"><ele>452.0</ele><time>2026-04-30T07:48:05.999Z</time></trkpt><trkpt lat="44.71967534651259" lon="9.574597640857743"><ele>447.0</ele><time>2026-04-30T07:48:06.999Z</time></trkpt><trkpt lat="44.71954677390258" lon="9.574623570660602"><ele>442.0</ele><time>2026-04-30T07:48:07.999Z</time></trkpt><trkpt lat="44.71942781366124" lon="9.574643745135763"><ele>440.0</ele><time>2026-04-30T07:48:08.999Z</time></trkpt><trkpt lat="44.71928653325755" lon="9.574603162165829"><ele>438.0</ele><time>2026-04-30T07:48:09.999Z</time></trkpt><trkpt lat="44.719142453595914" lon="9.574509618948788"><ele>436.0</ele><time>2026-04-30T07:48:10.999Z</time></trkpt><trkpt lat="44.719012167615894" lon="9.574355377425412"><ele>441.0</ele><time>2026-04-30T07:48:11.999Z</time></trkpt><trkpt lat="44.71889946611828" lon="9.574185762798546"><ele>446.0</ele><time>2026-04-30T07:48:12.999Z</time></trkpt><trkpt lat="44.71877180460534" lon="9.573991491099651"><ele>451.0</ele><time>2026-04-30T07:48:13.999Z</time></trkpt><trkpt lat="44.718652890177395" lon="9.573781028271739"><ele>448.0</ele><time>2026-04-30T07:48:14.999Z</time></trkpt><trkpt lat="44.71853986894152" lon="9.573581172032766"><ele>445.0</ele><time>2026-04-30T07:48:15.999Z</time></trkpt><trkpt lat="44.71842763252915" lon="9.573386715224139"><ele>442.0</ele><time>2026-04-30T07:48:16.999Z</time></trkpt><trkpt lat="44.71831454131975" lon="9.57323253522139"><ele>442.0</ele><time>2026-04-30T07:48:17.999Z</time></trkpt><trkpt lat="44.718188728826064" lon="9.573047799608693"><ele>442.0</ele><time>2026-04-30T07:48:18.999Z</time></trkpt><trkpt lat="44.718081219600556" lon="9.572857413959968"><ele>442.0</ele><time>2026-04-30T07:48:19.999Z</time></trkpt><trkpt lat="44.71795933670779" lon="9.572663098984693"><ele>439.6666666666667</ele><time>2026-04-30T07:48:20.999Z</time></trkpt><trkpt lat="44.71783656555096" lon="9.572484881297807"><ele>437.33333333333337</ele><time>2026-04-30T07:48:21.999Z</time></trkpt><trkpt lat="44.7177218436083" lon="9.57231063977732"><ele>435.0</ele><time>2026-04-30T07:48:22.999Z</time></trkpt><trkpt lat="44.717606848033114" lon="9.5721493329823"><ele>437.25</ele><time>2026-04-30T07:48:23.999Z</time></trkpt><trkpt lat="44.71750478469959" lon="9.572006753751232"><ele>439.5</ele><time>2026-04-30T07:48:24.999Z</time></trkpt><trkpt lat="44.717418174329495" lon="9.571871042777802"><ele>441.75</ele><time>2026-04-30T07:48:25.999Z</time></trkpt><trkpt lat="44.717332545587524" lon="9.571699349005247"><ele>444.0</ele><time>2026-04-30T07:48:26.999Z</time></trkpt><trkpt lat="44.7171984473715" lon="9.571538332419466"><ele>444.0</ele><time>2026-04-30T07:48:27.999Z</time></trkpt><trkpt lat="44.717096600529" lon="9.571398876179192"><ele>444.0</ele><time>2026-04-30T07:48:28.999Z</time></trkpt><trkpt lat="44.7169460744146" lon="9.571321109977928"><ele>444.0</ele><time>2026-04-30T07:48:29.999Z</time></trkpt><trkpt lat="44.71677010557953" lon="9.571291407007529"><ele>446.0</ele><time>2026-04-30T07:48:30.999Z</time></trkpt><trkpt lat="44.716590846452036" lon="9.571218979490709"><ele>448.0</ele><time>2026-04-30T07:48:31.999Z</time></trkpt><trkpt lat="44.716406140110024" lon="9.571201088080674"><ele>450.0</ele><time>2026-04-30T07:48:32.999Z</time></trkpt><trkpt lat="44.71623792827017" lon="9.5711188469909"><ele>450.0</ele><time>2026-04-30T07:48:33.999Z</time></trkpt><trkpt lat="44.71608662500433" lon="9.571027549508276"><ele>450.0</ele><time>2026-04-30T07:48:34.999Z</time></trkpt><trkpt lat="44.715938856269105" lon="9.570979291429309"><ele>450.0</ele><time>2026-04-30T07:48:35.999Z</time></trkpt><trkpt lat="44.71577888219477" lon="9.570967885219547"><ele>449.0</ele><time>2026-04-30T07:48:36.999Z</time></trkpt><trkpt lat="44.715618657392966" lon="9.570923420677865"><ele>448.0</ele><time>2026-04-30T07:48:37.999Z</time></trkpt><trkpt lat="44.715471148333144" lon="9.570903355118258"><ele>447.0</ele><time>2026-04-30T07:48:38.999Z</time></trkpt><trkpt lat="44.715342663993155" lon="9.570913619334222"><ele>446.0</ele><time>2026-04-30T07:48:39.999Z</time></trkpt><trkpt lat="44.71522066263148" lon="9.570880631351914"><ele>443.75</ele><time>2026-04-30T07:48:40.999Z</time></trkpt><trkpt lat="44.71511232516898" lon="9.570838293777209"><ele>441.5</ele><time>2026-04-30T07:48:41.999Z</time></trkpt><trkpt lat="44.71499126280583" lon="9.57078581816824"><ele>439.25</ele><time>2026-04-30T07:48:42.999Z</time></trkpt><trkpt lat="44.71487109247778" lon="9.570733833258975"><ele>437.0</ele><time>2026-04-30T07:48:43.999Z</time></trkpt><trkpt lat="44.71474161955194" lon="9.570698453499835"><ele>437.0</ele><time>2026-04-30T07:48:44.999Z</time></trkpt><trkpt lat="44.714612033753056" lon="9.570648284948643"><ele>437.00000000000006</ele><time>2026-04-30T07:48:45.999Z</time></trkpt><trkpt lat="44.71449838665267" lon="9.570585397234225"><ele>437.00000000000006</ele><time>2026-04-30T07:48:46.999Z</time></trkpt><trkpt lat="44.71440410638131" lon="9.570564141329925"><ele>437.0</ele><time>2026-04-30T07:48:47.999Z</time></trkpt><trkpt lat="44.714308176279715" lon="9.570558986652417"><ele>437.0</ele><time>2026-04-30T07:48:48.999Z</time></trkpt><trkpt lat="44.71421823129162" lon="9.570532083134674"><ele>437.99999999999994</ele><time>2026-04-30T07:48:49.999Z</time></trkpt><trkpt lat="44.71414119249595" lon="9.570484190167784"><ele>439.0</ele><time>2026-04-30T07:48:50.999Z</time></trkpt><trkpt lat="44.714054954642954" lon="9.570411773671932"><ele>440.0</ele><time>2026-04-30T07:48:51.999Z</time></trkpt><trkpt lat="44.71399065904057" lon="9.57034563224445"><ele>441.0</ele><time>2026-04-30T07:48:52.999Z</time></trkpt><trkpt lat="44.713935914140905" lon="9.570261099484295"><ele>441.99999999999994</ele><time>2026-04-30T07:48:53.999Z</time></trkpt><trkpt lat="44.713890231371884" lon="9.57017223793831"><ele>443.0</ele><time>2026-04-30T07:48:54.999Z</time></trkpt><trkpt lat="44.71383583184209" lon="9.570086210016608"><ele>443.0</ele><time>2026-04-30T07:48:55.999Z</time></trkpt><trkpt lat="44.71379193862213" lon="9.569981867302603"><ele>442.99999999999994</ele><time>2026-04-30T07:48:56.999Z</time></trkpt><trkpt lat="44.71377111572" lon="9.569888287715724"><ele>442.99999999999994</ele><time>2026-04-30T07:48:57.999Z</time></trkpt><trkpt lat="44.713700958763994" lon="9.569732087906894"><ele>443.0</ele><time>2026-04-30T07:48:59.999Z</time></trkpt><trkpt lat="44.713680856679375" lon="9.56964202647895"><ele>443.0</ele><time>2026-04-30T07:49:00.999Z</time></trkpt><trkpt lat="44.71362618559177" lon="9.569515650051963"><ele>442.0</ele><time>2026-04-30T07:49:02.999Z</time></trkpt><trkpt lat="44.71357710944472" lon="9.569360838940186"><ele>440.99999999999994</ele><time>2026-04-30T07:49:04.999Z</time></trkpt><trkpt lat="44.713524958964584" lon="9.56927093348358"><ele>439.99999999999994</ele><time>2026-04-30T07:49:05.999Z</time></trkpt><trkpt lat="44.71348912758086" lon="9.56914253208213"><ele>439.0</ele><time>2026-04-30T07:49:06.999Z</time></trkpt><trkpt lat="44.71343888307869" lon="9.569001808421273"><ele>438.0</ele><time>2026-04-30T07:49:07.999Z</time></trkpt><trkpt lat="44.71339018478231" lon="9.56891310110733"><ele>438.0</ele><time>2026-04-30T07:49:08.999Z</time></trkpt><trkpt lat="44.71334598555898" lon="9.568842884931676"><ele>437.99999999999994</ele><time>2026-04-30T07:49:09.999Z</time></trkpt><trkpt lat="44.71328859403753" lon="9.568788818078948"><ele>437.99999999999994</ele><time>2026-04-30T07:49:10.999Z</time></trkpt><trkpt lat="44.713201079603905" lon="9.56877903889661"><ele>438.0</ele><time>2026-04-30T07:49:11.999Z</time></trkpt><trkpt lat="44.71306932986551" lon="9.568816977543449"><ele>438.0</ele><time>2026-04-30T07:49:12.999Z</time></trkpt><trkpt lat="44.71293384750868" lon="9.5688274053693"><ele>438.0</ele><time>2026-04-30T07:49:13.999Z</time></trkpt><trkpt lat="44.712814570190524" lon="9.56885288263256"><ele>438.0</ele><time>2026-04-30T07:49:14.999Z</time></trkpt><trkpt lat="44.712696603990175" lon="9.56888462038629"><ele>438.0</ele><time>2026-04-30T07:49:15.999Z</time></trkpt><trkpt lat="44.71258833412351" lon="9.568966985607023"><ele>438.0</ele><time>2026-04-30T07:49:16.999Z</time></trkpt><trkpt lat="44.71249060872704" lon="9.569064916905525"><ele>435.5</ele><time>2026-04-30T07:49:17.999Z</time></trkpt><trkpt lat="44.71240079576195" lon="9.569179521249142"><ele>433.0</ele><time>2026-04-30T07:49:18.999Z</time></trkpt><trkpt lat="44.71230670123045" lon="9.569282291958634"><ele>430.5</ele><time>2026-04-30T07:49:19.999Z</time></trkpt><trkpt lat="44.71220883741547" lon="9.569398686595253"><ele>428.0</ele><time>2026-04-30T07:49:20.999Z</time></trkpt><trkpt lat="44.71211558992618" lon="9.569516021245777"><ele>427.0</ele><time>2026-04-30T07:49:21.999Z</time></trkpt><trkpt lat="44.71202040902493" lon="9.569628997580836"><ele>426.0</ele><time>2026-04-30T07:49:22.999Z</time></trkpt><trkpt lat="44.71193542739057" lon="9.569748050993454"><ele>425.0</ele><time>2026-04-30T07:49:23.999Z</time></trkpt><trkpt lat="44.71183281356132" lon="9.569845558480925"><ele>424.0</ele><time>2026-04-30T07:49:24.999Z</time></trkpt><trkpt lat="44.7117417025593" lon="9.569942602120971"><ele>426.5</ele><time>2026-04-30T07:49:25.999Z</time></trkpt><trkpt lat="44.71164292829835" lon="9.570019356766181"><ele>429.0</ele><time>2026-04-30T07:49:26.999Z</time></trkpt><trkpt lat="44.71153380261523" lon="9.570068389618843"><ele>431.5</ele><time>2026-04-30T07:49:27.999Z</time></trkpt><trkpt lat="44.7114207052126" lon="9.570051175602138"><ele>434.0</ele><time>2026-04-30T07:49:28.999Z</time></trkpt><trkpt lat="44.71129778818251" lon="9.570011886492082"><ele>434.0</ele><time>2026-04-30T07:49:29.999Z</time></trkpt><trkpt lat="44.711166113684044" lon="9.569941020888407"><ele>434.0</ele><time>2026-04-30T07:49:30.999Z</time></trkpt><trkpt lat="44.711072668534534" lon="9.569839722340593"><ele>434.0</ele><time>2026-04-30T07:49:31.999Z</time></trkpt><trkpt lat="44.71097960088227" lon="9.569728054144623"><ele>434.0</ele><time>2026-04-30T07:49:32.999Z</time></trkpt><trkpt lat="44.710887453437806" lon="9.569592108178492"><ele>436.0</ele><time>2026-04-30T07:49:33.999Z</time></trkpt><trkpt lat="44.71078973285526" lon="9.569441002415877"><ele>438.0</ele><time>2026-04-30T07:49:34.999Z</time></trkpt><trkpt lat="44.71069047758838" lon="9.569285720448088"><ele>440.0</ele><time>2026-04-30T07:49:35.999Z</time></trkpt><trkpt lat="44.71059402651025" lon="9.569127627019252"><ele>442.0</ele><time>2026-04-30T07:49:36.999Z</time></trkpt><trkpt lat="44.71049151027578" lon="9.569002812751796"><ele>442.0</ele><time>2026-04-30T07:49:37.999Z</time></trkpt><trkpt lat="44.71039144716573" lon="9.568820929613814"><ele>442.0</ele><time>2026-04-30T07:49:38.999Z</time></trkpt><trkpt lat="44.71028029973684" lon="9.568732913106416"><ele>442.0</ele><time>2026-04-30T07:49:39.999Z</time></trkpt><trkpt lat="44.71014649575559" lon="9.568642190352563"><ele>442.0</ele><time>2026-04-30T07:49:40.999Z</time></trkpt><trkpt lat="44.709978328060565" lon="9.568569386790994"><ele>441.33333333333337</ele><time>2026-04-30T07:49:41.999Z</time></trkpt><trkpt lat="44.70981543051951" lon="9.568472653130089"><ele>440.66666666666663</ele><time>2026-04-30T07:49:42.999Z</time></trkpt><trkpt lat="44.70965330196565" lon="9.568385255842516"><ele>440.0</ele><time>2026-04-30T07:49:43.999Z</time></trkpt><trkpt lat="44.70951040225615" lon="9.568254329737448"><ele>441.25</ele><time>2026-04-30T07:49:44.999Z</time></trkpt><trkpt lat="44.70936881345105" lon="9.568150649680021"><ele>442.5</ele><time>2026-04-30T07:49:45.999Z</time></trkpt><trkpt lat="44.709265071148266" lon="9.568021375570435"><ele>443.75</ele><time>2026-04-30T07:49:46.999Z</time></trkpt><trkpt lat="44.70914716588477" lon="9.567957649616146"><ele>445.0</ele><time>2026-04-30T07:49:47.999Z</time></trkpt><trkpt lat="44.70906799695504" lon="9.567909470396643"><ele>445.0</ele><time>2026-04-30T07:49:48.999Z</time></trkpt><trkpt lat="44.70898737844997" lon="9.567889630949722"><ele>445.0</ele><time>2026-04-30T07:49:49.999Z</time></trkpt><trkpt lat="44.70887132064433" lon="9.56792281610121"><ele>445.0</ele><time>2026-04-30T07:49:50.999Z</time></trkpt><trkpt lat="44.70876163883316" lon="9.568025359214227"><ele>445.0</ele><time>2026-04-30T07:49:51.999Z</time></trkpt><trkpt lat="44.708639125125394" lon="9.568119007419577"><ele>447.5</ele><time>2026-04-30T07:49:52.998Z</time></trkpt><trkpt lat="44.70850363683869" lon="9.568157392440341"><ele>450.0</ele><time>2026-04-30T07:49:53.998Z</time></trkpt><trkpt lat="44.70836934217302" lon="9.568160476712569"><ele>452.5</ele><time>2026-04-30T07:49:54.998Z</time></trkpt><trkpt lat="44.70823579893487" lon="9.568115629991441"><ele>455.0</ele><time>2026-04-30T07:49:55.998Z</time></trkpt><trkpt lat="44.708115311033566" lon="9.568024727800006"><ele>455.0</ele><time>2026-04-30T07:49:56.998Z</time></trkpt><trkpt lat="44.70800385276476" lon="9.56790669314266"><ele>455.0</ele><time>2026-04-30T07:49:57.998Z</time></trkpt><trkpt lat="44.70789095922341" lon="9.567772986162815"><ele>455.0</ele><time>2026-04-30T07:49:58.998Z</time></trkpt><trkpt lat="44.707748425984505" lon="9.567679148223641"><ele>455.0</ele><time>2026-04-30T07:49:59.998Z</time></trkpt><trkpt lat="44.707605643800704" lon="9.56762487387417"><ele>454.0</ele><time>2026-04-30T07:50:00.998Z</time></trkpt><trkpt lat="44.707446908905716" lon="9.567627637938749"><ele>453.0</ele><time>2026-04-30T07:50:01.998Z</time></trkpt><trkpt lat="44.707280298951034" lon="9.56764629535202"><ele>452.0</ele><time>2026-04-30T07:50:02.998Z</time></trkpt><trkpt lat="44.70711820789199" lon="9.567694151408906"><ele>452.0</ele><time>2026-04-30T07:50:03.998Z</time></trkpt><trkpt lat="44.7069471439969" lon="9.567719456352277"><ele>452.0</ele><time>2026-04-30T07:50:04.998Z</time></trkpt><trkpt lat="44.706776276348705" lon="9.567743371978946"><ele>452.0</ele><time>2026-04-30T07:50:05.998Z</time></trkpt><trkpt lat="44.706617159187175" lon="9.567763911001851"><ele>452.0</ele><time>2026-04-30T07:50:06.998Z</time></trkpt><trkpt lat="44.7064559177155" lon="9.567818070136463"><ele>452.0</ele><time>2026-04-30T07:50:07.998Z</time></trkpt><trkpt lat="44.706289121512604" lon="9.567864551859106"><ele>452.0</ele><time>2026-04-30T07:50:08.998Z</time></trkpt><trkpt lat="44.706141289158815" lon="9.567955062789734"><ele>453.0</ele><time>2026-04-30T07:50:09.998Z</time></trkpt><trkpt lat="44.7060084089706" lon="9.56813382519489"><ele>454.0</ele><time>2026-04-30T07:50:10.998Z</time></trkpt><trkpt lat="44.70590728985577" lon="9.568355863574281"><ele>455.0</ele><time>2026-04-30T07:50:11.998Z</time></trkpt><trkpt lat="44.70579945767746" lon="9.568542881212352"><ele>459.3333333333333</ele><time>2026-04-30T07:50:12.998Z</time></trkpt><trkpt lat="44.705674445535365" lon="9.568720606765341"><ele>463.66666666666663</ele><time>2026-04-30T07:50:13.998Z</time></trkpt><trkpt lat="44.70556000902749" lon="9.568902792139745"><ele>468.0</ele><time>2026-04-30T07:50:14.998Z</time></trkpt><trkpt lat="44.70543870897856" lon="9.569068793799453"><ele>468.0</ele><time>2026-04-30T07:50:15.998Z</time></trkpt><trkpt lat="44.70530933620623" lon="9.569236030614327"><ele>468.0</ele><time>2026-04-30T07:50:16.998Z</time></trkpt><trkpt lat="44.70519006043414" lon="9.569387576161784"><ele>468.0</ele><time>2026-04-30T07:50:17.998Z</time></trkpt><trkpt lat="44.70510439666255" lon="9.56960560213927"><ele>467.75</ele><time>2026-04-30T07:50:18.998Z</time></trkpt><trkpt lat="44.70501946949734" lon="9.569819550251665"><ele>467.5</ele><time>2026-04-30T07:50:19.998Z</time></trkpt><trkpt lat="44.70497441736872" lon="9.570004112329492"><ele>467.25</ele><time>2026-04-30T07:50:20.998Z</time></trkpt><trkpt lat="44.70496776122912" lon="9.570151424143281"><ele>467.0</ele><time>2026-04-30T07:50:21.998Z</time></trkpt><trkpt lat="44.7049141053573" lon="9.570249363634867"><ele>467.0</ele><time>2026-04-30T07:50:22.998Z</time></trkpt><trkpt lat="44.704868129726385" lon="9.570352681697214"><ele>467.00000000000006</ele><time>2026-04-30T07:50:23.998Z</time></trkpt><trkpt lat="44.704780068748065" lon="9.570418591502742"><ele>467.00000000000006</ele><time>2026-04-30T07:50:24.998Z</time></trkpt><trkpt lat="44.70466719848209" lon="9.570452422340015"><ele>467.0</ele><time>2026-04-30T07:50:25.998Z</time></trkpt><trkpt lat="44.70455388896697" lon="9.57040732077457"><ele>467.0</ele><time>2026-04-30T07:50:26.998Z</time></trkpt><trkpt lat="44.7044600161152" lon="9.570338567979494"><ele>467.5</ele><time>2026-04-30T07:50:27.998Z</time></trkpt><trkpt lat="44.70438557141855" lon="9.570220808066022"><ele>468.0</ele><time>2026-04-30T07:50:28.998Z</time></trkpt><trkpt lat="44.70431808633568" lon="9.570091250782408"><ele>468.5</ele><time>2026-04-30T07:50:29.998Z</time></trkpt><trkpt lat="44.70423784729839" lon="9.569927713135993"><ele>469.0</ele><time>2026-04-30T07:50:30.998Z</time></trkpt><trkpt lat="44.70414956690903" lon="9.569773529965177"><ele>469.0</ele><time>2026-04-30T07:50:31.998Z</time></trkpt><trkpt lat="44.70408168852324" lon="9.569606700966585"><ele>469.0</ele><time>2026-04-30T07:50:32.998Z</time></trkpt><trkpt lat="44.70398405666799" lon="9.569425196509288"><ele>469.0</ele><time>2026-04-30T07:50:33.998Z</time></trkpt><trkpt lat="44.703884196545474" lon="9.569288183226679"><ele>469.0</ele><time>2026-04-30T07:50:34.998Z</time></trkpt><trkpt lat="44.70377682374641" lon="9.56921611513531"><ele>466.75</ele><time>2026-04-30T07:50:35.998Z</time></trkpt><trkpt lat="44.70366419677105" lon="9.569161132583703"><ele>464.5</ele><time>2026-04-30T07:50:36.998Z</time></trkpt><trkpt lat="44.70351841385585" lon="9.569181450280873"><ele>462.25</ele><time>2026-04-30T07:50:37.998Z</time></trkpt><trkpt lat="44.703345768518126" lon="9.569214360238767"><ele>460.0</ele><time>2026-04-30T07:50:38.998Z</time></trkpt><trkpt lat="44.70320919719027" lon="9.569298037328405"><ele>460.0</ele><time>2026-04-30T07:50:39.998Z</time></trkpt><trkpt lat="44.70308264960159" lon="9.569340593417627"><ele>460.0</ele><time>2026-04-30T07:50:40.998Z</time></trkpt><trkpt lat="44.70293898826855" lon="9.569335588023106"><ele>460.0</ele><time>2026-04-30T07:50:41.998Z</time></trkpt><trkpt lat="44.70283268407726" lon="9.56939980776821"><ele>460.0</ele><time>2026-04-30T07:50:42.998Z</time></trkpt><trkpt lat="44.70270521113247" lon="9.569409137803385"><ele>460.75</ele><time>2026-04-30T07:50:43.998Z</time></trkpt><trkpt lat="44.70257169350088" lon="9.569396877841411"><ele>461.5</ele><time>2026-04-30T07:50:44.998Z</time></trkpt><trkpt lat="44.70244995691474" lon="9.569363809177583"><ele>462.25</ele><time>2026-04-30T07:50:45.998Z</time></trkpt><trkpt lat="44.70232928728086" lon="9.569317535434712"><ele>463.0</ele><time>2026-04-30T07:50:46.998Z</time></trkpt><trkpt lat="44.702223475923994" lon="9.569274475246143"><ele>463.0</ele><time>2026-04-30T07:50:47.998Z</time></trkpt><trkpt lat="44.70211437259246" lon="9.569223731778893"><ele>463.0</ele><time>2026-04-30T07:50:48.998Z</time></trkpt><trkpt lat="44.70199883668511" lon="9.569169996512066"><ele>463.0</ele><time>2026-04-30T07:50:49.998Z</time></trkpt><trkpt lat="44.70187629762272" lon="9.569107084698274"><ele>463.0</ele><time>2026-04-30T07:50:50.998Z</time></trkpt><trkpt lat="44.70178117739264" lon="9.569070700379493"><ele>464.2</ele><time>2026-04-30T07:50:51.998Z</time></trkpt><trkpt lat="44.70167875951048" lon="9.569069218663238"><ele>465.4</ele><time>2026-04-30T07:50:52.998Z</time></trkpt><trkpt lat="44.7015734456308" lon="9.56913652938505"><ele>466.59999999999997</ele><time>2026-04-30T07:50:53.998Z</time></trkpt><trkpt lat="44.701501385932026" lon="9.569187761278904"><ele>467.79999999999995</ele><time>2026-04-30T07:50:54.998Z</time></trkpt><trkpt lat="44.70143738798397" lon="9.56930366205706"><ele>469.0</ele><time>2026-04-30T07:50:55.998Z</time></trkpt><trkpt lat="44.70138305921986" lon="9.569402008528572"><ele>469.0</ele><time>2026-04-30T07:50:56.998Z</time></trkpt><trkpt lat="44.70132008700315" lon="9.56948613505946"><ele>469.0</ele><time>2026-04-30T07:50:57.998Z</time></trkpt><trkpt lat="44.70125013515437" lon="9.569556523714565"><ele>469.0</ele><time>2026-04-30T07:50:58.998Z</time></trkpt><trkpt lat="44.70115601271072" lon="9.56957960825319"><ele>469.0</ele><time>2026-04-30T07:50:59.998Z</time></trkpt><trkpt lat="44.701064504687" lon="9.569557900873827"><ele>469.0</ele><time>2026-04-30T07:51:00.998Z</time></trkpt><trkpt lat="44.70098268372446" lon="9.569510922828098"><ele>469.4</ele><time>2026-04-30T07:51:01.998Z</time></trkpt><trkpt lat="44.70089313725173" lon="9.569459781556798"><ele>469.79999999999995</ele><time>2026-04-30T07:51:02.998Z</time></trkpt><trkpt lat="44.70079565401121" lon="9.56938501605183"><ele>470.20000000000005</ele><time>2026-04-30T07:51:03.998Z</time></trkpt><trkpt lat="44.700683850079365" lon="9.569326974651016"><ele>470.6</ele><time>2026-04-30T07:51:04.998Z</time></trkpt><trkpt lat="44.700592943893255" lon="9.569279483954247"><ele>471.0</ele><time>2026-04-30T07:51:05.998Z</time></trkpt><trkpt lat="44.70048961912017" lon="9.569286386140824"><ele>471.0</ele><time>2026-04-30T07:51:06.998Z</time></trkpt><trkpt lat="44.70037930134723" lon="9.569263923600152"><ele>471.0</ele><time>2026-04-30T07:51:07.998Z</time></trkpt><trkpt lat="44.700264568521966" lon="9.569268630246992"><ele>471.0</ele><time>2026-04-30T07:51:08.998Z</time></trkpt><trkpt lat="44.70014767545949" lon="9.569249049487878"><ele>471.0</ele><time>2026-04-30T07:51:09.998Z</time></trkpt><trkpt lat="44.7000342740662" lon="9.569196796629498"><ele>473.75</ele><time>2026-04-30T07:51:10.998Z</time></trkpt><trkpt lat="44.699909667123094" lon="9.569144078384538"><ele>476.5</ele><time>2026-04-30T07:51:11.998Z</time></trkpt><trkpt lat="44.699802429028196" lon="9.569064166758961"><ele>479.25</ele><time>2026-04-30T07:51:12.998Z</time></trkpt><trkpt lat="44.69969755598021" lon="9.56900937097117"><ele>482.0</ele><time>2026-04-30T07:51:13.998Z</time></trkpt><trkpt lat="44.699587490632254" lon="9.568952006229651"><ele>482.0</ele><time>2026-04-30T07:51:14.998Z</time></trkpt><trkpt lat="44.699498070427346" lon="9.56885974278937"><ele>482.00000000000006</ele><time>2026-04-30T07:51:15.998Z</time></trkpt><trkpt lat="44.69942259051051" lon="9.56876811911767"><ele>482.00000000000006</ele><time>2026-04-30T07:51:16.998Z</time></trkpt><trkpt lat="44.69937146347771" lon="9.568648283794069"><ele>482.0</ele><time>2026-04-30T07:51:17.998Z</time></trkpt><trkpt lat="44.69932112016814" lon="9.568483192800956"><ele>482.0</ele><time>2026-04-30T07:51:18.998Z</time></trkpt><trkpt lat="44.6992883042071" lon="9.568323185676835"><ele>481.8</ele><time>2026-04-30T07:51:19.998Z</time></trkpt><trkpt lat="44.69925142367855" lon="9.568161102161682"><ele>481.6</ele><time>2026-04-30T07:51:20.998Z</time></trkpt><trkpt lat="44.699218394693645" lon="9.568002703029334"><ele>481.40000000000003</ele><time>2026-04-30T07:51:21.998Z</time></trkpt><trkpt lat="44.69916160559374" lon="9.567885624661844"><ele>481.20000000000005</ele><time>2026-04-30T07:51:22.998Z</time></trkpt><trkpt lat="44.699077145177576" lon="9.567805916686341"><ele>481.0</ele><time>2026-04-30T07:51:23.998Z</time></trkpt><trkpt lat="44.69895921559605" lon="9.567783469670827"><ele>481.4</ele><time>2026-04-30T07:51:24.998Z</time></trkpt><trkpt lat="44.69885983466771" lon="9.56774555118078"><ele>481.8</ele><time>2026-04-30T07:51:25.998Z</time></trkpt><trkpt lat="44.698763240332255" lon="9.567740530268493"><ele>482.19999999999993</ele><time>2026-04-30T07:51:26.998Z</time></trkpt><trkpt lat="44.69864997086538" lon="9.567779347701363"><ele>482.59999999999997</ele><time>2026-04-30T07:51:27.998Z</time></trkpt><trkpt lat="44.69854887029935" lon="9.567797783304412"><ele>483.0</ele><time>2026-04-30T07:51:28.998Z</time></trkpt><trkpt lat="44.698456348111726" lon="9.567872142300304"><ele>483.0</ele><time>2026-04-30T07:51:29.998Z</time></trkpt><trkpt lat="44.69837036502121" lon="9.567966895667455"><ele>482.99999999999994</ele><time>2026-04-30T07:51:30.998Z</time></trkpt><trkpt lat="44.69829242229422" lon="9.568086033828243"><ele>482.99999999999994</ele><time>2026-04-30T07:51:31.998Z</time></trkpt><trkpt lat="44.69823025223512" lon="9.568206083635024"><ele>483.0</ele><time>2026-04-30T07:51:32.998Z</time></trkpt><trkpt lat="44.6981688696475" lon="9.56832719423208"><ele>483.0</ele><time>2026-04-30T07:51:33.998Z</time></trkpt><trkpt lat="44.69811558357864" lon="9.568442465914325"><ele>483.0</ele><time>2026-04-30T07:51:34.998Z</time></trkpt><trkpt lat="44.69804506345551" lon="9.568527369096145"><ele>482.99999999999994</ele><time>2026-04-30T07:51:35.998Z</time></trkpt><trkpt lat="44.69795201678584" lon="9.568567055687062"><ele>482.99999999999994</ele><time>2026-04-30T07:51:36.998Z</time></trkpt><trkpt lat="44.69786437805514" lon="9.568637574498563"><ele>483.0</ele><time>2026-04-30T07:51:37.998Z</time></trkpt><trkpt lat="44.697762461820076" lon="9.568617691784514"><ele>483.0</ele><time>2026-04-30T07:51:38.998Z</time></trkpt><trkpt lat="44.69766464580048" lon="9.568552902879848"><ele>481.25</ele><time>2026-04-30T07:51:39.998Z</time></trkpt><trkpt lat="44.69755036197054" lon="9.568519178134554"><ele>479.5</ele><time>2026-04-30T07:51:40.998Z</time></trkpt><trkpt lat="44.69742478674293" lon="9.568515900363407"><ele>477.75</ele><time>2026-04-30T07:51:41.998Z</time></trkpt><trkpt lat="44.69730903502118" lon="9.568504181294504"><ele>476.0</ele><time>2026-04-30T07:51:42.998Z</time></trkpt><trkpt lat="44.697186800725085" lon="9.568483096233122"><ele>476.0</ele><time>2026-04-30T07:51:43.998Z</time></trkpt><trkpt lat="44.69707552225898" lon="9.568422506295459"><ele>476.0</ele><time>2026-04-30T07:51:44.998Z</time></trkpt><trkpt lat="44.69697215390851" lon="9.56834061920433"><ele>476.0</ele><time>2026-04-30T07:51:45.998Z</time></trkpt><trkpt lat="44.696854419972325" lon="9.5682529779752"><ele>476.0</ele><time>2026-04-30T07:51:46.998Z</time></trkpt><trkpt lat="44.696749915230185" lon="9.568160606348075"><ele>476.75</ele><time>2026-04-30T07:51:47.998Z</time></trkpt><trkpt lat="44.696645027572856" lon="9.568083216727908"><ele>477.5</ele><time>2026-04-30T07:51:48.998Z</time></trkpt><trkpt lat="44.69653465806338" lon="9.56804302039259"><ele>478.25</ele><time>2026-04-30T07:51:49.998Z</time></trkpt><trkpt lat="44.696400853700034" lon="9.568042196115433"><ele>479.0</ele><time>2026-04-30T07:51:50.998Z</time></trkpt><trkpt lat="44.69628201346441" lon="9.568074488493448"><ele>479.0</ele><time>2026-04-30T07:51:51.998Z</time></trkpt><trkpt lat="44.696162133348444" lon="9.568101732495043"><ele>479.0</ele><time>2026-04-30T07:51:52.998Z</time></trkpt><trkpt lat="44.69604736770571" lon="9.568150591085185"><ele>479.0</ele><time>2026-04-30T07:51:53.998Z</time></trkpt><trkpt lat="44.695934367589075" lon="9.568195922622255"><ele>479.0</ele><time>2026-04-30T07:51:54.998Z</time></trkpt><trkpt lat="44.695825124463475" lon="9.568218040224975"><ele>479.2</ele><time>2026-04-30T07:51:55.998Z</time></trkpt><trkpt lat="44.695717532892296" lon="9.56823682322162"><ele>479.4</ele><time>2026-04-30T07:51:56.998Z</time></trkpt><trkpt lat="44.695605082715176" lon="9.568236703048868"><ele>479.6</ele><time>2026-04-30T07:51:57.998Z</time></trkpt><trkpt lat="44.69549929110216" lon="9.568216689863286"><ele>479.8</ele><time>2026-04-30T07:51:58.998Z</time></trkpt><trkpt lat="44.69539390591707" lon="9.568179719350674"><ele>480.0</ele><time>2026-04-30T07:51:59.998Z</time></trkpt><trkpt lat="44.69529810185949" lon="9.56811944574024"><ele>479.25</ele><time>2026-04-30T07:52:00.998Z</time></trkpt><trkpt lat="44.69519891645985" lon="9.568027355464741"><ele>478.5</ele><time>2026-04-30T07:52:01.998Z</time></trkpt><trkpt lat="44.69511086951738" lon="9.56791800522484"><ele>477.75</ele><time>2026-04-30T07:52:02.998Z</time></trkpt><trkpt lat="44.69501797859998" lon="9.567784800751959"><ele>477.0</ele><time>2026-04-30T07:52:03.998Z</time></trkpt><trkpt lat="44.69492854609699" lon="9.567652999826576"><ele>477.0</ele><time>2026-04-30T07:52:04.998Z</time></trkpt><trkpt lat="44.6948346730999" lon="9.567541482767155"><ele>477.0</ele><time>2026-04-30T07:52:05.998Z</time></trkpt><trkpt lat="44.69473624549762" lon="9.567466251463681"><ele>477.0</ele><time>2026-04-30T07:52:06.998Z</time></trkpt><trkpt lat="44.694634368284696" lon="9.567416557519495"><ele>477.0</ele><time>2026-04-30T07:52:07.998Z</time></trkpt><trkpt lat="44.69452144023684" lon="9.567383988941097"><ele>478.0</ele><time>2026-04-30T07:52:08.998Z</time></trkpt><trkpt lat="44.694406436190086" lon="9.567430345434392"><ele>479.0</ele><time>2026-04-30T07:52:09.998Z</time></trkpt><trkpt lat="44.69429448274247" lon="9.567484636441929"><ele>480.0</ele><time>2026-04-30T07:52:10.998Z</time></trkpt><trkpt lat="44.69418534179779" lon="9.567530081964819"><ele>481.0</ele><time>2026-04-30T07:52:11.998Z</time></trkpt><trkpt lat="44.69407531245543" lon="9.567559683376253"><ele>481.0</ele><time>2026-04-30T07:52:12.998Z</time></trkpt><trkpt lat="44.693971734192274" lon="9.567529787274157"><ele>481.0</ele><time>2026-04-30T07:52:13.997Z</time></trkpt><trkpt lat="44.69386806158159" lon="9.56747377647135"><ele>481.0</ele><time>2026-04-30T07:52:14.997Z</time></trkpt><trkpt lat="44.69376326907474" lon="9.567424326550183"><ele>481.0</ele><time>2026-04-30T07:52:15.997Z</time></trkpt><trkpt lat="44.69363613745173" lon="9.56738607661283"><ele>481.0</ele><time>2026-04-30T07:52:16.997Z</time></trkpt><trkpt lat="44.69352639507844" lon="9.567384892054108"><ele>481.0</ele><time>2026-04-30T07:52:17.997Z</time></trkpt><trkpt lat="44.69341912438527" lon="9.567402434369699"><ele>481.0</ele><time>2026-04-30T07:52:18.997Z</time></trkpt><trkpt lat="44.69331442920024" lon="9.567441100472896"><ele>481.0</ele><time>2026-04-30T07:52:19.997Z</time></trkpt><trkpt lat="44.693224587174605" lon="9.56752045987174"><ele>481.0</ele><time>2026-04-30T07:52:20.997Z</time></trkpt><trkpt lat="44.69315409357688" lon="9.567575765866001"><ele>481.0</ele><time>2026-04-30T07:52:21.997Z</time></trkpt><trkpt lat="44.693107018078265" lon="9.567693240691524"><ele>481.0</ele><time>2026-04-30T07:52:22.997Z</time></trkpt><trkpt lat="44.69310963586496" lon="9.567827728918912"><ele>481.0</ele><time>2026-04-30T07:52:23.997Z</time></trkpt><trkpt lat="44.69311555945595" lon="9.567967804651023"><ele>481.0</ele><time>2026-04-30T07:52:24.997Z</time></trkpt><trkpt lat="44.69311100661047" lon="9.568118613081596"><ele>481.0</ele><time>2026-04-30T07:52:25.997Z</time></trkpt><trkpt lat="44.69312794226194" lon="9.56826438556955"><ele>483.8</ele><time>2026-04-30T07:52:26.997Z</time></trkpt><trkpt lat="44.69312293037022" lon="9.56842574004082"><ele>486.6</ele><time>2026-04-30T07:52:27.997Z</time></trkpt><trkpt lat="44.69309117755634" lon="9.568567743367895"><ele>489.4</ele><time>2026-04-30T07:52:28.997Z</time></trkpt><trkpt lat="44.693052868368085" lon="9.568697608772473"><ele>492.2</ele><time>2026-04-30T07:52:29.997Z</time></trkpt><trkpt lat="44.693003693931004" lon="9.568825100151411"><ele>495.0</ele><time>2026-04-30T07:52:30.997Z</time></trkpt><trkpt lat="44.69296010204259" lon="9.568948518487648"><ele>494.4</ele><time>2026-04-30T07:52:31.997Z</time></trkpt><trkpt lat="44.69290899796088" lon="9.569067967931367"><ele>493.8</ele><time>2026-04-30T07:52:32.997Z</time></trkpt><trkpt lat="44.69284459794137" lon="9.569176123669815"><ele>493.20000000000005</ele><time>2026-04-30T07:52:33.997Z</time></trkpt><trkpt lat="44.69275934263844" lon="9.5692251933997"><ele>492.6</ele><time>2026-04-30T07:52:34.997Z</time></trkpt><trkpt lat="44.692668165445255" lon="9.569247080805626"><ele>492.0</ele><time>2026-04-30T07:52:35.997Z</time></trkpt><trkpt lat="44.69258050165275" lon="9.569240261209638"><ele>492.0</ele><time>2026-04-30T07:52:36.997Z</time></trkpt><trkpt lat="44.69252323772771" lon="9.569138580759672"><ele>492.0</ele><time>2026-04-30T07:52:37.997Z</time></trkpt><trkpt lat="44.692478204867356" lon="9.56905595242189"><ele>492.0</ele><time>2026-04-30T07:52:38.997Z</time></trkpt><trkpt lat="44.692376487073396" lon="9.568962827345207"><ele>492.0</ele><time>2026-04-30T07:52:39.997Z</time></trkpt><trkpt lat="44.692215946100035" lon="9.568884105810062"><ele>492.0</ele><time>2026-04-30T07:52:40.997Z</time></trkpt><trkpt lat="44.692069956810755" lon="9.568883317902603"><ele>492.0</ele><time>2026-04-30T07:52:41.997Z</time></trkpt><trkpt lat="44.69192418292021" lon="9.56891238686947"><ele>492.0</ele><time>2026-04-30T07:52:42.997Z</time></trkpt><trkpt lat="44.6917659121792" lon="9.56897245695135"><ele>493.0</ele><time>2026-04-30T07:52:43.997Z</time></trkpt><trkpt lat="44.69160573195005" lon="9.569059217061548"><ele>494.0</ele><time>2026-04-30T07:52:44.997Z</time></trkpt><trkpt lat="44.69144800648" lon="9.569168013457755"><ele>495.0</ele><time>2026-04-30T07:52:45.997Z</time></trkpt><trkpt lat="44.69130857391584" lon="9.569258739369541"><ele>495.0</ele><time>2026-04-30T07:52:46.997Z</time></trkpt><trkpt lat="44.69117753879692" lon="9.569345336973079"><ele>495.0</ele><time>2026-04-30T07:52:47.997Z</time></trkpt><trkpt lat="44.69104763387218" lon="9.569377414079677"><ele>495.0</ele><time>2026-04-30T07:52:48.997Z</time></trkpt><trkpt lat="44.690939208003776" lon="9.56939802122765"><ele>495.0</ele><time>2026-04-30T07:52:49.997Z</time></trkpt><trkpt lat="44.69084988465238" lon="9.569389974024997"><ele>494.25</ele><time>2026-04-30T07:52:50.997Z</time></trkpt><trkpt lat="44.69079283206984" lon="9.569340997595765"><ele>493.5</ele><time>2026-04-30T07:52:51.997Z</time></trkpt><trkpt lat="44.69073578851018" lon="9.569232193900596"><ele>492.75</ele><time>2026-04-30T07:52:52.997Z</time></trkpt><trkpt lat="44.69065307730426" lon="9.569021720628593"><ele>492.0</ele><time>2026-04-30T07:52:53.997Z</time></trkpt><trkpt lat="44.690539161340766" lon="9.568812845293662"><ele>493.75</ele><time>2026-04-30T07:52:54.997Z</time></trkpt><trkpt lat="44.690421582514546" lon="9.568676317488661"><ele>495.5</ele><time>2026-04-30T07:52:55.997Z</time></trkpt><trkpt lat="44.690289428379366" lon="9.568624157517458"><ele>497.25</ele><time>2026-04-30T07:52:56.997Z</time></trkpt><trkpt lat="44.69014581226014" lon="9.568641179145226"><ele>499.0</ele><time>2026-04-30T07:52:57.997Z</time></trkpt><trkpt lat="44.69004167435623" lon="9.568725901606348"><ele>499.0</ele><time>2026-04-30T07:52:58.997Z</time></trkpt><trkpt lat="44.68996118575862" lon="9.568870475429078"><ele>499.0</ele><time>2026-04-30T07:52:59.997Z</time></trkpt><trkpt lat="44.68985974763842" lon="9.56899570654614"><ele>499.0</ele><time>2026-04-30T07:53:00.997Z</time></trkpt><trkpt lat="44.68974634013675" lon="9.569074397237317"><ele>499.0</ele><time>2026-04-30T07:53:01.997Z</time></trkpt><trkpt lat="44.6896073166821" lon="9.569096475885205"><ele>499.0</ele><time>2026-04-30T07:53:02.997Z</time></trkpt><trkpt lat="44.68943383609809" lon="9.569112988754426"><ele>499.0</ele><time>2026-04-30T07:53:03.997Z</time></trkpt><trkpt lat="44.68926028350358" lon="9.569155707492982"><ele>499.0</ele><time>2026-04-30T07:53:04.997Z</time></trkpt><trkpt lat="44.689080288497465" lon="9.5692259866768"><ele>498.0</ele><time>2026-04-30T07:53:05.997Z</time></trkpt><trkpt lat="44.68892386169052" lon="9.56928942452105"><ele>497.0</ele><time>2026-04-30T07:53:06.997Z</time></trkpt><trkpt lat="44.68880241577558" lon="9.569326815140014"><ele>496.0</ele><time>2026-04-30T07:53:07.997Z</time></trkpt><trkpt lat="44.688685847025845" lon="9.569342078433063"><ele>495.0</ele><time>2026-04-30T07:53:08.997Z</time></trkpt><trkpt lat="44.68859974889074" lon="9.569311680748932"><ele>495.5</ele><time>2026-04-30T07:53:09.997Z</time></trkpt><trkpt lat="44.688504791948624" lon="9.569220568697705"><ele>496.0</ele><time>2026-04-30T07:53:10.997Z</time></trkpt><trkpt lat="44.68844002971976" lon="9.569071691811907"><ele>496.5</ele><time>2026-04-30T07:53:11.997Z</time></trkpt><trkpt lat="44.68837090931894" lon="9.568868435605804"><ele>497.0</ele><time>2026-04-30T07:53:12.997Z</time></trkpt><trkpt lat="44.688283054529535" lon="9.568662350278155"><ele>494.66666666666663</ele><time>2026-04-30T07:53:13.997Z</time></trkpt><trkpt lat="44.68817408206127" lon="9.568494340791057"><ele>492.33333333333337</ele><time>2026-04-30T07:53:14.997Z</time></trkpt><trkpt lat="44.68804245518495" lon="9.568340127474354"><ele>490.0</ele><time>2026-04-30T07:53:15.997Z</time></trkpt><trkpt lat="44.687922752031824" lon="9.56822546138623"><ele>490.0</ele><time>2026-04-30T07:53:16.997Z</time></trkpt><trkpt lat="44.68778934382553" lon="9.56816056121445"><ele>490.0</ele><time>2026-04-30T07:53:17.997Z</time></trkpt><trkpt lat="44.687636120893266" lon="9.568162402311145"><ele>490.0</ele><time>2026-04-30T07:53:18.997Z</time></trkpt><trkpt lat="44.68747547967111" lon="9.568173514127407"><ele>489.6666666666667</ele><time>2026-04-30T07:53:19.997Z</time></trkpt><trkpt lat="44.68731513303562" lon="9.5682059529455"><ele>489.33333333333337</ele><time>2026-04-30T07:53:20.997Z</time></trkpt><trkpt lat="44.687149350653684" lon="9.568252154523435"><ele>489.0</ele><time>2026-04-30T07:53:21.997Z</time></trkpt><trkpt lat="44.68700602751286" lon="9.568325959922078"><ele>488.25</ele><time>2026-04-30T07:53:22.997Z</time></trkpt><trkpt lat="44.68687579702764" lon="9.568435524355069"><ele>487.5</ele><time>2026-04-30T07:53:23.997Z</time></trkpt><trkpt lat="44.686753544356094" lon="9.568537430614379"><ele>486.75</ele><time>2026-04-30T07:53:24.997Z</time></trkpt><trkpt lat="44.68661990972268" lon="9.568553270520658"><ele>486.0</ele><time>2026-04-30T07:53:25.997Z</time></trkpt><trkpt lat="44.6864901447908" lon="9.568503438397443"><ele>486.0</ele><time>2026-04-30T07:53:26.997Z</time></trkpt><trkpt lat="44.68635661735976" lon="9.568436072419328"><ele>486.0</ele><time>2026-04-30T07:53:27.997Z</time></trkpt><trkpt lat="44.68620070698342" lon="9.568364402720839"><ele>486.0</ele><time>2026-04-30T07:53:28.997Z</time></trkpt><trkpt lat="44.686042620149124" lon="9.568297157417945"><ele>487.0</ele><time>2026-04-30T07:53:29.997Z</time></trkpt><trkpt lat="44.6858841560998" lon="9.568254795613463"><ele>488.0</ele><time>2026-04-30T07:53:30.997Z</time></trkpt><trkpt lat="44.685734524046254" lon="9.568261084458177"><ele>489.0</ele><time>2026-04-30T07:53:31.999Z</time></trkpt><trkpt lat="44.685578433953864" lon="9.568301638032406"><ele>489.0</ele><time>2026-04-30T07:53:32.999Z</time></trkpt><trkpt lat="44.685458341445276" lon="9.56845764875036"><ele>489.0</ele><time>2026-04-30T07:53:33.999Z</time></trkpt><trkpt lat="44.68531588449306" lon="9.56856343015494"><ele>489.0</ele><time>2026-04-30T07:53:34.999Z</time></trkpt><trkpt lat="44.68519854719771" lon="9.568645414994892"><ele>486.75</ele><time>2026-04-30T07:53:35.999Z</time></trkpt><trkpt lat="44.68507658192271" lon="9.568682396587484"><ele>484.5</ele><time>2026-04-30T07:53:36.999Z</time></trkpt><trkpt lat="44.684972987654064" lon="9.568673990313245"><ele>482.25</ele><time>2026-04-30T07:53:37.999Z</time></trkpt><trkpt lat="44.68488370026295" lon="9.568628428217169"><ele>480.0</ele><time>2026-04-30T07:53:39Z</time></trkpt><trkpt lat="44.68474985506914" lon="9.568536332859889"><ele>480.0</ele><time>2026-04-30T07:53:39.999Z</time></trkpt><trkpt lat="44.684583011847394" lon="9.568536091469513"><ele>480.0</ele><time>2026-04-30T07:53:41Z</time></trkpt><trkpt lat="44.684455150856195" lon="9.568606644552297"><ele>480.0</ele><time>2026-04-30T07:53:42Z</time></trkpt><trkpt lat="44.68434752230789" lon="9.568619867238926"><ele>480.0</ele><time>2026-04-30T07:53:43Z</time></trkpt><trkpt lat="44.6842449737156" lon="9.568608564305249"><ele>481.25</ele><time>2026-04-30T07:53:44Z</time></trkpt><trkpt lat="44.68414064631898" lon="9.568560358423301"><ele>482.5</ele><time>2026-04-30T07:53:45Z</time></trkpt><trkpt lat="44.68401955869072" lon="9.568465613276585"><ele>483.75</ele><time>2026-04-30T07:53:46Z</time></trkpt><trkpt lat="44.68391223596134" lon="9.568309569524654"><ele>485.0</ele><time>2026-04-30T07:53:47Z</time></trkpt><trkpt lat="44.683827384792906" lon="9.568122026703088"><ele>485.0</ele><time>2026-04-30T07:53:48Z</time></trkpt><trkpt lat="44.6837405773933" lon="9.567923521911101"><ele>485.0</ele><time>2026-04-30T07:53:49Z</time></trkpt><trkpt lat="44.68363732129338" lon="9.567743681949516"><ele>485.0</ele><time>2026-04-30T07:53:50Z</time></trkpt><trkpt lat="44.68353009157212" lon="9.56758672401759"><ele>486.0</ele><time>2026-04-30T07:53:51Z</time></trkpt><trkpt lat="44.68341806423023" lon="9.567448679439764"><ele>487.0</ele><time>2026-04-30T07:53:52Z</time></trkpt><trkpt lat="44.683373512377926" lon="9.56726300534184"><ele>488.0</ele><time>2026-04-30T07:53:53Z</time></trkpt><trkpt lat="44.683325341761545" lon="9.567087254458173"><ele>489.0</ele><time>2026-04-30T07:53:54Z</time></trkpt><trkpt lat="44.68328249620184" lon="9.566929917634212"><ele>486.2</ele><time>2026-04-30T07:53:55Z</time></trkpt><trkpt lat="44.68321208903008" lon="9.566823158841586"><ele>483.4</ele><time>2026-04-30T07:53:56Z</time></trkpt><trkpt lat="44.6831280036217" lon="9.566725416549327"><ele>480.6</ele><time>2026-04-30T07:53:57Z</time></trkpt><trkpt lat="44.68303364877292" lon="9.566720981781792"><ele>477.8</ele><time>2026-04-30T07:53:58Z</time></trkpt><trkpt lat="44.6829226069565" lon="9.566777751281709"><ele>475.0</ele><time>2026-04-30T07:53:59Z</time></trkpt><trkpt lat="44.682827543465045" lon="9.566856309363866"><ele>475.6666666666667</ele><time>2026-04-30T07:54:00Z</time></trkpt><trkpt lat="44.68275410226554" lon="9.56697075925486"><ele>476.33333333333337</ele><time>2026-04-30T07:54:01Z</time></trkpt><trkpt lat="44.68267109803286" lon="9.567012409990078"><ele>477.0</ele><time>2026-04-30T07:54:02Z</time></trkpt><trkpt lat="44.682595747157755" lon="9.567023141031575"><ele>477.66666666666663</ele><time>2026-04-30T07:54:03Z</time></trkpt><trkpt lat="44.682532868736466" lon="9.566997151025486"><ele>478.3333333333333</ele><time>2026-04-30T07:54:04Z</time></trkpt><trkpt lat="44.682464903859014" lon="9.566941047779988"><ele>479.0</ele><time>2026-04-30T07:54:04.999Z</time></trkpt><trkpt lat="44.6823622836109" lon="9.566814378717899"><ele>479.0</ele><time>2026-04-30T07:54:05.999Z</time></trkpt><trkpt lat="44.68224226887766" lon="9.566689046062708"><ele>479.0</ele><time>2026-04-30T07:54:06.999Z</time></trkpt><trkpt lat="44.682100409064596" lon="9.566624202460261"><ele>479.0</ele><time>2026-04-30T07:54:07.999Z</time></trkpt><trkpt lat="44.68193927031676" lon="9.566610616088484"><ele>481.3333333333333</ele><time>2026-04-30T07:54:08.999Z</time></trkpt><trkpt lat="44.68179027346305" lon="9.566616782317826"><ele>483.66666666666663</ele><time>2026-04-30T07:54:09.999Z</time></trkpt><trkpt lat="44.68163860677625" lon="9.566599746363067"><ele>486.0</ele><time>2026-04-30T07:54:10.999Z</time></trkpt><trkpt lat="44.68148377250155" lon="9.566529801423409"><ele>486.0</ele><time>2026-04-30T07:54:11.999Z</time></trkpt><trkpt lat="44.68136218804555" lon="9.566434710605547"><ele>486.0</ele><time>2026-04-30T07:54:12.999Z</time></trkpt><trkpt lat="44.68125423411386" lon="9.566303039367629"><ele>486.0</ele><time>2026-04-30T07:54:13.999Z</time></trkpt><trkpt lat="44.68118119475195" lon="9.566166482096635"><ele>486.0</ele><time>2026-04-30T07:54:14.999Z</time></trkpt><trkpt lat="44.68113027887052" lon="9.566014305029675"><ele>484.75</ele><time>2026-04-30T07:54:15.999Z</time></trkpt><trkpt lat="44.68105516981659" lon="9.565848172999937"><ele>483.5</ele><time>2026-04-30T07:54:16.999Z</time></trkpt><trkpt lat="44.68096356516194" lon="9.56574259165333"><ele>482.25</ele><time>2026-04-30T07:54:17.999Z</time></trkpt><trkpt lat="44.68085000833453" lon="9.56569903280249"><ele>481.0</ele><time>2026-04-30T07:54:18.999Z</time></trkpt><trkpt lat="44.6807080310654" lon="9.565733233947423"><ele>481.0</ele><time>2026-04-30T07:54:19.999Z</time></trkpt><trkpt lat="44.680589380847174" lon="9.565802648340005"><ele>481.0</ele><time>2026-04-30T07:54:20.999Z</time></trkpt><trkpt lat="44.680468659460075" lon="9.565875065695073"><ele>481.0</ele><time>2026-04-30T07:54:21.999Z</time></trkpt><trkpt lat="44.68032647930747" lon="9.56589443032452"><ele>481.0</ele><time>2026-04-30T07:54:22.999Z</time></trkpt><trkpt lat="44.680178136103706" lon="9.565903598104633"><ele>479.33333333333337</ele><time>2026-04-30T07:54:23.999Z</time></trkpt><trkpt lat="44.680039497957594" lon="9.56598298421441"><ele>477.66666666666663</ele><time>2026-04-30T07:54:24.999Z</time></trkpt><trkpt lat="44.67990406055364" lon="9.566106026468505"><ele>476.0</ele><time>2026-04-30T07:54:25.999Z</time></trkpt><trkpt lat="44.6797741352593" lon="9.566267542729944"><ele>477.66666666666663</ele><time>2026-04-30T07:54:26.999Z</time></trkpt><trkpt lat="44.679639683229155" lon="9.566397506095937"><ele>479.33333333333337</ele><time>2026-04-30T07:54:27.999Z</time></trkpt><trkpt lat="44.67951631554978" lon="9.566556027469405"><ele>481.0</ele><time>2026-04-30T07:54:28.999Z</time></trkpt><trkpt lat="44.679383627855806" lon="9.566688781207787"><ele>481.0</ele><time>2026-04-30T07:54:29.999Z</time></trkpt><trkpt lat="44.67925730140963" lon="9.566832970195863"><ele>481.0</ele><time>2026-04-30T07:54:30.999Z</time></trkpt><trkpt lat="44.67914500970599" lon="9.566962328868508"><ele>481.0</ele><time>2026-04-30T07:54:31.999Z</time></trkpt><trkpt lat="44.67904429589454" lon="9.567139210737842"><ele>484.0</ele><time>2026-04-30T07:54:32.999Z</time></trkpt><trkpt lat="44.678942300820964" lon="9.567306085223597"><ele>487.0</ele><time>2026-04-30T07:54:33.999Z</time></trkpt><trkpt lat="44.67885556742943" lon="9.567473600579598"><ele>490.0</ele><time>2026-04-30T07:54:34.999Z</time></trkpt><trkpt lat="44.678792272267856" lon="9.567662928913903"><ele>490.0</ele><time>2026-04-30T07:54:35.999Z</time></trkpt><trkpt lat="44.67873462375305" lon="9.56784974914919"><ele>490.0</ele><time>2026-04-30T07:54:36.999Z</time></trkpt><trkpt lat="44.67873440819256" lon="9.568056313016925"><ele>490.0</ele><time>2026-04-30T07:54:37.999Z</time></trkpt><trkpt lat="44.67869399852223" lon="9.568214333608791"><ele>490.0</ele><time>2026-04-30T07:54:38.999Z</time></trkpt><trkpt lat="44.67865455756143" lon="9.568306923349882"><ele>489.4</ele><time>2026-04-30T07:54:39.999Z</time></trkpt><trkpt lat="44.67860015853706" lon="9.56839441507014"><ele>488.8</ele><time>2026-04-30T07:54:40.999Z</time></trkpt><trkpt lat="44.67853584717338" lon="9.568461620037535"><ele>488.20000000000005</ele><time>2026-04-30T07:54:41.999Z</time></trkpt><trkpt lat="44.67847668584359" lon="9.568523926555551"><ele>487.6</ele><time>2026-04-30T07:54:42.999Z</time></trkpt><trkpt lat="44.678334998882825" lon="9.568534197153678"><ele>487.0</ele><time>2026-04-30T07:54:44.999Z</time></trkpt><trkpt lat="44.67826595382472" lon="9.568509299063557"><ele>487.0</ele><time>2026-04-30T07:54:45.999Z</time></trkpt><trkpt lat="44.67820436254609" lon="9.568423421145047"><ele>487.00000000000006</ele><time>2026-04-30T07:54:46.999Z</time></trkpt><trkpt lat="44.67813910763056" lon="9.568323018903621"><ele>487.00000000000006</ele><time>2026-04-30T07:54:47.999Z</time></trkpt><trkpt lat="44.678063985265645" lon="9.568191410912872"><ele>487.0</ele><time>2026-04-30T07:54:48.999Z</time></trkpt><trkpt lat="44.67798613365252" lon="9.56804341253505"><ele>487.0</ele><time>2026-04-30T07:54:49.999Z</time></trkpt><trkpt lat="44.677926961876494" lon="9.56791021225197"><ele>484.0</ele><time>2026-04-30T07:54:50.999Z</time></trkpt><trkpt lat="44.67783609135045" lon="9.567738466610457"><ele>481.0</ele><time>2026-04-30T07:54:51.999Z</time></trkpt><trkpt lat="44.677755935545655" lon="9.567585955905633"><ele>478.0</ele><time>2026-04-30T07:54:52.999Z</time></trkpt><trkpt lat="44.677659456430206" lon="9.567402730103195"><ele>475.0</ele><time>2026-04-30T07:54:53.999Z</time></trkpt><trkpt lat="44.677558735467095" lon="9.567217975041288"><ele>474.75</ele><time>2026-04-30T07:54:54.999Z</time></trkpt><trkpt lat="44.67746860056575" lon="9.567047477749064"><ele>474.5</ele><time>2026-04-30T07:54:55.999Z</time></trkpt><trkpt lat="44.6773962129777" lon="9.566905456398603"><ele>474.25</ele><time>2026-04-30T07:54:56.999Z</time></trkpt><trkpt lat="44.677316976470266" lon="9.566757187007527"><ele>474.0</ele><time>2026-04-30T07:54:57.999Z</time></trkpt><trkpt lat="44.67724080590916" lon="9.56663882223308"><ele>474.79999999999995</ele><time>2026-04-30T07:54:58.999Z</time></trkpt><trkpt lat="44.67717884382274" lon="9.56656979737391"><ele>475.59999999999997</ele><time>2026-04-30T07:54:59.999Z</time></trkpt><trkpt lat="44.67709230608351" lon="9.566544747127683"><ele>476.4</ele><time>2026-04-30T07:55:00.999Z</time></trkpt><trkpt lat="44.67696144287243" lon="9.566526482354982"><ele>477.2</ele><time>2026-04-30T07:55:01.999Z</time></trkpt><trkpt lat="44.67683451251383" lon="9.566636858002674"><ele>478.0</ele><time>2026-04-30T07:55:02.999Z</time></trkpt><trkpt lat="44.676724072220296" lon="9.566703439243263"><ele>480.75</ele><time>2026-04-30T07:55:03.999Z</time></trkpt><trkpt lat="44.67661352931072" lon="9.566776447684868"><ele>483.5</ele><time>2026-04-30T07:55:04.999Z</time></trkpt><trkpt lat="44.67649239923005" lon="9.566797614996261"><ele>486.25</ele><time>2026-04-30T07:55:05.999Z</time></trkpt><trkpt lat="44.67638041054815" lon="9.566819375379708"><ele>489.0</ele><time>2026-04-30T07:55:06.999Z</time></trkpt><trkpt lat="44.6762692867308" lon="9.566820500083054"><ele>489.0</ele><time>2026-04-30T07:55:07.999Z</time></trkpt><trkpt lat="44.676117786934746" lon="9.566819818895677"><ele>489.0</ele><time>2026-04-30T07:55:08.999Z</time></trkpt><trkpt lat="44.67595985330033" lon="9.56681883603398"><ele>489.0</ele><time>2026-04-30T07:55:09.999Z</time></trkpt><trkpt lat="44.6758038614898" lon="9.566817539016764"><ele>489.66666666666663</ele><time>2026-04-30T07:55:10.999Z</time></trkpt><trkpt lat="44.67565159512326" lon="9.566822859015616"><ele>490.3333333333333</ele><time>2026-04-30T07:55:11.999Z</time></trkpt><trkpt lat="44.6754825859492" lon="9.566868182623386"><ele>491.0</ele><time>2026-04-30T07:55:12.999Z</time></trkpt><trkpt lat="44.67530957021797" lon="9.566913075550744"><ele>492.3333333333333</ele><time>2026-04-30T07:55:13.999Z</time></trkpt><trkpt lat="44.67515751159421" lon="9.566986033511714"><ele>493.66666666666663</ele><time>2026-04-30T07:55:14.999Z</time></trkpt><trkpt lat="44.67501263696172" lon="9.567045155300358"><ele>495.0</ele><time>2026-04-30T07:55:15.999Z</time></trkpt><trkpt lat="44.67487344577731" lon="9.567081362013525"><ele>491.33333333333337</ele><time>2026-04-30T07:55:16.999Z</time></trkpt><trkpt lat="44.674720146958926" lon="9.567128265820376"><ele>487.6666666666667</ele><time>2026-04-30T07:55:17.999Z</time></trkpt><trkpt lat="44.67458070916628" lon="9.567216961546306"><ele>484.0</ele><time>2026-04-30T07:55:18.999Z</time></trkpt><trkpt lat="44.67444772071742" lon="9.56731228830169"><ele>487.6666666666667</ele><time>2026-04-30T07:55:19.999Z</time></trkpt><trkpt lat="44.67429873905943" lon="9.567363865117974"><ele>491.33333333333337</ele><time>2026-04-30T07:55:20.999Z</time></trkpt><trkpt lat="44.67416565510775" lon="9.567424212500766"><ele>495.0</ele><time>2026-04-30T07:55:21.999Z</time></trkpt><trkpt lat="44.67400773241804" lon="9.567501690632342"><ele>495.0</ele><time>2026-04-30T07:55:22.999Z</time></trkpt><trkpt lat="44.67386221691577" lon="9.5675931914982"><ele>495.0</ele><time>2026-04-30T07:55:23.999Z</time></trkpt><trkpt lat="44.67372491600523" lon="9.567723424428497"><ele>495.0</ele><time>2026-04-30T07:55:24.999Z</time></trkpt><trkpt lat="44.673607794155956" lon="9.56786243188935"><ele>493.75</ele><time>2026-04-30T07:55:25.999Z</time></trkpt><trkpt lat="44.673478484560995" lon="9.567966152811866"><ele>492.5</ele><time>2026-04-30T07:55:26.999Z</time></trkpt><trkpt lat="44.67334829141558" lon="9.56804830639722"><ele>491.25</ele><time>2026-04-30T07:55:27.999Z</time></trkpt><trkpt lat="44.67320198046438" lon="9.568104380996468"><ele>490.0</ele><time>2026-04-30T07:55:28.999Z</time></trkpt><trkpt lat="44.67305024132217" lon="9.568112143538087"><ele>490.0</ele><time>2026-04-30T07:55:29.999Z</time></trkpt><trkpt lat="44.67287746634192" lon="9.568194791849983"><ele>490.0</ele><time>2026-04-30T07:55:30.999Z</time></trkpt><trkpt lat="44.67272509876482" lon="9.56816758636057"><ele>490.0</ele><time>2026-04-30T07:55:31.999Z</time></trkpt><trkpt lat="44.672560916417815" lon="9.568143617903575"><ele>492.75</ele><time>2026-04-30T07:55:32.999Z</time></trkpt><trkpt lat="44.67241651142934" lon="9.568103805936252"><ele>495.5</ele><time>2026-04-30T07:55:33.999Z</time></trkpt><trkpt lat="44.67227284099006" lon="9.568113329597162"><ele>498.25</ele><time>2026-04-30T07:55:34.999Z</time></trkpt><trkpt lat="44.672146571615336" lon="9.568084658742286"><ele>501.0</ele><time>2026-04-30T07:55:35.999Z</time></trkpt><trkpt lat="44.67202392729215" lon="9.568059988811678"><ele>499.5</ele><time>2026-04-30T07:55:36.999Z</time></trkpt><trkpt lat="44.67190433174522" lon="9.568011108484223"><ele>498.0</ele><time>2026-04-30T07:55:37.999Z</time></trkpt><trkpt lat="44.671788975658" lon="9.56794280125534"><ele>496.5</ele><time>2026-04-30T07:55:38.999Z</time></trkpt><trkpt lat="44.67166008156392" lon="9.567859148255803"><ele>495.0</ele><time>2026-04-30T07:55:39.999Z</time></trkpt><trkpt lat="44.671528087050355" lon="9.567763010861569"><ele>497.5</ele><time>2026-04-30T07:55:40.999Z</time></trkpt><trkpt lat="44.67137568133461" lon="9.56765695929664"><ele>500.0</ele><time>2026-04-30T07:55:41.999Z</time></trkpt><trkpt lat="44.67125702250731" lon="9.567551098873983"><ele>502.5</ele><time>2026-04-30T07:55:42.999Z</time></trkpt><trkpt lat="44.67113913887463" lon="9.567448770328753"><ele>505.0</ele><time>2026-04-30T07:55:43.999Z</time></trkpt><trkpt lat="44.67102244018029" lon="9.567392762366854"><ele>505.0</ele><time>2026-04-30T07:55:44.999Z</time></trkpt><trkpt lat="44.670863299637745" lon="9.567417356469017"><ele>505.0</ele><time>2026-04-30T07:55:45.999Z</time></trkpt><trkpt lat="44.670732718762864" lon="9.567454080466247"><ele>505.0</ele><time>2026-04-30T07:55:46.999Z</time></trkpt><trkpt lat="44.67059191145169" lon="9.567457164421995"><ele>505.0</ele><time>2026-04-30T07:55:47.999Z</time></trkpt><trkpt lat="44.67046312816727" lon="9.567440492983438"><ele>505.0</ele><time>2026-04-30T07:55:48.999Z</time></trkpt><trkpt lat="44.67033881592459" lon="9.56739330544579"><ele>505.0</ele><time>2026-04-30T07:55:49.999Z</time></trkpt><trkpt lat="44.670220677149565" lon="9.56732008134795"><ele>505.0</ele><time>2026-04-30T07:55:50.999Z</time></trkpt><trkpt lat="44.67008139900214" lon="9.56723298379263"><ele>505.0</ele><time>2026-04-30T07:55:51.999Z</time></trkpt><trkpt lat="44.669953656857054" lon="9.567168195286964"><ele>504.33333333333337</ele><time>2026-04-30T07:55:52.999Z</time></trkpt><trkpt lat="44.66982314547525" lon="9.567084064355841"><ele>503.66666666666663</ele><time>2026-04-30T07:55:53.999Z</time></trkpt><trkpt lat="44.66967441811751" lon="9.567032879470753"><ele>503.0</ele><time>2026-04-30T07:55:55Z</time></trkpt><trkpt lat="44.6695224844272" lon="9.566984701202315"><ele>506.25</ele><time>2026-04-30T07:55:56Z</time></trkpt><trkpt lat="44.66937470048369" lon="9.56694551794196"><ele>509.5</ele><time>2026-04-30T07:55:57Z</time></trkpt><trkpt lat="44.66922842973078" lon="9.566909946510503"><ele>512.75</ele><time>2026-04-30T07:55:58Z</time></trkpt><trkpt lat="44.66912026699039" lon="9.566856284635014"><ele>516.0</ele><time>2026-04-30T07:55:59Z</time></trkpt><trkpt lat="44.66904062109128" lon="9.566785966778221"><ele>516.0</ele><time>2026-04-30T07:56:00Z</time></trkpt><trkpt lat="44.66896994534505" lon="9.566682122673466"><ele>516.0</ele><time>2026-04-30T07:56:01Z</time></trkpt><trkpt lat="44.66891655377393" lon="9.566489336155016"><ele>516.0</ele><time>2026-04-30T07:56:02Z</time></trkpt><trkpt lat="44.66885593366133" lon="9.56628876992035"><ele>516.0</ele><time>2026-04-30T07:56:03Z</time></trkpt><trkpt lat="44.66878163634693" lon="9.56609075439099"><ele>518.0</ele><time>2026-04-30T07:56:04Z</time></trkpt><trkpt lat="44.66871024707065" lon="9.565891747201162"><ele>520.0</ele><time>2026-04-30T07:56:05Z</time></trkpt><trkpt lat="44.6686105787233" lon="9.565738507370577"><ele>522.0</ele><time>2026-04-30T07:56:06Z</time></trkpt><trkpt lat="44.668507959758394" lon="9.565642573340488"><ele>524.0</ele><time>2026-04-30T07:56:07Z</time></trkpt><trkpt lat="44.668395932086014" lon="9.565474910978109"><ele>521.3333333333333</ele><time>2026-04-30T07:56:08Z</time></trkpt><trkpt lat="44.668274497040535" lon="9.565338509131427"><ele>518.6666666666666</ele><time>2026-04-30T07:56:09Z</time></trkpt><trkpt lat="44.66814964628569" lon="9.565233291999258"><ele>516.0</ele><time>2026-04-30T07:56:10Z</time></trkpt><trkpt lat="44.66801540203546" lon="9.565129074541403"><ele>516.0</ele><time>2026-04-30T07:56:11Z</time></trkpt><trkpt lat="44.66790246581632" lon="9.565046035909857"><ele>516.0</ele><time>2026-04-30T07:56:12Z</time></trkpt><trkpt lat="44.667812013981944" lon="9.564930996967274"><ele>516.0</ele><time>2026-04-30T07:56:13Z</time></trkpt><trkpt lat="44.66774814578568" lon="9.56482568012231"><ele>516.0</ele><time>2026-04-30T07:56:14Z</time></trkpt><trkpt lat="44.667684527905735" lon="9.564658629580354"><ele>514.6666666666666</ele><time>2026-04-30T07:56:15Z</time></trkpt><trkpt lat="44.667620622186675" lon="9.56447901206909"><ele>513.3333333333333</ele><time>2026-04-30T07:56:16Z</time></trkpt><trkpt lat="44.667563528340104" lon="9.564257477800599"><ele>512.0</ele><time>2026-04-30T07:56:17Z</time></trkpt><trkpt lat="44.66750966628281" lon="9.564063773236025"><ele>512.0</ele><time>2026-04-30T07:56:18Z</time></trkpt><trkpt lat="44.66747157808975" lon="9.563862810646988"><ele>512.0</ele><time>2026-04-30T07:56:19Z</time></trkpt><trkpt lat="44.66746025656695" lon="9.563676553955167"><ele>512.0</ele><time>2026-04-30T07:56:20Z</time></trkpt><trkpt lat="44.66746496538921" lon="9.563479610018703"><ele>512.0</ele><time>2026-04-30T07:56:21Z</time></trkpt><trkpt lat="44.66744345558912" lon="9.563275353750099"><ele>514.0</ele><time>2026-04-30T07:56:22Z</time></trkpt><trkpt lat="44.667403798736814" lon="9.563078432529778"><ele>516.0</ele><time>2026-04-30T07:56:23Z</time></trkpt><trkpt lat="44.66733835457337" lon="9.562881030880899"><ele>518.0</ele><time>2026-04-30T07:56:24Z</time></trkpt><trkpt lat="44.66726253511672" lon="9.56271689681218"><ele>520.0</ele><time>2026-04-30T07:56:25Z</time></trkpt><trkpt lat="44.667185536156055" lon="9.562558086768638"><ele>518.25</ele><time>2026-04-30T07:56:26Z</time></trkpt><trkpt lat="44.66712432555687" lon="9.562392260126808"><ele>516.5</ele><time>2026-04-30T07:56:27Z</time></trkpt><trkpt lat="44.66706845532418" lon="9.562248157510663"><ele>514.75</ele><time>2026-04-30T07:56:28Z</time></trkpt><trkpt lat="44.66699138361638" lon="9.562129559688213"><ele>513.0</ele><time>2026-04-30T07:56:29Z</time></trkpt><trkpt lat="44.666902820335785" lon="9.562062191696157"><ele>515.5</ele><time>2026-04-30T07:56:30Z</time></trkpt><trkpt lat="44.666772012606806" lon="9.561983873797073"><ele>518.0</ele><time>2026-04-30T07:56:31Z</time></trkpt><trkpt lat="44.666650389358914" lon="9.561894863957654"><ele>520.5</ele><time>2026-04-30T07:56:32Z</time></trkpt><trkpt lat="44.66654322967391" lon="9.561851120363444"><ele>523.0</ele><time>2026-04-30T07:56:33Z</time></trkpt><trkpt lat="44.66643625331995" lon="9.561813451692855"><ele>523.0</ele><time>2026-04-30T07:56:34Z</time></trkpt><trkpt lat="44.666342291229604" lon="9.561731886671009"><ele>523.0</ele><time>2026-04-30T07:56:35Z</time></trkpt><trkpt lat="44.66625616920854" lon="9.56159513748227"><ele>523.0</ele><time>2026-04-30T07:56:35.999Z</time></trkpt><trkpt lat="44.66618417681162" lon="9.56146199268684"><ele>523.0</ele><time>2026-04-30T07:56:36.999Z</time></trkpt><trkpt lat="44.66609732672398" lon="9.561319786263168"><ele>521.6</ele><time>2026-04-30T07:56:37.999Z</time></trkpt><trkpt lat="44.66604730253048" lon="9.561189313802183"><ele>520.1999999999999</ele><time>2026-04-30T07:56:38.999Z</time></trkpt><trkpt lat="44.666014161302094" lon="9.56107158611157"><ele>518.8</ele><time>2026-04-30T07:56:39.999Z</time></trkpt><trkpt lat="44.66601779370838" lon="9.560924597039373"><ele>517.4</ele><time>2026-04-30T07:56:40.999Z</time></trkpt><trkpt lat="44.66606750800576" lon="9.560799560012443"><ele>516.0</ele><time>2026-04-30T07:56:41.999Z</time></trkpt><trkpt lat="44.66614232744358" lon="9.56068546326247"><ele>520.0</ele><time>2026-04-30T07:56:42.999Z</time></trkpt><trkpt lat="44.666212237671" lon="9.56055108803511"><ele>524.0</ele><time>2026-04-30T07:56:43.999Z</time></trkpt><trkpt lat="44.66627363835423" lon="9.560409030104381"><ele>528.0</ele><time>2026-04-30T07:56:44.999Z</time></trkpt><trkpt lat="44.666330465291" lon="9.56023880810785"><ele>532.0</ele><time>2026-04-30T07:56:45.999Z</time></trkpt><trkpt lat="44.66637714748591" lon="9.560057941631602"><ele>532.0</ele><time>2026-04-30T07:56:46.999Z</time></trkpt><trkpt lat="44.66637755066704" lon="9.55986384120132"><ele>532.0</ele><time>2026-04-30T07:56:47.999Z</time></trkpt><trkpt lat="44.66630132712534" lon="9.559696866129428"><ele>532.0</ele><time>2026-04-30T07:56:48.999Z</time></trkpt><trkpt lat="44.66623555160046" lon="9.559496767068246"><ele>532.0</ele><time>2026-04-30T07:56:49.999Z</time></trkpt><trkpt lat="44.66617472599901" lon="9.559266549897623"><ele>532.6666666666667</ele><time>2026-04-30T07:56:50.999Z</time></trkpt><trkpt lat="44.66611715324434" lon="9.558996135643449"><ele>533.3333333333334</ele><time>2026-04-30T07:56:51.999Z</time></trkpt><trkpt lat="44.66604520084535" lon="9.558696360412156"><ele>534.0</ele><time>2026-04-30T07:56:52.999Z</time></trkpt><trkpt lat="44.66595024800789" lon="9.558389281925628"><ele>531.0</ele><time>2026-04-30T07:56:53.999Z</time></trkpt><trkpt lat="44.66586684188942" lon="9.5581116279716"><ele>528.0</ele><time>2026-04-30T07:56:54.999Z</time></trkpt><trkpt lat="44.66579020128207" lon="9.557841346719986"><ele>525.0</ele><time>2026-04-30T07:56:55.999Z</time></trkpt><trkpt lat="44.665758582865166" lon="9.557605000113151"><ele>525.0</ele><time>2026-04-30T07:56:56.999Z</time></trkpt><trkpt lat="44.665724986953414" lon="9.557324653051763"><ele>525.0</ele><time>2026-04-30T07:56:57.999Z</time></trkpt><trkpt lat="44.665691478729336" lon="9.55702935162885"><ele>525.0</ele><time>2026-04-30T07:56:58.999Z</time></trkpt><trkpt lat="44.66564785048383" lon="9.556656355750713"><ele>530.0</ele><time>2026-04-30T07:56:59.999Z</time></trkpt><trkpt lat="44.66559550999855" lon="9.556290434746053"><ele>535.0</ele><time>2026-04-30T07:57:00.999Z</time></trkpt><trkpt lat="44.665514744560944" lon="9.55591518578108"><ele>542.0</ele><time>2026-04-30T07:57:01.999Z</time></trkpt><trkpt lat="44.66544070868925" lon="9.555535949563524"><ele>549.0</ele><time>2026-04-30T07:57:02.999Z</time></trkpt><trkpt lat="44.66534330638765" lon="9.555194483293667"><ele>535.5</ele><time>2026-04-30T07:57:03.999Z</time></trkpt><trkpt lat="44.665255364121144" lon="9.554886478140345"><ele>522.0</ele><time>2026-04-30T07:57:04.999Z</time></trkpt><trkpt lat="44.665177208260076" lon="9.5545685000603"><ele>528.5</ele><time>2026-04-30T07:57:05.999Z</time></trkpt><trkpt lat="44.66509003797175" lon="9.554248892355485"><ele>535.0</ele><time>2026-04-30T07:57:06.999Z</time></trkpt><trkpt lat="44.66498096651324" lon="9.553873937053284"><ele>538.5</ele><time>2026-04-30T07:57:07.999Z</time></trkpt><trkpt lat="44.66485879642077" lon="9.553559449796339"><ele>542.0</ele><time>2026-04-30T07:57:08.999Z</time></trkpt><trkpt lat="44.66477867431104" lon="9.553272121405875"><ele>542.0</ele><time>2026-04-30T07:57:09.999Z</time></trkpt><trkpt lat="44.66470419771118" lon="9.553030851300335"><ele>542.0</ele><time>2026-04-30T07:57:10.999Z</time></trkpt><trkpt lat="44.6646323553355" lon="9.552838198140758"><ele>542.0</ele><time>2026-04-30T07:57:11.999Z</time></trkpt><trkpt lat="44.66460147112247" lon="9.55266269369213"><ele>542.5</ele><time>2026-04-30T07:57:12.999Z</time></trkpt><trkpt lat="44.664595072998424" lon="9.552466774082303"><ele>543.0</ele><time>2026-04-30T07:57:13.999Z</time></trkpt><trkpt lat="44.664628174140084" lon="9.55228941709361"><ele>543.5</ele><time>2026-04-30T07:57:14.999Z</time></trkpt><trkpt lat="44.664674254587105" lon="9.552050802593019"><ele>544.0</ele><time>2026-04-30T07:57:15.999Z</time></trkpt><trkpt lat="44.66472821043167" lon="9.551802754006586"><ele>544.0</ele><time>2026-04-30T07:57:16.999Z</time></trkpt><trkpt lat="44.664772548669745" lon="9.551571534506312"><ele>544.0</ele><time>2026-04-30T07:57:17.999Z</time></trkpt><trkpt lat="44.66479988746236" lon="9.55139286242161"><ele>544.0</ele><time>2026-04-30T07:57:18.999Z</time></trkpt><trkpt lat="44.66478209067507" lon="9.551214264974439"><ele>544.0</ele><time>2026-04-30T07:57:19.999Z</time></trkpt><trkpt lat="44.66476467020459" lon="9.551028232602336"><ele>544.6666666666667</ele><time>2026-04-30T07:57:20.999Z</time></trkpt><trkpt lat="44.66464169732939" lon="9.550844147209043"><ele>545.3333333333334</ele><time>2026-04-30T07:57:21.999Z</time></trkpt><trkpt lat="44.664495496141946" lon="9.550640023518401"><ele>546.0</ele><time>2026-04-30T07:57:22.999Z</time></trkpt><trkpt lat="44.66438894280615" lon="9.550403903686954"><ele>542.3333333333334</ele><time>2026-04-30T07:57:23.999Z</time></trkpt><trkpt lat="44.66427658706123" lon="9.550133934247244"><ele>538.6666666666667</ele><time>2026-04-30T07:57:24.999Z</time></trkpt><trkpt lat="44.66418085529905" lon="9.54986729590849"><ele>535.0</ele><time>2026-04-30T07:57:25.999Z</time></trkpt><trkpt lat="44.66409073897925" lon="9.549582720899439"><ele>539.6666666666667</ele><time>2026-04-30T07:57:26.999Z</time></trkpt><trkpt lat="44.66400770010075" lon="9.54930773150104"><ele>544.3333333333334</ele><time>2026-04-30T07:57:27.999Z</time></trkpt><trkpt lat="44.663923977611006" lon="9.549030661445157"><ele>549.0</ele><time>2026-04-30T07:57:28.999Z</time></trkpt><trkpt lat="44.66380808233599" lon="9.54874643600125"><ele>553.0</ele><time>2026-04-30T07:57:29.999Z</time></trkpt><trkpt lat="44.66366574899561" lon="9.548522361471706"><ele>557.0</ele><time>2026-04-30T07:57:30.999Z</time></trkpt><trkpt lat="44.663537364024556" lon="9.548272640034302"><ele>561.0</ele><time>2026-04-30T07:57:31.999Z</time></trkpt><trkpt lat="44.663444804523536" lon="9.547992223777873"><ele>553.6666666666666</ele><time>2026-04-30T07:57:32.999Z</time></trkpt><trkpt lat="44.66335216919282" lon="9.54775296610563"><ele>546.3333333333333</ele><time>2026-04-30T07:57:33.999Z</time></trkpt><trkpt lat="44.66328303107725" lon="9.547572440349008"><ele>539.0</ele><time>2026-04-30T07:57:34.999Z</time></trkpt><trkpt lat="44.66322363114752" lon="9.547441811345644"><ele>539.0</ele><time>2026-04-30T07:57:35.999Z</time></trkpt><trkpt lat="44.66322605233997" lon="9.547294584140516"><ele>539.0</ele><time>2026-04-30T07:57:36.999Z</time></trkpt><trkpt lat="44.66323982291326" lon="9.547159337713865"><ele>539.0</ele><time>2026-04-30T07:57:37.999Z</time></trkpt><trkpt lat="44.6632861718583" lon="9.547020238726953"><ele>539.0</ele><time>2026-04-30T07:57:38.999Z</time></trkpt><trkpt lat="44.663370498714386" lon="9.546839394847337"><ele>538.75</ele><time>2026-04-30T07:57:39.999Z</time></trkpt><trkpt lat="44.66338519829145" lon="9.546625425551769"><ele>538.5</ele><time>2026-04-30T07:57:40.999Z</time></trkpt><trkpt lat="44.66336474454156" lon="9.54645647530345"><ele>538.25</ele><time>2026-04-30T07:57:41.999Z</time></trkpt><trkpt lat="44.66331254354015" lon="9.546322027230024"><ele>538.0</ele><time>2026-04-30T07:57:42.999Z</time></trkpt><trkpt lat="44.66326959259399" lon="9.54620030445767"><ele>539.75</ele><time>2026-04-30T07:57:43.999Z</time></trkpt><trkpt lat="44.663178951489115" lon="9.54612832468645"><ele>541.5</ele><time>2026-04-30T07:57:44.999Z</time></trkpt><trkpt lat="44.663067576377145" lon="9.546104292269595"><ele>543.25</ele><time>2026-04-30T07:57:45.999Z</time></trkpt><trkpt lat="44.662949613570966" lon="9.54613740240748"><ele>545.0</ele><time>2026-04-30T07:57:46.999Z</time></trkpt><trkpt lat="44.662804796265675" lon="9.546160231902533"><ele>539.0</ele><time>2026-04-30T07:57:47.999Z</time></trkpt><trkpt lat="44.662639074992065" lon="9.54619115195801"><ele>533.0</ele><time>2026-04-30T07:57:48.999Z</time></trkpt><trkpt lat="44.66247874118051" lon="9.546257005431945"><ele>527.0</ele><time>2026-04-30T07:57:49.999Z</time></trkpt><trkpt lat="44.66232158257631" lon="9.546280614058007"><ele>526.0</ele><time>2026-04-30T07:57:50.999Z</time></trkpt><trkpt lat="44.66215795559306" lon="9.546326720407873"><ele>525.0</ele><time>2026-04-30T07:57:51.999Z</time></trkpt><trkpt lat="44.66199464858388" lon="9.54637273658966"><ele>524.0</ele><time>2026-04-30T07:57:52.999Z</time></trkpt><trkpt lat="44.66180843496314" lon="9.54643214248304"><ele>525.5</ele><time>2026-04-30T07:57:53.999Z</time></trkpt><trkpt lat="44.66164684601473" lon="9.546485018342368"><ele>527.0</ele><time>2026-04-30T07:57:54.999Z</time></trkpt><trkpt lat="44.66151436336278" lon="9.546498736293819"><ele>528.5</ele><time>2026-04-30T07:57:55.999Z</time></trkpt><trkpt lat="44.66139721976777" lon="9.546507313084506"><ele>530.0</ele><time>2026-04-30T07:57:56.999Z</time></trkpt><trkpt lat="44.66128981983321" lon="9.546497910342417"><ele>530.0</ele><time>2026-04-30T07:57:57.999Z</time></trkpt><trkpt lat="44.66120220368401" lon="9.546383221697354"><ele>530.0</ele><time>2026-04-30T07:57:58.999Z</time></trkpt><trkpt lat="44.66110172463759" lon="9.546279476310652"><ele>530.0</ele><time>2026-04-30T07:57:59.999Z</time></trkpt><trkpt lat="44.66099603894528" lon="9.546140907043103"><ele>530.0</ele><time>2026-04-30T07:58:00.999Z</time></trkpt><trkpt lat="44.66092968460498" lon="9.545980577481687"><ele>532.75</ele><time>2026-04-30T07:58:01.999Z</time></trkpt><trkpt lat="44.660892428642775" lon="9.545794590188542"><ele>535.5</ele><time>2026-04-30T07:58:02.999Z</time></trkpt><trkpt lat="44.660883074718285" lon="9.545576299184766"><ele>538.25</ele><time>2026-04-30T07:58:03.999Z</time></trkpt><trkpt lat="44.66088690949468" lon="9.545372070665378"><ele>541.0</ele><time>2026-04-30T07:58:04.999Z</time></trkpt><trkpt lat="44.66088766193009" lon="9.545140383912255"><ele>542.0</ele><time>2026-04-30T07:58:05.999Z</time></trkpt><trkpt lat="44.660901028960765" lon="9.544899576691146"><ele>543.0</ele><time>2026-04-30T07:58:06.999Z</time></trkpt><trkpt lat="44.66092583084611" lon="9.544678025702785"><ele>544.0</ele><time>2026-04-30T07:58:07.999Z</time></trkpt><trkpt lat="44.66091590526805" lon="9.544427962128397"><ele>545.0</ele><time>2026-04-30T07:58:08.999Z</time></trkpt><trkpt lat="44.660924802779405" lon="9.544139304206734"><ele>546.0</ele><time>2026-04-30T07:58:09.999Z</time></trkpt><trkpt lat="44.660922428244625" lon="9.543868130418918"><ele>547.0</ele><time>2026-04-30T07:58:10.999Z</time></trkpt><trkpt lat="44.66092566112844" lon="9.543621707520208"><ele>547.0</ele><time>2026-04-30T07:58:11.999Z</time></trkpt><trkpt lat="44.66092413402248" lon="9.54339662866968"><ele>547.0</ele><time>2026-04-30T07:58:12.999Z</time></trkpt><trkpt lat="44.660884413174735" lon="9.543174190586857"><ele>547.0</ele><time>2026-04-30T07:58:13.999Z</time></trkpt><trkpt lat="44.66081739102318" lon="9.542932112916182"><ele>546.3333333333334</ele><time>2026-04-30T07:58:14.999Z</time></trkpt><trkpt lat="44.66076101480339" lon="9.5426970872631"><ele>545.6666666666666</ele><time>2026-04-30T07:58:15.999Z</time></trkpt><trkpt lat="44.660701931663624" lon="9.542510071985008"><ele>545.0</ele><time>2026-04-30T07:58:16.999Z</time></trkpt><trkpt lat="44.66059838200326" lon="9.542385422726689"><ele>545.0</ele><time>2026-04-30T07:58:17.999Z</time></trkpt><trkpt lat="44.66048371876177" lon="9.542292715847449"><ele>545.0</ele><time>2026-04-30T07:58:18.999Z</time></trkpt><trkpt lat="44.66031993653793" lon="9.542222527675698"><ele>545.0</ele><time>2026-04-30T07:58:19.999Z</time></trkpt><trkpt lat="44.66018888755603" lon="9.54214417868132"><ele>545.0</ele><time>2026-04-30T07:58:20.999Z</time></trkpt><trkpt lat="44.66008050744686" lon="9.542003666253482"><ele>546.5</ele><time>2026-04-30T07:58:21.999Z</time></trkpt><trkpt lat="44.65997872975779" lon="9.541863441375899"><ele>548.0</ele><time>2026-04-30T07:58:22.999Z</time></trkpt><trkpt lat="44.65987478530898" lon="9.541712397385592"><ele>549.5</ele><time>2026-04-30T07:58:23.999Z</time></trkpt><trkpt lat="44.65976958500632" lon="9.541555557936736"><ele>551.0</ele><time>2026-04-30T07:58:24.999Z</time></trkpt><trkpt lat="44.65962485904534" lon="9.541445512277324"><ele>551.0</ele><time>2026-04-30T07:58:25.999Z</time></trkpt><trkpt lat="44.65946273148614" lon="9.541344836602516"><ele>551.0</ele><time>2026-04-30T07:58:26.999Z</time></trkpt><trkpt lat="44.65930330814939" lon="9.541273069976713"><ele>551.0</ele><time>2026-04-30T07:58:27.999Z</time></trkpt><trkpt lat="44.65914532861388" lon="9.541183528112333"><ele>551.3333333333333</ele><time>2026-04-30T07:58:28.999Z</time></trkpt><trkpt lat="44.65897720367766" lon="9.5411026202756"><ele>551.6666666666666</ele><time>2026-04-30T07:58:29.999Z</time></trkpt><trkpt lat="44.65881670968506" lon="9.541013311346669"><ele>552.0</ele><time>2026-04-30T07:58:30.999Z</time></trkpt><trkpt lat="44.65868838316624" lon="9.540931306913867"><ele>555.8000000000001</ele><time>2026-04-30T07:58:31.999Z</time></trkpt><trkpt lat="44.65859378663577" lon="9.540862651410233"><ele>559.6</ele><time>2026-04-30T07:58:32.999Z</time></trkpt><trkpt lat="44.65853747254218" lon="9.54079738190027"><ele>563.4000000000001</ele><time>2026-04-30T07:58:33.999Z</time></trkpt><trkpt lat="44.65848273161896" lon="9.540720401743057"><ele>567.2</ele><time>2026-04-30T07:58:34.999Z</time></trkpt><trkpt lat="44.658431765980666" lon="9.540604734233282"><ele>571.0</ele><time>2026-04-30T07:58:35.999Z</time></trkpt><trkpt lat="44.658390561523866" lon="9.54045086351761"><ele>569.4</ele><time>2026-04-30T07:58:36.999Z</time></trkpt><trkpt lat="44.65838325692418" lon="9.54031817824302"><ele>567.8</ele><time>2026-04-30T07:58:37.999Z</time></trkpt><trkpt lat="44.65839338922413" lon="9.540169548979062"><ele>566.1999999999999</ele><time>2026-04-30T07:58:38.999Z</time></trkpt><trkpt lat="44.65840675867351" lon="9.540015021545296"><ele>564.6</ele><time>2026-04-30T07:58:39.999Z</time></trkpt><trkpt lat="44.65842257105252" lon="9.539840912697475"><ele>563.0</ele><time>2026-04-30T07:58:40.999Z</time></trkpt><trkpt lat="44.65844122034103" lon="9.53967964202095"><ele>562.75</ele><time>2026-04-30T07:58:41.999Z</time></trkpt><trkpt lat="44.6584233381266" lon="9.539516748090746"><ele>562.5</ele><time>2026-04-30T07:58:42.999Z</time></trkpt><trkpt lat="44.6583579743347" lon="9.539346498723196"><ele>562.25</ele><time>2026-04-30T07:58:43.999Z</time></trkpt><trkpt lat="44.658295483881865" lon="9.53920023682201"><ele>562.0</ele><time>2026-04-30T07:58:44.999Z</time></trkpt><trkpt lat="44.658236099316724" lon="9.539063147133218"><ele>562.0</ele><time>2026-04-30T07:58:45.999Z</time></trkpt><trkpt lat="44.658176859905375" lon="9.538918476697965"><ele>562.0</ele><time>2026-04-30T07:58:46.999Z</time></trkpt><trkpt lat="44.65812671849258" lon="9.538777422348735"><ele>562.0</ele><time>2026-04-30T07:58:47.999Z</time></trkpt><trkpt lat="44.658076559705904" lon="9.538635140876458"><ele>562.0</ele><time>2026-04-30T07:58:48.999Z</time></trkpt><trkpt lat="44.65802384710671" lon="9.538511483911451"><ele>562.0</ele><time>2026-04-30T07:58:49.999Z</time></trkpt><trkpt lat="44.65792287055701" lon="9.53838163914109"><ele>559.6</ele><time>2026-04-30T07:58:50.999Z</time></trkpt><trkpt lat="44.65783892564278" lon="9.538280247842852"><ele>557.2</ele><time>2026-04-30T07:58:51.999Z</time></trkpt><trkpt lat="44.65773270682374" lon="9.538303315781151"><ele>554.8</ele><time>2026-04-30T07:58:52.999Z</time></trkpt><trkpt lat="44.65763121660701" lon="9.538235252931187"><ele>552.4</ele><time>2026-04-30T07:58:53.999Z</time></trkpt><trkpt lat="44.657545617695156" lon="9.538158118017936"><ele>550.0</ele><time>2026-04-30T07:58:54.999Z</time></trkpt><trkpt lat="44.657461594402704" lon="9.538072170033375"><ele>549.5</ele><time>2026-04-30T07:58:55.999Z</time></trkpt><trkpt lat="44.657363537426626" lon="9.537976459589808"><ele>549.0</ele><time>2026-04-30T07:58:56.999Z</time></trkpt><trkpt lat="44.65725627740517" lon="9.537891290767798"><ele>548.5</ele><time>2026-04-30T07:58:57.999Z</time></trkpt><trkpt lat="44.65715499811417" lon="9.537878927867455"><ele>548.0</ele><time>2026-04-30T07:58:58.999Z</time></trkpt><trkpt lat="44.65702833608111" lon="9.537863775147764"><ele>553.5</ele><time>2026-04-30T07:58:59.998Z</time></trkpt><trkpt lat="44.656892884781094" lon="9.537822270145847"><ele>559.0</ele><time>2026-04-30T07:59:00.998Z</time></trkpt><trkpt lat="44.65677310204916" lon="9.537791124358758"><ele>564.5</ele><time>2026-04-30T07:59:01.998Z</time></trkpt><trkpt lat="44.6566699276369" lon="9.537765761666117"><ele>570.0</ele><time>2026-04-30T07:59:02.998Z</time></trkpt><trkpt lat="44.65657698142014" lon="9.537656427867015"><ele>570.0</ele><time>2026-04-30T07:59:03.998Z</time></trkpt><trkpt lat="44.656484023319194" lon="9.537544961570285"><ele>570.0</ele><time>2026-04-30T07:59:04.998Z</time></trkpt><trkpt lat="44.65640197569531" lon="9.53742192416602"><ele>570.0</ele><time>2026-04-30T07:59:05.998Z</time></trkpt><trkpt lat="44.65632904623274" lon="9.537298452604146"><ele>570.0</ele><time>2026-04-30T07:59:06.998Z</time></trkpt><trkpt lat="44.65624097192301" lon="9.537177752845853"><ele>572.5</ele><time>2026-04-30T07:59:07.998Z</time></trkpt><trkpt lat="44.65615325108536" lon="9.537044418391558"><ele>575.0</ele><time>2026-04-30T07:59:08.998Z</time></trkpt><trkpt lat="44.656061088952605" lon="9.536898876887633"><ele>577.5</ele><time>2026-04-30T07:59:09.998Z</time></trkpt><trkpt lat="44.65597959215136" lon="9.536742069462077"><ele>580.0</ele><time>2026-04-30T07:59:10.998Z</time></trkpt><trkpt lat="44.65593238455761" lon="9.536568877441242"><ele>580.0</ele><time>2026-04-30T07:59:11.998Z</time></trkpt><trkpt lat="44.655892134628154" lon="9.536405195776972"><ele>580.0</ele><time>2026-04-30T07:59:12.998Z</time></trkpt><trkpt lat="44.65585322425208" lon="9.536239724717563"><ele>580.0</ele><time>2026-04-30T07:59:13.998Z</time></trkpt><trkpt lat="44.655774487994684" lon="9.536096289469079"><ele>580.0</ele><time>2026-04-30T07:59:14.998Z</time></trkpt><trkpt lat="44.655674104695315" lon="9.535967033284912"><ele>577.25</ele><time>2026-04-30T07:59:15.998Z</time></trkpt><trkpt lat="44.655580142768684" lon="9.53585350024722"><ele>574.5</ele><time>2026-04-30T07:59:16.998Z</time></trkpt><trkpt lat="44.655478586964314" lon="9.53575794714634"><ele>571.75</ele><time>2026-04-30T07:59:17.998Z</time></trkpt><trkpt lat="44.65540056497473" lon="9.535639602473092"><ele>569.0</ele><time>2026-04-30T07:59:18.998Z</time></trkpt><trkpt lat="44.655317198404894" lon="9.535532426063758"><ele>572.2</ele><time>2026-04-30T07:59:19.998Z</time></trkpt><trkpt lat="44.65526187387599" lon="9.535446733136311"><ele>575.4</ele><time>2026-04-30T07:59:20.998Z</time></trkpt><trkpt lat="44.65519834248467" lon="9.535308213915496"><ele>578.6</ele><time>2026-04-30T07:59:21.998Z</time></trkpt><trkpt lat="44.65517512672865" lon="9.535154842028627"><ele>581.8</ele><time>2026-04-30T07:59:22.998Z</time></trkpt><trkpt lat="44.65517044867446" lon="9.534975878106092"><ele>585.0</ele><time>2026-04-30T07:59:23.998Z</time></trkpt><trkpt lat="44.65519402359827" lon="9.534808448237731"><ele>585.0</ele><time>2026-04-30T07:59:24.998Z</time></trkpt><trkpt lat="44.65522393863557" lon="9.534669208441205"><ele>585.0</ele><time>2026-04-30T07:59:25.998Z</time></trkpt><trkpt lat="44.65525800677759" lon="9.534516961709047"><ele>585.0</ele><time>2026-04-30T07:59:26.998Z</time></trkpt><trkpt lat="44.65528890057108" lon="9.534378900769067"><ele>585.0</ele><time>2026-04-30T07:59:27.998Z</time></trkpt><trkpt lat="44.655320370565235" lon="9.534229723378123"><ele>585.0</ele><time>2026-04-30T07:59:28.998Z</time></trkpt><trkpt lat="44.6553527609667" lon="9.534060295595156"><ele>582.0</ele><time>2026-04-30T07:59:29.998Z</time></trkpt><trkpt lat="44.65536211198094" lon="9.533936997309777"><ele>579.0</ele><time>2026-04-30T07:59:30.998Z</time></trkpt><trkpt lat="44.65533078523163" lon="9.53377963700716"><ele>576.0</ele><time>2026-04-30T07:59:31.998Z</time></trkpt><trkpt lat="44.655302201966634" lon="9.533610257954168"><ele>573.0</ele><time>2026-04-30T07:59:32.998Z</time></trkpt><trkpt lat="44.655211215214266" lon="9.533476940539504"><ele>573.0</ele><time>2026-04-30T07:59:33.998Z</time></trkpt><trkpt lat="44.65509663593436" lon="9.53339362451008"><ele>573.0</ele><time>2026-04-30T07:59:34.998Z</time></trkpt><trkpt lat="44.654983723548945" lon="9.533300824917447"><ele>573.0</ele><time>2026-04-30T07:59:35.998Z</time></trkpt><trkpt lat="44.6548769421952" lon="9.533194434896911"><ele>573.0</ele><time>2026-04-30T07:59:36.998Z</time></trkpt><trkpt lat="44.6547689622863" lon="9.533114223000599"><ele>573.0</ele><time>2026-04-30T07:59:37.998Z</time></trkpt><trkpt lat="44.65468857536511" lon="9.533023189529839"><ele>573.0</ele><time>2026-04-30T07:59:38.998Z</time></trkpt><trkpt lat="44.65460415972963" lon="9.532919555362646"><ele>573.0</ele><time>2026-04-30T07:59:39.998Z</time></trkpt><trkpt lat="44.65451424447566" lon="9.532797904794897"><ele>573.0</ele><time>2026-04-30T07:59:40.998Z</time></trkpt><trkpt lat="44.65442116180876" lon="9.532655784535585"><ele>573.5</ele><time>2026-04-30T07:59:41.998Z</time></trkpt><trkpt lat="44.65434376407374" lon="9.532513534417221"><ele>574.0</ele><time>2026-04-30T07:59:42.998Z</time></trkpt><trkpt lat="44.65426528522502" lon="9.532335811689274"><ele>574.5</ele><time>2026-04-30T07:59:43.998Z</time></trkpt><trkpt lat="44.6542006402996" lon="9.532163432572201"><ele>575.0</ele><time>2026-04-30T07:59:44.998Z</time></trkpt><trkpt lat="44.654145398433116" lon="9.531984505633634"><ele>575.0</ele><time>2026-04-30T07:59:45.998Z</time></trkpt><trkpt lat="44.65409661837131" lon="9.531800190522446"><ele>575.0</ele><time>2026-04-30T07:59:46.998Z</time></trkpt><trkpt lat="44.654051779878486" lon="9.531587216834136"><ele>575.0</ele><time>2026-04-30T07:59:47.998Z</time></trkpt><trkpt lat="44.6540130696916" lon="9.53139300996299"><ele>575.0</ele><time>2026-04-30T07:59:48.998Z</time></trkpt><trkpt lat="44.653968688179255" lon="9.531170191578322"><ele>575.3333333333333</ele><time>2026-04-30T07:59:49.998Z</time></trkpt><trkpt lat="44.65391823668881" lon="9.530928212232062"><ele>575.6666666666666</ele><time>2026-04-30T07:59:50.998Z</time></trkpt><trkpt lat="44.653881651990694" lon="9.530719680941097"><ele>576.0</ele><time>2026-04-30T07:59:51.998Z</time></trkpt><trkpt lat="44.65385954012652" lon="9.530486569484244"><ele>576.25</ele><time>2026-04-30T07:59:52.998Z</time></trkpt><trkpt lat="44.653895825827384" lon="9.530289967027947"><ele>576.5</ele><time>2026-04-30T07:59:53.998Z</time></trkpt><trkpt lat="44.65392769167835" lon="9.530084067429078"><ele>576.75</ele><time>2026-04-30T07:59:54.998Z</time></trkpt><trkpt lat="44.65392358695073" lon="9.529893478720458"><ele>577.0</ele><time>2026-04-30T07:59:55.998Z</time></trkpt><trkpt lat="44.65389644283345" lon="9.5297165364207"><ele>576.0</ele><time>2026-04-30T07:59:56.998Z</time></trkpt><trkpt lat="44.65384729758678" lon="9.529525970538677"><ele>575.0</ele><time>2026-04-30T07:59:57.998Z</time></trkpt><trkpt lat="44.65375195995685" lon="9.529374407334581"><ele>574.0</ele><time>2026-04-30T07:59:58.998Z</time></trkpt><trkpt lat="44.653627155434215" lon="9.529253535408735"><ele>573.0</ele><time>2026-04-30T07:59:59.998Z</time></trkpt><trkpt lat="44.65349529426432" lon="9.529118857857158"><ele>574.25</ele><time>2026-04-30T08:00:00.998Z</time></trkpt><trkpt lat="44.653354894524306" lon="9.529013333714673"><ele>575.5</ele><time>2026-04-30T08:00:01.998Z</time></trkpt><trkpt lat="44.653227698687246" lon="9.528888705479783"><ele>576.75</ele><time>2026-04-30T08:00:02.998Z</time></trkpt><trkpt lat="44.653124522227635" lon="9.528766066895063"><ele>578.0</ele><time>2026-04-30T08:00:03.998Z</time></trkpt><trkpt lat="44.65306392562099" lon="9.52863399482077"><ele>578.0</ele><time>2026-04-30T08:00:04.998Z</time></trkpt><trkpt lat="44.653004540048215" lon="9.528468994547175"><ele>578.0</ele><time>2026-04-30T08:00:05.998Z</time></trkpt><trkpt lat="44.652960979146904" lon="9.528253245257027"><ele>578.0</ele><time>2026-04-30T08:00:06.998Z</time></trkpt><trkpt lat="44.652890798654134" lon="9.528051295619647"><ele>577.0</ele><time>2026-04-30T08:00:07.998Z</time></trkpt><trkpt lat="44.65279837885473" lon="9.527859451212445"><ele>576.0</ele><time>2026-04-30T08:00:08.998Z</time></trkpt><trkpt lat="44.65273266152292" lon="9.527710981530054"><ele>575.0</ele><time>2026-04-30T08:00:09.998Z</time></trkpt><trkpt lat="44.65266673831286" lon="9.527567445751446"><ele>574.0</ele><time>2026-04-30T08:00:10.998Z</time></trkpt><trkpt lat="44.652645219522235" lon="9.527415684638964"><ele>573.25</ele><time>2026-04-30T08:00:11.998Z</time></trkpt><trkpt lat="44.6526819324311" lon="9.527267472999815"><ele>572.5</ele><time>2026-04-30T08:00:12.998Z</time></trkpt><trkpt lat="44.65274924731949" lon="9.52714262776842"><ele>571.75</ele><time>2026-04-30T08:00:13.998Z</time></trkpt><trkpt lat="44.65283572495266" lon="9.527018986901064"><ele>571.0</ele><time>2026-04-30T08:00:14.998Z</time></trkpt><trkpt lat="44.6529192815412" lon="9.52687324761489"><ele>571.0</ele><time>2026-04-30T08:00:15.998Z</time></trkpt><trkpt lat="44.65296721104101" lon="9.526704748080553"><ele>571.0</ele><time>2026-04-30T08:00:16.998Z</time></trkpt><trkpt lat="44.65299032205558" lon="9.526548780568362"><ele>571.0</ele><time>2026-04-30T08:00:17.998Z</time></trkpt><trkpt lat="44.65296488746483" lon="9.526400050929503"><ele>571.0</ele><time>2026-04-30T08:00:18.998Z</time></trkpt><trkpt lat="44.65289376883608" lon="9.526273593752313"><ele>569.6666666666667</ele><time>2026-04-30T08:00:19.998Z</time></trkpt><trkpt lat="44.65279537952396" lon="9.526149910267025"><ele>568.3333333333334</ele><time>2026-04-30T08:00:20.998Z</time></trkpt><trkpt lat="44.652692538288996" lon="9.525990752016835"><ele>567.0</ele><time>2026-04-30T08:00:21.998Z</time></trkpt><trkpt lat="44.6525734767567" lon="9.525825651769631"><ele>570.5</ele><time>2026-04-30T08:00:22.998Z</time></trkpt><trkpt lat="44.65247494365965" lon="9.525662906443966"><ele>574.0</ele><time>2026-04-30T08:00:23.998Z</time></trkpt><trkpt lat="44.65241047393178" lon="9.525483118846923"><ele>577.5</ele><time>2026-04-30T08:00:24.998Z</time></trkpt><trkpt lat="44.652370180469426" lon="9.525284880519141"><ele>581.0</ele><time>2026-04-30T08:00:25.998Z</time></trkpt><trkpt lat="44.652315000675564" lon="9.525116903158056"><ele>581.0</ele><time>2026-04-30T08:00:26.998Z</time></trkpt><trkpt lat="44.65222465550871" lon="9.524987834262477"><ele>581.0</ele><time>2026-04-30T08:00:27.998Z</time></trkpt><trkpt lat="44.65211723175917" lon="9.524903837845448"><ele>581.0</ele><time>2026-04-30T08:00:28.998Z</time></trkpt><trkpt lat="44.65199641112203" lon="9.524858128039336"><ele>581.0</ele><time>2026-04-30T08:00:29.998Z</time></trkpt><trkpt lat="44.65187428005225" lon="9.524854822426928"><ele>584.0</ele><time>2026-04-30T08:00:30.998Z</time></trkpt><trkpt lat="44.65179550373206" lon="9.524769044270894"><ele>587.0</ele><time>2026-04-30T08:00:31.998Z</time></trkpt><trkpt lat="44.65172810850531" lon="9.524663318079819"><ele>590.0</ele><time>2026-04-30T08:00:32.998Z</time></trkpt><trkpt lat="44.65167938392088" lon="9.524528787287906"><ele>593.0</ele><time>2026-04-30T08:00:33.998Z</time></trkpt><trkpt lat="44.65166261647154" lon="9.524375884718534"><ele>596.0</ele><time>2026-04-30T08:00:34.998Z</time></trkpt><trkpt lat="44.65164878388952" lon="9.524187309444788"><ele>596.0</ele><time>2026-04-30T08:00:35.998Z</time></trkpt><trkpt lat="44.65159408244118" lon="9.524016338764847"><ele>596.0</ele><time>2026-04-30T08:00:37Z</time></trkpt><trkpt lat="44.65153908397004" lon="9.523842971512634"><ele>596.0</ele><time>2026-04-30T08:00:38Z</time></trkpt><trkpt lat="44.65147573705409" lon="9.52369343255161"><ele>596.0</ele><time>2026-04-30T08:00:39Z</time></trkpt><trkpt lat="44.65139195099553" lon="9.523531175646536"><ele>592.6666666666666</ele><time>2026-04-30T08:00:40Z</time></trkpt><trkpt lat="44.6513256112407" lon="9.523351924132902"><ele>589.3333333333334</ele><time>2026-04-30T08:00:41Z</time></trkpt><trkpt lat="44.651295306878886" lon="9.523098300537484"><ele>586.0</ele><time>2026-04-30T08:00:42Z</time></trkpt><trkpt lat="44.651262093008896" lon="9.522816349372963"><ele>583.6666666666667</ele><time>2026-04-30T08:00:43Z</time></trkpt><trkpt lat="44.651233063795935" lon="9.522553749478599"><ele>581.3333333333334</ele><time>2026-04-30T08:00:44Z</time></trkpt><trkpt lat="44.651221041912066" lon="9.522281415730562"><ele>579.0</ele><time>2026-04-30T08:00:45Z</time></trkpt><trkpt lat="44.65118993782694" lon="9.522006012582318"><ele>578.3333333333334</ele><time>2026-04-30T08:00:46Z</time></trkpt><trkpt lat="44.65116447844344" lon="9.521741853966805"><ele>577.6666666666667</ele><time>2026-04-30T08:00:47Z</time></trkpt><trkpt lat="44.65112179702655" lon="9.521524107912727"><ele>577.0</ele><time>2026-04-30T08:00:48Z</time></trkpt><trkpt lat="44.65105324985237" lon="9.521293225597462"><ele>587.6666666666667</ele><time>2026-04-30T08:00:49Z</time></trkpt><trkpt lat="44.65094383450551" lon="9.521087928887754"><ele>598.3333333333334</ele><time>2026-04-30T08:00:50Z</time></trkpt><trkpt lat="44.65083834494575" lon="9.520899203087534"><ele>609.0</ele><time>2026-04-30T08:00:51Z</time></trkpt><trkpt lat="44.65077616750065" lon="9.520682140759778"><ele>609.0</ele><time>2026-04-30T08:00:52Z</time></trkpt><trkpt lat="44.65073540124558" lon="9.520423395186208"><ele>609.0</ele><time>2026-04-30T08:00:53Z</time></trkpt><trkpt lat="44.65069575480412" lon="9.520140200245121"><ele>609.0</ele><time>2026-04-30T08:00:54Z</time></trkpt><trkpt lat="44.65062737078991" lon="9.519866247524364"><ele>606.6666666666666</ele><time>2026-04-30T08:00:55Z</time></trkpt><trkpt lat="44.65055515063734" lon="9.519577381995665"><ele>604.3333333333333</ele><time>2026-04-30T08:00:56Z</time></trkpt><trkpt lat="44.65050050706876" lon="9.519297279665997"><ele>602.0</ele><time>2026-04-30T08:00:57Z</time></trkpt><trkpt lat="44.65045687817602" lon="9.519054115527583"><ele>602.0</ele><time>2026-04-30T08:00:58Z</time></trkpt><trkpt lat="44.65044139250938" lon="9.51880192547979"><ele>602.0</ele><time>2026-04-30T08:00:59Z</time></trkpt><trkpt lat="44.6504295358942" lon="9.518541917539602"><ele>602.0</ele><time>2026-04-30T08:01:00Z</time></trkpt><trkpt lat="44.650415588955894" lon="9.518292500813395"><ele>601.6666666666666</ele><time>2026-04-30T08:01:01Z</time></trkpt><trkpt lat="44.65040103523293" lon="9.51806625127256"><ele>601.3333333333334</ele><time>2026-04-30T08:01:02Z</time></trkpt><trkpt lat="44.65038230761333" lon="9.517813679596816"><ele>601.0</ele><time>2026-04-30T08:01:03Z</time></trkpt><trkpt lat="44.65033577511569" lon="9.517574566559892"><ele>609.6666666666667</ele><time>2026-04-30T08:01:04Z</time></trkpt><trkpt lat="44.65025502173351" lon="9.517330885894506"><ele>618.3333333333334</ele><time>2026-04-30T08:01:05Z</time></trkpt><trkpt lat="44.65018201616664" lon="9.517113278323585"><ele>627.0</ele><time>2026-04-30T08:01:06Z</time></trkpt><trkpt lat="44.65014829345684" lon="9.516908032854257"><ele>627.0</ele><time>2026-04-30T08:01:07Z</time></trkpt><trkpt lat="44.65011883770274" lon="9.516689118256561"><ele>627.0</ele><time>2026-04-30T08:01:08Z</time></trkpt><trkpt lat="44.650041587264994" lon="9.516496780021868"><ele>627.0</ele><time>2026-04-30T08:01:09Z</time></trkpt><trkpt lat="44.64999179301284" lon="9.516325934451526"><ele>627.0</ele><time>2026-04-30T08:01:10Z</time></trkpt><trkpt lat="44.6499577938733" lon="9.51618267601013"><ele>627.0</ele><time>2026-04-30T08:01:11Z</time></trkpt><trkpt lat="44.64995310769228" lon="9.516033244899555"><ele>627.0</ele><time>2026-04-30T08:01:12Z</time></trkpt><trkpt lat="44.649975158317595" lon="9.515874456327118"><ele>627.0</ele><time>2026-04-30T08:01:13Z</time></trkpt><trkpt lat="44.65002054351659" lon="9.515685685311206"><ele>627.0</ele><time>2026-04-30T08:01:14Z</time></trkpt><trkpt lat="44.65005414321067" lon="9.515476216145807"><ele>626.75</ele><time>2026-04-30T08:01:15Z</time></trkpt><trkpt lat="44.65007041539901" lon="9.515287895220592"><ele>626.5</ele><time>2026-04-30T08:01:16Z</time></trkpt><trkpt lat="44.65007366143946" lon="9.515098605832733"><ele>626.25</ele><time>2026-04-30T08:01:17Z</time></trkpt><trkpt lat="44.650042877490336" lon="9.514922193817927"><ele>626.0</ele><time>2026-04-30T08:01:18Z</time></trkpt><trkpt lat="44.650021764113276" lon="9.514781255217617"><ele>626.0</ele><time>2026-04-30T08:01:19Z</time></trkpt><trkpt lat="44.649924091810966" lon="9.514689571012374"><ele>626.0</ele><time>2026-04-30T08:01:20Z</time></trkpt><trkpt lat="44.64980821465583" lon="9.514587411469888"><ele>626.0</ele><time>2026-04-30T08:01:21Z</time></trkpt><trkpt lat="44.64969535363078" lon="9.514498286936114"><ele>626.0</ele><time>2026-04-30T08:01:22Z</time></trkpt><trkpt lat="44.64959447062456" lon="9.514396724188614"><ele>625.5</ele><time>2026-04-30T08:01:23Z</time></trkpt><trkpt lat="44.649518768682334" lon="9.514266860271682"><ele>625.0</ele><time>2026-04-30T08:01:24Z</time></trkpt><trkpt lat="44.64945442165359" lon="9.514114819954186"><ele>624.5</ele><time>2026-04-30T08:01:25Z</time></trkpt><trkpt lat="44.649440293404346" lon="9.513978372336624"><ele>624.0</ele><time>2026-04-30T08:01:26Z</time></trkpt><trkpt lat="44.64948439715673" lon="9.513835093403292"><ele>624.0</ele><time>2026-04-30T08:01:27Z</time></trkpt><trkpt lat="44.64952410227617" lon="9.513678964872227"><ele>624.0</ele><time>2026-04-30T08:01:28Z</time></trkpt><trkpt lat="44.649568271978694" lon="9.513536560857913"><ele>624.0</ele><time>2026-04-30T08:01:29Z</time></trkpt><trkpt lat="44.64961731676268" lon="9.51338017046523"><ele>624.0</ele><time>2026-04-30T08:01:30Z</time></trkpt><trkpt lat="44.64966848990086" lon="9.513211513676255"><ele>624.0</ele><time>2026-04-30T08:01:31Z</time></trkpt><trkpt lat="44.649697318352345" lon="9.513016958961185"><ele>624.0</ele><time>2026-04-30T08:01:32Z</time></trkpt><trkpt lat="44.64971870013791" lon="9.512863539085448"><ele>624.0</ele><time>2026-04-30T08:01:33Z</time></trkpt><trkpt lat="44.64970957814329" lon="9.512726639531882"><ele>624.0</ele><time>2026-04-30T08:01:34Z</time></trkpt><trkpt lat="44.64965297968705" lon="9.512600259678464"><ele>623.25</ele><time>2026-04-30T08:01:35Z</time></trkpt><trkpt lat="44.64958006493851" lon="9.512457802173518"><ele>622.5</ele><time>2026-04-30T08:01:36Z</time></trkpt><trkpt lat="44.64949988448443" lon="9.512281076908721"><ele>621.75</ele><time>2026-04-30T08:01:37Z</time></trkpt><trkpt lat="44.649451860149874" lon="9.512094400364576"><ele>621.0</ele><time>2026-04-30T08:01:38Z</time></trkpt><trkpt lat="44.649434022317436" lon="9.511887525231339"><ele>624.0</ele><time>2026-04-30T08:01:39Z</time></trkpt><trkpt lat="44.64944226986827" lon="9.511695679224298"><ele>627.0</ele><time>2026-04-30T08:01:40Z</time></trkpt><trkpt lat="44.64944582977236" lon="9.511489396432468"><ele>630.0</ele><time>2026-04-30T08:01:41Z</time></trkpt><trkpt lat="44.64941528217592" lon="9.511285808651175"><ele>633.0</ele><time>2026-04-30T08:01:42Z</time></trkpt><trkpt lat="44.64934005024017" lon="9.511106048677156"><ele>633.0</ele><time>2026-04-30T08:01:43Z</time></trkpt><trkpt lat="44.649241558950564" lon="9.51095967371076"><ele>633.0</ele><time>2026-04-30T08:01:44Z</time></trkpt><trkpt lat="44.6491533694344" lon="9.510786999216995"><ele>633.0</ele><time>2026-04-30T08:01:45Z</time></trkpt><trkpt lat="44.64909767279654" lon="9.510594520006102"><ele>633.0</ele><time>2026-04-30T08:01:46Z</time></trkpt><trkpt lat="44.64904728556207" lon="9.510376885982092"><ele>631.0</ele><time>2026-04-30T08:01:47Z</time></trkpt><trkpt lat="44.649005255152645" lon="9.510160423219403"><ele>629.0</ele><time>2026-04-30T08:01:48Z</time></trkpt><trkpt lat="44.64893766773098" lon="9.509918690850174"><ele>627.0</ele><time>2026-04-30T08:01:49Z</time></trkpt><trkpt lat="44.64886931151523" lon="9.50970232357237"><ele>624.3333333333334</ele><time>2026-04-30T08:01:50Z</time></trkpt><trkpt lat="44.64879996158827" lon="9.509488635423224"><ele>621.6666666666667</ele><time>2026-04-30T08:01:51Z</time></trkpt><trkpt lat="44.64870698274709" lon="9.509280842677288"><ele>619.0</ele><time>2026-04-30T08:01:52Z</time></trkpt><trkpt lat="44.648659857427155" lon="9.509073790222784"><ele>623.25</ele><time>2026-04-30T08:01:53Z</time></trkpt><trkpt lat="44.648593238636614" lon="9.508884825434423"><ele>627.5</ele><time>2026-04-30T08:01:54Z</time></trkpt><trkpt lat="44.64851067298734" lon="9.508709101499146"><ele>631.75</ele><time>2026-04-30T08:01:55Z</time></trkpt><trkpt lat="44.648450370195164" lon="9.508559337056148"><ele>636.0</ele><time>2026-04-30T08:01:56Z</time></trkpt><trkpt lat="44.64839263898527" lon="9.508408665813672"><ele>636.0</ele><time>2026-04-30T08:01:57Z</time></trkpt><trkpt lat="44.648306418585825" lon="9.50824632166668"><ele>636.0</ele><time>2026-04-30T08:01:58Z</time></trkpt><trkpt lat="44.64819286900295" lon="9.50817205548078"><ele>636.0</ele><time>2026-04-30T08:01:59Z</time></trkpt><trkpt lat="44.64808393747188" lon="9.508114492199043"><ele>636.0</ele><time>2026-04-30T08:02:00Z</time></trkpt><trkpt lat="44.64794717913028" lon="9.508111452011935"><ele>636.0</ele><time>2026-04-30T08:02:01Z</time></trkpt><trkpt lat="44.64782652879711" lon="9.508111122110694"><ele>636.0</ele><time>2026-04-30T08:02:02Z</time></trkpt><trkpt lat="44.6477147107386" lon="9.508096411630074"><ele>636.0</ele><time>2026-04-30T08:02:03Z</time></trkpt><trkpt lat="44.64762893584524" lon="9.508048373260984"><ele>636.0</ele><time>2026-04-30T08:02:04Z</time></trkpt><trkpt lat="44.64756049012719" lon="9.507965719729757"><ele>636.0</ele><time>2026-04-30T08:02:05Z</time></trkpt><trkpt lat="44.64747316858921" lon="9.507808691228714"><ele>636.25</ele><time>2026-04-30T08:02:06Z</time></trkpt><trkpt lat="44.64742854131333" lon="9.507611133466236"><ele>636.5</ele><time>2026-04-30T08:02:07Z</time></trkpt><trkpt lat="44.64741593317468" lon="9.507420934969486"><ele>636.75</ele><time>2026-04-30T08:02:08Z</time></trkpt><trkpt lat="44.64737959951374" lon="9.507222084591174"><ele>637.0</ele><time>2026-04-30T08:02:09Z</time></trkpt><trkpt lat="44.64729781677879" lon="9.507041705160194"><ele>641.6666666666667</ele><time>2026-04-30T08:02:10Z</time></trkpt><trkpt lat="44.6471927109846" lon="9.506858799907784"><ele>646.3333333333334</ele><time>2026-04-30T08:02:11Z</time></trkpt><trkpt lat="44.64705150329436" lon="9.506739308167926"><ele>651.0</ele><time>2026-04-30T08:02:12Z</time></trkpt><trkpt lat="44.64693578139449" lon="9.506573218182226"><ele>651.0</ele><time>2026-04-30T08:02:13Z</time></trkpt><trkpt lat="44.64681643425936" lon="9.506420057427407"><ele>651.0</ele><time>2026-04-30T08:02:14Z</time></trkpt><trkpt lat="44.64670963306911" lon="9.506262070564764"><ele>651.0</ele><time>2026-04-30T08:02:15Z</time></trkpt><trkpt lat="44.64659811266825" lon="9.506108625646636"><ele>647.0</ele><time>2026-04-30T08:02:16Z</time></trkpt><trkpt lat="44.64649774321458" lon="9.505940339664578"><ele>643.0</ele><time>2026-04-30T08:02:17Z</time></trkpt><trkpt lat="44.64640138228202" lon="9.505804450437553"><ele>639.0</ele><time>2026-04-30T08:02:18Z</time></trkpt><trkpt lat="44.646295517847975" lon="9.505645833566817"><ele>635.0</ele><time>2026-04-30T08:02:19Z</time></trkpt><trkpt lat="44.64619014527816" lon="9.505509040988882"><ele>631.75</ele><time>2026-04-30T08:02:20Z</time></trkpt><trkpt lat="44.64612844008911" lon="9.505371735661384"><ele>628.5</ele><time>2026-04-30T08:02:21Z</time></trkpt><trkpt lat="44.64607882226992" lon="9.505212858572364"><ele>625.25</ele><time>2026-04-30T08:02:22Z</time></trkpt><trkpt lat="44.64607207110842" lon="9.505014173525895"><ele>622.0</ele><time>2026-04-30T08:02:23Z</time></trkpt><trkpt lat="44.6460969382236" lon="9.504845486317235"><ele>622.0</ele><time>2026-04-30T08:02:24Z</time></trkpt><trkpt lat="44.64613095725957" lon="9.50466537100036"><ele>622.0</ele><time>2026-04-30T08:02:25Z</time></trkpt><trkpt lat="44.64616323457117" lon="9.504450813357408"><ele>622.0</ele><time>2026-04-30T08:02:26Z</time></trkpt><trkpt lat="44.64615855716343" lon="9.504234334102588"><ele>622.0</ele><time>2026-04-30T08:02:27Z</time></trkpt><trkpt lat="44.646110579551014" lon="9.50404389188322"><ele>627.0</ele><time>2026-04-30T08:02:28Z</time></trkpt><trkpt lat="44.646040147084435" lon="9.50388547801694"><ele>632.0</ele><time>2026-04-30T08:02:29Z</time></trkpt><trkpt lat="44.64596616432906" lon="9.503730786320483"><ele>637.0</ele><time>2026-04-30T08:02:30Z</time></trkpt><trkpt lat="44.64592364824877" lon="9.503554760264763"><ele>642.0</ele><time>2026-04-30T08:02:31Z</time></trkpt><trkpt lat="44.64589516704635" lon="9.503343331521624"><ele>642.0</ele><time>2026-04-30T08:02:32Z</time></trkpt><trkpt lat="44.645863439532256" lon="9.503140405524503"><ele>642.0</ele><time>2026-04-30T08:02:33Z</time></trkpt><trkpt lat="44.64581909108763" lon="9.502927745460024"><ele>642.0</ele><time>2026-04-30T08:02:34Z</time></trkpt><trkpt lat="44.645749288032185" lon="9.502724865556727"><ele>638.6666666666666</ele><time>2026-04-30T08:02:35Z</time></trkpt><trkpt lat="44.64567087095088" lon="9.50252635520004"><ele>635.3333333333333</ele><time>2026-04-30T08:02:36Z</time></trkpt><trkpt lat="44.64558518198154" lon="9.502314818070543"><ele>632.0</ele><time>2026-04-30T08:02:37Z</time></trkpt><trkpt lat="44.64549415290463" lon="9.50210391782798"><ele>629.0</ele><time>2026-04-30T08:02:38Z</time></trkpt><trkpt lat="44.64543067454155" lon="9.50189647772833"><ele>626.0</ele><time>2026-04-30T08:02:38.999Z</time></trkpt><trkpt lat="44.64535973010299" lon="9.50169997648651"><ele>623.0</ele><time>2026-04-30T08:02:39.999Z</time></trkpt><trkpt lat="44.64531199127876" lon="9.501507120372978"><ele>625.25</ele><time>2026-04-30T08:02:40.999Z</time></trkpt><trkpt lat="44.64526138295383" lon="9.501322510979369"><ele>627.5</ele><time>2026-04-30T08:02:41.999Z</time></trkpt><trkpt lat="44.64519225169163" lon="9.501161340478369"><ele>629.75</ele><time>2026-04-30T08:02:42.999Z</time></trkpt><trkpt lat="44.645124190778965" lon="9.501009222652714"><ele>632.0</ele><time>2026-04-30T08:02:43.999Z</time></trkpt><trkpt lat="44.64503347007512" lon="9.500869605300226"><ele>632.0</ele><time>2026-04-30T08:02:44.999Z</time></trkpt><trkpt lat="44.644978381752715" lon="9.500759615235996"><ele>632.0</ele><time>2026-04-30T08:02:45.999Z</time></trkpt><trkpt lat="44.6448946714857" lon="9.500650086220263"><ele>632.0</ele><time>2026-04-30T08:02:46.999Z</time></trkpt><trkpt lat="44.64478731410559" lon="9.50056379088556"><ele>632.0</ele><time>2026-04-30T08:02:47.999Z</time></trkpt><trkpt lat="44.644679031282905" lon="9.500486531105981"><ele>631.25</ele><time>2026-04-30T08:02:48.999Z</time></trkpt><trkpt lat="44.644573360166724" lon="9.500404499346688"><ele>630.5</ele><time>2026-04-30T08:02:49.999Z</time></trkpt><trkpt lat="44.644465431434064" lon="9.50029923118822"><ele>629.75</ele><time>2026-04-30T08:02:50.999Z</time></trkpt><trkpt lat="44.64435430376127" lon="9.50022603825208"><ele>629.0</ele><time>2026-04-30T08:02:51.999Z</time></trkpt><trkpt lat="44.6442606851032" lon="9.500190107512056"><ele>629.0</ele><time>2026-04-30T08:02:52.999Z</time></trkpt><trkpt lat="44.64415944204704" lon="9.500112302295156"><ele>629.0</ele><time>2026-04-30T08:02:53.999Z</time></trkpt><trkpt lat="44.64405770272277" lon="9.500034306670907"><ele>629.0</ele><time>2026-04-30T08:02:54.999Z</time></trkpt><trkpt lat="44.643955402562305" lon="9.499950064410667"><ele>629.0</ele><time>2026-04-30T08:02:55.999Z</time></trkpt><trkpt lat="44.64386456640963" lon="9.499868350181885"><ele>629.0</ele><time>2026-04-30T08:02:56.999Z</time></trkpt><trkpt lat="44.64378614534819" lon="9.499796957081722"><ele>629.0</ele><time>2026-04-30T08:02:57.999Z</time></trkpt><trkpt lat="44.64372902152625" lon="9.499742342575852"><ele>629.0</ele><time>2026-04-30T08:02:58.999Z</time></trkpt><trkpt lat="44.643677842713466" lon="9.499690469770307"><ele>629.0</ele><time>2026-04-30T08:02:59.999Z</time></trkpt><trkpt lat="44.64361377701699" lon="9.499611552845758"><ele>629.0</ele><time>2026-04-30T08:03:00.999Z</time></trkpt><trkpt lat="44.64356805807686" lon="9.49954694009726"><ele>629.0</ele><time>2026-04-30T08:03:01.999Z</time></trkpt><trkpt lat="44.64350231732484" lon="9.499464990638804"><ele>628.2</ele><time>2026-04-30T08:03:02.999Z</time></trkpt><trkpt lat="44.643510480144265" lon="9.499331142135947"><ele>627.4</ele><time>2026-04-30T08:03:03.999Z</time></trkpt><trkpt lat="44.64351641724593" lon="9.499157254163554"><ele>626.6</ele><time>2026-04-30T08:03:04.999Z</time></trkpt><trkpt lat="44.643562837027865" lon="9.499023999128687"><ele>625.8</ele><time>2026-04-30T08:03:05.999Z</time></trkpt><trkpt lat="44.64360233848541" lon="9.498896512225084"><ele>625.0</ele><time>2026-04-30T08:03:06.999Z</time></trkpt><trkpt lat="44.643665509924105" lon="9.498803721429331"><ele>625.0</ele><time>2026-04-30T08:03:07.999Z</time></trkpt><trkpt lat="44.643718526094474" lon="9.498692109663967"><ele>625.0</ele><time>2026-04-30T08:03:08.999Z</time></trkpt><trkpt lat="44.64376485116646" lon="9.498596167726316"><ele>625.0</ele><time>2026-04-30T08:03:09.999Z</time></trkpt><trkpt lat="44.6438265154155" lon="9.498506587101971"><ele>625.0</ele><time>2026-04-30T08:03:10.999Z</time></trkpt><trkpt lat="44.64386879621157" lon="9.49842575017429"><ele>625.0</ele><time>2026-04-30T08:03:11.999Z</time></trkpt><trkpt lat="44.6439106188186" lon="9.498344956964065"><ele>625.0</ele><time>2026-04-30T08:03:12.999Z</time></trkpt><trkpt lat="44.643938313558316" lon="9.498256961085401"><ele>625.0</ele><time>2026-04-30T08:03:13.999Z</time></trkpt><trkpt lat="44.64400101514404" lon="9.498180456547702"><ele>625.0</ele><time>2026-04-30T08:03:14.999Z</time></trkpt><trkpt lat="44.64406259673751" lon="9.498076380780109"><ele>625.0</ele><time>2026-04-30T08:03:16.999Z</time></trkpt><trkpt lat="44.64403401296903" lon="9.497948338321564"><ele>625.0</ele><time>2026-04-30T08:03:19.999Z</time></trkpt><trkpt lat="44.64397400562989" lon="9.497793981212357"><ele>625.0</ele><time>2026-04-30T08:03:20.999Z</time></trkpt><trkpt lat="44.643889372053394" lon="9.497670538513793"><ele>625.6</ele><time>2026-04-30T08:03:21.999Z</time></trkpt><trkpt lat="44.64382732201011" lon="9.497552438116204"><ele>626.2</ele><time>2026-04-30T08:03:22.999Z</time></trkpt><trkpt lat="44.6437419298014" lon="9.497495243059781"><ele>626.8</ele><time>2026-04-30T08:03:23.999Z</time></trkpt><trkpt lat="44.643669579920925" lon="9.497410404151857"><ele>627.4</ele><time>2026-04-30T08:03:24.999Z</time></trkpt><trkpt lat="44.64360493303702" lon="9.4973143717834"><ele>628.0</ele><time>2026-04-30T08:03:25.999Z</time></trkpt><trkpt lat="44.64354614619861" lon="9.497208157198997"><ele>628.0</ele><time>2026-04-30T08:03:26.999Z</time></trkpt><trkpt lat="44.64345980008132" lon="9.49710418101833"><ele>628.0</ele><time>2026-04-30T08:03:27.999Z</time></trkpt><trkpt lat="44.64336027617064" lon="9.497027533690709"><ele>628.0</ele><time>2026-04-30T08:03:28.999Z</time></trkpt><trkpt lat="44.64326756560344" lon="9.496916941348744"><ele>628.0</ele><time>2026-04-30T08:03:29.999Z</time></trkpt><trkpt lat="44.64315645941928" lon="9.496832276339031"><ele>628.5</ele><time>2026-04-30T08:03:30.999Z</time></trkpt><trkpt lat="44.64304196117706" lon="9.49674344620193"><ele>629.0</ele><time>2026-04-30T08:03:31.999Z</time></trkpt><trkpt lat="44.6429223865445" lon="9.496644911284486"><ele>629.5</ele><time>2026-04-30T08:03:32.999Z</time></trkpt><trkpt lat="44.642804817030814" lon="9.496568048957327"><ele>630.0</ele><time>2026-04-30T08:03:33.999Z</time></trkpt><trkpt lat="44.6426982152711" lon="9.4964347321226"><ele>630.0</ele><time>2026-04-30T08:03:34.999Z</time></trkpt><trkpt lat="44.64260965185398" lon="9.496293408281762"><ele>630.0</ele><time>2026-04-30T08:03:35.999Z</time></trkpt><trkpt lat="44.642504866257376" lon="9.496113972116516"><ele>630.0</ele><time>2026-04-30T08:03:36.999Z</time></trkpt><trkpt lat="44.64238949344021" lon="9.495934535746038"><ele>635.6666666666666</ele><time>2026-04-30T08:03:37.999Z</time></trkpt><trkpt lat="44.642255195169476" lon="9.49578042678929"><ele>641.3333333333333</ele><time>2026-04-30T08:03:38.999Z</time></trkpt><trkpt lat="44.64214194643731" lon="9.495628735705369"><ele>647.0</ele><time>2026-04-30T08:03:39.999Z</time></trkpt><trkpt lat="44.641989303336814" lon="9.495511790723238"><ele>649.3333333333333</ele><time>2026-04-30T08:03:40.999Z</time></trkpt><trkpt lat="44.641834858862204" lon="9.495400590257429"><ele>651.6666666666666</ele><time>2026-04-30T08:03:41.999Z</time></trkpt><trkpt lat="44.64168210493614" lon="9.495271731647037"><ele>654.0</ele><time>2026-04-30T08:03:42.999Z</time></trkpt><trkpt lat="44.64151203697262" lon="9.495131338773222"><ele>654.0</ele><time>2026-04-30T08:03:43.999Z</time></trkpt><trkpt lat="44.641350195590014" lon="9.495023329066479"><ele>654.0</ele><time>2026-04-30T08:03:44.999Z</time></trkpt><trkpt lat="44.641191391756394" lon="9.494893661543557"><ele>654.0</ele><time>2026-04-30T08:03:45.999Z</time></trkpt><trkpt lat="44.641027841611454" lon="9.49478696623426"><ele>656.3333333333334</ele><time>2026-04-30T08:03:46.999Z</time></trkpt><trkpt lat="44.640877305824986" lon="9.49466946071223"><ele>658.6666666666667</ele><time>2026-04-30T08:03:47.999Z</time></trkpt><trkpt lat="44.64073475432269" lon="9.494551075871724"><ele>661.0</ele><time>2026-04-30T08:03:48.999Z</time></trkpt><trkpt lat="44.64055861175926" lon="9.494496574556566"><ele>661.0</ele><time>2026-04-30T08:03:49.999Z</time></trkpt><trkpt lat="44.64041162069155" lon="9.49442995469271"><ele>661.0</ele><time>2026-04-30T08:03:50.999Z</time></trkpt><trkpt lat="44.640238811113385" lon="9.494448030965918"><ele>661.0</ele><time>2026-04-30T08:03:51.999Z</time></trkpt><trkpt lat="44.6400535258365" lon="9.494493475919194"><ele>659.3333333333334</ele><time>2026-04-30T08:03:52.999Z</time></trkpt><trkpt lat="44.63989844723435" lon="9.494568375769305"><ele>657.6666666666666</ele><time>2026-04-30T08:03:53.999Z</time></trkpt><trkpt lat="44.63975230081095" lon="9.494679321573939"><ele>656.0</ele><time>2026-04-30T08:03:54.999Z</time></trkpt><trkpt lat="44.63958340856282" lon="9.494741765091003"><ele>651.6666666666666</ele><time>2026-04-30T08:03:55.999Z</time></trkpt><trkpt lat="44.63943683342438" lon="9.494806258479679"><ele>647.3333333333334</ele><time>2026-04-30T08:03:56.999Z</time></trkpt><trkpt lat="44.63928066844167" lon="9.494862019854766"><ele>643.0</ele><time>2026-04-30T08:03:57.999Z</time></trkpt><trkpt lat="44.639116063858864" lon="9.494917797422787"><ele>643.0</ele><time>2026-04-30T08:03:58.999Z</time></trkpt><trkpt lat="44.63896006483765" lon="9.494960654417454"><ele>643.0</ele><time>2026-04-30T08:03:59.999Z</time></trkpt><trkpt lat="44.63882645804191" lon="9.494983969357621"><ele>643.0</ele><time>2026-04-30T08:04:00.999Z</time></trkpt><trkpt lat="44.63870411516419" lon="9.494974686912935"><ele>643.0</ele><time>2026-04-30T08:04:01.999Z</time></trkpt><trkpt lat="44.63856600081654" lon="9.494929300030975"><ele>645.0</ele><time>2026-04-30T08:04:02.999Z</time></trkpt><trkpt lat="44.6384152052842" lon="9.49486194979358"><ele>647.0</ele><time>2026-04-30T08:04:03.999Z</time></trkpt><trkpt lat="44.63824848376872" lon="9.494783400977157"><ele>649.0</ele><time>2026-04-30T08:04:04.999Z</time></trkpt><trkpt lat="44.63809278134701" lon="9.494710461382635"><ele>649.0</ele><time>2026-04-30T08:04:05.999Z</time></trkpt><trkpt lat="44.63790177382132" lon="9.494618470906103"><ele>649.0</ele><time>2026-04-30T08:04:06.999Z</time></trkpt><trkpt lat="44.63776316630704" lon="9.494549881711626"><ele>649.0</ele><time>2026-04-30T08:04:07.999Z</time></trkpt><trkpt lat="44.63766157226191" lon="9.494495247124737"><ele>651.0</ele><time>2026-04-30T08:04:08.999Z</time></trkpt><trkpt lat="44.63758348552701" lon="9.494437585067777"><ele>653.0</ele><time>2026-04-30T08:04:09.999Z</time></trkpt><trkpt lat="44.63750430864414" lon="9.494364870957426"><ele>655.0</ele><time>2026-04-30T08:04:10.999Z</time></trkpt><trkpt lat="44.63741091064142" lon="9.494262881864072"><ele>657.0</ele><time>2026-04-30T08:04:11.999Z</time></trkpt><trkpt lat="44.63730167228062" lon="9.494123537496064"><ele>659.0</ele><time>2026-04-30T08:04:12.999Z</time></trkpt><trkpt lat="44.6371871033639" lon="9.493993331473806"><ele>659.0</ele><time>2026-04-30T08:04:13.999Z</time></trkpt><trkpt lat="44.63706987700958" lon="9.493862797179354"><ele>659.0</ele><time>2026-04-30T08:04:14.999Z</time></trkpt><trkpt lat="44.63695096294797" lon="9.49374046083968"><ele>659.0</ele><time>2026-04-30T08:04:15.999Z</time></trkpt><trkpt lat="44.63683075392345" lon="9.493637768777376"><ele>659.0</ele><time>2026-04-30T08:04:16.999Z</time></trkpt><trkpt lat="44.636678656237486" lon="9.493564181865635"><ele>664.3333333333333</ele><time>2026-04-30T08:04:17.999Z</time></trkpt><trkpt lat="44.63654531875397" lon="9.49351777869654"><ele>669.6666666666666</ele><time>2026-04-30T08:04:18.999Z</time></trkpt><trkpt lat="44.636379291207334" lon="9.493516419302441"><ele>675.0</ele><time>2026-04-30T08:04:19.999Z</time></trkpt><trkpt lat="44.63619542157197" lon="9.493516862492683"><ele>675.5</ele><time>2026-04-30T08:04:20.999Z</time></trkpt><trkpt lat="44.63603533048989" lon="9.493566110444789"><ele>676.0</ele><time>2026-04-30T08:04:21.999Z</time></trkpt><trkpt lat="44.63590949264904" lon="9.493663682900145"><ele>676.5</ele><time>2026-04-30T08:04:22.999Z</time></trkpt><trkpt lat="44.63579129216464" lon="9.49374384194514"><ele>677.0</ele><time>2026-04-30T08:04:23.999Z</time></trkpt><trkpt lat="44.63568536256511" lon="9.493770003757396"><ele>677.0</ele><time>2026-04-30T08:04:24.999Z</time></trkpt><trkpt lat="44.63561537888948" lon="9.493742225866002"><ele>677.0</ele><time>2026-04-30T08:04:25.999Z</time></trkpt><trkpt lat="44.635540675082815" lon="9.493682027031795"><ele>677.0</ele><time>2026-04-30T08:04:26.999Z</time></trkpt><trkpt lat="44.63544700604855" lon="9.493588410775796"><ele>677.0</ele><time>2026-04-30T08:04:27.999Z</time></trkpt><trkpt lat="44.635327908445205" lon="9.493456640515245"><ele>677.0</ele><time>2026-04-30T08:04:28.999Z</time></trkpt><trkpt lat="44.63518440708184" lon="9.493350050117552"><ele>676.5</ele><time>2026-04-30T08:04:29.999Z</time></trkpt><trkpt lat="44.63501926051472" lon="9.49333924450022"><ele>676.0</ele><time>2026-04-30T08:04:30.999Z</time></trkpt><trkpt lat="44.63488812114611" lon="9.49335265596684"><ele>675.5</ele><time>2026-04-30T08:04:31.999Z</time></trkpt><trkpt lat="44.63474132347078" lon="9.493352992120476"><ele>675.0</ele><time>2026-04-30T08:04:32.999Z</time></trkpt><trkpt lat="44.63460761228794" lon="9.49336792797228"><ele>675.0</ele><time>2026-04-30T08:04:33.999Z</time></trkpt><trkpt lat="44.634499638162424" lon="9.493379429802633"><ele>675.0</ele><time>2026-04-30T08:04:34.999Z</time></trkpt><trkpt lat="44.634387436863214" lon="9.493380876750603"><ele>675.0</ele><time>2026-04-30T08:04:35.999Z</time></trkpt><trkpt lat="44.634288763590106" lon="9.493445647007595"><ele>675.0</ele><time>2026-04-30T08:04:36.999Z</time></trkpt><trkpt lat="44.634191148284756" lon="9.493483878097253"><ele>675.0</ele><time>2026-04-30T08:04:37.999Z</time></trkpt><trkpt lat="44.63409556033597" lon="9.493567760947048"><ele>675.5</ele><time>2026-04-30T08:04:38.999Z</time></trkpt><trkpt lat="44.63401995364043" lon="9.493677407449567"><ele>676.0</ele><time>2026-04-30T08:04:39.999Z</time></trkpt><trkpt lat="44.633982525915116" lon="9.493773901152192"><ele>676.5</ele><time>2026-04-30T08:04:40.999Z</time></trkpt><trkpt lat="44.63397100286461" lon="9.493900669158245"><ele>677.0</ele><time>2026-04-30T08:04:41.999Z</time></trkpt><trkpt lat="44.633947202983144" lon="9.493998554656894"><ele>677.5</ele><time>2026-04-30T08:04:42.999Z</time></trkpt><trkpt lat="44.63390700628971" lon="9.494086680465857"><ele>678.0</ele><time>2026-04-30T08:04:43.999Z</time></trkpt><trkpt lat="44.63385039014811" lon="9.494176334201407"><ele>678.0</ele><time>2026-04-30T08:04:44.999Z</time></trkpt><trkpt lat="44.63377808937584" lon="9.494286366677112"><ele>678.0</ele><time>2026-04-30T08:04:45.999Z</time></trkpt><trkpt lat="44.63369086123979" lon="9.49439006050396"><ele>678.0</ele><time>2026-04-30T08:04:46.999Z</time></trkpt><trkpt lat="44.633600360384214" lon="9.494509529562368"><ele>678.0</ele><time>2026-04-30T08:04:47.999Z</time></trkpt><trkpt lat="44.63349778196097" lon="9.494644942063935"><ele>679.5</ele><time>2026-04-30T08:04:48.999Z</time></trkpt><trkpt lat="44.63339540401269" lon="9.494780089918555"><ele>681.0</ele><time>2026-04-30T08:04:49.999Z</time></trkpt><trkpt lat="44.63329862539761" lon="9.49490784616321"><ele>682.5</ele><time>2026-04-30T08:04:50.999Z</time></trkpt><trkpt lat="44.63319896030265" lon="9.49503922671732"><ele>684.0</ele><time>2026-04-30T08:04:51.999Z</time></trkpt><trkpt lat="44.63311040473137" lon="9.49514008557615"><ele>684.0</ele><time>2026-04-30T08:04:52.999Z</time></trkpt><trkpt lat="44.63301697822448" lon="9.495214121744485"><ele>684.0</ele><time>2026-04-30T08:04:53.999Z</time></trkpt><trkpt lat="44.63291972693788" lon="9.495263678591195"><ele>684.0</ele><time>2026-04-30T08:04:54.999Z</time></trkpt><trkpt lat="44.63283867215001" lon="9.495266401750255"><ele>684.0</ele><time>2026-04-30T08:04:55.999Z</time></trkpt><trkpt lat="44.63273351944215" lon="9.495211772906627"><ele>684.0</ele><time>2026-04-30T08:04:56.999Z</time></trkpt><trkpt lat="44.63267154058045" lon="9.495087057024575"><ele>684.0</ele><time>2026-04-30T08:04:57.999Z</time></trkpt><trkpt lat="44.63263845629833" lon="9.494924407350457"><ele>684.0</ele><time>2026-04-30T08:04:58.999Z</time></trkpt><trkpt lat="44.63261454733152" lon="9.494696899110012"><ele>684.0</ele><time>2026-04-30T08:04:59.999Z</time></trkpt><trkpt lat="44.6325578111134" lon="9.494499483762468"><ele>684.0</ele><time>2026-04-30T08:05:00.999Z</time></trkpt><trkpt lat="44.63254921111942" lon="9.494316237809072"><ele>687.0</ele><time>2026-04-30T08:05:01.999Z</time></trkpt><trkpt lat="44.63248837051867" lon="9.494153517680514"><ele>690.0</ele><time>2026-04-30T08:05:02.998Z</time></trkpt><trkpt lat="44.632419669040345" lon="9.494023944987132"><ele>693.0</ele><time>2026-04-30T08:05:03.998Z</time></trkpt><trkpt lat="44.63235109309248" lon="9.493921194757357"><ele>696.0</ele><time>2026-04-30T08:05:04.998Z</time></trkpt><trkpt lat="44.63227166357884" lon="9.493813353078691"><ele>698.0</ele><time>2026-04-30T08:05:05.998Z</time></trkpt><trkpt lat="44.63218850925654" lon="9.493698006115537"><ele>700.0</ele><time>2026-04-30T08:05:06.998Z</time></trkpt><trkpt lat="44.6320941557684" lon="9.493587196478337"><ele>702.0</ele><time>2026-04-30T08:05:07.998Z</time></trkpt><trkpt lat="44.631985103907496" lon="9.493500215962625"><ele>704.0</ele><time>2026-04-30T08:05:08.998Z</time></trkpt><trkpt lat="44.63187984848526" lon="9.493415819772451"><ele>704.0</ele><time>2026-04-30T08:05:09.998Z</time></trkpt><trkpt lat="44.631757021386875" lon="9.493299804908686"><ele>704.0</ele><time>2026-04-30T08:05:10.998Z</time></trkpt><trkpt lat="44.63163946702992" lon="9.49325159249857"><ele>704.0</ele><time>2026-04-30T08:05:11.998Z</time></trkpt><trkpt lat="44.631541142072614" lon="9.493164783084"><ele>704.0</ele><time>2026-04-30T08:05:12.998Z</time></trkpt><trkpt lat="44.631464268299965" lon="9.49303189403497"><ele>705.8000000000001</ele><time>2026-04-30T08:05:13.998Z</time></trkpt><trkpt lat="44.63143360057765" lon="9.492912842844834"><ele>707.6</ele><time>2026-04-30T08:05:14.998Z</time></trkpt><trkpt lat="44.631386776414146" lon="9.492780831343625"><ele>709.4</ele><time>2026-04-30T08:05:15.998Z</time></trkpt><trkpt lat="44.631294845336065" lon="9.49266491617485"><ele>711.2</ele><time>2026-04-30T08:05:16.998Z</time></trkpt><trkpt lat="44.63118873375103" lon="9.492598771748174"><ele>713.0</ele><time>2026-04-30T08:05:17.998Z</time></trkpt><trkpt lat="44.63106635225062" lon="9.492560805237156"><ele>713.0</ele><time>2026-04-30T08:05:18.998Z</time></trkpt><trkpt lat="44.630946791685574" lon="9.49256083050357"><ele>713.0</ele><time>2026-04-30T08:05:19.998Z</time></trkpt><trkpt lat="44.63081822891999" lon="9.492562658791915"><ele>713.0</ele><time>2026-04-30T08:05:20.998Z</time></trkpt><trkpt lat="44.6306708896363" lon="9.49257503894382"><ele>713.0</ele><time>2026-04-30T08:05:21.998Z</time></trkpt><trkpt lat="44.63053571180852" lon="9.49257116186303"><ele>713.0</ele><time>2026-04-30T08:05:22.998Z</time></trkpt><trkpt lat="44.630398500253996" lon="9.49258501080852"><ele>713.0</ele><time>2026-04-30T08:05:23.998Z</time></trkpt><trkpt lat="44.63026326598005" lon="9.49259844974586"><ele>713.0</ele><time>2026-04-30T08:05:24.998Z</time></trkpt><trkpt lat="44.63016146606089" lon="9.492569478818414"><ele>713.0</ele><time>2026-04-30T08:05:25.998Z</time></trkpt><trkpt lat="44.63006322557927" lon="9.492520445894293"><ele>713.25</ele><time>2026-04-30T08:05:26.998Z</time></trkpt><trkpt lat="44.629975245248225" lon="9.492472748963937"><ele>713.5</ele><time>2026-04-30T08:05:27.998Z</time></trkpt><trkpt lat="44.629840049334554" lon="9.492406199934974"><ele>713.75</ele><time>2026-04-30T08:05:28.998Z</time></trkpt><trkpt lat="44.629723223669615" lon="9.492363656382851"><ele>714.0</ele><time>2026-04-30T08:05:29.998Z</time></trkpt><trkpt lat="44.62960010103527" lon="9.492296548778949"><ele>714.0</ele><time>2026-04-30T08:05:30.998Z</time></trkpt><trkpt lat="44.629469980517726" lon="9.492227367972408"><ele>714.0</ele><time>2026-04-30T08:05:31.998Z</time></trkpt><trkpt lat="44.62934573172208" lon="9.492157830810005"><ele>714.0</ele><time>2026-04-30T08:05:32.998Z</time></trkpt><trkpt lat="44.62922493909513" lon="9.492079721125723"><ele>714.0</ele><time>2026-04-30T08:05:33.998Z</time></trkpt><trkpt lat="44.62913371902561" lon="9.492061433074745"><ele>714.0</ele><time>2026-04-30T08:05:34.998Z</time></trkpt><trkpt lat="44.629034390928844" lon="9.492077435249666"><ele>714.0</ele><time>2026-04-30T08:05:35.998Z</time></trkpt><trkpt lat="44.628914320813635" lon="9.492086350628885"><ele>714.0</ele><time>2026-04-30T08:05:36.998Z</time></trkpt><trkpt lat="44.62883891397875" lon="9.492230700003999"><ele>714.0</ele><time>2026-04-30T08:05:37.998Z</time></trkpt><trkpt lat="44.62877300541832" lon="9.492406044628538"><ele>714.0</ele><time>2026-04-30T08:05:38.998Z</time></trkpt><trkpt lat="44.62873179535898" lon="9.49258962933768"><ele>714.0</ele><time>2026-04-30T08:05:39.998Z</time></trkpt><trkpt lat="44.62862740061211" lon="9.492725401093855"><ele>714.0</ele><time>2026-04-30T08:05:40.998Z</time></trkpt><trkpt lat="44.62852437205357" lon="9.492849246826873"><ele>714.0</ele><time>2026-04-30T08:05:41.998Z</time></trkpt><trkpt lat="44.628415191312094" lon="9.492952656652344"><ele>715.0</ele><time>2026-04-30T08:05:42.998Z</time></trkpt><trkpt lat="44.628313591641856" lon="9.493028946007266"><ele>716.0</ele><time>2026-04-30T08:05:43.998Z</time></trkpt><trkpt lat="44.62823938614106" lon="9.49314173627084"><ele>717.0</ele><time>2026-04-30T08:05:44.998Z</time></trkpt><trkpt lat="44.62815754831861" lon="9.49325301650107"><ele>718.0</ele><time>2026-04-30T08:05:45.998Z</time></trkpt><trkpt lat="44.62810905288976" lon="9.493358166417881"><ele>719.0</ele><time>2026-04-30T08:05:46.998Z</time></trkpt><trkpt lat="44.62804156270387" lon="9.49344649168316"><ele>719.0</ele><time>2026-04-30T08:05:47.998Z</time></trkpt><trkpt lat="44.62794696521363" lon="9.493520588754636"><ele>719.0</ele><time>2026-04-30T08:05:48.998Z</time></trkpt><trkpt lat="44.62784298872639" lon="9.493582642098927"><ele>719.0</ele><time>2026-04-30T08:05:49.998Z</time></trkpt><trkpt lat="44.627718987593724" lon="9.493621531954942"><ele>719.0</ele><time>2026-04-30T08:05:50.998Z</time></trkpt><trkpt lat="44.62760009275004" lon="9.493671604733677"><ele>719.25</ele><time>2026-04-30T08:05:51.998Z</time></trkpt><trkpt lat="44.627490565208944" lon="9.493714019197071"><ele>719.5</ele><time>2026-04-30T08:05:52.998Z</time></trkpt><trkpt lat="44.62737478520958" lon="9.493760242492733"><ele>719.75</ele><time>2026-04-30T08:05:53.998Z</time></trkpt><trkpt lat="44.62727700517416" lon="9.493855561826395"><ele>720.0</ele><time>2026-04-30T08:05:54.998Z</time></trkpt><trkpt lat="44.6272305208713" lon="9.493979779691074"><ele>720.0</ele><time>2026-04-30T08:05:55.998Z</time></trkpt><trkpt lat="44.62715984089741" lon="9.494084782515948"><ele>720.0</ele><time>2026-04-30T08:05:56.998Z</time></trkpt><trkpt lat="44.62709664478632" lon="9.494185953295156"><ele>720.0</ele><time>2026-04-30T08:05:57.998Z</time></trkpt><trkpt lat="44.62700797100881" lon="9.494198592448432"><ele>720.0</ele><time>2026-04-30T08:05:58.998Z</time></trkpt><trkpt lat="44.62692629436331" lon="9.49418065814307"><ele>720.0</ele><time>2026-04-30T08:05:59.998Z</time></trkpt><trkpt lat="44.626838665043095" lon="9.494105668819639"><ele>723.75</ele><time>2026-04-30T08:06:00.998Z</time></trkpt><trkpt lat="44.62673441592779" lon="9.494005780286681"><ele>727.5</ele><time>2026-04-30T08:06:01.998Z</time></trkpt><trkpt lat="44.62660775438059" lon="9.493919605891255"><ele>731.25</ele><time>2026-04-30T08:06:02.998Z</time></trkpt><trkpt lat="44.62647779982666" lon="9.493920883178966"><ele>735.0</ele><time>2026-04-30T08:06:03.998Z</time></trkpt><trkpt lat="44.62635907841831" lon="9.493921884517961"><ele>735.0</ele><time>2026-04-30T08:06:04.998Z</time></trkpt><trkpt lat="44.62626374791998" lon="9.493874898457019"><ele>735.0</ele><time>2026-04-30T08:06:05.998Z</time></trkpt><trkpt lat="44.62620262668853" lon="9.493805687336085"><ele>735.0</ele><time>2026-04-30T08:06:06.998Z</time></trkpt><trkpt lat="44.626160916131724" lon="9.493690321174643"><ele>735.0</ele><time>2026-04-30T08:06:07.998Z</time></trkpt><trkpt lat="44.62614946085694" lon="9.493564900009485"><ele>735.0</ele><time>2026-04-30T08:06:08.998Z</time></trkpt><trkpt lat="44.62614892393899" lon="9.4934247024909"><ele>737.0</ele><time>2026-04-30T08:06:09.998Z</time></trkpt><trkpt lat="44.62614913755761" lon="9.493245674888563"><ele>739.0</ele><time>2026-04-30T08:06:10.998Z</time></trkpt><trkpt lat="44.62614693504406" lon="9.493056124786696"><ele>741.0</ele><time>2026-04-30T08:06:11.998Z</time></trkpt><trkpt lat="44.62614366939274" lon="9.492864839220129"><ele>743.0</ele><time>2026-04-30T08:06:12.998Z</time></trkpt><trkpt lat="44.626137528349666" lon="9.492701161355457"><ele>743.0</ele><time>2026-04-30T08:06:13.998Z</time></trkpt><trkpt lat="44.626123668659325" lon="9.492532311099827"><ele>743.0</ele><time>2026-04-30T08:06:14.998Z</time></trkpt><trkpt lat="44.62608539806907" lon="9.49236836421235"><ele>743.0</ele><time>2026-04-30T08:06:15.998Z</time></trkpt><trkpt lat="44.626007938840615" lon="9.49223483461116"><ele>743.0</ele><time>2026-04-30T08:06:16.998Z</time></trkpt><trkpt lat="44.625957023331765" lon="9.492098558386525"><ele>747.0</ele><time>2026-04-30T08:06:17.998Z</time></trkpt><trkpt lat="44.62589450222431" lon="9.491944493629623"><ele>751.0</ele><time>2026-04-30T08:06:18.998Z</time></trkpt><trkpt lat="44.62587621577013" lon="9.491763408305198"><ele>755.0</ele><time>2026-04-30T08:06:19.998Z</time></trkpt><trkpt lat="44.62587155385589" lon="9.491615038401013"><ele>759.0</ele><time>2026-04-30T08:06:20.998Z</time></trkpt><trkpt lat="44.62586006142282" lon="9.491446761436379"><ele>759.0</ele><time>2026-04-30T08:06:21.998Z</time></trkpt><trkpt lat="44.62583383400143" lon="9.49127120872729"><ele>759.0</ele><time>2026-04-30T08:06:22.998Z</time></trkpt><trkpt lat="44.62577697999146" lon="9.491130891891196"><ele>759.0</ele><time>2026-04-30T08:06:23.998Z</time></trkpt><trkpt lat="44.62568461694154" lon="9.491038811472471"><ele>759.0</ele><time>2026-04-30T08:06:24.998Z</time></trkpt><trkpt lat="44.6255936498247" lon="9.49098496334595"><ele>759.0</ele><time>2026-04-30T08:06:25.998Z</time></trkpt><trkpt lat="44.62549739896375" lon="9.490987724751584"><ele>759.0</ele><time>2026-04-30T08:06:26.998Z</time></trkpt><trkpt lat="44.625401990708305" lon="9.49103632884053"><ele>759.0</ele><time>2026-04-30T08:06:27.998Z</time></trkpt><trkpt lat="44.62531976672038" lon="9.491136011390655"><ele>759.0</ele><time>2026-04-30T08:06:28.998Z</time></trkpt><trkpt lat="44.625275005103255" lon="9.491275950595657"><ele>759.0</ele><time>2026-04-30T08:06:29.998Z</time></trkpt><trkpt lat="44.62525864633281" lon="9.491427608611124"><ele>759.0</ele><time>2026-04-30T08:06:30.998Z</time></trkpt><trkpt lat="44.62525942424788" lon="9.491575997909546"><ele>759.0</ele><time>2026-04-30T08:06:31.998Z</time></trkpt><trkpt lat="44.62524863002161" lon="9.491717006359051"><ele>759.0</ele><time>2026-04-30T08:06:32.998Z</time></trkpt><trkpt lat="44.625210464262416" lon="9.49184573925093"><ele>759.0</ele><time>2026-04-30T08:06:33.998Z</time></trkpt><trkpt lat="44.625118266761085" lon="9.491903035273458"><ele>759.0</ele><time>2026-04-30T08:06:34.998Z</time></trkpt><trkpt lat="44.625003628979144" lon="9.491952992196369"><ele>759.0</ele><time>2026-04-30T08:06:35.998Z</time></trkpt><trkpt lat="44.624879368564045" lon="9.491965049878173"><ele>759.0</ele><time>2026-04-30T08:06:36.998Z</time></trkpt><trkpt lat="44.62474650485571" lon="9.49195915435815"><ele>759.0</ele><time>2026-04-30T08:06:37.998Z</time></trkpt><trkpt lat="44.624602413841245" lon="9.491963681446345"><ele>759.0</ele><time>2026-04-30T08:06:38.998Z</time></trkpt><trkpt lat="44.62445308953162" lon="9.49194343882867"><ele>761.0</ele><time>2026-04-30T08:06:39.998Z</time></trkpt><trkpt lat="44.62430063156115" lon="9.491938214505625"><ele>763.0</ele><time>2026-04-30T08:06:40.998Z</time></trkpt><trkpt lat="44.62414287412718" lon="9.491944855820632"><ele>765.0</ele><time>2026-04-30T08:06:41.998Z</time></trkpt><trkpt lat="44.62398395346007" lon="9.491938353841842"><ele>765.0</ele><time>2026-04-30T08:06:42.998Z</time></trkpt><trkpt lat="44.62382199037758" lon="9.491915606020514"><ele>765.0</ele><time>2026-04-30T08:06:43.998Z</time></trkpt><trkpt lat="44.623664298463126" lon="9.491907707269986"><ele>765.0</ele><time>2026-04-30T08:06:44.998Z</time></trkpt><trkpt lat="44.623502919097504" lon="9.491898051496948"><ele>765.0</ele><time>2026-04-30T08:06:45.998Z</time></trkpt><trkpt lat="44.62335294422961" lon="9.491889813885972"><ele>765.0</ele><time>2026-04-30T08:06:46.998Z</time></trkpt><trkpt lat="44.62323827171743" lon="9.491850421198428"><ele>765.0</ele><time>2026-04-30T08:06:47.998Z</time></trkpt><trkpt lat="44.62313676429173" lon="9.491779282003488"><ele>765.0</ele><time>2026-04-30T08:06:48.998Z</time></trkpt><trkpt lat="44.62304882233908" lon="9.491691073686443"><ele>765.0</ele><time>2026-04-30T08:06:49.998Z</time></trkpt><trkpt lat="44.62295431709208" lon="9.491576030072842"><ele>765.0</ele><time>2026-04-30T08:06:50.998Z</time></trkpt><trkpt lat="44.62284675156643" lon="9.491449164551726"><ele>765.0</ele><time>2026-04-30T08:06:51.998Z</time></trkpt><trkpt lat="44.622731061541735" lon="9.491317575735705"><ele>765.0</ele><time>2026-04-30T08:06:52.998Z</time></trkpt><trkpt lat="44.62261869951015" lon="9.4911824847097"><ele>769.3333333333333</ele><time>2026-04-30T08:06:53.998Z</time></trkpt><trkpt lat="44.62250331769672" lon="9.491052027871989"><ele>773.6666666666666</ele><time>2026-04-30T08:06:54.998Z</time></trkpt><trkpt lat="44.62237232566093" lon="9.490913929909789"><ele>778.0</ele><time>2026-04-30T08:06:55.998Z</time></trkpt><trkpt lat="44.62223309738417" lon="9.490822727153931"><ele>778.0</ele><time>2026-04-30T08:06:56.998Z</time></trkpt><trkpt lat="44.622093184246474" lon="9.490721127126836"><ele>778.0</ele><time>2026-04-30T08:06:57.998Z</time></trkpt><trkpt lat="44.62196741406631" lon="9.490604469552284"><ele>778.0</ele><time>2026-04-30T08:06:58.998Z</time></trkpt><trkpt lat="44.621857717728986" lon="9.49047278364574"><ele>779.25</ele><time>2026-04-30T08:06:59.998Z</time></trkpt><trkpt lat="44.621757225310084" lon="9.490318021746381"><ele>780.5</ele><time>2026-04-30T08:07:00.998Z</time></trkpt><trkpt lat="44.62165821143463" lon="9.490178480084625"><ele>781.75</ele><time>2026-04-30T08:07:01.998Z</time></trkpt><trkpt lat="44.621571516827046" lon="9.490069190198424"><ele>783.0</ele><time>2026-04-30T08:07:02.998Z</time></trkpt><trkpt lat="44.62150055224123" lon="9.489939608926255"><ele>783.0</ele><time>2026-04-30T08:07:03.998Z</time></trkpt><trkpt lat="44.62140633624596" lon="9.489892866581211"><ele>783.0</ele><time>2026-04-30T08:07:04.998Z</time></trkpt><trkpt lat="44.621280093255166" lon="9.489861491695914"><ele>783.0</ele><time>2026-04-30T08:07:05.998Z</time></trkpt><trkpt lat="44.621127673679126" lon="9.489897380959109"><ele>783.0</ele><time>2026-04-30T08:07:06.998Z</time></trkpt><trkpt lat="44.62097126059983" lon="9.489948420845248"><ele>784.0</ele><time>2026-04-30T08:07:07.998Z</time></trkpt><trkpt lat="44.62081815845184" lon="9.490003997544987"><ele>785.0</ele><time>2026-04-30T08:07:08.998Z</time></trkpt><trkpt lat="44.6206541955418" lon="9.490027244300219"><ele>786.0</ele><time>2026-04-30T08:07:09.998Z</time></trkpt><trkpt lat="44.620492585183065" lon="9.490024978641326"><ele>786.6666666666667</ele><time>2026-04-30T08:07:10.998Z</time></trkpt><trkpt lat="44.620309319721585" lon="9.489960080644526"><ele>787.3333333333334</ele><time>2026-04-30T08:07:11.998Z</time></trkpt><trkpt lat="44.620128463832415" lon="9.489953808560331"><ele>788.0</ele><time>2026-04-30T08:07:12.998Z</time></trkpt><trkpt lat="44.619994719188746" lon="9.48991552872464"><ele>788.0</ele><time>2026-04-30T08:07:13.998Z</time></trkpt><trkpt lat="44.6198214769481" lon="9.489899045010281"><ele>788.0</ele><time>2026-04-30T08:07:14.998Z</time></trkpt><trkpt lat="44.6196625422898" lon="9.489862212792783"><ele>788.0</ele><time>2026-04-30T08:07:15.998Z</time></trkpt><trkpt lat="44.619512716665106" lon="9.489813995766927"><ele>789.5</ele><time>2026-04-30T08:07:16.998Z</time></trkpt><trkpt lat="44.61936723280664" lon="9.489788767414053"><ele>791.0</ele><time>2026-04-30T08:07:17.998Z</time></trkpt><trkpt lat="44.619226180528436" lon="9.489792505485267"><ele>792.5</ele><time>2026-04-30T08:07:18.998Z</time></trkpt><trkpt lat="44.619101053439984" lon="9.489776905148176"><ele>794.0</ele><time>2026-04-30T08:07:19.998Z</time></trkpt><trkpt lat="44.61895103782445" lon="9.48980361351998"><ele>794.0</ele><time>2026-04-30T08:07:20.998Z</time></trkpt><trkpt lat="44.61879745127931" lon="9.489908855005291"><ele>794.0</ele><time>2026-04-30T08:07:21.998Z</time></trkpt><trkpt lat="44.61862568253169" lon="9.489966334733133"><ele>794.0</ele><time>2026-04-30T08:07:22.998Z</time></trkpt><trkpt lat="44.61845384018885" lon="9.490016280789668"><ele>798.0</ele><time>2026-04-30T08:07:23.998Z</time></trkpt><trkpt lat="44.6182879659302" lon="9.490128366053714"><ele>802.0</ele><time>2026-04-30T08:07:24.998Z</time></trkpt><trkpt lat="44.618145725670935" lon="9.490219583454875"><ele>806.0</ele><time>2026-04-30T08:07:25.998Z</time></trkpt><trkpt lat="44.61801755712933" lon="9.490233486895102"><ele>806.0</ele><time>2026-04-30T08:07:26.998Z</time></trkpt><trkpt lat="44.61791437426546" lon="9.49025227567358"><ele>806.0</ele><time>2026-04-30T08:07:27.997Z</time></trkpt><trkpt lat="44.61783026647794" lon="9.490243684231768"><ele>806.0</ele><time>2026-04-30T08:07:28.997Z</time></trkpt><trkpt lat="44.61771672332483" lon="9.490197362741386"><ele>806.0</ele><time>2026-04-30T08:07:29.997Z</time></trkpt><trkpt lat="44.617628476881144" lon="9.490137167460093"><ele>806.0</ele><time>2026-04-30T08:07:30.997Z</time></trkpt><trkpt lat="44.61754306899805" lon="9.490022926420533"><ele>806.25</ele><time>2026-04-30T08:07:31.997Z</time></trkpt><trkpt lat="44.6174714185222" lon="9.48987421813986"><ele>806.5</ele><time>2026-04-30T08:07:32.997Z</time></trkpt><trkpt lat="44.61743398197197" lon="9.489718155636671"><ele>806.75</ele><time>2026-04-30T08:07:33.997Z</time></trkpt><trkpt lat="44.617428135993045" lon="9.489559298630363"><ele>807.0</ele><time>2026-04-30T08:07:34.997Z</time></trkpt><trkpt lat="44.617470029776065" lon="9.489333968183793"><ele>807.0</ele><time>2026-04-30T08:07:35.997Z</time></trkpt><trkpt lat="44.61752062177531" lon="9.489138200343882"><ele>807.0</ele><time>2026-04-30T08:07:36.997Z</time></trkpt><trkpt lat="44.617573371929964" lon="9.488944311533276"><ele>807.0</ele><time>2026-04-30T08:07:37.997Z</time></trkpt><trkpt lat="44.61763142601139" lon="9.48875771699248"><ele>807.0</ele><time>2026-04-30T08:07:38.997Z</time></trkpt><trkpt lat="44.61767552698189" lon="9.488563697094259"><ele>809.25</ele><time>2026-04-30T08:07:39.997Z</time></trkpt><trkpt lat="44.617670339557236" lon="9.488355226283664"><ele>811.5</ele><time>2026-04-30T08:07:40.997Z</time></trkpt><trkpt lat="44.617617993953395" lon="9.488200570552348"><ele>813.75</ele><time>2026-04-30T08:07:41.997Z</time></trkpt><trkpt lat="44.61751372999901" lon="9.488081113162611"><ele>816.0</ele><time>2026-04-30T08:07:43Z</time></trkpt><trkpt lat="44.617398694813446" lon="9.487980132751854"><ele>819.0</ele><time>2026-04-30T08:07:44Z</time></trkpt><trkpt lat="44.6172853275341" lon="9.487871874332921"><ele>822.0</ele><time>2026-04-30T08:07:45Z</time></trkpt><trkpt lat="44.61716530667573" lon="9.487742028887055"><ele>825.0</ele><time>2026-04-30T08:07:46Z</time></trkpt><trkpt lat="44.61707754446217" lon="9.487595818726472"><ele>828.0</ele><time>2026-04-30T08:07:47Z</time></trkpt><trkpt lat="44.61700732638137" lon="9.487461839583721"><ele>826.0</ele><time>2026-04-30T08:07:48Z</time></trkpt><trkpt lat="44.61694574965302" lon="9.487304147161685"><ele>824.0</ele><time>2026-04-30T08:07:49Z</time></trkpt><trkpt lat="44.616877877473556" lon="9.487131012812563"><ele>822.0</ele><time>2026-04-30T08:07:50Z</time></trkpt><trkpt lat="44.616833134765855" lon="9.486911215574217"><ele>820.0</ele><time>2026-04-30T08:07:51Z</time></trkpt><trkpt lat="44.61675318793744" lon="9.48670048491051"><ele>820.0</ele><time>2026-04-30T08:07:52Z</time></trkpt><trkpt lat="44.61665961657755" lon="9.486522629050413"><ele>820.0</ele><time>2026-04-30T08:07:53Z</time></trkpt><trkpt lat="44.616517393573716" lon="9.486341580298653"><ele>820.0</ele><time>2026-04-30T08:07:54Z</time></trkpt><trkpt lat="44.61638628172474" lon="9.486174740852164"><ele>820.0</ele><time>2026-04-30T08:07:55Z</time></trkpt><trkpt lat="44.61624295193486" lon="9.486027616963412"><ele>820.0</ele><time>2026-04-30T08:07:56Z</time></trkpt><trkpt lat="44.61611710334521" lon="9.485888629370038"><ele>820.0</ele><time>2026-04-30T08:07:57Z</time></trkpt><trkpt lat="44.61600331554023" lon="9.485748097302555"><ele>820.0</ele><time>2026-04-30T08:07:58Z</time></trkpt><trkpt lat="44.615869561565496" lon="9.485616616558728"><ele>820.0</ele><time>2026-04-30T08:07:59Z</time></trkpt><trkpt lat="44.61572905119103" lon="9.485482298380129"><ele>820.0</ele><time>2026-04-30T08:08:00Z</time></trkpt><trkpt lat="44.61561292785222" lon="9.485390238402717"><ele>822.0</ele><time>2026-04-30T08:08:01Z</time></trkpt><trkpt lat="44.615476458990564" lon="9.485293164857238"><ele>824.0</ele><time>2026-04-30T08:08:02Z</time></trkpt><trkpt lat="44.61530612548364" lon="9.485256522565077"><ele>826.0</ele><time>2026-04-30T08:08:03Z</time></trkpt><trkpt lat="44.61516063258527" lon="9.485188072511079"><ele>826.0</ele><time>2026-04-30T08:08:04Z</time></trkpt><trkpt lat="44.61506522217308" lon="9.48509661654998"><ele>826.0</ele><time>2026-04-30T08:08:05Z</time></trkpt><trkpt lat="44.61496455597756" lon="9.484956397307922"><ele>826.0</ele><time>2026-04-30T08:08:06Z</time></trkpt><trkpt lat="44.61490645512888" lon="9.484749241981643"><ele>826.0</ele><time>2026-04-30T08:08:07Z</time></trkpt><trkpt lat="44.614824584524925" lon="9.48456003863042"><ele>827.5</ele><time>2026-04-30T08:08:08Z</time></trkpt><trkpt lat="44.61475545218421" lon="9.48439104949715"><ele>829.0</ele><time>2026-04-30T08:08:09Z</time></trkpt><trkpt lat="44.61464825820742" lon="9.484272905676374"><ele>830.5</ele><time>2026-04-30T08:08:10Z</time></trkpt><trkpt lat="44.614527892942355" lon="9.484168123783832"><ele>832.0</ele><time>2026-04-30T08:08:11Z</time></trkpt><trkpt lat="44.61439309782498" lon="9.484097434147078"><ele>832.0</ele><time>2026-04-30T08:08:12Z</time></trkpt><trkpt lat="44.61426479051807" lon="9.48399526175307"><ele>832.0</ele><time>2026-04-30T08:08:13Z</time></trkpt><trkpt lat="44.61413657427854" lon="9.483855735031723"><ele>832.0</ele><time>2026-04-30T08:08:14Z</time></trkpt><trkpt lat="44.61401578212771" lon="9.48371989199047"><ele>838.6666666666666</ele><time>2026-04-30T08:08:15Z</time></trkpt><trkpt lat="44.613910287816516" lon="9.483550370618714"><ele>845.3333333333333</ele><time>2026-04-30T08:08:16Z</time></trkpt><trkpt lat="44.61381315527063" lon="9.483395634421578"><ele>852.0</ele><time>2026-04-30T08:08:17Z</time></trkpt><trkpt lat="44.6137070941536" lon="9.48323912727907"><ele>853.0</ele><time>2026-04-30T08:08:18Z</time></trkpt><trkpt lat="44.61361418359239" lon="9.483109959446994"><ele>854.0</ele><time>2026-04-30T08:08:19Z</time></trkpt><trkpt lat="44.61356278195709" lon="9.482957416399373"><ele>855.0</ele><time>2026-04-30T08:08:20Z</time></trkpt><trkpt lat="44.61357655163302" lon="9.482828394226983"><ele>856.0</ele><time>2026-04-30T08:08:21Z</time></trkpt><trkpt lat="44.613613115350475" lon="9.48270349926483"><ele>857.0</ele><time>2026-04-30T08:08:22Z</time></trkpt><trkpt lat="44.61367304978801" lon="9.482567128621017"><ele>857.0</ele><time>2026-04-30T08:08:23Z</time></trkpt><trkpt lat="44.613738069827725" lon="9.482404927881358"><ele>857.0</ele><time>2026-04-30T08:08:24Z</time></trkpt><trkpt lat="44.613830008864944" lon="9.482262876664164"><ele>857.0</ele><time>2026-04-30T08:08:25Z</time></trkpt><trkpt lat="44.61384415263069" lon="9.482077709743642"><ele>857.0</ele><time>2026-04-30T08:08:26Z</time></trkpt><trkpt lat="44.61380122677225" lon="9.481883456985056"><ele>857.3333333333334</ele><time>2026-04-30T08:08:27Z</time></trkpt><trkpt lat="44.61373078171986" lon="9.481672862286734"><ele>857.6666666666667</ele><time>2026-04-30T08:08:28Z</time></trkpt><trkpt lat="44.61368321875432" lon="9.4814807667382"><ele>858.0</ele><time>2026-04-30T08:08:29Z</time></trkpt><trkpt lat="44.613673138730064" lon="9.481279272865883"><ele>860.75</ele><time>2026-04-30T08:08:30Z</time></trkpt><trkpt lat="44.61368595093592" lon="9.4811021946276"><ele>863.5</ele><time>2026-04-30T08:08:31Z</time></trkpt><trkpt lat="44.61366461557225" lon="9.480889399886124"><ele>866.25</ele><time>2026-04-30T08:08:32Z</time></trkpt><trkpt lat="44.61362207208646" lon="9.480713545113673"><ele>869.0</ele><time>2026-04-30T08:08:33Z</time></trkpt><trkpt lat="44.61356175049214" lon="9.48059439814388"><ele>865.4000000000001</ele><time>2026-04-30T08:08:34Z</time></trkpt><trkpt lat="44.61349548203514" lon="9.480488535413363"><ele>861.8000000000001</ele><time>2026-04-30T08:08:35Z</time></trkpt><trkpt lat="44.61346252600391" lon="9.48036952948567"><ele>858.2</ele><time>2026-04-30T08:08:36Z</time></trkpt><trkpt lat="44.613437225955124" lon="9.480248391432147"><ele>854.5999999999999</ele><time>2026-04-30T08:08:37Z</time></trkpt><trkpt lat="44.613423670979955" lon="9.480111558514784"><ele>851.0</ele><time>2026-04-30T08:08:38Z</time></trkpt><trkpt lat="44.61343786936554" lon="9.47996763288191"><ele>851.0</ele><time>2026-04-30T08:08:39Z</time></trkpt><trkpt lat="44.61342800514695" lon="9.479815392757722"><ele>851.0</ele><time>2026-04-30T08:08:40Z</time></trkpt><trkpt lat="44.61341858390619" lon="9.479664239692136"><ele>851.0</ele><time>2026-04-30T08:08:41Z</time></trkpt><trkpt lat="44.613412448050155" lon="9.47953315362025"><ele>851.0</ele><time>2026-04-30T08:08:42Z</time></trkpt><trkpt lat="44.61338341379186" lon="9.479425488139452"><ele>851.0</ele><time>2026-04-30T08:08:43Z</time></trkpt><trkpt lat="44.61333840776856" lon="9.479296366567885"><ele>851.5999999999999</ele><time>2026-04-30T08:08:44Z</time></trkpt><trkpt lat="44.61333232110117" lon="9.479186224853738"><ele>852.2</ele><time>2026-04-30T08:08:45Z</time></trkpt><trkpt lat="44.613331185969415" lon="9.479084513949266"><ele>852.8000000000001</ele><time>2026-04-30T08:08:46Z</time></trkpt><trkpt lat="44.61333132041468" lon="9.478959922822076"><ele>853.4000000000001</ele><time>2026-04-30T08:08:48Z</time></trkpt><trkpt lat="44.61335132358724" lon="9.478724868228072"><ele>854.0</ele><time>2026-04-30T08:09:25.999Z</time></trkpt><trkpt lat="44.61334024392195" lon="9.47861604940764"><ele>855.3333333333334</ele><time>2026-04-30T08:09:26.999Z</time></trkpt><trkpt lat="44.61332715804087" lon="9.478497876358619"><ele>856.6666666666667</ele><time>2026-04-30T08:09:27.999Z</time></trkpt><trkpt lat="44.613301654667914" lon="9.47840611601877"><ele>858.0</ele><time>2026-04-30T08:09:28.999Z</time></trkpt><trkpt lat="44.613238048128146" lon="9.478261834974473"><ele>859.3333333333333</ele><time>2026-04-30T08:09:30.999Z</time></trkpt><trkpt lat="44.61317635039829" lon="9.47819785784645"><ele>860.6666666666666</ele><time>2026-04-30T08:09:31.999Z</time></trkpt><trkpt lat="44.613104580530155" lon="9.478170015006633"><ele>862.0</ele><time>2026-04-30T08:09:32.999Z</time></trkpt><trkpt lat="44.61301598266192" lon="9.478164921269006"><ele>861.9999999999999</ele><time>2026-04-30T08:09:33.999Z</time></trkpt><trkpt lat="44.61293652583294" lon="9.478189129146571"><ele>862.0</ele><time>2026-04-30T08:09:34.999Z</time></trkpt><trkpt lat="44.61287382473931" lon="9.478211532408292"><ele>862.0</ele><time>2026-04-30T08:09:35.999Z</time></trkpt><trkpt lat="44.61281070432835" lon="9.478234681661148"><ele>862.0</ele><time>2026-04-30T08:09:36.999Z</time></trkpt><trkpt lat="44.61272932421529" lon="9.478264758288274"><ele>861.9999999999999</ele><time>2026-04-30T08:09:37.999Z</time></trkpt><trkpt lat="44.61264576906516" lon="9.478282634408965"><ele>862.0</ele><time>2026-04-30T08:09:38.999Z</time></trkpt><trkpt lat="44.61256318603737" lon="9.478238173690057"><ele>862.0</ele><time>2026-04-30T08:09:39.999Z</time></trkpt><trkpt lat="44.61250644731947" lon="9.478143959855261"><ele>862.0</ele><time>2026-04-30T08:09:40.999Z</time></trkpt><trkpt lat="44.61246244798879" lon="9.478003175379818"><ele>862.0</ele><time>2026-04-30T08:09:41.999Z</time></trkpt><trkpt lat="44.612443061624404" lon="9.477862697794816"><ele>862.0</ele><time>2026-04-30T08:09:42.999Z</time></trkpt><trkpt lat="44.61244625577389" lon="9.47769203909618"><ele>862.0</ele><time>2026-04-30T08:09:43.999Z</time></trkpt><trkpt lat="44.61242601732205" lon="9.47751090515321"><ele>862.0</ele><time>2026-04-30T08:09:44.999Z</time></trkpt><trkpt lat="44.612369278429775" lon="9.477313137043081"><ele>862.0</ele><time>2026-04-30T08:09:45.999Z</time></trkpt><trkpt lat="44.6123542706504" lon="9.477157243301725"><ele>862.0</ele><time>2026-04-30T08:09:46.999Z</time></trkpt><trkpt lat="44.612335553904636" lon="9.476974952280544"><ele>862.0</ele><time>2026-04-30T08:09:47.999Z</time></trkpt><trkpt lat="44.61230407530463" lon="9.476778527586667"><ele>866.6666666666666</ele><time>2026-04-30T08:09:48.999Z</time></trkpt><trkpt lat="44.61228164523307" lon="9.476572586692734"><ele>871.3333333333333</ele><time>2026-04-30T08:09:49.999Z</time></trkpt><trkpt lat="44.612237832872125" lon="9.476359572945755"><ele>876.0</ele><time>2026-04-30T08:09:50.999Z</time></trkpt><trkpt lat="44.61218781682091" lon="9.476163157051134"><ele>878.6666666666667</ele><time>2026-04-30T08:09:51.999Z</time></trkpt><trkpt lat="44.61213006929817" lon="9.475937809946664"><ele>881.3333333333334</ele><time>2026-04-30T08:09:52.999Z</time></trkpt><trkpt lat="44.61208960912828" lon="9.475726077356242"><ele>884.0</ele><time>2026-04-30T08:09:53.999Z</time></trkpt><trkpt lat="44.61204923838951" lon="9.475506579989679"><ele>885.6666666666667</ele><time>2026-04-30T08:09:54.999Z</time></trkpt><trkpt lat="44.61200477909689" lon="9.47530912603986"><ele>887.3333333333333</ele><time>2026-04-30T08:09:55.999Z</time></trkpt><trkpt lat="44.61198403694201" lon="9.475116239676886"><ele>889.0</ele><time>2026-04-30T08:09:56.999Z</time></trkpt><trkpt lat="44.6119464807272" lon="9.474883624310563"><ele>881.75</ele><time>2026-04-30T08:09:57.999Z</time></trkpt><trkpt lat="44.61191168595945" lon="9.474683809123816"><ele>874.5</ele><time>2026-04-30T08:09:58.999Z</time></trkpt><trkpt lat="44.61186612780523" lon="9.474502243407128"><ele>867.25</ele><time>2026-04-30T08:09:59.999Z</time></trkpt><trkpt lat="44.611793372462515" lon="9.474346730282099"><ele>860.0</ele><time>2026-04-30T08:10:00.999Z</time></trkpt><trkpt lat="44.61173558448681" lon="9.474179229584184"><ele>860.0</ele><time>2026-04-30T08:10:01.999Z</time></trkpt><trkpt lat="44.61166317814047" lon="9.474016007772942"><ele>860.0</ele><time>2026-04-30T08:10:02.999Z</time></trkpt><trkpt lat="44.61158589932039" lon="9.473841802209023"><ele>860.0</ele><time>2026-04-30T08:10:03.999Z</time></trkpt><trkpt lat="44.61148578409591" lon="9.473669487808612"><ele>860.0</ele><time>2026-04-30T08:10:04.999Z</time></trkpt><trkpt lat="44.61139245500976" lon="9.473516358822351"><ele>860.25</ele><time>2026-04-30T08:10:05.999Z</time></trkpt><trkpt lat="44.611310925670615" lon="9.473378102284245"><ele>860.5</ele><time>2026-04-30T08:10:06.999Z</time></trkpt><trkpt lat="44.61120509658697" lon="9.473273346322504"><ele>860.75</ele><time>2026-04-30T08:10:07.999Z</time></trkpt><trkpt lat="44.611110150667216" lon="9.473140173261823"><ele>861.0</ele><time>2026-04-30T08:10:08.999Z</time></trkpt><trkpt lat="44.61099405904782" lon="9.473045658800267"><ele>861.0</ele><time>2026-04-30T08:10:09.999Z</time></trkpt><trkpt lat="44.61086784227958" lon="9.47295596675151"><ele>861.0</ele><time>2026-04-30T08:10:10.999Z</time></trkpt><trkpt lat="44.610731264371054" lon="9.472898302017567"><ele>861.0</ele><time>2026-04-30T08:10:11.999Z</time></trkpt><trkpt lat="44.6105958327309" lon="9.472829929221401"><ele>861.0</ele><time>2026-04-30T08:10:12.999Z</time></trkpt><trkpt lat="44.61046431561354" lon="9.472757080009364"><ele>863.5</ele><time>2026-04-30T08:10:13.999Z</time></trkpt><trkpt lat="44.61033540121105" lon="9.472726597704636"><ele>866.0</ele><time>2026-04-30T08:10:14.999Z</time></trkpt><trkpt lat="44.61022915707466" lon="9.472699858447827"><ele>868.5</ele><time>2026-04-30T08:10:15.999Z</time></trkpt><trkpt lat="44.61011232259245" lon="9.472673067260235"><ele>871.0</ele><time>2026-04-30T08:10:16.999Z</time></trkpt><trkpt lat="44.60999569250752" lon="9.472655820359575"><ele>871.0</ele><time>2026-04-30T08:10:17.999Z</time></trkpt><trkpt lat="44.60988416666604" lon="9.472712544512282"><ele>871.0</ele><time>2026-04-30T08:10:18.999Z</time></trkpt><trkpt lat="44.60978062900257" lon="9.472802627905004"><ele>871.0</ele><time>2026-04-30T08:10:19.999Z</time></trkpt><trkpt lat="44.60969624777704" lon="9.472962022399734"><ele>871.0</ele><time>2026-04-30T08:10:20.999Z</time></trkpt><trkpt lat="44.60964427374379" lon="9.473157107632467"><ele>871.0</ele><time>2026-04-30T08:10:21.999Z</time></trkpt><trkpt lat="44.609645535302526" lon="9.473351366523136"><ele>871.0</ele><time>2026-04-30T08:10:22.999Z</time></trkpt><trkpt lat="44.60969752737136" lon="9.473512838331594"><ele>871.0</ele><time>2026-04-30T08:10:23.999Z</time></trkpt><trkpt lat="44.60973885023258" lon="9.473693847337879"><ele>871.0</ele><time>2026-04-30T08:10:24.999Z</time></trkpt><trkpt lat="44.60981332325023" lon="9.473832730372186"><ele>872.0</ele><time>2026-04-30T08:10:25.999Z</time></trkpt><trkpt lat="44.60989450689646" lon="9.47396564393419"><ele>873.0</ele><time>2026-04-30T08:10:26.999Z</time></trkpt><trkpt lat="44.60998202668293" lon="9.474090327384825"><ele>874.0</ele><time>2026-04-30T08:10:27.999Z</time></trkpt><trkpt lat="44.61005525111973" lon="9.47423005715488"><ele>875.0</ele><time>2026-04-30T08:10:28.999Z</time></trkpt><trkpt lat="44.61008501598493" lon="9.474375649140633"><ele>875.0</ele><time>2026-04-30T08:10:29.999Z</time></trkpt><trkpt lat="44.61008032121303" lon="9.474485795997046"><ele>875.0</ele><time>2026-04-30T08:10:30.999Z</time></trkpt><trkpt lat="44.610031418343716" lon="9.474629966712437"><ele>875.0</ele><time>2026-04-30T08:10:32.999Z</time></trkpt><trkpt lat="44.609959667070804" lon="9.474759611102533"><ele>875.0</ele><time>2026-04-30T08:10:33.999Z</time></trkpt><trkpt lat="44.609859363321505" lon="9.474927727205907"><ele>874.6666666666667</ele><time>2026-04-30T08:10:34.999Z</time></trkpt><trkpt lat="44.609772742531675" lon="9.475154660378744"><ele>874.3333333333333</ele><time>2026-04-30T08:10:35.999Z</time></trkpt><trkpt lat="44.60973368610139" lon="9.475374986896268"><ele>874.0</ele><time>2026-04-30T08:10:36.999Z</time></trkpt><trkpt lat="44.6097052056661" lon="9.475552442317614"><ele>873.75</ele><time>2026-04-30T08:10:37.999Z</time></trkpt><trkpt lat="44.60966475956195" lon="9.47569702382685"><ele>873.5</ele><time>2026-04-30T08:10:38.999Z</time></trkpt><trkpt lat="44.60957817431913" lon="9.475833078858043"><ele>873.25</ele><time>2026-04-30T08:10:39.999Z</time></trkpt><trkpt lat="44.60948423889396" lon="9.475968662645208"><ele>873.0</ele><time>2026-04-30T08:10:40.999Z</time></trkpt><trkpt lat="44.60937736126716" lon="9.476104003088924"><ele>880.6666666666667</ele><time>2026-04-30T08:10:41.999Z</time></trkpt><trkpt lat="44.60928651586444" lon="9.476273190723475"><ele>888.3333333333334</ele><time>2026-04-30T08:10:42.999Z</time></trkpt><trkpt lat="44.60919207586717" lon="9.476448188739885"><ele>896.0</ele><time>2026-04-30T08:10:43.999Z</time></trkpt><trkpt lat="44.60909410162571" lon="9.476630979031002"><ele>896.0</ele><time>2026-04-30T08:10:44.999Z</time></trkpt><trkpt lat="44.609010055520066" lon="9.476813535531058"><ele>896.0</ele><time>2026-04-30T08:10:45.999Z</time></trkpt><trkpt lat="44.60897779522834" lon="9.47700197690283"><ele>896.0</ele><time>2026-04-30T08:10:46.999Z</time></trkpt><trkpt lat="44.608907808434076" lon="9.477161502173333"><ele>896.0</ele><time>2026-04-30T08:10:47.999Z</time></trkpt><trkpt lat="44.60888878242616" lon="9.477311008264872"><ele>895.5</ele><time>2026-04-30T08:10:48.999Z</time></trkpt><trkpt lat="44.60891694104674" lon="9.477473801419475"><ele>895.0</ele><time>2026-04-30T08:10:49.999Z</time></trkpt><trkpt lat="44.60897331298327" lon="9.47758496802417"><ele>894.5</ele><time>2026-04-30T08:10:50.999Z</time></trkpt><trkpt lat="44.60905242738334" lon="9.477681735766318"><ele>894.0</ele><time>2026-04-30T08:10:51.999Z</time></trkpt><trkpt lat="44.60914872787144" lon="9.477803494800268"><ele>894.0</ele><time>2026-04-30T08:10:52.999Z</time></trkpt><trkpt lat="44.609257389791544" lon="9.477894588353163"><ele>894.0000000000001</ele><time>2026-04-30T08:10:53.999Z</time></trkpt><trkpt lat="44.609348752524944" lon="9.478009232238518"><ele>894.0000000000001</ele><time>2026-04-30T08:10:54.999Z</time></trkpt><trkpt lat="44.60941464664478" lon="9.47810220163953"><ele>894.0</ele><time>2026-04-30T08:10:55.999Z</time></trkpt><trkpt lat="44.609446682947286" lon="9.478227360469715"><ele>894.0</ele><time>2026-04-30T08:10:56.999Z</time></trkpt><trkpt lat="44.60947762474818" lon="9.478374507681185"><ele>896.75</ele><time>2026-04-30T08:10:57.999Z</time></trkpt><trkpt lat="44.6094618050879" lon="9.478504770283159"><ele>899.5</ele><time>2026-04-30T08:10:58.999Z</time></trkpt><trkpt lat="44.60941150346334" lon="9.478648135659787"><ele>902.25</ele><time>2026-04-30T08:10:59.999Z</time></trkpt><trkpt lat="44.6093513511094" lon="9.478817948743677"><ele>905.0</ele><time>2026-04-30T08:11:00.999Z</time></trkpt><trkpt lat="44.60931252099858" lon="9.478992004532737"><ele>906.0</ele><time>2026-04-30T08:11:01.999Z</time></trkpt><trkpt lat="44.609287809564115" lon="9.479162009000426"><ele>907.0</ele><time>2026-04-30T08:11:02.999Z</time></trkpt><trkpt lat="44.60929297331846" lon="9.479338922314158"><ele>908.0</ele><time>2026-04-30T08:11:03.999Z</time></trkpt><trkpt lat="44.60930551666636" lon="9.479524488031275"><ele>909.0</ele><time>2026-04-30T08:11:04.999Z</time></trkpt><trkpt lat="44.609317552790145" lon="9.47971049458303"><ele>910.5</ele><time>2026-04-30T08:11:05.999Z</time></trkpt><trkpt lat="44.609340737810236" lon="9.479880513601822"><ele>912.0</ele><time>2026-04-30T08:11:06.999Z</time></trkpt><trkpt lat="44.609384730425774" lon="9.480022481686257"><ele>913.5</ele><time>2026-04-30T08:11:07.999Z</time></trkpt><trkpt lat="44.609442633076135" lon="9.480162605752216"><ele>915.0</ele><time>2026-04-30T08:11:08.999Z</time></trkpt><trkpt lat="44.60951645765842" lon="9.48029276392507"><ele>910.8</ele><time>2026-04-30T08:11:09.999Z</time></trkpt><trkpt lat="44.60957471904226" lon="9.480419415414959"><ele>906.6</ele><time>2026-04-30T08:11:10.999Z</time></trkpt><trkpt lat="44.609636655664595" lon="9.48056319490545"><ele>902.4000000000001</ele><time>2026-04-30T08:11:11.999Z</time></trkpt><trkpt lat="44.60965588049762" lon="9.48069023445148"><ele>898.2</ele><time>2026-04-30T08:11:12.999Z</time></trkpt><trkpt lat="44.6096619687741" lon="9.480829077701538"><ele>894.0</ele><time>2026-04-30T08:11:13.999Z</time></trkpt><trkpt lat="44.609636484918695" lon="9.48096349836183"><ele>894.0</ele><time>2026-04-30T08:11:14.999Z</time></trkpt><trkpt lat="44.609595450834696" lon="9.481086693943464"><ele>894.0</ele><time>2026-04-30T08:11:15.999Z</time></trkpt><trkpt lat="44.6095188782539" lon="9.481202265300253"><ele>894.0</ele><time>2026-04-30T08:11:16.999Z</time></trkpt><trkpt lat="44.60943353269759" lon="9.481356905319329"><ele>894.0</ele><time>2026-04-30T08:11:17.999Z</time></trkpt><trkpt lat="44.60935077789954" lon="9.481493052989997"><ele>899.25</ele><time>2026-04-30T08:11:18.999Z</time></trkpt><trkpt lat="44.60927417249079" lon="9.481624709398243"><ele>904.5</ele><time>2026-04-30T08:11:19.999Z</time></trkpt><trkpt lat="44.60920416011901" lon="9.481755225260027"><ele>909.75</ele><time>2026-04-30T08:11:20.999Z</time></trkpt><trkpt lat="44.60912634462311" lon="9.481871513794308"><ele>915.0</ele><time>2026-04-30T08:11:21.999Z</time></trkpt><trkpt lat="44.60906965689703" lon="9.48200418227158"><ele>914.5</ele><time>2026-04-30T08:11:22.999Z</time></trkpt><trkpt lat="44.609005532846346" lon="9.48211831434683"><ele>914.0</ele><time>2026-04-30T08:11:23.999Z</time></trkpt><trkpt lat="44.60894962398738" lon="9.482254136111598"><ele>913.5</ele><time>2026-04-30T08:11:24.999Z</time></trkpt><trkpt lat="44.60895141031426" lon="9.482414844139743"><ele>913.0</ele><time>2026-04-30T08:11:25.999Z</time></trkpt><trkpt lat="44.60899702857764" lon="9.482591620343962"><ele>913.0</ele><time>2026-04-30T08:11:26.998Z</time></trkpt><trkpt lat="44.60901649377681" lon="9.482742863147541"><ele>913.0</ele><time>2026-04-30T08:11:27.998Z</time></trkpt><trkpt lat="44.60902191110111" lon="9.482884870477989"><ele>913.0</ele><time>2026-04-30T08:11:28.998Z</time></trkpt><trkpt lat="44.609008678542466" lon="9.483009530087022"><ele>913.0</ele><time>2026-04-30T08:11:29.998Z</time></trkpt><trkpt lat="44.60898599025319" lon="9.483128445142025"><ele>913.0</ele><time>2026-04-30T08:11:30.998Z</time></trkpt><trkpt lat="44.608945325291494" lon="9.483226360010228"><ele>913.8</ele><time>2026-04-30T08:11:31.998Z</time></trkpt><trkpt lat="44.608876264127915" lon="9.483316722954072"><ele>914.5999999999999</ele><time>2026-04-30T08:11:32.998Z</time></trkpt><trkpt lat="44.60879392183967" lon="9.483392127345796"><ele>915.4000000000001</ele><time>2026-04-30T08:11:33.998Z</time></trkpt><trkpt lat="44.60869507278752" lon="9.483402465496011"><ele>916.2</ele><time>2026-04-30T08:11:34.998Z</time></trkpt><trkpt lat="44.60854685472144" lon="9.483423922759384"><ele>917.0</ele><time>2026-04-30T08:11:35.998Z</time></trkpt><trkpt lat="44.608392857810365" lon="9.483478661621021"><ele>918.75</ele><time>2026-04-30T08:11:36.998Z</time></trkpt><trkpt lat="44.608280926863685" lon="9.483585111808646"><ele>920.5</ele><time>2026-04-30T08:11:37.998Z</time></trkpt><trkpt lat="44.60817630089321" lon="9.483709573708328"><ele>922.25</ele><time>2026-04-30T08:11:38.998Z</time></trkpt><trkpt lat="44.608062294046654" lon="9.483812133324875"><ele>924.0</ele><time>2026-04-30T08:11:39.998Z</time></trkpt><trkpt lat="44.607941697579825" lon="9.483916408344408"><ele>922.5</ele><time>2026-04-30T08:11:40.998Z</time></trkpt><trkpt lat="44.60781617875207" lon="9.484012870129412"><ele>921.0</ele><time>2026-04-30T08:11:41.998Z</time></trkpt><trkpt lat="44.60769601667281" lon="9.484101987765422"><ele>919.5</ele><time>2026-04-30T08:11:42.998Z</time></trkpt><trkpt lat="44.607577772543536" lon="9.484188788984412"><ele>918.0</ele><time>2026-04-30T08:11:43.998Z</time></trkpt><trkpt lat="44.60747478460779" lon="9.484250693882514"><ele>918.0</ele><time>2026-04-30T08:11:44.998Z</time></trkpt><trkpt lat="44.607376334629556" lon="9.484299805839402"><ele>918.0</ele><time>2026-04-30T08:11:45.998Z</time></trkpt><trkpt lat="44.60727191877827" lon="9.484335881139062"><ele>918.0</ele><time>2026-04-30T08:11:46.998Z</time></trkpt><trkpt lat="44.60716761107439" lon="9.484351562244383"><ele>918.0</ele><time>2026-04-30T08:11:47.998Z</time></trkpt><trkpt lat="44.60705705147949" lon="9.484337223109362"><ele>918.0</ele><time>2026-04-30T08:11:48.998Z</time></trkpt><trkpt lat="44.606935233596225" lon="9.484303354255395"><ele>918.4</ele><time>2026-04-30T08:11:49.998Z</time></trkpt><trkpt lat="44.60683002345164" lon="9.484255109383621"><ele>918.8</ele><time>2026-04-30T08:11:50.998Z</time></trkpt><trkpt lat="44.60673933569333" lon="9.484204246867575"><ele>919.2</ele><time>2026-04-30T08:11:51.998Z</time></trkpt><trkpt lat="44.60666781190626" lon="9.484114353416954"><ele>919.6</ele><time>2026-04-30T08:11:52.998Z</time></trkpt><trkpt lat="44.60656932250078" lon="9.48403664662762"><ele>920.0</ele><time>2026-04-30T08:11:53.998Z</time></trkpt><trkpt lat="44.60647717788863" lon="9.48392316552056"><ele>920.0</ele><time>2026-04-30T08:11:54.998Z</time></trkpt><trkpt lat="44.606395364532" lon="9.483803084895312"><ele>920.0</ele><time>2026-04-30T08:11:55.998Z</time></trkpt><trkpt lat="44.60629618034018" lon="9.483732152702709"><ele>920.0</ele><time>2026-04-30T08:11:56.998Z</time></trkpt><trkpt lat="44.60620849909646" lon="9.483661166650425"><ele>920.0</ele><time>2026-04-30T08:11:57.998Z</time></trkpt><trkpt lat="44.606105886099286" lon="9.483621138702292"><ele>920.0</ele><time>2026-04-30T08:11:58.998Z</time></trkpt><trkpt lat="44.60601708949036" lon="9.483575048776196"><ele>923.1666666666667</ele><time>2026-04-30T08:11:59.998Z</time></trkpt><trkpt lat="44.60591836115017" lon="9.483565567629249"><ele>926.3333333333334</ele><time>2026-04-30T08:12:00.998Z</time></trkpt><trkpt lat="44.60583169906219" lon="9.483549234428402"><ele>929.5</ele><time>2026-04-30T08:12:01.998Z</time></trkpt><trkpt lat="44.60576119652316" lon="9.483535452813465"><ele>932.6666666666667</ele><time>2026-04-30T08:12:02.998Z</time></trkpt><trkpt lat="44.605690636149575" lon="9.483535874415702"><ele>935.8333333333334</ele><time>2026-04-30T08:12:03.998Z</time></trkpt><trkpt lat="44.6056062234327" lon="9.483531839716997"><ele>939.0</ele><time>2026-04-30T08:12:04.998Z</time></trkpt><trkpt lat="44.605499087667" lon="9.483535161489323"><ele>939.0</ele><time>2026-04-30T08:12:05.998Z</time></trkpt><trkpt lat="44.605382329186774" lon="9.48360574788106"><ele>939.0</ele><time>2026-04-30T08:12:06.998Z</time></trkpt><trkpt lat="44.60525879144721" lon="9.483682627287886"><ele>939.0</ele><time>2026-04-30T08:12:07.998Z</time></trkpt><trkpt lat="44.60515307046964" lon="9.483773371532957"><ele>939.0</ele><time>2026-04-30T08:12:08.998Z</time></trkpt><trkpt lat="44.60506084712141" lon="9.483870878984105"><ele>936.0</ele><time>2026-04-30T08:12:09.998Z</time></trkpt><trkpt lat="44.60497490970116" lon="9.483965160097375"><ele>933.0</ele><time>2026-04-30T08:12:10.998Z</time></trkpt><trkpt lat="44.604875509037655" lon="9.484050841324818"><ele>930.0</ele><time>2026-04-30T08:12:11.998Z</time></trkpt><trkpt lat="44.60476433823027" lon="9.484075313231731"><ele>927.0</ele><time>2026-04-30T08:12:12.998Z</time></trkpt><trkpt lat="44.60464119620217" lon="9.484041865878778"><ele>927.0</ele><time>2026-04-30T08:12:13.998Z</time></trkpt><trkpt lat="44.60452527847838" lon="9.483978403959497"><ele>927.0</ele><time>2026-04-30T08:12:14.998Z</time></trkpt><trkpt lat="44.604434398664665" lon="9.48384251559343"><ele>927.0</ele><time>2026-04-30T08:12:15.998Z</time></trkpt><trkpt lat="44.604333750005225" lon="9.483703344457544"><ele>927.0</ele><time>2026-04-30T08:12:16.998Z</time></trkpt><trkpt lat="44.6042415309803" lon="9.483555886190638"><ele>931.0</ele><time>2026-04-30T08:12:17.998Z</time></trkpt><trkpt lat="44.60414325630003" lon="9.483425836177194"><ele>935.0</ele><time>2026-04-30T08:12:18.998Z</time></trkpt><trkpt lat="44.60403615885404" lon="9.483340435684488"><ele>939.0</ele><time>2026-04-30T08:12:19.998Z</time></trkpt><trkpt lat="44.60394018753165" lon="9.48325060117878"><ele>943.0</ele><time>2026-04-30T08:12:20.998Z</time></trkpt><trkpt lat="44.60383807035412" lon="9.4832105301851"><ele>943.0</ele><time>2026-04-30T08:12:21.998Z</time></trkpt><trkpt lat="44.60373675615074" lon="9.483246850537622"><ele>943.0</ele><time>2026-04-30T08:12:22.998Z</time></trkpt><trkpt lat="44.60363600033764" lon="9.483332446692808"><ele>943.0</ele><time>2026-04-30T08:12:23.998Z</time></trkpt><trkpt lat="44.60351812830337" lon="9.483343436633444"><ele>943.0</ele><time>2026-04-30T08:12:24.998Z</time></trkpt><trkpt lat="44.60340644289866" lon="9.483275382506237"><ele>941.75</ele><time>2026-04-30T08:12:25.998Z</time></trkpt><trkpt lat="44.603305385811794" lon="9.483194806495108"><ele>940.5</ele><time>2026-04-30T08:12:26.998Z</time></trkpt><trkpt lat="44.603188119979926" lon="9.483098353893403"><ele>939.25</ele><time>2026-04-30T08:12:27.998Z</time></trkpt><trkpt lat="44.60307643474214" lon="9.482973524737247"><ele>938.0</ele><time>2026-04-30T08:12:28.998Z</time></trkpt><trkpt lat="44.60297378243771" lon="9.482848243115475"><ele>944.25</ele><time>2026-04-30T08:12:29.998Z</time></trkpt><trkpt lat="44.60286272235028" lon="9.482744604678828"><ele>950.5</ele><time>2026-04-30T08:12:30.998Z</time></trkpt><trkpt lat="44.602750809825736" lon="9.482677008061367"><ele>956.75</ele><time>2026-04-30T08:12:31.998Z</time></trkpt><trkpt lat="44.60263742430838" lon="9.48264658515509"><ele>963.0</ele><time>2026-04-30T08:12:32.998Z</time></trkpt><trkpt lat="44.60252550681251" lon="9.482665600970149"><ele>963.5999999999999</ele><time>2026-04-30T08:12:33.998Z</time></trkpt><trkpt lat="44.60242111049066" lon="9.482717302885153"><ele>964.1999999999999</ele><time>2026-04-30T08:12:34.998Z</time></trkpt><trkpt lat="44.602340871703426" lon="9.482788222684896"><ele>964.8</ele><time>2026-04-30T08:12:35.998Z</time></trkpt><trkpt lat="44.60229894541187" lon="9.482911375794952"><ele>965.4</ele><time>2026-04-30T08:12:36.998Z</time></trkpt><trkpt lat="44.60229121254358" lon="9.483084409559178"><ele>966.0</ele><time>2026-04-30T08:12:37.998Z</time></trkpt><trkpt lat="44.60232293375776" lon="9.483277628583206"><ele>963.1999999999999</ele><time>2026-04-30T08:12:38.998Z</time></trkpt><trkpt lat="44.60236874488715" lon="9.48342908488533"><ele>960.3999999999999</ele><time>2026-04-30T08:12:39.998Z</time></trkpt><trkpt lat="44.60234887687365" lon="9.483537120459346"><ele>957.6</ele><time>2026-04-30T08:12:40.998Z</time></trkpt><trkpt lat="44.60231189040317" lon="9.483627954384517"><ele>954.8</ele><time>2026-04-30T08:12:41.998Z</time></trkpt><trkpt lat="44.60221708935239" lon="9.483713789537417"><ele>952.0</ele><time>2026-04-30T08:12:42.998Z</time></trkpt><trkpt lat="44.60210039608145" lon="9.483805705601647"><ele>951.6666666666666</ele><time>2026-04-30T08:12:43.998Z</time></trkpt><trkpt lat="44.601953214848905" lon="9.483857408911287"><ele>951.3333333333333</ele><time>2026-04-30T08:12:44.998Z</time></trkpt><trkpt lat="44.6018012573164" lon="9.48395676725517"><ele>951.0</ele><time>2026-04-30T08:12:45.998Z</time></trkpt><trkpt lat="44.60163974546805" lon="9.48404868974353"><ele>951.0</ele><time>2026-04-30T08:12:46.998Z</time></trkpt><trkpt lat="44.60147513252897" lon="9.484141496347263"><ele>951.0</ele><time>2026-04-30T08:12:47.998Z</time></trkpt><trkpt lat="44.60131455341379" lon="9.484228936167765"><ele>951.0</ele><time>2026-04-30T08:12:48.998Z</time></trkpt><trkpt lat="44.60115526191382" lon="9.484340646940943"><ele>950.0</ele><time>2026-04-30T08:12:49.998Z</time></trkpt><trkpt lat="44.60097339847681" lon="9.484427982412942"><ele>949.0</ele><time>2026-04-30T08:12:50.998Z</time></trkpt><trkpt lat="44.60082765002319" lon="9.484531775405296"><ele>948.0</ele><time>2026-04-30T08:12:51.998Z</time></trkpt><trkpt lat="44.600677855468646" lon="9.48463419589168"><ele>948.0</ele><time>2026-04-30T08:12:52.998Z</time></trkpt><trkpt lat="44.60054453981937" lon="9.48476258193043"><ele>948.0</ele><time>2026-04-30T08:12:53.998Z</time></trkpt><trkpt lat="44.60043251587366" lon="9.484907944903926"><ele>948.0</ele><time>2026-04-30T08:12:54.998Z</time></trkpt><trkpt lat="44.60037062433947" lon="9.48509709042188"><ele>950.0</ele><time>2026-04-30T08:12:55.998Z</time></trkpt><trkpt lat="44.600307536514315" lon="9.485247895442665"><ele>952.0</ele><time>2026-04-30T08:12:56.998Z</time></trkpt><trkpt lat="44.60021258170386" lon="9.48530359717425"><ele>954.0</ele><time>2026-04-30T08:12:57.998Z</time></trkpt><trkpt lat="44.6001279413878" lon="9.485286119540309"><ele>956.0</ele><time>2026-04-30T08:12:58.998Z</time></trkpt><trkpt lat="44.600034943088076" lon="9.485230120860322"><ele>958.0</ele><time>2026-04-30T08:12:59.998Z</time></trkpt><trkpt lat="44.59997189494031" lon="9.485154320975102"><ele>958.0</ele><time>2026-04-30T08:13:00.998Z</time></trkpt><trkpt lat="44.599926071631806" lon="9.484976852323348"><ele>958.0</ele><time>2026-04-30T08:13:01.998Z</time></trkpt><trkpt lat="44.599867149607135" lon="9.484804265571707"><ele>958.0</ele><time>2026-04-30T08:13:02.998Z</time></trkpt><trkpt lat="44.59979696681502" lon="9.484623477569798"><ele>958.0</ele><time>2026-04-30T08:13:03.998Z</time></trkpt><trkpt lat="44.59970894223371" lon="9.48447587046351"><ele>961.5</ele><time>2026-04-30T08:13:04.998Z</time></trkpt><trkpt lat="44.59958244042773" lon="9.484382766133134"><ele>965.0</ele><time>2026-04-30T08:13:05.998Z</time></trkpt><trkpt lat="44.59944421292066" lon="9.48433207202332"><ele>968.5</ele><time>2026-04-30T08:13:06.998Z</time></trkpt><trkpt lat="44.599303795746" lon="9.484272409393013"><ele>972.0</ele><time>2026-04-30T08:13:07.998Z</time></trkpt><trkpt lat="44.599150609179034" lon="9.484237152485694"><ele>972.0</ele><time>2026-04-30T08:13:08.998Z</time></trkpt><trkpt lat="44.599000960799145" lon="9.484209707479362"><ele>972.0</ele><time>2026-04-30T08:13:09.998Z</time></trkpt><trkpt lat="44.59885351344653" lon="9.484178994624134"><ele>972.0</ele><time>2026-04-30T08:13:10.998Z</time></trkpt><trkpt lat="44.59870690138341" lon="9.484116542329426"><ele>970.5</ele><time>2026-04-30T08:13:11.998Z</time></trkpt><trkpt lat="44.598590552551414" lon="9.48407953078262"><ele>969.0</ele><time>2026-04-30T08:13:12.998Z</time></trkpt><trkpt lat="44.598458224103936" lon="9.48403075106599"><ele>967.5</ele><time>2026-04-30T08:13:13.998Z</time></trkpt><trkpt lat="44.59835061710279" lon="9.483961902940578"><ele>966.0</ele><time>2026-04-30T08:13:14.998Z</time></trkpt><trkpt lat="44.598259848509755" lon="9.483847725316359"><ele>971.0</ele><time>2026-04-30T08:13:15.998Z</time></trkpt><trkpt lat="44.59820924666128" lon="9.483689286620063"><ele>976.0</ele><time>2026-04-30T08:13:16.998Z</time></trkpt><trkpt lat="44.59816205996412" lon="9.483534792500896"><ele>981.0</ele><time>2026-04-30T08:13:17.998Z</time></trkpt><trkpt lat="44.59810959426877" lon="9.483362714873993"><ele>986.0</ele><time>2026-04-30T08:13:18.998Z</time></trkpt><trkpt lat="44.598007150893835" lon="9.483282197241268"><ele>986.0</ele><time>2026-04-30T08:13:19.998Z</time></trkpt><trkpt lat="44.597894379508936" lon="9.48331629010597"><ele>986.0</ele><time>2026-04-30T08:13:20.998Z</time></trkpt><trkpt lat="44.59777936593451" lon="9.483379583025116"><ele>986.0</ele><time>2026-04-30T08:13:21.998Z</time></trkpt><trkpt lat="44.59764966622919" lon="9.483448559853992"><ele>986.0</ele><time>2026-04-30T08:13:22.998Z</time></trkpt><trkpt lat="44.59753327526528" lon="9.483565928751169"><ele>984.75</ele><time>2026-04-30T08:13:23.998Z</time></trkpt><trkpt lat="44.59741628473637" lon="9.483676627457147"><ele>983.5</ele><time>2026-04-30T08:13:24.998Z</time></trkpt><trkpt lat="44.59732757762433" lon="9.483829713750957"><ele>982.25</ele><time>2026-04-30T08:13:25.998Z</time></trkpt><trkpt lat="44.59724851525384" lon="9.483998207771304"><ele>981.0</ele><time>2026-04-30T08:13:26.998Z</time></trkpt><trkpt lat="44.59716477434465" lon="9.484138220625518"><ele>978.25</ele><time>2026-04-30T08:13:27.998Z</time></trkpt><trkpt lat="44.59709264705676" lon="9.48428843086647"><ele>975.5</ele><time>2026-04-30T08:13:28.998Z</time></trkpt><trkpt lat="44.59699346473188" lon="9.484394507915793"><ele>972.75</ele><time>2026-04-30T08:13:29.998Z</time></trkpt><trkpt lat="44.59688831794018" lon="9.484481067591698"><ele>970.0</ele><time>2026-04-30T08:13:30.998Z</time></trkpt><trkpt lat="44.596777668124666" lon="9.484546286440395"><ele>971.0</ele><time>2026-04-30T08:13:31.998Z</time></trkpt><trkpt lat="44.596631769376074" lon="9.484611452864417"><ele>972.0</ele><time>2026-04-30T08:13:32.998Z</time></trkpt><trkpt lat="44.59649764139647" lon="9.484679300933635"><ele>973.0</ele><time>2026-04-30T08:13:33.998Z</time></trkpt><trkpt lat="44.59638583768629" lon="9.484729928484947"><ele>974.0</ele><time>2026-04-30T08:13:34.998Z</time></trkpt><trkpt lat="44.596284015839025" lon="9.484756656329505"><ele>974.0</ele><time>2026-04-30T08:13:35.998Z</time></trkpt><trkpt lat="44.59618263287149" lon="9.484751451559077"><ele>974.0000000000001</ele><time>2026-04-30T08:13:36.998Z</time></trkpt><trkpt lat="44.59608794124415" lon="9.484714780816729"><ele>974.0000000000001</ele><time>2026-04-30T08:13:37.998Z</time></trkpt><trkpt lat="44.595992033389216" lon="9.484626485934994"><ele>974.0</ele><time>2026-04-30T08:13:38.998Z</time></trkpt><trkpt lat="44.595895641196385" lon="9.484515683720401"><ele>974.0</ele><time>2026-04-30T08:13:39.998Z</time></trkpt><trkpt lat="44.59578179337824" lon="9.484417939193142"><ele>979.0</ele><time>2026-04-30T08:13:40.998Z</time></trkpt><trkpt lat="44.595673728068874" lon="9.484315003033473"><ele>984.0</ele><time>2026-04-30T08:13:41.998Z</time></trkpt><trkpt lat="44.595576377367564" lon="9.48422549461189"><ele>989.0</ele><time>2026-04-30T08:13:42.998Z</time></trkpt><trkpt lat="44.59546369309456" lon="9.484157404374942"><ele>994.0</ele><time>2026-04-30T08:13:43.998Z</time></trkpt><trkpt lat="44.59534775256337" lon="9.484075788890499"><ele>993.0</ele><time>2026-04-30T08:13:44.998Z</time></trkpt><trkpt lat="44.59524049952431" lon="9.484048968911518"><ele>992.0</ele><time>2026-04-30T08:13:45.998Z</time></trkpt><trkpt lat="44.59512768567951" lon="9.484064498742557"><ele>991.0</ele><time>2026-04-30T08:13:46.998Z</time></trkpt><trkpt lat="44.59500533991827" lon="9.484099794501633"><ele>990.0</ele><time>2026-04-30T08:13:47.998Z</time></trkpt><trkpt lat="44.59487806737151" lon="9.484131988403451"><ele>990.0</ele><time>2026-04-30T08:13:48.998Z</time></trkpt><trkpt lat="44.59473903722245" lon="9.484176264290557"><ele>990.0</ele><time>2026-04-30T08:13:49.998Z</time></trkpt><trkpt lat="44.59461497340414" lon="9.48423001228724"><ele>990.0</ele><time>2026-04-30T08:13:50.998Z</time></trkpt><trkpt lat="44.59447106729608" lon="9.48425984275198"><ele>990.0</ele><time>2026-04-30T08:13:51.998Z</time></trkpt><trkpt lat="44.59432538281693" lon="9.484340526760441"><ele>991.25</ele><time>2026-04-30T08:13:52.997Z</time></trkpt><trkpt lat="44.59422235018315" lon="9.484477808959472"><ele>992.5</ele><time>2026-04-30T08:13:53.997Z</time></trkpt><trkpt lat="44.59415309319843" lon="9.484648030797057"><ele>993.75</ele><time>2026-04-30T08:13:54.997Z</time></trkpt><trkpt lat="44.59409385180222" lon="9.484855428947434"><ele>995.0</ele><time>2026-04-30T08:13:55.997Z</time></trkpt><trkpt lat="44.594032282632476" lon="9.485006016135832"><ele>995.0000000000001</ele><time>2026-04-30T08:13:56.997Z</time></trkpt><trkpt lat="44.593969799376914" lon="9.485118710157787"><ele>995.0</ele><time>2026-04-30T08:13:57.997Z</time></trkpt><trkpt lat="44.59389651203579" lon="9.485174933343812"><ele>995.0</ele><time>2026-04-30T08:13:58.997Z</time></trkpt><trkpt lat="44.593821333083305" lon="9.485190010655451"><ele>995.0</ele><time>2026-04-30T08:13:59.997Z</time></trkpt><trkpt lat="44.59374596775286" lon="9.485169621958065"><ele>995.0000000000001</ele><time>2026-04-30T08:14:00.997Z</time></trkpt><trkpt lat="44.59367188328616" lon="9.485119233396809"><ele>995.0</ele><time>2026-04-30T08:14:01.997Z</time></trkpt><trkpt lat="44.59357316487763" lon="9.48504779022056"><ele>993.75</ele><time>2026-04-30T08:14:02.997Z</time></trkpt><trkpt lat="44.59347037690907" lon="9.48493235182493"><ele>992.5</ele><time>2026-04-30T08:14:03.997Z</time></trkpt><trkpt lat="44.59340552767272" lon="9.48476691472693"><ele>991.25</ele><time>2026-04-30T08:14:04.997Z</time></trkpt><trkpt lat="44.593373994733014" lon="9.484585703036862"><ele>990.0</ele><time>2026-04-30T08:14:05.997Z</time></trkpt><trkpt lat="44.59334562038826" lon="9.484433123552149"><ele>994.75</ele><time>2026-04-30T08:14:06.997Z</time></trkpt><trkpt lat="44.5932807081139" lon="9.484315100749878"><ele>999.5</ele><time>2026-04-30T08:14:07.997Z</time></trkpt><trkpt lat="44.59318676725641" lon="9.484196426069328"><ele>1004.25</ele><time>2026-04-30T08:14:08.997Z</time></trkpt><trkpt lat="44.593087057524066" lon="9.484120055466787"><ele>1009.0</ele><time>2026-04-30T08:14:09.997Z</time></trkpt><trkpt lat="44.592961891242446" lon="9.484078096557923"><ele>1008.0</ele><time>2026-04-30T08:14:10.997Z</time></trkpt><trkpt lat="44.59280480741429" lon="9.484078163662867"><ele>1007.0</ele><time>2026-04-30T08:14:11.997Z</time></trkpt><trkpt lat="44.5926459556371" lon="9.484086652336641"><ele>1006.0</ele><time>2026-04-30T08:14:12.997Z</time></trkpt><trkpt lat="44.5924795113184" lon="9.484058582253084"><ele>1006.0</ele><time>2026-04-30T08:14:13.997Z</time></trkpt><trkpt lat="44.59231788594817" lon="9.484069075352448"><ele>1006.0</ele><time>2026-04-30T08:14:14.997Z</time></trkpt><trkpt lat="44.59215582754798" lon="9.484048550422653"><ele>1006.0</ele><time>2026-04-30T08:14:15.997Z</time></trkpt><trkpt lat="44.59201756490485" lon="9.484063504219264"><ele>1008.3333333333333</ele><time>2026-04-30T08:14:16.997Z</time></trkpt><trkpt lat="44.591873268596466" lon="9.484032029647484"><ele>1010.6666666666667</ele><time>2026-04-30T08:14:17.997Z</time></trkpt><trkpt lat="44.591720240018276" lon="9.484022928423633"><ele>1013.0</ele><time>2026-04-30T08:14:18.997Z</time></trkpt><trkpt lat="44.5915694232811" lon="9.484015777419827"><ele>1013.0</ele><time>2026-04-30T08:14:19.997Z</time></trkpt><trkpt lat="44.59142708814701" lon="9.484009386223214"><ele>1013.0</ele><time>2026-04-30T08:14:20.997Z</time></trkpt><trkpt lat="44.59128186520816" lon="9.484003079931023"><ele>1013.0</ele><time>2026-04-30T08:14:21.997Z</time></trkpt><trkpt lat="44.59114106832406" lon="9.483997806021865"><ele>1013.0</ele><time>2026-04-30T08:14:22.997Z</time></trkpt><trkpt lat="44.59101888700555" lon="9.483994695073703"><ele>1015.25</ele><time>2026-04-30T08:14:23.997Z</time></trkpt><trkpt lat="44.590909678485396" lon="9.48399542947245"><ele>1017.5</ele><time>2026-04-30T08:14:24.997Z</time></trkpt><trkpt lat="44.59080035842885" lon="9.484043910155702"><ele>1019.75</ele><time>2026-04-30T08:14:25.997Z</time></trkpt><trkpt lat="44.590675098728205" lon="9.484089715254889"><ele>1022.0</ele><time>2026-04-30T08:14:26.997Z</time></trkpt><trkpt lat="44.590600106062226" lon="9.484212593477123"><ele>1022.0</ele><time>2026-04-30T08:14:27.997Z</time></trkpt><trkpt lat="44.59055727773448" lon="9.484384707171975"><ele>1022.0</ele><time>2026-04-30T08:14:28.997Z</time></trkpt><trkpt lat="44.59052324391417" lon="9.48454605411876"><ele>1022.0</ele><time>2026-04-30T08:14:29.997Z</time></trkpt><trkpt lat="44.59047693808773" lon="9.484702278335476"><ele>1022.0</ele><time>2026-04-30T08:14:30.997Z</time></trkpt><trkpt lat="44.590395864927274" lon="9.484828757383237"><ele>1025.0</ele><time>2026-04-30T08:14:31.997Z</time></trkpt><trkpt lat="44.59028022679622" lon="9.484947678638829"><ele>1028.0</ele><time>2026-04-30T08:14:32.997Z</time></trkpt><trkpt lat="44.59015798353131" lon="9.485063936857657"><ele>1031.0</ele><time>2026-04-30T08:14:33.997Z</time></trkpt><trkpt lat="44.59004968456357" lon="9.485194335610979"><ele>1034.0</ele><time>2026-04-30T08:14:34.997Z</time></trkpt><trkpt lat="44.58992207091761" lon="9.485318131830148"><ele>1032.5</ele><time>2026-04-30T08:14:35.997Z</time></trkpt><trkpt lat="44.58980126837279" lon="9.485439026345363"><ele>1031.0</ele><time>2026-04-30T08:14:36.997Z</time></trkpt><trkpt lat="44.589694290880715" lon="9.485557693978084"><ele>1029.5</ele><time>2026-04-30T08:14:37.997Z</time></trkpt><trkpt lat="44.58959540952789" lon="9.485671682333425"><ele>1028.0</ele><time>2026-04-30T08:14:38.997Z</time></trkpt><trkpt lat="44.589499137180006" lon="9.485767068057042"><ele>1028.0</ele><time>2026-04-30T08:14:39.997Z</time></trkpt><trkpt lat="44.589426961154885" lon="9.485851793825098"><ele>1028.0</ele><time>2026-04-30T08:14:40.997Z</time></trkpt><trkpt lat="44.58936371077114" lon="9.485893720621325"><ele>1028.0</ele><time>2026-04-30T08:14:41.997Z</time></trkpt><trkpt lat="44.589276322862524" lon="9.485806706240393"><ele>1028.0</ele><time>2026-04-30T08:14:43.997Z</time></trkpt><trkpt lat="44.58922330117071" lon="9.485726863793708"><ele>1028.0</ele><time>2026-04-30T08:14:44.997Z</time></trkpt><trkpt lat="44.589221180104175" lon="9.485626230818253"><ele>1028.0</ele><time>2026-04-30T08:14:45.997Z</time></trkpt><trkpt lat="44.58925573582261" lon="9.485508574317295"><ele>1029.2</ele><time>2026-04-30T08:14:46.997Z</time></trkpt><trkpt lat="44.58932026740894" lon="9.485388322302645"><ele>1030.4</ele><time>2026-04-30T08:14:47.997Z</time></trkpt><trkpt lat="44.58940413657074" lon="9.485320972243956"><ele>1031.6000000000001</ele><time>2026-04-30T08:14:49Z</time></trkpt><trkpt lat="44.58950651942584" lon="9.485249926177621"><ele>1032.8</ele><time>2026-04-30T08:14:50Z</time></trkpt><trkpt lat="44.589613069153216" lon="9.485172204369537"><ele>1034.0</ele><time>2026-04-30T08:14:51Z</time></trkpt><trkpt lat="44.58971633467075" lon="9.485091275876401"><ele>1034.0</ele><time>2026-04-30T08:14:52Z</time></trkpt><trkpt lat="44.58980761384036" lon="9.48501861670521"><ele>1034.0</ele><time>2026-04-30T08:14:53Z</time></trkpt><trkpt lat="44.58989860127761" lon="9.48494739829558"><ele>1034.0</ele><time>2026-04-30T08:14:54Z</time></trkpt><trkpt lat="44.58998563884238" lon="9.48487636771188"><ele>1034.0</ele><time>2026-04-30T08:14:55Z</time></trkpt><trkpt lat="44.59007137674578" lon="9.484763958954979"><ele>1034.0</ele><time>2026-04-30T08:14:56Z</time></trkpt><trkpt lat="44.59012602907086" lon="9.48460494265294"><ele>1039.3333333333335</ele><time>2026-04-30T08:14:57Z</time></trkpt><trkpt lat="44.59015839089489" lon="9.484392171397152"><ele>1044.6666666666667</ele><time>2026-04-30T08:14:58Z</time></trkpt><trkpt lat="44.590168453205834" lon="9.484171582107152"><ele>1050.0</ele><time>2026-04-30T08:14:59Z</time></trkpt><trkpt lat="44.59017121330278" lon="9.483957477672277"><ele>1049.5</ele><time>2026-04-30T08:15:00Z</time></trkpt><trkpt lat="44.590180914202435" lon="9.483750569989391"><ele>1049.0</ele><time>2026-04-30T08:15:01Z</time></trkpt><trkpt lat="44.59021210920991" lon="9.483586811010293"><ele>1048.5</ele><time>2026-04-30T08:15:02Z</time></trkpt><trkpt lat="44.59026648224608" lon="9.483462431263819"><ele>1048.0</ele><time>2026-04-30T08:15:03Z</time></trkpt><trkpt lat="44.590345574696215" lon="9.483356217409533"><ele>1048.0</ele><time>2026-04-30T08:15:04Z</time></trkpt><trkpt lat="44.59045147509555" lon="9.48326599035046"><ele>1048.0</ele><time>2026-04-30T08:15:05Z</time></trkpt><trkpt lat="44.590558572579035" lon="9.483211997556355"><ele>1048.0</ele><time>2026-04-30T08:15:06Z</time></trkpt><trkpt lat="44.59068777373305" lon="9.483151934071453"><ele>1048.0</ele><time>2026-04-30T08:15:07Z</time></trkpt><trkpt lat="44.59083307271963" lon="9.483154524603806"><ele>1048.0</ele><time>2026-04-30T08:15:08Z</time></trkpt><trkpt lat="44.591006284324294" lon="9.483185106845898"><ele>1048.0</ele><time>2026-04-30T08:15:09Z</time></trkpt><trkpt lat="44.591168426038465" lon="9.483146429762462"><ele>1048.0</ele><time>2026-04-30T08:15:10Z</time></trkpt><trkpt lat="44.59132340225209" lon="9.483150643042102"><ele>1046.6</ele><time>2026-04-30T08:15:11Z</time></trkpt><trkpt lat="44.59147335673385" lon="9.483135977764805"><ele>1045.1999999999998</ele><time>2026-04-30T08:15:12Z</time></trkpt><trkpt lat="44.591588454053394" lon="9.483152803031487"><ele>1043.8</ele><time>2026-04-30T08:15:13Z</time></trkpt><trkpt lat="44.59166097856057" lon="9.483112878045992"><ele>1042.3999999999999</ele><time>2026-04-30T08:15:14Z</time></trkpt><trkpt lat="44.5916993377486" lon="9.483042563896252"><ele>1041.0</ele><time>2026-04-30T08:15:15Z</time></trkpt><trkpt lat="44.59172914585746" lon="9.482934824951784"><ele>1044.75</ele><time>2026-04-30T08:15:16Z</time></trkpt><trkpt lat="44.59168711508246" lon="9.482805183893886"><ele>1048.5</ele><time>2026-04-30T08:15:17Z</time></trkpt><trkpt lat="44.59163179334576" lon="9.482658833421091"><ele>1052.25</ele><time>2026-04-30T08:15:18Z</time></trkpt><trkpt lat="44.591512239947484" lon="9.482581625467754"><ele>1056.0</ele><time>2026-04-30T08:15:18.999Z</time></trkpt><trkpt lat="44.591352408185" lon="9.482568547537882"><ele>1056.0</ele><time>2026-04-30T08:15:19.999Z</time></trkpt><trkpt lat="44.591191992766134" lon="9.482591326674948"><ele>1056.0</ele><time>2026-04-30T08:15:20.999Z</time></trkpt><trkpt lat="44.5910272956294" lon="9.482610412268526"><ele>1056.0</ele><time>2026-04-30T08:15:21.999Z</time></trkpt><trkpt lat="44.5908725625249" lon="9.482628029604138"><ele>1060.3333333333333</ele><time>2026-04-30T08:15:22.999Z</time></trkpt><trkpt lat="44.59070251138027" lon="9.482661458376253"><ele>1064.6666666666665</ele><time>2026-04-30T08:15:23.999Z</time></trkpt><trkpt lat="44.59054992363891" lon="9.482684836862134"><ele>1069.0</ele><time>2026-04-30T08:15:24.999Z</time></trkpt><trkpt lat="44.59039171679037" lon="9.482741908196184"><ele>1067.3333333333333</ele><time>2026-04-30T08:15:25.999Z</time></trkpt><trkpt lat="44.59023939912462" lon="9.4828350213712"><ele>1065.6666666666667</ele><time>2026-04-30T08:15:26.999Z</time></trkpt><trkpt lat="44.590112094438595" lon="9.482982253990231"><ele>1064.0</ele><time>2026-04-30T08:15:27.999Z</time></trkpt><trkpt lat="44.589996889112086" lon="9.483139779436915"><ele>1064.0</ele><time>2026-04-30T08:15:28.999Z</time></trkpt><trkpt lat="44.58986851831157" lon="9.483232026546444"><ele>1064.0</ele><time>2026-04-30T08:15:29.999Z</time></trkpt><trkpt lat="44.58974918536144" lon="9.483286561578407"><ele>1064.0</ele><time>2026-04-30T08:15:30.999Z</time></trkpt><trkpt lat="44.58963266069605" lon="9.48328963747051"><ele>1064.0</ele><time>2026-04-30T08:15:31.999Z</time></trkpt><trkpt lat="44.589537484472096" lon="9.483264925329761"><ele>1066.6666666666667</ele><time>2026-04-30T08:15:32.999Z</time></trkpt><trkpt lat="44.58941005506723" lon="9.4832482657583"><ele>1069.3333333333333</ele><time>2026-04-30T08:15:33.999Z</time></trkpt><trkpt lat="44.58922171102093" lon="9.483233355877967"><ele>1072.0</ele><time>2026-04-30T08:15:34.999Z</time></trkpt><trkpt lat="44.589048566253645" lon="9.483203385292265"><ele>1072.0</ele><time>2026-04-30T08:15:35.999Z</time></trkpt><trkpt lat="44.58888035338122" lon="9.483187490171783"><ele>1072.0</ele><time>2026-04-30T08:15:36.999Z</time></trkpt><trkpt lat="44.58872246383701" lon="9.483160929225994"><ele>1072.0</ele><time>2026-04-30T08:15:37.999Z</time></trkpt><trkpt lat="44.58856543659624" lon="9.483124768571589"><ele>1074.5</ele><time>2026-04-30T08:15:38.999Z</time></trkpt><trkpt lat="44.58841953128322" lon="9.483116264072569"><ele>1077.0</ele><time>2026-04-30T08:15:39.999Z</time></trkpt><trkpt lat="44.58829911864647" lon="9.483101907898558"><ele>1079.5</ele><time>2026-04-30T08:15:40.999Z</time></trkpt><trkpt lat="44.58820216273951" lon="9.483138739294187"><ele>1082.0</ele><time>2026-04-30T08:15:41.999Z</time></trkpt><trkpt lat="44.588099082079275" lon="9.48318046686496"><ele>1082.0</ele><time>2026-04-30T08:15:42.999Z</time></trkpt><trkpt lat="44.58794406404415" lon="9.483285709385699"><ele>1082.0</ele><time>2026-04-30T08:15:43.999Z</time></trkpt><trkpt lat="44.58787785622097" lon="9.483471414536739"><ele>1082.0</ele><time>2026-04-30T08:15:44.999Z</time></trkpt><trkpt lat="44.58779994093416" lon="9.483669290072738"><ele>1083.25</ele><time>2026-04-30T08:15:45.999Z</time></trkpt><trkpt lat="44.58773580967533" lon="9.483852326525016"><ele>1084.5</ele><time>2026-04-30T08:15:46.999Z</time></trkpt><trkpt lat="44.58767665233182" lon="9.484001764709914"><ele>1085.75</ele><time>2026-04-30T08:15:47.999Z</time></trkpt><trkpt lat="44.58762510247766" lon="9.484132504513845"><ele>1087.0</ele><time>2026-04-30T08:15:48.999Z</time></trkpt><trkpt lat="44.587570603578044" lon="9.484264586226258"><ele>1087.0</ele><time>2026-04-30T08:15:49.999Z</time></trkpt><trkpt lat="44.58746297613999" lon="9.484317681845953"><ele>1087.0</ele><time>2026-04-30T08:15:50.999Z</time></trkpt><trkpt lat="44.58733852951378" lon="9.484326832167351"><ele>1087.0</ele><time>2026-04-30T08:15:51.999Z</time></trkpt><trkpt lat="44.58720463586368" lon="9.484319773945206"><ele>1087.0</ele><time>2026-04-30T08:15:52.999Z</time></trkpt><trkpt lat="44.587055066183304" lon="9.48434015835583"><ele>1090.3333333333333</ele><time>2026-04-30T08:15:53.999Z</time></trkpt><trkpt lat="44.58690395129237" lon="9.484345333033367"><ele>1093.6666666666667</ele><time>2026-04-30T08:15:54.999Z</time></trkpt><trkpt lat="44.58674906084972" lon="9.484345543199948"><ele>1097.0</ele><time>2026-04-30T08:15:55.999Z</time></trkpt><trkpt lat="44.58658690666351" lon="9.484375534401453"><ele>1097.0</ele><time>2026-04-30T08:15:56.999Z</time></trkpt><trkpt lat="44.58642670911821" lon="9.48438190129878"><ele>1097.0</ele><time>2026-04-30T08:15:58Z</time></trkpt><trkpt lat="44.58626558766866" lon="9.48445431349397"><ele>1097.0</ele><time>2026-04-30T08:15:59Z</time></trkpt><trkpt lat="44.5861159017719" lon="9.484510896681911"><ele>1095.25</ele><time>2026-04-30T08:16:00Z</time></trkpt><trkpt lat="44.58599539950225" lon="9.48456208569133"><ele>1093.5</ele><time>2026-04-30T08:16:01Z</time></trkpt><trkpt lat="44.58587628883608" lon="9.484658622924965"><ele>1091.75</ele><time>2026-04-30T08:16:02Z</time></trkpt><trkpt lat="44.585761440234464" lon="9.484788868632478"><ele>1090.0</ele><time>2026-04-30T08:16:03Z</time></trkpt><trkpt lat="44.58566471978874" lon="9.484957664675713"><ele>1090.0</ele><time>2026-04-30T08:16:04Z</time></trkpt><trkpt lat="44.585572153142124" lon="9.485126543552662"><ele>1090.0</ele><time>2026-04-30T08:16:05Z</time></trkpt><trkpt lat="44.58548567295236" lon="9.485273176527194"><ele>1090.0</ele><time>2026-04-30T08:16:06Z</time></trkpt><trkpt lat="44.58537807358098" lon="9.485353108495556"><ele>1090.0</ele><time>2026-04-30T08:16:07Z</time></trkpt><trkpt lat="44.585303026335666" lon="9.485385511049515"><ele>1092.0</ele><time>2026-04-30T08:16:08Z</time></trkpt><trkpt lat="44.5852310710782" lon="9.485396300011761"><ele>1094.0</ele><time>2026-04-30T08:16:09Z</time></trkpt><trkpt lat="44.58516783481752" lon="9.485377027666027"><ele>1096.0</ele><time>2026-04-30T08:16:10Z</time></trkpt><trkpt lat="44.58507583815853" lon="9.485266947961787"><ele>1098.0</ele><time>2026-04-30T08:16:11Z</time></trkpt><trkpt lat="44.585008336234516" lon="9.485131290896058"><ele>1100.0</ele><time>2026-04-30T08:16:12Z</time></trkpt><trkpt lat="44.58500384392503" lon="9.484969624569544"><ele>1100.0</ele><time>2026-04-30T08:16:13Z</time></trkpt><trkpt lat="44.58502321443011" lon="9.484747151282997"><ele>1100.0</ele><time>2026-04-30T08:16:14Z</time></trkpt><trkpt lat="44.58507580743293" lon="9.484564585307341"><ele>1100.0</ele><time>2026-04-30T08:16:15Z</time></trkpt><trkpt lat="44.58513548501023" lon="9.484387753181291"><ele>1100.0</ele><time>2026-04-30T08:16:16Z</time></trkpt><trkpt lat="44.58519423232314" lon="9.484220070263516"><ele>1102.0</ele><time>2026-04-30T08:16:17Z</time></trkpt><trkpt lat="44.58525496340208" lon="9.484052736953299"><ele>1104.0</ele><time>2026-04-30T08:16:18Z</time></trkpt><trkpt lat="44.58530603338198" lon="9.48386417281742"><ele>1106.0</ele><time>2026-04-30T08:16:19Z</time></trkpt><trkpt lat="44.58534030105606" lon="9.483668631062132"><ele>1108.0</ele><time>2026-04-30T08:16:20Z</time></trkpt><trkpt lat="44.585411729961116" lon="9.48352240568564"><ele>1108.8</ele><time>2026-04-30T08:16:21Z</time></trkpt><trkpt lat="44.585483301363205" lon="9.483407199796789"><ele>1109.6</ele><time>2026-04-30T08:16:22Z</time></trkpt><trkpt lat="44.585543561442705" lon="9.483362017537042"><ele>1110.4</ele><time>2026-04-30T08:16:23Z</time></trkpt><trkpt lat="44.58563334673853" lon="9.483313638543414"><ele>1111.2</ele><time>2026-04-30T08:16:24Z</time></trkpt><trkpt lat="44.585752695560494" lon="9.483266908748314"><ele>1112.0</ele><time>2026-04-30T08:16:25Z</time></trkpt><trkpt lat="44.58587490663398" lon="9.483223391316937"><ele>1112.0</ele><time>2026-04-30T08:16:26Z</time></trkpt><trkpt lat="44.58600218918071" lon="9.483171458847865"><ele>1112.0</ele><time>2026-04-30T08:16:27Z</time></trkpt><trkpt lat="44.586131474380316" lon="9.483135377070449"><ele>1112.0</ele><time>2026-04-30T08:16:28Z</time></trkpt><trkpt lat="44.58624542982491" lon="9.483082021779495"><ele>1112.0</ele><time>2026-04-30T08:16:29Z</time></trkpt><trkpt lat="44.58633287430958" lon="9.483024327233279"><ele>1114.5</ele><time>2026-04-30T08:16:30Z</time></trkpt><trkpt lat="44.58641260755765" lon="9.482910304755194"><ele>1117.0</ele><time>2026-04-30T08:16:31Z</time></trkpt><trkpt lat="44.58648663690146" lon="9.482749965669552"><ele>1119.5</ele><time>2026-04-30T08:16:32Z</time></trkpt><trkpt lat="44.58650385288429" lon="9.482576170237477"><ele>1122.0</ele><time>2026-04-30T08:16:33Z</time></trkpt><trkpt lat="44.58650986624906" lon="9.482376064690307"><ele>1122.0</ele><time>2026-04-30T08:16:34Z</time></trkpt><trkpt lat="44.58649195976045" lon="9.482192724062516"><ele>1122.0</ele><time>2026-04-30T08:16:35Z</time></trkpt><trkpt lat="44.58644231160668" lon="9.482055183248269"><ele>1122.0</ele><time>2026-04-30T08:16:36Z</time></trkpt><trkpt lat="44.586357493623225" lon="9.481949513211426"><ele>1122.0</ele><time>2026-04-30T08:16:37Z</time></trkpt><trkpt lat="44.58625867408829" lon="9.481863129582054"><ele>1122.75</ele><time>2026-04-30T08:16:38Z</time></trkpt><trkpt lat="44.58614843010249" lon="9.481778782046012"><ele>1123.5</ele><time>2026-04-30T08:16:39Z</time></trkpt><trkpt lat="44.586025607173184" lon="9.481758645378951"><ele>1124.25</ele><time>2026-04-30T08:16:40Z</time></trkpt><trkpt lat="44.58588117940105" lon="9.481766289402195"><ele>1125.0</ele><time>2026-04-30T08:16:41Z</time></trkpt><trkpt lat="44.58575519455091" lon="9.481831385028762"><ele>1125.0</ele><time>2026-04-30T08:16:42Z</time></trkpt><trkpt lat="44.585618153725456" lon="9.481854078496797"><ele>1125.0</ele><time>2026-04-30T08:16:43Z</time></trkpt><trkpt lat="44.5854921494146" lon="9.481890020115136"><ele>1125.0</ele><time>2026-04-30T08:16:44Z</time></trkpt><trkpt lat="44.58536787985954" lon="9.481922266666324"><ele>1125.0</ele><time>2026-04-30T08:16:45Z</time></trkpt><trkpt lat="44.585246582698375" lon="9.481950280644234"><ele>1125.8</ele><time>2026-04-30T08:16:46Z</time></trkpt><trkpt lat="44.585140635572415" lon="9.481965478931091"><ele>1126.6</ele><time>2026-04-30T08:16:47Z</time></trkpt><trkpt lat="44.58504283347156" lon="9.481935878079453"><ele>1127.4</ele><time>2026-04-30T08:16:48Z</time></trkpt><trkpt lat="44.58497878678901" lon="9.481879589773747"><ele>1128.2</ele><time>2026-04-30T08:16:49Z</time></trkpt><trkpt lat="44.58490008644319" lon="9.481817371097932"><ele>1129.0</ele><time>2026-04-30T08:16:50Z</time></trkpt><trkpt lat="44.58480196574905" lon="9.481735196085683"><ele>1129.0</ele><time>2026-04-30T08:16:51Z</time></trkpt><trkpt lat="44.58469147800306" lon="9.481653494343412"><ele>1129.0</ele><time>2026-04-30T08:16:52Z</time></trkpt><trkpt lat="44.584570042454196" lon="9.48160060470185"><ele>1129.0</ele><time>2026-04-30T08:16:53Z</time></trkpt><trkpt lat="44.5844401255852" lon="9.481624461359143"><ele>1129.0</ele><time>2026-04-30T08:16:54Z</time></trkpt><trkpt lat="44.58433145639516" lon="9.481658142500958"><ele>1131.0</ele><time>2026-04-30T08:16:55Z</time></trkpt><trkpt lat="44.584204862737906" lon="9.4817348896781"><ele>1133.0</ele><time>2026-04-30T08:16:56Z</time></trkpt><trkpt lat="44.58409472864284" lon="9.48181541010315"><ele>1135.0</ele><time>2026-04-30T08:16:57Z</time></trkpt><trkpt lat="44.5839879273559" lon="9.481853062784317"><ele>1137.0</ele><time>2026-04-30T08:16:58Z</time></trkpt><trkpt lat="44.58388954634927" lon="9.481807784743074"><ele>1137.0</ele><time>2026-04-30T08:16:59Z</time></trkpt><trkpt lat="44.583771182390365" lon="9.481791283597818"><ele>1137.0</ele><time>2026-04-30T08:17:00Z</time></trkpt><trkpt lat="44.58367175963279" lon="9.481788827691183"><ele>1137.0</ele><time>2026-04-30T08:17:01Z</time></trkpt><trkpt lat="44.583579126411955" lon="9.481868595082735"><ele>1137.0</ele><time>2026-04-30T08:17:02Z</time></trkpt><trkpt lat="44.58349805291942" lon="9.481950197820623"><ele>1137.0</ele><time>2026-04-30T08:17:03Z</time></trkpt><trkpt lat="44.58346023961444" lon="9.482071271431995"><ele>1139.6</ele><time>2026-04-30T08:17:04Z</time></trkpt><trkpt lat="44.58344753446291" lon="9.482232201982697"><ele>1142.2</ele><time>2026-04-30T08:17:05Z</time></trkpt><trkpt lat="44.58344365744401" lon="9.482388210754277"><ele>1144.8</ele><time>2026-04-30T08:17:06Z</time></trkpt><trkpt lat="44.583418631096535" lon="9.482531464559703"><ele>1147.4</ele><time>2026-04-30T08:17:07Z</time></trkpt><trkpt lat="44.58337744274708" lon="9.482668774292268"><ele>1150.0</ele><time>2026-04-30T08:17:08Z</time></trkpt><trkpt lat="44.5833235335589" lon="9.482804153028978"><ele>1146.5</ele><time>2026-04-30T08:17:09Z</time></trkpt><trkpt lat="44.583264248017706" lon="9.482941587168137"><ele>1143.0</ele><time>2026-04-30T08:17:10Z</time></trkpt><trkpt lat="44.5832050287261" lon="9.48308042692347"><ele>1139.5</ele><time>2026-04-30T08:17:11Z</time></trkpt><trkpt lat="44.583117675143576" lon="9.48319223399537"><ele>1136.0</ele><time>2026-04-30T08:17:12Z</time></trkpt><trkpt lat="44.58303992643153" lon="9.483313315010156"><ele>1136.0</ele><time>2026-04-30T08:17:13Z</time></trkpt><trkpt lat="44.58294851159849" lon="9.483401808322823"><ele>1136.0</ele><time>2026-04-30T08:17:14Z</time></trkpt><trkpt lat="44.582848155786145" lon="9.483481515919765"><ele>1136.0</ele><time>2026-04-30T08:17:15Z</time></trkpt><trkpt lat="44.58273735292425" lon="9.483569521236266"><ele>1136.0</ele><time>2026-04-30T08:17:16Z</time></trkpt><trkpt lat="44.58261280089822" lon="9.483701964503778"><ele>1138.0</ele><time>2026-04-30T08:17:17Z</time></trkpt><trkpt lat="44.58251516050869" lon="9.48383545391491"><ele>1140.0</ele><time>2026-04-30T08:17:18Z</time></trkpt><trkpt lat="44.58242858187055" lon="9.483982705486184"><ele>1142.0</ele><time>2026-04-30T08:17:19Z</time></trkpt><trkpt lat="44.58238935191681" lon="9.484151258672837"><ele>1144.0</ele><time>2026-04-30T08:17:20Z</time></trkpt><trkpt lat="44.58232425243743" lon="9.484303421111479"><ele>1144.0</ele><time>2026-04-30T08:17:21Z</time></trkpt><trkpt lat="44.58223286807862" lon="9.484422048165088"><ele>1144.0</ele><time>2026-04-30T08:17:22Z</time></trkpt><trkpt lat="44.582125528045616" lon="9.48446723723292"><ele>1144.0</ele><time>2026-04-30T08:17:23Z</time></trkpt><trkpt lat="44.58202616210364" lon="9.48444980812422"><ele>1144.0</ele><time>2026-04-30T08:17:24Z</time></trkpt><trkpt lat="44.581909625164734" lon="9.484434579786724"><ele>1146.0</ele><time>2026-04-30T08:17:25Z</time></trkpt><trkpt lat="44.58175017108425" lon="9.484429097012509"><ele>1148.0</ele><time>2026-04-30T08:17:26Z</time></trkpt><trkpt lat="44.58161163128472" lon="9.484384989705626"><ele>1150.0</ele><time>2026-04-30T08:17:27Z</time></trkpt><trkpt lat="44.5814816463865" lon="9.484305072736262"><ele>1152.0</ele><time>2026-04-30T08:17:28Z</time></trkpt><trkpt lat="44.581374429196046" lon="9.4842223101008"><ele>1152.0</ele><time>2026-04-30T08:17:29Z</time></trkpt><trkpt lat="44.58127864448489" lon="9.484103279647668"><ele>1152.0</ele><time>2026-04-30T08:17:30Z</time></trkpt><trkpt lat="44.581148432698626" lon="9.483916934748134"><ele>1152.0</ele><time>2026-04-30T08:17:31Z</time></trkpt><trkpt lat="44.58106208961696" lon="9.483784039919922"><ele>1152.0</ele><time>2026-04-30T08:17:32Z</time></trkpt><trkpt lat="44.581005462657664" lon="9.483613231378953"><ele>1151.25</ele><time>2026-04-30T08:17:33Z</time></trkpt><trkpt lat="44.58099977265059" lon="9.483446769529035"><ele>1150.5</ele><time>2026-04-30T08:17:34Z</time></trkpt><trkpt lat="44.581005110408924" lon="9.48328569385437"><ele>1149.75</ele><time>2026-04-30T08:17:35Z</time></trkpt><trkpt lat="44.58104067858646" lon="9.483115523768328"><ele>1149.0</ele><time>2026-04-30T08:17:36Z</time></trkpt><trkpt lat="44.58108091323002" lon="9.482951006021347"><ele>1151.25</ele><time>2026-04-30T08:17:37Z</time></trkpt><trkpt lat="44.58113017929089" lon="9.4827557716081"><ele>1153.5</ele><time>2026-04-30T08:17:38Z</time></trkpt><trkpt lat="44.581158511402656" lon="9.482546761344004"><ele>1155.75</ele><time>2026-04-30T08:17:39Z</time></trkpt><trkpt lat="44.581152365426455" lon="9.482350408272092"><ele>1158.0</ele><time>2026-04-30T08:17:40Z</time></trkpt><trkpt lat="44.58112088921808" lon="9.48216049483504"><ele>1159.25</ele><time>2026-04-30T08:17:40.999Z</time></trkpt><trkpt lat="44.581143432134915" lon="9.481974117369377"><ele>1160.5</ele><time>2026-04-30T08:17:41.999Z</time></trkpt><trkpt lat="44.58106820554779" lon="9.481823146085176"><ele>1161.75</ele><time>2026-04-30T08:17:42.999Z</time></trkpt><trkpt lat="44.58100005984438" lon="9.481677257967052"><ele>1163.0</ele><time>2026-04-30T08:17:43.999Z</time></trkpt><trkpt lat="44.58097990078144" lon="9.481476934895474"><ele>1163.0</ele><time>2026-04-30T08:17:44.999Z</time></trkpt><trkpt lat="44.58095468223621" lon="9.481273199869568"><ele>1163.0</ele><time>2026-04-30T08:17:45.999Z</time></trkpt><trkpt lat="44.580920461241654" lon="9.481092716756095"><ele>1163.0</ele><time>2026-04-30T08:17:46.999Z</time></trkpt><trkpt lat="44.580869179786674" lon="9.480935160049757"><ele>1163.0</ele><time>2026-04-30T08:17:47.999Z</time></trkpt><trkpt lat="44.580795347092796" lon="9.480800468402052"><ele>1165.25</ele><time>2026-04-30T08:17:48.999Z</time></trkpt><trkpt lat="44.58068722457134" lon="9.480717293671932"><ele>1167.5</ele><time>2026-04-30T08:17:49.999Z</time></trkpt><trkpt lat="44.580562676754646" lon="9.480656783325706"><ele>1169.75</ele><time>2026-04-30T08:17:50.999Z</time></trkpt><trkpt lat="44.58044773513007" lon="9.480714362738732"><ele>1172.0</ele><time>2026-04-30T08:17:51.999Z</time></trkpt><trkpt lat="44.580321418971735" lon="9.480786313271949"><ele>1170.5</ele><time>2026-04-30T08:17:52.999Z</time></trkpt><trkpt lat="44.58021416233618" lon="9.480944514023687"><ele>1169.0</ele><time>2026-04-30T08:17:53.999Z</time></trkpt><trkpt lat="44.580142162014326" lon="9.481103751799667"><ele>1167.5</ele><time>2026-04-30T08:17:54.999Z</time></trkpt><trkpt lat="44.58004862479249" lon="9.481222475785485"><ele>1166.0</ele><time>2026-04-30T08:17:55.999Z</time></trkpt><trkpt lat="44.57997566185378" lon="9.481346747645322"><ele>1166.0</ele><time>2026-04-30T08:17:56.999Z</time></trkpt><trkpt lat="44.57988382088997" lon="9.481459792086127"><ele>1166.0</ele><time>2026-04-30T08:17:57.999Z</time></trkpt><trkpt lat="44.579794757959" lon="9.48144345281613"><ele>1166.0</ele><time>2026-04-30T08:17:58.999Z</time></trkpt><trkpt lat="44.57972702742413" lon="9.481426335370264"><ele>1166.0</ele><time>2026-04-30T08:17:59.999Z</time></trkpt><trkpt lat="44.579600297809364" lon="9.481366435278874"><ele>1166.0</ele><time>2026-04-30T08:18:00.999Z</time></trkpt><trkpt lat="44.57945430339403" lon="9.481323717509724"><ele>1168.25</ele><time>2026-04-30T08:18:01.999Z</time></trkpt><trkpt lat="44.579314399104376" lon="9.481262433889567"><ele>1170.5</ele><time>2026-04-30T08:18:02.999Z</time></trkpt><trkpt lat="44.57918802967121" lon="9.481237581053506"><ele>1172.75</ele><time>2026-04-30T08:18:03.999Z</time></trkpt><trkpt lat="44.57905309278671" lon="9.481214125278226"><ele>1175.0</ele><time>2026-04-30T08:18:04.999Z</time></trkpt><trkpt lat="44.57891573187087" lon="9.481290204922423"><ele>1175.0</ele><time>2026-04-30T08:18:05.999Z</time></trkpt><trkpt lat="44.57880500779788" lon="9.481405547790867"><ele>1175.0</ele><time>2026-04-30T08:18:06.999Z</time></trkpt><trkpt lat="44.57870131872697" lon="9.481549735580284"><ele>1175.0</ele><time>2026-04-30T08:18:07.999Z</time></trkpt><trkpt lat="44.57862197024498" lon="9.481732518844185"><ele>1175.0</ele><time>2026-04-30T08:18:08.999Z</time></trkpt><trkpt lat="44.57854617009967" lon="9.481904600997208"><ele>1180.5</ele><time>2026-04-30T08:18:09.999Z</time></trkpt><trkpt lat="44.57849378966336" lon="9.48210093298156"><ele>1186.0</ele><time>2026-04-30T08:18:10.999Z</time></trkpt><trkpt lat="44.57846205266024" lon="9.482311092225506"><ele>1191.5</ele><time>2026-04-30T08:18:11.999Z</time></trkpt><trkpt lat="44.57844108748444" lon="9.48249543917777"><ele>1197.0</ele><time>2026-04-30T08:18:12.999Z</time></trkpt><trkpt lat="44.5784415028569" lon="9.482687439283584"><ele>1197.0</ele><time>2026-04-30T08:18:13.999Z</time></trkpt><trkpt lat="44.57849429590819" lon="9.482902947366636"><ele>1197.0</ele><time>2026-04-30T08:18:14.999Z</time></trkpt><trkpt lat="44.578543595684046" lon="9.48309871681953"><ele>1197.0</ele><time>2026-04-30T08:18:15.999Z</time></trkpt><trkpt lat="44.57856820438023" lon="9.483293595060061"><ele>1199.25</ele><time>2026-04-30T08:18:16.999Z</time></trkpt><trkpt lat="44.5786063029932" lon="9.483509305861741"><ele>1201.5</ele><time>2026-04-30T08:18:17.999Z</time></trkpt><trkpt lat="44.578650000428276" lon="9.483693947951805"><ele>1203.75</ele><time>2026-04-30T08:18:18.999Z</time></trkpt><trkpt lat="44.57866126439019" lon="9.483859776921932"><ele>1206.0</ele><time>2026-04-30T08:18:19.999Z</time></trkpt><trkpt lat="44.578657181217665" lon="9.484039271794602"><ele>1206.3999999999999</ele><time>2026-04-30T08:18:20.999Z</time></trkpt><trkpt lat="44.5786379798862" lon="9.484208306376834"><ele>1206.8</ele><time>2026-04-30T08:18:21.999Z</time></trkpt><trkpt lat="44.5786001237136" lon="9.484360098575694"><ele>1207.1999999999998</ele><time>2026-04-30T08:18:22.999Z</time></trkpt><trkpt lat="44.57854879192229" lon="9.484466201790248"><ele>1207.6</ele><time>2026-04-30T08:18:23.999Z</time></trkpt><trkpt lat="44.57847730381582" lon="9.484539633066818"><ele>1208.0</ele><time>2026-04-30T08:18:24.999Z</time></trkpt><trkpt lat="44.57838205279791" lon="9.4845936418522"><ele>1202.0</ele><time>2026-04-30T08:18:25.999Z</time></trkpt><trkpt lat="44.57825327228207" lon="9.484603212176284"><ele>1196.0</ele><time>2026-04-30T08:18:26.999Z</time></trkpt><trkpt lat="44.578122438960364" lon="9.484626557304821"><ele>1190.0</ele><time>2026-04-30T08:18:27.999Z</time></trkpt><trkpt lat="44.57799995951568" lon="9.48469770002593"><ele>1184.0</ele><time>2026-04-30T08:18:28.999Z</time></trkpt><trkpt lat="44.577880352983186" lon="9.484780679412463"><ele>1188.25</ele><time>2026-04-30T08:18:29.999Z</time></trkpt><trkpt lat="44.577781490344144" lon="9.484887074385558"><ele>1192.5</ele><time>2026-04-30T08:18:30.999Z</time></trkpt><trkpt lat="44.577660045552314" lon="9.484940194809143"><ele>1196.75</ele><time>2026-04-30T08:18:31.999Z</time></trkpt><trkpt lat="44.57753007242721" lon="9.484944982651202"><ele>1201.0</ele><time>2026-04-30T08:18:32.999Z</time></trkpt><trkpt lat="44.577383505629456" lon="9.484875084957693"><ele>1201.0</ele><time>2026-04-30T08:18:33.999Z</time></trkpt><trkpt lat="44.57723429035469" lon="9.484855886195316"><ele>1201.0</ele><time>2026-04-30T08:18:34.999Z</time></trkpt><trkpt lat="44.5770850511877" lon="9.484856504548153"><ele>1201.0</ele><time>2026-04-30T08:18:35.999Z</time></trkpt><trkpt lat="44.576948930270845" lon="9.484863233445544"><ele>1201.0</ele><time>2026-04-30T08:18:36.999Z</time></trkpt><trkpt lat="44.57682399900346" lon="9.48492645775794"><ele>1204.25</ele><time>2026-04-30T08:18:37.999Z</time></trkpt><trkpt lat="44.576720624229914" lon="9.48502881657039"><ele>1207.5</ele><time>2026-04-30T08:18:38.999Z</time></trkpt><trkpt lat="44.57663504632895" lon="9.485150758537735"><ele>1210.75</ele><time>2026-04-30T08:18:39.999Z</time></trkpt><trkpt lat="44.57652711463274" lon="9.485198175483013"><ele>1214.0</ele><time>2026-04-30T08:18:40.999Z</time></trkpt><trkpt lat="44.576423355719996" lon="9.485209015597434"><ele>1214.0</ele><time>2026-04-30T08:18:41.999Z</time></trkpt><trkpt lat="44.57633624666536" lon="9.48519986592433"><ele>1214.0</ele><time>2026-04-30T08:18:42.999Z</time></trkpt><trkpt lat="44.57623026486096" lon="9.485160172117896"><ele>1214.0</ele><time>2026-04-30T08:18:43.999Z</time></trkpt><trkpt lat="44.57612474719428" lon="9.48505475085422"><ele>1214.0</ele><time>2026-04-30T08:18:44.999Z</time></trkpt><trkpt lat="44.57599768525553" lon="9.484966731802608"><ele>1213.25</ele><time>2026-04-30T08:18:45.999Z</time></trkpt><trkpt lat="44.575879359340576" lon="9.484882048736711"><ele>1212.5</ele><time>2026-04-30T08:18:46.999Z</time></trkpt><trkpt lat="44.575762246131575" lon="9.484801528040126"><ele>1211.75</ele><time>2026-04-30T08:18:47.999Z</time></trkpt><trkpt lat="44.575655384774585" lon="9.484734017014102"><ele>1211.0</ele><time>2026-04-30T08:18:48.999Z</time></trkpt><trkpt lat="44.5755419527194" lon="9.484683693522552"><ele>1211.0</ele><time>2026-04-30T08:18:49.999Z</time></trkpt><trkpt lat="44.57542202185661" lon="9.484679760578636"><ele>1211.0</ele><time>2026-04-30T08:18:50.999Z</time></trkpt><trkpt lat="44.57529379490806" lon="9.484734950610031"><ele>1211.0</ele><time>2026-04-30T08:18:51.999Z</time></trkpt><trkpt lat="44.575199725018074" lon="9.484817128225192"><ele>1211.0</ele><time>2026-04-30T08:18:52.999Z</time></trkpt><trkpt lat="44.575147979994895" lon="9.484953380777755"><ele>1214.25</ele><time>2026-04-30T08:18:53.999Z</time></trkpt><trkpt lat="44.57508309840027" lon="9.485084038183771"><ele>1217.5</ele><time>2026-04-30T08:18:54.999Z</time></trkpt><trkpt lat="44.57505143818939" lon="9.485252881430132"><ele>1220.75</ele><time>2026-04-30T08:18:55.999Z</time></trkpt><trkpt lat="44.57504429598211" lon="9.485438178085666"><ele>1224.0</ele><time>2026-04-30T08:18:56.999Z</time></trkpt><trkpt lat="44.575070953948824" lon="9.485619442708849"><ele>1226.25</ele><time>2026-04-30T08:18:57.999Z</time></trkpt><trkpt lat="44.5751288355712" lon="9.485796494607087"><ele>1228.5</ele><time>2026-04-30T08:18:58.999Z</time></trkpt><trkpt lat="44.57517429372189" lon="9.485975380409698"><ele>1230.75</ele><time>2026-04-30T08:18:59.999Z</time></trkpt><trkpt lat="44.575194782709396" lon="9.486188951184845"><ele>1233.0</ele><time>2026-04-30T08:19:00.999Z</time></trkpt><trkpt lat="44.57522922483484" lon="9.486392631509847"><ele>1236.75</ele><time>2026-04-30T08:19:01.999Z</time></trkpt><trkpt lat="44.575274205137525" lon="9.486579279265332"><ele>1240.5</ele><time>2026-04-30T08:19:02.999Z</time></trkpt><trkpt lat="44.575296453027825" lon="9.486766450519559"><ele>1244.25</ele><time>2026-04-30T08:19:03.999Z</time></trkpt><trkpt lat="44.5753136344367" lon="9.486949077039112"><ele>1248.0</ele><time>2026-04-30T08:19:04.999Z</time></trkpt><trkpt lat="44.57535238084443" lon="9.487137862352087"><ele>1240.75</ele><time>2026-04-30T08:19:05.999Z</time></trkpt><trkpt lat="44.57541048280301" lon="9.487310639795421"><ele>1233.5</ele><time>2026-04-30T08:19:06.999Z</time></trkpt><trkpt lat="44.57547197125593" lon="9.487464726160539"><ele>1226.25</ele><time>2026-04-30T08:19:07.999Z</time></trkpt><trkpt lat="44.575512848738306" lon="9.487622769074033"><ele>1219.0</ele><time>2026-04-30T08:19:08.999Z</time></trkpt><trkpt lat="44.575525447622304" lon="9.487770803068976"><ele>1219.0</ele><time>2026-04-30T08:19:09.999Z</time></trkpt><trkpt lat="44.57552339619744" lon="9.487889316433659"><ele>1219.0</ele><time>2026-04-30T08:19:10.999Z</time></trkpt><trkpt lat="44.575473032255154" lon="9.48804498440906"><ele>1219.0</ele><time>2026-04-30T08:19:11.999Z</time></trkpt><trkpt lat="44.57539917264646" lon="9.488187793269466"><ele>1219.0</ele><time>2026-04-30T08:19:12.999Z</time></trkpt><trkpt lat="44.57537757503746" lon="9.488370102533949"><ele>1223.5</ele><time>2026-04-30T08:19:13.999Z</time></trkpt><trkpt lat="44.575309206500236" lon="9.488520603599868"><ele>1228.0</ele><time>2026-04-30T08:19:14.999Z</time></trkpt><trkpt lat="44.575214390192805" lon="9.488686975973899"><ele>1232.5</ele><time>2026-04-30T08:19:15.999Z</time></trkpt><trkpt lat="44.57512988231633" lon="9.488870509372978"><ele>1237.0</ele><time>2026-04-30T08:19:16.999Z</time></trkpt><trkpt lat="44.57504913001775" lon="9.48904201420259"><ele>1237.0</ele><time>2026-04-30T08:19:17.999Z</time></trkpt><trkpt lat="44.57496479990245" lon="9.489208751795912"><ele>1237.0</ele><time>2026-04-30T08:19:18.999Z</time></trkpt><trkpt lat="44.57489404105379" lon="9.48939684797637"><ele>1237.0</ele><time>2026-04-30T08:19:19.999Z</time></trkpt><trkpt lat="44.57480704445128" lon="9.48952551193716"><ele>1237.0</ele><time>2026-04-30T08:19:20.999Z</time></trkpt><trkpt lat="44.57479968781525" lon="9.489678878196218"><ele>1238.75</ele><time>2026-04-30T08:19:21.999Z</time></trkpt><trkpt lat="44.57482353774257" lon="9.489799735807727"><ele>1240.5</ele><time>2026-04-30T08:19:22.999Z</time></trkpt><trkpt lat="44.57487104631497" lon="9.489941421245332"><ele>1242.25</ele><time>2026-04-30T08:19:23.999Z</time></trkpt><trkpt lat="44.57494033800419" lon="9.490086455963441"><ele>1244.0</ele><time>2026-04-30T08:19:24.999Z</time></trkpt><trkpt lat="44.5750726354823" lon="9.490196432603621"><ele>1244.0</ele><time>2026-04-30T08:19:25.999Z</time></trkpt><trkpt lat="44.57516659318914" lon="9.490370113125131"><ele>1244.0</ele><time>2026-04-30T08:19:26.999Z</time></trkpt><trkpt lat="44.575267570644925" lon="9.490576652889768"><ele>1244.0</ele><time>2026-04-30T08:19:27.999Z</time></trkpt><trkpt lat="44.5753618303196" lon="9.490770263399211"><ele>1242.3333333333335</ele><time>2026-04-30T08:19:28.999Z</time></trkpt><trkpt lat="44.57541907668745" lon="9.49098053237495"><ele>1240.6666666666667</ele><time>2026-04-30T08:19:29.999Z</time></trkpt><trkpt lat="44.575474891344435" lon="9.49119323706298"><ele>1239.0</ele><time>2026-04-30T08:19:30.999Z</time></trkpt><trkpt lat="44.57553394864011" lon="9.491398745207569"><ele>1239.0</ele><time>2026-04-30T08:19:31.999Z</time></trkpt><trkpt lat="44.57558712343776" lon="9.491603468742392"><ele>1239.0</ele><time>2026-04-30T08:19:32.999Z</time></trkpt><trkpt lat="44.57564970849963" lon="9.49180947774013"><ele>1239.0</ele><time>2026-04-30T08:19:33.999Z</time></trkpt><trkpt lat="44.57569342401999" lon="9.492002158714033"><ele>1239.8</ele><time>2026-04-30T08:19:34.999Z</time></trkpt><trkpt lat="44.57573677938548" lon="9.492132808794057"><ele>1240.6000000000001</ele><time>2026-04-30T08:19:35.999Z</time></trkpt><trkpt lat="44.57575479794651" lon="9.492291825478166"><ele>1241.4</ele><time>2026-04-30T08:19:36.999Z</time></trkpt><trkpt lat="44.57572808962411" lon="9.492392871655971"><ele>1242.2</ele><time>2026-04-30T08:19:37.999Z</time></trkpt><trkpt lat="44.57567055906933" lon="9.492509646143123"><ele>1243.0</ele><time>2026-04-30T08:19:38.999Z</time></trkpt><trkpt lat="44.575590456626465" lon="9.49260861908124"><ele>1243.0</ele><time>2026-04-30T08:19:39.999Z</time></trkpt><trkpt lat="44.575501268864585" lon="9.492740288193302"><ele>1243.0</ele><time>2026-04-30T08:19:40.999Z</time></trkpt><trkpt lat="44.5754375682119" lon="9.492892075956915"><ele>1243.0</ele><time>2026-04-30T08:19:41.999Z</time></trkpt><trkpt lat="44.57541495023089" lon="9.493065001294333"><ele>1243.0</ele><time>2026-04-30T08:19:42.999Z</time></trkpt><trkpt lat="44.57543600098773" lon="9.493243725565518"><ele>1243.5</ele><time>2026-04-30T08:19:43.999Z</time></trkpt><trkpt lat="44.575495640617746" lon="9.493390710790477"><ele>1244.0</ele><time>2026-04-30T08:19:44.999Z</time></trkpt><trkpt lat="44.5755726071317" lon="9.493524758722748"><ele>1244.5</ele><time>2026-04-30T08:19:45.999Z</time></trkpt><trkpt lat="44.575650110063975" lon="9.49365937104474"><ele>1245.0</ele><time>2026-04-30T08:19:46.999Z</time></trkpt><trkpt lat="44.57571511433442" lon="9.49383718607406"><ele>1247.25</ele><time>2026-04-30T08:19:47.999Z</time></trkpt><trkpt lat="44.57576065547521" lon="9.494012720751735"><ele>1249.5</ele><time>2026-04-30T08:19:48.999Z</time></trkpt><trkpt lat="44.57580111667406" lon="9.494180471968965"><ele>1251.75</ele><time>2026-04-30T08:19:49.999Z</time></trkpt><trkpt lat="44.57582508734996" lon="9.494339025296345"><ele>1254.0</ele><time>2026-04-30T08:19:50.999Z</time></trkpt><trkpt lat="44.575853556596144" lon="9.494478505649903"><ele>1255.0</ele><time>2026-04-30T08:19:51.999Z</time></trkpt><trkpt lat="44.57583496508678" lon="9.494632521400208"><ele>1256.0</ele><time>2026-04-30T08:19:52.999Z</time></trkpt><trkpt lat="44.57578749718131" lon="9.494776034441859"><ele>1257.0</ele><time>2026-04-30T08:19:53.999Z</time></trkpt><trkpt lat="44.57577459575949" lon="9.494969959292645"><ele>1258.0</ele><time>2026-04-30T08:19:54.999Z</time></trkpt><trkpt lat="44.575727791860274" lon="9.49515015991704"><ele>1258.0</ele><time>2026-04-30T08:19:55.999Z</time></trkpt><trkpt lat="44.57568640320719" lon="9.495330927763092"><ele>1258.0</ele><time>2026-04-30T08:19:56.999Z</time></trkpt><trkpt lat="44.57564254464007" lon="9.495517892264353"><ele>1258.0</ele><time>2026-04-30T08:19:57.999Z</time></trkpt><trkpt lat="44.57560064968573" lon="9.495694335398593"><ele>1258.0</ele><time>2026-04-30T08:19:58.999Z</time></trkpt><trkpt lat="44.57555816359106" lon="9.49590336456685"><ele>1258.0</ele><time>2026-04-30T08:19:59.999Z</time></trkpt><trkpt lat="44.57548663820022" lon="9.496087536477505"><ele>1258.0</ele><time>2026-04-30T08:20:00.999Z</time></trkpt><trkpt lat="44.575410860564574" lon="9.496238170698375"><ele>1258.0</ele><time>2026-04-30T08:20:01.999Z</time></trkpt><trkpt lat="44.57532755352968" lon="9.496395191830226"><ele>1258.0</ele><time>2026-04-30T08:20:02.999Z</time></trkpt><trkpt lat="44.57524468626201" lon="9.496546256642878"><ele>1263.3333333333333</ele><time>2026-04-30T08:20:03.998Z</time></trkpt><trkpt lat="44.57516126838256" lon="9.49672337757694"><ele>1268.6666666666667</ele><time>2026-04-30T08:20:04.998Z</time></trkpt><trkpt lat="44.57509853618117" lon="9.49691447732512"><ele>1274.0</ele><time>2026-04-30T08:20:05.998Z</time></trkpt><trkpt lat="44.57502675880802" lon="9.497113094352388"><ele>1274.0</ele><time>2026-04-30T08:20:06.998Z</time></trkpt><trkpt lat="44.57497077450171" lon="9.497292929080972"><ele>1274.0</ele><time>2026-04-30T08:20:07.998Z</time></trkpt><trkpt lat="44.57490814078327" lon="9.497485917883894"><ele>1274.0</ele><time>2026-04-30T08:20:08.998Z</time></trkpt><trkpt lat="44.57486642566808" lon="9.497650839762287"><ele>1274.0</ele><time>2026-04-30T08:20:09.998Z</time></trkpt><trkpt lat="44.57483858852866" lon="9.497788535126825"><ele>1275.0</ele><time>2026-04-30T08:20:10.998Z</time></trkpt><trkpt lat="44.57481224887669" lon="9.497932733716643"><ele>1276.0</ele><time>2026-04-30T08:20:11.998Z</time></trkpt><trkpt lat="44.57483637532591" lon="9.498081702986054"><ele>1277.0</ele><time>2026-04-30T08:20:12.998Z</time></trkpt><trkpt lat="44.574875166361934" lon="9.498226744486807"><ele>1278.0</ele><time>2026-04-30T08:20:13.998Z</time></trkpt><trkpt lat="44.574935525192174" lon="9.498362829636967"><ele>1279.0</ele><time>2026-04-30T08:20:14.998Z</time></trkpt><trkpt lat="44.575044699370125" lon="9.498452289704913"><ele>1279.0</ele><time>2026-04-30T08:20:15.998Z</time></trkpt><trkpt lat="44.57517918736568" lon="9.49847653283212"><ele>1279.0</ele><time>2026-04-30T08:20:16.998Z</time></trkpt><trkpt lat="44.57531190408514" lon="9.498477312884617"><ele>1279.0</ele><time>2026-04-30T08:20:17.998Z</time></trkpt><trkpt lat="44.575463733231786" lon="9.498479514317395"><ele>1279.0</ele><time>2026-04-30T08:20:18.998Z</time></trkpt><trkpt lat="44.57561794826756" lon="9.498481811896275"><ele>1278.25</ele><time>2026-04-30T08:20:19.998Z</time></trkpt><trkpt lat="44.57577184952923" lon="9.498477192969204"><ele>1277.5</ele><time>2026-04-30T08:20:20.998Z</time></trkpt><trkpt lat="44.575909866699085" lon="9.498502132078075"><ele>1276.75</ele><time>2026-04-30T08:20:21.998Z</time></trkpt><trkpt lat="44.57604505930876" lon="9.498540411058729"><ele>1276.0</ele><time>2026-04-30T08:20:22.998Z</time></trkpt><trkpt lat="44.57616912297918" lon="9.498594206794676"><ele>1277.6666666666665</ele><time>2026-04-30T08:20:23.998Z</time></trkpt><trkpt lat="44.5762954553841" lon="9.49863845709533"><ele>1279.3333333333333</ele><time>2026-04-30T08:20:24.998Z</time></trkpt><trkpt lat="44.576471642780426" lon="9.498654567292244"><ele>1281.0</ele><time>2026-04-30T08:20:25.998Z</time></trkpt><trkpt lat="44.57663683871323" lon="9.498641755323524"><ele>1281.0</ele><time>2026-04-30T08:20:26.998Z</time></trkpt><trkpt lat="44.576790899231526" lon="9.498609122370922"><ele>1281.0</ele><time>2026-04-30T08:20:27.998Z</time></trkpt><trkpt lat="44.57693817356247" lon="9.498575713206087"><ele>1281.0</ele><time>2026-04-30T08:20:28.998Z</time></trkpt><trkpt lat="44.577062006598176" lon="9.498558777949674"><ele>1281.0</ele><time>2026-04-30T08:20:29.998Z</time></trkpt><trkpt lat="44.57719410228846" lon="9.498544573575565"><ele>1280.5</ele><time>2026-04-30T08:20:30.998Z</time></trkpt><trkpt lat="44.57731394481332" lon="9.498533868981486"><ele>1280.0</ele><time>2026-04-30T08:20:31.998Z</time></trkpt><trkpt lat="44.57741404807544" lon="9.498591490651423"><ele>1279.5</ele><time>2026-04-30T08:20:32.998Z</time></trkpt><trkpt lat="44.57751146043682" lon="9.498674175742556"><ele>1279.0</ele><time>2026-04-30T08:20:33.998Z</time></trkpt><trkpt lat="44.57759888112153" lon="9.498816371412438"><ele>1284.75</ele><time>2026-04-30T08:20:34.998Z</time></trkpt><trkpt lat="44.577680240565144" lon="9.49899938457633"><ele>1290.5</ele><time>2026-04-30T08:20:35.998Z</time></trkpt><trkpt lat="44.577762923862025" lon="9.499119528154663"><ele>1296.25</ele><time>2026-04-30T08:20:36.998Z</time></trkpt><trkpt lat="44.57779987434298" lon="9.499267917848732"><ele>1302.0</ele><time>2026-04-30T08:20:37.998Z</time></trkpt><trkpt lat="44.57780652243995" lon="9.499459392831572"><ele>1305.1999999999998</ele><time>2026-04-30T08:20:38.998Z</time></trkpt><trkpt lat="44.57778770488637" lon="9.499642792347318"><ele>1308.4</ele><time>2026-04-30T08:20:39.998Z</time></trkpt><trkpt lat="44.57778970239847" lon="9.499784744751395"><ele>1311.6</ele><time>2026-04-30T08:20:40.998Z</time></trkpt><trkpt lat="44.57779993484521" lon="9.49992273004176"><ele>1314.8000000000002</ele><time>2026-04-30T08:20:41.998Z</time></trkpt><trkpt lat="44.57780573245028" lon="9.500053240779597"><ele>1318.0</ele><time>2026-04-30T08:20:42.998Z</time></trkpt><trkpt lat="44.5778439304094" lon="9.500181553829774"><ele>1312.0</ele><time>2026-04-30T08:20:43.998Z</time></trkpt><trkpt lat="44.57790404812547" lon="9.500316915997507"><ele>1306.0</ele><time>2026-04-30T08:20:44.998Z</time></trkpt><trkpt lat="44.577989498776574" lon="9.500438562242245"><ele>1300.0</ele><time>2026-04-30T08:20:45.998Z</time></trkpt><trkpt lat="44.57809056701205" lon="9.500568731259353"><ele>1294.0</ele><time>2026-04-30T08:20:46.998Z</time></trkpt><trkpt lat="44.578179775154624" lon="9.500689647347366"><ele>1294.0</ele><time>2026-04-30T08:20:47.998Z</time></trkpt><trkpt lat="44.5782459243382" lon="9.500844965755816"><ele>1294.0</ele><time>2026-04-30T08:20:48.998Z</time></trkpt><trkpt lat="44.578298722460445" lon="9.500958654713113"><ele>1294.0</ele><time>2026-04-30T08:20:49.998Z</time></trkpt><trkpt lat="44.578307117938465" lon="9.501071936374748"><ele>1294.0</ele><time>2026-04-30T08:20:50.998Z</time></trkpt><trkpt lat="44.57829003732541" lon="9.501194673525847"><ele>1294.0</ele><time>2026-04-30T08:20:51.998Z</time></trkpt><trkpt lat="44.57823551762194" lon="9.501291914324314"><ele>1292.25</ele><time>2026-04-30T08:20:52.998Z</time></trkpt><trkpt lat="44.57816531823548" lon="9.501377691977066"><ele>1290.5</ele><time>2026-04-30T08:20:53.998Z</time></trkpt><trkpt lat="44.5780936066098" lon="9.501491321616635"><ele>1288.75</ele><time>2026-04-30T08:20:54.998Z</time></trkpt><trkpt lat="44.57799596420332" lon="9.501599177601388"><ele>1287.0</ele><time>2026-04-30T08:20:55.998Z</time></trkpt><trkpt lat="44.57789622973883" lon="9.501707108850562"><ele>1288.75</ele><time>2026-04-30T08:20:56.998Z</time></trkpt><trkpt lat="44.57778408370738" lon="9.501831648764739"><ele>1290.5</ele><time>2026-04-30T08:20:57.998Z</time></trkpt><trkpt lat="44.57767449602805" lon="9.501936880963616"><ele>1292.25</ele><time>2026-04-30T08:20:58.998Z</time></trkpt><trkpt lat="44.57755695526748" lon="9.502027922086864"><ele>1294.0</ele><time>2026-04-30T08:20:59.998Z</time></trkpt><trkpt lat="44.57744565629656" lon="9.502120708214912"><ele>1294.0</ele><time>2026-04-30T08:21:00.998Z</time></trkpt><trkpt lat="44.577321516594964" lon="9.502196553927313"><ele>1294.0</ele><time>2026-04-30T08:21:01.998Z</time></trkpt><trkpt lat="44.577182029745465" lon="9.502248172068098"><ele>1294.0</ele><time>2026-04-30T08:21:02.998Z</time></trkpt><trkpt lat="44.57705413352098" lon="9.502281342517543"><ele>1294.0</ele><time>2026-04-30T08:21:03.998Z</time></trkpt><trkpt lat="44.57695192789833" lon="9.50234434564742"><ele>1301.25</ele><time>2026-04-30T08:21:04.998Z</time></trkpt><trkpt lat="44.5768495550368" lon="9.502380673160925"><ele>1308.5</ele><time>2026-04-30T08:21:05.998Z</time></trkpt><trkpt lat="44.57676325850694" lon="9.502451997100941"><ele>1315.75</ele><time>2026-04-30T08:21:06.998Z</time></trkpt><trkpt lat="44.57668417974806" lon="9.502578050236153"><ele>1323.0</ele><time>2026-04-30T08:21:07.998Z</time></trkpt><trkpt lat="44.57667042570114" lon="9.502755958845079"><ele>1323.0</ele><time>2026-04-30T08:21:08.998Z</time></trkpt><trkpt lat="44.57667858164902" lon="9.502892085940065"><ele>1323.0</ele><time>2026-04-30T08:21:09.998Z</time></trkpt><trkpt lat="44.576710056107245" lon="9.503011037649902"><ele>1323.0</ele><time>2026-04-30T08:21:10.998Z</time></trkpt><trkpt lat="44.576761364288814" lon="9.503123493354984"><ele>1323.0</ele><time>2026-04-30T08:21:11.998Z</time></trkpt><trkpt lat="44.57685153030755" lon="9.50323517636402"><ele>1323.0</ele><time>2026-04-30T08:21:12.998Z</time></trkpt><trkpt lat="44.576951601149425" lon="9.50342976284313"><ele>1322.0</ele><time>2026-04-30T08:21:13.998Z</time></trkpt><trkpt lat="44.577019116532234" lon="9.503598504097322"><ele>1321.0</ele><time>2026-04-30T08:21:14.998Z</time></trkpt><trkpt lat="44.57700559767338" lon="9.503743470633541"><ele>1320.0</ele><time>2026-04-30T08:21:15.998Z</time></trkpt><trkpt lat="44.57695993971141" lon="9.503875606522438"><ele>1319.0</ele><time>2026-04-30T08:21:16.998Z</time></trkpt><trkpt lat="44.57687456356508" lon="9.503970106311643"><ele>1318.0</ele><time>2026-04-30T08:21:17.998Z</time></trkpt><trkpt lat="44.576763481527685" lon="9.504041650798769"><ele>1317.0</ele><time>2026-04-30T08:21:18.998Z</time></trkpt><trkpt lat="44.57662611900605" lon="9.504095758922169"><ele>1316.0</ele><time>2026-04-30T08:21:19.998Z</time></trkpt><trkpt lat="44.5764852048882" lon="9.504156370114147"><ele>1315.0</ele><time>2026-04-30T08:21:20.998Z</time></trkpt><trkpt lat="44.57635219957202" lon="9.504193695779938"><ele>1315.0</ele><time>2026-04-30T08:21:21.998Z</time></trkpt><trkpt lat="44.576248977877846" lon="9.504232430235643"><ele>1315.0</ele><time>2026-04-30T08:21:22.998Z</time></trkpt><trkpt lat="44.57615798024832" lon="9.50429667934462"><ele>1315.0</ele><time>2026-04-30T08:21:23.998Z</time></trkpt><trkpt lat="44.57605291235883" lon="9.504391220320429"><ele>1315.0</ele><time>2026-04-30T08:21:24.998Z</time></trkpt><trkpt lat="44.575969813951424" lon="9.50456192865887"><ele>1321.5</ele><time>2026-04-30T08:21:25.998Z</time></trkpt><trkpt lat="44.57595681975281" lon="9.504732097873022"><ele>1328.0</ele><time>2026-04-30T08:21:26.998Z</time></trkpt><trkpt lat="44.575982357013224" lon="9.504904794009253"><ele>1334.5</ele><time>2026-04-30T08:21:27.998Z</time></trkpt><trkpt lat="44.57604078655936" lon="9.505058222069692"><ele>1341.0</ele><time>2026-04-30T08:21:28.998Z</time></trkpt><trkpt lat="44.576128906767835" lon="9.50519115729959"><ele>1340.4</ele><time>2026-04-30T08:21:29.998Z</time></trkpt><trkpt lat="44.57618712197447" lon="9.505321966913764"><ele>1339.8</ele><time>2026-04-30T08:21:30.998Z</time></trkpt><trkpt lat="44.5762047903468" lon="9.505465542882936"><ele>1339.2</ele><time>2026-04-30T08:21:31.998Z</time></trkpt><trkpt lat="44.57618608165613" lon="9.505595257061902"><ele>1338.6000000000001</ele><time>2026-04-30T08:21:32.998Z</time></trkpt><trkpt lat="44.57611186426456" lon="9.505702823139325"><ele>1338.0</ele><time>2026-04-30T08:21:33.998Z</time></trkpt><trkpt lat="44.5760181137244" lon="9.505790432374031"><ele>1338.0</ele><time>2026-04-30T08:21:34.998Z</time></trkpt><trkpt lat="44.57593098582443" lon="9.505912550658415"><ele>1338.0</ele><time>2026-04-30T08:21:35.998Z</time></trkpt><trkpt lat="44.57584064107925" lon="9.506021290522511"><ele>1338.0</ele><time>2026-04-30T08:21:36.998Z</time></trkpt><trkpt lat="44.57576880173037" lon="9.506113954775273"><ele>1338.0</ele><time>2026-04-30T08:21:37.998Z</time></trkpt><trkpt lat="44.5757233759047" lon="9.506233337823762"><ele>1338.0</ele><time>2026-04-30T08:21:38.998Z</time></trkpt><trkpt lat="44.57569812475993" lon="9.50636905752416"><ele>1337.4</ele><time>2026-04-30T08:21:39.998Z</time></trkpt><trkpt lat="44.57570855158177" lon="9.50651425236573"><ele>1336.8000000000002</ele><time>2026-04-30T08:21:40.998Z</time></trkpt><trkpt lat="44.5757459082916" lon="9.506654503002686"><ele>1336.2</ele><time>2026-04-30T08:21:41.998Z</time></trkpt><trkpt lat="44.5758012101302" lon="9.506776517159484"><ele>1335.6</ele><time>2026-04-30T08:21:42.998Z</time></trkpt><trkpt lat="44.575840275835816" lon="9.50690364912969"><ele>1335.0</ele><time>2026-04-30T08:21:43.998Z</time></trkpt><trkpt lat="44.57587039334544" lon="9.507022726070725"><ele>1332.8</ele><time>2026-04-30T08:21:44.998Z</time></trkpt><trkpt lat="44.57584208373383" lon="9.507127782212283"><ele>1330.6</ele><time>2026-04-30T08:21:45.998Z</time></trkpt><trkpt lat="44.575792192699694" lon="9.507230126979309"><ele>1328.4</ele><time>2026-04-30T08:21:46.998Z</time></trkpt><trkpt lat="44.575715577173945" lon="9.507325129625332"><ele>1326.2</ele><time>2026-04-30T08:21:47.998Z</time></trkpt><trkpt lat="44.575619973875064" lon="9.507431441580337"><ele>1324.0</ele><time>2026-04-30T08:21:48.998Z</time></trkpt><trkpt lat="44.575496554135945" lon="9.50751096439783"><ele>1324.0</ele><time>2026-04-30T08:21:49.998Z</time></trkpt><trkpt lat="44.57538660371158" lon="9.507624738922875"><ele>1324.0</ele><time>2026-04-30T08:21:50.998Z</time></trkpt><trkpt lat="44.57527219027769" lon="9.507738484961331"><ele>1324.0</ele><time>2026-04-30T08:21:51.998Z</time></trkpt><trkpt lat="44.575185069283485" lon="9.507885480805413"><ele>1324.0</ele><time>2026-04-30T08:21:52.998Z</time></trkpt><trkpt lat="44.57510970151375" lon="9.508041827097921"><ele>1327.6</ele><time>2026-04-30T08:21:53.998Z</time></trkpt><trkpt lat="44.575049416925914" lon="9.508180640686424"><ele>1331.2</ele><time>2026-04-30T08:21:55Z</time></trkpt><trkpt lat="44.574996997013294" lon="9.508301344900492"><ele>1334.8</ele><time>2026-04-30T08:21:56Z</time></trkpt><trkpt lat="44.57495059126377" lon="9.508415381147485"><ele>1338.3999999999999</ele><time>2026-04-30T08:21:57Z</time></trkpt><trkpt lat="44.57488407516177" lon="9.50852216244264"><ele>1342.0</ele><time>2026-04-30T08:21:58Z</time></trkpt><trkpt lat="44.574783521089934" lon="9.508596414940282"><ele>1342.0</ele><time>2026-04-30T08:21:59Z</time></trkpt><trkpt lat="44.574672331817936" lon="9.50865491619196"><ele>1342.0</ele><time>2026-04-30T08:22:00Z</time></trkpt><trkpt lat="44.57455236160247" lon="9.50868215672134"><ele>1342.0</ele><time>2026-04-30T08:22:01Z</time></trkpt><trkpt lat="44.57442705803738" lon="9.508682524861777"><ele>1342.0</ele><time>2026-04-30T08:22:02Z</time></trkpt><trkpt lat="44.574293913615165" lon="9.50867529744262"><ele>1348.5</ele><time>2026-04-30T08:22:03Z</time></trkpt><trkpt lat="44.57416160983225" lon="9.5086603021822"><ele>1355.0</ele><time>2026-04-30T08:22:04Z</time></trkpt><trkpt lat="44.57402833836863" lon="9.508657007634827"><ele>1361.5</ele><time>2026-04-30T08:22:05Z</time></trkpt><trkpt lat="44.57388542694954" lon="9.50857651482279"><ele>1368.0</ele><time>2026-04-30T08:22:06Z</time></trkpt><trkpt lat="44.57377578396568" lon="9.508630367778542"><ele>1365.25</ele><time>2026-04-30T08:22:07Z</time></trkpt><trkpt lat="44.57367952456346" lon="9.508722583493581"><ele>1362.5</ele><time>2026-04-30T08:22:08Z</time></trkpt><trkpt lat="44.5735822550268" lon="9.508825034895498"><ele>1359.75</ele><time>2026-04-30T08:22:09Z</time></trkpt><trkpt lat="44.57351241010552" lon="9.508982263080295"><ele>1357.0</ele><time>2026-04-30T08:22:10Z</time></trkpt><trkpt lat="44.573488374856915" lon="9.50916208987448"><ele>1357.0</ele><time>2026-04-30T08:22:11Z</time></trkpt><trkpt lat="44.57349049250037" lon="9.50936273790225"><ele>1357.0</ele><time>2026-04-30T08:22:12Z</time></trkpt><trkpt lat="44.573548840451444" lon="9.50954406841813"><ele>1357.0</ele><time>2026-04-30T08:22:13Z</time></trkpt><trkpt lat="44.573633060344584" lon="9.50968519223074"><ele>1357.0</ele><time>2026-04-30T08:22:14Z</time></trkpt><trkpt lat="44.57369700611378" lon="9.509835230468934"><ele>1354.75</ele><time>2026-04-30T08:22:15Z</time></trkpt><trkpt lat="44.57377036482241" lon="9.509969687007938"><ele>1352.5</ele><time>2026-04-30T08:22:16Z</time></trkpt><trkpt lat="44.57384875450219" lon="9.510099791530378"><ele>1350.25</ele><time>2026-04-30T08:22:17Z</time></trkpt><trkpt lat="44.57390715662032" lon="9.510255622846014"><ele>1348.0</ele><time>2026-04-30T08:22:18Z</time></trkpt><trkpt lat="44.57395248506561" lon="9.510429635809201"><ele>1348.0</ele><time>2026-04-30T08:22:19Z</time></trkpt><trkpt lat="44.57398081291336" lon="9.510618915453502"><ele>1348.0</ele><time>2026-04-30T08:22:20Z</time></trkpt><trkpt lat="44.57400775499406" lon="9.510817822645903"><ele>1348.0</ele><time>2026-04-30T08:22:21Z</time></trkpt><trkpt lat="44.57402344340335" lon="9.511020272897492"><ele>1348.0</ele><time>2026-04-30T08:22:22Z</time></trkpt><trkpt lat="44.574055022105185" lon="9.511207121299806"><ele>1349.5</ele><time>2026-04-30T08:22:23Z</time></trkpt><trkpt lat="44.574060882479145" lon="9.511386926628072"><ele>1351.0</ele><time>2026-04-30T08:22:24Z</time></trkpt><trkpt lat="44.574055942331505" lon="9.5115659927272"><ele>1352.5</ele><time>2026-04-30T08:22:25Z</time></trkpt><trkpt lat="44.57402884557735" lon="9.511738165292329"><ele>1354.0</ele><time>2026-04-30T08:22:26Z</time></trkpt><trkpt lat="44.57397100379488" lon="9.511875499829946"><ele>1354.0</ele><time>2026-04-30T08:22:27Z</time></trkpt><trkpt lat="44.57389944535479" lon="9.511989628923168"><ele>1354.0</ele><time>2026-04-30T08:22:28Z</time></trkpt><trkpt lat="44.573808419146104" lon="9.5120855695579"><ele>1354.0</ele><time>2026-04-30T08:22:29Z</time></trkpt><trkpt lat="44.573703429501535" lon="9.512156737136094"><ele>1354.0</ele><time>2026-04-30T08:22:30Z</time></trkpt><trkpt lat="44.573582841150646" lon="9.512224400054132"><ele>1357.25</ele><time>2026-04-30T08:22:31Z</time></trkpt><trkpt lat="44.573458575900915" lon="9.512277881917894"><ele>1360.5</ele><time>2026-04-30T08:22:32Z</time></trkpt><trkpt lat="44.57334332975408" lon="9.512331627928972"><ele>1363.75</ele><time>2026-04-30T08:22:33Z</time></trkpt><trkpt lat="44.57322519186989" lon="9.512362736470976"><ele>1367.0</ele><time>2026-04-30T08:22:34Z</time></trkpt><trkpt lat="44.5731249766593" lon="9.512429628413656"><ele>1367.0</ele><time>2026-04-30T08:22:35Z</time></trkpt><trkpt lat="44.57305056243632" lon="9.512533065549247"><ele>1367.0</ele><time>2026-04-30T08:22:36Z</time></trkpt><trkpt lat="44.57296876975371" lon="9.512637477105393"><ele>1367.0</ele><time>2026-04-30T08:22:37Z</time></trkpt><trkpt lat="44.57292078265856" lon="9.512791429156477"><ele>1367.0</ele><time>2026-04-30T08:22:38Z</time></trkpt><trkpt lat="44.57290969808956" lon="9.512961554093346"><ele>1366.75</ele><time>2026-04-30T08:22:39Z</time></trkpt><trkpt lat="44.572928502258726" lon="9.513134730905119"><ele>1366.5</ele><time>2026-04-30T08:22:40Z</time></trkpt><trkpt lat="44.5729691121843" lon="9.513311588569504"><ele>1366.25</ele><time>2026-04-30T08:22:41Z</time></trkpt><trkpt lat="44.573008149020986" lon="9.513502529301125"><ele>1366.0</ele><time>2026-04-30T08:22:42Z</time></trkpt><trkpt lat="44.57304862947014" lon="9.513694278812887"><ele>1367.75</ele><time>2026-04-30T08:22:43Z</time></trkpt><trkpt lat="44.57307496792966" lon="9.513894822621937"><ele>1369.5</ele><time>2026-04-30T08:22:44Z</time></trkpt><trkpt lat="44.573093036639875" lon="9.51410221360238"><ele>1371.25</ele><time>2026-04-30T08:22:45Z</time></trkpt><trkpt lat="44.573094134989866" lon="9.51430483401987"><ele>1373.0</ele><time>2026-04-30T08:22:46Z</time></trkpt><trkpt lat="44.57309287913636" lon="9.51450335307708"><ele>1374.0</ele><time>2026-04-30T08:22:47Z</time></trkpt><trkpt lat="44.573088229432294" lon="9.514698416092651"><ele>1375.0</ele><time>2026-04-30T08:22:48Z</time></trkpt><trkpt lat="44.573080734227986" lon="9.514881981526239"><ele>1376.0</ele><time>2026-04-30T08:22:49Z</time></trkpt><trkpt lat="44.57306844429376" lon="9.51505949061654"><ele>1377.0</ele><time>2026-04-30T08:22:50Z</time></trkpt><trkpt lat="44.57302798264084" lon="9.515230920301113"><ele>1376.5</ele><time>2026-04-30T08:22:51Z</time></trkpt><trkpt lat="44.5729629950516" lon="9.51540802689213"><ele>1376.0</ele><time>2026-04-30T08:22:52Z</time></trkpt><trkpt lat="44.572876423454034" lon="9.515557534759571"><ele>1375.5</ele><time>2026-04-30T08:22:53Z</time></trkpt><trkpt lat="44.57278794751224" lon="9.515715155818878"><ele>1375.0</ele><time>2026-04-30T08:22:54Z</time></trkpt><trkpt lat="44.57269141721666" lon="9.515874801644264"><ele>1378.5</ele><time>2026-04-30T08:22:55Z</time></trkpt><trkpt lat="44.572592988255295" lon="9.516029644062675"><ele>1382.0</ele><time>2026-04-30T08:22:56Z</time></trkpt><trkpt lat="44.57249464157062" lon="9.516170410142177"><ele>1385.5</ele><time>2026-04-30T08:22:57Z</time></trkpt><trkpt lat="44.57239580212261" lon="9.516300519040987"><ele>1389.0</ele><time>2026-04-30T08:22:58Z</time></trkpt><trkpt lat="44.572304100234945" lon="9.516425893652118"><ele>1389.0</ele><time>2026-04-30T08:22:59Z</time></trkpt><trkpt lat="44.57222809045639" lon="9.51654853201921"><ele>1389.0</ele><time>2026-04-30T08:23:00Z</time></trkpt><trkpt lat="44.57217393972357" lon="9.51668599767699"><ele>1389.0</ele><time>2026-04-30T08:23:01Z</time></trkpt><trkpt lat="44.57214453915273" lon="9.516837283714501"><ele>1389.0</ele><time>2026-04-30T08:23:02Z</time></trkpt><trkpt lat="44.57213391888753" lon="9.517001815673783"><ele>1391.0</ele><time>2026-04-30T08:23:03Z</time></trkpt><trkpt lat="44.572142752519994" lon="9.517166793764039"><ele>1393.0</ele><time>2026-04-30T08:23:04Z</time></trkpt><trkpt lat="44.57217686102423" lon="9.517327666464038"><ele>1395.0</ele><time>2026-04-30T08:23:05Z</time></trkpt><trkpt lat="44.57223367770837" lon="9.517483582375142"><ele>1397.0</ele><time>2026-04-30T08:23:06Z</time></trkpt><trkpt lat="44.572296372118565" lon="9.517650066936671"><ele>1397.0</ele><time>2026-04-30T08:23:07Z</time></trkpt><trkpt lat="44.57236728313826" lon="9.517830781199391"><ele>1397.0</ele><time>2026-04-30T08:23:08Z</time></trkpt><trkpt lat="44.572433445188" lon="9.518019703550303"><ele>1397.0</ele><time>2026-04-30T08:23:09Z</time></trkpt><trkpt lat="44.57249531765052" lon="9.518212512712543"><ele>1397.0</ele><time>2026-04-30T08:23:10Z</time></trkpt><trkpt lat="44.57256319943488" lon="9.518399300216952"><ele>1398.5</ele><time>2026-04-30T08:23:11Z</time></trkpt><trkpt lat="44.572633019096784" lon="9.518588392234214"><ele>1400.0</ele><time>2026-04-30T08:23:12Z</time></trkpt><trkpt lat="44.57271052901826" lon="9.518768162709803"><ele>1401.5</ele><time>2026-04-30T08:23:13Z</time></trkpt><trkpt lat="44.572807789339386" lon="9.518923962320331"><ele>1403.0</ele><time>2026-04-30T08:23:14Z</time></trkpt><trkpt lat="44.57290237420381" lon="9.519082426175837"><ele>1403.0</ele><time>2026-04-30T08:23:15Z</time></trkpt><trkpt lat="44.572990424603525" lon="9.519240941813257"><ele>1403.0</ele><time>2026-04-30T08:23:16Z</time></trkpt><trkpt lat="44.57307653649734" lon="9.519397350431934"><ele>1403.0</ele><time>2026-04-30T08:23:17Z</time></trkpt><trkpt lat="44.573164642760574" lon="9.519540660859755"><ele>1403.0</ele><time>2026-04-30T08:23:18Z</time></trkpt><trkpt lat="44.57324881614884" lon="9.519672152080267"><ele>1404.1666666666667</ele><time>2026-04-30T08:23:19Z</time></trkpt><trkpt lat="44.57332203209156" lon="9.519784855895573"><ele>1405.3333333333335</ele><time>2026-04-30T08:23:20Z</time></trkpt><trkpt lat="44.57337503844478" lon="9.51988956648062"><ele>1406.5</ele><time>2026-04-30T08:23:21Z</time></trkpt><trkpt lat="44.573422199988734" lon="9.519978157171701"><ele>1407.6666666666667</ele><time>2026-04-30T08:23:22Z</time></trkpt><trkpt lat="44.573455588842386" lon="9.520066895207693"><ele>1408.8333333333333</ele><time>2026-04-30T08:23:23Z</time></trkpt><trkpt lat="44.57349139698044" lon="9.520147366217701"><ele>1410.0</ele><time>2026-04-30T08:23:24Z</time></trkpt><trkpt lat="44.573524592650976" lon="9.52032345777876"><ele>1409.3333333333333</ele><time>2026-04-30T08:23:26Z</time></trkpt><trkpt lat="44.57351741135252" lon="9.520424980037168"><ele>1408.6666666666667</ele><time>2026-04-30T08:23:27Z</time></trkpt><trkpt lat="44.57347893860593" lon="9.52051384241778"><ele>1408.0</ele><time>2026-04-30T08:23:28Z</time></trkpt><trkpt lat="44.57342614908213" lon="9.520582108162932"><ele>1407.3333333333335</ele><time>2026-04-30T08:23:29Z</time></trkpt><trkpt lat="44.57334896669364" lon="9.520604895685052"><ele>1406.6666666666667</ele><time>2026-04-30T08:23:30Z</time></trkpt><trkpt lat="44.57326723297605" lon="9.520584379975247"><ele>1406.0</ele><time>2026-04-30T08:23:31Z</time></trkpt><trkpt lat="44.57318803745924" lon="9.52053637006179"><ele>1406.0</ele><time>2026-04-30T08:23:32Z</time></trkpt><trkpt lat="44.573116772833664" lon="9.520440809952063"><ele>1406.0</ele><time>2026-04-30T08:23:33Z</time></trkpt><trkpt lat="44.573038305441806" lon="9.52033011467226"><ele>1406.0</ele><time>2026-04-30T08:23:34Z</time></trkpt><trkpt lat="44.57295610868732" lon="9.520208312650116"><ele>1406.0</ele><time>2026-04-30T08:23:35Z</time></trkpt><trkpt lat="44.57289442791963" lon="9.520033203748783"><ele>1407.25</ele><time>2026-04-30T08:23:36Z</time></trkpt><trkpt lat="44.57278660723073" lon="9.519919871559976"><ele>1408.5</ele><time>2026-04-30T08:23:37Z</time></trkpt><trkpt lat="44.57266180943471" lon="9.51984630962143"><ele>1409.75</ele><time>2026-04-30T08:23:38Z</time></trkpt><trkpt lat="44.57255320254621" lon="9.519745377157546"><ele>1411.0</ele><time>2026-04-30T08:23:39Z</time></trkpt><trkpt lat="44.57243100491515" lon="9.519684769891938"><ele>1411.0</ele><time>2026-04-30T08:23:40Z</time></trkpt><trkpt lat="44.57230286554409" lon="9.519662539519565"><ele>1411.0</ele><time>2026-04-30T08:23:41Z</time></trkpt><trkpt lat="44.57218096040191" lon="9.519725917583845"><ele>1411.0</ele><time>2026-04-30T08:23:42Z</time></trkpt><trkpt lat="44.57205927408037" lon="9.5197887964139"><ele>1411.0</ele><time>2026-04-30T08:23:43Z</time></trkpt><trkpt lat="44.57193957553931" lon="9.51985918721462"><ele>1413.25</ele><time>2026-04-30T08:23:44Z</time></trkpt><trkpt lat="44.57181128372035" lon="9.519917782713451"><ele>1415.5</ele><time>2026-04-30T08:23:45Z</time></trkpt><trkpt lat="44.57168028853738" lon="9.519921170848786"><ele>1417.75</ele><time>2026-04-30T08:23:46Z</time></trkpt><trkpt lat="44.571554265997236" lon="9.519927215097491"><ele>1420.0</ele><time>2026-04-30T08:23:46.999Z</time></trkpt><trkpt lat="44.57142621735901" lon="9.519901556752528"><ele>1420.0</ele><time>2026-04-30T08:23:47.999Z</time></trkpt><trkpt lat="44.571301686828505" lon="9.519826297668462"><ele>1420.0</ele><time>2026-04-30T08:23:48.999Z</time></trkpt><trkpt lat="44.57117018248608" lon="9.519749765496734"><ele>1420.0</ele><time>2026-04-30T08:23:49.999Z</time></trkpt><trkpt lat="44.57103789218719" lon="9.519678230417508"><ele>1420.0</ele><time>2026-04-30T08:23:50.999Z</time></trkpt><trkpt lat="44.57091347516585" lon="9.519612821360537"><ele>1419.75</ele><time>2026-04-30T08:23:51.999Z</time></trkpt><trkpt lat="44.570786836867384" lon="9.519577185942914"><ele>1419.5</ele><time>2026-04-30T08:23:52.999Z</time></trkpt><trkpt lat="44.57065855033359" lon="9.519532913910886"><ele>1419.25</ele><time>2026-04-30T08:23:53.999Z</time></trkpt><trkpt lat="44.5705253230878" lon="9.519524048029002"><ele>1419.0</ele><time>2026-04-30T08:23:54.999Z</time></trkpt><trkpt lat="44.5704145275708" lon="9.519589706206254"><ele>1420.4</ele><time>2026-04-30T08:23:55.999Z</time></trkpt><trkpt lat="44.57030157898739" lon="9.519662053970375"><ele>1421.8000000000002</ele><time>2026-04-30T08:23:56.999Z</time></trkpt><trkpt lat="44.570202023349346" lon="9.51975955940787"><ele>1423.1999999999998</ele><time>2026-04-30T08:23:57.999Z</time></trkpt><trkpt lat="44.57010674340737" lon="9.519829694800364"><ele>1424.6</ele><time>2026-04-30T08:23:58.999Z</time></trkpt><trkpt lat="44.57001293379672" lon="9.519814284963077"><ele>1426.0</ele><time>2026-04-30T08:23:59.999Z</time></trkpt><trkpt lat="44.5699151979056" lon="9.51974675397293"><ele>1426.0</ele><time>2026-04-30T08:24:00.999Z</time></trkpt><trkpt lat="44.56981261789771" lon="9.519671391313892"><ele>1426.0</ele><time>2026-04-30T08:24:01.999Z</time></trkpt><trkpt lat="44.569699364668345" lon="9.51960277615992"><ele>1426.0</ele><time>2026-04-30T08:24:02.999Z</time></trkpt><trkpt lat="44.569568994586305" lon="9.519568738143024"><ele>1426.0</ele><time>2026-04-30T08:24:03.999Z</time></trkpt><trkpt lat="44.56943360863708" lon="9.51957565697192"><ele>1425.75</ele><time>2026-04-30T08:24:04.999Z</time></trkpt><trkpt lat="44.569306448403346" lon="9.51964053585378"><ele>1425.5</ele><time>2026-04-30T08:24:05.999Z</time></trkpt><trkpt lat="44.56917935585615" lon="9.519691815242403"><ele>1425.25</ele><time>2026-04-30T08:24:06.999Z</time></trkpt><trkpt lat="44.56905214707171" lon="9.519750000252852"><ele>1425.0</ele><time>2026-04-30T08:24:07.999Z</time></trkpt><trkpt lat="44.5689240759234" lon="9.519763836625698"><ele>1425.0</ele><time>2026-04-30T08:24:08.999Z</time></trkpt><trkpt lat="44.568805616008184" lon="9.519778961732875"><ele>1425.0</ele><time>2026-04-30T08:24:09.999Z</time></trkpt><trkpt lat="44.56868499174136" lon="9.519740725658732"><ele>1425.0</ele><time>2026-04-30T08:24:10.999Z</time></trkpt><trkpt lat="44.56854880171717" lon="9.519676328030565"><ele>1425.0</ele><time>2026-04-30T08:24:11.999Z</time></trkpt><trkpt lat="44.56841982559421" lon="9.519708106436198"><ele>1427.0</ele><time>2026-04-30T08:24:12.999Z</time></trkpt><trkpt lat="44.568294808549695" lon="9.519789264906898"><ele>1429.0</ele><time>2026-04-30T08:24:13.999Z</time></trkpt><trkpt lat="44.56817269222517" lon="9.519906334091164"><ele>1431.0</ele><time>2026-04-30T08:24:14.999Z</time></trkpt><trkpt lat="44.56805966395153" lon="9.520053642839095"><ele>1433.0</ele><time>2026-04-30T08:24:15.999Z</time></trkpt><trkpt lat="44.56795724243991" lon="9.520210916742677"><ele>1438.0</ele><time>2026-04-30T08:24:16.999Z</time></trkpt><trkpt lat="44.56785782696701" lon="9.52037512558506"><ele>1443.0</ele><time>2026-04-30T08:24:17.999Z</time></trkpt><trkpt lat="44.56775157472425" lon="9.52053462405508"><ele>1448.0</ele><time>2026-04-30T08:24:18.999Z</time></trkpt><trkpt lat="44.56764759478715" lon="9.520695229388243"><ele>1448.0</ele><time>2026-04-30T08:24:19.999Z</time></trkpt><trkpt lat="44.56754520511153" lon="9.520858623252453"><ele>1448.0</ele><time>2026-04-30T08:24:20.999Z</time></trkpt><trkpt lat="44.56744470566847" lon="9.521017805619602"><ele>1448.0</ele><time>2026-04-30T08:24:21.999Z</time></trkpt><trkpt lat="44.56735996453369" lon="9.5211802104515"><ele>1446.0</ele><time>2026-04-30T08:24:22.999Z</time></trkpt><trkpt lat="44.56729680593046" lon="9.52138063840942"><ele>1444.0</ele><time>2026-04-30T08:24:23.999Z</time></trkpt><trkpt lat="44.56727160704839" lon="9.521588426459225"><ele>1442.0</ele><time>2026-04-30T08:24:24.999Z</time></trkpt><trkpt lat="44.56724778870788" lon="9.521789599489393"><ele>1442.0</ele><time>2026-04-30T08:24:25.999Z</time></trkpt><trkpt lat="44.567241825490655" lon="9.521973288305892"><ele>1442.0</ele><time>2026-04-30T08:24:26.999Z</time></trkpt><trkpt lat="44.56721522509455" lon="9.522130279421404"><ele>1442.0</ele><time>2026-04-30T08:24:27.999Z</time></trkpt><trkpt lat="44.5671823041318" lon="9.522263830571319"><ele>1442.0</ele><time>2026-04-30T08:24:28.999Z</time></trkpt><trkpt lat="44.56711935705969" lon="9.522370317694255"><ele>1442.0</ele><time>2026-04-30T08:24:29.999Z</time></trkpt><trkpt lat="44.567039350650596" lon="9.522444468811992"><ele>1444.0</ele><time>2026-04-30T08:24:30.999Z</time></trkpt><trkpt lat="44.56694377465875" lon="9.522508119663136"><ele>1446.0</ele><time>2026-04-30T08:24:31.999Z</time></trkpt><trkpt lat="44.56681497455414" lon="9.52249939864827"><ele>1448.0</ele><time>2026-04-30T08:24:32.999Z</time></trkpt><trkpt lat="44.56666821494369" lon="9.52249472525076"><ele>1450.0</ele><time>2026-04-30T08:24:33.999Z</time></trkpt><trkpt lat="44.5665170538263" lon="9.522498836478622"><ele>1450.0</ele><time>2026-04-30T08:24:34.999Z</time></trkpt><trkpt lat="44.56636812008185" lon="9.522502646034582"><ele>1450.0</ele><time>2026-04-30T08:24:35.999Z</time></trkpt><trkpt lat="44.566220886238085" lon="9.522489101053615"><ele>1450.0</ele><time>2026-04-30T08:24:36.999Z</time></trkpt><trkpt lat="44.56607518139517" lon="9.522494453156863"><ele>1450.0</ele><time>2026-04-30T08:24:37.999Z</time></trkpt><trkpt lat="44.56593346164291" lon="9.522427104107596"><ele>1448.6666666666665</ele><time>2026-04-30T08:24:38.999Z</time></trkpt><trkpt lat="44.565793265015785" lon="9.522327490358517"><ele>1447.3333333333333</ele><time>2026-04-30T08:24:39.999Z</time></trkpt><trkpt lat="44.56566177949942" lon="9.522212858451542"><ele>1446.0</ele><time>2026-04-30T08:24:40.999Z</time></trkpt><trkpt lat="44.56552605080723" lon="9.522098871418201"><ele>1450.6666666666667</ele><time>2026-04-30T08:24:41.999Z</time></trkpt><trkpt lat="44.5653896336195" lon="9.521997279809355"><ele>1455.3333333333335</ele><time>2026-04-30T08:24:42.999Z</time></trkpt><trkpt lat="44.565258777800125" lon="9.521857828241657"><ele>1460.0</ele><time>2026-04-30T08:24:43.999Z</time></trkpt><trkpt lat="44.56512582772399" lon="9.521738589997458"><ele>1460.0</ele><time>2026-04-30T08:24:44.999Z</time></trkpt><trkpt lat="44.5649999060126" lon="9.521625164119618"><ele>1460.0</ele><time>2026-04-30T08:24:45.999Z</time></trkpt><trkpt lat="44.56486634485686" lon="9.521537632321706"><ele>1460.0</ele><time>2026-04-30T08:24:46.999Z</time></trkpt><trkpt lat="44.56470313317658" lon="9.521531126226998"><ele>1460.0</ele><time>2026-04-30T08:24:47.999Z</time></trkpt><trkpt lat="44.56454005448752" lon="9.521548379449532"><ele>1460.0</ele><time>2026-04-30T08:24:48.999Z</time></trkpt><trkpt lat="44.56436882556158" lon="9.521578894286414"><ele>1460.0</ele><time>2026-04-30T08:24:49.999Z</time></trkpt><trkpt lat="44.5641837491238" lon="9.521604424637019"><ele>1461.6666666666667</ele><time>2026-04-30T08:24:50.999Z</time></trkpt><trkpt lat="44.564013589547336" lon="9.521628682933361"><ele>1463.3333333333333</ele><time>2026-04-30T08:24:51.999Z</time></trkpt><trkpt lat="44.563843969658706" lon="9.52165647270464"><ele>1465.0</ele><time>2026-04-30T08:24:52.999Z</time></trkpt><trkpt lat="44.563667333241824" lon="9.521696521157692"><ele>1465.0</ele><time>2026-04-30T08:24:53.999Z</time></trkpt><trkpt lat="44.56350547576243" lon="9.521745359638977"><ele>1465.0</ele><time>2026-04-30T08:24:54.999Z</time></trkpt><trkpt lat="44.56335149567424" lon="9.521819410047677"><ele>1465.0</ele><time>2026-04-30T08:24:55.999Z</time></trkpt><trkpt lat="44.563215769741966" lon="9.521951267806664"><ele>1465.0</ele><time>2026-04-30T08:24:56.999Z</time></trkpt><trkpt lat="44.56307357746083" lon="9.52206419819525"><ele>1465.0</ele><time>2026-04-30T08:24:57.999Z</time></trkpt><trkpt lat="44.56292201328849" lon="9.522129000285215"><ele>1465.0</ele><time>2026-04-30T08:24:58.999Z</time></trkpt><trkpt lat="44.56278383486702" lon="9.522185848200536"><ele>1462.0</ele><time>2026-04-30T08:24:59.999Z</time></trkpt><trkpt lat="44.562639718601396" lon="9.52222964226126"><ele>1459.0</ele><time>2026-04-30T08:25:00.999Z</time></trkpt><trkpt lat="44.5625242588187" lon="9.522273827433224"><ele>1456.0</ele><time>2026-04-30T08:25:01.999Z</time></trkpt><trkpt lat="44.562431266431744" lon="9.522332361584777"><ele>1453.0</ele><time>2026-04-30T08:25:02.999Z</time></trkpt><trkpt lat="44.56235490178144" lon="9.522453667562807"><ele>1453.0</ele><time>2026-04-30T08:25:03.999Z</time></trkpt><trkpt lat="44.56228355821618" lon="9.522613094069657"><ele>1453.0</ele><time>2026-04-30T08:25:04.999Z</time></trkpt><trkpt lat="44.5622558212562" lon="9.522796678301239"><ele>1453.0</ele><time>2026-04-30T08:25:05.999Z</time></trkpt><trkpt lat="44.562242258479124" lon="9.522981921435408"><ele>1453.0</ele><time>2026-04-30T08:25:06.999Z</time></trkpt><trkpt lat="44.562250053712305" lon="9.523204476049166"><ele>1450.25</ele><time>2026-04-30T08:25:07.999Z</time></trkpt><trkpt lat="44.56224363329777" lon="9.523403511466396"><ele>1447.5</ele><time>2026-04-30T08:25:08.999Z</time></trkpt><trkpt lat="44.562213426752386" lon="9.523623310305751"><ele>1444.75</ele><time>2026-04-30T08:25:09.999Z</time></trkpt><trkpt lat="44.5621606076206" lon="9.523810711459033"><ele>1442.0</ele><time>2026-04-30T08:25:10.999Z</time></trkpt><trkpt lat="44.56210270663271" lon="9.523991358092244"><ele>1441.25</ele><time>2026-04-30T08:25:11.999Z</time></trkpt><trkpt lat="44.56204019850877" lon="9.524153182428146"><ele>1440.5</ele><time>2026-04-30T08:25:12.999Z</time></trkpt><trkpt lat="44.56197388915415" lon="9.524309377885425"><ele>1439.75</ele><time>2026-04-30T08:25:13.999Z</time></trkpt><trkpt lat="44.56190567335893" lon="9.52445230874343"><ele>1439.0</ele><time>2026-04-30T08:25:14.999Z</time></trkpt><trkpt lat="44.56181481174089" lon="9.524533938736425"><ele>1441.5</ele><time>2026-04-30T08:25:15.999Z</time></trkpt><trkpt lat="44.56173260110789" lon="9.524525724024553"><ele>1444.0</ele><time>2026-04-30T08:25:16.999Z</time></trkpt><trkpt lat="44.56163508317945" lon="9.524545480190241"><ele>1446.5</ele><time>2026-04-30T08:25:17.999Z</time></trkpt><trkpt lat="44.56146701844966" lon="9.524573238884374"><ele>1449.0</ele><time>2026-04-30T08:25:18.999Z</time></trkpt><trkpt lat="44.561325693909595" lon="9.5245949580422"><ele>1452.3333333333333</ele><time>2026-04-30T08:25:19.999Z</time></trkpt><trkpt lat="44.561170550622904" lon="9.52465082102263"><ele>1455.6666666666665</ele><time>2026-04-30T08:25:20.999Z</time></trkpt><trkpt lat="44.56100734374436" lon="9.524703520471698"><ele>1459.0</ele><time>2026-04-30T08:25:21.999Z</time></trkpt><trkpt lat="44.56084274359805" lon="9.524723061070633"><ele>1459.0</ele><time>2026-04-30T08:25:22.999Z</time></trkpt><trkpt lat="44.560686344528264" lon="9.524757673949471"><ele>1459.0</ele><time>2026-04-30T08:25:23.999Z</time></trkpt><trkpt lat="44.56052434593839" lon="9.524790027772504"><ele>1459.0</ele><time>2026-04-30T08:25:24.999Z</time></trkpt><trkpt lat="44.56037826215747" lon="9.524790106534226"><ele>1458.6666666666665</ele><time>2026-04-30T08:25:25.999Z</time></trkpt><trkpt lat="44.56022716127734" lon="9.52474555385895"><ele>1458.3333333333333</ele><time>2026-04-30T08:25:26.999Z</time></trkpt><trkpt lat="44.56007333724809" lon="9.524678083474859"><ele>1458.0</ele><time>2026-04-30T08:25:27.999Z</time></trkpt><trkpt lat="44.55990731107333" lon="9.524602923748093"><ele>1462.6666666666667</ele><time>2026-04-30T08:25:28.999Z</time></trkpt><trkpt lat="44.559748265579934" lon="9.52453808678645"><ele>1467.3333333333335</ele><time>2026-04-30T08:25:29.999Z</time></trkpt><trkpt lat="44.559609558952104" lon="9.524454174316396"><ele>1472.0</ele><time>2026-04-30T08:25:30.999Z</time></trkpt><trkpt lat="44.559458810532206" lon="9.52440877093916"><ele>1474.3333333333335</ele><time>2026-04-30T08:25:31.999Z</time></trkpt><trkpt lat="44.55931011628579" lon="9.524378090764113"><ele>1476.6666666666667</ele><time>2026-04-30T08:25:32.999Z</time></trkpt><trkpt lat="44.5591542369897" lon="9.524387425978775"><ele>1479.0</ele><time>2026-04-30T08:25:33.999Z</time></trkpt><trkpt lat="44.5589892995641" lon="9.524441458188667"><ele>1479.0</ele><time>2026-04-30T08:25:34.999Z</time></trkpt><trkpt lat="44.55883388144449" lon="9.52454517547272"><ele>1479.0</ele><time>2026-04-30T08:25:35.999Z</time></trkpt><trkpt lat="44.55869211268973" lon="9.524648637815611"><ele>1479.0</ele><time>2026-04-30T08:25:36.999Z</time></trkpt><trkpt lat="44.55853321443571" lon="9.52468570627938"><ele>1474.6666666666667</ele><time>2026-04-30T08:25:37.999Z</time></trkpt><trkpt lat="44.55837184647381" lon="9.524742799523635"><ele>1470.3333333333335</ele><time>2026-04-30T08:25:38.999Z</time></trkpt><trkpt lat="44.5582209062876" lon="9.524790339537041"><ele>1466.0</ele><time>2026-04-30T08:25:39.999Z</time></trkpt><trkpt lat="44.55807334713941" lon="9.524864605324574"><ele>1466.0</ele><time>2026-04-30T08:25:40.999Z</time></trkpt><trkpt lat="44.55793091744232" lon="9.524887405975802"><ele>1466.0</ele><time>2026-04-30T08:25:41.999Z</time></trkpt><trkpt lat="44.55780961967997" lon="9.524893846118092"><ele>1466.0</ele><time>2026-04-30T08:25:42.999Z</time></trkpt><trkpt lat="44.557742072639066" lon="9.52485031842365"><ele>1466.0</ele><time>2026-04-30T08:25:43.999Z</time></trkpt><trkpt lat="44.55768830136529" lon="9.52480301746033"><ele>1466.0</ele><time>2026-04-30T08:25:44.999Z</time></trkpt><trkpt lat="44.55762497859956" lon="9.524694741579498"><ele>1465.6</ele><time>2026-04-30T08:25:45.999Z</time></trkpt><trkpt lat="44.55759586109521" lon="9.524586577916217"><ele>1465.1999999999998</ele><time>2026-04-30T08:25:46.999Z</time></trkpt><trkpt lat="44.55758350073813" lon="9.524452044472872"><ele>1464.8000000000002</ele><time>2026-04-30T08:25:47.999Z</time></trkpt><trkpt lat="44.557582253141256" lon="9.524289728268013"><ele>1464.4</ele><time>2026-04-30T08:25:48.999Z</time></trkpt><trkpt lat="44.55758249924966" lon="9.5240776293549"><ele>1464.0</ele><time>2026-04-30T08:25:49.999Z</time></trkpt><trkpt lat="44.55758275880182" lon="9.523853945261084"><ele>1467.25</ele><time>2026-04-30T08:25:50.999Z</time></trkpt><trkpt lat="44.55758299694164" lon="9.523648714746987"><ele>1470.5</ele><time>2026-04-30T08:25:51.999Z</time></trkpt><trkpt lat="44.557579685636036" lon="9.523440816357034"><ele>1473.75</ele><time>2026-04-30T08:25:52.999Z</time></trkpt><trkpt lat="44.55756487462318" lon="9.523239644131511"><ele>1477.0</ele><time>2026-04-30T08:25:53.999Z</time></trkpt><trkpt lat="44.55752339505301" lon="9.52303242606394"><ele>1481.3333333333333</ele><time>2026-04-30T08:25:54.999Z</time></trkpt><trkpt lat="44.557480666369095" lon="9.522854019451175"><ele>1485.6666666666667</ele><time>2026-04-30T08:25:55.999Z</time></trkpt><trkpt lat="44.557427665099006" lon="9.52264935669417"><ele>1490.0</ele><time>2026-04-30T08:25:56.999Z</time></trkpt><trkpt lat="44.557353174631814" lon="9.522439886105737"><ele>1490.0</ele><time>2026-04-30T08:25:57.999Z</time></trkpt><trkpt lat="44.55725958929465" lon="9.52224287201096"><ele>1490.0</ele><time>2026-04-30T08:25:58.999Z</time></trkpt><trkpt lat="44.55716596343571" lon="9.522069624642809"><ele>1490.0</ele><time>2026-04-30T08:25:59.999Z</time></trkpt><trkpt lat="44.55707550233844" lon="9.521905037034157"><ele>1487.0</ele><time>2026-04-30T08:26:00.999Z</time></trkpt><trkpt lat="44.55698100159526" lon="9.521733890806097"><ele>1484.0</ele><time>2026-04-30T08:26:01.999Z</time></trkpt><trkpt lat="44.55690456965484" lon="9.521596273932484"><ele>1481.0</ele><time>2026-04-30T08:26:02.999Z</time></trkpt><trkpt lat="44.55681994789384" lon="9.521440705070212"><ele>1478.0</ele><time>2026-04-30T08:26:03.999Z</time></trkpt><trkpt lat="44.556749805880976" lon="9.521292463790509"><ele>1480.5</ele><time>2026-04-30T08:26:04.999Z</time></trkpt><trkpt lat="44.556711440339996" lon="9.521133498911912"><ele>1483.0</ele><time>2026-04-30T08:26:05.999Z</time></trkpt><trkpt lat="44.55669066992388" lon="9.520957665348343"><ele>1485.5</ele><time>2026-04-30T08:26:06.999Z</time></trkpt><trkpt lat="44.556667556365994" lon="9.52074557465595"><ele>1488.0</ele><time>2026-04-30T08:26:07.999Z</time></trkpt><trkpt lat="44.55664020624928" lon="9.520542984611838"><ele>1490.0</ele><time>2026-04-30T08:26:08.999Z</time></trkpt><trkpt lat="44.556586908050356" lon="9.520321744279476"><ele>1492.0</ele><time>2026-04-30T08:26:09.999Z</time></trkpt><trkpt lat="44.55648780501914" lon="9.520148344642418"><ele>1494.0</ele><time>2026-04-30T08:26:10.998Z</time></trkpt><trkpt lat="44.5564035448199" lon="9.520026554552107"><ele>1496.0</ele><time>2026-04-30T08:26:11.998Z</time></trkpt><trkpt lat="44.55632413845279" lon="9.519909164910395"><ele>1496.0</ele><time>2026-04-30T08:26:12.998Z</time></trkpt><trkpt lat="44.55626130630435" lon="9.519780224840554"><ele>1496.0</ele><time>2026-04-30T08:26:13.998Z</time></trkpt><trkpt lat="44.556229191821636" lon="9.51964905292527"><ele>1496.0</ele><time>2026-04-30T08:26:14.998Z</time></trkpt><trkpt lat="44.556214088922744" lon="9.519524744574424"><ele>1496.0</ele><time>2026-04-30T08:26:15.998Z</time></trkpt><trkpt lat="44.55621710126934" lon="9.519370578783233"><ele>1496.0</ele><time>2026-04-30T08:26:16.998Z</time></trkpt><trkpt lat="44.556222509456056" lon="9.51916122772146"><ele>1498.25</ele><time>2026-04-30T08:26:17.998Z</time></trkpt><trkpt lat="44.55622709528552" lon="9.518963632077005"><ele>1500.5</ele><time>2026-04-30T08:26:18.998Z</time></trkpt><trkpt lat="44.55622458180234" lon="9.518751358038651"><ele>1502.75</ele><time>2026-04-30T08:26:19.998Z</time></trkpt><trkpt lat="44.556196827055814" lon="9.518558622404749"><ele>1505.0</ele><time>2026-04-30T08:26:20.998Z</time></trkpt><trkpt lat="44.55614385934578" lon="9.51838229828538"><ele>1503.5</ele><time>2026-04-30T08:26:21.998Z</time></trkpt><trkpt lat="44.55610523700245" lon="9.518199188969085"><ele>1502.0</ele><time>2026-04-30T08:26:22.998Z</time></trkpt><trkpt lat="44.5560679293795" lon="9.518007970448263"><ele>1500.5</ele><time>2026-04-30T08:26:23.998Z</time></trkpt><trkpt lat="44.556005147615586" lon="9.517826285487812"><ele>1499.0</ele><time>2026-04-30T08:26:24.998Z</time></trkpt><trkpt lat="44.555928917919516" lon="9.517658079525942"><ele>1499.0</ele><time>2026-04-30T08:26:25.998Z</time></trkpt><trkpt lat="44.555848164308536" lon="9.517502341822267"><ele>1499.0</ele><time>2026-04-30T08:26:26.998Z</time></trkpt><trkpt lat="44.55576543527037" lon="9.517337573119924"><ele>1499.0</ele><time>2026-04-30T08:26:27.998Z</time></trkpt><trkpt lat="44.55568162434028" lon="9.51716793877802"><ele>1499.0</ele><time>2026-04-30T08:26:28.998Z</time></trkpt><trkpt lat="44.55559898870018" lon="9.517000428703817"><ele>1499.5</ele><time>2026-04-30T08:26:29.998Z</time></trkpt><trkpt lat="44.555520066922625" lon="9.51684044753806"><ele>1500.0</ele><time>2026-04-30T08:26:30.998Z</time></trkpt><trkpt lat="44.555434529504915" lon="9.516667055660989"><ele>1500.5</ele><time>2026-04-30T08:26:31.998Z</time></trkpt><trkpt lat="44.555359676298174" lon="9.51652702848442"><ele>1501.0</ele><time>2026-04-30T08:26:32.998Z</time></trkpt><trkpt lat="44.55525603201478" lon="9.51640509505061"><ele>1501.0</ele><time>2026-04-30T08:26:33.998Z</time></trkpt><trkpt lat="44.555163765025874" lon="9.51629481287396"><ele>1501.0</ele><time>2026-04-30T08:26:34.998Z</time></trkpt><trkpt lat="44.555059464457194" lon="9.51622681345468"><ele>1501.0</ele><time>2026-04-30T08:26:35.998Z</time></trkpt><trkpt lat="44.554939358636275" lon="9.516179038002827"><ele>1501.0</ele><time>2026-04-30T08:26:36.998Z</time></trkpt><trkpt lat="44.55479220161353" lon="9.51613966840679"><ele>1502.0</ele><time>2026-04-30T08:26:37.998Z</time></trkpt><trkpt lat="44.554649751577735" lon="9.516110319941482"><ele>1503.0</ele><time>2026-04-30T08:26:38.998Z</time></trkpt><trkpt lat="44.55452012662502" lon="9.516109912220072"><ele>1504.0</ele><time>2026-04-30T08:26:39.998Z</time></trkpt><trkpt lat="44.55437781863364" lon="9.516174191402433"><ele>1505.0</ele><time>2026-04-30T08:26:40.998Z</time></trkpt><trkpt lat="44.55423771148438" lon="9.51628336748129"><ele>1505.0</ele><time>2026-04-30T08:26:41.998Z</time></trkpt><trkpt lat="44.55412404406639" lon="9.516401550808942"><ele>1505.0</ele><time>2026-04-30T08:26:42.998Z</time></trkpt><trkpt lat="44.554033528545865" lon="9.516522249623716"><ele>1505.0</ele><time>2026-04-30T08:26:43.998Z</time></trkpt><trkpt lat="44.55393924177122" lon="9.51662163842153"><ele>1505.0</ele><time>2026-04-30T08:26:44.998Z</time></trkpt><trkpt lat="44.55385430737389" lon="9.516706735404684"><ele>1505.0</ele><time>2026-04-30T08:26:45.998Z</time></trkpt><trkpt lat="44.55375078364984" lon="9.516741928514127"><ele>1505.0</ele><time>2026-04-30T08:26:46.998Z</time></trkpt><trkpt lat="44.553640065211226" lon="9.516723442282546"><ele>1505.0</ele><time>2026-04-30T08:26:47.998Z</time></trkpt><trkpt lat="44.55352601614746" lon="9.516676264278248"><ele>1505.0</ele><time>2026-04-30T08:26:48.998Z</time></trkpt><trkpt lat="44.553397807655145" lon="9.516612226525545"><ele>1505.25</ele><time>2026-04-30T08:26:49.998Z</time></trkpt><trkpt lat="44.55326238657995" lon="9.51655147111322"><ele>1505.5</ele><time>2026-04-30T08:26:50.998Z</time></trkpt><trkpt lat="44.55312953350735" lon="9.516467971874427"><ele>1505.75</ele><time>2026-04-30T08:26:51.998Z</time></trkpt><trkpt lat="44.55299388413333" lon="9.516360210914147"><ele>1506.0</ele><time>2026-04-30T08:26:52.998Z</time></trkpt><trkpt lat="44.55284703671878" lon="9.516263314154001"><ele>1509.0</ele><time>2026-04-30T08:26:53.998Z</time></trkpt><trkpt lat="44.55269102070571" lon="9.516210679602446"><ele>1512.0</ele><time>2026-04-30T08:26:54.998Z</time></trkpt><trkpt lat="44.55254194240264" lon="9.516124393746034"><ele>1515.0</ele><time>2026-04-30T08:26:55.998Z</time></trkpt><trkpt lat="44.552399063757434" lon="9.516057571265133"><ele>1515.0</ele><time>2026-04-30T08:26:56.998Z</time></trkpt><trkpt lat="44.552277896494644" lon="9.515974577495701"><ele>1515.0</ele><time>2026-04-30T08:26:57.998Z</time></trkpt><trkpt lat="44.55214104974282" lon="9.515852576582047"><ele>1515.0</ele><time>2026-04-30T08:26:58.998Z</time></trkpt><trkpt lat="44.55207639254561" lon="9.515690574121669"><ele>1515.0</ele><time>2026-04-30T08:26:59.998Z</time></trkpt><trkpt lat="44.55200543090443" lon="9.515513858654788"><ele>1510.3333333333333</ele><time>2026-04-30T08:27:00.998Z</time></trkpt><trkpt lat="44.55193435937161" lon="9.51530472307061"><ele>1505.6666666666665</ele><time>2026-04-30T08:27:01.998Z</time></trkpt><trkpt lat="44.5518833328659" lon="9.515115028001011"><ele>1501.0</ele><time>2026-04-30T08:27:02.998Z</time></trkpt><trkpt lat="44.55183557659297" lon="9.514904598366927"><ele>1501.0</ele><time>2026-04-30T08:27:03.998Z</time></trkpt><trkpt lat="44.55177983169389" lon="9.514656621648495"><ele>1501.0</ele><time>2026-04-30T08:27:04.998Z</time></trkpt><trkpt lat="44.551721149455716" lon="9.514445642372868"><ele>1501.0</ele><time>2026-04-30T08:27:05.998Z</time></trkpt><trkpt lat="44.55164044771497" lon="9.51426426764512"><ele>1505.6666666666665</ele><time>2026-04-30T08:27:06.998Z</time></trkpt><trkpt lat="44.55156144973935" lon="9.514061819032419"><ele>1510.3333333333333</ele><time>2026-04-30T08:27:07.998Z</time></trkpt><trkpt lat="44.55147047147616" lon="9.51386915586541"><ele>1515.0</ele><time>2026-04-30T08:27:08.998Z</time></trkpt><trkpt lat="44.55133491002207" lon="9.513712461765556"><ele>1512.6666666666667</ele><time>2026-04-30T08:27:09.998Z</time></trkpt><trkpt lat="44.55119960929399" lon="9.513553991162707"><ele>1510.3333333333335</ele><time>2026-04-30T08:27:10.998Z</time></trkpt><trkpt lat="44.551104336952406" lon="9.513385753469516"><ele>1508.0</ele><time>2026-04-30T08:27:11.998Z</time></trkpt><trkpt lat="44.55102089611079" lon="9.513189648620868"><ele>1508.0</ele><time>2026-04-30T08:27:12.998Z</time></trkpt><trkpt lat="44.550932814074564" lon="9.513005836838326"><ele>1508.0</ele><time>2026-04-30T08:27:13.998Z</time></trkpt><trkpt lat="44.55083590300724" lon="9.512824067386068"><ele>1508.0</ele><time>2026-04-30T08:27:14.998Z</time></trkpt><trkpt lat="44.55072686277088" lon="9.51266345595623"><ele>1507.3333333333335</ele><time>2026-04-30T08:27:15.998Z</time></trkpt><trkpt lat="44.5505964384033" lon="9.512548154108114"><ele>1506.6666666666667</ele><time>2026-04-30T08:27:16.998Z</time></trkpt><trkpt lat="44.550471748226094" lon="9.51243461404462"><ele>1506.0</ele><time>2026-04-30T08:27:17.998Z</time></trkpt><trkpt lat="44.55032035617514" lon="9.512353517892842"><ele>1506.0</ele><time>2026-04-30T08:27:18.998Z</time></trkpt><trkpt lat="44.55015765561028" lon="9.512287854360128"><ele>1506.0</ele><time>2026-04-30T08:27:19.998Z</time></trkpt><trkpt lat="44.55001159429612" lon="9.512201602654082"><ele>1506.0</ele><time>2026-04-30T08:27:20.998Z</time></trkpt><trkpt lat="44.5498726196194" lon="9.512129276866068"><ele>1506.25</ele><time>2026-04-30T08:27:21.998Z</time></trkpt><trkpt lat="44.549753018804914" lon="9.51205218666777"><ele>1506.5</ele><time>2026-04-30T08:27:22.998Z</time></trkpt><trkpt lat="44.54961376669646" lon="9.512033676038023"><ele>1506.75</ele><time>2026-04-30T08:27:23.998Z</time></trkpt><trkpt lat="44.54953979931184" lon="9.511945625670114"><ele>1507.0</ele><time>2026-04-30T08:27:24.998Z</time></trkpt><trkpt lat="44.54949893978783" lon="9.511843165209823"><ele>1507.0</ele><time>2026-04-30T08:27:25.998Z</time></trkpt><trkpt lat="44.54949235216155" lon="9.511702703155557"><ele>1507.0</ele><time>2026-04-30T08:27:26.998Z</time></trkpt><trkpt lat="44.54949710498781" lon="9.511558170592602"><ele>1507.0</ele><time>2026-04-30T08:27:27.998Z</time></trkpt><trkpt lat="44.54951322374087" lon="9.51133364726733"><ele>1507.0</ele><time>2026-04-30T08:27:28.998Z</time></trkpt><trkpt lat="44.54954726148873" lon="9.51109207423147"><ele>1511.3333333333333</ele><time>2026-04-30T08:27:29.998Z</time></trkpt><trkpt lat="44.54957989436369" lon="9.51085863056022"><ele>1515.6666666666667</ele><time>2026-04-30T08:27:30.998Z</time></trkpt><trkpt lat="44.54964050338943" lon="9.510656031602538"><ele>1520.0</ele><time>2026-04-30T08:27:31.998Z</time></trkpt><trkpt lat="44.54967185334699" lon="9.510443865388856"><ele>1520.25</ele><time>2026-04-30T08:27:32.998Z</time></trkpt><trkpt lat="44.54972234111738" lon="9.5102521348607"><ele>1520.5</ele><time>2026-04-30T08:27:33.998Z</time></trkpt><trkpt lat="44.549764987759445" lon="9.510039174155697"><ele>1520.75</ele><time>2026-04-30T08:27:34.998Z</time></trkpt><trkpt lat="44.54975957560078" lon="9.50986471936398"><ele>1521.0</ele><time>2026-04-30T08:27:35.998Z</time></trkpt><trkpt lat="44.54970502955832" lon="9.509652355533392"><ele>1524.0</ele><time>2026-04-30T08:27:36.998Z</time></trkpt><trkpt lat="44.5496066837544" lon="9.509455566384013"><ele>1527.0</ele><time>2026-04-30T08:27:37.998Z</time></trkpt><trkpt lat="44.54953224263463" lon="9.509279979135995"><ele>1530.0</ele><time>2026-04-30T08:27:38.998Z</time></trkpt><trkpt lat="44.5494373840398" lon="9.509117199981214"><ele>1525.0</ele><time>2026-04-30T08:27:39.998Z</time></trkpt><trkpt lat="44.54931891116073" lon="9.508951841748493"><ele>1520.0</ele><time>2026-04-30T08:27:40.998Z</time></trkpt><trkpt lat="44.549207916051664" lon="9.508769614868775"><ele>1515.0</ele><time>2026-04-30T08:27:41.998Z</time></trkpt><trkpt lat="44.5491254589161" lon="9.508606699231363"><ele>1515.0</ele><time>2026-04-30T08:27:42.998Z</time></trkpt><trkpt lat="44.549074379478476" lon="9.508423656467626"><ele>1515.0</ele><time>2026-04-30T08:27:43.998Z</time></trkpt><trkpt lat="44.549025905532716" lon="9.508240044325"><ele>1515.0</ele><time>2026-04-30T08:27:44.998Z</time></trkpt><trkpt lat="44.5489794097189" lon="9.508074216853696"><ele>1515.0</ele><time>2026-04-30T08:27:45.998Z</time></trkpt><trkpt lat="44.54894064596857" lon="9.507907723471112"><ele>1515.0</ele><time>2026-04-30T08:27:46.998Z</time></trkpt><trkpt lat="44.54892575696325" lon="9.50776120012136"><ele>1515.0</ele><time>2026-04-30T08:27:47.998Z</time></trkpt><trkpt lat="44.54894120753702" lon="9.507571944777137"><ele>1515.0</ele><time>2026-04-30T08:27:48.998Z</time></trkpt><trkpt lat="44.548979658422596" lon="9.507348905143884"><ele>1515.0</ele><time>2026-04-30T08:27:49.998Z</time></trkpt><trkpt lat="44.549017900858594" lon="9.50715156653314"><ele>1514.0</ele><time>2026-04-30T08:27:50.998Z</time></trkpt><trkpt lat="44.54905116484303" lon="9.5069826708285"><ele>1513.0</ele><time>2026-04-30T08:27:51.998Z</time></trkpt><trkpt lat="44.549084037714664" lon="9.506820650290711"><ele>1512.0</ele><time>2026-04-30T08:27:52.998Z</time></trkpt><trkpt lat="44.54909514714818" lon="9.506625790703598"><ele>1511.0</ele><time>2026-04-30T08:27:53.998Z</time></trkpt><trkpt lat="44.5491021440333" lon="9.506440750557706"><ele>1511.6666666666667</ele><time>2026-04-30T08:27:54.998Z</time></trkpt><trkpt lat="44.54906179266856" lon="9.50622617866487"><ele>1512.3333333333333</ele><time>2026-04-30T08:27:55.998Z</time></trkpt><trkpt lat="44.548979613336456" lon="9.506048606619549"><ele>1513.0</ele><time>2026-04-30T08:27:56.998Z</time></trkpt><trkpt lat="44.54889653029205" lon="9.50587994450585"><ele>1513.0</ele><time>2026-04-30T08:27:57.998Z</time></trkpt><trkpt lat="44.5488114237806" lon="9.505725333146716"><ele>1513.0</ele><time>2026-04-30T08:27:58.998Z</time></trkpt><trkpt lat="44.54877350827327" lon="9.505556800080164"><ele>1513.0</ele><time>2026-04-30T08:27:59.998Z</time></trkpt><trkpt lat="44.54874148647717" lon="9.505385957973752"><ele>1513.0</ele><time>2026-04-30T08:28:00.998Z</time></trkpt><trkpt lat="44.54871222977963" lon="9.505190565303321"><ele>1512.5</ele><time>2026-04-30T08:28:01.998Z</time></trkpt><trkpt lat="44.54868670092006" lon="9.505009267231266"><ele>1512.0</ele><time>2026-04-30T08:28:02.998Z</time></trkpt><trkpt lat="44.5486854586541" lon="9.50482330588329"><ele>1511.5</ele><time>2026-04-30T08:28:03.998Z</time></trkpt><trkpt lat="44.54871025400015" lon="9.504617041862588"><ele>1511.0</ele><time>2026-04-30T08:28:04.998Z</time></trkpt><trkpt lat="44.54872579519564" lon="9.504430778783304"><ele>1506.5</ele><time>2026-04-30T08:28:05.998Z</time></trkpt><trkpt lat="44.548705223098594" lon="9.504229677800357"><ele>1502.0</ele><time>2026-04-30T08:28:06.998Z</time></trkpt><trkpt lat="44.548632300708626" lon="9.504048666451984"><ele>1497.5</ele><time>2026-04-30T08:28:07.998Z</time></trkpt><trkpt lat="44.54856364035405" lon="9.50386376145054"><ele>1493.0</ele><time>2026-04-30T08:28:08.998Z</time></trkpt><trkpt lat="44.548492646364615" lon="9.503685234232146"><ele>1493.0</ele><time>2026-04-30T08:28:09.998Z</time></trkpt><trkpt lat="44.54843897632094" lon="9.503496396712082"><ele>1493.0</ele><time>2026-04-30T08:28:10.998Z</time></trkpt><trkpt lat="44.548355525735104" lon="9.50332333013817"><ele>1493.0</ele><time>2026-04-30T08:28:11.998Z</time></trkpt><trkpt lat="44.548300402334156" lon="9.503135169595907"><ele>1493.0</ele><time>2026-04-30T08:28:12.998Z</time></trkpt><trkpt lat="44.54823228361718" lon="9.502955461908686"><ele>1495.0</ele><time>2026-04-30T08:28:13.998Z</time></trkpt><trkpt lat="44.54816413888025" lon="9.502775685943377"><ele>1497.0</ele><time>2026-04-30T08:28:14.998Z</time></trkpt><trkpt lat="44.54809855499983" lon="9.502602665524757"><ele>1499.0</ele><time>2026-04-30T08:28:15.998Z</time></trkpt><trkpt lat="44.54802931087543" lon="9.502419989479186"><ele>1501.0</ele><time>2026-04-30T08:28:16.998Z</time></trkpt><trkpt lat="44.54797234859125" lon="9.502269713714014"><ele>1501.0</ele><time>2026-04-30T08:28:17.998Z</time></trkpt><trkpt lat="44.54791280585397" lon="9.50212037747718"><ele>1501.0</ele><time>2026-04-30T08:28:18.998Z</time></trkpt><trkpt lat="44.54784857138854" lon="9.502004925075168"><ele>1501.0</ele><time>2026-04-30T08:28:19.998Z</time></trkpt><trkpt lat="44.54777395408963" lon="9.50191665039516"><ele>1501.0</ele><time>2026-04-30T08:28:20.998Z</time></trkpt><trkpt lat="44.54767872445523" lon="9.501867404535808"><ele>1501.0</ele><time>2026-04-30T08:28:21.998Z</time></trkpt><trkpt lat="44.54755201398203" lon="9.50185602352268"><ele>1502.0</ele><time>2026-04-30T08:28:22.998Z</time></trkpt><trkpt lat="44.54742789594282" lon="9.501977456209842"><ele>1503.0</ele><time>2026-04-30T08:28:23.998Z</time></trkpt><trkpt lat="44.547314023595725" lon="9.502067547495349"><ele>1504.0</ele><time>2026-04-30T08:28:24.998Z</time></trkpt><trkpt lat="44.54716902824838" lon="9.502122953770442"><ele>1505.0</ele><time>2026-04-30T08:28:25.998Z</time></trkpt><trkpt lat="44.54704002141782" lon="9.502193556018826"><ele>1498.0</ele><time>2026-04-30T08:28:26.998Z</time></trkpt><trkpt lat="44.54687646565649" lon="9.502305358223694"><ele>1491.0</ele><time>2026-04-30T08:28:27.998Z</time></trkpt><trkpt lat="44.54670682319575" lon="9.502372431266341"><ele>1484.0</ele><time>2026-04-30T08:28:28.998Z</time></trkpt><trkpt lat="44.546569244819096" lon="9.502465784222744"><ele>1484.0</ele><time>2026-04-30T08:28:29.998Z</time></trkpt><trkpt lat="44.546426806376616" lon="9.502515655067548"><ele>1484.0</ele><time>2026-04-30T08:28:30.998Z</time></trkpt><trkpt lat="44.546320030936045" lon="9.502550406243683"><ele>1484.0</ele><time>2026-04-30T08:28:31.998Z</time></trkpt><trkpt lat="44.546243313731175" lon="9.502536300880415"><ele>1484.0</ele><time>2026-04-30T08:28:32.997Z</time></trkpt><trkpt lat="44.54614963061061" lon="9.502499532516966"><ele>1484.0</ele><time>2026-04-30T08:28:33.997Z</time></trkpt><trkpt lat="44.546011619278154" lon="9.502418099733427"><ele>1483.0</ele><time>2026-04-30T08:28:34.997Z</time></trkpt><trkpt lat="44.545871713424134" lon="9.502335524633695"><ele>1482.0</ele><time>2026-04-30T08:28:35.997Z</time></trkpt><trkpt lat="44.54573022345427" lon="9.502248862804374"><ele>1481.0</ele><time>2026-04-30T08:28:36.997Z</time></trkpt><trkpt lat="44.54560544337915" lon="9.502109665519928"><ele>1479.0</ele><time>2026-04-30T08:28:37.997Z</time></trkpt><trkpt lat="44.545506755959764" lon="9.501959119512259"><ele>1477.0</ele><time>2026-04-30T08:28:38.997Z</time></trkpt><trkpt lat="44.54542501061984" lon="9.50178766544838"><ele>1475.0</ele><time>2026-04-30T08:28:39.997Z</time></trkpt><trkpt lat="44.54534136982557" lon="9.501598667104238"><ele>1475.0</ele><time>2026-04-30T08:28:40.997Z</time></trkpt><trkpt lat="44.54525982500646" lon="9.501418199177952"><ele>1475.0</ele><time>2026-04-30T08:28:41.997Z</time></trkpt><trkpt lat="44.54517620673091" lon="9.501233141420974"><ele>1475.0</ele><time>2026-04-30T08:28:42.997Z</time></trkpt><trkpt lat="44.54510976681137" lon="9.501086101159911"><ele>1475.0</ele><time>2026-04-30T08:28:43.997Z</time></trkpt><trkpt lat="44.545031286559094" lon="9.500913481525211"><ele>1477.0</ele><time>2026-04-30T08:28:44.997Z</time></trkpt><trkpt lat="44.54495831604438" lon="9.500753641085652"><ele>1479.0</ele><time>2026-04-30T08:28:45.997Z</time></trkpt><trkpt lat="44.54489628399101" lon="9.500613199429894"><ele>1481.0</ele><time>2026-04-30T08:28:46.997Z</time></trkpt><trkpt lat="44.5448520141083" lon="9.500517013732114"><ele>1483.0</ele><time>2026-04-30T08:28:47.997Z</time></trkpt><trkpt lat="44.54477763001789" lon="9.500404638312327"><ele>1485.0</ele><time>2026-04-30T08:28:48.997Z</time></trkpt><trkpt lat="44.54468232642236" lon="9.500323886656158"><ele>1485.75</ele><time>2026-04-30T08:28:49.997Z</time></trkpt><trkpt lat="44.54459357523488" lon="9.500280623115406"><ele>1486.5</ele><time>2026-04-30T08:28:50.997Z</time></trkpt><trkpt lat="44.54445143042626" lon="9.500273468502613"><ele>1487.25</ele><time>2026-04-30T08:28:51.997Z</time></trkpt><trkpt lat="44.544306201601856" lon="9.500317148855773"><ele>1488.0</ele><time>2026-04-30T08:28:52.997Z</time></trkpt><trkpt lat="44.54417922812527" lon="9.500367506468498"><ele>1485.0</ele><time>2026-04-30T08:28:53.997Z</time></trkpt><trkpt lat="44.54404942946169" lon="9.500421605407114"><ele>1482.0</ele><time>2026-04-30T08:28:54.997Z</time></trkpt><trkpt lat="44.543926584847426" lon="9.50047541208781"><ele>1479.0</ele><time>2026-04-30T08:28:55.997Z</time></trkpt><trkpt lat="44.54380499368603" lon="9.500503190428946"><ele>1476.0</ele><time>2026-04-30T08:28:56.997Z</time></trkpt><trkpt lat="44.54366329257409" lon="9.500507292030994"><ele>1476.0</ele><time>2026-04-30T08:28:57.997Z</time></trkpt><trkpt lat="44.54349719981342" lon="9.500528509379945"><ele>1476.0</ele><time>2026-04-30T08:28:58.997Z</time></trkpt><trkpt lat="44.54334711587536" lon="9.500604903017782"><ele>1476.0</ele><time>2026-04-30T08:28:59.997Z</time></trkpt><trkpt lat="44.54318080957601" lon="9.500701476160138"><ele>1476.0</ele><time>2026-04-30T08:29:00.999Z</time></trkpt><trkpt lat="44.543049650908735" lon="9.500811414025053"><ele>1476.0</ele><time>2026-04-30T08:29:01.999Z</time></trkpt><trkpt lat="44.54291877338665" lon="9.500922103925708"><ele>1476.0</ele><time>2026-04-30T08:29:02.999Z</time></trkpt><trkpt lat="44.54277074434032" lon="9.500956739402787"><ele>1477.75</ele><time>2026-04-30T08:29:03.999Z</time></trkpt><trkpt lat="44.542636797134506" lon="9.500986489770643"><ele>1479.5</ele><time>2026-04-30T08:29:04.999Z</time></trkpt><trkpt lat="44.54249788027576" lon="9.501017040692169"><ele>1481.25</ele><time>2026-04-30T08:29:05.999Z</time></trkpt><trkpt lat="44.5423592164562" lon="9.501044507963632"><ele>1483.0</ele><time>2026-04-30T08:29:06.999Z</time></trkpt><trkpt lat="44.542205232386806" lon="9.501084597801999"><ele>1483.0</ele><time>2026-04-30T08:29:07.999Z</time></trkpt><trkpt lat="44.5420799076229" lon="9.501120529101081"><ele>1483.0</ele><time>2026-04-30T08:29:08.999Z</time></trkpt><trkpt lat="44.541965587274134" lon="9.501187085965208"><ele>1483.0</ele><time>2026-04-30T08:29:09.999Z</time></trkpt><trkpt lat="44.54186242345563" lon="9.501340125285813"><ele>1483.0</ele><time>2026-04-30T08:29:10.999Z</time></trkpt><trkpt lat="44.541784901227054" lon="9.501526065899126"><ele>1481.75</ele><time>2026-04-30T08:29:11.999Z</time></trkpt><trkpt lat="44.54171749925316" lon="9.50167504352998"><ele>1480.5</ele><time>2026-04-30T08:29:12.999Z</time></trkpt><trkpt lat="44.54164104486317" lon="9.501812561718092"><ele>1479.25</ele><time>2026-04-30T08:29:13.999Z</time></trkpt><trkpt lat="44.54155685537708" lon="9.50191152127282"><ele>1478.0</ele><time>2026-04-30T08:29:14.999Z</time></trkpt><trkpt lat="44.54146593731633" lon="9.501988661199203"><ele>1478.0</ele><time>2026-04-30T08:29:15.999Z</time></trkpt><trkpt lat="44.54135508386162" lon="9.501973757451202"><ele>1478.0</ele><time>2026-04-30T08:29:16.999Z</time></trkpt><trkpt lat="44.54125467951764" lon="9.501929330966442"><ele>1478.0</ele><time>2026-04-30T08:29:17.999Z</time></trkpt><trkpt lat="44.541100555477826" lon="9.501871332668369"><ele>1478.0</ele><time>2026-04-30T08:29:18.999Z</time></trkpt><trkpt lat="44.54093835247071" lon="9.501826220765507"><ele>1478.6666666666667</ele><time>2026-04-30T08:29:19.999Z</time></trkpt><trkpt lat="44.54078429342737" lon="9.50176578775006"><ele>1479.3333333333333</ele><time>2026-04-30T08:29:20.999Z</time></trkpt><trkpt lat="44.54063082586786" lon="9.50173128918275"><ele>1480.0</ele><time>2026-04-30T08:29:21.999Z</time></trkpt><trkpt lat="44.540458139020004" lon="9.501733144458811"><ele>1478.0</ele><time>2026-04-30T08:29:22.999Z</time></trkpt><trkpt lat="44.54028066869771" lon="9.501740924927686"><ele>1476.0</ele><time>2026-04-30T08:29:23.999Z</time></trkpt><trkpt lat="44.54013661914713" lon="9.501690120221902"><ele>1474.0</ele><time>2026-04-30T08:29:24.999Z</time></trkpt><trkpt lat="44.54000703394572" lon="9.501606906075523"><ele>1474.0</ele><time>2026-04-30T08:29:25.999Z</time></trkpt><trkpt lat="44.53986815820514" lon="9.501503119709497"><ele>1474.0</ele><time>2026-04-30T08:29:26.999Z</time></trkpt><trkpt lat="44.53972343643453" lon="9.501397235652147"><ele>1474.0</ele><time>2026-04-30T08:29:27.999Z</time></trkpt><trkpt lat="44.539572803428875" lon="9.50129597315031"><ele>1478.3333333333333</ele><time>2026-04-30T08:29:28.999Z</time></trkpt><trkpt lat="44.53943876603548" lon="9.501177909066108"><ele>1482.6666666666667</ele><time>2026-04-30T08:29:29.999Z</time></trkpt><trkpt lat="44.53929971112055" lon="9.501061705438143"><ele>1487.0</ele><time>2026-04-30T08:29:30.999Z</time></trkpt><trkpt lat="44.53915859869071" lon="9.50101196926514"><ele>1487.0</ele><time>2026-04-30T08:29:31.999Z</time></trkpt><trkpt lat="44.53900895539917" lon="9.50100431250152"><ele>1487.0</ele><time>2026-04-30T08:29:32.999Z</time></trkpt><trkpt lat="44.538833195757256" lon="9.501019846327972"><ele>1487.0</ele><time>2026-04-30T08:29:33.999Z</time></trkpt><trkpt lat="44.53865594999167" lon="9.50107830790973"><ele>1486.6666666666667</ele><time>2026-04-30T08:29:34.999Z</time></trkpt><trkpt lat="44.53852702996089" lon="9.501199477052788"><ele>1486.3333333333333</ele><time>2026-04-30T08:29:35.999Z</time></trkpt><trkpt lat="44.53839393324797" lon="9.501318076866662"><ele>1486.0</ele><time>2026-04-30T08:29:36.999Z</time></trkpt><trkpt lat="44.538272574807976" lon="9.501444165436475"><ele>1482.5</ele><time>2026-04-30T08:29:37.999Z</time></trkpt><trkpt lat="44.53813163584232" lon="9.501472465207021"><ele>1479.0</ele><time>2026-04-30T08:29:38.999Z</time></trkpt><trkpt lat="44.53800156829741" lon="9.501499640417444"><ele>1475.5</ele><time>2026-04-30T08:29:39.999Z</time></trkpt><trkpt lat="44.5378452514323" lon="9.501531021451479"><ele>1472.0</ele><time>2026-04-30T08:29:40.999Z</time></trkpt><trkpt lat="44.537676644575406" lon="9.501565687708695"><ele>1472.0</ele><time>2026-04-30T08:29:41.999Z</time></trkpt><trkpt lat="44.53751167993807" lon="9.501600257288784"><ele>1472.0</ele><time>2026-04-30T08:29:42.999Z</time></trkpt><trkpt lat="44.53734420101888" lon="9.501636667746315"><ele>1472.0</ele><time>2026-04-30T08:29:43.999Z</time></trkpt><trkpt lat="44.537180846881576" lon="9.501672181464393"><ele>1473.0</ele><time>2026-04-30T08:29:44.999Z</time></trkpt><trkpt lat="44.537033609739275" lon="9.501697564250671"><ele>1474.0</ele><time>2026-04-30T08:29:45.999Z</time></trkpt><trkpt lat="44.53690307867678" lon="9.501695420905529"><ele>1475.0</ele><time>2026-04-30T08:29:46.999Z</time></trkpt><trkpt lat="44.536776483622404" lon="9.501673459832965"><ele>1476.0</ele><time>2026-04-30T08:29:47.999Z</time></trkpt><trkpt lat="44.53667932430177" lon="9.501640957432523"><ele>1476.0</ele><time>2026-04-30T08:29:48.999Z</time></trkpt><trkpt lat="44.53656384714755" lon="9.501602231088375"><ele>1476.0</ele><time>2026-04-30T08:29:49.999Z</time></trkpt><trkpt lat="44.53645530024608" lon="9.501542089906595"><ele>1476.0</ele><time>2026-04-30T08:29:50.999Z</time></trkpt><trkpt lat="44.53634677812492" lon="9.501491470451455"><ele>1476.0</ele><time>2026-04-30T08:29:51.999Z</time></trkpt><trkpt lat="44.53623990751478" lon="9.501411595901821"><ele>1475.1999999999998</ele><time>2026-04-30T08:29:52.999Z</time></trkpt><trkpt lat="44.53612732650439" lon="9.501347701970552"><ele>1474.3999999999999</ele><time>2026-04-30T08:29:53.999Z</time></trkpt><trkpt lat="44.53603051957852" lon="9.501286695896768"><ele>1473.6</ele><time>2026-04-30T08:29:54.999Z</time></trkpt><trkpt lat="44.53593993802069" lon="9.501198092565833"><ele>1472.8</ele><time>2026-04-30T08:29:55.999Z</time></trkpt><trkpt lat="44.53588070597306" lon="9.501086126236993"><ele>1472.0</ele><time>2026-04-30T08:29:56.999Z</time></trkpt><trkpt lat="44.53584402427777" lon="9.500969545191266"><ele>1471.6</ele><time>2026-04-30T08:29:57.999Z</time></trkpt><trkpt lat="44.5358169076786" lon="9.500836651715584"><ele>1471.1999999999998</ele><time>2026-04-30T08:29:58.999Z</time></trkpt><trkpt lat="44.5358135590162" lon="9.500714222416297"><ele>1470.8</ele><time>2026-04-30T08:29:59.999Z</time></trkpt><trkpt lat="44.5358345485987" lon="9.500560898425837"><ele>1470.4</ele><time>2026-04-30T08:30:00.999Z</time></trkpt><trkpt lat="44.53588095121842" lon="9.500412840103186"><ele>1470.0</ele><time>2026-04-30T08:30:01.999Z</time></trkpt><trkpt lat="44.53595982569633" lon="9.5002682079142"><ele>1467.75</ele><time>2026-04-30T08:30:02.999Z</time></trkpt><trkpt lat="44.536052557596186" lon="9.500112239447818"><ele>1465.5</ele><time>2026-04-30T08:30:03.999Z</time></trkpt><trkpt lat="44.5361448896588" lon="9.499955593568302"><ele>1463.25</ele><time>2026-04-30T08:30:04.999Z</time></trkpt><trkpt lat="44.53623359280919" lon="9.499791880997114"><ele>1461.0</ele><time>2026-04-30T08:30:05.999Z</time></trkpt><trkpt lat="44.53630566340481" lon="9.499619509080242"><ele>1463.0</ele><time>2026-04-30T08:30:06.999Z</time></trkpt><trkpt lat="44.5363452478449" lon="9.499430530073445"><ele>1465.0</ele><time>2026-04-30T08:30:07.999Z</time></trkpt><trkpt lat="44.53634853700136" lon="9.49927014890205"><ele>1467.0</ele><time>2026-04-30T08:30:08.999Z</time></trkpt><trkpt lat="44.536307858058606" lon="9.499108035691018"><ele>1469.0</ele><time>2026-04-30T08:30:09.999Z</time></trkpt><trkpt lat="44.5363012594647" lon="9.498935690230569"><ele>1469.0</ele><time>2026-04-30T08:30:10.999Z</time></trkpt><trkpt lat="44.536304539744464" lon="9.498760639140517"><ele>1469.0</ele><time>2026-04-30T08:30:11.999Z</time></trkpt><trkpt lat="44.53635531342745" lon="9.498576827111677"><ele>1469.0</ele><time>2026-04-30T08:30:12.999Z</time></trkpt><trkpt lat="44.536416476509366" lon="9.498380130991306"><ele>1469.0</ele><time>2026-04-30T08:30:13.999Z</time></trkpt><trkpt lat="44.53649127404398" lon="9.498195609742638"><ele>1466.75</ele><time>2026-04-30T08:30:14.999Z</time></trkpt><trkpt lat="44.536555757435714" lon="9.498027151645882"><ele>1464.5</ele><time>2026-04-30T08:30:15.999Z</time></trkpt><trkpt lat="44.536615215338" lon="9.497844367902442"><ele>1462.25</ele><time>2026-04-30T08:30:16.999Z</time></trkpt><trkpt lat="44.536663592359346" lon="9.497689232730691"><ele>1460.0</ele><time>2026-04-30T08:30:17.999Z</time></trkpt><trkpt lat="44.536669127128505" lon="9.497504981857297"><ele>1458.5</ele><time>2026-04-30T08:30:18.999Z</time></trkpt><trkpt lat="44.53665160626807" lon="9.497303235317538"><ele>1457.0</ele><time>2026-04-30T08:30:19.999Z</time></trkpt><trkpt lat="44.536621850829704" lon="9.497103461969328"><ele>1455.5</ele><time>2026-04-30T08:30:20.999Z</time></trkpt><trkpt lat="44.53657623863888" lon="9.496913708649394"><ele>1454.0</ele><time>2026-04-30T08:30:21.999Z</time></trkpt><trkpt lat="44.536578349091684" lon="9.496707164889331"><ele>1453.5</ele><time>2026-04-30T08:30:22.999Z</time></trkpt><trkpt lat="44.53657641590613" lon="9.496508666874872"><ele>1453.0</ele><time>2026-04-30T08:30:23.999Z</time></trkpt><trkpt lat="44.536605672386095" lon="9.49633970314986"><ele>1452.5</ele><time>2026-04-30T08:30:24.999Z</time></trkpt><trkpt lat="44.536669646155396" lon="9.496192334947724"><ele>1452.0</ele><time>2026-04-30T08:30:25.999Z</time></trkpt><trkpt lat="44.536746734033784" lon="9.496040322383221"><ele>1449.0</ele><time>2026-04-30T08:30:26.999Z</time></trkpt><trkpt lat="44.53683493926609" lon="9.495861291322868"><ele>1446.0</ele><time>2026-04-30T08:30:27.999Z</time></trkpt><trkpt lat="44.53694577032418" lon="9.495690357841694"><ele>1443.0</ele><time>2026-04-30T08:30:28.999Z</time></trkpt><trkpt lat="44.53707725378042" lon="9.49553564173193"><ele>1446.3333333333333</ele><time>2026-04-30T08:30:29.999Z</time></trkpt><trkpt lat="44.53720128325943" lon="9.495358796505576"><ele>1449.6666666666665</ele><time>2026-04-30T08:30:30.999Z</time></trkpt><trkpt lat="44.53733371658793" lon="9.495169335609207"><ele>1453.0</ele><time>2026-04-30T08:30:31.999Z</time></trkpt><trkpt lat="44.53745332253675" lon="9.494996322904317"><ele>1453.0</ele><time>2026-04-30T08:30:32.999Z</time></trkpt><trkpt lat="44.537574572994195" lon="9.494820930593905"><ele>1453.0</ele><time>2026-04-30T08:30:33.999Z</time></trkpt><trkpt lat="44.53769602234" lon="9.49468764704058"><ele>1453.0</ele><time>2026-04-30T08:30:34.999Z</time></trkpt><trkpt lat="44.537783548313946" lon="9.494497380982429"><ele>1450.75</ele><time>2026-04-30T08:30:35.999Z</time></trkpt><trkpt lat="44.53784034241572" lon="9.494313704235458"><ele>1448.5</ele><time>2026-04-30T08:30:36.999Z</time></trkpt><trkpt lat="44.537862083911" lon="9.494126513514443"><ele>1446.25</ele><time>2026-04-30T08:30:37.999Z</time></trkpt><trkpt lat="44.53786028257632" lon="9.493915832780838"><ele>1444.0</ele><time>2026-04-30T08:30:38.999Z</time></trkpt><trkpt lat="44.537837226989495" lon="9.49367047192611"><ele>1444.0</ele><time>2026-04-30T08:30:39.999Z</time></trkpt><trkpt lat="44.537774136344076" lon="9.493444518122915"><ele>1444.0</ele><time>2026-04-30T08:30:40.999Z</time></trkpt><trkpt lat="44.53773281981911" lon="9.49319919074019"><ele>1444.0</ele><time>2026-04-30T08:30:41.999Z</time></trkpt><trkpt lat="44.5376705342685" lon="9.492990122493952"><ele>1445.6666666666665</ele><time>2026-04-30T08:30:42.999Z</time></trkpt><trkpt lat="44.537597919479865" lon="9.492816040973382"><ele>1447.3333333333333</ele><time>2026-04-30T08:30:43.999Z</time></trkpt><trkpt lat="44.537493116808825" lon="9.492658672487929"><ele>1449.0</ele><time>2026-04-30T08:30:44.999Z</time></trkpt><trkpt lat="44.537375550388866" lon="9.492491637864347"><ele>1449.0</ele><time>2026-04-30T08:30:45.999Z</time></trkpt><trkpt lat="44.53727151736788" lon="9.492336402588238"><ele>1449.0</ele><time>2026-04-30T08:30:46.999Z</time></trkpt><trkpt lat="44.53717751951192" lon="9.49217424200447"><ele>1449.0</ele><time>2026-04-30T08:30:47.999Z</time></trkpt><trkpt lat="44.537106829263045" lon="9.491994174337687"><ele>1449.0</ele><time>2026-04-30T08:30:48.999Z</time></trkpt><trkpt lat="44.53708246669236" lon="9.491781836767842"><ele>1449.0</ele><time>2026-04-30T08:30:49.999Z</time></trkpt><trkpt lat="44.53707574032773" lon="9.491563046817657"><ele>1449.0</ele><time>2026-04-30T08:30:50.999Z</time></trkpt><trkpt lat="44.53707594847899" lon="9.491329101809788"><ele>1449.0</ele><time>2026-04-30T08:30:51.999Z</time></trkpt><trkpt lat="44.53707045045866" lon="9.491113407758192"><ele>1444.75</ele><time>2026-04-30T08:30:52.999Z</time></trkpt><trkpt lat="44.5370340966779" lon="9.490914661115177"><ele>1440.5</ele><time>2026-04-30T08:30:53.999Z</time></trkpt><trkpt lat="44.53698113256685" lon="9.490741258804762"><ele>1436.25</ele><time>2026-04-30T08:30:54.999Z</time></trkpt><trkpt lat="44.53687129155228" lon="9.490593586589503"><ele>1432.0</ele><time>2026-04-30T08:30:55.999Z</time></trkpt><trkpt lat="44.536746822205174" lon="9.49046263190858"><ele>1431.0</ele><time>2026-04-30T08:30:56.999Z</time></trkpt><trkpt lat="44.53661517614739" lon="9.490324289021686"><ele>1430.0</ele><time>2026-04-30T08:30:57.999Z</time></trkpt><trkpt lat="44.53646217418548" lon="9.490179340394656"><ele>1429.0</ele><time>2026-04-30T08:30:58.999Z</time></trkpt><trkpt lat="44.536298934164165" lon="9.490044860573175"><ele>1425.3333333333333</ele><time>2026-04-30T08:30:59.999Z</time></trkpt><trkpt lat="44.53615709062273" lon="9.48986364289501"><ele>1421.6666666666667</ele><time>2026-04-30T08:31:00.999Z</time></trkpt><trkpt lat="44.53601375059264" lon="9.4897051246349"><ele>1418.0</ele><time>2026-04-30T08:31:01.999Z</time></trkpt><trkpt lat="44.535878633902506" lon="9.48955160723215"><ele>1417.6666666666667</ele><time>2026-04-30T08:31:02.999Z</time></trkpt><trkpt lat="44.53574697214895" lon="9.489409147718876"><ele>1417.3333333333333</ele><time>2026-04-30T08:31:03.999Z</time></trkpt><trkpt lat="44.53561821181409" lon="9.48927815695816"><ele>1417.0</ele><time>2026-04-30T08:31:04.999Z</time></trkpt><trkpt lat="44.53551494400738" lon="9.489151077401536"><ele>1417.0</ele><time>2026-04-30T08:31:05.999Z</time></trkpt><trkpt lat="44.53543842936095" lon="9.489009331635721"><ele>1417.0</ele><time>2026-04-30T08:31:06.999Z</time></trkpt><trkpt lat="44.53537541026735" lon="9.488875176614917"><ele>1417.0</ele><time>2026-04-30T08:31:07.999Z</time></trkpt><trkpt lat="44.53534644750153" lon="9.488757335243674"><ele>1417.0</ele><time>2026-04-30T08:31:08.999Z</time></trkpt><trkpt lat="44.53533217150941" lon="9.488569290235954"><ele>1415.3333333333333</ele><time>2026-04-30T08:31:09.999Z</time></trkpt><trkpt lat="44.53534664780513" lon="9.488346514122544"><ele>1413.6666666666667</ele><time>2026-04-30T08:31:10.999Z</time></trkpt><trkpt lat="44.53538496509594" lon="9.488126768909371"><ele>1412.0</ele><time>2026-04-30T08:31:11.999Z</time></trkpt><trkpt lat="44.53543833101501" lon="9.487869953199382"><ele>1412.0</ele><time>2026-04-30T08:31:12.999Z</time></trkpt><trkpt lat="44.53549162423485" lon="9.48760797434905"><ele>1412.0</ele><time>2026-04-30T08:31:13.999Z</time></trkpt><trkpt lat="44.53554597347535" lon="9.487340780063107"><ele>1412.0</ele><time>2026-04-30T08:31:14.999Z</time></trkpt><trkpt lat="44.53560132618875" lon="9.487081227644596"><ele>1407.6666666666667</ele><time>2026-04-30T08:31:15.999Z</time></trkpt><trkpt lat="44.535661857630956" lon="9.48683336769676"><ele>1403.3333333333333</ele><time>2026-04-30T08:31:16.999Z</time></trkpt><trkpt lat="44.53572829093925" lon="9.48661958207865"><ele>1399.0</ele><time>2026-04-30T08:31:17.999Z</time></trkpt><trkpt lat="44.53579933616572" lon="9.486409280299386"><ele>1394.6666666666665</ele><time>2026-04-30T08:31:18.999Z</time></trkpt><trkpt lat="44.5358760841933" lon="9.486207616049366"><ele>1390.3333333333333</ele><time>2026-04-30T08:31:19.999Z</time></trkpt><trkpt lat="44.535978392191915" lon="9.486008651808326"><ele>1386.0</ele><time>2026-04-30T08:31:20.999Z</time></trkpt><trkpt lat="44.53608602467797" lon="9.485836659102233"><ele>1386.0</ele><time>2026-04-30T08:31:21.999Z</time></trkpt><trkpt lat="44.53619551030346" lon="9.485680928173952"><ele>1386.0</ele><time>2026-04-30T08:31:22.999Z</time></trkpt><trkpt lat="44.53631023189248" lon="9.48554141430542"><ele>1386.0</ele><time>2026-04-30T08:31:23.999Z</time></trkpt><trkpt lat="44.536420985355775" lon="9.485416127196805"><ele>1387.25</ele><time>2026-04-30T08:31:24.999Z</time></trkpt><trkpt lat="44.53653397966511" lon="9.485281477963458"><ele>1388.5</ele><time>2026-04-30T08:31:25.999Z</time></trkpt><trkpt lat="44.53662419743017" lon="9.485172123699032"><ele>1389.75</ele><time>2026-04-30T08:31:26.999Z</time></trkpt><trkpt lat="44.53668373228033" lon="9.48504028114331"><ele>1391.0</ele><time>2026-04-30T08:31:27.999Z</time></trkpt><trkpt lat="44.53672831513609" lon="9.48489259834157"><ele>1391.0</ele><time>2026-04-30T08:31:28.999Z</time></trkpt><trkpt lat="44.53676053117658" lon="9.484712758285893"><ele>1391.0</ele><time>2026-04-30T08:31:29.999Z</time></trkpt><trkpt lat="44.5367946599124" lon="9.484477421963978"><ele>1391.0</ele><time>2026-04-30T08:31:30.999Z</time></trkpt><trkpt lat="44.53682935237964" lon="9.484257665082437"><ele>1387.0</ele><time>2026-04-30T08:31:31.999Z</time></trkpt><trkpt lat="44.53686895627717" lon="9.48401856076508"><ele>1383.0</ele><time>2026-04-30T08:31:32.999Z</time></trkpt><trkpt lat="44.53692860041007" lon="9.4838054390554"><ele>1379.0</ele><time>2026-04-30T08:31:33.999Z</time></trkpt><trkpt lat="44.536971006604624" lon="9.483580519350191"><ele>1374.0</ele><time>2026-04-30T08:31:34.999Z</time></trkpt><trkpt lat="44.53703998171287" lon="9.483382331061488"><ele>1369.0</ele><time>2026-04-30T08:31:35.999Z</time></trkpt><trkpt lat="44.53713522496175" lon="9.483184611987749"><ele>1364.0</ele><time>2026-04-30T08:31:36.999Z</time></trkpt><trkpt lat="44.53722670701785" lon="9.483015515958693"><ele>1368.3333333333335</ele><time>2026-04-30T08:31:37.999Z</time></trkpt><trkpt lat="44.537307544858685" lon="9.4828435807875"><ele>1372.6666666666667</ele><time>2026-04-30T08:31:38.999Z</time></trkpt><trkpt lat="44.53741206801478" lon="9.482683979654185"><ele>1377.0</ele><time>2026-04-30T08:31:39.999Z</time></trkpt><trkpt lat="44.537541252237126" lon="9.48253369968045"><ele>1377.0</ele><time>2026-04-30T08:31:40.999Z</time></trkpt><trkpt lat="44.53768069235511" lon="9.482385665402207"><ele>1377.0</ele><time>2026-04-30T08:31:41.999Z</time></trkpt><trkpt lat="44.53783189449649" lon="9.48222814778478"><ele>1377.0</ele><time>2026-04-30T08:31:42.999Z</time></trkpt><trkpt lat="44.53796987403414" lon="9.482088771632188"><ele>1376.6666666666667</ele><time>2026-04-30T08:31:43.999Z</time></trkpt><trkpt lat="44.53810658957817" lon="9.481949535410802"><ele>1376.3333333333335</ele><time>2026-04-30T08:31:44.999Z</time></trkpt><trkpt lat="44.538232783175324" lon="9.481820141744437"><ele>1376.0</ele><time>2026-04-30T08:31:45.999Z</time></trkpt><trkpt lat="44.53833734562207" lon="9.481705499298577"><ele>1376.0</ele><time>2026-04-30T08:31:46.999Z</time></trkpt><trkpt lat="44.53841058253089" lon="9.481588655599257"><ele>1376.0</ele><time>2026-04-30T08:31:47.999Z</time></trkpt><trkpt lat="44.53847984143913" lon="9.481442066978827"><ele>1376.0</ele><time>2026-04-30T08:31:48.999Z</time></trkpt><trkpt lat="44.53853175554192" lon="9.481263368739363"><ele>1376.0</ele><time>2026-04-30T08:31:49.999Z</time></trkpt><trkpt lat="44.538554922948094" lon="9.48106649796175"><ele>1371.0</ele><time>2026-04-30T08:31:50.999Z</time></trkpt><trkpt lat="44.538565671789016" lon="9.480857787085037"><ele>1366.0</ele><time>2026-04-30T08:31:51.999Z</time></trkpt><trkpt lat="44.53857354610428" lon="9.480614220801133"><ele>1361.0</ele><time>2026-04-30T08:31:52.999Z</time></trkpt><trkpt lat="44.53857884542665" lon="9.480379324879372"><ele>1359.0</ele><time>2026-04-30T08:31:53.999Z</time></trkpt><trkpt lat="44.5385398908417" lon="9.480167729273964"><ele>1357.0</ele><time>2026-04-30T08:31:54.999Z</time></trkpt><trkpt lat="44.53846268772709" lon="9.479980230089362"><ele>1355.0</ele><time>2026-04-30T08:31:55.999Z</time></trkpt><trkpt lat="44.538357364443534" lon="9.479825603558028"><ele>1355.0</ele><time>2026-04-30T08:31:56.999Z</time></trkpt><trkpt lat="44.53821397219185" lon="9.479647669653716"><ele>1355.0</ele><time>2026-04-30T08:31:57.999Z</time></trkpt><trkpt lat="44.53807756427908" lon="9.479484294565287"><ele>1355.0</ele><time>2026-04-30T08:31:58.999Z</time></trkpt><trkpt lat="44.53796006878246" lon="9.479327978817802"><ele>1351.3333333333335</ele><time>2026-04-30T08:31:59.999Z</time></trkpt><trkpt lat="44.53782867079868" lon="9.479210539834426"><ele>1347.6666666666667</ele><time>2026-04-30T08:32:00.999Z</time></trkpt><trkpt lat="44.53769716559902" lon="9.479049686089839"><ele>1344.0</ele><time>2026-04-30T08:32:01.999Z</time></trkpt><trkpt lat="44.53763078833958" lon="9.478873473083546"><ele>1342.6666666666667</ele><time>2026-04-30T08:32:02.999Z</time></trkpt><trkpt lat="44.53759828981554" lon="9.478712254150002"><ele>1341.3333333333335</ele><time>2026-04-30T08:32:03.999Z</time></trkpt><trkpt lat="44.5375882530307" lon="9.478478751304872"><ele>1340.0</ele><time>2026-04-30T08:32:04.999Z</time></trkpt><trkpt lat="44.537583021677015" lon="9.478203456718727"><ele>1340.0</ele><time>2026-04-30T08:32:05.999Z</time></trkpt><trkpt lat="44.537567442933046" lon="9.47794696647117"><ele>1340.0</ele><time>2026-04-30T08:32:06.999Z</time></trkpt><trkpt lat="44.537516131914714" lon="9.47774851174571"><ele>1340.0</ele><time>2026-04-30T08:32:07.999Z</time></trkpt><trkpt lat="44.53746559189102" lon="9.477549391064926"><ele>1340.25</ele><time>2026-04-30T08:32:08.999Z</time></trkpt><trkpt lat="44.53738171972177" lon="9.47736262881083"><ele>1340.5</ele><time>2026-04-30T08:32:09.999Z</time></trkpt><trkpt lat="44.537321484869246" lon="9.477174876501092"><ele>1340.75</ele><time>2026-04-30T08:32:10.999Z</time></trkpt><trkpt lat="44.537333151047015" lon="9.476998117847602"><ele>1341.0</ele><time>2026-04-30T08:32:11.999Z</time></trkpt><trkpt lat="44.537380618138826" lon="9.476836261361527"><ele>1339.3333333333333</ele><time>2026-04-30T08:32:12.999Z</time></trkpt><trkpt lat="44.5374491832814" lon="9.476662960645045"><ele>1337.6666666666665</ele><time>2026-04-30T08:32:13.999Z</time></trkpt><trkpt lat="44.53752458582428" lon="9.476413872849882"><ele>1336.0</ele><time>2026-04-30T08:32:14.999Z</time></trkpt><trkpt lat="44.53755493233116" lon="9.476158306128715"><ele>1335.0</ele><time>2026-04-30T08:32:15.999Z</time></trkpt><trkpt lat="44.537559949567196" lon="9.475967423157533"><ele>1334.0</ele><time>2026-04-30T08:32:16.999Z</time></trkpt><trkpt lat="44.537558653491615" lon="9.475768241256722"><ele>1333.0</ele><time>2026-04-30T08:32:17.999Z</time></trkpt><trkpt lat="44.537523850240824" lon="9.475560958572903"><ele>1332.0</ele><time>2026-04-30T08:32:18.999Z</time></trkpt><trkpt lat="44.53744720971597" lon="9.475369934967384"><ele>1332.0</ele><time>2026-04-30T08:32:19.999Z</time></trkpt><trkpt lat="44.537340891761346" lon="9.475220508311029"><ele>1332.0</ele><time>2026-04-30T08:32:20.999Z</time></trkpt><trkpt lat="44.537235252955014" lon="9.47507422866847"><ele>1332.0</ele><time>2026-04-30T08:32:21.999Z</time></trkpt><trkpt lat="44.537145225632145" lon="9.474916158614558"><ele>1332.0</ele><time>2026-04-30T08:32:22.999Z</time></trkpt><trkpt lat="44.537070877277564" lon="9.47475112037233"><ele>1329.6</ele><time>2026-04-30T08:32:23.999Z</time></trkpt><trkpt lat="44.5370533321132" lon="9.474582046737929"><ele>1327.1999999999998</ele><time>2026-04-30T08:32:24.999Z</time></trkpt><trkpt lat="44.53705582758349" lon="9.474431853518606"><ele>1324.8</ele><time>2026-04-30T08:32:25.999Z</time></trkpt><trkpt lat="44.537093106340954" lon="9.474275964676211"><ele>1322.4</ele><time>2026-04-30T08:32:26.999Z</time></trkpt><trkpt lat="44.53714274728976" lon="9.474163807834213"><ele>1320.0</ele><time>2026-04-30T08:32:27.999Z</time></trkpt><trkpt lat="44.53723811108385" lon="9.474038382708276"><ele>1320.0</ele><time>2026-04-30T08:32:28.999Z</time></trkpt><trkpt lat="44.53737056698535" lon="9.473915906317346"><ele>1320.0</ele><time>2026-04-30T08:32:29.999Z</time></trkpt><trkpt lat="44.53752143319614" lon="9.47376532420769"><ele>1320.0</ele><time>2026-04-30T08:32:30.999Z</time></trkpt><trkpt lat="44.53763303430105" lon="9.473545526110327"><ele>1314.6666666666667</ele><time>2026-04-30T08:32:31.999Z</time></trkpt><trkpt lat="44.53771761406714" lon="9.473335561257967"><ele>1309.3333333333335</ele><time>2026-04-30T08:32:32.999Z</time></trkpt><trkpt lat="44.53777545155411" lon="9.47311122546513"><ele>1304.0</ele><time>2026-04-30T08:32:33.999Z</time></trkpt><trkpt lat="44.537861266264755" lon="9.472931193218413"><ele>1304.3333333333335</ele><time>2026-04-30T08:32:34.999Z</time></trkpt><trkpt lat="44.537955892244675" lon="9.472803161181407"><ele>1304.6666666666667</ele><time>2026-04-30T08:32:35.999Z</time></trkpt><trkpt lat="44.538091326294754" lon="9.472666693317834"><ele>1305.0</ele><time>2026-04-30T08:32:36.999Z</time></trkpt><trkpt lat="44.53823408588256" lon="9.472519348486442"><ele>1305.0</ele><time>2026-04-30T08:32:37.999Z</time></trkpt><trkpt lat="44.53838176308679" lon="9.472363202184871"><ele>1305.0</ele><time>2026-04-30T08:32:38.999Z</time></trkpt><trkpt lat="44.53850702820853" lon="9.472208296962139"><ele>1305.0</ele><time>2026-04-30T08:32:39.999Z</time></trkpt><trkpt lat="44.5386258224584" lon="9.472052088273818"><ele>1306.75</ele><time>2026-04-30T08:32:40.999Z</time></trkpt><trkpt lat="44.53873620328685" lon="9.471906941789252"><ele>1308.5</ele><time>2026-04-30T08:32:41.999Z</time></trkpt><trkpt lat="44.538840741828686" lon="9.47179148404942"><ele>1310.25</ele><time>2026-04-30T08:32:42.999Z</time></trkpt><trkpt lat="44.538944839052846" lon="9.471634985022959"><ele>1312.0</ele><time>2026-04-30T08:32:43.999Z</time></trkpt><trkpt lat="44.53900801870145" lon="9.47147070899464"><ele>1312.0</ele><time>2026-04-30T08:32:44.999Z</time></trkpt><trkpt lat="44.539024417473165" lon="9.471330861565432"><ele>1312.0</ele><time>2026-04-30T08:32:45.999Z</time></trkpt><trkpt lat="44.539034122615234" lon="9.471062718969991"><ele>1312.0</ele><time>2026-04-30T08:32:46.999Z</time></trkpt><trkpt lat="44.53903553663052" lon="9.470794210015717"><ele>1308.3333333333333</ele><time>2026-04-30T08:32:47.999Z</time></trkpt><trkpt lat="44.539030836840844" lon="9.470524715538394"><ele>1304.6666666666667</ele><time>2026-04-30T08:32:48.999Z</time></trkpt><trkpt lat="44.539021368612296" lon="9.470256869105194"><ele>1301.0</ele><time>2026-04-30T08:32:49.999Z</time></trkpt><trkpt lat="44.5390251966913" lon="9.470017423580916"><ele>1297.6666666666667</ele><time>2026-04-30T08:32:50.999Z</time></trkpt><trkpt lat="44.539038976885706" lon="9.469756968094226"><ele>1294.3333333333333</ele><time>2026-04-30T08:32:51.999Z</time></trkpt><trkpt lat="44.53906696938423" lon="9.469503872720365"><ele>1291.0</ele><time>2026-04-30T08:32:52.999Z</time></trkpt><trkpt lat="44.53910814180599" lon="9.469301437281635"><ele>1290.5</ele><time>2026-04-30T08:32:53.999Z</time></trkpt><trkpt lat="44.539109667572696" lon="9.469089717157305"><ele>1290.0</ele><time>2026-04-30T08:32:54.999Z</time></trkpt><trkpt lat="44.539076683861886" lon="9.468911882789419"><ele>1289.5</ele><time>2026-04-30T08:32:55.999Z</time></trkpt><trkpt lat="44.539026756698235" lon="9.468794604822802"><ele>1289.0</ele><time>2026-04-30T08:32:56.999Z</time></trkpt><trkpt lat="44.53895109402104" lon="9.468659809985727"><ele>1292.3333333333335</ele><time>2026-04-30T08:32:57.999Z</time></trkpt><trkpt lat="44.53885700165779" lon="9.468489078741246"><ele>1295.6666666666667</ele><time>2026-04-30T08:32:58.999Z</time></trkpt><trkpt lat="44.538731445365165" lon="9.468279338987951"><ele>1299.0</ele><time>2026-04-30T08:32:59.999Z</time></trkpt><trkpt lat="44.53861372669849" lon="9.46809527988445"><ele>1290.3333333333333</ele><time>2026-04-30T08:33:00.999Z</time></trkpt><trkpt lat="44.53852639830031" lon="9.4678883355913"><ele>1281.6666666666665</ele><time>2026-04-30T08:33:01.999Z</time></trkpt><trkpt lat="44.53845305190339" lon="9.467683731346094"><ele>1273.0</ele><time>2026-04-30T08:33:02.999Z</time></trkpt><trkpt lat="44.538352217301906" lon="9.46749840231073"><ele>1273.0</ele><time>2026-04-30T08:33:03.999Z</time></trkpt><trkpt lat="44.53830650417766" lon="9.467330203747325"><ele>1273.0</ele><time>2026-04-30T08:33:04.999Z</time></trkpt><trkpt lat="44.53823977063758" lon="9.467169869873787"><ele>1273.0</ele><time>2026-04-30T08:33:05.999Z</time></trkpt><trkpt lat="44.538172585561995" lon="9.467020473511157"><ele>1273.0</ele><time>2026-04-30T08:33:06.999Z</time></trkpt><trkpt lat="44.53807193855488" lon="9.466933186310733"><ele>1272.25</ele><time>2026-04-30T08:33:07.999Z</time></trkpt><trkpt lat="44.53794586163593" lon="9.46685360029386"><ele>1271.5</ele><time>2026-04-30T08:33:08.999Z</time></trkpt><trkpt lat="44.53780720208317" lon="9.466776922679049"><ele>1270.75</ele><time>2026-04-30T08:33:09.999Z</time></trkpt><trkpt lat="44.53765375039825" lon="9.466704668600409"><ele>1270.0</ele><time>2026-04-30T08:33:10.999Z</time></trkpt><trkpt lat="44.537478422371976" lon="9.466601667836125"><ele>1270.0</ele><time>2026-04-30T08:33:11.999Z</time></trkpt><trkpt lat="44.53730938634384" lon="9.466527990378824"><ele>1270.0</ele><time>2026-04-30T08:33:12.999Z</time></trkpt><trkpt lat="44.537135319663456" lon="9.466469974215904"><ele>1270.0</ele><time>2026-04-30T08:33:13.999Z</time></trkpt><trkpt lat="44.536974429526104" lon="9.466418584731981"><ele>1265.0</ele><time>2026-04-30T08:33:14.999Z</time></trkpt><trkpt lat="44.53682315617556" lon="9.466372430575586"><ele>1260.0</ele><time>2026-04-30T08:33:15.999Z</time></trkpt><trkpt lat="44.536671289911176" lon="9.466340034156897"><ele>1255.0</ele><time>2026-04-30T08:33:16.999Z</time></trkpt><trkpt lat="44.53652928034307" lon="9.466301217321284"><ele>1253.25</ele><time>2026-04-30T08:33:17.999Z</time></trkpt><trkpt lat="44.53640236712307" lon="9.46623197191155"><ele>1251.5</ele><time>2026-04-30T08:33:18.999Z</time></trkpt><trkpt lat="44.53628380629146" lon="9.466145500730983"><ele>1249.75</ele><time>2026-04-30T08:33:19.999Z</time></trkpt><trkpt lat="44.53616749684215" lon="9.466062126571027"><ele>1248.0</ele><time>2026-04-30T08:33:20.999Z</time></trkpt><trkpt lat="44.53607578023375" lon="9.46594836669402"><ele>1248.0</ele><time>2026-04-30T08:33:21.998Z</time></trkpt><trkpt lat="44.53602518115236" lon="9.465839392025698"><ele>1248.0</ele><time>2026-04-30T08:33:22.998Z</time></trkpt><trkpt lat="44.53598381958159" lon="9.465680818615768"><ele>1248.0</ele><time>2026-04-30T08:33:23.998Z</time></trkpt><trkpt lat="44.53595456084959" lon="9.465491066235641"><ele>1248.0</ele><time>2026-04-30T08:33:24.998Z</time></trkpt><trkpt lat="44.53596040909829" lon="9.465275494513566"><ele>1248.3333333333333</ele><time>2026-04-30T08:33:25.998Z</time></trkpt><trkpt lat="44.53595007631683" lon="9.465043789619877"><ele>1248.6666666666665</ele><time>2026-04-30T08:33:26.998Z</time></trkpt><trkpt lat="44.53594298806974" lon="9.464804451039765"><ele>1249.0</ele><time>2026-04-30T08:33:27.998Z</time></trkpt><trkpt lat="44.53594076326987" lon="9.46454843892903"><ele>1247.3333333333333</ele><time>2026-04-30T08:33:28.998Z</time></trkpt><trkpt lat="44.5359372129572" lon="9.464301738959495"><ele>1245.6666666666667</ele><time>2026-04-30T08:33:29.998Z</time></trkpt><trkpt lat="44.535951676312116" lon="9.464093006397931"><ele>1244.0</ele><time>2026-04-30T08:33:30.998Z</time></trkpt><trkpt lat="44.535949925767795" lon="9.4638352489951"><ele>1242.6666666666667</ele><time>2026-04-30T08:33:31.998Z</time></trkpt><trkpt lat="44.535939790134535" lon="9.463589124762942"><ele>1241.3333333333333</ele><time>2026-04-30T08:33:32.998Z</time></trkpt><trkpt lat="44.53591802635154" lon="9.463337553703603"><ele>1240.0</ele><time>2026-04-30T08:33:33.998Z</time></trkpt><trkpt lat="44.535891793402484" lon="9.463079512540817"><ele>1242.0</ele><time>2026-04-30T08:33:34.998Z</time></trkpt><trkpt lat="44.53582409193952" lon="9.462824417828259"><ele>1244.0</ele><time>2026-04-30T08:33:35.998Z</time></trkpt><trkpt lat="44.53574109809236" lon="9.462607692098416"><ele>1246.0</ele><time>2026-04-30T08:33:36.998Z</time></trkpt><trkpt lat="44.535616333585224" lon="9.462428709479042"><ele>1246.0</ele><time>2026-04-30T08:33:37.998Z</time></trkpt><trkpt lat="44.53549725529246" lon="9.4622492392516"><ele>1246.0</ele><time>2026-04-30T08:33:38.998Z</time></trkpt><trkpt lat="44.53536312364926" lon="9.462125826359733"><ele>1246.0</ele><time>2026-04-30T08:33:39.998Z</time></trkpt><trkpt lat="44.535241449218596" lon="9.462014742460177"><ele>1241.0</ele><time>2026-04-30T08:33:40.998Z</time></trkpt><trkpt lat="44.53514056438219" lon="9.461900429603674"><ele>1236.0</ele><time>2026-04-30T08:33:41.998Z</time></trkpt><trkpt lat="44.535059513292225" lon="9.461769600445457"><ele>1231.0</ele><time>2026-04-30T08:33:42.998Z</time></trkpt><trkpt lat="44.535005179320976" lon="9.4616013948015"><ele>1226.0</ele><time>2026-04-30T08:33:43.998Z</time></trkpt><trkpt lat="44.53498020796703" lon="9.461433884462949"><ele>1227.0</ele><time>2026-04-30T08:33:44.998Z</time></trkpt><trkpt lat="44.53494224942608" lon="9.461190970447928"><ele>1228.0</ele><time>2026-04-30T08:33:45.998Z</time></trkpt><trkpt lat="44.53490318200406" lon="9.460960306510739"><ele>1229.0</ele><time>2026-04-30T08:33:46.998Z</time></trkpt><trkpt lat="44.534857429027156" lon="9.460737275513786"><ele>1229.0</ele><time>2026-04-30T08:33:47.998Z</time></trkpt><trkpt lat="44.53479545208008" lon="9.460525489594987"><ele>1229.0</ele><time>2026-04-30T08:33:48.998Z</time></trkpt><trkpt lat="44.5347363256138" lon="9.46033724747594"><ele>1229.0</ele><time>2026-04-30T08:33:49.998Z</time></trkpt><trkpt lat="44.53470623435369" lon="9.460186432761951"><ele>1229.0</ele><time>2026-04-30T08:33:50.998Z</time></trkpt><trkpt lat="44.53469012713279" lon="9.460011245877634"><ele>1229.0</ele><time>2026-04-30T08:33:51.998Z</time></trkpt><trkpt lat="44.534724706844244" lon="9.459859096194322"><ele>1229.0</ele><time>2026-04-30T08:33:52.998Z</time></trkpt><trkpt lat="44.53480923339309" lon="9.459700398868113"><ele>1229.0</ele><time>2026-04-30T08:33:53.998Z</time></trkpt><trkpt lat="44.53486899324829" lon="9.459533976838445"><ele>1229.0</ele><time>2026-04-30T08:33:54.998Z</time></trkpt><trkpt lat="44.53487785508725" lon="9.459347440944725"><ele>1229.0</ele><time>2026-04-30T08:33:55.998Z</time></trkpt><trkpt lat="44.5348268759809" lon="9.459183972362009"><ele>1229.0</ele><time>2026-04-30T08:33:56.998Z</time></trkpt><trkpt lat="44.534730646792724" lon="9.45902809409648"><ele>1229.0</ele><time>2026-04-30T08:33:57.998Z</time></trkpt><trkpt lat="44.534625874448665" lon="9.458880081751515"><ele>1229.0</ele><time>2026-04-30T08:33:58.998Z</time></trkpt><trkpt lat="44.5345094994959" lon="9.458730460787066"><ele>1223.0</ele><time>2026-04-30T08:33:59.998Z</time></trkpt><trkpt lat="44.53441091441999" lon="9.45857020318045"><ele>1217.0</ele><time>2026-04-30T08:34:00.998Z</time></trkpt><trkpt lat="44.53432283744746" lon="9.458430794756959"><ele>1211.0</ele><time>2026-04-30T08:34:01.998Z</time></trkpt><trkpt lat="44.5342334579255" lon="9.458295307128322"><ele>1205.0</ele><time>2026-04-30T08:34:02.998Z</time></trkpt><trkpt lat="44.53419510841326" lon="9.45813887276378"><ele>1204.75</ele><time>2026-04-30T08:34:03.998Z</time></trkpt><trkpt lat="44.53422032203063" lon="9.457949313445821"><ele>1204.5</ele><time>2026-04-30T08:34:04.998Z</time></trkpt><trkpt lat="44.5342242642789" lon="9.457741295318572"><ele>1204.25</ele><time>2026-04-30T08:34:05.998Z</time></trkpt><trkpt lat="44.53422864374467" lon="9.457530774293108"><ele>1204.0</ele><time>2026-04-30T08:34:06.998Z</time></trkpt><trkpt lat="44.5342503158181" lon="9.457316068183445"><ele>1204.0</ele><time>2026-04-30T08:34:07.998Z</time></trkpt><trkpt lat="44.53427432352463" lon="9.457105985971593"><ele>1204.0</ele><time>2026-04-30T08:34:08.998Z</time></trkpt><trkpt lat="44.53430591413612" lon="9.456886438051374"><ele>1204.0</ele><time>2026-04-30T08:34:09.998Z</time></trkpt><trkpt lat="44.53432686873949" lon="9.45669516132756"><ele>1204.0</ele><time>2026-04-30T08:34:10.998Z</time></trkpt><trkpt lat="44.53435951972241" lon="9.456497832298156"><ele>1204.0</ele><time>2026-04-30T08:34:11.998Z</time></trkpt><trkpt lat="44.53437311145537" lon="9.456321322420337"><ele>1204.0</ele><time>2026-04-30T08:34:12.998Z</time></trkpt><trkpt lat="44.534348612512254" lon="9.45618182461751"><ele>1204.0</ele><time>2026-04-30T08:34:13.998Z</time></trkpt><trkpt lat="44.534263767937354" lon="9.456042795437648"><ele>1204.0</ele><time>2026-04-30T08:34:14.998Z</time></trkpt><trkpt lat="44.53416510422244" lon="9.455894752584415"><ele>1204.6666666666665</ele><time>2026-04-30T08:34:15.998Z</time></trkpt><trkpt lat="44.53400790257361" lon="9.455687204762171"><ele>1205.3333333333333</ele><time>2026-04-30T08:34:16.998Z</time></trkpt><trkpt lat="44.5338868336925" lon="9.455481686629671"><ele>1206.0</ele><time>2026-04-30T08:34:17.998Z</time></trkpt><trkpt lat="44.53376932247273" lon="9.455291468467571"><ele>1198.5</ele><time>2026-04-30T08:34:18.998Z</time></trkpt><trkpt lat="44.53368397438819" lon="9.455101374912072"><ele>1191.0</ele><time>2026-04-30T08:34:19.998Z</time></trkpt><trkpt lat="44.53363539628131" lon="9.454939134000941"><ele>1183.5</ele><time>2026-04-30T08:34:20.998Z</time></trkpt><trkpt lat="44.533595006989096" lon="9.454784954306197"><ele>1176.0</ele><time>2026-04-30T08:34:21.998Z</time></trkpt><trkpt lat="44.53358586290568" lon="9.454628425249973"><ele>1176.25</ele><time>2026-04-30T08:34:22.998Z</time></trkpt><trkpt lat="44.5336060593829" lon="9.454462787686674"><ele>1176.5</ele><time>2026-04-30T08:34:23.998Z</time></trkpt><trkpt lat="44.533660084158214" lon="9.454304729871884"><ele>1176.75</ele><time>2026-04-30T08:34:24.998Z</time></trkpt><trkpt lat="44.53373570755269" lon="9.454182172055866"><ele>1177.0</ele><time>2026-04-30T08:34:25.998Z</time></trkpt><trkpt lat="44.53387401344524" lon="9.454079728367391"><ele>1184.6666666666665</ele><time>2026-04-30T08:34:26.998Z</time></trkpt><trkpt lat="44.534034931341964" lon="9.454028624056283"><ele>1192.3333333333333</ele><time>2026-04-30T08:34:27.998Z</time></trkpt><trkpt lat="44.53419070541448" lon="9.453979720858143"><ele>1200.0</ele><time>2026-04-30T08:34:28.998Z</time></trkpt><trkpt lat="44.53433192696207" lon="9.453890033282518"><ele>1200.75</ele><time>2026-04-30T08:34:29.998Z</time></trkpt><trkpt lat="44.53444335185956" lon="9.453758175095217"><ele>1201.5</ele><time>2026-04-30T08:34:30.998Z</time></trkpt><trkpt lat="44.53452161032576" lon="9.45354749173025"><ele>1202.25</ele><time>2026-04-30T08:34:31.998Z</time></trkpt><trkpt lat="44.53456645837605" lon="9.453376699699815"><ele>1203.0</ele><time>2026-04-30T08:34:32.998Z</time></trkpt><trkpt lat="44.53455886586577" lon="9.453177562953407"><ele>1194.0</ele><time>2026-04-30T08:34:33.998Z</time></trkpt><trkpt lat="44.53454437920228" lon="9.452957475251488"><ele>1185.0</ele><time>2026-04-30T08:34:34.998Z</time></trkpt><trkpt lat="44.53451522537843" lon="9.452700433593245"><ele>1176.0</ele><time>2026-04-30T08:34:35.998Z</time></trkpt><trkpt lat="44.53451062338564" lon="9.452418601645332"><ele>1173.3333333333333</ele><time>2026-04-30T08:34:36.998Z</time></trkpt><trkpt lat="44.53448855604479" lon="9.452146758489093"><ele>1170.6666666666665</ele><time>2026-04-30T08:34:37.998Z</time></trkpt><trkpt lat="44.53446258115912" lon="9.451876378761318"><ele>1168.0</ele><time>2026-04-30T08:34:38.998Z</time></trkpt><trkpt lat="44.534431291991865" lon="9.451649790140973"><ele>1168.0</ele><time>2026-04-30T08:34:39.998Z</time></trkpt><trkpt lat="44.53437117222936" lon="9.451411831372337"><ele>1168.0</ele><time>2026-04-30T08:34:40.998Z</time></trkpt><trkpt lat="44.53427564126073" lon="9.451169980823263"><ele>1168.0</ele><time>2026-04-30T08:34:41.998Z</time></trkpt><trkpt lat="44.53416551609758" lon="9.450972782596422"><ele>1170.0</ele><time>2026-04-30T08:34:42.998Z</time></trkpt><trkpt lat="44.53408156440587" lon="9.450773800831191"><ele>1172.0</ele><time>2026-04-30T08:34:43.998Z</time></trkpt><trkpt lat="44.53399341296175" lon="9.450588433888607"><ele>1174.0</ele><time>2026-04-30T08:34:44.998Z</time></trkpt><trkpt lat="44.533938357023416" lon="9.450397105536695"><ele>1174.0</ele><time>2026-04-30T08:34:45.998Z</time></trkpt><trkpt lat="44.5339138863989" lon="9.450225577082797"><ele>1174.0</ele><time>2026-04-30T08:34:46.998Z</time></trkpt><trkpt lat="44.53392450212809" lon="9.450040184106042"><ele>1174.0</ele><time>2026-04-30T08:34:47.998Z</time></trkpt><trkpt lat="44.53396150261709" lon="9.449857626752548"><ele>1174.0</ele><time>2026-04-30T08:34:48.998Z</time></trkpt><trkpt lat="44.53403050668942" lon="9.449690471427"><ele>1170.0</ele><time>2026-04-30T08:34:49.998Z</time></trkpt><trkpt lat="44.53412495105439" lon="9.449496009368467"><ele>1166.0</ele><time>2026-04-30T08:34:50.998Z</time></trkpt><trkpt lat="44.534223403122674" lon="9.44926964007157"><ele>1162.0</ele><time>2026-04-30T08:34:51.998Z</time></trkpt><trkpt lat="44.53434089178979" lon="9.44906775714692"><ele>1162.0</ele><time>2026-04-30T08:34:52.998Z</time></trkpt><trkpt lat="44.53443297185672" lon="9.448852700368674"><ele>1162.0</ele><time>2026-04-30T08:34:53.998Z</time></trkpt><trkpt lat="44.53453707395974" lon="9.44865572123106"><ele>1162.0</ele><time>2026-04-30T08:34:54.998Z</time></trkpt><trkpt lat="44.53461887519857" lon="9.448472953909135"><ele>1163.0</ele><time>2026-04-30T08:34:55.998Z</time></trkpt><trkpt lat="44.53469250999277" lon="9.448240302354012"><ele>1164.0</ele><time>2026-04-30T08:34:56.998Z</time></trkpt><trkpt lat="44.534764871571596" lon="9.447991264479226"><ele>1165.0</ele><time>2026-04-30T08:34:57.998Z</time></trkpt><trkpt lat="44.53484446446079" lon="9.44775905930057"><ele>1160.6666666666665</ele><time>2026-04-30T08:34:58.998Z</time></trkpt><trkpt lat="44.534949240613436" lon="9.447522058542647"><ele>1156.3333333333333</ele><time>2026-04-30T08:34:59.998Z</time></trkpt><trkpt lat="44.53507157859778" lon="9.447267720343921"><ele>1152.0</ele><time>2026-04-30T08:35:00.998Z</time></trkpt><trkpt lat="44.53518045325078" lon="9.44704127225065"><ele>1150.0</ele><time>2026-04-30T08:35:01.998Z</time></trkpt><trkpt lat="44.53529584399792" lon="9.446835413900937"><ele>1148.0</ele><time>2026-04-30T08:35:02.998Z</time></trkpt><trkpt lat="44.53539382073779" lon="9.446660621979639"><ele>1146.0</ele><time>2026-04-30T08:35:03.998Z</time></trkpt><trkpt lat="44.53547869714984" lon="9.446509199006451"><ele>1146.0</ele><time>2026-04-30T08:35:04.998Z</time></trkpt><trkpt lat="44.53557614182981" lon="9.44638721188473"><ele>1146.0</ele><time>2026-04-30T08:35:05.998Z</time></trkpt><trkpt lat="44.53567057116779" lon="9.44630102927459"><ele>1146.0</ele><time>2026-04-30T08:35:06.998Z</time></trkpt><trkpt lat="44.535768877661695" lon="9.44626168165572"><ele>1146.0</ele><time>2026-04-30T08:35:07.998Z</time></trkpt><trkpt lat="44.535890163342366" lon="9.446264991525842"><ele>1146.0</ele><time>2026-04-30T08:35:08.998Z</time></trkpt><trkpt lat="44.53603203230933" lon="9.446327032016118"><ele>1146.0</ele><time>2026-04-30T08:35:09.998Z</time></trkpt><trkpt lat="44.536151270205906" lon="9.446418598642913"><ele>1146.0</ele><time>2026-04-30T08:35:10.998Z</time></trkpt><trkpt lat="44.536258532745855" lon="9.446550271898909"><ele>1146.0</ele><time>2026-04-30T08:35:11.998Z</time></trkpt><trkpt lat="44.536318103313945" lon="9.446722855962214"><ele>1144.3333333333333</ele><time>2026-04-30T08:35:12.998Z</time></trkpt><trkpt lat="44.53636176602408" lon="9.446944126887983"><ele>1142.6666666666665</ele><time>2026-04-30T08:35:13.999Z</time></trkpt><trkpt lat="44.53644027074119" lon="9.447136016339334"><ele>1141.0</ele><time>2026-04-30T08:35:14.999Z</time></trkpt><trkpt lat="44.536527073601306" lon="9.447309666282665"><ele>1141.0</ele><time>2026-04-30T08:35:15.999Z</time></trkpt><trkpt lat="44.53663584281261" lon="9.447468091654137"><ele>1141.0</ele><time>2026-04-30T08:35:16.999Z</time></trkpt><trkpt lat="44.53676412305647" lon="9.44760155004807"><ele>1141.0</ele><time>2026-04-30T08:35:17.999Z</time></trkpt><trkpt lat="44.536913284862855" lon="9.447707503065104"><ele>1138.6666666666665</ele><time>2026-04-30T08:35:18.999Z</time></trkpt><trkpt lat="44.537082666942766" lon="9.447831191081143"><ele>1136.3333333333333</ele><time>2026-04-30T08:35:19.999Z</time></trkpt><trkpt lat="44.537254972577635" lon="9.44791219018842"><ele>1134.0</ele><time>2026-04-30T08:35:20.999Z</time></trkpt><trkpt lat="44.53740675326644" lon="9.447991539096115"><ele>1134.0</ele><time>2026-04-30T08:35:21.999Z</time></trkpt><trkpt lat="44.53755101066255" lon="9.44805940466235"><ele>1134.0</ele><time>2026-04-30T08:35:22.999Z</time></trkpt><trkpt lat="44.53768370126538" lon="9.448143552944988"><ele>1134.0</ele><time>2026-04-30T08:35:23.999Z</time></trkpt><trkpt lat="44.537804471358875" lon="9.448197441924027"><ele>1134.0</ele><time>2026-04-30T08:35:24.999Z</time></trkpt><trkpt lat="44.53789487648366" lon="9.448193413296984"><ele>1134.75</ele><time>2026-04-30T08:35:25.999Z</time></trkpt><trkpt lat="44.53800057929822" lon="9.44815375851163"><ele>1135.5</ele><time>2026-04-30T08:35:26.999Z</time></trkpt><trkpt lat="44.53812010729749" lon="9.44803280913812"><ele>1136.25</ele><time>2026-04-30T08:35:27.999Z</time></trkpt><trkpt lat="44.538203675899915" lon="9.44784010758799"><ele>1137.0</ele><time>2026-04-30T08:35:28.999Z</time></trkpt><trkpt lat="44.53829555001701" lon="9.44765172484995"><ele>1133.0</ele><time>2026-04-30T08:35:29.999Z</time></trkpt><trkpt lat="44.53839758909376" lon="9.447506143468448"><ele>1129.0</ele><time>2026-04-30T08:35:30.999Z</time></trkpt><trkpt lat="44.538504198255325" lon="9.447394403444935"><ele>1125.0</ele><time>2026-04-30T08:35:31.999Z</time></trkpt><trkpt lat="44.53862967532726" lon="9.447306348802556"><ele>1121.0</ele><time>2026-04-30T08:35:32.999Z</time></trkpt><trkpt lat="44.53875716793011" lon="9.447260854150278"><ele>1121.0</ele><time>2026-04-30T08:35:33.999Z</time></trkpt><trkpt lat="44.53889026968755" lon="9.447254569209832"><ele>1121.0</ele><time>2026-04-30T08:35:34.999Z</time></trkpt><trkpt lat="44.539035034067474" lon="9.447271069728343"><ele>1121.0</ele><time>2026-04-30T08:35:35.999Z</time></trkpt><trkpt lat="44.539194238862144" lon="9.447277103448142"><ele>1121.0</ele><time>2026-04-30T08:35:36.999Z</time></trkpt><trkpt lat="44.539364172799424" lon="9.44724336304566"><ele>1121.0</ele><time>2026-04-30T08:35:37.999Z</time></trkpt><trkpt lat="44.539526927758416" lon="9.447190994978316"><ele>1121.0</ele><time>2026-04-30T08:35:38.999Z</time></trkpt><trkpt lat="44.539689926248535" lon="9.447094504945822"><ele>1121.0</ele><time>2026-04-30T08:35:39.999Z</time></trkpt><trkpt lat="44.53983766080963" lon="9.446997221051856"><ele>1114.25</ele><time>2026-04-30T08:35:40.999Z</time></trkpt><trkpt lat="44.539964738961764" lon="9.446940171568652"><ele>1107.5</ele><time>2026-04-30T08:35:41.999Z</time></trkpt><trkpt lat="44.54007436805002" lon="9.446916867957098"><ele>1100.75</ele><time>2026-04-30T08:35:42.999Z</time></trkpt><trkpt lat="44.54018584451609" lon="9.446939900729745"><ele>1094.0</ele><time>2026-04-30T08:35:43.999Z</time></trkpt><trkpt lat="44.54029707340864" lon="9.447039056658827"><ele>1089.0</ele><time>2026-04-30T08:35:44.999Z</time></trkpt><trkpt lat="44.54037440821383" lon="9.447183911730848"><ele>1084.0</ele><time>2026-04-30T08:35:45.999Z</time></trkpt><trkpt lat="44.540458861631826" lon="9.447397460967595"><ele>1079.0</ele><time>2026-04-30T08:35:46.999Z</time></trkpt><trkpt lat="44.540541170906224" lon="9.447591507637613"><ele>1079.0</ele><time>2026-04-30T08:35:47.999Z</time></trkpt><trkpt lat="44.540632823065245" lon="9.447805680013246"><ele>1079.0</ele><time>2026-04-30T08:35:48.999Z</time></trkpt><trkpt lat="44.54071762308821" lon="9.448020789244705"><ele>1079.0</ele><time>2026-04-30T08:35:49.999Z</time></trkpt><trkpt lat="44.54080720735049" lon="9.448252820066958"><ele>1083.3333333333335</ele><time>2026-04-30T08:35:50.999Z</time></trkpt><trkpt lat="44.54089477733435" lon="9.448498343295185"><ele>1087.6666666666667</ele><time>2026-04-30T08:35:51.999Z</time></trkpt><trkpt lat="44.54097767345685" lon="9.448732818154083"><ele>1092.0</ele><time>2026-04-30T08:35:52.999Z</time></trkpt><trkpt lat="44.54105430805043" lon="9.448946780978604"><ele>1089.75</ele><time>2026-04-30T08:35:53.999Z</time></trkpt><trkpt lat="44.54111464476397" lon="9.449137794216268"><ele>1087.5</ele><time>2026-04-30T08:35:54.999Z</time></trkpt><trkpt lat="44.54117069734276" lon="9.449319016027518"><ele>1085.25</ele><time>2026-04-30T08:35:55.999Z</time></trkpt><trkpt lat="44.541213766298235" lon="9.449452937296233"><ele>1083.0</ele><time>2026-04-30T08:35:56.999Z</time></trkpt><trkpt lat="44.541260067885524" lon="9.449652986261976"><ele>1083.0</ele><time>2026-04-30T08:35:57.999Z</time></trkpt><trkpt lat="44.54130805609136" lon="9.44979061789854"><ele>1083.0</ele><time>2026-04-30T08:35:58.999Z</time></trkpt><trkpt lat="44.54137221823205" lon="9.449902404508792"><ele>1083.0</ele><time>2026-04-30T08:35:59.999Z</time></trkpt><trkpt lat="44.54146738434272" lon="9.450005597355563"><ele>1083.0</ele><time>2026-04-30T08:36:00.999Z</time></trkpt><trkpt lat="44.5415968340903" lon="9.450103279955401"><ele>1083.0</ele><time>2026-04-30T08:36:01.999Z</time></trkpt><trkpt lat="44.54173652553086" lon="9.450195015241684"><ele>1083.0</ele><time>2026-04-30T08:36:02.999Z</time></trkpt><trkpt lat="44.54187892047468" lon="9.450293935853166"><ele>1083.0</ele><time>2026-04-30T08:36:03.999Z</time></trkpt><trkpt lat="44.54198398605364" lon="9.450418473544735"><ele>1073.6666666666667</ele><time>2026-04-30T08:36:04.999Z</time></trkpt><trkpt lat="44.542068368865934" lon="9.450632988654528"><ele>1064.3333333333335</ele><time>2026-04-30T08:36:06Z</time></trkpt><trkpt lat="44.5421019556442" lon="9.450847965650775"><ele>1055.0</ele><time>2026-04-30T08:36:07Z</time></trkpt><trkpt lat="44.5421463200715" lon="9.45108105648478"><ele>1055.0</ele><time>2026-04-30T08:36:08Z</time></trkpt><trkpt lat="44.54218458872558" lon="9.451275185943361"><ele>1055.0</ele><time>2026-04-30T08:36:09Z</time></trkpt><trkpt lat="44.54223478096537" lon="9.451480915927053"><ele>1055.0</ele><time>2026-04-30T08:36:10Z</time></trkpt><trkpt lat="44.5422978365321" lon="9.451717247069906"><ele>1059.0</ele><time>2026-04-30T08:36:11Z</time></trkpt><trkpt lat="44.5423480736125" lon="9.451959639347601"><ele>1063.0</ele><time>2026-04-30T08:36:12Z</time></trkpt><trkpt lat="44.54241091381279" lon="9.45218221010843"><ele>1067.0</ele><time>2026-04-30T08:36:13Z</time></trkpt><trkpt lat="44.54251120319142" lon="9.452378019957836"><ele>1070.3333333333335</ele><time>2026-04-30T08:36:14Z</time></trkpt><trkpt lat="44.542612968844985" lon="9.4525499090973"><ele>1073.6666666666667</ele><time>2026-04-30T08:36:15Z</time></trkpt><trkpt lat="44.542713784433026" lon="9.452721663659522"><ele>1077.0</ele><time>2026-04-30T08:36:16Z</time></trkpt><trkpt lat="44.54280804625363" lon="9.45288278015802"><ele>1069.0</ele><time>2026-04-30T08:36:17Z</time></trkpt><trkpt lat="44.542899919047784" lon="9.45305482613351"><ele>1061.0</ele><time>2026-04-30T08:36:18Z</time></trkpt><trkpt lat="44.54297100022814" lon="9.453208535086715"><ele>1053.0</ele><time>2026-04-30T08:36:19Z</time></trkpt><trkpt lat="44.543037257935836" lon="9.453439103266389"><ele>1053.0</ele><time>2026-04-30T08:36:20Z</time></trkpt><trkpt lat="44.543078613852146" lon="9.453650089531186"><ele>1053.0</ele><time>2026-04-30T08:36:21Z</time></trkpt><trkpt lat="44.543108385094115" lon="9.453898775087218"><ele>1053.0</ele><time>2026-04-30T08:36:22Z</time></trkpt><trkpt lat="44.543162649503174" lon="9.454132144638526"><ele>1053.0</ele><time>2026-04-30T08:36:23Z</time></trkpt><trkpt lat="44.54319711700823" lon="9.454382353010535"><ele>1053.0</ele><time>2026-04-30T08:36:24Z</time></trkpt><trkpt lat="44.54321846918686" lon="9.454605229078947"><ele>1053.0</ele><time>2026-04-30T08:36:25Z</time></trkpt><trkpt lat="44.54324811791257" lon="9.454813562493895"><ele>1053.75</ele><time>2026-04-30T08:36:26Z</time></trkpt><trkpt lat="44.54326626683541" lon="9.455018408902662"><ele>1054.5</ele><time>2026-04-30T08:36:27Z</time></trkpt><trkpt lat="44.543266808749756" lon="9.45519667190617"><ele>1055.25</ele><time>2026-04-30T08:36:28Z</time></trkpt><trkpt lat="44.54325501350115" lon="9.455361890790808"><ele>1056.0</ele><time>2026-04-30T08:36:29Z</time></trkpt><trkpt lat="44.543243011287224" lon="9.455524357386812"><ele>1056.2</ele><time>2026-04-30T08:36:30Z</time></trkpt><trkpt lat="44.54326724865752" lon="9.455686222132519"><ele>1056.3999999999999</ele><time>2026-04-30T08:36:31Z</time></trkpt><trkpt lat="44.54330872743661" lon="9.455815433869805"><ele>1056.6</ele><time>2026-04-30T08:36:32Z</time></trkpt><trkpt lat="44.543361459422606" lon="9.45591500129256"><ele>1056.8</ele><time>2026-04-30T08:36:33Z</time></trkpt><trkpt lat="44.54343086937612" lon="9.456009379009677"><ele>1057.0</ele><time>2026-04-30T08:36:34Z</time></trkpt><trkpt lat="44.543525121179094" lon="9.456087537755426"><ele>1057.0</ele><time>2026-04-30T08:36:35Z</time></trkpt><trkpt lat="44.5436312962143" lon="9.456145219498097"><ele>1057.0</ele><time>2026-04-30T08:36:36Z</time></trkpt><trkpt lat="44.543744014048336" lon="9.456182877290468"><ele>1057.0</ele><time>2026-04-30T08:36:37Z</time></trkpt><trkpt lat="44.5438566141093" lon="9.456206237873198"><ele>1057.0</ele><time>2026-04-30T08:36:38Z</time></trkpt><trkpt lat="44.543962104828196" lon="9.456224414081543"><ele>1056.8333333333333</ele><time>2026-04-30T08:36:39Z</time></trkpt><trkpt lat="44.544053647880105" lon="9.456259568291351"><ele>1056.6666666666665</ele><time>2026-04-30T08:36:40Z</time></trkpt><trkpt lat="44.5441370633454" lon="9.456267641509692"><ele>1056.5</ele><time>2026-04-30T08:36:41Z</time></trkpt><trkpt lat="44.544204660016476" lon="9.456264360675977"><ele>1056.3333333333333</ele><time>2026-04-30T08:36:42Z</time></trkpt><trkpt lat="44.5442982288116" lon="9.456309171193292"><ele>1056.1666666666667</ele><time>2026-04-30T08:36:44Z</time></trkpt><trkpt lat="44.54438038094309" lon="9.456367735729724"><ele>1056.0</ele><time>2026-04-30T08:38:10Z</time></trkpt><trkpt lat="44.544467807816886" lon="9.456379092325543"><ele>1056.0</ele><time>2026-04-30T08:38:12Z</time></trkpt><trkpt lat="44.54453205983897" lon="9.456418518703707"><ele>1056.0</ele><time>2026-04-30T08:38:13Z</time></trkpt><trkpt lat="44.54459959882374" lon="9.456472920849038"><ele>1056.0</ele><time>2026-04-30T08:38:14Z</time></trkpt><trkpt lat="44.54467064271496" lon="9.456552945631012"><ele>1056.0</ele><time>2026-04-30T08:38:15Z</time></trkpt><trkpt lat="44.54473929153891" lon="9.45663655606241"><ele>1056.0</ele><time>2026-04-30T08:38:16Z</time></trkpt><trkpt lat="44.544811462122006" lon="9.456724011795338"><ele>1056.0</ele><time>2026-04-30T08:38:17Z</time></trkpt><trkpt lat="44.54488936068866" lon="9.456825563288875"><ele>1056.8</ele><time>2026-04-30T08:38:18Z</time></trkpt><trkpt lat="44.54498404149393" lon="9.45690745563484"><ele>1057.6</ele><time>2026-04-30T08:38:19Z</time></trkpt><trkpt lat="44.54507872558439" lon="9.45701330963111"><ele>1058.4</ele><time>2026-04-30T08:38:20Z</time></trkpt><trkpt lat="44.54517094462952" lon="9.457097866047098"><ele>1059.2</ele><time>2026-04-30T08:38:21Z</time></trkpt><trkpt lat="44.54524792491344" lon="9.457182197998383"><ele>1060.0</ele><time>2026-04-30T08:38:22Z</time></trkpt><trkpt lat="44.54534245514512" lon="9.457213414583023"><ele>1059.0</ele><time>2026-04-30T08:38:23Z</time></trkpt><trkpt lat="44.54543758094848" lon="9.457222004692243"><ele>1058.0</ele><time>2026-04-30T08:38:24Z</time></trkpt><trkpt lat="44.54552895455888" lon="9.457204686525268"><ele>1057.0</ele><time>2026-04-30T08:38:25Z</time></trkpt><trkpt lat="44.54561307092243" lon="9.457147100107512"><ele>1056.0</ele><time>2026-04-30T08:38:26Z</time></trkpt><trkpt lat="44.54568591431078" lon="9.45708210495197"><ele>1055.0</ele><time>2026-04-30T08:38:27Z</time></trkpt><trkpt lat="44.54576467586716" lon="9.457014547939437"><ele>1053.4</ele><time>2026-04-30T08:38:28Z</time></trkpt><trkpt lat="44.54584309695674" lon="9.456933308243928"><ele>1051.8</ele><time>2026-04-30T08:38:29Z</time></trkpt><trkpt lat="44.54588853355086" lon="9.456806971212266"><ele>1050.2</ele><time>2026-04-30T08:38:30Z</time></trkpt><trkpt lat="44.545925480361284" lon="9.456681866705539"><ele>1048.6</ele><time>2026-04-30T08:38:31Z</time></trkpt><trkpt lat="44.545943613641334" lon="9.45654775892299"><ele>1047.0</ele><time>2026-04-30T08:38:32Z</time></trkpt><trkpt lat="44.54595050667715" lon="9.456401736515344"><ele>1045.5</ele><time>2026-04-30T08:38:33Z</time></trkpt><trkpt lat="44.545954462370325" lon="9.456255076877543"><ele>1044.0</ele><time>2026-04-30T08:38:34Z</time></trkpt><trkpt lat="44.54595554866594" lon="9.456092727787468"><ele>1042.5</ele><time>2026-04-30T08:38:35Z</time></trkpt><trkpt lat="44.54597191959427" lon="9.455919348752904"><ele>1041.0</ele><time>2026-04-30T08:38:36Z</time></trkpt><trkpt lat="44.54596858581609" lon="9.455735612561705"><ele>1041.0</ele><time>2026-04-30T08:38:37Z</time></trkpt><trkpt lat="44.54596310218128" lon="9.45553498077974"><ele>1041.0</ele><time>2026-04-30T08:38:38Z</time></trkpt><trkpt lat="44.54596149985507" lon="9.455330559329958"><ele>1041.0</ele><time>2026-04-30T08:38:39Z</time></trkpt><trkpt lat="44.54596175805901" lon="9.455121609337056"><ele>1041.0</ele><time>2026-04-30T08:38:40Z</time></trkpt><trkpt lat="44.54596182941163" lon="9.45490869349942"><ele>1040.5</ele><time>2026-04-30T08:38:41Z</time></trkpt><trkpt lat="44.5459648908815" lon="9.454700588255475"><ele>1040.0</ele><time>2026-04-30T08:38:42Z</time></trkpt><trkpt lat="44.54597452143191" lon="9.454501459471057"><ele>1039.5</ele><time>2026-04-30T08:38:43Z</time></trkpt><trkpt lat="44.54600537609431" lon="9.454305311448147"><ele>1039.0</ele><time>2026-04-30T08:38:44Z</time></trkpt><trkpt lat="44.54606199600995" lon="9.454117168448171"><ele>1037.3333333333333</ele><time>2026-04-30T08:38:45Z</time></trkpt><trkpt lat="44.546142793669624" lon="9.45394087953427"><ele>1035.6666666666667</ele><time>2026-04-30T08:38:46Z</time></trkpt><trkpt lat="44.5462429104089" lon="9.453776996839292"><ele>1034.0</ele><time>2026-04-30T08:38:47Z</time></trkpt><trkpt lat="44.54634615087952" lon="9.45361716647891"><ele>1034.0</ele><time>2026-04-30T08:38:48Z</time></trkpt><trkpt lat="44.54644501659224" lon="9.453462475224066"><ele>1034.0</ele><time>2026-04-30T08:38:49Z</time></trkpt><trkpt lat="44.54653930041148" lon="9.45332082010288"><ele>1034.0</ele><time>2026-04-30T08:38:50Z</time></trkpt><trkpt lat="44.5466382802382" lon="9.453208436781745"><ele>1034.0</ele><time>2026-04-30T08:38:51Z</time></trkpt><trkpt lat="44.54674416102568" lon="9.453122430574647"><ele>1034.0</ele><time>2026-04-30T08:38:52Z</time></trkpt><trkpt lat="44.546863229666364" lon="9.453087658725586"><ele>1034.0</ele><time>2026-04-30T08:38:53Z</time></trkpt><trkpt lat="44.54697412582985" lon="9.45305908631833"><ele>1034.0</ele><time>2026-04-30T08:38:54Z</time></trkpt><trkpt lat="44.54707461929693" lon="9.453064647899135"><ele>1034.0</ele><time>2026-04-30T08:38:55Z</time></trkpt><trkpt lat="44.54717102445924" lon="9.453095685439969"><ele>1034.0</ele><time>2026-04-30T08:38:56Z</time></trkpt><trkpt lat="44.54726527162057" lon="9.453132362703636"><ele>1033.4</ele><time>2026-04-30T08:38:57Z</time></trkpt><trkpt lat="44.54734731009162" lon="9.453165232896906"><ele>1032.8000000000002</ele><time>2026-04-30T08:38:58Z</time></trkpt><trkpt lat="44.54744868402783" lon="9.453192710885553"><ele>1032.1999999999998</ele><time>2026-04-30T08:38:59Z</time></trkpt><trkpt lat="44.54754115539814" lon="9.453124721598922"><ele>1031.6</ele><time>2026-04-30T08:39:00Z</time></trkpt><trkpt lat="44.547575521303024" lon="9.452987544139305"><ele>1031.0</ele><time>2026-04-30T08:39:01Z</time></trkpt><trkpt lat="44.54754463213183" lon="9.452880490244176"><ele>1029.1666666666667</ele><time>2026-04-30T08:39:02Z</time></trkpt><trkpt lat="44.547490701429446" lon="9.452813567577863"><ele>1027.3333333333335</ele><time>2026-04-30T08:39:03Z</time></trkpt><trkpt lat="44.54741817322309" lon="9.452770929244304"><ele>1025.5</ele><time>2026-04-30T08:39:04Z</time></trkpt><trkpt lat="44.54732560180509" lon="9.45277021006682"><ele>1023.6666666666667</ele><time>2026-04-30T08:39:05Z</time></trkpt><trkpt lat="44.54723683711208" lon="9.452772250434139"><ele>1021.8333333333334</ele><time>2026-04-30T08:39:06Z</time></trkpt><trkpt lat="44.54714712276202" lon="9.452757014811421"><ele>1020.0</ele><time>2026-04-30T08:39:07Z</time></trkpt><trkpt lat="44.547061369468956" lon="9.452716528622277"><ele>1019.0</ele><time>2026-04-30T08:39:08Z</time></trkpt><trkpt lat="44.5469759213099" lon="9.452670592295123"><ele>1018.0</ele><time>2026-04-30T08:39:09Z</time></trkpt><trkpt lat="44.54688687569315" lon="9.452642570093975"><ele>1017.0</ele><time>2026-04-30T08:39:10Z</time></trkpt><trkpt lat="44.54679037365001" lon="9.452652663981237"><ele>1016.0</ele><time>2026-04-30T08:39:11Z</time></trkpt><trkpt lat="44.54669097377086" lon="9.452677375823994"><ele>1015.0</ele><time>2026-04-30T08:39:12Z</time></trkpt><trkpt lat="44.54659349796632" lon="9.452729178172314"><ele>1015.0</ele><time>2026-04-30T08:39:13Z</time></trkpt><trkpt lat="44.546496744304335" lon="9.452790729270983"><ele>1015.0</ele><time>2026-04-30T08:39:14Z</time></trkpt><trkpt lat="44.54641022571617" lon="9.45287856496211"><ele>1015.0</ele><time>2026-04-30T08:39:15Z</time></trkpt><trkpt lat="44.54631420130035" lon="9.452920282213991"><ele>1015.0</ele><time>2026-04-30T08:39:16Z</time></trkpt><trkpt lat="44.54623154216436" lon="9.452972487214168"><ele>1015.0</ele><time>2026-04-30T08:39:17Z</time></trkpt><trkpt lat="44.54615251144885" lon="9.452989223239724"><ele>1015.1666666666666</ele><time>2026-04-30T08:39:18Z</time></trkpt><trkpt lat="44.5460729311372" lon="9.452966934811144"><ele>1015.3333333333333</ele><time>2026-04-30T08:39:19Z</time></trkpt><trkpt lat="44.546015335296026" lon="9.452878090471746"><ele>1015.5</ele><time>2026-04-30T08:39:20Z</time></trkpt><trkpt lat="44.54595927024711" lon="9.452778921896519"><ele>1015.6666666666667</ele><time>2026-04-30T08:39:21Z</time></trkpt><trkpt lat="44.5459154605977" lon="9.45266142315744"><ele>1015.8333333333334</ele><time>2026-04-30T08:39:22Z</time></trkpt><trkpt lat="44.54588509272318" lon="9.452532332838091"><ele>1016.0</ele><time>2026-04-30T08:39:23Z</time></trkpt><trkpt lat="44.545845517918906" lon="9.452412495398839"><ele>1016.0</ele><time>2026-04-30T08:39:24Z</time></trkpt><trkpt lat="44.5458025218488" lon="9.452287676720065"><ele>1015.9999999999999</ele><time>2026-04-30T08:39:25Z</time></trkpt><trkpt lat="44.545757896402854" lon="9.452159004958522"><ele>1015.9999999999999</ele><time>2026-04-30T08:39:26Z</time></trkpt><trkpt lat="44.54571835633327" lon="9.452032936463864"><ele>1016.0</ele><time>2026-04-30T08:39:27Z</time></trkpt><trkpt lat="44.545703478910426" lon="9.451912141014795"><ele>1016.0</ele><time>2026-04-30T08:39:28Z</time></trkpt><trkpt lat="44.545721855585555" lon="9.451812162187577"><ele>1016.1999999999999</ele><time>2026-04-30T08:39:29Z</time></trkpt><trkpt lat="44.545739734623126" lon="9.451693620218734"><ele>1016.3999999999999</ele><time>2026-04-30T08:39:30Z</time></trkpt><trkpt lat="44.54576563148715" lon="9.451557043773429"><ele>1016.6</ele><time>2026-04-30T08:39:31Z</time></trkpt><trkpt lat="44.54579581074019" lon="9.451416971224296"><ele>1016.8</ele><time>2026-04-30T08:39:32Z</time></trkpt><trkpt lat="44.54582438162947" lon="9.451268581798942"><ele>1017.0</ele><time>2026-04-30T08:39:33Z</time></trkpt><trkpt lat="44.54584260692926" lon="9.451102796199292"><ele>1017.0</ele><time>2026-04-30T08:39:34Z</time></trkpt><trkpt lat="44.54584493966167" lon="9.450942175519375"><ele>1017.0</ele><time>2026-04-30T08:39:35Z</time></trkpt><trkpt lat="44.54581940069215" lon="9.450782541555032"><ele>1017.0</ele><time>2026-04-30T08:39:36Z</time></trkpt><trkpt lat="44.54577804147309" lon="9.450643731400609"><ele>1017.0</ele><time>2026-04-30T08:39:37Z</time></trkpt><trkpt lat="44.54573423386981" lon="9.450505590969541"><ele>1017.0</ele><time>2026-04-30T08:39:38Z</time></trkpt><trkpt lat="44.54569018510133" lon="9.450368560036187"><ele>1017.0</ele><time>2026-04-30T08:39:39Z</time></trkpt><trkpt lat="44.54564504238671" lon="9.450228126090098"><ele>1017.0</ele><time>2026-04-30T08:39:40Z</time></trkpt><trkpt lat="44.54560277859906" lon="9.450093447535036"><ele>1017.0</ele><time>2026-04-30T08:39:41Z</time></trkpt><trkpt lat="44.54556146927209" lon="9.449969085423893"><ele>1017.0</ele><time>2026-04-30T08:39:42Z</time></trkpt><trkpt lat="44.54551563183764" lon="9.449857712279838"><ele>1017.0</ele><time>2026-04-30T08:39:42.999Z</time></trkpt><trkpt lat="44.54545129472341" lon="9.449758603029704"><ele>1016.4000000000001</ele><time>2026-04-30T08:39:43.999Z</time></trkpt><trkpt lat="44.54536600145769" lon="9.449718247293"><ele>1015.8000000000001</ele><time>2026-04-30T08:39:44.999Z</time></trkpt><trkpt lat="44.545279898054424" lon="9.449669480247838"><ele>1015.2</ele><time>2026-04-30T08:39:45.999Z</time></trkpt><trkpt lat="44.54518330929684" lon="9.449649214547554"><ele>1014.6</ele><time>2026-04-30T08:39:46.999Z</time></trkpt><trkpt lat="44.545083337870814" lon="9.449667158140397"><ele>1014.0</ele><time>2026-04-30T08:39:47.999Z</time></trkpt><trkpt lat="44.544995744281806" lon="9.449723908886305"><ele>1014.0</ele><time>2026-04-30T08:39:48.999Z</time></trkpt><trkpt lat="44.54491798685327" lon="9.449818111808804"><ele>1014.0000000000001</ele><time>2026-04-30T08:39:49.999Z</time></trkpt><trkpt lat="44.54484516372425" lon="9.449920201758035"><ele>1014.0000000000001</ele><time>2026-04-30T08:39:50.999Z</time></trkpt><trkpt lat="44.5447894270588" lon="9.450040957025143"><ele>1014.0</ele><time>2026-04-30T08:39:51.999Z</time></trkpt><trkpt lat="44.54473978368445" lon="9.450173381032316"><ele>1014.0</ele><time>2026-04-30T08:39:52.999Z</time></trkpt><trkpt lat="44.5446869664467" lon="9.450309778294875"><ele>1014.0</ele><time>2026-04-30T08:39:53.999Z</time></trkpt><trkpt lat="44.5446313871502" lon="9.450448450437431"><ele>1014.0</ele><time>2026-04-30T08:39:54.999Z</time></trkpt><trkpt lat="44.54457827295617" lon="9.450590248879907"><ele>1014.0</ele><time>2026-04-30T08:39:55.999Z</time></trkpt><trkpt lat="44.54451618014146" lon="9.450726840136985"><ele>1014.0</ele><time>2026-04-30T08:39:56.999Z</time></trkpt><trkpt lat="44.54445713075112" lon="9.450863910839832"><ele>1012.8000000000001</ele><time>2026-04-30T08:39:57.999Z</time></trkpt><trkpt lat="44.54439572570597" lon="9.450992137535245"><ele>1011.6000000000001</ele><time>2026-04-30T08:39:58.999Z</time></trkpt><trkpt lat="44.544332951100536" lon="9.451107726570816"><ele>1010.4</ele><time>2026-04-30T08:39:59.999Z</time></trkpt><trkpt lat="44.54427151213929" lon="9.451203931525757"><ele>1009.2</ele><time>2026-04-30T08:40:00.999Z</time></trkpt><trkpt lat="44.5441985519802" lon="9.45124880575341"><ele>1008.0</ele><time>2026-04-30T08:40:01.999Z</time></trkpt><trkpt lat="44.54411667251061" lon="9.451239050846048"><ele>1008.0</ele><time>2026-04-30T08:40:02.999Z</time></trkpt><trkpt lat="44.544019037160254" lon="9.451224203709153"><ele>1008.0</ele><time>2026-04-30T08:40:03.999Z</time></trkpt><trkpt lat="44.543935689094276" lon="9.451141136807065"><ele>1008.0</ele><time>2026-04-30T08:40:04.999Z</time></trkpt><trkpt lat="44.54385199879166" lon="9.45103508251099"><ele>1008.0</ele><time>2026-04-30T08:40:05.999Z</time></trkpt><trkpt lat="44.543765713482664" lon="9.45091507940431"><ele>1008.0</ele><time>2026-04-30T08:40:06.999Z</time></trkpt><trkpt lat="44.543686460512966" lon="9.450778873124571"><ele>1008.75</ele><time>2026-04-30T08:40:07.999Z</time></trkpt><trkpt lat="44.54359639524341" lon="9.450646166644455"><ele>1009.5</ele><time>2026-04-30T08:40:08.999Z</time></trkpt><trkpt lat="44.543493872358205" lon="9.450526924367615"><ele>1010.25</ele><time>2026-04-30T08:40:09.999Z</time></trkpt><trkpt lat="44.5434046370886" lon="9.45039187670133"><ele>1011.0</ele><time>2026-04-30T08:40:10.999Z</time></trkpt><trkpt lat="44.54331702521149" lon="9.450253589590616"><ele>1011.0</ele><time>2026-04-30T08:40:11.999Z</time></trkpt><trkpt lat="44.54326374740621" lon="9.450080307084347"><ele>1011.0</ele><time>2026-04-30T08:40:12.999Z</time></trkpt><trkpt lat="44.543221854837505" lon="9.44989312625962"><ele>1011.0</ele><time>2026-04-30T08:40:13.999Z</time></trkpt><trkpt lat="44.543182273123925" lon="9.449709951957878"><ele>1011.0</ele><time>2026-04-30T08:40:14.999Z</time></trkpt><trkpt lat="44.54314196743716" lon="9.449529344775923"><ele>1007.75</ele><time>2026-04-30T08:40:15.999Z</time></trkpt><trkpt lat="44.54308880426167" lon="9.44935652734421"><ele>1004.5</ele><time>2026-04-30T08:40:16.999Z</time></trkpt><trkpt lat="44.54300476073204" lon="9.44920303426197"><ele>1001.25</ele><time>2026-04-30T08:40:17.999Z</time></trkpt><trkpt lat="44.54289958491965" lon="9.449065076896636"><ele>998.0</ele><time>2026-04-30T08:40:18.999Z</time></trkpt><trkpt lat="44.54278674730531" lon="9.448932580824648"><ele>1001.75</ele><time>2026-04-30T08:40:19.999Z</time></trkpt><trkpt lat="44.542679110123196" lon="9.448805684150125"><ele>1005.5</ele><time>2026-04-30T08:40:20.999Z</time></trkpt><trkpt lat="44.5425781034255" lon="9.448686144358229"><ele>1009.25</ele><time>2026-04-30T08:40:21.999Z</time></trkpt><trkpt lat="44.542492448484495" lon="9.448573493008599"><ele>1013.0</ele><time>2026-04-30T08:40:22.999Z</time></trkpt><trkpt lat="44.54245695057166" lon="9.448447039804886"><ele>1013.0</ele><time>2026-04-30T08:40:23.999Z</time></trkpt><trkpt lat="44.54244060329728" lon="9.448315974095628"><ele>1013.0</ele><time>2026-04-30T08:40:24.999Z</time></trkpt><trkpt lat="44.54244087192593" lon="9.448164594156413"><ele>1013.0</ele><time>2026-04-30T08:40:25.999Z</time></trkpt><trkpt lat="44.54243647845246" lon="9.44800792820799"><ele>1013.0</ele><time>2026-04-30T08:40:26.999Z</time></trkpt><trkpt lat="44.54239358572313" lon="9.447856886748232"><ele>1013.0</ele><time>2026-04-30T08:40:27.999Z</time></trkpt><trkpt lat="44.54232339467288" lon="9.44770750413729"><ele>1009.75</ele><time>2026-04-30T08:40:28.999Z</time></trkpt><trkpt lat="44.54225154278645" lon="9.447575325096162"><ele>1006.5</ele><time>2026-04-30T08:40:29.999Z</time></trkpt><trkpt lat="44.54219367915187" lon="9.447447244670386"><ele>1003.25</ele><time>2026-04-30T08:40:30.999Z</time></trkpt><trkpt lat="44.54219875125904" lon="9.447313655488212"><ele>1000.0</ele><time>2026-04-30T08:40:31.999Z</time></trkpt><trkpt lat="44.54218020533791" lon="9.447094102851551"><ele>997.0</ele><time>2026-04-30T08:40:32.999Z</time></trkpt><trkpt lat="44.54210819462328" lon="9.446903685689849"><ele>994.0</ele><time>2026-04-30T08:40:33.999Z</time></trkpt><trkpt lat="44.54199619220219" lon="9.4467665846125"><ele>991.0</ele><time>2026-04-30T08:40:34.999Z</time></trkpt><trkpt lat="44.54187745235434" lon="9.446653027218865"><ele>988.0</ele><time>2026-04-30T08:40:35.999Z</time></trkpt><trkpt lat="44.541760302714806" lon="9.446543217143232"><ele>990.0</ele><time>2026-04-30T08:40:36.999Z</time></trkpt><trkpt lat="44.54163950747672" lon="9.446424360445342"><ele>992.0</ele><time>2026-04-30T08:40:37.999Z</time></trkpt><trkpt lat="44.541546452275185" lon="9.446261833583444"><ele>994.0</ele><time>2026-04-30T08:40:38.999Z</time></trkpt><trkpt lat="44.54148712030668" lon="9.446065154379774"><ele>996.0</ele><time>2026-04-30T08:40:39.999Z</time></trkpt><trkpt lat="44.54140885476026" lon="9.445854098849676"><ele>996.0</ele><time>2026-04-30T08:40:40.999Z</time></trkpt><trkpt lat="44.541304445302956" lon="9.445655516044928"><ele>996.0</ele><time>2026-04-30T08:40:41.999Z</time></trkpt><trkpt lat="44.541185090496995" lon="9.445436740446137"><ele>996.0</ele><time>2026-04-30T08:40:42.999Z</time></trkpt><trkpt lat="44.541074712940656" lon="9.445234420353946"><ele>995.3333333333333</ele><time>2026-04-30T08:40:43.999Z</time></trkpt><trkpt lat="44.540973770238004" lon="9.44503569268361"><ele>994.6666666666666</ele><time>2026-04-30T08:40:44.999Z</time></trkpt><trkpt lat="44.54087258422616" lon="9.44479498206632"><ele>994.0</ele><time>2026-04-30T08:40:45.999Z</time></trkpt><trkpt lat="44.54078028514772" lon="9.444599223523696"><ele>994.0</ele><time>2026-04-30T08:40:46.999Z</time></trkpt><trkpt lat="44.54069192233128" lon="9.444428338611557"><ele>994.0</ele><time>2026-04-30T08:40:47.999Z</time></trkpt><trkpt lat="44.54060981086758" lon="9.444267480154297"><ele>994.0</ele><time>2026-04-30T08:40:48.999Z</time></trkpt><trkpt lat="44.54057708218185" lon="9.444090616596073"><ele>994.0</ele><time>2026-04-30T08:40:49.999Z</time></trkpt><trkpt lat="44.54056116924234" lon="9.443937773275984"><ele>991.5</ele><time>2026-04-30T08:40:50.999Z</time></trkpt><trkpt lat="44.54053981024057" lon="9.443752977833043"><ele>989.0</ele><time>2026-04-30T08:40:51.999Z</time></trkpt><trkpt lat="44.540508984755824" lon="9.443582138877582"><ele>986.5</ele><time>2026-04-30T08:40:52.999Z</time></trkpt><trkpt lat="44.54044432845952" lon="9.443428607619678"><ele>984.0</ele><time>2026-04-30T08:40:53.999Z</time></trkpt><trkpt lat="44.54036328779753" lon="9.443305212812588"><ele>989.25</ele><time>2026-04-30T08:40:54.999Z</time></trkpt><trkpt lat="44.54026266856741" lon="9.443246467843279"><ele>994.5</ele><time>2026-04-30T08:40:55.999Z</time></trkpt><trkpt lat="44.54012920867271" lon="9.443218082823911"><ele>999.75</ele><time>2026-04-30T08:40:56.999Z</time></trkpt><trkpt lat="44.539975579880974" lon="9.443210260097318"><ele>1005.0</ele><time>2026-04-30T08:40:57.999Z</time></trkpt><trkpt lat="44.53982980623043" lon="9.44321694349338"><ele>1005.0</ele><time>2026-04-30T08:40:58.999Z</time></trkpt><trkpt lat="44.539683941491774" lon="9.443231972275017"><ele>1005.0</ele><time>2026-04-30T08:40:59.999Z</time></trkpt><trkpt lat="44.5395329443345" lon="9.443224465368942"><ele>1005.0</ele><time>2026-04-30T08:41:00.999Z</time></trkpt><trkpt lat="44.53939843314058" lon="9.443342344362247"><ele>1004.25</ele><time>2026-04-30T08:41:01.999Z</time></trkpt><trkpt lat="44.539284361834156" lon="9.443446837182375"><ele>1003.5</ele><time>2026-04-30T08:41:02.999Z</time></trkpt><trkpt lat="44.539154046947054" lon="9.443483162107587"><ele>1002.75</ele><time>2026-04-30T08:41:03.999Z</time></trkpt><trkpt lat="44.539048586429836" lon="9.443387062418829"><ele>1002.0</ele><time>2026-04-30T08:41:04.999Z</time></trkpt><trkpt lat="44.53891078496888" lon="9.443348826975914"><ele>1002.0</ele><time>2026-04-30T08:41:05.999Z</time></trkpt><trkpt lat="44.53878710150489" lon="9.443283379577586"><ele>1002.0</ele><time>2026-04-30T08:41:06.999Z</time></trkpt><trkpt lat="44.53866232019744" lon="9.443213343652305"><ele>1002.0</ele><time>2026-04-30T08:41:07.999Z</time></trkpt><trkpt lat="44.53852974967695" lon="9.443152908295925"><ele>1002.0</ele><time>2026-04-30T08:41:08.999Z</time></trkpt><trkpt lat="44.53839574155005" lon="9.443095459380416"><ele>1002.8</ele><time>2026-04-30T08:41:09.999Z</time></trkpt><trkpt lat="44.53826861044344" lon="9.443041200294743"><ele>1003.6</ele><time>2026-04-30T08:41:10.999Z</time></trkpt><trkpt lat="44.53815485799956" lon="9.442970614978393"><ele>1004.3999999999999</ele><time>2026-04-30T08:41:11.999Z</time></trkpt><trkpt lat="44.53807876859336" lon="9.442887503172889"><ele>1005.1999999999999</ele><time>2026-04-30T08:41:12.999Z</time></trkpt><trkpt lat="44.53808545675159" lon="9.442785198511098"><ele>1006.0</ele><time>2026-04-30T08:41:14.999Z</time></trkpt><trkpt lat="44.53808227392328" lon="9.44265911880251"><ele>1000.6666666666666</ele><time>2026-04-30T08:41:15.999Z</time></trkpt><trkpt lat="44.538106790371" lon="9.442430115462683"><ele>995.3333333333333</ele><time>2026-04-30T08:41:16.999Z</time></trkpt><trkpt lat="44.53811243650784" lon="9.442085273266834"><ele>990.0</ele><time>2026-04-30T08:41:17.999Z</time></trkpt><trkpt lat="44.538057568492626" lon="9.44183074555055"><ele>990.5</ele><time>2026-04-30T08:41:18.999Z</time></trkpt><trkpt lat="44.537999258094715" lon="9.441628950800876"><ele>991.0</ele><time>2026-04-30T08:41:19.999Z</time></trkpt><trkpt lat="44.53794740771852" lon="9.441460958232733"><ele>991.5</ele><time>2026-04-30T08:41:20.999Z</time></trkpt><trkpt lat="44.537888570091766" lon="9.441267841270783"><ele>992.0</ele><time>2026-04-30T08:41:21.999Z</time></trkpt><trkpt lat="44.53782449887229" lon="9.441122924576327"><ele>992.0</ele><time>2026-04-30T08:41:22.999Z</time></trkpt><trkpt lat="44.53775552544142" lon="9.440991328201022"><ele>992.0</ele><time>2026-04-30T08:41:23.999Z</time></trkpt><trkpt lat="44.537655444910925" lon="9.44094580443114"><ele>992.0</ele><time>2026-04-30T08:41:24.999Z</time></trkpt><trkpt lat="44.537509370373044" lon="9.440912898812922"><ele>992.0</ele><time>2026-04-30T08:41:25.999Z</time></trkpt><trkpt lat="44.537358272455975" lon="9.440872102414883"><ele>992.0</ele><time>2026-04-30T08:41:26.999Z</time></trkpt><trkpt lat="44.53720971441538" lon="9.440762015103653"><ele>992.0</ele><time>2026-04-30T08:41:27.999Z</time></trkpt><trkpt lat="44.537160205102744" lon="9.440605494232365"><ele>992.0</ele><time>2026-04-30T08:41:28.999Z</time></trkpt><trkpt lat="44.53710919761404" lon="9.440409466753842"><ele>992.0</ele><time>2026-04-30T08:41:29.999Z</time></trkpt><trkpt lat="44.5370501168468" lon="9.440211539329509"><ele>991.6666666666667</ele><time>2026-04-30T08:41:30.999Z</time></trkpt><trkpt lat="44.536966037759484" lon="9.439989834707228"><ele>991.3333333333333</ele><time>2026-04-30T08:41:31.999Z</time></trkpt><trkpt lat="44.53687269352579" lon="9.43979689731231"><ele>991.0</ele><time>2026-04-30T08:41:32.999Z</time></trkpt><trkpt lat="44.53679883499396" lon="9.439631871757049"><ele>991.0</ele><time>2026-04-30T08:41:33.999Z</time></trkpt><trkpt lat="44.53674795011435" lon="9.439477901765356"><ele>991.0</ele><time>2026-04-30T08:41:34.999Z</time></trkpt><trkpt lat="44.53673506176543" lon="9.439314375374215"><ele>991.0</ele><time>2026-04-30T08:41:35.999Z</time></trkpt><trkpt lat="44.53673520221442" lon="9.439106737269432"><ele>991.0</ele><time>2026-04-30T08:41:36.999Z</time></trkpt><trkpt lat="44.536736027498044" lon="9.43889379164821"><ele>989.0</ele><time>2026-04-30T08:41:37.999Z</time></trkpt><trkpt lat="44.53673741756356" lon="9.43868060026942"><ele>987.0</ele><time>2026-04-30T08:41:38.999Z</time></trkpt><trkpt lat="44.53670007295251" lon="9.43845850367428"><ele>985.0</ele><time>2026-04-30T08:41:39.999Z</time></trkpt><trkpt lat="44.53663462136617" lon="9.438281722440594"><ele>985.0</ele><time>2026-04-30T08:41:40.999Z</time></trkpt><trkpt lat="44.536605483885204" lon="9.438101653686203"><ele>985.0</ele><time>2026-04-30T08:41:41.999Z</time></trkpt><trkpt lat="44.53660349330992" lon="9.437912386948236"><ele>985.0</ele><time>2026-04-30T08:41:42.999Z</time></trkpt><trkpt lat="44.53660709062344" lon="9.437711746275694"><ele>985.0</ele><time>2026-04-30T08:41:43.999Z</time></trkpt><trkpt lat="44.536589320205714" lon="9.437482033957844"><ele>983.0</ele><time>2026-04-30T08:41:44.999Z</time></trkpt><trkpt lat="44.53654055670565" lon="9.437272721304026"><ele>981.0</ele><time>2026-04-30T08:41:45.999Z</time></trkpt><trkpt lat="44.53648789660368" lon="9.437114844079213"><ele>979.0</ele><time>2026-04-30T08:41:46.999Z</time></trkpt><trkpt lat="44.53640856724667" lon="9.43709008920236"><ele>977.0</ele><time>2026-04-30T08:41:47.999Z</time></trkpt><trkpt lat="44.53626020217272" lon="9.437085999564552"><ele>977.0</ele><time>2026-04-30T08:41:49.999Z</time></trkpt><trkpt lat="44.536123475394156" lon="9.437079415940556"><ele>977.0</ele><time>2026-04-30T08:41:50.999Z</time></trkpt><trkpt lat="44.535966721875305" lon="9.43704997525033"><ele>977.0</ele><time>2026-04-30T08:41:51.999Z</time></trkpt><trkpt lat="44.535829552361946" lon="9.436936460562691"><ele>977.0</ele><time>2026-04-30T08:41:52.999Z</time></trkpt><trkpt lat="44.53574150726676" lon="9.436803768206056"><ele>977.0</ele><time>2026-04-30T08:41:53.999Z</time></trkpt><trkpt lat="44.535717764129345" lon="9.436663599371387"><ele>977.0</ele><time>2026-04-30T08:41:54.999Z</time></trkpt><trkpt lat="44.53571740056671" lon="9.436500880860567"><ele>977.0</ele><time>2026-04-30T08:41:55.999Z</time></trkpt><trkpt lat="44.53574238965903" lon="9.436366361951263"><ele>977.0</ele><time>2026-04-30T08:41:56.999Z</time></trkpt><trkpt lat="44.53578807967841" lon="9.436205089194788"><ele>974.3333333333334</ele><time>2026-04-30T08:41:57.999Z</time></trkpt><trkpt lat="44.535846568279666" lon="9.436028075730128"><ele>971.6666666666667</ele><time>2026-04-30T08:41:58.999Z</time></trkpt><trkpt lat="44.535911553353614" lon="9.435825932172484"><ele>969.0</ele><time>2026-04-30T08:41:59.999Z</time></trkpt><trkpt lat="44.535965463392486" lon="9.435602218640627"><ele>966.5</ele><time>2026-04-30T08:42:00.999Z</time></trkpt><trkpt lat="44.535945094529175" lon="9.435404698999143"><ele>964.0</ele><time>2026-04-30T08:42:01.999Z</time></trkpt><trkpt lat="44.53589499915014" lon="9.43526621105948"><ele>961.5</ele><time>2026-04-30T08:42:02.999Z</time></trkpt><trkpt lat="44.53583415979102" lon="9.43511406317378"><ele>959.0</ele><time>2026-04-30T08:42:03.999Z</time></trkpt><trkpt lat="44.535770977669195" lon="9.434952153082099"><ele>959.0</ele><time>2026-04-30T08:42:04.999Z</time></trkpt><trkpt lat="44.535704000209655" lon="9.434774112632834"><ele>959.0</ele><time>2026-04-30T08:42:05.999Z</time></trkpt><trkpt lat="44.53564341925235" lon="9.434591196640074"><ele>959.0</ele><time>2026-04-30T08:42:06.999Z</time></trkpt><trkpt lat="44.535591641729795" lon="9.434395846170013"><ele>959.0</ele><time>2026-04-30T08:42:07.999Z</time></trkpt><trkpt lat="44.53555802552825" lon="9.434164772800843"><ele>955.5</ele><time>2026-04-30T08:42:08.999Z</time></trkpt><trkpt lat="44.53554248582647" lon="9.433961081730612"><ele>952.0</ele><time>2026-04-30T08:42:09.999Z</time></trkpt><trkpt lat="44.53552908712483" lon="9.433780993969531"><ele>948.5</ele><time>2026-04-30T08:42:10.999Z</time></trkpt><trkpt lat="44.53550346543363" lon="9.433594333432653"><ele>945.0</ele><time>2026-04-30T08:42:11.999Z</time></trkpt><trkpt lat="44.535443763071505" lon="9.433425985697474"><ele>946.5</ele><time>2026-04-30T08:42:12.999Z</time></trkpt><trkpt lat="44.53535075637272" lon="9.43331090163536"><ele>948.0</ele><time>2026-04-30T08:42:13.999Z</time></trkpt><trkpt lat="44.53523961690432" lon="9.43328034194073"><ele>949.5</ele><time>2026-04-30T08:42:14.999Z</time></trkpt><trkpt lat="44.5351016961093" lon="9.433260837961607"><ele>951.0</ele><time>2026-04-30T08:42:15.999Z</time></trkpt><trkpt lat="44.53493145188263" lon="9.433302459359345"><ele>951.0</ele><time>2026-04-30T08:42:16.999Z</time></trkpt><trkpt lat="44.534779071222786" lon="9.433334588446433"><ele>951.0</ele><time>2026-04-30T08:42:17.999Z</time></trkpt><trkpt lat="44.53462378479768" lon="9.433331529873845"><ele>951.0</ele><time>2026-04-30T08:42:18.999Z</time></trkpt><trkpt lat="44.53449535198894" lon="9.43331290179059"><ele>951.0</ele><time>2026-04-30T08:42:19.999Z</time></trkpt><trkpt lat="44.53438929109111" lon="9.433206005830016"><ele>951.5</ele><time>2026-04-30T08:42:20.999Z</time></trkpt><trkpt lat="44.53432331087191" lon="9.43308266882712"><ele>952.0</ele><time>2026-04-30T08:42:21.999Z</time></trkpt><trkpt lat="44.53425711196292" lon="9.432930680366123"><ele>952.5</ele><time>2026-04-30T08:42:22.999Z</time></trkpt><trkpt lat="44.534183750240885" lon="9.432751756197284"><ele>953.0</ele><time>2026-04-30T08:42:23.999Z</time></trkpt><trkpt lat="44.534117684751266" lon="9.432608141755262"><ele>949.0</ele><time>2026-04-30T08:42:24.999Z</time></trkpt><trkpt lat="44.53403224832057" lon="9.43247369350432"><ele>945.0</ele><time>2026-04-30T08:42:25.999Z</time></trkpt><trkpt lat="44.533926774693455" lon="9.432394194987799"><ele>941.0</ele><time>2026-04-30T08:42:26.999Z</time></trkpt><trkpt lat="44.53380374615483" lon="9.432396441528129"><ele>937.0</ele><time>2026-04-30T08:42:27.999Z</time></trkpt><trkpt lat="44.53370999944442" lon="9.432376342524217"><ele>935.5</ele><time>2026-04-30T08:42:28.999Z</time></trkpt><trkpt lat="44.53361155557936" lon="9.432478982405492"><ele>934.0</ele><time>2026-04-30T08:42:29.999Z</time></trkpt><trkpt lat="44.53350114851769" lon="9.432596440971436"><ele>932.5</ele><time>2026-04-30T08:42:30.999Z</time></trkpt><trkpt lat="44.53338112389074" lon="9.432717940515923"><ele>931.0</ele><time>2026-04-30T08:42:31.999Z</time></trkpt><trkpt lat="44.53325890916197" lon="9.432747793163253"><ele>931.0</ele><time>2026-04-30T08:42:32.999Z</time></trkpt><trkpt lat="44.53311767730879" lon="9.432750566446835"><ele>931.0</ele><time>2026-04-30T08:42:33.999Z</time></trkpt><trkpt lat="44.533000138061205" lon="9.432733493357391"><ele>931.0</ele><time>2026-04-30T08:42:34.999Z</time></trkpt><trkpt lat="44.532883314417205" lon="9.432707853322665"><ele>931.0</ele><time>2026-04-30T08:42:35.999Z</time></trkpt><trkpt lat="44.53277328740341" lon="9.432676869381202"><ele>929.75</ele><time>2026-04-30T08:42:36.999Z</time></trkpt><trkpt lat="44.53266382872547" lon="9.432685142217299"><ele>928.5</ele><time>2026-04-30T08:42:37.999Z</time></trkpt><trkpt lat="44.53255375541168" lon="9.432698964393598"><ele>927.25</ele><time>2026-04-30T08:42:38.999Z</time></trkpt><trkpt lat="44.53247184120206" lon="9.432800074295454"><ele>926.0</ele><time>2026-04-30T08:42:39.999Z</time></trkpt><trkpt lat="44.53242697924165" lon="9.432988027221924"><ele>926.0</ele><time>2026-04-30T08:42:40.999Z</time></trkpt><trkpt lat="44.53236419205871" lon="9.433140596723199"><ele>926.0</ele><time>2026-04-30T08:42:41.999Z</time></trkpt><trkpt lat="44.53238234317371" lon="9.433310776644479"><ele>926.0</ele><time>2026-04-30T08:42:42.999Z</time></trkpt><trkpt lat="44.5324149459594" lon="9.433487215690926"><ele>926.0</ele><time>2026-04-30T08:42:43.999Z</time></trkpt><trkpt lat="44.53245788707177" lon="9.433633362808598"><ele>926.25</ele><time>2026-04-30T08:42:44.999Z</time></trkpt><trkpt lat="44.532470473086086" lon="9.43381328577092"><ele>926.5</ele><time>2026-04-30T08:42:45.999Z</time></trkpt><trkpt lat="44.532456436381274" lon="9.434019991860568"><ele>926.75</ele><time>2026-04-30T08:42:46.999Z</time></trkpt><trkpt lat="44.532421996370445" lon="9.434190505622617"><ele>927.0</ele><time>2026-04-30T08:42:47.999Z</time></trkpt><trkpt lat="44.53239177712789" lon="9.434357515059023"><ele>927.0</ele><time>2026-04-30T08:42:48.999Z</time></trkpt><trkpt lat="44.532358634138504" lon="9.434533957301586"><ele>927.0</ele><time>2026-04-30T08:42:49.999Z</time></trkpt><trkpt lat="44.53230712410924" lon="9.434696678568878"><ele>927.0</ele><time>2026-04-30T08:42:50.999Z</time></trkpt><trkpt lat="44.532244386174746" lon="9.434842374983543"><ele>927.0</ele><time>2026-04-30T08:42:51.999Z</time></trkpt><trkpt lat="44.532175334695786" lon="9.434997278670581"><ele>928.25</ele><time>2026-04-30T08:42:52.999Z</time></trkpt><trkpt lat="44.53210165287327" lon="9.435164522248266"><ele>929.5</ele><time>2026-04-30T08:42:53.999Z</time></trkpt><trkpt lat="44.5320296671606" lon="9.435331799503386"><ele>930.75</ele><time>2026-04-30T08:42:54.999Z</time></trkpt><trkpt lat="44.53194926059937" lon="9.435518644656428"><ele>932.0</ele><time>2026-04-30T08:42:55.999Z</time></trkpt><trkpt lat="44.53186950797145" lon="9.435703970392277"><ele>926.0</ele><time>2026-04-30T08:42:56.999Z</time></trkpt><trkpt lat="44.53179833588511" lon="9.43586935671043"><ele>920.0</ele><time>2026-04-30T08:42:57.999Z</time></trkpt><trkpt lat="44.5317110744724" lon="9.436069838895499"><ele>914.0</ele><time>2026-04-30T08:42:58.999Z</time></trkpt><trkpt lat="44.531630161050465" lon="9.43625525899139"><ele>914.75</ele><time>2026-04-30T08:42:59.999Z</time></trkpt><trkpt lat="44.53155143312927" lon="9.436435670493394"><ele>915.5</ele><time>2026-04-30T08:43:00.999Z</time></trkpt><trkpt lat="44.5314804275642" lon="9.436598650207953"><ele>916.25</ele><time>2026-04-30T08:43:01.999Z</time></trkpt><trkpt lat="44.53141282341866" lon="9.43675034455046"><ele>917.0</ele><time>2026-04-30T08:43:02.999Z</time></trkpt><trkpt lat="44.53135165901618" lon="9.436881955354716"><ele>917.0</ele><time>2026-04-30T08:43:03.999Z</time></trkpt><trkpt lat="44.53129162103563" lon="9.43702366808527"><ele>917.0</ele><time>2026-04-30T08:43:04.999Z</time></trkpt><trkpt lat="44.53124617534397" lon="9.437181651612086"><ele>917.0</ele><time>2026-04-30T08:43:05.999Z</time></trkpt><trkpt lat="44.531196295398594" lon="9.437335133268252"><ele>917.0</ele><time>2026-04-30T08:43:06.999Z</time></trkpt><trkpt lat="44.531145722411864" lon="9.437484029045358"><ele>915.0</ele><time>2026-04-30T08:43:07.999Z</time></trkpt><trkpt lat="44.53109237168531" lon="9.437649230181169"><ele>913.0</ele><time>2026-04-30T08:43:08.999Z</time></trkpt><trkpt lat="44.5310733762949" lon="9.437808600544804"><ele>911.0</ele><time>2026-04-30T08:43:09.999Z</time></trkpt><trkpt lat="44.53103650532364" lon="9.437936596287415"><ele>909.0</ele><time>2026-04-30T08:43:10.999Z</time></trkpt><trkpt lat="44.5310050510314" lon="9.438015209155013"><ele>907.0</ele><time>2026-04-30T08:43:12.001Z</time></trkpt><trkpt lat="44.53092314931912" lon="9.438085943168549"><ele>907.0</ele><time>2026-04-30T08:43:14.001Z</time></trkpt><trkpt lat="44.53085420686912" lon="9.438104472334262"><ele>907.0</ele><time>2026-04-30T08:43:15.001Z</time></trkpt><trkpt lat="44.53072320297247" lon="9.438121394670326"><ele>907.0</ele><time>2026-04-30T08:43:16.001Z</time></trkpt><trkpt lat="44.530583812996326" lon="9.438122477039997"><ele>907.0</ele><time>2026-04-30T08:43:17.001Z</time></trkpt><trkpt lat="44.530429093715426" lon="9.438113918469782"><ele>906.25</ele><time>2026-04-30T08:43:18.001Z</time></trkpt><trkpt lat="44.530275103814084" lon="9.438085814911512"><ele>905.5</ele><time>2026-04-30T08:43:19.001Z</time></trkpt><trkpt lat="44.53014949687086" lon="9.438095981418554"><ele>904.75</ele><time>2026-04-30T08:43:20.001Z</time></trkpt><trkpt lat="44.53004442200003" lon="9.438073861966387"><ele>904.0</ele><time>2026-04-30T08:43:21.001Z</time></trkpt><trkpt lat="44.52994727990032" lon="9.438069974923224"><ele>904.0</ele><time>2026-04-30T08:43:22Z</time></trkpt><trkpt lat="44.52986631643179" lon="9.438087857823032"><ele>904.0</ele><time>2026-04-30T08:43:23Z</time></trkpt><trkpt lat="44.52979152605334" lon="9.43805779621247"><ele>904.0</ele><time>2026-04-30T08:43:24Z</time></trkpt><trkpt lat="44.52972663087947" lon="9.438027541201937"><ele>904.0</ele><time>2026-04-30T08:43:25Z</time></trkpt><trkpt lat="44.52966805963876" lon="9.43797841774223"><ele>904.0</ele><time>2026-04-30T08:43:26Z</time></trkpt><trkpt lat="44.52961469902498" lon="9.437899497520828"><ele>904.0</ele><time>2026-04-30T08:43:27Z</time></trkpt><trkpt lat="44.52957004165931" lon="9.437818872103014"><ele>904.0</ele><time>2026-04-30T08:43:28Z</time></trkpt><trkpt lat="44.52947780359193" lon="9.437656450394652"><ele>901.3333333333333</ele><time>2026-04-30T08:43:30Z</time></trkpt><trkpt lat="44.529430408676625" lon="9.437575583781102"><ele>898.6666666666666</ele><time>2026-04-30T08:43:31Z</time></trkpt><trkpt lat="44.52936589043943" lon="9.437504510931843"><ele>896.0</ele><time>2026-04-30T08:43:32Z</time></trkpt><trkpt lat="44.52928579901393" lon="9.437467633564511"><ele>893.3333333333333</ele><time>2026-04-30T08:43:33Z</time></trkpt><trkpt lat="44.52919377584142" lon="9.437455891837201"><ele>890.6666666666666</ele><time>2026-04-30T08:43:34Z</time></trkpt><trkpt lat="44.52911137255144" lon="9.437490743629594"><ele>888.0</ele><time>2026-04-30T08:43:35Z</time></trkpt><trkpt lat="44.52902797844363" lon="9.437538247985367"><ele>888.0</ele><time>2026-04-30T08:43:36Z</time></trkpt><trkpt lat="44.528950136266396" lon="9.43760290550289"><ele>888.0</ele><time>2026-04-30T08:43:37Z</time></trkpt><trkpt lat="44.528885508763274" lon="9.437650828890526"><ele>888.0</ele><time>2026-04-30T08:43:38Z</time></trkpt><trkpt lat="44.52880834811947" lon="9.437704898569233"><ele>888.0</ele><time>2026-04-30T08:43:39Z</time></trkpt><trkpt lat="44.528750418839174" lon="9.43775809871571"><ele>888.0</ele><time>2026-04-30T08:43:40Z</time></trkpt><trkpt lat="44.5286848546804" lon="9.43784201631164"><ele>888.0</ele><time>2026-04-30T08:43:41Z</time></trkpt><trkpt lat="44.5286114043908" lon="9.437857332583205"><ele>885.0</ele><time>2026-04-30T08:43:42Z</time></trkpt><trkpt lat="44.52851442104358" lon="9.4378748497763"><ele>882.0</ele><time>2026-04-30T08:43:43Z</time></trkpt><trkpt lat="44.5284257096189" lon="9.437854242039181"><ele>879.0</ele><time>2026-04-30T08:43:44Z</time></trkpt><trkpt lat="44.52833823098845" lon="9.437824350184538"><ele>876.0</ele><time>2026-04-30T08:43:45Z</time></trkpt><trkpt lat="44.52823544886322" lon="9.437784948614256"><ele>873.0</ele><time>2026-04-30T08:43:46Z</time></trkpt><trkpt lat="44.5281396241906" lon="9.437749067006004"><ele>873.0</ele><time>2026-04-30T08:43:47Z</time></trkpt><trkpt lat="44.52805183964714" lon="9.437712383758756"><ele>873.0</ele><time>2026-04-30T08:43:48Z</time></trkpt><trkpt lat="44.527968878955384" lon="9.437667978883534"><ele>873.0</ele><time>2026-04-30T08:43:49Z</time></trkpt><trkpt lat="44.527893774892064" lon="9.437644488859851"><ele>873.0</ele><time>2026-04-30T08:43:50Z</time></trkpt><trkpt lat="44.52782523311329" lon="9.437627867874662"><ele>873.0</ele><time>2026-04-30T08:43:51Z</time></trkpt><trkpt lat="44.527762690879186" lon="9.437644024214359"><ele>873.0</ele><time>2026-04-30T08:43:52Z</time></trkpt><trkpt lat="44.52769490133107" lon="9.43767370817596"><ele>872.8333333333334</ele><time>2026-04-30T08:43:53Z</time></trkpt><trkpt lat="44.5276302265709" lon="9.437749447580792"><ele>872.6666666666667</ele><time>2026-04-30T08:43:54Z</time></trkpt><trkpt lat="44.52755879954359" lon="9.437812486056773"><ele>872.5</ele><time>2026-04-30T08:43:55Z</time></trkpt><trkpt lat="44.527506982504605" lon="9.437915479619479"><ele>872.3333333333334</ele><time>2026-04-30T08:43:56Z</time></trkpt><trkpt lat="44.527477128956335" lon="9.438024906932776"><ele>872.1666666666667</ele><time>2026-04-30T08:43:57Z</time></trkpt><trkpt lat="44.5274618813775" lon="9.438118573705756"><ele>872.0</ele><time>2026-04-30T08:43:58Z</time></trkpt><trkpt lat="44.52747000296438" lon="9.438253439008394"><ele>872.5000000000001</ele><time>2026-04-30T08:43:59Z</time></trkpt><trkpt lat="44.527462555481165" lon="9.438368040539308"><ele>873.0</ele><time>2026-04-30T08:44:00Z</time></trkpt><trkpt lat="44.527447470918965" lon="9.438484328347451"><ele>873.5</ele><time>2026-04-30T08:44:01Z</time></trkpt><trkpt lat="44.52743359558006" lon="9.438599518553579"><ele>874.0</ele><time>2026-04-30T08:44:02Z</time></trkpt><trkpt lat="44.52741700035064" lon="9.438729075142309"><ele>874.5000000000001</ele><time>2026-04-30T08:44:03Z</time></trkpt><trkpt lat="44.52739638807328" lon="9.43885017188084"><ele>875.0</ele><time>2026-04-30T08:44:04Z</time></trkpt><trkpt lat="44.52736530994664" lon="9.438973435262918"><ele>875.3333333333334</ele><time>2026-04-30T08:44:05Z</time></trkpt><trkpt lat="44.52732678717373" lon="9.439085031182781"><ele>875.6666666666667</ele><time>2026-04-30T08:44:06Z</time></trkpt><trkpt lat="44.527284835897134" lon="9.439196673700863"><ele>876.0</ele><time>2026-04-30T08:44:07Z</time></trkpt><trkpt lat="44.52724346951075" lon="9.439303978797847"><ele>876.3333333333333</ele><time>2026-04-30T08:44:08Z</time></trkpt><trkpt lat="44.52720396064829" lon="9.439406465514583"><ele>876.6666666666666</ele><time>2026-04-30T08:44:09Z</time></trkpt><trkpt lat="44.52715891298322" lon="9.439521073926873"><ele>877.0</ele><time>2026-04-30T08:44:10Z</time></trkpt><trkpt lat="44.527113361148224" lon="9.439633876180295"><ele>877.1666666666666</ele><time>2026-04-30T08:44:11Z</time></trkpt><trkpt lat="44.52706629099258" lon="9.439744681083226"><ele>877.3333333333333</ele><time>2026-04-30T08:44:12Z</time></trkpt><trkpt lat="44.52702337596755" lon="9.43984383345264"><ele>877.5</ele><time>2026-04-30T08:44:13Z</time></trkpt><trkpt lat="44.52698288501084" lon="9.439935007427348"><ele>877.6666666666667</ele><time>2026-04-30T08:44:14Z</time></trkpt><trkpt lat="44.52694370244542" lon="9.440015439176898"><ele>877.8333333333334</ele><time>2026-04-30T08:44:15Z</time></trkpt><trkpt lat="44.52690624572943" lon="9.440088813256857"><ele>878.0</ele><time>2026-04-30T08:44:16Z</time></trkpt><trkpt lat="44.5268324835926" lon="9.440222510749237"><ele>876.0000000000001</ele><time>2026-04-30T08:44:18Z</time></trkpt><trkpt lat="44.52678596949441" lon="9.440289734034977"><ele>874.0</ele><time>2026-04-30T08:44:19Z</time></trkpt><trkpt lat="44.52673973279014" lon="9.440356558952802"><ele>872.0</ele><time>2026-04-30T08:44:20Z</time></trkpt><trkpt lat="44.526617900722584" lon="9.440381148095803"><ele>870.0</ele><time>2026-04-30T08:44:22Z</time></trkpt><trkpt lat="44.526548609363125" lon="9.440374865412261"><ele>868.0000000000001</ele><time>2026-04-30T08:44:23Z</time></trkpt><trkpt lat="44.5264869545429" lon="9.440322368645976"><ele>866.0</ele><time>2026-04-30T08:44:24Z</time></trkpt><trkpt lat="44.526430536284515" lon="9.440264533090282"><ele>865.9999999999999</ele><time>2026-04-30T08:44:25Z</time></trkpt><trkpt lat="44.52638003018667" lon="9.440202829841994"><ele>866.0</ele><time>2026-04-30T08:44:26Z</time></trkpt><trkpt lat="44.52632986967665" lon="9.440136540444938"><ele>866.0</ele><time>2026-04-30T08:44:27Z</time></trkpt><trkpt lat="44.52626999509208" lon="9.440078523315995"><ele>866.0</ele><time>2026-04-30T08:44:28Z</time></trkpt><trkpt lat="44.526215049632555" lon="9.440002707161275"><ele>866.0</ele><time>2026-04-30T08:44:29Z</time></trkpt><trkpt lat="44.52615173939469" lon="9.439951033317996"><ele>865.9999999999999</ele><time>2026-04-30T08:44:30Z</time></trkpt><trkpt lat="44.52609471725722" lon="9.43988448145825"><ele>866.0</ele><time>2026-04-30T08:44:31Z</time></trkpt><trkpt lat="44.52603894302093" lon="9.439810482568507"><ele>865.1666666666667</ele><time>2026-04-30T08:44:32Z</time></trkpt><trkpt lat="44.52598411627459" lon="9.439739717858627"><ele>864.3333333333334</ele><time>2026-04-30T08:44:33Z</time></trkpt><trkpt lat="44.525920946136225" lon="9.439687211596974"><ele>863.5</ele><time>2026-04-30T08:44:34Z</time></trkpt><trkpt lat="44.52584545059401" lon="9.439674670217771"><ele>862.6666666666667</ele><time>2026-04-30T08:44:35Z</time></trkpt><trkpt lat="44.52575915623254" lon="9.439690016568646"><ele>861.8333333333334</ele><time>2026-04-30T08:44:36Z</time></trkpt><trkpt lat="44.525680820833564" lon="9.43973602079469"><ele>861.0</ele><time>2026-04-30T08:44:37Z</time></trkpt><trkpt lat="44.525620252451226" lon="9.439805327289504"><ele>861.0</ele><time>2026-04-30T08:44:38Z</time></trkpt><trkpt lat="44.525546704679975" lon="9.439873378037321"><ele>860.9999999999999</ele><time>2026-04-30T08:44:39Z</time></trkpt><trkpt lat="44.52550608625892" lon="9.439988205372375"><ele>860.9999999999999</ele><time>2026-04-30T08:44:40Z</time></trkpt><trkpt lat="44.52549105717033" lon="9.440129555436918"><ele>861.0</ele><time>2026-04-30T08:44:41Z</time></trkpt><trkpt lat="44.525491265840266" lon="9.440288140696623"><ele>861.0</ele><time>2026-04-30T08:44:42Z</time></trkpt><trkpt lat="44.525497657457386" lon="9.44045831662783"><ele>862.25</ele><time>2026-04-30T08:44:43Z</time></trkpt><trkpt lat="44.52550562808836" lon="9.440654419604845"><ele>863.5</ele><time>2026-04-30T08:44:44Z</time></trkpt><trkpt lat="44.5255126800559" lon="9.44086573354734"><ele>864.75</ele><time>2026-04-30T08:44:45Z</time></trkpt><trkpt lat="44.52551928533861" lon="9.441074648423195"><ele>866.0</ele><time>2026-04-30T08:44:46Z</time></trkpt><trkpt lat="44.52554184443959" lon="9.441277424424436"><ele>867.4</ele><time>2026-04-30T08:44:47Z</time></trkpt><trkpt lat="44.52554037831033" lon="9.441460654248445"><ele>868.8</ele><time>2026-04-30T08:44:48Z</time></trkpt><trkpt lat="44.52554076629798" lon="9.441621659185143"><ele>870.1999999999999</ele><time>2026-04-30T08:44:49Z</time></trkpt><trkpt lat="44.525505985607616" lon="9.44173605687195"><ele>871.5999999999999</ele><time>2026-04-30T08:44:50Z</time></trkpt><trkpt lat="44.525460068105886" lon="9.441824251114998"><ele>873.0</ele><time>2026-04-30T08:44:51Z</time></trkpt><trkpt lat="44.525373167435056" lon="9.441884873374518"><ele>869.0</ele><time>2026-04-30T08:44:52Z</time></trkpt><trkpt lat="44.525253632367274" lon="9.441921400349234"><ele>865.0</ele><time>2026-04-30T08:44:53Z</time></trkpt><trkpt lat="44.52512255711933" lon="9.44195225371043"><ele>861.0</ele><time>2026-04-30T08:44:54Z</time></trkpt><trkpt lat="44.52499424350566" lon="9.442070060626923"><ele>857.0</ele><time>2026-04-30T08:44:55Z</time></trkpt><trkpt lat="44.524889422367856" lon="9.44222540778933"><ele>857.0</ele><time>2026-04-30T08:44:56Z</time></trkpt><trkpt lat="44.52477728836656" lon="9.442359310357858"><ele>857.0</ele><time>2026-04-30T08:44:57Z</time></trkpt><trkpt lat="44.52464460399786" lon="9.44248255402617"><ele>857.0</ele><time>2026-04-30T08:44:58Z</time></trkpt><trkpt lat="44.52450687782462" lon="9.442586865298763"><ele>851.0</ele><time>2026-04-30T08:44:59Z</time></trkpt><trkpt lat="44.524396808412234" lon="9.44269319851474"><ele>845.0</ele><time>2026-04-30T08:45:00Z</time></trkpt><trkpt lat="44.52432667541344" lon="9.442815799547395"><ele>839.0</ele><time>2026-04-30T08:45:01Z</time></trkpt><trkpt lat="44.52426779618184" lon="9.442978843447639"><ele>833.0</ele><time>2026-04-30T08:45:02Z</time></trkpt><trkpt lat="44.52429726326214" lon="9.443184129882717"><ele>833.0</ele><time>2026-04-30T08:45:03Z</time></trkpt><trkpt lat="44.5243417310524" lon="9.443404128449254"><ele>833.0</ele><time>2026-04-30T08:45:04Z</time></trkpt><trkpt lat="44.524348788530105" lon="9.443666121720508"><ele>833.0</ele><time>2026-04-30T08:45:05Z</time></trkpt><trkpt lat="44.52437412124568" lon="9.443908593568098"><ele>830.0</ele><time>2026-04-30T08:45:06Z</time></trkpt><trkpt lat="44.52439456058561" lon="9.444169012243131"><ele>827.0</ele><time>2026-04-30T08:45:07Z</time></trkpt><trkpt lat="44.52443658519314" lon="9.444453717587312"><ele>824.0</ele><time>2026-04-30T08:45:08Z</time></trkpt><trkpt lat="44.524443387821556" lon="9.444722980582299"><ele>822.3333333333334</ele><time>2026-04-30T08:45:09Z</time></trkpt><trkpt lat="44.52446576938739" lon="9.444988755090419"><ele>820.6666666666667</ele><time>2026-04-30T08:45:10Z</time></trkpt><trkpt lat="44.5244823036781" lon="9.445221423850935"><ele>819.0</ele><time>2026-04-30T08:45:11Z</time></trkpt><trkpt lat="44.52452009368255" lon="9.445455787174422"><ele>823.75</ele><time>2026-04-30T08:45:12Z</time></trkpt><trkpt lat="44.5245710653783" lon="9.445649962120413"><ele>828.5</ele><time>2026-04-30T08:45:13Z</time></trkpt><trkpt lat="44.5246280628152" lon="9.445846829599372"><ele>833.25</ele><time>2026-04-30T08:45:14Z</time></trkpt><trkpt lat="44.524674136928944" lon="9.446018469631468"><ele>838.0</ele><time>2026-04-30T08:45:15Z</time></trkpt><trkpt lat="44.52470864191727" lon="9.446172653495342"><ele>836.8</ele><time>2026-04-30T08:45:16Z</time></trkpt><trkpt lat="44.52470803916445" lon="9.446317737588993"><ele>835.5999999999999</ele><time>2026-04-30T08:45:17Z</time></trkpt><trkpt lat="44.52467150709393" lon="9.446440880630904"><ele>834.4000000000001</ele><time>2026-04-30T08:45:18Z</time></trkpt><trkpt lat="44.52461392442913" lon="9.446557651646536"><ele>833.2</ele><time>2026-04-30T08:45:19Z</time></trkpt><trkpt lat="44.524537034572866" lon="9.446688969252662"><ele>832.0</ele><time>2026-04-30T08:45:20Z</time></trkpt><trkpt lat="44.52446178646785" lon="9.44680276299355"><ele>829.8</ele><time>2026-04-30T08:45:21Z</time></trkpt><trkpt lat="44.52436308863816" lon="9.44688965320422"><ele>827.6</ele><time>2026-04-30T08:45:22Z</time></trkpt><trkpt lat="44.52426861433793" lon="9.446932212330724"><ele>825.4</ele><time>2026-04-30T08:45:23Z</time></trkpt><trkpt lat="44.524187486302544" lon="9.44689199985046"><ele>823.1999999999999</ele><time>2026-04-30T08:45:24Z</time></trkpt><trkpt lat="44.52406998395438" lon="9.446837644064775"><ele>821.0</ele><time>2026-04-30T08:45:25Z</time></trkpt><trkpt lat="44.52391722482035" lon="9.446721265357947"><ele>821.0</ele><time>2026-04-30T08:45:26Z</time></trkpt><trkpt lat="44.523818146177604" lon="9.446528471947731"><ele>821.0</ele><time>2026-04-30T08:45:27Z</time></trkpt><trkpt lat="44.523733032518685" lon="9.446322255484413"><ele>821.0</ele><time>2026-04-30T08:45:28Z</time></trkpt><trkpt lat="44.523642600211126" lon="9.446156571391262"><ele>817.25</ele><time>2026-04-30T08:45:29Z</time></trkpt><trkpt lat="44.52352383463366" lon="9.446048559880866"><ele>813.5</ele><time>2026-04-30T08:45:30Z</time></trkpt><trkpt lat="44.52340080588033" lon="9.445935411804854"><ele>809.75</ele><time>2026-04-30T08:45:31Z</time></trkpt><trkpt lat="44.52324135927165" lon="9.445917987273202"><ele>806.0</ele><time>2026-04-30T08:45:32Z</time></trkpt><trkpt lat="44.52307759350843" lon="9.445931736381082"><ele>806.0</ele><time>2026-04-30T08:45:33Z</time></trkpt><trkpt lat="44.52293212159571" lon="9.445996455866243"><ele>806.0</ele><time>2026-04-30T08:45:34Z</time></trkpt><trkpt lat="44.52279668579446" lon="9.446064890092844"><ele>806.0</ele><time>2026-04-30T08:45:34.999Z</time></trkpt><trkpt lat="44.522691501541686" lon="9.44622225635066"><ele>806.6666666666667</ele><time>2026-04-30T08:45:35.999Z</time></trkpt><trkpt lat="44.52262783644516" lon="9.44643593290958"><ele>807.3333333333333</ele><time>2026-04-30T08:45:36.999Z</time></trkpt><trkpt lat="44.522584863578906" lon="9.446674038338427"><ele>808.0</ele><time>2026-04-30T08:45:37.999Z</time></trkpt><trkpt lat="44.52255376650635" lon="9.446947607595273"><ele>808.6666666666666</ele><time>2026-04-30T08:45:38.999Z</time></trkpt><trkpt lat="44.522501353176054" lon="9.447191998719125"><ele>809.3333333333333</ele><time>2026-04-30T08:45:39.999Z</time></trkpt><trkpt lat="44.52242532627619" lon="9.447426879083213"><ele>810.0</ele><time>2026-04-30T08:45:40.999Z</time></trkpt><trkpt lat="44.52237773514733" lon="9.44767859527372"><ele>810.0</ele><time>2026-04-30T08:45:41.999Z</time></trkpt><trkpt lat="44.52238868478468" lon="9.447941417571542"><ele>810.0</ele><time>2026-04-30T08:45:42.999Z</time></trkpt><trkpt lat="44.52242462555679" lon="9.448172452730578"><ele>810.0</ele><time>2026-04-30T08:45:43.999Z</time></trkpt><trkpt lat="44.5224241917048" lon="9.448386319602564"><ele>810.0</ele><time>2026-04-30T08:45:44.999Z</time></trkpt><trkpt lat="44.52240125617077" lon="9.448642899999037"><ele>810.0</ele><time>2026-04-30T08:45:45.999Z</time></trkpt><trkpt lat="44.522388638013275" lon="9.44889499208687"><ele>810.0</ele><time>2026-04-30T08:45:46.999Z</time></trkpt><trkpt lat="44.522417141980675" lon="9.449144398912521"><ele>809.5</ele><time>2026-04-30T08:45:47.999Z</time></trkpt><trkpt lat="44.522438746888696" lon="9.449368628947584"><ele>809.0</ele><time>2026-04-30T08:45:48.999Z</time></trkpt><trkpt lat="44.52243383921616" lon="9.449518354640515"><ele>808.5</ele><time>2026-04-30T08:45:49.999Z</time></trkpt><trkpt lat="44.52239100466702" lon="9.4496880698128"><ele>808.0</ele><time>2026-04-30T08:45:50.999Z</time></trkpt><trkpt lat="44.52229353709116" lon="9.449867421617565"><ele>808.0</ele><time>2026-04-30T08:45:51.999Z</time></trkpt><trkpt lat="44.52214446694354" lon="9.450003550099115"><ele>808.0</ele><time>2026-04-30T08:45:52.999Z</time></trkpt><trkpt lat="44.521982378868394" lon="9.450121494438076"><ele>808.0</ele><time>2026-04-30T08:45:53.999Z</time></trkpt><trkpt lat="44.52181743850577" lon="9.450229684326004"><ele>804.6666666666666</ele><time>2026-04-30T08:45:54.999Z</time></trkpt><trkpt lat="44.52165215939406" lon="9.450340408598741"><ele>801.3333333333333</ele><time>2026-04-30T08:45:55.999Z</time></trkpt><trkpt lat="44.52150408101112" lon="9.450441453781393"><ele>798.0</ele><time>2026-04-30T08:45:56.999Z</time></trkpt><trkpt lat="44.52136536549696" lon="9.450555527573792"><ele>798.0</ele><time>2026-04-30T08:45:57.999Z</time></trkpt><trkpt lat="44.52124230813893" lon="9.450712452867744"><ele>798.0</ele><time>2026-04-30T08:45:58.999Z</time></trkpt><trkpt lat="44.52114689162559" lon="9.45084565539856"><ele>798.0</ele><time>2026-04-30T08:45:59.999Z</time></trkpt><trkpt lat="44.52113472064514" lon="9.450999908850363"><ele>798.0</ele><time>2026-04-30T08:46:00.999Z</time></trkpt><trkpt lat="44.521138546235996" lon="9.451212318418303"><ele>787.6666666666666</ele><time>2026-04-30T08:46:01.999Z</time></trkpt><trkpt lat="44.521100254241134" lon="9.451436772173851"><ele>777.3333333333333</ele><time>2026-04-30T08:46:02.999Z</time></trkpt><trkpt lat="44.521044545801296" lon="9.45165302274584"><ele>767.0</ele><time>2026-04-30T08:46:03.999Z</time></trkpt><trkpt lat="44.52097632679316" lon="9.451866031989615"><ele>767.0</ele><time>2026-04-30T08:46:04.999Z</time></trkpt><trkpt lat="44.52090348294632" lon="9.45208824978669"><ele>767.0</ele><time>2026-04-30T08:46:05.999Z</time></trkpt><trkpt lat="44.520838621234354" lon="9.452281865802933"><ele>767.0</ele><time>2026-04-30T08:46:06.999Z</time></trkpt><trkpt lat="44.5207710179991" lon="9.45248366649302"><ele>769.0</ele><time>2026-04-30T08:46:07.999Z</time></trkpt><trkpt lat="44.5206949990271" lon="9.452711014877153"><ele>771.0</ele><time>2026-04-30T08:46:08.999Z</time></trkpt><trkpt lat="44.5206245060051" lon="9.452922126504268"><ele>773.0</ele><time>2026-04-30T08:46:09.999Z</time></trkpt><trkpt lat="44.520560369804464" lon="9.453114200248013"><ele>776.25</ele><time>2026-04-30T08:46:10.999Z</time></trkpt><trkpt lat="44.520497302899784" lon="9.453296842197442"><ele>779.5</ele><time>2026-04-30T08:46:11.999Z</time></trkpt><trkpt lat="44.52044000367929" lon="9.45343571300747"><ele>782.75</ele><time>2026-04-30T08:46:12.999Z</time></trkpt><trkpt lat="44.52037249111457" lon="9.453554834481032"><ele>786.0</ele><time>2026-04-30T08:46:13.999Z</time></trkpt><trkpt lat="44.520291027536274" lon="9.453612029148877"><ele>779.25</ele><time>2026-04-30T08:46:14.999Z</time></trkpt><trkpt lat="44.520164620292654" lon="9.453649198531682"><ele>772.5</ele><time>2026-04-30T08:46:15.999Z</time></trkpt><trkpt lat="44.520035105231024" lon="9.453663741224943"><ele>765.75</ele><time>2026-04-30T08:46:16.999Z</time></trkpt><trkpt lat="44.519861235844786" lon="9.453672350845169"><ele>759.0</ele><time>2026-04-30T08:46:17.999Z</time></trkpt><trkpt lat="44.519697812891934" lon="9.453691732160946"><ele>760.0</ele><time>2026-04-30T08:46:18.999Z</time></trkpt><trkpt lat="44.51955881016389" lon="9.453716906337439"><ele>761.0</ele><time>2026-04-30T08:46:19.999Z</time></trkpt><trkpt lat="44.519426655588404" lon="9.453702951364233"><ele>762.0</ele><time>2026-04-30T08:46:20.999Z</time></trkpt><trkpt lat="44.51931247437395" lon="9.45372172208671"><ele>763.0</ele><time>2026-04-30T08:46:21.999Z</time></trkpt><trkpt lat="44.51921446812115" lon="9.453722375276657"><ele>763.0</ele><time>2026-04-30T08:46:22.999Z</time></trkpt><trkpt lat="44.51912702000405" lon="9.453691140210966"><ele>763.0</ele><time>2026-04-30T08:46:23.999Z</time></trkpt><trkpt lat="44.5190661788389" lon="9.453626158551627"><ele>763.0</ele><time>2026-04-30T08:46:24.999Z</time></trkpt><trkpt lat="44.519065096475536" lon="9.453500856444633"><ele>763.0</ele><time>2026-04-30T08:46:25.999Z</time></trkpt><trkpt lat="44.51904666655947" lon="9.453372945861434"><ele>763.0</ele><time>2026-04-30T08:46:26.999Z</time></trkpt><trkpt lat="44.519029717278194" lon="9.453186171410175"><ele>763.0</ele><time>2026-04-30T08:46:27.999Z</time></trkpt><trkpt lat="44.51901284914973" lon="9.45302482349865"><ele>763.0</ele><time>2026-04-30T08:46:28.999Z</time></trkpt><trkpt lat="44.51900625015971" lon="9.452877995309638"><ele>763.0</ele><time>2026-04-30T08:46:29.999Z</time></trkpt><trkpt lat="44.51901980176301" lon="9.45276817994444"><ele>763.0</ele><time>2026-04-30T08:46:30.999Z</time></trkpt><trkpt lat="44.51906213342067" lon="9.45267652920951"><ele>763.0</ele><time>2026-04-30T08:46:31.999Z</time></trkpt><trkpt lat="44.519122219387974" lon="9.452608060863923"><ele>765.25</ele><time>2026-04-30T08:46:32.999Z</time></trkpt><trkpt lat="44.51923424127571" lon="9.452528911349383"><ele>767.5</ele><time>2026-04-30T08:46:33.999Z</time></trkpt><trkpt lat="44.51936216030805" lon="9.452452785424839"><ele>769.75</ele><time>2026-04-30T08:46:34.999Z</time></trkpt><trkpt lat="44.51946753978639" lon="9.452337598034203"><ele>772.0</ele><time>2026-04-30T08:46:35.999Z</time></trkpt><trkpt lat="44.51956645667543" lon="9.452263442051967"><ele>769.25</ele><time>2026-04-30T08:46:36.999Z</time></trkpt><trkpt lat="44.519679122151445" lon="9.452168693756576"><ele>766.5</ele><time>2026-04-30T08:46:37.999Z</time></trkpt><trkpt lat="44.51978924848604" lon="9.452075532889184"><ele>763.75</ele><time>2026-04-30T08:46:38.999Z</time></trkpt><trkpt lat="44.51988979683904" lon="9.45196090817013"><ele>761.0</ele><time>2026-04-30T08:46:39.999Z</time></trkpt><trkpt lat="44.51994179765482" lon="9.451794509308396"><ele>761.0</ele><time>2026-04-30T08:46:40.999Z</time></trkpt><trkpt lat="44.5199673699212" lon="9.451646759212148"><ele>761.0</ele><time>2026-04-30T08:46:41.999Z</time></trkpt><trkpt lat="44.519956432924026" lon="9.451480704293095"><ele>761.0</ele><time>2026-04-30T08:46:42.999Z</time></trkpt><trkpt lat="44.51993452742883" lon="9.451300030837588"><ele>761.0</ele><time>2026-04-30T08:46:43.999Z</time></trkpt><trkpt lat="44.519853221327004" lon="9.451091201848676"><ele>763.0</ele><time>2026-04-30T08:46:44.999Z</time></trkpt><trkpt lat="44.519799050035765" lon="9.45086271932125"><ele>765.0</ele><time>2026-04-30T08:46:45.999Z</time></trkpt><trkpt lat="44.519808735652624" lon="9.450653190719821"><ele>767.0</ele><time>2026-04-30T08:46:46.999Z</time></trkpt><trkpt lat="44.51983145463972" lon="9.450443331106023"><ele>767.25</ele><time>2026-04-30T08:46:47.999Z</time></trkpt><trkpt lat="44.51985111653308" lon="9.450280494468766"><ele>767.5</ele><time>2026-04-30T08:46:48.999Z</time></trkpt><trkpt lat="44.519889324573796" lon="9.450118497457058"><ele>767.75</ele><time>2026-04-30T08:46:49.999Z</time></trkpt><trkpt lat="44.51995206231902" lon="9.449962918290188"><ele>768.0</ele><time>2026-04-30T08:46:50.999Z</time></trkpt><trkpt lat="44.52003813447031" lon="9.449787756323996"><ele>770.3333333333333</ele><time>2026-04-30T08:46:51.999Z</time></trkpt><trkpt lat="44.52013268846331" lon="9.449602926547733"><ele>772.6666666666666</ele><time>2026-04-30T08:46:52.999Z</time></trkpt><trkpt lat="44.52023106510986" lon="9.44940630813497"><ele>775.0</ele><time>2026-04-30T08:46:53.999Z</time></trkpt><trkpt lat="44.520328259669654" lon="9.449217976208368"><ele>770.3333333333333</ele><time>2026-04-30T08:46:54.999Z</time></trkpt><trkpt lat="44.52042690295421" lon="9.449029011630246"><ele>765.6666666666666</ele><time>2026-04-30T08:46:55.999Z</time></trkpt><trkpt lat="44.52049983592407" lon="9.448870009624699"><ele>761.0</ele><time>2026-04-30T08:46:56.999Z</time></trkpt><trkpt lat="44.52058890338822" lon="9.448701573642944"><ele>761.0</ele><time>2026-04-30T08:46:57.999Z</time></trkpt><trkpt lat="44.52063528477936" lon="9.448531075507255"><ele>761.0</ele><time>2026-04-30T08:46:58.999Z</time></trkpt><trkpt lat="44.52062807792357" lon="9.44830963384984"><ele>761.0</ele><time>2026-04-30T08:46:59.999Z</time></trkpt><trkpt lat="44.52058721075171" lon="9.448111918809348"><ele>761.0</ele><time>2026-04-30T08:47:00.999Z</time></trkpt><trkpt lat="44.52053541211491" lon="9.447881056888596"><ele>760.3333333333333</ele><time>2026-04-30T08:47:01.999Z</time></trkpt><trkpt lat="44.52040587918896" lon="9.44767779530329"><ele>759.6666666666666</ele><time>2026-04-30T08:47:02.999Z</time></trkpt><trkpt lat="44.52034614276237" lon="9.447423278193881"><ele>759.0</ele><time>2026-04-30T08:47:03.999Z</time></trkpt><trkpt lat="44.52026975092715" lon="9.447179346922638"><ele>768.6666666666667</ele><time>2026-04-30T08:47:04.999Z</time></trkpt><trkpt lat="44.52018990212817" lon="9.446920705038574"><ele>778.3333333333334</ele><time>2026-04-30T08:47:05.999Z</time></trkpt><trkpt lat="44.520127284777686" lon="9.446705260105064"><ele>788.0</ele><time>2026-04-30T08:47:06.999Z</time></trkpt><trkpt lat="44.52007929703411" lon="9.446513725999457"><ele>788.0</ele><time>2026-04-30T08:47:07.999Z</time></trkpt><trkpt lat="44.52005821646463" lon="9.446340866776024"><ele>788.0</ele><time>2026-04-30T08:47:08.999Z</time></trkpt><trkpt lat="44.52006809746794" lon="9.446145916720113"><ele>788.0</ele><time>2026-04-30T08:47:09.999Z</time></trkpt><trkpt lat="44.52009476685962" lon="9.445900788074423"><ele>788.0</ele><time>2026-04-30T08:47:10.999Z</time></trkpt><trkpt lat="44.5201220825655" lon="9.44564634810226"><ele>788.6666666666667</ele><time>2026-04-30T08:47:11.999Z</time></trkpt><trkpt lat="44.52013562911818" lon="9.445373927150387"><ele>789.3333333333333</ele><time>2026-04-30T08:47:12.999Z</time></trkpt><trkpt lat="44.520144275116664" lon="9.445134543115733"><ele>790.0</ele><time>2026-04-30T08:47:13.999Z</time></trkpt><trkpt lat="44.52015681014777" lon="9.444889781459114"><ele>790.0</ele><time>2026-04-30T08:47:14.999Z</time></trkpt><trkpt lat="44.52017715364747" lon="9.444670258720867"><ele>790.0</ele><time>2026-04-30T08:47:15.999Z</time></trkpt><trkpt lat="44.52021491975785" lon="9.444415196862815"><ele>790.0</ele><time>2026-04-30T08:47:16.999Z</time></trkpt><trkpt lat="44.52025847737091" lon="9.444124318054765"><ele>793.3333333333333</ele><time>2026-04-30T08:47:17.999Z</time></trkpt><trkpt lat="44.52028774724853" lon="9.443854149675872"><ele>796.6666666666667</ele><time>2026-04-30T08:47:18.999Z</time></trkpt><trkpt lat="44.520287191066885" lon="9.443588783406181"><ele>800.0</ele><time>2026-04-30T08:47:19.999Z</time></trkpt><trkpt lat="44.52026888769674" lon="9.443350577490873"><ele>800.8</ele><time>2026-04-30T08:47:20.999Z</time></trkpt><trkpt lat="44.52025309622608" lon="9.443145720395362"><ele>801.6</ele><time>2026-04-30T08:47:21.999Z</time></trkpt><trkpt lat="44.52025153006782" lon="9.442975660537693"><ele>802.4000000000001</ele><time>2026-04-30T08:47:22.999Z</time></trkpt><trkpt lat="44.52027595427983" lon="9.442837596500455"><ele>803.2</ele><time>2026-04-30T08:47:23.999Z</time></trkpt><trkpt lat="44.52031993619939" lon="9.44275265893898"><ele>804.0</ele><time>2026-04-30T08:47:24.999Z</time></trkpt><trkpt lat="44.52038327855183" lon="9.442662678655614"><ele>790.3333333333334</ele><time>2026-04-30T08:47:25.999Z</time></trkpt><trkpt lat="44.520498904451316" lon="9.442470628518024"><ele>776.6666666666667</ele><time>2026-04-30T08:47:26.999Z</time></trkpt><trkpt lat="44.52055971126234" lon="9.442267379977352"><ele>763.0</ele><time>2026-04-30T08:47:27.999Z</time></trkpt><trkpt lat="44.52055016658186" lon="9.442043980775669"><ele>763.0</ele><time>2026-04-30T08:47:28.999Z</time></trkpt><trkpt lat="44.520522024932546" lon="9.441810782779337"><ele>763.0</ele><time>2026-04-30T08:47:29.999Z</time></trkpt><trkpt lat="44.52048091356911" lon="9.441605788072614"><ele>763.0</ele><time>2026-04-30T08:47:30.999Z</time></trkpt><trkpt lat="44.520502845278116" lon="9.441419683251977"><ele>765.6666666666667</ele><time>2026-04-30T08:47:31.999Z</time></trkpt><trkpt lat="44.520535482837744" lon="9.441237003687323"><ele>768.3333333333334</ele><time>2026-04-30T08:47:32.999Z</time></trkpt><trkpt lat="44.52057879364786" lon="9.441014909538227"><ele>771.0</ele><time>2026-04-30T08:47:33.999Z</time></trkpt><trkpt lat="44.52061805688541" lon="9.440785868842191"><ele>771.0</ele><time>2026-04-30T08:47:34.999Z</time></trkpt><trkpt lat="44.52064673048745" lon="9.440615605914397"><ele>771.0</ele><time>2026-04-30T08:47:35.999Z</time></trkpt><trkpt lat="44.52068469133163" lon="9.440495169761295"><ele>771.0</ele><time>2026-04-30T08:47:36.999Z</time></trkpt><trkpt lat="44.520751400670726" lon="9.440391779679592"><ele>771.0</ele><time>2026-04-30T08:47:37.999Z</time></trkpt><trkpt lat="44.520866217223194" lon="9.440227259072495"><ele>776.6666666666667</ele><time>2026-04-30T08:47:38.999Z</time></trkpt><trkpt lat="44.52097557587918" lon="9.439999518181763"><ele>782.3333333333334</ele><time>2026-04-30T08:47:39.999Z</time></trkpt><trkpt lat="44.52102606250988" lon="9.4397626671458"><ele>788.0</ele><time>2026-04-30T08:47:40.999Z</time></trkpt><trkpt lat="44.52108626061127" lon="9.439557364217324"><ele>790.5</ele><time>2026-04-30T08:47:41.999Z</time></trkpt><trkpt lat="44.52110171464403" lon="9.439344924440002"><ele>793.0</ele><time>2026-04-30T08:47:42.999Z</time></trkpt><trkpt lat="44.521141757841924" lon="9.43917033348653"><ele>795.5</ele><time>2026-04-30T08:47:43.999Z</time></trkpt><trkpt lat="44.52116524002453" lon="9.439016359904764"><ele>798.0</ele><time>2026-04-30T08:47:44.999Z</time></trkpt><trkpt lat="44.521186836064544" lon="9.438865953570042"><ele>796.4</ele><time>2026-04-30T08:47:45.999Z</time></trkpt><trkpt lat="44.521206470918955" lon="9.438713571825126"><ele>794.8</ele><time>2026-04-30T08:47:46.999Z</time></trkpt><trkpt lat="44.521196956193435" lon="9.438562958764837"><ele>793.2</ele><time>2026-04-30T08:47:47.999Z</time></trkpt><trkpt lat="44.5212068954113" lon="9.438408805882228"><ele>791.6</ele><time>2026-04-30T08:47:48.999Z</time></trkpt><trkpt lat="44.52117650556025" lon="9.438264641364691"><ele>790.0</ele><time>2026-04-30T08:47:49.999Z</time></trkpt><trkpt lat="44.521131220529384" lon="9.438098025969479"><ele>784.75</ele><time>2026-04-30T08:47:50.999Z</time></trkpt><trkpt lat="44.52107938313385" lon="9.437925667312749"><ele>779.5</ele><time>2026-04-30T08:47:51.999Z</time></trkpt><trkpt lat="44.52102678682567" lon="9.437742963453944"><ele>774.25</ele><time>2026-04-30T08:47:52.999Z</time></trkpt><trkpt lat="44.520956084483345" lon="9.437587802382485"><ele>769.0</ele><time>2026-04-30T08:47:53.999Z</time></trkpt><trkpt lat="44.520871176567354" lon="9.43746084330871"><ele>769.0</ele><time>2026-04-30T08:47:54.999Z</time></trkpt><trkpt lat="44.52074751684959" lon="9.437360817798787"><ele>769.0</ele><time>2026-04-30T08:47:55.999Z</time></trkpt><trkpt lat="44.520590670375476" lon="9.437309782491694"><ele>769.0</ele><time>2026-04-30T08:47:56.999Z</time></trkpt><trkpt lat="44.52044218654168" lon="9.437229247566265"><ele>768.0</ele><time>2026-04-30T08:47:57.999Z</time></trkpt><trkpt lat="44.52030754552539" lon="9.437137219335769"><ele>767.0</ele><time>2026-04-30T08:47:58.999Z</time></trkpt><trkpt lat="44.52017591517377" lon="9.437065050526016"><ele>766.0</ele><time>2026-04-30T08:47:59.999Z</time></trkpt><trkpt lat="44.52005205375328" lon="9.436961137394476"><ele>765.0</ele><time>2026-04-30T08:48:00.999Z</time></trkpt><trkpt lat="44.519923905222186" lon="9.436873141004504"><ele>765.0</ele><time>2026-04-30T08:48:01.999Z</time></trkpt><trkpt lat="44.51980188167852" lon="9.436791600258484"><ele>765.0</ele><time>2026-04-30T08:48:02.999Z</time></trkpt><trkpt lat="44.51968614066832" lon="9.436730429875315"><ele>765.0</ele><time>2026-04-30T08:48:03.999Z</time></trkpt><trkpt lat="44.51957702258197" lon="9.436646326096804"><ele>765.0</ele><time>2026-04-30T08:48:04.999Z</time></trkpt><trkpt lat="44.51949629378513" lon="9.4365771636665"><ele>767.0</ele><time>2026-04-30T08:48:05.999Z</time></trkpt><trkpt lat="44.519403285158816" lon="9.436473901964817"><ele>769.0</ele><time>2026-04-30T08:48:06.999Z</time></trkpt><trkpt lat="44.51935080014806" lon="9.436373791563595"><ele>771.0</ele><time>2026-04-30T08:48:07.999Z</time></trkpt><trkpt lat="44.51932664592102" lon="9.436262881408021"><ele>773.0</ele><time>2026-04-30T08:48:08.999Z</time></trkpt><trkpt lat="44.51931653398007" lon="9.436107121927657"><ele>775.0</ele><time>2026-04-30T08:48:09.999Z</time></trkpt><trkpt lat="44.519329309973934" lon="9.435950424848565"><ele>775.0</ele><time>2026-04-30T08:48:10.999Z</time></trkpt><trkpt lat="44.519348458442444" lon="9.435827417426317"><ele>775.0</ele><time>2026-04-30T08:48:11.999Z</time></trkpt><trkpt lat="44.51941395539512" lon="9.435734769738064"><ele>775.0</ele><time>2026-04-30T08:48:12.999Z</time></trkpt><trkpt lat="44.51950743836269" lon="9.435660518051732"><ele>775.0</ele><time>2026-04-30T08:48:13.999Z</time></trkpt><trkpt lat="44.51961235100532" lon="9.435625839801045"><ele>775.0</ele><time>2026-04-30T08:48:14.999Z</time></trkpt><trkpt lat="44.51972636406021" lon="9.435612825820844"><ele>773.25</ele><time>2026-04-30T08:48:15.999Z</time></trkpt><trkpt lat="44.51984074689484" lon="9.435607578603555"><ele>771.5</ele><time>2026-04-30T08:48:16.999Z</time></trkpt><trkpt lat="44.51997221264002" lon="9.435638768432787"><ele>769.75</ele><time>2026-04-30T08:48:17.999Z</time></trkpt><trkpt lat="44.520102858237074" lon="9.4356561145697"><ele>768.0</ele><time>2026-04-30T08:48:18.999Z</time></trkpt><trkpt lat="44.520244756229594" lon="9.435689478203205"><ele>768.0</ele><time>2026-04-30T08:48:19.999Z</time></trkpt><trkpt lat="44.5203835354335" lon="9.435734555715108"><ele>768.0</ele><time>2026-04-30T08:48:20.999Z</time></trkpt><trkpt lat="44.52051983934242" lon="9.435738502372812"><ele>768.0</ele><time>2026-04-30T08:48:21.999Z</time></trkpt><trkpt lat="44.5206518014704" lon="9.435724503613562"><ele>768.0</ele><time>2026-04-30T08:48:22.999Z</time></trkpt><trkpt lat="44.52077391480119" lon="9.435681684538967"><ele>766.25</ele><time>2026-04-30T08:48:23.999Z</time></trkpt><trkpt lat="44.52090564326473" lon="9.435618722332643"><ele>764.5</ele><time>2026-04-30T08:48:24.999Z</time></trkpt><trkpt lat="44.521017391965856" lon="9.435479185999167"><ele>762.75</ele><time>2026-04-30T08:48:25.999Z</time></trkpt><trkpt lat="44.52110830953125" lon="9.435307913001875"><ele>761.0</ele><time>2026-04-30T08:48:26.999Z</time></trkpt><trkpt lat="44.521183555715275" lon="9.435133661914776"><ele>762.25</ele><time>2026-04-30T08:48:27.999Z</time></trkpt><trkpt lat="44.52124336138787" lon="9.434975426395058"><ele>763.5</ele><time>2026-04-30T08:48:28.999Z</time></trkpt><trkpt lat="44.52129673262331" lon="9.434813825976407"><ele>764.75</ele><time>2026-04-30T08:48:29.999Z</time></trkpt><trkpt lat="44.52134410977686" lon="9.434623221487096"><ele>766.0</ele><time>2026-04-30T08:48:30.999Z</time></trkpt><trkpt lat="44.52135183175354" lon="9.434448406864323"><ele>766.0</ele><time>2026-04-30T08:48:31.999Z</time></trkpt><trkpt lat="44.52129362254438" lon="9.434277345098812"><ele>766.0</ele><time>2026-04-30T08:48:32.999Z</time></trkpt><trkpt lat="44.521252138085686" lon="9.434100463075474"><ele>766.0</ele><time>2026-04-30T08:48:33.999Z</time></trkpt><trkpt lat="44.52123472735486" lon="9.433962047474347"><ele>766.0</ele><time>2026-04-30T08:48:34.999Z</time></trkpt><trkpt lat="44.5212738310553" lon="9.43380985229034"><ele>774.0</ele><time>2026-04-30T08:48:36.999Z</time></trkpt><trkpt lat="44.521382040304786" lon="9.433698924592528"><ele>782.0</ele><time>2026-04-30T08:48:38.999Z</time></trkpt><trkpt lat="44.521475925594146" lon="9.433664394144074"><ele>790.0</ele><time>2026-04-30T08:48:39.999Z</time></trkpt><trkpt lat="44.52160579479322" lon="9.433617866308879"><ele>798.0</ele><time>2026-04-30T08:48:40.999Z</time></trkpt><trkpt lat="44.521749794731896" lon="9.433521660272376"><ele>798.0</ele><time>2026-04-30T08:48:41.999Z</time></trkpt><trkpt lat="44.52186133747959" lon="9.433376465004109"><ele>798.0</ele><time>2026-04-30T08:48:42.999Z</time></trkpt><trkpt lat="44.52194636701808" lon="9.433229386575759"><ele>798.0</ele><time>2026-04-30T08:48:43.999Z</time></trkpt><trkpt lat="44.52203871691916" lon="9.433081353882487"><ele>798.0</ele><time>2026-04-30T08:48:44.999Z</time></trkpt><trkpt lat="44.52212979749122" lon="9.432960390131372"><ele>798.25</ele><time>2026-04-30T08:48:45.999Z</time></trkpt><trkpt lat="44.52224822603494" lon="9.432885869743176"><ele>798.5</ele><time>2026-04-30T08:48:46.999Z</time></trkpt><trkpt lat="44.522399547375166" lon="9.432822442777056"><ele>798.75</ele><time>2026-04-30T08:48:47.999Z</time></trkpt><trkpt lat="44.52254432382864" lon="9.432725418290019"><ele>799.0</ele><time>2026-04-30T08:48:48.998Z</time></trkpt><trkpt lat="44.522649676177664" lon="9.432617043104122"><ele>799.0</ele><time>2026-04-30T08:48:49.998Z</time></trkpt><trkpt lat="44.52278611713587" lon="9.432519678864004"><ele>799.0</ele><time>2026-04-30T08:48:50.998Z</time></trkpt><trkpt lat="44.52283831572013" lon="9.432368732736515"><ele>799.0</ele><time>2026-04-30T08:48:51.998Z</time></trkpt><trkpt lat="44.52284912510072" lon="9.432224910264706"><ele>799.0</ele><time>2026-04-30T08:48:52.998Z</time></trkpt><trkpt lat="44.522834628069326" lon="9.432094148960605"><ele>803.25</ele><time>2026-04-30T08:48:53.998Z</time></trkpt><trkpt lat="44.522800567818045" lon="9.43193461871083"><ele>807.5</ele><time>2026-04-30T08:48:54.998Z</time></trkpt><trkpt lat="44.52275613944927" lon="9.43177945902251"><ele>811.75</ele><time>2026-04-30T08:48:55.998Z</time></trkpt><trkpt lat="44.52270861588015" lon="9.43162336741867"><ele>816.0</ele><time>2026-04-30T08:48:56.998Z</time></trkpt><trkpt lat="44.522664179761655" lon="9.431446083076024"><ele>818.5</ele><time>2026-04-30T08:48:57.998Z</time></trkpt><trkpt lat="44.522634189646126" lon="9.431261880347789"><ele>821.0</ele><time>2026-04-30T08:48:58.998Z</time></trkpt><trkpt lat="44.52264257799697" lon="9.431085940747257"><ele>823.5</ele><time>2026-04-30T08:48:59.998Z</time></trkpt><trkpt lat="44.52268825579781" lon="9.430867943536471"><ele>826.0</ele><time>2026-04-30T08:49:00.998Z</time></trkpt><trkpt lat="44.52275537296928" lon="9.430632626385561"><ele>827.75</ele><time>2026-04-30T08:49:01.998Z</time></trkpt><trkpt lat="44.522766032295195" lon="9.43041700784016"><ele>829.5</ele><time>2026-04-30T08:49:02.998Z</time></trkpt><trkpt lat="44.52277916568735" lon="9.430244381351109"><ele>831.25</ele><time>2026-04-30T08:49:03.998Z</time></trkpt><trkpt lat="44.52282260824421" lon="9.430065924286751"><ele>833.0</ele><time>2026-04-30T08:49:04.998Z</time></trkpt><trkpt lat="44.522862051652886" lon="9.429875421963656"><ele>833.0</ele><time>2026-04-30T08:49:05.998Z</time></trkpt><trkpt lat="44.522881852703165" lon="9.429669863350252"><ele>833.0</ele><time>2026-04-30T08:49:06.998Z</time></trkpt><trkpt lat="44.52286343766036" lon="9.429451213791431"><ele>833.0</ele><time>2026-04-30T08:49:07.998Z</time></trkpt><trkpt lat="44.52287315496742" lon="9.429242518641335"><ele>832.25</ele><time>2026-04-30T08:49:08.998Z</time></trkpt><trkpt lat="44.52287232777858" lon="9.429065179126038"><ele>831.5</ele><time>2026-04-30T08:49:09.998Z</time></trkpt><trkpt lat="44.52287801367972" lon="9.4288777677531"><ele>830.75</ele><time>2026-04-30T08:49:10.998Z</time></trkpt><trkpt lat="44.52287436880011" lon="9.428688302100369"><ele>830.0</ele><time>2026-04-30T08:49:11.998Z</time></trkpt><trkpt lat="44.52285176889118" lon="9.428558021539164"><ele>828.4</ele><time>2026-04-30T08:49:12.998Z</time></trkpt><trkpt lat="44.522802278545015" lon="9.42845736363453"><ele>826.8</ele><time>2026-04-30T08:49:13.998Z</time></trkpt><trkpt lat="44.5227496045733" lon="9.428390597156804"><ele>825.2</ele><time>2026-04-30T08:49:14.998Z</time></trkpt><trkpt lat="44.52264396014121" lon="9.42837028489716"><ele>823.6</ele><time>2026-04-30T08:49:15.998Z</time></trkpt><trkpt lat="44.52253369425024" lon="9.428419771143451"><ele>822.0</ele><time>2026-04-30T08:49:16.998Z</time></trkpt><trkpt lat="44.522445501692545" lon="9.428523587450014"><ele>822.0</ele><time>2026-04-30T08:49:17.998Z</time></trkpt><trkpt lat="44.52236597097473" lon="9.428634441143853"><ele>822.0</ele><time>2026-04-30T08:49:18.998Z</time></trkpt><trkpt lat="44.522267279824725" lon="9.428696422366153"><ele>822.0</ele><time>2026-04-30T08:49:19.998Z</time></trkpt><trkpt lat="44.52217668567562" lon="9.428740521135754"><ele>822.0</ele><time>2026-04-30T08:49:20.998Z</time></trkpt><trkpt lat="44.52209171485486" lon="9.428738504071184"><ele>822.0</ele><time>2026-04-30T08:49:21.998Z</time></trkpt><trkpt lat="44.52201744072815" lon="9.428648343396654"><ele>827.0</ele><time>2026-04-30T08:49:22.998Z</time></trkpt><trkpt lat="44.52196878898701" lon="9.428551017435145"><ele>832.0</ele><time>2026-04-30T08:49:23.998Z</time></trkpt><trkpt lat="44.52193572185564" lon="9.428439581449425"><ele>837.0</ele><time>2026-04-30T08:49:24.998Z</time></trkpt><trkpt lat="44.52193959433788" lon="9.42829837815352"><ele>842.0</ele><time>2026-04-30T08:49:25.998Z</time></trkpt><trkpt lat="44.52197699410825" lon="9.428135788906767"><ele>847.0</ele><time>2026-04-30T08:49:26.998Z</time></trkpt><trkpt lat="44.522000882572364" lon="9.427932852525716"><ele>847.0</ele><time>2026-04-30T08:49:27.998Z</time></trkpt><trkpt lat="44.52202995518665" lon="9.427741008704128"><ele>847.0</ele><time>2026-04-30T08:49:28.998Z</time></trkpt><trkpt lat="44.52206993725681" lon="9.427559797419145"><ele>847.0</ele><time>2026-04-30T08:49:29.998Z</time></trkpt><trkpt lat="44.52205968009071" lon="9.427437520079387"><ele>847.0</ele><time>2026-04-30T08:49:30.998Z</time></trkpt><trkpt lat="44.52196836449466" lon="9.427253977549228"><ele>843.6666666666666</ele><time>2026-04-30T08:49:32.998Z</time></trkpt><trkpt lat="44.521871989987" lon="9.427112043495923"><ele>840.3333333333333</ele><time>2026-04-30T08:49:33.998Z</time></trkpt><trkpt lat="44.521722113122614" lon="9.426992563438857"><ele>837.0</ele><time>2026-04-30T08:49:34.998Z</time></trkpt><trkpt lat="44.52160796360783" lon="9.426858330738856"><ele>837.0</ele><time>2026-04-30T08:49:35.998Z</time></trkpt><trkpt lat="44.52152758781004" lon="9.426737383065682"><ele>837.0</ele><time>2026-04-30T08:49:36.998Z</time></trkpt><trkpt lat="44.521416337328596" lon="9.426639335843896"><ele>837.0</ele><time>2026-04-30T08:49:37.998Z</time></trkpt><trkpt lat="44.521281788415145" lon="9.42656593204684"><ele>837.0</ele><time>2026-04-30T08:49:38.998Z</time></trkpt><trkpt lat="44.521128858068614" lon="9.426520086432143"><ele>840.3333333333333</ele><time>2026-04-30T08:49:39.998Z</time></trkpt><trkpt lat="44.52097837983328" lon="9.426416521571904"><ele>843.6666666666666</ele><time>2026-04-30T08:49:40.998Z</time></trkpt><trkpt lat="44.52082819239847" lon="9.426316827172238"><ele>847.0</ele><time>2026-04-30T08:49:41.998Z</time></trkpt><trkpt lat="44.52066914578548" lon="9.426232582771952"><ele>847.0</ele><time>2026-04-30T08:49:42.998Z</time></trkpt><trkpt lat="44.520520217192264" lon="9.426166859349237"><ele>847.0</ele><time>2026-04-30T08:49:43.998Z</time></trkpt><trkpt lat="44.5203755339698" lon="9.426120309217897"><ele>847.0</ele><time>2026-04-30T08:49:44.998Z</time></trkpt><trkpt lat="44.520252925426064" lon="9.426067926756259"><ele>847.0</ele><time>2026-04-30T08:49:45.998Z</time></trkpt><trkpt lat="44.52011953006833" lon="9.426032121247431"><ele>849.4000000000001</ele><time>2026-04-30T08:49:46.998Z</time></trkpt><trkpt lat="44.51999420383332" lon="9.42598674002781"><ele>851.8000000000001</ele><time>2026-04-30T08:49:47.998Z</time></trkpt><trkpt lat="44.519870465344134" lon="9.42600678384756"><ele>854.2</ele><time>2026-04-30T08:49:48.998Z</time></trkpt><trkpt lat="44.519786671746516" lon="9.425932257458339"><ele>856.6</ele><time>2026-04-30T08:49:49.998Z</time></trkpt><trkpt lat="44.51971904575741" lon="9.425883812341276"><ele>859.0</ele><time>2026-04-30T08:49:50.998Z</time></trkpt><trkpt lat="44.51967820104387" lon="9.425815937169764"><ele>859.0</ele><time>2026-04-30T08:49:51.998Z</time></trkpt><trkpt lat="44.51964676567017" lon="9.425658681125302"><ele>859.0000000000001</ele><time>2026-04-30T08:49:53.998Z</time></trkpt><trkpt lat="44.51969382888376" lon="9.425544944474627"><ele>859.0000000000001</ele><time>2026-04-30T08:49:54.998Z</time></trkpt><trkpt lat="44.5197552472667" lon="9.42546910185855"><ele>859.0</ele><time>2026-04-30T08:49:55.998Z</time></trkpt><trkpt lat="44.51984457868435" lon="9.425421736278905"><ele>859.0</ele><time>2026-04-30T08:49:56.998Z</time></trkpt><trkpt lat="44.519953027493194" lon="9.425389872334833"><ele>861.25</ele><time>2026-04-30T08:49:57.998Z</time></trkpt><trkpt lat="44.52006376219748" lon="9.425394336975156"><ele>863.5</ele><time>2026-04-30T08:49:58.998Z</time></trkpt><trkpt lat="44.52018356447452" lon="9.425409962950406"><ele>865.75</ele><time>2026-04-30T08:49:59.998Z</time></trkpt><trkpt lat="44.52034542181884" lon="9.425419696568609"><ele>868.0</ele><time>2026-04-30T08:50:00.998Z</time></trkpt><trkpt lat="44.52050864737422" lon="9.425372852542765"><ele>868.0</ele><time>2026-04-30T08:50:01.998Z</time></trkpt><trkpt lat="44.52065918964178" lon="9.425330265078879"><ele>868.0</ele><time>2026-04-30T08:50:02.998Z</time></trkpt><trkpt lat="44.520807259473095" lon="9.425252124789417"><ele>868.0</ele><time>2026-04-30T08:50:03.998Z</time></trkpt><trkpt lat="44.52094575583577" lon="9.425141011662562"><ele>868.0</ele><time>2026-04-30T08:50:04.998Z</time></trkpt><trkpt lat="44.521113001096346" lon="9.425042926195056"><ele>868.0</ele><time>2026-04-30T08:50:05.998Z</time></trkpt><trkpt lat="44.52125821311014" lon="9.424910973103154"><ele>868.0</ele><time>2026-04-30T08:50:06.998Z</time></trkpt><trkpt lat="44.52138290232154" lon="9.42479439188425"><ele>868.0</ele><time>2026-04-30T08:50:07.998Z</time></trkpt><trkpt lat="44.52148233365308" lon="9.42464316239899"><ele>868.0</ele><time>2026-04-30T08:50:08.998Z</time></trkpt><trkpt lat="44.521571419254236" lon="9.424480932982917"><ele>868.0</ele><time>2026-04-30T08:50:09.998Z</time></trkpt><trkpt lat="44.52164766397313" lon="9.42429043356253"><ele>868.0</ele><time>2026-04-30T08:50:10.998Z</time></trkpt><trkpt lat="44.521699515919934" lon="9.424124297694812"><ele>868.0</ele><time>2026-04-30T08:50:11.998Z</time></trkpt><trkpt lat="44.52174193561342" lon="9.423941292552692"><ele>868.0</ele><time>2026-04-30T08:50:12.998Z</time></trkpt><trkpt lat="44.52174979987367" lon="9.4237357573905"><ele>868.0</ele><time>2026-04-30T08:50:13.998Z</time></trkpt><trkpt lat="44.5217191170533" lon="9.423487036561347"><ele>869.3333333333333</ele><time>2026-04-30T08:50:14.998Z</time></trkpt><trkpt lat="44.52168171139287" lon="9.423252408976866"><ele>870.6666666666667</ele><time>2026-04-30T08:50:15.998Z</time></trkpt><trkpt lat="44.52167498324461" lon="9.423014369846426"><ele>872.0</ele><time>2026-04-30T08:50:16.998Z</time></trkpt><trkpt lat="44.521639076884234" lon="9.422783752840706"><ele>872.5</ele><time>2026-04-30T08:50:18.001Z</time></trkpt><trkpt lat="44.52162128450189" lon="9.422557269715888"><ele>873.0</ele><time>2026-04-30T08:50:19.001Z</time></trkpt><trkpt lat="44.52160036630825" lon="9.422345862741556"><ele>873.5</ele><time>2026-04-30T08:50:20.001Z</time></trkpt><trkpt lat="44.52157312344587" lon="9.422181450206908"><ele>874.0</ele><time>2026-04-30T08:50:21.001Z</time></trkpt><trkpt lat="44.52155009181211" lon="9.422053232077015"><ele>873.2</ele><time>2026-04-30T08:50:22.001Z</time></trkpt><trkpt lat="44.521489932093345" lon="9.421982039056369"><ele>872.4000000000001</ele><time>2026-04-30T08:50:23.001Z</time></trkpt><trkpt lat="44.52142779902483" lon="9.421950791279107"><ele>871.6</ele><time>2026-04-30T08:50:24.001Z</time></trkpt><trkpt lat="44.521338700924176" lon="9.4219148134781"><ele>870.8</ele><time>2026-04-30T08:50:25.001Z</time></trkpt><trkpt lat="44.521224700776344" lon="9.421920261774595"><ele>870.0</ele><time>2026-04-30T08:50:26.001Z</time></trkpt><trkpt lat="44.52112794318429" lon="9.421884752717478"><ele>873.8</ele><time>2026-04-30T08:50:27.001Z</time></trkpt><trkpt lat="44.521030824938954" lon="9.421830779305239"><ele>877.6</ele><time>2026-04-30T08:50:28.001Z</time></trkpt><trkpt lat="44.52089781474061" lon="9.42175039763251"><ele>881.4000000000001</ele><time>2026-04-30T08:50:29.001Z</time></trkpt><trkpt lat="44.520882872515706" lon="9.421606291366391"><ele>885.2</ele><time>2026-04-30T08:50:30.001Z</time></trkpt><trkpt lat="44.52089114411802" lon="9.421491074388282"><ele>889.0</ele><time>2026-04-30T08:50:31.001Z</time></trkpt><trkpt lat="44.520931620473405" lon="9.421354848285553"><ele>891.3333333333333</ele><time>2026-04-30T08:50:32.001Z</time></trkpt><trkpt lat="44.5210264331966" lon="9.42117418496999"><ele>893.6666666666667</ele><time>2026-04-30T08:50:33Z</time></trkpt><trkpt lat="44.521134761132195" lon="9.420969367252782"><ele>896.0</ele><time>2026-04-30T08:50:34Z</time></trkpt><trkpt lat="44.52123452807632" lon="9.420784058447094"><ele>892.25</ele><time>2026-04-30T08:50:35Z</time></trkpt><trkpt lat="44.52132613402064" lon="9.4206072943991"><ele>888.5</ele><time>2026-04-30T08:50:36Z</time></trkpt><trkpt lat="44.521389412422906" lon="9.420476360835199"><ele>884.75</ele><time>2026-04-30T08:50:37Z</time></trkpt><trkpt lat="44.5214468578544" lon="9.420330567915276"><ele>881.0</ele><time>2026-04-30T08:50:38Z</time></trkpt><trkpt lat="44.52147248997705" lon="9.420189047732704"><ele>881.0</ele><time>2026-04-30T08:50:39Z</time></trkpt><trkpt lat="44.52148411679495" lon="9.420069414407665"><ele>880.9999999999999</ele><time>2026-04-30T08:50:40Z</time></trkpt><trkpt lat="44.521458524282636" lon="9.419934875383198"><ele>880.9999999999999</ele><time>2026-04-30T08:50:41Z</time></trkpt><trkpt lat="44.52144398496505" lon="9.419788051360843"><ele>881.0</ele><time>2026-04-30T08:50:42Z</time></trkpt><trkpt lat="44.521365668910214" lon="9.419685333576234"><ele>881.0</ele><time>2026-04-30T08:50:43Z</time></trkpt><trkpt lat="44.52125888613357" lon="9.419614907429386"><ele>885.75</ele><time>2026-04-30T08:50:44Z</time></trkpt><trkpt lat="44.52118987404807" lon="9.419505115864212"><ele>890.5</ele><time>2026-04-30T08:50:45Z</time></trkpt><trkpt lat="44.5211164791273" lon="9.419382777779317"><ele>895.25</ele><time>2026-04-30T08:50:46Z</time></trkpt><trkpt lat="44.52109630269207" lon="9.419202813355904"><ele>900.0</ele><time>2026-04-30T08:50:47Z</time></trkpt><trkpt lat="44.5210925380604" lon="9.41903744315026"><ele>900.0</ele><time>2026-04-30T08:50:48Z</time></trkpt><trkpt lat="44.52110894521882" lon="9.418860984192131"><ele>900.0</ele><time>2026-04-30T08:50:49Z</time></trkpt><trkpt lat="44.52113496098507" lon="9.418684506808487"><ele>900.0</ele><time>2026-04-30T08:50:50Z</time></trkpt><trkpt lat="44.521142989247224" lon="9.4185012391344"><ele>900.0</ele><time>2026-04-30T08:50:51Z</time></trkpt><trkpt lat="44.521121738291704" lon="9.418331906361786"><ele>900.0</ele><time>2026-04-30T08:50:52Z</time></trkpt><trkpt lat="44.52109091167467" lon="9.418218428421282"><ele>900.0</ele><time>2026-04-30T08:50:53Z</time></trkpt><trkpt lat="44.52103607696517" lon="9.41812183352643"><ele>900.0</ele><time>2026-04-30T08:50:54Z</time></trkpt><trkpt lat="44.520977800367056" lon="9.418024473563781"><ele>900.0</ele><time>2026-04-30T08:50:55Z</time></trkpt><trkpt lat="44.520898619818794" lon="9.417957938581305"><ele>900.0</ele><time>2026-04-30T08:50:56Z</time></trkpt><trkpt lat="44.52079879298999" lon="9.417880890802456"><ele>900.25</ele><time>2026-04-30T08:50:57Z</time></trkpt><trkpt lat="44.52068603873918" lon="9.41782497581293"><ele>900.5</ele><time>2026-04-30T08:50:58Z</time></trkpt><trkpt lat="44.52057320761969" lon="9.41774530074166"><ele>900.75</ele><time>2026-04-30T08:50:59Z</time></trkpt><trkpt lat="44.52045217442353" lon="9.4176732083048"><ele>901.0</ele><time>2026-04-30T08:51:00Z</time></trkpt><trkpt lat="44.5203361133132" lon="9.4175746352214"><ele>900.5</ele><time>2026-04-30T08:51:01Z</time></trkpt><trkpt lat="44.520199997122646" lon="9.417493600190069"><ele>900.0</ele><time>2026-04-30T08:51:02Z</time></trkpt><trkpt lat="44.52007369201185" lon="9.417424536270588"><ele>899.5</ele><time>2026-04-30T08:51:03Z</time></trkpt><trkpt lat="44.519955561831445" lon="9.41734139142943"><ele>899.0</ele><time>2026-04-30T08:51:04Z</time></trkpt><trkpt lat="44.519848326079945" lon="9.417240557139696"><ele>898.75</ele><time>2026-04-30T08:51:05Z</time></trkpt><trkpt lat="44.519751400514835" lon="9.417127256420802"><ele>898.5</ele><time>2026-04-30T08:51:06Z</time></trkpt><trkpt lat="44.519664325656606" lon="9.416984615671405"><ele>898.25</ele><time>2026-04-30T08:51:07Z</time></trkpt><trkpt lat="44.519591456596885" lon="9.416836104545451"><ele>898.0</ele><time>2026-04-30T08:51:08Z</time></trkpt><trkpt lat="44.519532456918775" lon="9.416686773877785"><ele>895.5</ele><time>2026-04-30T08:51:09Z</time></trkpt><trkpt lat="44.5194900766169" lon="9.416535349809317"><ele>893.0</ele><time>2026-04-30T08:51:10Z</time></trkpt><trkpt lat="44.519463591452954" lon="9.416377842061134"><ele>890.5</ele><time>2026-04-30T08:51:11Z</time></trkpt><trkpt lat="44.519460355598206" lon="9.416235406731554"><ele>888.0</ele><time>2026-04-30T08:51:12Z</time></trkpt><trkpt lat="44.51949963951388" lon="9.416079883233024"><ele>889.5</ele><time>2026-04-30T08:51:13Z</time></trkpt><trkpt lat="44.519583579147415" lon="9.415929120509032"><ele>891.0</ele><time>2026-04-30T08:51:14Z</time></trkpt><trkpt lat="44.519675192402644" lon="9.415779091714175"><ele>892.5</ele><time>2026-04-30T08:51:15Z</time></trkpt><trkpt lat="44.51976663979451" lon="9.415628858821973"><ele>894.0</ele><time>2026-04-30T08:51:16Z</time></trkpt><trkpt lat="44.519858271999325" lon="9.41549393950643"><ele>891.0</ele><time>2026-04-30T08:51:17Z</time></trkpt><trkpt lat="44.51992896173358" lon="9.415367775393346"><ele>888.0</ele><time>2026-04-30T08:51:18Z</time></trkpt><trkpt lat="44.519989947805904" lon="9.415224128800437"><ele>885.0</ele><time>2026-04-30T08:51:19Z</time></trkpt><trkpt lat="44.52005091229723" lon="9.415088974735125"><ele>882.0</ele><time>2026-04-30T08:51:20Z</time></trkpt><trkpt lat="44.52010070280346" lon="9.4149410281587"><ele>882.0</ele><time>2026-04-30T08:51:21Z</time></trkpt><trkpt lat="44.52011136901459" lon="9.41480485185481"><ele>882.0</ele><time>2026-04-30T08:51:22Z</time></trkpt><trkpt lat="44.52007055139619" lon="9.41470722315052"><ele>882.0</ele><time>2026-04-30T08:51:22.999Z</time></trkpt><trkpt lat="44.520013635726336" lon="9.41457087663997"><ele>882.0</ele><time>2026-04-30T08:51:23.999Z</time></trkpt><trkpt lat="44.51990317768463" lon="9.41448856792668"><ele>882.0</ele><time>2026-04-30T08:51:24.999Z</time></trkpt><trkpt lat="44.51976170085413" lon="9.414478936348202"><ele>879.5</ele><time>2026-04-30T08:51:25.999Z</time></trkpt><trkpt lat="44.519656955312556" lon="9.414522578921668"><ele>877.0</ele><time>2026-04-30T08:51:26.999Z</time></trkpt><trkpt lat="44.519562485590015" lon="9.414585682555895"><ele>874.5</ele><time>2026-04-30T08:51:27.999Z</time></trkpt><trkpt lat="44.5194751644098" lon="9.414694971570892"><ele>872.0</ele><time>2026-04-30T08:51:28.999Z</time></trkpt><trkpt lat="44.51938665127399" lon="9.414819154516476"><ele>872.0</ele><time>2026-04-30T08:51:29.999Z</time></trkpt><trkpt lat="44.51931571973267" lon="9.414961898377744"><ele>872.0</ele><time>2026-04-30T08:51:30.999Z</time></trkpt><trkpt lat="44.519245774295" lon="9.415103354941598"><ele>872.0</ele><time>2026-04-30T08:51:31.999Z</time></trkpt><trkpt lat="44.51917433590284" lon="9.41522954330691"><ele>872.0</ele><time>2026-04-30T08:51:32.999Z</time></trkpt><trkpt lat="44.51910570194174" lon="9.415382447055228"><ele>872.0</ele><time>2026-04-30T08:51:33.999Z</time></trkpt><trkpt lat="44.51902395578751" lon="9.415486971060055"><ele>872.0</ele><time>2026-04-30T08:51:34.999Z</time></trkpt><trkpt lat="44.51892021473353" lon="9.415556461985979"><ele>872.0</ele><time>2026-04-30T08:51:35.999Z</time></trkpt><trkpt lat="44.51877801999845" lon="9.415598125813924"><ele>872.0</ele><time>2026-04-30T08:51:36.999Z</time></trkpt><trkpt lat="44.51862949319163" lon="9.41563449674372"><ele>870.75</ele><time>2026-04-30T08:51:37.999Z</time></trkpt><trkpt lat="44.51848095344117" lon="9.415669152249484"><ele>869.5</ele><time>2026-04-30T08:51:38.999Z</time></trkpt><trkpt lat="44.51833953168646" lon="9.415690064538406"><ele>868.25</ele><time>2026-04-30T08:51:39.999Z</time></trkpt><trkpt lat="44.518216527999286" lon="9.41568848782455"><ele>867.0</ele><time>2026-04-30T08:51:40.999Z</time></trkpt><trkpt lat="44.51807193243297" lon="9.415666244360583"><ele>867.0</ele><time>2026-04-30T08:51:41.999Z</time></trkpt><trkpt lat="44.51791798301974" lon="9.415641684626138"><ele>867.0</ele><time>2026-04-30T08:51:42.999Z</time></trkpt><trkpt lat="44.51777393790056" lon="9.415619527013146"><ele>867.0</ele><time>2026-04-30T08:51:43.999Z</time></trkpt><trkpt lat="44.517650631046735" lon="9.415583461750812"><ele>867.0</ele><time>2026-04-30T08:51:44.999Z</time></trkpt><trkpt lat="44.51756271125315" lon="9.415513279644184"><ele>866.2</ele><time>2026-04-30T08:51:45.999Z</time></trkpt><trkpt lat="44.51750721904879" lon="9.415429139309078"><ele>865.4000000000001</ele><time>2026-04-30T08:51:46.999Z</time></trkpt><trkpt lat="44.51747522782999" lon="9.415327370718673"><ele>864.5999999999999</ele><time>2026-04-30T08:51:47.999Z</time></trkpt><trkpt lat="44.517451401832915" lon="9.415171104333554"><ele>863.8</ele><time>2026-04-30T08:51:48.999Z</time></trkpt><trkpt lat="44.51744661542495" lon="9.414985778637112"><ele>863.0</ele><time>2026-04-30T08:51:49.999Z</time></trkpt><trkpt lat="44.51742713551272" lon="9.414751660743823"><ele>861.5</ele><time>2026-04-30T08:51:50.999Z</time></trkpt><trkpt lat="44.517372268088025" lon="9.41455636982574"><ele>860.0</ele><time>2026-04-30T08:51:51.999Z</time></trkpt><trkpt lat="44.51732792647545" lon="9.41436188369785"><ele>858.5</ele><time>2026-04-30T08:51:52.999Z</time></trkpt><trkpt lat="44.5172563571227" lon="9.414178198250442"><ele>857.0</ele><time>2026-04-30T08:51:53.999Z</time></trkpt><trkpt lat="44.51717253833804" lon="9.414009204847474"><ele>857.0</ele><time>2026-04-30T08:51:54.999Z</time></trkpt><trkpt lat="44.51709117509945" lon="9.4138503435781"><ele>857.0</ele><time>2026-04-30T08:51:55.999Z</time></trkpt><trkpt lat="44.51702402827624" lon="9.41369055386467"><ele>857.0</ele><time>2026-04-30T08:51:56.999Z</time></trkpt><trkpt lat="44.516955594935965" lon="9.413530131997726"><ele>857.0</ele><time>2026-04-30T08:51:57.999Z</time></trkpt><trkpt lat="44.51690916916739" lon="9.413364903319708"><ele>859.5</ele><time>2026-04-30T08:51:58.999Z</time></trkpt><trkpt lat="44.51690059855546" lon="9.413204121195587"><ele>862.0</ele><time>2026-04-30T08:51:59.999Z</time></trkpt><trkpt lat="44.51689425281125" lon="9.413055791341888"><ele>864.5</ele><time>2026-04-30T08:52:00.999Z</time></trkpt><trkpt lat="44.51695101642607" lon="9.412957622227038"><ele>867.0</ele><time>2026-04-30T08:52:01.999Z</time></trkpt><trkpt lat="44.51700044274883" lon="9.412769838494471"><ele>867.6666666666667</ele><time>2026-04-30T08:52:02.999Z</time></trkpt><trkpt lat="44.517047802886964" lon="9.412534245844846"><ele>868.3333333333334</ele><time>2026-04-30T08:52:03.999Z</time></trkpt><trkpt lat="44.51707617614636" lon="9.41230438834004"><ele>869.0</ele><time>2026-04-30T08:52:04.999Z</time></trkpt><trkpt lat="44.51708382508729" lon="9.412084987525896"><ele>868.0</ele><time>2026-04-30T08:52:05.999Z</time></trkpt><trkpt lat="44.51707707005818" lon="9.41188189431527"><ele>867.0</ele><time>2026-04-30T08:52:06.999Z</time></trkpt><trkpt lat="44.51705494274738" lon="9.411663851159878"><ele>866.0</ele><time>2026-04-30T08:52:07.999Z</time></trkpt><trkpt lat="44.5170437301297" lon="9.411451585910822"><ele>864.5</ele><time>2026-04-30T08:52:08.999Z</time></trkpt><trkpt lat="44.51701203278985" lon="9.411272023844473"><ele>863.0</ele><time>2026-04-30T08:52:09.999Z</time></trkpt><trkpt lat="44.51699751007194" lon="9.411108616561668"><ele>861.5</ele><time>2026-04-30T08:52:10.999Z</time></trkpt><trkpt lat="44.51695616957089" lon="9.410945297739545"><ele>860.0</ele><time>2026-04-30T08:52:11.999Z</time></trkpt><trkpt lat="44.51689999508973" lon="9.410787148787445"><ele>860.0</ele><time>2026-04-30T08:52:12.999Z</time></trkpt><trkpt lat="44.516828378937696" lon="9.410617052183655"><ele>860.0</ele><time>2026-04-30T08:52:13.999Z</time></trkpt><trkpt lat="44.51679209861194" lon="9.4104516380342"><ele>860.0</ele><time>2026-04-30T08:52:14.999Z</time></trkpt><trkpt lat="44.51676548213565" lon="9.410283559640424"><ele>860.0</ele><time>2026-04-30T08:52:15.999Z</time></trkpt><trkpt lat="44.516788236168466" lon="9.41013228608559"><ele>859.25</ele><time>2026-04-30T08:52:16.999Z</time></trkpt><trkpt lat="44.51684373137651" lon="9.409963927321867"><ele>858.5</ele><time>2026-04-30T08:52:17.999Z</time></trkpt><trkpt lat="44.51689241193281" lon="9.409772332547842"><ele>857.75</ele><time>2026-04-30T08:52:18.999Z</time></trkpt><trkpt lat="44.516915197846835" lon="9.409570646930627"><ele>857.0</ele><time>2026-04-30T08:52:19.999Z</time></trkpt><trkpt lat="44.516948220462865" lon="9.409365895827234"><ele>857.0</ele><time>2026-04-30T08:52:20.999Z</time></trkpt><trkpt lat="44.51693226868408" lon="9.40918087168654"><ele>857.0</ele><time>2026-04-30T08:52:21.999Z</time></trkpt><trkpt lat="44.51692391157176" lon="9.408973318859262"><ele>857.0</ele><time>2026-04-30T08:52:22.999Z</time></trkpt><trkpt lat="44.51690043171551" lon="9.40879219970091"><ele>857.0</ele><time>2026-04-30T08:52:23.999Z</time></trkpt><trkpt lat="44.516856094034" lon="9.40863000040573"><ele>855.4000000000001</ele><time>2026-04-30T08:52:24.999Z</time></trkpt><trkpt lat="44.516812190971955" lon="9.408466605923472"><ele>853.8000000000001</ele><time>2026-04-30T08:52:25.999Z</time></trkpt><trkpt lat="44.516761141006675" lon="9.408340951544517"><ele>852.2</ele><time>2026-04-30T08:52:26.999Z</time></trkpt><trkpt lat="44.516663967260364" lon="9.408278535454441"><ele>850.6</ele><time>2026-04-30T08:52:27.999Z</time></trkpt><trkpt lat="44.51655689542489" lon="9.4082222211995"><ele>849.0</ele><time>2026-04-30T08:52:28.999Z</time></trkpt><trkpt lat="44.51643336803754" lon="9.408207785184429"><ele>849.0</ele><time>2026-04-30T08:52:29.999Z</time></trkpt><trkpt lat="44.51629611489314" lon="9.408258415298645"><ele>849.0</ele><time>2026-04-30T08:52:30.999Z</time></trkpt><trkpt lat="44.51615398592499" lon="9.408321347886176"><ele>849.0</ele><time>2026-04-30T08:52:31.999Z</time></trkpt><trkpt lat="44.516027407084415" lon="9.40839156820518"><ele>849.0</ele><time>2026-04-30T08:52:32.999Z</time></trkpt><trkpt lat="44.51592219428093" lon="9.408504431632586"><ele>847.25</ele><time>2026-04-30T08:52:33.999Z</time></trkpt><trkpt lat="44.51581736025721" lon="9.408609184675761"><ele>845.5</ele><time>2026-04-30T08:52:34.999Z</time></trkpt><trkpt lat="44.515713725515766" lon="9.408689971636747"><ele>843.75</ele><time>2026-04-30T08:52:35.999Z</time></trkpt><trkpt lat="44.51561041225103" lon="9.408766167556974"><ele>842.0</ele><time>2026-04-30T08:52:36.999Z</time></trkpt><trkpt lat="44.51550568159396" lon="9.4088169253045"><ele>841.8</ele><time>2026-04-30T08:52:37.999Z</time></trkpt><trkpt lat="44.51540933440787" lon="9.408836097649699"><ele>841.6</ele><time>2026-04-30T08:52:38.999Z</time></trkpt><trkpt lat="44.51534048300753" lon="9.408828731686846"><ele>841.4</ele><time>2026-04-30T08:52:39.999Z</time></trkpt><trkpt lat="44.51526772187974" lon="9.408797958155793"><ele>841.1999999999999</ele><time>2026-04-30T08:52:40.999Z</time></trkpt><trkpt lat="44.51516744812704" lon="9.408731084856983"><ele>841.0</ele><time>2026-04-30T08:52:41.999Z</time></trkpt><trkpt lat="44.515056902982266" lon="9.408621574409521"><ele>841.0</ele><time>2026-04-30T08:52:42.999Z</time></trkpt><trkpt lat="44.514933877215654" lon="9.408546808201141"><ele>841.0</ele><time>2026-04-30T08:52:43.999Z</time></trkpt><trkpt lat="44.514823055518995" lon="9.408468654982963"><ele>841.0</ele><time>2026-04-30T08:52:44.999Z</time></trkpt><trkpt lat="44.5147325624022" lon="9.408379671519395"><ele>841.0</ele><time>2026-04-30T08:52:45.999Z</time></trkpt><trkpt lat="44.514621426542696" lon="9.408279643390475"><ele>840.1999999999999</ele><time>2026-04-30T08:52:46.999Z</time></trkpt><trkpt lat="44.51456762840405" lon="9.408158669748596"><ele>839.4</ele><time>2026-04-30T08:52:47.999Z</time></trkpt><trkpt lat="44.514550243196695" lon="9.407992755570538"><ele>838.6</ele><time>2026-04-30T08:52:48.999Z</time></trkpt><trkpt lat="44.51457050779925" lon="9.407844399648978"><ele>837.8</ele><time>2026-04-30T08:52:49.999Z</time></trkpt><trkpt lat="44.51461578533907" lon="9.40769137436835"><ele>837.0</ele><time>2026-04-30T08:52:50.999Z</time></trkpt><trkpt lat="44.514699532249644" lon="9.40756617575057"><ele>837.0</ele><time>2026-04-30T08:52:51.999Z</time></trkpt><trkpt lat="44.514809632977446" lon="9.407462367747062"><ele>837.0</ele><time>2026-04-30T08:52:52.999Z</time></trkpt><trkpt lat="44.514958262841766" lon="9.407327690891266"><ele>837.0</ele><time>2026-04-30T08:52:53.999Z</time></trkpt><trkpt lat="44.51509437574427" lon="9.407193843088777"><ele>833.6666666666667</ele><time>2026-04-30T08:52:54.999Z</time></trkpt><trkpt lat="44.515224300089265" lon="9.407040479258793"><ele>830.3333333333334</ele><time>2026-04-30T08:52:55.999Z</time></trkpt><trkpt lat="44.51534336799632" lon="9.406883415630105"><ele>827.0</ele><time>2026-04-30T08:52:56.999Z</time></trkpt><trkpt lat="44.51546481336549" lon="9.406720322758375"><ele>827.0</ele><time>2026-04-30T08:52:57.999Z</time></trkpt><trkpt lat="44.51559045848645" lon="9.406547455464445"><ele>827.0</ele><time>2026-04-30T08:52:58.999Z</time></trkpt><trkpt lat="44.515707265740815" lon="9.406386747682278"><ele>827.0</ele><time>2026-04-30T08:52:59.999Z</time></trkpt><trkpt lat="44.5158223800599" lon="9.406228369040672"><ele>830.6666666666667</ele><time>2026-04-30T08:53:00.999Z</time></trkpt><trkpt lat="44.515935877064855" lon="9.406072438089199"><ele>834.3333333333333</ele><time>2026-04-30T08:53:01.999Z</time></trkpt><trkpt lat="44.51604388825468" lon="9.40592715643335"><ele>838.0</ele><time>2026-04-30T08:53:02.999Z</time></trkpt><trkpt lat="44.51615775664371" lon="9.405784807610477"><ele>835.25</ele><time>2026-04-30T08:53:03.999Z</time></trkpt><trkpt lat="44.51628527076297" lon="9.405672872909307"><ele>832.5</ele><time>2026-04-30T08:53:04.999Z</time></trkpt><trkpt lat="44.516411020877285" lon="9.405608652316046"><ele>829.75</ele><time>2026-04-30T08:53:05.999Z</time></trkpt><trkpt lat="44.51652948491809" lon="9.405548073118554"><ele>827.0</ele><time>2026-04-30T08:53:06.999Z</time></trkpt><trkpt lat="44.51664765344652" lon="9.405483746686064"><ele>827.0</ele><time>2026-04-30T08:53:07.999Z</time></trkpt><trkpt lat="44.51675508074248" lon="9.405404454217434"><ele>827.0</ele><time>2026-04-30T08:53:08.999Z</time></trkpt><trkpt lat="44.51685391789672" lon="9.405278280216798"><ele>827.0</ele><time>2026-04-30T08:53:09.999Z</time></trkpt><trkpt lat="44.51691188280272" lon="9.405150737974719"><ele>827.0</ele><time>2026-04-30T08:53:10.999Z</time></trkpt><trkpt lat="44.51695032483823" lon="9.404990934825786"><ele>827.0</ele><time>2026-04-30T08:53:11.999Z</time></trkpt><trkpt lat="44.51697324566352" lon="9.404832239595226"><ele>827.0</ele><time>2026-04-30T08:53:12.999Z</time></trkpt><trkpt lat="44.51696132105188" lon="9.404669100599497"><ele>827.0</ele><time>2026-04-30T08:53:13.999Z</time></trkpt><trkpt lat="44.51693093216647" lon="9.404519598361041"><ele>827.0</ele><time>2026-04-30T08:53:14.999Z</time></trkpt><trkpt lat="44.516862551507316" lon="9.40435687560067"><ele>826.75</ele><time>2026-04-30T08:53:15.999Z</time></trkpt><trkpt lat="44.51678965574132" lon="9.404211167815104"><ele>826.5</ele><time>2026-04-30T08:53:16.999Z</time></trkpt><trkpt lat="44.51671636555473" lon="9.404064407014726"><ele>826.25</ele><time>2026-04-30T08:53:17.999Z</time></trkpt><trkpt lat="44.51664934678609" lon="9.403895264233523"><ele>826.0</ele><time>2026-04-30T08:53:18.999Z</time></trkpt><trkpt lat="44.51655499435826" lon="9.403755916232392"><ele>824.25</ele><time>2026-04-30T08:53:19.999Z</time></trkpt><trkpt lat="44.5165001194875" lon="9.403566405049146"><ele>822.5</ele><time>2026-04-30T08:53:20.999Z</time></trkpt><trkpt lat="44.51642357768483" lon="9.403390600610363"><ele>820.75</ele><time>2026-04-30T08:53:21.999Z</time></trkpt><trkpt lat="44.516431367052526" lon="9.403189184977908"><ele>819.0</ele><time>2026-04-30T08:53:22.999Z</time></trkpt><trkpt lat="44.51641600837586" lon="9.402983907681051"><ele>817.6666666666667</ele><time>2026-04-30T08:53:23.999Z</time></trkpt><trkpt lat="44.51640901397639" lon="9.402791442587205"><ele>816.3333333333334</ele><time>2026-04-30T08:53:24.999Z</time></trkpt><trkpt lat="44.5163938104501" lon="9.40254442343871"><ele>815.0</ele><time>2026-04-30T08:53:25.999Z</time></trkpt><trkpt lat="44.516357221665054" lon="9.402310958939223"><ele>814.0</ele><time>2026-04-30T08:53:26.999Z</time></trkpt><trkpt lat="44.516315860676855" lon="9.402116439817654"><ele>813.0</ele><time>2026-04-30T08:53:27.999Z</time></trkpt><trkpt lat="44.516277980174024" lon="9.401945918885145"><ele>812.0</ele><time>2026-04-30T08:53:28.999Z</time></trkpt><trkpt lat="44.51624681189593" lon="9.401793389497403"><ele>811.0</ele><time>2026-04-30T08:53:29.999Z</time></trkpt><trkpt lat="44.51620096780565" lon="9.401650842236993"><ele>812.0</ele><time>2026-04-30T08:53:30.999Z</time></trkpt><trkpt lat="44.516149351187" lon="9.401527259793182"><ele>813.0</ele><time>2026-04-30T08:53:31.998Z</time></trkpt><trkpt lat="44.51605281426926" lon="9.40145443764156"><ele>814.0</ele><time>2026-04-30T08:53:32.998Z</time></trkpt><trkpt lat="44.515930184922176" lon="9.4013508716513"><ele>815.0</ele><time>2026-04-30T08:53:33.998Z</time></trkpt><trkpt lat="44.515765678379545" lon="9.401318923301995"><ele>815.0</ele><time>2026-04-30T08:53:34.998Z</time></trkpt><trkpt lat="44.51562275216327" lon="9.40124508623102"><ele>815.0</ele><time>2026-04-30T08:53:35.998Z</time></trkpt><trkpt lat="44.51549627024224" lon="9.40113264254522"><ele>815.0</ele><time>2026-04-30T08:53:36.998Z</time></trkpt><trkpt lat="44.515372743530506" lon="9.40103828554017"><ele>815.0</ele><time>2026-04-30T08:53:37.998Z</time></trkpt><trkpt lat="44.51526845421721" lon="9.400906997818504"><ele>816.5</ele><time>2026-04-30T08:53:38.998Z</time></trkpt><trkpt lat="44.515193019527466" lon="9.400748877268045"><ele>818.0</ele><time>2026-04-30T08:53:39.998Z</time></trkpt><trkpt lat="44.51511200287383" lon="9.400567572454808"><ele>819.5</ele><time>2026-04-30T08:53:40.998Z</time></trkpt><trkpt lat="44.515019403707846" lon="9.400451922545397"><ele>821.0</ele><time>2026-04-30T08:53:41.998Z</time></trkpt><trkpt lat="44.514906925477526" lon="9.400403545408334"><ele>819.0</ele><time>2026-04-30T08:53:42.998Z</time></trkpt><trkpt lat="44.51478870213516" lon="9.400362595357999"><ele>817.0</ele><time>2026-04-30T08:53:43.998Z</time></trkpt><trkpt lat="44.51467573471501" lon="9.400364846224827"><ele>815.0</ele><time>2026-04-30T08:53:44.998Z</time></trkpt><trkpt lat="44.51456398907426" lon="9.400343934272753"><ele>813.0</ele><time>2026-04-30T08:53:45.998Z</time></trkpt><trkpt lat="44.51444537790587" lon="9.40030075875843"><ele>813.0</ele><time>2026-04-30T08:53:46.998Z</time></trkpt><trkpt lat="44.5143411385181" lon="9.400249368262774"><ele>813.0</ele><time>2026-04-30T08:53:47.998Z</time></trkpt><trkpt lat="44.51421823469369" lon="9.400186096068975"><ele>813.0</ele><time>2026-04-30T08:53:48.998Z</time></trkpt><trkpt lat="44.514112223136905" lon="9.400120920074523"><ele>813.0</ele><time>2026-04-30T08:53:49.998Z</time></trkpt><trkpt lat="44.514039541900566" lon="9.400054387997882"><ele>813.0</ele><time>2026-04-30T08:53:50.998Z</time></trkpt><trkpt lat="44.51398489922451" lon="9.399963375616496"><ele>813.0</ele><time>2026-04-30T08:53:51.998Z</time></trkpt><trkpt lat="44.513922800988695" lon="9.39982724870092"><ele>813.0</ele><time>2026-04-30T08:53:52.998Z</time></trkpt><trkpt lat="44.51392194690612" lon="9.399643727427092"><ele>813.0</ele><time>2026-04-30T08:53:53.998Z</time></trkpt><trkpt lat="44.51386452105143" lon="9.399457488000797"><ele>813.0</ele><time>2026-04-30T08:53:54.998Z</time></trkpt><trkpt lat="44.51383392759381" lon="9.399304472254531"><ele>809.4</ele><time>2026-04-30T08:53:55.998Z</time></trkpt><trkpt lat="44.51381092797393" lon="9.399160309064316"><ele>805.8</ele><time>2026-04-30T08:53:56.998Z</time></trkpt><trkpt lat="44.513808307310036" lon="9.399032205752121"><ele>802.2</ele><time>2026-04-30T08:53:57.998Z</time></trkpt><trkpt lat="44.51384044422805" lon="9.398890226160255"><ele>798.6</ele><time>2026-04-30T08:53:58.998Z</time></trkpt><trkpt lat="44.513914177043894" lon="9.39878387124441"><ele>795.0</ele><time>2026-04-30T08:53:59.998Z</time></trkpt><trkpt lat="44.51402666822643" lon="9.398652391504584"><ele>793.6666666666667</ele><time>2026-04-30T08:54:00.998Z</time></trkpt><trkpt lat="44.51414584837916" lon="9.398494772502367"><ele>792.3333333333334</ele><time>2026-04-30T08:54:01.998Z</time></trkpt><trkpt lat="44.51427640404994" lon="9.39838275913721"><ele>791.0</ele><time>2026-04-30T08:54:02.998Z</time></trkpt><trkpt lat="44.51440265958527" lon="9.39823752437659"><ele>791.0</ele><time>2026-04-30T08:54:03.998Z</time></trkpt><trkpt lat="44.514533125229356" lon="9.398080735362987"><ele>791.0</ele><time>2026-04-30T08:54:04.998Z</time></trkpt><trkpt lat="44.514670974164964" lon="9.397933673991375"><ele>791.0</ele><time>2026-04-30T08:54:05.998Z</time></trkpt><trkpt lat="44.51479616127406" lon="9.39781813886253"><ele>796.6666666666667</ele><time>2026-04-30T08:54:06.998Z</time></trkpt><trkpt lat="44.51494169546196" lon="9.397709270762224"><ele>802.3333333333333</ele><time>2026-04-30T08:54:07.998Z</time></trkpt><trkpt lat="44.51508896296152" lon="9.397649592793465"><ele>808.0</ele><time>2026-04-30T08:54:08.998Z</time></trkpt><trkpt lat="44.515241974551316" lon="9.397607093303284"><ele>806.6666666666666</ele><time>2026-04-30T08:54:09.998Z</time></trkpt><trkpt lat="44.51542373003536" lon="9.397565526476214"><ele>805.3333333333333</ele><time>2026-04-30T08:54:10.998Z</time></trkpt><trkpt lat="44.51561250450954" lon="9.397520603349843"><ele>804.0</ele><time>2026-04-30T08:54:11.998Z</time></trkpt><trkpt lat="44.51580323392868" lon="9.397466072675234"><ele>804.0</ele><time>2026-04-30T08:54:12.998Z</time></trkpt><trkpt lat="44.515971986192945" lon="9.397415848834283"><ele>804.0</ele><time>2026-04-30T08:54:13.998Z</time></trkpt><trkpt lat="44.5161468310103" lon="9.39736381172636"><ele>804.0</ele><time>2026-04-30T08:54:14.998Z</time></trkpt><trkpt lat="44.51631781090908" lon="9.397313148532746"><ele>801.0</ele><time>2026-04-30T08:54:15.998Z</time></trkpt><trkpt lat="44.516479122853276" lon="9.39726629101661"><ele>798.0</ele><time>2026-04-30T08:54:16.998Z</time></trkpt><trkpt lat="44.51665912899846" lon="9.397214003311428"><ele>795.0</ele><time>2026-04-30T08:54:17.998Z</time></trkpt><trkpt lat="44.51683480756462" lon="9.397162972701283"><ele>799.6666666666667</ele><time>2026-04-30T08:54:18.998Z</time></trkpt><trkpt lat="44.51701440415974" lon="9.397110803968545"><ele>804.3333333333334</ele><time>2026-04-30T08:54:19.998Z</time></trkpt><trkpt lat="44.51717747619237" lon="9.397064516810913"><ele>809.0</ele><time>2026-04-30T08:54:20.998Z</time></trkpt><trkpt lat="44.517338959123656" lon="9.397020075928127"><ele>809.0</ele><time>2026-04-30T08:54:21.998Z</time></trkpt><trkpt lat="44.517504478614626" lon="9.396975007731974"><ele>809.0</ele><time>2026-04-30T08:54:22.998Z</time></trkpt><trkpt lat="44.517663382924205" lon="9.396927195554722"><ele>809.0</ele><time>2026-04-30T08:54:23.998Z</time></trkpt><trkpt lat="44.51783367280639" lon="9.396873028988043"><ele>805.6666666666667</ele><time>2026-04-30T08:54:24.998Z</time></trkpt><trkpt lat="44.5180229283043" lon="9.396812829776824"><ele>802.3333333333333</ele><time>2026-04-30T08:54:25.998Z</time></trkpt><trkpt lat="44.51817531712549" lon="9.396764564575982"><ele>799.0</ele><time>2026-04-30T08:54:26.998Z</time></trkpt><trkpt lat="44.518315394942015" lon="9.39672238089505"><ele>799.0</ele><time>2026-04-30T08:54:27.998Z</time></trkpt><trkpt lat="44.51847227365696" lon="9.396678583937945"><ele>799.0</ele><time>2026-04-30T08:54:28.998Z</time></trkpt><trkpt lat="44.51861047288329" lon="9.396640068202313"><ele>799.0</ele><time>2026-04-30T08:54:29.998Z</time></trkpt><trkpt lat="44.51875120843065" lon="9.396582905875814"><ele>799.0</ele><time>2026-04-30T08:54:30.998Z</time></trkpt><trkpt lat="44.518853572190295" lon="9.396494076989184"><ele>799.25</ele><time>2026-04-30T08:54:31.998Z</time></trkpt><trkpt lat="44.51893996435102" lon="9.396397921195998"><ele>799.5</ele><time>2026-04-30T08:54:32.998Z</time></trkpt><trkpt lat="44.51904030631941" lon="9.396254437207036"><ele>799.75</ele><time>2026-04-30T08:54:33.998Z</time></trkpt><trkpt lat="44.51912806151279" lon="9.396179132927589"><ele>800.0</ele><time>2026-04-30T08:54:34.998Z</time></trkpt><trkpt lat="44.51924302268775" lon="9.396138212396393"><ele>800.0</ele><time>2026-04-30T08:54:35.998Z</time></trkpt><trkpt lat="44.51936651684813" lon="9.396143495098944"><ele>800.0</ele><time>2026-04-30T08:54:36.998Z</time></trkpt><trkpt lat="44.51950592857923" lon="9.396145496379509"><ele>800.0</ele><time>2026-04-30T08:54:37.998Z</time></trkpt><trkpt lat="44.51967923880527" lon="9.396121831386585"><ele>800.0</ele><time>2026-04-30T08:54:38.998Z</time></trkpt><trkpt lat="44.51983610042939" lon="9.396089640324183"><ele>795.0</ele><time>2026-04-30T08:54:39.998Z</time></trkpt><trkpt lat="44.5200155152362" lon="9.396018538973967"><ele>790.0</ele><time>2026-04-30T08:54:40.998Z</time></trkpt><trkpt lat="44.52017361132916" lon="9.395920859010534"><ele>785.0</ele><time>2026-04-30T08:54:41.998Z</time></trkpt><trkpt lat="44.520312893957666" lon="9.395746640900118"><ele>784.6666666666667</ele><time>2026-04-30T08:54:42.998Z</time></trkpt><trkpt lat="44.52043616734138" lon="9.395593463034697"><ele>784.3333333333333</ele><time>2026-04-30T08:54:43.998Z</time></trkpt><trkpt lat="44.52056361997189" lon="9.395441416305866"><ele>784.0</ele><time>2026-04-30T08:54:44.998Z</time></trkpt><trkpt lat="44.520687941938284" lon="9.395326322132028"><ele>784.0</ele><time>2026-04-30T08:54:45.998Z</time></trkpt><trkpt lat="44.52079868957509" lon="9.395235055793144"><ele>784.0</ele><time>2026-04-30T08:54:46.998Z</time></trkpt><trkpt lat="44.520902072772984" lon="9.395146389838851"><ele>784.0</ele><time>2026-04-30T08:54:47.998Z</time></trkpt><trkpt lat="44.5210233290321" lon="9.395120480542083"><ele>784.0</ele><time>2026-04-30T08:54:48.998Z</time></trkpt><trkpt lat="44.52111842092534" lon="9.395133455706928"><ele>784.0</ele><time>2026-04-30T08:54:49.998Z</time></trkpt><trkpt lat="44.52123068594911" lon="9.395182633151565"><ele>784.0</ele><time>2026-04-30T08:54:50.998Z</time></trkpt><trkpt lat="44.521321430562395" lon="9.395237565745527"><ele>784.0</ele><time>2026-04-30T08:54:51.998Z</time></trkpt><trkpt lat="44.521422945146085" lon="9.395367394945932"><ele>784.0</ele><time>2026-04-30T08:54:52.998Z</time></trkpt><trkpt lat="44.521490126215504" lon="9.395544756011715"><ele>780.0</ele><time>2026-04-30T08:54:53.998Z</time></trkpt><trkpt lat="44.52154237947057" lon="9.395753903919566"><ele>776.0</ele><time>2026-04-30T08:54:54.998Z</time></trkpt><trkpt lat="44.52161991409536" lon="9.395984150219897"><ele>772.0</ele><time>2026-04-30T08:54:55.998Z</time></trkpt><trkpt lat="44.52166421833506" lon="9.396186119779836"><ele>769.5</ele><time>2026-04-30T08:54:56.998Z</time></trkpt><trkpt lat="44.52171766747632" lon="9.396381180541642"><ele>767.0</ele><time>2026-04-30T08:54:57.998Z</time></trkpt><trkpt lat="44.52176241826265" lon="9.39656397076489"><ele>764.5</ele><time>2026-04-30T08:54:58.998Z</time></trkpt><trkpt lat="44.52181690259748" lon="9.396756613234848"><ele>762.0</ele><time>2026-04-30T08:54:59.998Z</time></trkpt><trkpt lat="44.521875702111096" lon="9.396909399631214"><ele>762.0</ele><time>2026-04-30T08:55:00.998Z</time></trkpt><trkpt lat="44.52197673499743" lon="9.396990802684618"><ele>762.0</ele><time>2026-04-30T08:55:01.998Z</time></trkpt><trkpt lat="44.52210263087998" lon="9.3970434216104"><ele>762.0</ele><time>2026-04-30T08:55:02.998Z</time></trkpt><trkpt lat="44.52225381557491" lon="9.397042972020163"><ele>762.0</ele><time>2026-04-30T08:55:03.998Z</time></trkpt><trkpt lat="44.52238578149833" lon="9.396956293018864"><ele>762.3333333333334</ele><time>2026-04-30T08:55:04.998Z</time></trkpt><trkpt lat="44.52253267383353" lon="9.396843872903277"><ele>762.6666666666667</ele><time>2026-04-30T08:55:05.998Z</time></trkpt><trkpt lat="44.5226482565833" lon="9.396676390963371"><ele>763.0</ele><time>2026-04-30T08:55:06.998Z</time></trkpt><trkpt lat="44.52270474873945" lon="9.396462782160167"><ele>763.75</ele><time>2026-04-30T08:55:07.998Z</time></trkpt><trkpt lat="44.52277968029571" lon="9.39629430644215"><ele>764.5</ele><time>2026-04-30T08:55:08.998Z</time></trkpt><trkpt lat="44.52278545905209" lon="9.39610483827262"><ele>765.25</ele><time>2026-04-30T08:55:09.998Z</time></trkpt><trkpt lat="44.52276240247851" lon="9.39592288245957"><ele>766.0</ele><time>2026-04-30T08:55:10.998Z</time></trkpt><trkpt lat="44.522747267313854" lon="9.395771961518724"><ele>766.0</ele><time>2026-04-30T08:55:11.998Z</time></trkpt><trkpt lat="44.52271358765795" lon="9.395627532252128"><ele>766.0</ele><time>2026-04-30T08:55:12.998Z</time></trkpt><trkpt lat="44.522702078225116" lon="9.395506414794514"><ele>766.0</ele><time>2026-04-30T08:55:13.998Z</time></trkpt><trkpt lat="44.52275638509872" lon="9.395435616219416"><ele>766.0</ele><time>2026-04-30T08:55:14.998Z</time></trkpt><trkpt lat="44.52282773014355" lon="9.395340287913413"><ele>766.0</ele><time>2026-04-30T08:55:15.998Z</time></trkpt><trkpt lat="44.522914426235914" lon="9.395256049863026"><ele>764.8</ele><time>2026-04-30T08:55:16.998Z</time></trkpt><trkpt lat="44.52300224329287" lon="9.395182504107428"><ele>763.5999999999999</ele><time>2026-04-30T08:55:17.998Z</time></trkpt><trkpt lat="44.52309843555774" lon="9.395120175917999"><ele>762.4</ele><time>2026-04-30T08:55:18.998Z</time></trkpt><trkpt lat="44.52318863432573" lon="9.395077886854239"><ele>761.2</ele><time>2026-04-30T08:55:19.998Z</time></trkpt><trkpt lat="44.52327702389659" lon="9.395110362577737"><ele>760.0</ele><time>2026-04-30T08:55:20.998Z</time></trkpt><trkpt lat="44.52337839428103" lon="9.39513903274328"><ele>760.0</ele><time>2026-04-30T08:55:21.998Z</time></trkpt><trkpt lat="44.52349820274151" lon="9.395195784301835"><ele>760.0</ele><time>2026-04-30T08:55:22.998Z</time></trkpt><trkpt lat="44.52359759866918" lon="9.395202231234633"><ele>760.0</ele><time>2026-04-30T08:55:23.998Z</time></trkpt><trkpt lat="44.523688047763606" lon="9.395190549771668"><ele>760.0</ele><time>2026-04-30T08:55:24.998Z</time></trkpt><trkpt lat="44.523777752015405" lon="9.395175507977026"><ele>760.0</ele><time>2026-04-30T08:55:25.998Z</time></trkpt><trkpt lat="44.52388109332622" lon="9.39516778556948"><ele>757.8</ele><time>2026-04-30T08:55:26.998Z</time></trkpt><trkpt lat="44.523964993174" lon="9.395178273266401"><ele>755.6</ele><time>2026-04-30T08:55:27.998Z</time></trkpt><trkpt lat="44.52406498228762" lon="9.3951635787802"><ele>753.4000000000001</ele><time>2026-04-30T08:55:28.998Z</time></trkpt><trkpt lat="44.52415414852426" lon="9.395104584416316"><ele>751.2</ele><time>2026-04-30T08:55:29.998Z</time></trkpt><trkpt lat="44.52423861395725" lon="9.3950292846644"><ele>749.0</ele><time>2026-04-30T08:55:30.998Z</time></trkpt><trkpt lat="44.52432441530245" lon="9.39492759762654"><ele>749.0</ele><time>2026-04-30T08:55:31.999Z</time></trkpt><trkpt lat="44.52442075785707" lon="9.3947678263007"><ele>749.0</ele><time>2026-04-30T08:55:32.999Z</time></trkpt><trkpt lat="44.524493261765286" lon="9.394582550811068"><ele>749.0</ele><time>2026-04-30T08:55:33.999Z</time></trkpt><trkpt lat="44.5245353432689" lon="9.394366215339216"><ele>750.6666666666666</ele><time>2026-04-30T08:55:34.999Z</time></trkpt><trkpt lat="44.5245468656755" lon="9.394147936287524"><ele>752.3333333333334</ele><time>2026-04-30T08:55:35.999Z</time></trkpt><trkpt lat="44.524529314732476" lon="9.393938368274041"><ele>754.0</ele><time>2026-04-30T08:55:36.999Z</time></trkpt><trkpt lat="44.524489134266005" lon="9.393720627105097"><ele>754.0</ele><time>2026-04-30T08:55:37.999Z</time></trkpt><trkpt lat="44.52441432376115" lon="9.393556797658237"><ele>754.0</ele><time>2026-04-30T08:55:38.999Z</time></trkpt><trkpt lat="44.52432787632256" lon="9.39341168529201"><ele>754.0</ele><time>2026-04-30T08:55:39.999Z</time></trkpt><trkpt lat="44.52422150728889" lon="9.39328263632983"><ele>754.0</ele><time>2026-04-30T08:55:40.999Z</time></trkpt><trkpt lat="44.524105931884705" lon="9.39314815912981"><ele>754.0</ele><time>2026-04-30T08:55:41.999Z</time></trkpt><trkpt lat="44.52401748907985" lon="9.39304002351893"><ele>754.0</ele><time>2026-04-30T08:55:42.999Z</time></trkpt><trkpt lat="44.52395438088606" lon="9.39290300096449"><ele>754.0</ele><time>2026-04-30T08:55:43.998Z</time></trkpt><trkpt lat="44.5238955974873" lon="9.392794399093221"><ele>754.0</ele><time>2026-04-30T08:55:44.998Z</time></trkpt><trkpt lat="44.52390551017186" lon="9.392690752364585"><ele>754.0</ele><time>2026-04-30T08:55:45.998Z</time></trkpt><trkpt lat="44.52393009462039" lon="9.392580870137872"><ele>753.0</ele><time>2026-04-30T08:55:46.998Z</time></trkpt><trkpt lat="44.5239819185553" lon="9.392476492713532"><ele>752.0</ele><time>2026-04-30T08:55:47.998Z</time></trkpt><trkpt lat="44.52404898602827" lon="9.392393268266598"><ele>751.0</ele><time>2026-04-30T08:55:48.998Z</time></trkpt><trkpt lat="44.52414967323795" lon="9.392338289525735"><ele>750.0</ele><time>2026-04-30T08:55:49.998Z</time></trkpt><trkpt lat="44.52426457256737" lon="9.392309526431855"><ele>749.0</ele><time>2026-04-30T08:55:50.998Z</time></trkpt><trkpt lat="44.52440060301189" lon="9.392287440410714"><ele>749.0</ele><time>2026-04-30T08:55:51.998Z</time></trkpt><trkpt lat="44.52453363640663" lon="9.392264561879793"><ele>749.0</ele><time>2026-04-30T08:55:52.998Z</time></trkpt><trkpt lat="44.52464636828765" lon="9.392229374663827"><ele>749.0</ele><time>2026-04-30T08:55:53.998Z</time></trkpt><trkpt lat="44.52480519739549" lon="9.392103997997712"><ele>749.0</ele><time>2026-04-30T08:55:54.998Z</time></trkpt><trkpt lat="44.52487986422458" lon="9.39188398249674"><ele>747.25</ele><time>2026-04-30T08:55:55.998Z</time></trkpt><trkpt lat="44.52490594242181" lon="9.391672940980383"><ele>745.5</ele><time>2026-04-30T08:55:56.998Z</time></trkpt><trkpt lat="44.52492272514709" lon="9.391508086671655"><ele>743.75</ele><time>2026-04-30T08:55:57.998Z</time></trkpt><trkpt lat="44.52495442227722" lon="9.391357417450385"><ele>742.0</ele><time>2026-04-30T08:55:58.998Z</time></trkpt><trkpt lat="44.5250056705112" lon="9.391268150789289"><ele>742.0</ele><time>2026-04-30T08:55:59.998Z</time></trkpt><trkpt lat="44.52507839688986" lon="9.391179700294368"><ele>742.0</ele><time>2026-04-30T08:56:00.998Z</time></trkpt><trkpt lat="44.52520184797942" lon="9.391072449247288"><ele>742.0</ele><time>2026-04-30T08:56:01.998Z</time></trkpt><trkpt lat="44.52534785737735" lon="9.390952062807003"><ele>742.0</ele><time>2026-04-30T08:56:02.998Z</time></trkpt><trkpt lat="44.52549055650854" lon="9.390836990601011"><ele>740.0</ele><time>2026-04-30T08:56:03.998Z</time></trkpt><trkpt lat="44.52564834964225" lon="9.39071025015946"><ele>738.0</ele><time>2026-04-30T08:56:04.998Z</time></trkpt><trkpt lat="44.52578659467024" lon="9.390597064571233"><ele>736.0</ele><time>2026-04-30T08:56:05.998Z</time></trkpt><trkpt lat="44.525898900270676" lon="9.390477627064854"><ele>736.0</ele><time>2026-04-30T08:56:06.998Z</time></trkpt><trkpt lat="44.526023910366376" lon="9.390391077161755"><ele>736.0</ele><time>2026-04-30T08:56:07.998Z</time></trkpt><trkpt lat="44.526133581485105" lon="9.390305241795748"><ele>736.0</ele><time>2026-04-30T08:56:08.998Z</time></trkpt><trkpt lat="44.52624323064476" lon="9.390210789737782"><ele>736.0</ele><time>2026-04-30T08:56:09.998Z</time></trkpt><trkpt lat="44.52632532398817" lon="9.39007217379806"><ele>731.5</ele><time>2026-04-30T08:56:10.998Z</time></trkpt><trkpt lat="44.52642937173039" lon="9.389953422599582"><ele>727.0</ele><time>2026-04-30T08:56:11.998Z</time></trkpt><trkpt lat="44.526463536511585" lon="9.389778301317483"><ele>722.5</ele><time>2026-04-30T08:56:12.998Z</time></trkpt><trkpt lat="44.52646984386842" lon="9.389610363928142"><ele>718.0</ele><time>2026-04-30T08:56:13.998Z</time></trkpt><trkpt lat="44.52647125360095" lon="9.38946671563271"><ele>715.5</ele><time>2026-04-30T08:56:14.998Z</time></trkpt><trkpt lat="44.52645049162856" lon="9.389340767128914"><ele>713.0</ele><time>2026-04-30T08:56:15.998Z</time></trkpt><trkpt lat="44.52642005587816" lon="9.389213296572677"><ele>710.5</ele><time>2026-04-30T08:56:16.998Z</time></trkpt><trkpt lat="44.5263339575495" lon="9.389080712927747"><ele>708.0</ele><time>2026-04-30T08:56:17.998Z</time></trkpt><trkpt lat="44.52621726749325" lon="9.388948334938961"><ele>712.3333333333334</ele><time>2026-04-30T08:56:18.998Z</time></trkpt><trkpt lat="44.52610873875722" lon="9.388817660870536"><ele>716.6666666666667</ele><time>2026-04-30T08:56:19.998Z</time></trkpt><trkpt lat="44.5259921448636" lon="9.388675793420852"><ele>721.0</ele><time>2026-04-30T08:56:20.998Z</time></trkpt><trkpt lat="44.52588065257775" lon="9.388530458017184"><ele>721.0</ele><time>2026-04-30T08:56:21.998Z</time></trkpt><trkpt lat="44.5257934263226" lon="9.38839208036213"><ele>721.0</ele><time>2026-04-30T08:56:22.998Z</time></trkpt><trkpt lat="44.52570946586619" lon="9.388256049654386"><ele>721.0</ele><time>2026-04-30T08:56:23.998Z</time></trkpt><trkpt lat="44.5256653991999" lon="9.388072537203664"><ele>721.0</ele><time>2026-04-30T08:56:24.998Z</time></trkpt><trkpt lat="44.52563311093752" lon="9.38785770488946"><ele>719.25</ele><time>2026-04-30T08:56:25.998Z</time></trkpt><trkpt lat="44.52560920822055" lon="9.387654806485784"><ele>717.5</ele><time>2026-04-30T08:56:26.998Z</time></trkpt><trkpt lat="44.5255879005186" lon="9.387463253887063"><ele>715.75</ele><time>2026-04-30T08:56:27.998Z</time></trkpt><trkpt lat="44.525577635287384" lon="9.387287506033928"><ele>714.0</ele><time>2026-04-30T08:56:28.998Z</time></trkpt><trkpt lat="44.525578628850546" lon="9.387134326416298"><ele>714.0</ele><time>2026-04-30T08:56:29.998Z</time></trkpt><trkpt lat="44.525590687187226" lon="9.386963633498612"><ele>714.0</ele><time>2026-04-30T08:56:30.998Z</time></trkpt><trkpt lat="44.52562611888542" lon="9.386789011740566"><ele>714.0</ele><time>2026-04-30T08:56:31.998Z</time></trkpt><trkpt lat="44.52566560522608" lon="9.386664085414694"><ele>714.0</ele><time>2026-04-30T08:56:32.998Z</time></trkpt><trkpt lat="44.52573288846706" lon="9.38651562414822"><ele>714.0</ele><time>2026-04-30T08:56:33.998Z</time></trkpt><trkpt lat="44.52578504346061" lon="9.386427509149607"><ele>714.0</ele><time>2026-04-30T08:56:34.998Z</time></trkpt><trkpt lat="44.52586851548258" lon="9.386285634056748"><ele>714.0</ele><time>2026-04-30T08:56:35.998Z</time></trkpt><trkpt lat="44.525938928702814" lon="9.386157751649648"><ele>714.0</ele><time>2026-04-30T08:56:36.998Z</time></trkpt><trkpt lat="44.52599201403219" lon="9.386021969801451"><ele>714.0</ele><time>2026-04-30T08:56:37.998Z</time></trkpt><trkpt lat="44.52603855046671" lon="9.385854576053584"><ele>715.2</ele><time>2026-04-30T08:56:38.998Z</time></trkpt><trkpt lat="44.52604592170435" lon="9.385691241885601"><ele>716.4000000000001</ele><time>2026-04-30T08:56:39.998Z</time></trkpt><trkpt lat="44.526047206882204" lon="9.385544531743275"><ele>717.6</ele><time>2026-04-30T08:56:40.998Z</time></trkpt><trkpt lat="44.52605603050304" lon="9.385419732712178"><ele>718.8</ele><time>2026-04-30T08:56:41.998Z</time></trkpt><trkpt lat="44.52603302593853" lon="9.385301814440897"><ele>720.0</ele><time>2026-04-30T08:56:42.998Z</time></trkpt><trkpt lat="44.525968114334106" lon="9.38521212036023"><ele>718.0</ele><time>2026-04-30T08:56:43.998Z</time></trkpt><trkpt lat="44.525911389757816" lon="9.385136170875066"><ele>716.0</ele><time>2026-04-30T08:56:44.998Z</time></trkpt><trkpt lat="44.52585320835393" lon="9.385069627960593"><ele>714.0</ele><time>2026-04-30T08:56:45.998Z</time></trkpt><trkpt lat="44.52578928704764" lon="9.385024806157277"><ele>712.0</ele><time>2026-04-30T08:56:46.998Z</time></trkpt><trkpt lat="44.52571028274561" lon="9.385006244633946"><ele>710.0</ele><time>2026-04-30T08:56:47.998Z</time></trkpt><trkpt lat="44.52562440846482" lon="9.385024405380195"><ele>708.0</ele><time>2026-04-30T08:56:48.998Z</time></trkpt><trkpt lat="44.52551690891027" lon="9.385052479818471"><ele>708.0</ele><time>2026-04-30T08:56:49.998Z</time></trkpt><trkpt lat="44.525408607801225" lon="9.385085512841748"><ele>708.0</ele><time>2026-04-30T08:56:50.998Z</time></trkpt><trkpt lat="44.52531534246066" lon="9.385135520163876"><ele>708.0</ele><time>2026-04-30T08:56:51.998Z</time></trkpt><trkpt lat="44.52521726976044" lon="9.385185865380038"><ele>708.0</ele><time>2026-04-30T08:56:52.998Z</time></trkpt><trkpt lat="44.525103500571724" lon="9.385193940608174"><ele>708.0</ele><time>2026-04-30T08:56:53.998Z</time></trkpt><trkpt lat="44.524972563904434" lon="9.38520711838132"><ele>708.25</ele><time>2026-04-30T08:56:54.998Z</time></trkpt><trkpt lat="44.52484118552282" lon="9.385187248961028"><ele>708.5</ele><time>2026-04-30T08:56:55.998Z</time></trkpt><trkpt lat="44.52470604354271" lon="9.385137702614433"><ele>708.75</ele><time>2026-04-30T08:56:56.998Z</time></trkpt><trkpt lat="44.52458609358309" lon="9.38503406705467"><ele>709.0</ele><time>2026-04-30T08:56:57.998Z</time></trkpt><trkpt lat="44.52446391738248" lon="9.384957924206285"><ele>706.25</ele><time>2026-04-30T08:56:58.998Z</time></trkpt><trkpt lat="44.52435769721372" lon="9.38486601973762"><ele>703.5</ele><time>2026-04-30T08:56:59.998Z</time></trkpt><trkpt lat="44.524234025911106" lon="9.384788912461785"><ele>700.75</ele><time>2026-04-30T08:57:00.998Z</time></trkpt><trkpt lat="44.52411813525866" lon="9.384683438961142"><ele>698.0</ele><time>2026-04-30T08:57:01.998Z</time></trkpt><trkpt lat="44.52400945215835" lon="9.384549190506696"><ele>698.0</ele><time>2026-04-30T08:57:02.998Z</time></trkpt><trkpt lat="44.523894637369544" lon="9.384393580681342"><ele>698.0</ele><time>2026-04-30T08:57:03.998Z</time></trkpt><trkpt lat="44.52378083231999" lon="9.3842220511605"><ele>698.0</ele><time>2026-04-30T08:57:04.998Z</time></trkpt><trkpt lat="44.52369019156172" lon="9.384076722985569"><ele>700.5</ele><time>2026-04-30T08:57:05.998Z</time></trkpt><trkpt lat="44.52360980211925" lon="9.383945385883118"><ele>703.0</ele><time>2026-04-30T08:57:06.998Z</time></trkpt><trkpt lat="44.52351271626128" lon="9.383789853152773"><ele>705.5</ele><time>2026-04-30T08:57:07.998Z</time></trkpt><trkpt lat="44.523431579250754" lon="9.383639423406358"><ele>708.0</ele><time>2026-04-30T08:57:08.998Z</time></trkpt><trkpt lat="44.52337689383544" lon="9.383483882983976"><ele>708.0</ele><time>2026-04-30T08:57:09.998Z</time></trkpt><trkpt lat="44.52332794938999" lon="9.383363344547204"><ele>708.0</ele><time>2026-04-30T08:57:10.998Z</time></trkpt><trkpt lat="44.523262023374144" lon="9.383242461962729"><ele>708.0</ele><time>2026-04-30T08:57:11.998Z</time></trkpt><trkpt lat="44.523252088836834" lon="9.383119465155984"><ele>708.0</ele><time>2026-04-30T08:57:12.998Z</time></trkpt><trkpt lat="44.52325901062579" lon="9.383018104190498"><ele>708.0</ele><time>2026-04-30T08:57:13.998Z</time></trkpt><trkpt lat="44.52330002149391" lon="9.382889193062384"><ele>707.25</ele><time>2026-04-30T08:57:14.998Z</time></trkpt><trkpt lat="44.52337088158961" lon="9.382774073665292"><ele>706.5</ele><time>2026-04-30T08:57:15.998Z</time></trkpt><trkpt lat="44.52347118449415" lon="9.382635196417013"><ele>705.75</ele><time>2026-04-30T08:57:16.998Z</time></trkpt><trkpt lat="44.52357787639598" lon="9.38247796461658"><ele>705.0</ele><time>2026-04-30T08:57:17.998Z</time></trkpt><trkpt lat="44.52369045475542" lon="9.382311503359302"><ele>703.0</ele><time>2026-04-30T08:57:18.998Z</time></trkpt><trkpt lat="44.52379654016823" lon="9.382151639696499"><ele>701.0</ele><time>2026-04-30T08:57:19.998Z</time></trkpt><trkpt lat="44.5239106972743" lon="9.381976877823448"><ele>699.0</ele><time>2026-04-30T08:57:20.998Z</time></trkpt><trkpt lat="44.52402774362133" lon="9.381795847402705"><ele>699.0</ele><time>2026-04-30T08:57:21.998Z</time></trkpt><trkpt lat="44.5241450398409" lon="9.381618029643343"><ele>699.0</ele><time>2026-04-30T08:57:22.998Z</time></trkpt><trkpt lat="44.52427245507655" lon="9.381427407264015"><ele>699.0</ele><time>2026-04-30T08:57:24.001Z</time></trkpt><trkpt lat="44.52440703923015" lon="9.38123241568513"><ele>699.0</ele><time>2026-04-30T08:57:25.001Z</time></trkpt><trkpt lat="44.524536612703486" lon="9.381045414052291"><ele>699.0</ele><time>2026-04-30T08:57:26.001Z</time></trkpt><trkpt lat="44.524646992697264" lon="9.38088410180359"><ele>699.0</ele><time>2026-04-30T08:57:27.001Z</time></trkpt><trkpt lat="44.52475559911736" lon="9.380721766874865"><ele>699.0</ele><time>2026-04-30T08:57:28.001Z</time></trkpt><trkpt lat="44.52486712243333" lon="9.380551722515813"><ele>699.0</ele><time>2026-04-30T08:57:29.001Z</time></trkpt><trkpt lat="44.52499335916129" lon="9.380359244150402"><ele>699.0</ele><time>2026-04-30T08:57:30.001Z</time></trkpt><trkpt lat="44.52511979625396" lon="9.380166460088196"><ele>700.6666666666666</ele><time>2026-04-30T08:57:31.001Z</time></trkpt><trkpt lat="44.52523858519916" lon="9.379959939808648"><ele>702.3333333333333</ele><time>2026-04-30T08:57:32.001Z</time></trkpt><trkpt lat="44.52532264296094" lon="9.379751470352334"><ele>704.0</ele><time>2026-04-30T08:57:33.001Z</time></trkpt><trkpt lat="44.52541522874723" lon="9.37957882774866"><ele>704.0</ele><time>2026-04-30T08:57:34.001Z</time></trkpt><trkpt lat="44.52547865054538" lon="9.379391810959547"><ele>704.0</ele><time>2026-04-30T08:57:35.001Z</time></trkpt><trkpt lat="44.52554297691814" lon="9.379202145245264"><ele>704.0</ele><time>2026-04-30T08:57:36.001Z</time></trkpt><trkpt lat="44.52559608862095" lon="9.379065246546467"><ele>704.0</ele><time>2026-04-30T08:57:37.001Z</time></trkpt><trkpt lat="44.52565086858381" lon="9.378928040392776"><ele>708.4000000000001</ele><time>2026-04-30T08:57:38.001Z</time></trkpt><trkpt lat="44.52565338529112" lon="9.378800775329024"><ele>712.8</ele><time>2026-04-30T08:57:39.001Z</time></trkpt><trkpt lat="44.525647411998385" lon="9.378702939972584"><ele>717.2</ele><time>2026-04-30T08:57:40.001Z</time></trkpt><trkpt lat="44.525588584933345" lon="9.37852011314757"><ele>721.5999999999999</ele><time>2026-04-30T08:57:42.001Z</time></trkpt><trkpt lat="44.52550123760546" lon="9.378409630051769"><ele>726.0</ele><time>2026-04-30T08:57:43.001Z</time></trkpt><trkpt lat="44.52542303144135" lon="9.37834207538776"><ele>722.8333333333334</ele><time>2026-04-30T08:57:44.001Z</time></trkpt><trkpt lat="44.52534940637005" lon="9.378279809542434"><ele>719.6666666666666</ele><time>2026-04-30T08:57:45.001Z</time></trkpt><trkpt lat="44.52527850657207" lon="9.37827765249355"><ele>716.5</ele><time>2026-04-30T08:57:46.001Z</time></trkpt><trkpt lat="44.525201386103106" lon="9.378271500994735"><ele>713.3333333333333</ele><time>2026-04-30T08:57:48.001Z</time></trkpt><trkpt lat="44.52513836752404" lon="9.378219999162924"><ele>710.1666666666666</ele><time>2026-04-30T08:59:58.999Z</time></trkpt><trkpt lat="44.52506380546085" lon="9.378164185060545"><ele>707.0</ele><time>2026-04-30T09:00:00.999Z</time></trkpt><trkpt lat="44.52500012157685" lon="9.378122074611367"><ele>707.0</ele><time>2026-04-30T09:00:01.999Z</time></trkpt><trkpt lat="44.52493411858279" lon="9.378059749480494"><ele>707.0</ele><time>2026-04-30T09:00:02.999Z</time></trkpt><trkpt lat="44.52486012250291" lon="9.378006575444136"><ele>707.0</ele><time>2026-04-30T09:00:03.999Z</time></trkpt><trkpt lat="44.52477091308717" lon="9.377968493766693"><ele>707.0</ele><time>2026-04-30T09:00:04.999Z</time></trkpt><trkpt lat="44.52467719631259" lon="9.377875123513064"><ele>707.0</ele><time>2026-04-30T09:00:05.999Z</time></trkpt><trkpt lat="44.52456152113096" lon="9.377787235971665"><ele>708.0</ele><time>2026-04-30T09:00:06.999Z</time></trkpt><trkpt lat="44.52443789060928" lon="9.377707049016491"><ele>709.0</ele><time>2026-04-30T09:00:07.999Z</time></trkpt><trkpt lat="44.52432878645595" lon="9.377590730477124"><ele>710.0</ele><time>2026-04-30T09:00:08.999Z</time></trkpt><trkpt lat="44.52422755993983" lon="9.37748547028825"><ele>711.0</ele><time>2026-04-30T09:00:09.999Z</time></trkpt><trkpt lat="44.524121906983524" lon="9.377381265446477"><ele>711.0</ele><time>2026-04-30T09:00:10.999Z</time></trkpt><trkpt lat="44.52399958824818" lon="9.377274663870018"><ele>711.0</ele><time>2026-04-30T09:00:11.999Z</time></trkpt><trkpt lat="44.52387310703598" lon="9.377186421333054"><ele>711.0</ele><time>2026-04-30T09:00:12.999Z</time></trkpt><trkpt lat="44.5237467617567" lon="9.377108621785197"><ele>711.0</ele><time>2026-04-30T09:00:13.999Z</time></trkpt><trkpt lat="44.52362583094414" lon="9.377038611754475"><ele>714.25</ele><time>2026-04-30T09:00:14.999Z</time></trkpt><trkpt lat="44.52350934902917" lon="9.376971177202359"><ele>717.5</ele><time>2026-04-30T09:00:15.999Z</time></trkpt><trkpt lat="44.5233940859421" lon="9.376896092942916"><ele>720.75</ele><time>2026-04-30T09:00:16.999Z</time></trkpt><trkpt lat="44.52327377116465" lon="9.376821005305663"><ele>724.0</ele><time>2026-04-30T09:00:17.999Z</time></trkpt><trkpt lat="44.52315610787814" lon="9.376754100964366"><ele>724.0</ele><time>2026-04-30T09:00:18.999Z</time></trkpt><trkpt lat="44.523038925425475" lon="9.376693277765165"><ele>724.0</ele><time>2026-04-30T09:00:19.999Z</time></trkpt><trkpt lat="44.522928859759475" lon="9.37664272759918"><ele>724.0</ele><time>2026-04-30T09:00:20.999Z</time></trkpt><trkpt lat="44.52282221569172" lon="9.376600117086815"><ele>724.0</ele><time>2026-04-30T09:00:21.999Z</time></trkpt><trkpt lat="44.522707038614" lon="9.376559375795978"><ele>721.75</ele><time>2026-04-30T09:00:22.999Z</time></trkpt><trkpt lat="44.522587969084086" lon="9.376525938995012"><ele>719.5</ele><time>2026-04-30T09:00:23.999Z</time></trkpt><trkpt lat="44.52246709216339" lon="9.376496993753017"><ele>717.25</ele><time>2026-04-30T09:00:24.999Z</time></trkpt><trkpt lat="44.52234106192208" lon="9.37646790805954"><ele>715.0</ele><time>2026-04-30T09:00:25.999Z</time></trkpt><trkpt lat="44.52220997933679" lon="9.37643940392026"><ele>715.0</ele><time>2026-04-30T09:00:26.999Z</time></trkpt><trkpt lat="44.52208145510267" lon="9.376411058017522"><ele>715.0</ele><time>2026-04-30T09:00:27.999Z</time></trkpt><trkpt lat="44.52195697125753" lon="9.3763814893373"><ele>715.0</ele><time>2026-04-30T09:00:28.999Z</time></trkpt><trkpt lat="44.52183166311232" lon="9.37637446090306"><ele>715.0</ele><time>2026-04-30T09:00:29.999Z</time></trkpt><trkpt lat="44.521707313681915" lon="9.376341977490481"><ele>717.75</ele><time>2026-04-30T09:00:30.999Z</time></trkpt><trkpt lat="44.5215845801006" lon="9.376311823453218"><ele>720.5</ele><time>2026-04-30T09:00:31.999Z</time></trkpt><trkpt lat="44.52146269501775" lon="9.376274795559999"><ele>723.25</ele><time>2026-04-30T09:00:32.999Z</time></trkpt><trkpt lat="44.521338270407576" lon="9.376221834365644"><ele>726.0</ele><time>2026-04-30T09:00:33.999Z</time></trkpt><trkpt lat="44.521210781327845" lon="9.376175227519743"><ele>726.0</ele><time>2026-04-30T09:00:34.999Z</time></trkpt><trkpt lat="44.52107740485881" lon="9.37614982650668"><ele>726.0</ele><time>2026-04-30T09:00:35.999Z</time></trkpt><trkpt lat="44.52094536511178" lon="9.376103042257592"><ele>726.0</ele><time>2026-04-30T09:00:36.999Z</time></trkpt><trkpt lat="44.5208148359205" lon="9.37603392072135"><ele>726.0</ele><time>2026-04-30T09:00:37.999Z</time></trkpt><trkpt lat="44.5206818219593" lon="9.37600544514659"><ele>726.0</ele><time>2026-04-30T09:00:38.999Z</time></trkpt><trkpt lat="44.52056919380206" lon="9.375953234974123"><ele>726.0</ele><time>2026-04-30T09:00:39.999Z</time></trkpt><trkpt lat="44.52046970256114" lon="9.375897093646554"><ele>726.0</ele><time>2026-04-30T09:00:40.999Z</time></trkpt><trkpt lat="44.52037530021028" lon="9.375833969409756"><ele>726.0</ele><time>2026-04-30T09:00:41.999Z</time></trkpt><trkpt lat="44.52028904644758" lon="9.375703750291377"><ele>723.0</ele><time>2026-04-30T09:00:42.999Z</time></trkpt><trkpt lat="44.5202749110174" lon="9.375502824015406"><ele>720.0</ele><time>2026-04-30T09:00:43.999Z</time></trkpt><trkpt lat="44.520326193161964" lon="9.37535105203611"><ele>717.0</ele><time>2026-04-30T09:00:44.999Z</time></trkpt><trkpt lat="44.520394073133865" lon="9.375223629324138"><ele>714.0</ele><time>2026-04-30T09:00:45.999Z</time></trkpt><trkpt lat="44.52044974753169" lon="9.375076386406905"><ele>716.25</ele><time>2026-04-30T09:00:46.999Z</time></trkpt><trkpt lat="44.52049406618913" lon="9.374902162765611"><ele>718.5</ele><time>2026-04-30T09:00:47.999Z</time></trkpt><trkpt lat="44.52048269628774" lon="9.37470636028253"><ele>720.75</ele><time>2026-04-30T09:00:48.999Z</time></trkpt><trkpt lat="44.52044700266502" lon="9.374502121653714"><ele>723.0</ele><time>2026-04-30T09:00:49.999Z</time></trkpt><trkpt lat="44.5203971412631" lon="9.37429990872644"><ele>723.0</ele><time>2026-04-30T09:00:50.999Z</time></trkpt><trkpt lat="44.520301285998" lon="9.374144442951696"><ele>723.0</ele><time>2026-04-30T09:00:51.999Z</time></trkpt><trkpt lat="44.52020741541874" lon="9.37398256286013"><ele>723.0</ele><time>2026-04-30T09:00:52.999Z</time></trkpt><trkpt lat="44.520100417302004" lon="9.37383279284884"><ele>723.0</ele><time>2026-04-30T09:00:53.999Z</time></trkpt><trkpt lat="44.51998069327347" lon="9.373697881437623"><ele>731.0</ele><time>2026-04-30T09:00:54.999Z</time></trkpt><trkpt lat="44.51985548109989" lon="9.373574733603784"><ele>739.0</ele><time>2026-04-30T09:00:55.999Z</time></trkpt><trkpt lat="44.5197165775205" lon="9.37345835851434"><ele>747.0</ele><time>2026-04-30T09:00:56.999Z</time></trkpt><trkpt lat="44.519569639797524" lon="9.373338584926662"><ele>743.3333333333334</ele><time>2026-04-30T09:00:57.999Z</time></trkpt><trkpt lat="44.51939525777533" lon="9.37317565351828"><ele>739.6666666666667</ele><time>2026-04-30T09:00:58.999Z</time></trkpt><trkpt lat="44.51924957266604" lon="9.37293897223525"><ele>736.0</ele><time>2026-04-30T09:00:59.999Z</time></trkpt><trkpt lat="44.51915052126421" lon="9.372739232492298"><ele>736.0</ele><time>2026-04-30T09:01:00.999Z</time></trkpt><trkpt lat="44.51906605261727" lon="9.372555628964928"><ele>736.0</ele><time>2026-04-30T09:01:01.999Z</time></trkpt><trkpt lat="44.51898219263909" lon="9.372391670109115"><ele>736.0</ele><time>2026-04-30T09:01:02.999Z</time></trkpt><trkpt lat="44.51888099237073" lon="9.372251398733813"><ele>736.0</ele><time>2026-04-30T09:01:03.999Z</time></trkpt><trkpt lat="44.51874732974757" lon="9.372161368384008"><ele>731.6666666666667</ele><time>2026-04-30T09:01:04.999Z</time></trkpt><trkpt lat="44.5185745808126" lon="9.372116547320537"><ele>727.3333333333334</ele><time>2026-04-30T09:01:05.999Z</time></trkpt><trkpt lat="44.51839153281099" lon="9.372129488904417"><ele>723.0</ele><time>2026-04-30T09:01:06.999Z</time></trkpt><trkpt lat="44.518200161411976" lon="9.372095664734436"><ele>723.0</ele><time>2026-04-30T09:01:07.999Z</time></trkpt><trkpt lat="44.518010269043195" lon="9.372060042638056"><ele>723.0</ele><time>2026-04-30T09:01:08.999Z</time></trkpt><trkpt lat="44.517805095080206" lon="9.372001457007299"><ele>723.0</ele><time>2026-04-30T09:01:09.999Z</time></trkpt><trkpt lat="44.51758348563611" lon="9.371953744950495"><ele>722.3333333333334</ele><time>2026-04-30T09:01:10.999Z</time></trkpt><trkpt lat="44.517399155549946" lon="9.371914059001387"><ele>721.6666666666667</ele><time>2026-04-30T09:01:11.999Z</time></trkpt><trkpt lat="44.517186303885104" lon="9.371868173437264"><ele>721.0</ele><time>2026-04-30T09:01:12.999Z</time></trkpt><trkpt lat="44.51699505026993" lon="9.371827870723363"><ele>721.0</ele><time>2026-04-30T09:01:13.999Z</time></trkpt><trkpt lat="44.51682469519856" lon="9.371814604749275"><ele>721.0</ele><time>2026-04-30T09:01:14.999Z</time></trkpt><trkpt lat="44.51666600791208" lon="9.371758485399468"><ele>721.0</ele><time>2026-04-30T09:01:15.999Z</time></trkpt><trkpt lat="44.5165198183787" lon="9.37171696674359"><ele>721.0</ele><time>2026-04-30T09:01:16.999Z</time></trkpt><trkpt lat="44.516392048422574" lon="9.371635105697678"><ele>721.0</ele><time>2026-04-30T09:01:17.999Z</time></trkpt><trkpt lat="44.51627960371839" lon="9.371523754810454"><ele>721.0</ele><time>2026-04-30T09:01:18.999Z</time></trkpt><trkpt lat="44.51616820906437" lon="9.371386146553073"><ele>721.0</ele><time>2026-04-30T09:01:19.999Z</time></trkpt><trkpt lat="44.51605640104452" lon="9.371234252622074"><ele>724.3333333333334</ele><time>2026-04-30T09:01:20.998Z</time></trkpt><trkpt lat="44.51594926512655" lon="9.371052406445521"><ele>727.6666666666666</ele><time>2026-04-30T09:01:21.998Z</time></trkpt><trkpt lat="44.51583774007652" lon="9.370850130167465"><ele>731.0</ele><time>2026-04-30T09:01:22.998Z</time></trkpt><trkpt lat="44.51573923602244" lon="9.370649921674296"><ele>727.3333333333333</ele><time>2026-04-30T09:01:23.998Z</time></trkpt><trkpt lat="44.51563758337104" lon="9.370448435267248"><ele>723.6666666666666</ele><time>2026-04-30T09:01:24.998Z</time></trkpt><trkpt lat="44.51553010312566" lon="9.37023458526422"><ele>720.0</ele><time>2026-04-30T09:01:25.998Z</time></trkpt><trkpt lat="44.51543186934466" lon="9.37003940797688"><ele>724.3333333333334</ele><time>2026-04-30T09:01:26.998Z</time></trkpt><trkpt lat="44.51532988106685" lon="9.369839409852412"><ele>728.6666666666667</ele><time>2026-04-30T09:01:27.998Z</time></trkpt><trkpt lat="44.51522477394078" lon="9.369635670870146"><ele>733.0</ele><time>2026-04-30T09:01:28.998Z</time></trkpt><trkpt lat="44.51512351295237" lon="9.369434842172987"><ele>733.0</ele><time>2026-04-30T09:01:29.998Z</time></trkpt><trkpt lat="44.515032295576134" lon="9.369254679250668"><ele>733.0</ele><time>2026-04-30T09:01:30.998Z</time></trkpt><trkpt lat="44.514938461397946" lon="9.369085382918362"><ele>733.0</ele><time>2026-04-30T09:01:31.998Z</time></trkpt><trkpt lat="44.514821540187334" lon="9.368932578691028"><ele>735.3333333333334</ele><time>2026-04-30T09:01:32.998Z</time></trkpt><trkpt lat="44.514682101761665" lon="9.368812702298822"><ele>737.6666666666666</ele><time>2026-04-30T09:01:33.998Z</time></trkpt><trkpt lat="44.514541164821466" lon="9.36865964866415"><ele>740.0</ele><time>2026-04-30T09:01:34.998Z</time></trkpt><trkpt lat="44.51438993374119" lon="9.368505196879747"><ele>740.0</ele><time>2026-04-30T09:01:35.998Z</time></trkpt><trkpt lat="44.51423023502663" lon="9.36834914664957"><ele>740.0</ele><time>2026-04-30T09:01:36.998Z</time></trkpt><trkpt lat="44.51406598341144" lon="9.368197224765952"><ele>740.0</ele><time>2026-04-30T09:01:37.998Z</time></trkpt><trkpt lat="44.513907414255385" lon="9.368076943834808"><ele>741.3333333333333</ele><time>2026-04-30T09:01:38.998Z</time></trkpt><trkpt lat="44.51375849080345" lon="9.367935549657277"><ele>742.6666666666666</ele><time>2026-04-30T09:01:39.998Z</time></trkpt><trkpt lat="44.51360912121595" lon="9.36778095264813"><ele>744.0</ele><time>2026-04-30T09:01:40.998Z</time></trkpt><trkpt lat="44.51343001343758" lon="9.367669302436003"><ele>744.0</ele><time>2026-04-30T09:01:41.998Z</time></trkpt><trkpt lat="44.51330471441211" lon="9.367532786334603"><ele>744.0</ele><time>2026-04-30T09:01:42.998Z</time></trkpt><trkpt lat="44.513194162819865" lon="9.367419573666446"><ele>744.0</ele><time>2026-04-30T09:01:43.998Z</time></trkpt><trkpt lat="44.51313536560067" lon="9.367301957276727"><ele>744.0</ele><time>2026-04-30T09:01:44.998Z</time></trkpt><trkpt lat="44.51310878437639" lon="9.367185011573596"><ele>739.3333333333334</ele><time>2026-04-30T09:01:45.998Z</time></trkpt><trkpt lat="44.51305666800603" lon="9.36699178983248"><ele>734.6666666666667</ele><time>2026-04-30T09:01:46.998Z</time></trkpt><trkpt lat="44.51298449346389" lon="9.366788193893463"><ele>730.0</ele><time>2026-04-30T09:01:47.998Z</time></trkpt><trkpt lat="44.512887094648995" lon="9.366586945416024"><ele>735.0</ele><time>2026-04-30T09:01:48.998Z</time></trkpt><trkpt lat="44.5127745613185" lon="9.366407356567601"><ele>740.0</ele><time>2026-04-30T09:01:49.998Z</time></trkpt><trkpt lat="44.51266564520396" lon="9.366243552445978"><ele>745.0</ele><time>2026-04-30T09:01:50.998Z</time></trkpt><trkpt lat="44.51255444027779" lon="9.366078753612308"><ele>745.0</ele><time>2026-04-30T09:01:51.998Z</time></trkpt><trkpt lat="44.51244400617068" lon="9.365898577930041"><ele>745.0</ele><time>2026-04-30T09:01:52.998Z</time></trkpt><trkpt lat="44.5123429123908" lon="9.365680462140968"><ele>745.0</ele><time>2026-04-30T09:01:53.998Z</time></trkpt><trkpt lat="44.51224334266717" lon="9.365453020912089"><ele>742.75</ele><time>2026-04-30T09:01:54.998Z</time></trkpt><trkpt lat="44.512213194520896" lon="9.36524734932919"><ele>740.5</ele><time>2026-04-30T09:01:55.998Z</time></trkpt><trkpt lat="44.51216835262149" lon="9.365088242956547"><ele>738.25</ele><time>2026-04-30T09:01:56.998Z</time></trkpt><trkpt lat="44.51219839494218" lon="9.364929872366453"><ele>736.0</ele><time>2026-04-30T09:01:57.998Z</time></trkpt><trkpt lat="44.51222720595212" lon="9.364750300622696"><ele>736.6666666666667</ele><time>2026-04-30T09:01:58.998Z</time></trkpt><trkpt lat="44.51224304316903" lon="9.36449405853329"><ele>737.3333333333334</ele><time>2026-04-30T09:01:59.998Z</time></trkpt><trkpt lat="44.512229865919515" lon="9.364247579430938"><ele>738.0</ele><time>2026-04-30T09:02:00.998Z</time></trkpt><trkpt lat="44.512196881429496" lon="9.364036380694586"><ele>737.75</ele><time>2026-04-30T09:02:01.998Z</time></trkpt><trkpt lat="44.51214404026908" lon="9.363832050480273"><ele>737.5</ele><time>2026-04-30T09:02:02.998Z</time></trkpt><trkpt lat="44.512062328416306" lon="9.363665946045275"><ele>737.25</ele><time>2026-04-30T09:02:03.998Z</time></trkpt><trkpt lat="44.51197669774012" lon="9.3634995662749"><ele>737.0</ele><time>2026-04-30T09:02:04.998Z</time></trkpt><trkpt lat="44.5118897389752" lon="9.363368280301383"><ele>737.4000000000001</ele><time>2026-04-30T09:02:05.998Z</time></trkpt><trkpt lat="44.51190548118587" lon="9.36327823340413"><ele>737.8000000000001</ele><time>2026-04-30T09:02:06.998Z</time></trkpt><trkpt lat="44.51192884093867" lon="9.363125805691281"><ele>738.2</ele><time>2026-04-30T09:02:07.998Z</time></trkpt><trkpt lat="44.511959745521686" lon="9.362997651005418"><ele>738.6</ele><time>2026-04-30T09:02:08.998Z</time></trkpt><trkpt lat="44.512026354383366" lon="9.362819934240278"><ele>739.0</ele><time>2026-04-30T09:02:09.998Z</time></trkpt><trkpt lat="44.51208227238468" lon="9.36262873318122"><ele>739.0</ele><time>2026-04-30T09:02:10.998Z</time></trkpt><trkpt lat="44.51211250070904" lon="9.362422989623367"><ele>739.0</ele><time>2026-04-30T09:02:11.998Z</time></trkpt><trkpt lat="44.51213219803715" lon="9.362229978079895"><ele>739.0</ele><time>2026-04-30T09:02:12.998Z</time></trkpt><trkpt lat="44.512132925163655" lon="9.362023929277123"><ele>739.0</ele><time>2026-04-30T09:02:13.998Z</time></trkpt><trkpt lat="44.51208109038878" lon="9.36185685584107"><ele>751.0</ele><time>2026-04-30T09:02:14.998Z</time></trkpt><trkpt lat="44.51204399665081" lon="9.361657726914144"><ele>763.0</ele><time>2026-04-30T09:02:15.998Z</time></trkpt><trkpt lat="44.51196566572248" lon="9.361459647128928"><ele>775.0</ele><time>2026-04-30T09:02:16.998Z</time></trkpt><trkpt lat="44.511986314868295" lon="9.361263500164826"><ele>775.0</ele><time>2026-04-30T09:02:17.998Z</time></trkpt><trkpt lat="44.51199030608712" lon="9.361031398733312"><ele>775.0</ele><time>2026-04-30T09:02:18.998Z</time></trkpt><trkpt lat="44.511946528413766" lon="9.360832627964463"><ele>775.0</ele><time>2026-04-30T09:02:19.998Z</time></trkpt><trkpt lat="44.51190637815337" lon="9.36065871291179"><ele>775.0</ele><time>2026-04-30T09:02:20.998Z</time></trkpt><trkpt lat="44.51181906978799" lon="9.360537458961826"><ele>773.2</ele><time>2026-04-30T09:02:21.998Z</time></trkpt><trkpt lat="44.51171026141635" lon="9.360470210129785"><ele>771.4</ele><time>2026-04-30T09:02:22.998Z</time></trkpt><trkpt lat="44.511592263301345" lon="9.36045750185398"><ele>769.5999999999999</ele><time>2026-04-30T09:02:23.998Z</time></trkpt><trkpt lat="44.51151267159636" lon="9.360414080971143"><ele>767.8</ele><time>2026-04-30T09:02:24.998Z</time></trkpt><trkpt lat="44.511488793227024" lon="9.360310376882556"><ele>766.0</ele><time>2026-04-30T09:02:25.998Z</time></trkpt><trkpt lat="44.51148407908588" lon="9.360152646558824"><ele>766.0</ele><time>2026-04-30T09:02:26.998Z</time></trkpt><trkpt lat="44.51152103513189" lon="9.360026575098345"><ele>766.0</ele><time>2026-04-30T09:02:27.998Z</time></trkpt><trkpt lat="44.511592006375096" lon="9.359882615378506"><ele>766.0</ele><time>2026-04-30T09:02:28.998Z</time></trkpt><trkpt lat="44.511660672495665" lon="9.359689026596934"><ele>766.0</ele><time>2026-04-30T09:02:29.998Z</time></trkpt><trkpt lat="44.51172276536068" lon="9.359468860164338"><ele>768.6666666666667</ele><time>2026-04-30T09:02:30.998Z</time></trkpt><trkpt lat="44.51175996304696" lon="9.359256619374452"><ele>771.3333333333334</ele><time>2026-04-30T09:02:31.998Z</time></trkpt><trkpt lat="44.511758330928465" lon="9.359032853741343"><ele>774.0</ele><time>2026-04-30T09:02:32.998Z</time></trkpt><trkpt lat="44.51174283579516" lon="9.358834263012627"><ele>776.75</ele><time>2026-04-30T09:02:33.998Z</time></trkpt><trkpt lat="44.511748088125415" lon="9.358665027876171"><ele>779.5</ele><time>2026-04-30T09:02:34.998Z</time></trkpt><trkpt lat="44.511791667229694" lon="9.358528647149184"><ele>782.25</ele><time>2026-04-30T09:02:35.998Z</time></trkpt><trkpt lat="44.51186624880307" lon="9.358329471466837"><ele>785.0</ele><time>2026-04-30T09:02:36.998Z</time></trkpt><trkpt lat="44.51193118751969" lon="9.358078492673664"><ele>785.3333333333334</ele><time>2026-04-30T09:02:37.998Z</time></trkpt><trkpt lat="44.511954658900684" lon="9.357822969718864"><ele>785.6666666666667</ele><time>2026-04-30T09:02:38.998Z</time></trkpt><trkpt lat="44.51197400573103" lon="9.357572736267144"><ele>786.0</ele><time>2026-04-30T09:02:39.998Z</time></trkpt><trkpt lat="44.51199126689374" lon="9.357322348822196"><ele>786.0</ele><time>2026-04-30T09:02:40.998Z</time></trkpt><trkpt lat="44.51199624150842" lon="9.35712001775901"><ele>786.0</ele><time>2026-04-30T09:02:41.998Z</time></trkpt><trkpt lat="44.51199612170147" lon="9.356929333284544"><ele>786.0</ele><time>2026-04-30T09:02:42.998Z</time></trkpt><trkpt lat="44.511992624036914" lon="9.356741667515582"><ele>786.0</ele><time>2026-04-30T09:02:43.998Z</time></trkpt><trkpt lat="44.51192055928184" lon="9.35659371537752"><ele>786.0</ele><time>2026-04-30T09:02:44.998Z</time></trkpt><trkpt lat="44.51181792071525" lon="9.356459909927825"><ele>786.0</ele><time>2026-04-30T09:02:45.998Z</time></trkpt><trkpt lat="44.51172367358958" lon="9.356285532080298"><ele>786.0</ele><time>2026-04-30T09:02:46.998Z</time></trkpt><trkpt lat="44.511613178065964" lon="9.356123976148648"><ele>782.0</ele><time>2026-04-30T09:02:47.998Z</time></trkpt><trkpt lat="44.51152219838352" lon="9.355958635789685"><ele>778.0</ele><time>2026-04-30T09:02:48.998Z</time></trkpt><trkpt lat="44.51140802309436" lon="9.355817883275748"><ele>774.0</ele><time>2026-04-30T09:02:49.998Z</time></trkpt><trkpt lat="44.511278733418344" lon="9.355706974323601"><ele>783.3333333333333</ele><time>2026-04-30T09:02:50.998Z</time></trkpt><trkpt lat="44.511156914466994" lon="9.355656952091124"><ele>792.6666666666666</ele><time>2026-04-30T09:02:51.998Z</time></trkpt><trkpt lat="44.51099749010384" lon="9.355616900700616"><ele>802.0</ele><time>2026-04-30T09:02:52.998Z</time></trkpt><trkpt lat="44.510835941563705" lon="9.355575012281719"><ele>803.0</ele><time>2026-04-30T09:02:53.998Z</time></trkpt><trkpt lat="44.51066696507868" lon="9.35553119584737"><ele>804.0</ele><time>2026-04-30T09:02:54.998Z</time></trkpt><trkpt lat="44.51050634793131" lon="9.355481813000019"><ele>805.0</ele><time>2026-04-30T09:02:55.998Z</time></trkpt><trkpt lat="44.51039105697242" lon="9.355425439087771"><ele>805.0</ele><time>2026-04-30T09:02:56.998Z</time></trkpt><trkpt lat="44.510294396080994" lon="9.355324979820809"><ele>805.0</ele><time>2026-04-30T09:02:57.998Z</time></trkpt><trkpt lat="44.51022872752507" lon="9.355202396883447"><ele>805.0</ele><time>2026-04-30T09:02:58.998Z</time></trkpt><trkpt lat="44.510177107959706" lon="9.355048454405146"><ele>805.0</ele><time>2026-04-30T09:02:59.998Z</time></trkpt><trkpt lat="44.51011984520328" lon="9.354863419430687"><ele>802.25</ele><time>2026-04-30T09:03:00.998Z</time></trkpt><trkpt lat="44.51006633982735" lon="9.354694132227957"><ele>799.5</ele><time>2026-04-30T09:03:01.998Z</time></trkpt><trkpt lat="44.50999624651406" lon="9.354514379050633"><ele>796.75</ele><time>2026-04-30T09:03:02.998Z</time></trkpt><trkpt lat="44.509923200421504" lon="9.354384955431419"><ele>794.0</ele><time>2026-04-30T09:03:03.998Z</time></trkpt><trkpt lat="44.509850686764636" lon="9.354316600332954"><ele>794.0</ele><time>2026-04-30T09:03:04.998Z</time></trkpt><trkpt lat="44.50972593816842" lon="9.354298167819863"><ele>794.0</ele><time>2026-04-30T09:03:05.998Z</time></trkpt><trkpt lat="44.50959236660082" lon="9.354266750381138"><ele>794.0</ele><time>2026-04-30T09:03:06.998Z</time></trkpt><trkpt lat="44.509445882484414" lon="9.354261918860374"><ele>794.0</ele><time>2026-04-30T09:03:07.998Z</time></trkpt><trkpt lat="44.50928693349017" lon="9.354254937387958"><ele>797.6666666666667</ele><time>2026-04-30T09:03:08.998Z</time></trkpt><trkpt lat="44.50912007230655" lon="9.35424617081629"><ele>801.3333333333333</ele><time>2026-04-30T09:03:09.997Z</time></trkpt><trkpt lat="44.508956563163004" lon="9.354208891761468"><ele>805.0</ele><time>2026-04-30T09:03:10.997Z</time></trkpt><trkpt lat="44.50881405636741" lon="9.354188337286107"><ele>806.0</ele><time>2026-04-30T09:03:11.997Z</time></trkpt><trkpt lat="44.50867738529816" lon="9.354194365195282"><ele>807.0</ele><time>2026-04-30T09:03:12.997Z</time></trkpt><trkpt lat="44.50852664118181" lon="9.354209461504551"><ele>808.0</ele><time>2026-04-30T09:03:13.997Z</time></trkpt><trkpt lat="44.50843616139921" lon="9.354296884364839"><ele>809.0</ele><time>2026-04-30T09:03:14.997Z</time></trkpt><trkpt lat="44.50832480285297" lon="9.35440542228409"><ele>809.0</ele><time>2026-04-30T09:03:15.997Z</time></trkpt><trkpt lat="44.5081846655498" lon="9.354529307061675"><ele>809.0</ele><time>2026-04-30T09:03:16.997Z</time></trkpt><trkpt lat="44.50807767172982" lon="9.354730602938336"><ele>809.0</ele><time>2026-04-30T09:03:17.997Z</time></trkpt><trkpt lat="44.507936889692814" lon="9.354857530372117"><ele>810.0</ele><time>2026-04-30T09:03:18.997Z</time></trkpt><trkpt lat="44.50778605596634" lon="9.354958276965709"><ele>811.0</ele><time>2026-04-30T09:03:19.997Z</time></trkpt><trkpt lat="44.507626411041684" lon="9.35505846611283"><ele>812.0</ele><time>2026-04-30T09:03:20.997Z</time></trkpt><trkpt lat="44.50748680305056" lon="9.35512413841835"><ele>812.0</ele><time>2026-04-30T09:03:21.997Z</time></trkpt><trkpt lat="44.50734617682935" lon="9.355186815097747"><ele>812.0</ele><time>2026-04-30T09:03:22.997Z</time></trkpt><trkpt lat="44.50720535081463" lon="9.355189614833412"><ele>812.0</ele><time>2026-04-30T09:03:23.997Z</time></trkpt><trkpt lat="44.50706761946949" lon="9.355196089287956"><ele>812.0</ele><time>2026-04-30T09:03:24.997Z</time></trkpt><trkpt lat="44.50691176923519" lon="9.355189073298853"><ele>812.6666666666667</ele><time>2026-04-30T09:03:25.997Z</time></trkpt><trkpt lat="44.50675091938379" lon="9.35517402319797"><ele>813.3333333333333</ele><time>2026-04-30T09:03:26.997Z</time></trkpt><trkpt lat="44.506589319633896" lon="9.355149229785452"><ele>814.0</ele><time>2026-04-30T09:03:27.997Z</time></trkpt><trkpt lat="44.50645649622046" lon="9.355098569169856"><ele>814.0</ele><time>2026-04-30T09:03:28.997Z</time></trkpt><trkpt lat="44.506348391874475" lon="9.35501535171277"><ele>814.0</ele><time>2026-04-30T09:03:29.997Z</time></trkpt><trkpt lat="44.50625601209492" lon="9.354895098354937"><ele>814.0</ele><time>2026-04-30T09:03:30.997Z</time></trkpt><trkpt lat="44.50615861948069" lon="9.354736995306164"><ele>814.0</ele><time>2026-04-30T09:03:31.997Z</time></trkpt><trkpt lat="44.50605352459991" lon="9.354581275380438"><ele>813.5</ele><time>2026-04-30T09:03:32.997Z</time></trkpt><trkpt lat="44.5060015591817" lon="9.354381406579183"><ele>813.0</ele><time>2026-04-30T09:03:33.997Z</time></trkpt><trkpt lat="44.505928898900166" lon="9.354238792118199"><ele>812.5</ele><time>2026-04-30T09:03:34.997Z</time></trkpt><trkpt lat="44.50587505741977" lon="9.35410615708371"><ele>812.0</ele><time>2026-04-30T09:03:35.997Z</time></trkpt><trkpt lat="44.505789090963866" lon="9.354024393572736"><ele>812.0</ele><time>2026-04-30T09:03:36.997Z</time></trkpt><trkpt lat="44.50567834471565" lon="9.353953193531277"><ele>812.0</ele><time>2026-04-30T09:03:37.997Z</time></trkpt><trkpt lat="44.505558944956796" lon="9.35391917584274"><ele>812.0</ele><time>2026-04-30T09:03:38.997Z</time></trkpt><trkpt lat="44.50540880118618" lon="9.35391306796089"><ele>812.0</ele><time>2026-04-30T09:03:39.997Z</time></trkpt><trkpt lat="44.50527081626826" lon="9.353901155265879"><ele>811.3333333333334</ele><time>2026-04-30T09:03:40.997Z</time></trkpt><trkpt lat="44.50512541799042" lon="9.353864451917977"><ele>810.6666666666667</ele><time>2026-04-30T09:03:41.997Z</time></trkpt><trkpt lat="44.50499044059796" lon="9.353771534147937"><ele>810.0</ele><time>2026-04-30T09:03:42.997Z</time></trkpt><trkpt lat="44.50484163223357" lon="9.353642874525468"><ele>810.0</ele><time>2026-04-30T09:03:43.997Z</time></trkpt><trkpt lat="44.50471095690561" lon="9.353526547998303"><ele>810.0</ele><time>2026-04-30T09:03:44.997Z</time></trkpt><trkpt lat="44.50455241899096" lon="9.35345204701175"><ele>810.0</ele><time>2026-04-30T09:03:45.997Z</time></trkpt><trkpt lat="44.50438144260126" lon="9.353378373216024"><ele>810.0</ele><time>2026-04-30T09:03:46.997Z</time></trkpt><trkpt lat="44.50420001793896" lon="9.353272870847256"><ele>810.0</ele><time>2026-04-30T09:03:47.997Z</time></trkpt><trkpt lat="44.504008727278006" lon="9.353191629266783"><ele>810.0</ele><time>2026-04-30T09:03:48.997Z</time></trkpt><trkpt lat="44.50382557073105" lon="9.35309742375789"><ele>809.3333333333333</ele><time>2026-04-30T09:03:49.997Z</time></trkpt><trkpt lat="44.50362368768771" lon="9.35301308756401"><ele>808.6666666666666</ele><time>2026-04-30T09:03:50.997Z</time></trkpt><trkpt lat="44.503435104172254" lon="9.352921301597286"><ele>808.0</ele><time>2026-04-30T09:03:51.997Z</time></trkpt><trkpt lat="44.50324353512545" lon="9.352840151651003"><ele>808.0</ele><time>2026-04-30T09:03:52.997Z</time></trkpt><trkpt lat="44.503048378715455" lon="9.35276453729156"><ele>808.0</ele><time>2026-04-30T09:03:53.997Z</time></trkpt><trkpt lat="44.50284469016615" lon="9.352663042892276"><ele>808.0</ele><time>2026-04-30T09:03:54.997Z</time></trkpt><trkpt lat="44.50263771297326" lon="9.352571133717682"><ele>811.5</ele><time>2026-04-30T09:03:55.997Z</time></trkpt><trkpt lat="44.502406477593134" lon="9.352482770869639"><ele>815.0</ele><time>2026-04-30T09:03:56.997Z</time></trkpt><trkpt lat="44.50220963415482" lon="9.352375980607134"><ele>814.3333333333334</ele><time>2026-04-30T09:03:57.997Z</time></trkpt><trkpt lat="44.502007558964564" lon="9.352243547256645"><ele>813.6666666666667</ele><time>2026-04-30T09:03:58.997Z</time></trkpt><trkpt lat="44.501845008708315" lon="9.352079438457357"><ele>813.0</ele><time>2026-04-30T09:03:59.997Z</time></trkpt><trkpt lat="44.5017324558779" lon="9.351923494219088"><ele>813.0</ele><time>2026-04-30T09:04:00.997Z</time></trkpt><trkpt lat="44.501599584483145" lon="9.351726053383604"><ele>813.0</ele><time>2026-04-30T09:04:01.997Z</time></trkpt><trkpt lat="44.501465083941376" lon="9.35152562922302"><ele>813.0</ele><time>2026-04-30T09:04:02.997Z</time></trkpt><trkpt lat="44.50135114772087" lon="9.351350174686557"><ele>812.75</ele><time>2026-04-30T09:04:03.997Z</time></trkpt><trkpt lat="44.50127371460175" lon="9.351187944127213"><ele>812.5</ele><time>2026-04-30T09:04:04.997Z</time></trkpt><trkpt lat="44.50120547471796" lon="9.351021837319726"><ele>812.25</ele><time>2026-04-30T09:04:05.997Z</time></trkpt><trkpt lat="44.501145613447854" lon="9.350835463841289"><ele>812.0</ele><time>2026-04-30T09:04:06.997Z</time></trkpt><trkpt lat="44.501066295950594" lon="9.350679254424566"><ele>812.0</ele><time>2026-04-30T09:04:07.997Z</time></trkpt><trkpt lat="44.501001797489806" lon="9.350559524538184"><ele>812.0</ele><time>2026-04-30T09:04:08.997Z</time></trkpt><trkpt lat="44.50091071063469" lon="9.350525860406846"><ele>812.0</ele><time>2026-04-30T09:04:09.997Z</time></trkpt><trkpt lat="44.50081393280141" lon="9.350518982799295"><ele>812.0</ele><time>2026-04-30T09:04:10.997Z</time></trkpt><trkpt lat="44.5006672239336" lon="9.350524500357492"><ele>812.0</ele><time>2026-04-30T09:04:11.997Z</time></trkpt><trkpt lat="44.500482169125384" lon="9.35057730084162"><ele>812.0</ele><time>2026-04-30T09:04:12.997Z</time></trkpt><trkpt lat="44.500327952028876" lon="9.350570077623479"><ele>812.0</ele><time>2026-04-30T09:04:13.997Z</time></trkpt><trkpt lat="44.50018326651953" lon="9.350560122793391"><ele>812.0</ele><time>2026-04-30T09:04:14.997Z</time></trkpt><trkpt lat="44.50003993878342" lon="9.350595055229292"><ele>812.0</ele><time>2026-04-30T09:04:15.997Z</time></trkpt><trkpt lat="44.49988978449436" lon="9.350675291090258"><ele>812.0</ele><time>2026-04-30T09:04:16.997Z</time></trkpt><trkpt lat="44.499768244933136" lon="9.350779892105695"><ele>812.0</ele><time>2026-04-30T09:04:17.997Z</time></trkpt><trkpt lat="44.49965301323447" lon="9.350905622830604"><ele>812.0</ele><time>2026-04-30T09:04:18.997Z</time></trkpt><trkpt lat="44.499530455836044" lon="9.350994804679429"><ele>812.0</ele><time>2026-04-30T09:04:19.997Z</time></trkpt><trkpt lat="44.499408500970574" lon="9.351068766865298"><ele>812.25</ele><time>2026-04-30T09:04:20.997Z</time></trkpt><trkpt lat="44.49928695047796" lon="9.351179805356333"><ele>812.5</ele><time>2026-04-30T09:04:21.997Z</time></trkpt><trkpt lat="44.49917323523515" lon="9.351288144347"><ele>812.75</ele><time>2026-04-30T09:04:22.997Z</time></trkpt><trkpt lat="44.49905324644274" lon="9.35138209108592"><ele>813.0</ele><time>2026-04-30T09:04:23.997Z</time></trkpt><trkpt lat="44.498919795882976" lon="9.351468936407972"><ele>813.0</ele><time>2026-04-30T09:04:24.997Z</time></trkpt><trkpt lat="44.4987832651036" lon="9.351553750796768"><ele>813.0</ele><time>2026-04-30T09:04:25.997Z</time></trkpt><trkpt lat="44.498675434176036" lon="9.351608748372096"><ele>813.0</ele><time>2026-04-30T09:04:26.997Z</time></trkpt><trkpt lat="44.49857482197285" lon="9.3516339712307"><ele>813.0</ele><time>2026-04-30T09:04:27.997Z</time></trkpt><trkpt lat="44.49848111272713" lon="9.35161721258352"><ele>812.0</ele><time>2026-04-30T09:04:29.001Z</time></trkpt><trkpt lat="44.49839582880458" lon="9.351558636006835"><ele>811.0</ele><time>2026-04-30T09:04:30.001Z</time></trkpt><trkpt lat="44.498302705447855" lon="9.35141707342917"><ele>810.0</ele><time>2026-04-30T09:04:31.001Z</time></trkpt><trkpt lat="44.49820860437317" lon="9.351259316032145"><ele>809.0</ele><time>2026-04-30T09:04:32.001Z</time></trkpt><trkpt lat="44.49809532097202" lon="9.351090034513593"><ele>809.0</ele><time>2026-04-30T09:04:33.001Z</time></trkpt><trkpt lat="44.49797133951582" lon="9.350939060908948"><ele>809.0</ele><time>2026-04-30T09:04:34.001Z</time></trkpt><trkpt lat="44.497811577951424" lon="9.35079305740501"><ele>809.0</ele><time>2026-04-30T09:04:35.001Z</time></trkpt><trkpt lat="44.49768040284852" lon="9.35063163892124"><ele>809.5</ele><time>2026-04-30T09:04:36.001Z</time></trkpt><trkpt lat="44.497550464160085" lon="9.350488490067283"><ele>810.0</ele><time>2026-04-30T09:04:37.001Z</time></trkpt><trkpt lat="44.4974526127346" lon="9.350360184501948"><ele>810.5</ele><time>2026-04-30T09:04:38.001Z</time></trkpt><trkpt lat="44.49734684449685" lon="9.350220349825616"><ele>811.0</ele><time>2026-04-30T09:04:39.001Z</time></trkpt><trkpt lat="44.49722319604112" lon="9.350102574073013"><ele>811.0</ele><time>2026-04-30T09:04:40.001Z</time></trkpt><trkpt lat="44.497108485802876" lon="9.350013163807656"><ele>811.0</ele><time>2026-04-30T09:04:41.001Z</time></trkpt><trkpt lat="44.49703514711529" lon="9.349931556051457"><ele>811.0</ele><time>2026-04-30T09:04:42.001Z</time></trkpt><trkpt lat="44.49698335786337" lon="9.349860963949144"><ele>811.0</ele><time>2026-04-30T09:04:43.001Z</time></trkpt><trkpt lat="44.49692378981815" lon="9.349755803616182"><ele>811.0</ele><time>2026-04-30T09:04:44.001Z</time></trkpt><trkpt lat="44.496878335122695" lon="9.34961490777103"><ele>814.3333333333333</ele><time>2026-04-30T09:04:45.001Z</time></trkpt><trkpt lat="44.49683393796081" lon="9.34944118272721"><ele>817.6666666666667</ele><time>2026-04-30T09:04:46Z</time></trkpt><trkpt lat="44.496784303989706" lon="9.349234062387817"><ele>821.0</ele><time>2026-04-30T09:04:47Z</time></trkpt><trkpt lat="44.49673049856286" lon="9.349001270002812"><ele>819.3333333333334</ele><time>2026-04-30T09:04:48Z</time></trkpt><trkpt lat="44.496681885747066" lon="9.348790943727684"><ele>817.6666666666667</ele><time>2026-04-30T09:04:49Z</time></trkpt><trkpt lat="44.49663483800939" lon="9.348576912472222"><ele>816.0</ele><time>2026-04-30T09:04:50Z</time></trkpt><trkpt lat="44.49659247667651" lon="9.348359376462284"><ele>816.0</ele><time>2026-04-30T09:04:51Z</time></trkpt><trkpt lat="44.496554749793646" lon="9.34813846216898"><ele>816.0</ele><time>2026-04-30T09:04:52Z</time></trkpt><trkpt lat="44.49652527232798" lon="9.34791294157789"><ele>816.0</ele><time>2026-04-30T09:04:53Z</time></trkpt><trkpt lat="44.49648202624498" lon="9.34768261945285"><ele>815.0</ele><time>2026-04-30T09:04:54Z</time></trkpt><trkpt lat="44.496416995685884" lon="9.34747472295758"><ele>814.0</ele><time>2026-04-30T09:04:55Z</time></trkpt><trkpt lat="44.49635331461511" lon="9.347346788846103"><ele>813.0</ele><time>2026-04-30T09:04:56Z</time></trkpt><trkpt lat="44.496252653879026" lon="9.347211044266627"><ele>812.0</ele><time>2026-04-30T09:04:57Z</time></trkpt><trkpt lat="44.49613993570015" lon="9.347078941068961"><ele>812.0</ele><time>2026-04-30T09:04:58Z</time></trkpt><trkpt lat="44.49601083360487" lon="9.34697919381679"><ele>812.0</ele><time>2026-04-30T09:04:59Z</time></trkpt><trkpt lat="44.49587031209075" lon="9.346922244510575"><ele>812.0</ele><time>2026-04-30T09:05:00Z</time></trkpt><trkpt lat="44.495711272777655" lon="9.346899884404424"><ele>812.0</ele><time>2026-04-30T09:05:01Z</time></trkpt><trkpt lat="44.495585053379905" lon="9.34690288954629"><ele>812.0</ele><time>2026-04-30T09:05:02Z</time></trkpt><trkpt lat="44.49548951618797" lon="9.346888345448"><ele>812.0</ele><time>2026-04-30T09:05:03Z</time></trkpt><trkpt lat="44.495401820658735" lon="9.34683816017203"><ele>812.0</ele><time>2026-04-30T09:05:04Z</time></trkpt><trkpt lat="44.49534563252049" lon="9.346755751818218"><ele>812.0</ele><time>2026-04-30T09:05:05Z</time></trkpt><trkpt lat="44.49529555738731" lon="9.346631494017661"><ele>812.25</ele><time>2026-04-30T09:05:06Z</time></trkpt><trkpt lat="44.49525260662348" lon="9.346480023602583"><ele>812.5</ele><time>2026-04-30T09:05:07Z</time></trkpt><trkpt lat="44.495209057994614" lon="9.34632470854693"><ele>812.75</ele><time>2026-04-30T09:05:08Z</time></trkpt><trkpt lat="44.49514514013739" lon="9.346110265042162"><ele>813.0</ele><time>2026-04-30T09:05:09Z</time></trkpt><trkpt lat="44.49513014938526" lon="9.34593721520782"><ele>812.0</ele><time>2026-04-30T09:05:10Z</time></trkpt><trkpt lat="44.49506517237351" lon="9.345758142198905"><ele>811.0</ele><time>2026-04-30T09:05:11Z</time></trkpt><trkpt lat="44.494937257307186" lon="9.345619870533367"><ele>810.0</ele><time>2026-04-30T09:05:12Z</time></trkpt><trkpt lat="44.49483985368989" lon="9.345443530403115"><ele>812.3333333333333</ele><time>2026-04-30T09:05:13Z</time></trkpt><trkpt lat="44.494738944551365" lon="9.345260709306295"><ele>814.6666666666666</ele><time>2026-04-30T09:05:14Z</time></trkpt><trkpt lat="44.494605122087656" lon="9.345077659009677"><ele>817.0</ele><time>2026-04-30T09:05:15Z</time></trkpt><trkpt lat="44.49449827785905" lon="9.344919183009448"><ele>817.0</ele><time>2026-04-30T09:05:16Z</time></trkpt><trkpt lat="44.49438704125342" lon="9.344758246426602"><ele>817.0</ele><time>2026-04-30T09:05:17Z</time></trkpt><trkpt lat="44.49428579187165" lon="9.344596464224644"><ele>817.0</ele><time>2026-04-30T09:05:18Z</time></trkpt><trkpt lat="44.494162391534644" lon="9.344469044059773"><ele>817.3333333333333</ele><time>2026-04-30T09:05:19Z</time></trkpt><trkpt lat="44.49400722027397" lon="9.344346174966928"><ele>817.6666666666667</ele><time>2026-04-30T09:05:20Z</time></trkpt><trkpt lat="44.4938651367947" lon="9.344233289351507"><ele>818.0</ele><time>2026-04-30T09:05:21Z</time></trkpt><trkpt lat="44.49370956475645" lon="9.344111795481327"><ele>818.0</ele><time>2026-04-30T09:05:22Z</time></trkpt><trkpt lat="44.49355267262723" lon="9.344036386384994"><ele>818.0</ele><time>2026-04-30T09:05:23Z</time></trkpt><trkpt lat="44.493418237664095" lon="9.343933263396629"><ele>818.0</ele><time>2026-04-30T09:05:24Z</time></trkpt><trkpt lat="44.49331085820524" lon="9.343819680868007"><ele>819.2</ele><time>2026-04-30T09:05:25Z</time></trkpt><trkpt lat="44.49325134141678" lon="9.34369971217935"><ele>820.4</ele><time>2026-04-30T09:05:26Z</time></trkpt><trkpt lat="44.49324073003711" lon="9.343610768094779"><ele>821.6</ele><time>2026-04-30T09:05:27Z</time></trkpt><trkpt lat="44.49321109469223" lon="9.34346282436883"><ele>822.8000000000001</ele><time>2026-04-30T09:05:28Z</time></trkpt><trkpt lat="44.493181213172846" lon="9.343282666654027"><ele>824.0</ele><time>2026-04-30T09:05:29Z</time></trkpt><trkpt lat="44.4931587118102" lon="9.343085356905874"><ele>823.0</ele><time>2026-04-30T09:05:30Z</time></trkpt><trkpt lat="44.49313644498742" lon="9.342877949296437"><ele>822.0</ele><time>2026-04-30T09:05:31Z</time></trkpt><trkpt lat="44.49310592543729" lon="9.34265825867849"><ele>821.0</ele><time>2026-04-30T09:05:32Z</time></trkpt><trkpt lat="44.49307500351915" lon="9.342435671817341"><ele>821.0</ele><time>2026-04-30T09:05:33Z</time></trkpt><trkpt lat="44.49304481523033" lon="9.342217325940915"><ele>821.0</ele><time>2026-04-30T09:05:34Z</time></trkpt><trkpt lat="44.493016113893695" lon="9.341998437362937"><ele>821.0</ele><time>2026-04-30T09:05:35Z</time></trkpt><trkpt lat="44.49302387480933" lon="9.341810449548584"><ele>820.25</ele><time>2026-04-30T09:05:36Z</time></trkpt><trkpt lat="44.492979847129256" lon="9.341649295151694"><ele>819.5</ele><time>2026-04-30T09:05:37Z</time></trkpt><trkpt lat="44.49296761914582" lon="9.34148283574848"><ele>818.75</ele><time>2026-04-30T09:05:38Z</time></trkpt><trkpt lat="44.49292535880362" lon="9.341323782395255"><ele>818.0</ele><time>2026-04-30T09:05:39Z</time></trkpt><trkpt lat="44.49286177044318" lon="9.341178022838218"><ele>817.3333333333334</ele><time>2026-04-30T09:05:40Z</time></trkpt><trkpt lat="44.49276136882027" lon="9.341010054355177"><ele>816.6666666666667</ele><time>2026-04-30T09:05:41Z</time></trkpt><trkpt lat="44.492636443199714" lon="9.34084452765902"><ele>816.0</ele><time>2026-04-30T09:05:42Z</time></trkpt><trkpt lat="44.49255165164384" lon="9.340663050072818"><ele>818.0</ele><time>2026-04-30T09:05:43Z</time></trkpt><trkpt lat="44.49247616318185" lon="9.340469790169916"><ele>820.0</ele><time>2026-04-30T09:05:44Z</time></trkpt><trkpt lat="44.49237473967059" lon="9.340299225337867"><ele>822.0</ele><time>2026-04-30T09:05:45Z</time></trkpt><trkpt lat="44.49226957785635" lon="9.340166037351317"><ele>822.0</ele><time>2026-04-30T09:05:46Z</time></trkpt><trkpt lat="44.49214520426731" lon="9.340071396533663"><ele>822.0</ele><time>2026-04-30T09:05:47Z</time></trkpt><trkpt lat="44.49203628143173" lon="9.339948693320395"><ele>822.0</ele><time>2026-04-30T09:05:48Z</time></trkpt><trkpt lat="44.49188871013321" lon="9.33983638847424"><ele>822.0</ele><time>2026-04-30T09:05:49Z</time></trkpt><trkpt lat="44.49173981020372" lon="9.339731043665447"><ele>821.6666666666667</ele><time>2026-04-30T09:05:50Z</time></trkpt><trkpt lat="44.491629929814124" lon="9.339586260906415"><ele>821.3333333333334</ele><time>2026-04-30T09:05:51Z</time></trkpt><trkpt lat="44.49148230722549" lon="9.339494256269298"><ele>821.0</ele><time>2026-04-30T09:05:52Z</time></trkpt><trkpt lat="44.49134572197677" lon="9.339400615155505"><ele>820.3333333333334</ele><time>2026-04-30T09:05:53Z</time></trkpt><trkpt lat="44.49117313221962" lon="9.339383082451231"><ele>819.6666666666667</ele><time>2026-04-30T09:05:53.999Z</time></trkpt><trkpt lat="44.49100775260414" lon="9.339319604166473"><ele>819.0</ele><time>2026-04-30T09:05:54.999Z</time></trkpt><trkpt lat="44.49086167150682" lon="9.339246072677312"><ele>819.0</ele><time>2026-04-30T09:05:55.999Z</time></trkpt><trkpt lat="44.49072046050257" lon="9.339177107175495"><ele>819.0</ele><time>2026-04-30T09:05:56.999Z</time></trkpt><trkpt lat="44.49058550338847" lon="9.339078819127902"><ele>819.0</ele><time>2026-04-30T09:05:57.999Z</time></trkpt><trkpt lat="44.49044794191032" lon="9.338965780411698"><ele>819.6666666666667</ele><time>2026-04-30T09:05:58.999Z</time></trkpt><trkpt lat="44.490321646978344" lon="9.338838202095783"><ele>820.3333333333334</ele><time>2026-04-30T09:05:59.999Z</time></trkpt><trkpt lat="44.49020648852259" lon="9.338671321759591"><ele>821.0</ele><time>2026-04-30T09:06:00.999Z</time></trkpt><trkpt lat="44.490113000622515" lon="9.338501874762391"><ele>821.0</ele><time>2026-04-30T09:06:01.999Z</time></trkpt><trkpt lat="44.49000443192178" lon="9.338292406200217"><ele>821.0</ele><time>2026-04-30T09:06:02.999Z</time></trkpt><trkpt lat="44.489879806339964" lon="9.338102085104971"><ele>821.0</ele><time>2026-04-30T09:06:03.999Z</time></trkpt><trkpt lat="44.48972793217371" lon="9.337914750685414"><ele>821.0</ele><time>2026-04-30T09:06:04.999Z</time></trkpt><trkpt lat="44.48957751996313" lon="9.337682729980713"><ele>821.0</ele><time>2026-04-30T09:06:05.999Z</time></trkpt><trkpt lat="44.489413289594374" lon="9.337486859631703"><ele>821.0</ele><time>2026-04-30T09:06:06.999Z</time></trkpt><trkpt lat="44.4892702659838" lon="9.337249893532945"><ele>823.5</ele><time>2026-04-30T09:06:07.999Z</time></trkpt><trkpt lat="44.48908212535315" lon="9.337017632846576"><ele>826.0</ele><time>2026-04-30T09:06:08.999Z</time></trkpt><trkpt lat="44.488893100166635" lon="9.336749855159322"><ele>824.0</ele><time>2026-04-30T09:06:09.999Z</time></trkpt><trkpt lat="44.48874177678047" lon="9.33653561165781"><ele>822.0</ele><time>2026-04-30T09:06:10.999Z</time></trkpt><trkpt lat="44.48860641950541" lon="9.33634863522307"><ele>820.0</ele><time>2026-04-30T09:06:11.999Z</time></trkpt><trkpt lat="44.48846628738997" lon="9.336183173320412"><ele>827.3333333333333</ele><time>2026-04-30T09:06:12.999Z</time></trkpt><trkpt lat="44.488316715586436" lon="9.336039280442249"><ele>834.6666666666667</ele><time>2026-04-30T09:06:13.999Z</time></trkpt><trkpt lat="44.488165163650784" lon="9.33587317153369"><ele>842.0</ele><time>2026-04-30T09:06:14.999Z</time></trkpt><trkpt lat="44.48797679357869" lon="9.335731912587352"><ele>842.0</ele><time>2026-04-30T09:06:15.999Z</time></trkpt><trkpt lat="44.48778286222558" lon="9.335616433667814"><ele>842.0</ele><time>2026-04-30T09:06:16.999Z</time></trkpt><trkpt lat="44.487580865878414" lon="9.33548811250419"><ele>842.0</ele><time>2026-04-30T09:06:17.999Z</time></trkpt><trkpt lat="44.48739076655422" lon="9.335379240813575"><ele>842.0</ele><time>2026-04-30T09:06:18.999Z</time></trkpt><trkpt lat="44.487191745277684" lon="9.335256574274197"><ele>842.0</ele><time>2026-04-30T09:06:19.999Z</time></trkpt><trkpt lat="44.48700256408763" lon="9.335116724809993"><ele>842.0</ele><time>2026-04-30T09:06:20.999Z</time></trkpt><trkpt lat="44.486832054154924" lon="9.33496587946217"><ele>838.0</ele><time>2026-04-30T09:06:21.999Z</time></trkpt><trkpt lat="44.48668318013551" lon="9.334784178009922"><ele>834.0</ele><time>2026-04-30T09:06:22.999Z</time></trkpt><trkpt lat="44.48652515145231" lon="9.334613406673443"><ele>830.0</ele><time>2026-04-30T09:06:23.999Z</time></trkpt><trkpt lat="44.48639014530327" lon="9.334453081726329"><ele>830.0</ele><time>2026-04-30T09:06:24.999Z</time></trkpt><trkpt lat="44.48627107538727" lon="9.334326557099228"><ele>830.0</ele><time>2026-04-30T09:06:25.999Z</time></trkpt><trkpt lat="44.48618362064481" lon="9.334163013113685"><ele>830.0</ele><time>2026-04-30T09:06:26.999Z</time></trkpt><trkpt lat="44.48612174627194" lon="9.334000116483871"><ele>830.0</ele><time>2026-04-30T09:06:27.999Z</time></trkpt><trkpt lat="44.48604585172504" lon="9.333798454482615"><ele>829.3333333333334</ele><time>2026-04-30T09:06:28.999Z</time></trkpt><trkpt lat="44.48595322161694" lon="9.333548575636453"><ele>828.6666666666667</ele><time>2026-04-30T09:06:29.999Z</time></trkpt><trkpt lat="44.48586378539946" lon="9.333306320899878"><ele>828.0</ele><time>2026-04-30T09:06:30.999Z</time></trkpt><trkpt lat="44.48577629847053" lon="9.33307019016539"><ele>831.6666666666667</ele><time>2026-04-30T09:06:31.999Z</time></trkpt><trkpt lat="44.48567221893481" lon="9.332831835884216"><ele>835.3333333333334</ele><time>2026-04-30T09:06:32.999Z</time></trkpt><trkpt lat="44.485575555234085" lon="9.332579069004472"><ele>839.0</ele><time>2026-04-30T09:06:33.999Z</time></trkpt><trkpt lat="44.48546632318191" lon="9.332300750452747"><ele>838.3333333333334</ele><time>2026-04-30T09:06:34.999Z</time></trkpt><trkpt lat="44.48533154677421" lon="9.332050462122739"><ele>837.6666666666667</ele><time>2026-04-30T09:06:35.999Z</time></trkpt><trkpt lat="44.48520550339877" lon="9.33184659543299"><ele>837.0</ele><time>2026-04-30T09:06:36.999Z</time></trkpt><trkpt lat="44.48506576791406" lon="9.3316558522747"><ele>837.0</ele><time>2026-04-30T09:06:37.999Z</time></trkpt><trkpt lat="44.48492024909475" lon="9.331462799740288"><ele>837.0</ele><time>2026-04-30T09:06:38.999Z</time></trkpt><trkpt lat="44.484736683478815" lon="9.331308574466732"><ele>837.0</ele><time>2026-04-30T09:06:39.999Z</time></trkpt><trkpt lat="44.4845814320685" lon="9.331108952264003"><ele>835.6666666666667</ele><time>2026-04-30T09:06:40.999Z</time></trkpt><trkpt lat="44.48442153707367" lon="9.330930873838842"><ele>834.3333333333334</ele><time>2026-04-30T09:06:41.999Z</time></trkpt><trkpt lat="44.48424489013574" lon="9.3307278731172"><ele>833.0</ele><time>2026-04-30T09:06:42.999Z</time></trkpt><trkpt lat="44.48408276009334" lon="9.330526003889691"><ele>831.3333333333334</ele><time>2026-04-30T09:06:43.999Z</time></trkpt><trkpt lat="44.4839314138031" lon="9.330300602365979"><ele>829.6666666666667</ele><time>2026-04-30T09:06:44.999Z</time></trkpt><trkpt lat="44.48375953927064" lon="9.330095979621433"><ele>828.0</ele><time>2026-04-30T09:06:45.999Z</time></trkpt><trkpt lat="44.48359575310902" lon="9.329906767214773"><ele>828.0</ele><time>2026-04-30T09:06:46.999Z</time></trkpt><trkpt lat="44.483422992940355" lon="9.32974695094992"><ele>828.0</ele><time>2026-04-30T09:06:47.999Z</time></trkpt><trkpt lat="44.4832520365009" lon="9.329569410726696"><ele>828.0</ele><time>2026-04-30T09:06:48.999Z</time></trkpt><trkpt lat="44.48310279657662" lon="9.329358685348808"><ele>828.0</ele><time>2026-04-30T09:06:49.999Z</time></trkpt><trkpt lat="44.482962108467206" lon="9.329190753407534"><ele>828.0</ele><time>2026-04-30T09:06:50.999Z</time></trkpt><trkpt lat="44.48284531976922" lon="9.329021519411024"><ele>828.0</ele><time>2026-04-30T09:06:51.999Z</time></trkpt><trkpt lat="44.482693846969326" lon="9.328893254950737"><ele>831.6666666666667</ele><time>2026-04-30T09:06:52.999Z</time></trkpt><trkpt lat="44.48252678113629" lon="9.328771444162884"><ele>835.3333333333334</ele><time>2026-04-30T09:06:53.999Z</time></trkpt><trkpt lat="44.48234394852655" lon="9.328682553442016"><ele>839.0</ele><time>2026-04-30T09:06:54.999Z</time></trkpt><trkpt lat="44.48217066994959" lon="9.328554775062685"><ele>836.0</ele><time>2026-04-30T09:06:55.999Z</time></trkpt><trkpt lat="44.48198848926039" lon="9.328450148483602"><ele>833.0</ele><time>2026-04-30T09:06:56.999Z</time></trkpt><trkpt lat="44.481826728073656" lon="9.328334811690269"><ele>830.0</ele><time>2026-04-30T09:06:57.999Z</time></trkpt><trkpt lat="44.48166770357547" lon="9.32818775175649"><ele>830.0</ele><time>2026-04-30T09:06:58.999Z</time></trkpt><trkpt lat="44.48150465671509" lon="9.328047773105553"><ele>830.0</ele><time>2026-04-30T09:06:59.999Z</time></trkpt><trkpt lat="44.4813443782105" lon="9.327891501081952"><ele>830.0</ele><time>2026-04-30T09:07:00.999Z</time></trkpt><trkpt lat="44.48118576616944" lon="9.3277314018895"><ele>830.0</ele><time>2026-04-30T09:07:01.999Z</time></trkpt><trkpt lat="44.48104874595397" lon="9.327536125505166"><ele>830.0</ele><time>2026-04-30T09:07:02.999Z</time></trkpt><trkpt lat="44.48089617306526" lon="9.327334962844134"><ele>830.0</ele><time>2026-04-30T09:07:03.999Z</time></trkpt><trkpt lat="44.4807098302043" lon="9.327170775967351"><ele>831.3333333333334</ele><time>2026-04-30T09:07:04.999Z</time></trkpt><trkpt lat="44.48056202141201" lon="9.32697766806136"><ele>832.6666666666667</ele><time>2026-04-30T09:07:05.999Z</time></trkpt><trkpt lat="44.48041878943659" lon="9.32678543892225"><ele>834.0</ele><time>2026-04-30T09:07:06.999Z</time></trkpt><trkpt lat="44.48027045764237" lon="9.326624223967908"><ele>830.6666666666667</ele><time>2026-04-30T09:07:07.999Z</time></trkpt><trkpt lat="44.480102276520626" lon="9.326492315041161"><ele>827.3333333333334</ele><time>2026-04-30T09:07:08.999Z</time></trkpt><trkpt lat="44.479929146970065" lon="9.326406798803506"><ele>824.0</ele><time>2026-04-30T09:07:09.999Z</time></trkpt><trkpt lat="44.47973274370455" lon="9.326351835774723"><ele>823.3333333333334</ele><time>2026-04-30T09:07:10.999Z</time></trkpt><trkpt lat="44.47955196528993" lon="9.326295853706004"><ele>822.6666666666667</ele><time>2026-04-30T09:07:11.999Z</time></trkpt><trkpt lat="44.47937210221026" lon="9.326219363748582"><ele>822.0</ele><time>2026-04-30T09:07:12.999Z</time></trkpt><trkpt lat="44.47919351921914" lon="9.326152269678976"><ele>822.0</ele><time>2026-04-30T09:07:13.999Z</time></trkpt><trkpt lat="44.47901648116659" lon="9.326076103671012"><ele>822.0</ele><time>2026-04-30T09:07:14.999Z</time></trkpt><trkpt lat="44.47885077701375" lon="9.326005095864279"><ele>822.0</ele><time>2026-04-30T09:07:15.999Z</time></trkpt><trkpt lat="44.47869281029492" lon="9.325938648664456"><ele>822.25</ele><time>2026-04-30T09:07:16.999Z</time></trkpt><trkpt lat="44.47854762486704" lon="9.32586660866644"><ele>822.5</ele><time>2026-04-30T09:07:17.999Z</time></trkpt><trkpt lat="44.47844440024715" lon="9.325744163911924"><ele>822.75</ele><time>2026-04-30T09:07:18.999Z</time></trkpt><trkpt lat="44.47835548355447" lon="9.325580836335085"><ele>823.0</ele><time>2026-04-30T09:07:19.999Z</time></trkpt><trkpt lat="44.47828223727997" lon="9.325407932289538"><ele>823.0</ele><time>2026-04-30T09:07:20.999Z</time></trkpt><trkpt lat="44.47820169000255" lon="9.325234481353379"><ele>823.0</ele><time>2026-04-30T09:07:21.999Z</time></trkpt><trkpt lat="44.47811789161247" lon="9.325067441120323"><ele>823.0</ele><time>2026-04-30T09:07:22.999Z</time></trkpt><trkpt lat="44.47801484252048" lon="9.324932294125585"><ele>823.0</ele><time>2026-04-30T09:07:23.999Z</time></trkpt><trkpt lat="44.47788330699341" lon="9.324856154735446"><ele>824.3333333333333</ele><time>2026-04-30T09:07:24.999Z</time></trkpt><trkpt lat="44.47772281092708" lon="9.324771874063327"><ele>825.6666666666667</ele><time>2026-04-30T09:07:25.999Z</time></trkpt><trkpt lat="44.477554171986505" lon="9.324682560523694"><ele>827.0</ele><time>2026-04-30T09:07:26.999Z</time></trkpt><trkpt lat="44.47737836243902" lon="9.324601634053856"><ele>828.3333333333334</ele><time>2026-04-30T09:07:27.998Z</time></trkpt><trkpt lat="44.47720867412553" lon="9.324518526489761"><ele>829.6666666666667</ele><time>2026-04-30T09:07:28.998Z</time></trkpt><trkpt lat="44.47702579996419" lon="9.324439300927308"><ele>831.0</ele><time>2026-04-30T09:07:29.998Z</time></trkpt><trkpt lat="44.476881792024095" lon="9.324344894334734"><ele>831.0</ele><time>2026-04-30T09:07:30.998Z</time></trkpt><trkpt lat="44.47674202688457" lon="9.324253426484622"><ele>831.0</ele><time>2026-04-30T09:07:31.998Z</time></trkpt><trkpt lat="44.47661033170174" lon="9.324173631142084"><ele>831.0</ele><time>2026-04-30T09:07:32.998Z</time></trkpt><trkpt lat="44.47647788389672" lon="9.32412466909515"><ele>831.0</ele><time>2026-04-30T09:07:33.998Z</time></trkpt><trkpt lat="44.476347447687694" lon="9.324094725842963"><ele>829.0</ele><time>2026-04-30T09:07:34.998Z</time></trkpt><trkpt lat="44.47621570502357" lon="9.3241532187773"><ele>827.0</ele><time>2026-04-30T09:07:35.998Z</time></trkpt><trkpt lat="44.47604370547377" lon="9.324216583534442"><ele>825.0</ele><time>2026-04-30T09:07:36.998Z</time></trkpt><trkpt lat="44.475892712921535" lon="9.324340286476243"><ele>825.0</ele><time>2026-04-30T09:07:37.998Z</time></trkpt><trkpt lat="44.47576930265916" lon="9.324542222211296"><ele>825.0</ele><time>2026-04-30T09:07:38.998Z</time></trkpt><trkpt lat="44.47565101810731" lon="9.324676900171774"><ele>825.0</ele><time>2026-04-30T09:07:39.998Z</time></trkpt><trkpt lat="44.47552128320365" lon="9.324809582281468"><ele>827.75</ele><time>2026-04-30T09:07:40.998Z</time></trkpt><trkpt lat="44.47538023107987" lon="9.324884898291929"><ele>830.5</ele><time>2026-04-30T09:07:41.998Z</time></trkpt><trkpt lat="44.47524023210809" lon="9.32491650674519"><ele>833.25</ele><time>2026-04-30T09:07:42.998Z</time></trkpt><trkpt lat="44.47511639834507" lon="9.324898127792927"><ele>836.0</ele><time>2026-04-30T09:07:43.998Z</time></trkpt><trkpt lat="44.47498964662988" lon="9.32483290856086"><ele>836.0</ele><time>2026-04-30T09:07:44.998Z</time></trkpt><trkpt lat="44.47484827132283" lon="9.324743290302354"><ele>836.0</ele><time>2026-04-30T09:07:45.998Z</time></trkpt><trkpt lat="44.474690131751196" lon="9.324632480064427"><ele>836.0</ele><time>2026-04-30T09:07:46.998Z</time></trkpt><trkpt lat="44.47449732456829" lon="9.324501849088229"><ele>835.0</ele><time>2026-04-30T09:07:47.998Z</time></trkpt><trkpt lat="44.474318868736496" lon="9.324404095230605"><ele>834.0</ele><time>2026-04-30T09:07:48.998Z</time></trkpt><trkpt lat="44.47415044668392" lon="9.324288944651805"><ele>833.0</ele><time>2026-04-30T09:07:49.998Z</time></trkpt><trkpt lat="44.473988263339656" lon="9.324190430203661"><ele>833.0</ele><time>2026-04-30T09:07:50.998Z</time></trkpt><trkpt lat="44.473849433353195" lon="9.32409755398535"><ele>833.0</ele><time>2026-04-30T09:07:51.998Z</time></trkpt><trkpt lat="44.473700108792485" lon="9.324004034978085"><ele>833.0</ele><time>2026-04-30T09:07:52.998Z</time></trkpt><trkpt lat="44.47356002497458" lon="9.323922345205425"><ele>833.75</ele><time>2026-04-30T09:07:53.998Z</time></trkpt><trkpt lat="44.47341795150671" lon="9.323910149151104"><ele>834.5</ele><time>2026-04-30T09:07:54.998Z</time></trkpt><trkpt lat="44.47326294934936" lon="9.323956456712084"><ele>835.25</ele><time>2026-04-30T09:07:55.998Z</time></trkpt><trkpt lat="44.47312670948236" lon="9.324016192179679"><ele>836.0</ele><time>2026-04-30T09:07:56.998Z</time></trkpt><trkpt lat="44.472984774096425" lon="9.32408738436465"><ele>835.3333333333334</ele><time>2026-04-30T09:07:57.998Z</time></trkpt><trkpt lat="44.472826254936805" lon="9.324151338458755"><ele>834.6666666666667</ele><time>2026-04-30T09:07:58.998Z</time></trkpt><trkpt lat="44.47268430832176" lon="9.324245893203681"><ele>834.0</ele><time>2026-04-30T09:07:59.998Z</time></trkpt><trkpt lat="44.47252813277947" lon="9.324339836944985"><ele>834.0</ele><time>2026-04-30T09:08:00.998Z</time></trkpt><trkpt lat="44.47238633715167" lon="9.324429607411826"><ele>834.0</ele><time>2026-04-30T09:08:01.998Z</time></trkpt><trkpt lat="44.4722514070179" lon="9.324512840538045"><ele>834.0</ele><time>2026-04-30T09:08:02.998Z</time></trkpt><trkpt lat="44.47211490315831" lon="9.324544779715811"><ele>834.0</ele><time>2026-04-30T09:08:03.998Z</time></trkpt><trkpt lat="44.47197702357768" lon="9.324556776241225"><ele>833.75</ele><time>2026-04-30T09:08:04.998Z</time></trkpt><trkpt lat="44.47184410434283" lon="9.324561082194485"><ele>833.5</ele><time>2026-04-30T09:08:05.998Z</time></trkpt><trkpt lat="44.47171706560586" lon="9.324574441860726"><ele>833.25</ele><time>2026-04-30T09:08:06.998Z</time></trkpt><trkpt lat="44.47159326478257" lon="9.324644841990647"><ele>833.0</ele><time>2026-04-30T09:08:07.998Z</time></trkpt><trkpt lat="44.47150169105833" lon="9.324779785620601"><ele>836.3333333333334</ele><time>2026-04-30T09:08:08.998Z</time></trkpt><trkpt lat="44.471435671119536" lon="9.324956186595644"><ele>839.6666666666667</ele><time>2026-04-30T09:08:09.998Z</time></trkpt><trkpt lat="44.47138482350949" lon="9.32517452821396"><ele>843.0</ele><time>2026-04-30T09:08:10.998Z</time></trkpt><trkpt lat="44.47135112613682" lon="9.32541988502652"><ele>845.0</ele><time>2026-04-30T09:08:11.998Z</time></trkpt><trkpt lat="44.47130504226911" lon="9.32563828010815"><ele>847.0</ele><time>2026-04-30T09:08:12.998Z</time></trkpt><trkpt lat="44.47126240790139" lon="9.325849457445377"><ele>849.0</ele><time>2026-04-30T09:08:13.998Z</time></trkpt><trkpt lat="44.4712130445367" lon="9.326047365747026"><ele>848.5</ele><time>2026-04-30T09:08:14.998Z</time></trkpt><trkpt lat="44.471152108075124" lon="9.326193967144222"><ele>848.0</ele><time>2026-04-30T09:08:15.998Z</time></trkpt><trkpt lat="44.471057278281776" lon="9.326322222282897"><ele>847.5</ele><time>2026-04-30T09:08:16.998Z</time></trkpt><trkpt lat="44.47094721986794" lon="9.326365762712317"><ele>847.0</ele><time>2026-04-30T09:08:17.998Z</time></trkpt><trkpt lat="44.470809854879555" lon="9.326430857906816"><ele>847.0</ele><time>2026-04-30T09:08:18.998Z</time></trkpt><trkpt lat="44.4706547433248" lon="9.3265006075719"><ele>847.0</ele><time>2026-04-30T09:08:19.998Z</time></trkpt><trkpt lat="44.470526727862584" lon="9.326529618582818"><ele>847.0</ele><time>2026-04-30T09:08:20.998Z</time></trkpt><trkpt lat="44.47040028032918" lon="9.326502547104118"><ele>847.0</ele><time>2026-04-30T09:08:21.998Z</time></trkpt><trkpt lat="44.470283051192105" lon="9.32643185462291"><ele>844.0</ele><time>2026-04-30T09:08:22.998Z</time></trkpt><trkpt lat="44.47012030232" lon="9.326341712458468"><ele>841.0</ele><time>2026-04-30T09:08:23.998Z</time></trkpt><trkpt lat="44.46994839312732" lon="9.326318249785334"><ele>838.0</ele><time>2026-04-30T09:08:24.998Z</time></trkpt><trkpt lat="44.469798114971255" lon="9.326356876221428"><ele>838.3333333333333</ele><time>2026-04-30T09:08:25.998Z</time></trkpt><trkpt lat="44.46965938756674" lon="9.326425485409887"><ele>838.6666666666667</ele><time>2026-04-30T09:08:26.998Z</time></trkpt><trkpt lat="44.469521668104676" lon="9.326582674780642"><ele>839.0</ele><time>2026-04-30T09:08:27.998Z</time></trkpt><trkpt lat="44.469404433804264" lon="9.326771518263415"><ele>839.0</ele><time>2026-04-30T09:08:28.998Z</time></trkpt><trkpt lat="44.46929227085088" lon="9.326943375456352"><ele>839.0</ele><time>2026-04-30T09:08:29.998Z</time></trkpt><trkpt lat="44.46915849468166" lon="9.327146838909968"><ele>839.0</ele><time>2026-04-30T09:08:30.998Z</time></trkpt><trkpt lat="44.469030945402146" lon="9.3273505111579"><ele>839.75</ele><time>2026-04-30T09:08:31.998Z</time></trkpt><trkpt lat="44.468918675857026" lon="9.32754507434638"><ele>840.5</ele><time>2026-04-30T09:08:32.998Z</time></trkpt><trkpt lat="44.46881637880335" lon="9.327688392091476"><ele>841.25</ele><time>2026-04-30T09:08:33.998Z</time></trkpt><trkpt lat="44.46872045131696" lon="9.32776236553634"><ele>842.0</ele><time>2026-04-30T09:08:34.998Z</time></trkpt><trkpt lat="44.46858753458387" lon="9.327815420898828"><ele>842.0</ele><time>2026-04-30T09:08:35.998Z</time></trkpt><trkpt lat="44.46842895290643" lon="9.327874103830359"><ele>842.0</ele><time>2026-04-30T09:08:36.998Z</time></trkpt><trkpt lat="44.46829522980473" lon="9.327910235075812"><ele>842.0</ele><time>2026-04-30T09:08:37.998Z</time></trkpt><trkpt lat="44.46814685933815" lon="9.327896619499452"><ele>842.0</ele><time>2026-04-30T09:08:38.998Z</time></trkpt><trkpt lat="44.468011837680464" lon="9.327797655944206"><ele>842.3333333333334</ele><time>2026-04-30T09:08:39.998Z</time></trkpt><trkpt lat="44.46787295653724" lon="9.327657975776814"><ele>842.6666666666667</ele><time>2026-04-30T09:08:40.998Z</time></trkpt><trkpt lat="44.46774443460627" lon="9.327529183422373"><ele>843.0</ele><time>2026-04-30T09:08:41.998Z</time></trkpt><trkpt lat="44.46761093373088" lon="9.327450934655293"><ele>843.0</ele><time>2026-04-30T09:08:42.998Z</time></trkpt><trkpt lat="44.46748260071378" lon="9.327437596360562"><ele>843.0</ele><time>2026-04-30T09:08:43.998Z</time></trkpt><trkpt lat="44.46738051812322" lon="9.327519615628933"><ele>843.0</ele><time>2026-04-30T09:08:44.998Z</time></trkpt><trkpt lat="44.467356542256425" lon="9.3276783777876"><ele>843.0</ele><time>2026-04-30T09:08:45.998Z</time></trkpt><trkpt lat="44.467374287782256" lon="9.327864609404244"><ele>843.0</ele><time>2026-04-30T09:08:46.998Z</time></trkpt><trkpt lat="44.467360481981544" lon="9.328038080334093"><ele>843.0</ele><time>2026-04-30T09:08:47.998Z</time></trkpt><trkpt lat="44.467335853818916" lon="9.328182345789115"><ele>843.0</ele><time>2026-04-30T09:08:48.998Z</time></trkpt><trkpt lat="44.4672897918012" lon="9.32834220963888"><ele>843.0</ele><time>2026-04-30T09:08:49.998Z</time></trkpt><trkpt lat="44.46720431735161" lon="9.328474660477442"><ele>843.75</ele><time>2026-04-30T09:08:50.998Z</time></trkpt><trkpt lat="44.467081742355475" lon="9.328571928622504"><ele>844.5</ele><time>2026-04-30T09:08:51.998Z</time></trkpt><trkpt lat="44.466936089414" lon="9.3286368211554"><ele>845.25</ele><time>2026-04-30T09:08:52.998Z</time></trkpt><trkpt lat="44.46678814055476" lon="9.32869692775048"><ele>846.0</ele><time>2026-04-30T09:08:53.998Z</time></trkpt><trkpt lat="44.4666491853552" lon="9.328753859517215"><ele>846.0</ele><time>2026-04-30T09:08:54.998Z</time></trkpt><trkpt lat="44.46650779096421" lon="9.328820465121847"><ele>846.0</ele><time>2026-04-30T09:08:55.998Z</time></trkpt><trkpt lat="44.46640769207241" lon="9.328934711112403"><ele>846.0</ele><time>2026-04-30T09:08:56.998Z</time></trkpt><trkpt lat="44.46636288165753" lon="9.329115604972383"><ele>846.0</ele><time>2026-04-30T09:08:57.998Z</time></trkpt><trkpt lat="44.46635413387616" lon="9.329302154307511"><ele>846.8</ele><time>2026-04-30T09:08:58.998Z</time></trkpt><trkpt lat="44.46638780417553" lon="9.32946688849568"><ele>847.5999999999999</ele><time>2026-04-30T09:08:59.998Z</time></trkpt><trkpt lat="44.46645101547996" lon="9.329597446976493"><ele>848.4</ele><time>2026-04-30T09:09:00.998Z</time></trkpt><trkpt lat="44.46650389633372" lon="9.329718677264886"><ele>849.2</ele><time>2026-04-30T09:09:01.997Z</time></trkpt><trkpt lat="44.46650421185178" lon="9.329846232424599"><ele>850.0</ele><time>2026-04-30T09:09:02.997Z</time></trkpt><trkpt lat="44.46647008494938" lon="9.329964452912101"><ele>850.5</ele><time>2026-04-30T09:09:03.997Z</time></trkpt><trkpt lat="44.466395632235304" lon="9.330156283236999"><ele>851.0</ele><time>2026-04-30T09:09:04.997Z</time></trkpt><trkpt lat="44.46632253162179" lon="9.33034947858689"><ele>851.5</ele><time>2026-04-30T09:09:05.997Z</time></trkpt><trkpt lat="44.46626506593928" lon="9.33050672422255"><ele>852.0</ele><time>2026-04-30T09:09:06.997Z</time></trkpt><trkpt lat="44.46620769783936" lon="9.330659409332956"><ele>853.0</ele><time>2026-04-30T09:09:07.997Z</time></trkpt><trkpt lat="44.466157407040406" lon="9.33076385658871"><ele>854.0</ele><time>2026-04-30T09:09:08.997Z</time></trkpt><trkpt lat="44.46610123226037" lon="9.330818468678046"><ele>855.0</ele><time>2026-04-30T09:09:09.997Z</time></trkpt><trkpt lat="44.466015468274406" lon="9.330856000907"><ele>856.0</ele><time>2026-04-30T09:09:10.997Z</time></trkpt><trkpt lat="44.46589102560609" lon="9.330886651414009"><ele>857.0</ele><time>2026-04-30T09:09:11.997Z</time></trkpt><trkpt lat="44.46575794902773" lon="9.330946889653546"><ele>857.0</ele><time>2026-04-30T09:09:12.997Z</time></trkpt><trkpt lat="44.46562243222658" lon="9.331038742120302"><ele>857.0</ele><time>2026-04-30T09:09:13.997Z</time></trkpt><trkpt lat="44.465504156798126" lon="9.331176124902077"><ele>857.0</ele><time>2026-04-30T09:09:14.997Z</time></trkpt><trkpt lat="44.465468832262665" lon="9.331349191298669"><ele>857.0</ele><time>2026-04-30T09:09:15.997Z</time></trkpt><trkpt lat="44.46546345075472" lon="9.331506951051871"><ele>857.4000000000001</ele><time>2026-04-30T09:09:16.997Z</time></trkpt><trkpt lat="44.46542127967742" lon="9.331633224875237"><ele>857.8000000000001</ele><time>2026-04-30T09:09:17.997Z</time></trkpt><trkpt lat="44.465353208077616" lon="9.331716064029843"><ele>858.2</ele><time>2026-04-30T09:09:18.997Z</time></trkpt><trkpt lat="44.465247282824755" lon="9.33179211932213"><ele>858.6</ele><time>2026-04-30T09:09:19.997Z</time></trkpt><trkpt lat="44.4651202782432" lon="9.331875777397698"><ele>859.0</ele><time>2026-04-30T09:09:20.997Z</time></trkpt><trkpt lat="44.46499050608965" lon="9.331954289078544"><ele>859.0</ele><time>2026-04-30T09:09:21.997Z</time></trkpt><trkpt lat="44.464883033953576" lon="9.33200295654279"><ele>859.0</ele><time>2026-04-30T09:09:22.997Z</time></trkpt><trkpt lat="44.464765338729215" lon="9.332064289398776"><ele>859.0</ele><time>2026-04-30T09:09:23.997Z</time></trkpt><trkpt lat="44.464671311860116" lon="9.332146113015638"><ele>859.0</ele><time>2026-04-30T09:09:24.997Z</time></trkpt><trkpt lat="44.46458548051762" lon="9.332282992418149"><ele>862.5</ele><time>2026-04-30T09:09:25.997Z</time></trkpt><trkpt lat="44.46449738227905" lon="9.332414676369819"><ele>866.0</ele><time>2026-04-30T09:09:26.997Z</time></trkpt><trkpt lat="44.464398459610436" lon="9.332498186067271"><ele>869.5</ele><time>2026-04-30T09:09:27.997Z</time></trkpt><trkpt lat="44.46425396772106" lon="9.332534556661315"><ele>873.0</ele><time>2026-04-30T09:09:28.997Z</time></trkpt><trkpt lat="44.4641205296859" lon="9.33250755433694"><ele>873.0</ele><time>2026-04-30T09:09:29.997Z</time></trkpt><trkpt lat="44.464012331387515" lon="9.33247778068623"><ele>873.0</ele><time>2026-04-30T09:09:30.997Z</time></trkpt><trkpt lat="44.46390352512889" lon="9.332437842386211"><ele>873.0</ele><time>2026-04-30T09:09:31.997Z</time></trkpt><trkpt lat="44.46376972795912" lon="9.332474744760328"><ele>873.0</ele><time>2026-04-30T09:09:32.997Z</time></trkpt><trkpt lat="44.46365597097128" lon="9.33257416520992"><ele>871.25</ele><time>2026-04-30T09:09:33.997Z</time></trkpt><trkpt lat="44.46353299913234" lon="9.332661713409433"><ele>869.5</ele><time>2026-04-30T09:09:34.997Z</time></trkpt><trkpt lat="44.463400489232086" lon="9.332703745968523"><ele>867.75</ele><time>2026-04-30T09:09:35.997Z</time></trkpt><trkpt lat="44.463253012363474" lon="9.332766244827976"><ele>866.0</ele><time>2026-04-30T09:09:36.997Z</time></trkpt><trkpt lat="44.463154611776815" lon="9.332875175583732"><ele>866.0</ele><time>2026-04-30T09:09:37.997Z</time></trkpt><trkpt lat="44.463124352631354" lon="9.333037683489321"><ele>866.0</ele><time>2026-04-30T09:09:38.997Z</time></trkpt><trkpt lat="44.46309719688643" lon="9.333221947663297"><ele>866.0</ele><time>2026-04-30T09:09:39.997Z</time></trkpt><trkpt lat="44.463144429833655" lon="9.333408532023359"><ele>866.0</ele><time>2026-04-30T09:09:40.997Z</time></trkpt><trkpt lat="44.46317715948654" lon="9.333617198223225"><ele>868.5</ele><time>2026-04-30T09:09:41.997Z</time></trkpt><trkpt lat="44.463185844450216" lon="9.333837937599272"><ele>871.0</ele><time>2026-04-30T09:09:42.997Z</time></trkpt><trkpt lat="44.46314046027659" lon="9.334035267026255"><ele>873.5</ele><time>2026-04-30T09:09:43.997Z</time></trkpt><trkpt lat="44.463086567151095" lon="9.334221353818029"><ele>876.0</ele><time>2026-04-30T09:09:44.997Z</time></trkpt><trkpt lat="44.46302589027948" lon="9.334416699949527"><ele>878.0</ele><time>2026-04-30T09:09:45.997Z</time></trkpt><trkpt lat="44.46296926595928" lon="9.334597071099182"><ele>880.0</ele><time>2026-04-30T09:09:46.997Z</time></trkpt><trkpt lat="44.462908177835786" lon="9.334786601306284"><ele>882.0</ele><time>2026-04-30T09:09:47.997Z</time></trkpt><trkpt lat="44.46284694480501" lon="9.334946581177624"><ele>884.0</ele><time>2026-04-30T09:09:48.997Z</time></trkpt><trkpt lat="44.46276904417097" lon="9.335105401963775"><ele>884.2</ele><time>2026-04-30T09:09:49.997Z</time></trkpt><trkpt lat="44.46268571971737" lon="9.335264207029487"><ele>884.4000000000001</ele><time>2026-04-30T09:09:50.997Z</time></trkpt><trkpt lat="44.46263746176328" lon="9.335394122820441"><ele>884.6</ele><time>2026-04-30T09:09:51.997Z</time></trkpt><trkpt lat="44.462570442221335" lon="9.33550682117614"><ele>884.8</ele><time>2026-04-30T09:09:52.997Z</time></trkpt><trkpt lat="44.46252517349264" lon="9.33560776500631"><ele>885.0</ele><time>2026-04-30T09:09:53.997Z</time></trkpt><trkpt lat="44.46248971057558" lon="9.335716982464197"><ele>880.25</ele><time>2026-04-30T09:09:54.997Z</time></trkpt><trkpt lat="44.462538393468215" lon="9.335852287576197"><ele>875.5</ele><time>2026-04-30T09:09:55.997Z</time></trkpt><trkpt lat="44.462597031389045" lon="9.335997106379137"><ele>870.75</ele><time>2026-04-30T09:09:56.997Z</time></trkpt><trkpt lat="44.4626787005204" lon="9.336135096144519"><ele>866.0</ele><time>2026-04-30T09:09:57.997Z</time></trkpt><trkpt lat="44.46274139282553" lon="9.336239666484829"><ele>866.0</ele><time>2026-04-30T09:09:58.997Z</time></trkpt><trkpt lat="44.46281696109411" lon="9.336325379900213"><ele>866.0</ele><time>2026-04-30T09:09:59.997Z</time></trkpt><trkpt lat="44.46291530190734" lon="9.336396511717997"><ele>866.0</ele><time>2026-04-30T09:10:00.997Z</time></trkpt><trkpt lat="44.46302229859665" lon="9.336467082872126"><ele>866.0</ele><time>2026-04-30T09:10:01.997Z</time></trkpt><trkpt lat="44.46315484027685" lon="9.33656556476253"><ele>869.5</ele><time>2026-04-30T09:10:02.997Z</time></trkpt><trkpt lat="44.46325656966116" lon="9.336663785562072"><ele>873.0</ele><time>2026-04-30T09:10:03.997Z</time></trkpt><trkpt lat="44.46334665125919" lon="9.336770017446916"><ele>876.5</ele><time>2026-04-30T09:10:04.997Z</time></trkpt><trkpt lat="44.46343787163342" lon="9.336879571866987"><ele>880.0</ele><time>2026-04-30T09:10:05.997Z</time></trkpt><trkpt lat="44.46351247126649" lon="9.336988631095718"><ele>880.0</ele><time>2026-04-30T09:10:06.997Z</time></trkpt><trkpt lat="44.463559795114996" lon="9.337115380661093"><ele>880.0</ele><time>2026-04-30T09:10:07.997Z</time></trkpt><trkpt lat="44.4636073066074" lon="9.337308182995613"><ele>880.0</ele><time>2026-04-30T09:10:08.997Z</time></trkpt><trkpt lat="44.463613489611774" lon="9.33745911297282"><ele>880.0</ele><time>2026-04-30T09:10:09.997Z</time></trkpt><trkpt lat="44.46358044968266" lon="9.337567384670708"><ele>880.0</ele><time>2026-04-30T09:10:10.997Z</time></trkpt><trkpt lat="44.4635322939326" lon="9.337718933197117"><ele>871.6666666666666</ele><time>2026-04-30T09:10:11.997Z</time></trkpt><trkpt lat="44.46346809899366" lon="9.337928721077775"><ele>863.3333333333333</ele><time>2026-04-30T09:10:12.997Z</time></trkpt><trkpt lat="44.46345631602093" lon="9.338152598208938"><ele>855.0</ele><time>2026-04-30T09:10:13.997Z</time></trkpt><trkpt lat="44.46346609304557" lon="9.338354081423264"><ele>854.5</ele><time>2026-04-30T09:10:14.997Z</time></trkpt><trkpt lat="44.46346014404194" lon="9.33851397417333"><ele>854.0</ele><time>2026-04-30T09:10:15.997Z</time></trkpt><trkpt lat="44.463429466859914" lon="9.338703377275332"><ele>853.5</ele><time>2026-04-30T09:10:16.997Z</time></trkpt><trkpt lat="44.463360768594065" lon="9.33893066942645"><ele>853.0</ele><time>2026-04-30T09:10:17.997Z</time></trkpt><trkpt lat="44.4632733508369" lon="9.339139486156643"><ele>854.5</ele><time>2026-04-30T09:10:18.997Z</time></trkpt><trkpt lat="44.46322983320192" lon="9.339347285118615"><ele>856.0</ele><time>2026-04-30T09:10:19.997Z</time></trkpt><trkpt lat="44.4632043002135" lon="9.339539079872445"><ele>857.5</ele><time>2026-04-30T09:10:20.997Z</time></trkpt><trkpt lat="44.46317660737385" lon="9.339728428257436"><ele>859.0</ele><time>2026-04-30T09:10:21.997Z</time></trkpt><trkpt lat="44.46313371370706" lon="9.339896925242034"><ele>859.5</ele><time>2026-04-30T09:10:22.997Z</time></trkpt><trkpt lat="44.463060618383956" lon="9.34004984406603"><ele>860.0</ele><time>2026-04-30T09:10:23.997Z</time></trkpt><trkpt lat="44.462982522677635" lon="9.340163694618724"><ele>860.5</ele><time>2026-04-30T09:10:24.997Z</time></trkpt><trkpt lat="44.462879025786954" lon="9.340287580480492"><ele>861.0</ele><time>2026-04-30T09:10:25.997Z</time></trkpt><trkpt lat="44.46276332490354" lon="9.34042265498537"><ele>857.6666666666667</ele><time>2026-04-30T09:10:26.997Z</time></trkpt><trkpt lat="44.46263417214884" lon="9.340576000687209"><ele>854.3333333333334</ele><time>2026-04-30T09:10:27.997Z</time></trkpt><trkpt lat="44.46252131529105" lon="9.340730690121493"><ele>851.0</ele><time>2026-04-30T09:10:28.997Z</time></trkpt><trkpt lat="44.46243417734044" lon="9.340863374360508"><ele>851.0</ele><time>2026-04-30T09:10:29.997Z</time></trkpt><trkpt lat="44.46235824002483" lon="9.340979003529654"><ele>851.0</ele><time>2026-04-30T09:10:30.997Z</time></trkpt><trkpt lat="44.46228155944482" lon="9.341113554143105"><ele>851.0</ele><time>2026-04-30T09:10:31.997Z</time></trkpt><trkpt lat="44.46222439551119" lon="9.341250675203"><ele>851.0</ele><time>2026-04-30T09:10:32.997Z</time></trkpt><trkpt lat="44.462291270842925" lon="9.341456822745695"><ele>847.75</ele><time>2026-04-30T09:10:33.997Z</time></trkpt><trkpt lat="44.462334483664115" lon="9.341577833323766"><ele>844.5</ele><time>2026-04-30T09:10:34.997Z</time></trkpt><trkpt lat="44.46241888683136" lon="9.341597656928013"><ele>841.25</ele><time>2026-04-30T09:10:35.997Z</time></trkpt><trkpt lat="44.46256214908366" lon="9.34158048023976"><ele>838.0</ele><time>2026-04-30T09:10:37.996Z</time></trkpt><trkpt lat="44.462729040678894" lon="9.341598722939045"><ele>838.0</ele><time>2026-04-30T09:10:38.996Z</time></trkpt><trkpt lat="44.46288962558485" lon="9.34163141908273"><ele>838.0</ele><time>2026-04-30T09:10:39.996Z</time></trkpt><trkpt lat="44.46302535134422" lon="9.341606483928238"><ele>838.0</ele><time>2026-04-30T09:10:40.996Z</time></trkpt><trkpt lat="44.46315410343165" lon="9.341524171154777"><ele>838.0</ele><time>2026-04-30T09:10:41.996Z</time></trkpt><trkpt lat="44.463274789481666" lon="9.341395071235107"><ele>843.3333333333333</ele><time>2026-04-30T09:10:42.996Z</time></trkpt><trkpt lat="44.463358516537824" lon="9.341217284122184"><ele>848.6666666666667</ele><time>2026-04-30T09:10:43.996Z</time></trkpt><trkpt lat="44.46347989052746" lon="9.341069909609567"><ele>854.0</ele><time>2026-04-30T09:10:44.996Z</time></trkpt><trkpt lat="44.46358718787342" lon="9.340930137830707"><ele>854.0</ele><time>2026-04-30T09:10:45.996Z</time></trkpt><trkpt lat="44.46367651384736" lon="9.340803764875675"><ele>854.0</ele><time>2026-04-30T09:10:46.996Z</time></trkpt><trkpt lat="44.463794596137525" lon="9.34068141401962"><ele>854.0</ele><time>2026-04-30T09:10:47.996Z</time></trkpt><trkpt lat="44.463916748261404" lon="9.34055391953574"><ele>854.0</ele><time>2026-04-30T09:10:48.996Z</time></trkpt><trkpt lat="44.464018186271595" lon="9.340482229776171"><ele>854.25</ele><time>2026-04-30T09:10:49.996Z</time></trkpt><trkpt lat="44.46415357809722" lon="9.34044215793048"><ele>854.5</ele><time>2026-04-30T09:10:50.996Z</time></trkpt><trkpt lat="44.464286800533216" lon="9.340344437716356"><ele>854.75</ele><time>2026-04-30T09:10:51.996Z</time></trkpt><trkpt lat="44.46438984043216" lon="9.340227231749788"><ele>855.0</ele><time>2026-04-30T09:10:52.996Z</time></trkpt><trkpt lat="44.464468262615696" lon="9.340092112122958"><ele>855.0</ele><time>2026-04-30T09:10:53.996Z</time></trkpt><trkpt lat="44.46452688883785" lon="9.339934934277359"><ele>855.0</ele><time>2026-04-30T09:10:54.996Z</time></trkpt><trkpt lat="44.46457833470126" lon="9.339782961072714"><ele>855.0</ele><time>2026-04-30T09:10:55.996Z</time></trkpt><trkpt lat="44.46465901031538" lon="9.339698993984246"><ele>855.0</ele><time>2026-04-30T09:10:56.996Z</time></trkpt><trkpt lat="44.464721635151264" lon="9.339673598346394"><ele>855.0</ele><time>2026-04-30T09:10:57.996Z</time></trkpt><trkpt lat="44.4648266398217" lon="9.339690511334213"><ele>850.4</ele><time>2026-04-30T09:10:58.996Z</time></trkpt><trkpt lat="44.46491231222716" lon="9.339768268301153"><ele>845.8</ele><time>2026-04-30T09:10:59.996Z</time></trkpt><trkpt lat="44.46498600435212" lon="9.339883950926717"><ele>841.2</ele><time>2026-04-30T09:11:00.996Z</time></trkpt><trkpt lat="44.46505913415542" lon="9.339984455543055"><ele>836.6</ele><time>2026-04-30T09:11:01.996Z</time></trkpt><trkpt lat="44.465164192596056" lon="9.340029369054156"><ele>832.0</ele><time>2026-04-30T09:11:02.996Z</time></trkpt><trkpt lat="44.465284538169975" lon="9.340018669201205"><ele>832.0</ele><time>2026-04-30T09:11:03.996Z</time></trkpt><trkpt lat="44.46541396321458" lon="9.33998781009885"><ele>832.0</ele><time>2026-04-30T09:11:04.996Z</time></trkpt><trkpt lat="44.46554533094104" lon="9.339964505772642"><ele>832.0</ele><time>2026-04-30T09:11:05.996Z</time></trkpt><trkpt lat="44.465662629776766" lon="9.340006984395792"><ele>832.0</ele><time>2026-04-30T09:11:06.996Z</time></trkpt><trkpt lat="44.465778729892676" lon="9.340109998235587"><ele>833.5</ele><time>2026-04-30T09:11:07.996Z</time></trkpt><trkpt lat="44.4658987891911" lon="9.340210424423985"><ele>835.0</ele><time>2026-04-30T09:11:08.996Z</time></trkpt><trkpt lat="44.46602858132763" lon="9.34029484593831"><ele>836.5</ele><time>2026-04-30T09:11:09.996Z</time></trkpt><trkpt lat="44.466153917702584" lon="9.340365437132341"><ele>838.0</ele><time>2026-04-30T09:11:10.996Z</time></trkpt><trkpt lat="44.4662857692675" lon="9.34038264847343"><ele>838.0</ele><time>2026-04-30T09:11:11.996Z</time></trkpt><trkpt lat="44.466402328813714" lon="9.340314200258568"><ele>838.0</ele><time>2026-04-30T09:11:12.996Z</time></trkpt><trkpt lat="44.46650829945558" lon="9.340227099404002"><ele>838.0</ele><time>2026-04-30T09:11:13.996Z</time></trkpt><trkpt lat="44.46662175753241" lon="9.34015371955587"><ele>838.0</ele><time>2026-04-30T09:11:14.996Z</time></trkpt><trkpt lat="44.46674510800017" lon="9.340101443646606"><ele>838.0</ele><time>2026-04-30T09:11:15.996Z</time></trkpt><trkpt lat="44.466859758980505" lon="9.340120672310283"><ele>838.0</ele><time>2026-04-30T09:11:16.996Z</time></trkpt><trkpt lat="44.46699089451168" lon="9.340134810903075"><ele>838.0</ele><time>2026-04-30T09:11:17.996Z</time></trkpt><trkpt lat="44.46709886922419" lon="9.340219823440796"><ele>838.0</ele><time>2026-04-30T09:11:18.996Z</time></trkpt><trkpt lat="44.46716962427971" lon="9.34029376018906"><ele>837.0</ele><time>2026-04-30T09:11:19.996Z</time></trkpt><trkpt lat="44.46727967257964" lon="9.340387892034261"><ele>836.0</ele><time>2026-04-30T09:11:20.996Z</time></trkpt><trkpt lat="44.46736530141954" lon="9.340430754103062"><ele>835.0</ele><time>2026-04-30T09:11:21.996Z</time></trkpt><trkpt lat="44.467463607207" lon="9.34044538936725"><ele>834.0</ele><time>2026-04-30T09:11:22.996Z</time></trkpt><trkpt lat="44.46757462964542" lon="9.340441676535791"><ele>833.0</ele><time>2026-04-30T09:11:23.996Z</time></trkpt><trkpt lat="44.46769066999909" lon="9.340360107390785"><ele>833.0</ele><time>2026-04-30T09:11:24.996Z</time></trkpt><trkpt lat="44.46778594281471" lon="9.34032108260616"><ele>833.0</ele><time>2026-04-30T09:11:25.996Z</time></trkpt><trkpt lat="44.467880955673095" lon="9.340254872437644"><ele>833.0</ele><time>2026-04-30T09:11:26.996Z</time></trkpt><trkpt lat="44.46797733881552" lon="9.340247038328565"><ele>833.0</ele><time>2026-04-30T09:11:27.996Z</time></trkpt><trkpt lat="44.46805685484763" lon="9.34032785604531"><ele>833.0</ele><time>2026-04-30T09:11:28.996Z</time></trkpt><trkpt lat="44.468124013830774" lon="9.340439178787536"><ele>832.8</ele><time>2026-04-30T09:11:29.996Z</time></trkpt><trkpt lat="44.4682079376174" lon="9.340488734958306"><ele>832.5999999999999</ele><time>2026-04-30T09:11:30.996Z</time></trkpt><trkpt lat="44.46829073150526" lon="9.340511358585449"><ele>832.4000000000001</ele><time>2026-04-30T09:11:31.996Z</time></trkpt><trkpt lat="44.46838873711277" lon="9.340493351479793"><ele>832.2</ele><time>2026-04-30T09:11:32.996Z</time></trkpt><trkpt lat="44.4684748326151" lon="9.34038895217852"><ele>832.0</ele><time>2026-04-30T09:11:34Z</time></trkpt><trkpt lat="44.46858074940443" lon="9.340327448817836"><ele>832.0</ele><time>2026-04-30T09:11:35Z</time></trkpt><trkpt lat="44.468695141594765" lon="9.340309688925561"><ele>832.0</ele><time>2026-04-30T09:11:36Z</time></trkpt><trkpt lat="44.46877675807758" lon="9.340401592072816"><ele>832.0</ele><time>2026-04-30T09:11:37Z</time></trkpt><trkpt lat="44.4688712399912" lon="9.340494621152235"><ele>832.0</ele><time>2026-04-30T09:11:38Z</time></trkpt><trkpt lat="44.4689880499289" lon="9.340600883029127"><ele>829.8</ele><time>2026-04-30T09:11:39Z</time></trkpt><trkpt lat="44.469097905416504" lon="9.340666178273587"><ele>827.6</ele><time>2026-04-30T09:11:40Z</time></trkpt><trkpt lat="44.469207600703335" lon="9.340698866972966"><ele>825.4</ele><time>2026-04-30T09:11:41Z</time></trkpt><trkpt lat="44.469306613698194" lon="9.340728154499581"><ele>823.1999999999999</ele><time>2026-04-30T09:11:42Z</time></trkpt><trkpt lat="44.46940824908489" lon="9.340724429336783"><ele>821.0</ele><time>2026-04-30T09:11:43Z</time></trkpt><trkpt lat="44.469471925595464" lon="9.340774259590537"><ele>821.0</ele><time>2026-04-30T09:11:44Z</time></trkpt><trkpt lat="44.469509798225616" lon="9.340868033893313"><ele>821.0</ele><time>2026-04-30T09:11:45Z</time></trkpt><trkpt lat="44.46952902308541" lon="9.340983520035174"><ele>821.0</ele><time>2026-04-30T09:11:46Z</time></trkpt><trkpt lat="44.46950431819132" lon="9.341111320993047"><ele>821.0</ele><time>2026-04-30T09:11:47Z</time></trkpt><trkpt lat="44.46944707114711" lon="9.341226345881594"><ele>821.0</ele><time>2026-04-30T09:11:48Z</time></trkpt><trkpt lat="44.46940015978559" lon="9.341361285693665"><ele>823.5</ele><time>2026-04-30T09:11:49Z</time></trkpt><trkpt lat="44.469402138429366" lon="9.341523030810722"><ele>826.0</ele><time>2026-04-30T09:11:50Z</time></trkpt><trkpt lat="44.469468862335205" lon="9.341643111111114"><ele>828.5</ele><time>2026-04-30T09:11:51Z</time></trkpt><trkpt lat="44.46954928645397" lon="9.341752763335425"><ele>831.0</ele><time>2026-04-30T09:11:52Z</time></trkpt><trkpt lat="44.46963327254141" lon="9.341865815605212"><ele>831.0</ele><time>2026-04-30T09:11:53Z</time></trkpt><trkpt lat="44.46971786929612" lon="9.34197341914458"><ele>831.0</ele><time>2026-04-30T09:11:54Z</time></trkpt><trkpt lat="44.46981642195253" lon="9.342037583177559"><ele>831.0</ele><time>2026-04-30T09:11:55Z</time></trkpt><trkpt lat="44.46989569023017" lon="9.342109587302986"><ele>831.0</ele><time>2026-04-30T09:11:56Z</time></trkpt><trkpt lat="44.4699846818525" lon="9.342165977415"><ele>831.0</ele><time>2026-04-30T09:11:57Z</time></trkpt><trkpt lat="44.47000498112029" lon="9.342283411886175"><ele>826.5</ele><time>2026-04-30T09:11:58Z</time></trkpt><trkpt lat="44.469976672927416" lon="9.342506092715288"><ele>822.0</ele><time>2026-04-30T09:12:00Z</time></trkpt><trkpt lat="44.469954691276534" lon="9.342689094061678"><ele>817.5</ele><time>2026-04-30T09:12:01Z</time></trkpt><trkpt lat="44.469980962634764" lon="9.342875498352551"><ele>813.0</ele><time>2026-04-30T09:12:02Z</time></trkpt><trkpt lat="44.47003636122249" lon="9.343020435370017"><ele>812.1666666666666</ele><time>2026-04-30T09:12:03Z</time></trkpt><trkpt lat="44.47008718514982" lon="9.343131857909844"><ele>811.3333333333333</ele><time>2026-04-30T09:12:04Z</time></trkpt><trkpt lat="44.470120752367684" lon="9.343220276672888"><ele>810.5</ele><time>2026-04-30T09:12:05Z</time></trkpt><trkpt lat="44.47013575642298" lon="9.343313688912247"><ele>809.6666666666666</ele><time>2026-04-30T09:12:06Z</time></trkpt><trkpt lat="44.4701127619425" lon="9.343440077407937"><ele>808.8333333333333</ele><time>2026-04-30T09:12:07Z</time></trkpt><trkpt lat="44.47005934934505" lon="9.343568429224778"><ele>808.0</ele><time>2026-04-30T09:12:08Z</time></trkpt><trkpt lat="44.47000010816655" lon="9.343713919845154"><ele>808.0</ele><time>2026-04-30T09:12:09Z</time></trkpt><trkpt lat="44.46992590250942" lon="9.343858733216871"><ele>808.0</ele><time>2026-04-30T09:12:10Z</time></trkpt><trkpt lat="44.46984321836742" lon="9.343996132341866"><ele>808.0</ele><time>2026-04-30T09:12:11Z</time></trkpt><trkpt lat="44.46976377791546" lon="9.34412948762722"><ele>808.0</ele><time>2026-04-30T09:12:12Z</time></trkpt><trkpt lat="44.46964881805368" lon="9.344216161851381"><ele>801.75</ele><time>2026-04-30T09:12:13Z</time></trkpt><trkpt lat="44.46956520433998" lon="9.344368081284358"><ele>795.5</ele><time>2026-04-30T09:12:14Z</time></trkpt><trkpt lat="44.46951299925313" lon="9.344548120702415"><ele>789.25</ele><time>2026-04-30T09:12:15Z</time></trkpt><trkpt lat="44.46947661488956" lon="9.344719076409168"><ele>783.0</ele><time>2026-04-30T09:12:16Z</time></trkpt><trkpt lat="44.46945074958208" lon="9.344876669792269"><ele>783.0</ele><time>2026-04-30T09:12:17Z</time></trkpt><trkpt lat="44.469433259387" lon="9.345019940674005"><ele>783.0</ele><time>2026-04-30T09:12:17.999Z</time></trkpt><trkpt lat="44.469427699701214" lon="9.345304608679944"><ele>783.0</ele><time>2026-04-30T09:12:18.999Z</time></trkpt><trkpt lat="44.46951910033128" lon="9.345460054417943"><ele>789.25</ele><time>2026-04-30T09:12:19.999Z</time></trkpt><trkpt lat="44.46969625189606" lon="9.345475781578575"><ele>795.5</ele><time>2026-04-30T09:12:20.999Z</time></trkpt><trkpt lat="44.469792135620196" lon="9.345390535705851"><ele>801.75</ele><time>2026-04-30T09:12:21.999Z</time></trkpt><trkpt lat="44.46988538953302" lon="9.34533491237967"><ele>808.0</ele><time>2026-04-30T09:12:22.999Z</time></trkpt><trkpt lat="44.469975277530715" lon="9.345309299191515"><ele>807.9999999999999</ele><time>2026-04-30T09:12:23.999Z</time></trkpt><trkpt lat="44.47006070067286" lon="9.345299864466305"><ele>808.0</ele><time>2026-04-30T09:12:24.999Z</time></trkpt><trkpt lat="44.47012889165626" lon="9.345308259833972"><ele>808.0</ele><time>2026-04-30T09:12:25.999Z</time></trkpt><trkpt lat="44.47019223777099" lon="9.345350637538232"><ele>808.0</ele><time>2026-04-30T09:12:26.999Z</time></trkpt><trkpt lat="44.47025393812628" lon="9.345445134534893"><ele>807.9999999999999</ele><time>2026-04-30T09:12:27.999Z</time></trkpt><trkpt lat="44.47032360258727" lon="9.345573115455474"><ele>808.0</ele><time>2026-04-30T09:12:28.999Z</time></trkpt><trkpt lat="44.47040336081392" lon="9.345725696559224"><ele>808.5</ele><time>2026-04-30T09:12:29.999Z</time></trkpt><trkpt lat="44.47048636182289" lon="9.345886035272391"><ele>809.0</ele><time>2026-04-30T09:12:30.999Z</time></trkpt><trkpt lat="44.47056831136099" lon="9.346051445621892"><ele>809.5</ele><time>2026-04-30T09:12:31.999Z</time></trkpt><trkpt lat="44.47063343580547" lon="9.346241511912202"><ele>810.0</ele><time>2026-04-30T09:12:32.999Z</time></trkpt><trkpt lat="44.47069188263436" lon="9.34644650066608"><ele>804.3333333333333</ele><time>2026-04-30T09:12:33.999Z</time></trkpt><trkpt lat="44.47076240032728" lon="9.346648481899631"><ele>798.6666666666666</ele><time>2026-04-30T09:12:34.999Z</time></trkpt><trkpt lat="44.47081377356934" lon="9.346850106537604"><ele>793.0</ele><time>2026-04-30T09:12:35.999Z</time></trkpt><trkpt lat="44.470861871116846" lon="9.347034357470086"><ele>791.0</ele><time>2026-04-30T09:12:36.999Z</time></trkpt><trkpt lat="44.470896917974315" lon="9.34721979038585"><ele>789.0</ele><time>2026-04-30T09:12:37.999Z</time></trkpt><trkpt lat="44.47090664711298" lon="9.34740093935436"><ele>787.0</ele><time>2026-04-30T09:12:38.999Z</time></trkpt><trkpt lat="44.470897281799395" lon="9.347588727102897"><ele>785.0</ele><time>2026-04-30T09:12:39.999Z</time></trkpt><trkpt lat="44.470879422425305" lon="9.347754407653662"><ele>785.0</ele><time>2026-04-30T09:12:40.999Z</time></trkpt><trkpt lat="44.47088345074574" lon="9.347915342233252"><ele>785.0</ele><time>2026-04-30T09:12:41.999Z</time></trkpt><trkpt lat="44.470918894390444" lon="9.348071888240685"><ele>785.0</ele><time>2026-04-30T09:12:42.999Z</time></trkpt><trkpt lat="44.47094518686148" lon="9.34823869159455"><ele>785.0</ele><time>2026-04-30T09:12:43.999Z</time></trkpt><trkpt lat="44.470966962562976" lon="9.34842170390662"><ele>783.25</ele><time>2026-04-30T09:12:44.999Z</time></trkpt><trkpt lat="44.470950347291065" lon="9.348622562380053"><ele>781.5</ele><time>2026-04-30T09:12:45.999Z</time></trkpt><trkpt lat="44.47093171979497" lon="9.348830738250513"><ele>779.75</ele><time>2026-04-30T09:12:46.999Z</time></trkpt><trkpt lat="44.47090962440728" lon="9.349034476938998"><ele>778.0</ele><time>2026-04-30T09:12:47.999Z</time></trkpt><trkpt lat="44.47089263835188" lon="9.349252339626917"><ele>778.3333333333333</ele><time>2026-04-30T09:12:48.999Z</time></trkpt><trkpt lat="44.470826734527286" lon="9.349465391606262"><ele>778.6666666666667</ele><time>2026-04-30T09:12:49.999Z</time></trkpt><trkpt lat="44.47076741567377" lon="9.34968062847028"><ele>779.0</ele><time>2026-04-30T09:12:50.999Z</time></trkpt><trkpt lat="44.47072816500077" lon="9.349923108499537"><ele>779.0</ele><time>2026-04-30T09:12:51.999Z</time></trkpt><trkpt lat="44.47068252485192" lon="9.350156049455329"><ele>779.0</ele><time>2026-04-30T09:12:52.999Z</time></trkpt><trkpt lat="44.47062084992539" lon="9.350383304308655"><ele>779.0</ele><time>2026-04-30T09:12:53.999Z</time></trkpt><trkpt lat="44.4705391745601" lon="9.350569451819556"><ele>780.75</ele><time>2026-04-30T09:12:54.999Z</time></trkpt><trkpt lat="44.47046978140969" lon="9.35076114729557"><ele>782.5</ele><time>2026-04-30T09:12:55.999Z</time></trkpt><trkpt lat="44.47040848541447" lon="9.35092973718302"><ele>784.25</ele><time>2026-04-30T09:12:56.999Z</time></trkpt><trkpt lat="44.47034631746344" lon="9.351116801033086"><ele>786.0</ele><time>2026-04-30T09:12:57.999Z</time></trkpt><trkpt lat="44.47033480003095" lon="9.351303252033196"><ele>778.5</ele><time>2026-04-30T09:12:58.999Z</time></trkpt><trkpt lat="44.47028269343764" lon="9.351476560756517"><ele>771.0</ele><time>2026-04-30T09:12:59.999Z</time></trkpt><trkpt lat="44.47031598623371" lon="9.351646860445717"><ele>763.5</ele><time>2026-04-30T09:13:00.999Z</time></trkpt><trkpt lat="44.47035011695753" lon="9.351858572744685"><ele>756.0</ele><time>2026-04-30T09:13:01.999Z</time></trkpt><trkpt lat="44.47041059339772" lon="9.352064560819008"><ele>757.0</ele><time>2026-04-30T09:13:02.999Z</time></trkpt><trkpt lat="44.47041579115512" lon="9.352258542889267"><ele>758.0</ele><time>2026-04-30T09:13:03.999Z</time></trkpt><trkpt lat="44.47037528721046" lon="9.352413506598154"><ele>759.0</ele><time>2026-04-30T09:13:04.999Z</time></trkpt><trkpt lat="44.470305261568505" lon="9.352581953633928"><ele>760.0</ele><time>2026-04-30T09:13:05.999Z</time></trkpt><trkpt lat="44.4702320516957" lon="9.352741978052304"><ele>760.0</ele><time>2026-04-30T09:13:06.999Z</time></trkpt><trkpt lat="44.4701592107843" lon="9.352892745919787"><ele>760.0</ele><time>2026-04-30T09:13:07.999Z</time></trkpt><trkpt lat="44.470077472840764" lon="9.353023758893023"><ele>760.0</ele><time>2026-04-30T09:13:08.999Z</time></trkpt><trkpt lat="44.469965636330315" lon="9.353119206561466"><ele>760.0</ele><time>2026-04-30T09:13:09.999Z</time></trkpt><trkpt lat="44.469811581717" lon="9.353180885121207"><ele>757.75</ele><time>2026-04-30T09:13:10.999Z</time></trkpt><trkpt lat="44.46966514088853" lon="9.353221453386341"><ele>755.5</ele><time>2026-04-30T09:13:11.999Z</time></trkpt><trkpt lat="44.46951671597717" lon="9.353269271014936"><ele>753.25</ele><time>2026-04-30T09:13:12.999Z</time></trkpt><trkpt lat="44.469377321845144" lon="9.353304554766886"><ele>751.0</ele><time>2026-04-30T09:13:13.999Z</time></trkpt><trkpt lat="44.46925824582236" lon="9.353366823253467"><ele>751.0</ele><time>2026-04-30T09:13:14.999Z</time></trkpt><trkpt lat="44.469151440913635" lon="9.353446456203649"><ele>751.0</ele><time>2026-04-30T09:13:15.999Z</time></trkpt><trkpt lat="44.469053439475005" lon="9.353590703286542"><ele>751.0</ele><time>2026-04-30T09:13:16.999Z</time></trkpt><trkpt lat="44.4689476063504" lon="9.35372331024948"><ele>751.0</ele><time>2026-04-30T09:13:17.999Z</time></trkpt><trkpt lat="44.468845088752694" lon="9.3538957977704"><ele>751.6666666666667</ele><time>2026-04-30T09:13:18.999Z</time></trkpt><trkpt lat="44.468695103663435" lon="9.354003382329672"><ele>752.3333333333334</ele><time>2026-04-30T09:13:19.999Z</time></trkpt><trkpt lat="44.468548767361085" lon="9.354105949718114"><ele>753.0</ele><time>2026-04-30T09:13:20.999Z</time></trkpt><trkpt lat="44.46842772991009" lon="9.354209760454026"><ele>753.0</ele><time>2026-04-30T09:13:21.999Z</time></trkpt><trkpt lat="44.468315691895725" lon="9.354345904343136"><ele>753.0</ele><time>2026-04-30T09:13:22.999Z</time></trkpt><trkpt lat="44.4682129849341" lon="9.354474671493955"><ele>753.0</ele><time>2026-04-30T09:13:23.999Z</time></trkpt><trkpt lat="44.468133947515106" lon="9.354595451028114"><ele>753.0</ele><time>2026-04-30T09:13:24.999Z</time></trkpt><trkpt lat="44.46803685212024" lon="9.354668617801858"><ele>748.2</ele><time>2026-04-30T09:13:25.999Z</time></trkpt><trkpt lat="44.4679398474996" lon="9.354741023245227"><ele>743.4</ele><time>2026-04-30T09:13:26.999Z</time></trkpt><trkpt lat="44.4678657870948" lon="9.354830239837677"><ele>738.6</ele><time>2026-04-30T09:13:27.999Z</time></trkpt><trkpt lat="44.46779659140028" lon="9.354936236027028"><ele>733.8000000000001</ele><time>2026-04-30T09:13:28.999Z</time></trkpt><trkpt lat="44.467787813647426" lon="9.355071300399656"><ele>729.0</ele><time>2026-04-30T09:13:29.999Z</time></trkpt><trkpt lat="44.4678494019263" lon="9.355189990781767"><ele>729.0</ele><time>2026-04-30T09:13:30.999Z</time></trkpt><trkpt lat="44.46790232354515" lon="9.3552839641607"><ele>729.0</ele><time>2026-04-30T09:13:31.999Z</time></trkpt><trkpt lat="44.4680096980968" lon="9.355327541410086"><ele>729.0</ele><time>2026-04-30T09:13:32.999Z</time></trkpt><trkpt lat="44.46811969082183" lon="9.35531818230525"><ele>729.0</ele><time>2026-04-30T09:13:33.999Z</time></trkpt><trkpt lat="44.46827524107981" lon="9.3553206996196"><ele>737.0</ele><time>2026-04-30T09:13:34.999Z</time></trkpt><trkpt lat="44.468444228029654" lon="9.355308248389555"><ele>745.0</ele><time>2026-04-30T09:13:35.999Z</time></trkpt><trkpt lat="44.46861365410007" lon="9.35531971962886"><ele>753.0</ele><time>2026-04-30T09:13:36.999Z</time></trkpt><trkpt lat="44.468779908380576" lon="9.355332380359961"><ele>756.0</ele><time>2026-04-30T09:13:37.999Z</time></trkpt><trkpt lat="44.46892299629405" lon="9.35530034203313"><ele>759.0</ele><time>2026-04-30T09:13:38.998Z</time></trkpt><trkpt lat="44.46905645574937" lon="9.355256834016853"><ele>762.0</ele><time>2026-04-30T09:13:39.998Z</time></trkpt><trkpt lat="44.46917401112017" lon="9.35520457742154"><ele>765.0</ele><time>2026-04-30T09:13:40.998Z</time></trkpt><trkpt lat="44.46928359651945" lon="9.355161128934744"><ele>765.0</ele><time>2026-04-30T09:13:41.998Z</time></trkpt><trkpt lat="44.46939741355151" lon="9.355111963193368"><ele>765.0</ele><time>2026-04-30T09:13:42.998Z</time></trkpt><trkpt lat="44.46949660630239" lon="9.35509040919461"><ele>765.0</ele><time>2026-04-30T09:13:43.998Z</time></trkpt><trkpt lat="44.4696015495496" lon="9.355094964286135"><ele>765.0</ele><time>2026-04-30T09:13:44.998Z</time></trkpt><trkpt lat="44.46971012573418" lon="9.355189807681601"><ele>767.25</ele><time>2026-04-30T09:13:45.998Z</time></trkpt><trkpt lat="44.46981715029623" lon="9.355286387729379"><ele>769.5</ele><time>2026-04-30T09:13:46.998Z</time></trkpt><trkpt lat="44.46992924638216" lon="9.355353971201573"><ele>771.75</ele><time>2026-04-30T09:13:47.998Z</time></trkpt><trkpt lat="44.47007082368308" lon="9.355359667267711"><ele>774.0</ele><time>2026-04-30T09:13:48.998Z</time></trkpt><trkpt lat="44.47020255558563" lon="9.355399959711253"><ele>774.0</ele><time>2026-04-30T09:13:49.998Z</time></trkpt><trkpt lat="44.470321795111744" lon="9.355481428623305"><ele>774.0</ele><time>2026-04-30T09:13:50.998Z</time></trkpt><trkpt lat="44.470430082082935" lon="9.355548103559672"><ele>774.0</ele><time>2026-04-30T09:13:51.998Z</time></trkpt><trkpt lat="44.470533870309865" lon="9.355611864134598"><ele>774.0</ele><time>2026-04-30T09:13:52.998Z</time></trkpt><trkpt lat="44.47062998227771" lon="9.355667796404104"><ele>767.4000000000001</ele><time>2026-04-30T09:13:53.998Z</time></trkpt><trkpt lat="44.47073218920558" lon="9.355710646250717"><ele>760.8</ele><time>2026-04-30T09:13:54.998Z</time></trkpt><trkpt lat="44.47082563675945" lon="9.355733423777377"><ele>754.2</ele><time>2026-04-30T09:13:55.998Z</time></trkpt><trkpt lat="44.470903092100436" lon="9.355759520305085"><ele>747.5999999999999</ele><time>2026-04-30T09:13:56.998Z</time></trkpt><trkpt lat="44.47103187084692" lon="9.355690336147738"><ele>741.0</ele><time>2026-04-30T09:13:58.998Z</time></trkpt><trkpt lat="44.47111659977226" lon="9.355651636085085"><ele>741.0</ele><time>2026-04-30T09:13:59.998Z</time></trkpt><trkpt lat="44.47119938034564" lon="9.355687315182614"><ele>741.0</ele><time>2026-04-30T09:14:00.998Z</time></trkpt><trkpt lat="44.47126675848344" lon="9.355809606255667"><ele>741.0</ele><time>2026-04-30T09:14:01.998Z</time></trkpt><trkpt lat="44.47128013936835" lon="9.355973682926676"><ele>741.0</ele><time>2026-04-30T09:14:02.998Z</time></trkpt><trkpt lat="44.47127677638826" lon="9.356097325194224"><ele>741.0</ele><time>2026-04-30T09:14:03.998Z</time></trkpt><trkpt lat="44.4712534293045" lon="9.356253241863412"><ele>738.5</ele><time>2026-04-30T09:14:04.998Z</time></trkpt><trkpt lat="44.47118477100611" lon="9.356373096193343"><ele>736.0</ele><time>2026-04-30T09:14:05.998Z</time></trkpt><trkpt lat="44.47107601399035" lon="9.356523835606529"><ele>733.5</ele><time>2026-04-30T09:14:06.998Z</time></trkpt><trkpt lat="44.47097140753044" lon="9.35666813491149"><ele>731.0</ele><time>2026-04-30T09:14:07.998Z</time></trkpt><trkpt lat="44.47086996926712" lon="9.356836019051677"><ele>731.0</ele><time>2026-04-30T09:14:08.998Z</time></trkpt><trkpt lat="44.470748820155265" lon="9.35694010553992"><ele>731.0</ele><time>2026-04-30T09:14:09.998Z</time></trkpt><trkpt lat="44.47063679337173" lon="9.357049595970832"><ele>731.0</ele><time>2026-04-30T09:14:10.998Z</time></trkpt><trkpt lat="44.47050186138247" lon="9.357176975246464"><ele>731.0</ele><time>2026-04-30T09:14:11.998Z</time></trkpt><trkpt lat="44.470412295021205" lon="9.357301446290448"><ele>724.25</ele><time>2026-04-30T09:14:12.998Z</time></trkpt><trkpt lat="44.47035864922766" lon="9.357448330252764"><ele>717.5</ele><time>2026-04-30T09:14:13.998Z</time></trkpt><trkpt lat="44.47032385858928" lon="9.357600266860326"><ele>710.75</ele><time>2026-04-30T09:14:14.998Z</time></trkpt><trkpt lat="44.47035355819892" lon="9.357778011499438"><ele>704.0</ele><time>2026-04-30T09:14:15.998Z</time></trkpt><trkpt lat="44.47037803365693" lon="9.357946505243001"><ele>704.25</ele><time>2026-04-30T09:14:16.998Z</time></trkpt><trkpt lat="44.47043599853859" lon="9.358072419908606"><ele>704.5</ele><time>2026-04-30T09:14:17.998Z</time></trkpt><trkpt lat="44.47054363809214" lon="9.358148374373878"><ele>704.75</ele><time>2026-04-30T09:14:18.998Z</time></trkpt><trkpt lat="44.47066404664192" lon="9.358126496850868"><ele>705.0</ele><time>2026-04-30T09:14:19.998Z</time></trkpt><trkpt lat="44.47077208186176" lon="9.35809445081961"><ele>710.2</ele><time>2026-04-30T09:14:20.998Z</time></trkpt><trkpt lat="44.47083728376403" lon="9.35811442966962"><ele>715.4</ele><time>2026-04-30T09:14:21.998Z</time></trkpt><trkpt lat="44.47091558614089" lon="9.358232629875154"><ele>720.5999999999999</ele><time>2026-04-30T09:14:23.998Z</time></trkpt><trkpt lat="44.47093516562222" lon="9.358331282865102"><ele>725.8</ele><time>2026-04-30T09:14:24.998Z</time></trkpt><trkpt lat="44.470922439064026" lon="9.358449550692008"><ele>731.0</ele><time>2026-04-30T09:14:25.998Z</time></trkpt><trkpt lat="44.470906204039146" lon="9.358667343523285"><ele>729.0</ele><time>2026-04-30T09:14:26.998Z</time></trkpt><trkpt lat="44.47093619594539" lon="9.358876893326018"><ele>727.0</ele><time>2026-04-30T09:14:27.998Z</time></trkpt><trkpt lat="44.47096206408273" lon="9.3590432237807"><ele>725.0</ele><time>2026-04-30T09:14:28.998Z</time></trkpt><trkpt lat="44.47096400101678" lon="9.359197642447945"><ele>723.0</ele><time>2026-04-30T09:14:29.998Z</time></trkpt><trkpt lat="44.47094251884994" lon="9.359336917782713"><ele>723.0</ele><time>2026-04-30T09:14:30.998Z</time></trkpt><trkpt lat="44.470910139990956" lon="9.359498024275734"><ele>723.0</ele><time>2026-04-30T09:14:31.998Z</time></trkpt><trkpt lat="44.47088816252519" lon="9.359679832571983"><ele>723.0</ele><time>2026-04-30T09:14:32.998Z</time></trkpt><trkpt lat="44.47090774044533" lon="9.359853666749492"><ele>723.0</ele><time>2026-04-30T09:14:33.998Z</time></trkpt><trkpt lat="44.470973227877" lon="9.359982144981212"><ele>722.5</ele><time>2026-04-30T09:14:34.998Z</time></trkpt><trkpt lat="44.47106351534924" lon="9.360086061512721"><ele>722.0</ele><time>2026-04-30T09:14:35.998Z</time></trkpt><trkpt lat="44.471183376781276" lon="9.360145922774281"><ele>721.5</ele><time>2026-04-30T09:14:36.998Z</time></trkpt><trkpt lat="44.47131833955762" lon="9.360183149328972"><ele>721.0</ele><time>2026-04-30T09:14:37.998Z</time></trkpt><trkpt lat="44.47144179047878" lon="9.36027196700091"><ele>719.0</ele><time>2026-04-30T09:14:38.998Z</time></trkpt><trkpt lat="44.47154314942062" lon="9.360338204452574"><ele>717.0</ele><time>2026-04-30T09:14:39.998Z</time></trkpt><trkpt lat="44.4716551971163" lon="9.360437901275409"><ele>715.0</ele><time>2026-04-30T09:14:40.998Z</time></trkpt><trkpt lat="44.47172640365794" lon="9.360597227513473"><ele>713.0</ele><time>2026-04-30T09:14:41.998Z</time></trkpt><trkpt lat="44.47178534071015" lon="9.360741611798698"><ele>713.0</ele><time>2026-04-30T09:14:42.998Z</time></trkpt><trkpt lat="44.47186240791039" lon="9.360921518340975"><ele>713.0</ele><time>2026-04-30T09:14:43.998Z</time></trkpt><trkpt lat="44.471972424757936" lon="9.361061430381225"><ele>713.0</ele><time>2026-04-30T09:14:44.998Z</time></trkpt><trkpt lat="44.47208899337668" lon="9.361134473991234"><ele>713.0</ele><time>2026-04-30T09:14:45.998Z</time></trkpt><trkpt lat="44.47220179449609" lon="9.361153920514313"><ele>714.5</ele><time>2026-04-30T09:14:46.998Z</time></trkpt><trkpt lat="44.47230723415332" lon="9.36121681236112"><ele>716.0</ele><time>2026-04-30T09:14:47.998Z</time></trkpt><trkpt lat="44.47238593693051" lon="9.36131521204947"><ele>717.5</ele><time>2026-04-30T09:14:48.998Z</time></trkpt><trkpt lat="44.4724726692871" lon="9.361458054802576"><ele>719.0</ele><time>2026-04-30T09:14:49.998Z</time></trkpt><trkpt lat="44.47256644777923" lon="9.361618339820524"><ele>719.0</ele><time>2026-04-30T09:14:50.998Z</time></trkpt><trkpt lat="44.4726455597865" lon="9.361752125378558"><ele>719.0</ele><time>2026-04-30T09:14:51.998Z</time></trkpt><trkpt lat="44.4727208672989" lon="9.361879194361924"><ele>719.0</ele><time>2026-04-30T09:14:52.998Z</time></trkpt><trkpt lat="44.47279309560092" lon="9.362008909116602"><ele>719.0</ele><time>2026-04-30T09:14:53.998Z</time></trkpt><trkpt lat="44.47285787253075" lon="9.362151077691475"><ele>722.8000000000001</ele><time>2026-04-30T09:14:54.998Z</time></trkpt><trkpt lat="44.47290533674764" lon="9.36229555108864"><ele>726.6</ele><time>2026-04-30T09:14:55.998Z</time></trkpt><trkpt lat="44.47294939445178" lon="9.362447742785358"><ele>730.4</ele><time>2026-04-30T09:14:56.998Z</time></trkpt><trkpt lat="44.472985033562686" lon="9.362592081123214"><ele>734.2</ele><time>2026-04-30T09:14:57.998Z</time></trkpt><trkpt lat="44.473009020244874" lon="9.362737449073656"><ele>738.0</ele><time>2026-04-30T09:14:58.998Z</time></trkpt><trkpt lat="44.47303108638076" lon="9.362905383473674"><ele>735.75</ele><time>2026-04-30T09:14:59.998Z</time></trkpt><trkpt lat="44.473053865817256" lon="9.363089754598318"><ele>733.5</ele><time>2026-04-30T09:15:00.998Z</time></trkpt><trkpt lat="44.47307550166148" lon="9.363264869337545"><ele>731.25</ele><time>2026-04-30T09:15:01.998Z</time></trkpt><trkpt lat="44.47309935087371" lon="9.36345802714668"><ele>729.0</ele><time>2026-04-30T09:15:02.998Z</time></trkpt><trkpt lat="44.47312191005461" lon="9.363640064214719"><ele>729.0</ele><time>2026-04-30T09:15:03.998Z</time></trkpt><trkpt lat="44.47314075093983" lon="9.363790272964792"><ele>729.0</ele><time>2026-04-30T09:15:04.998Z</time></trkpt><trkpt lat="44.473157229713415" lon="9.363900304338083"><ele>729.0</ele><time>2026-04-30T09:15:05.997Z</time></trkpt><trkpt lat="44.47317427171631" lon="9.364018080171894"><ele>729.0</ele><time>2026-04-30T09:15:06.997Z</time></trkpt><trkpt lat="44.473187746259576" lon="9.364140956262576"><ele>729.0</ele><time>2026-04-30T09:15:07.997Z</time></trkpt><trkpt lat="44.47319470680821" lon="9.364280885392825"><ele>728.1666666666666</ele><time>2026-04-30T09:15:08.997Z</time></trkpt><trkpt lat="44.47317768982036" lon="9.364375308531384"><ele>727.3333333333334</ele><time>2026-04-30T09:15:09.997Z</time></trkpt><trkpt lat="44.47310480595096" lon="9.364448907809646"><ele>726.5</ele><time>2026-04-30T09:15:12.997Z</time></trkpt><trkpt lat="44.4730205387601" lon="9.364471530765567"><ele>725.6666666666667</ele><time>2026-04-30T09:15:13.997Z</time></trkpt><trkpt lat="44.472937541960306" lon="9.364473138479806"><ele>724.8333333333334</ele><time>2026-04-30T09:15:14.997Z</time></trkpt><trkpt lat="44.4728228469684" lon="9.364473791936895"><ele>724.0</ele><time>2026-04-30T09:15:15.997Z</time></trkpt><trkpt lat="44.4726688182062" lon="9.364475448796995"><ele>720.6666666666667</ele><time>2026-04-30T09:15:16.997Z</time></trkpt><trkpt lat="44.47250794339288" lon="9.364520274806356"><ele>717.3333333333334</ele><time>2026-04-30T09:15:17.997Z</time></trkpt><trkpt lat="44.47235991944754" lon="9.364615240463658"><ele>714.0</ele><time>2026-04-30T09:15:18.997Z</time></trkpt><trkpt lat="44.472248714066154" lon="9.364746849773661"><ele>714.0</ele><time>2026-04-30T09:15:19.997Z</time></trkpt><trkpt lat="44.47217300782709" lon="9.364879720075262"><ele>714.0</ele><time>2026-04-30T09:15:20.997Z</time></trkpt><trkpt lat="44.47211984481579" lon="9.365053396128635"><ele>714.0</ele><time>2026-04-30T09:15:21.997Z</time></trkpt><trkpt lat="44.47209904367624" lon="9.36521472791768"><ele>714.0</ele><time>2026-04-30T09:15:22.997Z</time></trkpt><trkpt lat="44.47209526716323" lon="9.365370046520692"><ele>712.6</ele><time>2026-04-30T09:15:23.997Z</time></trkpt><trkpt lat="44.47208207640173" lon="9.36551876444322"><ele>711.2</ele><time>2026-04-30T09:15:24.997Z</time></trkpt><trkpt lat="44.47207268605863" lon="9.365661137184686"><ele>709.8000000000001</ele><time>2026-04-30T09:15:25.997Z</time></trkpt><trkpt lat="44.472050906469185" lon="9.365786363677978"><ele>708.4000000000001</ele><time>2026-04-30T09:15:26.997Z</time></trkpt><trkpt lat="44.47204146724189" lon="9.365892184953553"><ele>707.0</ele><time>2026-04-30T09:15:27.997Z</time></trkpt><trkpt lat="44.47202858979081" lon="9.36604161215818"><ele>707.0</ele><time>2026-04-30T09:15:29.997Z</time></trkpt><trkpt lat="44.47203158992408" lon="9.366156362599781"><ele>707.0</ele><time>2026-04-30T09:15:31.997Z</time></trkpt><trkpt lat="44.47201063187297" lon="9.366260982892248"><ele>707.0</ele><time>2026-04-30T09:15:33.997Z</time></trkpt><trkpt lat="44.47200223433008" lon="9.366368070602569"><ele>707.0</ele><time>2026-04-30T09:15:36.997Z</time></trkpt><trkpt lat="44.47199425501688" lon="9.366469825007432"><ele>707.0</ele><time>2026-04-30T09:15:42.997Z</time></trkpt><trkpt lat="44.47198850664586" lon="9.366579995915904"><ele>707.0</ele><time>2026-04-30T09:16:26.997Z</time></trkpt><trkpt lat="44.471984117848535" lon="9.366687863396523"><ele>706.6666666666666</ele><time>2026-04-30T09:16:28.997Z</time></trkpt><trkpt lat="44.47198055018169" lon="9.366788799827468"><ele>706.3333333333333</ele><time>2026-04-30T09:16:29.997Z</time></trkpt><trkpt lat="44.4719720590002" lon="9.366915724343203"><ele>706.0</ele><time>2026-04-30T09:16:30.997Z</time></trkpt><trkpt lat="44.47196327395784" lon="9.367047224161368"><ele>705.6666666666666</ele><time>2026-04-30T09:16:31.996Z</time></trkpt><trkpt lat="44.47194859887416" lon="9.367178020446987"><ele>705.3333333333334</ele><time>2026-04-30T09:16:32.996Z</time></trkpt><trkpt lat="44.471922758964574" lon="9.367297219136423"><ele>705.0</ele><time>2026-04-30T09:16:33.996Z</time></trkpt><trkpt lat="44.47189526844844" lon="9.367390527344085"><ele>704.2</ele><time>2026-04-30T09:16:34.996Z</time></trkpt><trkpt lat="44.47183833423122" lon="9.367528441553237"><ele>703.4</ele><time>2026-04-30T09:16:36.996Z</time></trkpt><trkpt lat="44.47175653139759" lon="9.367660151478514"><ele>702.5999999999999</ele><time>2026-04-30T09:16:38.996Z</time></trkpt><trkpt lat="44.47168632270829" lon="9.36770857634648"><ele>701.8</ele><time>2026-04-30T09:16:39.996Z</time></trkpt><trkpt lat="44.47159617561859" lon="9.367735765516972"><ele>701.0</ele><time>2026-04-30T09:16:40.996Z</time></trkpt><trkpt lat="44.471493024382774" lon="9.36775183066113"><ele>701.0</ele><time>2026-04-30T09:16:41.996Z</time></trkpt><trkpt lat="44.47137876984345" lon="9.36775418455598"><ele>701.0</ele><time>2026-04-30T09:16:42.996Z</time></trkpt><trkpt lat="44.471263079216456" lon="9.36774606672365"><ele>701.0</ele><time>2026-04-30T09:16:43.996Z</time></trkpt><trkpt lat="44.47114446197933" lon="9.36774120747515"><ele>701.0</ele><time>2026-04-30T09:16:44.996Z</time></trkpt><trkpt lat="44.4710248960377" lon="9.367799798088956"><ele>702.75</ele><time>2026-04-30T09:16:45.996Z</time></trkpt><trkpt lat="44.470897944088634" lon="9.367878240798978"><ele>704.5</ele><time>2026-04-30T09:16:46.996Z</time></trkpt><trkpt lat="44.47079688636216" lon="9.368020332214394"><ele>706.25</ele><time>2026-04-30T09:16:47.996Z</time></trkpt><trkpt lat="44.47070431943866" lon="9.368169135025326"><ele>708.0</ele><time>2026-04-30T09:16:48.996Z</time></trkpt><trkpt lat="44.47061948935921" lon="9.36830917485201"><ele>708.0</ele><time>2026-04-30T09:16:49.996Z</time></trkpt><trkpt lat="44.470511284267" lon="9.368416451662734"><ele>708.0</ele><time>2026-04-30T09:16:50.996Z</time></trkpt><trkpt lat="44.47040855761012" lon="9.368495946125016"><ele>708.0</ele><time>2026-04-30T09:16:51.996Z</time></trkpt><trkpt lat="44.4702862710384" lon="9.368519434289162"><ele>708.0</ele><time>2026-04-30T09:16:52.996Z</time></trkpt><trkpt lat="44.4701457402326" lon="9.36849608754832"><ele>702.6666666666666</ele><time>2026-04-30T09:16:53.996Z</time></trkpt><trkpt lat="44.46999047772194" lon="9.368472117744648"><ele>697.3333333333333</ele><time>2026-04-30T09:16:54.996Z</time></trkpt><trkpt lat="44.46982658542579" lon="9.368456746211958"><ele>692.0</ele><time>2026-04-30T09:16:55.996Z</time></trkpt><trkpt lat="44.469644467431166" lon="9.368471170894532"><ele>690.3333333333333</ele><time>2026-04-30T09:16:56.996Z</time></trkpt><trkpt lat="44.469458478277424" lon="9.368460846962101"><ele>688.6666666666666</ele><time>2026-04-30T09:16:57.996Z</time></trkpt><trkpt lat="44.469275011115855" lon="9.36848048342125"><ele>687.0</ele><time>2026-04-30T09:16:58.996Z</time></trkpt><trkpt lat="44.46909586868355" lon="9.368510353981971"><ele>687.0</ele><time>2026-04-30T09:16:59.996Z</time></trkpt><trkpt lat="44.46890945718661" lon="9.368557376298309"><ele>687.0</ele><time>2026-04-30T09:17:00.996Z</time></trkpt><trkpt lat="44.4687172701791" lon="9.368615335807787"><ele>687.0</ele><time>2026-04-30T09:17:01.996Z</time></trkpt><trkpt lat="44.46855634450413" lon="9.368667684354133"><ele>684.3333333333334</ele><time>2026-04-30T09:17:02.996Z</time></trkpt><trkpt lat="44.46838489463035" lon="9.368739574778557"><ele>681.6666666666667</ele><time>2026-04-30T09:17:03.996Z</time></trkpt><trkpt lat="44.46822731108157" lon="9.368860201830415"><ele>679.0</ele><time>2026-04-30T09:17:04.996Z</time></trkpt><trkpt lat="44.468090150499634" lon="9.368968915939721"><ele>679.6666666666667</ele><time>2026-04-30T09:17:05.996Z</time></trkpt><trkpt lat="44.46791864922928" lon="9.36905585507668"><ele>680.3333333333334</ele><time>2026-04-30T09:17:06.996Z</time></trkpt><trkpt lat="44.46774355057822" lon="9.3691223383699"><ele>681.0</ele><time>2026-04-30T09:17:07.996Z</time></trkpt><trkpt lat="44.46757276148742" lon="9.369182750868427"><ele>681.0</ele><time>2026-04-30T09:17:08.996Z</time></trkpt><trkpt lat="44.467384999031445" lon="9.369264043398701"><ele>681.0</ele><time>2026-04-30T09:17:09.996Z</time></trkpt><trkpt lat="44.46724932553143" lon="9.369362198137322"><ele>681.0</ele><time>2026-04-30T09:17:10.996Z</time></trkpt><trkpt lat="44.467157328758226" lon="9.369475389618573"><ele>682.0</ele><time>2026-04-30T09:17:11.996Z</time></trkpt><trkpt lat="44.46707116348549" lon="9.369596634483612"><ele>683.0</ele><time>2026-04-30T09:17:12.996Z</time></trkpt><trkpt lat="44.46695131725234" lon="9.369683342952142"><ele>684.0</ele><time>2026-04-30T09:17:13.996Z</time></trkpt><trkpt lat="44.46683324132533" lon="9.369725772092242"><ele>685.0</ele><time>2026-04-30T09:17:14.996Z</time></trkpt><trkpt lat="44.46672832532468" lon="9.369725866015694"><ele>685.0</ele><time>2026-04-30T09:17:15.996Z</time></trkpt><trkpt lat="44.46659848058756" lon="9.369692077335477"><ele>685.0</ele><time>2026-04-30T09:17:16.996Z</time></trkpt><trkpt lat="44.46647171694002" lon="9.369672038529748"><ele>685.0</ele><time>2026-04-30T09:17:17.996Z</time></trkpt><trkpt lat="44.466334871250986" lon="9.369633134651972"><ele>685.0</ele><time>2026-04-30T09:17:18.996Z</time></trkpt><trkpt lat="44.46620014028591" lon="9.369595807821126"><ele>682.75</ele><time>2026-04-30T09:17:19.996Z</time></trkpt><trkpt lat="44.46604970862599" lon="9.36959320977795"><ele>680.5</ele><time>2026-04-30T09:17:20.996Z</time></trkpt><trkpt lat="44.46590330015306" lon="9.369604171718304"><ele>678.25</ele><time>2026-04-30T09:17:21.996Z</time></trkpt><trkpt lat="44.46579109875941" lon="9.369671031117166"><ele>676.0</ele><time>2026-04-30T09:17:22.996Z</time></trkpt><trkpt lat="44.46569447081235" lon="9.369714229084309"><ele>676.0</ele><time>2026-04-30T09:17:23.996Z</time></trkpt><trkpt lat="44.4656080747864" lon="9.369790643245507"><ele>676.0</ele><time>2026-04-30T09:17:24.996Z</time></trkpt><trkpt lat="44.465562876731994" lon="9.369936848189575"><ele>676.0</ele><time>2026-04-30T09:17:25.996Z</time></trkpt><trkpt lat="44.46552424070671" lon="9.370116391770026"><ele>676.0</ele><time>2026-04-30T09:17:26.996Z</time></trkpt><trkpt lat="44.46549581733843" lon="9.370304398664464"><ele>676.0</ele><time>2026-04-30T09:17:27.996Z</time></trkpt><trkpt lat="44.46545631511003" lon="9.370482920128191"><ele>676.0</ele><time>2026-04-30T09:17:28.996Z</time></trkpt><trkpt lat="44.46543376008039" lon="9.37069955182132"><ele>676.0</ele><time>2026-04-30T09:17:29.996Z</time></trkpt><trkpt lat="44.46539771309922" lon="9.370909320808988"><ele>676.0</ele><time>2026-04-30T09:17:30.996Z</time></trkpt><trkpt lat="44.465408292417" lon="9.37108346484152"><ele>675.5999999999999</ele><time>2026-04-30T09:17:31.996Z</time></trkpt><trkpt lat="44.46538948551183" lon="9.371226086757211"><ele>675.2</ele><time>2026-04-30T09:17:32.996Z</time></trkpt><trkpt lat="44.46533485631809" lon="9.371340477999144"><ele>674.8</ele><time>2026-04-30T09:17:33.996Z</time></trkpt><trkpt lat="44.46524717778465" lon="9.371372113474548"><ele>674.4000000000001</ele><time>2026-04-30T09:17:35.996Z</time></trkpt><trkpt lat="44.46514564885475" lon="9.371344390871464"><ele>674.0</ele><time>2026-04-30T09:17:36.996Z</time></trkpt><trkpt lat="44.46504555356828" lon="9.371277394406386"><ele>674.0</ele><time>2026-04-30T09:17:37.996Z</time></trkpt><trkpt lat="44.464940389709405" lon="9.371205388302029"><ele>674.0</ele><time>2026-04-30T09:17:38.996Z</time></trkpt><trkpt lat="44.46483327029209" lon="9.371132261280907"><ele>674.0</ele><time>2026-04-30T09:17:39.996Z</time></trkpt><trkpt lat="44.46478494578398" lon="9.37095885524291"><ele>674.0</ele><time>2026-04-30T09:17:40.996Z</time></trkpt><trkpt lat="44.46476369481566" lon="9.370760801967853"><ele>674.0</ele><time>2026-04-30T09:17:41.996Z</time></trkpt><trkpt lat="44.464749937708646" lon="9.370558326399767"><ele>674.0</ele><time>2026-04-30T09:17:42.996Z</time></trkpt><trkpt lat="44.464728212198345" lon="9.37037422322564"><ele>674.0</ele><time>2026-04-30T09:17:43.996Z</time></trkpt><trkpt lat="44.46466264583637" lon="9.370246345500535"><ele>674.0</ele><time>2026-04-30T09:17:44.996Z</time></trkpt><trkpt lat="44.464555500242604" lon="9.370172710057783"><ele>670.25</ele><time>2026-04-30T09:17:45.997Z</time></trkpt><trkpt lat="44.46443926946051" lon="9.370130519467619"><ele>666.5</ele><time>2026-04-30T09:17:46.997Z</time></trkpt><trkpt lat="44.464313188903596" lon="9.370153065759835"><ele>662.75</ele><time>2026-04-30T09:17:47.997Z</time></trkpt><trkpt lat="44.46420262880001" lon="9.370166523015763"><ele>659.0</ele><time>2026-04-30T09:17:48.997Z</time></trkpt><trkpt lat="44.46410044249091" lon="9.370247486961981"><ele>659.0</ele><time>2026-04-30T09:17:49.997Z</time></trkpt><trkpt lat="44.46402114483461" lon="9.370336660903032"><ele>659.0</ele><time>2026-04-30T09:17:50.997Z</time></trkpt><trkpt lat="44.46393900140427" lon="9.370444573922786"><ele>659.0</ele><time>2026-04-30T09:17:51.997Z</time></trkpt><trkpt lat="44.46387601686293" lon="9.370543878779074"><ele>659.0</ele><time>2026-04-30T09:17:52.997Z</time></trkpt><trkpt lat="44.463815528571125" lon="9.370638867383676"><ele>659.0</ele><time>2026-04-30T09:17:53.997Z</time></trkpt><trkpt lat="44.463736951269844" lon="9.370636323814617"><ele>660.8333333333333</ele><time>2026-04-30T09:17:54.997Z</time></trkpt><trkpt lat="44.46366277810412" lon="9.37060566658899"><ele>662.6666666666666</ele><time>2026-04-30T09:17:55.997Z</time></trkpt><trkpt lat="44.46359263813631" lon="9.370538996852822"><ele>664.5</ele><time>2026-04-30T09:17:56.997Z</time></trkpt><trkpt lat="44.46355928679695" lon="9.370433781214155"><ele>666.3333333333334</ele><time>2026-04-30T09:17:57.997Z</time></trkpt><trkpt lat="44.46358236339279" lon="9.370305386735012"><ele>668.1666666666667</ele><time>2026-04-30T09:17:58.996Z</time></trkpt><trkpt lat="44.463629009647725" lon="9.370245222231055"><ele>670.0</ele><time>2026-04-30T09:17:59.996Z</time></trkpt><trkpt lat="44.463689913285634" lon="9.37020082542367"><ele>667.25</ele><time>2026-04-30T09:18:00.996Z</time></trkpt><trkpt lat="44.463801107994435" lon="9.370183008008416"><ele>664.5</ele><time>2026-04-30T09:18:01.996Z</time></trkpt><trkpt lat="44.46397063256741" lon="9.370182083267242"><ele>661.75</ele><time>2026-04-30T09:18:02.996Z</time></trkpt><trkpt lat="44.46409553736999" lon="9.370095601881776"><ele>659.0</ele><time>2026-04-30T09:18:03.996Z</time></trkpt><trkpt lat="44.464214200780184" lon="9.369985273181634"><ele>659.0</ele><time>2026-04-30T09:18:04.996Z</time></trkpt><trkpt lat="44.46433391400208" lon="9.369940623842055"><ele>659.0</ele><time>2026-04-30T09:18:05.996Z</time></trkpt><trkpt lat="44.46444820480116" lon="9.369899812439186"><ele>659.0</ele><time>2026-04-30T09:18:06.996Z</time></trkpt><trkpt lat="44.46454942767107" lon="9.369878251789016"><ele>659.0</ele><time>2026-04-30T09:18:07.996Z</time></trkpt><trkpt lat="44.46462048821954" lon="9.369884583278258"><ele>659.0</ele><time>2026-04-30T09:18:08.996Z</time></trkpt><trkpt lat="44.464680006136554" lon="9.36992384143615"><ele>659.75</ele><time>2026-04-30T09:18:09.996Z</time></trkpt><trkpt lat="44.46473802151845" lon="9.369997661916713"><ele>660.5</ele><time>2026-04-30T09:18:10.996Z</time></trkpt><trkpt lat="44.46481519797099" lon="9.370111452352115"><ele>661.25</ele><time>2026-04-30T09:18:11.996Z</time></trkpt><trkpt lat="44.46490037634522" lon="9.370235717550818"><ele>662.0</ele><time>2026-04-30T09:18:12.996Z</time></trkpt><trkpt lat="44.46503388893806" lon="9.370303263701103"><ele>662.0</ele><time>2026-04-30T09:18:13.996Z</time></trkpt><trkpt lat="44.465117812129755" lon="9.370353846168431"><ele>662.0</ele><time>2026-04-30T09:18:14.996Z</time></trkpt><trkpt lat="44.46523091280248" lon="9.370299709093658"><ele>662.0</ele><time>2026-04-30T09:18:15.996Z</time></trkpt><trkpt lat="44.4653085313955" lon="9.370171991310906"><ele>662.0</ele><time>2026-04-30T09:18:16.996Z</time></trkpt><trkpt lat="44.46535016734055" lon="9.370017453664303"><ele>662.0</ele><time>2026-04-30T09:18:17.996Z</time></trkpt><trkpt lat="44.46539139225385" lon="9.369880085243874"><ele>662.0</ele><time>2026-04-30T09:18:18.996Z</time></trkpt><trkpt lat="44.46538658665293" lon="9.36969861399355"><ele>662.0</ele><time>2026-04-30T09:18:19.996Z</time></trkpt><trkpt lat="44.46536769927095" lon="9.369518152411556"><ele>662.0</ele><time>2026-04-30T09:18:20.996Z</time></trkpt><trkpt lat="44.46535614569827" lon="9.369374067900885"><ele>662.0</ele><time>2026-04-30T09:18:21.996Z</time></trkpt><trkpt lat="44.465371272018444" lon="9.36923577489186"><ele>661.75</ele><time>2026-04-30T09:18:22.996Z</time></trkpt><trkpt lat="44.465442320875944" lon="9.369159169489127"><ele>661.5</ele><time>2026-04-30T09:18:24.996Z</time></trkpt><trkpt lat="44.465537090919874" lon="9.369108633665348"><ele>661.25</ele><time>2026-04-30T09:18:25.996Z</time></trkpt><trkpt lat="44.465671418875345" lon="9.369022796065956"><ele>661.0</ele><time>2026-04-30T09:18:26.996Z</time></trkpt><trkpt lat="44.46578116430509" lon="9.368915992303622"><ele>657.5</ele><time>2026-04-30T09:18:27.996Z</time></trkpt><trkpt lat="44.46589541663422" lon="9.36878682832985"><ele>654.0</ele><time>2026-04-30T09:18:28.996Z</time></trkpt><trkpt lat="44.46599755927275" lon="9.36864364008577"><ele>650.5</ele><time>2026-04-30T09:18:29.996Z</time></trkpt><trkpt lat="44.46611485663065" lon="9.368526068003087"><ele>647.0</ele><time>2026-04-30T09:18:30.996Z</time></trkpt><trkpt lat="44.46616397460583" lon="9.36835910822852"><ele>647.0</ele><time>2026-04-30T09:18:31.996Z</time></trkpt><trkpt lat="44.46618267108136" lon="9.368167611613893"><ele>647.0</ele><time>2026-04-30T09:18:32.996Z</time></trkpt><trkpt lat="44.46620617770945" lon="9.367962804724495"><ele>647.0</ele><time>2026-04-30T09:18:33.996Z</time></trkpt><trkpt lat="44.46624314774394" lon="9.367759855056295"><ele>647.0</ele><time>2026-04-30T09:18:34.996Z</time></trkpt><trkpt lat="44.466248792963405" lon="9.367553743719181"><ele>645.5</ele><time>2026-04-30T09:18:35.996Z</time></trkpt><trkpt lat="44.466267068496116" lon="9.367360056243246"><ele>644.0</ele><time>2026-04-30T09:18:36.996Z</time></trkpt><trkpt lat="44.46627486219256" lon="9.367166941677084"><ele>642.5</ele><time>2026-04-30T09:18:37.996Z</time></trkpt><trkpt lat="44.46632842792218" lon="9.367006672226116"><ele>641.0</ele><time>2026-04-30T09:18:39.001Z</time></trkpt><trkpt lat="44.466399456846425" lon="9.36683034232635"><ele>641.0</ele><time>2026-04-30T09:18:40.001Z</time></trkpt><trkpt lat="44.466476145346725" lon="9.36671862030263"><ele>641.0</ele><time>2026-04-30T09:18:41.001Z</time></trkpt><trkpt lat="44.46655321220297" lon="9.366607152543569"><ele>641.0</ele><time>2026-04-30T09:18:42.001Z</time></trkpt><trkpt lat="44.46666128712953" lon="9.366565328805914"><ele>641.0</ele><time>2026-04-30T09:18:43.001Z</time></trkpt><trkpt lat="44.46675758085599" lon="9.366507954701458"><ele>641.0</ele><time>2026-04-30T09:18:44.001Z</time></trkpt><trkpt lat="44.46682042605836" lon="9.366436499499361"><ele>641.0</ele><time>2026-04-30T09:18:45.001Z</time></trkpt><trkpt lat="44.466893056108866" lon="9.366367904990952"><ele>641.0</ele><time>2026-04-30T09:18:46.001Z</time></trkpt><trkpt lat="44.46694607351054" lon="9.366264899470673"><ele>641.0</ele><time>2026-04-30T09:18:47.001Z</time></trkpt><trkpt lat="44.46694487306138" lon="9.366150175032098"><ele>641.0</ele><time>2026-04-30T09:18:48.001Z</time></trkpt><trkpt lat="44.466883747050126" lon="9.365974444202537"><ele>641.0</ele><time>2026-04-30T09:18:49.001Z</time></trkpt><trkpt lat="44.46674969806065" lon="9.365913368101594"><ele>637.0</ele><time>2026-04-30T09:18:50.001Z</time></trkpt><trkpt lat="44.46662951407326" lon="9.36591904255426"><ele>633.0</ele><time>2026-04-30T09:18:51.001Z</time></trkpt><trkpt lat="44.46652140395298" lon="9.36601306004545"><ele>629.0</ele><time>2026-04-30T09:18:52.001Z</time></trkpt><trkpt lat="44.46640789058734" lon="9.366131971318389"><ele>625.0</ele><time>2026-04-30T09:18:53.001Z</time></trkpt><trkpt lat="44.46631129327312" lon="9.366268008053385"><ele>625.75</ele><time>2026-04-30T09:18:54.001Z</time></trkpt><trkpt lat="44.466240238705396" lon="9.366428098183519"><ele>626.5</ele><time>2026-04-30T09:18:55.001Z</time></trkpt><trkpt lat="44.466156780393604" lon="9.366586854064101"><ele>627.25</ele><time>2026-04-30T09:18:56.001Z</time></trkpt><trkpt lat="44.46608004679042" lon="9.366786765498828"><ele>628.0</ele><time>2026-04-30T09:18:57.001Z</time></trkpt><trkpt lat="44.46601328749171" lon="9.36698079919443"><ele>628.0</ele><time>2026-04-30T09:18:58.001Z</time></trkpt><trkpt lat="44.46594647510365" lon="9.367180479355355"><ele>628.0</ele><time>2026-04-30T09:18:59.001Z</time></trkpt><trkpt lat="44.46589423865358" lon="9.367368402846886"><ele>628.0</ele><time>2026-04-30T09:19:00.001Z</time></trkpt><trkpt lat="44.46586946606291" lon="9.367526879483119"><ele>628.0</ele><time>2026-04-30T09:19:01.001Z</time></trkpt><trkpt lat="44.465805466288565" lon="9.367648005373274"><ele>627.6</ele><time>2026-04-30T09:19:02.001Z</time></trkpt><trkpt lat="44.465745117856315" lon="9.367702333445578"><ele>627.1999999999999</ele><time>2026-04-30T09:19:03.001Z</time></trkpt><trkpt lat="44.46565890565607" lon="9.367763075961363"><ele>626.8</ele><time>2026-04-30T09:19:04.001Z</time></trkpt><trkpt lat="44.46556516600356" lon="9.367816834821335"><ele>626.4</ele><time>2026-04-30T09:19:05Z</time></trkpt><trkpt lat="44.465479555246155" lon="9.367845488995036"><ele>626.0</ele><time>2026-04-30T09:19:06Z</time></trkpt><trkpt lat="44.465379847045305" lon="9.36784912499844"><ele>626.0</ele><time>2026-04-30T09:19:07Z</time></trkpt><trkpt lat="44.46527543133165" lon="9.367805327437766"><ele>626.0</ele><time>2026-04-30T09:19:08Z</time></trkpt><trkpt lat="44.46517125935678" lon="9.367693643579091"><ele>626.0</ele><time>2026-04-30T09:19:09Z</time></trkpt><trkpt lat="44.465066972569595" lon="9.367568567278767"><ele>626.0</ele><time>2026-04-30T09:19:10Z</time></trkpt><trkpt lat="44.46493351484346" lon="9.36742537150455"><ele>626.0</ele><time>2026-04-30T09:19:11Z</time></trkpt><trkpt lat="44.46483608414178" lon="9.367261913723077"><ele>626.0</ele><time>2026-04-30T09:19:12Z</time></trkpt><trkpt lat="44.46476009036" lon="9.36712271681266"><ele>626.0</ele><time>2026-04-30T09:19:13Z</time></trkpt><trkpt lat="44.4646947784395" lon="9.366998758786025"><ele>626.0</ele><time>2026-04-30T09:19:14Z</time></trkpt><trkpt lat="44.464679170769" lon="9.366846866283378"><ele>624.25</ele><time>2026-04-30T09:19:15Z</time></trkpt><trkpt lat="44.464698620189374" lon="9.366754856689896"><ele>622.5</ele><time>2026-04-30T09:19:16Z</time></trkpt><trkpt lat="44.46478826420944" lon="9.3666951621549"><ele>620.75</ele><time>2026-04-30T09:19:18Z</time></trkpt><trkpt lat="44.46491840032313" lon="9.366762933687005"><ele>619.0</ele><time>2026-04-30T09:19:20Z</time></trkpt><trkpt lat="44.46500629224759" lon="9.366929685956158"><ele>619.0</ele><time>2026-04-30T09:19:21Z</time></trkpt><trkpt lat="44.46512240519931" lon="9.36705814157125"><ele>619.0</ele><time>2026-04-30T09:19:22Z</time></trkpt><trkpt lat="44.4652121746773" lon="9.367137241827256"><ele>619.0</ele><time>2026-04-30T09:19:23Z</time></trkpt><trkpt lat="44.46529989358122" lon="9.367121061585195"><ele>619.0</ele><time>2026-04-30T09:19:24Z</time></trkpt><trkpt lat="44.46536665806905" lon="9.367020105851902"><ele>619.0</ele><time>2026-04-30T09:19:25Z</time></trkpt><trkpt lat="44.46540357835105" lon="9.366865471473659"><ele>619.0</ele><time>2026-04-30T09:19:26Z</time></trkpt><trkpt lat="44.465402773064206" lon="9.366707706089791"><ele>619.0</ele><time>2026-04-30T09:19:27Z</time></trkpt><trkpt lat="44.465396756796686" lon="9.3665494788774"><ele>619.0</ele><time>2026-04-30T09:19:28Z</time></trkpt><trkpt lat="44.46537972588353" lon="9.366420782907063"><ele>619.0</ele><time>2026-04-30T09:19:29Z</time></trkpt><trkpt lat="44.46537420567802" lon="9.366268934718011"><ele>619.0</ele><time>2026-04-30T09:19:30Z</time></trkpt><trkpt lat="44.46541189110932" lon="9.366104949352254"><ele>619.0</ele><time>2026-04-30T09:19:31Z</time></trkpt><trkpt lat="44.465476535326054" lon="9.365960753102412"><ele>619.0</ele><time>2026-04-30T09:19:32Z</time></trkpt><trkpt lat="44.465532935047065" lon="9.365844563305297"><ele>619.0</ele><time>2026-04-30T09:19:33Z</time></trkpt><trkpt lat="44.465590098775" lon="9.365696724029425"><ele>619.0</ele><time>2026-04-30T09:19:34Z</time></trkpt><trkpt lat="44.46557628753263" lon="9.365530289708751"><ele>616.6</ele><time>2026-04-30T09:19:35Z</time></trkpt><trkpt lat="44.46556459281114" lon="9.365379576799127"><ele>614.2</ele><time>2026-04-30T09:19:36Z</time></trkpt><trkpt lat="44.465528908108844" lon="9.365251771689795"><ele>611.8000000000001</ele><time>2026-04-30T09:19:37Z</time></trkpt><trkpt lat="44.465542619147264" lon="9.365131324039915"><ele>609.4</ele><time>2026-04-30T09:19:38Z</time></trkpt><trkpt lat="44.46558346408083" lon="9.36502388225748"><ele>607.0</ele><time>2026-04-30T09:19:39Z</time></trkpt><trkpt lat="44.465635942381965" lon="9.3649357815065"><ele>607.0</ele><time>2026-04-30T09:19:40Z</time></trkpt><trkpt lat="44.465744486076716" lon="9.364880998006917"><ele>607.0</ele><time>2026-04-30T09:19:42Z</time></trkpt><trkpt lat="44.46584191978512" lon="9.364903532111168"><ele>607.0</ele><time>2026-04-30T09:19:43Z</time></trkpt><trkpt lat="44.465963863395174" lon="9.364927010512796"><ele>607.0</ele><time>2026-04-30T09:19:44Z</time></trkpt><trkpt lat="44.46607127355559" lon="9.364954111905831"><ele>607.0</ele><time>2026-04-30T09:19:45Z</time></trkpt><trkpt lat="44.46619379163874" lon="9.365010665762993"><ele>606.75</ele><time>2026-04-30T09:19:46Z</time></trkpt><trkpt lat="44.46633298305055" lon="9.365053149229183"><ele>606.5</ele><time>2026-04-30T09:19:47Z</time></trkpt><trkpt lat="44.466467317826186" lon="9.365089074840114"><ele>606.25</ele><time>2026-04-30T09:19:48Z</time></trkpt><trkpt lat="44.466613009442085" lon="9.365111978987544"><ele>606.0</ele><time>2026-04-30T09:19:49Z</time></trkpt><trkpt lat="44.46673337297804" lon="9.365164870533526"><ele>606.0</ele><time>2026-04-30T09:19:50Z</time></trkpt><trkpt lat="44.46686390492631" lon="9.365191947681678"><ele>606.0</ele><time>2026-04-30T09:19:51Z</time></trkpt><trkpt lat="44.46699277832814" lon="9.365220965656016"><ele>606.0</ele><time>2026-04-30T09:19:52Z</time></trkpt><trkpt lat="44.46710566784671" lon="9.365231301081643"><ele>606.0</ele><time>2026-04-30T09:19:53Z</time></trkpt><trkpt lat="44.46722100048274" lon="9.365216697849274"><ele>605.4</ele><time>2026-04-30T09:19:54Z</time></trkpt><trkpt lat="44.46734287327877" lon="9.36516745955512"><ele>604.8</ele><time>2026-04-30T09:19:55Z</time></trkpt><trkpt lat="44.467426708281444" lon="9.365133035500717"><ele>604.1999999999999</ele><time>2026-04-30T09:19:56Z</time></trkpt><trkpt lat="44.4675105425207" lon="9.365111889586695"><ele>603.6</ele><time>2026-04-30T09:19:57Z</time></trkpt><trkpt lat="44.46759697534042" lon="9.365054847421549"><ele>603.0</ele><time>2026-04-30T09:19:58Z</time></trkpt><trkpt lat="44.4676652054178" lon="9.364939246636931"><ele>603.0</ele><time>2026-04-30T09:19:59Z</time></trkpt><trkpt lat="44.46775431955741" lon="9.364799455378266"><ele>603.0</ele><time>2026-04-30T09:20:00Z</time></trkpt><trkpt lat="44.46777982433142" lon="9.36463968775371"><ele>603.0</ele><time>2026-04-30T09:20:01Z</time></trkpt><trkpt lat="44.46776617585711" lon="9.36449549951089"><ele>603.0</ele><time>2026-04-30T09:20:02Z</time></trkpt><trkpt lat="44.4677045192009" lon="9.364377793625351"><ele>601.4</ele><time>2026-04-30T09:20:03Z</time></trkpt><trkpt lat="44.46760285562633" lon="9.36434620951946"><ele>599.8</ele><time>2026-04-30T09:20:04Z</time></trkpt><trkpt lat="44.46749336488205" lon="9.364361488044953"><ele>598.2</ele><time>2026-04-30T09:20:05Z</time></trkpt><trkpt lat="44.467396087016226" lon="9.364444794665111"><ele>596.6</ele><time>2026-04-30T09:20:06Z</time></trkpt><trkpt lat="44.467316829514914" lon="9.364571151467505"><ele>595.0</ele><time>2026-04-30T09:20:07Z</time></trkpt><trkpt lat="44.467227348800996" lon="9.36468543663117"><ele>597.0</ele><time>2026-04-30T09:20:08Z</time></trkpt><trkpt lat="44.46713792418245" lon="9.364803323618029"><ele>599.0</ele><time>2026-04-30T09:20:09Z</time></trkpt><trkpt lat="44.467061978966655" lon="9.36490841816971"><ele>601.0</ele><time>2026-04-30T09:20:10Z</time></trkpt><trkpt lat="44.46697632038207" lon="9.364939606279648"><ele>603.0</ele><time>2026-04-30T09:20:11Z</time></trkpt><trkpt lat="44.46684988822829" lon="9.36488663432521"><ele>603.75</ele><time>2026-04-30T09:20:13Z</time></trkpt><trkpt lat="44.46675972981904" lon="9.36484029357597"><ele>604.5</ele><time>2026-04-30T09:20:14Z</time></trkpt><trkpt lat="44.46663093340848" lon="9.364765324862308"><ele>605.25</ele><time>2026-04-30T09:20:15Z</time></trkpt><trkpt lat="44.46648818274757" lon="9.364695690973505"><ele>606.0</ele><time>2026-04-30T09:20:16Z</time></trkpt><trkpt lat="44.46632734209203" lon="9.364609873232185"><ele>599.0</ele><time>2026-04-30T09:20:17Z</time></trkpt><trkpt lat="44.46615038703057" lon="9.364525781591052"><ele>592.0</ele><time>2026-04-30T09:20:18Z</time></trkpt><trkpt lat="44.46598461830239" lon="9.364448540244966"><ele>585.0</ele><time>2026-04-30T09:20:19Z</time></trkpt><trkpt lat="44.46582804473144" lon="9.364359377198875"><ele>585.0</ele><time>2026-04-30T09:20:20Z</time></trkpt><trkpt lat="44.46564413217341" lon="9.364343448821314"><ele>585.0</ele><time>2026-04-30T09:20:20.999Z</time></trkpt><trkpt lat="44.46547786948399" lon="9.364350186756614"><ele>585.0</ele><time>2026-04-30T09:20:21.999Z</time></trkpt><trkpt lat="44.46531789835321" lon="9.36434395699059"><ele>583.6666666666666</ele><time>2026-04-30T09:20:22.999Z</time></trkpt><trkpt lat="44.46515291404723" lon="9.364380588792734"><ele>582.3333333333333</ele><time>2026-04-30T09:20:23.999Z</time></trkpt><trkpt lat="44.464980925389185" lon="9.364399906897386"><ele>581.0</ele><time>2026-04-30T09:20:24.999Z</time></trkpt><trkpt lat="44.464800206052665" lon="9.364405488855246"><ele>581.0</ele><time>2026-04-30T09:20:25.999Z</time></trkpt><trkpt lat="44.464645056641054" lon="9.364415334382535"><ele>581.0</ele><time>2026-04-30T09:20:26.999Z</time></trkpt><trkpt lat="44.46451684986272" lon="9.364429342966716"><ele>581.0</ele><time>2026-04-30T09:20:27.999Z</time></trkpt><trkpt lat="44.464407539172676" lon="9.364476478912996"><ele>581.0</ele><time>2026-04-30T09:20:28.999Z</time></trkpt><trkpt lat="44.46427604226554" lon="9.364639476088692"><ele>580.6666666666666</ele><time>2026-04-30T09:20:30.999Z</time></trkpt><trkpt lat="44.46419727861231" lon="9.364816736655612"><ele>580.3333333333334</ele><time>2026-04-30T09:20:31.999Z</time></trkpt><trkpt lat="44.46408326582156" lon="9.36498277220729"><ele>580.0</ele><time>2026-04-30T09:20:32.999Z</time></trkpt><trkpt lat="44.463978671250125" lon="9.36515995304635"><ele>580.0</ele><time>2026-04-30T09:20:33.999Z</time></trkpt><trkpt lat="44.463887302953005" lon="9.36531492721558"><ele>580.0</ele><time>2026-04-30T09:20:34.999Z</time></trkpt><trkpt lat="44.46381773885178" lon="9.365426346196472"><ele>580.0</ele><time>2026-04-30T09:20:35.999Z</time></trkpt><trkpt lat="44.46375302199768" lon="9.365503546836063"><ele>580.0</ele><time>2026-04-30T09:20:36.999Z</time></trkpt><trkpt lat="44.46360715375497" lon="9.36555039261156"><ele>574.25</ele><time>2026-04-30T09:20:38.999Z</time></trkpt><trkpt lat="44.463470819495086" lon="9.365522952983783"><ele>568.5</ele><time>2026-04-30T09:20:39.999Z</time></trkpt><trkpt lat="44.46332259940897" lon="9.365486555754158"><ele>562.75</ele><time>2026-04-30T09:20:40.999Z</time></trkpt><trkpt lat="44.463184275351765" lon="9.365457544948956"><ele>557.0</ele><time>2026-04-30T09:20:41.999Z</time></trkpt><trkpt lat="44.4630808565981" lon="9.365453669247692"><ele>557.0</ele><time>2026-04-30T09:20:42.999Z</time></trkpt><trkpt lat="44.46297382478414" lon="9.365514379434135"><ele>557.0</ele><time>2026-04-30T09:20:43.999Z</time></trkpt><trkpt lat="44.46288122430145" lon="9.365605573585109"><ele>557.0</ele><time>2026-04-30T09:20:44.999Z</time></trkpt><trkpt lat="44.46280309527213" lon="9.365779457453698"><ele>557.0</ele><time>2026-04-30T09:20:45.999Z</time></trkpt><trkpt lat="44.46271298860685" lon="9.365897162480026"><ele>559.5</ele><time>2026-04-30T09:20:46.999Z</time></trkpt><trkpt lat="44.46260244660982" lon="9.365986039869306"><ele>562.0</ele><time>2026-04-30T09:20:47.999Z</time></trkpt><trkpt lat="44.462458042838" lon="9.366085324624816"><ele>564.5</ele><time>2026-04-30T09:20:48.999Z</time></trkpt><trkpt lat="44.462309692703556" lon="9.366151619633131"><ele>567.0</ele><time>2026-04-30T09:20:49.999Z</time></trkpt><trkpt lat="44.46216418625907" lon="9.366225148805364"><ele>569.6666666666666</ele><time>2026-04-30T09:20:50.999Z</time></trkpt><trkpt lat="44.46201459574074" lon="9.366303612412167"><ele>572.3333333333333</ele><time>2026-04-30T09:20:51.999Z</time></trkpt><trkpt lat="44.461860923664005" lon="9.366354587558801"><ele>575.0</ele><time>2026-04-30T09:20:52.999Z</time></trkpt><trkpt lat="44.46171274676945" lon="9.36641478184589"><ele>575.0</ele><time>2026-04-30T09:20:53.999Z</time></trkpt><trkpt lat="44.4615631434748" lon="9.366455461835207"><ele>575.0</ele><time>2026-04-30T09:20:54.999Z</time></trkpt><trkpt lat="44.461422348436834" lon="9.366472988569589"><ele>575.0</ele><time>2026-04-30T09:20:55.999Z</time></trkpt><trkpt lat="44.46127404912107" lon="9.366485033930323"><ele>575.0</ele><time>2026-04-30T09:20:56.999Z</time></trkpt><trkpt lat="44.461109390971586" lon="9.3664978791527"><ele>575.5</ele><time>2026-04-30T09:20:57.999Z</time></trkpt><trkpt lat="44.46095193547234" lon="9.366501262501645"><ele>576.0</ele><time>2026-04-30T09:20:58.999Z</time></trkpt><trkpt lat="44.46081488260087" lon="9.366470825280258"><ele>576.5</ele><time>2026-04-30T09:20:59.999Z</time></trkpt><trkpt lat="44.46069804370078" lon="9.366395620342708"><ele>577.0</ele><time>2026-04-30T09:21:00.999Z</time></trkpt><trkpt lat="44.46054151077041" lon="9.366289616465549"><ele>568.6666666666667</ele><time>2026-04-30T09:21:01.999Z</time></trkpt><trkpt lat="44.4603883247909" lon="9.366222687690543"><ele>560.3333333333334</ele><time>2026-04-30T09:21:02.999Z</time></trkpt><trkpt lat="44.460231418443904" lon="9.36617841467774"><ele>552.0</ele><time>2026-04-30T09:21:03.999Z</time></trkpt><trkpt lat="44.460068093457686" lon="9.366140567611746"><ele>552.0</ele><time>2026-04-30T09:21:04.999Z</time></trkpt><trkpt lat="44.45990900638968" lon="9.366106639315383"><ele>552.0</ele><time>2026-04-30T09:21:05.999Z</time></trkpt><trkpt lat="44.45977059974695" lon="9.366073164247737"><ele>552.0</ele><time>2026-04-30T09:21:06.999Z</time></trkpt><trkpt lat="44.45966148062849" lon="9.366025262383856"><ele>552.0</ele><time>2026-04-30T09:21:07.999Z</time></trkpt><trkpt lat="44.4595597342365" lon="9.365940278649585"><ele>551.0</ele><time>2026-04-30T09:21:08.999Z</time></trkpt><trkpt lat="44.45943317022618" lon="9.36581922560102"><ele>550.0</ele><time>2026-04-30T09:21:09.999Z</time></trkpt><trkpt lat="44.459308249523" lon="9.365724678595265"><ele>549.0</ele><time>2026-04-30T09:21:10.999Z</time></trkpt><trkpt lat="44.45920165679383" lon="9.365586650613409"><ele>548.0</ele><time>2026-04-30T09:21:11.999Z</time></trkpt><trkpt lat="44.45910107316125" lon="9.365490701635117"><ele>543.5</ele><time>2026-04-30T09:21:12.999Z</time></trkpt><trkpt lat="44.45898335729864" lon="9.365405929119865"><ele>539.0</ele><time>2026-04-30T09:21:13.999Z</time></trkpt><trkpt lat="44.45887819305563" lon="9.365369676485434"><ele>534.5</ele><time>2026-04-30T09:21:14.999Z</time></trkpt><trkpt lat="44.45879285509253" lon="9.365436884560483"><ele>530.0</ele><time>2026-04-30T09:21:15.999Z</time></trkpt><trkpt lat="44.45872622764062" lon="9.365562252128681"><ele>527.4</ele><time>2026-04-30T09:21:16.999Z</time></trkpt><trkpt lat="44.45874916618662" lon="9.365710761256945"><ele>524.8</ele><time>2026-04-30T09:21:17.999Z</time></trkpt><trkpt lat="44.45877804958073" lon="9.3658689920455"><ele>522.2</ele><time>2026-04-30T09:21:18.999Z</time></trkpt><trkpt lat="44.45884834219464" lon="9.36598948039221"><ele>519.6</ele><time>2026-04-30T09:21:19.999Z</time></trkpt><trkpt lat="44.45891863284753" lon="9.366109174443785"><ele>517.0</ele><time>2026-04-30T09:21:20.999Z</time></trkpt><trkpt lat="44.45897075894397" lon="9.36627564340502"><ele>525.5</ele><time>2026-04-30T09:21:21.999Z</time></trkpt><trkpt lat="44.45902228301596" lon="9.366447974857143"><ele>534.0</ele><time>2026-04-30T09:21:22.999Z</time></trkpt><trkpt lat="44.45905539015287" lon="9.366626468582231"><ele>542.5</ele><time>2026-04-30T09:21:23.999Z</time></trkpt><trkpt lat="44.45906998804409" lon="9.366834858412222"><ele>551.0</ele><time>2026-04-30T09:21:24.999Z</time></trkpt><trkpt lat="44.4590672922745" lon="9.367048014419396"><ele>550.3333333333333</ele><time>2026-04-30T09:21:25.999Z</time></trkpt><trkpt lat="44.45906660137132" lon="9.367258483533508"><ele>549.6666666666666</ele><time>2026-04-30T09:21:26.999Z</time></trkpt><trkpt lat="44.4590806556154" lon="9.367465355519478"><ele>549.0</ele><time>2026-04-30T09:21:27.999Z</time></trkpt><trkpt lat="44.459112417113566" lon="9.36767598792225"><ele>549.0</ele><time>2026-04-30T09:21:28.999Z</time></trkpt><trkpt lat="44.459147843272056" lon="9.367855793833646"><ele>549.0</ele><time>2026-04-30T09:21:29.999Z</time></trkpt><trkpt lat="44.45917800933283" lon="9.36800750415423"><ele>549.0</ele><time>2026-04-30T09:21:30.999Z</time></trkpt><trkpt lat="44.45920946837308" lon="9.368140987514726"><ele>549.0</ele><time>2026-04-30T09:21:31.999Z</time></trkpt><trkpt lat="44.45925392731261" lon="9.368263898087847"><ele>549.0</ele><time>2026-04-30T09:21:32.999Z</time></trkpt><trkpt lat="44.459274192284234" lon="9.368409559640396"><ele>548.4</ele><time>2026-04-30T09:21:33.999Z</time></trkpt><trkpt lat="44.459254777282815" lon="9.3685242080288"><ele>547.8</ele><time>2026-04-30T09:21:34.999Z</time></trkpt><trkpt lat="44.45920417635249" lon="9.368640954222963"><ele>547.2</ele><time>2026-04-30T09:21:36.999Z</time></trkpt><trkpt lat="44.45907627111509" lon="9.368727521157085"><ele>546.6</ele><time>2026-04-30T09:21:38.999Z</time></trkpt><trkpt lat="44.4589694000681" lon="9.368682466961587"><ele>546.0</ele><time>2026-04-30T09:21:39.999Z</time></trkpt><trkpt lat="44.45884722698882" lon="9.368563198525303"><ele>544.25</ele><time>2026-04-30T09:21:40.999Z</time></trkpt><trkpt lat="44.45871867862354" lon="9.368441877186077"><ele>542.5</ele><time>2026-04-30T09:21:41.998Z</time></trkpt><trkpt lat="44.45859526553697" lon="9.368343463253838"><ele>540.75</ele><time>2026-04-30T09:21:42.998Z</time></trkpt><trkpt lat="44.45846909821652" lon="9.3682320256157"><ele>539.0</ele><time>2026-04-30T09:21:43.998Z</time></trkpt><trkpt lat="44.45832874858986" lon="9.368207542670113"><ele>539.0</ele><time>2026-04-30T09:21:44.998Z</time></trkpt><trkpt lat="44.45820663418637" lon="9.368212044919826"><ele>539.0</ele><time>2026-04-30T09:21:45.998Z</time></trkpt><trkpt lat="44.458108082831814" lon="9.368207218124603"><ele>539.0</ele><time>2026-04-30T09:21:46.998Z</time></trkpt><trkpt lat="44.458008398123106" lon="9.36817044136122"><ele>539.0</ele><time>2026-04-30T09:21:47.998Z</time></trkpt><trkpt lat="44.45793568110979" lon="9.368100703816513"><ele>539.0</ele><time>2026-04-30T09:21:48.998Z</time></trkpt><trkpt lat="44.45785460548941" lon="9.367999031126065"><ele>533.5</ele><time>2026-04-30T09:21:49.998Z</time></trkpt><trkpt lat="44.457732421788116" lon="9.367894076932924"><ele>528.0</ele><time>2026-04-30T09:21:50.998Z</time></trkpt><trkpt lat="44.45760634610372" lon="9.367883392554972"><ele>522.5</ele><time>2026-04-30T09:21:51.998Z</time></trkpt><trkpt lat="44.457492316289915" lon="9.36791339261419"><ele>517.0</ele><time>2026-04-30T09:21:52.998Z</time></trkpt><trkpt lat="44.45740086519546" lon="9.367935060768495"><ele>517.0</ele><time>2026-04-30T09:21:53.998Z</time></trkpt><trkpt lat="44.45728800927134" lon="9.367914757775557"><ele>517.0</ele><time>2026-04-30T09:21:54.998Z</time></trkpt><trkpt lat="44.45720559738865" lon="9.367855241299017"><ele>517.0</ele><time>2026-04-30T09:21:55.998Z</time></trkpt><trkpt lat="44.45709660706479" lon="9.367763624470884"><ele>517.0</ele><time>2026-04-30T09:21:56.998Z</time></trkpt><trkpt lat="44.45698920657296" lon="9.36766848248363"><ele>516.25</ele><time>2026-04-30T09:21:57.998Z</time></trkpt><trkpt lat="44.45688986197553" lon="9.367591368957381"><ele>515.5</ele><time>2026-04-30T09:21:58.998Z</time></trkpt><trkpt lat="44.456747191203796" lon="9.367566311829941"><ele>514.75</ele><time>2026-04-30T09:21:59.998Z</time></trkpt><trkpt lat="44.45664728278683" lon="9.36761081137295"><ele>514.0</ele><time>2026-04-30T09:22:00.998Z</time></trkpt><trkpt lat="44.45653838801636" lon="9.367723877712843"><ele>514.0</ele><time>2026-04-30T09:22:01.998Z</time></trkpt><trkpt lat="44.45641400281275" lon="9.367737877026277"><ele>514.0</ele><time>2026-04-30T09:22:02.998Z</time></trkpt><trkpt lat="44.45629783586924" lon="9.367743830189463"><ele>514.0</ele><time>2026-04-30T09:22:03.998Z</time></trkpt><trkpt lat="44.45620425403448" lon="9.367702217086503"><ele>514.0</ele><time>2026-04-30T09:22:04.998Z</time></trkpt><trkpt lat="44.456120223978495" lon="9.367634460135632"><ele>514.0</ele><time>2026-04-30T09:22:05.998Z</time></trkpt><trkpt lat="44.45607991654999" lon="9.36752191743652"><ele>514.75</ele><time>2026-04-30T09:22:06.998Z</time></trkpt><trkpt lat="44.45602923986816" lon="9.367382709638887"><ele>515.5</ele><time>2026-04-30T09:22:07.998Z</time></trkpt><trkpt lat="44.455982678397966" lon="9.367210137200328"><ele>516.25</ele><time>2026-04-30T09:22:08.998Z</time></trkpt><trkpt lat="44.45593511258901" lon="9.367019206482789"><ele>517.0</ele><time>2026-04-30T09:22:09.998Z</time></trkpt><trkpt lat="44.45588676131468" lon="9.366821867840812"><ele>517.0</ele><time>2026-04-30T09:22:10.998Z</time></trkpt><trkpt lat="44.45582601866042" lon="9.36660712839156"><ele>517.0</ele><time>2026-04-30T09:22:11.998Z</time></trkpt><trkpt lat="44.455754369236395" lon="9.36643056931522"><ele>517.0</ele><time>2026-04-30T09:22:12.998Z</time></trkpt><trkpt lat="44.455678383779244" lon="9.366286219468634"><ele>517.0</ele><time>2026-04-30T09:22:13.998Z</time></trkpt><trkpt lat="44.45558736232739" lon="9.366135853780099"><ele>516.25</ele><time>2026-04-30T09:22:14.998Z</time></trkpt><trkpt lat="44.45549237980578" lon="9.365988919819179"><ele>515.5</ele><time>2026-04-30T09:22:15.998Z</time></trkpt><trkpt lat="44.45540433962982" lon="9.365839805454524"><ele>514.75</ele><time>2026-04-30T09:22:16.998Z</time></trkpt><trkpt lat="44.45532176904563" lon="9.36568796870861"><ele>514.0</ele><time>2026-04-30T09:22:17.998Z</time></trkpt><trkpt lat="44.45524607265957" lon="9.365536881237706"><ele>512.0</ele><time>2026-04-30T09:22:18.998Z</time></trkpt><trkpt lat="44.455176338440836" lon="9.365415935530251"><ele>510.0</ele><time>2026-04-30T09:22:19.998Z</time></trkpt><trkpt lat="44.45510304659579" lon="9.365305071789495"><ele>508.0</ele><time>2026-04-30T09:22:20.998Z</time></trkpt><trkpt lat="44.45504119529553" lon="9.365175629491342"><ele>506.0</ele><time>2026-04-30T09:22:21.998Z</time></trkpt><trkpt lat="44.454968079801745" lon="9.365060297188027"><ele>504.0</ele><time>2026-04-30T09:22:22.998Z</time></trkpt><trkpt lat="44.454888349130826" lon="9.364939434362627"><ele>504.0</ele><time>2026-04-30T09:22:23.998Z</time></trkpt><trkpt lat="44.45481675258256" lon="9.36483740176261"><ele>504.0</ele><time>2026-04-30T09:22:24.998Z</time></trkpt><trkpt lat="44.454692236201254" lon="9.36477577339577"><ele>504.0</ele><time>2026-04-30T09:22:25.998Z</time></trkpt><trkpt lat="44.45458738269292" lon="9.364778553318017"><ele>504.0</ele><time>2026-04-30T09:22:26.998Z</time></trkpt><trkpt lat="44.45449347490053" lon="9.364859090411908"><ele>504.0</ele><time>2026-04-30T09:22:27.998Z</time></trkpt><trkpt lat="44.45443106310508" lon="9.364968352532847"><ele>503.25</ele><time>2026-04-30T09:22:28.998Z</time></trkpt><trkpt lat="44.454397819815476" lon="9.365130470881825"><ele>502.5</ele><time>2026-04-30T09:22:29.998Z</time></trkpt><trkpt lat="44.45438654897496" lon="9.36531294630558"><ele>501.75</ele><time>2026-04-30T09:22:30.998Z</time></trkpt><trkpt lat="44.45432290117529" lon="9.365455784291482"><ele>501.0</ele><time>2026-04-30T09:22:31.998Z</time></trkpt><trkpt lat="44.454219980503616" lon="9.36559632036755"><ele>501.0</ele><time>2026-04-30T09:22:32.998Z</time></trkpt><trkpt lat="44.4541074355726" lon="9.36574740947382"><ele>501.0</ele><time>2026-04-30T09:22:33.998Z</time></trkpt><trkpt lat="44.45402083122185" lon="9.365862550429402"><ele>501.0</ele><time>2026-04-30T09:22:34.998Z</time></trkpt><trkpt lat="44.45395205265349" lon="9.365950552353167"><ele>501.0</ele><time>2026-04-30T09:22:35.998Z</time></trkpt><trkpt lat="44.453875185900316" lon="9.366031308332106"><ele>498.0</ele><time>2026-04-30T09:22:37.998Z</time></trkpt><trkpt lat="44.453749698878134" lon="9.366009864266259"><ele>495.0</ele><time>2026-04-30T09:22:39.998Z</time></trkpt><trkpt lat="44.45365196732322" lon="9.365888305541697"><ele>492.0</ele><time>2026-04-30T09:22:40.998Z</time></trkpt><trkpt lat="44.453589598011725" lon="9.365765261369628"><ele>489.0</ele><time>2026-04-30T09:22:41.998Z</time></trkpt><trkpt lat="44.45353092202561" lon="9.365617163951717"><ele>487.79999999999995</ele><time>2026-04-30T09:22:42.998Z</time></trkpt><trkpt lat="44.45353238507737" lon="9.36547712288733"><ele>486.59999999999997</ele><time>2026-04-30T09:22:43.998Z</time></trkpt><trkpt lat="44.45360229446944" lon="9.365342023327248"><ele>485.4</ele><time>2026-04-30T09:22:44.998Z</time></trkpt><trkpt lat="44.453674647924686" lon="9.365294048551458"><ele>484.2</ele><time>2026-04-30T09:22:45.998Z</time></trkpt><trkpt lat="44.45376446086779" lon="9.365286938780754"><ele>483.0</ele><time>2026-04-30T09:22:46.998Z</time></trkpt><trkpt lat="44.453877284535245" lon="9.365291113206368"><ele>485.59999999999997</ele><time>2026-04-30T09:22:47.998Z</time></trkpt><trkpt lat="44.45399704013817" lon="9.365269464160942"><ele>488.19999999999993</ele><time>2026-04-30T09:22:48.998Z</time></trkpt><trkpt lat="44.454110580736035" lon="9.36522105455205"><ele>490.8</ele><time>2026-04-30T09:22:49.998Z</time></trkpt><trkpt lat="44.454163738452" lon="9.365112048365301"><ele>493.4</ele><time>2026-04-30T09:22:50.998Z</time></trkpt><trkpt lat="44.45419820876594" lon="9.364994149996612"><ele>496.0</ele><time>2026-04-30T09:22:51.998Z</time></trkpt><trkpt lat="44.45421478510047" lon="9.364820393449863"><ele>492.75</ele><time>2026-04-30T09:22:52.998Z</time></trkpt><trkpt lat="44.454215141247296" lon="9.364642782401736"><ele>489.5</ele><time>2026-04-30T09:22:53.998Z</time></trkpt><trkpt lat="44.45421472764334" lon="9.364461962341009"><ele>486.25</ele><time>2026-04-30T09:22:54.998Z</time></trkpt><trkpt lat="44.45422656241336" lon="9.364305427600172"><ele>483.0</ele><time>2026-04-30T09:22:55.998Z</time></trkpt><trkpt lat="44.45426930377267" lon="9.36416362163456"><ele>483.0</ele><time>2026-04-30T09:22:56.998Z</time></trkpt><trkpt lat="44.45431933303528" lon="9.364031539780086"><ele>483.0</ele><time>2026-04-30T09:22:57.998Z</time></trkpt><trkpt lat="44.45439074203549" lon="9.363907513383236"><ele>483.0</ele><time>2026-04-30T09:22:58.998Z</time></trkpt><trkpt lat="44.45448322745542" lon="9.363787031267114"><ele>483.0</ele><time>2026-04-30T09:22:59.998Z</time></trkpt><trkpt lat="44.45457555949564" lon="9.363637379711784"><ele>481.25</ele><time>2026-04-30T09:23:00.998Z</time></trkpt><trkpt lat="44.45467440229142" lon="9.363516307205556"><ele>479.5</ele><time>2026-04-30T09:23:01.998Z</time></trkpt><trkpt lat="44.454740801687585" lon="9.363377243914966"><ele>477.75</ele><time>2026-04-30T09:23:02.997Z</time></trkpt><trkpt lat="44.454817496866355" lon="9.363248681840298"><ele>476.0</ele><time>2026-04-30T09:23:03.997Z</time></trkpt><trkpt lat="44.45487610123258" lon="9.363149633972364"><ele>475.99999999999994</ele><time>2026-04-30T09:23:04.997Z</time></trkpt><trkpt lat="44.45493938735853" lon="9.363056184350668"><ele>476.0</ele><time>2026-04-30T09:23:05.997Z</time></trkpt><trkpt lat="44.455001219463085" lon="9.362995003355415"><ele>476.0</ele><time>2026-04-30T09:23:06.997Z</time></trkpt><trkpt lat="44.45508537066381" lon="9.362977434571025"><ele>476.0</ele><time>2026-04-30T09:23:08.997Z</time></trkpt><trkpt lat="44.45515053756022" lon="9.363046266354518"><ele>475.99999999999994</ele><time>2026-04-30T09:23:10.997Z</time></trkpt><trkpt lat="44.45520404646259" lon="9.363131190158105"><ele>476.0</ele><time>2026-04-30T09:23:11.997Z</time></trkpt><trkpt lat="44.455272104647996" lon="9.363251589218674"><ele>476.0</ele><time>2026-04-30T09:23:12.997Z</time></trkpt><trkpt lat="44.45533477783088" lon="9.363403290891691"><ele>476.0</ele><time>2026-04-30T09:23:13.997Z</time></trkpt><trkpt lat="44.45538299391004" lon="9.363563593005383"><ele>476.0</ele><time>2026-04-30T09:23:14.997Z</time></trkpt><trkpt lat="44.45542703000211" lon="9.363716642856593"><ele>476.0</ele><time>2026-04-30T09:23:15.997Z</time></trkpt><trkpt lat="44.455468498372404" lon="9.363861345360462"><ele>475.25</ele><time>2026-04-30T09:23:16.997Z</time></trkpt><trkpt lat="44.455483780682435" lon="9.364012760899092"><ele>474.5</ele><time>2026-04-30T09:23:17.997Z</time></trkpt><trkpt lat="44.45550128041856" lon="9.364171106849078"><ele>473.75</ele><time>2026-04-30T09:23:18.997Z</time></trkpt><trkpt lat="44.45553256434316" lon="9.364359473348136"><ele>473.0</ele><time>2026-04-30T09:23:19.997Z</time></trkpt><trkpt lat="44.45563900193066" lon="9.364448237511503"><ele>473.0</ele><time>2026-04-30T09:23:20.997Z</time></trkpt><trkpt lat="44.45583712024209" lon="9.364430499485017"><ele>473.0</ele><time>2026-04-30T09:23:21.997Z</time></trkpt><trkpt lat="44.45592181570423" lon="9.364303078226586"><ele>473.0</ele><time>2026-04-30T09:23:22.997Z</time></trkpt><trkpt lat="44.45593819281309" lon="9.364092373120565"><ele>473.0</ele><time>2026-04-30T09:23:23.997Z</time></trkpt><trkpt lat="44.455884394046976" lon="9.36393458716874"><ele>472.99999999999994</ele><time>2026-04-30T09:23:24.997Z</time></trkpt><trkpt lat="44.45583259187704" lon="9.363811809115713"><ele>472.99999999999994</ele><time>2026-04-30T09:23:25.997Z</time></trkpt><trkpt lat="44.45577985344126" lon="9.363686812212235"><ele>473.0</ele><time>2026-04-30T09:23:26.997Z</time></trkpt><trkpt lat="44.455725527191895" lon="9.363557055246723"><ele>473.0</ele><time>2026-04-30T09:23:27.997Z</time></trkpt><trkpt lat="44.455670636701285" lon="9.363424454891039"><ele>471.2</ele><time>2026-04-30T09:23:28.997Z</time></trkpt><trkpt lat="44.45561668019376" lon="9.36329411121563"><ele>469.4</ele><time>2026-04-30T09:23:29.997Z</time></trkpt><trkpt lat="44.455560243168186" lon="9.363157810187602"><ele>467.59999999999997</ele><time>2026-04-30T09:23:30.997Z</time></trkpt><trkpt lat="44.45550411126424" lon="9.363022405600365"><ele>465.79999999999995</ele><time>2026-04-30T09:23:31.997Z</time></trkpt><trkpt lat="44.455450530221874" lon="9.362893154555687"><ele>464.0</ele><time>2026-04-30T09:23:32.997Z</time></trkpt><trkpt lat="44.4553803895103" lon="9.362773803172539"><ele>463.6</ele><time>2026-04-30T09:23:33.997Z</time></trkpt><trkpt lat="44.45532479549408" lon="9.362664402858453"><ele>463.2</ele><time>2026-04-30T09:23:34.997Z</time></trkpt><trkpt lat="44.45526704716428" lon="9.362570847673954"><ele>462.80000000000007</ele><time>2026-04-30T09:23:35.997Z</time></trkpt><trkpt lat="44.45519876205585" lon="9.362503917693134"><ele>462.40000000000003</ele><time>2026-04-30T09:23:36.997Z</time></trkpt><trkpt lat="44.45511801093669" lon="9.362455832749358"><ele>462.0</ele><time>2026-04-30T09:23:37.997Z</time></trkpt><trkpt lat="44.45502021090781" lon="9.362405921283804"><ele>462.0</ele><time>2026-04-30T09:23:38.997Z</time></trkpt><trkpt lat="44.45491495431648" lon="9.362389741785867"><ele>462.00000000000006</ele><time>2026-04-30T09:23:39.997Z</time></trkpt><trkpt lat="44.454805649686854" lon="9.362377517104683"><ele>462.00000000000006</ele><time>2026-04-30T09:23:40.997Z</time></trkpt><trkpt lat="44.45470155550679" lon="9.362361963536507"><ele>462.0</ele><time>2026-04-30T09:23:41.997Z</time></trkpt><trkpt lat="44.45459151949797" lon="9.362334330188576"><ele>462.0</ele><time>2026-04-30T09:23:42.997Z</time></trkpt><trkpt lat="44.45448192874234" lon="9.362301666396105"><ele>462.40000000000003</ele><time>2026-04-30T09:23:43.997Z</time></trkpt><trkpt lat="44.45437036571841" lon="9.36226305282677"><ele>462.80000000000007</ele><time>2026-04-30T09:23:44.997Z</time></trkpt><trkpt lat="44.45426438476663" lon="9.36222159553699"><ele>463.2</ele><time>2026-04-30T09:23:45.997Z</time></trkpt><trkpt lat="44.45416966795026" lon="9.362167809967053"><ele>463.6</ele><time>2026-04-30T09:23:46.997Z</time></trkpt><trkpt lat="44.45407443961625" lon="9.362089804393449"><ele>464.0</ele><time>2026-04-30T09:23:47.997Z</time></trkpt><trkpt lat="44.45398068461915" lon="9.36200884415606"><ele>462.49999999999994</ele><time>2026-04-30T09:23:48.997Z</time></trkpt><trkpt lat="44.453890895788525" lon="9.36193439573818"><ele>461.0</ele><time>2026-04-30T09:23:49.997Z</time></trkpt><trkpt lat="44.4538054980233" lon="9.3618659779272"><ele>459.5</ele><time>2026-04-30T09:23:50.997Z</time></trkpt><trkpt lat="44.45374235014154" lon="9.361773704954366"><ele>458.0</ele><time>2026-04-30T09:23:51.997Z</time></trkpt><trkpt lat="44.45369392633907" lon="9.361690617724111"><ele>456.49999999999994</ele><time>2026-04-30T09:23:52.997Z</time></trkpt><trkpt lat="44.45365764832831" lon="9.361614958309362"><ele>455.0</ele><time>2026-04-30T09:23:53.997Z</time></trkpt><trkpt lat="44.45362202723215" lon="9.361540987382833"><ele>454.99999999999994</ele><time>2026-04-30T09:23:54.997Z</time></trkpt><trkpt lat="44.45356246348112" lon="9.361432541004248"><ele>455.0</ele><time>2026-04-30T09:23:56.997Z</time></trkpt><trkpt lat="44.45352458048744" lon="9.361349041039624"><ele>455.0</ele><time>2026-04-30T09:23:59.997Z</time></trkpt><trkpt lat="44.45348884581051" lon="9.361275610406816"><ele>455.0</ele><time>2026-04-30T09:24:07.997Z</time></trkpt><trkpt lat="44.45347396723164" lon="9.361180214096438"><ele>454.99999999999994</ele><time>2026-04-30T09:25:42.996Z</time></trkpt><trkpt lat="44.45340316660346" lon="9.361088924435476"><ele>455.0</ele><time>2026-04-30T09:25:48Z</time></trkpt><trkpt lat="44.45333946222973" lon="9.361098168535072"><ele>455.0</ele><time>2026-04-30T09:25:49Z</time></trkpt><trkpt lat="44.45324602456237" lon="9.361120735461528"><ele>455.0</ele><time>2026-04-30T09:25:50Z</time></trkpt><trkpt lat="44.45315721506754" lon="9.361214892918703"><ele>455.0</ele><time>2026-04-30T09:25:52Z</time></trkpt><trkpt lat="44.45305535665842" lon="9.36135244739991"><ele>455.0</ele><time>2026-04-30T09:25:54Z</time></trkpt><trkpt lat="44.45307155423201" lon="9.361457267110621"><ele>455.0</ele><time>2026-04-30T09:25:56Z</time></trkpt><trkpt lat="44.453047531683936" lon="9.361572854903725"><ele>454.99999999999994</ele><time>2026-04-30T09:25:57Z</time></trkpt><trkpt lat="44.45299538667879" lon="9.36150669794692"><ele>455.0</ele><time>2026-04-30T09:25:58Z</time></trkpt><trkpt lat="44.452909472715966" lon="9.361547068758327"><ele>455.0</ele><time>2026-04-30T09:25:59Z</time></trkpt><trkpt lat="44.452824387028734" lon="9.361531176736497"><ele>455.0</ele><time>2026-04-30T09:26:00Z</time></trkpt><trkpt lat="44.452751047761154" lon="9.361531146050975"><ele>454.99999999999994</ele><time>2026-04-30T09:26:01Z</time></trkpt><trkpt lat="44.45265574363626" lon="9.361540681970203"><ele>455.0</ele><time>2026-04-30T09:26:02Z</time></trkpt><trkpt lat="44.452545339812815" lon="9.361498893749408"><ele>453.5</ele><time>2026-04-30T09:26:03Z</time></trkpt><trkpt lat="44.45244161019357" lon="9.361554528883659"><ele>452.0</ele><time>2026-04-30T09:26:04Z</time></trkpt><trkpt lat="44.4523426075807" lon="9.361618999195251"><ele>450.5</ele><time>2026-04-30T09:26:05Z</time></trkpt><trkpt lat="44.45216964224358" lon="9.361431624511184"><ele>449.0</ele><time>2026-04-30T09:26:06Z</time></trkpt><trkpt lat="44.45207422456263" lon="9.361495492922064"><ele>444.3333333333333</ele><time>2026-04-30T09:26:07Z</time></trkpt><trkpt lat="44.45199202321367" lon="9.361553068754738"><ele>439.66666666666663</ele><time>2026-04-30T09:26:08Z</time></trkpt><trkpt lat="44.451848270091176" lon="9.361658563831918"><ele>435.0</ele><time>2026-04-30T09:26:09Z</time></trkpt><trkpt lat="44.4516647954478" lon="9.361906994561265"><ele>435.0</ele><time>2026-04-30T09:26:10Z</time></trkpt><trkpt lat="44.45162720905829" lon="9.362060602992992"><ele>435.0</ele><time>2026-04-30T09:26:11Z</time></trkpt><trkpt lat="44.45159677103393" lon="9.362154059635465"><ele>435.0</ele><time>2026-04-30T09:26:12Z</time></trkpt><trkpt lat="44.45175832405586" lon="9.362183535379192"><ele>435.0</ele><time>2026-04-30T09:26:13Z</time></trkpt><trkpt lat="44.45177477059921" lon="9.362391374426535"><ele>439.0</ele><time>2026-04-30T09:26:14Z</time></trkpt><trkpt lat="44.45152456115044" lon="9.362608264272987"><ele>443.0</ele><time>2026-04-30T09:26:15Z</time></trkpt><trkpt lat="44.45127933955501" lon="9.36230044500642"><ele>440.3333333333333</ele><time>2026-04-30T09:26:16Z</time></trkpt><trkpt lat="44.45145676971394" lon="9.361856889043993"><ele>437.66666666666663</ele><time>2026-04-30T09:26:17Z</time></trkpt><trkpt lat="44.451508202409684" lon="9.361774547816205"><ele>435.0</ele><time>2026-04-30T09:26:18Z</time></trkpt><trkpt lat="44.451564307860714" lon="9.3616775193655"><ele>435.0</ele><time>2026-04-30T09:26:19Z</time></trkpt><trkpt lat="44.45161079878141" lon="9.361579364254293"><ele>435.0</ele><time>2026-04-30T09:26:20Z</time></trkpt><trkpt lat="44.45165025480956" lon="9.361468250080804"><ele>435.0</ele><time>2026-04-30T09:26:21Z</time></trkpt><trkpt lat="44.45171908570563" lon="9.36130135685547"><ele>435.0</ele><time>2026-04-30T09:26:22Z</time></trkpt><trkpt lat="44.45182430849557" lon="9.36112650533126"><ele>434.25</ele><time>2026-04-30T09:26:23Z</time></trkpt><trkpt lat="44.45196562038231" lon="9.361002671123554"><ele>433.5</ele><time>2026-04-30T09:26:24Z</time></trkpt><trkpt lat="44.45210141462391" lon="9.360949725381872"><ele>432.75</ele><time>2026-04-30T09:26:25Z</time></trkpt><trkpt lat="44.452206075303465" lon="9.36091461611487"><ele>432.0</ele><time>2026-04-30T09:26:26Z</time></trkpt><trkpt lat="44.45229694689489" lon="9.360859732407144"><ele>432.0</ele><time>2026-04-30T09:26:27Z</time></trkpt><trkpt lat="44.45236768270473" lon="9.360925041359826"><ele>432.00000000000006</ele><time>2026-04-30T09:26:28Z</time></trkpt><trkpt lat="44.452429287576564" lon="9.361057579688367"><ele>432.00000000000006</ele><time>2026-04-30T09:26:30Z</time></trkpt><trkpt lat="44.45252584991947" lon="9.361131834106095"><ele>432.0</ele><time>2026-04-30T09:26:31Z</time></trkpt><trkpt lat="44.45265241682028" lon="9.36118434422565"><ele>432.0</ele><time>2026-04-30T09:26:32Z</time></trkpt><trkpt lat="44.45278249164057" lon="9.361175773458703"><ele>432.0</ele><time>2026-04-30T09:26:33Z</time></trkpt><trkpt lat="44.452871708833804" lon="9.361067096871146"><ele>432.00000000000006</ele><time>2026-04-30T09:26:34Z</time></trkpt><trkpt lat="44.45292837505695" lon="9.360941393539859"><ele>432.00000000000006</ele><time>2026-04-30T09:26:36Z</time></trkpt><trkpt lat="44.452915445039395" lon="9.36080384952387"><ele>432.0</ele><time>2026-04-30T09:26:39Z</time></trkpt><trkpt lat="44.45288572383855" lon="9.360658271404573"><ele>432.0</ele><time>2026-04-30T09:26:41Z</time></trkpt><trkpt lat="44.45282807045142" lon="9.360567532812665"><ele>432.0</ele><time>2026-04-30T09:26:42Z</time></trkpt><trkpt lat="44.45273772643563" lon="9.360597744062112"><ele>432.00000000000006</ele><time>2026-04-30T09:26:43Z</time></trkpt><trkpt lat="44.452653380358605" lon="9.360603773890402"><ele>432.00000000000006</ele><time>2026-04-30T09:26:44Z</time></trkpt><trkpt lat="44.45257499025714" lon="9.360575145319892"><ele>432.0</ele><time>2026-04-30T09:26:45Z</time></trkpt><trkpt lat="44.4524313276805" lon="9.360657820117137"><ele>432.0</ele><time>2026-04-30T09:26:46Z</time></trkpt><trkpt lat="44.45232258011858" lon="9.360561629449544"><ele>429.3333333333333</ele><time>2026-04-30T09:26:47Z</time></trkpt><trkpt lat="44.45224572445259" lon="9.360432990720641"><ele>426.66666666666663</ele><time>2026-04-30T09:26:48Z</time></trkpt><trkpt lat="44.452191850769985" lon="9.360325025318426"><ele>424.0</ele><time>2026-04-30T09:26:49Z</time></trkpt><trkpt lat="44.45215094399842" lon="9.360238481065396"><ele>421.3333333333333</ele><time>2026-04-30T09:26:50Z</time></trkpt><trkpt lat="44.452111425267894" lon="9.36016249775058"><ele>418.66666666666663</ele><time>2026-04-30T09:26:51Z</time></trkpt><trkpt lat="44.45211418730026" lon="9.360070346890122"><ele>416.0</ele><time>2026-04-30T09:26:52Z</time></trkpt><trkpt lat="44.45204610870553" lon="9.360054410489296"><ele>416.0</ele><time>2026-04-30T09:26:52.999Z</time></trkpt><trkpt lat="44.45194729225454" lon="9.35999497627524"><ele>416.0</ele><time>2026-04-30T09:26:53.999Z</time></trkpt><trkpt lat="44.45182930811662" lon="9.36001155502601"><ele>416.0</ele><time>2026-04-30T09:26:54.999Z</time></trkpt><trkpt lat="44.45172027427454" lon="9.36007966404702"><ele>416.0</ele><time>2026-04-30T09:26:55.999Z</time></trkpt><trkpt lat="44.45162067999231" lon="9.360160809385556"><ele>416.0</ele><time>2026-04-30T09:26:56.999Z</time></trkpt><trkpt lat="44.45151709149635" lon="9.360249353278448"><ele>416.0</ele><time>2026-04-30T09:26:57.999Z</time></trkpt><trkpt lat="44.45141712093676" lon="9.360334804358043"><ele>416.0</ele><time>2026-04-30T09:26:58.999Z</time></trkpt><trkpt lat="44.45130585701948" lon="9.36043224554146"><ele>416.0</ele><time>2026-04-30T09:26:59.999Z</time></trkpt><trkpt lat="44.45119685155361" lon="9.360575940924338"><ele>413.25</ele><time>2026-04-30T09:27:00.999Z</time></trkpt><trkpt lat="44.45111916026065" lon="9.360722943978221"><ele>410.5</ele><time>2026-04-30T09:27:01.999Z</time></trkpt><trkpt lat="44.45104540183184" lon="9.360870550958854"><ele>407.75</ele><time>2026-04-30T09:27:02.999Z</time></trkpt><trkpt lat="44.4509739917661" lon="9.36101345834879"><ele>405.0</ele><time>2026-04-30T09:27:03.999Z</time></trkpt><trkpt lat="44.450901576910546" lon="9.361149217990738"><ele>405.0</ele><time>2026-04-30T09:27:04.999Z</time></trkpt><trkpt lat="44.45080949304765" lon="9.361346744986092"><ele>405.0</ele><time>2026-04-30T09:27:05.999Z</time></trkpt><trkpt lat="44.45080965955422" lon="9.361532225859406"><ele>405.0</ele><time>2026-04-30T09:27:06.999Z</time></trkpt><trkpt lat="44.45081684027018" lon="9.361687750497188"><ele>405.0</ele><time>2026-04-30T09:27:07.999Z</time></trkpt><trkpt lat="44.45082852358093" lon="9.36180019747127"><ele>406.8</ele><time>2026-04-30T09:27:08.999Z</time></trkpt><trkpt lat="44.45083035754551" lon="9.361914753273872"><ele>408.6</ele><time>2026-04-30T09:27:09.999Z</time></trkpt><trkpt lat="44.45079542689615" lon="9.36203592910252"><ele>410.4</ele><time>2026-04-30T09:27:10.999Z</time></trkpt><trkpt lat="44.45070742091577" lon="9.362085880705783"><ele>412.2</ele><time>2026-04-30T09:27:11.999Z</time></trkpt><trkpt lat="44.45060723617549" lon="9.362109134573066"><ele>414.0</ele><time>2026-04-30T09:27:12.999Z</time></trkpt><trkpt lat="44.450494023323806" lon="9.362118234039759"><ele>411.5</ele><time>2026-04-30T09:27:13.999Z</time></trkpt><trkpt lat="44.45038632101584" lon="9.362227161519211"><ele>409.0</ele><time>2026-04-30T09:27:14.999Z</time></trkpt><trkpt lat="44.450260680770576" lon="9.362224701794396"><ele>406.5</ele><time>2026-04-30T09:27:15.999Z</time></trkpt><trkpt lat="44.450131434670254" lon="9.362246005902865"><ele>404.0</ele><time>2026-04-30T09:27:16.999Z</time></trkpt><trkpt lat="44.44996427760708" lon="9.362276710418792"><ele>404.0</ele><time>2026-04-30T09:27:17.999Z</time></trkpt><trkpt lat="44.44982602505142" lon="9.362431213279452"><ele>404.0</ele><time>2026-04-30T09:27:18.999Z</time></trkpt><trkpt lat="44.449777391241" lon="9.36263522377486"><ele>404.0</ele><time>2026-04-30T09:27:19.999Z</time></trkpt><trkpt lat="44.4497908037232" lon="9.362812336200564"><ele>404.0</ele><time>2026-04-30T09:27:20.999Z</time></trkpt><trkpt lat="44.44982557900777" lon="9.36297898159587"><ele>404.0</ele><time>2026-04-30T09:27:21.999Z</time></trkpt><trkpt lat="44.449858187128065" lon="9.363124607745661"><ele>404.0</ele><time>2026-04-30T09:27:22.999Z</time></trkpt><trkpt lat="44.44986729979467" lon="9.363237667624158"><ele>404.0</ele><time>2026-04-30T09:27:23.999Z</time></trkpt><trkpt lat="44.449858805094365" lon="9.363335321896045"><ele>404.0</ele><time>2026-04-30T09:27:24.999Z</time></trkpt><trkpt lat="44.44982813942827" lon="9.363443668356753"><ele>404.6</ele><time>2026-04-30T09:27:25.999Z</time></trkpt><trkpt lat="44.44980603537034" lon="9.363531604452715"><ele>405.2</ele><time>2026-04-30T09:27:26.999Z</time></trkpt><trkpt lat="44.44976959468406" lon="9.363610587237398"><ele>405.8</ele><time>2026-04-30T09:27:27.999Z</time></trkpt><trkpt lat="44.44968096025225" lon="9.36366212392549"><ele>406.40000000000003</ele><time>2026-04-30T09:27:28.999Z</time></trkpt><trkpt lat="44.449575108822366" lon="9.363693215983744"><ele>407.0</ele><time>2026-04-30T09:27:29.999Z</time></trkpt><trkpt lat="44.44945894061309" lon="9.363715391531983"><ele>403.5</ele><time>2026-04-30T09:27:30.999Z</time></trkpt><trkpt lat="44.449319050989835" lon="9.363755385429814"><ele>400.0</ele><time>2026-04-30T09:27:31.999Z</time></trkpt><trkpt lat="44.44918205756602" lon="9.363823247838292"><ele>396.5</ele><time>2026-04-30T09:27:32.999Z</time></trkpt><trkpt lat="44.44906399965782" lon="9.363899835444363"><ele>393.0</ele><time>2026-04-30T09:27:33.999Z</time></trkpt><trkpt lat="44.448907888086325" lon="9.364057728225939"><ele>393.0</ele><time>2026-04-30T09:27:34.999Z</time></trkpt><trkpt lat="44.44885367040296" lon="9.364301827121114"><ele>393.0</ele><time>2026-04-30T09:27:35.999Z</time></trkpt><trkpt lat="44.448882629948024" lon="9.36449559025603"><ele>393.0</ele><time>2026-04-30T09:27:36.999Z</time></trkpt><trkpt lat="44.448973941100896" lon="9.364649262377268"><ele>394.59999999999997</ele><time>2026-04-30T09:27:37.999Z</time></trkpt><trkpt lat="44.4490568601291" lon="9.364748595410541"><ele>396.2</ele><time>2026-04-30T09:27:38.999Z</time></trkpt><trkpt lat="44.449121006902175" lon="9.364845839636445"><ele>397.8</ele><time>2026-04-30T09:27:39.999Z</time></trkpt><trkpt lat="44.449129179170654" lon="9.364962270162685"><ele>399.4</ele><time>2026-04-30T09:27:41.999Z</time></trkpt><trkpt lat="44.44908631994081" lon="9.36510642709401"><ele>401.0</ele><time>2026-04-30T09:27:44.999Z</time></trkpt><trkpt lat="44.44904941197823" lon="9.365186649946752"><ele>401.0</ele><time>2026-04-30T09:27:45.999Z</time></trkpt><trkpt lat="44.448963508998546" lon="9.365205166727197"><ele>401.0</ele><time>2026-04-30T09:27:46.999Z</time></trkpt><trkpt lat="44.448859809040314" lon="9.365168450600201"><ele>401.0</ele><time>2026-04-30T09:27:47.999Z</time></trkpt><trkpt lat="44.448747517686456" lon="9.365120230452487"><ele>401.0</ele><time>2026-04-30T09:27:48.999Z</time></trkpt><trkpt lat="44.44865399416115" lon="9.365024356673445"><ele>401.0</ele><time>2026-04-30T09:27:49.999Z</time></trkpt><trkpt lat="44.44854656084831" lon="9.36497391947859"><ele>399.0</ele><time>2026-04-30T09:27:50.999Z</time></trkpt><trkpt lat="44.44843428915333" lon="9.364989822868207"><ele>397.0</ele><time>2026-04-30T09:27:51.999Z</time></trkpt><trkpt lat="44.448308639655096" lon="9.36494748315888"><ele>395.0</ele><time>2026-04-30T09:27:52.999Z</time></trkpt><trkpt lat="44.44818755485269" lon="9.364867492958828"><ele>393.0</ele><time>2026-04-30T09:27:53.999Z</time></trkpt><trkpt lat="44.44809484724652" lon="9.364810035948425"><ele>393.0</ele><time>2026-04-30T09:27:54.999Z</time></trkpt><trkpt lat="44.44798529448" lon="9.364811469588854"><ele>393.0</ele><time>2026-04-30T09:27:55.999Z</time></trkpt><trkpt lat="44.447856561554744" lon="9.364810975642687"><ele>393.0</ele><time>2026-04-30T09:27:56.999Z</time></trkpt><trkpt lat="44.44772676133172" lon="9.36484369830706"><ele>393.0</ele><time>2026-04-30T09:27:57.999Z</time></trkpt><trkpt lat="44.44759907241751" lon="9.3648186375592"><ele>393.66666666666663</ele><time>2026-04-30T09:27:58.999Z</time></trkpt><trkpt lat="44.447454817805436" lon="9.364776439323359"><ele>394.3333333333333</ele><time>2026-04-30T09:27:59.999Z</time></trkpt><trkpt lat="44.44731254642394" lon="9.364710288789366"><ele>395.0</ele><time>2026-04-30T09:28:00.999Z</time></trkpt><trkpt lat="44.44716716480726" lon="9.364643217715738"><ele>384.66666666666663</ele><time>2026-04-30T09:28:01.999Z</time></trkpt><trkpt lat="44.447020808259055" lon="9.364578787204689"><ele>374.3333333333333</ele><time>2026-04-30T09:28:02.999Z</time></trkpt><trkpt lat="44.446877671654015" lon="9.364509146977028"><ele>364.0</ele><time>2026-04-30T09:28:03.999Z</time></trkpt><trkpt lat="44.44667523151308" lon="9.364530729067152"><ele>364.0</ele><time>2026-04-30T09:28:04.999Z</time></trkpt><trkpt lat="44.446476621478645" lon="9.364452263178473"><ele>364.0</ele><time>2026-04-30T09:28:05.999Z</time></trkpt><trkpt lat="44.446278211668655" lon="9.3643886629593"><ele>364.0</ele><time>2026-04-30T09:28:06.999Z</time></trkpt><trkpt lat="44.44610937834238" lon="9.36434729536936"><ele>367.0</ele><time>2026-04-30T09:28:07.999Z</time></trkpt><trkpt lat="44.445957822889085" lon="9.364331167210931"><ele>370.0</ele><time>2026-04-30T09:28:08.999Z</time></trkpt><trkpt lat="44.44580920109098" lon="9.364309636670432"><ele>373.0</ele><time>2026-04-30T09:28:09.999Z</time></trkpt><trkpt lat="44.44565838910652" lon="9.364281452716433"><ele>373.0</ele><time>2026-04-30T09:28:10.999Z</time></trkpt><trkpt lat="44.44552007223619" lon="9.364215759573893"><ele>373.0</ele><time>2026-04-30T09:28:11.998Z</time></trkpt><trkpt lat="44.445359960294574" lon="9.364158405596372"><ele>373.0</ele><time>2026-04-30T09:28:12.998Z</time></trkpt><trkpt lat="44.445182181443364" lon="9.36408987406649"><ele>371.75</ele><time>2026-04-30T09:28:13.998Z</time></trkpt><trkpt lat="44.44502371083708" lon="9.364096203259871"><ele>370.5</ele><time>2026-04-30T09:28:14.998Z</time></trkpt><trkpt lat="44.444896717484845" lon="9.364086167138664"><ele>369.25</ele><time>2026-04-30T09:28:15.998Z</time></trkpt><trkpt lat="44.44477381110955" lon="9.364216016936991"><ele>368.0</ele><time>2026-04-30T09:28:16.998Z</time></trkpt><trkpt lat="44.444680453618325" lon="9.364342423665851"><ele>366.2</ele><time>2026-04-30T09:28:17.998Z</time></trkpt><trkpt lat="44.44458664908144" lon="9.364435650061411"><ele>364.4</ele><time>2026-04-30T09:28:18.998Z</time></trkpt><trkpt lat="44.444509479342656" lon="9.364518148515637"><ele>362.59999999999997</ele><time>2026-04-30T09:28:19.998Z</time></trkpt><trkpt lat="44.44442561265219" lon="9.364520660760334"><ele>360.79999999999995</ele><time>2026-04-30T09:28:20.998Z</time></trkpt><trkpt lat="44.44433234912222" lon="9.36445065463772"><ele>359.0</ele><time>2026-04-30T09:28:21.998Z</time></trkpt><trkpt lat="44.44422500586748" lon="9.364407060958525"><ele>359.0</ele><time>2026-04-30T09:28:22.998Z</time></trkpt><trkpt lat="44.44409894930299" lon="9.364396890566843"><ele>359.0</ele><time>2026-04-30T09:28:23.998Z</time></trkpt><trkpt lat="44.44397179146994" lon="9.364351352958126"><ele>359.0</ele><time>2026-04-30T09:28:24.998Z</time></trkpt><trkpt lat="44.44385736588199" lon="9.364328374771059"><ele>359.0</ele><time>2026-04-30T09:28:25.998Z</time></trkpt><trkpt lat="44.44374829568612" lon="9.364273394012782"><ele>360.0</ele><time>2026-04-30T09:28:26.998Z</time></trkpt><trkpt lat="44.44366299129429" lon="9.364152400352928"><ele>361.0</ele><time>2026-04-30T09:28:27.998Z</time></trkpt><trkpt lat="44.44357090109828" lon="9.364036070816443"><ele>362.0</ele><time>2026-04-30T09:28:28.998Z</time></trkpt><trkpt lat="44.44347438836182" lon="9.363921841809695"><ele>363.0</ele><time>2026-04-30T09:28:29.998Z</time></trkpt><trkpt lat="44.44338047178527" lon="9.363844694326225"><ele>358.79999999999995</ele><time>2026-04-30T09:28:30.998Z</time></trkpt><trkpt lat="44.44326988288253" lon="9.363799779937414"><ele>354.6</ele><time>2026-04-30T09:28:31.998Z</time></trkpt><trkpt lat="44.44315715236568" lon="9.363805711195587"><ele>350.4</ele><time>2026-04-30T09:28:32.998Z</time></trkpt><trkpt lat="44.44306807023183" lon="9.363827773644854"><ele>346.20000000000005</ele><time>2026-04-30T09:28:33.998Z</time></trkpt><trkpt lat="44.44298737734904" lon="9.36383901333834"><ele>342.0</ele><time>2026-04-30T09:28:34.998Z</time></trkpt><trkpt lat="44.44291581831613" lon="9.363843786738242"><ele>340.20000000000005</ele><time>2026-04-30T09:28:35.998Z</time></trkpt><trkpt lat="44.44280917960687" lon="9.363832436896402"><ele>338.4</ele><time>2026-04-30T09:28:37.998Z</time></trkpt><trkpt lat="44.44272575333884" lon="9.36384304462175"><ele>336.6</ele><time>2026-04-30T09:28:58.998Z</time></trkpt><trkpt lat="44.44260546545845" lon="9.363832041178885"><ele>334.79999999999995</ele><time>2026-04-30T09:29:41.997Z</time></trkpt><trkpt lat="44.44252383984738" lon="9.363809908366846"><ele>333.0</ele><time>2026-04-30T09:29:43.997Z</time></trkpt><trkpt lat="44.44242292101721" lon="9.363835792833322"><ele>333.0</ele><time>2026-04-30T09:29:45.997Z</time></trkpt><trkpt lat="44.44229881690611" lon="9.363821236751331"><ele>333.0</ele><time>2026-04-30T09:29:47.997Z</time></trkpt><trkpt lat="44.44223437116671" lon="9.363795502661844"><ele>333.0</ele><time>2026-04-30T09:29:48.997Z</time></trkpt><trkpt lat="44.442169972058544" lon="9.363778957186067"><ele>333.0</ele><time>2026-04-30T09:29:49.997Z</time></trkpt><trkpt lat="44.44209119805767" lon="9.363763638624443"><ele>333.0</ele><time>2026-04-30T09:29:50.997Z</time></trkpt><trkpt lat="44.442018468571156" lon="9.363749556153925"><ele>333.0</ele><time>2026-04-30T09:29:51.997Z</time></trkpt><trkpt lat="44.44195030952656" lon="9.36377243591481"><ele>334.6666666666667</ele><time>2026-04-30T09:29:52.997Z</time></trkpt><trkpt lat="44.44186042551938" lon="9.363812899958646"><ele>336.3333333333333</ele><time>2026-04-30T09:29:53.997Z</time></trkpt><trkpt lat="44.44180579160157" lon="9.363887499349003"><ele>338.0</ele><time>2026-04-30T09:29:54.997Z</time></trkpt><trkpt lat="44.44177401754123" lon="9.36396538288311"><ele>339.66666666666663</ele><time>2026-04-30T09:29:55.997Z</time></trkpt><trkpt lat="44.44173644639658" lon="9.364064181486027"><ele>341.3333333333333</ele><time>2026-04-30T09:29:56.997Z</time></trkpt><trkpt lat="44.441722392224214" lon="9.364171204369637"><ele>343.0</ele><time>2026-04-30T09:29:57.997Z</time></trkpt><trkpt lat="44.44168059538046" lon="9.364265167423723"><ele>343.0</ele><time>2026-04-30T09:29:58.997Z</time></trkpt><trkpt lat="44.44157809872801" lon="9.364322593330643"><ele>343.0</ele><time>2026-04-30T09:30:00.997Z</time></trkpt><trkpt lat="44.44148753527328" lon="9.36436100218784"><ele>343.0</ele><time>2026-04-30T09:30:01.997Z</time></trkpt><trkpt lat="44.44141382160331" lon="9.364433920955332"><ele>343.0</ele><time>2026-04-30T09:30:02.997Z</time></trkpt><trkpt lat="44.44136419805755" lon="9.364518341700672"><ele>343.0</ele><time>2026-04-30T09:30:03.997Z</time></trkpt><trkpt lat="44.44131232273757" lon="9.364620461057292"><ele>343.0</ele><time>2026-04-30T09:30:04.997Z</time></trkpt><trkpt lat="44.44125898845748" lon="9.364728577809514"><ele>343.0</ele><time>2026-04-30T09:30:05.997Z</time></trkpt><trkpt lat="44.44119418965179" lon="9.364846142299099"><ele>343.0</ele><time>2026-04-30T09:30:06.997Z</time></trkpt><trkpt lat="44.44113731707008" lon="9.364965427453075"><ele>343.0</ele><time>2026-04-30T09:30:07.997Z</time></trkpt><trkpt lat="44.441077321553315" lon="9.365088201080905"><ele>343.0</ele><time>2026-04-30T09:30:08.997Z</time></trkpt><trkpt lat="44.44102074719683" lon="9.365202065436609"><ele>343.0</ele><time>2026-04-30T09:30:09.997Z</time></trkpt><trkpt lat="44.44096913522446" lon="9.36529703862519"><ele>343.0</ele><time>2026-04-30T09:30:10.997Z</time></trkpt><trkpt lat="44.44089768757851" lon="9.36536086620761"><ele>343.0</ele><time>2026-04-30T09:30:11.997Z</time></trkpt><trkpt lat="44.440811817531134" lon="9.365386990865014"><ele>343.0</ele><time>2026-04-30T09:30:12.997Z</time></trkpt><trkpt lat="44.44071639384157" lon="9.365353938315874"><ele>343.0</ele><time>2026-04-30T09:30:13.997Z</time></trkpt><trkpt lat="44.44061399986957" lon="9.365315148456592"><ele>343.0</ele><time>2026-04-30T09:30:14.997Z</time></trkpt><trkpt lat="44.440512835374285" lon="9.365271794179618"><ele>343.0</ele><time>2026-04-30T09:30:15.997Z</time></trkpt><trkpt lat="44.44040851883542" lon="9.365297511620245"><ele>343.0</ele><time>2026-04-30T09:30:16.997Z</time></trkpt><trkpt lat="44.44030374404762" lon="9.365357724478704"><ele>343.0</ele><time>2026-04-30T09:30:17.997Z</time></trkpt><trkpt lat="44.44019496584401" lon="9.365427602673007"><ele>343.0</ele><time>2026-04-30T09:30:18.997Z</time></trkpt><trkpt lat="44.44008032451583" lon="9.365500389802147"><ele>343.5</ele><time>2026-04-30T09:30:19.997Z</time></trkpt><trkpt lat="44.43996272790423" lon="9.365581586572342"><ele>344.0</ele><time>2026-04-30T09:30:20.997Z</time></trkpt><trkpt lat="44.43986402521517" lon="9.365713696418076"><ele>344.5</ele><time>2026-04-30T09:30:21.997Z</time></trkpt><trkpt lat="44.43975318204971" lon="9.365838239912877"><ele>345.0</ele><time>2026-04-30T09:30:22.997Z</time></trkpt><trkpt lat="44.439644025301845" lon="9.365965937550811"><ele>338.5</ele><time>2026-04-30T09:30:23.997Z</time></trkpt><trkpt lat="44.439530062341156" lon="9.366075811478959"><ele>332.0</ele><time>2026-04-30T09:30:24.997Z</time></trkpt><trkpt lat="44.439424659584745" lon="9.366209588529864"><ele>325.5</ele><time>2026-04-30T09:30:25.997Z</time></trkpt><trkpt lat="44.43930473656298" lon="9.366320866936219"><ele>319.0</ele><time>2026-04-30T09:30:26.997Z</time></trkpt><trkpt lat="44.439171380391514" lon="9.36635913546008"><ele>321.25</ele><time>2026-04-30T09:30:27.997Z</time></trkpt><trkpt lat="44.439049195323264" lon="9.36642031979807"><ele>323.5</ele><time>2026-04-30T09:30:28.997Z</time></trkpt><trkpt lat="44.43892814144095" lon="9.366442404440358"><ele>325.75</ele><time>2026-04-30T09:30:29.997Z</time></trkpt><trkpt lat="44.43881674776622" lon="9.366451921887851"><ele>328.0</ele><time>2026-04-30T09:30:30.997Z</time></trkpt><trkpt lat="44.4387216574981" lon="9.366409259968586"><ele>328.0</ele><time>2026-04-30T09:30:31.997Z</time></trkpt><trkpt lat="44.438634244070215" lon="9.36638215777174"><ele>328.0</ele><time>2026-04-30T09:30:32.997Z</time></trkpt><trkpt lat="44.43854175753179" lon="9.366378425236077"><ele>328.0</ele><time>2026-04-30T09:30:33.997Z</time></trkpt><trkpt lat="44.43844623089713" lon="9.366368228431867"><ele>328.0</ele><time>2026-04-30T09:30:34.997Z</time></trkpt><trkpt lat="44.43835568236641" lon="9.366416445365402"><ele>328.0</ele><time>2026-04-30T09:30:35.997Z</time></trkpt><trkpt lat="44.438262522697514" lon="9.366490695420074"><ele>328.0</ele><time>2026-04-30T09:30:36.997Z</time></trkpt><trkpt lat="44.43816678718453" lon="9.36655647741259"><ele>328.0</ele><time>2026-04-30T09:30:37.997Z</time></trkpt><trkpt lat="44.43807022351658" lon="9.366660172062181"><ele>328.0</ele><time>2026-04-30T09:30:38.997Z</time></trkpt><trkpt lat="44.43795322660609" lon="9.366740019902661"><ele>328.0</ele><time>2026-04-30T09:30:39.997Z</time></trkpt><trkpt lat="44.43784160909971" lon="9.366841480846814"><ele>324.25</ele><time>2026-04-30T09:30:40.997Z</time></trkpt><trkpt lat="44.43772680316248" lon="9.366939560875224"><ele>320.5</ele><time>2026-04-30T09:30:41.997Z</time></trkpt><trkpt lat="44.4376040174797" lon="9.367017539780019"><ele>316.75</ele><time>2026-04-30T09:30:42.997Z</time></trkpt><trkpt lat="44.437494296970335" lon="9.367117406173243"><ele>313.0</ele><time>2026-04-30T09:30:43.997Z</time></trkpt><trkpt lat="44.43736657832715" lon="9.367145356161295"><ele>313.25</ele><time>2026-04-30T09:30:44.997Z</time></trkpt><trkpt lat="44.4372462743426" lon="9.367206973820373"><ele>313.5</ele><time>2026-04-30T09:30:45.997Z</time></trkpt><trkpt lat="44.437128449389036" lon="9.367263910634115"><ele>313.75</ele><time>2026-04-30T09:30:46.997Z</time></trkpt><trkpt lat="44.437013282802674" lon="9.367307485509926"><ele>314.0</ele><time>2026-04-30T09:30:47.997Z</time></trkpt><trkpt lat="44.43689817532824" lon="9.36734596831112"><ele>314.0</ele><time>2026-04-30T09:30:48.996Z</time></trkpt><trkpt lat="44.43678278392268" lon="9.367386708857614"><ele>314.0</ele><time>2026-04-30T09:30:49.996Z</time></trkpt><trkpt lat="44.43667473711005" lon="9.367448001779517"><ele>314.0</ele><time>2026-04-30T09:30:50.996Z</time></trkpt><trkpt lat="44.43656593730137" lon="9.36748137121832"><ele>314.0</ele><time>2026-04-30T09:30:51.996Z</time></trkpt><trkpt lat="44.4364675552524" lon="9.367524519758542"><ele>314.0</ele><time>2026-04-30T09:30:52.996Z</time></trkpt><trkpt lat="44.43636296200364" lon="9.367568275475767"><ele>314.0</ele><time>2026-04-30T09:30:53.996Z</time></trkpt><trkpt lat="44.43625520430058" lon="9.367653207821117"><ele>314.0</ele><time>2026-04-30T09:30:54.996Z</time></trkpt><trkpt lat="44.436185357145575" lon="9.367771003832075"><ele>314.0</ele><time>2026-04-30T09:30:55.996Z</time></trkpt><trkpt lat="44.436133851407575" lon="9.367909455930674"><ele>312.75</ele><time>2026-04-30T09:30:56.996Z</time></trkpt><trkpt lat="44.43602672414211" lon="9.367976838231206"><ele>311.5</ele><time>2026-04-30T09:30:57.996Z</time></trkpt><trkpt lat="44.43590925871935" lon="9.368057024339143"><ele>310.25</ele><time>2026-04-30T09:30:58.996Z</time></trkpt><trkpt lat="44.435780615699485" lon="9.36812323305214"><ele>309.0</ele><time>2026-04-30T09:30:59.996Z</time></trkpt><trkpt lat="44.4356492278267" lon="9.368186434350669"><ele>309.0</ele><time>2026-04-30T09:31:00.996Z</time></trkpt><trkpt lat="44.43551834670085" lon="9.368253365298713"><ele>309.0</ele><time>2026-04-30T09:31:01.996Z</time></trkpt><trkpt lat="44.43539602497573" lon="9.368326800287921"><ele>309.0</ele><time>2026-04-30T09:31:02.996Z</time></trkpt><trkpt lat="44.43528072858972" lon="9.368421584860064"><ele>309.0</ele><time>2026-04-30T09:31:03.996Z</time></trkpt><trkpt lat="44.43517087234439" lon="9.368529640573366"><ele>307.25</ele><time>2026-04-30T09:31:04.996Z</time></trkpt><trkpt lat="44.43507494382006" lon="9.368665290406708"><ele>305.5</ele><time>2026-04-30T09:31:05.996Z</time></trkpt><trkpt lat="44.43499938799794" lon="9.368827670133209"><ele>303.75</ele><time>2026-04-30T09:31:06.996Z</time></trkpt><trkpt lat="44.43495059954518" lon="9.369004128781322"><ele>302.0</ele><time>2026-04-30T09:31:07.996Z</time></trkpt><trkpt lat="44.43490319948839" lon="9.369177209406207"><ele>302.0</ele><time>2026-04-30T09:31:08.996Z</time></trkpt><trkpt lat="44.434851919419664" lon="9.369346014456124"><ele>302.0</ele><time>2026-04-30T09:31:09.996Z</time></trkpt><trkpt lat="44.43480517610047" lon="9.36951269568445"><ele>302.0</ele><time>2026-04-30T09:31:10.996Z</time></trkpt><trkpt lat="44.43477440108659" lon="9.369687355938916"><ele>302.0</ele><time>2026-04-30T09:31:11.996Z</time></trkpt><trkpt lat="44.43477734100983" lon="9.369869582720941"><ele>302.75</ele><time>2026-04-30T09:31:12.996Z</time></trkpt><trkpt lat="44.4347538597726" lon="9.370059228696872"><ele>303.5</ele><time>2026-04-30T09:31:13.996Z</time></trkpt><trkpt lat="44.43474381972228" lon="9.370237749828734"><ele>304.25</ele><time>2026-04-30T09:31:14.996Z</time></trkpt><trkpt lat="44.43473618869836" lon="9.370388714039715"><ele>305.0</ele><time>2026-04-30T09:31:15.996Z</time></trkpt><trkpt lat="44.43472279299873" lon="9.370503756309331"><ele>305.5</ele><time>2026-04-30T09:31:16.996Z</time></trkpt><trkpt lat="44.434721508943475" lon="9.37062319528391"><ele>306.0</ele><time>2026-04-30T09:31:17.996Z</time></trkpt><trkpt lat="44.43466772709807" lon="9.370709791618209"><ele>306.5</ele><time>2026-04-30T09:31:18.996Z</time></trkpt><trkpt lat="44.434592469982704" lon="9.370743737223322"><ele>307.0</ele><time>2026-04-30T09:31:19.996Z</time></trkpt><trkpt lat="44.434507810879936" lon="9.370733643784845"><ele>307.5</ele><time>2026-04-30T09:31:20.996Z</time></trkpt><trkpt lat="44.43441117952743" lon="9.370697491748652"><ele>308.0</ele><time>2026-04-30T09:31:21.996Z</time></trkpt><trkpt lat="44.43430859078717" lon="9.370597778070751"><ele>306.2</ele><time>2026-04-30T09:31:22.996Z</time></trkpt><trkpt lat="44.4341879773951" lon="9.37055521115266"><ele>304.4</ele><time>2026-04-30T09:31:23.996Z</time></trkpt><trkpt lat="44.434091767202766" lon="9.370484056398105"><ele>302.59999999999997</ele><time>2026-04-30T09:31:24.996Z</time></trkpt><trkpt lat="44.43400006434706" lon="9.370427843985231"><ele>300.8</ele><time>2026-04-30T09:31:25.996Z</time></trkpt><trkpt lat="44.433908120319316" lon="9.370408683122333"><ele>299.0</ele><time>2026-04-30T09:31:26.996Z</time></trkpt><trkpt lat="44.4338161355355" lon="9.370443575172214"><ele>294.25</ele><time>2026-04-30T09:31:27.996Z</time></trkpt><trkpt lat="44.43372141457207" lon="9.370522912915236"><ele>289.5</ele><time>2026-04-30T09:31:28.996Z</time></trkpt><trkpt lat="44.433629185984095" lon="9.37063922908399"><ele>284.75</ele><time>2026-04-30T09:31:29.996Z</time></trkpt><trkpt lat="44.43353329709127" lon="9.370767503317085"><ele>280.0</ele><time>2026-04-30T09:31:30.996Z</time></trkpt><trkpt lat="44.43342858368978" lon="9.37089468849763"><ele>280.0</ele><time>2026-04-30T09:31:31.996Z</time></trkpt><trkpt lat="44.433321392253646" lon="9.371026238184674"><ele>280.0</ele><time>2026-04-30T09:31:32.996Z</time></trkpt><trkpt lat="44.433214821361716" lon="9.371140763482611"><ele>280.0</ele><time>2026-04-30T09:31:33.996Z</time></trkpt><trkpt lat="44.43311809315301" lon="9.371244888804679"><ele>280.0</ele><time>2026-04-30T09:31:34.996Z</time></trkpt><trkpt lat="44.433017880586554" lon="9.37131686330415"><ele>282.0</ele><time>2026-04-30T09:31:35.996Z</time></trkpt><trkpt lat="44.43290704692536" lon="9.371357448727053"><ele>284.0</ele><time>2026-04-30T09:31:36.996Z</time></trkpt><trkpt lat="44.43278496216666" lon="9.371332668521626"><ele>286.0</ele><time>2026-04-30T09:31:37.996Z</time></trkpt><trkpt lat="44.43266077963116" lon="9.37133547345211"><ele>288.0</ele><time>2026-04-30T09:31:38.996Z</time></trkpt><trkpt lat="44.432527838548815" lon="9.371378291364174"><ele>282.25</ele><time>2026-04-30T09:31:39.996Z</time></trkpt><trkpt lat="44.43239808618425" lon="9.371346880936784"><ele>276.5</ele><time>2026-04-30T09:31:40.996Z</time></trkpt><trkpt lat="44.43226795540784" lon="9.37133800078414"><ele>270.75</ele><time>2026-04-30T09:31:41.996Z</time></trkpt><trkpt lat="44.432143611777285" lon="9.371351072321822"><ele>265.0</ele><time>2026-04-30T09:31:42.996Z</time></trkpt><trkpt lat="44.43202447979285" lon="9.371318620046592"><ele>265.2</ele><time>2026-04-30T09:31:43.996Z</time></trkpt><trkpt lat="44.43191753428392" lon="9.371329222806143"><ele>265.4</ele><time>2026-04-30T09:31:44.996Z</time></trkpt><trkpt lat="44.431819037447106" lon="9.371382325540887"><ele>265.6</ele><time>2026-04-30T09:31:45.996Z</time></trkpt><trkpt lat="44.431723714407916" lon="9.371472816040525"><ele>265.8</ele><time>2026-04-30T09:31:46.996Z</time></trkpt><trkpt lat="44.431656534054454" lon="9.37161323539225"><ele>266.0</ele><time>2026-04-30T09:31:47.996Z</time></trkpt><trkpt lat="44.43160212618786" lon="9.371764873794005"><ele>266.0</ele><time>2026-04-30T09:31:48.996Z</time></trkpt><trkpt lat="44.43154606079166" lon="9.37192598970713"><ele>266.0</ele><time>2026-04-30T09:31:49.996Z</time></trkpt><trkpt lat="44.431487321553384" lon="9.372094789298297"><ele>266.0</ele><time>2026-04-30T09:31:50.996Z</time></trkpt><trkpt lat="44.43142730168639" lon="9.372267269265413"><ele>266.0</ele><time>2026-04-30T09:31:51.996Z</time></trkpt><trkpt lat="44.43136683499024" lon="9.37244103317039"><ele>262.25</ele><time>2026-04-30T09:31:52.996Z</time></trkpt><trkpt lat="44.43130339165372" lon="9.372617504407936"><ele>258.5</ele><time>2026-04-30T09:31:53.996Z</time></trkpt><trkpt lat="44.43123844435167" lon="9.372793918451563"><ele>254.75</ele><time>2026-04-30T09:31:54.996Z</time></trkpt><trkpt lat="44.43115395667327" lon="9.372948874392334"><ele>251.0</ele><time>2026-04-30T09:31:55.996Z</time></trkpt><trkpt lat="44.43106743777163" lon="9.373101525371029"><ele>251.0</ele><time>2026-04-30T09:31:56.996Z</time></trkpt><trkpt lat="44.430990324464034" lon="9.373260793639421"><ele>251.0</ele><time>2026-04-30T09:31:57.996Z</time></trkpt><trkpt lat="44.430919771007396" lon="9.373436557205547"><ele>251.0</ele><time>2026-04-30T09:31:58.996Z</time></trkpt><trkpt lat="44.430846382423276" lon="9.373617726368899"><ele>251.0</ele><time>2026-04-30T09:31:59.996Z</time></trkpt><trkpt lat="44.430782109147025" lon="9.373801911531634"><ele>256.0</ele><time>2026-04-30T09:32:00.996Z</time></trkpt><trkpt lat="44.43071874064856" lon="9.3739775061678"><ele>261.0</ele><time>2026-04-30T09:32:01.996Z</time></trkpt><trkpt lat="44.43066280415528" lon="9.374156881726512"><ele>266.0</ele><time>2026-04-30T09:32:02.996Z</time></trkpt><trkpt lat="44.43061707014707" lon="9.37433692971324"><ele>271.0</ele><time>2026-04-30T09:32:03.996Z</time></trkpt><trkpt lat="44.43057637570944" lon="9.374502242572012"><ele>271.0</ele><time>2026-04-30T09:32:04.996Z</time></trkpt><trkpt lat="44.430552607436816" lon="9.3746711719964"><ele>271.0</ele><time>2026-04-30T09:32:05.996Z</time></trkpt><trkpt lat="44.430481551885485" lon="9.374817186069947"><ele>271.0</ele><time>2026-04-30T09:32:06.996Z</time></trkpt><trkpt lat="44.43039748326344" lon="9.374960095695629"><ele>271.0</ele><time>2026-04-30T09:32:07.995Z</time></trkpt><trkpt lat="44.43029829594985" lon="9.375087520517008"><ele>262.5</ele><time>2026-04-30T09:32:08.995Z</time></trkpt><trkpt lat="44.43020316252385" lon="9.375222165682777"><ele>254.0</ele><time>2026-04-30T09:32:09.995Z</time></trkpt><trkpt lat="44.430111865792156" lon="9.375344728775046"><ele>245.5</ele><time>2026-04-30T09:32:10.995Z</time></trkpt><trkpt lat="44.43002596389819" lon="9.375436430384955"><ele>237.0</ele><time>2026-04-30T09:32:11.995Z</time></trkpt><trkpt lat="44.42992991523173" lon="9.37551514198704"><ele>229.75</ele><time>2026-04-30T09:32:12.995Z</time></trkpt><trkpt lat="44.42980117565384" lon="9.375546163093933"><ele>222.5</ele><time>2026-04-30T09:32:13.995Z</time></trkpt><trkpt lat="44.42967266876936" lon="9.375533877172513"><ele>215.25</ele><time>2026-04-30T09:32:14.995Z</time></trkpt><trkpt lat="44.42955119140603" lon="9.375499048083114"><ele>208.0</ele><time>2026-04-30T09:32:15.995Z</time></trkpt><trkpt lat="44.42945421365927" lon="9.375461889194625"><ele>207.99999999999997</ele><time>2026-04-30T09:32:16.995Z</time></trkpt><trkpt lat="44.42937383269593" lon="9.375440400523843"><ele>208.0</ele><time>2026-04-30T09:32:17.995Z</time></trkpt><trkpt lat="44.42929346445056" lon="9.375462604608488"><ele>208.0</ele><time>2026-04-30T09:32:18.995Z</time></trkpt><trkpt lat="44.429219386535706" lon="9.375522568701474"><ele>208.0</ele><time>2026-04-30T09:32:19.995Z</time></trkpt><trkpt lat="44.42919741449677" lon="9.375644861815678"><ele>207.99999999999997</ele><time>2026-04-30T09:32:20.995Z</time></trkpt><trkpt lat="44.42917519490087" lon="9.3757742574246"><ele>208.0</ele><time>2026-04-30T09:32:21.995Z</time></trkpt><trkpt lat="44.4291430345841" lon="9.375892405272289"><ele>213.16666666666666</ele><time>2026-04-30T09:32:22.995Z</time></trkpt><trkpt lat="44.429102302477915" lon="9.376003644120452"><ele>218.33333333333331</ele><time>2026-04-30T09:32:23.995Z</time></trkpt><trkpt lat="44.429110458904184" lon="9.37610023240039"><ele>223.5</ele><time>2026-04-30T09:32:24.995Z</time></trkpt><trkpt lat="44.42908082058394" lon="9.376242469547527"><ele>228.66666666666669</ele><time>2026-04-30T09:32:26.995Z</time></trkpt><trkpt lat="44.42906959751293" lon="9.376348885428131"><ele>233.83333333333334</ele><time>2026-04-30T09:32:29.995Z</time></trkpt><trkpt lat="44.42907604542882" lon="9.37645353930859"><ele>239.0</ele><time>2026-04-30T09:33:33Z</time></trkpt><trkpt lat="44.4290618113723" lon="9.376554713153244"><ele>241.83333333333334</ele><time>2026-04-30T09:34:40.999Z</time></trkpt><trkpt lat="44.42904825284077" lon="9.376675962273616"><ele>244.66666666666669</ele><time>2026-04-30T09:34:42.999Z</time></trkpt><trkpt lat="44.429034020866794" lon="9.37685075403441"><ele>247.5</ele><time>2026-04-30T09:34:44.999Z</time></trkpt><trkpt lat="44.42902755926361" lon="9.37694697601677"><ele>250.33333333333331</ele><time>2026-04-30T09:34:45.998Z</time></trkpt><trkpt lat="44.42900588441251" lon="9.377042295193139"><ele>253.16666666666666</ele><time>2026-04-30T09:34:46.998Z</time></trkpt><trkpt lat="44.42899208833723" lon="9.37712933159269"><ele>256.0</ele><time>2026-04-30T09:34:47.998Z</time></trkpt><trkpt lat="44.42896703714243" lon="9.377223886900328"><ele>258.0</ele><time>2026-04-30T09:34:48.998Z</time></trkpt><trkpt lat="44.42893092948092" lon="9.377320698702576"><ele>260.0</ele><time>2026-04-30T09:34:49.998Z</time></trkpt><trkpt lat="44.428888865137814" lon="9.377420455787489"><ele>262.0</ele><time>2026-04-30T09:34:50.998Z</time></trkpt><trkpt lat="44.42884567188143" lon="9.37752358411765"><ele>264.0</ele><time>2026-04-30T09:34:51.998Z</time></trkpt><trkpt lat="44.428803185689084" lon="9.377623043747237"><ele>266.0</ele><time>2026-04-30T09:34:52.998Z</time></trkpt><trkpt lat="44.42875878588785" lon="9.377723549717748"><ele>268.0</ele><time>2026-04-30T09:34:53.998Z</time></trkpt><trkpt lat="44.42871312397503" lon="9.377821692202307"><ele>262.5</ele><time>2026-04-30T09:34:54.998Z</time></trkpt><trkpt lat="44.428653050548974" lon="9.377903597866748"><ele>257.0</ele><time>2026-04-30T09:34:55.998Z</time></trkpt><trkpt lat="44.42858764035418" lon="9.377980339059068"><ele>251.5</ele><time>2026-04-30T09:34:56.998Z</time></trkpt><trkpt lat="44.428516072748906" lon="9.378052325590469"><ele>246.0</ele><time>2026-04-30T09:34:57.998Z</time></trkpt><trkpt lat="44.42845334930963" lon="9.378140286852217"><ele>240.49999999999997</ele><time>2026-04-30T09:34:58.998Z</time></trkpt><trkpt lat="44.42838189150967" lon="9.378220101097222"><ele>235.0</ele><time>2026-04-30T09:34:59.998Z</time></trkpt><trkpt lat="44.428311869224466" lon="9.378323362301195"><ele>235.0</ele><time>2026-04-30T09:35:00.998Z</time></trkpt><trkpt lat="44.42827020584138" lon="9.378453067311652"><ele>235.0</ele><time>2026-04-30T09:35:01.998Z</time></trkpt><trkpt lat="44.42821792050764" lon="9.378586000266226"><ele>235.0</ele><time>2026-04-30T09:35:02.998Z</time></trkpt><trkpt lat="44.4281668604292" lon="9.378726848186195"><ele>235.0</ele><time>2026-04-30T09:35:03.998Z</time></trkpt><trkpt lat="44.42809477916382" lon="9.378847369893622"><ele>235.0</ele><time>2026-04-30T09:35:04.998Z</time></trkpt><trkpt lat="44.42800692901159" lon="9.37895994273053"><ele>228.5</ele><time>2026-04-30T09:35:05.998Z</time></trkpt><trkpt lat="44.427915669355244" lon="9.379072693705263"><ele>222.0</ele><time>2026-04-30T09:35:06.998Z</time></trkpt><trkpt lat="44.427836258673" lon="9.379205489220078"><ele>215.5</ele><time>2026-04-30T09:35:07.998Z</time></trkpt><trkpt lat="44.427762973612566" lon="9.379361237360744"><ele>209.0</ele><time>2026-04-30T09:35:08.998Z</time></trkpt><trkpt lat="44.42770328391195" lon="9.37954600692421"><ele>212.66666666666669</ele><time>2026-04-30T09:35:09.998Z</time></trkpt><trkpt lat="44.42762080963366" lon="9.379720739023501"><ele>216.33333333333331</ele><time>2026-04-30T09:35:10.998Z</time></trkpt><trkpt lat="44.42754256249789" lon="9.37990212812059"><ele>220.0</ele><time>2026-04-30T09:35:11.998Z</time></trkpt><trkpt lat="44.427468180832214" lon="9.380090738342227"><ele>220.0</ele><time>2026-04-30T09:35:12.998Z</time></trkpt><trkpt lat="44.42739129570558" lon="9.380275423809316"><ele>220.0</ele><time>2026-04-30T09:35:13.998Z</time></trkpt><trkpt lat="44.42730883412029" lon="9.38046483010464"><ele>220.0</ele><time>2026-04-30T09:35:14.998Z</time></trkpt><trkpt lat="44.42722209017884" lon="9.380662134048794"><ele>213.66666666666666</ele><time>2026-04-30T09:35:15.998Z</time></trkpt><trkpt lat="44.42711038317404" lon="9.380859206926283"><ele>207.33333333333331</ele><time>2026-04-30T09:35:16.998Z</time></trkpt><trkpt lat="44.42697346097665" lon="9.381001044703853"><ele>201.0</ele><time>2026-04-30T09:35:17.998Z</time></trkpt><trkpt lat="44.42683687128464" lon="9.381159644270516"><ele>201.0</ele><time>2026-04-30T09:35:18.998Z</time></trkpt><trkpt lat="44.42670969136359" lon="9.381326325468493"><ele>201.0</ele><time>2026-04-30T09:35:19.998Z</time></trkpt><trkpt lat="44.426605735272545" lon="9.38144974217909"><ele>201.0</ele><time>2026-04-30T09:35:20.998Z</time></trkpt><trkpt lat="44.42649406946523" lon="9.381608385226384"><ele>197.25</ele><time>2026-04-30T09:35:21.998Z</time></trkpt><trkpt lat="44.426397485155704" lon="9.381740321738322"><ele>193.5</ele><time>2026-04-30T09:35:22.998Z</time></trkpt><trkpt lat="44.426306188133296" lon="9.381892101970786"><ele>189.75</ele><time>2026-04-30T09:35:23.998Z</time></trkpt><trkpt lat="44.426228152250346" lon="9.382014403535244"><ele>186.0</ele><time>2026-04-30T09:35:24.998Z</time></trkpt><trkpt lat="44.426128952673444" lon="9.382119789405401"><ele>189.5</ele><time>2026-04-30T09:35:25.998Z</time></trkpt><trkpt lat="44.42602130088594" lon="9.382223162167938"><ele>193.0</ele><time>2026-04-30T09:35:26.998Z</time></trkpt><trkpt lat="44.4259182842712" lon="9.382340132976417"><ele>196.5</ele><time>2026-04-30T09:35:27.998Z</time></trkpt><trkpt lat="44.42583770850484" lon="9.382484137633952"><ele>200.0</ele><time>2026-04-30T09:35:28.998Z</time></trkpt><trkpt lat="44.42580884488955" lon="9.382676412001608"><ele>200.0</ele><time>2026-04-30T09:35:29.998Z</time></trkpt><trkpt lat="44.425749582155795" lon="9.382860219483463"><ele>200.0</ele><time>2026-04-30T09:35:30.998Z</time></trkpt><trkpt lat="44.425682551012976" lon="9.383043756553027"><ele>200.0</ele><time>2026-04-30T09:35:31.998Z</time></trkpt><trkpt lat="44.425611222906916" lon="9.383225009122187"><ele>200.0</ele><time>2026-04-30T09:35:32.998Z</time></trkpt><trkpt lat="44.425561087002336" lon="9.383370047731415"><ele>198.25</ele><time>2026-04-30T09:35:33.998Z</time></trkpt><trkpt lat="44.42546921597031" lon="9.38354358557077"><ele>196.5</ele><time>2026-04-30T09:35:34.998Z</time></trkpt><trkpt lat="44.425406456486805" lon="9.38369219437964"><ele>194.75</ele><time>2026-04-30T09:35:35.998Z</time></trkpt><trkpt lat="44.425304922697855" lon="9.383827201200015"><ele>193.0</ele><time>2026-04-30T09:35:36.998Z</time></trkpt><trkpt lat="44.42519791951718" lon="9.383949957120816"><ele>193.0</ele><time>2026-04-30T09:35:37.998Z</time></trkpt><trkpt lat="44.425072648576645" lon="9.384075254505618"><ele>193.0</ele><time>2026-04-30T09:35:38.998Z</time></trkpt><trkpt lat="44.424938132939914" lon="9.384193320912498"><ele>193.0</ele><time>2026-04-30T09:35:39.998Z</time></trkpt><trkpt lat="44.4248199807219" lon="9.3842958230489"><ele>193.0</ele><time>2026-04-30T09:35:40.998Z</time></trkpt><trkpt lat="44.42469455772106" lon="9.384369484487097"><ele>193.0</ele><time>2026-04-30T09:35:41.998Z</time></trkpt><trkpt lat="44.42456045833717" lon="9.384443022590828"><ele>193.0</ele><time>2026-04-30T09:35:42.998Z</time></trkpt><trkpt lat="44.42441866318815" lon="9.38450666868662"><ele>193.0</ele><time>2026-04-30T09:35:43.998Z</time></trkpt><trkpt lat="44.42428612452309" lon="9.384615156939228"><ele>191.5</ele><time>2026-04-30T09:35:44.998Z</time></trkpt><trkpt lat="44.42417750166254" lon="9.384735748754988"><ele>190.0</ele><time>2026-04-30T09:35:45.998Z</time></trkpt><trkpt lat="44.42408182147026" lon="9.38487211079798"><ele>188.5</ele><time>2026-04-30T09:35:46.998Z</time></trkpt><trkpt lat="44.42399141320283" lon="9.3849996987198"><ele>187.0</ele><time>2026-04-30T09:35:47.998Z</time></trkpt><trkpt lat="44.42390185910612" lon="9.38510725835369"><ele>187.0</ele><time>2026-04-30T09:35:48.998Z</time></trkpt><trkpt lat="44.423821820030135" lon="9.385203327898628"><ele>187.0</ele><time>2026-04-30T09:35:49.998Z</time></trkpt><trkpt lat="44.42373670300307" lon="9.38530625013686"><ele>187.0</ele><time>2026-04-30T09:35:50.998Z</time></trkpt><trkpt lat="44.42365357486098" lon="9.385410500356691"><ele>187.0</ele><time>2026-04-30T09:35:51.998Z</time></trkpt><trkpt lat="44.42356953178822" lon="9.385522653408541"><ele>187.0</ele><time>2026-04-30T09:35:52.998Z</time></trkpt><trkpt lat="44.423497101143845" lon="9.385627215630835"><ele>184.39999999999998</ele><time>2026-04-30T09:35:53.998Z</time></trkpt><trkpt lat="44.423428703286184" lon="9.385732382002203"><ele>181.79999999999998</ele><time>2026-04-30T09:35:54.998Z</time></trkpt><trkpt lat="44.42336905192622" lon="9.38582410004876"><ele>179.2</ele><time>2026-04-30T09:35:55.998Z</time></trkpt><trkpt lat="44.423293781163345" lon="9.385939834003764"><ele>176.6</ele><time>2026-04-30T09:35:56.998Z</time></trkpt><trkpt lat="44.42323839418876" lon="9.386024926930187"><ele>174.0</ele><time>2026-04-30T09:35:57.998Z</time></trkpt><trkpt lat="44.42318299573407" lon="9.386109767259027"><ele>174.0</ele><time>2026-04-30T09:35:58.997Z</time></trkpt><trkpt lat="44.42311505318774" lon="9.386211144872535"><ele>174.0</ele><time>2026-04-30T09:35:59.997Z</time></trkpt><trkpt lat="44.42306295891669" lon="9.386290784349697"><ele>174.0</ele><time>2026-04-30T09:36:00.997Z</time></trkpt><trkpt lat="44.423018824152535" lon="9.386380708978729"><ele>174.0</ele><time>2026-04-30T09:36:01.997Z</time></trkpt><trkpt lat="44.42295328653347" lon="9.386452672202061"><ele>174.0</ele><time>2026-04-30T09:36:02.997Z</time></trkpt><trkpt lat="44.42288965098858" lon="9.386546873793105"><ele>174.0</ele><time>2026-04-30T09:36:03.997Z</time></trkpt><trkpt lat="44.42283030276565" lon="9.38665943947355"><ele>173.0</ele><time>2026-04-30T09:36:04.997Z</time></trkpt><trkpt lat="44.42274714829827" lon="9.38676021751264"><ele>172.0</ele><time>2026-04-30T09:36:05.997Z</time></trkpt><trkpt lat="44.42269717017846" lon="9.386859089765228"><ele>171.0</ele><time>2026-04-30T09:36:06.997Z</time></trkpt><trkpt lat="44.42263342789805" lon="9.3869466910569"><ele>170.0</ele><time>2026-04-30T09:36:07.997Z</time></trkpt><trkpt lat="44.42256671335488" lon="9.386989084947427"><ele>169.0</ele><time>2026-04-30T09:36:08.997Z</time></trkpt><trkpt lat="44.422502748598426" lon="9.387004199223218"><ele>168.0</ele><time>2026-04-30T09:36:09.997Z</time></trkpt><trkpt lat="44.42243593386206" lon="9.38704836418085"><ele>168.0</ele><time>2026-04-30T09:36:10.997Z</time></trkpt><trkpt lat="44.42233890450341" lon="9.387066018207625"><ele>168.0</ele><time>2026-04-30T09:36:11.997Z</time></trkpt><trkpt lat="44.42223062520435" lon="9.387079500955892"><ele>168.0</ele><time>2026-04-30T09:36:12.997Z</time></trkpt><trkpt lat="44.42213696685473" lon="9.387116599694785"><ele>168.0</ele><time>2026-04-30T09:36:13.997Z</time></trkpt><trkpt lat="44.42204536079816" lon="9.387186400324552"><ele>168.0</ele><time>2026-04-30T09:36:14.997Z</time></trkpt><trkpt lat="44.42196950550156" lon="9.387229749796894"><ele>167.5</ele><time>2026-04-30T09:36:15.997Z</time></trkpt><trkpt lat="44.42190753564974" lon="9.38730241125766"><ele>167.0</ele><time>2026-04-30T09:36:16.997Z</time></trkpt><trkpt lat="44.4218389943665" lon="9.387356818705872"><ele>166.5</ele><time>2026-04-30T09:36:17.997Z</time></trkpt><trkpt lat="44.42175458430534" lon="9.387384990652711"><ele>166.0</ele><time>2026-04-30T09:36:18.997Z</time></trkpt><trkpt lat="44.42168056384253" lon="9.387406111994576"><ele>165.5</ele><time>2026-04-30T09:36:19.997Z</time></trkpt><trkpt lat="44.42161126024843" lon="9.387425329785788"><ele>165.0</ele><time>2026-04-30T09:36:20.997Z</time></trkpt><trkpt lat="44.42154426265934" lon="9.387394892498053"><ele>165.0</ele><time>2026-04-30T09:36:21.997Z</time></trkpt><trkpt lat="44.421452268994734" lon="9.387440255994262"><ele>165.0</ele><time>2026-04-30T09:36:23.997Z</time></trkpt><trkpt lat="44.42137828893797" lon="9.387436104776647"><ele>165.0</ele><time>2026-04-30T09:36:24.997Z</time></trkpt><trkpt lat="44.42129466914493" lon="9.387476500688715"><ele>165.0</ele><time>2026-04-30T09:36:25.997Z</time></trkpt><trkpt lat="44.421200290033376" lon="9.387457339417802"><ele>165.0</ele><time>2026-04-30T09:36:26.997Z</time></trkpt><trkpt lat="44.42111625085131" lon="9.387465329148906"><ele>165.0</ele><time>2026-04-30T09:36:27.997Z</time></trkpt><trkpt lat="44.42102600484885" lon="9.387471125489192"><ele>164.33333333333334</ele><time>2026-04-30T09:36:28.997Z</time></trkpt><trkpt lat="44.42095133867545" lon="9.387485378067236"><ele>163.66666666666666</ele><time>2026-04-30T09:36:29.997Z</time></trkpt><trkpt lat="44.420887830861965" lon="9.38747838043987"><ele>163.0</ele><time>2026-04-30T09:36:30.997Z</time></trkpt><trkpt lat="44.42081053386391" lon="9.387480130958693"><ele>162.33333333333331</ele><time>2026-04-30T09:36:31.997Z</time></trkpt><trkpt lat="44.420726871379856" lon="9.387633651147253"><ele>161.66666666666666</ele><time>2026-04-30T09:36:33.997Z</time></trkpt><trkpt lat="44.42068895251514" lon="9.3877348652388"><ele>161.0</ele><time>2026-04-30T09:36:34.997Z</time></trkpt><trkpt lat="44.42064896298412" lon="9.387833240504351"><ele>161.0</ele><time>2026-04-30T09:36:35.997Z</time></trkpt><trkpt lat="44.42060604452411" lon="9.387947279818555"><ele>161.0</ele><time>2026-04-30T09:36:36.997Z</time></trkpt><trkpt lat="44.42054006348068" lon="9.388040867759262"><ele>161.0</ele><time>2026-04-30T09:36:37.997Z</time></trkpt><trkpt lat="44.42048786229508" lon="9.3881263294361"><ele>161.0</ele><time>2026-04-30T09:36:38.997Z</time></trkpt><trkpt lat="44.42041066186828" lon="9.388209110842281"><ele>161.0</ele><time>2026-04-30T09:36:39.997Z</time></trkpt><trkpt lat="44.42034892707079" lon="9.38831502720228"><ele>160.83333333333331</ele><time>2026-04-30T09:36:40.997Z</time></trkpt><trkpt lat="44.42028901818381" lon="9.388421366848664"><ele>160.66666666666666</ele><time>2026-04-30T09:36:41.997Z</time></trkpt><trkpt lat="44.420244395433436" lon="9.388513984403325"><ele>160.5</ele><time>2026-04-30T09:36:42.997Z</time></trkpt><trkpt lat="44.42021388529159" lon="9.388606301784108"><ele>160.33333333333334</ele><time>2026-04-30T09:36:43.997Z</time></trkpt><trkpt lat="44.42018844138182" lon="9.388699478589043"><ele>160.16666666666669</ele><time>2026-04-30T09:36:44.997Z</time></trkpt><trkpt lat="44.420161735890204" lon="9.388820816488982"><ele>160.0</ele><time>2026-04-30T09:36:45.997Z</time></trkpt><trkpt lat="44.42014064191545" lon="9.388974217535353"><ele>158.8</ele><time>2026-04-30T09:36:46.997Z</time></trkpt><trkpt lat="44.42012554688289" lon="9.389111411009884"><ele>157.6</ele><time>2026-04-30T09:36:47.997Z</time></trkpt><trkpt lat="44.42013150924131" lon="9.389250946584507"><ele>156.4</ele><time>2026-04-30T09:36:48.997Z</time></trkpt><trkpt lat="44.420142175258945" lon="9.389385231676876"><ele>155.2</ele><time>2026-04-30T09:36:49.997Z</time></trkpt><trkpt lat="44.420148945482474" lon="9.389495780263447"><ele>154.0</ele><time>2026-04-30T09:36:50.997Z</time></trkpt><trkpt lat="44.42013095066613" lon="9.389623596324089"><ele>155.4</ele><time>2026-04-30T09:36:51.997Z</time></trkpt><trkpt lat="44.42006851028259" lon="9.389691262534706"><ele>156.8</ele><time>2026-04-30T09:36:52.997Z</time></trkpt><trkpt lat="44.4199476740357" lon="9.389769103672844"><ele>158.20000000000002</ele><time>2026-04-30T09:36:54.997Z</time></trkpt><trkpt lat="44.41985595668278" lon="9.389758825564154"><ele>159.60000000000002</ele><time>2026-04-30T09:36:55.997Z</time></trkpt><trkpt lat="44.41974178890043" lon="9.389758212389589"><ele>161.0</ele><time>2026-04-30T09:36:56.997Z</time></trkpt><trkpt lat="44.419628931624054" lon="9.389767859382635"><ele>161.0</ele><time>2026-04-30T09:36:57.997Z</time></trkpt><trkpt lat="44.41948919205536" lon="9.389790577663456"><ele>161.0</ele><time>2026-04-30T09:36:58.997Z</time></trkpt><trkpt lat="44.41935901368724" lon="9.389848005262659"><ele>161.0</ele><time>2026-04-30T09:36:59.997Z</time></trkpt><trkpt lat="44.41924141672681" lon="9.389866978142345"><ele>161.0</ele><time>2026-04-30T09:37:00.997Z</time></trkpt><trkpt lat="44.41909579589754" lon="9.389924792631513"><ele>161.0</ele><time>2026-04-30T09:37:01.997Z</time></trkpt><trkpt lat="44.41894702723468" lon="9.389950432661182"><ele>161.0</ele><time>2026-04-30T09:37:02.997Z</time></trkpt><trkpt lat="44.4187914684372" lon="9.389983121299435"><ele>161.0</ele><time>2026-04-30T09:37:03.997Z</time></trkpt><trkpt lat="44.418642706766256" lon="9.390024613983824"><ele>159.25</ele><time>2026-04-30T09:37:04.997Z</time></trkpt><trkpt lat="44.41852510062796" lon="9.390056216172473"><ele>157.5</ele><time>2026-04-30T09:37:05.997Z</time></trkpt><trkpt lat="44.41840890696744" lon="9.390087280754324"><ele>155.75</ele><time>2026-04-30T09:37:06.997Z</time></trkpt><trkpt lat="44.4182735814369" lon="9.390143781201324"><ele>154.0</ele><time>2026-04-30T09:37:07.997Z</time></trkpt><trkpt lat="44.418125049326434" lon="9.39016813097964"><ele>152.5</ele><time>2026-04-30T09:37:08.997Z</time></trkpt><trkpt lat="44.4179758253958" lon="9.390183308030972"><ele>151.0</ele><time>2026-04-30T09:37:09.997Z</time></trkpt><trkpt lat="44.417839530832865" lon="9.390253617868778"><ele>149.5</ele><time>2026-04-30T09:37:10.997Z</time></trkpt><trkpt lat="44.41769506163492" lon="9.390215919944364"><ele>148.0</ele><time>2026-04-30T09:37:11.996Z</time></trkpt><trkpt lat="44.41759257810279" lon="9.39025719521453"><ele>148.0</ele><time>2026-04-30T09:37:12.996Z</time></trkpt><trkpt lat="44.41747784715797" lon="9.390252770325551"><ele>148.0</ele><time>2026-04-30T09:37:13.996Z</time></trkpt><trkpt lat="44.41737172242037" lon="9.3902784047243"><ele>148.0</ele><time>2026-04-30T09:37:14.996Z</time></trkpt><trkpt lat="44.41726434990429" lon="9.390294560492197"><ele>148.0</ele><time>2026-04-30T09:37:15.996Z</time></trkpt><trkpt lat="44.41715478028735" lon="9.390272888397453"><ele>148.0</ele><time>2026-04-30T09:37:16.996Z</time></trkpt><trkpt lat="44.41704763095049" lon="9.390229935989952"><ele>150.0</ele><time>2026-04-30T09:37:17.996Z</time></trkpt><trkpt lat="44.41692790608783" lon="9.390151186040171"><ele>152.0</ele><time>2026-04-30T09:37:18.996Z</time></trkpt><trkpt lat="44.4168035115354" lon="9.390061931818531"><ele>154.0</ele><time>2026-04-30T09:37:19.996Z</time></trkpt><trkpt lat="44.41669618520853" lon="9.389936188798671"><ele>156.0</ele><time>2026-04-30T09:37:20.996Z</time></trkpt><trkpt lat="44.41658612494458" lon="9.389835419824772"><ele>156.0</ele><time>2026-04-30T09:37:21.996Z</time></trkpt><trkpt lat="44.41647889975334" lon="9.389740551503337"><ele>156.0</ele><time>2026-04-30T09:37:22.996Z</time></trkpt><trkpt lat="44.41636638129165" lon="9.389646108223069"><ele>156.0</ele><time>2026-04-30T09:37:23.996Z</time></trkpt><trkpt lat="44.41625779508765" lon="9.38956100236937"><ele>156.0</ele><time>2026-04-30T09:37:24.996Z</time></trkpt><trkpt lat="44.41616148496039" lon="9.389472201983658"><ele>153.5</ele><time>2026-04-30T09:37:25.996Z</time></trkpt><trkpt lat="44.41603943003344" lon="9.389426343142746"><ele>151.0</ele><time>2026-04-30T09:37:26.996Z</time></trkpt><trkpt lat="44.41590852902968" lon="9.389399732290501"><ele>148.5</ele><time>2026-04-30T09:37:27.996Z</time></trkpt><trkpt lat="44.41577646622999" lon="9.389365856879436"><ele>146.0</ele><time>2026-04-30T09:37:28.996Z</time></trkpt><trkpt lat="44.41563579329634" lon="9.389346378835636"><ele>146.0</ele><time>2026-04-30T09:37:29.996Z</time></trkpt><trkpt lat="44.41548729902345" lon="9.389324017020531"><ele>146.0</ele><time>2026-04-30T09:37:30.996Z</time></trkpt><trkpt lat="44.415333811880046" lon="9.38929714835172"><ele>146.0</ele><time>2026-04-30T09:37:31.996Z</time></trkpt><trkpt lat="44.41517862083085" lon="9.389275223851929"><ele>145.33333333333331</ele><time>2026-04-30T09:37:32.996Z</time></trkpt><trkpt lat="44.4150176034471" lon="9.389256825128703"><ele>144.66666666666666</ele><time>2026-04-30T09:37:33.996Z</time></trkpt><trkpt lat="44.414856985367365" lon="9.389207377383077"><ele>144.0</ele><time>2026-04-30T09:37:34.996Z</time></trkpt><trkpt lat="44.414704715472325" lon="9.389175171581416"><ele>144.0</ele><time>2026-04-30T09:37:35.996Z</time></trkpt><trkpt lat="44.4145617235171" lon="9.389175811018463"><ele>144.0</ele><time>2026-04-30T09:37:36.996Z</time></trkpt><trkpt lat="44.41444201089071" lon="9.389132365491445"><ele>144.0</ele><time>2026-04-30T09:37:37.996Z</time></trkpt><trkpt lat="44.41436176216376" lon="9.389081406916644"><ele>144.0</ele><time>2026-04-30T09:37:38.996Z</time></trkpt><trkpt lat="44.414271917110405" lon="9.38900638173111"><ele>144.0</ele><time>2026-04-30T09:37:39.996Z</time></trkpt><trkpt lat="44.41417514950501" lon="9.388901916227326"><ele>144.0</ele><time>2026-04-30T09:37:40.996Z</time></trkpt><trkpt lat="44.414076097924934" lon="9.388751953222462"><ele>144.0</ele><time>2026-04-30T09:37:41.996Z</time></trkpt><trkpt lat="44.41396865806496" lon="9.388605162093073"><ele>144.0</ele><time>2026-04-30T09:37:42.996Z</time></trkpt><trkpt lat="44.413866343882326" lon="9.388436413426378"><ele>143.0</ele><time>2026-04-30T09:37:43.996Z</time></trkpt><trkpt lat="44.41371899202123" lon="9.388281387110844"><ele>142.0</ele><time>2026-04-30T09:37:44.996Z</time></trkpt><trkpt lat="44.4135856075187" lon="9.388127416050805"><ele>141.0</ele><time>2026-04-30T09:37:45.996Z</time></trkpt><trkpt lat="44.41346587306171" lon="9.387957708407818"><ele>150.25</ele><time>2026-04-30T09:37:46.996Z</time></trkpt><trkpt lat="44.41334467728677" lon="9.387817673345866"><ele>159.5</ele><time>2026-04-30T09:37:47.996Z</time></trkpt><trkpt lat="44.41323306475861" lon="9.387685247011431"><ele>168.75</ele><time>2026-04-30T09:37:48.996Z</time></trkpt><trkpt lat="44.41310881064765" lon="9.387599188749006"><ele>178.0</ele><time>2026-04-30T09:37:49.996Z</time></trkpt><trkpt lat="44.412978832035506" lon="9.387522666082939"><ele>178.0</ele><time>2026-04-30T09:37:50.996Z</time></trkpt><trkpt lat="44.412857798277365" lon="9.38745335785097"><ele>178.0</ele><time>2026-04-30T09:37:51.996Z</time></trkpt><trkpt lat="44.41273343361974" lon="9.387401387478429"><ele>178.0</ele><time>2026-04-30T09:37:52.996Z</time></trkpt><trkpt lat="44.41263899930845" lon="9.38744811061585"><ele>178.0</ele><time>2026-04-30T09:37:53.996Z</time></trkpt><trkpt lat="44.41251628415118" lon="9.387520437134096"><ele>178.0</ele><time>2026-04-30T09:37:54.996Z</time></trkpt><trkpt lat="44.41240690731097" lon="9.387648593147459"><ele>178.0</ele><time>2026-04-30T09:37:55.996Z</time></trkpt><trkpt lat="44.41232776812991" lon="9.387804479773877"><ele>178.0</ele><time>2026-04-30T09:37:56.996Z</time></trkpt><trkpt lat="44.4122139851879" lon="9.387923163874838"><ele>178.0</ele><time>2026-04-30T09:37:57.996Z</time></trkpt><trkpt lat="44.41209688782438" lon="9.388028166092765"><ele>171.0</ele><time>2026-04-30T09:37:58.996Z</time></trkpt><trkpt lat="44.4119828009581" lon="9.38813563775155"><ele>164.0</ele><time>2026-04-30T09:37:59.996Z</time></trkpt><trkpt lat="44.41187473524921" lon="9.388243347938543"><ele>157.0</ele><time>2026-04-30T09:38:00.996Z</time></trkpt><trkpt lat="44.41175542747007" lon="9.388346139000769"><ele>150.0</ele><time>2026-04-30T09:38:01.996Z</time></trkpt><trkpt lat="44.411603272615984" lon="9.388421055831632"><ele>150.0</ele><time>2026-04-30T09:38:02.996Z</time></trkpt><trkpt lat="44.41144956487776" lon="9.388475543437787"><ele>150.0</ele><time>2026-04-30T09:38:03.996Z</time></trkpt><trkpt lat="44.41129285260601" lon="9.38846028008084"><ele>150.0</ele><time>2026-04-30T09:38:04.996Z</time></trkpt><trkpt lat="44.41113299077745" lon="9.388461970113001"><ele>150.0</ele><time>2026-04-30T09:38:05.996Z</time></trkpt><trkpt lat="44.41097681647766" lon="9.388437109246537"><ele>150.0</ele><time>2026-04-30T09:38:06.996Z</time></trkpt><trkpt lat="44.41081557049791" lon="9.388404942904277"><ele>150.0</ele><time>2026-04-30T09:38:07.996Z</time></trkpt><trkpt lat="44.41065638149285" lon="9.38837328625055"><ele>150.0</ele><time>2026-04-30T09:38:08.996Z</time></trkpt><trkpt lat="44.410505265110366" lon="9.38832723915041"><ele>150.0</ele><time>2026-04-30T09:38:09.996Z</time></trkpt><trkpt lat="44.410322918232126" lon="9.388264396080768"><ele>150.0</ele><time>2026-04-30T09:38:10.996Z</time></trkpt><trkpt lat="44.41014886738324" lon="9.388205649788052"><ele>148.0</ele><time>2026-04-30T09:38:11.996Z</time></trkpt><trkpt lat="44.40997277528315" lon="9.388174255378235"><ele>146.0</ele><time>2026-04-30T09:38:12.996Z</time></trkpt><trkpt lat="44.40980373042157" lon="9.388127402097846"><ele>144.0</ele><time>2026-04-30T09:38:13.996Z</time></trkpt><trkpt lat="44.4096357877273" lon="9.388090175932579"><ele>140.0</ele><time>2026-04-30T09:38:14.996Z</time></trkpt><trkpt lat="44.40948306956127" lon="9.388054865505033"><ele>136.0</ele><time>2026-04-30T09:38:15.996Z</time></trkpt><trkpt lat="44.40931801404809" lon="9.388092611116875"><ele>132.0</ele><time>2026-04-30T09:38:16.996Z</time></trkpt><trkpt lat="44.409156656446754" lon="9.388083153299014"><ele>132.0</ele><time>2026-04-30T09:38:17.996Z</time></trkpt><trkpt lat="44.40898370282926" lon="9.388059474059737"><ele>132.0</ele><time>2026-04-30T09:38:18.996Z</time></trkpt><trkpt lat="44.408827889780746" lon="9.388042062849607"><ele>132.0</ele><time>2026-04-30T09:38:19.996Z</time></trkpt><trkpt lat="44.40865582210465" lon="9.388008500629638"><ele>134.66666666666666</ele><time>2026-04-30T09:38:20.996Z</time></trkpt><trkpt lat="44.408520040140495" lon="9.387888972177459"><ele>137.33333333333331</ele><time>2026-04-30T09:38:21.996Z</time></trkpt><trkpt lat="44.40838280621212" lon="9.387769239468447"><ele>140.0</ele><time>2026-04-30T09:38:22.996Z</time></trkpt><trkpt lat="44.408231550064954" lon="9.387629474614078"><ele>140.0</ele><time>2026-04-30T09:38:23.996Z</time></trkpt><trkpt lat="44.40808697309805" lon="9.387493870937986"><ele>140.0</ele><time>2026-04-30T09:38:24.995Z</time></trkpt><trkpt lat="44.40794612901605" lon="9.387365150437756"><ele>140.0</ele><time>2026-04-30T09:38:25.995Z</time></trkpt><trkpt lat="44.407815112166475" lon="9.387242904669522"><ele>136.33333333333331</ele><time>2026-04-30T09:38:26.995Z</time></trkpt><trkpt lat="44.40766566468061" lon="9.387111339173837"><ele>132.66666666666666</ele><time>2026-04-30T09:38:27.995Z</time></trkpt><trkpt lat="44.407544836995115" lon="9.386962086664163"><ele>129.0</ele><time>2026-04-30T09:38:28.995Z</time></trkpt><trkpt lat="44.40740620515675" lon="9.386844728148953"><ele>129.0</ele><time>2026-04-30T09:38:29.995Z</time></trkpt><trkpt lat="44.40725184643335" lon="9.386731958912577"><ele>129.0</ele><time>2026-04-30T09:38:30.995Z</time></trkpt><trkpt lat="44.40706967716231" lon="9.38666636610456"><ele>129.0</ele><time>2026-04-30T09:38:31.995Z</time></trkpt><trkpt lat="44.4068990143255" lon="9.386660107593457"><ele>128.33333333333334</ele><time>2026-04-30T09:38:32.995Z</time></trkpt><trkpt lat="44.40672957937181" lon="9.38662282424486"><ele>127.66666666666667</ele><time>2026-04-30T09:38:33.995Z</time></trkpt><trkpt lat="44.406569400640194" lon="9.386594469775492"><ele>127.0</ele><time>2026-04-30T09:38:34.995Z</time></trkpt><trkpt lat="44.40644446782319" lon="9.386550047765828"><ele>125.75</ele><time>2026-04-30T09:38:35.995Z</time></trkpt><trkpt lat="44.406306910341854" lon="9.386520320549266"><ele>124.5</ele><time>2026-04-30T09:38:36.995Z</time></trkpt><trkpt lat="44.40619859951638" lon="9.386403653609785"><ele>123.25</ele><time>2026-04-30T09:38:37.995Z</time></trkpt><trkpt lat="44.40611404838831" lon="9.386266053230147"><ele>122.0</ele><time>2026-04-30T09:38:38.995Z</time></trkpt><trkpt lat="44.406044676095114" lon="9.386100216688448"><ele>121.75</ele><time>2026-04-30T09:38:39.995Z</time></trkpt><trkpt lat="44.40597353683313" lon="9.385931799803062"><ele>121.5</ele><time>2026-04-30T09:38:40.995Z</time></trkpt><trkpt lat="44.40591471322834" lon="9.385773666754416"><ele>121.25</ele><time>2026-04-30T09:38:41.995Z</time></trkpt><trkpt lat="44.40584739361633" lon="9.385605172457067"><ele>121.0</ele><time>2026-04-30T09:38:42.995Z</time></trkpt><trkpt lat="44.40573106824794" lon="9.385469626742987"><ele>125.25</ele><time>2026-04-30T09:38:43.995Z</time></trkpt><trkpt lat="44.40560696179013" lon="9.385419306722799"><ele>129.5</ele><time>2026-04-30T09:38:44.995Z</time></trkpt><trkpt lat="44.405473045438086" lon="9.385355707521946"><ele>133.75</ele><time>2026-04-30T09:38:45.995Z</time></trkpt><trkpt lat="44.405338816509115" lon="9.385293107149993"><ele>138.0</ele><time>2026-04-30T09:38:46.995Z</time></trkpt><trkpt lat="44.405182348251294" lon="9.385279388274158"><ele>138.66666666666666</ele><time>2026-04-30T09:38:47.995Z</time></trkpt><trkpt lat="44.40505263356243" lon="9.38521429539963"><ele>139.33333333333331</ele><time>2026-04-30T09:38:48.995Z</time></trkpt><trkpt lat="44.40490160284932" lon="9.385141445899876"><ele>140.0</ele><time>2026-04-30T09:38:49.995Z</time></trkpt><trkpt lat="44.40474056928086" lon="9.385060135208347"><ele>134.0</ele><time>2026-04-30T09:38:50.995Z</time></trkpt><trkpt lat="44.40458893336488" lon="9.384967388584341"><ele>128.0</ele><time>2026-04-30T09:38:51.995Z</time></trkpt><trkpt lat="44.40446105205275" lon="9.384857151451408"><ele>122.0</ele><time>2026-04-30T09:38:52.995Z</time></trkpt><trkpt lat="44.404335588356076" lon="9.384720561102306"><ele>129.66666666666666</ele><time>2026-04-30T09:38:53.995Z</time></trkpt><trkpt lat="44.404203387780825" lon="9.384569913953921"><ele>137.33333333333334</ele><time>2026-04-30T09:38:54.995Z</time></trkpt><trkpt lat="44.404072295827376" lon="9.38441998612975"><ele>145.0</ele><time>2026-04-30T09:38:55.995Z</time></trkpt><trkpt lat="44.403950306307365" lon="9.384277544940009"><ele>145.0</ele><time>2026-04-30T09:38:56.995Z</time></trkpt><trkpt lat="44.40385856159727" lon="9.384155324125969"><ele>145.0</ele><time>2026-04-30T09:38:57.995Z</time></trkpt><trkpt lat="44.40376596443162" lon="9.384013443182544"><ele>145.0</ele><time>2026-04-30T09:38:58.995Z</time></trkpt><trkpt lat="44.40369556205723" lon="9.383818423631448"><ele>145.0</ele><time>2026-04-30T09:38:59.995Z</time></trkpt><trkpt lat="44.40363252216966" lon="9.383584494429321"><ele>148.33333333333334</ele><time>2026-04-30T09:39:00.995Z</time></trkpt><trkpt lat="44.40357218794854" lon="9.383364360066444"><ele>151.66666666666666</ele><time>2026-04-30T09:39:01.995Z</time></trkpt><trkpt lat="44.4034855424637" lon="9.383179191416147"><ele>155.0</ele><time>2026-04-30T09:39:02.995Z</time></trkpt><trkpt lat="44.403406500251236" lon="9.382986674186997"><ele>155.0</ele><time>2026-04-30T09:39:03.995Z</time></trkpt><trkpt lat="44.40328398775112" lon="9.382820004635455"><ele>155.0</ele><time>2026-04-30T09:39:04.995Z</time></trkpt><trkpt lat="44.40314426003631" lon="9.382651345248911"><ele>155.0</ele><time>2026-04-30T09:39:05.995Z</time></trkpt><trkpt lat="44.40300258461507" lon="9.382468297308689"><ele>155.33333333333331</ele><time>2026-04-30T09:39:06.995Z</time></trkpt><trkpt lat="44.402857200115584" lon="9.382299695620596"><ele>155.66666666666666</ele><time>2026-04-30T09:39:07.995Z</time></trkpt><trkpt lat="44.40271113994613" lon="9.382156287869702"><ele>156.0</ele><time>2026-04-30T09:39:08.995Z</time></trkpt><trkpt lat="44.40256567298087" lon="9.38201215121776"><ele>156.0</ele><time>2026-04-30T09:39:09.995Z</time></trkpt><trkpt lat="44.40242668979307" lon="9.381888964062712"><ele>156.0</ele><time>2026-04-30T09:39:10.995Z</time></trkpt><trkpt lat="44.40227687775443" lon="9.381826432668348"><ele>156.0</ele><time>2026-04-30T09:39:11.995Z</time></trkpt><trkpt lat="44.402102153698834" lon="9.381790857437542"><ele>148.0</ele><time>2026-04-30T09:39:12.995Z</time></trkpt><trkpt lat="44.401906852734946" lon="9.381775795349053"><ele>140.0</ele><time>2026-04-30T09:39:13.995Z</time></trkpt><trkpt lat="44.40173222407476" lon="9.381714151388033"><ele>132.0</ele><time>2026-04-30T09:39:14.995Z</time></trkpt><trkpt lat="44.401591962756555" lon="9.38163779118803"><ele>132.0</ele><time>2026-04-30T09:39:15.995Z</time></trkpt><trkpt lat="44.40142919041034" lon="9.381568681266893"><ele>132.0</ele><time>2026-04-30T09:39:16.995Z</time></trkpt><trkpt lat="44.40124680680214" lon="9.381604627740368"><ele>132.0</ele><time>2026-04-30T09:39:17.995Z</time></trkpt><trkpt lat="44.40109061315757" lon="9.381646989506203"><ele>129.66666666666666</ele><time>2026-04-30T09:39:18.995Z</time></trkpt><trkpt lat="44.40094540278905" lon="9.381675474382911"><ele>127.33333333333333</ele><time>2026-04-30T09:39:19.995Z</time></trkpt><trkpt lat="44.40078342791969" lon="9.381648757581411"><ele>125.0</ele><time>2026-04-30T09:39:20.995Z</time></trkpt><trkpt lat="44.400616470949544" lon="9.3815764494072"><ele>121.33333333333333</ele><time>2026-04-30T09:39:21.995Z</time></trkpt><trkpt lat="44.40044500324335" lon="9.381497421354075"><ele>117.66666666666666</ele><time>2026-04-30T09:39:22.995Z</time></trkpt><trkpt lat="44.40027177004074" lon="9.381410956425121"><ele>114.0</ele><time>2026-04-30T09:39:23.995Z</time></trkpt><trkpt lat="44.40007489247945" lon="9.381350363238518"><ele>115.0</ele><time>2026-04-30T09:39:24.995Z</time></trkpt><trkpt lat="44.39989667214339" lon="9.381296667922204"><ele>116.0</ele><time>2026-04-30T09:39:25.995Z</time></trkpt><trkpt lat="44.39972542653629" lon="9.38122931552445"><ele>117.0</ele><time>2026-04-30T09:39:26.995Z</time></trkpt><trkpt lat="44.39955329229856" lon="9.38114371062366"><ele>117.0</ele><time>2026-04-30T09:39:27.995Z</time></trkpt><trkpt lat="44.39936879563107" lon="9.381085568365728"><ele>117.0</ele><time>2026-04-30T09:39:28.995Z</time></trkpt><trkpt lat="44.39919388823898" lon="9.381004887832864"><ele>117.0</ele><time>2026-04-30T09:39:29.995Z</time></trkpt><trkpt lat="44.3990318424997" lon="9.38092053108403"><ele>117.0</ele><time>2026-04-30T09:39:30.995Z</time></trkpt><trkpt lat="44.398874844324645" lon="9.380845498007446"><ele>117.0</ele><time>2026-04-30T09:39:31.995Z</time></trkpt><trkpt lat="44.3987441705491" lon="9.380776093079676"><ele>117.0</ele><time>2026-04-30T09:39:32.995Z</time></trkpt><trkpt lat="44.39860739118496" lon="9.380716519620243"><ele>117.0</ele><time>2026-04-30T09:39:33.995Z</time></trkpt><trkpt lat="44.39849072236012" lon="9.380629843674168"><ele>117.0</ele><time>2026-04-30T09:39:34.995Z</time></trkpt><trkpt lat="44.39838254236152" lon="9.380548725704926"><ele>117.0</ele><time>2026-04-30T09:39:35.995Z</time></trkpt><trkpt lat="44.39828805549747" lon="9.380451565965332"><ele>117.0</ele><time>2026-04-30T09:39:36.995Z</time></trkpt><trkpt lat="44.398194535026995" lon="9.380355530470654"><ele>117.0</ele><time>2026-04-30T09:39:37.994Z</time></trkpt><trkpt lat="44.39807847988381" lon="9.380251641215372"><ele>114.75</ele><time>2026-04-30T09:39:38.994Z</time></trkpt><trkpt lat="44.39797309458001" lon="9.380137472390976"><ele>112.5</ele><time>2026-04-30T09:39:39.994Z</time></trkpt><trkpt lat="44.39789205439632" lon="9.379996076287808"><ele>110.25</ele><time>2026-04-30T09:39:40.994Z</time></trkpt><trkpt lat="44.39778273548602" lon="9.379905584777005"><ele>108.0</ele><time>2026-04-30T09:39:41.994Z</time></trkpt><trkpt lat="44.39769046279411" lon="9.379818170147976"><ele>108.0</ele><time>2026-04-30T09:39:42.994Z</time></trkpt><trkpt lat="44.397581612551505" lon="9.379728342641686"><ele>108.0</ele><time>2026-04-30T09:39:43.994Z</time></trkpt><trkpt lat="44.39747398564585" lon="9.379660881632287"><ele>108.0</ele><time>2026-04-30T09:39:44.994Z</time></trkpt><trkpt lat="44.397364731750635" lon="9.379627245546633"><ele>108.0</ele><time>2026-04-30T09:39:45.994Z</time></trkpt><trkpt lat="44.39723673081998" lon="9.379665871968223"><ele>107.2</ele><time>2026-04-30T09:39:46.994Z</time></trkpt><trkpt lat="44.397121203392246" lon="9.379689563482014"><ele>106.4</ele><time>2026-04-30T09:39:47.994Z</time></trkpt><trkpt lat="44.39702400727716" lon="9.379751328305334"><ele>105.60000000000001</ele><time>2026-04-30T09:39:48.994Z</time></trkpt><trkpt lat="44.39692168126139" lon="9.379828905853424"><ele>104.80000000000001</ele><time>2026-04-30T09:39:49.994Z</time></trkpt><trkpt lat="44.39683715369336" lon="9.379920244156358"><ele>104.0</ele><time>2026-04-30T09:39:50.994Z</time></trkpt><trkpt lat="44.396745548071145" lon="9.380011749608322"><ele>104.0</ele><time>2026-04-30T09:39:51.994Z</time></trkpt><trkpt lat="44.39665276122808" lon="9.380101458179004"><ele>104.0</ele><time>2026-04-30T09:39:52.994Z</time></trkpt><trkpt lat="44.396562935158144" lon="9.38018169463063"><ele>104.0</ele><time>2026-04-30T09:39:53.994Z</time></trkpt><trkpt lat="44.396490350201326" lon="9.380244940126525"><ele>104.0</ele><time>2026-04-30T09:39:54.994Z</time></trkpt><trkpt lat="44.39640742322103" lon="9.380301966353342"><ele>104.0</ele><time>2026-04-30T09:39:56Z</time></trkpt><trkpt lat="44.3963141185761" lon="9.380288846016079"><ele>103.80000000000001</ele><time>2026-04-30T09:39:57Z</time></trkpt><trkpt lat="44.396225435253726" lon="9.380211452175345"><ele>103.60000000000001</ele><time>2026-04-30T09:39:58Z</time></trkpt><trkpt lat="44.396148792899965" lon="9.380072697842197"><ele>103.4</ele><time>2026-04-30T09:39:59Z</time></trkpt><trkpt lat="44.39609841831909" lon="9.379925933195821"><ele>103.2</ele><time>2026-04-30T09:40:00Z</time></trkpt><trkpt lat="44.39605486339868" lon="9.379799681287121"><ele>103.0</ele><time>2026-04-30T09:40:01Z</time></trkpt><trkpt lat="44.39600155133195" lon="9.379680148008054"><ele>103.0</ele><time>2026-04-30T09:40:02Z</time></trkpt><trkpt lat="44.3959206630374" lon="9.379616471676677"><ele>103.0</ele><time>2026-04-30T09:40:03Z</time></trkpt><trkpt lat="44.39584544598255" lon="9.379554979811767"><ele>103.0</ele><time>2026-04-30T09:40:04Z</time></trkpt><trkpt lat="44.395764388161226" lon="9.379512485445812"><ele>103.0</ele><time>2026-04-30T09:40:05Z</time></trkpt><trkpt lat="44.395654716772604" lon="9.379459707503441"><ele>103.0</ele><time>2026-04-30T09:40:06Z</time></trkpt><trkpt lat="44.39552021746296" lon="9.379424257810024"><ele>103.80000000000001</ele><time>2026-04-30T09:40:07Z</time></trkpt><trkpt lat="44.39541522644769" lon="9.379395486304384"><ele>104.6</ele><time>2026-04-30T09:40:08Z</time></trkpt><trkpt lat="44.39531974159556" lon="9.379406573150971"><ele>105.39999999999999</ele><time>2026-04-30T09:40:09Z</time></trkpt><trkpt lat="44.39520264915627" lon="9.379412804479031"><ele>106.19999999999999</ele><time>2026-04-30T09:40:10Z</time></trkpt><trkpt lat="44.39508898439599" lon="9.379387808261846"><ele>107.0</ele><time>2026-04-30T09:40:11Z</time></trkpt><trkpt lat="44.394980191303354" lon="9.379363329311426"><ele>107.0</ele><time>2026-04-30T09:40:12Z</time></trkpt><trkpt lat="44.39486722975292" lon="9.37933395558501"><ele>106.99999999999999</ele><time>2026-04-30T09:40:13Z</time></trkpt><trkpt lat="44.39476587895769" lon="9.37930215208333"><ele>106.99999999999999</ele><time>2026-04-30T09:40:14Z</time></trkpt><trkpt lat="44.39465576185429" lon="9.379265194422098"><ele>107.0</ele><time>2026-04-30T09:40:15Z</time></trkpt><trkpt lat="44.39456500171255" lon="9.379236069919274"><ele>107.0</ele><time>2026-04-30T09:40:16Z</time></trkpt><trkpt lat="44.39446862771826" lon="9.379192177412579"><ele>108.75</ele><time>2026-04-30T09:40:17Z</time></trkpt><trkpt lat="44.39435489215352" lon="9.379126355591387"><ele>110.5</ele><time>2026-04-30T09:40:18Z</time></trkpt><trkpt lat="44.39425295794445" lon="9.379090758407491"><ele>112.25</ele><time>2026-04-30T09:40:19Z</time></trkpt><trkpt lat="44.394132139644896" lon="9.379043816624877"><ele>114.0</ele><time>2026-04-30T09:40:20Z</time></trkpt><trkpt lat="44.394012020416845" lon="9.379002704659527"><ele>114.0</ele><time>2026-04-30T09:40:21Z</time></trkpt><trkpt lat="44.39388782155415" lon="9.378988722912993"><ele>114.0</ele><time>2026-04-30T09:40:22Z</time></trkpt><trkpt lat="44.393779345468076" lon="9.378943069459707"><ele>114.0</ele><time>2026-04-30T09:40:23Z</time></trkpt><trkpt lat="44.3936867319925" lon="9.3789265079563"><ele>114.0</ele><time>2026-04-30T09:40:23.999Z</time></trkpt><trkpt lat="44.393572309466286" lon="9.378899662762123"><ele>114.0</ele><time>2026-04-30T09:40:24.999Z</time></trkpt><trkpt lat="44.393473324427234" lon="9.378862617478411"><ele>113.0</ele><time>2026-04-30T09:40:25.999Z</time></trkpt><trkpt lat="44.3933529073396" lon="9.378831250995622"><ele>112.0</ele><time>2026-04-30T09:40:26.999Z</time></trkpt><trkpt lat="44.39324471270322" lon="9.378836115293053"><ele>111.0</ele><time>2026-04-30T09:40:27.999Z</time></trkpt><trkpt lat="44.39312239874307" lon="9.378849864276377"><ele>110.0</ele><time>2026-04-30T09:40:28.999Z</time></trkpt><trkpt lat="44.393039288251984" lon="9.378875800756886"><ele>109.0</ele><time>2026-04-30T09:40:29.999Z</time></trkpt><trkpt lat="44.392920835579616" lon="9.378876267995404"><ele>107.25</ele><time>2026-04-30T09:40:30.999Z</time></trkpt><trkpt lat="44.39279230841866" lon="9.378896485331216"><ele>105.5</ele><time>2026-04-30T09:40:31.999Z</time></trkpt><trkpt lat="44.392671138401205" lon="9.378882570761572"><ele>103.75</ele><time>2026-04-30T09:40:32.999Z</time></trkpt><trkpt lat="44.39255383965752" lon="9.37891766976899"><ele>102.0</ele><time>2026-04-30T09:40:33.999Z</time></trkpt><trkpt lat="44.39243701804174" lon="9.378937164814781"><ele>102.0</ele><time>2026-04-30T09:40:34.999Z</time></trkpt><trkpt lat="44.39236167251226" lon="9.378950693744295"><ele>102.0</ele><time>2026-04-30T09:40:35.999Z</time></trkpt><trkpt lat="44.39227050054169" lon="9.378945324526361"><ele>102.0</ele><time>2026-04-30T09:40:36.999Z</time></trkpt><trkpt lat="44.392176863508745" lon="9.378930201873347"><ele>102.0</ele><time>2026-04-30T09:40:37.999Z</time></trkpt><trkpt lat="44.39208288310144" lon="9.378902520217277"><ele>102.0</ele><time>2026-04-30T09:40:38.999Z</time></trkpt><trkpt lat="44.39200250905924" lon="9.378852636609677"><ele>102.0</ele><time>2026-04-30T09:40:39.999Z</time></trkpt><trkpt lat="44.39190983692932" lon="9.378732115663107"><ele>101.39999999999999</ele><time>2026-04-30T09:40:41.999Z</time></trkpt><trkpt lat="44.39183171560511" lon="9.378639348703402"><ele>100.8</ele><time>2026-04-30T09:40:43.999Z</time></trkpt><trkpt lat="44.39181322586583" lon="9.378488743868967"><ele>100.2</ele><time>2026-04-30T09:40:45.999Z</time></trkpt><trkpt lat="44.391738400474054" lon="9.378386092282174"><ele>99.6</ele><time>2026-04-30T09:40:46.999Z</time></trkpt><trkpt lat="44.3916436990624" lon="9.378292618335738"><ele>99.0</ele><time>2026-04-30T09:40:47.999Z</time></trkpt><trkpt lat="44.391556416051856" lon="9.378209093203951"><ele>99.0</ele><time>2026-04-30T09:40:48.999Z</time></trkpt><trkpt lat="44.39147235370033" lon="9.378124238607207"><ele>99.0</ele><time>2026-04-30T09:40:49.999Z</time></trkpt><trkpt lat="44.39137800657658" lon="9.37806303935676"><ele>99.0</ele><time>2026-04-30T09:40:50.999Z</time></trkpt><trkpt lat="44.3912958710595" lon="9.377979683232073"><ele>99.0</ele><time>2026-04-30T09:40:51.999Z</time></trkpt><trkpt lat="44.39118936473188" lon="9.377933923483022"><ele>99.0</ele><time>2026-04-30T09:40:52.999Z</time></trkpt><trkpt lat="44.39108669641501" lon="9.377938084188258"><ele>99.0</ele><time>2026-04-30T09:40:53.999Z</time></trkpt><trkpt lat="44.39097272423293" lon="9.378014582373465"><ele>99.0</ele><time>2026-04-30T09:40:54.999Z</time></trkpt><trkpt lat="44.390882153268215" lon="9.378125616905217"><ele>99.0</ele><time>2026-04-30T09:40:55.999Z</time></trkpt><trkpt lat="44.39080325264989" lon="9.378273253252384"><ele>99.0</ele><time>2026-04-30T09:40:56.999Z</time></trkpt><trkpt lat="44.39070096601372" lon="9.37840364215745"><ele>99.0</ele><time>2026-04-30T09:40:57.999Z</time></trkpt><trkpt lat="44.39059529419936" lon="9.378521747561427"><ele>99.0</ele><time>2026-04-30T09:40:58.999Z</time></trkpt><trkpt lat="44.390485504783484" lon="9.378642331058574"><ele>99.0</ele><time>2026-04-30T09:40:59.999Z</time></trkpt><trkpt lat="44.39037090180979" lon="9.378778998566785"><ele>99.0</ele><time>2026-04-30T09:41:00.999Z</time></trkpt><trkpt lat="44.39023404343265" lon="9.378902133247383"><ele>98.0</ele><time>2026-04-30T09:41:01.999Z</time></trkpt><trkpt lat="44.39009898982255" lon="9.379047512886988"><ele>97.0</ele><time>2026-04-30T09:41:02.999Z</time></trkpt><trkpt lat="44.38996417993962" lon="9.37920930564124"><ele>96.0</ele><time>2026-04-30T09:41:03.999Z</time></trkpt><trkpt lat="44.389833737793616" lon="9.379329005860436"><ele>96.0</ele><time>2026-04-30T09:41:04.999Z</time></trkpt><trkpt lat="44.389703943834895" lon="9.379472426227748"><ele>96.0</ele><time>2026-04-30T09:41:05.999Z</time></trkpt><trkpt lat="44.38957165796721" lon="9.379634096618485"><ele>96.0</ele><time>2026-04-30T09:41:06.999Z</time></trkpt><trkpt lat="44.389427270362596" lon="9.379776961826224"><ele>95.33333333333333</ele><time>2026-04-30T09:41:07.999Z</time></trkpt><trkpt lat="44.38928338084481" lon="9.379911580943624"><ele>94.66666666666666</ele><time>2026-04-30T09:41:08.999Z</time></trkpt><trkpt lat="44.3891330516228" lon="9.380034458883275"><ele>94.0</ele><time>2026-04-30T09:41:09.999Z</time></trkpt><trkpt lat="44.38899044673367" lon="9.380152556367415"><ele>89.0</ele><time>2026-04-30T09:41:10.999Z</time></trkpt><trkpt lat="44.388835284577794" lon="9.380279929546639"><ele>84.0</ele><time>2026-04-30T09:41:11.999Z</time></trkpt><trkpt lat="44.388691704372214" lon="9.380396618758514"><ele>79.0</ele><time>2026-04-30T09:41:12.999Z</time></trkpt><trkpt lat="44.38854441312528" lon="9.380506181094484"><ele>82.75</ele><time>2026-04-30T09:41:13.999Z</time></trkpt><trkpt lat="44.38840967774385" lon="9.38058081778686"><ele>86.5</ele><time>2026-04-30T09:41:14.999Z</time></trkpt><trkpt lat="44.38828217521598" lon="9.380628391011882"><ele>90.25</ele><time>2026-04-30T09:41:15.999Z</time></trkpt><trkpt lat="44.38816265141708" lon="9.380647715657052"><ele>94.0</ele><time>2026-04-30T09:41:16.999Z</time></trkpt><trkpt lat="44.388023633177575" lon="9.3806559429848"><ele>94.0</ele><time>2026-04-30T09:41:17.999Z</time></trkpt><trkpt lat="44.38787278150698" lon="9.380654497364418"><ele>94.0</ele><time>2026-04-30T09:41:18.999Z</time></trkpt><trkpt lat="44.38771974278054" lon="9.380641628074786"><ele>94.0</ele><time>2026-04-30T09:41:19.999Z</time></trkpt><trkpt lat="44.38758581216858" lon="9.380588988451064"><ele>94.0</ele><time>2026-04-30T09:41:20.999Z</time></trkpt><trkpt lat="44.387431733890985" lon="9.380500475928176"><ele>92.75</ele><time>2026-04-30T09:41:21.999Z</time></trkpt><trkpt lat="44.387306799374215" lon="9.380429307586414"><ele>91.5</ele><time>2026-04-30T09:41:22.999Z</time></trkpt><trkpt lat="44.387182027143496" lon="9.380357130115456"><ele>90.25</ele><time>2026-04-30T09:41:23.999Z</time></trkpt><trkpt lat="44.38707447497944" lon="9.38025687409494"><ele>89.0</ele><time>2026-04-30T09:41:24.999Z</time></trkpt><trkpt lat="44.38702346248682" lon="9.380146628532646"><ele>89.0</ele><time>2026-04-30T09:41:26Z</time></trkpt><trkpt lat="44.386940928484954" lon="9.37998478102602"><ele>89.0</ele><time>2026-04-30T09:41:26.999Z</time></trkpt><trkpt lat="44.38686602011367" lon="9.379830871866808"><ele>89.0</ele><time>2026-04-30T09:41:27.999Z</time></trkpt><trkpt lat="44.38680255601041" lon="9.379688302823066"><ele>89.0</ele><time>2026-04-30T09:41:28.999Z</time></trkpt><trkpt lat="44.3867378242929" lon="9.379548810645465"><ele>88.5</ele><time>2026-04-30T09:41:29.999Z</time></trkpt><trkpt lat="44.38664772960582" lon="9.379426216605475"><ele>88.0</ele><time>2026-04-30T09:41:30.999Z</time></trkpt><trkpt lat="44.38656110730064" lon="9.379325691796232"><ele>87.5</ele><time>2026-04-30T09:41:31.999Z</time></trkpt><trkpt lat="44.386463077929385" lon="9.379217813187097"><ele>87.0</ele><time>2026-04-30T09:41:32.999Z</time></trkpt><trkpt lat="44.386340807765734" lon="9.379154346451934"><ele>87.0</ele><time>2026-04-30T09:41:33.999Z</time></trkpt><trkpt lat="44.38620403510298" lon="9.379084328582993"><ele>87.0</ele><time>2026-04-30T09:41:34.999Z</time></trkpt><trkpt lat="44.38609150477675" lon="9.378967145069558"><ele>87.0</ele><time>2026-04-30T09:41:35.999Z</time></trkpt><trkpt lat="44.38596077791476" lon="9.378872199144453"><ele>87.0</ele><time>2026-04-30T09:41:36.999Z</time></trkpt><trkpt lat="44.38582745789132" lon="9.378776147137033"><ele>85.75</ele><time>2026-04-30T09:41:37.999Z</time></trkpt><trkpt lat="44.38570721490769" lon="9.378690647600218"><ele>84.5</ele><time>2026-04-30T09:41:38.999Z</time></trkpt><trkpt lat="44.38559508137126" lon="9.37859596053323"><ele>83.25</ele><time>2026-04-30T09:41:39.999Z</time></trkpt><trkpt lat="44.385452758074926" lon="9.378572976775281"><ele>82.0</ele><time>2026-04-30T09:41:40.999Z</time></trkpt><trkpt lat="44.38534541151126" lon="9.37852115963046"><ele>82.0</ele><time>2026-04-30T09:41:41.999Z</time></trkpt><trkpt lat="44.38525633435742" lon="9.378465722627212"><ele>82.0</ele><time>2026-04-30T09:41:42.999Z</time></trkpt><trkpt lat="44.38516997418438" lon="9.378436421005658"><ele>82.0</ele><time>2026-04-30T09:41:43.999Z</time></trkpt><trkpt lat="44.38506728782128" lon="9.378464366973988"><ele>82.0</ele><time>2026-04-30T09:41:44.999Z</time></trkpt><trkpt lat="44.38496992336453" lon="9.378438769805731"><ele>82.0</ele><time>2026-04-30T09:41:45.999Z</time></trkpt><trkpt lat="44.384882330403414" lon="9.37842260441305"><ele>82.0</ele><time>2026-04-30T09:41:46.999Z</time></trkpt><trkpt lat="44.384788002442534" lon="9.378374409580168"><ele>82.0</ele><time>2026-04-30T09:41:47.999Z</time></trkpt><trkpt lat="44.38471098311011" lon="9.378292361451086"><ele>82.0</ele><time>2026-04-30T09:41:48.999Z</time></trkpt><trkpt lat="44.38463436081496" lon="9.378250628863988"><ele>82.0</ele><time>2026-04-30T09:41:49.999Z</time></trkpt><trkpt lat="44.38450750519501" lon="9.378240700410414"><ele>82.0</ele><time>2026-04-30T09:41:51.999Z</time></trkpt><trkpt lat="44.384406546730425" lon="9.37822332182366"><ele>82.0</ele><time>2026-04-30T09:41:52.999Z</time></trkpt><trkpt lat="44.384322651259446" lon="9.378167768466202"><ele>82.0</ele><time>2026-04-30T09:41:53.999Z</time></trkpt><trkpt lat="44.38423390759541" lon="9.378092639941372"><ele>82.0</ele><time>2026-04-30T09:41:54.999Z</time></trkpt><trkpt lat="44.38414966364941" lon="9.378003017093272"><ele>82.0</ele><time>2026-04-30T09:41:55.999Z</time></trkpt><trkpt lat="44.384061818563055" lon="9.377901733869662"><ele>82.0</ele><time>2026-04-30T09:41:56.999Z</time></trkpt><trkpt lat="44.383978851701215" lon="9.377803308569572"><ele>82.0</ele><time>2026-04-30T09:41:57.999Z</time></trkpt><trkpt lat="44.38389786897157" lon="9.377707236952688"><ele>82.0</ele><time>2026-04-30T09:41:58.999Z</time></trkpt><trkpt lat="44.3837943377206" lon="9.377671879760962"><ele>82.0</ele><time>2026-04-30T09:41:59.999Z</time></trkpt><trkpt lat="44.38370700594017" lon="9.37756317187559"><ele>82.0</ele><time>2026-04-30T09:42:00.999Z</time></trkpt><trkpt lat="44.383634006196935" lon="9.37748469191778"><ele>82.0</ele><time>2026-04-30T09:42:01.999Z</time></trkpt><trkpt lat="44.38356855911082" lon="9.377406768330276"><ele>81.6</ele><time>2026-04-30T09:42:02.999Z</time></trkpt><trkpt lat="44.38348735438657" lon="9.377325715026164"><ele>81.19999999999999</ele><time>2026-04-30T09:42:03.999Z</time></trkpt><trkpt lat="44.383412115086486" lon="9.37723646165036"><ele>80.8</ele><time>2026-04-30T09:42:04.999Z</time></trkpt><trkpt lat="44.3833552168253" lon="9.377123561967895"><ele>80.4</ele><time>2026-04-30T09:42:05.999Z</time></trkpt><trkpt lat="44.38328882869567" lon="9.377021485344727"><ele>80.0</ele><time>2026-04-30T09:42:06.999Z</time></trkpt><trkpt lat="44.38321763008535" lon="9.376924143044818"><ele>80.0</ele><time>2026-04-30T09:42:07.999Z</time></trkpt><trkpt lat="44.38316080225525" lon="9.376808073790006"><ele>80.0</ele><time>2026-04-30T09:42:08.999Z</time></trkpt><trkpt lat="44.383077669801885" lon="9.376713789957005"><ele>80.0</ele><time>2026-04-30T09:42:09.999Z</time></trkpt><trkpt lat="44.38300675662858" lon="9.376660423592492"><ele>80.0</ele><time>2026-04-30T09:42:10.999Z</time></trkpt><trkpt lat="44.3829209034058" lon="9.37657314811323"><ele>80.0</ele><time>2026-04-30T09:42:11.999Z</time></trkpt><trkpt lat="44.38285451005162" lon="9.37646394463385"><ele>80.0</ele><time>2026-04-30T09:42:12.999Z</time></trkpt><trkpt lat="44.382784454992134" lon="9.376360454114872"><ele>80.0</ele><time>2026-04-30T09:42:13.999Z</time></trkpt><trkpt lat="44.382707979071064" lon="9.376242770140923"><ele>80.0</ele><time>2026-04-30T09:42:14.999Z</time></trkpt><trkpt lat="44.38261669079298" lon="9.376153991591684"><ele>80.0</ele><time>2026-04-30T09:42:15.999Z</time></trkpt><trkpt lat="44.38250915128146" lon="9.376089021304981"><ele>80.0</ele><time>2026-04-30T09:42:16.999Z</time></trkpt><trkpt lat="44.3824229821603" lon="9.375973458252949"><ele>78.5</ele><time>2026-04-30T09:42:17.999Z</time></trkpt><trkpt lat="44.38231400465151" lon="9.375883179535764"><ele>77.0</ele><time>2026-04-30T09:42:18.999Z</time></trkpt><trkpt lat="44.382218654165655" lon="9.37578450860137"><ele>75.5</ele><time>2026-04-30T09:42:19.999Z</time></trkpt><trkpt lat="44.382128281628155" lon="9.375673712280637"><ele>74.0</ele><time>2026-04-30T09:42:20.999Z</time></trkpt><trkpt lat="44.38206487291859" lon="9.375566145589145"><ele>78.0</ele><time>2026-04-30T09:42:21.999Z</time></trkpt><trkpt lat="44.38200162706115" lon="9.375442259125117"><ele>82.0</ele><time>2026-04-30T09:42:22.999Z</time></trkpt><trkpt lat="44.381969436861034" lon="9.37530334332034"><ele>86.0</ele><time>2026-04-30T09:42:23.999Z</time></trkpt><trkpt lat="44.38194203913804" lon="9.375177913152061"><ele>90.0</ele><time>2026-04-30T09:42:24.999Z</time></trkpt><trkpt lat="44.38191616344455" lon="9.375045841539633"><ele>94.0</ele><time>2026-04-30T09:42:25.999Z</time></trkpt><trkpt lat="44.38188904483896" lon="9.374901520195767"><ele>94.0</ele><time>2026-04-30T09:42:26.999Z</time></trkpt><trkpt lat="44.38184020965315" lon="9.374762548246649"><ele>94.0</ele><time>2026-04-30T09:42:27.999Z</time></trkpt><trkpt lat="44.38180628123432" lon="9.37463590290406"><ele>94.0</ele><time>2026-04-30T09:42:28.999Z</time></trkpt><trkpt lat="44.38176397135508" lon="9.374513219209456"><ele>94.0</ele><time>2026-04-30T09:42:29.999Z</time></trkpt><trkpt lat="44.38170469407168" lon="9.374388598178598"><ele>94.0</ele><time>2026-04-30T09:42:30.999Z</time></trkpt><trkpt lat="44.38165477477459" lon="9.374273190036677"><ele>90.25</ele><time>2026-04-30T09:42:31.999Z</time></trkpt><trkpt lat="44.381595000625026" lon="9.374140447574678"><ele>86.5</ele><time>2026-04-30T09:42:32.999Z</time></trkpt><trkpt lat="44.3815334816284" lon="9.373999780776712"><ele>82.75</ele><time>2026-04-30T09:42:33.999Z</time></trkpt><trkpt lat="44.38146482517303" lon="9.373866563995833"><ele>79.0</ele><time>2026-04-30T09:42:34.998Z</time></trkpt><trkpt lat="44.38141875413053" lon="9.373732346861944"><ele>77.0</ele><time>2026-04-30T09:42:35.998Z</time></trkpt><trkpt lat="44.381378665080696" lon="9.373601965441015"><ele>75.0</ele><time>2026-04-30T09:42:36.998Z</time></trkpt><trkpt lat="44.38134296351447" lon="9.373473043324571"><ele>73.0</ele><time>2026-04-30T09:42:37.998Z</time></trkpt><trkpt lat="44.38131876879874" lon="9.373339052646054"><ele>71.0</ele><time>2026-04-30T09:42:38.998Z</time></trkpt><trkpt lat="44.381273880589056" lon="9.373195752614059"><ele>69.0</ele><time>2026-04-30T09:42:39.998Z</time></trkpt><trkpt lat="44.381220430183994" lon="9.373060792434003"><ele>70.75</ele><time>2026-04-30T09:42:40.998Z</time></trkpt><trkpt lat="44.38115869942982" lon="9.372950155876742"><ele>72.5</ele><time>2026-04-30T09:42:41.998Z</time></trkpt><trkpt lat="44.38107516107119" lon="9.372825913913156"><ele>74.25</ele><time>2026-04-30T09:42:42.998Z</time></trkpt><trkpt lat="44.380965174786255" lon="9.372666999596982"><ele>76.0</ele><time>2026-04-30T09:42:43.998Z</time></trkpt><trkpt lat="44.3808541567866" lon="9.372516477226863"><ele>76.0</ele><time>2026-04-30T09:42:44.998Z</time></trkpt><trkpt lat="44.38073369264849" lon="9.372379105572104"><ele>76.0</ele><time>2026-04-30T09:42:45.998Z</time></trkpt><trkpt lat="44.38063398801277" lon="9.372230898058032"><ele>76.0</ele><time>2026-04-30T09:42:46.998Z</time></trkpt><trkpt lat="44.38052931760137" lon="9.372084569091875"><ele>76.0</ele><time>2026-04-30T09:42:47.998Z</time></trkpt><trkpt lat="44.380421969042686" lon="9.37194523600385"><ele>79.5</ele><time>2026-04-30T09:42:48.998Z</time></trkpt><trkpt lat="44.38030949157954" lon="9.371794208277903"><ele>83.0</ele><time>2026-04-30T09:42:49.998Z</time></trkpt><trkpt lat="44.38021810127881" lon="9.371643228426027"><ele>86.5</ele><time>2026-04-30T09:42:50.998Z</time></trkpt><trkpt lat="44.38011559800124" lon="9.371508292500707"><ele>90.0</ele><time>2026-04-30T09:42:51.998Z</time></trkpt><trkpt lat="44.38001625872369" lon="9.371358081977881"><ele>92.25</ele><time>2026-04-30T09:42:52.998Z</time></trkpt><trkpt lat="44.379908035922824" lon="9.37120793644674"><ele>94.5</ele><time>2026-04-30T09:42:53.998Z</time></trkpt><trkpt lat="44.379799195467214" lon="9.371098133076954"><ele>96.75</ele><time>2026-04-30T09:42:54.998Z</time></trkpt><trkpt lat="44.37968602427738" lon="9.370958572194837"><ele>99.0</ele><time>2026-04-30T09:42:55.998Z</time></trkpt><trkpt lat="44.37956901805271" lon="9.370804175799908"><ele>99.0</ele><time>2026-04-30T09:42:56.998Z</time></trkpt><trkpt lat="44.37945826786019" lon="9.370640108410116"><ele>99.0</ele><time>2026-04-30T09:42:57.998Z</time></trkpt><trkpt lat="44.37934958194815" lon="9.370477369368214"><ele>99.0</ele><time>2026-04-30T09:42:58.998Z</time></trkpt><trkpt lat="44.37926484541719" lon="9.37030269033922"><ele>91.66666666666667</ele><time>2026-04-30T09:42:59.998Z</time></trkpt><trkpt lat="44.379162147278635" lon="9.370118620191231"><ele>84.33333333333334</ele><time>2026-04-30T09:43:00.998Z</time></trkpt><trkpt lat="44.37905071186406" lon="9.369947719963433"><ele>77.0</ele><time>2026-04-30T09:43:01.998Z</time></trkpt><trkpt lat="44.37893193299712" lon="9.369793244873163"><ele>78.66666666666667</ele><time>2026-04-30T09:43:02.998Z</time></trkpt><trkpt lat="44.37880481986095" lon="9.369654943455522"><ele>80.33333333333333</ele><time>2026-04-30T09:43:03.998Z</time></trkpt><trkpt lat="44.37869333928755" lon="9.369491372899205"><ele>82.0</ele><time>2026-04-30T09:43:04.998Z</time></trkpt><trkpt lat="44.37858527289727" lon="9.369348246608064"><ele>82.0</ele><time>2026-04-30T09:43:05.998Z</time></trkpt><trkpt lat="44.37847966013676" lon="9.369178814365268"><ele>82.0</ele><time>2026-04-30T09:43:06.998Z</time></trkpt><trkpt lat="44.37838814894699" lon="9.369008096943853"><ele>82.0</ele><time>2026-04-30T09:43:07.998Z</time></trkpt><trkpt lat="44.37828641603665" lon="9.368844315347337"><ele>76.66666666666666</ele><time>2026-04-30T09:43:08.998Z</time></trkpt><trkpt lat="44.378187889347174" lon="9.368672865877823"><ele>71.33333333333333</ele><time>2026-04-30T09:43:09.998Z</time></trkpt><trkpt lat="44.37808460607154" lon="9.368510002412474"><ele>66.0</ele><time>2026-04-30T09:43:10.998Z</time></trkpt><trkpt lat="44.37797517714451" lon="9.368363734160646"><ele>67.75</ele><time>2026-04-30T09:43:11.998Z</time></trkpt><trkpt lat="44.37788243981817" lon="9.368229380044871"><ele>69.5</ele><time>2026-04-30T09:43:12.998Z</time></trkpt><trkpt lat="44.37780595038403" lon="9.368068437423005"><ele>71.25</ele><time>2026-04-30T09:43:13.998Z</time></trkpt><trkpt lat="44.377735095437586" lon="9.367907192530966"><ele>73.0</ele><time>2026-04-30T09:43:14.998Z</time></trkpt><trkpt lat="44.377676729403774" lon="9.367738515708474"><ele>73.0</ele><time>2026-04-30T09:43:15.998Z</time></trkpt><trkpt lat="44.37758175209503" lon="9.367610386011282"><ele>73.0</ele><time>2026-04-30T09:43:16.998Z</time></trkpt><trkpt lat="44.37747247602407" lon="9.367470877569948"><ele>73.0</ele><time>2026-04-30T09:43:17.998Z</time></trkpt><trkpt lat="44.377351691646" lon="9.367324465428723"><ele>73.0</ele><time>2026-04-30T09:43:18.998Z</time></trkpt><trkpt lat="44.37722442745355" lon="9.367205865249362"><ele>75.0</ele><time>2026-04-30T09:43:19.998Z</time></trkpt><trkpt lat="44.377097795278694" lon="9.367098299078908"><ele>77.0</ele><time>2026-04-30T09:43:20.998Z</time></trkpt><trkpt lat="44.37697480213379" lon="9.36696338988161"><ele>79.0</ele><time>2026-04-30T09:43:21.998Z</time></trkpt><trkpt lat="44.37682779135718" lon="9.36684186152004"><ele>79.0</ele><time>2026-04-30T09:43:22.998Z</time></trkpt><trkpt lat="44.37670129741248" lon="9.366712108575353"><ele>79.0</ele><time>2026-04-30T09:43:23.998Z</time></trkpt><trkpt lat="44.376601222797454" lon="9.366565511199598"><ele>79.0</ele><time>2026-04-30T09:43:24.998Z</time></trkpt><trkpt lat="44.37651266890837" lon="9.366384142770368"><ele>77.25</ele><time>2026-04-30T09:43:25.998Z</time></trkpt><trkpt lat="44.37641056629629" lon="9.36626137033597"><ele>75.5</ele><time>2026-04-30T09:43:26.998Z</time></trkpt><trkpt lat="44.37632230402668" lon="9.366147196072026"><ele>73.75</ele><time>2026-04-30T09:43:27.998Z</time></trkpt><trkpt lat="44.37620733979751" lon="9.366055417708854"><ele>72.0</ele><time>2026-04-30T09:43:28.998Z</time></trkpt><trkpt lat="44.376096124624496" lon="9.36596987103005"><ele>75.75</ele><time>2026-04-30T09:43:29.998Z</time></trkpt><trkpt lat="44.37597184730106" lon="9.365899657686207"><ele>79.5</ele><time>2026-04-30T09:43:30.998Z</time></trkpt><trkpt lat="44.375865344556445" lon="9.36584592757369"><ele>83.25</ele><time>2026-04-30T09:43:31.998Z</time></trkpt><trkpt lat="44.37578574120083" lon="9.365793580355694"><ele>87.0</ele><time>2026-04-30T09:43:32.998Z</time></trkpt><trkpt lat="44.3757154605996" lon="9.365663704991956"><ele>84.19999999999999</ele><time>2026-04-30T09:43:33.998Z</time></trkpt><trkpt lat="44.37566915307512" lon="9.365489989038423"><ele>81.39999999999999</ele><time>2026-04-30T09:43:34.998Z</time></trkpt><trkpt lat="44.37563168524804" lon="9.36536237292774"><ele>78.6</ele><time>2026-04-30T09:43:35.998Z</time></trkpt><trkpt lat="44.37559329043016" lon="9.365229757572894"><ele>75.8</ele><time>2026-04-30T09:43:36.998Z</time></trkpt><trkpt lat="44.375537901049455" lon="9.365101629031605"><ele>73.0</ele><time>2026-04-30T09:43:37.998Z</time></trkpt><trkpt lat="44.37546026511932" lon="9.36498760566942"><ele>74.75</ele><time>2026-04-30T09:43:38.998Z</time></trkpt><trkpt lat="44.375391595536364" lon="9.364862010755411"><ele>76.5</ele><time>2026-04-30T09:43:39.998Z</time></trkpt><trkpt lat="44.375294720154436" lon="9.364756368138414"><ele>78.25</ele><time>2026-04-30T09:43:40.998Z</time></trkpt><trkpt lat="44.37518793815172" lon="9.364678908704086"><ele>80.0</ele><time>2026-04-30T09:43:41.998Z</time></trkpt><trkpt lat="44.37510951293747" lon="9.364602958903077"><ele>80.0</ele><time>2026-04-30T09:43:42.998Z</time></trkpt><trkpt lat="44.37502926472816" lon="9.364531571591264"><ele>80.0</ele><time>2026-04-30T09:43:43.997Z</time></trkpt><trkpt lat="44.374951448795976" lon="9.364440818301391"><ele>80.0</ele><time>2026-04-30T09:43:44.997Z</time></trkpt><trkpt lat="44.37485596108281" lon="9.364374966350656"><ele>80.0</ele><time>2026-04-30T09:43:45.997Z</time></trkpt><trkpt lat="44.37479074523688" lon="9.364322570478823"><ele>80.0</ele><time>2026-04-30T09:43:46.997Z</time></trkpt><trkpt lat="44.37473691820097" lon="9.364274274994834"><ele>80.0</ele><time>2026-04-30T09:43:47.997Z</time></trkpt><trkpt lat="44.37468337033183" lon="9.36421341855133"><ele>82.0</ele><time>2026-04-30T09:43:48.997Z</time></trkpt><trkpt lat="44.37463809440099" lon="9.364104201045727"><ele>84.0</ele><time>2026-04-30T09:43:49.997Z</time></trkpt><trkpt lat="44.37460556615375" lon="9.363952957746546"><ele>86.0</ele><time>2026-04-30T09:43:50.997Z</time></trkpt><trkpt lat="44.37460708063867" lon="9.363801669885117"><ele>88.0</ele><time>2026-04-30T09:43:51.997Z</time></trkpt><trkpt lat="44.37458732809269" lon="9.363633466795257"><ele>90.0</ele><time>2026-04-30T09:43:52.997Z</time></trkpt><trkpt lat="44.374538617176" lon="9.363521918445272"><ele>90.0</ele><time>2026-04-30T09:43:53.997Z</time></trkpt><trkpt lat="44.37444480282458" lon="9.36343621143478"><ele>90.0</ele><time>2026-04-30T09:43:54.997Z</time></trkpt><trkpt lat="44.37435134202359" lon="9.363321680248612"><ele>90.0</ele><time>2026-04-30T09:43:55.997Z</time></trkpt><trkpt lat="44.374234963205026" lon="9.363229140047816"><ele>90.0</ele><time>2026-04-30T09:43:56.997Z</time></trkpt><trkpt lat="44.37414412002106" lon="9.36313122984589"><ele>91.6</ele><time>2026-04-30T09:43:57.997Z</time></trkpt><trkpt lat="44.37404615630292" lon="9.363016043163126"><ele>93.2</ele><time>2026-04-30T09:43:58.997Z</time></trkpt><trkpt lat="44.373952945689574" lon="9.36292810195257"><ele>94.80000000000001</ele><time>2026-04-30T09:43:59.997Z</time></trkpt><trkpt lat="44.37387034977099" lon="9.362868798571435"><ele>96.4</ele><time>2026-04-30T09:44:00.997Z</time></trkpt><trkpt lat="44.37380418405748" lon="9.362841332255522"><ele>98.0</ele><time>2026-04-30T09:44:01.997Z</time></trkpt><trkpt lat="44.373708165368825" lon="9.362789829641379"><ele>98.0</ele><time>2026-04-30T09:44:02.997Z</time></trkpt><trkpt lat="44.3736128700634" lon="9.362728350880152"><ele>98.0</ele><time>2026-04-30T09:44:03.997Z</time></trkpt><trkpt lat="44.37351257870697" lon="9.36266003782837"><ele>98.0</ele><time>2026-04-30T09:44:04.997Z</time></trkpt><trkpt lat="44.373450473640005" lon="9.36252158377316"><ele>98.0</ele><time>2026-04-30T09:44:05.997Z</time></trkpt><trkpt lat="44.37343405469499" lon="9.362390446974823"><ele>98.0</ele><time>2026-04-30T09:44:06.997Z</time></trkpt><trkpt lat="44.37344938314205" lon="9.362272598230888"><ele>97.2</ele><time>2026-04-30T09:44:07.997Z</time></trkpt><trkpt lat="44.373485788423146" lon="9.362154552224242"><ele>96.4</ele><time>2026-04-30T09:44:08.997Z</time></trkpt><trkpt lat="44.37352601398851" lon="9.362016932816074"><ele>95.60000000000001</ele><time>2026-04-30T09:44:09.997Z</time></trkpt><trkpt lat="44.373563386585836" lon="9.361865470143913"><ele>94.80000000000001</ele><time>2026-04-30T09:44:10.997Z</time></trkpt><trkpt lat="44.373605661160674" lon="9.361742137983967"><ele>94.0</ele><time>2026-04-30T09:44:11.997Z</time></trkpt><trkpt lat="44.37364299658378" lon="9.361593782854378"><ele>94.0</ele><time>2026-04-30T09:44:12.997Z</time></trkpt><trkpt lat="44.37368688992214" lon="9.361460581058527"><ele>94.0</ele><time>2026-04-30T09:44:13.997Z</time></trkpt><trkpt lat="44.373721058442825" lon="9.361339186424923"><ele>94.0</ele><time>2026-04-30T09:44:14.997Z</time></trkpt><trkpt lat="44.37375246009602" lon="9.361195434242973"><ele>94.0</ele><time>2026-04-30T09:44:15.997Z</time></trkpt><trkpt lat="44.373765608820165" lon="9.361043900983962"><ele>94.0</ele><time>2026-04-30T09:44:16.997Z</time></trkpt><trkpt lat="44.37375641435651" lon="9.360900599862166"><ele>89.25</ele><time>2026-04-30T09:44:17.997Z</time></trkpt><trkpt lat="44.37367520455552" lon="9.360836680894575"><ele>84.5</ele><time>2026-04-30T09:44:18.997Z</time></trkpt><trkpt lat="44.373568239253295" lon="9.360768153616846"><ele>79.75</ele><time>2026-04-30T09:44:19.997Z</time></trkpt><trkpt lat="44.373439308927914" lon="9.36076828190146"><ele>75.0</ele><time>2026-04-30T09:44:20.997Z</time></trkpt><trkpt lat="44.37330206045965" lon="9.360767461781336"><ele>75.0</ele><time>2026-04-30T09:44:21.997Z</time></trkpt><trkpt lat="44.37314670676703" lon="9.360772802905824"><ele>75.0</ele><time>2026-04-30T09:44:22.997Z</time></trkpt><trkpt lat="44.372972568122826" lon="9.36077772669771"><ele>75.0</ele><time>2026-04-30T09:44:23.997Z</time></trkpt><trkpt lat="44.37277507386285" lon="9.36078216663926"><ele>77.66666666666667</ele><time>2026-04-30T09:44:24.997Z</time></trkpt><trkpt lat="44.37256645270833" lon="9.360784336583299"><ele>80.33333333333334</ele><time>2026-04-30T09:44:25.997Z</time></trkpt><trkpt lat="44.372368001066526" lon="9.360792551944735"><ele>83.0</ele><time>2026-04-30T09:44:26.997Z</time></trkpt><trkpt lat="44.37218373652677" lon="9.360795674308982"><ele>87.0</ele><time>2026-04-30T09:44:27.997Z</time></trkpt><trkpt lat="44.37201617262948" lon="9.360777919126448"><ele>91.0</ele><time>2026-04-30T09:44:28.997Z</time></trkpt><trkpt lat="44.37184948956125" lon="9.360752085437895"><ele>95.0</ele><time>2026-04-30T09:44:29.997Z</time></trkpt><trkpt lat="44.371691424023425" lon="9.360727217253585"><ele>95.0</ele><time>2026-04-30T09:44:30.997Z</time></trkpt><trkpt lat="44.371561944472724" lon="9.36070337885396"><ele>95.0</ele><time>2026-04-30T09:44:31.997Z</time></trkpt><trkpt lat="44.37144147832453" lon="9.360674173044972"><ele>95.0</ele><time>2026-04-30T09:44:32.997Z</time></trkpt><trkpt lat="44.37134591584782" lon="9.360636061723497"><ele>95.0</ele><time>2026-04-30T09:44:33.997Z</time></trkpt><trkpt lat="44.37125839379808" lon="9.360553540016072"><ele>99.75</ele><time>2026-04-30T09:44:34.997Z</time></trkpt><trkpt lat="44.37117906884302" lon="9.360413505914984"><ele>104.5</ele><time>2026-04-30T09:44:35.997Z</time></trkpt><trkpt lat="44.37112800924667" lon="9.360232096850648"><ele>109.25</ele><time>2026-04-30T09:44:36.997Z</time></trkpt><trkpt lat="44.37110979765065" lon="9.360049873329052"><ele>114.0</ele><time>2026-04-30T09:44:37.997Z</time></trkpt><trkpt lat="44.371104565856534" lon="9.3598503137755"><ele>112.5</ele><time>2026-04-30T09:44:38.997Z</time></trkpt><trkpt lat="44.371049856052416" lon="9.359659451798366"><ele>111.0</ele><time>2026-04-30T09:44:39.997Z</time></trkpt><trkpt lat="44.3710171898949" lon="9.359458379054773"><ele>109.5</ele><time>2026-04-30T09:44:40.997Z</time></trkpt><trkpt lat="44.370970246006465" lon="9.359285033310822"><ele>108.0</ele><time>2026-04-30T09:44:41.997Z</time></trkpt><trkpt lat="44.37090883499276" lon="9.359149355239312"><ele>108.0</ele><time>2026-04-30T09:44:42.997Z</time></trkpt><trkpt lat="44.37085962323573" lon="9.359019873459271"><ele>108.00000000000001</ele><time>2026-04-30T09:44:43.997Z</time></trkpt><trkpt lat="44.370844989386" lon="9.358890045429806"><ele>108.00000000000001</ele><time>2026-04-30T09:44:44.997Z</time></trkpt><trkpt lat="44.37086690048388" lon="9.358755826866993"><ele>108.0</ele><time>2026-04-30T09:44:45.997Z</time></trkpt><trkpt lat="44.37089651814142" lon="9.358633492507161"><ele>108.0</ele><time>2026-04-30T09:44:46.997Z</time></trkpt><trkpt lat="44.370933317025894" lon="9.358462422029296"><ele>106.25</ele><time>2026-04-30T09:44:47.997Z</time></trkpt><trkpt lat="44.37095803585073" lon="9.358291488940012"><ele>104.5</ele><time>2026-04-30T09:44:48.997Z</time></trkpt><trkpt lat="44.37097524583106" lon="9.3581433599126"><ele>102.75</ele><time>2026-04-30T09:44:49.997Z</time></trkpt><trkpt lat="44.370988386734396" lon="9.357984207629801"><ele>101.0</ele><time>2026-04-30T09:44:50.997Z</time></trkpt><trkpt lat="44.37099675871806" lon="9.357834869385089"><ele>99.0</ele><time>2026-04-30T09:44:51.997Z</time></trkpt><trkpt lat="44.37100265282699" lon="9.357685002182627"><ele>97.0</ele><time>2026-04-30T09:44:52.996Z</time></trkpt><trkpt lat="44.3709709142511" lon="9.357517350868228"><ele>95.0</ele><time>2026-04-30T09:44:53.996Z</time></trkpt><trkpt lat="44.37092064933468" lon="9.357363697665471"><ele>93.0</ele><time>2026-04-30T09:44:54.996Z</time></trkpt><trkpt lat="44.370849148311684" lon="9.357212525701586"><ele>87.75</ele><time>2026-04-30T09:44:55.996Z</time></trkpt><trkpt lat="44.37078808885834" lon="9.357054786221287"><ele>82.5</ele><time>2026-04-30T09:44:56.996Z</time></trkpt><trkpt lat="44.370728598020264" lon="9.356890884924463"><ele>77.25</ele><time>2026-04-30T09:44:57.996Z</time></trkpt><trkpt lat="44.37064176061169" lon="9.3567846884063"><ele>72.0</ele><time>2026-04-30T09:44:58.996Z</time></trkpt><trkpt lat="44.37054754993595" lon="9.356676415895475"><ele>76.5</ele><time>2026-04-30T09:44:59.996Z</time></trkpt><trkpt lat="44.3704189965811" lon="9.356606341249456"><ele>81.0</ele><time>2026-04-30T09:45:00.996Z</time></trkpt><trkpt lat="44.370294656911895" lon="9.356600753138421"><ele>85.5</ele><time>2026-04-30T09:45:01.996Z</time></trkpt><trkpt lat="44.370168612434206" lon="9.356616236513934"><ele>90.0</ele><time>2026-04-30T09:45:02.996Z</time></trkpt><trkpt lat="44.37003483733651" lon="9.356585972882812"><ele>90.0</ele><time>2026-04-30T09:45:03.996Z</time></trkpt><trkpt lat="44.36991846929681" lon="9.356559804220105"><ele>90.0</ele><time>2026-04-30T09:45:04.996Z</time></trkpt><trkpt lat="44.36980142096555" lon="9.356531972546685"><ele>90.0</ele><time>2026-04-30T09:45:05.996Z</time></trkpt><trkpt lat="44.36967997999811" lon="9.35648942884073"><ele>90.0</ele><time>2026-04-30T09:45:06.996Z</time></trkpt><trkpt lat="44.36957245319707" lon="9.356440054851793"><ele>90.0</ele><time>2026-04-30T09:45:07.996Z</time></trkpt><trkpt lat="44.36944630294335" lon="9.356380444308838"><ele>90.0</ele><time>2026-04-30T09:45:08.996Z</time></trkpt><trkpt lat="44.36934737030956" lon="9.35630300188832"><ele>90.0</ele><time>2026-04-30T09:45:09.996Z</time></trkpt><trkpt lat="44.369273224754714" lon="9.356260692802554"><ele>90.0</ele><time>2026-04-30T09:45:10.996Z</time></trkpt><trkpt lat="44.369196329423" lon="9.356210588086883"><ele>90.0</ele><time>2026-04-30T09:45:11.996Z</time></trkpt><trkpt lat="44.369117907406086" lon="9.35616596768296"><ele>85.0</ele><time>2026-04-30T09:45:12.996Z</time></trkpt><trkpt lat="44.369028492199824" lon="9.356134239217727"><ele>80.0</ele><time>2026-04-30T09:45:13.996Z</time></trkpt><trkpt lat="44.3689162918729" lon="9.3560635164326"><ele>75.0</ele><time>2026-04-30T09:45:14.996Z</time></trkpt><trkpt lat="44.36880029682382" lon="9.356031776765661"><ele>70.0</ele><time>2026-04-30T09:45:15.996Z</time></trkpt><trkpt lat="44.36866937528255" lon="9.356087731018972"><ele>70.0</ele><time>2026-04-30T09:45:16.996Z</time></trkpt><trkpt lat="44.368573357334654" lon="9.356206314197687"><ele>70.0</ele><time>2026-04-30T09:45:17.996Z</time></trkpt><trkpt lat="44.36850235579429" lon="9.356333297365707"><ele>70.0</ele><time>2026-04-30T09:45:18.996Z</time></trkpt><trkpt lat="44.368410546838334" lon="9.356422334026407"><ele>70.0</ele><time>2026-04-30T09:45:19.996Z</time></trkpt><trkpt lat="44.368317333834845" lon="9.356505485063368"><ele>69.75</ele><time>2026-04-30T09:45:20.996Z</time></trkpt><trkpt lat="44.36822645231319" lon="9.356559398957536"><ele>69.5</ele><time>2026-04-30T09:45:21.996Z</time></trkpt><trkpt lat="44.368093313789466" lon="9.356631706335417"><ele>69.25</ele><time>2026-04-30T09:45:22.996Z</time></trkpt><trkpt lat="44.36797742271014" lon="9.356683384877984"><ele>69.0</ele><time>2026-04-30T09:45:23.996Z</time></trkpt><trkpt lat="44.36787218291135" lon="9.35670990070281"><ele>69.0</ele><time>2026-04-30T09:45:24.996Z</time></trkpt><trkpt lat="44.36771675341014" lon="9.356730654559215"><ele>69.0</ele><time>2026-04-30T09:45:25.996Z</time></trkpt><trkpt lat="44.36756463537695" lon="9.356752940069565"><ele>69.0</ele><time>2026-04-30T09:45:26.996Z</time></trkpt><trkpt lat="44.36738536069582" lon="9.35675341353316"><ele>69.0</ele><time>2026-04-30T09:45:27.996Z</time></trkpt><trkpt lat="44.36723604325538" lon="9.356774632612415"><ele>69.0</ele><time>2026-04-30T09:45:28.996Z</time></trkpt><trkpt lat="44.3670918385962" lon="9.356825326425833"><ele>69.0</ele><time>2026-04-30T09:45:29.996Z</time></trkpt><trkpt lat="44.36696031771723" lon="9.356901028966613"><ele>69.0</ele><time>2026-04-30T09:45:30.996Z</time></trkpt><trkpt lat="44.36683091178296" lon="9.356994253617767"><ele>68.5</ele><time>2026-04-30T09:45:31.996Z</time></trkpt><trkpt lat="44.36669759027568" lon="9.35706195665164"><ele>68.0</ele><time>2026-04-30T09:45:32.996Z</time></trkpt><trkpt lat="44.36657468811924" lon="9.35712538313799"><ele>67.5</ele><time>2026-04-30T09:45:33.996Z</time></trkpt><trkpt lat="44.366434480439125" lon="9.357231880197299"><ele>67.0</ele><time>2026-04-30T09:45:34.996Z</time></trkpt><trkpt lat="44.366331091264726" lon="9.3573242324125"><ele>64.25</ele><time>2026-04-30T09:45:35.996Z</time></trkpt><trkpt lat="44.366241898209665" lon="9.357408648709756"><ele>61.5</ele><time>2026-04-30T09:45:36.996Z</time></trkpt><trkpt lat="44.3661383356524" lon="9.357497601804223"><ele>58.75</ele><time>2026-04-30T09:45:37.996Z</time></trkpt><trkpt lat="44.36604163339073" lon="9.357574786456203"><ele>56.0</ele><time>2026-04-30T09:45:38.996Z</time></trkpt><trkpt lat="44.365934913511325" lon="9.357629822497568"><ele>56.0</ele><time>2026-04-30T09:45:39.996Z</time></trkpt><trkpt lat="44.36582308478337" lon="9.35765450360344"><ele>56.0</ele><time>2026-04-30T09:45:40.996Z</time></trkpt><trkpt lat="44.36569393124192" lon="9.35764930737553"><ele>56.0</ele><time>2026-04-30T09:45:41.996Z</time></trkpt><trkpt lat="44.36554441055191" lon="9.357636336745875"><ele>56.0</ele><time>2026-04-30T09:45:42.996Z</time></trkpt><trkpt lat="44.36538473349085" lon="9.357619868761947"><ele>54.66666666666667</ele><time>2026-04-30T09:45:43.996Z</time></trkpt><trkpt lat="44.365226993999066" lon="9.35760302133832"><ele>53.33333333333333</ele><time>2026-04-30T09:45:44.996Z</time></trkpt><trkpt lat="44.365073000677214" lon="9.35758657400612"><ele>52.0</ele><time>2026-04-30T09:45:45.996Z</time></trkpt><trkpt lat="44.364918526111964" lon="9.357570595934714"><ele>52.0</ele><time>2026-04-30T09:45:46.996Z</time></trkpt><trkpt lat="44.364764523540344" lon="9.35755715602854"><ele>52.0</ele><time>2026-04-30T09:45:47.996Z</time></trkpt><trkpt lat="44.36458136146084" lon="9.357534247087038"><ele>52.0</ele><time>2026-04-30T09:45:48.996Z</time></trkpt><trkpt lat="44.36441982841014" lon="9.357517184561562"><ele>50.0</ele><time>2026-04-30T09:45:49.996Z</time></trkpt><trkpt lat="44.364252562467605" lon="9.357499945771458"><ele>48.0</ele><time>2026-04-30T09:45:50.996Z</time></trkpt><trkpt lat="44.36408330836625" lon="9.357482024783277"><ele>46.0</ele><time>2026-04-30T09:45:51.996Z</time></trkpt><trkpt lat="44.363909111072644" lon="9.357463481505263"><ele>46.66666666666667</ele><time>2026-04-30T09:45:52.996Z</time></trkpt><trkpt lat="44.36373812644056" lon="9.357465748156097"><ele>47.333333333333336</ele><time>2026-04-30T09:45:53.996Z</time></trkpt><trkpt lat="44.36357274443119" lon="9.35745458909596"><ele>48.0</ele><time>2026-04-30T09:45:54.996Z</time></trkpt><trkpt lat="44.3634022095468" lon="9.357453249313528"><ele>48.0</ele><time>2026-04-30T09:45:55.996Z</time></trkpt><trkpt lat="44.363230465864476" lon="9.357447105027797"><ele>48.0</ele><time>2026-04-30T09:45:56.996Z</time></trkpt><trkpt lat="44.36306258118626" lon="9.357421894995653"><ele>48.0</ele><time>2026-04-30T09:45:57.996Z</time></trkpt><trkpt lat="44.36289387095356" lon="9.357408602614848"><ele>51.75</ele><time>2026-04-30T09:45:58.996Z</time></trkpt><trkpt lat="44.36273460537477" lon="9.357346143416548"><ele>55.5</ele><time>2026-04-30T09:45:59.996Z</time></trkpt><trkpt lat="44.36260344857098" lon="9.35734622363442"><ele>59.25</ele><time>2026-04-30T09:46:00.995Z</time></trkpt><trkpt lat="44.36246381379563" lon="9.357364011014841"><ele>63.0</ele><time>2026-04-30T09:46:01.995Z</time></trkpt><trkpt lat="44.36231986921067" lon="9.357349363816507"><ele>61.75</ele><time>2026-04-30T09:46:02.995Z</time></trkpt><trkpt lat="44.36215847968242" lon="9.357373215060763"><ele>60.5</ele><time>2026-04-30T09:46:03.995Z</time></trkpt><trkpt lat="44.36204854781288" lon="9.357230980088952"><ele>59.25</ele><time>2026-04-30T09:46:04.995Z</time></trkpt><trkpt lat="44.36195030255394" lon="9.357169657053534"><ele>58.0</ele><time>2026-04-30T09:46:05.995Z</time></trkpt><trkpt lat="44.36184195796153" lon="9.357068473206374"><ele>58.0</ele><time>2026-04-30T09:46:06.995Z</time></trkpt><trkpt lat="44.36173591665983" lon="9.356915959852593"><ele>58.0</ele><time>2026-04-30T09:46:07.995Z</time></trkpt><trkpt lat="44.36167105204133" lon="9.356749054249077"><ele>58.0</ele><time>2026-04-30T09:46:08.995Z</time></trkpt><trkpt lat="44.36162495050562" lon="9.356583639520368"><ele>58.0</ele><time>2026-04-30T09:46:09.995Z</time></trkpt><trkpt lat="44.36157844968937" lon="9.356388514058175"><ele>54.33333333333333</ele><time>2026-04-30T09:46:10.995Z</time></trkpt><trkpt lat="44.36152815503587" lon="9.356175558569731"><ele>50.666666666666664</ele><time>2026-04-30T09:46:11.995Z</time></trkpt><trkpt lat="44.36147005002011" lon="9.3559337002113"><ele>47.0</ele><time>2026-04-30T09:46:12.995Z</time></trkpt><trkpt lat="44.361415045732194" lon="9.355729606518295"><ele>55.33333333333333</ele><time>2026-04-30T09:46:13.995Z</time></trkpt><trkpt lat="44.36133479521246" lon="9.35551361066131"><ele>63.666666666666664</ele><time>2026-04-30T09:46:14.995Z</time></trkpt><trkpt lat="44.36123390102389" lon="9.355316991498633"><ele>72.0</ele><time>2026-04-30T09:46:15.995Z</time></trkpt><trkpt lat="44.361145799284195" lon="9.355161425907104"><ele>72.0</ele><time>2026-04-30T09:46:16.995Z</time></trkpt><trkpt lat="44.36106290424308" lon="9.355002008188835"><ele>72.0</ele><time>2026-04-30T09:46:17.995Z</time></trkpt><trkpt lat="44.360975506839324" lon="9.354838179456245"><ele>72.0</ele><time>2026-04-30T09:46:18.995Z</time></trkpt><trkpt lat="44.36092145833295" lon="9.354654583470957"><ele>72.0</ele><time>2026-04-30T09:46:19.995Z</time></trkpt><trkpt lat="44.36085845036996" lon="9.354463657018954"><ele>64.66666666666667</ele><time>2026-04-30T09:46:20.995Z</time></trkpt><trkpt lat="44.36078696773033" lon="9.354251818442512"><ele>57.333333333333336</ele><time>2026-04-30T09:46:21.995Z</time></trkpt><trkpt lat="44.36071784178423" lon="9.354050467035835"><ele>50.0</ele><time>2026-04-30T09:46:22.995Z</time></trkpt><trkpt lat="44.36065176676916" lon="9.35385800216022"><ele>47.25</ele><time>2026-04-30T09:46:23.995Z</time></trkpt><trkpt lat="44.36058602638105" lon="9.353675357499881"><ele>44.5</ele><time>2026-04-30T09:46:24.995Z</time></trkpt><trkpt lat="44.360503098437746" lon="9.353480283009755"><ele>41.75</ele><time>2026-04-30T09:46:25.995Z</time></trkpt><trkpt lat="44.36042552085874" lon="9.353336912615225"><ele>39.0</ele><time>2026-04-30T09:46:26.995Z</time></trkpt><trkpt lat="44.36034020516852" lon="9.353189641739915"><ele>39.25</ele><time>2026-04-30T09:46:27.995Z</time></trkpt><trkpt lat="44.360243389911346" lon="9.353063904323069"><ele>39.5</ele><time>2026-04-30T09:46:28.995Z</time></trkpt><trkpt lat="44.36014014193938" lon="9.352939773173299"><ele>39.75</ele><time>2026-04-30T09:46:29.995Z</time></trkpt><trkpt lat="44.36002244729032" lon="9.352819892097216"><ele>40.0</ele><time>2026-04-30T09:46:30.995Z</time></trkpt><trkpt lat="44.35990943532136" lon="9.352664487003809"><ele>40.0</ele><time>2026-04-30T09:46:31.995Z</time></trkpt><trkpt lat="44.359790976021124" lon="9.35253033617997"><ele>40.0</ele><time>2026-04-30T09:46:32.995Z</time></trkpt><trkpt lat="44.35966312072495" lon="9.352414096594407"><ele>40.0</ele><time>2026-04-30T09:46:33.995Z</time></trkpt><trkpt lat="44.359563458749356" lon="9.352261448164159"><ele>40.0</ele><time>2026-04-30T09:46:34.995Z</time></trkpt><trkpt lat="44.35944242909745" lon="9.352151497987839"><ele>40.0</ele><time>2026-04-30T09:46:35.995Z</time></trkpt><trkpt lat="44.35934226975796" lon="9.352009516347277"><ele>40.0</ele><time>2026-04-30T09:46:36.995Z</time></trkpt><trkpt lat="44.359259472937644" lon="9.351829686180025"><ele>40.0</ele><time>2026-04-30T09:46:37.995Z</time></trkpt><trkpt lat="44.35921047663194" lon="9.351685330842644"><ele>40.0</ele><time>2026-04-30T09:46:38.995Z</time></trkpt><trkpt lat="44.35914453730004" lon="9.351510309672715"><ele>40.0</ele><time>2026-04-30T09:46:39.995Z</time></trkpt><trkpt lat="44.35906028860293" lon="9.35133557556185"><ele>40.0</ele><time>2026-04-30T09:46:40.995Z</time></trkpt><trkpt lat="44.358986963698214" lon="9.351145478887057"><ele>40.0</ele><time>2026-04-30T09:46:41.995Z</time></trkpt><trkpt lat="44.35891065005354" lon="9.350956489903123"><ele>40.66666666666667</ele><time>2026-04-30T09:46:42.995Z</time></trkpt><trkpt lat="44.35882762652405" lon="9.350795167564016"><ele>41.333333333333336</ele><time>2026-04-30T09:46:43.995Z</time></trkpt><trkpt lat="44.358731897848976" lon="9.350609065506834"><ele>42.0</ele><time>2026-04-30T09:46:44.995Z</time></trkpt><trkpt lat="44.3586169945084" lon="9.350450741673214"><ele>40.0</ele><time>2026-04-30T09:46:45.995Z</time></trkpt><trkpt lat="44.358486226194636" lon="9.350322384229711"><ele>38.0</ele><time>2026-04-30T09:46:46.995Z</time></trkpt><trkpt lat="44.358327710865346" lon="9.350268497216918"><ele>36.0</ele><time>2026-04-30T09:46:47.995Z</time></trkpt><trkpt lat="44.35816318222684" lon="9.350235745349195"><ele>35.25</ele><time>2026-04-30T09:46:48.995Z</time></trkpt><trkpt lat="44.35802209944852" lon="9.350260294297229"><ele>34.5</ele><time>2026-04-30T09:46:49.995Z</time></trkpt><trkpt lat="44.357880135384875" lon="9.350289339620083"><ele>33.75</ele><time>2026-04-30T09:46:50.995Z</time></trkpt><trkpt lat="44.35773946330618" lon="9.350349470863463"><ele>33.0</ele><time>2026-04-30T09:46:51.995Z</time></trkpt><trkpt lat="44.357605192465186" lon="9.350389173428072"><ele>33.0</ele><time>2026-04-30T09:46:52.995Z</time></trkpt><trkpt lat="44.35747649369318" lon="9.350434652226038"><ele>33.0</ele><time>2026-04-30T09:46:53.995Z</time></trkpt><trkpt lat="44.357343220372506" lon="9.350477884003846"><ele>33.0</ele><time>2026-04-30T09:46:54.995Z</time></trkpt><trkpt lat="44.35720225616237" lon="9.350527673405079"><ele>33.0</ele><time>2026-04-30T09:46:55.995Z</time></trkpt><trkpt lat="44.35708450418377" lon="9.350544039556427"><ele>33.75</ele><time>2026-04-30T09:46:56.995Z</time></trkpt><trkpt lat="44.35695155138648" lon="9.350563203210791"><ele>34.5</ele><time>2026-04-30T09:46:57.995Z</time></trkpt><trkpt lat="44.35683008124784" lon="9.35057386693236"><ele>35.25</ele><time>2026-04-30T09:46:58.995Z</time></trkpt><trkpt lat="44.3567037023288" lon="9.350510126465718"><ele>36.0</ele><time>2026-04-30T09:46:59.995Z</time></trkpt><trkpt lat="44.356552333313175" lon="9.35040358638311"><ele>36.0</ele><time>2026-04-30T09:47:00.995Z</time></trkpt><trkpt lat="44.35640272453557" lon="9.350330072874316"><ele>36.0</ele><time>2026-04-30T09:47:02.001Z</time></trkpt><trkpt lat="44.35626690282604" lon="9.35020458555529"><ele>36.0</ele><time>2026-04-30T09:47:03.001Z</time></trkpt><trkpt lat="44.356120879948406" lon="9.350120919537664"><ele>39.5</ele><time>2026-04-30T09:47:04.001Z</time></trkpt><trkpt lat="44.35599037856217" lon="9.350045934151376"><ele>43.0</ele><time>2026-04-30T09:47:05.001Z</time></trkpt><trkpt lat="44.355847139305745" lon="9.349964147537003"><ele>46.5</ele><time>2026-04-30T09:47:06.001Z</time></trkpt><trkpt lat="44.35570682367357" lon="9.349879545878258"><ele>50.0</ele><time>2026-04-30T09:47:07.001Z</time></trkpt><trkpt lat="44.355549589697375" lon="9.349779476206574"><ele>48.0</ele><time>2026-04-30T09:47:08.001Z</time></trkpt><trkpt lat="44.355403260108545" lon="9.349672445745218"><ele>46.0</ele><time>2026-04-30T09:47:09.001Z</time></trkpt><trkpt lat="44.355243203231694" lon="9.349550548209358"><ele>44.0</ele><time>2026-04-30T09:47:10.001Z</time></trkpt><trkpt lat="44.35508767401286" lon="9.349437868436405"><ele>44.0</ele><time>2026-04-30T09:47:11.001Z</time></trkpt><trkpt lat="44.35492458672272" lon="9.349313140935582"><ele>44.0</ele><time>2026-04-30T09:47:12.001Z</time></trkpt><trkpt lat="44.35478211756305" lon="9.349196695078641"><ele>44.0</ele><time>2026-04-30T09:47:13Z</time></trkpt><trkpt lat="44.35463911047563" lon="9.349078951267403"><ele>44.666666666666664</ele><time>2026-04-30T09:47:14Z</time></trkpt><trkpt lat="44.35449710189655" lon="9.348957738738916"><ele>45.333333333333336</ele><time>2026-04-30T09:47:15Z</time></trkpt><trkpt lat="44.354390327195766" lon="9.34883374951642"><ele>46.0</ele><time>2026-04-30T09:47:16Z</time></trkpt><trkpt lat="44.354283275892726" lon="9.34866177502189"><ele>46.0</ele><time>2026-04-30T09:47:17Z</time></trkpt><trkpt lat="44.354183276799816" lon="9.348494450969328"><ele>46.0</ele><time>2026-04-30T09:47:18Z</time></trkpt><trkpt lat="44.35407728341939" lon="9.348317740454013"><ele>46.0</ele><time>2026-04-30T09:47:19Z</time></trkpt><trkpt lat="44.353969584512726" lon="9.348142159243817"><ele>52.66666666666667</ele><time>2026-04-30T09:47:20Z</time></trkpt><trkpt lat="44.353861431242684" lon="9.347966884181695"><ele>59.333333333333336</ele><time>2026-04-30T09:47:21Z</time></trkpt><trkpt lat="44.35375141280337" lon="9.347789370781738"><ele>66.0</ele><time>2026-04-30T09:47:22Z</time></trkpt><trkpt lat="44.35365121676483" lon="9.347628089717908"><ele>66.0</ele><time>2026-04-30T09:47:23Z</time></trkpt><trkpt lat="44.3535502306315" lon="9.347467195492563"><ele>66.0</ele><time>2026-04-30T09:47:24Z</time></trkpt><trkpt lat="44.353461078792236" lon="9.347327722098543"><ele>66.0</ele><time>2026-04-30T09:47:25Z</time></trkpt><trkpt lat="44.35337380548047" lon="9.347188523995145"><ele>66.0</ele><time>2026-04-30T09:47:26Z</time></trkpt><trkpt lat="44.35328344911372" lon="9.347036208644198"><ele>63.0</ele><time>2026-04-30T09:47:27Z</time></trkpt><trkpt lat="44.35319816517551" lon="9.346877126064006"><ele>60.0</ele><time>2026-04-30T09:47:28Z</time></trkpt><trkpt lat="44.353119672454255" lon="9.346710183399992"><ele>57.0</ele><time>2026-04-30T09:47:29Z</time></trkpt><trkpt lat="44.353045600896394" lon="9.346526639082445"><ele>54.0</ele><time>2026-04-30T09:47:30Z</time></trkpt><trkpt lat="44.35299033204161" lon="9.346353728477498"><ele>54.0</ele><time>2026-04-30T09:47:31Z</time></trkpt><trkpt lat="44.35292799202529" lon="9.34618131688503"><ele>54.0</ele><time>2026-04-30T09:47:32Z</time></trkpt><trkpt lat="44.352870703366094" lon="9.346010710340531"><ele>54.0</ele><time>2026-04-30T09:47:33Z</time></trkpt><trkpt lat="44.3528060396733" lon="9.345820727132592"><ele>54.0</ele><time>2026-04-30T09:47:34Z</time></trkpt><trkpt lat="44.35273642111665" lon="9.345651096889565"><ele>49.800000000000004</ele><time>2026-04-30T09:47:35Z</time></trkpt><trkpt lat="44.35266899898135" lon="9.345511917044382"><ele>45.60000000000001</ele><time>2026-04-30T09:47:36Z</time></trkpt><trkpt lat="44.35259923378844" lon="9.34539059557767"><ele>41.4</ele><time>2026-04-30T09:47:37Z</time></trkpt><trkpt lat="44.35253511082804" lon="9.345287985447206"><ele>37.2</ele><time>2026-04-30T09:47:38Z</time></trkpt><trkpt lat="44.352470567033286" lon="9.345160963529857"><ele>33.0</ele><time>2026-04-30T09:47:39Z</time></trkpt><trkpt lat="44.35241702013869" lon="9.34501227943537"><ele>33.0</ele><time>2026-04-30T09:47:40Z</time></trkpt><trkpt lat="44.35238151537407" lon="9.344868742923504"><ele>33.0</ele><time>2026-04-30T09:47:41Z</time></trkpt><trkpt lat="44.35235631791822" lon="9.344701327208584"><ele>33.0</ele><time>2026-04-30T09:47:42Z</time></trkpt><trkpt lat="44.352332123426294" lon="9.34454498280047"><ele>33.0</ele><time>2026-04-30T09:47:43Z</time></trkpt><trkpt lat="44.35230102928162" lon="9.344393067634378"><ele>31.833333333333332</ele><time>2026-04-30T09:47:44Z</time></trkpt><trkpt lat="44.35228866334203" lon="9.344249207841889"><ele>30.666666666666664</ele><time>2026-04-30T09:47:45Z</time></trkpt><trkpt lat="44.352274453673296" lon="9.34411434333656"><ele>29.5</ele><time>2026-04-30T09:47:46Z</time></trkpt><trkpt lat="44.35225434936943" lon="9.344021263860782"><ele>28.333333333333332</ele><time>2026-04-30T09:47:47Z</time></trkpt><trkpt lat="44.35224510934995" lon="9.34392366574891"><ele>27.166666666666664</ele><time>2026-04-30T09:47:48Z</time></trkpt><trkpt lat="44.3522407757346" lon="9.343804377875097"><ele>26.0</ele><time>2026-04-30T09:47:50Z</time></trkpt><trkpt lat="44.35223010854775" lon="9.343666385853327"><ele>26.166666666666664</ele><time>2026-04-30T09:47:52Z</time></trkpt><trkpt lat="44.35219878625591" lon="9.343556528029655"><ele>26.333333333333332</ele><time>2026-04-30T09:47:54Z</time></trkpt><trkpt lat="44.35213624741041" lon="9.343509383685035"><ele>26.5</ele><time>2026-04-30T09:47:55Z</time></trkpt><trkpt lat="44.35205304864497" lon="9.343485372392657"><ele>26.666666666666664</ele><time>2026-04-30T09:47:56Z</time></trkpt><trkpt lat="44.351968417328344" lon="9.343405466459235"><ele>26.833333333333332</ele><time>2026-04-30T09:47:57Z</time></trkpt><trkpt lat="44.351876950763355" lon="9.34334987101024"><ele>27.0</ele><time>2026-04-30T09:47:58Z</time></trkpt><trkpt lat="44.351768076556304" lon="9.343290339568034"><ele>27.0</ele><time>2026-04-30T09:47:59Z</time></trkpt><trkpt lat="44.35166925970859" lon="9.343236029774308"><ele>27.000000000000004</ele><time>2026-04-30T09:48:00Z</time></trkpt><trkpt lat="44.35157159220168" lon="9.3431804157632"><ele>27.000000000000004</ele><time>2026-04-30T09:48:01Z</time></trkpt><trkpt lat="44.351485840777634" lon="9.343127191603116"><ele>27.0</ele><time>2026-04-30T09:48:02Z</time></trkpt><trkpt lat="44.35140174580483" lon="9.343057704867393"><ele>27.0</ele><time>2026-04-30T09:48:03Z</time></trkpt><trkpt lat="44.35129732955155" lon="9.342994073783947"><ele>26.8</ele><time>2026-04-30T09:48:04Z</time></trkpt><trkpt lat="44.35120529065886" lon="9.342929295322683"><ele>26.6</ele><time>2026-04-30T09:48:05Z</time></trkpt><trkpt lat="44.351131349120884" lon="9.342851456627212"><ele>26.400000000000002</ele><time>2026-04-30T09:48:06Z</time></trkpt><trkpt lat="44.351042361020745" lon="9.342787666326927"><ele>26.200000000000003</ele><time>2026-04-30T09:48:06.999Z</time></trkpt><trkpt lat="44.350948308244554" lon="9.342780385052214"><ele>26.0</ele><time>2026-04-30T09:48:07.999Z</time></trkpt><trkpt lat="44.35086248953683" lon="9.342777456209307"><ele>26.0</ele><time>2026-04-30T09:48:08.999Z</time></trkpt><trkpt lat="44.35076146348447" lon="9.342772962078508"><ele>26.0</ele><time>2026-04-30T09:48:09.999Z</time></trkpt><trkpt lat="44.350662339647975" lon="9.342844813212393"><ele>26.0</ele><time>2026-04-30T09:48:10.999Z</time></trkpt><trkpt lat="44.3505636710238" lon="9.342902233166043"><ele>26.0</ele><time>2026-04-30T09:48:11.999Z</time></trkpt><trkpt lat="44.35047481638189" lon="9.34293889783196"><ele>26.0</ele><time>2026-04-30T09:48:12.999Z</time></trkpt><trkpt lat="44.35038620407847" lon="9.34301419142833"><ele>26.166666666666664</ele><time>2026-04-30T09:48:13.999Z</time></trkpt><trkpt lat="44.35032794797342" lon="9.343104068323521"><ele>26.333333333333332</ele><time>2026-04-30T09:48:14.999Z</time></trkpt><trkpt lat="44.3502775782797" lon="9.343161599266208"><ele>26.5</ele><time>2026-04-30T09:48:15.999Z</time></trkpt><trkpt lat="44.35020256231051" lon="9.343249466918419"><ele>26.666666666666664</ele><time>2026-04-30T09:48:17.999Z</time></trkpt><trkpt lat="44.3501814676437" lon="9.343371970456909"><ele>26.833333333333332</ele><time>2026-04-30T09:48:19.999Z</time></trkpt><trkpt lat="44.350158536372106" lon="9.34347144502831"><ele>27.0</ele><time>2026-04-30T09:48:20.999Z</time></trkpt><trkpt lat="44.350144984248146" lon="9.343565038264178"><ele>27.0</ele><time>2026-04-30T09:48:21.999Z</time></trkpt><trkpt lat="44.350122803109414" lon="9.343680986932249"><ele>27.0</ele><time>2026-04-30T09:48:22.999Z</time></trkpt><trkpt lat="44.35012875926236" lon="9.343809302452636"><ele>27.0</ele><time>2026-04-30T09:48:23.999Z</time></trkpt><trkpt lat="44.35009315844169" lon="9.343933759554396"><ele>27.0</ele><time>2026-04-30T09:48:24.999Z</time></trkpt><trkpt lat="44.350086414144954" lon="9.344043092080144"><ele>27.0</ele><time>2026-04-30T09:48:25.999Z</time></trkpt><trkpt lat="44.3500734109722" lon="9.34417156773346"><ele>27.0</ele><time>2026-04-30T09:48:26.999Z</time></trkpt><trkpt lat="44.35007792507584" lon="9.34429790782805"><ele>27.0</ele><time>2026-04-30T09:48:27.999Z</time></trkpt><trkpt lat="44.35005160222596" lon="9.34442311554055"><ele>27.000000000000004</ele><time>2026-04-30T09:48:28.999Z</time></trkpt><trkpt lat="44.35005756029344" lon="9.344544666894794"><ele>27.000000000000004</ele><time>2026-04-30T09:48:29.999Z</time></trkpt><trkpt lat="44.350030050821836" lon="9.344674377559805"><ele>27.0</ele><time>2026-04-30T09:48:30.999Z</time></trkpt><trkpt lat="44.350017973097785" lon="9.34481518841652"><ele>27.0</ele><time>2026-04-30T09:48:31.999Z</time></trkpt><trkpt lat="44.350006638669015" lon="9.344947333346981"><ele>27.0</ele><time>2026-04-30T09:48:32.999Z</time></trkpt><trkpt lat="44.34999780223974" lon="9.345050354760449"><ele>27.000000000000004</ele><time>2026-04-30T09:48:33.999Z</time></trkpt><trkpt lat="44.34998615094629" lon="9.345186194103388"><ele>27.000000000000004</ele><time>2026-04-30T09:48:34.999Z</time></trkpt><trkpt lat="44.34997246587305" lon="9.345345745445783"><ele>27.0</ele><time>2026-04-30T09:48:35.999Z</time></trkpt><trkpt lat="44.34995982577284" lon="9.345492975017233"><ele>27.0</ele><time>2026-04-30T09:48:36.999Z</time></trkpt><trkpt lat="44.3499471118015" lon="9.345641064886353"><ele>27.0</ele><time>2026-04-30T09:48:37.999Z</time></trkpt><trkpt lat="44.349934698660455" lon="9.34578565078942"><ele>27.000000000000004</ele><time>2026-04-30T09:48:38.999Z</time></trkpt><trkpt lat="44.3499384755822" lon="9.345932356536927"><ele>27.000000000000004</ele><time>2026-04-30T09:48:39.999Z</time></trkpt><trkpt lat="44.34991248943243" lon="9.346044339506827"><ele>27.0</ele><time>2026-04-30T09:48:40.999Z</time></trkpt><trkpt lat="44.3499006145926" lon="9.3461826555539"><ele>27.0</ele><time>2026-04-30T09:48:41.999Z</time></trkpt><trkpt lat="44.34988610482674" lon="9.346349764177484"><ele>27.0</ele><time>2026-04-30T09:48:42.999Z</time></trkpt><trkpt lat="44.34989066488371" lon="9.346487739124422"><ele>27.000000000000004</ele><time>2026-04-30T09:48:43.999Z</time></trkpt><trkpt lat="44.34984232322932" lon="9.346647727053154"><ele>27.000000000000004</ele><time>2026-04-30T09:48:44.999Z</time></trkpt><trkpt lat="44.3498366528362" lon="9.346831236215916"><ele>27.0</ele><time>2026-04-30T09:48:45.999Z</time></trkpt><trkpt lat="44.34983172477067" lon="9.34695193695341"><ele>27.0</ele><time>2026-04-30T09:48:46.999Z</time></trkpt><trkpt lat="44.349815939047396" lon="9.347053850964311"><ele>27.0</ele><time>2026-04-30T09:48:47.999Z</time></trkpt><trkpt lat="44.349782410184226" lon="9.347164041615358"><ele>27.000000000000004</ele><time>2026-04-30T09:48:48.999Z</time></trkpt><trkpt lat="44.34973411948673" lon="9.347270365029127"><ele>27.000000000000004</ele><time>2026-04-30T09:48:49.999Z</time></trkpt><trkpt lat="44.349662006615794" lon="9.347368922196367"><ele>27.0</ele><time>2026-04-30T09:48:50.999Z</time></trkpt><trkpt lat="44.349589562372564" lon="9.34742826164339"><ele>27.0</ele><time>2026-04-30T09:48:51.999Z</time></trkpt><trkpt lat="44.34949828262276" lon="9.347464839535139"><ele>26.0</ele><time>2026-04-30T09:48:52.999Z</time></trkpt><trkpt lat="44.34939689110405" lon="9.347492487850339"><ele>25.000000000000004</ele><time>2026-04-30T09:48:53.999Z</time></trkpt><trkpt lat="44.34929906062923" lon="9.347516723608765"><ele>24.0</ele><time>2026-04-30T09:48:54.999Z</time></trkpt><trkpt lat="44.34920548317701" lon="9.347539905748725"><ele>23.0</ele><time>2026-04-30T09:48:55.999Z</time></trkpt><trkpt lat="44.34910841736637" lon="9.3475639520817"><ele>22.0</ele><time>2026-04-30T09:48:56.999Z</time></trkpt><trkpt lat="44.34901256572664" lon="9.347587697601579"><ele>22.0</ele><time>2026-04-30T09:48:57.999Z</time></trkpt><trkpt lat="44.3489179374173" lon="9.347611140061527"><ele>22.0</ele><time>2026-04-30T09:48:58.999Z</time></trkpt><trkpt lat="44.348825156012225" lon="9.347634125314308"><ele>22.0</ele><time>2026-04-30T09:48:59.999Z</time></trkpt><trkpt lat="44.34873922464229" lon="9.347658806372898"><ele>22.0</ele><time>2026-04-30T09:49:00.999Z</time></trkpt><trkpt lat="44.34863420054476" lon="9.347684036699222"><ele>22.0</ele><time>2026-04-30T09:49:02.999Z</time></trkpt><trkpt lat="44.34849843494778" lon="9.347702553395417"><ele>22.0</ele><time>2026-04-30T09:49:04.999Z</time></trkpt><trkpt lat="44.34835046190882" lon="9.3477523074686"><ele>22.0</ele><time>2026-04-30T09:49:06.999Z</time></trkpt><trkpt lat="44.34828389484226" lon="9.347793537014725"><ele>22.0</ele><time>2026-04-30T09:49:07.999Z</time></trkpt><trkpt lat="44.34821289903741" lon="9.347795138817082"><ele>22.0</ele><time>2026-04-30T09:49:08.999Z</time></trkpt><trkpt lat="44.34809447747984" lon="9.347817766142809"><ele>22.0</ele><time>2026-04-30T09:49:10.999Z</time></trkpt><trkpt lat="44.348006010227245" lon="9.347873759449326"><ele>22.0</ele><time>2026-04-30T09:49:12.998Z</time></trkpt><trkpt lat="44.3479488880043" lon="9.347834275210019"><ele>22.0</ele><time>2026-04-30T09:49:37.998Z</time></trkpt><trkpt lat="44.34780708578201" lon="9.34789729529712"><ele>22.0</ele><time>2026-04-30T09:49:39.998Z</time></trkpt><trkpt lat="44.34771180451892" lon="9.347926175849603"><ele>22.0</ele><time>2026-04-30T09:49:40.998Z</time></trkpt><trkpt lat="44.347605252839465" lon="9.347953666234261"><ele>22.0</ele><time>2026-04-30T09:49:41.998Z</time></trkpt><trkpt lat="44.3474945116484" lon="9.347976709130661"><ele>22.0</ele><time>2026-04-30T09:49:42.998Z</time></trkpt><trkpt lat="44.34738869694908" lon="9.347997173452775"><ele>22.0</ele><time>2026-04-30T09:49:43.998Z</time></trkpt><trkpt lat="44.347291216454074" lon="9.34801637034555"><ele>22.0</ele><time>2026-04-30T09:49:44.998Z</time></trkpt><trkpt lat="44.347199780708" lon="9.348033472344017"><ele>22.0</ele><time>2026-04-30T09:49:45.998Z</time></trkpt><trkpt lat="44.347111986859524" lon="9.348075219497252"><ele>22.0</ele><time>2026-04-30T09:49:46.998Z</time></trkpt><trkpt lat="44.34702103576731" lon="9.348093069725957"><ele>21.666666666666664</ele><time>2026-04-30T09:49:47.998Z</time></trkpt><trkpt lat="44.3469343026163" lon="9.348111156471978"><ele>21.333333333333332</ele><time>2026-04-30T09:49:48.998Z</time></trkpt><trkpt lat="44.346850191392015" lon="9.34812992227719"><ele>21.0</ele><time>2026-04-30T09:49:49.998Z</time></trkpt><trkpt lat="44.34676674827384" lon="9.348149132130512"><ele>20.666666666666668</ele><time>2026-04-30T09:49:50.998Z</time></trkpt><trkpt lat="44.34668310907097" lon="9.34816967857187"><ele>20.333333333333336</ele><time>2026-04-30T09:49:51.998Z</time></trkpt><trkpt lat="44.34659791474873" lon="9.34819086546361"><ele>20.0</ele><time>2026-04-30T09:49:52.998Z</time></trkpt><trkpt lat="44.34651421936349" lon="9.348211669057207"><ele>20.0</ele><time>2026-04-30T09:49:53.998Z</time></trkpt><trkpt lat="44.3464300833651" lon="9.348232494230395"><ele>20.0</ele><time>2026-04-30T09:49:54.998Z</time></trkpt><trkpt lat="44.34634377477623" lon="9.348253857151246"><ele>20.0</ele><time>2026-04-30T09:49:55.998Z</time></trkpt><trkpt lat="44.346253229104114" lon="9.348276268858228"><ele>20.0</ele><time>2026-04-30T09:49:56.998Z</time></trkpt><trkpt lat="44.34616065994087" lon="9.348299181381606"><ele>20.0</ele><time>2026-04-30T09:49:57.998Z</time></trkpt><trkpt lat="44.34607026266052" lon="9.348321556354149"><ele>20.0</ele><time>2026-04-30T09:49:58.998Z</time></trkpt><trkpt lat="44.345985481882664" lon="9.34834218530186"><ele>20.0</ele><time>2026-04-30T09:49:59.998Z</time></trkpt><trkpt lat="44.345902606058196" lon="9.348362265092597"><ele>20.0</ele><time>2026-04-30T09:50:00.998Z</time></trkpt><trkpt lat="44.34582570674847" lon="9.34838139143243"><ele>20.0</ele><time>2026-04-30T09:50:01.998Z</time></trkpt><trkpt lat="44.34575623267392" lon="9.348403063953858"><ele>20.0</ele><time>2026-04-30T09:50:02.998Z</time></trkpt><trkpt lat="44.34568986647217" lon="9.348430800828554"><ele>20.0</ele><time>2026-04-30T09:50:03.998Z</time></trkpt><trkpt lat="44.34562416435333" lon="9.348459871278035"><ele>20.0</ele><time>2026-04-30T09:50:04.998Z</time></trkpt><trkpt lat="44.34556024881159" lon="9.348488308890007"><ele>20.0</ele><time>2026-04-30T09:50:05.998Z</time></trkpt><trkpt lat="44.3454218745982" lon="9.34846645693134"><ele>20.0</ele><time>2026-04-30T09:50:06.998Z</time></trkpt><trkpt lat="44.345373175008376" lon="9.348572798283717"><ele>20.0</ele><time>2026-04-30T09:50:07.998Z</time></trkpt><trkpt lat="44.34533384896166" lon="9.34866392572513"><ele>20.0</ele><time>2026-04-30T09:50:08.998Z</time></trkpt><trkpt lat="44.34524392329215" lon="9.348810675631098"><ele>21.5</ele><time>2026-04-30T09:50:10.998Z</time></trkpt><trkpt lat="44.34518650851158" lon="9.348883846592146"><ele>23.0</ele><time>2026-04-30T09:50:11.998Z</time></trkpt><trkpt lat="44.34512388004435" lon="9.34895369165432"><ele>24.5</ele><time>2026-04-30T09:50:12.998Z</time></trkpt><trkpt lat="44.34506178932952" lon="9.349022936969998"><ele>26.0</ele><time>2026-04-30T09:50:13.998Z</time></trkpt><trkpt lat="44.34499519316214" lon="9.349100539935442"><ele>27.499999999999996</ele><time>2026-04-30T09:50:14.998Z</time></trkpt><trkpt lat="44.344927092763974" lon="9.349177531173282"><ele>29.0</ele><time>2026-04-30T09:50:15.998Z</time></trkpt><trkpt lat="44.34485631578725" lon="9.34925533702436"><ele>28.999999999999996</ele><time>2026-04-30T09:50:16.997Z</time></trkpt><trkpt lat="44.34478670576067" lon="9.34932977458519"><ele>29.0</ele><time>2026-04-30T09:50:17.997Z</time></trkpt><trkpt lat="44.344713856721036" lon="9.349405835613949"><ele>29.0</ele><time>2026-04-30T09:50:18.997Z</time></trkpt><trkpt lat="44.34462692428936" lon="9.349444935839774"><ele>29.0</ele><time>2026-04-30T09:50:19.997Z</time></trkpt><trkpt lat="44.34454337988972" lon="9.349479521615121"><ele>28.999999999999996</ele><time>2026-04-30T09:50:20.997Z</time></trkpt><trkpt lat="44.34446604961001" lon="9.34951278594115"><ele>29.0</ele><time>2026-04-30T09:50:21.997Z</time></trkpt><trkpt lat="44.344392474534345" lon="9.349541492697856"><ele>29.666666666666664</ele><time>2026-04-30T09:50:22.997Z</time></trkpt><trkpt lat="44.34431698600228" lon="9.349565972472002"><ele>30.333333333333332</ele><time>2026-04-30T09:50:23.997Z</time></trkpt><trkpt lat="44.3442394710161" lon="9.349590358227005"><ele>31.0</ele><time>2026-04-30T09:50:24.997Z</time></trkpt><trkpt lat="44.3441588326751" lon="9.349615186095322"><ele>31.666666666666664</ele><time>2026-04-30T09:50:25.997Z</time></trkpt><trkpt lat="44.34407801026659" lon="9.349645176424358"><ele>32.333333333333336</ele><time>2026-04-30T09:50:26.997Z</time></trkpt><trkpt lat="44.343995502171424" lon="9.349683243169567"><ele>33.0</ele><time>2026-04-30T09:50:27.997Z</time></trkpt><trkpt lat="44.343912018741996" lon="9.349716437882234"><ele>34.166666666666664</ele><time>2026-04-30T09:50:28.997Z</time></trkpt><trkpt lat="44.34383099388982" lon="9.349745645243566"><ele>35.333333333333336</ele><time>2026-04-30T09:50:29.997Z</time></trkpt><trkpt lat="44.34375393985538" lon="9.34979976699784"><ele>36.5</ele><time>2026-04-30T09:50:30.997Z</time></trkpt><trkpt lat="44.34366639315821" lon="9.349834120148163"><ele>37.66666666666667</ele><time>2026-04-30T09:50:31.997Z</time></trkpt><trkpt lat="44.34357840659747" lon="9.349866049443213"><ele>38.833333333333336</ele><time>2026-04-30T09:50:32.997Z</time></trkpt><trkpt lat="44.34349186373049" lon="9.349902277711253"><ele>40.0</ele><time>2026-04-30T09:50:33.997Z</time></trkpt><trkpt lat="44.34340081758164" lon="9.34991515813954"><ele>40.0</ele><time>2026-04-30T09:50:34.997Z</time></trkpt><trkpt lat="44.34331330995988" lon="9.349969035028128"><ele>40.0</ele><time>2026-04-30T09:50:35.997Z</time></trkpt><trkpt lat="44.34322383283294" lon="9.350003038452385"><ele>40.0</ele><time>2026-04-30T09:50:36.997Z</time></trkpt><trkpt lat="44.343137961386354" lon="9.350031098978677"><ele>40.0</ele><time>2026-04-30T09:50:37.997Z</time></trkpt><trkpt lat="44.343058796069904" lon="9.350057495145442"><ele>40.0</ele><time>2026-04-30T09:50:38.997Z</time></trkpt><trkpt lat="44.34298388593522" lon="9.350081579739085"><ele>40.0</ele><time>2026-04-30T09:50:39.997Z</time></trkpt><trkpt lat="44.34290379309089" lon="9.350101638864581"><ele>38.4</ele><time>2026-04-30T09:50:40.997Z</time></trkpt><trkpt lat="44.342823723649545" lon="9.35010350095409"><ele>36.8</ele><time>2026-04-30T09:50:41.997Z</time></trkpt><trkpt lat="44.34273831150234" lon="9.350073652871247"><ele>35.2</ele><time>2026-04-30T09:50:42.997Z</time></trkpt><trkpt lat="44.342648226811534" lon="9.350015482175412"><ele>33.6</ele><time>2026-04-30T09:50:43.997Z</time></trkpt><trkpt lat="44.34256084946913" lon="9.349930244847256"><ele>32.0</ele><time>2026-04-30T09:50:44.997Z</time></trkpt><trkpt lat="44.342473669376915" lon="9.349828527830965"><ele>32.0</ele><time>2026-04-30T09:50:45.997Z</time></trkpt><trkpt lat="44.342365482357984" lon="9.349765001857149"><ele>32.0</ele><time>2026-04-30T09:50:46.997Z</time></trkpt><trkpt lat="44.34227638313562" lon="9.349670048530433"><ele>32.0</ele><time>2026-04-30T09:50:47.997Z</time></trkpt><trkpt lat="44.34218393485335" lon="9.349571082851543"><ele>32.0</ele><time>2026-04-30T09:50:48.997Z</time></trkpt><trkpt lat="44.342092476359355" lon="9.349471670567782"><ele>30.6</ele><time>2026-04-30T09:50:49.997Z</time></trkpt><trkpt lat="44.34200279721237" lon="9.349376519163792"><ele>29.200000000000003</ele><time>2026-04-30T09:50:50.997Z</time></trkpt><trkpt lat="44.34191839187968" lon="9.349283493023696"><ele>27.8</ele><time>2026-04-30T09:50:51.997Z</time></trkpt><trkpt lat="44.341861059207766" lon="9.349162345461872"><ele>26.4</ele><time>2026-04-30T09:50:52.997Z</time></trkpt><trkpt lat="44.341820504277784" lon="9.349041910951051"><ele>25.0</ele><time>2026-04-30T09:50:53.997Z</time></trkpt><trkpt lat="44.341778689884556" lon="9.348925648783213"><ele>27.000000000000004</ele><time>2026-04-30T09:50:54.997Z</time></trkpt><trkpt lat="44.341736183304924" lon="9.34881953975379"><ele>29.0</ele><time>2026-04-30T09:50:55.997Z</time></trkpt><trkpt lat="44.341680298501814" lon="9.348739051628858"><ele>31.0</ele><time>2026-04-30T09:50:56.997Z</time></trkpt><trkpt lat="44.34160341556465" lon="9.348669370893774"><ele>33.0</ele><time>2026-04-30T09:50:57.997Z</time></trkpt><trkpt lat="44.341512405549324" lon="9.348627775359995"><ele>35.0</ele><time>2026-04-30T09:50:58.997Z</time></trkpt><trkpt lat="44.34142440936355" lon="9.34864496150744"><ele>37.0</ele><time>2026-04-30T09:50:59.997Z</time></trkpt><trkpt lat="44.3413526380017" lon="9.348685284958412"><ele>36.4</ele><time>2026-04-30T09:51:00.997Z</time></trkpt><trkpt lat="44.34127745199029" lon="9.348759894116617"><ele>35.800000000000004</ele><time>2026-04-30T09:51:01.997Z</time></trkpt><trkpt lat="44.34123211444452" lon="9.348870213156198"><ele>35.2</ele><time>2026-04-30T09:51:02.997Z</time></trkpt><trkpt lat="44.34120661241605" lon="9.348987770763044"><ele>34.6</ele><time>2026-04-30T09:51:03.997Z</time></trkpt><trkpt lat="44.34123855364209" lon="9.349117166510954"><ele>34.0</ele><time>2026-04-30T09:51:04.997Z</time></trkpt><trkpt lat="44.34127363885047" lon="9.349237025797002"><ele>34.0</ele><time>2026-04-30T09:51:05.997Z</time></trkpt><trkpt lat="44.34131965980784" lon="9.349353633679925"><ele>34.0</ele><time>2026-04-30T09:51:06.997Z</time></trkpt><trkpt lat="44.34134731540545" lon="9.349476232342658"><ele>34.0</ele><time>2026-04-30T09:51:07.997Z</time></trkpt><trkpt lat="44.341386418583035" lon="9.349587153862963"><ele>34.0</ele><time>2026-04-30T09:51:08.997Z</time></trkpt><trkpt lat="44.341407429856574" lon="9.34970106086366"><ele>34.0</ele><time>2026-04-30T09:51:09.997Z</time></trkpt><trkpt lat="44.34139981083868" lon="9.34981575343656"><ele>34.0</ele><time>2026-04-30T09:51:10.997Z</time></trkpt><trkpt lat="44.34137129974982" lon="9.349923097117937"><ele>31.2</ele><time>2026-04-30T09:51:11.997Z</time></trkpt><trkpt lat="44.34133394433584" lon="9.350058706892453"><ele>28.4</ele><time>2026-04-30T09:51:12.997Z</time></trkpt><trkpt lat="44.34125210619327" lon="9.350115509056343"><ele>25.6</ele><time>2026-04-30T09:51:13.997Z</time></trkpt><trkpt lat="44.34115350686872" lon="9.350119760596899"><ele>22.8</ele><time>2026-04-30T09:51:14.997Z</time></trkpt><trkpt lat="44.34106263707011" lon="9.350086703775618"><ele>20.0</ele><time>2026-04-30T09:51:15.997Z</time></trkpt><trkpt lat="44.34097115501206" lon="9.350035320111811"><ele>20.0</ele><time>2026-04-30T09:51:16.997Z</time></trkpt><trkpt lat="44.340875337925276" lon="9.349983369793671"><ele>20.0</ele><time>2026-04-30T09:51:17.997Z</time></trkpt><trkpt lat="44.340773362642715" lon="9.349928234284818"><ele>20.0</ele><time>2026-04-30T09:51:18.997Z</time></trkpt><trkpt lat="44.34066867590755" lon="9.349857037415795"><ele>20.0</ele><time>2026-04-30T09:51:19.997Z</time></trkpt><trkpt lat="44.34058105599152" lon="9.34975951780765"><ele>20.0</ele><time>2026-04-30T09:51:20.997Z</time></trkpt><trkpt lat="44.34048027159189" lon="9.34967679489788"><ele>19.8</ele><time>2026-04-30T09:51:21.997Z</time></trkpt><trkpt lat="44.34038365268066" lon="9.349592765314888"><ele>19.6</ele><time>2026-04-30T09:51:22.996Z</time></trkpt><trkpt lat="44.34029628038918" lon="9.34949906164252"><ele>19.4</ele><time>2026-04-30T09:51:23.996Z</time></trkpt><trkpt lat="44.340204560399194" lon="9.349415470638787"><ele>19.2</ele><time>2026-04-30T09:51:24.996Z</time></trkpt><trkpt lat="44.34011402646513" lon="9.349322992742815"><ele>19.0</ele><time>2026-04-30T09:51:25.996Z</time></trkpt><trkpt lat="44.34002340300881" lon="9.349239475209405"><ele>19.0</ele><time>2026-04-30T09:51:26.996Z</time></trkpt><trkpt lat="44.33994222604882" lon="9.349155459529818"><ele>19.0</ele><time>2026-04-30T09:51:27.996Z</time></trkpt><trkpt lat="44.33986201477056" lon="9.349080661511504"><ele>19.0</ele><time>2026-04-30T09:51:28.996Z</time></trkpt><trkpt lat="44.33977743513833" lon="9.349016205333198"><ele>19.0</ele><time>2026-04-30T09:51:29.996Z</time></trkpt><trkpt lat="44.33967086580343" lon="9.348996787680761"><ele>19.0</ele><time>2026-04-30T09:51:30.996Z</time></trkpt><trkpt lat="44.339559640270444" lon="9.34896676002445"><ele>18.2</ele><time>2026-04-30T09:51:31.996Z</time></trkpt><trkpt lat="44.339448242851" lon="9.348942296538178"><ele>17.4</ele><time>2026-04-30T09:51:32.996Z</time></trkpt><trkpt lat="44.339339782985604" lon="9.348910538179865"><ele>16.6</ele><time>2026-04-30T09:51:33.996Z</time></trkpt><trkpt lat="44.339232656370335" lon="9.348888981656701"><ele>15.8</ele><time>2026-04-30T09:51:34.996Z</time></trkpt><trkpt lat="44.339125014919226" lon="9.348865367567678"><ele>15.0</ele><time>2026-04-30T09:51:35.996Z</time></trkpt><trkpt lat="44.339019984829164" lon="9.348841836689603"><ele>16.8</ele><time>2026-04-30T09:51:36.996Z</time></trkpt><trkpt lat="44.33891474811431" lon="9.348814303456777"><ele>18.6</ele><time>2026-04-30T09:51:37.996Z</time></trkpt><trkpt lat="44.338809504907985" lon="9.348774098967281"><ele>20.4</ele><time>2026-04-30T09:51:38.996Z</time></trkpt><trkpt lat="44.338702167678356" lon="9.348740814778482"><ele>22.2</ele><time>2026-04-30T09:51:39.996Z</time></trkpt><trkpt lat="44.33859639186858" lon="9.34870187754409"><ele>24.0</ele><time>2026-04-30T09:51:40.996Z</time></trkpt><trkpt lat="44.33849301083844" lon="9.348664207611"><ele>24.0</ele><time>2026-04-30T09:51:41.996Z</time></trkpt><trkpt lat="44.338392729051165" lon="9.348628513028626"><ele>24.0</ele><time>2026-04-30T09:51:42.996Z</time></trkpt><trkpt lat="44.338289430181014" lon="9.348602708533889"><ele>24.0</ele><time>2026-04-30T09:51:43.996Z</time></trkpt><trkpt lat="44.33818132524202" lon="9.348593660596869"><ele>24.0</ele><time>2026-04-30T09:51:44.996Z</time></trkpt><trkpt lat="44.33807162307077" lon="9.34859838954922"><ele>24.0</ele><time>2026-04-30T09:51:45.996Z</time></trkpt><trkpt lat="44.33796812736528" lon="9.348597718517825"><ele>23.0</ele><time>2026-04-30T09:51:46.996Z</time></trkpt><trkpt lat="44.337868662250976" lon="9.348592740317265"><ele>22.0</ele><time>2026-04-30T09:51:47.996Z</time></trkpt><trkpt lat="44.33777042860597" lon="9.348585756324187"><ele>21.0</ele><time>2026-04-30T09:51:48.996Z</time></trkpt><trkpt lat="44.33766840802641" lon="9.348578106412727"><ele>20.0</ele><time>2026-04-30T09:51:49.996Z</time></trkpt><trkpt lat="44.33756209969687" lon="9.348559070185534"><ele>19.0</ele><time>2026-04-30T09:51:50.996Z</time></trkpt><trkpt lat="44.337451750688864" lon="9.348529363322648"><ele>19.0</ele><time>2026-04-30T09:51:51.996Z</time></trkpt><trkpt lat="44.33734196186754" lon="9.348476182829456"><ele>19.0</ele><time>2026-04-30T09:51:52.996Z</time></trkpt><trkpt lat="44.3372311113472" lon="9.348418817238835"><ele>19.0</ele><time>2026-04-30T09:51:53.996Z</time></trkpt><trkpt lat="44.337120005570995" lon="9.348351056586385"><ele>19.0</ele><time>2026-04-30T09:51:54.996Z</time></trkpt><trkpt lat="44.337009878926146" lon="9.348272191728796"><ele>18.75</ele><time>2026-04-30T09:51:55.996Z</time></trkpt><trkpt lat="44.33689962035381" lon="9.348193663506605"><ele>18.5</ele><time>2026-04-30T09:51:56.996Z</time></trkpt><trkpt lat="44.33678458053078" lon="9.348128949885755"><ele>18.25</ele><time>2026-04-30T09:51:57.996Z</time></trkpt><trkpt lat="44.336672501601335" lon="9.348069984160828"><ele>18.0</ele><time>2026-04-30T09:51:58.996Z</time></trkpt><trkpt lat="44.336556757160785" lon="9.347998712112654"><ele>18.0</ele><time>2026-04-30T09:51:59.996Z</time></trkpt><trkpt lat="44.33643992224309" lon="9.34792413579356"><ele>18.0</ele><time>2026-04-30T09:52:00.996Z</time></trkpt><trkpt lat="44.33632454326448" lon="9.347848920213814"><ele>18.0</ele><time>2026-04-30T09:52:01.996Z</time></trkpt><trkpt lat="44.33621512488324" lon="9.347783621590882"><ele>18.0</ele><time>2026-04-30T09:52:02.996Z</time></trkpt><trkpt lat="44.33611351753446" lon="9.347711484399463"><ele>16.5</ele><time>2026-04-30T09:52:03.996Z</time></trkpt><trkpt lat="44.33592841169199" lon="9.347581203990702"><ele>15.0</ele><time>2026-04-30T09:52:05.996Z</time></trkpt><trkpt lat="44.33584501699182" lon="9.347508871235503"><ele>13.5</ele><time>2026-04-30T09:52:06.996Z</time></trkpt><trkpt lat="44.335760263011366" lon="9.347437625719925"><ele>12.0</ele><time>2026-04-30T09:52:07.996Z</time></trkpt><trkpt lat="44.335681754509515" lon="9.347360164479001"><ele>12.0</ele><time>2026-04-30T09:52:08.996Z</time></trkpt><trkpt lat="44.335607039428226" lon="9.347278212564335"><ele>12.0</ele><time>2026-04-30T09:52:09.996Z</time></trkpt><trkpt lat="44.335534683728035" lon="9.347182311062765"><ele>12.0</ele><time>2026-04-30T09:52:10.996Z</time></trkpt><trkpt lat="44.33546864078028" lon="9.347077626683397"><ele>12.0</ele><time>2026-04-30T09:52:11.996Z</time></trkpt><trkpt lat="44.335408564448905" lon="9.346970949064106"><ele>12.0</ele><time>2026-04-30T09:52:12.996Z</time></trkpt><trkpt lat="44.33534498179867" lon="9.34686687151873"><ele>11.8</ele><time>2026-04-30T09:52:13.996Z</time></trkpt><trkpt lat="44.33527905008309" lon="9.346762667452285"><ele>11.6</ele><time>2026-04-30T09:52:14.996Z</time></trkpt><trkpt lat="44.3352124113743" lon="9.346661880147002"><ele>11.4</ele><time>2026-04-30T09:52:15.996Z</time></trkpt><trkpt lat="44.335153803665875" lon="9.346556589694284"><ele>11.200000000000001</ele><time>2026-04-30T09:52:16.996Z</time></trkpt><trkpt lat="44.335079666041864" lon="9.346467417629189"><ele>11.0</ele><time>2026-04-30T09:52:17.996Z</time></trkpt><trkpt lat="44.33499333761054" lon="9.346401338267011"><ele>11.333333333333332</ele><time>2026-04-30T09:52:18.996Z</time></trkpt><trkpt lat="44.334909245353685" lon="9.346339015014584"><ele>11.666666666666666</ele><time>2026-04-30T09:52:19.996Z</time></trkpt><trkpt lat="44.334826894877295" lon="9.34629630383084"><ele>12.0</ele><time>2026-04-30T09:52:20.996Z</time></trkpt><trkpt lat="44.33475878862468" lon="9.346250522603938"><ele>12.333333333333332</ele><time>2026-04-30T09:52:21.996Z</time></trkpt><trkpt lat="44.33469108698878" lon="9.34621283374832"><ele>12.666666666666666</ele><time>2026-04-30T09:52:22.996Z</time></trkpt><trkpt lat="44.33462215120883" lon="9.346168447334259"><ele>13.0</ele><time>2026-04-30T09:52:23.996Z</time></trkpt><trkpt lat="44.33454741706281" lon="9.346126972717508"><ele>13.0</ele><time>2026-04-30T09:52:24.996Z</time></trkpt><trkpt lat="44.33446674784975" lon="9.346077350564004"><ele>13.0</ele><time>2026-04-30T09:52:25.996Z</time></trkpt><trkpt lat="44.334380517122874" lon="9.34603844401498"><ele>13.0</ele><time>2026-04-30T09:52:26.996Z</time></trkpt><trkpt lat="44.33429518684006" lon="9.34599402609411"><ele>13.0</ele><time>2026-04-30T09:52:27.996Z</time></trkpt><trkpt lat="44.33421163440244" lon="9.345949735609558"><ele>13.0</ele><time>2026-04-30T09:52:28.995Z</time></trkpt><trkpt lat="44.33412578519559" lon="9.34590451083577"><ele>12.999999999999998</ele><time>2026-04-30T09:52:29.995Z</time></trkpt><trkpt lat="44.33404303786438" lon="9.345863800292143"><ele>13.0</ele><time>2026-04-30T09:52:30.995Z</time></trkpt><trkpt lat="44.333969354865545" lon="9.345809976754028"><ele>13.0</ele><time>2026-04-30T09:52:31.995Z</time></trkpt><trkpt lat="44.33390268790537" lon="9.345760180914628"><ele>13.0</ele><time>2026-04-30T09:52:32.995Z</time></trkpt><trkpt lat="44.33383956123257" lon="9.345713398591235"><ele>12.999999999999998</ele><time>2026-04-30T09:52:33.995Z</time></trkpt><trkpt lat="44.3337751301914" lon="9.345671594660969"><ele>13.0</ele><time>2026-04-30T09:52:34.995Z</time></trkpt><trkpt lat="44.33370620333691" lon="9.345646543709721"><ele>13.166666666666666</ele><time>2026-04-30T09:52:35.995Z</time></trkpt><trkpt lat="44.333640203410795" lon="9.345612204195207"><ele>13.333333333333332</ele><time>2026-04-30T09:52:36.995Z</time></trkpt><trkpt lat="44.33356711386079" lon="9.345580270918207"><ele>13.5</ele><time>2026-04-30T09:52:37.995Z</time></trkpt><trkpt lat="44.3334879800196" lon="9.345554349634513"><ele>13.666666666666668</ele><time>2026-04-30T09:52:38.995Z</time></trkpt><trkpt lat="44.33340271935959" lon="9.345541871382228"><ele>13.833333333333334</ele><time>2026-04-30T09:52:39.995Z</time></trkpt><trkpt lat="44.33331958948519" lon="9.345523813668084"><ele>14.0</ele><time>2026-04-30T09:52:40.995Z</time></trkpt><trkpt lat="44.333232057320394" lon="9.3455014327498"><ele>13.6</ele><time>2026-04-30T09:52:41.995Z</time></trkpt><trkpt lat="44.3331359213415" lon="9.345510075565638"><ele>13.2</ele><time>2026-04-30T09:52:42.995Z</time></trkpt><trkpt lat="44.3330350301397" lon="9.34552261875498"><ele>12.799999999999999</ele><time>2026-04-30T09:52:43.995Z</time></trkpt><trkpt lat="44.33293701262709" lon="9.345538073562631"><ele>12.399999999999999</ele><time>2026-04-30T09:52:44.995Z</time></trkpt><trkpt lat="44.332836685798675" lon="9.345553892490228"><ele>12.0</ele><time>2026-04-30T09:52:45.995Z</time></trkpt><trkpt lat="44.33273153970367" lon="9.345567477766155"><ele>12.0</ele><time>2026-04-30T09:52:46.995Z</time></trkpt><trkpt lat="44.33262778285453" lon="9.34557954220026"><ele>12.0</ele><time>2026-04-30T09:52:47.995Z</time></trkpt><trkpt lat="44.33252748490704" lon="9.345586558477086"><ele>12.0</ele><time>2026-04-30T09:52:48.995Z</time></trkpt><trkpt lat="44.332427574264855" lon="9.345584376699078"><ele>12.0</ele><time>2026-04-30T09:52:49.995Z</time></trkpt><trkpt lat="44.33232404878281" lon="9.345582650061795"><ele>12.0</ele><time>2026-04-30T09:52:50.995Z</time></trkpt><trkpt lat="44.33222207914505" lon="9.34555824739027"><ele>15.0</ele><time>2026-04-30T09:52:51.995Z</time></trkpt><trkpt lat="44.3321183996975" lon="9.345527543174"><ele>18.0</ele><time>2026-04-30T09:52:52.995Z</time></trkpt><trkpt lat="44.33201306511176" lon="9.34549973455578"><ele>21.000000000000004</ele><time>2026-04-30T09:52:53.995Z</time></trkpt><trkpt lat="44.33190839512334" lon="9.345463120366906"><ele>24.0</ele><time>2026-04-30T09:52:54.995Z</time></trkpt><trkpt lat="44.331799446052756" lon="9.345455515498523"><ele>27.0</ele><time>2026-04-30T09:52:55.995Z</time></trkpt><trkpt lat="44.33168952545215" lon="9.345465699102453"><ele>27.0</ele><time>2026-04-30T09:52:56.995Z</time></trkpt><trkpt lat="44.33157809790624" lon="9.345490965481089"><ele>27.000000000000004</ele><time>2026-04-30T09:52:57.995Z</time></trkpt><trkpt lat="44.33146727108343" lon="9.345500260378541"><ele>27.000000000000004</ele><time>2026-04-30T09:52:58.995Z</time></trkpt><trkpt lat="44.33136134913063" lon="9.34547355194546"><ele>27.0</ele><time>2026-04-30T09:52:59.995Z</time></trkpt><trkpt lat="44.331256331976945" lon="9.34546175877097"><ele>27.0</ele><time>2026-04-30T09:53:00.995Z</time></trkpt><trkpt lat="44.33114990342401" lon="9.345443462443741"><ele>27.200000000000003</ele><time>2026-04-30T09:53:01.995Z</time></trkpt><trkpt lat="44.33104258565916" lon="9.345444630015153"><ele>27.400000000000002</ele><time>2026-04-30T09:53:02.995Z</time></trkpt><trkpt lat="44.33094035490866" lon="9.345418043080535"><ele>27.599999999999998</ele><time>2026-04-30T09:53:03.995Z</time></trkpt><trkpt lat="44.33083985466873" lon="9.345404931696573"><ele>27.799999999999997</ele><time>2026-04-30T09:53:04.995Z</time></trkpt><trkpt lat="44.33073614109949" lon="9.345413156181444"><ele>28.0</ele><time>2026-04-30T09:53:05.995Z</time></trkpt><trkpt lat="44.33063193356718" lon="9.345428057517662"><ele>27.0</ele><time>2026-04-30T09:53:06.995Z</time></trkpt><trkpt lat="44.33053200070217" lon="9.34544952448555"><ele>25.999999999999996</ele><time>2026-04-30T09:53:07.995Z</time></trkpt><trkpt lat="44.330432997595786" lon="9.345475582062782"><ele>25.0</ele><time>2026-04-30T09:53:08.995Z</time></trkpt><trkpt lat="44.33033370207216" lon="9.345475496572822"><ele>24.0</ele><time>2026-04-30T09:53:09.995Z</time></trkpt><trkpt lat="44.33023316150952" lon="9.345473517220322"><ele>23.0</ele><time>2026-04-30T09:53:10.995Z</time></trkpt><trkpt lat="44.33013146624157" lon="9.345454669658633"><ele>23.0</ele><time>2026-04-30T09:53:11.995Z</time></trkpt><trkpt lat="44.33003028865985" lon="9.345439344201246"><ele>23.0</ele><time>2026-04-30T09:53:12.995Z</time></trkpt><trkpt lat="44.32992693135142" lon="9.345425581924692"><ele>23.0</ele><time>2026-04-30T09:53:13.995Z</time></trkpt><trkpt lat="44.32982300979562" lon="9.34541863365885"><ele>23.0</ele><time>2026-04-30T09:53:14.995Z</time></trkpt><trkpt lat="44.32971891182025" lon="9.345422190063701"><ele>23.0</ele><time>2026-04-30T09:53:15.995Z</time></trkpt><trkpt lat="44.32961430068183" lon="9.345438634383422"><ele>24.0</ele><time>2026-04-30T09:53:16.995Z</time></trkpt><trkpt lat="44.32951187254342" lon="9.345465749839812"><ele>25.0</ele><time>2026-04-30T09:53:17.995Z</time></trkpt><trkpt lat="44.329409276922334" lon="9.345495792330302"><ele>25.999999999999996</ele><time>2026-04-30T09:53:18.995Z</time></trkpt><trkpt lat="44.329302472111465" lon="9.345508614238204"><ele>27.0</ele><time>2026-04-30T09:53:19.995Z</time></trkpt><trkpt lat="44.3292013525235" lon="9.345557775300154"><ele>28.0</ele><time>2026-04-30T09:53:20.995Z</time></trkpt><trkpt lat="44.329109893356616" lon="9.345637138084951"><ele>24.799999999999997</ele><time>2026-04-30T09:53:21.995Z</time></trkpt><trkpt lat="44.32901095363182" lon="9.345672394117523"><ele>21.599999999999998</ele><time>2026-04-30T09:53:22.995Z</time></trkpt><trkpt lat="44.32892667738606" lon="9.34574302524274"><ele>18.4</ele><time>2026-04-30T09:53:23.995Z</time></trkpt><trkpt lat="44.32884053083236" lon="9.345795204417596"><ele>15.2</ele><time>2026-04-30T09:53:24.995Z</time></trkpt><trkpt lat="44.32876154538475" lon="9.345852922929746"><ele>12.0</ele><time>2026-04-30T09:53:25.995Z</time></trkpt><trkpt lat="44.3286757997756" lon="9.345862922747756"><ele>12.0</ele><time>2026-04-30T09:53:26.995Z</time></trkpt><trkpt lat="44.328581935951206" lon="9.345882866879004"><ele>12.0</ele><time>2026-04-30T09:53:27.995Z</time></trkpt><trkpt lat="44.32848271265944" lon="9.345878370740294"><ele>12.0</ele><time>2026-04-30T09:53:28.995Z</time></trkpt><trkpt lat="44.328381759541834" lon="9.345874748539199"><ele>12.0</ele><time>2026-04-30T09:53:29.995Z</time></trkpt><trkpt lat="44.3282791632538" lon="9.345873536151068"><ele>12.0</ele><time>2026-04-30T09:53:30.995Z</time></trkpt><trkpt lat="44.32817740766826" lon="9.345870323184911"><ele>12.0</ele><time>2026-04-30T09:53:31.995Z</time></trkpt><trkpt lat="44.32807572852414" lon="9.345863561826482"><ele>12.0</ele><time>2026-04-30T09:53:32.995Z</time></trkpt><trkpt lat="44.327976621421534" lon="9.345866425611316"><ele>12.0</ele><time>2026-04-30T09:53:33.994Z</time></trkpt><trkpt lat="44.327877394073376" lon="9.345843433893645"><ele>12.0</ele><time>2026-04-30T09:53:34.994Z</time></trkpt><trkpt lat="44.32777790306923" lon="9.345863413262878"><ele>12.0</ele><time>2026-04-30T09:53:35.994Z</time></trkpt><trkpt lat="44.327682482032756" lon="9.3458375656268"><ele>11.8</ele><time>2026-04-30T09:53:36.994Z</time></trkpt><trkpt lat="44.32758657109889" lon="9.345853961803426"><ele>11.6</ele><time>2026-04-30T09:53:37.994Z</time></trkpt><trkpt lat="44.327490899582415" lon="9.34583861639949"><ele>11.4</ele><time>2026-04-30T09:53:38.994Z</time></trkpt><trkpt lat="44.327395918530414" lon="9.345831531771333"><ele>11.200000000000001</ele><time>2026-04-30T09:53:39.994Z</time></trkpt><trkpt lat="44.32730292794391" lon="9.345803717174745"><ele>11.0</ele><time>2026-04-30T09:53:40.994Z</time></trkpt><trkpt lat="44.32721019355409" lon="9.345781479566108"><ele>11.0</ele><time>2026-04-30T09:53:41.994Z</time></trkpt><trkpt lat="44.32712345934214" lon="9.34575039806364"><ele>11.0</ele><time>2026-04-30T09:53:42.994Z</time></trkpt><trkpt lat="44.32704094291578" lon="9.345710849707624"><ele>11.0</ele><time>2026-04-30T09:53:43.994Z</time></trkpt><trkpt lat="44.3269642982258" lon="9.345664187000867"><ele>11.0</ele><time>2026-04-30T09:53:44.994Z</time></trkpt><trkpt lat="44.326889402685865" lon="9.345623305489067"><ele>11.0</ele><time>2026-04-30T09:53:45.994Z</time></trkpt><trkpt lat="44.32681612710587" lon="9.345581830368973"><ele>11.0</ele><time>2026-04-30T09:53:46.994Z</time></trkpt><trkpt lat="44.32673523945271" lon="9.345546185252685"><ele>11.600000000000001</ele><time>2026-04-30T09:53:47.994Z</time></trkpt><trkpt lat="44.326653504266645" lon="9.345499511570477"><ele>12.2</ele><time>2026-04-30T09:53:48.994Z</time></trkpt><trkpt lat="44.32656699465618" lon="9.345451952122435"><ele>12.799999999999999</ele><time>2026-04-30T09:53:49.994Z</time></trkpt><trkpt lat="44.326477444827916" lon="9.34540749004362"><ele>13.399999999999999</ele><time>2026-04-30T09:53:50.994Z</time></trkpt><trkpt lat="44.326375142989285" lon="9.345378119508354"><ele>14.0</ele><time>2026-04-30T09:53:51.994Z</time></trkpt><trkpt lat="44.326275548780295" lon="9.345337786777222"><ele>14.0</ele><time>2026-04-30T09:53:52.994Z</time></trkpt><trkpt lat="44.326176617006794" lon="9.345292882753565"><ele>13.999999999999998</ele><time>2026-04-30T09:53:53.994Z</time></trkpt><trkpt lat="44.32607890606525" lon="9.345235636103064"><ele>13.999999999999998</ele><time>2026-04-30T09:53:54.994Z</time></trkpt><trkpt lat="44.3259783377065" lon="9.345187304075733"><ele>14.0</ele><time>2026-04-30T09:53:55.994Z</time></trkpt><trkpt lat="44.32588734469244" lon="9.345098445777168"><ele>14.0</ele><time>2026-04-30T09:53:56.994Z</time></trkpt><trkpt lat="44.325790406658314" lon="9.345047668970658"><ele>14.0</ele><time>2026-04-30T09:53:57.994Z</time></trkpt><trkpt lat="44.32569060297912" lon="9.344994360746954"><ele>13.999999999999998</ele><time>2026-04-30T09:53:58.994Z</time></trkpt><trkpt lat="44.325594328845746" lon="9.34494315831831"><ele>13.999999999999998</ele><time>2026-04-30T09:53:59.994Z</time></trkpt><trkpt lat="44.325512865488534" lon="9.344906298178508"><ele>14.0</ele><time>2026-04-30T09:54:00.994Z</time></trkpt><trkpt lat="44.32542646720875" lon="9.344889142099694"><ele>14.0</ele><time>2026-04-30T09:54:02.994Z</time></trkpt><trkpt lat="44.32535430289837" lon="9.344862369620373"><ele>13.5</ele><time>2026-04-30T09:54:04.994Z</time></trkpt><trkpt lat="44.32522401398258" lon="9.344836348950981"><ele>13.0</ele><time>2026-04-30T09:54:07Z</time></trkpt><trkpt lat="44.325122306232245" lon="9.344815709207413"><ele>12.5</ele><time>2026-04-30T09:54:08Z</time></trkpt><trkpt lat="44.324997202562415" lon="9.344787421392109"><ele>12.0</ele><time>2026-04-30T09:54:09Z</time></trkpt><trkpt lat="44.32486794049326" lon="9.34474652606861"><ele>14.25</ele><time>2026-04-30T09:54:10Z</time></trkpt><trkpt lat="44.32474002192537" lon="9.344687850403572"><ele>16.5</ele><time>2026-04-30T09:54:11Z</time></trkpt><trkpt lat="44.324611964370916" lon="9.34462384833768"><ele>18.75</ele><time>2026-04-30T09:54:12Z</time></trkpt><trkpt lat="44.32449174505484" lon="9.344531899952608"><ele>21.0</ele><time>2026-04-30T09:54:13Z</time></trkpt><trkpt lat="44.32435895930616" lon="9.344481570022104"><ele>21.0</ele><time>2026-04-30T09:54:14Z</time></trkpt><trkpt lat="44.32422942771061" lon="9.344438270468803"><ele>21.0</ele><time>2026-04-30T09:54:15Z</time></trkpt><trkpt lat="44.32409946065285" lon="9.344393804151933"><ele>21.0</ele><time>2026-04-30T09:54:16Z</time></trkpt><trkpt lat="44.32396416370169" lon="9.344370015311668"><ele>21.0</ele><time>2026-04-30T09:54:17Z</time></trkpt><trkpt lat="44.3238332060437" lon="9.34433106994752"><ele>19.5</ele><time>2026-04-30T09:54:18Z</time></trkpt><trkpt lat="44.323706256933114" lon="9.344287554770291"><ele>18.0</ele><time>2026-04-30T09:54:19Z</time></trkpt><trkpt lat="44.32358315904202" lon="9.344226754498628"><ele>16.5</ele><time>2026-04-30T09:54:20Z</time></trkpt><trkpt lat="44.32345889385104" lon="9.34415592780593"><ele>15.0</ele><time>2026-04-30T09:54:21Z</time></trkpt><trkpt lat="44.32334148745054" lon="9.34406724220715"><ele>15.0</ele><time>2026-04-30T09:54:22Z</time></trkpt><trkpt lat="44.32321903510265" lon="9.343989623856142"><ele>15.0</ele><time>2026-04-30T09:54:23Z</time></trkpt><trkpt lat="44.323101070013905" lon="9.343904167870509"><ele>15.0</ele><time>2026-04-30T09:54:24Z</time></trkpt><trkpt lat="44.32298737129457" lon="9.343806112711395"><ele>15.0</ele><time>2026-04-30T09:54:25Z</time></trkpt><trkpt lat="44.32286774746052" lon="9.343721949656743"><ele>15.25</ele><time>2026-04-30T09:54:26Z</time></trkpt><trkpt lat="44.322755774007845" lon="9.343622098857209"><ele>15.5</ele><time>2026-04-30T09:54:27Z</time></trkpt><trkpt lat="44.322648733660714" lon="9.343512197397029"><ele>15.75</ele><time>2026-04-30T09:54:28Z</time></trkpt><trkpt lat="44.32253753714592" lon="9.34343027892331"><ele>16.0</ele><time>2026-04-30T09:54:29Z</time></trkpt><trkpt lat="44.32242700281018" lon="9.343351121137488"><ele>16.0</ele><time>2026-04-30T09:54:30Z</time></trkpt><trkpt lat="44.32230786666148" lon="9.343301135275492"><ele>16.0</ele><time>2026-04-30T09:54:31Z</time></trkpt><trkpt lat="44.32219351120432" lon="9.343239321706706"><ele>16.0</ele><time>2026-04-30T09:54:32Z</time></trkpt><trkpt lat="44.3220839522694" lon="9.343156837505797"><ele>16.0</ele><time>2026-04-30T09:54:33Z</time></trkpt><trkpt lat="44.32198123973027" lon="9.343065680093122"><ele>14.0</ele><time>2026-04-30T09:54:34Z</time></trkpt><trkpt lat="44.321884126819185" lon="9.342963408749453"><ele>12.0</ele><time>2026-04-30T09:54:35Z</time></trkpt><trkpt lat="44.32177931093798" lon="9.342855764691533"><ele>10.0</ele><time>2026-04-30T09:54:36Z</time></trkpt><trkpt lat="44.32168068042213" lon="9.34273877807825"><ele>8.0</ele><time>2026-04-30T09:54:37Z</time></trkpt><trkpt lat="44.32157963212783" lon="9.342639476657395"><ele>8.0</ele><time>2026-04-30T09:54:38Z</time></trkpt><trkpt lat="44.321479456412284" lon="9.342546999928123"><ele>8.0</ele><time>2026-04-30T09:54:39Z</time></trkpt><trkpt lat="44.32139147342071" lon="9.34243883300219"><ele>8.0</ele><time>2026-04-30T09:54:40Z</time></trkpt><trkpt lat="44.32129700027637" lon="9.342337366588211"><ele>8.0</ele><time>2026-04-30T09:54:41Z</time></trkpt><trkpt lat="44.321191745172094" lon="9.342266608931059"><ele>8.4</ele><time>2026-04-30T09:54:42Z</time></trkpt><trkpt lat="44.32109569419527" lon="9.342196461230353"><ele>8.8</ele><time>2026-04-30T09:54:43Z</time></trkpt><trkpt lat="44.321002120808075" lon="9.342130488321938"><ele>9.2</ele><time>2026-04-30T09:54:44Z</time></trkpt><trkpt lat="44.320909238563814" lon="9.342072116535386"><ele>9.6</ele><time>2026-04-30T09:54:45Z</time></trkpt><trkpt lat="44.32082019351911" lon="9.342005513768067"><ele>10.0</ele><time>2026-04-30T09:54:46Z</time></trkpt><trkpt lat="44.3207334404069" lon="9.341941404926418"><ele>10.0</ele><time>2026-04-30T09:54:47Z</time></trkpt><trkpt lat="44.32065286365514" lon="9.34187680903365"><ele>10.0</ele><time>2026-04-30T09:54:48Z</time></trkpt><trkpt lat="44.3205707911002" lon="9.341810518111139"><ele>10.0</ele><time>2026-04-30T09:54:49Z</time></trkpt><trkpt lat="44.32048552905583" lon="9.34173622670989"><ele>10.0</ele><time>2026-04-30T09:54:50Z</time></trkpt><trkpt lat="44.320409956527804" lon="9.34163984658744"><ele>10.0</ele><time>2026-04-30T09:54:51Z</time></trkpt><trkpt lat="44.32033114280703" lon="9.341542215231465"><ele>9.8</ele><time>2026-04-30T09:54:51.999Z</time></trkpt><trkpt lat="44.32024920297991" lon="9.341471275027907"><ele>9.6</ele><time>2026-04-30T09:54:52.999Z</time></trkpt><trkpt lat="44.32017052412722" lon="9.341411618942802"><ele>9.4</ele><time>2026-04-30T09:54:53.999Z</time></trkpt><trkpt lat="44.32010669726093" lon="9.341317610513265"><ele>9.2</ele><time>2026-04-30T09:54:54.999Z</time></trkpt><trkpt lat="44.320022839655415" lon="9.341265567486028"><ele>9.0</ele><time>2026-04-30T09:54:55.999Z</time></trkpt><trkpt lat="44.31994618370927" lon="9.341201915454223"><ele>8.833333333333334</ele><time>2026-04-30T09:54:56.999Z</time></trkpt><trkpt lat="44.31986537083664" lon="9.341152310780808"><ele>8.666666666666666</ele><time>2026-04-30T09:54:57.999Z</time></trkpt><trkpt lat="44.31978557300985" lon="9.341098839371423"><ele>8.5</ele><time>2026-04-30T09:54:58.999Z</time></trkpt><trkpt lat="44.31971282967659" lon="9.341030380038545"><ele>8.333333333333332</ele><time>2026-04-30T09:54:59.999Z</time></trkpt><trkpt lat="44.31964300453458" lon="9.340967933969093"><ele>8.166666666666666</ele><time>2026-04-30T09:55:00.999Z</time></trkpt><trkpt lat="44.319574128280614" lon="9.340914390812713"><ele>8.0</ele><time>2026-04-30T09:55:01.999Z</time></trkpt><trkpt lat="44.319501550582935" lon="9.3408615037623"><ele>8.0</ele><time>2026-04-30T09:55:02.999Z</time></trkpt><trkpt lat="44.31943434696121" lon="9.340807252811379"><ele>7.999999999999999</ele><time>2026-04-30T09:55:03.999Z</time></trkpt><trkpt lat="44.31938002898087" lon="9.34074087483616"><ele>8.0</ele><time>2026-04-30T09:55:04.999Z</time></trkpt><trkpt lat="44.31932181000284" lon="9.340685293454447"><ele>8.0</ele><time>2026-04-30T09:55:05.999Z</time></trkpt><trkpt lat="44.3192612774232" lon="9.340631005565719"><ele>7.999999999999999</ele><time>2026-04-30T09:55:06.999Z</time></trkpt><trkpt lat="44.31920433046284" lon="9.34057393724211"><ele>8.0</ele><time>2026-04-30T09:55:07.999Z</time></trkpt><trkpt lat="44.319140895682445" lon="9.34054053132857"><ele>8.0</ele><time>2026-04-30T09:55:08.999Z</time></trkpt><trkpt lat="44.319078350251694" lon="9.340505478517077"><ele>8.0</ele><time>2026-04-30T09:55:09.999Z</time></trkpt><trkpt lat="44.31901739411532" lon="9.340472105064446"><ele>8.0</ele><time>2026-04-30T09:55:10.999Z</time></trkpt><trkpt lat="44.31890502183718" lon="9.340414952384622"><ele>8.0</ele><time>2026-04-30T09:55:12.999Z</time></trkpt><trkpt lat="44.31880788221721" lon="9.34036871204155"><ele>8.0</ele><time>2026-04-30T09:55:14.999Z</time></trkpt><trkpt lat="44.31873970530131" lon="9.34039527268965"><ele>8.0</ele><time>2026-04-30T09:55:16.999Z</time></trkpt><trkpt lat="44.31873463358626" lon="9.340524614339692"><ele>8.0</ele><time>2026-04-30T09:55:18.999Z</time></trkpt><trkpt lat="44.31875308335925" lon="9.340645962940602"><ele>8.0</ele><time>2026-04-30T09:55:20.999Z</time></trkpt><trkpt lat="44.31876204044435" lon="9.340742567117172"><ele>8.0</ele><time>2026-04-30T09:55:22.999Z</time></trkpt><trkpt lat="44.318769945839755" lon="9.340872423375577"><ele>8.0</ele><time>2026-04-30T09:55:24.999Z</time></trkpt><trkpt lat="44.31875380843831" lon="9.34104031128968"><ele>8.0</ele><time>2026-04-30T09:55:26.999Z</time></trkpt><trkpt lat="44.31871498651272" lon="9.341210356710082"><ele>8.0</ele><time>2026-04-30T09:55:28.999Z</time></trkpt><trkpt lat="44.318678588829506" lon="9.341288340889735"><ele>8.0</ele><time>2026-04-30T09:55:29.999Z</time></trkpt><trkpt lat="44.3186504113541" lon="9.341376744102453"><ele>8.0</ele><time>2026-04-30T09:55:30.999Z</time></trkpt><trkpt lat="44.31862095910104" lon="9.341463835478924"><ele>8.0</ele><time>2026-04-30T09:55:31.999Z</time></trkpt><trkpt lat="44.31856757137592" lon="9.341608050905181"><ele>8.0</ele><time>2026-04-30T09:55:33.999Z</time></trkpt><trkpt lat="44.31846876188987" lon="9.341781671937705"><ele>7.75</ele><time>2026-04-30T09:55:35.999Z</time></trkpt><trkpt lat="44.31834490969457" lon="9.341727310954145"><ele>7.5</ele><time>2026-04-30T09:55:37.999Z</time></trkpt><trkpt lat="44.318223520270166" lon="9.34171973534766"><ele>7.25</ele><time>2026-04-30T09:55:38.999Z</time></trkpt><trkpt lat="44.3181227099381" lon="9.341632763291827"><ele>7.0</ele><time>2026-04-30T09:55:39.999Z</time></trkpt><trkpt lat="44.318025001560514" lon="9.341537604007627"><ele>6.5</ele><time>2026-04-30T09:55:40.999Z</time></trkpt><trkpt lat="44.317927582660374" lon="9.341442724856392"><ele>6.0</ele><time>2026-04-30T09:55:41.999Z</time></trkpt><trkpt lat="44.31782549744936" lon="9.341342649573882"><ele>5.5</ele><time>2026-04-30T09:55:42.999Z</time></trkpt><trkpt lat="44.31772764618443" lon="9.341221102257041"><ele>5.0</ele><time>2026-04-30T09:55:43.999Z</time></trkpt><trkpt lat="44.317613732246194" lon="9.341127179935622"><ele>5.0</ele><time>2026-04-30T09:55:44.999Z</time></trkpt><trkpt lat="44.31750003005811" lon="9.341030987231179"><ele>5.0</ele><time>2026-04-30T09:55:45.999Z</time></trkpt><trkpt lat="44.31738628342466" lon="9.340934377044947"><ele>5.0</ele><time>2026-04-30T09:55:46.999Z</time></trkpt><trkpt lat="44.3172721415379" lon="9.340829705396297"><ele>5.0</ele><time>2026-04-30T09:55:47.999Z</time></trkpt><trkpt lat="44.31715982194971" lon="9.340720407945417"><ele>5.0</ele><time>2026-04-30T09:55:48.999Z</time></trkpt><trkpt lat="44.317043793631896" lon="9.340615249113899"><ele>5.0</ele><time>2026-04-30T09:55:49.999Z</time></trkpt><trkpt lat="44.31693702021648" lon="9.340506012988758"><ele>5.0</ele><time>2026-04-30T09:55:50.999Z</time></trkpt><trkpt lat="44.31683082898955" lon="9.340396987178812"><ele>5.0</ele><time>2026-04-30T09:55:51.999Z</time></trkpt><trkpt lat="44.316725445299774" lon="9.340293816063381"><ele>5.0</ele><time>2026-04-30T09:55:52.999Z</time></trkpt><trkpt lat="44.316616729903" lon="9.340197374363324"><ele>5.0</ele><time>2026-04-30T09:55:53.999Z</time></trkpt><trkpt lat="44.316507770139566" lon="9.340092808121536"><ele>5.0</ele><time>2026-04-30T09:55:54.999Z</time></trkpt><trkpt lat="44.316402538836996" lon="9.339991329139227"><ele>5.0</ele><time>2026-04-30T09:55:55.999Z</time></trkpt><trkpt lat="44.31629502985581" lon="9.339892597844656"><ele>4.75</ele><time>2026-04-30T09:55:56.998Z</time></trkpt><trkpt lat="44.31619011092739" lon="9.339789255583526"><ele>4.5</ele><time>2026-04-30T09:55:57.998Z</time></trkpt><trkpt lat="44.316086465309326" lon="9.339683411748869"><ele>4.25</ele><time>2026-04-30T09:55:58.998Z</time></trkpt><trkpt lat="44.31598345785503" lon="9.339577688113794"><ele>4.0</ele><time>2026-04-30T09:55:59.998Z</time></trkpt><trkpt lat="44.31587915187315" lon="9.339470488958504"><ele>4.0</ele><time>2026-04-30T09:56:00.998Z</time></trkpt><trkpt lat="44.31578113157487" lon="9.339355656689571"><ele>4.0</ele><time>2026-04-30T09:56:01.998Z</time></trkpt><trkpt lat="44.3156875841104" lon="9.339237157390585"><ele>4.0</ele><time>2026-04-30T09:56:02.998Z</time></trkpt><trkpt lat="44.31559481701421" lon="9.339111545036028"><ele>4.0</ele><time>2026-04-30T09:56:03.998Z</time></trkpt><trkpt lat="44.315498599292894" lon="9.338984291288329"><ele>3.25</ele><time>2026-04-30T09:56:04.998Z</time></trkpt><trkpt lat="44.31540800889272" lon="9.338847381683314"><ele>2.5</ele><time>2026-04-30T09:56:05.998Z</time></trkpt><trkpt lat="44.315317877930944" lon="9.338707213200093"><ele>1.75</ele><time>2026-04-30T09:56:06.998Z</time></trkpt><trkpt lat="44.31523037253735" lon="9.33856191789204"><ele>1.0</ele><time>2026-04-30T09:56:07.998Z</time></trkpt><trkpt lat="44.31514533659718" lon="9.338415827652772"><ele>1.0</ele><time>2026-04-30T09:56:08.998Z</time></trkpt><trkpt lat="44.31506194565748" lon="9.338266478976422"><ele>1.0</ele><time>2026-04-30T09:56:09.998Z</time></trkpt><trkpt lat="44.31498314400856" lon="9.338110970575979"><ele>1.0</ele><time>2026-04-30T09:56:10.998Z</time></trkpt><trkpt lat="44.314896898599116" lon="9.337963912146172"><ele>1.0</ele><time>2026-04-30T09:56:11.998Z</time></trkpt><trkpt lat="44.314819776458386" lon="9.337806373438683"><ele>1.0</ele><time>2026-04-30T09:56:12.998Z</time></trkpt><trkpt lat="44.314744282882096" lon="9.337646267791671"><ele>1.0</ele><time>2026-04-30T09:56:13.998Z</time></trkpt><trkpt lat="44.3146707980554" lon="9.337488633555227"><ele>1.0</ele><time>2026-04-30T09:56:14.998Z</time></trkpt><trkpt lat="44.314591113447044" lon="9.337338507653387"><ele>1.0</ele><time>2026-04-30T09:56:15.998Z</time></trkpt><trkpt lat="44.314513197166754" lon="9.337184955283293"><ele>1.75</ele><time>2026-04-30T09:56:16.998Z</time></trkpt><trkpt lat="44.31443804974522" lon="9.337031844988557"><ele>2.5</ele><time>2026-04-30T09:56:17.998Z</time></trkpt><trkpt lat="44.314364359976324" lon="9.336882432241461"><ele>3.25</ele><time>2026-04-30T09:56:18.998Z</time></trkpt><trkpt lat="44.31429030287783" lon="9.336737233822529"><ele>4.0</ele><time>2026-04-30T09:56:19.998Z</time></trkpt><trkpt lat="44.314217286870615" lon="9.336594301970992"><ele>4.0</ele><time>2026-04-30T09:56:20.998Z</time></trkpt><trkpt lat="44.31414382375316" lon="9.33645632826291"><ele>4.0</ele><time>2026-04-30T09:56:21.998Z</time></trkpt><trkpt lat="44.31407109442578" lon="9.336320233625457"><ele>4.0</ele><time>2026-04-30T09:56:22.998Z</time></trkpt><trkpt lat="44.314004276510786" lon="9.336185465860494"><ele>4.0</ele><time>2026-04-30T09:56:23.998Z</time></trkpt><trkpt lat="44.31394495804954" lon="9.336056530127696"><ele>4.2</ele><time>2026-04-30T09:56:24.998Z</time></trkpt><trkpt lat="44.31388505710139" lon="9.335941907966404"><ele>4.4</ele><time>2026-04-30T09:56:25.998Z</time></trkpt><trkpt lat="44.31382841866056" lon="9.335835846295867"><ele>4.6</ele><time>2026-04-30T09:56:26.998Z</time></trkpt><trkpt lat="44.31377142128423" lon="9.335732361718035"><ele>4.8</ele><time>2026-04-30T09:56:27.998Z</time></trkpt><trkpt lat="44.31371901608551" lon="9.335632649398459"><ele>5.0</ele><time>2026-04-30T09:56:28.998Z</time></trkpt><trkpt lat="44.313670981729004" lon="9.335537688062804"><ele>5.5</ele><time>2026-04-30T09:56:29.998Z</time></trkpt><trkpt lat="44.31362833152181" lon="9.335444379497554"><ele>6.0</ele><time>2026-04-30T09:56:30.998Z</time></trkpt><trkpt lat="44.31359454365217" lon="9.33535925057821"><ele>6.5</ele><time>2026-04-30T09:56:31.998Z</time></trkpt><trkpt lat="44.31353888766" lon="9.33523669401634"><ele>7.0</ele><time>2026-04-30T09:56:33.998Z</time></trkpt><trkpt lat="44.31350735161428" lon="9.335135270117396"><ele>7.499999999999999</ele><time>2026-04-30T09:56:35.998Z</time></trkpt><trkpt lat="44.313451061412856" lon="9.3350338036589"><ele>8.0</ele><time>2026-04-30T09:56:38.998Z</time></trkpt><trkpt lat="44.31340617668621" lon="9.334945507606744"><ele>7.999999999999999</ele><time>2026-04-30T09:56:40.998Z</time></trkpt><trkpt lat="44.313353334874016" lon="9.334782295282587"><ele>8.0</ele><time>2026-04-30T09:56:42.998Z</time></trkpt><trkpt lat="44.313293357160966" lon="9.334714611488797"><ele>8.0</ele><time>2026-04-30T09:56:43.998Z</time></trkpt><trkpt lat="44.31323619689068" lon="9.334642246851518"><ele>8.0</ele><time>2026-04-30T09:56:44.998Z</time></trkpt><trkpt lat="44.31317699828452" lon="9.33457231460569"><ele>7.999999999999999</ele><time>2026-04-30T09:56:45.998Z</time></trkpt><trkpt lat="44.31312111509296" lon="9.33450289926443"><ele>8.0</ele><time>2026-04-30T09:56:46.998Z</time></trkpt><trkpt lat="44.31307130016607" lon="9.334421185321812"><ele>7.166666666666666</ele><time>2026-04-30T09:56:47.998Z</time></trkpt><trkpt lat="44.313021687831856" lon="9.334334503034372"><ele>6.333333333333333</ele><time>2026-04-30T09:56:48.998Z</time></trkpt><trkpt lat="44.31297946527659" lon="9.334238662736727"><ele>5.5</ele><time>2026-04-30T09:56:49.998Z</time></trkpt><trkpt lat="44.31292342901945" lon="9.334154151919064"><ele>4.666666666666666</ele><time>2026-04-30T09:56:50.998Z</time></trkpt><trkpt lat="44.31287109105445" lon="9.334064310055377"><ele>3.833333333333333</ele><time>2026-04-30T09:56:51.998Z</time></trkpt><trkpt lat="44.31282322100782" lon="9.333974993284544"><ele>3.0</ele><time>2026-04-30T09:56:52.998Z</time></trkpt><trkpt lat="44.312775962328104" lon="9.333890153805932"><ele>2.714285714285714</ele><time>2026-04-30T09:56:53.998Z</time></trkpt><trkpt lat="44.31273408893164" lon="9.333803237705702"><ele>2.4285714285714284</ele><time>2026-04-30T09:56:54.998Z</time></trkpt><trkpt lat="44.312690102681024" lon="9.33371641454496"><ele>2.142857142857143</ele><time>2026-04-30T09:56:55.998Z</time></trkpt><trkpt lat="44.31264941403317" lon="9.333632965693988"><ele>1.857142857142857</ele><time>2026-04-30T09:56:56.998Z</time></trkpt><trkpt lat="44.312618988546454" lon="9.333545297264145"><ele>1.5714285714285712</ele><time>2026-04-30T09:56:57.998Z</time></trkpt><trkpt lat="44.31259067655298" lon="9.33345685282603"><ele>1.2857142857142856</ele><time>2026-04-30T09:56:58.998Z</time></trkpt><trkpt lat="44.31255137685798" lon="9.33337158848454"><ele>1.0</ele><time>2026-04-30T09:56:59.998Z</time></trkpt><trkpt lat="44.312517774447976" lon="9.33328647377904"><ele>1.0</ele><time>2026-04-30T09:57:00.998Z</time></trkpt><trkpt lat="44.31251578688345" lon="9.333192082918623"><ele>0.9999999999999999</ele><time>2026-04-30T09:57:01.997Z</time></trkpt><trkpt lat="44.312457804262415" lon="9.333148819400442"><ele>1.0</ele><time>2026-04-30T09:57:02.997Z</time></trkpt><trkpt lat="44.3123917932159" lon="9.33310380372773"><ele>1.0</ele><time>2026-04-30T09:57:03.997Z</time></trkpt><trkpt lat="44.312334419265945" lon="9.333040344862038"><ele>0.9999999999999999</ele><time>2026-04-30T09:57:04.997Z</time></trkpt><trkpt lat="44.31228448741885" lon="9.332963807883491"><ele>1.0</ele><time>2026-04-30T09:57:05.997Z</time></trkpt><trkpt lat="44.31223702759879" lon="9.332889733507692"><ele>1.0</ele><time>2026-04-30T09:57:06.997Z</time></trkpt><trkpt lat="44.312197308836936" lon="9.332818135615339"><ele>1.2000000000000002</ele><time>2026-04-30T09:57:07.997Z</time></trkpt><trkpt lat="44.31214097214018" lon="9.332670163538337"><ele>1.4000000000000001</ele><time>2026-04-30T09:57:09.997Z</time></trkpt><trkpt lat="44.31209848390137" lon="9.332533514573166"><ele>1.6</ele><time>2026-04-30T09:57:11.997Z</time></trkpt><trkpt lat="44.31215124761985" lon="9.332425517701529"><ele>1.8</ele><time>2026-04-30T09:57:12.997Z</time></trkpt><trkpt lat="44.312154839617214" lon="9.332317471652011"><ele>2.0</ele><time>2026-04-30T09:57:13.997Z</time></trkpt><trkpt lat="44.31217482504896" lon="9.332206323327132"><ele>2.4000000000000004</ele><time>2026-04-30T09:57:14.997Z</time></trkpt><trkpt lat="44.312204233860236" lon="9.332086701908578"><ele>2.8000000000000003</ele><time>2026-04-30T09:57:15.997Z</time></trkpt><trkpt lat="44.31223272713941" lon="9.331953173311371"><ele>3.2</ele><time>2026-04-30T09:57:16.997Z</time></trkpt><trkpt lat="44.312269579011605" lon="9.331806515271634"><ele>3.6</ele><time>2026-04-30T09:57:17.997Z</time></trkpt><trkpt lat="44.31230565492608" lon="9.331651468293101"><ele>4.0</ele><time>2026-04-30T09:57:18.997Z</time></trkpt><trkpt lat="44.312347862331634" lon="9.33149881970817"><ele>5.0</ele><time>2026-04-30T09:57:19.997Z</time></trkpt><trkpt lat="44.312382542543745" lon="9.331342627151972"><ele>6.0</ele><time>2026-04-30T09:57:20.997Z</time></trkpt><trkpt lat="44.31240323083187" lon="9.331169271395028"><ele>7.0</ele><time>2026-04-30T09:57:21.997Z</time></trkpt><trkpt lat="44.31244173289345" lon="9.331005637195343"><ele>8.0</ele><time>2026-04-30T09:57:22.997Z</time></trkpt><trkpt lat="44.312478606315715" lon="9.330841239667523"><ele>8.0</ele><time>2026-04-30T09:57:23.997Z</time></trkpt><trkpt lat="44.31252433736581" lon="9.330674618224327"><ele>8.0</ele><time>2026-04-30T09:57:24.997Z</time></trkpt><trkpt lat="44.31256200184474" lon="9.33050224182744"><ele>8.0</ele><time>2026-04-30T09:57:25.997Z</time></trkpt><trkpt lat="44.31259700115831" lon="9.330330786428279"><ele>8.0</ele><time>2026-04-30T09:57:26.997Z</time></trkpt><trkpt lat="44.31262380352008" lon="9.330165140574818"><ele>7.0</ele><time>2026-04-30T09:57:27.997Z</time></trkpt><trkpt lat="44.31264384223241" lon="9.330000442351396"><ele>6.0</ele><time>2026-04-30T09:57:28.997Z</time></trkpt><trkpt lat="44.31266943743094" lon="9.329847789159965"><ele>5.0</ele><time>2026-04-30T09:57:29.997Z</time></trkpt><trkpt lat="44.312698289796174" lon="9.329697835738248"><ele>4.0</ele><time>2026-04-30T09:57:30.997Z</time></trkpt><trkpt lat="44.31272459699031" lon="9.32954752185146"><ele>3.8000000000000003</ele><time>2026-04-30T09:57:31.997Z</time></trkpt><trkpt lat="44.31275324664821" lon="9.32940087194821"><ele>3.6000000000000005</ele><time>2026-04-30T09:57:32.997Z</time></trkpt><trkpt lat="44.312786484747576" lon="9.329264018556222"><ele>3.4</ele><time>2026-04-30T09:57:33.997Z</time></trkpt><trkpt lat="44.312814442272646" lon="9.32914135658821"><ele>3.2</ele><time>2026-04-30T09:57:34.997Z</time></trkpt><trkpt lat="44.31283875451708" lon="9.329018583858954"><ele>3.0</ele><time>2026-04-30T09:57:35.997Z</time></trkpt><trkpt lat="44.31287977644277" lon="9.3288962283737"><ele>3.2</ele><time>2026-04-30T09:57:36.997Z</time></trkpt><trkpt lat="44.31292716191835" lon="9.328781977868905"><ele>3.4</ele><time>2026-04-30T09:57:37.997Z</time></trkpt><trkpt lat="44.31296149610963" lon="9.328664647327185"><ele>3.6000000000000005</ele><time>2026-04-30T09:57:38.997Z</time></trkpt><trkpt lat="44.312995617200755" lon="9.328546254882799"><ele>3.8000000000000003</ele><time>2026-04-30T09:57:39.997Z</time></trkpt><trkpt lat="44.31302704568956" lon="9.328416313366462"><ele>4.0</ele><time>2026-04-30T09:57:40.997Z</time></trkpt><trkpt lat="44.313064573338146" lon="9.328297378781059"><ele>3.9999999999999996</ele><time>2026-04-30T09:57:41.997Z</time></trkpt><trkpt lat="44.31310454956358" lon="9.32818793452135"><ele>4.0</ele><time>2026-04-30T09:57:42.997Z</time></trkpt><trkpt lat="44.31313621617516" lon="9.328084867627119"><ele>4.0</ele><time>2026-04-30T09:57:43.997Z</time></trkpt><trkpt lat="44.31316975122359" lon="9.32799058349696"><ele>4.0</ele><time>2026-04-30T09:57:44.997Z</time></trkpt><trkpt lat="44.31320631045701" lon="9.327903173261742"><ele>3.9999999999999996</ele><time>2026-04-30T09:57:45.997Z</time></trkpt><trkpt lat="44.313243993917006" lon="9.32782265861024"><ele>4.0</ele><time>2026-04-30T09:57:46.997Z</time></trkpt><trkpt lat="44.31327473140239" lon="9.32773966971222"><ele>4.2</ele><time>2026-04-30T09:57:47.997Z</time></trkpt><trkpt lat="44.3133101675" lon="9.327666620381367"><ele>4.4</ele><time>2026-04-30T09:57:48.997Z</time></trkpt><trkpt lat="44.31336303918777" lon="9.327532103256582"><ele>4.6</ele><time>2026-04-30T09:57:50.997Z</time></trkpt><trkpt lat="44.31341786246948" lon="9.32739842707679"><ele>4.8</ele><time>2026-04-30T09:57:52.997Z</time></trkpt><trkpt lat="44.313491702110376" lon="9.32726746071117"><ele>5.0</ele><time>2026-04-30T09:57:54.997Z</time></trkpt><trkpt lat="44.31353046064287" lon="9.327125476757647"><ele>5.0</ele><time>2026-04-30T09:57:56.997Z</time></trkpt><trkpt lat="44.31357832122831" lon="9.327003497151699"><ele>5.0</ele><time>2026-04-30T09:57:58.997Z</time></trkpt><trkpt lat="44.31363015144413" lon="9.32691079848667"><ele>5.0</ele><time>2026-04-30T09:58:00.997Z</time></trkpt><trkpt lat="44.31368121603718" lon="9.326804822243794"><ele>5.0</ele><time>2026-04-30T09:58:02.997Z</time></trkpt><trkpt lat="44.313728610829024" lon="9.326679018898043"><ele>5.0</ele><time>2026-04-30T09:58:04.997Z</time></trkpt><trkpt lat="44.313782662736735" lon="9.326558684496062"><ele>5.0</ele><time>2026-04-30T09:58:06.996Z</time></trkpt><trkpt lat="44.31383226994084" lon="9.326419668851814"><ele>5.0</ele><time>2026-04-30T09:58:08.996Z</time></trkpt><trkpt lat="44.313862626990215" lon="9.32633891104052"><ele>5.0</ele><time>2026-04-30T09:58:09.996Z</time></trkpt><trkpt lat="44.31389859606035" lon="9.326254545322472"><ele>5.0</ele><time>2026-04-30T09:58:10.996Z</time></trkpt><trkpt lat="44.313935602024856" lon="9.32617262290996"><ele>5.0</ele><time>2026-04-30T09:58:11.996Z</time></trkpt><trkpt lat="44.31397666658113" lon="9.326078560777807"><ele>5.0</ele><time>2026-04-30T09:58:12.996Z</time></trkpt><trkpt lat="44.31401797392871" lon="9.325980873327035"><ele>5.0</ele><time>2026-04-30T09:58:13.996Z</time></trkpt><trkpt lat="44.31406935569221" lon="9.3258874788285"><ele>5.0</ele><time>2026-04-30T09:58:14.996Z</time></trkpt><trkpt lat="44.31409855600184" lon="9.325780043523507"><ele>5.0</ele><time>2026-04-30T09:58:15.996Z</time></trkpt><trkpt lat="44.31415384616653" lon="9.32569192790159"><ele>5.0</ele><time>2026-04-30T09:58:16.996Z</time></trkpt><trkpt lat="44.3141989388333" lon="9.325587562924246"><ele>5.0</ele><time>2026-04-30T09:58:17.996Z</time></trkpt><trkpt lat="44.31424671707099" lon="9.325478587530524"><ele>5.0</ele><time>2026-04-30T09:58:18.996Z</time></trkpt><trkpt lat="44.31428529928902" lon="9.325349990813626"><ele>5.0</ele><time>2026-04-30T09:58:19.996Z</time></trkpt><trkpt lat="44.31434093803324" lon="9.325234587517038"><ele>5.0</ele><time>2026-04-30T09:58:20.996Z</time></trkpt><trkpt lat="44.314401251308254" lon="9.325115262243276"><ele>5.0</ele><time>2026-04-30T09:58:21.996Z</time></trkpt><trkpt lat="44.314466897811144" lon="9.32499618328731"><ele>5.0</ele><time>2026-04-30T09:58:22.996Z</time></trkpt><trkpt lat="44.31452953748519" lon="9.324872569240101"><ele>5.0</ele><time>2026-04-30T09:58:23.996Z</time></trkpt><trkpt lat="44.31459399688781" lon="9.324749445203182"><ele>4.8</ele><time>2026-04-30T09:58:24.996Z</time></trkpt><trkpt lat="44.3146588890138" lon="9.324631810891411"><ele>4.6</ele><time>2026-04-30T09:58:25.996Z</time></trkpt><trkpt lat="44.31471266310377" lon="9.324522248921117"><ele>4.4</ele><time>2026-04-30T09:58:26.996Z</time></trkpt><trkpt lat="44.31475847165745" lon="9.324419210434232"><ele>4.2</ele><time>2026-04-30T09:58:27.996Z</time></trkpt><trkpt lat="44.3148090786048" lon="9.32431196066078"><ele>4.0</ele><time>2026-04-30T09:58:28.996Z</time></trkpt><trkpt lat="44.31486333050406" lon="9.324198341169689"><ele>4.2</ele><time>2026-04-30T09:58:29.996Z</time></trkpt><trkpt lat="44.3149179685512" lon="9.324079396333353"><ele>4.4</ele><time>2026-04-30T09:58:30.996Z</time></trkpt><trkpt lat="44.31497405897296" lon="9.323955854437639"><ele>4.6</ele><time>2026-04-30T09:58:31.996Z</time></trkpt><trkpt lat="44.31502218184379" lon="9.323826071060429"><ele>4.8</ele><time>2026-04-30T09:58:32.996Z</time></trkpt><trkpt lat="44.31507858977239" lon="9.323699022145519"><ele>5.0</ele><time>2026-04-30T09:58:33.996Z</time></trkpt><trkpt lat="44.315135874594574" lon="9.323569605641092"><ele>5.0</ele><time>2026-04-30T09:58:34.996Z</time></trkpt><trkpt lat="44.31519151635951" lon="9.323440207877201"><ele>5.0</ele><time>2026-04-30T09:58:35.996Z</time></trkpt><trkpt lat="44.315247070733086" lon="9.323313664702807"><ele>5.0</ele><time>2026-04-30T09:58:36.996Z</time></trkpt><trkpt lat="44.31529695219827" lon="9.323183279192257"><ele>5.0</ele><time>2026-04-30T09:58:37.996Z</time></trkpt><trkpt lat="44.31535178397638" lon="9.323056355619565"><ele>5.0</ele><time>2026-04-30T09:58:38.996Z</time></trkpt><trkpt lat="44.31541727852918" lon="9.322939768258264"><ele>5.2</ele><time>2026-04-30T09:58:39.996Z</time></trkpt><trkpt lat="44.31547331561261" lon="9.322811837426526"><ele>5.4</ele><time>2026-04-30T09:58:40.996Z</time></trkpt><trkpt lat="44.31552694580207" lon="9.322682642530374"><ele>5.6</ele><time>2026-04-30T09:58:41.996Z</time></trkpt><trkpt lat="44.31558316442241" lon="9.322553498284623"><ele>5.8</ele><time>2026-04-30T09:58:42.996Z</time></trkpt><trkpt lat="44.31564137386395" lon="9.322423891582268"><ele>6.0</ele><time>2026-04-30T09:58:43.996Z</time></trkpt><trkpt lat="44.31570032756056" lon="9.32229409779101"><ele>6.6</ele><time>2026-04-30T09:58:44.996Z</time></trkpt><trkpt lat="44.315755133897355" lon="9.322163918130789"><ele>7.199999999999999</ele><time>2026-04-30T09:58:45.996Z</time></trkpt><trkpt lat="44.31581001208079" lon="9.32203677514424"><ele>7.800000000000001</ele><time>2026-04-30T09:58:46.996Z</time></trkpt><trkpt lat="44.31586978483738" lon="9.321912200881084"><ele>8.4</ele><time>2026-04-30T09:58:47.996Z</time></trkpt><trkpt lat="44.315927007791984" lon="9.321788320611667"><ele>9.0</ele><time>2026-04-30T09:58:48.996Z</time></trkpt><trkpt lat="44.315981975222606" lon="9.321668708989403"><ele>9.0</ele><time>2026-04-30T09:58:49.996Z</time></trkpt><trkpt lat="44.31602726284709" lon="9.321539430891047"><ele>9.0</ele><time>2026-04-30T09:58:50.996Z</time></trkpt><trkpt lat="44.31607834706738" lon="9.321411320712011"><ele>9.0</ele><time>2026-04-30T09:58:51.996Z</time></trkpt><trkpt lat="44.316130695686304" lon="9.321295658620736"><ele>9.0</ele><time>2026-04-30T09:58:52.996Z</time></trkpt><trkpt lat="44.316178169267985" lon="9.321189955214086"><ele>9.0</ele><time>2026-04-30T09:58:53.996Z</time></trkpt><trkpt lat="44.316218577398956" lon="9.3211072023706"><ele>9.4</ele><time>2026-04-30T09:58:54.996Z</time></trkpt><trkpt lat="44.316276079132244" lon="9.320995779530646"><ele>9.8</ele><time>2026-04-30T09:58:56.996Z</time></trkpt><trkpt lat="44.31630636115578" lon="9.320903879045126"><ele>10.200000000000001</ele><time>2026-04-30T09:59:03.996Z</time></trkpt><trkpt lat="44.31635693356846" lon="9.320801879411226"><ele>10.600000000000001</ele><time>2026-04-30T09:59:05.996Z</time></trkpt><trkpt lat="44.31640656814521" lon="9.320633605934653"><ele>11.0</ele><time>2026-04-30T09:59:07.996Z</time></trkpt><trkpt lat="44.31643654913194" lon="9.32054215689545"><ele>10.166666666666666</ele><time>2026-04-30T09:59:08.996Z</time></trkpt><trkpt lat="44.316468151316094" lon="9.32045058433443"><ele>9.333333333333332</ele><time>2026-04-30T09:59:09.996Z</time></trkpt><trkpt lat="44.3165070829679" lon="9.320359838477028"><ele>8.5</ele><time>2026-04-30T09:59:10.996Z</time></trkpt><trkpt lat="44.31654786841544" lon="9.320262672207079"><ele>7.666666666666666</ele><time>2026-04-30T09:59:11.996Z</time></trkpt><trkpt lat="44.31659527167999" lon="9.320166478614903"><ele>6.833333333333333</ele><time>2026-04-30T09:59:12.995Z</time></trkpt><trkpt lat="44.31664235852861" lon="9.320068349724014"><ele>6.0</ele><time>2026-04-30T09:59:13.995Z</time></trkpt><trkpt lat="44.31668868255895" lon="9.31996795049732"><ele>6.0</ele><time>2026-04-30T09:59:14.995Z</time></trkpt><trkpt lat="44.31672758821153" lon="9.31985558975912"><ele>6.0</ele><time>2026-04-30T09:59:15.995Z</time></trkpt><trkpt lat="44.316777921905945" lon="9.31975354383424"><ele>6.0</ele><time>2026-04-30T09:59:16.995Z</time></trkpt><trkpt lat="44.31682187676382" lon="9.319647392111593"><ele>6.0</ele><time>2026-04-30T09:59:17.995Z</time></trkpt><trkpt lat="44.31686793149655" lon="9.31954690465493"><ele>6.0</ele><time>2026-04-30T09:59:18.995Z</time></trkpt><trkpt lat="44.316914338411394" lon="9.319444811606719"><ele>6.0</ele><time>2026-04-30T09:59:19.995Z</time></trkpt><trkpt lat="44.31695975682761" lon="9.319342352303982"><ele>5.6</ele><time>2026-04-30T09:59:20.995Z</time></trkpt><trkpt lat="44.317001474514626" lon="9.319235670773855"><ele>5.199999999999999</ele><time>2026-04-30T09:59:21.995Z</time></trkpt><trkpt lat="44.3170619668616" lon="9.319138734116825"><ele>4.800000000000001</ele><time>2026-04-30T09:59:22.995Z</time></trkpt><trkpt lat="44.31710950026647" lon="9.319030321045167"><ele>4.4</ele><time>2026-04-30T09:59:23.995Z</time></trkpt><trkpt lat="44.317146747615006" lon="9.31890729977945"><ele>4.0</ele><time>2026-04-30T09:59:24.995Z</time></trkpt><trkpt lat="44.31719684521933" lon="9.318792978869292"><ele>4.4</ele><time>2026-04-30T09:59:25.995Z</time></trkpt><trkpt lat="44.31726039453979" lon="9.318688866785088"><ele>4.800000000000001</ele><time>2026-04-30T09:59:26.995Z</time></trkpt><trkpt lat="44.317311167369645" lon="9.318573974231104"><ele>5.199999999999999</ele><time>2026-04-30T09:59:27.995Z</time></trkpt><trkpt lat="44.31736199365906" lon="9.318458960625733"><ele>5.6</ele><time>2026-04-30T09:59:28.995Z</time></trkpt><trkpt lat="44.31739761581328" lon="9.318336321227793"><ele>6.0</ele><time>2026-04-30T09:59:29.995Z</time></trkpt><trkpt lat="44.3174486873285" lon="9.318232655300047"><ele>6.0</ele><time>2026-04-30T09:59:30.995Z</time></trkpt><trkpt lat="44.317490760297474" lon="9.318142952451563"><ele>6.0</ele><time>2026-04-30T09:59:31.995Z</time></trkpt><trkpt lat="44.31752423195149" lon="9.318062531621015"><ele>6.0</ele><time>2026-04-30T09:59:32.995Z</time></trkpt><trkpt lat="44.317584469730384" lon="9.317929139266045"><ele>6.0</ele><time>2026-04-30T09:59:34.995Z</time></trkpt><trkpt lat="44.317641514402546" lon="9.31782863278467"><ele>6.0</ele><time>2026-04-30T09:59:36.995Z</time></trkpt><trkpt lat="44.31757641714034" lon="9.317711949265611"><ele>6.0</ele><time>2026-04-30T09:59:38.995Z</time></trkpt><trkpt lat="44.317485461316465" lon="9.317635392879708"><ele>6.0</ele><time>2026-04-30T09:59:40.995Z</time></trkpt><trkpt lat="44.31739614418135" lon="9.31757269218993"><ele>6.0</ele><time>2026-04-30T09:59:42.995Z</time></trkpt><trkpt lat="44.317294096954384" lon="9.317498350788414"><ele>6.0</ele><time>2026-04-30T09:59:44.995Z</time></trkpt><trkpt lat="44.317234889661286" lon="9.317442763491787"><ele>6.0</ele><time>2026-04-30T09:59:45.995Z</time></trkpt><trkpt lat="44.31717021594355" lon="9.317397456768926"><ele>5.833333333333333</ele><time>2026-04-30T09:59:46.995Z</time></trkpt><trkpt lat="44.31711515367529" lon="9.31732924778258"><ele>5.666666666666667</ele><time>2026-04-30T09:59:47.995Z</time></trkpt><trkpt lat="44.31705263149817" lon="9.31727736082992"><ele>5.5</ele><time>2026-04-30T09:59:48.995Z</time></trkpt><trkpt lat="44.31699077092035" lon="9.317227378401991"><ele>5.333333333333334</ele><time>2026-04-30T09:59:49.995Z</time></trkpt><trkpt lat="44.31693566812565" lon="9.317182282758585"><ele>5.166666666666667</ele><time>2026-04-30T09:59:50.995Z</time></trkpt><trkpt lat="44.31685545234653" lon="9.317116636785745"><ele>5.0</ele><time>2026-04-30T09:59:52.995Z</time></trkpt><trkpt lat="44.316780492476425" lon="9.317072412662204"><ele>4.833333333333334</ele><time>2026-04-30T09:59:55.995Z</time></trkpt><trkpt lat="44.31672469277713" lon="9.317010029286386"><ele>4.666666666666667</ele><time>2026-04-30T10:00:08.995Z</time></trkpt><trkpt lat="44.31666615687482" lon="9.31692977755547"><ele>4.5</ele><time>2026-04-30T10:00:20.994Z</time></trkpt><trkpt lat="44.316722436757566" lon="9.316808063233626"><ele>4.333333333333333</ele><time>2026-04-30T10:00:22.994Z</time></trkpt><trkpt lat="44.31677024067024" lon="9.316706913979958"><ele>4.166666666666666</ele><time>2026-04-30T10:00:24.994Z</time></trkpt><trkpt lat="44.31681696939673" lon="9.316608948518317"><ele>4.0</ele><time>2026-04-30T10:00:26.994Z</time></trkpt><trkpt lat="44.31685829964735" lon="9.316522300889714"><ele>4.0</ele><time>2026-04-30T10:00:28.994Z</time></trkpt></trkseg><trkseg><trkpt lat="44.31686468773721" lon="9.316330911738834"><ele>2.0</ele><time>2026-04-30T11:36:03.001Z</time></trkpt><trkpt lat="44.316941987636035" lon="9.316357796257387"><ele>2.0</ele><time>2026-04-30T11:37:01Z</time></trkpt><trkpt lat="44.316879201709334" lon="9.316459822856357"><ele>2.0</ele><time>2026-04-30T11:37:04Z</time></trkpt><trkpt lat="44.31679778694574" lon="9.316595720964479"><ele>2.0</ele><time>2026-04-30T11:37:06Z</time></trkpt><trkpt lat="44.31676004985587" lon="9.316678289120171"><ele>2.0</ele><time>2026-04-30T11:37:08Z</time></trkpt><trkpt lat="44.31671872131701" lon="9.316796119163433"><ele>2.333333333333333</ele><time>2026-04-30T11:37:10Z</time></trkpt><trkpt lat="44.316686614473696" lon="9.316897585651136"><ele>2.6666666666666665</ele><time>2026-04-30T11:37:12Z</time></trkpt><trkpt lat="44.316745521220135" lon="9.316982272101802"><ele>3.0</ele><time>2026-04-30T11:37:15Z</time></trkpt><trkpt lat="44.31682861062065" lon="9.317089605049704"><ele>3.333333333333333</ele><time>2026-04-30T11:37:17Z</time></trkpt><trkpt lat="44.31688076738194" lon="9.317145666322007"><ele>3.6666666666666665</ele><time>2026-04-30T11:37:18Z</time></trkpt><trkpt lat="44.316924311016" lon="9.317226780551291"><ele>4.0</ele><time>2026-04-30T11:37:19Z</time></trkpt><trkpt lat="44.31702507379114" lon="9.317309244468122"><ele>4.166666666666666</ele><time>2026-04-30T11:37:21Z</time></trkpt><trkpt lat="44.31713287604965" lon="9.317397941653832"><ele>4.333333333333333</ele><time>2026-04-30T11:37:23Z</time></trkpt><trkpt lat="44.31719675372409" lon="9.317450951150283"><ele>4.5</ele><time>2026-04-30T11:37:24Z</time></trkpt><trkpt lat="44.31725783972975" lon="9.31750164397118"><ele>4.666666666666667</ele><time>2026-04-30T11:37:25Z</time></trkpt><trkpt lat="44.317322860766346" lon="9.317555481954056"><ele>4.833333333333334</ele><time>2026-04-30T11:37:26Z</time></trkpt><trkpt lat="44.31740767844048" lon="9.31762634351465"><ele>5.0</ele><time>2026-04-30T11:37:28Z</time></trkpt><trkpt lat="44.31751097633935" lon="9.317671278016308"><ele>5.166666666666667</ele><time>2026-04-30T11:37:30Z</time></trkpt><trkpt lat="44.31757300343476" lon="9.317729656940122"><ele>5.333333333333334</ele><time>2026-04-30T11:37:31Z</time></trkpt><trkpt lat="44.31762599131835" lon="9.317781327430573"><ele>5.5</ele><time>2026-04-30T11:37:32Z</time></trkpt><trkpt lat="44.31769919117569" lon="9.317829007559062"><ele>5.666666666666667</ele><time>2026-04-30T11:37:34Z</time></trkpt><trkpt lat="44.31777034821145" lon="9.317720967714017"><ele>5.833333333333333</ele><time>2026-04-30T11:37:36Z</time></trkpt><trkpt lat="44.317808514953576" lon="9.31763265776183"><ele>6.0</ele><time>2026-04-30T11:37:37Z</time></trkpt><trkpt lat="44.317848316946076" lon="9.317536641346107"><ele>6.0</ele><time>2026-04-30T11:37:38Z</time></trkpt><trkpt lat="44.31789059550076" lon="9.317448558070515"><ele>6.0</ele><time>2026-04-30T11:37:39Z</time></trkpt><trkpt lat="44.31793413861575" lon="9.317350946334354"><ele>6.0</ele><time>2026-04-30T11:37:40Z</time></trkpt><trkpt lat="44.317977602438084" lon="9.31725969153025"><ele>6.0</ele><time>2026-04-30T11:37:41Z</time></trkpt><trkpt lat="44.31801681719541" lon="9.317165091558376"><ele>6.0</ele><time>2026-04-30T11:37:42Z</time></trkpt><trkpt lat="44.31806036556674" lon="9.317062264146369"><ele>6.0</ele><time>2026-04-30T11:37:43Z</time></trkpt><trkpt lat="44.318098719407125" lon="9.316967242849206"><ele>6.333333333333333</ele><time>2026-04-30T11:37:44Z</time></trkpt><trkpt lat="44.31814340311127" lon="9.316865325772582"><ele>6.666666666666666</ele><time>2026-04-30T11:37:45Z</time></trkpt><trkpt lat="44.31818174580183" lon="9.316763758907516"><ele>7.0</ele><time>2026-04-30T11:37:46Z</time></trkpt><trkpt lat="44.31821546415218" lon="9.316669949133951"><ele>7.333333333333333</ele><time>2026-04-30T11:37:47Z</time></trkpt><trkpt lat="44.31825472233205" lon="9.316592567163465"><ele>7.666666666666666</ele><time>2026-04-30T11:37:48Z</time></trkpt><trkpt lat="44.31838716647394" lon="9.316537058644604"><ele>8.0</ele><time>2026-04-30T11:37:50Z</time></trkpt><trkpt lat="44.318453969285905" lon="9.316570507396904"><ele>7.999999999999999</ele><time>2026-04-30T11:37:51Z</time></trkpt><trkpt lat="44.318560579614875" lon="9.316642021414356"><ele>8.0</ele><time>2026-04-30T11:37:53Z</time></trkpt><trkpt lat="44.31862010962605" lon="9.316699271206788"><ele>8.0</ele><time>2026-04-30T11:37:54Z</time></trkpt><trkpt lat="44.31868109836959" lon="9.316743462214271"><ele>8.0</ele><time>2026-04-30T11:37:55Z</time></trkpt><trkpt lat="44.31874255223398" lon="9.316784195837531"><ele>7.999999999999999</ele><time>2026-04-30T11:37:56Z</time></trkpt><trkpt lat="44.31880824926825" lon="9.316829107269546"><ele>8.0</ele><time>2026-04-30T11:37:57Z</time></trkpt><trkpt lat="44.31887908457461" lon="9.316870954771565"><ele>8.5</ele><time>2026-04-30T11:37:58Z</time></trkpt><trkpt lat="44.31894014689955" lon="9.316915798938199"><ele>9.0</ele><time>2026-04-30T11:37:59Z</time></trkpt><trkpt lat="44.319018771909406" lon="9.316961659603084"><ele>9.5</ele><time>2026-04-30T11:38:00Z</time></trkpt><trkpt lat="44.31909393367976" lon="9.317002066948449"><ele>10.0</ele><time>2026-04-30T11:38:01Z</time></trkpt><trkpt lat="44.319179943055" lon="9.31704500369625"><ele>10.5</ele><time>2026-04-30T11:38:02Z</time></trkpt><trkpt lat="44.319249107216116" lon="9.3170825262315"><ele>11.0</ele><time>2026-04-30T11:38:03Z</time></trkpt><trkpt lat="44.31931928639578" lon="9.317117935150376"><ele>11.0</ele><time>2026-04-30T11:38:04Z</time></trkpt><trkpt lat="44.31939050679676" lon="9.31715648162458"><ele>11.0</ele><time>2026-04-30T11:38:05Z</time></trkpt><trkpt lat="44.31945600987401" lon="9.317203600562662"><ele>11.0</ele><time>2026-04-30T11:38:06Z</time></trkpt><trkpt lat="44.319523607721685" lon="9.317241392857209"><ele>11.0</ele><time>2026-04-30T11:38:07Z</time></trkpt><trkpt lat="44.31959346538692" lon="9.317281804990277"><ele>11.0</ele><time>2026-04-30T11:38:08Z</time></trkpt><trkpt lat="44.319659866672815" lon="9.317328919493814"><ele>11.0</ele><time>2026-04-30T11:38:09Z</time></trkpt><trkpt lat="44.31973429627052" lon="9.317374394917792"><ele>11.166666666666666</ele><time>2026-04-30T11:38:10Z</time></trkpt><trkpt lat="44.31979535965652" lon="9.317409609419139"><ele>11.333333333333332</ele><time>2026-04-30T11:38:11Z</time></trkpt><trkpt lat="44.31987280481857" lon="9.317439679992777"><ele>11.5</ele><time>2026-04-30T11:38:12Z</time></trkpt><trkpt lat="44.31993937793678" lon="9.317484591561628"><ele>11.666666666666666</ele><time>2026-04-30T11:38:13Z</time></trkpt><trkpt lat="44.32003547715625" lon="9.317555569793116"><ele>11.833333333333334</ele><time>2026-04-30T11:38:15Z</time></trkpt><trkpt lat="44.32013730308672" lon="9.317615704240454"><ele>12.0</ele><time>2026-04-30T11:38:17Z</time></trkpt><trkpt lat="44.32022595314513" lon="9.317570438947467"><ele>12.0</ele><time>2026-04-30T11:38:20Z</time></trkpt><trkpt lat="44.320255292863195" lon="9.317477041675593"><ele>12.0</ele><time>2026-04-30T11:38:21Z</time></trkpt><trkpt lat="44.32026211806443" lon="9.31734991919439"><ele>12.0</ele><time>2026-04-30T11:38:22Z</time></trkpt><trkpt lat="44.320260576146026" lon="9.317243459516193"><ele>12.0</ele><time>2026-04-30T11:38:23Z</time></trkpt><trkpt lat="44.320266111340175" lon="9.317137392597388"><ele>12.0</ele><time>2026-04-30T11:38:24Z</time></trkpt><trkpt lat="44.3202884668132" lon="9.317017944274019"><ele>12.0</ele><time>2026-04-30T11:38:25Z</time></trkpt><trkpt lat="44.32032544356256" lon="9.316895737937815"><ele>11.4</ele><time>2026-04-30T11:38:26Z</time></trkpt><trkpt lat="44.32036259424339" lon="9.316779474937778"><ele>10.799999999999999</ele><time>2026-04-30T11:38:27Z</time></trkpt><trkpt lat="44.32040539291573" lon="9.316674500041229"><ele>10.2</ele><time>2026-04-30T11:38:28Z</time></trkpt><trkpt lat="44.32046260946039" lon="9.316585991361789"><ele>9.6</ele><time>2026-04-30T11:38:29Z</time></trkpt><trkpt lat="44.32053303932245" lon="9.316506587255706"><ele>9.0</ele><time>2026-04-30T11:38:30Z</time></trkpt><trkpt lat="44.320620040658476" lon="9.31644481452449"><ele>9.4</ele><time>2026-04-30T11:38:31Z</time></trkpt><trkpt lat="44.320695271251985" lon="9.31637658000733"><ele>9.8</ele><time>2026-04-30T11:38:32Z</time></trkpt><trkpt lat="44.3207711167168" lon="9.316308938565346"><ele>10.200000000000001</ele><time>2026-04-30T11:38:33Z</time></trkpt><trkpt lat="44.32085443422359" lon="9.316256620480656"><ele>10.600000000000001</ele><time>2026-04-30T11:38:34Z</time></trkpt><trkpt lat="44.32095920667125" lon="9.316253148338747"><ele>11.0</ele><time>2026-04-30T11:38:35Z</time></trkpt><trkpt lat="44.32106554092709" lon="9.316231301460915"><ele>11.0</ele><time>2026-04-30T11:38:36Z</time></trkpt><trkpt lat="44.32115900814937" lon="9.316184842619865"><ele>11.0</ele><time>2026-04-30T11:38:37Z</time></trkpt><trkpt lat="44.321247416559586" lon="9.316079226608297"><ele>11.0</ele><time>2026-04-30T11:38:38Z</time></trkpt><trkpt lat="44.32131473668369" lon="9.315939560409698"><ele>11.0</ele><time>2026-04-30T11:38:39Z</time></trkpt><trkpt lat="44.321363704931194" lon="9.315785970526955"><ele>11.0</ele><time>2026-04-30T11:38:40Z</time></trkpt><trkpt lat="44.321383967158745" lon="9.315617339383069"><ele>11.0</ele><time>2026-04-30T11:38:41Z</time></trkpt><trkpt lat="44.32140921551277" lon="9.315458564142027"><ele>11.0</ele><time>2026-04-30T11:38:42Z</time></trkpt><trkpt lat="44.32142462740104" lon="9.31528107538515"><ele>11.0</ele><time>2026-04-30T11:38:43Z</time></trkpt><trkpt lat="44.32141822987154" lon="9.315100800382139"><ele>10.5</ele><time>2026-04-30T11:38:44Z</time></trkpt><trkpt lat="44.32138476022985" lon="9.314916318162071"><ele>10.0</ele><time>2026-04-30T11:38:45Z</time></trkpt><trkpt lat="44.321344026454675" lon="9.314732127803573"><ele>9.5</ele><time>2026-04-30T11:38:46Z</time></trkpt><trkpt lat="44.3213025557236" lon="9.314561101542866"><ele>9.0</ele><time>2026-04-30T11:38:47Z</time></trkpt><trkpt lat="44.32122433249041" lon="9.314414645748203"><ele>9.2</ele><time>2026-04-30T11:38:48Z</time></trkpt><trkpt lat="44.32119530639313" lon="9.314267550585585"><ele>9.4</ele><time>2026-04-30T11:38:49Z</time></trkpt><trkpt lat="44.32117366936933" lon="9.314146217880998"><ele>9.6</ele><time>2026-04-30T11:38:50Z</time></trkpt><trkpt lat="44.321166565449346" lon="9.314034018825003"><ele>9.8</ele><time>2026-04-30T11:38:51Z</time></trkpt><trkpt lat="44.321180903632644" lon="9.31389726311083"><ele>10.0</ele><time>2026-04-30T11:38:53Z</time></trkpt><trkpt lat="44.32123797142174" lon="9.31381423945868"><ele>10.0</ele><time>2026-04-30T11:38:55Z</time></trkpt><trkpt lat="44.32130521346271" lon="9.313845928592833"><ele>10.0</ele><time>2026-04-30T11:38:56Z</time></trkpt><trkpt lat="44.32135905124594" lon="9.313939033345227"><ele>10.0</ele><time>2026-04-30T11:38:58Z</time></trkpt><trkpt lat="44.32145352475801" lon="9.314219609334742"><ele>10.0</ele><time>2026-04-30T11:39:01Z</time></trkpt><trkpt lat="44.32144222060956" lon="9.314464176387117"><ele>16.5</ele><time>2026-04-30T11:39:02Z</time></trkpt><trkpt lat="44.32149879617641" lon="9.314640540261422"><ele>23.0</ele><time>2026-04-30T11:39:03Z</time></trkpt><trkpt lat="44.32157638319073" lon="9.314801627247997"><ele>29.5</ele><time>2026-04-30T11:39:04Z</time></trkpt><trkpt lat="44.32162862534116" lon="9.315028824234902"><ele>36.0</ele><time>2026-04-30T11:39:05Z</time></trkpt><trkpt lat="44.3217386276814" lon="9.315232441950712"><ele>36.0</ele><time>2026-04-30T11:39:06Z</time></trkpt><trkpt lat="44.32184818748391" lon="9.315378544171072"><ele>36.0</ele><time>2026-04-30T11:39:07Z</time></trkpt><trkpt lat="44.32196209749471" lon="9.315520882727066"><ele>36.0</ele><time>2026-04-30T11:39:08Z</time></trkpt><trkpt lat="44.322062931319536" lon="9.315646508436277"><ele>36.0</ele><time>2026-04-30T11:39:09Z</time></trkpt><trkpt lat="44.32215409652307" lon="9.315770145391793"><ele>33.5</ele><time>2026-04-30T11:39:10Z</time></trkpt><trkpt lat="44.322211140295416" lon="9.31594121927066"><ele>31.0</ele><time>2026-04-30T11:39:11Z</time></trkpt><trkpt lat="44.322251640972304" lon="9.316127887258931"><ele>28.5</ele><time>2026-04-30T11:39:12Z</time></trkpt><trkpt lat="44.32229074457293" lon="9.316316925323662"><ele>26.0</ele><time>2026-04-30T11:39:13Z</time></trkpt><trkpt lat="44.32232931935683" lon="9.316508399602945"><ele>32.25</ele><time>2026-04-30T11:39:14Z</time></trkpt><trkpt lat="44.32234287802226" lon="9.316706314826986"><ele>38.5</ele><time>2026-04-30T11:39:15Z</time></trkpt><trkpt lat="44.322372060626535" lon="9.31690064912605"><ele>44.75</ele><time>2026-04-30T11:39:16Z</time></trkpt><trkpt lat="44.32240102149248" lon="9.317093506859374"><ele>51.0</ele><time>2026-04-30T11:39:17Z</time></trkpt><trkpt lat="44.32243093633149" lon="9.317287639928137"><ele>51.0</ele><time>2026-04-30T11:39:18Z</time></trkpt><trkpt lat="44.32246071687894" lon="9.317478827564843"><ele>51.0</ele><time>2026-04-30T11:39:19Z</time></trkpt><trkpt lat="44.3224900789768" lon="9.3176673288192"><ele>51.0</ele><time>2026-04-30T11:39:20Z</time></trkpt><trkpt lat="44.32257807275395" lon="9.317833388392584"><ele>51.0</ele><time>2026-04-30T11:39:21Z</time></trkpt><trkpt lat="44.32259947017021" lon="9.318004164510578"><ele>51.4</ele><time>2026-04-30T11:39:22Z</time></trkpt><trkpt lat="44.32261692754965" lon="9.318155223859435"><ele>51.8</ele><time>2026-04-30T11:39:23Z</time></trkpt><trkpt lat="44.32263324616321" lon="9.31828252085265"><ele>52.199999999999996</ele><time>2026-04-30T11:39:24Z</time></trkpt><trkpt lat="44.322603445197274" lon="9.318403578064563"><ele>52.599999999999994</ele><time>2026-04-30T11:39:25Z</time></trkpt><trkpt lat="44.32261871667511" lon="9.318503132571156"><ele>53.0</ele><time>2026-04-30T11:39:26Z</time></trkpt><trkpt lat="44.32271395321278" lon="9.318872987798734"><ele>53.0</ele><time>2026-04-30T11:39:27Z</time></trkpt><trkpt lat="44.32287854695263" lon="9.31883182318827"><ele>53.0</ele><time>2026-04-30T11:39:28Z</time></trkpt><trkpt lat="44.32298572202289" lon="9.3186693514436"><ele>53.0</ele><time>2026-04-30T11:39:29Z</time></trkpt><trkpt lat="44.32303922629987" lon="9.318564405034483"><ele>53.0</ele><time>2026-04-30T11:39:30Z</time></trkpt><trkpt lat="44.323099129042276" lon="9.318445964052653"><ele>53.25</ele><time>2026-04-30T11:39:31Z</time></trkpt><trkpt lat="44.323167531401786" lon="9.318310717104143"><ele>53.5</ele><time>2026-04-30T11:39:32Z</time></trkpt><trkpt lat="44.32324523663366" lon="9.31815525367128"><ele>53.75</ele><time>2026-04-30T11:39:33Z</time></trkpt><trkpt lat="44.323313904160685" lon="9.318006497620498"><ele>54.0</ele><time>2026-04-30T11:39:34Z</time></trkpt><trkpt lat="44.32337067390048" lon="9.317844467965307"><ele>56.25</ele><time>2026-04-30T11:39:35Z</time></trkpt><trkpt lat="44.32338335080652" lon="9.317667514212037"><ele>58.5</ele><time>2026-04-30T11:39:36Z</time></trkpt><trkpt lat="44.32336944270157" lon="9.317506799907365"><ele>60.75</ele><time>2026-04-30T11:39:37Z</time></trkpt><trkpt lat="44.32331540325144" lon="9.317368951750886"><ele>63.0</ele><time>2026-04-30T11:39:38Z</time></trkpt><trkpt lat="44.323286178382766" lon="9.317220771875599"><ele>65.25</ele><time>2026-04-30T11:39:39Z</time></trkpt><trkpt lat="44.32321805327075" lon="9.31709139079996"><ele>67.5</ele><time>2026-04-30T11:39:40Z</time></trkpt><trkpt lat="44.32317402793313" lon="9.316945659751768"><ele>69.75</ele><time>2026-04-30T11:39:41Z</time></trkpt><trkpt lat="44.32316244594318" lon="9.316798015102808"><ele>72.0</ele><time>2026-04-30T11:39:42Z</time></trkpt><trkpt lat="44.32316041006286" lon="9.31662645182446"><ele>72.0</ele><time>2026-04-30T11:39:43Z</time></trkpt><trkpt lat="44.32316041006089" lon="9.31643294398374"><ele>72.0</ele><time>2026-04-30T11:39:44Z</time></trkpt><trkpt lat="44.32316081840615" lon="9.316229894648663"><ele>72.0</ele><time>2026-04-30T11:39:45Z</time></trkpt><trkpt lat="44.32316156750603" lon="9.3160194545465"><ele>72.0</ele><time>2026-04-30T11:39:46Z</time></trkpt><trkpt lat="44.323162323697254" lon="9.315807154011376"><ele>75.66666666666667</ele><time>2026-04-30T11:39:47Z</time></trkpt><trkpt lat="44.32316302323116" lon="9.315593964609187"><ele>79.33333333333334</ele><time>2026-04-30T11:39:48Z</time></trkpt><trkpt lat="44.323162603707324" lon="9.315381663449944"><ele>83.0</ele><time>2026-04-30T11:39:49Z</time></trkpt><trkpt lat="44.32317674439889" lon="9.315177125223716"><ele>85.0</ele><time>2026-04-30T11:39:50Z</time></trkpt><trkpt lat="44.3232062280806" lon="9.314980250242142"><ele>87.0</ele><time>2026-04-30T11:39:51Z</time></trkpt><trkpt lat="44.32319976850637" lon="9.314788699947346"><ele>89.0</ele><time>2026-04-30T11:39:52Z</time></trkpt><trkpt lat="44.32320344709302" lon="9.314598592577404"><ele>91.0</ele><time>2026-04-30T11:39:53Z</time></trkpt><trkpt lat="44.32318710509912" lon="9.314381189821416"><ele>93.66666666666666</ele><time>2026-04-30T11:39:54Z</time></trkpt><trkpt lat="44.32316176872346" lon="9.314164622227551"><ele>96.33333333333333</ele><time>2026-04-30T11:39:55Z</time></trkpt><trkpt lat="44.32315084931782" lon="9.313959643704264"><ele>99.0</ele><time>2026-04-30T11:39:56Z</time></trkpt><trkpt lat="44.32310500045915" lon="9.313740245213511"><ele>102.66666666666666</ele><time>2026-04-30T11:39:57Z</time></trkpt><trkpt lat="44.32309374855308" lon="9.313516944387231"><ele>106.33333333333333</ele><time>2026-04-30T11:39:58Z</time></trkpt><trkpt lat="44.32302590177924" lon="9.313302658833"><ele>110.0</ele><time>2026-04-30T11:39:59Z</time></trkpt><trkpt lat="44.323032531519104" lon="9.313069310881948"><ele>113.33333333333333</ele><time>2026-04-30T11:40:00Z</time></trkpt><trkpt lat="44.32304925927933" lon="9.312851673045317"><ele>116.66666666666666</ele><time>2026-04-30T11:40:01Z</time></trkpt><trkpt lat="44.323068475274354" lon="9.312614479974236"><ele>120.0</ele><time>2026-04-30T11:40:02Z</time></trkpt><trkpt lat="44.32307370644598" lon="9.312383764894689"><ele>121.0</ele><time>2026-04-30T11:40:03Z</time></trkpt><trkpt lat="44.323104708281434" lon="9.312156953833243"><ele>122.0</ele><time>2026-04-30T11:40:04Z</time></trkpt><trkpt lat="44.32312361254469" lon="9.311918244220712"><ele>123.0</ele><time>2026-04-30T11:40:05Z</time></trkpt><trkpt lat="44.32314361390628" lon="9.311665680833737"><ele>121.33333333333334</ele><time>2026-04-30T11:40:06Z</time></trkpt><trkpt lat="44.323164829766704" lon="9.311401197966813"><ele>119.66666666666667</ele><time>2026-04-30T11:40:07Z</time></trkpt><trkpt lat="44.32318477176235" lon="9.311152800062239"><ele>118.0</ele><time>2026-04-30T11:40:08Z</time></trkpt><trkpt lat="44.32320530965268" lon="9.310905254482146"><ele>118.0</ele><time>2026-04-30T11:40:09Z</time></trkpt><trkpt lat="44.32322687640471" lon="9.310691834658439"><ele>118.0</ele><time>2026-04-30T11:40:10Z</time></trkpt><trkpt lat="44.32326329998248" lon="9.31051495900322"><ele>118.0</ele><time>2026-04-30T11:40:11Z</time></trkpt><trkpt lat="44.32332292351546" lon="9.310321374964962"><ele>118.0</ele><time>2026-04-30T11:40:12Z</time></trkpt><trkpt lat="44.323392203482044" lon="9.310144831210447"><ele>115.33333333333334</ele><time>2026-04-30T11:40:13Z</time></trkpt><trkpt lat="44.323470123771656" lon="9.309928297959004"><ele>112.66666666666666</ele><time>2026-04-30T11:40:14Z</time></trkpt><trkpt lat="44.32351745753765" lon="9.30968058504202"><ele>110.0</ele><time>2026-04-30T11:40:15Z</time></trkpt><trkpt lat="44.32356208918555" lon="9.309430126236883"><ele>109.0</ele><time>2026-04-30T11:40:16Z</time></trkpt><trkpt lat="44.323606836051226" lon="9.309199123717015"><ele>108.0</ele><time>2026-04-30T11:40:17Z</time></trkpt><trkpt lat="44.32365470184573" lon="9.308976117039567"><ele>107.0</ele><time>2026-04-30T11:40:18Z</time></trkpt><trkpt lat="44.32368745642766" lon="9.308750995527552"><ele>102.25</ele><time>2026-04-30T11:40:19Z</time></trkpt><trkpt lat="44.323726338284" lon="9.30853038181133"><ele>97.5</ele><time>2026-04-30T11:40:20Z</time></trkpt><trkpt lat="44.32383346424498" lon="9.30839853252935"><ele>92.75</ele><time>2026-04-30T11:40:21Z</time></trkpt><trkpt lat="44.3239334657319" lon="9.308253913277575"><ele>88.0</ele><time>2026-04-30T11:40:22Z</time></trkpt><trkpt lat="44.32403632200038" lon="9.308094462207647"><ele>101.0</ele><time>2026-04-30T11:40:23Z</time></trkpt><trkpt lat="44.32414507029588" lon="9.307894698560704"><ele>114.0</ele><time>2026-04-30T11:40:24Z</time></trkpt><trkpt lat="44.324222784928665" lon="9.307682493488732"><ele>127.0</ele><time>2026-04-30T11:40:25Z</time></trkpt><trkpt lat="44.32432617992533" lon="9.307496030112786"><ele>127.0</ele><time>2026-04-30T11:40:26Z</time></trkpt><trkpt lat="44.324371935293925" lon="9.307290848096061"><ele>127.0</ele><time>2026-04-30T11:40:27Z</time></trkpt><trkpt lat="44.32442041172548" lon="9.307075733797493"><ele>127.0</ele><time>2026-04-30T11:40:28Z</time></trkpt><trkpt lat="44.324454230206754" lon="9.306852933196284"><ele>125.0</ele><time>2026-04-30T11:40:29Z</time></trkpt><trkpt lat="44.32450031354163" lon="9.30663725444256"><ele>123.0</ele><time>2026-04-30T11:40:30Z</time></trkpt><trkpt lat="44.32451269845699" lon="9.306415286087093"><ele>121.0</ele><time>2026-04-30T11:40:31Z</time></trkpt><trkpt lat="44.32450733478808" lon="9.306183077516376"><ele>120.33333333333334</ele><time>2026-04-30T11:40:32Z</time></trkpt><trkpt lat="44.324521998982874" lon="9.305943874324408"><ele>119.66666666666666</ele><time>2026-04-30T11:40:33Z</time></trkpt><trkpt lat="44.32453623957109" lon="9.305705941381747"><ele>119.0</ele><time>2026-04-30T11:40:34Z</time></trkpt><trkpt lat="44.324636964404846" lon="9.305481062839217"><ele>117.0</ele><time>2026-04-30T11:40:35Z</time></trkpt><trkpt lat="44.32466310604835" lon="9.305266248607113"><ele>115.0</ele><time>2026-04-30T11:40:36Z</time></trkpt><trkpt lat="44.32469242048066" lon="9.305038771550985"><ele>113.0</ele><time>2026-04-30T11:40:37Z</time></trkpt><trkpt lat="44.32476425386233" lon="9.304833551418184"><ele>128.33333333333331</ele><time>2026-04-30T11:40:38Z</time></trkpt><trkpt lat="44.32483935509806" lon="9.304629072374707"><ele>143.66666666666666</ele><time>2026-04-30T11:40:39Z</time></trkpt><trkpt lat="44.32491209188273" lon="9.304403171146507"><ele>159.0</ele><time>2026-04-30T11:40:40Z</time></trkpt><trkpt lat="44.32497635449503" lon="9.304146200730555"><ele>160.66666666666666</ele><time>2026-04-30T11:40:41Z</time></trkpt><trkpt lat="44.32502799216286" lon="9.303898677926375"><ele>162.33333333333331</ele><time>2026-04-30T11:40:42Z</time></trkpt><trkpt lat="44.32508055401013" lon="9.30364367479191"><ele>164.0</ele><time>2026-04-30T11:40:43Z</time></trkpt><trkpt lat="44.32514727657092" lon="9.30340925711937"><ele>164.0</ele><time>2026-04-30T11:40:44Z</time></trkpt><trkpt lat="44.32516972600865" lon="9.303197932759051"><ele>164.0</ele><time>2026-04-30T11:40:45Z</time></trkpt><trkpt lat="44.325158428778124" lon="9.30296722561541"><ele>164.0</ele><time>2026-04-30T11:40:46Z</time></trkpt><trkpt lat="44.325132837016916" lon="9.302707480998691"><ele>169.33333333333331</ele><time>2026-04-30T11:40:47Z</time></trkpt><trkpt lat="44.3251769032671" lon="9.302459384295668"><ele>174.66666666666666</ele><time>2026-04-30T11:40:48Z</time></trkpt><trkpt lat="44.32524974410662" lon="9.30223172226992"><ele>180.0</ele><time>2026-04-30T11:40:49Z</time></trkpt><trkpt lat="44.3253166844246" lon="9.301993870819867"><ele>176.66666666666666</ele><time>2026-04-30T11:40:50Z</time></trkpt><trkpt lat="44.32537199782737" lon="9.30174836540618"><ele>173.33333333333331</ele><time>2026-04-30T11:40:51Z</time></trkpt><trkpt lat="44.32542962309595" lon="9.30144761205232"><ele>170.0</ele><time>2026-04-30T11:40:52Z</time></trkpt><trkpt lat="44.32588834962041" lon="9.29965105590206"><ele>170.0</ele><time>2026-04-30T11:41:00Z</time></trkpt><trkpt lat="44.32574151723357" lon="9.299261340402033"><ele>170.0</ele><time>2026-04-30T11:41:01Z</time></trkpt><trkpt lat="44.32584409960075" lon="9.298953247370639"><ele>164.66666666666666</ele><time>2026-04-30T11:41:02Z</time></trkpt><trkpt lat="44.32599813658442" lon="9.298748767699665"><ele>159.33333333333334</ele><time>2026-04-30T11:41:03Z</time></trkpt><trkpt lat="44.32606994018341" lon="9.298499808494455"><ele>154.0</ele><time>2026-04-30T11:41:04Z</time></trkpt><trkpt lat="44.32627344243909" lon="9.2983815171798"><ele>154.0</ele><time>2026-04-30T11:41:05Z</time></trkpt><trkpt lat="44.3263780901259" lon="9.298182177083854"><ele>154.0</ele><time>2026-04-30T11:41:06Z</time></trkpt><trkpt lat="44.32650701698266" lon="9.297975507976187"><ele>154.0</ele><time>2026-04-30T11:41:07Z</time></trkpt><trkpt lat="44.32665001751278" lon="9.297800618600803"><ele>162.33333333333334</ele><time>2026-04-30T11:41:08Z</time></trkpt><trkpt lat="44.32673341334083" lon="9.297579334844851"><ele>170.66666666666666</ele><time>2026-04-30T11:41:08.999Z</time></trkpt><trkpt lat="44.32680331144358" lon="9.297350033269295"><ele>179.0</ele><time>2026-04-30T11:41:09.999Z</time></trkpt><trkpt lat="44.326847257780415" lon="9.297099865465622"><ele>179.0</ele><time>2026-04-30T11:41:10.999Z</time></trkpt><trkpt lat="44.32688121470964" lon="9.296874643564701"><ele>179.0</ele><time>2026-04-30T11:41:11.999Z</time></trkpt><trkpt lat="44.32691589139649" lon="9.296646448379652"><ele>179.0</ele><time>2026-04-30T11:41:12.999Z</time></trkpt><trkpt lat="44.32695610765169" lon="9.296418717463142"><ele>175.66666666666666</ele><time>2026-04-30T11:41:13.999Z</time></trkpt><trkpt lat="44.327006130143076" lon="9.29618140648662"><ele>172.33333333333334</ele><time>2026-04-30T11:41:14.999Z</time></trkpt><trkpt lat="44.327077011486374" lon="9.295948849434874"><ele>169.0</ele><time>2026-04-30T11:41:15.999Z</time></trkpt><trkpt lat="44.327134120660354" lon="9.295712667794788"><ele>161.66666666666669</ele><time>2026-04-30T11:41:16.999Z</time></trkpt><trkpt lat="44.327192868338145" lon="9.295477962637307"><ele>154.33333333333334</ele><time>2026-04-30T11:41:17.999Z</time></trkpt><trkpt lat="44.32724325160948" lon="9.295283574200749"><ele>147.0</ele><time>2026-04-30T11:41:18.999Z</time></trkpt><trkpt lat="44.32728945917825" lon="9.295105415619183"><ele>149.6</ele><time>2026-04-30T11:41:19.999Z</time></trkpt><trkpt lat="44.32731980690895" lon="9.294944206021563"><ele>152.2</ele><time>2026-04-30T11:41:20.999Z</time></trkpt><trkpt lat="44.32735758328416" lon="9.294810709892703"><ele>154.8</ele><time>2026-04-30T11:41:21.999Z</time></trkpt><trkpt lat="44.327375653392934" lon="9.294711255699587"><ele>157.4</ele><time>2026-04-30T11:41:22.999Z</time></trkpt><trkpt lat="44.32730079429271" lon="9.29469398231361"><ele>160.0</ele><time>2026-04-30T11:41:23.999Z</time></trkpt><trkpt lat="44.32722560168681" lon="9.29462045226227"><ele>160.0</ele><time>2026-04-30T11:41:26.999Z</time></trkpt><trkpt lat="44.327179028627405" lon="9.294469125219548"><ele>160.0</ele><time>2026-04-30T11:41:55.999Z</time></trkpt><trkpt lat="44.32714356992097" lon="9.294343291334211"><ele>160.0</ele><time>2026-04-30T11:41:56.999Z</time></trkpt><trkpt lat="44.32714378006113" lon="9.294196325630981"><ele>160.0</ele><time>2026-04-30T11:41:57.999Z</time></trkpt><trkpt lat="44.32714505241647" lon="9.29400040815157"><ele>157.0</ele><time>2026-04-30T11:41:58.999Z</time></trkpt><trkpt lat="44.32722529516937" lon="9.293861017599259"><ele>154.0</ele><time>2026-04-30T11:41:59.999Z</time></trkpt><trkpt lat="44.32729721431923" lon="9.293701877184755"><ele>151.0</ele><time>2026-04-30T11:42:00.999Z</time></trkpt><trkpt lat="44.32733339748097" lon="9.293499351112125"><ele>148.0</ele><time>2026-04-30T11:42:01.999Z</time></trkpt><trkpt lat="44.327426399224976" lon="9.293326061798389"><ele>154.75</ele><time>2026-04-30T11:42:02.999Z</time></trkpt><trkpt lat="44.32751621830496" lon="9.293146022106272"><ele>161.5</ele><time>2026-04-30T11:42:03.999Z</time></trkpt><trkpt lat="44.3275829845062" lon="9.292975373653766"><ele>168.25</ele><time>2026-04-30T11:42:04.999Z</time></trkpt><trkpt lat="44.32767404576486" lon="9.292806623081837"><ele>175.0</ele><time>2026-04-30T11:42:05.999Z</time></trkpt><trkpt lat="44.32776200887407" lon="9.292623427394409"><ele>175.0</ele><time>2026-04-30T11:42:06.999Z</time></trkpt><trkpt lat="44.32784048930523" lon="9.292423258720904"><ele>175.0</ele><time>2026-04-30T11:42:07.999Z</time></trkpt><trkpt lat="44.327901603678036" lon="9.292185314566925"><ele>175.0</ele><time>2026-04-30T11:42:08.999Z</time></trkpt><trkpt lat="44.327969018619186" lon="9.29194915130574"><ele>172.0</ele><time>2026-04-30T11:42:09.999Z</time></trkpt><trkpt lat="44.32801705538057" lon="9.29173229422199"><ele>169.0</ele><time>2026-04-30T11:42:10.999Z</time></trkpt><trkpt lat="44.328055857812345" lon="9.291548032393344"><ele>166.0</ele><time>2026-04-30T11:42:11.999Z</time></trkpt><trkpt lat="44.328090677297325" lon="9.29134251798372"><ele>164.0</ele><time>2026-04-30T11:42:12.999Z</time></trkpt><trkpt lat="44.328078461465104" lon="9.291107053627686"><ele>162.0</ele><time>2026-04-30T11:42:13.999Z</time></trkpt><trkpt lat="44.32807491461189" lon="9.290902401600217"><ele>160.0</ele><time>2026-04-30T11:42:14.999Z</time></trkpt><trkpt lat="44.328025419417" lon="9.290713860680865"><ele>163.4</ele><time>2026-04-30T11:42:15.999Z</time></trkpt><trkpt lat="44.32802121237509" lon="9.290550624763094"><ele>166.8</ele><time>2026-04-30T11:42:16.999Z</time></trkpt><trkpt lat="44.32803090568718" lon="9.290391069323194"><ele>170.2</ele><time>2026-04-30T11:42:17.999Z</time></trkpt><trkpt lat="44.32804098069653" lon="9.290283363023798"><ele>173.6</ele><time>2026-04-30T11:42:18.999Z</time></trkpt><trkpt lat="44.32807284429439" lon="9.290136436776141"><ele>177.0</ele><time>2026-04-30T11:42:19.999Z</time></trkpt><trkpt lat="44.32817028448708" lon="9.290043828490008"><ele>177.0</ele><time>2026-04-30T11:42:20.999Z</time></trkpt><trkpt lat="44.32828378689095" lon="9.28995430292341"><ele>177.0</ele><time>2026-04-30T11:42:21.999Z</time></trkpt><trkpt lat="44.328417612518685" lon="9.289883138184837"><ele>177.0</ele><time>2026-04-30T11:42:22.999Z</time></trkpt><trkpt lat="44.3285652041335" lon="9.28981892048349"><ele>177.0</ele><time>2026-04-30T11:42:23.999Z</time></trkpt><trkpt lat="44.32870882140601" lon="9.289740617259843"><ele>179.0</ele><time>2026-04-30T11:42:24.999Z</time></trkpt><trkpt lat="44.32882847647531" lon="9.289657414335773"><ele>181.0</ele><time>2026-04-30T11:42:25.999Z</time></trkpt><trkpt lat="44.328898553590214" lon="9.28948390459497"><ele>183.0</ele><time>2026-04-30T11:42:26.999Z</time></trkpt><trkpt lat="44.32896467974779" lon="9.289320080648572"><ele>185.0</ele><time>2026-04-30T11:42:27.999Z</time></trkpt><trkpt lat="44.32898264922407" lon="9.289113305436688"><ele>185.0</ele><time>2026-04-30T11:42:28.999Z</time></trkpt><trkpt lat="44.32905525648042" lon="9.288947926776252"><ele>185.0</ele><time>2026-04-30T11:42:29.999Z</time></trkpt><trkpt lat="44.32913442378497" lon="9.288788943777707"><ele>185.0</ele><time>2026-04-30T11:42:30.999Z</time></trkpt><trkpt lat="44.32920882082229" lon="9.288613978034931"><ele>185.0</ele><time>2026-04-30T11:42:31.999Z</time></trkpt><trkpt lat="44.329265799664086" lon="9.28845243620763"><ele>179.8</ele><time>2026-04-30T11:42:32.999Z</time></trkpt><trkpt lat="44.329320864591146" lon="9.288314635191151"><ele>174.6</ele><time>2026-04-30T11:42:33.999Z</time></trkpt><trkpt lat="44.32938706742852" lon="9.288187676187805"><ele>169.4</ele><time>2026-04-30T11:42:34.999Z</time></trkpt><trkpt lat="44.32945827073303" lon="9.288097594822295"><ele>164.2</ele><time>2026-04-30T11:42:35.999Z</time></trkpt><trkpt lat="44.3295544950964" lon="9.28799803341768"><ele>159.0</ele><time>2026-04-30T11:42:36.999Z</time></trkpt><trkpt lat="44.3296793547691" lon="9.287890630254354"><ele>158.5</ele><time>2026-04-30T11:42:37.999Z</time></trkpt><trkpt lat="44.329811851688476" lon="9.287808431236217"><ele>158.0</ele><time>2026-04-30T11:42:39.006Z</time></trkpt><trkpt lat="44.32995108604557" lon="9.287755559053007"><ele>157.5</ele><time>2026-04-30T11:42:40.006Z</time></trkpt><trkpt lat="44.33007654017087" lon="9.287810314635916"><ele>157.0</ele><time>2026-04-30T11:42:41.006Z</time></trkpt><trkpt lat="44.3302016142913" lon="9.287870667737488"><ele>157.0</ele><time>2026-04-30T11:42:42.006Z</time></trkpt><trkpt lat="44.33034774095863" lon="9.287964185582819"><ele>157.0</ele><time>2026-04-30T11:42:43.006Z</time></trkpt><trkpt lat="44.33050993241089" lon="9.287995897419883"><ele>157.0</ele><time>2026-04-30T11:42:44.006Z</time></trkpt><trkpt lat="44.33065339962069" lon="9.287957012954267"><ele>158.0</ele><time>2026-04-30T11:42:45.005Z</time></trkpt><trkpt lat="44.33079223163336" lon="9.287878287190562"><ele>159.0</ele><time>2026-04-30T11:42:46.005Z</time></trkpt><trkpt lat="44.3309101657937" lon="9.287752536442058"><ele>160.0</ele><time>2026-04-30T11:42:47.005Z</time></trkpt><trkpt lat="44.33100062062007" lon="9.28755950546684"><ele>160.0</ele><time>2026-04-30T11:42:48.005Z</time></trkpt><trkpt lat="44.33108370025112" lon="9.287346477442966"><ele>160.0</ele><time>2026-04-30T11:42:49.004Z</time></trkpt><trkpt lat="44.33115790528887" lon="9.287147047039774"><ele>160.0</ele><time>2026-04-30T11:42:50.004Z</time></trkpt><trkpt lat="44.331180933437885" lon="9.28691602980387"><ele>154.0</ele><time>2026-04-30T11:42:51.004Z</time></trkpt><trkpt lat="44.33120241948435" lon="9.286682963363695"><ele>148.0</ele><time>2026-04-30T11:42:52.004Z</time></trkpt><trkpt lat="44.331228347896" lon="9.286467950672176"><ele>142.0</ele><time>2026-04-30T11:42:53.003Z</time></trkpt><trkpt lat="44.33125896191118" lon="9.286276663418906"><ele>140.75</ele><time>2026-04-30T11:42:54.003Z</time></trkpt><trkpt lat="44.33131455005611" lon="9.286143081425958"><ele>139.5</ele><time>2026-04-30T11:42:55.003Z</time></trkpt><trkpt lat="44.33139019264721" lon="9.285967011602112"><ele>138.25</ele><time>2026-04-30T11:42:56.003Z</time></trkpt><trkpt lat="44.33145750391145" lon="9.285773677154673"><ele>137.0</ele><time>2026-04-30T11:42:57.003Z</time></trkpt><trkpt lat="44.33153521270009" lon="9.285581482696863"><ele>137.0</ele><time>2026-04-30T11:42:58.002Z</time></trkpt><trkpt lat="44.33156397735003" lon="9.285406274141483"><ele>137.0</ele><time>2026-04-30T11:42:59.002Z</time></trkpt><trkpt lat="44.33159285319764" lon="9.285251562301326"><ele>137.0</ele><time>2026-04-30T11:43:00.002Z</time></trkpt><trkpt lat="44.33163448948067" lon="9.285120995987782"><ele>137.0</ele><time>2026-04-30T11:43:01.002Z</time></trkpt><trkpt lat="44.33170002002622" lon="9.285036756988072"><ele>137.0</ele><time>2026-04-30T11:43:02.002Z</time></trkpt><trkpt lat="44.33179298918071" lon="9.284983024450215"><ele>137.0</ele><time>2026-04-30T11:43:03.002Z</time></trkpt><trkpt lat="44.33190253808227" lon="9.284931997959106"><ele>137.0</ele><time>2026-04-30T11:43:04.002Z</time></trkpt><trkpt lat="44.33202637486826" lon="9.284866723897474"><ele>137.0</ele><time>2026-04-30T11:43:05.002Z</time></trkpt><trkpt lat="44.33216434929194" lon="9.284784742679808"><ele>137.0</ele><time>2026-04-30T11:43:06.001Z</time></trkpt><trkpt lat="44.33229972941551" lon="9.284718321866663"><ele>138.5</ele><time>2026-04-30T11:43:07.001Z</time></trkpt><trkpt lat="44.33242613328782" lon="9.284666685840966"><ele>140.0</ele><time>2026-04-30T11:43:08.001Z</time></trkpt><trkpt lat="44.332553437097694" lon="9.284633087096452"><ele>141.5</ele><time>2026-04-30T11:43:09.001Z</time></trkpt><trkpt lat="44.3326453501249" lon="9.284531744398409"><ele>143.0</ele><time>2026-04-30T11:43:10.001Z</time></trkpt><trkpt lat="44.332701870762634" lon="9.284449684321679"><ele>143.0</ele><time>2026-04-30T11:43:11.001Z</time></trkpt><trkpt lat="44.33271777219605" lon="9.284348956303486"><ele>143.0</ele><time>2026-04-30T11:43:12.001Z</time></trkpt><trkpt lat="44.33268001959725" lon="9.284211739714573"><ele>143.0</ele><time>2026-04-30T11:43:13.001Z</time></trkpt><trkpt lat="44.332598995708366" lon="9.284081056870098"><ele>143.0</ele><time>2026-04-30T11:43:14.001Z</time></trkpt><trkpt lat="44.332506608950005" lon="9.283963319929091"><ele>143.0</ele><time>2026-04-30T11:43:15.001Z</time></trkpt><trkpt lat="44.33243372112825" lon="9.283799000327194"><ele>142.5</ele><time>2026-04-30T11:43:16.001Z</time></trkpt><trkpt lat="44.332356182400055" lon="9.283643365923991"><ele>142.0</ele><time>2026-04-30T11:43:17.001Z</time></trkpt><trkpt lat="44.3322892403664" lon="9.283479384979698"><ele>141.5</ele><time>2026-04-30T11:43:18.001Z</time></trkpt><trkpt lat="44.3322437860539" lon="9.28330215673377"><ele>141.0</ele><time>2026-04-30T11:43:19.001Z</time></trkpt><trkpt lat="44.332205365940645" lon="9.283112661061484"><ele>129.25</ele><time>2026-04-30T11:43:20Z</time></trkpt><trkpt lat="44.33217690372523" lon="9.282928785312079"><ele>117.5</ele><time>2026-04-30T11:43:21Z</time></trkpt><trkpt lat="44.3321519810062" lon="9.2827721157441"><ele>105.75</ele><time>2026-04-30T11:43:22Z</time></trkpt><trkpt lat="44.332148686419735" lon="9.282613419000361"><ele>94.0</ele><time>2026-04-30T11:43:23Z</time></trkpt><trkpt lat="44.33221071435743" lon="9.28251171145714"><ele>102.75</ele><time>2026-04-30T11:43:24Z</time></trkpt><trkpt lat="44.33230699060495" lon="9.28237849365876"><ele>111.5</ele><time>2026-04-30T11:43:26Z</time></trkpt><trkpt lat="44.33240980562043" lon="9.28232559724762"><ele>120.25</ele><time>2026-04-30T11:43:27Z</time></trkpt><trkpt lat="44.33256791732567" lon="9.282289379405164"><ele>129.0</ele><time>2026-04-30T11:43:28Z</time></trkpt><trkpt lat="44.33275388177145" lon="9.28231762952758"><ele>129.0</ele><time>2026-04-30T11:43:29Z</time></trkpt><trkpt lat="44.332905722881385" lon="9.282347504338958"><ele>129.0</ele><time>2026-04-30T11:43:30Z</time></trkpt><trkpt lat="44.33304877698304" lon="9.28235869906883"><ele>129.0</ele><time>2026-04-30T11:43:31Z</time></trkpt><trkpt lat="44.333183168825826" lon="9.282435337143234"><ele>129.0</ele><time>2026-04-30T11:43:32Z</time></trkpt><trkpt lat="44.33331560481305" lon="9.28243934117575"><ele>128.4</ele><time>2026-04-30T11:43:33Z</time></trkpt><trkpt lat="44.33341257076116" lon="9.282406118176397"><ele>127.80000000000001</ele><time>2026-04-30T11:43:34Z</time></trkpt><trkpt lat="44.33350766084666" lon="9.28228782000622"><ele>127.19999999999999</ele><time>2026-04-30T11:43:35Z</time></trkpt><trkpt lat="44.33352460473418" lon="9.282154367817851"><ele>126.6</ele><time>2026-04-30T11:43:36Z</time></trkpt><trkpt lat="44.33350315234484" lon="9.281986663497277"><ele>126.0</ele><time>2026-04-30T11:43:37Z</time></trkpt><trkpt lat="44.33342438142508" lon="9.281853540441826"><ele>126.0</ele><time>2026-04-30T11:43:38Z</time></trkpt><trkpt lat="44.33331816756043" lon="9.281712385377519"><ele>126.0</ele><time>2026-04-30T11:43:39Z</time></trkpt><trkpt lat="44.333212988300915" lon="9.281549243850984"><ele>126.0</ele><time>2026-04-30T11:43:40Z</time></trkpt><trkpt lat="44.333111063292705" lon="9.281396774606062"><ele>117.0</ele><time>2026-04-30T11:43:41Z</time></trkpt><trkpt lat="44.33302091159806" lon="9.281219637913447"><ele>108.0</ele><time>2026-04-30T11:43:42Z</time></trkpt><trkpt lat="44.332933977425135" lon="9.28100634895323"><ele>99.0</ele><time>2026-04-30T11:43:43Z</time></trkpt><trkpt lat="44.3328102882164" lon="9.280803934486592"><ele>99.0</ele><time>2026-04-30T11:43:44Z</time></trkpt><trkpt lat="44.332677090237205" lon="9.280631339273475"><ele>99.0</ele><time>2026-04-30T11:43:45Z</time></trkpt><trkpt lat="44.33253608377338" lon="9.280478177674686"><ele>99.0</ele><time>2026-04-30T11:43:46Z</time></trkpt><trkpt lat="44.33242245269415" lon="9.280315152048011"><ele>95.66666666666667</ele><time>2026-04-30T11:43:47Z</time></trkpt><trkpt lat="44.33229992629784" lon="9.280191833810605"><ele>92.33333333333334</ele><time>2026-04-30T11:43:48Z</time></trkpt><trkpt lat="44.33214626394054" lon="9.280096408304818"><ele>89.0</ele><time>2026-04-30T11:43:49Z</time></trkpt><trkpt lat="44.33198608888625" lon="9.279946556625244"><ele>89.0</ele><time>2026-04-30T11:43:50Z</time></trkpt><trkpt lat="44.33185000231209" lon="9.279905249801025"><ele>89.0</ele><time>2026-04-30T11:43:51Z</time></trkpt><trkpt lat="44.3317212606671" lon="9.279859796415328"><ele>89.0</ele><time>2026-04-30T11:43:52Z</time></trkpt><trkpt lat="44.331603848128545" lon="9.279767558267455"><ele>89.0</ele><time>2026-04-30T11:43:52.999Z</time></trkpt><trkpt lat="44.33146997504004" lon="9.27968337652825"><ele>87.75</ele><time>2026-04-30T11:43:53.999Z</time></trkpt><trkpt lat="44.33131485208394" lon="9.27961598448142"><ele>86.5</ele><time>2026-04-30T11:43:54.999Z</time></trkpt><trkpt lat="44.33118587644069" lon="9.27957511685346"><ele>85.25</ele><time>2026-04-30T11:43:55.999Z</time></trkpt><trkpt lat="44.331094216409504" lon="9.279523907250166"><ele>84.0</ele><time>2026-04-30T11:43:56.999Z</time></trkpt><trkpt lat="44.33099928036303" lon="9.27949811256675"><ele>84.0</ele><time>2026-04-30T11:43:57.999Z</time></trkpt><trkpt lat="44.330918972179795" lon="9.279456183768344"><ele>84.0</ele><time>2026-04-30T11:43:58.999Z</time></trkpt><trkpt lat="44.33084832101038" lon="9.279421961074881"><ele>84.0</ele><time>2026-04-30T11:43:59.999Z</time></trkpt><trkpt lat="44.330821351109435" lon="9.279252222136465"><ele>84.0</ele><time>2026-04-30T11:44:01.999Z</time></trkpt><trkpt lat="44.330860707617894" lon="9.279120262081316"><ele>84.0</ele><time>2026-04-30T11:44:02.999Z</time></trkpt><trkpt lat="44.33093897016864" lon="9.279002882178222"><ele>79.0</ele><time>2026-04-30T11:44:03.999Z</time></trkpt><trkpt lat="44.33101889231923" lon="9.278881855085029"><ele>74.0</ele><time>2026-04-30T11:44:04.999Z</time></trkpt><trkpt lat="44.33110428223663" lon="9.278763849616602"><ele>69.0</ele><time>2026-04-30T11:44:05.999Z</time></trkpt><trkpt lat="44.33119875052505" lon="9.278659405388193"><ele>64.0</ele><time>2026-04-30T11:44:06.999Z</time></trkpt><trkpt lat="44.33129767301374" lon="9.27858530055606"><ele>73.75</ele><time>2026-04-30T11:44:07.999Z</time></trkpt><trkpt lat="44.33141384846779" lon="9.27850702793234"><ele>83.5</ele><time>2026-04-30T11:44:08.999Z</time></trkpt><trkpt lat="44.33153103350565" lon="9.278403509654117"><ele>93.25</ele><time>2026-04-30T11:44:09.999Z</time></trkpt><trkpt lat="44.33161706513344" lon="9.278281916945156"><ele>103.0</ele><time>2026-04-30T11:44:10.999Z</time></trkpt><trkpt lat="44.331756658475584" lon="9.278133989365061"><ele>92.5</ele><time>2026-04-30T11:44:11.999Z</time></trkpt><trkpt lat="44.33184497126501" lon="9.278035880530926"><ele>82.0</ele><time>2026-04-30T11:44:12.999Z</time></trkpt><trkpt lat="44.33196574752688" lon="9.277898770912925"><ele>71.5</ele><time>2026-04-30T11:44:13.999Z</time></trkpt><trkpt lat="44.33205849812457" lon="9.277782148318009"><ele>61.0</ele><time>2026-04-30T11:44:14.999Z</time></trkpt><trkpt lat="44.33215496103612" lon="9.27766337636686"><ele>60.5</ele><time>2026-04-30T11:44:15.999Z</time></trkpt><trkpt lat="44.33225370476651" lon="9.277546452399237"><ele>60.0</ele><time>2026-04-30T11:44:16.999Z</time></trkpt><trkpt lat="44.332358950317605" lon="9.277425428411242"><ele>59.5</ele><time>2026-04-30T11:44:17.999Z</time></trkpt><trkpt lat="44.3324584546674" lon="9.27731983984058"><ele>59.0</ele><time>2026-04-30T11:44:18.999Z</time></trkpt><trkpt lat="44.33256427553732" lon="9.277209688498129"><ele>59.0</ele><time>2026-04-30T11:44:19.999Z</time></trkpt><trkpt lat="44.33267545141801" lon="9.277124937493236"><ele>59.0</ele><time>2026-04-30T11:44:20.999Z</time></trkpt><trkpt lat="44.33280140781808" lon="9.277011167404918"><ele>59.0</ele><time>2026-04-30T11:44:21.999Z</time></trkpt><trkpt lat="44.332918137877684" lon="9.276930292407744"><ele>59.0</ele><time>2026-04-30T11:44:22.999Z</time></trkpt><trkpt lat="44.333034788877335" lon="9.2768986720112"><ele>62.400000000000006</ele><time>2026-04-30T11:44:23.999Z</time></trkpt><trkpt lat="44.333130937701505" lon="9.276921612031574"><ele>65.80000000000001</ele><time>2026-04-30T11:44:24.999Z</time></trkpt><trkpt lat="44.33322088864528" lon="9.277035618131789"><ele>69.19999999999999</ele><time>2026-04-30T11:44:25.999Z</time></trkpt><trkpt lat="44.33331925197076" lon="9.277122928994649"><ele>72.6</ele><time>2026-04-30T11:44:26.999Z</time></trkpt><trkpt lat="44.33341730267497" lon="9.277201751124048"><ele>76.0</ele><time>2026-04-30T11:44:27.999Z</time></trkpt><trkpt lat="44.33352253923855" lon="9.277208686987143"><ele>76.0</ele><time>2026-04-30T11:44:28.999Z</time></trkpt><trkpt lat="44.33361654433895" lon="9.277162566203529"><ele>76.0</ele><time>2026-04-30T11:44:29.999Z</time></trkpt><trkpt lat="44.33371662891996" lon="9.277009018491071"><ele>76.0</ele><time>2026-04-30T11:44:30.999Z</time></trkpt><trkpt lat="44.333796492492" lon="9.276805107589485"><ele>76.0</ele><time>2026-04-30T11:44:31.999Z</time></trkpt><trkpt lat="44.333816694281815" lon="9.27660896536177"><ele>71.66666666666666</ele><time>2026-04-30T11:44:32.999Z</time></trkpt><trkpt lat="44.33383226010523" lon="9.27639056137711"><ele>67.33333333333333</ele><time>2026-04-30T11:44:33.999Z</time></trkpt><trkpt lat="44.33383580997139" lon="9.27618077360933"><ele>63.0</ele><time>2026-04-30T11:44:34.999Z</time></trkpt><trkpt lat="44.33385045469129" lon="9.275951374464958"><ele>63.0</ele><time>2026-04-30T11:44:35.999Z</time></trkpt><trkpt lat="44.33388430379691" lon="9.275727460631712"><ele>63.0</ele><time>2026-04-30T11:44:36.999Z</time></trkpt><trkpt lat="44.3339190512704" lon="9.275499483275079"><ele>63.0</ele><time>2026-04-30T11:44:37.999Z</time></trkpt><trkpt lat="44.33393120475661" lon="9.275264557817232"><ele>68.25</ele><time>2026-04-30T11:44:38.999Z</time></trkpt><trkpt lat="44.333952169881734" lon="9.275073528402794"><ele>73.5</ele><time>2026-04-30T11:44:39.999Z</time></trkpt><trkpt lat="44.33395771634038" lon="9.274893473150254"><ele>78.75</ele><time>2026-04-30T11:44:40.999Z</time></trkpt><trkpt lat="44.33394178829481" lon="9.27472039024648"><ele>84.0</ele><time>2026-04-30T11:44:41.999Z</time></trkpt><trkpt lat="44.33394501942966" lon="9.274525323604298"><ele>84.0</ele><time>2026-04-30T11:44:42.999Z</time></trkpt><trkpt lat="44.33396721704094" lon="9.274319233190258"><ele>84.0</ele><time>2026-04-30T11:44:43.999Z</time></trkpt><trkpt lat="44.33396352172032" lon="9.274136233106319"><ele>84.0</ele><time>2026-04-30T11:44:44.999Z</time></trkpt><trkpt lat="44.33402155891652" lon="9.27399523459137"><ele>84.0</ele><time>2026-04-30T11:44:45.999Z</time></trkpt><trkpt lat="44.33408153831755" lon="9.273837700743378"><ele>81.5</ele><time>2026-04-30T11:44:46.999Z</time></trkpt><trkpt lat="44.334140590278274" lon="9.273668267687022"><ele>79.0</ele><time>2026-04-30T11:44:47.999Z</time></trkpt><trkpt lat="44.33418491700102" lon="9.273487858418168"><ele>76.5</ele><time>2026-04-30T11:44:48.999Z</time></trkpt><trkpt lat="44.33422185099409" lon="9.273310676219364"><ele>74.0</ele><time>2026-04-30T11:44:49.999Z</time></trkpt><trkpt lat="44.33425948827953" lon="9.273137126222508"><ele>67.33333333333334</ele><time>2026-04-30T11:44:50.999Z</time></trkpt><trkpt lat="44.33431127869884" lon="9.272917273751844"><ele>60.66666666666667</ele><time>2026-04-30T11:44:51.999Z</time></trkpt><trkpt lat="44.33431146868978" lon="9.272671065600905"><ele>54.0</ele><time>2026-04-30T11:44:52.999Z</time></trkpt><trkpt lat="44.33435638723329" lon="9.272508812736397"><ele>54.0</ele><time>2026-04-30T11:44:53.999Z</time></trkpt><trkpt lat="44.334404335479356" lon="9.272344875628992"><ele>54.0</ele><time>2026-04-30T11:44:54.999Z</time></trkpt><trkpt lat="44.33444907310857" lon="9.272187632806975"><ele>54.0</ele><time>2026-04-30T11:44:55.998Z</time></trkpt><trkpt lat="44.334590877844036" lon="9.272156002054782"><ele>54.0</ele><time>2026-04-30T11:44:56.998Z</time></trkpt><trkpt lat="44.33468785791693" lon="9.272022658732045"><ele>51.75</ele><time>2026-04-30T11:44:57.998Z</time></trkpt><trkpt lat="44.33478206976474" lon="9.271890570601887"><ele>49.5</ele><time>2026-04-30T11:44:58.998Z</time></trkpt><trkpt lat="44.33487645019245" lon="9.271714032913591"><ele>47.25</ele><time>2026-04-30T11:44:59.998Z</time></trkpt><trkpt lat="44.33495107292182" lon="9.271554186140676"><ele>45.0</ele><time>2026-04-30T11:45:00.998Z</time></trkpt><trkpt lat="44.33502618782514" lon="9.2713959831775"><ele>45.0</ele><time>2026-04-30T11:45:01.998Z</time></trkpt><trkpt lat="44.335125064319485" lon="9.271251349820844"><ele>45.0</ele><time>2026-04-30T11:45:02.998Z</time></trkpt><trkpt lat="44.335228442086176" lon="9.27108367866352"><ele>45.0</ele><time>2026-04-30T11:45:03.998Z</time></trkpt><trkpt lat="44.335305924480515" lon="9.270940304424737"><ele>45.0</ele><time>2026-04-30T11:45:04.998Z</time></trkpt><trkpt lat="44.33540033333333" lon="9.270819560397465"><ele>45.0</ele><time>2026-04-30T11:45:05.998Z</time></trkpt><trkpt lat="44.33552533518319" lon="9.270750901453878"><ele>45.0</ele><time>2026-04-30T11:45:06.998Z</time></trkpt><trkpt lat="44.33566902008292" lon="9.27074084222278"><ele>45.0</ele><time>2026-04-30T11:45:07.998Z</time></trkpt><trkpt lat="44.33578553328155" lon="9.270707563541874"><ele>45.0</ele><time>2026-04-30T11:45:08.998Z</time></trkpt><trkpt lat="44.33589510863776" lon="9.270695478211408"><ele>49.0</ele><time>2026-04-30T11:45:09.998Z</time></trkpt><trkpt lat="44.33599742604151" lon="9.270703428551359"><ele>53.0</ele><time>2026-04-30T11:45:10.998Z</time></trkpt><trkpt lat="44.33606580628256" lon="9.27069358370942"><ele>57.0</ele><time>2026-04-30T11:45:11.998Z</time></trkpt><trkpt lat="44.33617067089625" lon="9.270734553765381"><ele>61.0</ele><time>2026-04-30T11:45:12.998Z</time></trkpt><trkpt lat="44.33630384802027" lon="9.270788631105807"><ele>65.0</ele><time>2026-04-30T11:45:13.998Z</time></trkpt><trkpt lat="44.33639511026631" lon="9.270756362098476"><ele>64.2</ele><time>2026-04-30T11:45:14.998Z</time></trkpt><trkpt lat="44.33648399429828" lon="9.27076086192458"><ele>63.4</ele><time>2026-04-30T11:45:15.998Z</time></trkpt><trkpt lat="44.336572994572485" lon="9.270680670677713"><ele>62.599999999999994</ele><time>2026-04-30T11:45:16.998Z</time></trkpt><trkpt lat="44.33661625203713" lon="9.270524214527956"><ele>61.8</ele><time>2026-04-30T11:45:17.998Z</time></trkpt><trkpt lat="44.33661362279004" lon="9.270380629119275"><ele>61.0</ele><time>2026-04-30T11:45:18.998Z</time></trkpt><trkpt lat="44.33661376495722" lon="9.270204505140981"><ele>61.0</ele><time>2026-04-30T11:45:19.998Z</time></trkpt><trkpt lat="44.336611156530985" lon="9.27003484117802"><ele>61.0</ele><time>2026-04-30T11:45:20.998Z</time></trkpt><trkpt lat="44.33661174777642" lon="9.269872803937194"><ele>61.0</ele><time>2026-04-30T11:45:21.998Z</time></trkpt><trkpt lat="44.33661744602987" lon="9.269694503320732"><ele>61.0</ele><time>2026-04-30T11:45:22.998Z</time></trkpt><trkpt lat="44.33658280098078" lon="9.269503871847803"><ele>58.75</ele><time>2026-04-30T11:45:23.998Z</time></trkpt><trkpt lat="44.336528611844045" lon="9.269330723027974"><ele>56.5</ele><time>2026-04-30T11:45:24.998Z</time></trkpt><trkpt lat="44.33645611388241" lon="9.269210577575839"><ele>54.25</ele><time>2026-04-30T11:45:25.998Z</time></trkpt><trkpt lat="44.33637738512049" lon="9.26911443934452"><ele>52.0</ele><time>2026-04-30T11:45:26.998Z</time></trkpt><trkpt lat="44.33630572225483" lon="9.269012412140933"><ele>47.800000000000004</ele><time>2026-04-30T11:45:27.998Z</time></trkpt><trkpt lat="44.33623972830474" lon="9.268907191332316"><ele>43.6</ele><time>2026-04-30T11:45:28.998Z</time></trkpt><trkpt lat="44.336183852708665" lon="9.268810411818444"><ele>39.400000000000006</ele><time>2026-04-30T11:45:29.998Z</time></trkpt><trkpt lat="44.33613491259046" lon="9.268726675718884"><ele>35.2</ele><time>2026-04-30T11:45:30.998Z</time></trkpt><trkpt lat="44.33618068342463" lon="9.268570928453341"><ele>31.0</ele><time>2026-04-30T11:45:32.998Z</time></trkpt><trkpt lat="44.3362325742197" lon="9.268494548558564"><ele>31.000000000000004</ele><time>2026-04-30T11:45:33.998Z</time></trkpt><trkpt lat="44.33629544676562" lon="9.268412784109039"><ele>31.0</ele><time>2026-04-30T11:45:34.998Z</time></trkpt><trkpt lat="44.336361331055826" lon="9.268338422713434"><ele>31.0</ele><time>2026-04-30T11:45:35.998Z</time></trkpt><trkpt lat="44.33644198250368" lon="9.268276759592258"><ele>31.0</ele><time>2026-04-30T11:45:36.998Z</time></trkpt><trkpt lat="44.336518229431306" lon="9.268288537617357"><ele>31.000000000000004</ele><time>2026-04-30T11:45:37.998Z</time></trkpt><trkpt lat="44.33658777409673" lon="9.268348336908852"><ele>31.0</ele><time>2026-04-30T11:45:38.998Z</time></trkpt><trkpt lat="44.33666304611464" lon="9.268454665833223"><ele>32.5</ele><time>2026-04-30T11:45:39.998Z</time></trkpt><trkpt lat="44.336747590611154" lon="9.26853291075602"><ele>34.0</ele><time>2026-04-30T11:45:40.998Z</time></trkpt><trkpt lat="44.33686084825992" lon="9.268577363682692"><ele>35.5</ele><time>2026-04-30T11:45:41.998Z</time></trkpt><trkpt lat="44.336983564706834" lon="9.268604760953846"><ele>37.0</ele><time>2026-04-30T11:45:42.998Z</time></trkpt><trkpt lat="44.337087627929904" lon="9.268690386890619"><ele>37.0</ele><time>2026-04-30T11:45:43.998Z</time></trkpt><trkpt lat="44.3372149502523" lon="9.268691141672388"><ele>37.0</ele><time>2026-04-30T11:45:44.998Z</time></trkpt><trkpt lat="44.33733425103737" lon="9.26870987557501"><ele>37.0</ele><time>2026-04-30T11:45:45.998Z</time></trkpt><trkpt lat="44.33743122537344" lon="9.268761303641963"><ele>37.0</ele><time>2026-04-30T11:45:46.998Z</time></trkpt><trkpt lat="44.337534384233145" lon="9.268829099306606"><ele>34.0</ele><time>2026-04-30T11:45:47.998Z</time></trkpt><trkpt lat="44.33765337202482" lon="9.268831822768067"><ele>31.0</ele><time>2026-04-30T11:45:48.998Z</time></trkpt><trkpt lat="44.33776196672023" lon="9.268876732169375"><ele>28.0</ele><time>2026-04-30T11:45:49.998Z</time></trkpt><trkpt lat="44.337868814519865" lon="9.268870134937133"><ele>25.0</ele><time>2026-04-30T11:45:50.998Z</time></trkpt><trkpt lat="44.33797858351461" lon="9.268890868025597"><ele>23.0</ele><time>2026-04-30T11:45:51.998Z</time></trkpt><trkpt lat="44.33808759349251" lon="9.268918547441537"><ele>21.0</ele><time>2026-04-30T11:45:52.998Z</time></trkpt><trkpt lat="44.33820853617384" lon="9.268952653698966"><ele>19.0</ele><time>2026-04-30T11:45:53.998Z</time></trkpt><trkpt lat="44.33831573278449" lon="9.269002611227691"><ele>17.0</ele><time>2026-04-30T11:45:54.998Z</time></trkpt><trkpt lat="44.338417184928986" lon="9.269039787295933"><ele>22.6</ele><time>2026-04-30T11:45:55.998Z</time></trkpt><trkpt lat="44.33850937412835" lon="9.269070051677055"><ele>28.2</ele><time>2026-04-30T11:45:56.998Z</time></trkpt><trkpt lat="44.33859930827217" lon="9.269032648293388"><ele>33.8</ele><time>2026-04-30T11:45:57.998Z</time></trkpt><trkpt lat="44.33869544434196" lon="9.2690524344715"><ele>39.4</ele><time>2026-04-30T11:45:58.998Z</time></trkpt><trkpt lat="44.33877271551773" lon="9.269111071077985"><ele>45.0</ele><time>2026-04-30T11:45:59.998Z</time></trkpt><trkpt lat="44.33885763843007" lon="9.269187936639849"><ele>41.6</ele><time>2026-04-30T11:46:00.998Z</time></trkpt><trkpt lat="44.33893782877261" lon="9.269263532660807"><ele>38.2</ele><time>2026-04-30T11:46:01.998Z</time></trkpt><trkpt lat="44.33901778682837" lon="9.269339998695534"><ele>34.8</ele><time>2026-04-30T11:46:02.997Z</time></trkpt><trkpt lat="44.33912165794913" lon="9.26939467276745"><ele>31.4</ele><time>2026-04-30T11:46:03.997Z</time></trkpt><trkpt lat="44.33919399712593" lon="9.269466986884158"><ele>28.0</ele><time>2026-04-30T11:46:04.997Z</time></trkpt><trkpt lat="44.339303792050515" lon="9.269523053297593"><ele>28.0</ele><time>2026-04-30T11:46:05.997Z</time></trkpt><trkpt lat="44.339402800870694" lon="9.269479014936149"><ele>28.0</ele><time>2026-04-30T11:46:06.997Z</time></trkpt><trkpt lat="44.33952029111008" lon="9.26938051815654"><ele>28.0</ele><time>2026-04-30T11:46:07.997Z</time></trkpt><trkpt lat="44.339632939869844" lon="9.26928123232478"><ele>28.0</ele><time>2026-04-30T11:46:08.997Z</time></trkpt><trkpt lat="44.33970841286666" lon="9.269187777314231"><ele>27.599999999999998</ele><time>2026-04-30T11:46:09.997Z</time></trkpt><trkpt lat="44.33979306458548" lon="9.269090739769094"><ele>27.199999999999996</ele><time>2026-04-30T11:46:10.997Z</time></trkpt><trkpt lat="44.339875130742314" lon="9.2689883329118"><ele>26.8</ele><time>2026-04-30T11:46:11.997Z</time></trkpt><trkpt lat="44.33992244362131" lon="9.268847664553688"><ele>26.4</ele><time>2026-04-30T11:46:12.997Z</time></trkpt><trkpt lat="44.33991982773288" lon="9.268707834261209"><ele>26.0</ele><time>2026-04-30T11:46:13.997Z</time></trkpt><trkpt lat="44.339911967348314" lon="9.268570434280887"><ele>26.0</ele><time>2026-04-30T11:46:14.997Z</time></trkpt><trkpt lat="44.33986056076749" lon="9.268430220022193"><ele>26.0</ele><time>2026-04-30T11:46:15.997Z</time></trkpt><trkpt lat="44.33979792901984" lon="9.268294257174045"><ele>26.0</ele><time>2026-04-30T11:46:16.997Z</time></trkpt><trkpt lat="44.33973438623895" lon="9.26821341128552"><ele>26.0</ele><time>2026-04-30T11:46:17.997Z</time></trkpt><trkpt lat="44.33962705550518" lon="9.26809136872188"><ele>30.0</ele><time>2026-04-30T11:46:18.997Z</time></trkpt><trkpt lat="44.33951587535451" lon="9.268012647688172"><ele>34.0</ele><time>2026-04-30T11:46:19.997Z</time></trkpt><trkpt lat="44.33941162307187" lon="9.26790967684157"><ele>38.0</ele><time>2026-04-30T11:46:20.997Z</time></trkpt><trkpt lat="44.339280263586595" lon="9.267836368303255"><ele>42.0</ele><time>2026-04-30T11:46:21.997Z</time></trkpt><trkpt lat="44.33915038443111" lon="9.267737129779734"><ele>42.0</ele><time>2026-04-30T11:46:22.997Z</time></trkpt><trkpt lat="44.33903194207399" lon="9.267604964906306"><ele>42.0</ele><time>2026-04-30T11:46:23.997Z</time></trkpt><trkpt lat="44.33889304756665" lon="9.267470281628574"><ele>42.0</ele><time>2026-04-30T11:46:24.997Z</time></trkpt><trkpt lat="44.33878418174094" lon="9.267356755718513"><ele>44.66666666666667</ele><time>2026-04-30T11:46:25.997Z</time></trkpt><trkpt lat="44.33864785286341" lon="9.267199029485038"><ele>47.333333333333336</ele><time>2026-04-30T11:46:26.997Z</time></trkpt><trkpt lat="44.33851377852902" lon="9.267106691238178"><ele>50.0</ele><time>2026-04-30T11:46:27.997Z</time></trkpt><trkpt lat="44.33840098777024" lon="9.267009992518688"><ele>50.0</ele><time>2026-04-30T11:46:28.997Z</time></trkpt><trkpt lat="44.33829067453176" lon="9.26692694340669"><ele>50.0</ele><time>2026-04-30T11:46:29.997Z</time></trkpt><trkpt lat="44.33817041367697" lon="9.266877188346918"><ele>50.0</ele><time>2026-04-30T11:46:30.997Z</time></trkpt><trkpt lat="44.338081654462684" lon="9.266745434036022"><ele>50.0</ele><time>2026-04-30T11:46:31.997Z</time></trkpt><trkpt lat="44.33798673420047" lon="9.266624963006397"><ele>49.2</ele><time>2026-04-30T11:46:32.997Z</time></trkpt><trkpt lat="44.33787681238664" lon="9.266541931130314"><ele>48.4</ele><time>2026-04-30T11:46:33.997Z</time></trkpt><trkpt lat="44.33781651913342" lon="9.266466832583523"><ele>47.599999999999994</ele><time>2026-04-30T11:46:34.997Z</time></trkpt><trkpt lat="44.33773216428643" lon="9.266366042367071"><ele>46.8</ele><time>2026-04-30T11:46:35.997Z</time></trkpt><trkpt lat="44.33765742965537" lon="9.26621822001916"><ele>46.0</ele><time>2026-04-30T11:46:36.997Z</time></trkpt><trkpt lat="44.3376264749701" lon="9.266050747004083"><ele>46.0</ele><time>2026-04-30T11:46:37.997Z</time></trkpt><trkpt lat="44.337566784159904" lon="9.265903831748183"><ele>46.0</ele><time>2026-04-30T11:46:38.997Z</time></trkpt><trkpt lat="44.33751776222231" lon="9.265759626972928"><ele>46.0</ele><time>2026-04-30T11:46:39.997Z</time></trkpt><trkpt lat="44.33746584471793" lon="9.265599329356752"><ele>46.0</ele><time>2026-04-30T11:46:40.997Z</time></trkpt><trkpt lat="44.33741530287908" lon="9.265441915758634"><ele>47.0</ele><time>2026-04-30T11:46:41.997Z</time></trkpt><trkpt lat="44.33739705495473" lon="9.265269360363593"><ele>48.0</ele><time>2026-04-30T11:46:42.997Z</time></trkpt><trkpt lat="44.33734576170296" lon="9.26513001211267"><ele>49.0</ele><time>2026-04-30T11:46:43.997Z</time></trkpt><trkpt lat="44.33738091805149" lon="9.26502933093422"><ele>50.0</ele><time>2026-04-30T11:46:44.997Z</time></trkpt><trkpt lat="44.33743746596313" lon="9.264935440620526"><ele>51.0</ele><time>2026-04-30T11:46:45.997Z</time></trkpt><trkpt lat="44.337501514715285" lon="9.264852631661203"><ele>49.166666666666664</ele><time>2026-04-30T11:46:46.997Z</time></trkpt><trkpt lat="44.33756172578227" lon="9.26477911179137"><ele>47.333333333333336</ele><time>2026-04-30T11:46:47.997Z</time></trkpt><trkpt lat="44.337628193690385" lon="9.264698182985784"><ele>45.5</ele><time>2026-04-30T11:46:48.997Z</time></trkpt><trkpt lat="44.33768770492867" lon="9.264626234338687"><ele>43.66666666666667</ele><time>2026-04-30T11:46:49.997Z</time></trkpt><trkpt lat="44.33774833052679" lon="9.264551908801936"><ele>41.833333333333336</ele><time>2026-04-30T11:46:50.997Z</time></trkpt><trkpt lat="44.33781208074882" lon="9.264474288884927"><ele>40.0</ele><time>2026-04-30T11:46:51.997Z</time></trkpt><trkpt lat="44.337886167004804" lon="9.26436640484301"><ele>40.0</ele><time>2026-04-30T11:46:52.997Z</time></trkpt><trkpt lat="44.337966061300186" lon="9.264278795266367"><ele>40.0</ele><time>2026-04-30T11:46:53.997Z</time></trkpt><trkpt lat="44.33804106127442" lon="9.264184082432562"><ele>40.0</ele><time>2026-04-30T11:46:54.997Z</time></trkpt><trkpt lat="44.33811492792574" lon="9.264111289375919"><ele>40.0</ele><time>2026-04-30T11:46:55.997Z</time></trkpt><trkpt lat="44.33819258164269" lon="9.26404585405041"><ele>40.0</ele><time>2026-04-30T11:46:56.997Z</time></trkpt><trkpt lat="44.33826894130913" lon="9.263965384011517"><ele>42.6</ele><time>2026-04-30T11:46:57.997Z</time></trkpt><trkpt lat="44.33835146857952" lon="9.263900942505689"><ele>45.2</ele><time>2026-04-30T11:46:58.997Z</time></trkpt><trkpt lat="44.33842685279442" lon="9.263814366775348"><ele>47.8</ele><time>2026-04-30T11:46:59.997Z</time></trkpt><trkpt lat="44.33850882232682" lon="9.263706554504996"><ele>50.4</ele><time>2026-04-30T11:47:00.997Z</time></trkpt><trkpt lat="44.338582930805025" lon="9.263605665061156"><ele>53.0</ele><time>2026-04-30T11:47:01.997Z</time></trkpt><trkpt lat="44.33865792015755" lon="9.26349105424578"><ele>53.0</ele><time>2026-04-30T11:47:02.997Z</time></trkpt><trkpt lat="44.33874877053551" lon="9.263361016552901"><ele>53.0</ele><time>2026-04-30T11:47:03.997Z</time></trkpt><trkpt lat="44.338847865195326" lon="9.263203775153334"><ele>53.0</ele><time>2026-04-30T11:47:04.997Z</time></trkpt><trkpt lat="44.338951994361814" lon="9.26308425590778"><ele>53.0</ele><time>2026-04-30T11:47:05.997Z</time></trkpt><trkpt lat="44.33902697752414" lon="9.262975816522923"><ele>54.75</ele><time>2026-04-30T11:47:06.997Z</time></trkpt><trkpt lat="44.3391201327537" lon="9.262873565646446"><ele>56.5</ele><time>2026-04-30T11:47:07.997Z</time></trkpt><trkpt lat="44.33920566114444" lon="9.26276489798797"><ele>58.25</ele><time>2026-04-30T11:47:08.997Z</time></trkpt><trkpt lat="44.339305715830506" lon="9.262668952423738"><ele>60.0</ele><time>2026-04-30T11:47:09.996Z</time></trkpt><trkpt lat="44.33941082118936" lon="9.262557041768712"><ele>60.0</ele><time>2026-04-30T11:47:10.996Z</time></trkpt><trkpt lat="44.33948719278261" lon="9.262489957771635"><ele>60.0</ele><time>2026-04-30T11:47:11.996Z</time></trkpt><trkpt lat="44.339585013001084" lon="9.26243806831446"><ele>60.0</ele><time>2026-04-30T11:47:12.996Z</time></trkpt><trkpt lat="44.33972736960718" lon="9.262386913376583"><ele>60.0</ele><time>2026-04-30T11:47:13.996Z</time></trkpt><trkpt lat="44.33988613613155" lon="9.262334916450856"><ele>64.25</ele><time>2026-04-30T11:47:14.996Z</time></trkpt><trkpt lat="44.340030107298894" lon="9.262288754855346"><ele>68.5</ele><time>2026-04-30T11:47:15.996Z</time></trkpt><trkpt lat="44.34016455767197" lon="9.262242780218783"><ele>72.75</ele><time>2026-04-30T11:47:16.996Z</time></trkpt><trkpt lat="44.34029288278414" lon="9.26218398259429"><ele>77.0</ele><time>2026-04-30T11:47:17.996Z</time></trkpt><trkpt lat="44.340427877923084" lon="9.262140698196813"><ele>77.0</ele><time>2026-04-30T11:47:18.996Z</time></trkpt><trkpt lat="44.34051037642895" lon="9.262007395713564"><ele>77.0</ele><time>2026-04-30T11:47:19.996Z</time></trkpt><trkpt lat="44.34057548252621" lon="9.261810478702154"><ele>77.0</ele><time>2026-04-30T11:47:20.996Z</time></trkpt><trkpt lat="44.34063561065065" lon="9.261618379569274"><ele>77.0</ele><time>2026-04-30T11:47:21.996Z</time></trkpt><trkpt lat="44.34072175450691" lon="9.261233985332774"><ele>156.0</ele><time>2026-04-30T11:47:23.996Z</time></trkpt><trkpt lat="44.34113383363597" lon="9.259803176967237"><ele>157.25</ele><time>2026-04-30T11:47:32.432Z</time></trkpt><trkpt lat="44.341174309371034" lon="9.259604628825395"><ele>158.5</ele><time>2026-04-30T11:47:33.433Z</time></trkpt><trkpt lat="44.34124569664088" lon="9.259424140523654"><ele>159.75</ele><time>2026-04-30T11:47:34.434Z</time></trkpt><trkpt lat="44.34128626075766" lon="9.259226101949347"><ele>161.0</ele><time>2026-04-30T11:47:35.434Z</time></trkpt><trkpt lat="44.341357557873515" lon="9.259045918473726"><ele>150.5</ele><time>2026-04-30T11:47:36.433Z</time></trkpt><trkpt lat="44.34141357225499" lon="9.25885653651557"><ele>140.0</ele><time>2026-04-30T11:47:37.434Z</time></trkpt><trkpt lat="44.34146882690329" lon="9.258666819514934"><ele>129.5</ele><time>2026-04-30T11:47:38.434Z</time></trkpt><trkpt lat="44.34150895241832" lon="9.258468569074246"><ele>119.0</ele><time>2026-04-30T11:47:39.434Z</time></trkpt><trkpt lat="44.34156471742987" lon="9.258279248583797"><ele>88.0</ele><time>2026-04-30T11:47:40.434Z</time></trkpt><trkpt lat="44.341927938456635" lon="9.257339300517044"><ele>87.75</ele><time>2026-04-30T11:47:40.996Z</time></trkpt><trkpt lat="44.34192437934521" lon="9.257200032292767"><ele>87.5</ele><time>2026-04-30T11:47:43.996Z</time></trkpt><trkpt lat="44.34189925908718" lon="9.25706406325353"><ele>87.25</ele><time>2026-04-30T11:47:44.996Z</time></trkpt><trkpt lat="44.34183774709803" lon="9.256929450890178"><ele>87.0</ele><time>2026-04-30T11:47:45.996Z</time></trkpt><trkpt lat="44.34175801288998" lon="9.256756446718232"><ele>87.0</ele><time>2026-04-30T11:47:46.996Z</time></trkpt><trkpt lat="44.34169539247969" lon="9.25658557160928"><ele>87.0</ele><time>2026-04-30T11:47:47.996Z</time></trkpt><trkpt lat="44.341649905147975" lon="9.256394427987582"><ele>87.0</ele><time>2026-04-30T11:47:48.996Z</time></trkpt><trkpt lat="44.34160587544242" lon="9.25617225485591"><ele>87.0</ele><time>2026-04-30T11:47:49.996Z</time></trkpt><trkpt lat="44.34157487797139" lon="9.255938152029579"><ele>87.5</ele><time>2026-04-30T11:47:50.996Z</time></trkpt><trkpt lat="44.34156224349988" lon="9.25574834224725"><ele>88.0</ele><time>2026-04-30T11:47:51.996Z</time></trkpt><trkpt lat="44.34155227817145" lon="9.255567761896716"><ele>88.5</ele><time>2026-04-30T11:47:52.996Z</time></trkpt><trkpt lat="44.3415427554149" lon="9.255395206058262"><ele>89.0</ele><time>2026-04-30T11:47:53.996Z</time></trkpt><trkpt lat="44.34154447896044" lon="9.255221927481896"><ele>84.75</ele><time>2026-04-30T11:47:54.996Z</time></trkpt><trkpt lat="44.34153139613043" lon="9.255097358863072"><ele>80.5</ele><time>2026-04-30T11:47:55.996Z</time></trkpt><trkpt lat="44.34157041052338" lon="9.254974515922159"><ele>76.25</ele><time>2026-04-30T11:47:56.996Z</time></trkpt><trkpt lat="44.34173688592477" lon="9.254891312012816"><ele>72.0</ele><time>2026-04-30T11:47:58.996Z</time></trkpt><trkpt lat="44.34190559749773" lon="9.25487921907819"><ele>72.0</ele><time>2026-04-30T11:47:59.996Z</time></trkpt><trkpt lat="44.342052806811715" lon="9.254936603880191"><ele>72.0</ele><time>2026-04-30T11:48:00.996Z</time></trkpt><trkpt lat="44.34219211496335" lon="9.255017125559776"><ele>72.0</ele><time>2026-04-30T11:48:01.996Z</time></trkpt><trkpt lat="44.34233282486881" lon="9.255069059191818"><ele>72.0</ele><time>2026-04-30T11:48:02.996Z</time></trkpt><trkpt lat="44.34245265559407" lon="9.255103510538452"><ele>73.8</ele><time>2026-04-30T11:48:03.996Z</time></trkpt><trkpt lat="44.342558947247134" lon="9.255137283739497"><ele>75.6</ele><time>2026-04-30T11:48:04.996Z</time></trkpt><trkpt lat="44.3426522429954" lon="9.255127258709752"><ele>77.39999999999999</ele><time>2026-04-30T11:48:05.996Z</time></trkpt><trkpt lat="44.34274353105082" lon="9.255086331627522"><ele>79.2</ele><time>2026-04-30T11:48:06.996Z</time></trkpt><trkpt lat="44.342835316499446" lon="9.254959601077198"><ele>81.0</ele><time>2026-04-30T11:48:07.996Z</time></trkpt><trkpt lat="44.34291694228989" lon="9.254833116176071"><ele>78.39999999999999</ele><time>2026-04-30T11:48:08.996Z</time></trkpt><trkpt lat="44.342932326489596" lon="9.254720603929194"><ele>75.8</ele><time>2026-04-30T11:48:09.996Z</time></trkpt><trkpt lat="44.342923411161806" lon="9.254573784360712"><ele>73.19999999999999</ele><time>2026-04-30T11:48:10.996Z</time></trkpt><trkpt lat="44.342881660178996" lon="9.254434407876763"><ele>70.6</ele><time>2026-04-30T11:48:11.996Z</time></trkpt><trkpt lat="44.34287006274538" lon="9.254285989604579"><ele>68.0</ele><time>2026-04-30T11:48:12.996Z</time></trkpt><trkpt lat="44.34290337554699" lon="9.254161896962026"><ele>68.0</ele><time>2026-04-30T11:48:13.996Z</time></trkpt><trkpt lat="44.34293805448255" lon="9.254054098274503"><ele>68.0</ele><time>2026-04-30T11:48:14.996Z</time></trkpt><trkpt lat="44.34294553931796" lon="9.253948690142911"><ele>68.0</ele><time>2026-04-30T11:48:15.995Z</time></trkpt><trkpt lat="44.34291982134349" lon="9.25381755943852"><ele>68.0</ele><time>2026-04-30T11:48:16.995Z</time></trkpt><trkpt lat="44.34288064950614" lon="9.253692644429824"><ele>68.0</ele><time>2026-04-30T11:48:17.995Z</time></trkpt><trkpt lat="44.34278177196018" lon="9.253656972213122"><ele>72.25</ele><time>2026-04-30T11:48:18.995Z</time></trkpt><trkpt lat="44.342642874855976" lon="9.253643908734604"><ele>76.5</ele><time>2026-04-30T11:48:19.995Z</time></trkpt><trkpt lat="44.342495886092905" lon="9.25368192517655"><ele>80.75</ele><time>2026-04-30T11:48:20.995Z</time></trkpt><trkpt lat="44.342371790988715" lon="9.25358139633861"><ele>85.0</ele><time>2026-04-30T11:48:21.995Z</time></trkpt><trkpt lat="44.3422438184081" lon="9.253503526971294"><ele>83.0</ele><time>2026-04-30T11:48:22.995Z</time></trkpt><trkpt lat="44.342149328365025" lon="9.253385275322296"><ele>81.0</ele><time>2026-04-30T11:48:23.995Z</time></trkpt><trkpt lat="44.34207998362974" lon="9.253209874253807"><ele>79.0</ele><time>2026-04-30T11:48:24.995Z</time></trkpt><trkpt lat="44.34204397969061" lon="9.252977522914083"><ele>77.0</ele><time>2026-04-30T11:48:25.995Z</time></trkpt><trkpt lat="44.341990113388086" lon="9.25274931477332"><ele>77.0</ele><time>2026-04-30T11:48:26.995Z</time></trkpt><trkpt lat="44.34189972675552" lon="9.252593467419459"><ele>77.0</ele><time>2026-04-30T11:48:27.995Z</time></trkpt><trkpt lat="44.3417564429493" lon="9.252481043088121"><ele>77.0</ele><time>2026-04-30T11:48:28.995Z</time></trkpt><trkpt lat="44.34161151285676" lon="9.252398254063714"><ele>77.0</ele><time>2026-04-30T11:48:29.995Z</time></trkpt><trkpt lat="44.34146227614522" lon="9.25230719017661"><ele>77.0</ele><time>2026-04-30T11:48:30.995Z</time></trkpt><trkpt lat="44.3413256727682" lon="9.252224572360987"><ele>77.0</ele><time>2026-04-30T11:48:31.995Z</time></trkpt><trkpt lat="44.341196165267235" lon="9.252121909494125"><ele>76.0</ele><time>2026-04-30T11:48:32.995Z</time></trkpt><trkpt lat="44.34108538425719" lon="9.252004701480447"><ele>75.0</ele><time>2026-04-30T11:48:33.995Z</time></trkpt><trkpt lat="44.34099149985206" lon="9.251874594341741"><ele>74.0</ele><time>2026-04-30T11:48:34.995Z</time></trkpt><trkpt lat="44.34089768483538" lon="9.251752479736203"><ele>73.0</ele><time>2026-04-30T11:48:35.995Z</time></trkpt><trkpt lat="44.34079279559398" lon="9.251663625886666"><ele>73.0</ele><time>2026-04-30T11:48:36.995Z</time></trkpt><trkpt lat="44.340679439789625" lon="9.251610348688876"><ele>73.0</ele><time>2026-04-30T11:48:37.995Z</time></trkpt><trkpt lat="44.34058056088832" lon="9.251557694997839"><ele>73.0</ele><time>2026-04-30T11:48:38.995Z</time></trkpt><trkpt lat="44.340506777127516" lon="9.251470376143683"><ele>73.0</ele><time>2026-04-30T11:48:39.995Z</time></trkpt><trkpt lat="44.34047325119308" lon="9.251346211760634"><ele>73.0</ele><time>2026-04-30T11:48:40.995Z</time></trkpt><trkpt lat="44.34044204756083" lon="9.251210142532972"><ele>72.8</ele><time>2026-04-30T11:48:41.995Z</time></trkpt><trkpt lat="44.340416018778086" lon="9.251079529892634"><ele>72.6</ele><time>2026-04-30T11:48:42.995Z</time></trkpt><trkpt lat="44.34038919133145" lon="9.250959050751392"><ele>72.4</ele><time>2026-04-30T11:48:43.995Z</time></trkpt><trkpt lat="44.340438278190646" lon="9.25086587482313"><ele>72.2</ele><time>2026-04-30T11:48:44.995Z</time></trkpt><trkpt lat="44.34052104446133" lon="9.25081306864858"><ele>72.0</ele><time>2026-04-30T11:48:45.995Z</time></trkpt><trkpt lat="44.34062344318454" lon="9.250781751512681"><ele>72.0</ele><time>2026-04-30T11:48:46.995Z</time></trkpt><trkpt lat="44.34073974076564" lon="9.250719612435306"><ele>72.0</ele><time>2026-04-30T11:48:47.995Z</time></trkpt><trkpt lat="44.34084670352013" lon="9.250651507731774"><ele>72.0</ele><time>2026-04-30T11:48:48.995Z</time></trkpt><trkpt lat="44.34095127782001" lon="9.25060699168215"><ele>72.0</ele><time>2026-04-30T11:48:49.995Z</time></trkpt><trkpt lat="44.34105243622706" lon="9.250542968846718"><ele>68.0</ele><time>2026-04-30T11:48:50.995Z</time></trkpt><trkpt lat="44.34112411893877" lon="9.250397592756777"><ele>64.0</ele><time>2026-04-30T11:48:51.995Z</time></trkpt><trkpt lat="44.341132270806064" lon="9.250223059481266"><ele>60.0</ele><time>2026-04-30T11:48:52.995Z</time></trkpt><trkpt lat="44.3411111930697" lon="9.25006649072696"><ele>56.0</ele><time>2026-04-30T11:48:53.995Z</time></trkpt><trkpt lat="44.34108189219874" lon="9.249904992620241"><ele>54.75</ele><time>2026-04-30T11:48:54.995Z</time></trkpt><trkpt lat="44.34104775403577" lon="9.24974099024925"><ele>53.5</ele><time>2026-04-30T11:48:55.995Z</time></trkpt><trkpt lat="44.341024867938614" lon="9.249565174444747"><ele>52.25</ele><time>2026-04-30T11:48:56.995Z</time></trkpt><trkpt lat="44.341030699979896" lon="9.249389028315255"><ele>51.0</ele><time>2026-04-30T11:48:57.995Z</time></trkpt><trkpt lat="44.34103551491536" lon="9.249209198941655"><ele>51.0</ele><time>2026-04-30T11:48:58.995Z</time></trkpt><trkpt lat="44.341039741796926" lon="9.249030756977607"><ele>51.0</ele><time>2026-04-30T11:48:59.995Z</time></trkpt><trkpt lat="44.34104415499969" lon="9.248856281338217"><ele>51.0</ele><time>2026-04-30T11:49:00.995Z</time></trkpt><trkpt lat="44.34104590604421" lon="9.24868221299871"><ele>51.0</ele><time>2026-04-30T11:49:01.995Z</time></trkpt><trkpt lat="44.341042389389315" lon="9.248502265816802"><ele>46.75</ele><time>2026-04-30T11:49:02.995Z</time></trkpt><trkpt lat="44.34107554512407" lon="9.248339848302551"><ele>42.5</ele><time>2026-04-30T11:49:03.995Z</time></trkpt><trkpt lat="44.34111947291792" lon="9.248176503977117"><ele>38.25</ele><time>2026-04-30T11:49:04.995Z</time></trkpt><trkpt lat="44.341166480009605" lon="9.248011208919243"><ele>34.0</ele><time>2026-04-30T11:49:05.995Z</time></trkpt><trkpt lat="44.34121233599481" lon="9.247848988804051"><ele>35.4</ele><time>2026-04-30T11:49:06.995Z</time></trkpt><trkpt lat="44.341250399914145" lon="9.247710494843615"><ele>36.8</ele><time>2026-04-30T11:49:07.995Z</time></trkpt><trkpt lat="44.341282739643596" lon="9.24759809502728"><ele>38.199999999999996</ele><time>2026-04-30T11:49:08.995Z</time></trkpt><trkpt lat="44.34130267859907" lon="9.247491908899637"><ele>39.599999999999994</ele><time>2026-04-30T11:49:10.995Z</time></trkpt><trkpt lat="44.34137346856978" lon="9.247533533900013"><ele>41.0</ele><time>2026-04-30T11:49:13.995Z</time></trkpt><trkpt lat="44.3414343384165" lon="9.247679403208355"><ele>41.0</ele><time>2026-04-30T11:49:14.995Z</time></trkpt><trkpt lat="44.34151928595145" lon="9.247796470948865"><ele>41.0</ele><time>2026-04-30T11:49:15.995Z</time></trkpt><trkpt lat="44.34162762095243" lon="9.247859083676698"><ele>41.0</ele><time>2026-04-30T11:49:16.995Z</time></trkpt><trkpt lat="44.341739627797374" lon="9.2479172799044"><ele>41.0</ele><time>2026-04-30T11:49:17.995Z</time></trkpt><trkpt lat="44.34185265814998" lon="9.247958390882106"><ele>41.0</ele><time>2026-04-30T11:49:18.995Z</time></trkpt><trkpt lat="44.34196242625271" lon="9.248019088733924"><ele>41.0</ele><time>2026-04-30T11:49:19.995Z</time></trkpt><trkpt lat="44.34208122805666" lon="9.248070544456866"><ele>41.0</ele><time>2026-04-30T11:49:20.995Z</time></trkpt><trkpt lat="44.34219973514265" lon="9.248124994827315"><ele>41.0</ele><time>2026-04-30T11:49:21.995Z</time></trkpt><trkpt lat="44.34230038853308" lon="9.248207780246407"><ele>43.199999999999996</ele><time>2026-04-30T11:49:22.994Z</time></trkpt><trkpt lat="44.34239823212602" lon="9.248293833218563"><ele>45.4</ele><time>2026-04-30T11:49:23.994Z</time></trkpt><trkpt lat="44.34247816291616" lon="9.248393002125935"><ele>47.6</ele><time>2026-04-30T11:49:24.994Z</time></trkpt><trkpt lat="44.34255286316666" lon="9.248490272536205"><ele>49.8</ele><time>2026-04-30T11:49:25.994Z</time></trkpt><trkpt lat="44.34263565911238" lon="9.24851453848476"><ele>52.0</ele><time>2026-04-30T11:49:26.994Z</time></trkpt><trkpt lat="44.34272102719387" lon="9.248484689470933"><ele>52.0</ele><time>2026-04-30T11:49:27.994Z</time></trkpt><trkpt lat="44.342785863700755" lon="9.248396728009252"><ele>52.0</ele><time>2026-04-30T11:49:28.994Z</time></trkpt><trkpt lat="44.342862851090594" lon="9.248297719934746"><ele>52.0</ele><time>2026-04-30T11:49:29.994Z</time></trkpt><trkpt lat="44.34294094327506" lon="9.248200586726401"><ele>52.0</ele><time>2026-04-30T11:49:30.994Z</time></trkpt><trkpt lat="44.343010605449145" lon="9.248092392931314"><ele>52.0</ele><time>2026-04-30T11:49:31.994Z</time></trkpt><trkpt lat="44.343060596959944" lon="9.247960260468211"><ele>50.666666666666664</ele><time>2026-04-30T11:49:32.994Z</time></trkpt><trkpt lat="44.34327306265935" lon="9.247742807039664"><ele>49.33333333333333</ele><time>2026-04-30T11:49:33.994Z</time></trkpt><trkpt lat="44.34319666247818" lon="9.247539472561469"><ele>48.0</ele><time>2026-04-30T11:49:34.994Z</time></trkpt><trkpt lat="44.34305296518692" lon="9.247401160259184"><ele>45.0</ele><time>2026-04-30T11:49:35.994Z</time></trkpt><trkpt lat="44.3429708814343" lon="9.247314792012348"><ele>42.0</ele><time>2026-04-30T11:49:36.994Z</time></trkpt><trkpt lat="44.34288966151954" lon="9.247224713518323"><ele>39.0</ele><time>2026-04-30T11:49:37.994Z</time></trkpt><trkpt lat="44.342817937146144" lon="9.247127427468534"><ele>36.0</ele><time>2026-04-30T11:49:38.994Z</time></trkpt><trkpt lat="44.3427516708987" lon="9.247015308964777"><ele>33.0</ele><time>2026-04-30T11:49:39.994Z</time></trkpt><trkpt lat="44.34269089134531" lon="9.246902014657618"><ele>32.5</ele><time>2026-04-30T11:49:40.994Z</time></trkpt><trkpt lat="44.342627276386025" lon="9.246768692550745"><ele>32.0</ele><time>2026-04-30T11:49:41.994Z</time></trkpt><trkpt lat="44.342562769591694" lon="9.246627881630014"><ele>31.5</ele><time>2026-04-30T11:49:42.994Z</time></trkpt><trkpt lat="44.34249962591835" lon="9.246486558065465"><ele>31.0</ele><time>2026-04-30T11:49:43.994Z</time></trkpt><trkpt lat="44.34244397286564" lon="9.246338780708776"><ele>32.75</ele><time>2026-04-30T11:49:45.002Z</time></trkpt><trkpt lat="44.3424031631163" lon="9.246183260355412"><ele>34.5</ele><time>2026-04-30T11:49:46.002Z</time></trkpt><trkpt lat="44.34237634230947" lon="9.246025803202398"><ele>36.25</ele><time>2026-04-30T11:49:47.002Z</time></trkpt><trkpt lat="44.342349956037246" lon="9.2458635874503"><ele>38.0</ele><time>2026-04-30T11:49:48.002Z</time></trkpt><trkpt lat="44.34232671538295" lon="9.245692511115578"><ele>36.8</ele><time>2026-04-30T11:49:49.002Z</time></trkpt><trkpt lat="44.34230926165177" lon="9.245523794068315"><ele>35.599999999999994</ele><time>2026-04-30T11:49:50.002Z</time></trkpt><trkpt lat="44.34230747033231" lon="9.24536199475895"><ele>34.400000000000006</ele><time>2026-04-30T11:49:51.002Z</time></trkpt><trkpt lat="44.342305495311585" lon="9.245213102502253"><ele>33.2</ele><time>2026-04-30T11:49:52.002Z</time></trkpt><trkpt lat="44.34231621794503" lon="9.245077508617433"><ele>32.0</ele><time>2026-04-30T11:49:53.002Z</time></trkpt><trkpt lat="44.34235823676208" lon="9.2449497605246"><ele>32.0</ele><time>2026-04-30T11:49:54.002Z</time></trkpt><trkpt lat="44.342413402165555" lon="9.244839579263084"><ele>32.0</ele><time>2026-04-30T11:49:55.001Z</time></trkpt><trkpt lat="44.342491885917454" lon="9.24478176832743"><ele>32.0</ele><time>2026-04-30T11:49:56.001Z</time></trkpt><trkpt lat="44.34258129445214" lon="9.244690149449376"><ele>32.0</ele><time>2026-04-30T11:49:57.001Z</time></trkpt><trkpt lat="44.3426912868614" lon="9.244644196167874"><ele>32.0</ele><time>2026-04-30T11:49:58.001Z</time></trkpt><trkpt lat="44.34280009336858" lon="9.244599278469705"><ele>32.2</ele><time>2026-04-30T11:49:59.001Z</time></trkpt><trkpt lat="44.34290537855957" lon="9.244570910784729"><ele>32.400000000000006</ele><time>2026-04-30T11:50:00.001Z</time></trkpt><trkpt lat="44.343003642911576" lon="9.244541949192898"><ele>32.599999999999994</ele><time>2026-04-30T11:50:01.001Z</time></trkpt><trkpt lat="44.34309223029733" lon="9.24449306724544"><ele>32.8</ele><time>2026-04-30T11:50:02.001Z</time></trkpt><trkpt lat="44.343176785546646" lon="9.244447137223833"><ele>33.0</ele><time>2026-04-30T11:50:03.001Z</time></trkpt><trkpt lat="44.34325777752763" lon="9.244392890883422"><ele>33.0</ele><time>2026-04-30T11:50:04.001Z</time></trkpt><trkpt lat="44.34333382370485" lon="9.244348311028507"><ele>33.0</ele><time>2026-04-30T11:50:05.001Z</time></trkpt><trkpt lat="44.343380475014456" lon="9.244263391484992"><ele>33.0</ele><time>2026-04-30T11:50:06.001Z</time></trkpt><trkpt lat="44.34340166072015" lon="9.24416810650357"><ele>33.0</ele><time>2026-04-30T11:50:07.001Z</time></trkpt><trkpt lat="44.34340276722732" lon="9.244060224876417"><ele>33.0</ele><time>2026-04-30T11:50:08Z</time></trkpt><trkpt lat="44.34337612369689" lon="9.243959497223292"><ele>33.0</ele><time>2026-04-30T11:50:09Z</time></trkpt><trkpt lat="44.343347067789985" lon="9.243849649830613"><ele>31.599999999999998</ele><time>2026-04-30T11:50:10Z</time></trkpt><trkpt lat="44.343304142880505" lon="9.243729610414125"><ele>30.199999999999996</ele><time>2026-04-30T11:50:11Z</time></trkpt><trkpt lat="44.343278902706274" lon="9.243597889194398"><ele>28.8</ele><time>2026-04-30T11:50:12Z</time></trkpt><trkpt lat="44.34324585944413" lon="9.2434688058495"><ele>27.4</ele><time>2026-04-30T11:50:13Z</time></trkpt><trkpt lat="44.34321766450855" lon="9.243337466747416"><ele>26.0</ele><time>2026-04-30T11:50:14Z</time></trkpt><trkpt lat="44.34322233271134" lon="9.24319544897961"><ele>24.2</ele><time>2026-04-30T11:50:15Z</time></trkpt><trkpt lat="44.34326188874165" lon="9.243070629182508"><ele>22.400000000000002</ele><time>2026-04-30T11:50:16Z</time></trkpt><trkpt lat="44.34329442138892" lon="9.242940764115462"><ele>20.6</ele><time>2026-04-30T11:50:17Z</time></trkpt><trkpt lat="44.34334838593882" lon="9.242812927670812"><ele>18.8</ele><time>2026-04-30T11:50:18Z</time></trkpt><trkpt lat="44.34343214069148" lon="9.242725657211636"><ele>17.0</ele><time>2026-04-30T11:50:19Z</time></trkpt><trkpt lat="44.34352111377129" lon="9.242634228059234"><ele>17.0</ele><time>2026-04-30T11:50:20Z</time></trkpt><trkpt lat="44.34361481959069" lon="9.242540676234032"><ele>17.0</ele><time>2026-04-30T11:50:21Z</time></trkpt><trkpt lat="44.343710743267685" lon="9.242447114954471"><ele>17.0</ele><time>2026-04-30T11:50:22Z</time></trkpt><trkpt lat="44.343804131860274" lon="9.242344794038125"><ele>17.0</ele><time>2026-04-30T11:50:23Z</time></trkpt><trkpt lat="44.34387379264875" lon="9.242220589172303"><ele>18.0</ele><time>2026-04-30T11:50:24Z</time></trkpt><trkpt lat="44.3439138366702" lon="9.242077815899872"><ele>19.0</ele><time>2026-04-30T11:50:25Z</time></trkpt><trkpt lat="44.34393626351422" lon="9.241927255638222"><ele>20.0</ele><time>2026-04-30T11:50:26Z</time></trkpt><trkpt lat="44.34395732842829" lon="9.24177643933253"><ele>21.0</ele><time>2026-04-30T11:50:27Z</time></trkpt><trkpt lat="44.34397682946327" lon="9.2416223979207"><ele>22.0</ele><time>2026-04-30T11:50:28Z</time></trkpt><trkpt lat="44.34402880514178" lon="9.241485014496288"><ele>19.0</ele><time>2026-04-30T11:50:29Z</time></trkpt><trkpt lat="44.34409535727325" lon="9.241342962083568"><ele>16.0</ele><time>2026-04-30T11:50:30Z</time></trkpt><trkpt lat="44.34417243205311" lon="9.241207099256835"><ele>13.0</ele><time>2026-04-30T11:50:31Z</time></trkpt><trkpt lat="44.34426043120383" lon="9.24109639315838"><ele>10.0</ele><time>2026-04-30T11:50:31.999Z</time></trkpt><trkpt lat="44.34435181528339" lon="9.241005831943937"><ele>10.0</ele><time>2026-04-30T11:50:32.999Z</time></trkpt><trkpt lat="44.344435619088365" lon="9.240924113105883"><ele>10.0</ele><time>2026-04-30T11:50:33.999Z</time></trkpt><trkpt lat="44.34451992168547" lon="9.240881472852182"><ele>10.0</ele><time>2026-04-30T11:50:34.999Z</time></trkpt><trkpt lat="44.34460422683849" lon="9.240886438943875"><ele>10.0</ele><time>2026-04-30T11:50:35.999Z</time></trkpt><trkpt lat="44.344685777623" lon="9.240930757146954"><ele>10.0</ele><time>2026-04-30T11:50:36.999Z</time></trkpt><trkpt lat="44.344746538622715" lon="9.241028691699206"><ele>10.5</ele><time>2026-04-30T11:50:37.999Z</time></trkpt><trkpt lat="44.3448188845204" lon="9.241113537522986"><ele>11.0</ele><time>2026-04-30T11:50:38.999Z</time></trkpt><trkpt lat="44.344906420567455" lon="9.24118893387237"><ele>11.5</ele><time>2026-04-30T11:50:39.999Z</time></trkpt><trkpt lat="44.34498091694747" lon="9.241265714585058"><ele>12.0</ele><time>2026-04-30T11:50:40.999Z</time></trkpt><trkpt lat="44.3450557824867" lon="9.24128875705963"><ele>12.499999999999998</ele><time>2026-04-30T11:50:41.999Z</time></trkpt><trkpt lat="44.34512153298735" lon="9.241279613055312"><ele>13.0</ele><time>2026-04-30T11:50:42.999Z</time></trkpt><trkpt lat="44.34521338557114" lon="9.241253974981225"><ele>12.999999999999998</ele><time>2026-04-30T11:50:44.999Z</time></trkpt><trkpt lat="44.34527765235758" lon="9.241218292199969"><ele>13.0</ele><time>2026-04-30T11:50:46.999Z</time></trkpt><trkpt lat="44.34535039420579" lon="9.241185757990703"><ele>13.0</ele><time>2026-04-30T11:50:59.999Z</time></trkpt><trkpt lat="44.34540446556625" lon="9.24113586759065"><ele>13.0</ele><time>2026-04-30T11:51:38.998Z</time></trkpt><trkpt lat="44.34554851657837" lon="9.241051831866445"><ele>12.999999999999998</ele><time>2026-04-30T11:52:54.997Z</time></trkpt><trkpt lat="44.34562825525532" lon="9.241066374476981"><ele>13.0</ele><time>2026-04-30T11:52:56.997Z</time></trkpt><trkpt lat="44.34572316325732" lon="9.241197179912144"><ele>13.8</ele><time>2026-04-30T11:52:58.997Z</time></trkpt><trkpt lat="44.34576923293058" lon="9.241315956227897"><ele>14.600000000000001</ele><time>2026-04-30T11:52:59.996Z</time></trkpt><trkpt lat="44.3458234221407" lon="9.241451675806056"><ele>15.399999999999999</ele><time>2026-04-30T11:53:00.996Z</time></trkpt><trkpt lat="44.34587373925838" lon="9.241575299649236"><ele>16.2</ele><time>2026-04-30T11:53:01.996Z</time></trkpt><trkpt lat="44.34592338436061" lon="9.241697266158415"><ele>17.0</ele><time>2026-04-30T11:53:02.996Z</time></trkpt><trkpt lat="44.34598156792028" lon="9.241792290579278"><ele>17.0</ele><time>2026-04-30T11:53:03.996Z</time></trkpt><trkpt lat="44.34604684529565" lon="9.241843111341616"><ele>17.0</ele><time>2026-04-30T11:53:04.996Z</time></trkpt><trkpt lat="44.34612843851842" lon="9.24187646735116"><ele>17.0</ele><time>2026-04-30T11:53:05.996Z</time></trkpt><trkpt lat="44.346211864549915" lon="9.24188659230077"><ele>17.0</ele><time>2026-04-30T11:53:06.996Z</time></trkpt><trkpt lat="44.346296757907425" lon="9.241855298478233"><ele>17.0</ele><time>2026-04-30T11:53:07.996Z</time></trkpt><trkpt lat="44.34638612510547" lon="9.241815651550136"><ele>17.0</ele><time>2026-04-30T11:53:08.996Z</time></trkpt><trkpt lat="44.34649009353515" lon="9.24177114707463"><ele>17.0</ele><time>2026-04-30T11:53:09.996Z</time></trkpt><trkpt lat="44.346600327442104" lon="9.241730062421343"><ele>17.0</ele><time>2026-04-30T11:53:10.996Z</time></trkpt><trkpt lat="44.34670895772478" lon="9.241691944475939"><ele>17.0</ele><time>2026-04-30T11:53:11.996Z</time></trkpt><trkpt lat="44.346819491525416" lon="9.241639546946828"><ele>17.0</ele><time>2026-04-30T11:53:12.996Z</time></trkpt><trkpt lat="44.34692869897551" lon="9.241563694692989"><ele>17.0</ele><time>2026-04-30T11:53:13.996Z</time></trkpt><trkpt lat="44.34702097348436" lon="9.24146846104331"><ele>17.0</ele><time>2026-04-30T11:53:14.996Z</time></trkpt><trkpt lat="44.347098866482135" lon="9.241347328715307"><ele>17.0</ele><time>2026-04-30T11:53:15.996Z</time></trkpt><trkpt lat="44.347176435329764" lon="9.241238961546774"><ele>17.0</ele><time>2026-04-30T11:53:16.996Z</time></trkpt><trkpt lat="44.347257878308326" lon="9.241145151702112"><ele>17.0</ele><time>2026-04-30T11:53:17.996Z</time></trkpt><trkpt lat="44.34734080990931" lon="9.24105296803138"><ele>17.4</ele><time>2026-04-30T11:53:18.996Z</time></trkpt><trkpt lat="44.3474159537194" lon="9.240952200670346"><ele>17.799999999999997</ele><time>2026-04-30T11:53:19.996Z</time></trkpt><trkpt lat="44.34747700002276" lon="9.240835490062999"><ele>18.2</ele><time>2026-04-30T11:53:20.996Z</time></trkpt><trkpt lat="44.34752943957735" lon="9.240715647496238"><ele>18.599999999999998</ele><time>2026-04-30T11:53:21.996Z</time></trkpt><trkpt lat="44.34757177751782" lon="9.24058270432602"><ele>19.0</ele><time>2026-04-30T11:53:22.996Z</time></trkpt><trkpt lat="44.34759760830509" lon="9.240441337235596"><ele>19.0</ele><time>2026-04-30T11:53:23.996Z</time></trkpt><trkpt lat="44.34760204661049" lon="9.240285554866063"><ele>19.0</ele><time>2026-04-30T11:53:24.996Z</time></trkpt><trkpt lat="44.34759212990438" lon="9.240127439222087"><ele>19.0</ele><time>2026-04-30T11:53:25.996Z</time></trkpt><trkpt lat="44.347583785227755" lon="9.239965332907508"><ele>19.0</ele><time>2026-04-30T11:53:26.996Z</time></trkpt><trkpt lat="44.347576614276676" lon="9.239803264046738"><ele>18.5</ele><time>2026-04-30T11:53:27.996Z</time></trkpt><trkpt lat="44.34756417692447" lon="9.239633852062703"><ele>18.0</ele><time>2026-04-30T11:53:28.996Z</time></trkpt><trkpt lat="44.34754946365136" lon="9.23945479941836"><ele>17.5</ele><time>2026-04-30T11:53:29.996Z</time></trkpt><trkpt lat="44.347488501832785" lon="9.239286982436424"><ele>17.0</ele><time>2026-04-30T11:53:30.996Z</time></trkpt><trkpt lat="44.347472540959664" lon="9.239115579294518"><ele>15.75</ele><time>2026-04-30T11:53:31.996Z</time></trkpt><trkpt lat="44.34746087736441" lon="9.23894951453802"><ele>14.5</ele><time>2026-04-30T11:53:32.996Z</time></trkpt><trkpt lat="44.34745506463805" lon="9.238783939443403"><ele>13.25</ele><time>2026-04-30T11:53:33.996Z</time></trkpt><trkpt lat="44.34747173012253" lon="9.238617239230138"><ele>12.0</ele><time>2026-04-30T11:53:34.996Z</time></trkpt><trkpt lat="44.34751118388849" lon="9.238474777322663"><ele>12.0</ele><time>2026-04-30T11:53:35.996Z</time></trkpt><trkpt lat="44.347557120296294" lon="9.23833971059868"><ele>12.0</ele><time>2026-04-30T11:53:36.996Z</time></trkpt><trkpt lat="44.347620294513256" lon="9.238226582368194"><ele>12.0</ele><time>2026-04-30T11:53:37.996Z</time></trkpt><trkpt lat="44.34769963926556" lon="9.238134867801417"><ele>12.0</ele><time>2026-04-30T11:53:38.996Z</time></trkpt><trkpt lat="44.34778699426591" lon="9.238047112729573"><ele>12.0</ele><time>2026-04-30T11:53:39.996Z</time></trkpt><trkpt lat="44.34787239038092" lon="9.237952569987812"><ele>12.0</ele><time>2026-04-30T11:53:40.996Z</time></trkpt><trkpt lat="44.34795099853676" lon="9.237853915256773"><ele>12.0</ele><time>2026-04-30T11:53:41.996Z</time></trkpt><trkpt lat="44.34803566566105" lon="9.237767564108117"><ele>12.0</ele><time>2026-04-30T11:53:42.996Z</time></trkpt><trkpt lat="44.34811820641331" lon="9.237677185985625"><ele>12.0</ele><time>2026-04-30T11:53:43.996Z</time></trkpt><trkpt lat="44.34819704651472" lon="9.23756720656901"><ele>12.0</ele><time>2026-04-30T11:53:44.996Z</time></trkpt><trkpt lat="44.34825932296175" lon="9.23743794093271"><ele>14.0</ele><time>2026-04-30T11:53:45.996Z</time></trkpt><trkpt lat="44.34830142827638" lon="9.237291549026668"><ele>16.0</ele><time>2026-04-30T11:53:46.996Z</time></trkpt><trkpt lat="44.34831562326357" lon="9.237131154353381"><ele>18.0</ele><time>2026-04-30T11:53:47.996Z</time></trkpt><trkpt lat="44.348303454342826" lon="9.236967766454182"><ele>20.0</ele><time>2026-04-30T11:53:48.996Z</time></trkpt><trkpt lat="44.34827333523921" lon="9.236809119134943"><ele>20.0</ele><time>2026-04-30T11:53:49.996Z</time></trkpt><trkpt lat="44.3482295429171" lon="9.236655808312493"><ele>20.0</ele><time>2026-04-30T11:53:50.995Z</time></trkpt><trkpt lat="44.34818304339415" lon="9.236512982476938"><ele>20.0</ele><time>2026-04-30T11:53:51.995Z</time></trkpt><trkpt lat="44.3481427475556" lon="9.236373688513464"><ele>20.0</ele><time>2026-04-30T11:53:52.995Z</time></trkpt><trkpt lat="44.34806953875155" lon="9.236258407550222"><ele>20.0</ele><time>2026-04-30T11:53:53.995Z</time></trkpt><trkpt lat="44.348036114173865" lon="9.236130359196293"><ele>16.8</ele><time>2026-04-30T11:53:54.995Z</time></trkpt><trkpt lat="44.34800716543354" lon="9.23600507294238"><ele>13.6</ele><time>2026-04-30T11:53:55.995Z</time></trkpt><trkpt lat="44.3479874982478" lon="9.235877051290505"><ele>10.4</ele><time>2026-04-30T11:53:56.995Z</time></trkpt><trkpt lat="44.34798153172688" lon="9.235743526747632"><ele>7.2</ele><time>2026-04-30T11:53:57.995Z</time></trkpt><trkpt lat="44.3479959992654" lon="9.235608708179152"><ele>4.0</ele><time>2026-04-30T11:53:58.995Z</time></trkpt><trkpt lat="44.348011504261066" lon="9.235482370178596"><ele>3.833333333333333</ele><time>2026-04-30T11:53:59.995Z</time></trkpt><trkpt lat="44.34803094152084" lon="9.235371950501072"><ele>3.6666666666666665</ele><time>2026-04-30T11:54:00.995Z</time></trkpt><trkpt lat="44.34805781289143" lon="9.235263991548145"><ele>3.5</ele><time>2026-04-30T11:54:01.995Z</time></trkpt><trkpt lat="44.34809687858568" lon="9.235157624736791"><ele>3.333333333333333</ele><time>2026-04-30T11:54:02.995Z</time></trkpt><trkpt lat="44.348149141443116" lon="9.235068393471197"><ele>3.1666666666666665</ele><time>2026-04-30T11:54:03.995Z</time></trkpt><trkpt lat="44.34819788140368" lon="9.234965266349386"><ele>3.0</ele><time>2026-04-30T11:54:04.995Z</time></trkpt><trkpt lat="44.34824847547989" lon="9.234854806425941"><ele>3.833333333333333</ele><time>2026-04-30T11:54:05.995Z</time></trkpt><trkpt lat="44.34830770575136" lon="9.23475309032066"><ele>4.666666666666666</ele><time>2026-04-30T11:54:06.995Z</time></trkpt><trkpt lat="44.34837296052829" lon="9.23466681483618"><ele>5.5</ele><time>2026-04-30T11:54:07.995Z</time></trkpt><trkpt lat="44.348418387763125" lon="9.234578589891266"><ele>6.333333333333333</ele><time>2026-04-30T11:54:08.995Z</time></trkpt><trkpt lat="44.34846514004507" lon="9.234492444795023"><ele>7.166666666666666</ele><time>2026-04-30T11:54:09.995Z</time></trkpt><trkpt lat="44.34850248966034" lon="9.234399455084189"><ele>8.0</ele><time>2026-04-30T11:54:10.995Z</time></trkpt><trkpt lat="44.34854808553347" lon="9.234335202000723"><ele>8.0</ele><time>2026-04-30T11:54:11.995Z</time></trkpt><trkpt lat="44.348620227443746" lon="9.234259011305257"><ele>8.0</ele><time>2026-04-30T11:54:13.995Z</time></trkpt><trkpt lat="44.34867007735082" lon="9.234189478238381"><ele>8.0</ele><time>2026-04-30T11:54:15.995Z</time></trkpt><trkpt lat="44.3487563409827" lon="9.234097453589749"><ele>8.0</ele><time>2026-04-30T11:54:17.996Z</time></trkpt><trkpt lat="44.34887443336269" lon="9.234042009014106"><ele>8.0</ele><time>2026-04-30T11:54:19.996Z</time></trkpt><trkpt lat="44.34894188933518" lon="9.234029187221617"><ele>7.999999999999999</ele><time>2026-04-30T11:54:20.996Z</time></trkpt><trkpt lat="44.34900555387661" lon="9.234013773237963"><ele>8.0</ele><time>2026-04-30T11:54:21.996Z</time></trkpt><trkpt lat="44.34907038865083" lon="9.233998601363428"><ele>8.0</ele><time>2026-04-30T11:54:22.996Z</time></trkpt><trkpt lat="44.349129288101445" lon="9.233959017567921"><ele>8.0</ele><time>2026-04-30T11:54:23.996Z</time></trkpt><trkpt lat="44.34925073772657" lon="9.233938172947996"><ele>7.999999999999999</ele><time>2026-04-30T11:54:25.996Z</time></trkpt><trkpt lat="44.34936249240954" lon="9.233904088396985"><ele>8.0</ele><time>2026-04-30T11:54:27.996Z</time></trkpt><trkpt lat="44.34947167353203" lon="9.233904093803911"><ele>8.0</ele><time>2026-04-30T11:54:29.996Z</time></trkpt><trkpt lat="44.34958065515457" lon="9.23388797146214"><ele>8.0</ele><time>2026-04-30T11:54:31.996Z</time></trkpt><trkpt lat="44.34968401517059" lon="9.233889007124281"><ele>8.0</ele><time>2026-04-30T11:54:33.996Z</time></trkpt><trkpt lat="44.349756397593275" lon="9.233719560419832"><ele>8.0</ele><time>2026-04-30T11:54:34.996Z</time></trkpt><trkpt lat="44.34980381609377" lon="9.233629688400637"><ele>8.0</ele><time>2026-04-30T11:54:35.996Z</time></trkpt><trkpt lat="44.34985457774069" lon="9.233521617190167"><ele>7.999999999999999</ele><time>2026-04-30T11:54:36.996Z</time></trkpt><trkpt lat="44.349901186174975" lon="9.233419293390206"><ele>8.0</ele><time>2026-04-30T11:54:37.996Z</time></trkpt><trkpt lat="44.34994458946919" lon="9.233324201808081"><ele>8.0</ele><time>2026-04-30T11:54:38.996Z</time></trkpt><trkpt lat="44.34998647234478" lon="9.23323139717869"><ele>8.0</ele><time>2026-04-30T11:54:39.996Z</time></trkpt><trkpt lat="44.350022895728884" lon="9.233149802345887"><ele>7.999999999999999</ele><time>2026-04-30T11:54:40.996Z</time></trkpt><trkpt lat="44.35008066452965" lon="9.233021205110992"><ele>8.0</ele><time>2026-04-30T11:54:42.995Z</time></trkpt><trkpt lat="44.35012451062762" lon="9.232924181371756"><ele>8.0</ele><time>2026-04-30T11:54:44.995Z</time></trkpt><trkpt lat="44.35017616107122" lon="9.232853688344663"><ele>8.0</ele><time>2026-04-30T11:54:53.995Z</time></trkpt><trkpt lat="44.35023735780054" lon="9.23276467878359"><ele>8.0</ele><time>2026-04-30T11:54:59.995Z</time></trkpt><trkpt lat="44.3503313970401" lon="9.232630898059293"><ele>8.0</ele><time>2026-04-30T11:55:01.995Z</time></trkpt><trkpt lat="44.35036907909375" lon="9.232442019023"><ele>8.0</ele><time>2026-04-30T11:55:02.995Z</time></trkpt><trkpt lat="44.35043656793089" lon="9.232287695390959"><ele>8.0</ele><time>2026-04-30T11:55:03.995Z</time></trkpt><trkpt lat="44.3505063335187" lon="9.232131904045188"><ele>8.0</ele><time>2026-04-30T11:55:04.995Z</time></trkpt><trkpt lat="44.35056500789205" lon="9.231975468597291"><ele>8.0</ele><time>2026-04-30T11:55:05.995Z</time></trkpt><trkpt lat="44.35062900999677" lon="9.231830764304279"><ele>8.0</ele><time>2026-04-30T11:55:06.995Z</time></trkpt><trkpt lat="44.35068716274669" lon="9.23170510573306"><ele>8.0</ele><time>2026-04-30T11:55:07.995Z</time></trkpt><trkpt lat="44.35073755314082" lon="9.231589939408797"><ele>8.0</ele><time>2026-04-30T11:55:08.995Z</time></trkpt><trkpt lat="44.35079575833233" lon="9.231471482481941"><ele>8.0</ele><time>2026-04-30T11:55:09.995Z</time></trkpt><trkpt lat="44.35082264309639" lon="9.231316778803743"><ele>8.0</ele><time>2026-04-30T11:55:10.995Z</time></trkpt><trkpt lat="44.35080795137354" lon="9.231163298957593"><ele>8.0</ele><time>2026-04-30T11:55:11.995Z</time></trkpt><trkpt lat="44.35075320141047" lon="9.230992408934437"><ele>7.833333333333333</ele><time>2026-04-30T11:55:12.995Z</time></trkpt><trkpt lat="44.350680796831476" lon="9.230919281612628"><ele>7.666666666666666</ele><time>2026-04-30T11:55:13.995Z</time></trkpt><trkpt lat="44.35059887395854" lon="9.230851495557387"><ele>7.5</ele><time>2026-04-30T11:55:14.995Z</time></trkpt><trkpt lat="44.35052498593674" lon="9.230795554634598"><ele>7.333333333333334</ele><time>2026-04-30T11:55:15.995Z</time></trkpt><trkpt lat="44.350459250931976" lon="9.230743022352769"><ele>7.166666666666667</ele><time>2026-04-30T11:55:16.995Z</time></trkpt><trkpt lat="44.350383135367416" lon="9.230683127541951"><ele>7.0</ele><time>2026-04-30T11:55:17.995Z</time></trkpt><trkpt lat="44.350309924546515" lon="9.230625518453207"><ele>7.833333333333334</ele><time>2026-04-30T11:55:18.995Z</time></trkpt><trkpt lat="44.35024253567273" lon="9.230572490614694"><ele>8.666666666666668</ele><time>2026-04-30T11:55:19.995Z</time></trkpt><trkpt lat="44.35017504835788" lon="9.230519385313556"><ele>9.5</ele><time>2026-04-30T11:55:20.995Z</time></trkpt><trkpt lat="44.350098767847655" lon="9.230480045305264"><ele>10.333333333333334</ele><time>2026-04-30T11:55:21.995Z</time></trkpt><trkpt lat="44.35002616523276" lon="9.230414583955485"><ele>11.166666666666666</ele><time>2026-04-30T11:55:22.995Z</time></trkpt><trkpt lat="44.34994559016234" lon="9.23035123903367"><ele>12.0</ele><time>2026-04-30T11:55:23.995Z</time></trkpt><trkpt lat="44.34987244089737" lon="9.230280266717305"><ele>12.0</ele><time>2026-04-30T11:55:24.995Z</time></trkpt><trkpt lat="44.349789389974084" lon="9.230212055948664"><ele>12.0</ele><time>2026-04-30T11:55:25.995Z</time></trkpt><trkpt lat="44.34972013584146" lon="9.230157859452838"><ele>12.0</ele><time>2026-04-30T11:55:26.995Z</time></trkpt><trkpt lat="44.34965525382709" lon="9.230113097397068"><ele>12.0</ele><time>2026-04-30T11:55:27.995Z</time></trkpt><trkpt lat="44.34959022535425" lon="9.230077978773036"><ele>12.0</ele><time>2026-04-30T11:55:28.995Z</time></trkpt><trkpt lat="44.349485390745166" lon="9.230003602520394"><ele>12.0</ele><time>2026-04-30T11:55:30.995Z</time></trkpt><trkpt lat="44.34939538599027" lon="9.229892470269595"><ele>12.2</ele><time>2026-04-30T11:55:32.995Z</time></trkpt><trkpt lat="44.3493718029807" lon="9.229800209039265"><ele>12.399999999999999</ele><time>2026-04-30T11:55:33.994Z</time></trkpt><trkpt lat="44.349384157682096" lon="9.229630681676845"><ele>12.600000000000001</ele><time>2026-04-30T11:55:35.994Z</time></trkpt><trkpt lat="44.349384157682096" lon="9.229519008485026"><ele>12.8</ele><time>2026-04-30T11:55:37.994Z</time></trkpt><trkpt lat="44.34936901525466" lon="9.229370235658882"><ele>13.0</ele><time>2026-04-30T11:55:39.994Z</time></trkpt><trkpt lat="44.34932427395962" lon="9.229277763744696"><ele>13.0</ele><time>2026-04-30T11:55:40.994Z</time></trkpt><trkpt lat="44.34927999902847" lon="9.229184980294455"><ele>13.0</ele><time>2026-04-30T11:55:41.994Z</time></trkpt><trkpt lat="44.34926403492633" lon="9.229071466500075"><ele>13.0</ele><time>2026-04-30T11:55:42.994Z</time></trkpt><trkpt lat="44.34924160940936" lon="9.228949323486349"><ele>13.0</ele><time>2026-04-30T11:55:43.994Z</time></trkpt><trkpt lat="44.34914710135413" lon="9.228908415285058"><ele>13.0</ele><time>2026-04-30T11:55:44.994Z</time></trkpt><trkpt lat="44.34908334024611" lon="9.228767961189835"><ele>12.999999999999998</ele><time>2026-04-30T11:55:46.994Z</time></trkpt><trkpt lat="44.34904751012302" lon="9.228690651498514"><ele>13.0</ele><time>2026-04-30T11:55:47.994Z</time></trkpt><trkpt lat="44.34900974810692" lon="9.2286093121497"><ele>13.0</ele><time>2026-04-30T11:55:48.994Z</time></trkpt><trkpt lat="44.348967209466394" lon="9.228517683956142"><ele>13.0</ele><time>2026-04-30T11:55:49.994Z</time></trkpt><trkpt lat="44.34892339394225" lon="9.228423305356678"><ele>12.999999999999998</ele><time>2026-04-30T11:55:50.994Z</time></trkpt><trkpt lat="44.348879931609424" lon="9.22832835427533"><ele>13.0</ele><time>2026-04-30T11:55:51.994Z</time></trkpt><trkpt lat="44.34882886048332" lon="9.228217715454788"><ele>11.8</ele><time>2026-04-30T11:55:52.994Z</time></trkpt><trkpt lat="44.34878312412821" lon="9.2281164215467"><ele>10.600000000000001</ele><time>2026-04-30T11:55:53.994Z</time></trkpt><trkpt lat="44.34873521251005" lon="9.228009221589344"><ele>9.399999999999999</ele><time>2026-04-30T11:55:54.994Z</time></trkpt><trkpt lat="44.348688732540246" lon="9.22790601252491"><ele>8.2</ele><time>2026-04-30T11:55:55.994Z</time></trkpt><trkpt lat="44.34863817887443" lon="9.227793889925895"><ele>7.0</ele><time>2026-04-30T11:55:56.994Z</time></trkpt><trkpt lat="44.34852226005805" lon="9.227719610372938"><ele>7.000000000000001</ele><time>2026-04-30T11:55:57.994Z</time></trkpt><trkpt lat="44.34847227526301" lon="9.227620386981433"><ele>7.0</ele><time>2026-04-30T11:55:58.994Z</time></trkpt><trkpt lat="44.348430571530606" lon="9.227525418578132"><ele>7.0</ele><time>2026-04-30T11:55:59.994Z</time></trkpt><trkpt lat="44.34840078426257" lon="9.227389871479774"><ele>7.0</ele><time>2026-04-30T11:56:00.994Z</time></trkpt><trkpt lat="44.348358376859224" lon="9.227286825041123"><ele>7.000000000000001</ele><time>2026-04-30T11:56:01.994Z</time></trkpt><trkpt lat="44.34831635468817" lon="9.227190911482342"><ele>7.0</ele><time>2026-04-30T11:56:02.994Z</time></trkpt><trkpt lat="44.34827351557096" lon="9.227100688240684"><ele>6.833333333333334</ele><time>2026-04-30T11:56:03.994Z</time></trkpt><trkpt lat="44.34823067034883" lon="9.227010733396813"><ele>6.666666666666667</ele><time>2026-04-30T11:56:04.994Z</time></trkpt><trkpt lat="44.34818317058252" lon="9.22691638708377"><ele>6.5</ele><time>2026-04-30T11:56:05.994Z</time></trkpt><trkpt lat="44.34814032520868" lon="9.226817139995893"><ele>6.333333333333334</ele><time>2026-04-30T11:56:06.994Z</time></trkpt><trkpt lat="44.348097519765645" lon="9.226710878017657"><ele>6.166666666666667</ele><time>2026-04-30T11:56:07.994Z</time></trkpt><trkpt lat="44.34805423081306" lon="9.22659181287199"><ele>6.0</ele><time>2026-04-30T11:56:08.994Z</time></trkpt><trkpt lat="44.34801070407626" lon="9.22647664282185"><ele>7.8</ele><time>2026-04-30T11:56:09.994Z</time></trkpt><trkpt lat="44.3479615854836" lon="9.226348086567794"><ele>9.6</ele><time>2026-04-30T11:56:10.994Z</time></trkpt><trkpt lat="44.34790774325427" lon="9.226230586496609"><ele>11.4</ele><time>2026-04-30T11:56:11.994Z</time></trkpt><trkpt lat="44.347844100004345" lon="9.226121660305703"><ele>13.2</ele><time>2026-04-30T11:56:12.994Z</time></trkpt><trkpt lat="44.347777090839564" lon="9.22603524108419"><ele>15.0</ele><time>2026-04-30T11:56:13.994Z</time></trkpt><trkpt lat="44.34767442474039" lon="9.226013801288518"><ele>15.0</ele><time>2026-04-30T11:56:14.994Z</time></trkpt><trkpt lat="44.34759148884008" lon="9.226042147089931"><ele>15.0</ele><time>2026-04-30T11:56:15.994Z</time></trkpt><trkpt lat="44.347509221565154" lon="9.226084305111014"><ele>15.0</ele><time>2026-04-30T11:56:16.994Z</time></trkpt><trkpt lat="44.34743320539385" lon="9.226143891240673"><ele>15.0</ele><time>2026-04-30T11:56:17.994Z</time></trkpt><trkpt lat="44.34722094702243" lon="9.225926358391515"><ele>15.25</ele><time>2026-04-30T11:56:18.994Z</time></trkpt><trkpt lat="44.34713177450695" lon="9.226024911602495"><ele>15.5</ele><time>2026-04-30T11:56:20.994Z</time></trkpt><trkpt lat="44.34700910391265" lon="9.22612324527099"><ele>15.75</ele><time>2026-04-30T11:56:22.994Z</time></trkpt><trkpt lat="44.34696236345031" lon="9.225998843660772"><ele>16.0</ele><time>2026-04-30T11:56:23.994Z</time></trkpt><trkpt lat="44.34691302865966" lon="9.225812182043049"><ele>19.75</ele><time>2026-04-30T11:56:24.994Z</time></trkpt><trkpt lat="44.34685731193701" lon="9.225643817060408"><ele>23.5</ele><time>2026-04-30T11:56:25.993Z</time></trkpt><trkpt lat="44.34673522444598" lon="9.225495015524622"><ele>27.25</ele><time>2026-04-30T11:56:26.993Z</time></trkpt><trkpt lat="44.34667078248422" lon="9.225335291118379"><ele>31.0</ele><time>2026-04-30T11:56:27.993Z</time></trkpt><trkpt lat="44.34660249312447" lon="9.225142528380987"><ele>31.0</ele><time>2026-04-30T11:56:28.993Z</time></trkpt><trkpt lat="44.346495422687234" lon="9.225033406372127"><ele>31.0</ele><time>2026-04-30T11:56:29.993Z</time></trkpt><trkpt lat="44.3463784842388" lon="9.224963850773777"><ele>31.0</ele><time>2026-04-30T11:56:30.993Z</time></trkpt><trkpt lat="44.34625809616034" lon="9.224902868518924"><ele>31.0</ele><time>2026-04-30T11:56:31.993Z</time></trkpt><trkpt lat="44.346137254368514" lon="9.224855773762728"><ele>31.200000000000003</ele><time>2026-04-30T11:56:32.993Z</time></trkpt><trkpt lat="44.346020678068385" lon="9.224872155710543"><ele>31.400000000000002</ele><time>2026-04-30T11:56:33.993Z</time></trkpt><trkpt lat="44.34594421154576" lon="9.224974563405233"><ele>31.6</ele><time>2026-04-30T11:56:34.993Z</time></trkpt><trkpt lat="44.34586720653684" lon="9.225053993550233"><ele>31.8</ele><time>2026-04-30T11:56:35.993Z</time></trkpt><trkpt lat="44.34579089096389" lon="9.22513165955749"><ele>32.0</ele><time>2026-04-30T11:56:36.993Z</time></trkpt><trkpt lat="44.34570110708117" lon="9.225162363139404"><ele>32.0</ele><time>2026-04-30T11:56:37.993Z</time></trkpt><trkpt lat="44.345588110199856" lon="9.225178556800808"><ele>32.0</ele><time>2026-04-30T11:56:38.993Z</time></trkpt><trkpt lat="44.34546006637602" lon="9.225167560027899"><ele>32.0</ele><time>2026-04-30T11:56:39.993Z</time></trkpt><trkpt lat="44.34532118350521" lon="9.225144716706996"><ele>32.0</ele><time>2026-04-30T11:56:40.993Z</time></trkpt><trkpt lat="44.345201443287124" lon="9.225130451113028"><ele>35.0</ele><time>2026-04-30T11:56:41.993Z</time></trkpt><trkpt lat="44.34508647837172" lon="9.225129658508468"><ele>38.0</ele><time>2026-04-30T11:56:42.993Z</time></trkpt><trkpt lat="44.3449676167428" lon="9.22516860247478"><ele>41.0</ele><time>2026-04-30T11:56:43.993Z</time></trkpt><trkpt lat="44.3448674592534" lon="9.225249737185678"><ele>44.0</ele><time>2026-04-30T11:56:44.993Z</time></trkpt><trkpt lat="44.34480348846038" lon="9.225387333533954"><ele>44.0</ele><time>2026-04-30T11:56:45.993Z</time></trkpt><trkpt lat="44.34477078818171" lon="9.225549580035052"><ele>44.0</ele><time>2026-04-30T11:56:46.993Z</time></trkpt><trkpt lat="44.34474029098371" lon="9.225715296883601"><ele>44.0</ele><time>2026-04-30T11:56:47.993Z</time></trkpt><trkpt lat="44.34472475623214" lon="9.225867716095166"><ele>44.0</ele><time>2026-04-30T11:56:48.993Z</time></trkpt><trkpt lat="44.34467802209954" lon="9.225997268660672"><ele>44.800000000000004</ele><time>2026-04-30T11:56:49.993Z</time></trkpt><trkpt lat="44.34461222765436" lon="9.226092010637629"><ele>45.6</ele><time>2026-04-30T11:56:51Z</time></trkpt><trkpt lat="44.34452612944227" lon="9.226140251512081"><ele>46.4</ele><time>2026-04-30T11:56:52Z</time></trkpt><trkpt lat="44.34442608543715" lon="9.22613256087999"><ele>47.2</ele><time>2026-04-30T11:56:53Z</time></trkpt><trkpt lat="44.344322951312094" lon="9.226090884762158"><ele>48.0</ele><time>2026-04-30T11:56:54Z</time></trkpt><trkpt lat="44.344222504919635" lon="9.226018254363773"><ele>48.0</ele><time>2026-04-30T11:56:55Z</time></trkpt><trkpt lat="44.344116671269795" lon="9.22597333865557"><ele>48.0</ele><time>2026-04-30T11:56:56Z</time></trkpt><trkpt lat="44.34400329788392" lon="9.225960911823245"><ele>48.0</ele><time>2026-04-30T11:56:57Z</time></trkpt><trkpt lat="44.343893907703375" lon="9.22599924437148"><ele>48.0</ele><time>2026-04-30T11:56:58Z</time></trkpt><trkpt lat="44.34379710654061" lon="9.226084552476737"><ele>48.75</ele><time>2026-04-30T11:56:59Z</time></trkpt><trkpt lat="44.3437069046667" lon="9.22619447562753"><ele>49.5</ele><time>2026-04-30T11:57:00Z</time></trkpt><trkpt lat="44.343610784431895" lon="9.226295603066767"><ele>50.25</ele><time>2026-04-30T11:57:01Z</time></trkpt><trkpt lat="44.343543907540266" lon="9.226425031131027"><ele>51.0</ele><time>2026-04-30T11:57:02Z</time></trkpt><trkpt lat="44.343470308334446" lon="9.226551297540555"><ele>51.0</ele><time>2026-04-30T11:57:03Z</time></trkpt><trkpt lat="44.34339943369385" lon="9.226659175447972"><ele>51.0</ele><time>2026-04-30T11:57:04Z</time></trkpt><trkpt lat="44.34333939554193" lon="9.22675725441381"><ele>51.0</ele><time>2026-04-30T11:57:05Z</time></trkpt><trkpt lat="44.34327602079709" lon="9.226836616673591"><ele>51.0</ele><time>2026-04-30T11:57:06Z</time></trkpt><trkpt lat="44.34320880373805" lon="9.226897007848033"><ele>51.0</ele><time>2026-04-30T11:57:07Z</time></trkpt><trkpt lat="44.34312583128073" lon="9.226911950449935"><ele>51.0</ele><time>2026-04-30T11:57:08Z</time></trkpt><trkpt lat="44.34304863486924" lon="9.226883343159585"><ele>52.4</ele><time>2026-04-30T11:57:09Z</time></trkpt><trkpt lat="44.34299063647637" lon="9.226833020696676"><ele>53.8</ele><time>2026-04-30T11:57:10Z</time></trkpt><trkpt lat="44.34294244345318" lon="9.226774659258913"><ele>55.199999999999996</ele><time>2026-04-30T11:57:11Z</time></trkpt><trkpt lat="44.34295163882263" lon="9.226582940253078"><ele>56.599999999999994</ele><time>2026-04-30T11:57:12Z</time></trkpt><trkpt lat="44.34301251196103" lon="9.226454359243032"><ele>58.0</ele><time>2026-04-30T11:57:13Z</time></trkpt><trkpt lat="44.34310666866326" lon="9.22633922557778"><ele>58.0</ele><time>2026-04-30T11:57:14Z</time></trkpt><trkpt lat="44.34315817959053" lon="9.226177623982586"><ele>58.0</ele><time>2026-04-30T11:57:15Z</time></trkpt><trkpt lat="44.34318595754257" lon="9.225988379215314"><ele>58.0</ele><time>2026-04-30T11:57:16Z</time></trkpt><trkpt lat="44.343201338286" lon="9.225796063950087"><ele>58.0</ele><time>2026-04-30T11:57:17Z</time></trkpt><trkpt lat="44.343270808217746" lon="9.225625035774957"><ele>59.0</ele><time>2026-04-30T11:57:18Z</time></trkpt><trkpt lat="44.34327816653416" lon="9.225472929081779"><ele>60.0</ele><time>2026-04-30T11:57:19Z</time></trkpt><trkpt lat="44.343291254989445" lon="9.225373208617482"><ele>61.0</ele><time>2026-04-30T11:57:20Z</time></trkpt><trkpt lat="44.343328746701516" lon="9.22529195054182"><ele>62.0</ele><time>2026-04-30T11:57:21Z</time></trkpt><trkpt lat="44.34339525831077" lon="9.225227033822947"><ele>63.0</ele><time>2026-04-30T11:57:22Z</time></trkpt><trkpt lat="44.343517106745495" lon="9.225097564836949"><ele>63.0</ele><time>2026-04-30T11:57:23Z</time></trkpt><trkpt lat="44.343612232328795" lon="9.224931990241362"><ele>63.0</ele><time>2026-04-30T11:57:24Z</time></trkpt><trkpt lat="44.34369078608398" lon="9.224742506409015"><ele>63.0</ele><time>2026-04-30T11:57:25Z</time></trkpt><trkpt lat="44.34374852484958" lon="9.224530318480381"><ele>61.75</ele><time>2026-04-30T11:57:26Z</time></trkpt><trkpt lat="44.34376583621289" lon="9.224306492346562"><ele>60.5</ele><time>2026-04-30T11:57:27Z</time></trkpt><trkpt lat="44.34375888547445" lon="9.224116576440961"><ele>59.25</ele><time>2026-04-30T11:57:28Z</time></trkpt><trkpt lat="44.34375290703493" lon="9.223963233908199"><ele>58.0</ele><time>2026-04-30T11:57:29Z</time></trkpt><trkpt lat="44.34376274763591" lon="9.223848578597208"><ele>57.75</ele><time>2026-04-30T11:57:30Z</time></trkpt><trkpt lat="44.343799413752514" lon="9.223728698099789"><ele>57.5</ele><time>2026-04-30T11:57:31Z</time></trkpt><trkpt lat="44.343865357890444" lon="9.223592997014581"><ele>57.25</ele><time>2026-04-30T11:57:32Z</time></trkpt><trkpt lat="44.343938311308726" lon="9.223444647820639"><ele>57.0</ele><time>2026-04-30T11:57:33Z</time></trkpt><trkpt lat="44.34398230163548" lon="9.223229757793755"><ele>62.6</ele><time>2026-04-30T11:57:34Z</time></trkpt><trkpt lat="44.3439601362418" lon="9.223078833544402"><ele>68.2</ele><time>2026-04-30T11:57:35Z</time></trkpt><trkpt lat="44.34393581402498" lon="9.222950166157293"><ele>73.8</ele><time>2026-04-30T11:57:36Z</time></trkpt><trkpt lat="44.34393791624333" lon="9.222833239109438"><ele>79.4</ele><time>2026-04-30T11:57:37Z</time></trkpt><trkpt lat="44.34397371493774" lon="9.2226972044172"><ele>85.0</ele><time>2026-04-30T11:57:38Z</time></trkpt><trkpt lat="44.34402224303305" lon="9.22252488784459"><ele>85.0</ele><time>2026-04-30T11:57:39Z</time></trkpt><trkpt lat="44.34405059989289" lon="9.222331911227114"><ele>85.0</ele><time>2026-04-30T11:57:40Z</time></trkpt><trkpt lat="44.34405666022377" lon="9.222170982623561"><ele>85.0</ele><time>2026-04-30T11:57:41Z</time></trkpt><trkpt lat="44.34407054305162" lon="9.222033286544955"><ele>85.0</ele><time>2026-04-30T11:57:42Z</time></trkpt><trkpt lat="44.34412190423927" lon="9.221883178722825"><ele>84.66666666666666</ele><time>2026-04-30T11:57:43Z</time></trkpt><trkpt lat="44.34420615005383" lon="9.22169306606758"><ele>84.33333333333333</ele><time>2026-04-30T11:57:44Z</time></trkpt><trkpt lat="44.344249787355686" lon="9.221479161820527"><ele>84.0</ele><time>2026-04-30T11:57:45Z</time></trkpt><trkpt lat="44.34427769247153" lon="9.221270425042057"><ele>84.0</ele><time>2026-04-30T11:57:46Z</time></trkpt><trkpt lat="44.34430252370402" lon="9.221068435017479"><ele>84.0</ele><time>2026-04-30T11:57:47Z</time></trkpt><trkpt lat="44.34432562146829" lon="9.22087251008174"><ele>84.0</ele><time>2026-04-30T11:57:48Z</time></trkpt><trkpt lat="44.3443619179153" lon="9.220685802021434"><ele>84.0</ele><time>2026-04-30T11:57:49Z</time></trkpt><trkpt lat="44.34441412986534" lon="9.220516663290658"><ele>83.75</ele><time>2026-04-30T11:57:50Z</time></trkpt><trkpt lat="44.34447800382809" lon="9.22035722013973"><ele>83.5</ele><time>2026-04-30T11:57:51Z</time></trkpt><trkpt lat="44.34454747562466" lon="9.220164600042066"><ele>83.25</ele><time>2026-04-30T11:57:52Z</time></trkpt><trkpt lat="44.344547337524325" lon="9.219965469259865"><ele>83.0</ele><time>2026-04-30T11:57:53Z</time></trkpt><trkpt lat="44.3445455398364" lon="9.219786361733387"><ele>81.25</ele><time>2026-04-30T11:57:53.999Z</time></trkpt><trkpt lat="44.34454392118104" lon="9.219619181416556"><ele>79.5</ele><time>2026-04-30T11:57:54.999Z</time></trkpt><trkpt lat="44.344544725146555" lon="9.219462344474458"><ele>77.75</ele><time>2026-04-30T11:57:55.999Z</time></trkpt><trkpt lat="44.34455926585996" lon="9.219311642531686"><ele>76.0</ele><time>2026-04-30T11:57:56.999Z</time></trkpt><trkpt lat="44.34461898681161" lon="9.219170396653785"><ele>76.0</ele><time>2026-04-30T11:57:57.999Z</time></trkpt><trkpt lat="44.344701025977955" lon="9.219033803653131"><ele>76.0</ele><time>2026-04-30T11:57:58.999Z</time></trkpt><trkpt lat="44.34477493006429" lon="9.218886283637408"><ele>76.0</ele><time>2026-04-30T11:57:59.999Z</time></trkpt><trkpt lat="44.34482988747971" lon="9.21871237264055"><ele>76.0</ele><time>2026-04-30T11:58:00.999Z</time></trkpt><trkpt lat="44.34485744758795" lon="9.218518279499042"><ele>85.5</ele><time>2026-04-30T11:58:01.999Z</time></trkpt><trkpt lat="44.344870637530306" lon="9.218312425497098"><ele>95.0</ele><time>2026-04-30T11:58:02.999Z</time></trkpt><trkpt lat="44.344850903216866" lon="9.218115652857243"><ele>104.5</ele><time>2026-04-30T11:58:03.999Z</time></trkpt><trkpt lat="44.34483206091509" lon="9.217926130265331"><ele>114.0</ele><time>2026-04-30T11:58:04.999Z</time></trkpt><trkpt lat="44.344806341616824" lon="9.21774626918301"><ele>115.0</ele><time>2026-04-30T11:58:05.999Z</time></trkpt><trkpt lat="44.34479320389118" lon="9.217563496575705"><ele>116.0</ele><time>2026-04-30T11:58:06.999Z</time></trkpt><trkpt lat="44.34475859419658" lon="9.217383119952109"><ele>117.0</ele><time>2026-04-30T11:58:07.999Z</time></trkpt><trkpt lat="44.344735704948256" lon="9.217190766798778"><ele>118.0</ele><time>2026-04-30T11:58:08.999Z</time></trkpt><trkpt lat="44.344712670684245" lon="9.216998328318285"><ele>112.75</ele><time>2026-04-30T11:58:09.999Z</time></trkpt><trkpt lat="44.34469003080228" lon="9.216809184654203"><ele>107.5</ele><time>2026-04-30T11:58:10.999Z</time></trkpt><trkpt lat="44.34466818743223" lon="9.216620992646634"><ele>102.25</ele><time>2026-04-30T11:58:11.999Z</time></trkpt><trkpt lat="44.344646517924744" lon="9.216429536659641"><ele>97.0</ele><time>2026-04-30T11:58:12.999Z</time></trkpt><trkpt lat="44.3446234952106" lon="9.216236180968583"><ele>97.0</ele><time>2026-04-30T11:58:13.999Z</time></trkpt><trkpt lat="44.344599428575364" lon="9.216038003608396"><ele>97.0</ele><time>2026-04-30T11:58:14.999Z</time></trkpt><trkpt lat="44.34457485834821" lon="9.215835679399868"><ele>97.0</ele><time>2026-04-30T11:58:15.999Z</time></trkpt><trkpt lat="44.34454979276513" lon="9.215625460766148"><ele>97.0</ele><time>2026-04-30T11:58:16.999Z</time></trkpt><trkpt lat="44.344525385570904" lon="9.215419588167363"><ele>99.75</ele><time>2026-04-30T11:58:17.999Z</time></trkpt><trkpt lat="44.34450088211517" lon="9.215209915037692"><ele>102.5</ele><time>2026-04-30T11:58:18.999Z</time></trkpt><trkpt lat="44.3444775399984" lon="9.215004873457152"><ele>105.25</ele><time>2026-04-30T11:58:19.999Z</time></trkpt><trkpt lat="44.34445367332911" lon="9.214804377805603"><ele>108.0</ele><time>2026-04-30T11:58:20.999Z</time></trkpt><trkpt lat="44.34443035199835" lon="9.214616237342021"><ele>111.4</ele><time>2026-04-30T11:58:21.999Z</time></trkpt><trkpt lat="44.34439754935787" lon="9.214457215744462"><ele>114.80000000000001</ele><time>2026-04-30T11:58:22.999Z</time></trkpt><trkpt lat="44.34436189302271" lon="9.214309965530719"><ele>118.2</ele><time>2026-04-30T11:58:23.999Z</time></trkpt><trkpt lat="44.344328264797895" lon="9.21417459759531"><ele>121.6</ele><time>2026-04-30T11:58:24.999Z</time></trkpt><trkpt lat="44.34430119325049" lon="9.214066945906598"><ele>125.0</ele><time>2026-04-30T11:58:25.999Z</time></trkpt><trkpt lat="44.34429635147889" lon="9.21394602043513"><ele>132.33333333333331</ele><time>2026-04-30T11:58:26.999Z</time></trkpt><trkpt lat="44.34420793519479" lon="9.213847417978396"><ele>139.66666666666666</ele><time>2026-04-30T11:58:27.999Z</time></trkpt><trkpt lat="44.344093463632" lon="9.213818807706485"><ele>147.0</ele><time>2026-04-30T11:58:28.999Z</time></trkpt><trkpt lat="44.34384560240606" lon="9.213885235421888"><ele>143.79999999999998</ele><time>2026-04-30T11:58:29.999Z</time></trkpt><trkpt lat="44.34376945012466" lon="9.214014243437221"><ele>140.6</ele><time>2026-04-30T11:58:30.999Z</time></trkpt><trkpt lat="44.34370411600297" lon="9.21412284636344"><ele>137.39999999999998</ele><time>2026-04-30T11:58:31.999Z</time></trkpt><trkpt lat="44.34365558629191" lon="9.214196177866029"><ele>134.2</ele><time>2026-04-30T11:58:32.999Z</time></trkpt><trkpt lat="44.343610110057" lon="9.214259522622658"><ele>131.0</ele><time>2026-04-30T11:58:33.999Z</time></trkpt><trkpt lat="44.34352430338545" lon="9.214319473654761"><ele>131.0</ele><time>2026-04-30T11:58:34.999Z</time></trkpt><trkpt lat="44.343401956192935" lon="9.21434088808678"><ele>131.0</ele><time>2026-04-30T11:58:35.999Z</time></trkpt><trkpt lat="44.343268622315605" lon="9.214333140781797"><ele>131.0</ele><time>2026-04-30T11:58:36.999Z</time></trkpt><trkpt lat="44.34305493013417" lon="9.214218496319484"><ele>137.0</ele><time>2026-04-30T11:58:37.999Z</time></trkpt><trkpt lat="44.342884854291015" lon="9.214328155317006"><ele>143.0</ele><time>2026-04-30T11:58:38.999Z</time></trkpt><trkpt lat="44.34292219781918" lon="9.214750202786433"><ele>138.66666666666666</ele><time>2026-04-30T11:58:39.999Z</time></trkpt><trkpt lat="44.342805534696545" lon="9.21488937057181"><ele>134.33333333333334</ele><time>2026-04-30T11:58:40.999Z</time></trkpt><trkpt lat="44.34267242730941" lon="9.214991770187744"><ele>130.0</ele><time>2026-04-30T11:58:41.999Z</time></trkpt><trkpt lat="44.34252910213058" lon="9.215051017492259"><ele>130.0</ele><time>2026-04-30T11:58:42.999Z</time></trkpt><trkpt lat="44.34233771296992" lon="9.214919041917838"><ele>130.0</ele><time>2026-04-30T11:58:43.999Z</time></trkpt><trkpt lat="44.3422081811784" lon="9.214965931458583"><ele>130.0</ele><time>2026-04-30T11:58:44.998Z</time></trkpt><trkpt lat="44.34205885377612" lon="9.215005504149927"><ele>134.33333333333334</ele><time>2026-04-30T11:58:45.998Z</time></trkpt><trkpt lat="44.34190853426032" lon="9.2150450684002"><ele>138.66666666666666</ele><time>2026-04-30T11:58:46.998Z</time></trkpt><trkpt lat="44.34175181813398" lon="9.215085217242788"><ele>143.0</ele><time>2026-04-30T11:58:47.998Z</time></trkpt><trkpt lat="44.341573010473766" lon="9.215131306018618"><ele>143.0</ele><time>2026-04-30T11:58:48.998Z</time></trkpt><trkpt lat="44.34140352979597" lon="9.215091471943436"><ele>143.0</ele><time>2026-04-30T11:58:49.998Z</time></trkpt><trkpt lat="44.34122530003518" lon="9.215082014477623"><ele>143.0</ele><time>2026-04-30T11:58:50.998Z</time></trkpt><trkpt lat="44.341120928064484" lon="9.214959624082828"><ele>142.75</ele><time>2026-04-30T11:58:51.998Z</time></trkpt><trkpt lat="44.34107839105731" lon="9.214817327523143"><ele>142.5</ele><time>2026-04-30T11:58:52.998Z</time></trkpt><trkpt lat="44.34106464095161" lon="9.214651575673415"><ele>142.25</ele><time>2026-04-30T11:58:53.998Z</time></trkpt><trkpt lat="44.34109688013185" lon="9.214437583076876"><ele>142.0</ele><time>2026-04-30T11:58:54.998Z</time></trkpt><trkpt lat="44.341133487081635" lon="9.214221031278749"><ele>142.0</ele><time>2026-04-30T11:58:55.998Z</time></trkpt><trkpt lat="44.34117467526737" lon="9.214011820096225"><ele>142.0</ele><time>2026-04-30T11:58:56.998Z</time></trkpt><trkpt lat="44.341204158545565" lon="9.213792144046753"><ele>142.0</ele><time>2026-04-30T11:58:57.998Z</time></trkpt><trkpt lat="44.34120770561936" lon="9.213604938783927"><ele>142.0</ele><time>2026-04-30T11:58:58.998Z</time></trkpt><trkpt lat="44.341209477696545" lon="9.213392672526213"><ele>141.0</ele><time>2026-04-30T11:58:59.998Z</time></trkpt><trkpt lat="44.341257906767254" lon="9.213171866344913"><ele>140.0</ele><time>2026-04-30T11:59:00.998Z</time></trkpt><trkpt lat="44.341334238098504" lon="9.212978726868132"><ele>139.0</ele><time>2026-04-30T11:59:01.998Z</time></trkpt><trkpt lat="44.341404482386324" lon="9.212792822597109"><ele>145.75</ele><time>2026-04-30T11:59:02.998Z</time></trkpt><trkpt lat="44.34145789578966" lon="9.212609783569215"><ele>152.5</ele><time>2026-04-30T11:59:03.998Z</time></trkpt><trkpt lat="44.34148406009092" lon="9.212418081677857"><ele>159.25</ele><time>2026-04-30T11:59:04.998Z</time></trkpt><trkpt lat="44.34149016023735" lon="9.21221468867037"><ele>166.0</ele><time>2026-04-30T11:59:05.998Z</time></trkpt><trkpt lat="44.34148570066713" lon="9.211962521797835"><ele>166.33333333333334</ele><time>2026-04-30T11:59:06.998Z</time></trkpt><trkpt lat="44.34147483855975" lon="9.21175214216957"><ele>166.66666666666666</ele><time>2026-04-30T11:59:07.998Z</time></trkpt><trkpt lat="44.34150106545893" lon="9.21154613259029"><ele>167.0</ele><time>2026-04-30T11:59:08.998Z</time></trkpt><trkpt lat="44.34144470771876" lon="9.211352942342227"><ele>168.33333333333331</ele><time>2026-04-30T11:59:09.998Z</time></trkpt><trkpt lat="44.3414087725248" lon="9.211129343712104"><ele>169.66666666666666</ele><time>2026-04-30T11:59:10.998Z</time></trkpt><trkpt lat="44.3413949534217" lon="9.210930236400554"><ele>171.0</ele><time>2026-04-30T11:59:11.998Z</time></trkpt><trkpt lat="44.34135714349774" lon="9.210708963431165"><ele>171.66666666666666</ele><time>2026-04-30T11:59:12.998Z</time></trkpt><trkpt lat="44.34138472133461" lon="9.210457596077015"><ele>172.33333333333331</ele><time>2026-04-30T11:59:13.998Z</time></trkpt><trkpt lat="44.341323280173555" lon="9.210207789048663"><ele>173.0</ele><time>2026-04-30T11:59:14.998Z</time></trkpt><trkpt lat="44.341337982675874" lon="9.209985053480999"><ele>172.66666666666666</ele><time>2026-04-30T11:59:15.998Z</time></trkpt><trkpt lat="44.341376761903945" lon="9.209749614142277"><ele>172.33333333333334</ele><time>2026-04-30T11:59:16.998Z</time></trkpt><trkpt lat="44.34140990045658" lon="9.209510731953126"><ele>172.0</ele><time>2026-04-30T11:59:17.998Z</time></trkpt><trkpt lat="44.34145687967682" lon="9.209262437157111"><ele>172.0</ele><time>2026-04-30T11:59:18.998Z</time></trkpt><trkpt lat="44.3414854142077" lon="9.20901063629774"><ele>172.0</ele><time>2026-04-30T11:59:19.998Z</time></trkpt><trkpt lat="44.341516839047785" lon="9.208768074695989"><ele>172.0</ele><time>2026-04-30T11:59:20.998Z</time></trkpt><trkpt lat="44.34147277924889" lon="9.208545361023527"><ele>172.33333333333334</ele><time>2026-04-30T11:59:21.998Z</time></trkpt><trkpt lat="44.341446165121035" lon="9.20830015137628"><ele>172.66666666666666</ele><time>2026-04-30T11:59:22.998Z</time></trkpt><trkpt lat="44.341454060786305" lon="9.208046164521836"><ele>173.0</ele><time>2026-04-30T11:59:23.998Z</time></trkpt><trkpt lat="44.34147598687719" lon="9.207808791965086"><ele>173.0</ele><time>2026-04-30T11:59:24.998Z</time></trkpt><trkpt lat="44.341465394333234" lon="9.207562455460579"><ele>173.0</ele><time>2026-04-30T11:59:25.998Z</time></trkpt><trkpt lat="44.34150184055231" lon="9.207307972060478"><ele>173.0</ele><time>2026-04-30T11:59:26.998Z</time></trkpt><trkpt lat="44.341517838461606" lon="9.20706520393943"><ele>172.66666666666666</ele><time>2026-04-30T11:59:27.998Z</time></trkpt><trkpt lat="44.34151815080871" lon="9.206830495841634"><ele>172.33333333333334</ele><time>2026-04-30T11:59:28.998Z</time></trkpt><trkpt lat="44.34152746991487" lon="9.206599722758202"><ele>172.0</ele><time>2026-04-30T11:59:29.998Z</time></trkpt><trkpt lat="44.341525660088095" lon="9.206370471876962"><ele>173.25</ele><time>2026-04-30T11:59:30.998Z</time></trkpt><trkpt lat="44.34149296153006" lon="9.206176443751431"><ele>174.5</ele><time>2026-04-30T11:59:31.998Z</time></trkpt><trkpt lat="44.34143514123427" lon="9.206015572038742"><ele>175.75</ele><time>2026-04-30T11:59:32.998Z</time></trkpt><trkpt lat="44.341378836309566" lon="9.20588713557384"><ele>177.0</ele><time>2026-04-30T11:59:33.998Z</time></trkpt><trkpt lat="44.34132141586333" lon="9.205743669891318"><ele>168.75</ele><time>2026-04-30T11:59:34.998Z</time></trkpt><trkpt lat="44.341293517464635" lon="9.205575371327125"><ele>160.5</ele><time>2026-04-30T11:59:35.998Z</time></trkpt><trkpt lat="44.341286598646334" lon="9.20543398570536"><ele>152.25</ele><time>2026-04-30T11:59:36.997Z</time></trkpt><trkpt lat="44.341317995962676" lon="9.205270764871452"><ele>144.0</ele><time>2026-04-30T11:59:37.997Z</time></trkpt><trkpt lat="44.34135514728312" lon="9.205077631466288"><ele>155.66666666666666</ele><time>2026-04-30T11:59:38.997Z</time></trkpt><trkpt lat="44.34139060919908" lon="9.204881577084715"><ele>167.33333333333331</ele><time>2026-04-30T11:59:39.997Z</time></trkpt><trkpt lat="44.34141015665783" lon="9.204665800998349"><ele>179.0</ele><time>2026-04-30T11:59:40.997Z</time></trkpt><trkpt lat="44.341438431226194" lon="9.204442121172008"><ele>172.75</ele><time>2026-04-30T11:59:41.997Z</time></trkpt><trkpt lat="44.34137788008153" lon="9.204285412702383"><ele>166.5</ele><time>2026-04-30T11:59:42.997Z</time></trkpt><trkpt lat="44.3413010018317" lon="9.204159191477858"><ele>160.25</ele><time>2026-04-30T11:59:43.997Z</time></trkpt><trkpt lat="44.341222267398635" lon="9.204053712182255"><ele>154.0</ele><time>2026-04-30T11:59:44.997Z</time></trkpt><trkpt lat="44.341163374056265" lon="9.20393286286757"><ele>154.0</ele><time>2026-04-30T11:59:45.997Z</time></trkpt><trkpt lat="44.3411250222147" lon="9.203808625010929"><ele>154.0</ele><time>2026-04-30T11:59:46.997Z</time></trkpt><trkpt lat="44.34109636739148" lon="9.203647437996523"><ele>154.0</ele><time>2026-04-30T11:59:47.997Z</time></trkpt><trkpt lat="44.3411406929135" lon="9.203486769250878"><ele>154.0</ele><time>2026-04-30T11:59:48.997Z</time></trkpt><trkpt lat="44.34115494613467" lon="9.203330375051802"><ele>154.75</ele><time>2026-04-30T11:59:49.997Z</time></trkpt><trkpt lat="44.34116467821886" lon="9.203156661027386"><ele>155.5</ele><time>2026-04-30T11:59:50.997Z</time></trkpt><trkpt lat="44.341168742225534" lon="9.202983053550183"><ele>156.25</ele><time>2026-04-30T11:59:51.997Z</time></trkpt><trkpt lat="44.34117240703571" lon="9.20280862046308"><ele>157.0</ele><time>2026-04-30T11:59:52.997Z</time></trkpt><trkpt lat="44.34118281292137" lon="9.202611684409773"><ele>157.0</ele><time>2026-04-30T11:59:53.997Z</time></trkpt><trkpt lat="44.34117688115543" lon="9.202415509519971"><ele>157.0</ele><time>2026-04-30T11:59:54.997Z</time></trkpt><trkpt lat="44.341165557371504" lon="9.202225902571431"><ele>157.0</ele><time>2026-04-30T11:59:55.997Z</time></trkpt><trkpt lat="44.341159618967325" lon="9.202035074561373"><ele>157.0</ele><time>2026-04-30T11:59:56.997Z</time></trkpt><trkpt lat="44.34113075313969" lon="9.201827477755737"><ele>160.0</ele><time>2026-04-30T11:59:57.997Z</time></trkpt><trkpt lat="44.341066786783614" lon="9.201658661857762"><ele>163.0</ele><time>2026-04-30T11:59:58.997Z</time></trkpt><trkpt lat="44.34098134330926" lon="9.201533578712288"><ele>166.0</ele><time>2026-04-30T11:59:59.997Z</time></trkpt><trkpt lat="44.34089175307899" lon="9.201403655069253"><ele>169.0</ele><time>2026-04-30T12:00:00.997Z</time></trkpt><trkpt lat="44.34082092186187" lon="9.201292305886815"><ele>171.5</ele><time>2026-04-30T12:00:01.997Z</time></trkpt><trkpt lat="44.340800866760254" lon="9.201126366991653"><ele>174.0</ele><time>2026-04-30T12:00:02.997Z</time></trkpt><trkpt lat="44.340789356156385" lon="9.200978067134258"><ele>176.5</ele><time>2026-04-30T12:00:03.997Z</time></trkpt><trkpt lat="44.34083224221053" lon="9.200824994131622"><ele>179.0</ele><time>2026-04-30T12:00:04.997Z</time></trkpt><trkpt lat="44.34081410058806" lon="9.200660948844623"><ele>181.75</ele><time>2026-04-30T12:00:05.997Z</time></trkpt><trkpt lat="44.3407739150782" lon="9.200512814821606"><ele>184.5</ele><time>2026-04-30T12:00:06.997Z</time></trkpt><trkpt lat="44.340726616468686" lon="9.200368747598997"><ele>187.25</ele><time>2026-04-30T12:00:07.997Z</time></trkpt><trkpt lat="44.340677340499866" lon="9.200216670668105"><ele>190.0</ele><time>2026-04-30T12:00:08.997Z</time></trkpt><trkpt lat="44.340616204024116" lon="9.200043095914143"><ele>183.75</ele><time>2026-04-30T12:00:09.997Z</time></trkpt><trkpt lat="44.34054837407382" lon="9.199878678642559"><ele>177.5</ele><time>2026-04-30T12:00:10.997Z</time></trkpt><trkpt lat="44.340427556696696" lon="9.199752171477126"><ele>171.25</ele><time>2026-04-30T12:00:11.997Z</time></trkpt><trkpt lat="44.340333276444234" lon="9.199627321216125"><ele>165.0</ele><time>2026-04-30T12:00:12.997Z</time></trkpt><trkpt lat="44.34027483561022" lon="9.199520528335459"><ele>165.0</ele><time>2026-04-30T12:00:13.997Z</time></trkpt><trkpt lat="44.34021705930503" lon="9.199443162963773"><ele>165.0</ele><time>2026-04-30T12:00:14.997Z</time></trkpt><trkpt lat="44.34015606177538" lon="9.199350628845755"><ele>165.0</ele><time>2026-04-30T12:00:15.997Z</time></trkpt><trkpt lat="44.34013911442919" lon="9.199215995017603"><ele>165.0</ele><time>2026-04-30T12:00:16.997Z</time></trkpt><trkpt lat="44.340139838550336" lon="9.199060280500404"><ele>165.0</ele><time>2026-04-30T12:00:17.997Z</time></trkpt><trkpt lat="44.340146926622616" lon="9.19890798419749"><ele>164.5</ele><time>2026-04-30T12:00:18.997Z</time></trkpt><trkpt lat="44.340181273829494" lon="9.198756369420098"><ele>164.0</ele><time>2026-04-30T12:00:19.997Z</time></trkpt><trkpt lat="44.34023819116346" lon="9.198586007701977"><ele>163.5</ele><time>2026-04-30T12:00:20.997Z</time></trkpt><trkpt lat="44.34025947464897" lon="9.19839128987888"><ele>163.0</ele><time>2026-04-30T12:00:21.997Z</time></trkpt><trkpt lat="44.340328073425574" lon="9.198207056798093"><ele>163.0</ele><time>2026-04-30T12:00:22.997Z</time></trkpt><trkpt lat="44.34039570529252" lon="9.198039201799316"><ele>163.0</ele><time>2026-04-30T12:00:23.997Z</time></trkpt><trkpt lat="44.3404497176281" lon="9.197871644677836"><ele>163.0</ele><time>2026-04-30T12:00:24.997Z</time></trkpt><trkpt lat="44.34049984351604" lon="9.197701728156133"><ele>163.0</ele><time>2026-04-30T12:00:25.997Z</time></trkpt><trkpt lat="44.34054810922523" lon="9.197512828017823"><ele>163.75</ele><time>2026-04-30T12:00:26.997Z</time></trkpt><trkpt lat="44.34056702139993" lon="9.197321707785232"><ele>164.5</ele><time>2026-04-30T12:00:27.997Z</time></trkpt><trkpt lat="44.34054026891533" lon="9.1971588841968"><ele>165.25</ele><time>2026-04-30T12:00:28.996Z</time></trkpt><trkpt lat="44.34048325634687" lon="9.197004698049753"><ele>166.0</ele><time>2026-04-30T12:00:29.996Z</time></trkpt><trkpt lat="44.340433688728965" lon="9.196851585328519"><ele>166.0</ele><time>2026-04-30T12:00:30.996Z</time></trkpt><trkpt lat="44.3403768541017" lon="9.196703552934357"><ele>166.0</ele><time>2026-04-30T12:00:31.996Z</time></trkpt><trkpt lat="44.340344926622336" lon="9.19652934308043"><ele>166.0</ele><time>2026-04-30T12:00:32.996Z</time></trkpt><trkpt lat="44.340344398706996" lon="9.196346735796665"><ele>166.0</ele><time>2026-04-30T12:00:33.996Z</time></trkpt><trkpt lat="44.340357114340264" lon="9.196174165228792"><ele>167.0</ele><time>2026-04-30T12:00:34.996Z</time></trkpt><trkpt lat="44.34037474816014" lon="9.196004266576875"><ele>168.0</ele><time>2026-04-30T12:00:35.996Z</time></trkpt><trkpt lat="44.3403759486711" lon="9.195825678772211"><ele>169.0</ele><time>2026-04-30T12:00:36.996Z</time></trkpt><trkpt lat="44.340349835737385" lon="9.195629916501058"><ele>170.0</ele><time>2026-04-30T12:00:37.996Z</time></trkpt><trkpt lat="44.340350761298026" lon="9.19546116949901"><ele>171.5</ele><time>2026-04-30T12:00:38.996Z</time></trkpt><trkpt lat="44.340317543445046" lon="9.195293784252852"><ele>173.0</ele><time>2026-04-30T12:00:39.996Z</time></trkpt><trkpt lat="44.34024843558657" lon="9.195146428282833"><ele>174.5</ele><time>2026-04-30T12:00:40.996Z</time></trkpt><trkpt lat="44.34018271867382" lon="9.194998354655214"><ele>176.0</ele><time>2026-04-30T12:00:41.996Z</time></trkpt><trkpt lat="44.34012616719744" lon="9.194843808641505"><ele>177.25</ele><time>2026-04-30T12:00:42.996Z</time></trkpt><trkpt lat="44.34007948227764" lon="9.19469024817527"><ele>178.5</ele><time>2026-04-30T12:00:43.996Z</time></trkpt><trkpt lat="44.34006665264424" lon="9.194487387974194"><ele>179.75</ele><time>2026-04-30T12:00:44.996Z</time></trkpt><trkpt lat="44.34005410359058" lon="9.194301456258115"><ele>181.0</ele><time>2026-04-30T12:00:45.996Z</time></trkpt><trkpt lat="44.34005449791193" lon="9.194085687204211"><ele>183.0</ele><time>2026-04-30T12:00:46.996Z</time></trkpt><trkpt lat="44.34002650211459" lon="9.193869471839166"><ele>185.0</ele><time>2026-04-30T12:00:47.996Z</time></trkpt><trkpt lat="44.33997427883896" lon="9.193656907616488"><ele>187.0</ele><time>2026-04-30T12:00:48.996Z</time></trkpt><trkpt lat="44.339891722290105" lon="9.193429651799736"><ele>187.0</ele><time>2026-04-30T12:00:49.996Z</time></trkpt><trkpt lat="44.33980952363883" lon="9.193194547299091"><ele>187.0</ele><time>2026-04-30T12:00:50.996Z</time></trkpt><trkpt lat="44.33973480661815" lon="9.192968194727356"><ele>187.0</ele><time>2026-04-30T12:00:51.996Z</time></trkpt><trkpt lat="44.33968305503165" lon="9.192742274258881"><ele>179.33333333333334</ele><time>2026-04-30T12:00:52.996Z</time></trkpt><trkpt lat="44.33964289315735" lon="9.19251588759471"><ele>171.66666666666666</ele><time>2026-04-30T12:00:53.996Z</time></trkpt><trkpt lat="44.33963378466383" lon="9.192281484490827"><ele>164.0</ele><time>2026-04-30T12:00:54.996Z</time></trkpt><trkpt lat="44.33962929552103" lon="9.192088906823477"><ele>164.0</ele><time>2026-04-30T12:00:55.996Z</time></trkpt><trkpt lat="44.33964175690384" lon="9.191885347142787"><ele>164.0</ele><time>2026-04-30T12:00:56.996Z</time></trkpt><trkpt lat="44.339693848483904" lon="9.19170092478122"><ele>164.0</ele><time>2026-04-30T12:00:57.996Z</time></trkpt><trkpt lat="44.33974593763222" lon="9.191532693451236"><ele>164.0</ele><time>2026-04-30T12:00:58.996Z</time></trkpt><trkpt lat="44.33978423148668" lon="9.191352584766035"><ele>165.25</ele><time>2026-04-30T12:00:59.996Z</time></trkpt><trkpt lat="44.33977937894117" lon="9.19118429056174"><ele>166.5</ele><time>2026-04-30T12:01:00.996Z</time></trkpt><trkpt lat="44.33972985000941" lon="9.191008978339864"><ele>167.75</ele><time>2026-04-30T12:01:01.996Z</time></trkpt><trkpt lat="44.33967812337796" lon="9.190877750240515"><ele>169.0</ele><time>2026-04-30T12:01:02.996Z</time></trkpt><trkpt lat="44.339639000373495" lon="9.190759955612373"><ele>170.33333333333334</ele><time>2026-04-30T12:01:03.996Z</time></trkpt><trkpt lat="44.33959374901021" lon="9.190668228886546"><ele>171.66666666666669</ele><time>2026-04-30T12:01:04.996Z</time></trkpt><trkpt lat="44.33956023508303" lon="9.190558948033958"><ele>173.0</ele><time>2026-04-30T12:01:05.996Z</time></trkpt><trkpt lat="44.33953209552136" lon="9.190448583700105"><ele>174.33333333333334</ele><time>2026-04-30T12:01:06.996Z</time></trkpt><trkpt lat="44.33951525367706" lon="9.190334663755444"><ele>175.66666666666666</ele><time>2026-04-30T12:01:07.996Z</time></trkpt><trkpt lat="44.339508932876846" lon="9.190196799846214"><ele>177.0</ele><time>2026-04-30T12:01:08.996Z</time></trkpt><trkpt lat="44.33950287280595" lon="9.19005477755915"><ele>177.0</ele><time>2026-04-30T12:01:09.996Z</time></trkpt><trkpt lat="44.33950066979681" lon="9.189894809890406"><ele>177.0</ele><time>2026-04-30T12:01:10.996Z</time></trkpt><trkpt lat="44.3395137879417" lon="9.189719997225554"><ele>177.0</ele><time>2026-04-30T12:01:11.996Z</time></trkpt><trkpt lat="44.33954260575251" lon="9.189529079495689"><ele>177.0</ele><time>2026-04-30T12:01:12.996Z</time></trkpt><trkpt lat="44.339578067594374" lon="9.189339977602742"><ele>178.0</ele><time>2026-04-30T12:01:13.996Z</time></trkpt><trkpt lat="44.339613274127586" lon="9.189139025014116"><ele>179.0</ele><time>2026-04-30T12:01:14.996Z</time></trkpt><trkpt lat="44.33963689754389" lon="9.188953996819109"><ele>180.0</ele><time>2026-04-30T12:01:15.996Z</time></trkpt><trkpt lat="44.33961267064807" lon="9.188759111518008"><ele>181.0</ele><time>2026-04-30T12:01:16.996Z</time></trkpt><trkpt lat="44.33961509600562" lon="9.188594061575197"><ele>181.5</ele><time>2026-04-30T12:01:17.996Z</time></trkpt><trkpt lat="44.33957799462823" lon="9.188450950860917"><ele>182.0</ele><time>2026-04-30T12:01:18.996Z</time></trkpt><trkpt lat="44.339514240123414" lon="9.188308388109673"><ele>182.5</ele><time>2026-04-30T12:01:19.995Z</time></trkpt><trkpt lat="44.33948161136586" lon="9.188138544275436"><ele>183.0</ele><time>2026-04-30T12:01:20.995Z</time></trkpt><trkpt lat="44.33944351329111" lon="9.187993066775553"><ele>184.25</ele><time>2026-04-30T12:01:21.995Z</time></trkpt><trkpt lat="44.33940062943323" lon="9.187829314734195"><ele>185.5</ele><time>2026-04-30T12:01:22.995Z</time></trkpt><trkpt lat="44.33935832075572" lon="9.187668590334242"><ele>186.75</ele><time>2026-04-30T12:01:23.995Z</time></trkpt><trkpt lat="44.339314053819834" lon="9.187501954953465"><ele>188.0</ele><time>2026-04-30T12:01:24.995Z</time></trkpt><trkpt lat="44.339267189970165" lon="9.187327092920958"><ele>188.5</ele><time>2026-04-30T12:01:25.995Z</time></trkpt><trkpt lat="44.339219127726615" lon="9.18714830961356"><ele>189.0</ele><time>2026-04-30T12:01:26.995Z</time></trkpt><trkpt lat="44.33918053609313" lon="9.186976804006635"><ele>189.5</ele><time>2026-04-30T12:01:27.995Z</time></trkpt><trkpt lat="44.33915305784273" lon="9.186798024308715"><ele>190.0</ele><time>2026-04-30T12:01:28.995Z</time></trkpt><trkpt lat="44.339132694623444" lon="9.186601748571144"><ele>190.75</ele><time>2026-04-30T12:01:29.995Z</time></trkpt><trkpt lat="44.33911682153207" lon="9.186429694036788"><ele>191.5</ele><time>2026-04-30T12:01:30.995Z</time></trkpt><trkpt lat="44.33910324363722" lon="9.18626112782435"><ele>192.25</ele><time>2026-04-30T12:01:31.995Z</time></trkpt><trkpt lat="44.33909324761082" lon="9.18607728245697"><ele>193.0</ele><time>2026-04-30T12:01:32.995Z</time></trkpt><trkpt lat="44.33908764977575" lon="9.185907332627599"><ele>193.0</ele><time>2026-04-30T12:01:33.995Z</time></trkpt><trkpt lat="44.33908327264041" lon="9.18572235523167"><ele>193.0</ele><time>2026-04-30T12:01:34.995Z</time></trkpt><trkpt lat="44.33908058497445" lon="9.185556246889893"><ele>193.0</ele><time>2026-04-30T12:01:35.995Z</time></trkpt><trkpt lat="44.339083429920464" lon="9.18538671756856"><ele>193.0</ele><time>2026-04-30T12:01:36.995Z</time></trkpt><trkpt lat="44.33910137066318" lon="9.185228021097622"><ele>195.0</ele><time>2026-04-30T12:01:37.995Z</time></trkpt><trkpt lat="44.33913312697758" lon="9.18508138090297"><ele>197.0</ele><time>2026-04-30T12:01:38.995Z</time></trkpt><trkpt lat="44.339173376478755" lon="9.184924789616314"><ele>199.0</ele><time>2026-04-30T12:01:39.995Z</time></trkpt><trkpt lat="44.33921993096296" lon="9.184674712146323"><ele>201.0</ele><time>2026-04-30T12:01:40.995Z</time></trkpt><trkpt lat="44.3392123286481" lon="9.184443661434594"><ele>203.25</ele><time>2026-04-30T12:01:41.995Z</time></trkpt><trkpt lat="44.33920210388675" lon="9.184292951785416"><ele>205.5</ele><time>2026-04-30T12:01:42.995Z</time></trkpt><trkpt lat="44.339213657463944" lon="9.184159327097696"><ele>207.75</ele><time>2026-04-30T12:01:43.995Z</time></trkpt><trkpt lat="44.3392468818455" lon="9.183991326784053"><ele>210.0</ele><time>2026-04-30T12:01:44.995Z</time></trkpt><trkpt lat="44.3392916198913" lon="9.183809130025947"><ele>212.25</ele><time>2026-04-30T12:01:45.995Z</time></trkpt><trkpt lat="44.339319486854734" lon="9.18360693229519"><ele>214.5</ele><time>2026-04-30T12:01:46.995Z</time></trkpt><trkpt lat="44.339322522582805" lon="9.18339880545612"><ele>216.75</ele><time>2026-04-30T12:01:47.995Z</time></trkpt><trkpt lat="44.33932127280591" lon="9.183241177864453"><ele>219.0</ele><time>2026-04-30T12:01:48.995Z</time></trkpt><trkpt lat="44.33932111082789" lon="9.18309529374479"><ele>220.79999999999998</ele><time>2026-04-30T12:01:49.995Z</time></trkpt><trkpt lat="44.3393257548994" lon="9.18295309670581"><ele>222.59999999999997</ele><time>2026-04-30T12:01:50.995Z</time></trkpt><trkpt lat="44.339338994507465" lon="9.18282117884979"><ele>224.4</ele><time>2026-04-30T12:01:51.995Z</time></trkpt><trkpt lat="44.339361526628764" lon="9.18271978303226"><ele>226.2</ele><time>2026-04-30T12:01:52.995Z</time></trkpt><trkpt lat="44.33939609288924" lon="9.182587095341551"><ele>228.0</ele><time>2026-04-30T12:01:53.995Z</time></trkpt><trkpt lat="44.339430604492506" lon="9.182461038153203"><ele>228.8</ele><time>2026-04-30T12:01:54.995Z</time></trkpt><trkpt lat="44.33946512387849" lon="9.182344271824322"><ele>229.60000000000002</ele><time>2026-04-30T12:01:55.995Z</time></trkpt><trkpt lat="44.33949503435902" lon="9.182252951234554"><ele>230.39999999999998</ele><time>2026-04-30T12:01:56.995Z</time></trkpt><trkpt lat="44.33957472332381" lon="9.182119311676662"><ele>231.2</ele><time>2026-04-30T12:01:57.995Z</time></trkpt><trkpt lat="44.33964567478731" lon="9.182023553516862"><ele>232.0</ele><time>2026-04-30T12:01:58.995Z</time></trkpt><trkpt lat="44.33972032297746" lon="9.181919787395483"><ele>232.0</ele><time>2026-04-30T12:01:59.995Z</time></trkpt><trkpt lat="44.33985003039988" lon="9.18189219639668"><ele>232.0</ele><time>2026-04-30T12:02:00.995Z</time></trkpt><trkpt lat="44.33997692093131" lon="9.181910605238961"><ele>232.0</ele><time>2026-04-30T12:02:01.995Z</time></trkpt><trkpt lat="44.340116857089576" lon="9.181933989956391"><ele>232.0</ele><time>2026-04-30T12:02:02.995Z</time></trkpt><trkpt lat="44.34023904885105" lon="9.181955082631584"><ele>232.0</ele><time>2026-04-30T12:02:03.995Z</time></trkpt><trkpt lat="44.34038224588913" lon="9.181978284729823"><ele>232.0</ele><time>2026-04-30T12:02:04.995Z</time></trkpt><trkpt lat="44.34052362660503" lon="9.18200111947615"><ele>232.0</ele><time>2026-04-30T12:02:05.995Z</time></trkpt><trkpt lat="44.340671961315834" lon="9.182025659419274"><ele>232.0</ele><time>2026-04-30T12:02:06.995Z</time></trkpt><trkpt lat="44.34084324303382" lon="9.182033230382874"><ele>234.33333333333331</ele><time>2026-04-30T12:02:07.995Z</time></trkpt><trkpt lat="44.34099298191966" lon="9.182078851849374"><ele>236.66666666666669</ele><time>2026-04-30T12:02:08.995Z</time></trkpt><trkpt lat="44.34114759449741" lon="9.182104515150902"><ele>239.0</ele><time>2026-04-30T12:02:09.995Z</time></trkpt><trkpt lat="44.34129145136572" lon="9.182128270066178"><ele>240.75</ele><time>2026-04-30T12:02:10.995Z</time></trkpt><trkpt lat="44.34144110936187" lon="9.182152513066693"><ele>242.5</ele><time>2026-04-30T12:02:11.994Z</time></trkpt><trkpt lat="44.341585515319764" lon="9.182176917253946"><ele>244.25</ele><time>2026-04-30T12:02:12.994Z</time></trkpt><trkpt lat="44.341725583042546" lon="9.182209156466998"><ele>246.0</ele><time>2026-04-30T12:02:13.994Z</time></trkpt><trkpt lat="44.341842262974254" lon="9.18228504283368"><ele>245.0</ele><time>2026-04-30T12:02:14.994Z</time></trkpt><trkpt lat="44.341932529464145" lon="9.182370338011086"><ele>244.0</ele><time>2026-04-30T12:02:15.994Z</time></trkpt><trkpt lat="44.3420475407159" lon="9.182481734453143"><ele>243.0</ele><time>2026-04-30T12:02:16.994Z</time></trkpt><trkpt lat="44.34217243266419" lon="9.182605408868985"><ele>242.0</ele><time>2026-04-30T12:02:17.994Z</time></trkpt><trkpt lat="44.34231603349337" lon="9.182747609963887"><ele>242.0</ele><time>2026-04-30T12:02:18.994Z</time></trkpt><trkpt lat="44.34243735506407" lon="9.182868607973289"><ele>242.0</ele><time>2026-04-30T12:02:19.994Z</time></trkpt><trkpt lat="44.342533421561505" lon="9.182972385637921"><ele>242.0</ele><time>2026-04-30T12:02:20.994Z</time></trkpt><trkpt lat="44.342605364805536" lon="9.183074838258698"><ele>242.0</ele><time>2026-04-30T12:02:21.994Z</time></trkpt><trkpt lat="44.342657819770594" lon="9.183180149093534"><ele>238.0</ele><time>2026-04-30T12:02:22.994Z</time></trkpt><trkpt lat="44.342748828784714" lon="9.183336725874529"><ele>234.0</ele><time>2026-04-30T12:02:23.994Z</time></trkpt><trkpt lat="44.34285578362607" lon="9.183430732890047"><ele>230.0</ele><time>2026-04-30T12:02:24.994Z</time></trkpt><trkpt lat="44.342956667128824" lon="9.183498812249107"><ele>226.0</ele><time>2026-04-30T12:02:25.994Z</time></trkpt><trkpt lat="44.343046049912154" lon="9.183579026934352"><ele>229.5</ele><time>2026-04-30T12:02:26.994Z</time></trkpt><trkpt lat="44.34318156784766" lon="9.18363324177805"><ele>233.0</ele><time>2026-04-30T12:02:27.994Z</time></trkpt><trkpt lat="44.34329774579661" lon="9.183679414908111"><ele>236.5</ele><time>2026-04-30T12:02:28.994Z</time></trkpt><trkpt lat="44.34340557883981" lon="9.183674525203346"><ele>240.0</ele><time>2026-04-30T12:02:29.994Z</time></trkpt><trkpt lat="44.34352399030043" lon="9.183676858669495"><ele>240.0</ele><time>2026-04-30T12:02:30.994Z</time></trkpt><trkpt lat="44.34361402881345" lon="9.183638138348572"><ele>240.0</ele><time>2026-04-30T12:02:31.994Z</time></trkpt><trkpt lat="44.34363578584536" lon="9.183489740428882"><ele>240.0</ele><time>2026-04-30T12:02:32.994Z</time></trkpt><trkpt lat="44.34366321002515" lon="9.18323940191176"><ele>240.0</ele><time>2026-04-30T12:02:33.994Z</time></trkpt><trkpt lat="44.3437021036973" lon="9.183020147217457"><ele>241.0</ele><time>2026-04-30T12:02:34.994Z</time></trkpt><trkpt lat="44.3437081780038" lon="9.182818085498408"><ele>242.0</ele><time>2026-04-30T12:02:35.994Z</time></trkpt><trkpt lat="44.34373374395645" lon="9.182623489626822"><ele>243.0</ele><time>2026-04-30T12:02:36.994Z</time></trkpt><trkpt lat="44.34372286805005" lon="9.182416628289843"><ele>244.0</ele><time>2026-04-30T12:02:37.994Z</time></trkpt><trkpt lat="44.343750791134696" lon="9.182221538291632"><ele>247.33333333333331</ele><time>2026-04-30T12:02:38.994Z</time></trkpt><trkpt lat="44.343770349444775" lon="9.182018445942123"><ele>250.66666666666669</ele><time>2026-04-30T12:02:39.994Z</time></trkpt><trkpt lat="44.34379098279" lon="9.181805435309249"><ele>254.0</ele><time>2026-04-30T12:02:40.994Z</time></trkpt><trkpt lat="44.343814396092874" lon="9.181568282999525"><ele>256.33333333333337</ele><time>2026-04-30T12:02:41.994Z</time></trkpt><trkpt lat="44.34384072333839" lon="9.181313286840492"><ele>258.6666666666667</ele><time>2026-04-30T12:02:42.994Z</time></trkpt><trkpt lat="44.34386566406481" lon="9.181065720079651"><ele>261.0</ele><time>2026-04-30T12:02:43.994Z</time></trkpt><trkpt lat="44.343885909704106" lon="9.180803499475585"><ele>260.3333333333333</ele><time>2026-04-30T12:02:44.994Z</time></trkpt><trkpt lat="44.343866882024905" lon="9.180535742233587"><ele>259.66666666666663</ele><time>2026-04-30T12:02:45.994Z</time></trkpt><trkpt lat="44.3438132945521" lon="9.180286027572564"><ele>259.0</ele><time>2026-04-30T12:02:46.994Z</time></trkpt><trkpt lat="44.343786570308396" lon="9.180055127655967"><ele>259.3333333333333</ele><time>2026-04-30T12:02:47.994Z</time></trkpt><trkpt lat="44.34385091385705" lon="9.179774403212756"><ele>259.6666666666667</ele><time>2026-04-30T12:02:48.994Z</time></trkpt><trkpt lat="44.34382353884231" lon="9.179529695100163"><ele>260.0</ele><time>2026-04-30T12:02:49.994Z</time></trkpt><trkpt lat="44.34380302991203" lon="9.179274005331353"><ele>260.6666666666667</ele><time>2026-04-30T12:02:50.994Z</time></trkpt><trkpt lat="44.34381559208409" lon="9.17901127020596"><ele>261.3333333333333</ele><time>2026-04-30T12:02:51.994Z</time></trkpt><trkpt lat="44.343779221682226" lon="9.17874667976957"><ele>262.0</ele><time>2026-04-30T12:02:52.994Z</time></trkpt><trkpt lat="44.34377727893157" lon="9.178492970281233"><ele>262.0</ele><time>2026-04-30T12:02:53.994Z</time></trkpt><trkpt lat="44.343785256980276" lon="9.178246034882898"><ele>262.0</ele><time>2026-04-30T12:02:54.994Z</time></trkpt><trkpt lat="44.34380472647105" lon="9.17802082892898"><ele>262.0</ele><time>2026-04-30T12:02:55.994Z</time></trkpt><trkpt lat="44.343893978546845" lon="9.177821749411612"><ele>256.75</ele><time>2026-04-30T12:02:56.994Z</time></trkpt><trkpt lat="44.34391995695607" lon="9.17761655952014"><ele>251.5</ele><time>2026-04-30T12:02:57.994Z</time></trkpt><trkpt lat="44.34394502669387" lon="9.177400855292815"><ele>246.25</ele><time>2026-04-30T12:02:58.994Z</time></trkpt><trkpt lat="44.34398698432757" lon="9.177238446657276"><ele>241.0</ele><time>2026-04-30T12:02:59.994Z</time></trkpt><trkpt lat="44.34396797931167" lon="9.177070613606194"><ele>240.0</ele><time>2026-04-30T12:03:00.994Z</time></trkpt><trkpt lat="44.34393494741623" lon="9.176926104660646"><ele>239.0</ele><time>2026-04-30T12:03:01.994Z</time></trkpt><trkpt lat="44.3438372138108" lon="9.176759174866637"><ele>238.0</ele><time>2026-04-30T12:03:02.993Z</time></trkpt><trkpt lat="44.34370489560328" lon="9.176601102164712"><ele>237.0</ele><time>2026-04-30T12:03:03.993Z</time></trkpt><trkpt lat="44.343639391082604" lon="9.176411043390852"><ele>240.75</ele><time>2026-04-30T12:03:04.993Z</time></trkpt><trkpt lat="44.34355575868064" lon="9.176244118999394"><ele>244.5</ele><time>2026-04-30T12:03:05.993Z</time></trkpt><trkpt lat="44.34349438108593" lon="9.17606881025127"><ele>248.25</ele><time>2026-04-30T12:03:06.993Z</time></trkpt><trkpt lat="44.34348045325446" lon="9.17590311253106"><ele>252.0</ele><time>2026-04-30T12:03:07.993Z</time></trkpt><trkpt lat="44.34344349692551" lon="9.175729549048405"><ele>248.0</ele><time>2026-04-30T12:03:08.993Z</time></trkpt><trkpt lat="44.34339893558283" lon="9.175572399420938"><ele>244.0</ele><time>2026-04-30T12:03:09.993Z</time></trkpt><trkpt lat="44.34330942551272" lon="9.17542430577449"><ele>240.0</ele><time>2026-04-30T12:03:10.993Z</time></trkpt><trkpt lat="44.343215301949584" lon="9.1753206263884"><ele>236.0</ele><time>2026-04-30T12:03:11.993Z</time></trkpt><trkpt lat="44.34308541085215" lon="9.175231735354435"><ele>237.5</ele><time>2026-04-30T12:03:12.993Z</time></trkpt><trkpt lat="44.34294830569799" lon="9.175147631164577"><ele>239.0</ele><time>2026-04-30T12:03:13.993Z</time></trkpt><trkpt lat="44.3428025161874" lon="9.17508871923641"><ele>240.5</ele><time>2026-04-30T12:03:14.993Z</time></trkpt><trkpt lat="44.34266344115514" lon="9.175067870921394"><ele>242.0</ele><time>2026-04-30T12:03:15.993Z</time></trkpt><trkpt lat="44.342532800786884" lon="9.175146914484094"><ele>242.0</ele><time>2026-04-30T12:03:16.993Z</time></trkpt><trkpt lat="44.3423983606309" lon="9.17521644316696"><ele>242.0</ele><time>2026-04-30T12:03:17.993Z</time></trkpt><trkpt lat="44.34228478665095" lon="9.175254536072494"><ele>242.0</ele><time>2026-04-30T12:03:18.993Z</time></trkpt><trkpt lat="44.34217574299931" lon="9.175292595889847"><ele>242.0</ele><time>2026-04-30T12:03:19.993Z</time></trkpt><trkpt lat="44.342087893004745" lon="9.175319484579777"><ele>243.25</ele><time>2026-04-30T12:03:20.993Z</time></trkpt><trkpt lat="44.341998101464284" lon="9.175321573776376"><ele>244.5</ele><time>2026-04-30T12:03:21.993Z</time></trkpt><trkpt lat="44.3418735711661" lon="9.175291614000283"><ele>245.75</ele><time>2026-04-30T12:03:22.993Z</time></trkpt><trkpt lat="44.3417570836057" lon="9.17525537220741"><ele>247.0</ele><time>2026-04-30T12:03:23.993Z</time></trkpt><trkpt lat="44.3416008009922" lon="9.175198949522779"><ele>247.0</ele><time>2026-04-30T12:03:24.993Z</time></trkpt><trkpt lat="44.34147456889815" lon="9.175146152154879"><ele>247.0</ele><time>2026-04-30T12:03:25.993Z</time></trkpt><trkpt lat="44.341342066256324" lon="9.175080999254737"><ele>247.0</ele><time>2026-04-30T12:03:26.993Z</time></trkpt><trkpt lat="44.341260281038416" lon="9.174997896935006"><ele>247.0</ele><time>2026-04-30T12:03:27.993Z</time></trkpt><trkpt lat="44.34121315446217" lon="9.17489307583498"><ele>248.0</ele><time>2026-04-30T12:03:28.993Z</time></trkpt><trkpt lat="44.341192062166925" lon="9.17473669644205"><ele>249.0</ele><time>2026-04-30T12:03:29.993Z</time></trkpt><trkpt lat="44.341232691508196" lon="9.174586021498955"><ele>250.0</ele><time>2026-04-30T12:03:30.993Z</time></trkpt><trkpt lat="44.34129966713432" lon="9.174443219756615"><ele>251.0</ele><time>2026-04-30T12:03:31.993Z</time></trkpt><trkpt lat="44.341400408855435" lon="9.174376017952154"><ele>251.0</ele><time>2026-04-30T12:03:32.993Z</time></trkpt><trkpt lat="44.341533949435664" lon="9.174263385002105"><ele>251.0</ele><time>2026-04-30T12:03:33.993Z</time></trkpt><trkpt lat="44.341677519741395" lon="9.174095500098797"><ele>251.0</ele><time>2026-04-30T12:03:34.993Z</time></trkpt><trkpt lat="44.34178968340164" lon="9.173947327409675"><ele>257.25</ele><time>2026-04-30T12:03:35.993Z</time></trkpt><trkpt lat="44.34189172771003" lon="9.173812522839048"><ele>263.5</ele><time>2026-04-30T12:03:36.993Z</time></trkpt><trkpt lat="44.3419861805992" lon="9.173687824980203"><ele>269.75</ele><time>2026-04-30T12:03:37.993Z</time></trkpt><trkpt lat="44.34207755220552" lon="9.173594646537914"><ele>276.0</ele><time>2026-04-30T12:03:38.993Z</time></trkpt><trkpt lat="44.34218246519253" lon="9.17357154651774"><ele>271.5</ele><time>2026-04-30T12:03:39.993Z</time></trkpt><trkpt lat="44.34230138999344" lon="9.173572132283589"><ele>267.0</ele><time>2026-04-30T12:03:40.993Z</time></trkpt><trkpt lat="44.34241843238514" lon="9.17357958294029"><ele>262.5</ele><time>2026-04-30T12:03:41.993Z</time></trkpt><trkpt lat="44.34256301537575" lon="9.173604588698346"><ele>258.0</ele><time>2026-04-30T12:03:42.993Z</time></trkpt><trkpt lat="44.34269011738426" lon="9.173561198805615"><ele>258.0</ele><time>2026-04-30T12:03:43.993Z</time></trkpt><trkpt lat="44.34278180301259" lon="9.173483187970193"><ele>258.0</ele><time>2026-04-30T12:03:44.993Z</time></trkpt><trkpt lat="44.34282688963017" lon="9.173317042941402"><ele>258.0</ele><time>2026-04-30T12:03:45.993Z</time></trkpt><trkpt lat="44.34291639166525" lon="9.173203606196095"><ele>258.0</ele><time>2026-04-30T12:03:46.993Z</time></trkpt><trkpt lat="44.343018176722104" lon="9.173118033394555"><ele>261.0</ele><time>2026-04-30T12:03:47.993Z</time></trkpt><trkpt lat="44.34311668405903" lon="9.172996374126095"><ele>264.0</ele><time>2026-04-30T12:03:48.993Z</time></trkpt><trkpt lat="44.34323610933358" lon="9.172912309291098"><ele>267.0</ele><time>2026-04-30T12:03:49.993Z</time></trkpt><trkpt lat="44.343312341984884" lon="9.172796111513959"><ele>270.0</ele><time>2026-04-30T12:03:50.993Z</time></trkpt><trkpt lat="44.34339083397716" lon="9.172647498369347"><ele>270.0</ele><time>2026-04-30T12:03:51.993Z</time></trkpt><trkpt lat="44.34343287124325" lon="9.172485446540412"><ele>270.0</ele><time>2026-04-30T12:03:52.993Z</time></trkpt><trkpt lat="44.34347579664733" lon="9.172324172161654"><ele>270.0</ele><time>2026-04-30T12:03:53.993Z</time></trkpt><trkpt lat="44.34351089136277" lon="9.172173296418434"><ele>270.0</ele><time>2026-04-30T12:03:54.992Z</time></trkpt><trkpt lat="44.34354324572911" lon="9.17203474087214"><ele>268.5</ele><time>2026-04-30T12:03:55.992Z</time></trkpt><trkpt lat="44.343582862328155" lon="9.171865587246606"><ele>267.0</ele><time>2026-04-30T12:03:57.001Z</time></trkpt><trkpt lat="44.343741431397156" lon="9.171180802516133"><ele>267.0</ele><time>2026-04-30T12:04:02Z</time></trkpt><trkpt lat="44.34376796491724" lon="9.171033767044397"><ele>267.0</ele><time>2026-04-30T12:04:03Z</time></trkpt><trkpt lat="44.3437916210943" lon="9.17091183558004"><ele>267.0</ele><time>2026-04-30T12:04:04Z</time></trkpt><trkpt lat="44.343830844615965" lon="9.170755625355774"><ele>267.0</ele><time>2026-04-30T12:04:05Z</time></trkpt><trkpt lat="44.34392727169924" lon="9.170666099450038"><ele>267.0</ele><time>2026-04-30T12:04:06Z</time></trkpt><trkpt lat="44.34399458089342" lon="9.1705827319567"><ele>263.8333333333333</ele><time>2026-04-30T12:04:07Z</time></trkpt><trkpt lat="44.34405902341593" lon="9.170517286701905"><ele>260.6666666666667</ele><time>2026-04-30T12:04:08Z</time></trkpt><trkpt lat="44.3441123679858" lon="9.170424847882554"><ele>257.5</ele><time>2026-04-30T12:04:09Z</time></trkpt><trkpt lat="44.34420628434763" lon="9.170345971580367"><ele>254.33333333333334</ele><time>2026-04-30T12:04:11Z</time></trkpt><trkpt lat="44.344271865431814" lon="9.17029019032939"><ele>251.16666666666669</ele><time>2026-04-30T12:04:12Z</time></trkpt><trkpt lat="44.34435264493544" lon="9.170220332707212"><ele>248.0</ele><time>2026-04-30T12:04:13Z</time></trkpt><trkpt lat="44.344434731641144" lon="9.170149344214343"><ele>248.0</ele><time>2026-04-30T12:04:14Z</time></trkpt><trkpt lat="44.34452293692393" lon="9.170073350295818"><ele>248.0</ele><time>2026-04-30T12:04:15Z</time></trkpt><trkpt lat="44.34460772651725" lon="9.170002062936778"><ele>248.0</ele><time>2026-04-30T12:04:16Z</time></trkpt><trkpt lat="44.34468940544674" lon="9.169934770173425"><ele>248.0</ele><time>2026-04-30T12:04:17Z</time></trkpt><trkpt lat="44.34477017930841" lon="9.169867069126107"><ele>248.0</ele><time>2026-04-30T12:04:18Z</time></trkpt><trkpt lat="44.34485414805472" lon="9.169794414718336"><ele>244.60000000000002</ele><time>2026-04-30T12:04:19Z</time></trkpt><trkpt lat="44.34492316824986" lon="9.169722528314878"><ele>241.20000000000002</ele><time>2026-04-30T12:04:20Z</time></trkpt><trkpt lat="44.344996360658804" lon="9.16965412332604"><ele>237.8</ele><time>2026-04-30T12:04:21Z</time></trkpt><trkpt lat="44.34512112810899" lon="9.169562353045078"><ele>234.4</ele><time>2026-04-30T12:04:22Z</time></trkpt><trkpt lat="44.34520788943088" lon="9.16949625474912"><ele>231.0</ele><time>2026-04-30T12:04:23Z</time></trkpt><trkpt lat="44.345291572263214" lon="9.16944088761127"><ele>231.0</ele><time>2026-04-30T12:04:24Z</time></trkpt><trkpt lat="44.34536119062402" lon="9.169411541769948"><ele>231.00000000000003</ele><time>2026-04-30T12:04:25Z</time></trkpt><trkpt lat="44.345493963413546" lon="9.169425825349823"><ele>231.00000000000003</ele><time>2026-04-30T12:04:27Z</time></trkpt><trkpt lat="44.345599404513464" lon="9.169452731084673"><ele>231.0</ele><time>2026-04-30T12:04:28Z</time></trkpt><trkpt lat="44.345693482757774" lon="9.169532404338954"><ele>231.0</ele><time>2026-04-30T12:04:29Z</time></trkpt><trkpt lat="44.345800848278" lon="9.169573729594637"><ele>231.25</ele><time>2026-04-30T12:04:30Z</time></trkpt><trkpt lat="44.34591091000942" lon="9.169587539925473"><ele>231.5</ele><time>2026-04-30T12:04:31Z</time></trkpt><trkpt lat="44.346037593788736" lon="9.169576587031713"><ele>231.75</ele><time>2026-04-30T12:04:32Z</time></trkpt><trkpt lat="44.34615257039465" lon="9.169555182628109"><ele>232.0</ele><time>2026-04-30T12:04:33Z</time></trkpt><trkpt lat="44.346274358593895" lon="9.169477814107216"><ele>235.0</ele><time>2026-04-30T12:04:34Z</time></trkpt><trkpt lat="44.34638948488533" lon="9.169371416641965"><ele>238.0</ele><time>2026-04-30T12:04:35Z</time></trkpt><trkpt lat="44.346518174339785" lon="9.169273769952714"><ele>241.0</ele><time>2026-04-30T12:04:36Z</time></trkpt><trkpt lat="44.346608448215434" lon="9.169138289014203"><ele>244.0</ele><time>2026-04-30T12:04:37Z</time></trkpt><trkpt lat="44.34667915704376" lon="9.168969489719476"><ele>237.25</ele><time>2026-04-30T12:04:38Z</time></trkpt><trkpt lat="44.346775696903386" lon="9.168881914116616"><ele>230.5</ele><time>2026-04-30T12:04:39Z</time></trkpt><trkpt lat="44.346875307809604" lon="9.16872914897477"><ele>223.75</ele><time>2026-04-30T12:04:40Z</time></trkpt><trkpt lat="44.346989173823715" lon="9.168611285581475"><ele>217.0</ele><time>2026-04-30T12:04:41Z</time></trkpt><trkpt lat="44.34710181809525" lon="9.168506027217363"><ele>218.25</ele><time>2026-04-30T12:04:41.999Z</time></trkpt><trkpt lat="44.34723221020195" lon="9.168362955974533"><ele>219.5</ele><time>2026-04-30T12:04:42.999Z</time></trkpt><trkpt lat="44.347338769213685" lon="9.168235294482066"><ele>220.75</ele><time>2026-04-30T12:04:43.999Z</time></trkpt><trkpt lat="44.34741206090614" lon="9.16809988676239"><ele>222.0</ele><time>2026-04-30T12:04:44.999Z</time></trkpt><trkpt lat="44.34747440808271" lon="9.167930340744824"><ele>222.0</ele><time>2026-04-30T12:04:45.999Z</time></trkpt><trkpt lat="44.347537854922834" lon="9.167782284554235"><ele>222.0</ele><time>2026-04-30T12:04:46.999Z</time></trkpt><trkpt lat="44.34760540567094" lon="9.167617300140064"><ele>222.0</ele><time>2026-04-30T12:04:47.999Z</time></trkpt><trkpt lat="44.347659431076224" lon="9.167484381156946"><ele>222.0</ele><time>2026-04-30T12:04:48.999Z</time></trkpt><trkpt lat="44.34772055252155" lon="9.167331695074154"><ele>218.0</ele><time>2026-04-30T12:04:49.999Z</time></trkpt><trkpt lat="44.347777038340844" lon="9.167175976743469"><ele>214.0</ele><time>2026-04-30T12:04:50.999Z</time></trkpt><trkpt lat="44.34781438769536" lon="9.16702203081467"><ele>210.0</ele><time>2026-04-30T12:04:51.999Z</time></trkpt><trkpt lat="44.34784721926033" lon="9.166841328840597"><ele>206.0</ele><time>2026-04-30T12:04:52.999Z</time></trkpt><trkpt lat="44.347879773113384" lon="9.166658647225306"><ele>202.25</ele><time>2026-04-30T12:04:53.999Z</time></trkpt><trkpt lat="44.347913100907036" lon="9.1664792345117"><ele>198.5</ele><time>2026-04-30T12:04:54.999Z</time></trkpt><trkpt lat="44.34795542506978" lon="9.166315047112725"><ele>194.75</ele><time>2026-04-30T12:04:55.999Z</time></trkpt><trkpt lat="44.3479767903058" lon="9.166148938751373"><ele>191.0</ele><time>2026-04-30T12:04:56.999Z</time></trkpt><trkpt lat="44.34800366995495" lon="9.165979870567604"><ele>195.5</ele><time>2026-04-30T12:04:57.999Z</time></trkpt><trkpt lat="44.34808341029903" lon="9.165810951510329"><ele>200.0</ele><time>2026-04-30T12:04:58.999Z</time></trkpt><trkpt lat="44.34814660396651" lon="9.165677304195002"><ele>204.5</ele><time>2026-04-30T12:04:59.999Z</time></trkpt><trkpt lat="44.348211895718826" lon="9.165518834376345"><ele>209.0</ele><time>2026-04-30T12:05:00.999Z</time></trkpt><trkpt lat="44.3482992607961" lon="9.16538121552124"><ele>209.0</ele><time>2026-04-30T12:05:01.999Z</time></trkpt><trkpt lat="44.348345021404484" lon="9.165229291987556"><ele>209.0</ele><time>2026-04-30T12:05:02.999Z</time></trkpt><trkpt lat="44.34839612368848" lon="9.165088383061963"><ele>209.0</ele><time>2026-04-30T12:05:03.999Z</time></trkpt><trkpt lat="44.34846045114324" lon="9.164909627012477"><ele>209.0</ele><time>2026-04-30T12:05:04.999Z</time></trkpt><trkpt lat="44.34851409106663" lon="9.164729980724154"><ele>207.2</ele><time>2026-04-30T12:05:05.999Z</time></trkpt><trkpt lat="44.348550202318656" lon="9.164545125373516"><ele>205.39999999999998</ele><time>2026-04-30T12:05:06.999Z</time></trkpt><trkpt lat="44.34856523714117" lon="9.164403794029885"><ele>203.6</ele><time>2026-04-30T12:05:07.999Z</time></trkpt><trkpt lat="44.348576581357534" lon="9.164271625306222"><ele>201.8</ele><time>2026-04-30T12:05:08.999Z</time></trkpt><trkpt lat="44.34856493074594" lon="9.164167170856233"><ele>200.0</ele><time>2026-04-30T12:05:11.999Z</time></trkpt><trkpt lat="44.348522205632584" lon="9.164058870614745"><ele>196.6</ele><time>2026-04-30T12:05:15.999Z</time></trkpt><trkpt lat="44.34855379732632" lon="9.163907991537089"><ele>193.2</ele><time>2026-04-30T12:05:17.999Z</time></trkpt><trkpt lat="44.3485745084389" lon="9.163762470258224"><ele>189.8</ele><time>2026-04-30T12:05:18.999Z</time></trkpt><trkpt lat="44.34861160433482" lon="9.163638085936025"><ele>186.4</ele><time>2026-04-30T12:05:19.999Z</time></trkpt><trkpt lat="44.34863655237613" lon="9.163487914524115"><ele>183.0</ele><time>2026-04-30T12:05:20.999Z</time></trkpt><trkpt lat="44.34866789929694" lon="9.163325554101503"><ele>179.0</ele><time>2026-04-30T12:05:21.999Z</time></trkpt><trkpt lat="44.348706473060005" lon="9.163166024880132"><ele>175.0</ele><time>2026-04-30T12:05:22.999Z</time></trkpt><trkpt lat="44.348759380171266" lon="9.163014084591877"><ele>171.0</ele><time>2026-04-30T12:05:23.999Z</time></trkpt><trkpt lat="44.348825054347955" lon="9.162859552861706"><ele>167.0</ele><time>2026-04-30T12:05:24.999Z</time></trkpt><trkpt lat="44.34891794094584" lon="9.162733160117346"><ele>168.75</ele><time>2026-04-30T12:05:25.999Z</time></trkpt><trkpt lat="44.348999847222736" lon="9.162574792923357"><ele>170.5</ele><time>2026-04-30T12:05:26.999Z</time></trkpt><trkpt lat="44.34910555935411" lon="9.162450017598841"><ele>172.25</ele><time>2026-04-30T12:05:27.999Z</time></trkpt><trkpt lat="44.34919556326924" lon="9.162313643487245"><ele>174.0</ele><time>2026-04-30T12:05:28.999Z</time></trkpt><trkpt lat="44.34929471305617" lon="9.162211711091832"><ele>174.0</ele><time>2026-04-30T12:05:29.998Z</time></trkpt><trkpt lat="44.34938693827466" lon="9.162098370812577"><ele>174.0</ele><time>2026-04-30T12:05:30.998Z</time></trkpt><trkpt lat="44.34949018501407" lon="9.162055735715471"><ele>174.0</ele><time>2026-04-30T12:05:31.998Z</time></trkpt><trkpt lat="44.349591357349226" lon="9.161984687842258"><ele>174.0</ele><time>2026-04-30T12:05:32.998Z</time></trkpt><trkpt lat="44.34967353984333" lon="9.161861152763564"><ele>179.25</ele><time>2026-04-30T12:05:33.998Z</time></trkpt><trkpt lat="44.34973823657899" lon="9.161734357893971"><ele>184.5</ele><time>2026-04-30T12:05:34.998Z</time></trkpt><trkpt lat="44.34977839671642" lon="9.161555963699435"><ele>189.75</ele><time>2026-04-30T12:05:35.998Z</time></trkpt><trkpt lat="44.34979120346464" lon="9.161379677659609"><ele>195.0</ele><time>2026-04-30T12:05:36.998Z</time></trkpt><trkpt lat="44.349831455513474" lon="9.1612112911505"><ele>195.0</ele><time>2026-04-30T12:05:37.998Z</time></trkpt><trkpt lat="44.349870089066386" lon="9.161042569910082"><ele>195.0</ele><time>2026-04-30T12:05:38.998Z</time></trkpt><trkpt lat="44.34991869028065" lon="9.160862505803953"><ele>195.0</ele><time>2026-04-30T12:05:39.998Z</time></trkpt><trkpt lat="44.34994140251078" lon="9.160692208410662"><ele>195.0</ele><time>2026-04-30T12:05:40.998Z</time></trkpt><trkpt lat="44.34994748223304" lon="9.16052726563829"><ele>193.0</ele><time>2026-04-30T12:05:41.998Z</time></trkpt><trkpt lat="44.34994355444488" lon="9.16035757469729"><ele>191.0</ele><time>2026-04-30T12:05:42.998Z</time></trkpt><trkpt lat="44.349924461365795" lon="9.16018949442658"><ele>189.0</ele><time>2026-04-30T12:05:43.998Z</time></trkpt><trkpt lat="44.34990748337634" lon="9.160027026641998"><ele>187.0</ele><time>2026-04-30T12:05:44.998Z</time></trkpt><trkpt lat="44.34989120568326" lon="9.159875793624447"><ele>185.75</ele><time>2026-04-30T12:05:45.998Z</time></trkpt><trkpt lat="44.34987944121571" lon="9.159719744797478"><ele>184.5</ele><time>2026-04-30T12:05:46.998Z</time></trkpt><trkpt lat="44.349879719439215" lon="9.159553511542729"><ele>183.25</ele><time>2026-04-30T12:05:47.998Z</time></trkpt><trkpt lat="44.34988842765801" lon="9.159377445751497"><ele>182.0</ele><time>2026-04-30T12:05:48.998Z</time></trkpt><trkpt lat="44.34993079117624" lon="9.159208836201158"><ele>177.75</ele><time>2026-04-30T12:05:49.998Z</time></trkpt><trkpt lat="44.34995792820156" lon="9.159034169991388"><ele>173.5</ele><time>2026-04-30T12:05:50.998Z</time></trkpt><trkpt lat="44.34998673617747" lon="9.158873362873559"><ele>169.25</ele><time>2026-04-30T12:05:51.998Z</time></trkpt><trkpt lat="44.350020564420795" lon="9.158722577412721"><ele>165.0</ele><time>2026-04-30T12:05:52.998Z</time></trkpt><trkpt lat="44.35006906913753" lon="9.15857404841397"><ele>165.0</ele><time>2026-04-30T12:05:53.998Z</time></trkpt><trkpt lat="44.35012656214238" lon="9.158430738718073"><ele>165.0</ele><time>2026-04-30T12:05:54.998Z</time></trkpt><trkpt lat="44.350183170505225" lon="9.15828537271802"><ele>165.0</ele><time>2026-04-30T12:05:55.998Z</time></trkpt><trkpt lat="44.350240566286345" lon="9.158140036035496"><ele>165.0</ele><time>2026-04-30T12:05:56.998Z</time></trkpt><trkpt lat="44.35029705590494" lon="9.158009965512012"><ele>165.25</ele><time>2026-04-30T12:05:57.998Z</time></trkpt><trkpt lat="44.35038047758142" lon="9.157902951670355"><ele>165.5</ele><time>2026-04-30T12:05:58.998Z</time></trkpt><trkpt lat="44.350483850862794" lon="9.157781844928408"><ele>165.75</ele><time>2026-04-30T12:05:59.998Z</time></trkpt><trkpt lat="44.35060628299914" lon="9.157683909515542"><ele>166.0</ele><time>2026-04-30T12:06:00.998Z</time></trkpt><trkpt lat="44.350722082915965" lon="9.15757001348229"><ele>166.0</ele><time>2026-04-30T12:06:01.998Z</time></trkpt><trkpt lat="44.35083373264736" lon="9.157460898179504"><ele>166.0</ele><time>2026-04-30T12:06:02.998Z</time></trkpt><trkpt lat="44.35094791037311" lon="9.15734914595243"><ele>166.0</ele><time>2026-04-30T12:06:03.998Z</time></trkpt><trkpt lat="44.35105787429061" lon="9.157238398844598"><ele>166.0</ele><time>2026-04-30T12:06:04.998Z</time></trkpt><trkpt lat="44.3511632680019" lon="9.157132254343502"><ele>161.5</ele><time>2026-04-30T12:06:05.998Z</time></trkpt><trkpt lat="44.35126308132302" lon="9.157017320818632"><ele>157.0</ele><time>2026-04-30T12:06:06.998Z</time></trkpt><trkpt lat="44.351352788540545" lon="9.156897079448534"><ele>152.5</ele><time>2026-04-30T12:06:07.998Z</time></trkpt><trkpt lat="44.35143390102087" lon="9.156799510209503"><ele>148.0</ele><time>2026-04-30T12:06:08.998Z</time></trkpt><trkpt lat="44.351528907334874" lon="9.156733485073264"><ele>148.0</ele><time>2026-04-30T12:06:09.998Z</time></trkpt><trkpt lat="44.3516325061006" lon="9.156708977788362"><ele>148.0</ele><time>2026-04-30T12:06:10.998Z</time></trkpt><trkpt lat="44.35173795419663" lon="9.15673137485097"><ele>148.0</ele><time>2026-04-30T12:06:11.998Z</time></trkpt><trkpt lat="44.35183850151618" lon="9.156787027006185"><ele>148.0</ele><time>2026-04-30T12:06:12.998Z</time></trkpt><trkpt lat="44.351995582773526" lon="9.15685775739298"><ele>148.0</ele><time>2026-04-30T12:06:13.998Z</time></trkpt><trkpt lat="44.35214061527926" lon="9.15681701649063"><ele>148.0</ele><time>2026-04-30T12:06:14.998Z</time></trkpt><trkpt lat="44.35226111318535" lon="9.156704858944398"><ele>148.0</ele><time>2026-04-30T12:06:15.998Z</time></trkpt><trkpt lat="44.35235256947409" lon="9.156577342148463"><ele>148.0</ele><time>2026-04-30T12:06:16.998Z</time></trkpt><trkpt lat="44.35244541504486" lon="9.156445309287488"><ele>143.75</ele><time>2026-04-30T12:06:17.998Z</time></trkpt><trkpt lat="44.3525395758709" lon="9.15631407095379"><ele>139.5</ele><time>2026-04-30T12:06:18.998Z</time></trkpt><trkpt lat="44.352635561850924" lon="9.156188687093794"><ele>135.25</ele><time>2026-04-30T12:06:19.997Z</time></trkpt><trkpt lat="44.352735550763306" lon="9.156064545079536"><ele>131.0</ele><time>2026-04-30T12:06:20.997Z</time></trkpt><trkpt lat="44.35279059795676" lon="9.15587798244797"><ele>131.0</ele><time>2026-04-30T12:06:21.997Z</time></trkpt><trkpt lat="44.35289621759543" lon="9.155778397535984"><ele>131.0</ele><time>2026-04-30T12:06:22.997Z</time></trkpt><trkpt lat="44.35300192723188" lon="9.155693003728013"><ele>131.0</ele><time>2026-04-30T12:06:23.997Z</time></trkpt><trkpt lat="44.35310738459074" lon="9.15561050959631"><ele>131.0</ele><time>2026-04-30T12:06:24.997Z</time></trkpt><trkpt lat="44.35327324168563" lon="9.155590330743705"><ele>130.25</ele><time>2026-04-30T12:06:25.997Z</time></trkpt><trkpt lat="44.35335884942232" lon="9.155436988817975"><ele>129.5</ele><time>2026-04-30T12:06:26.997Z</time></trkpt><trkpt lat="44.3534043919861" lon="9.155310698813228"><ele>128.75</ele><time>2026-04-30T12:06:27.997Z</time></trkpt><trkpt lat="44.35347570542127" lon="9.155203837360453"><ele>128.0</ele><time>2026-04-30T12:06:28.997Z</time></trkpt><trkpt lat="44.35356680164312" lon="9.155094514098604"><ele>128.0</ele><time>2026-04-30T12:06:29.997Z</time></trkpt><trkpt lat="44.353661890140444" lon="9.154982932336317"><ele>128.0</ele><time>2026-04-30T12:06:30.997Z</time></trkpt><trkpt lat="44.353757586431215" lon="9.15487762017797"><ele>128.0</ele><time>2026-04-30T12:06:31.997Z</time></trkpt><trkpt lat="44.3538495291214" lon="9.154790982069123"><ele>128.0</ele><time>2026-04-30T12:06:32.997Z</time></trkpt><trkpt lat="44.35395597158512" lon="9.15470571198094"><ele>126.75</ele><time>2026-04-30T12:06:33.997Z</time></trkpt><trkpt lat="44.35406170522414" lon="9.154608677339601"><ele>125.5</ele><time>2026-04-30T12:06:34.997Z</time></trkpt><trkpt lat="44.354159084637516" lon="9.154514465317126"><ele>124.25</ele><time>2026-04-30T12:06:35.997Z</time></trkpt><trkpt lat="44.354249589126674" lon="9.154425359646293"><ele>123.0</ele><time>2026-04-30T12:06:36.997Z</time></trkpt><trkpt lat="44.354332327200524" lon="9.154342487967591"><ele>123.0</ele><time>2026-04-30T12:06:37.997Z</time></trkpt><trkpt lat="44.354406713978" lon="9.15427017312733"><ele>123.0</ele><time>2026-04-30T12:06:38.997Z</time></trkpt><trkpt lat="44.35443210055272" lon="9.1541219708483"><ele>123.0</ele><time>2026-04-30T12:06:39.997Z</time></trkpt><trkpt lat="44.35450152554422" lon="9.154087786689407"><ele>123.0</ele><time>2026-04-30T12:06:40.997Z</time></trkpt><trkpt lat="44.354584990985664" lon="9.154080038090497"><ele>123.0</ele><time>2026-04-30T12:06:41.997Z</time></trkpt><trkpt lat="44.35466749554035" lon="9.154128868809167"><ele>123.0</ele><time>2026-04-30T12:06:42.997Z</time></trkpt><trkpt lat="44.35473396810303" lon="9.154223864556828"><ele>121.80000000000001</ele><time>2026-04-30T12:06:43.997Z</time></trkpt><trkpt lat="44.354813476082825" lon="9.154321399911963"><ele>120.60000000000001</ele><time>2026-04-30T12:06:44.997Z</time></trkpt><trkpt lat="44.35489865360819" lon="9.154413733994456"><ele>119.39999999999999</ele><time>2026-04-30T12:06:45.997Z</time></trkpt><trkpt lat="44.35497150109677" lon="9.15452471920823"><ele>118.19999999999999</ele><time>2026-04-30T12:06:46.997Z</time></trkpt><trkpt lat="44.35504340542538" lon="9.154625330224516"><ele>117.0</ele><time>2026-04-30T12:06:47.997Z</time></trkpt><trkpt lat="44.355104321106815" lon="9.154741727806353"><ele>117.0</ele><time>2026-04-30T12:06:48.997Z</time></trkpt><trkpt lat="44.35518197430699" lon="9.154862997311758"><ele>116.99999999999999</ele><time>2026-04-30T12:06:49.997Z</time></trkpt><trkpt lat="44.35524778488113" lon="9.154963079257108"><ele>116.99999999999999</ele><time>2026-04-30T12:06:50.997Z</time></trkpt><trkpt lat="44.35529143399263" lon="9.155085798311303"><ele>117.0</ele><time>2026-04-30T12:06:51.997Z</time></trkpt><trkpt lat="44.35530521367486" lon="9.155219475762841"><ele>117.0</ele><time>2026-04-30T12:06:52.997Z</time></trkpt><trkpt lat="44.35534312470796" lon="9.155368215510608"><ele>117.0</ele><time>2026-04-30T12:06:53.997Z</time></trkpt><trkpt lat="44.35544122705662" lon="9.155519832638563"><ele>117.0</ele><time>2026-04-30T12:06:54.997Z</time></trkpt><trkpt lat="44.355583311250435" lon="9.155558992615411"><ele>117.0</ele><time>2026-04-30T12:06:55.997Z</time></trkpt><trkpt lat="44.355720888489635" lon="9.155503773290212"><ele>117.0</ele><time>2026-04-30T12:06:56.997Z</time></trkpt><trkpt lat="44.35583165960919" lon="9.1553900490409"><ele>117.0</ele><time>2026-04-30T12:06:57.997Z</time></trkpt><trkpt lat="44.355905329905454" lon="9.155289751204155"><ele>116.99999999999999</ele><time>2026-04-30T12:06:58.997Z</time></trkpt><trkpt lat="44.355975957142604" lon="9.155192837273823"><ele>116.99999999999999</ele><time>2026-04-30T12:06:59.997Z</time></trkpt><trkpt lat="44.35605645446236" lon="9.155075724969597"><ele>117.0</ele><time>2026-04-30T12:07:00.997Z</time></trkpt><trkpt lat="44.35612704771616" lon="9.154947972117684"><ele>117.0</ele><time>2026-04-30T12:07:01.997Z</time></trkpt><trkpt lat="44.356192146686354" lon="9.154807791127432"><ele>117.0</ele><time>2026-04-30T12:07:02.997Z</time></trkpt><trkpt lat="44.3562486297551" lon="9.154672368275884"><ele>117.0</ele><time>2026-04-30T12:07:03.997Z</time></trkpt><trkpt lat="44.356303727968545" lon="9.154534331738855"><ele>117.0</ele><time>2026-04-30T12:07:04.997Z</time></trkpt><trkpt lat="44.35635937949104" lon="9.154393088952109"><ele>117.0</ele><time>2026-04-30T12:07:05.997Z</time></trkpt><trkpt lat="44.35640521977701" lon="9.154236518017676"><ele>117.0</ele><time>2026-04-30T12:07:06.997Z</time></trkpt><trkpt lat="44.356436062009216" lon="9.154074756571244"><ele>117.0</ele><time>2026-04-30T12:07:07.997Z</time></trkpt><trkpt lat="44.35645287056191" lon="9.153912568784198"><ele>117.0</ele><time>2026-04-30T12:07:08.997Z</time></trkpt><trkpt lat="44.35646808977462" lon="9.15375224847318"><ele>117.0</ele><time>2026-04-30T12:07:09.996Z</time></trkpt><trkpt lat="44.35646877299307" lon="9.153589460030934"><ele>114.25</ele><time>2026-04-30T12:07:10.996Z</time></trkpt><trkpt lat="44.3564998009788" lon="9.153431171977298"><ele>111.5</ele><time>2026-04-30T12:07:11.996Z</time></trkpt><trkpt lat="44.356527784339335" lon="9.153267788912716"><ele>108.75</ele><time>2026-04-30T12:07:12.996Z</time></trkpt><trkpt lat="44.356526127500146" lon="9.153096888053573"><ele>106.0</ele><time>2026-04-30T12:07:13.996Z</time></trkpt><trkpt lat="44.35654021779174" lon="9.152930998483924"><ele>104.25</ele><time>2026-04-30T12:07:14.996Z</time></trkpt><trkpt lat="44.356554265528914" lon="9.152765610016814"><ele>102.5</ele><time>2026-04-30T12:07:15.996Z</time></trkpt><trkpt lat="44.35655226875623" lon="9.152594062435838"><ele>100.75</ele><time>2026-04-30T12:07:16.996Z</time></trkpt><trkpt lat="44.35656619048174" lon="9.152425562833189"><ele>99.0</ele><time>2026-04-30T12:07:17.996Z</time></trkpt><trkpt lat="44.35656530572995" lon="9.152258409290797"><ele>97.0</ele><time>2026-04-30T12:07:18.996Z</time></trkpt><trkpt lat="44.35654953259077" lon="9.152098695417623"><ele>95.0</ele><time>2026-04-30T12:07:19.996Z</time></trkpt><trkpt lat="44.356535492241605" lon="9.151936717084524"><ele>93.0</ele><time>2026-04-30T12:07:20.996Z</time></trkpt><trkpt lat="44.35656672872913" lon="9.151788668515566"><ele>91.0</ele><time>2026-04-30T12:07:21.996Z</time></trkpt><trkpt lat="44.35659726633505" lon="9.151629111141563"><ele>90.0</ele><time>2026-04-30T12:07:22.996Z</time></trkpt><trkpt lat="44.35662669175332" lon="9.151461684555597"><ele>89.0</ele><time>2026-04-30T12:07:23.996Z</time></trkpt><trkpt lat="44.356633241574535" lon="9.151280663210311"><ele>88.0</ele><time>2026-04-30T12:07:24.996Z</time></trkpt><trkpt lat="44.35665686480757" lon="9.151094966525127"><ele>87.0</ele><time>2026-04-30T12:07:25.996Z</time></trkpt><trkpt lat="44.3566712104612" lon="9.150907201228488"><ele>87.0</ele><time>2026-04-30T12:07:26.996Z</time></trkpt><trkpt lat="44.35667215140555" lon="9.150712215417736"><ele>87.0</ele><time>2026-04-30T12:07:27.996Z</time></trkpt><trkpt lat="44.356677302915905" lon="9.150514151208114"><ele>87.0</ele><time>2026-04-30T12:07:28.996Z</time></trkpt><trkpt lat="44.35667502891514" lon="9.150313642922894"><ele>87.0</ele><time>2026-04-30T12:07:29.996Z</time></trkpt><trkpt lat="44.35667877266301" lon="9.150108248260041"><ele>86.0</ele><time>2026-04-30T12:07:30.996Z</time></trkpt><trkpt lat="44.35666829516278" lon="9.149905291658728"><ele>85.0</ele><time>2026-04-30T12:07:31.996Z</time></trkpt><trkpt lat="44.35667240363693" lon="9.14970444054496"><ele>84.0</ele><time>2026-04-30T12:07:32.996Z</time></trkpt><trkpt lat="44.356677828814604" lon="9.149517335092856"><ele>83.0</ele><time>2026-04-30T12:07:33.996Z</time></trkpt><trkpt lat="44.35668555132347" lon="9.149329949282373"><ele>80.75</ele><time>2026-04-30T12:07:34.996Z</time></trkpt><trkpt lat="44.35671371556946" lon="9.149141876851292"><ele>78.5</ele><time>2026-04-30T12:07:35.996Z</time></trkpt><trkpt lat="44.356742385457494" lon="9.148947494884343"><ele>76.25</ele><time>2026-04-30T12:07:36.996Z</time></trkpt><trkpt lat="44.35679646974752" lon="9.148761077310116"><ele>74.0</ele><time>2026-04-30T12:07:37.996Z</time></trkpt><trkpt lat="44.35684200547581" lon="9.148581998690334"><ele>71.75</ele><time>2026-04-30T12:07:38.996Z</time></trkpt><trkpt lat="44.356864909325175" lon="9.148408950675245"><ele>69.5</ele><time>2026-04-30T12:07:39.996Z</time></trkpt><trkpt lat="44.35685728186595" lon="9.14824058003354"><ele>67.25</ele><time>2026-04-30T12:07:40.996Z</time></trkpt><trkpt lat="44.356837084015595" lon="9.14808298118156"><ele>65.0</ele><time>2026-04-30T12:07:41.996Z</time></trkpt><trkpt lat="44.35681633264585" lon="9.147933159678484"><ele>64.2</ele><time>2026-04-30T12:07:42.996Z</time></trkpt><trkpt lat="44.356801336769344" lon="9.147786732201984"><ele>63.4</ele><time>2026-04-30T12:07:43.996Z</time></trkpt><trkpt lat="44.356800768778754" lon="9.147641995661429"><ele>62.599999999999994</ele><time>2026-04-30T12:07:44.996Z</time></trkpt><trkpt lat="44.35682888646024" lon="9.147500928782302"><ele>61.8</ele><time>2026-04-30T12:07:45.996Z</time></trkpt><trkpt lat="44.356885290907066" lon="9.147375227770944"><ele>61.0</ele><time>2026-04-30T12:07:46.996Z</time></trkpt><trkpt lat="44.356933255281604" lon="9.147234922513514"><ele>60.5</ele><time>2026-04-30T12:07:47.996Z</time></trkpt><trkpt lat="44.35702198403784" lon="9.147121911371427"><ele>60.0</ele><time>2026-04-30T12:07:48.996Z</time></trkpt><trkpt lat="44.35709443833524" lon="9.146990414185607"><ele>59.5</ele><time>2026-04-30T12:07:49.996Z</time></trkpt><trkpt lat="44.35716360535563" lon="9.146871750738999"><ele>59.0</ele><time>2026-04-30T12:07:50.996Z</time></trkpt><trkpt lat="44.35722106028041" lon="9.1467397090402"><ele>59.0</ele><time>2026-04-30T12:07:51.996Z</time></trkpt><trkpt lat="44.357311269403716" lon="9.146676688657218"><ele>59.00000000000001</ele><time>2026-04-30T12:07:52.996Z</time></trkpt><trkpt lat="44.35740067742696" lon="9.146597266282559"><ele>59.00000000000001</ele><time>2026-04-30T12:07:53.996Z</time></trkpt><trkpt lat="44.357488721198685" lon="9.146518128639892"><ele>59.0</ele><time>2026-04-30T12:07:54.996Z</time></trkpt><trkpt lat="44.357558133265414" lon="9.146408008960073"><ele>59.0</ele><time>2026-04-30T12:07:55.996Z</time></trkpt><trkpt lat="44.357623903333725" lon="9.14629170900882"><ele>55.6</ele><time>2026-04-30T12:07:56.996Z</time></trkpt><trkpt lat="44.3576616786737" lon="9.146160565760864"><ele>52.2</ele><time>2026-04-30T12:07:57.996Z</time></trkpt><trkpt lat="44.357719329749436" lon="9.146059606464569"><ele>48.800000000000004</ele><time>2026-04-30T12:07:58.996Z</time></trkpt><trkpt lat="44.35778015513753" lon="9.1459709823757"><ele>45.400000000000006</ele><time>2026-04-30T12:07:59.995Z</time></trkpt><trkpt lat="44.357851682629466" lon="9.14591121214137"><ele>42.0</ele><time>2026-04-30T12:08:00.995Z</time></trkpt><trkpt lat="44.35793754366781" lon="9.14585577617463"><ele>42.8</ele><time>2026-04-30T12:08:01.995Z</time></trkpt><trkpt lat="44.358035054774724" lon="9.145858535699906"><ele>43.6</ele><time>2026-04-30T12:08:02.995Z</time></trkpt><trkpt lat="44.35813175861038" lon="9.14587710125367"><ele>44.4</ele><time>2026-04-30T12:08:03.995Z</time></trkpt><trkpt lat="44.358224227460845" lon="9.145925370621166"><ele>45.199999999999996</ele><time>2026-04-30T12:08:04.995Z</time></trkpt><trkpt lat="44.35832097476656" lon="9.145979813388832"><ele>46.0</ele><time>2026-04-30T12:08:05.995Z</time></trkpt><trkpt lat="44.358422060247655" lon="9.146018335817445"><ele>46.0</ele><time>2026-04-30T12:08:06.995Z</time></trkpt><trkpt lat="44.358514775843766" lon="9.146075557996182"><ele>46.0</ele><time>2026-04-30T12:08:07.995Z</time></trkpt><trkpt lat="44.35859684234642" lon="9.146140615888879"><ele>46.0</ele><time>2026-04-30T12:08:08.995Z</time></trkpt><trkpt lat="44.35866500850847" lon="9.146231462195402"><ele>46.0</ele><time>2026-04-30T12:08:09.995Z</time></trkpt><trkpt lat="44.35870590458876" lon="9.146351423702344"><ele>46.0</ele><time>2026-04-30T12:08:10.995Z</time></trkpt><trkpt lat="44.35872878113928" lon="9.14648545712895"><ele>47.8</ele><time>2026-04-30T12:08:11.995Z</time></trkpt><trkpt lat="44.358712148372945" lon="9.146624486541256"><ele>49.599999999999994</ele><time>2026-04-30T12:08:12.995Z</time></trkpt><trkpt lat="44.35869037490125" lon="9.146773030681988"><ele>51.4</ele><time>2026-04-30T12:08:13.995Z</time></trkpt><trkpt lat="44.35869829439143" lon="9.146931770268795"><ele>53.2</ele><time>2026-04-30T12:08:14.995Z</time></trkpt><trkpt lat="44.35867716222322" lon="9.147080924501841"><ele>55.0</ele><time>2026-04-30T12:08:15.995Z</time></trkpt><trkpt lat="44.35866335042103" lon="9.147219957503387"><ele>55.0</ele><time>2026-04-30T12:08:16.995Z</time></trkpt><trkpt lat="44.3586465808319" lon="9.147350440223676"><ele>55.0</ele><time>2026-04-30T12:08:17.995Z</time></trkpt><trkpt lat="44.358619179135225" lon="9.147484432308447"><ele>55.0</ele><time>2026-04-30T12:08:18.995Z</time></trkpt><trkpt lat="44.358603817596176" lon="9.147616400474417"><ele>55.0</ele><time>2026-04-30T12:08:19.995Z</time></trkpt><trkpt lat="44.35858953648738" lon="9.147738312838086"><ele>55.0</ele><time>2026-04-30T12:08:20.995Z</time></trkpt><trkpt lat="44.35857674265818" lon="9.147849829924068"><ele>55.33333333333333</ele><time>2026-04-30T12:08:21.995Z</time></trkpt><trkpt lat="44.358558156134684" lon="9.147968111181557"><ele>55.666666666666664</ele><time>2026-04-30T12:08:22.995Z</time></trkpt><trkpt lat="44.358541897651314" lon="9.148072028062922"><ele>56.0</ele><time>2026-04-30T12:08:23.995Z</time></trkpt><trkpt lat="44.358571235552056" lon="9.148225871146993"><ele>56.33333333333333</ele><time>2026-04-30T12:08:24.995Z</time></trkpt><trkpt lat="44.358643806490605" lon="9.148273480540576"><ele>56.666666666666664</ele><time>2026-04-30T12:08:25.995Z</time></trkpt><trkpt lat="44.3587241555021" lon="9.148250701501139"><ele>57.0</ele><time>2026-04-30T12:08:26.995Z</time></trkpt><trkpt lat="44.35877755169885" lon="9.148158933604792"><ele>57.5</ele><time>2026-04-30T12:08:27.995Z</time></trkpt><trkpt lat="44.35879069947759" lon="9.148057498491376"><ele>58.0</ele><time>2026-04-30T12:08:28.995Z</time></trkpt><trkpt lat="44.358805030378" lon="9.147959120634706"><ele>58.5</ele><time>2026-04-30T12:08:29.995Z</time></trkpt><trkpt lat="44.35882614540114" lon="9.147771965678633"><ele>59.0</ele><time>2026-04-30T12:08:31.995Z</time></trkpt><trkpt lat="44.35884526402635" lon="9.147659863939378"><ele>59.5</ele><time>2026-04-30T12:08:32.995Z</time></trkpt><trkpt lat="44.358849862468695" lon="9.147551637203946"><ele>60.0</ele><time>2026-04-30T12:08:33.995Z</time></trkpt><trkpt lat="44.35886001560751" lon="9.147423396817098"><ele>55.5</ele><time>2026-04-30T12:08:34.995Z</time></trkpt><trkpt lat="44.35889481474122" lon="9.147316928762335"><ele>51.0</ele><time>2026-04-30T12:08:35.995Z</time></trkpt><trkpt lat="44.35891746246284" lon="9.147225655994777"><ele>46.5</ele><time>2026-04-30T12:08:36.995Z</time></trkpt><trkpt lat="44.35894303990342" lon="9.147144076481538"><ele>42.0</ele><time>2026-04-30T12:08:37.995Z</time></trkpt><trkpt lat="44.35899558253126" lon="9.147052736027408"><ele>37.5</ele><time>2026-04-30T12:08:38.995Z</time></trkpt><trkpt lat="44.35905997381595" lon="9.146974995020145"><ele>33.0</ele><time>2026-04-30T12:08:39.995Z</time></trkpt><trkpt lat="44.35913298882824" lon="9.14687994543407"><ele>33.0</ele><time>2026-04-30T12:08:40.995Z</time></trkpt><trkpt lat="44.359206174166815" lon="9.146838762220264"><ele>33.0</ele><time>2026-04-30T12:08:41.995Z</time></trkpt><trkpt lat="44.359277295093314" lon="9.14677341903366"><ele>33.0</ele><time>2026-04-30T12:08:42.995Z</time></trkpt><trkpt lat="44.35936526769083" lon="9.146661460300432"><ele>33.0</ele><time>2026-04-30T12:08:43.995Z</time></trkpt><trkpt lat="44.35941683378099" lon="9.146535999060799"><ele>33.0</ele><time>2026-04-30T12:08:44.995Z</time></trkpt><trkpt lat="44.35944750725584" lon="9.14642520466567"><ele>34.199999999999996</ele><time>2026-04-30T12:08:45.995Z</time></trkpt><trkpt lat="44.35947638220712" lon="9.146295675299797"><ele>35.4</ele><time>2026-04-30T12:08:46.995Z</time></trkpt><trkpt lat="44.35949832637564" lon="9.146183103818247"><ele>36.599999999999994</ele><time>2026-04-30T12:08:47.995Z</time></trkpt><trkpt lat="44.359542116957655" lon="9.14607930560352"><ele>37.8</ele><time>2026-04-30T12:08:48.994Z</time></trkpt><trkpt lat="44.35962038927035" lon="9.145994731671514"><ele>39.0</ele><time>2026-04-30T12:08:49.994Z</time></trkpt><trkpt lat="44.35972123790801" lon="9.145900439300217"><ele>38.5</ele><time>2026-04-30T12:08:50.994Z</time></trkpt><trkpt lat="44.35983875570116" lon="9.145801600030387"><ele>38.0</ele><time>2026-04-30T12:08:51.994Z</time></trkpt><trkpt lat="44.3599370340744" lon="9.14571905060015"><ele>37.5</ele><time>2026-04-30T12:08:52.994Z</time></trkpt><trkpt lat="44.360045317678804" lon="9.145624283765287"><ele>37.0</ele><time>2026-04-30T12:08:53.994Z</time></trkpt><trkpt lat="44.36015730031932" lon="9.14554822900713"><ele>37.0</ele><time>2026-04-30T12:08:54.994Z</time></trkpt><trkpt lat="44.360249322441845" lon="9.145474170296982"><ele>37.0</ele><time>2026-04-30T12:08:55.994Z</time></trkpt><trkpt lat="44.360328615247006" lon="9.145413915117057"><ele>37.0</ele><time>2026-04-30T12:08:56.994Z</time></trkpt><trkpt lat="44.360417759072256" lon="9.14534547508811"><ele>37.0</ele><time>2026-04-30T12:08:57.994Z</time></trkpt><trkpt lat="44.360519285177844" lon="9.14530531603329"><ele>37.0</ele><time>2026-04-30T12:08:58.994Z</time></trkpt><trkpt lat="44.360611051958166" lon="9.145260455957704"><ele>34.16666666666667</ele><time>2026-04-30T12:08:59.994Z</time></trkpt><trkpt lat="44.3606939022109" lon="9.145212646340429"><ele>31.333333333333336</ele><time>2026-04-30T12:09:00.994Z</time></trkpt><trkpt lat="44.36078327417962" lon="9.145167413836381"><ele>28.5</ele><time>2026-04-30T12:09:01.994Z</time></trkpt><trkpt lat="44.360858368648174" lon="9.145107124039441"><ele>25.666666666666668</ele><time>2026-04-30T12:09:02.994Z</time></trkpt><trkpt lat="44.36093483153871" lon="9.14504364584182"><ele>22.833333333333336</ele><time>2026-04-30T12:09:03.994Z</time></trkpt><trkpt lat="44.36099029600763" lon="9.144952901945043"><ele>20.0</ele><time>2026-04-30T12:09:04.994Z</time></trkpt><trkpt lat="44.3610295848607" lon="9.144837978009763"><ele>20.0</ele><time>2026-04-30T12:09:05.994Z</time></trkpt><trkpt lat="44.36106245119839" lon="9.144727329142343"><ele>20.0</ele><time>2026-04-30T12:09:06.994Z</time></trkpt><trkpt lat="44.36109339215519" lon="9.144619652182465"><ele>20.0</ele><time>2026-04-30T12:09:07.994Z</time></trkpt><trkpt lat="44.36110100032379" lon="9.144492759258586"><ele>20.0</ele><time>2026-04-30T12:09:08.994Z</time></trkpt><trkpt lat="44.361137793058106" lon="9.144378399076308"><ele>20.0</ele><time>2026-04-30T12:09:09.994Z</time></trkpt><trkpt lat="44.361172802700494" lon="9.144271826173993"><ele>20.0</ele><time>2026-04-30T12:09:10.994Z</time></trkpt><trkpt lat="44.36122162707801" lon="9.14418616971547"><ele>20.0</ele><time>2026-04-30T12:09:11.994Z</time></trkpt><trkpt lat="44.361238666457005" lon="9.14409434324897"><ele>20.0</ele><time>2026-04-30T12:09:12.994Z</time></trkpt><trkpt lat="44.36129196551318" lon="9.143952938244599"><ele>20.0</ele><time>2026-04-30T12:09:14.994Z</time></trkpt><trkpt lat="44.36133878259584" lon="9.143812125321114"><ele>20.0</ele><time>2026-04-30T12:09:16.994Z</time></trkpt><trkpt lat="44.361417682754556" lon="9.143699662899655"><ele>20.0</ele><time>2026-04-30T12:09:18.994Z</time></trkpt><trkpt lat="44.36147377189277" lon="9.143560398593056"><ele>18.333333333333336</ele><time>2026-04-30T12:09:20.994Z</time></trkpt><trkpt lat="44.36152104327336" lon="9.143437224158532"><ele>16.666666666666668</ele><time>2026-04-30T12:09:22.994Z</time></trkpt><trkpt lat="44.36155628875935" lon="9.14333464631805"><ele>15.0</ele><time>2026-04-30T12:09:24.994Z</time></trkpt><trkpt lat="44.36158301702265" lon="9.143254824045432"><ele>13.333333333333334</ele><time>2026-04-30T12:09:28.994Z</time></trkpt><trkpt lat="44.361631808236325" lon="9.143124348197345"><ele>11.666666666666668</ele><time>2026-04-30T12:09:34.994Z</time></trkpt><trkpt lat="44.36164429009872" lon="9.143028074520602"><ele>10.0</ele><time>2026-04-30T12:09:35.994Z</time></trkpt><trkpt lat="44.3616777160478" lon="9.14292840908014"><ele>10.0</ele><time>2026-04-30T12:09:36.994Z</time></trkpt><trkpt lat="44.361711290524944" lon="9.142822303194196"><ele>10.0</ele><time>2026-04-30T12:09:37.994Z</time></trkpt><trkpt lat="44.36176422719357" lon="9.142716101106132"><ele>10.0</ele><time>2026-04-30T12:09:38.993Z</time></trkpt><trkpt lat="44.361807272689475" lon="9.142588050268222"><ele>10.0</ele><time>2026-04-30T12:09:39.993Z</time></trkpt><trkpt lat="44.36184042765561" lon="9.142454385905198"><ele>10.0</ele><time>2026-04-30T12:09:40.993Z</time></trkpt><trkpt lat="44.361879478174735" lon="9.142329205390002"><ele>10.0</ele><time>2026-04-30T12:09:41.993Z</time></trkpt><trkpt lat="44.36193373552726" lon="9.14222157864836"><ele>10.0</ele><time>2026-04-30T12:09:42.993Z</time></trkpt><trkpt lat="44.36197628076326" lon="9.142122032693864"><ele>10.0</ele><time>2026-04-30T12:09:43.993Z</time></trkpt><trkpt lat="44.362034313981745" lon="9.142054748269029"><ele>10.0</ele><time>2026-04-30T12:09:44.993Z</time></trkpt><trkpt lat="44.36210244150157" lon="9.141997632339354"><ele>10.0</ele><time>2026-04-30T12:09:45.993Z</time></trkpt><trkpt lat="44.36217094512813" lon="9.141935562096775"><ele>10.0</ele><time>2026-04-30T12:09:46.993Z</time></trkpt><trkpt lat="44.3622246443266" lon="9.141866973677981"><ele>10.0</ele><time>2026-04-30T12:09:47.993Z</time></trkpt><trkpt lat="44.362285437813405" lon="9.141829481474511"><ele>10.0</ele><time>2026-04-30T12:09:48.993Z</time></trkpt><trkpt lat="44.36239467104722" lon="9.141809827326984"><ele>10.0</ele><time>2026-04-30T12:09:50.993Z</time></trkpt><trkpt lat="44.36252248471752" lon="9.141706099825765"><ele>10.0</ele><time>2026-04-30T12:09:52.993Z</time></trkpt><trkpt lat="44.36252326560808" lon="9.14153358477564"><ele>10.0</ele><time>2026-04-30T12:09:54.993Z</time></trkpt><trkpt lat="44.36251815777111" lon="9.141393050658504"><ele>11.0</ele><time>2026-04-30T12:09:55.993Z</time></trkpt><trkpt lat="44.362491256969975" lon="9.141231092383793"><ele>12.0</ele><time>2026-04-30T12:09:56.993Z</time></trkpt><trkpt lat="44.36243507571429" lon="9.141071988364768"><ele>13.0</ele><time>2026-04-30T12:09:57.993Z</time></trkpt><trkpt lat="44.36237180280291" lon="9.140954001829039"><ele>14.0</ele><time>2026-04-30T12:09:58.993Z</time></trkpt><trkpt lat="44.36230446225247" lon="9.140833026183154"><ele>14.0</ele><time>2026-04-30T12:09:59.993Z</time></trkpt><trkpt lat="44.362234504411326" lon="9.140707348798527"><ele>13.999999999999998</ele><time>2026-04-30T12:10:00.993Z</time></trkpt><trkpt lat="44.36217078074129" lon="9.140592131022975"><ele>13.999999999999998</ele><time>2026-04-30T12:10:01.993Z</time></trkpt><trkpt lat="44.36211272914912" lon="9.140482471073836"><ele>14.0</ele><time>2026-04-30T12:10:02.993Z</time></trkpt><trkpt lat="44.36204831635823" lon="9.140383789248476"><ele>14.0</ele><time>2026-04-30T12:10:03.993Z</time></trkpt><trkpt lat="44.36199104262847" lon="9.140261520996747"><ele>14.0</ele><time>2026-04-30T12:10:04.993Z</time></trkpt><trkpt lat="44.361941831978136" lon="9.140123276119516"><ele>14.0</ele><time>2026-04-30T12:10:05.993Z</time></trkpt><trkpt lat="44.36188950822134" lon="9.139984723858626"><ele>14.0</ele><time>2026-04-30T12:10:06.993Z</time></trkpt><trkpt lat="44.36182039935053" lon="9.139851585863461"><ele>14.0</ele><time>2026-04-30T12:10:07.993Z</time></trkpt><trkpt lat="44.36172484556394" lon="9.139730857622267"><ele>13.25</ele><time>2026-04-30T12:10:08.993Z</time></trkpt><trkpt lat="44.361624961081546" lon="9.13961613603846"><ele>12.5</ele><time>2026-04-30T12:10:09.993Z</time></trkpt><trkpt lat="44.361518164626844" lon="9.139509387258759"><ele>11.75</ele><time>2026-04-30T12:10:10.993Z</time></trkpt><trkpt lat="44.361407801552154" lon="9.139407610016123"><ele>11.0</ele><time>2026-04-30T12:10:11.993Z</time></trkpt><trkpt lat="44.361293972083395" lon="9.139305077004158"><ele>11.0</ele><time>2026-04-30T12:10:12.993Z</time></trkpt><trkpt lat="44.3611935651184" lon="9.139180544583708"><ele>11.0</ele><time>2026-04-30T12:10:13.993Z</time></trkpt><trkpt lat="44.36110443742236" lon="9.139037630469979"><ele>11.0</ele><time>2026-04-30T12:10:14.993Z</time></trkpt><trkpt lat="44.361021972973646" lon="9.138885859553845"><ele>11.0</ele><time>2026-04-30T12:10:15.993Z</time></trkpt><trkpt lat="44.360944867358505" lon="9.138728339930125"><ele>14.5</ele><time>2026-04-30T12:10:16.993Z</time></trkpt><trkpt lat="44.360889125821956" lon="9.138556521435214"><ele>18.0</ele><time>2026-04-30T12:10:17.993Z</time></trkpt><trkpt lat="44.36084669740696" lon="9.138378646196538"><ele>21.5</ele><time>2026-04-30T12:10:18.993Z</time></trkpt><trkpt lat="44.360822421345645" lon="9.13819425081854"><ele>25.0</ele><time>2026-04-30T12:10:19.993Z</time></trkpt><trkpt lat="44.360810767646406" lon="9.138004475024408"><ele>25.75</ele><time>2026-04-30T12:10:20.993Z</time></trkpt><trkpt lat="44.36081858957191" lon="9.13781076884281"><ele>26.5</ele><time>2026-04-30T12:10:21.993Z</time></trkpt><trkpt lat="44.36083981421034" lon="9.137621068803272"><ele>27.25</ele><time>2026-04-30T12:10:22.993Z</time></trkpt><trkpt lat="44.360881126410035" lon="9.137430378076125"><ele>28.0</ele><time>2026-04-30T12:10:23.993Z</time></trkpt><trkpt lat="44.36092666693595" lon="9.13723813915427"><ele>26.25</ele><time>2026-04-30T12:10:24.993Z</time></trkpt><trkpt lat="44.360968857018406" lon="9.13704559667853"><ele>24.5</ele><time>2026-04-30T12:10:25.993Z</time></trkpt><trkpt lat="44.36101372896598" lon="9.136866981127122"><ele>22.75</ele><time>2026-04-30T12:10:26.993Z</time></trkpt><trkpt lat="44.36105048991376" lon="9.1366980462074"><ele>21.0</ele><time>2026-04-30T12:10:27.993Z</time></trkpt><trkpt lat="44.36110493560804" lon="9.136541680733366"><ele>23.0</ele><time>2026-04-30T12:10:28.992Z</time></trkpt><trkpt lat="44.361187194650974" lon="9.136403223773126"><ele>25.0</ele><time>2026-04-30T12:10:29.992Z</time></trkpt><trkpt lat="44.36128909387933" lon="9.136280153564378"><ele>27.0</ele><time>2026-04-30T12:10:30.992Z</time></trkpt><trkpt lat="44.36141426406975" lon="9.136198321257982"><ele>29.0</ele><time>2026-04-30T12:10:31.992Z</time></trkpt><trkpt lat="44.36153589150158" lon="9.136105351484655"><ele>29.0</ele><time>2026-04-30T12:10:32.992Z</time></trkpt><trkpt lat="44.36165574319655" lon="9.136019802473394"><ele>29.0</ele><time>2026-04-30T12:10:33.992Z</time></trkpt><trkpt lat="44.361772390850106" lon="9.135932689338096"><ele>29.0</ele><time>2026-04-30T12:10:34.992Z</time></trkpt><trkpt lat="44.36188622089229" lon="9.135844738458854"><ele>29.0</ele><time>2026-04-30T12:10:35.992Z</time></trkpt><trkpt lat="44.3619938778917" lon="9.135750563404878"><ele>27.5</ele><time>2026-04-30T12:10:36.992Z</time></trkpt><trkpt lat="44.36209607930707" lon="9.13565125185512"><ele>26.0</ele><time>2026-04-30T12:10:37.992Z</time></trkpt><trkpt lat="44.362181031604244" lon="9.135526161241005"><ele>24.5</ele><time>2026-04-30T12:10:38.992Z</time></trkpt><trkpt lat="44.362261338074546" lon="9.135390524163475"><ele>23.0</ele><time>2026-04-30T12:10:39.992Z</time></trkpt><trkpt lat="44.362319846663496" lon="9.135237968748033"><ele>27.5</ele><time>2026-04-30T12:10:40.992Z</time></trkpt><trkpt lat="44.36235937789261" lon="9.135073880055971"><ele>32.0</ele><time>2026-04-30T12:10:41.992Z</time></trkpt><trkpt lat="44.36239026401334" lon="9.134900455537734"><ele>36.5</ele><time>2026-04-30T12:10:42.992Z</time></trkpt><trkpt lat="44.362402199662945" lon="9.134718501529763"><ele>41.0</ele><time>2026-04-30T12:10:43.992Z</time></trkpt><trkpt lat="44.36238976850199" lon="9.134536759479639"><ele>43.25</ele><time>2026-04-30T12:10:44.992Z</time></trkpt><trkpt lat="44.36236313693926" lon="9.13435604698388"><ele>45.5</ele><time>2026-04-30T12:10:45.992Z</time></trkpt><trkpt lat="44.36229249155692" lon="9.1341910776586"><ele>47.75</ele><time>2026-04-30T12:10:46.992Z</time></trkpt><trkpt lat="44.3622336687869" lon="9.134012960982085"><ele>50.0</ele><time>2026-04-30T12:10:47.992Z</time></trkpt><trkpt lat="44.36218382007126" lon="9.133828983977285"><ele>43.75</ele><time>2026-04-30T12:10:48.992Z</time></trkpt><trkpt lat="44.362145967629736" lon="9.133635284680103"><ele>37.5</ele><time>2026-04-30T12:10:49.992Z</time></trkpt><trkpt lat="44.36212654529088" lon="9.13343702941028"><ele>31.25</ele><time>2026-04-30T12:10:50.992Z</time></trkpt><trkpt lat="44.36212541241793" lon="9.13322893426497"><ele>25.0</ele><time>2026-04-30T12:10:51.992Z</time></trkpt><trkpt lat="44.362124478879764" lon="9.133023877360763"><ele>24.25</ele><time>2026-04-30T12:10:52.992Z</time></trkpt><trkpt lat="44.362111178507746" lon="9.132834642143825"><ele>23.5</ele><time>2026-04-30T12:10:53.992Z</time></trkpt><trkpt lat="44.3620848355423" lon="9.132623727600548"><ele>22.75</ele><time>2026-04-30T12:10:54.992Z</time></trkpt><trkpt lat="44.36209411284187" lon="9.132403729527947"><ele>22.0</ele><time>2026-04-30T12:10:55.992Z</time></trkpt><trkpt lat="44.36211655084577" lon="9.132196163141261"><ele>20.333333333333332</ele><time>2026-04-30T12:10:56.992Z</time></trkpt><trkpt lat="44.36213926980256" lon="9.13198346659868"><ele>18.666666666666668</ele><time>2026-04-30T12:10:57.992Z</time></trkpt><trkpt lat="44.362178152525" lon="9.131768816833516"><ele>17.0</ele><time>2026-04-30T12:10:58.992Z</time></trkpt><trkpt lat="44.36220007153337" lon="9.131552676320172"><ele>19.75</ele><time>2026-04-30T12:10:59.992Z</time></trkpt><trkpt lat="44.36221844351143" lon="9.131337445575326"><ele>22.5</ele><time>2026-04-30T12:11:00.992Z</time></trkpt><trkpt lat="44.36225127062008" lon="9.131142415863483"><ele>25.25</ele><time>2026-04-30T12:11:01.992Z</time></trkpt><trkpt lat="44.36228976274308" lon="9.130953933989886"><ele>28.0</ele><time>2026-04-30T12:11:03Z</time></trkpt><trkpt lat="44.36235542628671" lon="9.130786438780602"><ele>24.333333333333336</ele><time>2026-04-30T12:11:04Z</time></trkpt><trkpt lat="44.36241984920521" lon="9.130597158794332"><ele>20.666666666666668</ele><time>2026-04-30T12:11:05Z</time></trkpt><trkpt lat="44.362499912891884" lon="9.130410005646876"><ele>17.0</ele><time>2026-04-30T12:11:06Z</time></trkpt><trkpt lat="44.36257964900827" lon="9.130199932646516"><ele>17.0</ele><time>2026-04-30T12:11:07Z</time></trkpt><trkpt lat="44.36266130645963" lon="9.129971275283573"><ele>17.0</ele><time>2026-04-30T12:11:08Z</time></trkpt><trkpt lat="44.36276357396183" lon="9.129744866450725"><ele>17.0</ele><time>2026-04-30T12:11:09Z</time></trkpt><trkpt lat="44.362845495728294" lon="9.129496110269796"><ele>17.0</ele><time>2026-04-30T12:11:10Z</time></trkpt><trkpt lat="44.362927791459384" lon="9.129256260722261"><ele>17.0</ele><time>2026-04-30T12:11:11Z</time></trkpt><trkpt lat="44.36300003290026" lon="9.12901529408141"><ele>17.0</ele><time>2026-04-30T12:11:12Z</time></trkpt><trkpt lat="44.36306140451595" lon="9.128758719875776"><ele>22.5</ele><time>2026-04-30T12:11:13Z</time></trkpt><trkpt lat="44.36304104629507" lon="9.128538121972035"><ele>28.0</ele><time>2026-04-30T12:11:14Z</time></trkpt><trkpt lat="44.36304662146437" lon="9.12834103499784"><ele>33.5</ele><time>2026-04-30T12:11:15Z</time></trkpt><trkpt lat="44.36306928739348" lon="9.128149361320196"><ele>39.0</ele><time>2026-04-30T12:11:16Z</time></trkpt><trkpt lat="44.36312289008521" lon="9.127992642637068"><ele>39.0</ele><time>2026-04-30T12:11:17Z</time></trkpt><trkpt lat="44.36320537173803" lon="9.12784404464856"><ele>39.0</ele><time>2026-04-30T12:11:18Z</time></trkpt><trkpt lat="44.36330293219927" lon="9.127656684756383"><ele>39.0</ele><time>2026-04-30T12:11:19Z</time></trkpt><trkpt lat="44.363394479126896" lon="9.127471216630028"><ele>36.333333333333336</ele><time>2026-04-30T12:11:20Z</time></trkpt><trkpt lat="44.36352046049935" lon="9.127280748637208"><ele>33.66666666666667</ele><time>2026-04-30T12:11:21Z</time></trkpt><trkpt lat="44.36365268584064" lon="9.127159393088697"><ele>31.0</ele><time>2026-04-30T12:11:22Z</time></trkpt><trkpt lat="44.363698798214365" lon="9.12695999118778"><ele>31.0</ele><time>2026-04-30T12:11:23Z</time></trkpt><trkpt lat="44.363707293672626" lon="9.126779221746657"><ele>31.0</ele><time>2026-04-30T12:11:24Z</time></trkpt><trkpt lat="44.3636811486285" lon="9.12659057803109"><ele>31.0</ele><time>2026-04-30T12:11:25Z</time></trkpt><trkpt lat="44.3636360995502" lon="9.126400155865504"><ele>31.0</ele><time>2026-04-30T12:11:26Z</time></trkpt><trkpt lat="44.363561645440804" lon="9.126221880289274"><ele>31.25</ele><time>2026-04-30T12:11:27Z</time></trkpt><trkpt lat="44.363539494395376" lon="9.126041747094517"><ele>31.5</ele><time>2026-04-30T12:11:28Z</time></trkpt><trkpt lat="44.36355258827557" lon="9.125850145016305"><ele>31.75</ele><time>2026-04-30T12:11:29Z</time></trkpt><trkpt lat="44.36360041281905" lon="9.125677587161908"><ele>32.0</ele><time>2026-04-30T12:11:30Z</time></trkpt><trkpt lat="44.36366221661413" lon="9.125540365763996"><ele>29.0</ele><time>2026-04-30T12:11:31Z</time></trkpt><trkpt lat="44.36374330413711" lon="9.125450756537944"><ele>26.0</ele><time>2026-04-30T12:11:32Z</time></trkpt><trkpt lat="44.363838885091745" lon="9.125369697452982"><ele>23.0</ele><time>2026-04-30T12:11:33Z</time></trkpt><trkpt lat="44.363954209337976" lon="9.125238003122197"><ele>20.0</ele><time>2026-04-30T12:11:34Z</time></trkpt><trkpt lat="44.36408997915411" lon="9.125093183097649"><ele>23.0</ele><time>2026-04-30T12:11:34.999Z</time></trkpt><trkpt lat="44.36420636553216" lon="9.124930441825226"><ele>26.0</ele><time>2026-04-30T12:11:35.999Z</time></trkpt><trkpt lat="44.36428877176936" lon="9.124749875988632"><ele>29.0</ele><time>2026-04-30T12:11:36.999Z</time></trkpt><trkpt lat="44.364373705808184" lon="9.12456178018284"><ele>29.0</ele><time>2026-04-30T12:11:37.999Z</time></trkpt><trkpt lat="44.36444911969228" lon="9.12437250901113"><ele>29.0</ele><time>2026-04-30T12:11:38.999Z</time></trkpt><trkpt lat="44.36454972347309" lon="9.124202615194944"><ele>29.0</ele><time>2026-04-30T12:11:39.999Z</time></trkpt><trkpt lat="44.364619869653815" lon="9.124048961642792"><ele>29.0</ele><time>2026-04-30T12:11:40.999Z</time></trkpt><trkpt lat="44.36469540438978" lon="9.12391694027867"><ele>34.5</ele><time>2026-04-30T12:11:41.999Z</time></trkpt><trkpt lat="44.364810377099246" lon="9.123870503576775"><ele>40.0</ele><time>2026-04-30T12:11:42.999Z</time></trkpt><trkpt lat="44.364918949472056" lon="9.123735196619586"><ele>45.5</ele><time>2026-04-30T12:11:43.999Z</time></trkpt><trkpt lat="44.36503344609918" lon="9.1237139898899"><ele>51.0</ele><time>2026-04-30T12:11:44.999Z</time></trkpt><trkpt lat="44.36516430348527" lon="9.12363313173141"><ele>51.0</ele><time>2026-04-30T12:11:45.999Z</time></trkpt><trkpt lat="44.365275278722734" lon="9.123526538889287"><ele>51.0</ele><time>2026-04-30T12:11:46.999Z</time></trkpt><trkpt lat="44.36541826710057" lon="9.12343740589321"><ele>51.0</ele><time>2026-04-30T12:11:47.999Z</time></trkpt><trkpt lat="44.36552026199184" lon="9.123315275500698"><ele>51.0</ele><time>2026-04-30T12:11:48.999Z</time></trkpt><trkpt lat="44.365609330976014" lon="9.123168790905908"><ele>56.25</ele><time>2026-04-30T12:11:49.999Z</time></trkpt><trkpt lat="44.365642799893386" lon="9.122971369605906"><ele>61.5</ele><time>2026-04-30T12:11:50.999Z</time></trkpt><trkpt lat="44.365644902875886" lon="9.122770785434904"><ele>66.75</ele><time>2026-04-30T12:11:51.999Z</time></trkpt><trkpt lat="44.365654944961406" lon="9.122577401341529"><ele>72.0</ele><time>2026-04-30T12:11:52.999Z</time></trkpt><trkpt lat="44.36556205661267" lon="9.12237327504843"><ele>72.0</ele><time>2026-04-30T12:11:53.999Z</time></trkpt><trkpt lat="44.36557274833399" lon="9.122169726722545"><ele>72.0</ele><time>2026-04-30T12:11:54.999Z</time></trkpt><trkpt lat="44.36557381940847" lon="9.121964496696899"><ele>72.0</ele><time>2026-04-30T12:11:55.999Z</time></trkpt><trkpt lat="44.36557375701719" lon="9.121783906794333"><ele>72.0</ele><time>2026-04-30T12:11:56.999Z</time></trkpt><trkpt lat="44.36558650586812" lon="9.121635678289843"><ele>70.25</ele><time>2026-04-30T12:11:57.999Z</time></trkpt><trkpt lat="44.36561059624426" lon="9.12146531519326"><ele>68.5</ele><time>2026-04-30T12:11:58.999Z</time></trkpt><trkpt lat="44.365684947888184" lon="9.121338107117147"><ele>66.75</ele><time>2026-04-30T12:11:59.999Z</time></trkpt><trkpt lat="44.365770425877436" lon="9.121214109972486"><ele>65.0</ele><time>2026-04-30T12:12:00.999Z</time></trkpt><trkpt lat="44.3658618730197" lon="9.121087347696081"><ele>65.0</ele><time>2026-04-30T12:12:01.999Z</time></trkpt><trkpt lat="44.36593854199881" lon="9.120933046385465"><ele>65.0</ele><time>2026-04-30T12:12:02.999Z</time></trkpt><trkpt lat="44.36600697258322" lon="9.120776131859724"><ele>65.0</ele><time>2026-04-30T12:12:03.999Z</time></trkpt><trkpt lat="44.366087289410345" lon="9.12059426752629"><ele>65.0</ele><time>2026-04-30T12:12:04.999Z</time></trkpt><trkpt lat="44.366072083565555" lon="9.12039395614685"><ele>67.0</ele><time>2026-04-30T12:12:05.999Z</time></trkpt><trkpt lat="44.36606514760808" lon="9.120196857097836"><ele>69.0</ele><time>2026-04-30T12:12:06.999Z</time></trkpt><trkpt lat="44.36607700974366" lon="9.120029107230527"><ele>71.0</ele><time>2026-04-30T12:12:07.999Z</time></trkpt><trkpt lat="44.36609562372074" lon="9.119842278948425"><ele>73.0</ele><time>2026-04-30T12:12:08.999Z</time></trkpt><trkpt lat="44.36612059888912" lon="9.119635997941991"><ele>64.66666666666666</ele><time>2026-04-30T12:12:09.999Z</time></trkpt><trkpt lat="44.366151173642415" lon="9.119425708528988"><ele>56.33333333333333</ele><time>2026-04-30T12:12:10.999Z</time></trkpt><trkpt lat="44.36619763392802" lon="9.119208875176053"><ele>48.0</ele><time>2026-04-30T12:12:11.999Z</time></trkpt><trkpt lat="44.36622051241764" lon="9.118991842729738"><ele>42.75</ele><time>2026-04-30T12:12:12.999Z</time></trkpt><trkpt lat="44.36623571375756" lon="9.118806998361562"><ele>37.5</ele><time>2026-04-30T12:12:13.999Z</time></trkpt><trkpt lat="44.36628763926666" lon="9.118628470111947"><ele>32.25</ele><time>2026-04-30T12:12:14.999Z</time></trkpt><trkpt lat="44.36635811866897" lon="9.118478373993149"><ele>27.0</ele><time>2026-04-30T12:12:15.999Z</time></trkpt><trkpt lat="44.36643428407133" lon="9.118347058981545"><ele>38.5</ele><time>2026-04-30T12:12:16.999Z</time></trkpt><trkpt lat="44.366516094461666" lon="9.118205350854893"><ele>50.0</ele><time>2026-04-30T12:12:17.999Z</time></trkpt><trkpt lat="44.36658538532552" lon="9.118062358386734"><ele>61.5</ele><time>2026-04-30T12:12:18.999Z</time></trkpt><trkpt lat="44.366629031305024" lon="9.117868118729316"><ele>73.0</ele><time>2026-04-30T12:12:19.999Z</time></trkpt><trkpt lat="44.36665294422992" lon="9.117682323537164"><ele>73.0</ele><time>2026-04-30T12:12:20.999Z</time></trkpt><trkpt lat="44.36666008073281" lon="9.117487296685171"><ele>73.0</ele><time>2026-04-30T12:12:21.999Z</time></trkpt><trkpt lat="44.366658729697924" lon="9.11730726743785"><ele>73.0</ele><time>2026-04-30T12:12:22.998Z</time></trkpt><trkpt lat="44.36666683959968" lon="9.117148845405138"><ele>73.0</ele><time>2026-04-30T12:12:23.998Z</time></trkpt><trkpt lat="44.36669121401014" lon="9.11698676166761"><ele>69.0</ele><time>2026-04-30T12:12:24.998Z</time></trkpt><trkpt lat="44.36675188267565" lon="9.11686035025091"><ele>65.0</ele><time>2026-04-30T12:12:25.998Z</time></trkpt><trkpt lat="44.36685405666841" lon="9.11676452895575"><ele>61.0</ele><time>2026-04-30T12:12:26.998Z</time></trkpt><trkpt lat="44.36693324387424" lon="9.116625890917947"><ele>57.0</ele><time>2026-04-30T12:12:27.998Z</time></trkpt><trkpt lat="44.36698708213754" lon="9.11648520205764"><ele>53.75</ele><time>2026-04-30T12:12:28.998Z</time></trkpt><trkpt lat="44.367039859581666" lon="9.116318533394034"><ele>50.5</ele><time>2026-04-30T12:12:29.998Z</time></trkpt><trkpt lat="44.36708455779978" lon="9.116141196602927"><ele>47.25</ele><time>2026-04-30T12:12:30.998Z</time></trkpt><trkpt lat="44.36714882551747" lon="9.115989905068668"><ele>44.0</ele><time>2026-04-30T12:12:31.998Z</time></trkpt><trkpt lat="44.36718844658389" lon="9.115804873490507"><ele>50.75</ele><time>2026-04-30T12:12:32.998Z</time></trkpt><trkpt lat="44.36723975179386" lon="9.11563301875574"><ele>57.5</ele><time>2026-04-30T12:12:33.998Z</time></trkpt><trkpt lat="44.36731693840578" lon="9.115491278597577"><ele>64.25</ele><time>2026-04-30T12:12:34.998Z</time></trkpt><trkpt lat="44.36740506583353" lon="9.115371611975801"><ele>71.0</ele><time>2026-04-30T12:12:35.998Z</time></trkpt><trkpt lat="44.36751799680057" lon="9.115284975031638"><ele>71.0</ele><time>2026-04-30T12:12:36.998Z</time></trkpt><trkpt lat="44.367607928546654" lon="9.115178841087385"><ele>71.0</ele><time>2026-04-30T12:12:37.998Z</time></trkpt><trkpt lat="44.36770681409001" lon="9.115088102116943"><ele>71.0</ele><time>2026-04-30T12:12:38.998Z</time></trkpt><trkpt lat="44.36778726152397" lon="9.114950945137714"><ele>71.0</ele><time>2026-04-30T12:12:39.998Z</time></trkpt><trkpt lat="44.36786558843169" lon="9.114799640656074"><ele>67.25</ele><time>2026-04-30T12:12:40.998Z</time></trkpt><trkpt lat="44.3678941039103" lon="9.114633977585195"><ele>63.5</ele><time>2026-04-30T12:12:41.998Z</time></trkpt><trkpt lat="44.36791607831066" lon="9.114468272670372"><ele>59.75</ele><time>2026-04-30T12:12:42.998Z</time></trkpt><trkpt lat="44.3679243685386" lon="9.114283489765706"><ele>56.0</ele><time>2026-04-30T12:12:43.998Z</time></trkpt><trkpt lat="44.36792832886251" lon="9.114102666422454"><ele>53.5</ele><time>2026-04-30T12:12:44.998Z</time></trkpt><trkpt lat="44.367945268815774" lon="9.113927187600867"><ele>51.0</ele><time>2026-04-30T12:12:45.998Z</time></trkpt><trkpt lat="44.367969041467404" lon="9.113739383304774"><ele>48.5</ele><time>2026-04-30T12:12:46.998Z</time></trkpt><trkpt lat="44.368019017342135" lon="9.113569570014974"><ele>46.0</ele><time>2026-04-30T12:12:47.998Z</time></trkpt><trkpt lat="44.368079821015996" lon="9.113400872474823"><ele>54.5</ele><time>2026-04-30T12:12:48.998Z</time></trkpt><trkpt lat="44.3680589538423" lon="9.11321465505448"><ele>63.0</ele><time>2026-04-30T12:12:49.998Z</time></trkpt><trkpt lat="44.36809413241662" lon="9.113024084731071"><ele>71.5</ele><time>2026-04-30T12:12:50.998Z</time></trkpt><trkpt lat="44.368113805436856" lon="9.112846792525621"><ele>80.0</ele><time>2026-04-30T12:12:51.998Z</time></trkpt><trkpt lat="44.36814700231372" lon="9.112658837733802"><ele>80.0</ele><time>2026-04-30T12:12:52.998Z</time></trkpt><trkpt lat="44.368187700091084" lon="9.112475951172849"><ele>80.0</ele><time>2026-04-30T12:12:53.998Z</time></trkpt><trkpt lat="44.368227117995076" lon="9.11230353290485"><ele>80.0</ele><time>2026-04-30T12:12:54.998Z</time></trkpt><trkpt lat="44.368257693453494" lon="9.112138084381936"><ele>80.0</ele><time>2026-04-30T12:12:55.998Z</time></trkpt><trkpt lat="44.36829000535947" lon="9.111963239723131"><ele>73.75</ele><time>2026-04-30T12:12:56.998Z</time></trkpt><trkpt lat="44.36832182882877" lon="9.1117910379012"><ele>67.5</ele><time>2026-04-30T12:12:57.998Z</time></trkpt><trkpt lat="44.36831250161793" lon="9.111607752261163"><ele>61.25</ele><time>2026-04-30T12:12:58.998Z</time></trkpt><trkpt lat="44.36833233109389" lon="9.111431943779289"><ele>55.0</ele><time>2026-04-30T12:12:59.998Z</time></trkpt><trkpt lat="44.36832544304504" lon="9.111229167001863"><ele>53.25</ele><time>2026-04-30T12:13:00.998Z</time></trkpt><trkpt lat="44.36838113382416" lon="9.111094092953559"><ele>51.5</ele><time>2026-04-30T12:13:01.998Z</time></trkpt><trkpt lat="44.36841492833096" lon="9.11093924964961"><ele>49.75</ele><time>2026-04-30T12:13:02.998Z</time></trkpt><trkpt lat="44.36850489087986" lon="9.110780656492485"><ele>48.0</ele><time>2026-04-30T12:13:03.998Z</time></trkpt><trkpt lat="44.36858510368443" lon="9.110631205919614"><ele>45.0</ele><time>2026-04-30T12:13:04.998Z</time></trkpt><trkpt lat="44.36860925349302" lon="9.110478935754296"><ele>42.0</ele><time>2026-04-30T12:13:05.998Z</time></trkpt><trkpt lat="44.36865295166093" lon="9.110331777223552"><ele>39.0</ele><time>2026-04-30T12:13:06.998Z</time></trkpt><trkpt lat="44.36872709601969" lon="9.110211622184666"><ele>36.0</ele><time>2026-04-30T12:13:07.998Z</time></trkpt><trkpt lat="44.368823396337675" lon="9.11009376522458"><ele>42.25</ele><time>2026-04-30T12:13:08.998Z</time></trkpt><trkpt lat="44.3689103999677" lon="9.10998147669717"><ele>48.5</ele><time>2026-04-30T12:13:09.998Z</time></trkpt><trkpt lat="44.36899664845795" lon="9.109872560767988"><ele>54.75</ele><time>2026-04-30T12:13:10.998Z</time></trkpt><trkpt lat="44.36906238922983" lon="9.10972137707423"><ele>61.0</ele><time>2026-04-30T12:13:11.997Z</time></trkpt><trkpt lat="44.36911181483653" lon="9.109547985041937"><ele>61.0</ele><time>2026-04-30T12:13:12.997Z</time></trkpt><trkpt lat="44.369130082912235" lon="9.1093529642617"><ele>61.0</ele><time>2026-04-30T12:13:13.997Z</time></trkpt><trkpt lat="44.36915464906886" lon="9.1091783577783"><ele>61.0</ele><time>2026-04-30T12:13:14.997Z</time></trkpt><trkpt lat="44.36917653101335" lon="9.108996310292307"><ele>61.0</ele><time>2026-04-30T12:13:15.997Z</time></trkpt><trkpt lat="44.36921550291542" lon="9.108830534764252"><ele>57.75</ele><time>2026-04-30T12:13:16.997Z</time></trkpt><trkpt lat="44.36926575480465" lon="9.10866999851268"><ele>54.5</ele><time>2026-04-30T12:13:17.997Z</time></trkpt><trkpt lat="44.369324677363615" lon="9.10851412135514"><ele>51.25</ele><time>2026-04-30T12:13:18.997Z</time></trkpt><trkpt lat="44.36937850917378" lon="9.108354804079434"><ele>48.0</ele><time>2026-04-30T12:13:19.997Z</time></trkpt><trkpt lat="44.36944360254686" lon="9.108204569684311"><ele>44.5</ele><time>2026-04-30T12:13:20.997Z</time></trkpt><trkpt lat="44.36952557947673" lon="9.108030587261972"><ele>41.0</ele><time>2026-04-30T12:13:21.997Z</time></trkpt><trkpt lat="44.369615142313386" lon="9.107886844695827"><ele>37.5</ele><time>2026-04-30T12:13:22.997Z</time></trkpt><trkpt lat="44.36965826587457" lon="9.107759620916667"><ele>34.0</ele><time>2026-04-30T12:13:23.997Z</time></trkpt><trkpt lat="44.369625838186934" lon="9.107618178396926"><ele>34.0</ele><time>2026-04-30T12:13:24.997Z</time></trkpt><trkpt lat="44.369650889026666" lon="9.107485380525228"><ele>34.0</ele><time>2026-04-30T12:13:25.997Z</time></trkpt><trkpt lat="44.36967839983505" lon="9.107340826326947"><ele>34.0</ele><time>2026-04-30T12:13:26.997Z</time></trkpt><trkpt lat="44.36970747945923" lon="9.107191300917355"><ele>34.0</ele><time>2026-04-30T12:13:27.997Z</time></trkpt><trkpt lat="44.36973475072292" lon="9.107051073944577"><ele>34.0</ele><time>2026-04-30T12:13:28.997Z</time></trkpt><trkpt lat="44.36976062837777" lon="9.10691801282586"><ele>34.4</ele><time>2026-04-30T12:13:29.997Z</time></trkpt><trkpt lat="44.369773020293955" lon="9.106776195110449"><ele>34.8</ele><time>2026-04-30T12:13:30.997Z</time></trkpt><trkpt lat="44.36982238549759" lon="9.106635970815352"><ele>35.2</ele><time>2026-04-30T12:13:31.997Z</time></trkpt><trkpt lat="44.36986171605262" lon="9.106485548166157"><ele>35.6</ele><time>2026-04-30T12:13:32.997Z</time></trkpt><trkpt lat="44.36991812236009" lon="9.106342898349007"><ele>36.0</ele><time>2026-04-30T12:13:33.997Z</time></trkpt><trkpt lat="44.36998479191915" lon="9.106213805972589"><ele>36.0</ele><time>2026-04-30T12:13:34.997Z</time></trkpt><trkpt lat="44.37006182704741" lon="9.106078929673286"><ele>36.0</ele><time>2026-04-30T12:13:35.997Z</time></trkpt><trkpt lat="44.37013345534637" lon="9.10595346937446"><ele>36.0</ele><time>2026-04-30T12:13:36.997Z</time></trkpt><trkpt lat="44.370198552489185" lon="9.105838759580173"><ele>36.0</ele><time>2026-04-30T12:13:37.997Z</time></trkpt><trkpt lat="44.370253794849134" lon="9.105739549195151"><ele>36.0</ele><time>2026-04-30T12:13:38.997Z</time></trkpt><trkpt lat="44.37030772613247" lon="9.105642693363372"><ele>35.666666666666664</ele><time>2026-04-30T12:13:39.997Z</time></trkpt><trkpt lat="44.37034537317056" lon="9.105543277810558"><ele>35.333333333333336</ele><time>2026-04-30T12:13:40.997Z</time></trkpt><trkpt lat="44.37040720885988" lon="9.10549139453554"><ele>35.0</ele><time>2026-04-30T12:13:41.997Z</time></trkpt><trkpt lat="44.37046144386413" lon="9.105416660137314"><ele>34.66666666666667</ele><time>2026-04-30T12:13:42.997Z</time></trkpt><trkpt lat="44.37051402745979" lon="9.10535916022644"><ele>34.333333333333336</ele><time>2026-04-30T12:13:43.997Z</time></trkpt><trkpt lat="44.37050730744996" lon="9.105257477940542"><ele>34.0</ele><time>2026-04-30T12:13:45.997Z</time></trkpt><trkpt lat="44.37058362917028" lon="9.105192666632206"><ele>34.0</ele><time>2026-04-30T12:13:51.997Z</time></trkpt><trkpt lat="44.3706522825804" lon="9.10516087116471"><ele>34.0</ele><time>2026-04-30T12:13:53.997Z</time></trkpt><trkpt lat="44.37069458209847" lon="9.105034418113913"><ele>34.0</ele><time>2026-04-30T12:14:05.996Z</time></trkpt><trkpt lat="44.3707536961612" lon="9.104949144661576"><ele>34.0</ele><time>2026-04-30T12:14:06.996Z</time></trkpt><trkpt lat="44.37089187959812" lon="9.104815473545758"><ele>34.0</ele><time>2026-04-30T12:14:08.996Z</time></trkpt><trkpt lat="44.371023717238515" lon="9.104792802189879"><ele>29.0</ele><time>2026-04-30T12:14:09.996Z</time></trkpt><trkpt lat="44.371180638208614" lon="9.104791236835892"><ele>24.0</ele><time>2026-04-30T12:14:10.996Z</time></trkpt><trkpt lat="44.37133764709383" lon="9.104700438412364"><ele>19.0</ele><time>2026-04-30T12:14:11.996Z</time></trkpt><trkpt lat="44.37145980205595" lon="9.10458860877135"><ele>19.0</ele><time>2026-04-30T12:14:12.996Z</time></trkpt><trkpt lat="44.37158319257245" lon="9.104441428650935"><ele>19.0</ele><time>2026-04-30T12:14:13.996Z</time></trkpt><trkpt lat="44.371695983710744" lon="9.104298880982842"><ele>19.0</ele><time>2026-04-30T12:14:14.996Z</time></trkpt><trkpt lat="44.371804567219456" lon="9.104141268403824"><ele>15.666666666666666</ele><time>2026-04-30T12:14:15.996Z</time></trkpt><trkpt lat="44.371915732491885" lon="9.103939152926557"><ele>12.333333333333332</ele><time>2026-04-30T12:14:16.996Z</time></trkpt><trkpt lat="44.372007583208436" lon="9.10373348291844"><ele>9.0</ele><time>2026-04-30T12:14:17.996Z</time></trkpt><trkpt lat="44.37208671948945" lon="9.103543044243919"><ele>9.0</ele><time>2026-04-30T12:14:18.996Z</time></trkpt><trkpt lat="44.37217236031242" lon="9.103383631948288"><ele>9.0</ele><time>2026-04-30T12:14:19.996Z</time></trkpt><trkpt lat="44.37229345637334" lon="9.10321766871349"><ele>9.0</ele><time>2026-04-30T12:14:20.996Z</time></trkpt><trkpt lat="44.37237730047525" lon="9.103110216511322"><ele>9.0</ele><time>2026-04-30T12:14:21.996Z</time></trkpt><trkpt lat="44.37241260521997" lon="9.102998695204628"><ele>14.5</ele><time>2026-04-30T12:14:22.996Z</time></trkpt><trkpt lat="44.37242005052669" lon="9.102871886738955"><ele>20.0</ele><time>2026-04-30T12:14:23.996Z</time></trkpt><trkpt lat="44.3723825262016" lon="9.102759754317995"><ele>25.5</ele><time>2026-04-30T12:14:24.996Z</time></trkpt><trkpt lat="44.3723641209537" lon="9.102667969531483"><ele>31.0</ele><time>2026-04-30T12:14:25.996Z</time></trkpt><trkpt lat="44.372312459877364" lon="9.102526496962994"><ele>36.5</ele><time>2026-04-30T12:14:27.996Z</time></trkpt><trkpt lat="44.372287605173895" lon="9.102445118314522"><ele>42.0</ele><time>2026-04-30T12:14:28.996Z</time></trkpt><trkpt lat="44.37225893999492" lon="9.102351790906622"><ele>43.6</ele><time>2026-04-30T12:14:30.996Z</time></trkpt><trkpt lat="44.37219964719169" lon="9.102235534975904"><ele>45.2</ele><time>2026-04-30T12:14:54.995Z</time></trkpt><trkpt lat="44.372165644486884" lon="9.102068212178336"><ele>46.8</ele><time>2026-04-30T12:14:56.995Z</time></trkpt><trkpt lat="44.37212844988937" lon="9.101954546126278"><ele>48.4</ele><time>2026-04-30T12:14:57.995Z</time></trkpt><trkpt lat="44.37206995573594" lon="9.101807332420776"><ele>50.0</ele><time>2026-04-30T12:14:58.995Z</time></trkpt><trkpt lat="44.372021563114174" lon="9.101670457500042"><ele>42.75</ele><time>2026-04-30T12:14:59.995Z</time></trkpt><trkpt lat="44.37198677271729" lon="9.10152908154468"><ele>35.5</ele><time>2026-04-30T12:15:00.995Z</time></trkpt><trkpt lat="44.371948820336115" lon="9.101367914488435"><ele>28.25</ele><time>2026-04-30T12:15:01.995Z</time></trkpt><trkpt lat="44.371933131254785" lon="9.101193309864254"><ele>21.0</ele><time>2026-04-30T12:15:02.995Z</time></trkpt><trkpt lat="44.37195238347668" lon="9.10103228533406"><ele>21.0</ele><time>2026-04-30T12:15:03.995Z</time></trkpt><trkpt lat="44.37202979997701" lon="9.10088855347534"><ele>21.0</ele><time>2026-04-30T12:15:04.995Z</time></trkpt><trkpt lat="44.37211757686279" lon="9.10075248070482"><ele>21.0</ele><time>2026-04-30T12:15:05.995Z</time></trkpt><trkpt lat="44.372174008365896" lon="9.100598257916573"><ele>21.0</ele><time>2026-04-30T12:15:06.995Z</time></trkpt><trkpt lat="44.372217489394366" lon="9.100430308460831"><ele>27.75</ele><time>2026-04-30T12:15:07.995Z</time></trkpt><trkpt lat="44.37223701574442" lon="9.100247528690254"><ele>34.5</ele><time>2026-04-30T12:15:08.995Z</time></trkpt><trkpt lat="44.37224094107251" lon="9.100073795347459"><ele>41.25</ele><time>2026-04-30T12:15:09.995Z</time></trkpt><trkpt lat="44.37224230153813" lon="9.099899336503627"><ele>48.0</ele><time>2026-04-30T12:15:10.995Z</time></trkpt><trkpt lat="44.37224368976921" lon="9.099717493059627"><ele>48.25</ele><time>2026-04-30T12:15:11.995Z</time></trkpt><trkpt lat="44.37224241138361" lon="9.099562015514223"><ele>48.5</ele><time>2026-04-30T12:15:12.995Z</time></trkpt><trkpt lat="44.37222838456464" lon="9.099403537148953"><ele>48.75</ele><time>2026-04-30T12:15:13.995Z</time></trkpt><trkpt lat="44.372220582581164" lon="9.099223789888303"><ele>49.0</ele><time>2026-04-30T12:15:14.995Z</time></trkpt><trkpt lat="44.37224465154698" lon="9.099031264398306"><ele>49.0</ele><time>2026-04-30T12:15:15.995Z</time></trkpt><trkpt lat="44.37225263443351" lon="9.09881929764435"><ele>49.0</ele><time>2026-04-30T12:15:16.995Z</time></trkpt><trkpt lat="44.372283082506485" lon="9.098572193723655"><ele>49.0</ele><time>2026-04-30T12:15:17.995Z</time></trkpt><trkpt lat="44.3723014309453" lon="9.098292297496517"><ele>48.33333333333333</ele><time>2026-04-30T12:15:18.995Z</time></trkpt><trkpt lat="44.37234153733416" lon="9.098044939239426"><ele>47.666666666666664</ele><time>2026-04-30T12:15:19.995Z</time></trkpt><trkpt lat="44.37241886675056" lon="9.097775826392533"><ele>47.0</ele><time>2026-04-30T12:15:20.995Z</time></trkpt><trkpt lat="44.37247864260383" lon="9.097547457756189"><ele>45.666666666666664</ele><time>2026-04-30T12:15:21.995Z</time></trkpt><trkpt lat="44.37258092642587" lon="9.097360252271244"><ele>44.333333333333336</ele><time>2026-04-30T12:15:22.995Z</time></trkpt><trkpt lat="44.37265949437249" lon="9.097200223068144"><ele>43.0</ele><time>2026-04-30T12:15:23.995Z</time></trkpt><trkpt lat="44.37270767852877" lon="9.097012338817152"><ele>43.0</ele><time>2026-04-30T12:15:24.995Z</time></trkpt><trkpt lat="44.372719085888214" lon="9.096845833241234"><ele>43.0</ele><time>2026-04-30T12:15:25.995Z</time></trkpt><trkpt lat="44.3727342303792" lon="9.09659535740596"><ele>43.0</ele><time>2026-04-30T12:15:26.995Z</time></trkpt><trkpt lat="44.37276342310499" lon="9.096365088705596"><ele>42.0</ele><time>2026-04-30T12:15:27.995Z</time></trkpt><trkpt lat="44.37276372507265" lon="9.09613380891687"><ele>41.0</ele><time>2026-04-30T12:15:28.995Z</time></trkpt><trkpt lat="44.372778164170796" lon="9.095949333948063"><ele>40.0</ele><time>2026-04-30T12:15:29.995Z</time></trkpt><trkpt lat="44.37278374116903" lon="9.095770133384374"><ele>39.0</ele><time>2026-04-30T12:15:30.995Z</time></trkpt><trkpt lat="44.37272388608882" lon="9.095598897945509"><ele>43.0</ele><time>2026-04-30T12:15:31.995Z</time></trkpt><trkpt lat="44.3726527746756" lon="9.095434282059111"><ele>47.0</ele><time>2026-04-30T12:15:32.995Z</time></trkpt><trkpt lat="44.3725706449219" lon="9.095236404702167"><ele>51.0</ele><time>2026-04-30T12:15:33.995Z</time></trkpt><trkpt lat="44.37249751143303" lon="9.095033887294443"><ele>53.0</ele><time>2026-04-30T12:15:34.995Z</time></trkpt><trkpt lat="44.37243724629233" lon="9.094848720410063"><ele>55.0</ele><time>2026-04-30T12:15:35.995Z</time></trkpt><trkpt lat="44.37238023265951" lon="9.094665432370661"><ele>57.0</ele><time>2026-04-30T12:15:36.995Z</time></trkpt><trkpt lat="44.37232636164787" lon="9.09447297936885"><ele>59.0</ele><time>2026-04-30T12:15:37.995Z</time></trkpt><trkpt lat="44.37229322130065" lon="9.094295649174532"><ele>59.0</ele><time>2026-04-30T12:15:38.994Z</time></trkpt><trkpt lat="44.37226477845292" lon="9.094134569081444"><ele>59.0</ele><time>2026-04-30T12:15:39.994Z</time></trkpt><trkpt lat="44.37224212193453" lon="9.093922921962585"><ele>59.0</ele><time>2026-04-30T12:15:40.994Z</time></trkpt><trkpt lat="44.37219114329781" lon="9.09381524570111"><ele>59.0</ele><time>2026-04-30T12:15:41.994Z</time></trkpt><trkpt lat="44.372192546419775" lon="9.093678203249056"><ele>58.2</ele><time>2026-04-30T12:15:42.994Z</time></trkpt><trkpt lat="44.37220086703325" lon="9.093539610312748"><ele>57.400000000000006</ele><time>2026-04-30T12:15:43.994Z</time></trkpt><trkpt lat="44.3722679243481" lon="9.093432379071936"><ele>56.6</ele><time>2026-04-30T12:15:44.994Z</time></trkpt><trkpt lat="44.37236090608504" lon="9.093360896493584"><ele>55.8</ele><time>2026-04-30T12:15:45.994Z</time></trkpt><trkpt lat="44.372438524614715" lon="9.093273570702316"><ele>55.0</ele><time>2026-04-30T12:15:46.994Z</time></trkpt><trkpt lat="44.37251402632465" lon="9.093163571031065"><ele>52.25</ele><time>2026-04-30T12:15:47.994Z</time></trkpt><trkpt lat="44.372583351325325" lon="9.093045275784313"><ele>49.5</ele><time>2026-04-30T12:15:48.994Z</time></trkpt><trkpt lat="44.372586510909265" lon="9.092866539259338"><ele>46.75</ele><time>2026-04-30T12:15:49.994Z</time></trkpt><trkpt lat="44.37259694877748" lon="9.092714157326633"><ele>44.0</ele><time>2026-04-30T12:15:50.994Z</time></trkpt><trkpt lat="44.37261386020958" lon="9.092538805922482"><ele>42.5</ele><time>2026-04-30T12:15:51.994Z</time></trkpt><trkpt lat="44.372631537908056" lon="9.092368849807071"><ele>41.0</ele><time>2026-04-30T12:15:52.994Z</time></trkpt><trkpt lat="44.37265060830149" lon="9.092187800553331"><ele>39.5</ele><time>2026-04-30T12:15:53.994Z</time></trkpt><trkpt lat="44.372687791687795" lon="9.09201289151976"><ele>38.0</ele><time>2026-04-30T12:15:54.994Z</time></trkpt><trkpt lat="44.3727032805599" lon="9.091845771747142"><ele>38.0</ele><time>2026-04-30T12:15:55.994Z</time></trkpt><trkpt lat="44.37272720979971" lon="9.091691737116616"><ele>38.0</ele><time>2026-04-30T12:15:56.994Z</time></trkpt><trkpt lat="44.37276275193978" lon="9.091515050615625"><ele>38.0</ele><time>2026-04-30T12:15:57.994Z</time></trkpt><trkpt lat="44.37280437271022" lon="9.09132657170828"><ele>38.0</ele><time>2026-04-30T12:15:58.994Z</time></trkpt><trkpt lat="44.372862707135646" lon="9.091163299104798"><ele>37.5</ele><time>2026-04-30T12:15:59.994Z</time></trkpt><trkpt lat="44.372918359410676" lon="9.09100652677968"><ele>37.0</ele><time>2026-04-30T12:16:00.994Z</time></trkpt><trkpt lat="44.3729525695594" lon="9.09083364015411"><ele>36.5</ele><time>2026-04-30T12:16:01.994Z</time></trkpt><trkpt lat="44.37294442288213" lon="9.09066569477236"><ele>36.0</ele><time>2026-04-30T12:16:02.994Z</time></trkpt><trkpt lat="44.37293220258121" lon="9.090496185048037"><ele>33.75</ele><time>2026-04-30T12:16:03.994Z</time></trkpt><trkpt lat="44.372938058351416" lon="9.09032378739731"><ele>31.5</ele><time>2026-04-30T12:16:04.994Z</time></trkpt><trkpt lat="44.37298075675826" lon="9.090147696487449"><ele>29.25</ele><time>2026-04-30T12:16:05.994Z</time></trkpt><trkpt lat="44.373018046943045" lon="9.089987844619829"><ele>27.0</ele><time>2026-04-30T12:16:06.994Z</time></trkpt><trkpt lat="44.37305479516856" lon="9.089819323187076"><ele>31.5</ele><time>2026-04-30T12:16:07.994Z</time></trkpt><trkpt lat="44.37311678633366" lon="9.08963445682716"><ele>36.0</ele><time>2026-04-30T12:16:08.994Z</time></trkpt><trkpt lat="44.37317826017434" lon="9.089466893761175"><ele>40.5</ele><time>2026-04-30T12:16:09.994Z</time></trkpt><trkpt lat="44.37326223449726" lon="9.089303092822151"><ele>45.0</ele><time>2026-04-30T12:16:10.994Z</time></trkpt><trkpt lat="44.37334757343901" lon="9.089165200909555"><ele>43.75</ele><time>2026-04-30T12:16:11.994Z</time></trkpt><trkpt lat="44.37341874008784" lon="9.088993686339004"><ele>42.5</ele><time>2026-04-30T12:16:12.994Z</time></trkpt><trkpt lat="44.373487982327276" lon="9.088836994844964"><ele>41.25</ele><time>2026-04-30T12:16:13.994Z</time></trkpt><trkpt lat="44.37355087656555" lon="9.088681882705808"><ele>40.0</ele><time>2026-04-30T12:16:14.994Z</time></trkpt><trkpt lat="44.37358598667276" lon="9.088500759345273"><ele>40.0</ele><time>2026-04-30T12:16:15.994Z</time></trkpt><trkpt lat="44.373648124580306" lon="9.088365399554249"><ele>40.0</ele><time>2026-04-30T12:16:16.994Z</time></trkpt><trkpt lat="44.373699189443236" lon="9.088224115484"><ele>40.0</ele><time>2026-04-30T12:16:17.994Z</time></trkpt><trkpt lat="44.373724164888806" lon="9.08809748596071"><ele>40.0</ele><time>2026-04-30T12:16:18.994Z</time></trkpt><trkpt lat="44.37368305826795" lon="9.087973969988846"><ele>40.0</ele><time>2026-04-30T12:16:19.994Z</time></trkpt><trkpt lat="44.37360512721646" lon="9.087827892222494"><ele>40.75</ele><time>2026-04-30T12:16:20.994Z</time></trkpt><trkpt lat="44.37348612886179" lon="9.08776054420826"><ele>41.5</ele><time>2026-04-30T12:16:21.994Z</time></trkpt><trkpt lat="44.37337765644541" lon="9.087669716889321"><ele>42.25</ele><time>2026-04-30T12:16:22.994Z</time></trkpt><trkpt lat="44.37329423867182" lon="9.0875501749334"><ele>43.0</ele><time>2026-04-30T12:16:23.994Z</time></trkpt><trkpt lat="44.37319656933205" lon="9.087416661629462"><ele>43.25</ele><time>2026-04-30T12:16:24.994Z</time></trkpt><trkpt lat="44.37315139466551" lon="9.087263565158542"><ele>43.5</ele><time>2026-04-30T12:16:25.994Z</time></trkpt><trkpt lat="44.37316551388447" lon="9.087096087707579"><ele>43.75</ele><time>2026-04-30T12:16:26.994Z</time></trkpt><trkpt lat="44.37317765846821" lon="9.086936603766851"><ele>44.0</ele><time>2026-04-30T12:16:27.993Z</time></trkpt><trkpt lat="44.37324226630137" lon="9.086789628157424"><ele>44.0</ele><time>2026-04-30T12:16:28.993Z</time></trkpt><trkpt lat="44.3733213445455" lon="9.086641394429808"><ele>44.0</ele><time>2026-04-30T12:16:29.993Z</time></trkpt><trkpt lat="44.373401812149424" lon="9.086482787556912"><ele>44.0</ele><time>2026-04-30T12:16:30.993Z</time></trkpt><trkpt lat="44.37349080873502" lon="9.086364578457395"><ele>44.0</ele><time>2026-04-30T12:16:31.993Z</time></trkpt><trkpt lat="44.373548191518786" lon="9.086228474713336"><ele>43.166666666666664</ele><time>2026-04-30T12:16:32.993Z</time></trkpt><trkpt lat="44.37360836816905" lon="9.086116458994555"><ele>42.33333333333333</ele><time>2026-04-30T12:16:33.993Z</time></trkpt><trkpt lat="44.373660422351314" lon="9.086008580514301"><ele>41.5</ele><time>2026-04-30T12:16:34.993Z</time></trkpt><trkpt lat="44.37373339797522" lon="9.085931479291311"><ele>40.666666666666664</ele><time>2026-04-30T12:16:35.993Z</time></trkpt><trkpt lat="44.37376456397187" lon="9.085837008415442"><ele>39.833333333333336</ele><time>2026-04-30T12:16:36.993Z</time></trkpt><trkpt lat="44.37380574093392" lon="9.08575408475713"><ele>39.0</ele><time>2026-04-30T12:16:37.993Z</time></trkpt><trkpt lat="44.37388304682453" lon="9.085628662212427"><ele>39.0</ele><time>2026-04-30T12:16:39.993Z</time></trkpt><trkpt lat="44.3739720707183" lon="9.085519147152645"><ele>39.0</ele><time>2026-04-30T12:16:41.993Z</time></trkpt><trkpt lat="44.37401376760405" lon="9.085436756017858"><ele>39.0</ele><time>2026-04-30T12:17:02.993Z</time></trkpt><trkpt lat="44.374068461439016" lon="9.0853699060618"><ele>39.0</ele><time>2026-04-30T12:17:03.993Z</time></trkpt><trkpt lat="44.37414277062156" lon="9.085306508414735"><ele>39.0</ele><time>2026-04-30T12:17:04.993Z</time></trkpt><trkpt lat="44.37422177702025" lon="9.085241166798951"><ele>39.0</ele><time>2026-04-30T12:17:05.993Z</time></trkpt><trkpt lat="44.37432691090302" lon="9.085192173583046"><ele>39.0</ele><time>2026-04-30T12:17:06.993Z</time></trkpt><trkpt lat="44.37443948893703" lon="9.085137297112984"><ele>39.0</ele><time>2026-04-30T12:17:07.993Z</time></trkpt><trkpt lat="44.3745599277289" lon="9.085143883397192"><ele>39.0</ele><time>2026-04-30T12:17:08.993Z</time></trkpt><trkpt lat="44.37471768328037" lon="9.085143632210125"><ele>39.0</ele><time>2026-04-30T12:17:09.993Z</time></trkpt><trkpt lat="44.374803644306496" lon="9.085034439661586"><ele>39.25</ele><time>2026-04-30T12:17:10.993Z</time></trkpt><trkpt lat="44.374829118397486" lon="9.084898939925608"><ele>39.5</ele><time>2026-04-30T12:17:11.993Z</time></trkpt><trkpt lat="44.37489285301588" lon="9.084753424703472"><ele>39.75</ele><time>2026-04-30T12:17:12.993Z</time></trkpt><trkpt lat="44.3749613539531" lon="9.084622029769536"><ele>40.0</ele><time>2026-04-30T12:17:13.993Z</time></trkpt><trkpt lat="44.3750327350235" lon="9.084496499662903"><ele>40.0</ele><time>2026-04-30T12:17:14.993Z</time></trkpt><trkpt lat="44.375130157188345" lon="9.084391511579142"><ele>40.0</ele><time>2026-04-30T12:17:15.993Z</time></trkpt><trkpt lat="44.37523131366857" lon="9.084261086425165"><ele>40.0</ele><time>2026-04-30T12:17:16.992Z</time></trkpt><trkpt lat="44.375364721159215" lon="9.08413661681581"><ele>40.0</ele><time>2026-04-30T12:17:17.992Z</time></trkpt><trkpt lat="44.37546643278743" lon="9.084031898615256"><ele>43.0</ele><time>2026-04-30T12:17:18.992Z</time></trkpt><trkpt lat="44.37556929499935" lon="9.083904454154606"><ele>46.0</ele><time>2026-04-30T12:17:19.992Z</time></trkpt><trkpt lat="44.37561716123606" lon="9.083742946205565"><ele>49.0</ele><time>2026-04-30T12:17:20.992Z</time></trkpt><trkpt lat="44.37567266875874" lon="9.083570125423847"><ele>52.0</ele><time>2026-04-30T12:17:21.992Z</time></trkpt><trkpt lat="44.375703622187864" lon="9.083345408889752"><ele>45.33333333333333</ele><time>2026-04-30T12:17:22.992Z</time></trkpt><trkpt lat="44.37573899361648" lon="9.083137356661041"><ele>38.666666666666664</ele><time>2026-04-30T12:17:23.992Z</time></trkpt><trkpt lat="44.375787652257785" lon="9.082917525664415"><ele>32.0</ele><time>2026-04-30T12:17:24.992Z</time></trkpt><trkpt lat="44.37584844165657" lon="9.082721182935696"><ele>32.0</ele><time>2026-04-30T12:17:25.992Z</time></trkpt><trkpt lat="44.37590018438923" lon="9.082531952894907"><ele>32.0</ele><time>2026-04-30T12:17:26.992Z</time></trkpt><trkpt lat="44.375940917138706" lon="9.082341966968578"><ele>32.0</ele><time>2026-04-30T12:17:27.992Z</time></trkpt><trkpt lat="44.37603053590212" lon="9.082166440668338"><ele>32.0</ele><time>2026-04-30T12:17:28.992Z</time></trkpt><trkpt lat="44.37609517345254" lon="9.081971113226707"><ele>29.75</ele><time>2026-04-30T12:17:29.992Z</time></trkpt><trkpt lat="44.37617165611506" lon="9.081787786174948"><ele>27.5</ele><time>2026-04-30T12:17:30.992Z</time></trkpt><trkpt lat="44.37620470569026" lon="9.081586083847762"><ele>25.25</ele><time>2026-04-30T12:17:31.992Z</time></trkpt><trkpt lat="44.37624779195378" lon="9.081386633917628"><ele>23.0</ele><time>2026-04-30T12:17:32.992Z</time></trkpt><trkpt lat="44.3763245409892" lon="9.08125682426976"><ele>28.5</ele><time>2026-04-30T12:17:33.992Z</time></trkpt><trkpt lat="44.37641564825147" lon="9.081197849806559"><ele>34.0</ele><time>2026-04-30T12:17:34.992Z</time></trkpt><trkpt lat="44.37652912947216" lon="9.081090424697555"><ele>39.5</ele><time>2026-04-30T12:17:35.992Z</time></trkpt><trkpt lat="44.37663904110068" lon="9.080964689476632"><ele>45.0</ele><time>2026-04-30T12:17:36.992Z</time></trkpt><trkpt lat="44.3767355789984" lon="9.080824726104876"><ele>41.666666666666664</ele><time>2026-04-30T12:17:37.992Z</time></trkpt><trkpt lat="44.37678816750265" lon="9.080612143882668"><ele>38.33333333333333</ele><time>2026-04-30T12:17:38.992Z</time></trkpt><trkpt lat="44.3768815655832" lon="9.080457519504229"><ele>35.0</ele><time>2026-04-30T12:17:39.992Z</time></trkpt><trkpt lat="44.37697018935149" lon="9.080297847997368"><ele>35.0</ele><time>2026-04-30T12:17:40.992Z</time></trkpt><trkpt lat="44.377045480603044" lon="9.080134324766165"><ele>35.0</ele><time>2026-04-30T12:17:41.992Z</time></trkpt><trkpt lat="44.377144960631846" lon="9.080001931986818"><ele>35.0</ele><time>2026-04-30T12:17:42.992Z</time></trkpt><trkpt lat="44.37721786766966" lon="9.079845121202423"><ele>35.0</ele><time>2026-04-30T12:17:43.992Z</time></trkpt><trkpt lat="44.37729124455114" lon="9.079707889110637"><ele>38.2</ele><time>2026-04-30T12:17:44.992Z</time></trkpt><trkpt lat="44.377346620255885" lon="9.079566132091328"><ele>41.4</ele><time>2026-04-30T12:17:45.992Z</time></trkpt><trkpt lat="44.37737809801183" lon="9.079415083261033"><ele>44.599999999999994</ele><time>2026-04-30T12:17:46.992Z</time></trkpt><trkpt lat="44.377382047791166" lon="9.079263256370172"><ele>47.8</ele><time>2026-04-30T12:17:47.992Z</time></trkpt><trkpt lat="44.37738882540898" lon="9.079118527847948"><ele>51.0</ele><time>2026-04-30T12:17:48.992Z</time></trkpt><trkpt lat="44.37739246205443" lon="9.078983152683282"><ele>51.0</ele><time>2026-04-30T12:17:49.992Z</time></trkpt><trkpt lat="44.377393068559904" lon="9.078854046129278"><ele>51.0</ele><time>2026-04-30T12:17:50.992Z</time></trkpt><trkpt lat="44.377396459270024" lon="9.078734229494136"><ele>51.0</ele><time>2026-04-30T12:17:51.992Z</time></trkpt><trkpt lat="44.37739968713378" lon="9.078625870963641"><ele>51.0</ele><time>2026-04-30T12:17:52.992Z</time></trkpt><trkpt lat="44.37740254860134" lon="9.07852693654617"><ele>51.0</ele><time>2026-04-30T12:17:53.992Z</time></trkpt><trkpt lat="44.377410228478844" lon="9.078358085197097"><ele>51.0</ele><time>2026-04-30T12:17:55.992Z</time></trkpt><trkpt lat="44.37741835023488" lon="9.078212359206296"><ele>49.5</ele><time>2026-04-30T12:17:57.992Z</time></trkpt><trkpt lat="44.37734654705288" lon="9.078142601525208"><ele>48.0</ele><time>2026-04-30T12:17:58.992Z</time></trkpt><trkpt lat="44.37734944922402" lon="9.078041818911244"><ele>46.5</ele><time>2026-04-30T12:18:00.992Z</time></trkpt><trkpt lat="44.37738487773321" lon="9.07792679808348"><ele>45.0</ele><time>2026-04-30T12:18:10Z</time></trkpt><trkpt lat="44.37741538673632" lon="9.077770098432689"><ele>43.5</ele><time>2026-04-30T12:18:12Z</time></trkpt><trkpt lat="44.377437632507814" lon="9.077668804348074"><ele>42.0</ele><time>2026-04-30T12:18:13Z</time></trkpt><trkpt lat="44.3774642357136" lon="9.077555443895479"><ele>40.6</ele><time>2026-04-30T12:18:14Z</time></trkpt><trkpt lat="44.37749366659681" lon="9.077428162636421"><ele>39.2</ele><time>2026-04-30T12:18:15Z</time></trkpt><trkpt lat="44.37752452881666" lon="9.07729153787708"><ele>37.8</ele><time>2026-04-30T12:18:16Z</time></trkpt><trkpt lat="44.37755722671976" lon="9.077139892593609"><ele>36.4</ele><time>2026-04-30T12:18:17Z</time></trkpt><trkpt lat="44.37759438785655" lon="9.076967621772758"><ele>35.0</ele><time>2026-04-30T12:18:18Z</time></trkpt><trkpt lat="44.37763202160591" lon="9.07679324374655"><ele>35.0</ele><time>2026-04-30T12:18:19Z</time></trkpt><trkpt lat="44.37766984208572" lon="9.076617933385828"><ele>35.0</ele><time>2026-04-30T12:18:20Z</time></trkpt><trkpt lat="44.3777065344145" lon="9.076447885724836"><ele>35.0</ele><time>2026-04-30T12:18:21Z</time></trkpt><trkpt lat="44.37774344449135" lon="9.076280666504648"><ele>35.0</ele><time>2026-04-30T12:18:22Z</time></trkpt><trkpt lat="44.37777988142884" lon="9.07611304982393"><ele>35.5</ele><time>2026-04-30T12:18:23Z</time></trkpt><trkpt lat="44.377815914579664" lon="9.075947403902935"><ele>36.0</ele><time>2026-04-30T12:18:24Z</time></trkpt><trkpt lat="44.377852397572994" lon="9.07577969003859"><ele>36.5</ele><time>2026-04-30T12:18:25Z</time></trkpt><trkpt lat="44.37788929700829" lon="9.07561006122795"><ele>37.0</ele><time>2026-04-30T12:18:26Z</time></trkpt><trkpt lat="44.37789199898885" lon="9.07542584856029"><ele>36.0</ele><time>2026-04-30T12:18:27Z</time></trkpt><trkpt lat="44.3779320385426" lon="9.075251104149775"><ele>35.0</ele><time>2026-04-30T12:18:28Z</time></trkpt><trkpt lat="44.377969381391004" lon="9.075073293427238"><ele>34.0</ele><time>2026-04-30T12:18:29Z</time></trkpt><trkpt lat="44.37800736195047" lon="9.07489503252423"><ele>33.0</ele><time>2026-04-30T12:18:30Z</time></trkpt><trkpt lat="44.378046948805256" lon="9.074714388146791"><ele>35.0</ele><time>2026-04-30T12:18:31Z</time></trkpt><trkpt lat="44.378084241020105" lon="9.074531240192448"><ele>37.0</ele><time>2026-04-30T12:18:32Z</time></trkpt><trkpt lat="44.378158099486875" lon="9.074361695328776"><ele>39.0</ele><time>2026-04-30T12:18:32.999Z</time></trkpt><trkpt lat="44.378197437429165" lon="9.074175590560687"><ele>41.0</ele><time>2026-04-30T12:18:33.999Z</time></trkpt><trkpt lat="44.37823711589723" lon="9.073988594181422"><ele>41.0</ele><time>2026-04-30T12:18:34.999Z</time></trkpt><trkpt lat="44.37827653386535" lon="9.073802264789023"><ele>41.0</ele><time>2026-04-30T12:18:35.999Z</time></trkpt><trkpt lat="44.378316416759944" lon="9.073613671547433"><ele>41.0</ele><time>2026-04-30T12:18:36.999Z</time></trkpt><trkpt lat="44.37835745423384" lon="9.07342421237321"><ele>41.0</ele><time>2026-04-30T12:18:37.999Z</time></trkpt><trkpt lat="44.37839805221855" lon="9.073236842084915"><ele>40.0</ele><time>2026-04-30T12:18:38.999Z</time></trkpt><trkpt lat="44.37843805991668" lon="9.073052196139946"><ele>39.0</ele><time>2026-04-30T12:18:39.999Z</time></trkpt><trkpt lat="44.37847769847457" lon="9.072868468445062"><ele>38.0</ele><time>2026-04-30T12:18:40.999Z</time></trkpt><trkpt lat="44.37851593466915" lon="9.072677736980221"><ele>37.0</ele><time>2026-04-30T12:18:41.999Z</time></trkpt><trkpt lat="44.37854340608525" lon="9.07248077090624"><ele>36.5</ele><time>2026-04-30T12:18:42.999Z</time></trkpt><trkpt lat="44.37855099906272" lon="9.072287471020417"><ele>36.0</ele><time>2026-04-30T12:18:43.999Z</time></trkpt><trkpt lat="44.37856746390434" lon="9.072090005468448"><ele>35.5</ele><time>2026-04-30T12:18:44.999Z</time></trkpt><trkpt lat="44.3785445985208" lon="9.071890016811075"><ele>35.0</ele><time>2026-04-30T12:18:45.999Z</time></trkpt><trkpt lat="44.37855931084564" lon="9.071690805519744"><ele>33.5</ele><time>2026-04-30T12:18:46.999Z</time></trkpt><trkpt lat="44.378567650444765" lon="9.07149754884447"><ele>32.0</ele><time>2026-04-30T12:18:47.999Z</time></trkpt><trkpt lat="44.37859077472234" lon="9.071303554999428"><ele>30.5</ele><time>2026-04-30T12:18:48.999Z</time></trkpt><trkpt lat="44.378630214172595" lon="9.071115140387214"><ele>29.0</ele><time>2026-04-30T12:18:49.999Z</time></trkpt><trkpt lat="44.37865522900332" lon="9.07092311998639"><ele>31.0</ele><time>2026-04-30T12:18:50.999Z</time></trkpt><trkpt lat="44.378708432561034" lon="9.070751066947354"><ele>33.0</ele><time>2026-04-30T12:18:51.999Z</time></trkpt><trkpt lat="44.378767865030625" lon="9.070585514738465"><ele>35.0</ele><time>2026-04-30T12:18:52.999Z</time></trkpt><trkpt lat="44.37884111307573" lon="9.070430571124902"><ele>37.0</ele><time>2026-04-30T12:18:53.999Z</time></trkpt><trkpt lat="44.378983843521176" lon="9.070364388088208"><ele>37.0</ele><time>2026-04-30T12:18:54.999Z</time></trkpt><trkpt lat="44.3790827678456" lon="9.07023867571802"><ele>37.0</ele><time>2026-04-30T12:18:55.999Z</time></trkpt><trkpt lat="44.37918491103772" lon="9.070112989745398"><ele>37.0</ele><time>2026-04-30T12:18:56.999Z</time></trkpt><trkpt lat="44.379287809726286" lon="9.069985801847684"><ele>37.0</ele><time>2026-04-30T12:18:57.999Z</time></trkpt><trkpt lat="44.379340859848405" lon="9.069777896294443"><ele>35.5</ele><time>2026-04-30T12:18:58.999Z</time></trkpt><trkpt lat="44.3794334644486" lon="9.069642412335883"><ele>34.0</ele><time>2026-04-30T12:18:59.999Z</time></trkpt><trkpt lat="44.37951438851487" lon="9.069497861914671"><ele>32.5</ele><time>2026-04-30T12:19:00.999Z</time></trkpt><trkpt lat="44.37959951612227" lon="9.069356304284582"><ele>31.0</ele><time>2026-04-30T12:19:01.999Z</time></trkpt><trkpt lat="44.379740313428265" lon="9.069291422041468"><ele>31.0</ele><time>2026-04-30T12:19:02.999Z</time></trkpt><trkpt lat="44.37983098590382" lon="9.06917475900867"><ele>31.0</ele><time>2026-04-30T12:19:03.999Z</time></trkpt><trkpt lat="44.3799411825333" lon="9.06906966084739"><ele>31.0</ele><time>2026-04-30T12:19:04.999Z</time></trkpt><trkpt lat="44.38005779823453" lon="9.068961509287572"><ele>31.0</ele><time>2026-04-30T12:19:05.999Z</time></trkpt><trkpt lat="44.38018520348299" lon="9.06882623966946"><ele>30.666666666666668</ele><time>2026-04-30T12:19:06.999Z</time></trkpt><trkpt lat="44.38027788016279" lon="9.068660477319419"><ele>30.333333333333336</ele><time>2026-04-30T12:19:07.999Z</time></trkpt><trkpt lat="44.38034998210608" lon="9.068475180110612"><ele>30.0</ele><time>2026-04-30T12:19:08.999Z</time></trkpt><trkpt lat="44.38039236623342" lon="9.068273721707124"><ele>30.0</ele><time>2026-04-30T12:19:09.999Z</time></trkpt><trkpt lat="44.38040511300694" lon="9.068078087604786"><ele>30.0</ele><time>2026-04-30T12:19:10.999Z</time></trkpt><trkpt lat="44.380391170889034" lon="9.067891604306899"><ele>30.0</ele><time>2026-04-30T12:19:11.999Z</time></trkpt><trkpt lat="44.38036142943748" lon="9.067714742046045"><ele>30.0</ele><time>2026-04-30T12:19:12.999Z</time></trkpt><trkpt lat="44.380313988272775" lon="9.067562143660357"><ele>30.75</ele><time>2026-04-30T12:19:13.999Z</time></trkpt><trkpt lat="44.380253462676286" lon="9.067438537626309"><ele>31.5</ele><time>2026-04-30T12:19:14.999Z</time></trkpt><trkpt lat="44.38018920660338" lon="9.06732944272299"><ele>32.25</ele><time>2026-04-30T12:19:15.998Z</time></trkpt><trkpt lat="44.380120847011355" lon="9.067220376087045"><ele>33.0</ele><time>2026-04-30T12:19:16.998Z</time></trkpt><trkpt lat="44.37959698432564" lon="9.06638870575452"><ele>33.0</ele><time>2026-04-30T12:19:24.998Z</time></trkpt><trkpt lat="44.37954026559939" lon="9.066279207925836"><ele>33.0</ele><time>2026-04-30T12:19:25.998Z</time></trkpt><trkpt lat="44.37947046860856" lon="9.066160970036371"><ele>33.0</ele><time>2026-04-30T12:19:26.998Z</time></trkpt><trkpt lat="44.37942074919619" lon="9.066019507543482"><ele>33.0</ele><time>2026-04-30T12:19:27.998Z</time></trkpt><trkpt lat="44.37937293948511" lon="9.065869095070255"><ele>33.0</ele><time>2026-04-30T12:19:28.998Z</time></trkpt><trkpt lat="44.3793628252504" lon="9.065680789069622"><ele>32.833333333333336</ele><time>2026-04-30T12:19:29.998Z</time></trkpt><trkpt lat="44.37931817639969" lon="9.065535643559684"><ele>32.666666666666664</ele><time>2026-04-30T12:19:30.998Z</time></trkpt><trkpt lat="44.37930411569878" lon="9.065406589717337"><ele>32.5</ele><time>2026-04-30T12:19:31.998Z</time></trkpt><trkpt lat="44.37928817411269" lon="9.065310558791841"><ele>32.33333333333333</ele><time>2026-04-30T12:19:32.998Z</time></trkpt><trkpt lat="44.37929457798142" lon="9.065197768185172"><ele>32.166666666666664</ele><time>2026-04-30T12:19:34.999Z</time></trkpt><trkpt lat="44.3793320606166" lon="9.065125165477987"><ele>32.0</ele><time>2026-04-30T12:19:36.999Z</time></trkpt><trkpt lat="44.37935364279647" lon="9.065004301907843"><ele>31.999999999999996</ele><time>2026-04-30T12:20:12.998Z</time></trkpt><trkpt lat="44.37934161034619" lon="9.064897687894364"><ele>32.0</ele><time>2026-04-30T12:20:13.998Z</time></trkpt><trkpt lat="44.379333506752985" lon="9.064787498629574"><ele>32.0</ele><time>2026-04-30T12:20:14.998Z</time></trkpt><trkpt lat="44.37932831354916" lon="9.06467768038777"><ele>32.0</ele><time>2026-04-30T12:20:15.998Z</time></trkpt><trkpt lat="44.379342617856096" lon="9.064568350591307"><ele>31.999999999999996</ele><time>2026-04-30T12:20:16.998Z</time></trkpt><trkpt lat="44.37934943017524" lon="9.064432996942118"><ele>32.0</ele><time>2026-04-30T12:20:17.998Z</time></trkpt><trkpt lat="44.37937391590568" lon="9.064275545943481"><ele>31.75</ele><time>2026-04-30T12:20:18.998Z</time></trkpt><trkpt lat="44.379416748431254" lon="9.064107446786926"><ele>31.5</ele><time>2026-04-30T12:20:19.998Z</time></trkpt><trkpt lat="44.37946576006895" lon="9.063941619774512"><ele>31.25</ele><time>2026-04-30T12:20:20.998Z</time></trkpt><trkpt lat="44.37950809087515" lon="9.063766373860412"><ele>31.0</ele><time>2026-04-30T12:20:21.998Z</time></trkpt><trkpt lat="44.37954758089491" lon="9.063574072924146"><ele>31.0</ele><time>2026-04-30T12:20:22.998Z</time></trkpt><trkpt lat="44.37957811685764" lon="9.06337192836902"><ele>31.0</ele><time>2026-04-30T12:20:23.998Z</time></trkpt><trkpt lat="44.37960718856363" lon="9.063174665288484"><ele>31.0</ele><time>2026-04-30T12:20:24.998Z</time></trkpt><trkpt lat="44.3796234221635" lon="9.062975483220095"><ele>31.0</ele><time>2026-04-30T12:20:25.998Z</time></trkpt><trkpt lat="44.37972415105465" lon="9.062800496374795"><ele>33.25</ele><time>2026-04-30T12:20:26.998Z</time></trkpt><trkpt lat="44.379757678135164" lon="9.06261960081755"><ele>35.5</ele><time>2026-04-30T12:20:27.998Z</time></trkpt><trkpt lat="44.37979393745114" lon="9.062447990663268"><ele>37.75</ele><time>2026-04-30T12:20:28.998Z</time></trkpt><trkpt lat="44.379835560738435" lon="9.062277097272807"><ele>40.0</ele><time>2026-04-30T12:20:29.998Z</time></trkpt><trkpt lat="44.379873249376296" lon="9.06212010537417"><ele>40.0</ele><time>2026-04-30T12:20:30.998Z</time></trkpt><trkpt lat="44.379944473453925" lon="9.061968704863268"><ele>40.0</ele><time>2026-04-30T12:20:31.998Z</time></trkpt><trkpt lat="44.380020382011686" lon="9.061802397951269"><ele>40.0</ele><time>2026-04-30T12:20:32.998Z</time></trkpt><trkpt lat="44.38007021959921" lon="9.061610279715259"><ele>40.0</ele><time>2026-04-30T12:20:33.998Z</time></trkpt><trkpt lat="44.38009751859955" lon="9.061405697664053"><ele>39.25</ele><time>2026-04-30T12:20:34.998Z</time></trkpt><trkpt lat="44.38011133828552" lon="9.06121551116224"><ele>38.5</ele><time>2026-04-30T12:20:35.998Z</time></trkpt><trkpt lat="44.38015244799143" lon="9.061063013506905"><ele>37.75</ele><time>2026-04-30T12:20:36.998Z</time></trkpt><trkpt lat="44.380182863961984" lon="9.06089244322888"><ele>37.0</ele><time>2026-04-30T12:20:37.998Z</time></trkpt><trkpt lat="44.38021555793013" lon="9.060717295337177"><ele>37.0</ele><time>2026-04-30T12:20:38.998Z</time></trkpt><trkpt lat="44.38025714031511" lon="9.060495800563285"><ele>37.0</ele><time>2026-04-30T12:20:39.998Z</time></trkpt><trkpt lat="44.38027626882283" lon="9.060283227255585"><ele>37.0</ele><time>2026-04-30T12:20:40.998Z</time></trkpt><trkpt lat="44.38027597014727" lon="9.060095303910561"><ele>35.75</ele><time>2026-04-30T12:20:41.998Z</time></trkpt><trkpt lat="44.38026823428645" lon="9.059907493025824"><ele>34.5</ele><time>2026-04-30T12:20:42.998Z</time></trkpt><trkpt lat="44.38027517018871" lon="9.059736619737247"><ele>33.25</ele><time>2026-04-30T12:20:43.998Z</time></trkpt><trkpt lat="44.380286399468304" lon="9.05957415275665"><ele>32.0</ele><time>2026-04-30T12:20:44.998Z</time></trkpt><trkpt lat="44.38028918180551" lon="9.059415798597172"><ele>32.0</ele><time>2026-04-30T12:20:45.998Z</time></trkpt><trkpt lat="44.38030058824002" lon="9.059274987367242"><ele>32.0</ele><time>2026-04-30T12:20:46.998Z</time></trkpt><trkpt lat="44.38032181061994" lon="9.059133547405091"><ele>32.0</ele><time>2026-04-30T12:20:47.998Z</time></trkpt><trkpt lat="44.38035863779508" lon="9.058956741138427"><ele>32.0</ele><time>2026-04-30T12:20:48.998Z</time></trkpt><trkpt lat="44.38040471832252" lon="9.058749133977168"><ele>24.5</ele><time>2026-04-30T12:20:49.998Z</time></trkpt><trkpt lat="44.380457746899154" lon="9.058505938156326"><ele>17.0</ele><time>2026-04-30T12:20:50.997Z</time></trkpt><trkpt lat="44.380519852376224" lon="9.05804959475176"><ele>25.0</ele><time>2026-04-30T12:20:51.997Z</time></trkpt><trkpt lat="44.38052032968478" lon="9.057793989541796"><ele>33.0</ele><time>2026-04-30T12:20:52.997Z</time></trkpt><trkpt lat="44.38051996496792" lon="9.057562795442724"><ele>41.0</ele><time>2026-04-30T12:20:53.997Z</time></trkpt><trkpt lat="44.38051951597323" lon="9.057299833780686"><ele>41.0</ele><time>2026-04-30T12:20:54.997Z</time></trkpt><trkpt lat="44.38051896676897" lon="9.057051600422795"><ele>41.0</ele><time>2026-04-30T12:20:55.997Z</time></trkpt><trkpt lat="44.38051783551615" lon="9.056816822629736"><ele>41.0</ele><time>2026-04-30T12:20:56.997Z</time></trkpt><trkpt lat="44.38052782326283" lon="9.056643998694605"><ele>39.0</ele><time>2026-04-30T12:20:57.997Z</time></trkpt><trkpt lat="44.38057035021154" lon="9.056497634367759"><ele>37.0</ele><time>2026-04-30T12:20:58.997Z</time></trkpt><trkpt lat="44.38063851297931" lon="9.056316006797307"><ele>35.0</ele><time>2026-04-30T12:20:59.997Z</time></trkpt><trkpt lat="44.380703096771306" lon="9.056195931835976"><ele>33.0</ele><time>2026-04-30T12:21:00.997Z</time></trkpt><trkpt lat="44.380767543627215" lon="9.056147419323045"><ele>31.0</ele><time>2026-04-30T12:21:01.997Z</time></trkpt><trkpt lat="44.380866819782355" lon="9.056095968189972"><ele>31.0</ele><time>2026-04-30T12:21:02.997Z</time></trkpt><trkpt lat="44.381016926522804" lon="9.055982232720432"><ele>31.0</ele><time>2026-04-30T12:21:03.997Z</time></trkpt><trkpt lat="44.38110617304989" lon="9.05582042811778"><ele>31.0</ele><time>2026-04-30T12:21:04.997Z</time></trkpt><trkpt lat="44.38120646417916" lon="9.055669051780605"><ele>32.0</ele><time>2026-04-30T12:21:05.997Z</time></trkpt><trkpt lat="44.38121919008548" lon="9.055482723704413"><ele>33.0</ele><time>2026-04-30T12:21:06.997Z</time></trkpt><trkpt lat="44.38119303629309" lon="9.055323007096435"><ele>34.0</ele><time>2026-04-30T12:21:07.997Z</time></trkpt><trkpt lat="44.38111304306325" lon="9.055193776107457"><ele>35.0</ele><time>2026-04-30T12:21:08.997Z</time></trkpt><trkpt lat="44.381023531993" lon="9.055077611157522"><ele>35.75</ele><time>2026-04-30T12:21:09.997Z</time></trkpt><trkpt lat="44.380941606324484" lon="9.054948758176401"><ele>36.5</ele><time>2026-04-30T12:21:10.997Z</time></trkpt><trkpt lat="44.3809001190978" lon="9.054773054534248"><ele>37.25</ele><time>2026-04-30T12:21:11.997Z</time></trkpt><trkpt lat="44.3808789685874" lon="9.054612199427405"><ele>38.0</ele><time>2026-04-30T12:21:12.997Z</time></trkpt><trkpt lat="44.380882955177505" lon="9.054456443328132"><ele>38.0</ele><time>2026-04-30T12:21:13.997Z</time></trkpt><trkpt lat="44.38090799471749" lon="9.054307040107341"><ele>38.0</ele><time>2026-04-30T12:21:14.997Z</time></trkpt><trkpt lat="44.38096776954535" lon="9.0541350937557"><ele>38.0</ele><time>2026-04-30T12:21:15.997Z</time></trkpt><trkpt lat="44.381046685330666" lon="9.05399697391814"><ele>38.0</ele><time>2026-04-30T12:21:16.997Z</time></trkpt><trkpt lat="44.38114390041723" lon="9.053887553209396"><ele>39.0</ele><time>2026-04-30T12:21:17.997Z</time></trkpt><trkpt lat="44.381270569287345" lon="9.053813973409422"><ele>40.0</ele><time>2026-04-30T12:21:18.997Z</time></trkpt><trkpt lat="44.38142107486348" lon="9.0537842740244"><ele>41.0</ele><time>2026-04-30T12:21:19.997Z</time></trkpt><trkpt lat="44.381568763885866" lon="9.053766372110996"><ele>42.0</ele><time>2026-04-30T12:21:20.997Z</time></trkpt><trkpt lat="44.38170346143071" lon="9.053729215927236"><ele>42.0</ele><time>2026-04-30T12:21:21.997Z</time></trkpt><trkpt lat="44.38182052034225" lon="9.053649051845596"><ele>42.0</ele><time>2026-04-30T12:21:22.997Z</time></trkpt><trkpt lat="44.3819274708947" lon="9.053564809689068"><ele>42.0</ele><time>2026-04-30T12:21:23.997Z</time></trkpt><trkpt lat="44.3820135314742" lon="9.053444471957869"><ele>42.0</ele><time>2026-04-30T12:21:24.997Z</time></trkpt><trkpt lat="44.38209442435758" lon="9.053321400589248"><ele>41.5</ele><time>2026-04-30T12:21:25.997Z</time></trkpt><trkpt lat="44.38216185981684" lon="9.053175812039566"><ele>41.0</ele><time>2026-04-30T12:21:26.997Z</time></trkpt><trkpt lat="44.382237811710986" lon="9.053025486885666"><ele>40.5</ele><time>2026-04-30T12:21:27.997Z</time></trkpt><trkpt lat="44.38230130969046" lon="9.052859925315216"><ele>40.0</ele><time>2026-04-30T12:21:28.997Z</time></trkpt><trkpt lat="44.38236730585288" lon="9.05270000776982"><ele>42.5</ele><time>2026-04-30T12:21:29.997Z</time></trkpt><trkpt lat="44.38243376052975" lon="9.052541182132055"><ele>45.0</ele><time>2026-04-30T12:21:30.997Z</time></trkpt><trkpt lat="44.38250466620966" lon="9.0523675914725"><ele>47.5</ele><time>2026-04-30T12:21:31.997Z</time></trkpt><trkpt lat="44.38255583505865" lon="9.052211327048097"><ele>50.0</ele><time>2026-04-30T12:21:32.997Z</time></trkpt><trkpt lat="44.38261479685367" lon="9.052056359103211"><ele>50.0</ele><time>2026-04-30T12:21:33.997Z</time></trkpt><trkpt lat="44.38268400003588" lon="9.051888401241902"><ele>50.0</ele><time>2026-04-30T12:21:34.997Z</time></trkpt><trkpt lat="44.38276151033085" lon="9.051744974359249"><ele>50.0</ele><time>2026-04-30T12:21:35.997Z</time></trkpt><trkpt lat="44.38281289016816" lon="9.051580532697237"><ele>50.0</ele><time>2026-04-30T12:21:36.997Z</time></trkpt><trkpt lat="44.382889041783365" lon="9.051443111331452"><ele>49.75</ele><time>2026-04-30T12:21:37.997Z</time></trkpt><trkpt lat="44.38297604340133" lon="9.051298921851156"><ele>49.5</ele><time>2026-04-30T12:21:38.996Z</time></trkpt><trkpt lat="44.38300936742906" lon="9.051138050900033"><ele>49.25</ele><time>2026-04-30T12:21:39.996Z</time></trkpt><trkpt lat="44.38307718765478" lon="9.050989107805927"><ele>49.0</ele><time>2026-04-30T12:21:40.996Z</time></trkpt><trkpt lat="44.38311315572686" lon="9.050836597370568"><ele>54.25</ele><time>2026-04-30T12:21:41.996Z</time></trkpt><trkpt lat="44.383169941266615" lon="9.050695030344487"><ele>59.5</ele><time>2026-04-30T12:21:42.996Z</time></trkpt><trkpt lat="44.383213611982896" lon="9.050521284062144"><ele>64.75</ele><time>2026-04-30T12:21:43.996Z</time></trkpt><trkpt lat="44.3832654869293" lon="9.050348581816934"><ele>70.0</ele><time>2026-04-30T12:21:44.996Z</time></trkpt><trkpt lat="44.38331596505518" lon="9.05017202137725"><ele>70.0</ele><time>2026-04-30T12:21:45.996Z</time></trkpt><trkpt lat="44.383329359335114" lon="9.050005732873025"><ele>70.0</ele><time>2026-04-30T12:21:46.996Z</time></trkpt><trkpt lat="44.38330584477724" lon="9.049867229635263"><ele>70.0</ele><time>2026-04-30T12:21:47.996Z</time></trkpt><trkpt lat="44.383281213743" lon="9.049719453967711"><ele>70.0</ele><time>2026-04-30T12:21:48.996Z</time></trkpt><trkpt lat="44.3831942286283" lon="9.049580795310131"><ele>70.4</ele><time>2026-04-30T12:21:49.996Z</time></trkpt><trkpt lat="44.383178648659104" lon="9.049424294876662"><ele>70.8</ele><time>2026-04-30T12:21:50.996Z</time></trkpt><trkpt lat="44.383175581541835" lon="9.049263230461216"><ele>71.2</ele><time>2026-04-30T12:21:51.996Z</time></trkpt><trkpt lat="44.38318549793472" lon="9.04911718257558"><ele>71.6</ele><time>2026-04-30T12:21:52.996Z</time></trkpt><trkpt lat="44.383205474342496" lon="9.048980624444864"><ele>72.0</ele><time>2026-04-30T12:21:53.996Z</time></trkpt><trkpt lat="44.38323769908568" lon="9.048838685732505"><ele>72.0</ele><time>2026-04-30T12:21:54.996Z</time></trkpt><trkpt lat="44.383278695583705" lon="9.048686342740293"><ele>72.0</ele><time>2026-04-30T12:21:55.996Z</time></trkpt><trkpt lat="44.3833187085219" lon="9.048539584632204"><ele>72.0</ele><time>2026-04-30T12:21:56.996Z</time></trkpt><trkpt lat="44.38335658507336" lon="9.048400662289328"><ele>72.0</ele><time>2026-04-30T12:21:57.996Z</time></trkpt><trkpt lat="44.383396945338795" lon="9.048252630262281"><ele>72.0</ele><time>2026-04-30T12:21:58.996Z</time></trkpt><trkpt lat="44.38343007847726" lon="9.048131105641763"><ele>72.0</ele><time>2026-04-30T12:21:59.996Z</time></trkpt><trkpt lat="44.383463867465615" lon="9.048007175519736"><ele>72.0</ele><time>2026-04-30T12:22:00.996Z</time></trkpt><trkpt lat="44.383499046145154" lon="9.047878148344754"><ele>72.0</ele><time>2026-04-30T12:22:01.996Z</time></trkpt><trkpt lat="44.38353381214584" lon="9.04775063476555"><ele>72.0</ele><time>2026-04-30T12:22:02.996Z</time></trkpt><trkpt lat="44.3835673874987" lon="9.047594040915216"><ele>72.0</ele><time>2026-04-30T12:22:03.996Z</time></trkpt><trkpt lat="44.38360080420467" lon="9.047456258225312"><ele>71.5</ele><time>2026-04-30T12:22:04.996Z</time></trkpt><trkpt lat="44.383617040757095" lon="9.04731151014161"><ele>71.0</ele><time>2026-04-30T12:22:05.996Z</time></trkpt><trkpt lat="44.383650495893065" lon="9.047205424364122"><ele>70.5</ele><time>2026-04-30T12:22:06.996Z</time></trkpt><trkpt lat="44.383656875791175" lon="9.047080147606628"><ele>70.0</ele><time>2026-04-30T12:22:07.996Z</time></trkpt><trkpt lat="44.38368638647168" lon="9.04697583101451"><ele>69.5</ele><time>2026-04-30T12:22:08.996Z</time></trkpt><trkpt lat="44.383691784622904" lon="9.046866345564997"><ele>69.0</ele><time>2026-04-30T12:22:09.996Z</time></trkpt><trkpt lat="44.38371576200614" lon="9.046757648340854"><ele>69.0</ele><time>2026-04-30T12:22:10.996Z</time></trkpt><trkpt lat="44.38371472940896" lon="9.046650190842287"><ele>69.0</ele><time>2026-04-30T12:22:11.996Z</time></trkpt><trkpt lat="44.383744945134346" lon="9.046537143420329"><ele>69.0</ele><time>2026-04-30T12:22:12.996Z</time></trkpt><trkpt lat="44.38375857372348" lon="9.046434167100054"><ele>69.0</ele><time>2026-04-30T12:22:13.996Z</time></trkpt><trkpt lat="44.38376493762132" lon="9.046341398962367"><ele>69.0</ele><time>2026-04-30T12:22:14.996Z</time></trkpt><trkpt lat="44.383783480109344" lon="9.046253369065095"><ele>69.0</ele><time>2026-04-30T12:22:15.996Z</time></trkpt><trkpt lat="44.38379205190207" lon="9.046162696713504"><ele>69.0</ele><time>2026-04-30T12:22:16.996Z</time></trkpt><trkpt lat="44.383818556436474" lon="9.045960969450684"><ele>69.2</ele><time>2026-04-30T12:22:18.996Z</time></trkpt><trkpt lat="44.38384619049348" lon="9.04582836640949"><ele>69.4</ele><time>2026-04-30T12:22:19.996Z</time></trkpt><trkpt lat="44.383890403396286" lon="9.045695976966472"><ele>69.6</ele><time>2026-04-30T12:22:20.996Z</time></trkpt><trkpt lat="44.383930457820945" lon="9.045580829190692"><ele>69.8</ele><time>2026-04-30T12:22:21.996Z</time></trkpt><trkpt lat="44.383977761011074" lon="9.045457429129476"><ele>70.0</ele><time>2026-04-30T12:22:22.996Z</time></trkpt><trkpt lat="44.3840322358332" lon="9.045322059601446"><ele>70.0</ele><time>2026-04-30T12:22:23.996Z</time></trkpt><trkpt lat="44.38409788824691" lon="9.045161113744257"><ele>70.0</ele><time>2026-04-30T12:22:24.996Z</time></trkpt><trkpt lat="44.38415822582956" lon="9.045009172015504"><ele>70.0</ele><time>2026-04-30T12:22:25.996Z</time></trkpt><trkpt lat="44.38421935411495" lon="9.044853970368296"><ele>70.0</ele><time>2026-04-30T12:22:26.995Z</time></trkpt><trkpt lat="44.384282722207836" lon="9.044689061152782"><ele>67.5</ele><time>2026-04-30T12:22:27.995Z</time></trkpt><trkpt lat="44.38434383792199" lon="9.044529122123734"><ele>65.0</ele><time>2026-04-30T12:22:28.995Z</time></trkpt><trkpt lat="44.38439531217522" lon="9.044394414668734"><ele>62.5</ele><time>2026-04-30T12:22:29.995Z</time></trkpt><trkpt lat="44.384442549280166" lon="9.04425491694633"><ele>60.0</ele><time>2026-04-30T12:22:30.995Z</time></trkpt><trkpt lat="44.38449004157518" lon="9.044112152255503"><ele>58.0</ele><time>2026-04-30T12:22:31.995Z</time></trkpt><trkpt lat="44.384533068530466" lon="9.043992809518999"><ele>56.0</ele><time>2026-04-30T12:22:32.995Z</time></trkpt><trkpt lat="44.38463103183265" lon="9.043805484765512"><ele>54.0</ele><time>2026-04-30T12:22:34.995Z</time></trkpt><trkpt lat="44.38471108637232" lon="9.043698936761391"><ele>52.0</ele><time>2026-04-30T12:22:35.995Z</time></trkpt><trkpt lat="44.384795259890026" lon="9.043586276207591"><ele>54.0</ele><time>2026-04-30T12:22:36.995Z</time></trkpt><trkpt lat="44.384881389307935" lon="9.04345607047254"><ele>56.0</ele><time>2026-04-30T12:22:37.995Z</time></trkpt><trkpt lat="44.384957983002884" lon="9.043332916254878"><ele>58.0</ele><time>2026-04-30T12:22:38.995Z</time></trkpt><trkpt lat="44.38502616163005" lon="9.043221171700353"><ele>60.0</ele><time>2026-04-30T12:22:39.995Z</time></trkpt><trkpt lat="44.385083709215685" lon="9.043075968617567"><ele>60.0</ele><time>2026-04-30T12:22:40.995Z</time></trkpt><trkpt lat="44.38510418555926" lon="9.042899652676715"><ele>60.0</ele><time>2026-04-30T12:22:41.995Z</time></trkpt><trkpt lat="44.385150391144215" lon="9.042750292017889"><ele>60.0</ele><time>2026-04-30T12:22:42.995Z</time></trkpt><trkpt lat="44.38520707637066" lon="9.042643311509734"><ele>60.0</ele><time>2026-04-30T12:22:43.995Z</time></trkpt><trkpt lat="44.385252794866474" lon="9.042536554613077"><ele>60.0</ele><time>2026-04-30T12:22:44.995Z</time></trkpt><trkpt lat="44.3852978650996" lon="9.042397188191158"><ele>58.8</ele><time>2026-04-30T12:22:45.995Z</time></trkpt><trkpt lat="44.38535228765605" lon="9.042282362483167"><ele>57.6</ele><time>2026-04-30T12:22:46.995Z</time></trkpt><trkpt lat="44.38541856751204" lon="9.042172303869783"><ele>56.400000000000006</ele><time>2026-04-30T12:22:47.995Z</time></trkpt><trkpt lat="44.38545003033425" lon="9.042052658298593"><ele>55.2</ele><time>2026-04-30T12:22:48.995Z</time></trkpt><trkpt lat="44.38545575285547" lon="9.041910870024225"><ele>54.0</ele><time>2026-04-30T12:22:49.995Z</time></trkpt><trkpt lat="44.38546013035463" lon="9.041798984606102"><ele>54.0</ele><time>2026-04-30T12:22:50.995Z</time></trkpt><trkpt lat="44.385486075518855" lon="9.04171402391043"><ele>54.0</ele><time>2026-04-30T12:22:51.995Z</time></trkpt><trkpt lat="44.385485437742496" lon="9.041620207487552"><ele>54.0</ele><time>2026-04-30T12:22:52.995Z</time></trkpt><trkpt lat="44.38548640242615" lon="9.041513434294194"><ele>54.0</ele><time>2026-04-30T12:22:53.995Z</time></trkpt><trkpt lat="44.385496624461354" lon="9.041405659960612"><ele>54.0</ele><time>2026-04-30T12:22:54.995Z</time></trkpt><trkpt lat="44.38549786557136" lon="9.041278965103277"><ele>54.0</ele><time>2026-04-30T12:22:55.995Z</time></trkpt><trkpt lat="44.38549585017616" lon="9.041145016106219"><ele>52.800000000000004</ele><time>2026-04-30T12:22:56.995Z</time></trkpt><trkpt lat="44.385499890332426" lon="9.041008211286655"><ele>51.60000000000001</ele><time>2026-04-30T12:22:57.995Z</time></trkpt><trkpt lat="44.385497214073844" lon="9.040871546881327"><ele>50.4</ele><time>2026-04-30T12:22:58.995Z</time></trkpt><trkpt lat="44.38548855962726" lon="9.040738430439525"><ele>49.2</ele><time>2026-04-30T12:22:59.995Z</time></trkpt><trkpt lat="44.38544081817521" lon="9.040622090932759"><ele>48.0</ele><time>2026-04-30T12:23:00.995Z</time></trkpt><trkpt lat="44.385418384710825" lon="9.040514614167572"><ele>47.99999999999999</ele><time>2026-04-30T12:23:01.995Z</time></trkpt><trkpt lat="44.38539712328207" lon="9.040418496332876"><ele>48.0</ele><time>2026-04-30T12:23:02.995Z</time></trkpt><trkpt lat="44.38537653491799" lon="9.040327736342752"><ele>48.0</ele><time>2026-04-30T12:23:03.995Z</time></trkpt><trkpt lat="44.38535611450559" lon="9.040237618395414"><ele>48.0</ele><time>2026-04-30T12:23:04.995Z</time></trkpt><trkpt lat="44.38533608859547" lon="9.040149241438233"><ele>48.0</ele><time>2026-04-30T12:23:05.995Z</time></trkpt><trkpt lat="44.38531355208112" lon="9.040051683596827"><ele>47.99999999999999</ele><time>2026-04-30T12:23:06.995Z</time></trkpt><trkpt lat="44.38528813812015" lon="9.03994170640149"><ele>48.0</ele><time>2026-04-30T12:23:07.995Z</time></trkpt><trkpt lat="44.38524428498224" lon="9.03982321252757"><ele>48.0</ele><time>2026-04-30T12:23:08.995Z</time></trkpt><trkpt lat="44.38522761568801" lon="9.039687091371928"><ele>48.0</ele><time>2026-04-30T12:23:09.995Z</time></trkpt><trkpt lat="44.38520722109529" lon="9.039544349928873"><ele>48.0</ele><time>2026-04-30T12:23:10.995Z</time></trkpt><trkpt lat="44.38518382851536" lon="9.039396708849422"><ele>48.0</ele><time>2026-04-30T12:23:11.995Z</time></trkpt><trkpt lat="44.38515717179722" lon="9.039246607239289"><ele>48.0</ele><time>2026-04-30T12:23:12.995Z</time></trkpt><trkpt lat="44.38513072173099" lon="9.03909513853493"><ele>47.25</ele><time>2026-04-30T12:23:13.994Z</time></trkpt><trkpt lat="44.385098752415374" lon="9.038941230722502"><ele>46.5</ele><time>2026-04-30T12:23:14.994Z</time></trkpt><trkpt lat="44.385091003083694" lon="9.03878086982738"><ele>45.75</ele><time>2026-04-30T12:23:15.994Z</time></trkpt><trkpt lat="44.38508457615951" lon="9.038614977574268"><ele>45.0</ele><time>2026-04-30T12:23:16.994Z</time></trkpt><trkpt lat="44.385086949640474" lon="9.038448203411516"><ele>43.5</ele><time>2026-04-30T12:23:17.994Z</time></trkpt><trkpt lat="44.385095951038515" lon="9.0382803219732"><ele>42.0</ele><time>2026-04-30T12:23:18.994Z</time></trkpt><trkpt lat="44.38511587200331" lon="9.038111991706485"><ele>40.5</ele><time>2026-04-30T12:23:19.994Z</time></trkpt><trkpt lat="44.38509620132999" lon="9.037933420966679"><ele>39.0</ele><time>2026-04-30T12:23:20.994Z</time></trkpt><trkpt lat="44.38511661194992" lon="9.037764485944617"><ele>39.0</ele><time>2026-04-30T12:23:21.994Z</time></trkpt><trkpt lat="44.38513886003049" lon="9.037590796311692"><ele>39.0</ele><time>2026-04-30T12:23:22.994Z</time></trkpt><trkpt lat="44.38516080941492" lon="9.037413987128701"><ele>39.0</ele><time>2026-04-30T12:23:23.994Z</time></trkpt><trkpt lat="44.38517982693" lon="9.037235590609239"><ele>39.0</ele><time>2026-04-30T12:23:24.994Z</time></trkpt><trkpt lat="44.38519841713285" lon="9.037062157953017"><ele>38.5</ele><time>2026-04-30T12:23:25.994Z</time></trkpt><trkpt lat="44.38523522036352" lon="9.036893367392613"><ele>38.0</ele><time>2026-04-30T12:23:26.994Z</time></trkpt><trkpt lat="44.38526344667521" lon="9.036726171840366"><ele>37.5</ele><time>2026-04-30T12:23:27.994Z</time></trkpt><trkpt lat="44.38530035720239" lon="9.036560797084418"><ele>37.0</ele><time>2026-04-30T12:23:28.994Z</time></trkpt><trkpt lat="44.3853486075643" lon="9.03639711602631"><ele>37.5</ele><time>2026-04-30T12:23:29.994Z</time></trkpt><trkpt lat="44.38539883241032" lon="9.036240715158439"><ele>38.0</ele><time>2026-04-30T12:23:30.994Z</time></trkpt><trkpt lat="44.38544860755663" lon="9.036084248881185"><ele>38.5</ele><time>2026-04-30T12:23:31.994Z</time></trkpt><trkpt lat="44.385496559214275" lon="9.035922686438115"><ele>39.0</ele><time>2026-04-30T12:23:32.994Z</time></trkpt><trkpt lat="44.38553423370158" lon="9.035757613579442"><ele>39.0</ele><time>2026-04-30T12:23:33.994Z</time></trkpt><trkpt lat="44.38555991270154" lon="9.0355996395545"><ele>39.0</ele><time>2026-04-30T12:23:34.994Z</time></trkpt><trkpt lat="44.385567608464264" lon="9.035440635865797"><ele>39.0</ele><time>2026-04-30T12:23:35.994Z</time></trkpt><trkpt lat="44.385554569013955" lon="9.035279440068834"><ele>39.0</ele><time>2026-04-30T12:23:36.994Z</time></trkpt><trkpt lat="44.38557280116919" lon="9.03512118875027"><ele>36.0</ele><time>2026-04-30T12:23:37.994Z</time></trkpt><trkpt lat="44.38559041871168" lon="9.034961604472505"><ele>33.0</ele><time>2026-04-30T12:23:38.994Z</time></trkpt><trkpt lat="44.3856186028552" lon="9.034807046342385"><ele>30.0</ele><time>2026-04-30T12:23:39.994Z</time></trkpt><trkpt lat="44.385650412973" lon="9.03464356069414"><ele>27.0</ele><time>2026-04-30T12:23:40.994Z</time></trkpt><trkpt lat="44.385697510322174" lon="9.034475482199973"><ele>27.0</ele><time>2026-04-30T12:23:41.994Z</time></trkpt><trkpt lat="44.38573228716952" lon="9.034307491495156"><ele>27.0</ele><time>2026-04-30T12:23:42.994Z</time></trkpt><trkpt lat="44.385761570237136" lon="9.03414535582424"><ele>27.0</ele><time>2026-04-30T12:23:43.994Z</time></trkpt><trkpt lat="44.38579027925895" lon="9.033985236033176"><ele>27.0</ele><time>2026-04-30T12:23:44.994Z</time></trkpt><trkpt lat="44.38582382213587" lon="9.03383440783516"><ele>26.200000000000003</ele><time>2026-04-30T12:23:45.994Z</time></trkpt><trkpt lat="44.38584270762256" lon="9.033688097187731"><ele>25.400000000000002</ele><time>2026-04-30T12:23:46.994Z</time></trkpt><trkpt lat="44.38586654747356" lon="9.033538543983548"><ele>24.6</ele><time>2026-04-30T12:23:47.994Z</time></trkpt><trkpt lat="44.38586948026622" lon="9.033386916668283"><ele>23.799999999999997</ele><time>2026-04-30T12:23:48.994Z</time></trkpt><trkpt lat="44.38586436322352" lon="9.033244412822368"><ele>23.0</ele><time>2026-04-30T12:23:49.994Z</time></trkpt><trkpt lat="44.38583581378624" lon="9.033126454428093"><ele>21.833333333333336</ele><time>2026-04-30T12:23:50.994Z</time></trkpt><trkpt lat="44.38580797462141" lon="9.033011349962567"><ele>20.666666666666668</ele><time>2026-04-30T12:23:51.994Z</time></trkpt><trkpt lat="44.385779691989875" lon="9.032898256486138"><ele>19.5</ele><time>2026-04-30T12:23:52.994Z</time></trkpt><trkpt lat="44.38575316970544" lon="9.032787352650887"><ele>18.333333333333332</ele><time>2026-04-30T12:23:53.994Z</time></trkpt><trkpt lat="44.385667462024436" lon="9.032762837455136"><ele>17.166666666666664</ele><time>2026-04-30T12:23:54.994Z</time></trkpt><trkpt lat="44.38564438165721" lon="9.032645469743036"><ele>16.0</ele><time>2026-04-30T12:23:55.994Z</time></trkpt><trkpt lat="44.38556237866603" lon="9.032616138022004"><ele>16.166666666666664</ele><time>2026-04-30T12:23:56.994Z</time></trkpt><trkpt lat="44.38547906664496" lon="9.032566176914461"><ele>16.333333333333332</ele><time>2026-04-30T12:23:57.994Z</time></trkpt><trkpt lat="44.38539365129214" lon="9.032531010471319"><ele>16.5</ele><time>2026-04-30T12:23:58.994Z</time></trkpt><trkpt lat="44.385311927199055" lon="9.032491611018932"><ele>16.666666666666668</ele><time>2026-04-30T12:23:59.994Z</time></trkpt><trkpt lat="44.385233108831095" lon="9.032449876180463"><ele>16.833333333333336</ele><time>2026-04-30T12:24:00.994Z</time></trkpt><trkpt lat="44.3851615476291" lon="9.03239368556792"><ele>17.0</ele><time>2026-04-30T12:24:01.993Z</time></trkpt><trkpt lat="44.38509384997878" lon="9.032368098467277"><ele>16.857142857142854</ele><time>2026-04-30T12:24:02.993Z</time></trkpt><trkpt lat="44.38502672665513" lon="9.032354810309588"><ele>16.714285714285715</ele><time>2026-04-30T12:24:03.993Z</time></trkpt><trkpt lat="44.38492285441399" lon="9.032353959880506"><ele>16.57142857142857</ele><time>2026-04-30T12:24:05.993Z</time></trkpt><trkpt lat="44.384851505410055" lon="9.03237703871191"><ele>16.428571428571427</ele><time>2026-04-30T12:24:07.993Z</time></trkpt><trkpt lat="44.384788939827274" lon="9.032362700206265"><ele>16.285714285714285</ele><time>2026-04-30T12:24:09.993Z</time></trkpt><trkpt lat="44.38472652311766" lon="9.03233455101955"><ele>16.142857142857142</ele><time>2026-04-30T12:24:10.993Z</time></trkpt><trkpt lat="44.38467040091374" lon="9.032287500722706"><ele>16.0</ele><time>2026-04-30T12:24:11.993Z</time></trkpt><trkpt lat="44.38461454845126" lon="9.032241139567583"><ele>16.0</ele><time>2026-04-30T12:24:12.993Z</time></trkpt><trkpt lat="44.384548330933356" lon="9.03213187768989"><ele>16.0</ele><time>2026-04-30T12:24:14.993Z</time></trkpt><trkpt lat="44.384482979584945" lon="9.032011709200187"><ele>16.0</ele><time>2026-04-30T12:24:16.993Z</time></trkpt><trkpt lat="44.38446328294731" lon="9.031842084393944"><ele>16.0</ele><time>2026-04-30T12:24:18.993Z</time></trkpt><trkpt lat="44.38443503956883" lon="9.031752483779186"><ele>16.0</ele><time>2026-04-30T12:24:20.993Z</time></trkpt><trkpt lat="44.38439351188665" lon="9.031662220153207"><ele>16.833333333333332</ele><time>2026-04-30T12:24:23.993Z</time></trkpt><trkpt lat="44.38436723848799" lon="9.031538177078069"><ele>17.666666666666664</ele><time>2026-04-30T12:24:25.993Z</time></trkpt><trkpt lat="44.38433604473368" lon="9.031455189137914"><ele>18.5</ele><time>2026-04-30T12:24:26.993Z</time></trkpt><trkpt lat="44.38429619221004" lon="9.031358158365611"><ele>19.333333333333332</ele><time>2026-04-30T12:24:27.993Z</time></trkpt><trkpt lat="44.38423736493851" lon="9.031278015570127"><ele>20.166666666666668</ele><time>2026-04-30T12:24:28.993Z</time></trkpt><trkpt lat="44.384162561521" lon="9.031212776552564"><ele>21.0</ele><time>2026-04-30T12:24:29.993Z</time></trkpt><trkpt lat="44.38408692177967" lon="9.031136252201234"><ele>21.0</ele><time>2026-04-30T12:24:30.993Z</time></trkpt><trkpt lat="44.38400379188685" lon="9.031072013030698"><ele>21.0</ele><time>2026-04-30T12:24:31.993Z</time></trkpt><trkpt lat="44.383916908719776" lon="9.031011417993891"><ele>21.0</ele><time>2026-04-30T12:24:32.993Z</time></trkpt><trkpt lat="44.3838350063531" lon="9.030946625063118"><ele>21.0</ele><time>2026-04-30T12:24:33.993Z</time></trkpt><trkpt lat="44.38376525127169" lon="9.030887463198107"><ele>21.0</ele><time>2026-04-30T12:24:34.993Z</time></trkpt><trkpt lat="44.3837115720494" lon="9.030822466663189"><ele>21.0</ele><time>2026-04-30T12:24:35.993Z</time></trkpt><trkpt lat="44.383660442725706" lon="9.030754072785664"><ele>20.666666666666668</ele><time>2026-04-30T12:24:36.993Z</time></trkpt><trkpt lat="44.383618226466076" lon="9.03067519076699"><ele>20.333333333333332</ele><time>2026-04-30T12:24:37.993Z</time></trkpt><trkpt lat="44.38357550716999" lon="9.030586702677024"><ele>20.0</ele><time>2026-04-30T12:24:38.993Z</time></trkpt><trkpt lat="44.38352513961818" lon="9.030487553912929"><ele>19.666666666666664</ele><time>2026-04-30T12:24:39.993Z</time></trkpt><trkpt lat="44.38348361902686" lon="9.030360175795362"><ele>19.333333333333332</ele><time>2026-04-30T12:24:40.993Z</time></trkpt><trkpt lat="44.38343114338489" lon="9.03023835214349"><ele>19.0</ele><time>2026-04-30T12:24:41.993Z</time></trkpt><trkpt lat="44.38340237259" lon="9.030103703583174"><ele>19.6</ele><time>2026-04-30T12:24:42.993Z</time></trkpt><trkpt lat="44.38337568329203" lon="9.029962855325406"><ele>20.2</ele><time>2026-04-30T12:24:43.993Z</time></trkpt><trkpt lat="44.38334458243961" lon="9.029819492056202"><ele>20.8</ele><time>2026-04-30T12:24:44.993Z</time></trkpt><trkpt lat="44.38330715922575" lon="9.029676865074075"><ele>21.400000000000002</ele><time>2026-04-30T12:24:45.993Z</time></trkpt><trkpt lat="44.38326617559999" lon="9.029536520435473"><ele>22.0</ele><time>2026-04-30T12:24:46.993Z</time></trkpt><trkpt lat="44.38323140805935" lon="9.029395511966172"><ele>22.0</ele><time>2026-04-30T12:24:47.993Z</time></trkpt><trkpt lat="44.38319567948355" lon="9.029251716133876"><ele>22.0</ele><time>2026-04-30T12:24:48.993Z</time></trkpt><trkpt lat="44.383161747314354" lon="9.0291086359645"><ele>22.0</ele><time>2026-04-30T12:24:49.992Z</time></trkpt><trkpt lat="44.38312618789009" lon="9.028963505215273"><ele>22.0</ele><time>2026-04-30T12:24:50.992Z</time></trkpt><trkpt lat="44.383082196535945" lon="9.028818146875238"><ele>22.0</ele><time>2026-04-30T12:24:51.992Z</time></trkpt><trkpt lat="44.38305469441494" lon="9.028672208944945"><ele>19.400000000000002</ele><time>2026-04-30T12:24:52.992Z</time></trkpt><trkpt lat="44.38299377938261" lon="9.028543562999264"><ele>16.8</ele><time>2026-04-30T12:24:53.992Z</time></trkpt><trkpt lat="44.382942726613955" lon="9.028401443394143"><ele>14.200000000000001</ele><time>2026-04-30T12:24:54.992Z</time></trkpt><trkpt lat="44.38289374661464" lon="9.028259793922864"><ele>11.600000000000001</ele><time>2026-04-30T12:24:55.992Z</time></trkpt><trkpt lat="44.38284472428481" lon="9.028119599519478"><ele>9.0</ele><time>2026-04-30T12:24:56.992Z</time></trkpt><trkpt lat="44.382798342475645" lon="9.027971995012525"><ele>8.0</ele><time>2026-04-30T12:24:57.992Z</time></trkpt><trkpt lat="44.38276419352641" lon="9.027816606414769"><ele>7.0</ele><time>2026-04-30T12:24:58.992Z</time></trkpt><trkpt lat="44.38273588713783" lon="9.027659516878218"><ele>6.0</ele><time>2026-04-30T12:24:59.992Z</time></trkpt><trkpt lat="44.382717933783454" lon="9.027508246797872"><ele>5.0</ele><time>2026-04-30T12:25:00.992Z</time></trkpt><trkpt lat="44.38269545501581" lon="9.02735016668898"><ele>4.75</ele><time>2026-04-30T12:25:01.992Z</time></trkpt><trkpt lat="44.382705830350936" lon="9.027190571263246"><ele>4.5</ele><time>2026-04-30T12:25:02.992Z</time></trkpt><trkpt lat="44.38273705669253" lon="9.027020845356418"><ele>4.25</ele><time>2026-04-30T12:25:03.992Z</time></trkpt><trkpt lat="44.382773861491" lon="9.026851558022177"><ele>4.0</ele><time>2026-04-30T12:25:04.992Z</time></trkpt><trkpt lat="44.38280799053185" lon="9.026678835715286"><ele>4.25</ele><time>2026-04-30T12:25:05.992Z</time></trkpt><trkpt lat="44.382843843613905" lon="9.026508925789992"><ele>4.5</ele><time>2026-04-30T12:25:06.992Z</time></trkpt><trkpt lat="44.38288150531328" lon="9.026340299609346"><ele>4.75</ele><time>2026-04-30T12:25:07.992Z</time></trkpt><trkpt lat="44.382919065010675" lon="9.026171608901345"><ele>5.0</ele><time>2026-04-30T12:25:08.992Z</time></trkpt><trkpt lat="44.382950608296106" lon="9.026003303020971"><ele>5.0</ele><time>2026-04-30T12:25:09.992Z</time></trkpt><trkpt lat="44.38298444724049" lon="9.02583753198883"><ele>5.0</ele><time>2026-04-30T12:25:10.992Z</time></trkpt><trkpt lat="44.38301852890782" lon="9.025674405625681"><ele>5.0</ele><time>2026-04-30T12:25:11.992Z</time></trkpt><trkpt lat="44.383047077005585" lon="9.025507058812579"><ele>5.0</ele><time>2026-04-30T12:25:12.992Z</time></trkpt><trkpt lat="44.38308203443566" lon="9.025344425150395"><ele>6.4</ele><time>2026-04-30T12:25:14.001Z</time></trkpt><trkpt lat="44.38311743565702" lon="9.025182950165066"><ele>7.8</ele><time>2026-04-30T12:25:15.001Z</time></trkpt><trkpt lat="44.383147407811684" lon="9.02502386745648"><ele>9.2</ele><time>2026-04-30T12:25:16.001Z</time></trkpt><trkpt lat="44.38317935936936" lon="9.024875312044905"><ele>10.6</ele><time>2026-04-30T12:25:17.001Z</time></trkpt><trkpt lat="44.383212033868915" lon="9.024744076686027"><ele>12.0</ele><time>2026-04-30T12:25:18.001Z</time></trkpt><trkpt lat="44.38323656263913" lon="9.024618719805225"><ele>12.0</ele><time>2026-04-30T12:25:19.001Z</time></trkpt><trkpt lat="44.38326239835739" lon="9.024488817224416"><ele>12.0</ele><time>2026-04-30T12:25:20.001Z</time></trkpt><trkpt lat="44.383291514998916" lon="9.024353192106705"><ele>12.0</ele><time>2026-04-30T12:25:21.001Z</time></trkpt><trkpt lat="44.38332413261526" lon="9.024213257656676"><ele>12.0</ele><time>2026-04-30T12:25:22.001Z</time></trkpt><trkpt lat="44.383354817012524" lon="9.024063712910339"><ele>12.0</ele><time>2026-04-30T12:25:23.001Z</time></trkpt><trkpt lat="44.38339583973776" lon="9.0239149652101"><ele>12.25</ele><time>2026-04-30T12:25:24.001Z</time></trkpt><trkpt lat="44.38343581606417" lon="9.023765748779093"><ele>12.5</ele><time>2026-04-30T12:25:25Z</time></trkpt><trkpt lat="44.38347483340085" lon="9.023611888438783"><ele>12.75</ele><time>2026-04-30T12:25:26Z</time></trkpt><trkpt lat="44.38351206025545" lon="9.023451941905114"><ele>13.0</ele><time>2026-04-30T12:25:27Z</time></trkpt><trkpt lat="44.38355203243784" lon="9.02328922239886"><ele>13.0</ele><time>2026-04-30T12:25:28Z</time></trkpt><trkpt lat="44.38358612649412" lon="9.023125329388732"><ele>13.0</ele><time>2026-04-30T12:25:29Z</time></trkpt><trkpt lat="44.38361887216872" lon="9.022957854001376"><ele>13.0</ele><time>2026-04-30T12:25:30Z</time></trkpt><trkpt lat="44.383647309556096" lon="9.022791019749523"><ele>13.0</ele><time>2026-04-30T12:25:31Z</time></trkpt><trkpt lat="44.38368019781259" lon="9.02262870554276"><ele>11.25</ele><time>2026-04-30T12:25:32Z</time></trkpt><trkpt lat="44.383718155925436" lon="9.022468002402354"><ele>9.5</ele><time>2026-04-30T12:25:33Z</time></trkpt><trkpt lat="44.383754310904365" lon="9.02230683419369"><ele>7.75</ele><time>2026-04-30T12:25:34Z</time></trkpt><trkpt lat="44.38378865764094" lon="9.022147415988218"><ele>6.0</ele><time>2026-04-30T12:25:35Z</time></trkpt><trkpt lat="44.38382069662803" lon="9.021992174191297"><ele>8.0</ele><time>2026-04-30T12:25:36Z</time></trkpt><trkpt lat="44.38385496430856" lon="9.021839316362433"><ele>10.0</ele><time>2026-04-30T12:25:37Z</time></trkpt><trkpt lat="44.3838915813107" lon="9.021689871956115"><ele>12.000000000000002</ele><time>2026-04-30T12:25:38Z</time></trkpt><trkpt lat="44.38392702861013" lon="9.021544084105487"><ele>14.0</ele><time>2026-04-30T12:25:39Z</time></trkpt><trkpt lat="44.383960814532145" lon="9.021399374436395"><ele>16.0</ele><time>2026-04-30T12:25:40Z</time></trkpt><trkpt lat="44.383990825972525" lon="9.021254642319324"><ele>16.0</ele><time>2026-04-30T12:25:41Z</time></trkpt><trkpt lat="44.38402218578239" lon="9.02110939657895"><ele>16.0</ele><time>2026-04-30T12:25:42Z</time></trkpt><trkpt lat="44.38405551003671" lon="9.020967760008228"><ele>16.0</ele><time>2026-04-30T12:25:43Z</time></trkpt><trkpt lat="44.38408603923115" lon="9.020824798706288"><ele>16.0</ele><time>2026-04-30T12:25:44Z</time></trkpt><trkpt lat="44.384115810721966" lon="9.020682107651618"><ele>16.0</ele><time>2026-04-30T12:25:45Z</time></trkpt><trkpt lat="44.384145288410174" lon="9.02053944155214"><ele>16.2</ele><time>2026-04-30T12:25:46Z</time></trkpt><trkpt lat="44.38417314430367" lon="9.02039585480729"><ele>16.400000000000002</ele><time>2026-04-30T12:25:47Z</time></trkpt><trkpt lat="44.38420399577845" lon="9.020250937339144"><ele>16.6</ele><time>2026-04-30T12:25:48Z</time></trkpt><trkpt lat="44.384235753355924" lon="9.020104994157494"><ele>16.8</ele><time>2026-04-30T12:25:49Z</time></trkpt><trkpt lat="44.38426561724008" lon="9.019959276302973"><ele>17.0</ele><time>2026-04-30T12:25:50Z</time></trkpt><trkpt lat="44.38429791731869" lon="9.019814082909416"><ele>16.4</ele><time>2026-04-30T12:25:51Z</time></trkpt><trkpt lat="44.384336573430694" lon="9.01967184337915"><ele>15.799999999999999</ele><time>2026-04-30T12:25:52Z</time></trkpt><trkpt lat="44.38437099717908" lon="9.019527331689389"><ele>15.2</ele><time>2026-04-30T12:25:53Z</time></trkpt><trkpt lat="44.38440311051099" lon="9.019381543625364"><ele>14.6</ele><time>2026-04-30T12:25:54Z</time></trkpt><trkpt lat="44.38443557366216" lon="9.01923577780735"><ele>14.0</ele><time>2026-04-30T12:25:55Z</time></trkpt><trkpt lat="44.38447237472972" lon="9.019092586011759"><ele>12.399999999999999</ele><time>2026-04-30T12:25:56Z</time></trkpt><trkpt lat="44.3845033890911" lon="9.018946906936424"><ele>10.799999999999999</ele><time>2026-04-30T12:25:57Z</time></trkpt><trkpt lat="44.384540680708184" lon="9.018804088215857"><ele>9.2</ele><time>2026-04-30T12:25:58Z</time></trkpt><trkpt lat="44.38457941880751" lon="9.018660377608809"><ele>7.6</ele><time>2026-04-30T12:25:59Z</time></trkpt><trkpt lat="44.38460779699688" lon="9.018516791294042"><ele>6.0</ele><time>2026-04-30T12:26:00Z</time></trkpt><trkpt lat="44.38463708538145" lon="9.01837708172873"><ele>5.2</ele><time>2026-04-30T12:26:01Z</time></trkpt><trkpt lat="44.384667818472714" lon="9.01823529970756"><ele>4.3999999999999995</ele><time>2026-04-30T12:26:02Z</time></trkpt><trkpt lat="44.38469794245309" lon="9.018089988201167"><ele>3.6</ele><time>2026-04-30T12:26:03Z</time></trkpt><trkpt lat="44.38472271700385" lon="9.017940358709621"><ele>2.8</ele><time>2026-04-30T12:26:04Z</time></trkpt><trkpt lat="44.38475007773204" lon="9.01779223352863"><ele>2.0</ele><time>2026-04-30T12:26:04.999Z</time></trkpt><trkpt lat="44.38477676113872" lon="9.017644450763735"><ele>4.75</ele><time>2026-04-30T12:26:05.999Z</time></trkpt><trkpt lat="44.38480682035339" lon="9.017494190648158"><ele>7.5</ele><time>2026-04-30T12:26:06.999Z</time></trkpt><trkpt lat="44.384840586638646" lon="9.01733753133469"><ele>10.25</ele><time>2026-04-30T12:26:07.999Z</time></trkpt><trkpt lat="44.38487362252411" lon="9.017174162632132"><ele>13.0</ele><time>2026-04-30T12:26:08.999Z</time></trkpt><trkpt lat="44.384909930950364" lon="9.017008220167801"><ele>13.0</ele><time>2026-04-30T12:26:09.999Z</time></trkpt><trkpt lat="44.38494228350272" lon="9.016839434549732"><ele>13.0</ele><time>2026-04-30T12:26:10.999Z</time></trkpt><trkpt lat="44.38497834154662" lon="9.016670282320927"><ele>13.0</ele><time>2026-04-30T12:26:11.999Z</time></trkpt><trkpt lat="44.38501914536913" lon="9.01650251104038"><ele>13.0</ele><time>2026-04-30T12:26:12.999Z</time></trkpt><trkpt lat="44.38506160607147" lon="9.016335271086588"><ele>13.0</ele><time>2026-04-30T12:26:13.999Z</time></trkpt><trkpt lat="44.385100346496515" lon="9.016164477609486"><ele>13.0</ele><time>2026-04-30T12:26:14.999Z</time></trkpt><trkpt lat="44.385143959695654" lon="9.015996435254877"><ele>13.0</ele><time>2026-04-30T12:26:15.999Z</time></trkpt><trkpt lat="44.38518065691331" lon="9.01582674682471"><ele>13.0</ele><time>2026-04-30T12:26:16.999Z</time></trkpt><trkpt lat="44.38521557649622" lon="9.01565767478769"><ele>12.5</ele><time>2026-04-30T12:26:17.999Z</time></trkpt><trkpt lat="44.38524997888422" lon="9.015486888637161"><ele>12.0</ele><time>2026-04-30T12:26:18.999Z</time></trkpt><trkpt lat="44.385277603446305" lon="9.015311840803092"><ele>11.5</ele><time>2026-04-30T12:26:19.999Z</time></trkpt><trkpt lat="44.3853067240555" lon="9.01513787369484"><ele>11.0</ele><time>2026-04-30T12:26:20.999Z</time></trkpt><trkpt lat="44.38532963088916" lon="9.014959165756336"><ele>10.25</ele><time>2026-04-30T12:26:21.999Z</time></trkpt><trkpt lat="44.38534700900028" lon="9.014778258788747"><ele>9.5</ele><time>2026-04-30T12:26:22.999Z</time></trkpt><trkpt lat="44.385356278985014" lon="9.014596050283444"><ele>8.75</ele><time>2026-04-30T12:26:23.999Z</time></trkpt><trkpt lat="44.385361582549436" lon="9.014415838933365"><ele>8.0</ele><time>2026-04-30T12:26:24.999Z</time></trkpt><trkpt lat="44.385369371814846" lon="9.014242163541905"><ele>7.0</ele><time>2026-04-30T12:26:25.999Z</time></trkpt><trkpt lat="44.38538392569079" lon="9.014088193071167"><ele>6.000000000000001</ele><time>2026-04-30T12:26:26.999Z</time></trkpt><trkpt lat="44.385403130429815" lon="9.013951539180907"><ele>5.0</ele><time>2026-04-30T12:26:27.999Z</time></trkpt><trkpt lat="44.38543916980732" lon="9.01381021087543"><ele>4.0</ele><time>2026-04-30T12:26:28.999Z</time></trkpt><trkpt lat="44.385487963876884" lon="9.01366047938326"><ele>3.0</ele><time>2026-04-30T12:26:29.999Z</time></trkpt><trkpt lat="44.38554080512614" lon="9.013509548559256"><ele>6.0</ele><time>2026-04-30T12:26:30.999Z</time></trkpt><trkpt lat="44.38559279055834" lon="9.01335918365198"><ele>9.0</ele><time>2026-04-30T12:26:31.999Z</time></trkpt><trkpt lat="44.38564007187541" lon="9.01320901802121"><ele>12.0</ele><time>2026-04-30T12:26:32.999Z</time></trkpt><trkpt lat="44.38568085711097" lon="9.013057774795215"><ele>15.0</ele><time>2026-04-30T12:26:33.999Z</time></trkpt><trkpt lat="44.38571340728923" lon="9.012905078151247"><ele>15.0</ele><time>2026-04-30T12:26:34.999Z</time></trkpt><trkpt lat="44.38571334425963" lon="9.012753398271869"><ele>15.0</ele><time>2026-04-30T12:26:35.999Z</time></trkpt><trkpt lat="44.385689369331224" lon="9.012617671058788"><ele>15.0</ele><time>2026-04-30T12:26:36.999Z</time></trkpt><trkpt lat="44.38566385726064" lon="9.012491080450443"><ele>15.0</ele><time>2026-04-30T12:26:37.999Z</time></trkpt><trkpt lat="44.38562976242613" lon="9.012377193926444"><ele>15.0</ele><time>2026-04-30T12:26:38.999Z</time></trkpt><trkpt lat="44.385596804355465" lon="9.012267845852824"><ele>14.714285714285715</ele><time>2026-04-30T12:26:39.999Z</time></trkpt><trkpt lat="44.38556181330356" lon="9.01216401069744"><ele>14.428571428571427</ele><time>2026-04-30T12:26:40.999Z</time></trkpt><trkpt lat="44.38554013948294" lon="9.012058210320035"><ele>14.142857142857142</ele><time>2026-04-30T12:26:41.999Z</time></trkpt><trkpt lat="44.385521279800045" lon="9.01195856240768"><ele>13.857142857142858</ele><time>2026-04-30T12:26:42.999Z</time></trkpt><trkpt lat="44.38549117970523" lon="9.011868155467193"><ele>13.571428571428573</ele><time>2026-04-30T12:26:43.999Z</time></trkpt><trkpt lat="44.38548188254138" lon="9.011776750751531"><ele>13.285714285714285</ele><time>2026-04-30T12:26:44.999Z</time></trkpt><trkpt lat="44.385464861844284" lon="9.01169049355064"><ele>13.0</ele><time>2026-04-30T12:26:45.999Z</time></trkpt><trkpt lat="44.38544986548483" lon="9.01160034761107"><ele>11.857142857142856</ele><time>2026-04-30T12:26:46.999Z</time></trkpt><trkpt lat="44.385411445297166" lon="9.011515208492407"><ele>10.714285714285715</ele><time>2026-04-30T12:26:47.999Z</time></trkpt><trkpt lat="44.38539150659507" lon="9.011424649412689"><ele>9.571428571428571</ele><time>2026-04-30T12:26:48.999Z</time></trkpt><trkpt lat="44.38537266183112" lon="9.01133098511782"><ele>8.428571428571429</ele><time>2026-04-30T12:26:49.998Z</time></trkpt><trkpt lat="44.38534927891852" lon="9.011238993544955"><ele>7.2857142857142865</ele><time>2026-04-30T12:26:50.998Z</time></trkpt><trkpt lat="44.38533805999762" lon="9.011145467981537"><ele>6.142857142857142</ele><time>2026-04-30T12:26:51.998Z</time></trkpt><trkpt lat="44.38532778389271" lon="9.01104678640171"><ele>5.0</ele><time>2026-04-30T12:26:52.998Z</time></trkpt><trkpt lat="44.38532194571682" lon="9.010939207362446"><ele>4.6</ele><time>2026-04-30T12:26:53.998Z</time></trkpt><trkpt lat="44.38532191789195" lon="9.010821714483177"><ele>4.2</ele><time>2026-04-30T12:26:54.998Z</time></trkpt><trkpt lat="44.38532630707037" lon="9.010695657800746"><ele>3.8</ele><time>2026-04-30T12:26:55.998Z</time></trkpt><trkpt lat="44.38533602886438" lon="9.010563332526281"><ele>3.4</ele><time>2026-04-30T12:26:56.998Z</time></trkpt><trkpt lat="44.38535176543262" lon="9.010425432319042"><ele>3.0</ele><time>2026-04-30T12:26:57.998Z</time></trkpt><trkpt lat="44.3853672765975" lon="9.01028483174591"><ele>3.0</ele><time>2026-04-30T12:26:58.998Z</time></trkpt><trkpt lat="44.38538521473717" lon="9.010143703163624"><ele>3.0</ele><time>2026-04-30T12:26:59.998Z</time></trkpt><trkpt lat="44.38540179156437" lon="9.010001349246712"><ele>3.0</ele><time>2026-04-30T12:27:00.998Z</time></trkpt><trkpt lat="44.38542365387886" lon="9.009861659892364"><ele>3.0</ele><time>2026-04-30T12:27:01.998Z</time></trkpt><trkpt lat="44.385441868846634" lon="9.00972282446218"><ele>3.0</ele><time>2026-04-30T12:27:02.998Z</time></trkpt><trkpt lat="44.385467800194114" lon="9.009587667665054"><ele>3.0</ele><time>2026-04-30T12:27:03.998Z</time></trkpt><trkpt lat="44.3855050635871" lon="9.009450161904283"><ele>3.0</ele><time>2026-04-30T12:27:04.998Z</time></trkpt><trkpt lat="44.38554332005942" lon="9.009299096214082"><ele>3.0</ele><time>2026-04-30T12:27:05.998Z</time></trkpt><trkpt lat="44.385586866585804" lon="9.00913539813744"><ele>3.0</ele><time>2026-04-30T12:27:06.998Z</time></trkpt><trkpt lat="44.38564341802053" lon="9.008968494178767"><ele>4.25</ele><time>2026-04-30T12:27:07.998Z</time></trkpt><trkpt lat="44.385699353985366" lon="9.008795566672273"><ele>5.5</ele><time>2026-04-30T12:27:08.998Z</time></trkpt><trkpt lat="44.385750581315975" lon="9.008607302001439"><ele>6.75</ele><time>2026-04-30T12:27:09.998Z</time></trkpt><trkpt lat="44.38579795193459" lon="9.00840960014945"><ele>8.0</ele><time>2026-04-30T12:27:10.998Z</time></trkpt><trkpt lat="44.38583987500505" lon="9.008209480487322"><ele>8.0</ele><time>2026-04-30T12:27:11.998Z</time></trkpt><trkpt lat="44.38587125219233" lon="9.00800888357942"><ele>8.0</ele><time>2026-04-30T12:27:12.998Z</time></trkpt><trkpt lat="44.385906608162834" lon="9.007809563099247"><ele>8.0</ele><time>2026-04-30T12:27:13.998Z</time></trkpt><trkpt lat="44.38594454858998" lon="9.007613196060968"><ele>8.0</ele><time>2026-04-30T12:27:14.998Z</time></trkpt><trkpt lat="44.38597798590706" lon="9.00742488997549"><ele>7.5</ele><time>2026-04-30T12:27:15.998Z</time></trkpt><trkpt lat="44.386010606395836" lon="9.007250112673534"><ele>7.0</ele><time>2026-04-30T12:27:16.998Z</time></trkpt><trkpt lat="44.38604220532373" lon="9.007086834133485"><ele>6.5</ele><time>2026-04-30T12:27:17.998Z</time></trkpt><trkpt lat="44.38607131767658" lon="9.006922418544626"><ele>6.0</ele><time>2026-04-30T12:27:18.998Z</time></trkpt><trkpt lat="44.38605872908787" lon="9.00676806861222"><ele>7.0</ele><time>2026-04-30T12:27:19.998Z</time></trkpt><trkpt lat="44.38602020040126" lon="9.006612832440638"><ele>8.0</ele><time>2026-04-30T12:27:20.998Z</time></trkpt><trkpt lat="44.3859619732615" lon="9.006470228363336"><ele>9.0</ele><time>2026-04-30T12:27:21.998Z</time></trkpt><trkpt lat="44.385897937295525" lon="9.006333926047882"><ele>10.0</ele><time>2026-04-30T12:27:22.998Z</time></trkpt><trkpt lat="44.385835139665616" lon="9.006200329910522"><ele>10.0</ele><time>2026-04-30T12:27:23.998Z</time></trkpt><trkpt lat="44.38577959764736" lon="9.00606437641751"><ele>10.0</ele><time>2026-04-30T12:27:24.998Z</time></trkpt><trkpt lat="44.38574150322574" lon="9.00592600398106"><ele>10.0</ele><time>2026-04-30T12:27:25.998Z</time></trkpt><trkpt lat="44.3857244267631" lon="9.005780139148184"><ele>10.0</ele><time>2026-04-30T12:27:26.998Z</time></trkpt><trkpt lat="44.38572122776675" lon="9.005627254082313"><ele>10.0</ele><time>2026-04-30T12:27:27.998Z</time></trkpt><trkpt lat="44.385734708984344" lon="9.005467801162885"><ele>9.5</ele><time>2026-04-30T12:27:28.998Z</time></trkpt><trkpt lat="44.38577832605993" lon="9.005313531105907"><ele>9.0</ele><time>2026-04-30T12:27:29.998Z</time></trkpt><trkpt lat="44.38582494163378" lon="9.005158603209447"><ele>8.5</ele><time>2026-04-30T12:27:30.998Z</time></trkpt><trkpt lat="44.38587261692065" lon="9.005001849058935"><ele>8.0</ele><time>2026-04-30T12:27:31.998Z</time></trkpt><trkpt lat="44.38590431388972" lon="9.004842744587034"><ele>7.2</ele><time>2026-04-30T12:27:32.998Z</time></trkpt><trkpt lat="44.38591125273346" lon="9.004690828410041"><ele>6.4</ele><time>2026-04-30T12:27:33.998Z</time></trkpt><trkpt lat="44.385912393483736" lon="9.0045431829221"><ele>5.6000000000000005</ele><time>2026-04-30T12:27:34.998Z</time></trkpt><trkpt lat="44.38592012763186" lon="9.004399454415408"><ele>4.800000000000001</ele><time>2026-04-30T12:27:35.997Z</time></trkpt><trkpt lat="44.38593709059459" lon="9.004260477738088"><ele>4.0</ele><time>2026-04-30T12:27:36.997Z</time></trkpt><trkpt lat="44.38598471395115" lon="9.004139872240785"><ele>3.4000000000000004</ele><time>2026-04-30T12:27:37.997Z</time></trkpt><trkpt lat="44.38605241790556" lon="9.004035710241068"><ele>2.8000000000000003</ele><time>2026-04-30T12:27:38.997Z</time></trkpt><trkpt lat="44.38613527294152" lon="9.003947114947179"><ele>2.2</ele><time>2026-04-30T12:27:39.997Z</time></trkpt><trkpt lat="44.38623346771543" lon="9.00389165839002"><ele>1.6</ele><time>2026-04-30T12:27:40.997Z</time></trkpt><trkpt lat="44.386337122534464" lon="9.003851123766422"><ele>1.0</ele><time>2026-04-30T12:27:41.997Z</time></trkpt><trkpt lat="44.38644003655804" lon="9.003802406170147"><ele>2.2</ele><time>2026-04-30T12:27:42.997Z</time></trkpt><trkpt lat="44.38653828268719" lon="9.003739666113617"><ele>3.4</ele><time>2026-04-30T12:27:43.997Z</time></trkpt><trkpt lat="44.38661646342859" lon="9.00363817850875"><ele>4.6</ele><time>2026-04-30T12:27:44.997Z</time></trkpt><trkpt lat="44.38668209291557" lon="9.003518068880664"><ele>5.8</ele><time>2026-04-30T12:27:45.997Z</time></trkpt><trkpt lat="44.3867210655709" lon="9.003375025561432"><ele>7.0</ele><time>2026-04-30T12:27:46.997Z</time></trkpt><trkpt lat="44.38674232918968" lon="9.003229181293682"><ele>7.0</ele><time>2026-04-30T12:27:47.997Z</time></trkpt><trkpt lat="44.3867610499866" lon="9.00308959617262"><ele>6.999999999999999</ele><time>2026-04-30T12:27:48.997Z</time></trkpt><trkpt lat="44.38678220966994" lon="9.002960169454845"><ele>6.999999999999999</ele><time>2026-04-30T12:27:49.997Z</time></trkpt><trkpt lat="44.38680071584275" lon="9.002827126518438"><ele>7.0</ele><time>2026-04-30T12:27:50.997Z</time></trkpt><trkpt lat="44.38677314242069" lon="9.002712286737204"><ele>7.0</ele><time>2026-04-30T12:27:51.997Z</time></trkpt><trkpt lat="44.38672567423082" lon="9.002611068545114"><ele>7.0</ele><time>2026-04-30T12:27:52.997Z</time></trkpt><trkpt lat="44.38666028738629" lon="9.002527695734342"><ele>6.999999999999999</ele><time>2026-04-30T12:27:53.997Z</time></trkpt><trkpt lat="44.386594230193246" lon="9.002439139736346"><ele>6.999999999999999</ele><time>2026-04-30T12:27:54.997Z</time></trkpt><trkpt lat="44.38652782166765" lon="9.002342962651081"><ele>7.0</ele><time>2026-04-30T12:27:55.997Z</time></trkpt><trkpt lat="44.3864760098408" lon="9.00222793957067"><ele>7.0</ele><time>2026-04-30T12:27:56.997Z</time></trkpt><trkpt lat="44.386439423442155" lon="9.002100497870599"><ele>6.8</ele><time>2026-04-30T12:27:57.997Z</time></trkpt><trkpt lat="44.386424105902805" lon="9.001966295719008"><ele>6.6</ele><time>2026-04-30T12:27:58.997Z</time></trkpt><trkpt lat="44.38642690504762" lon="9.00183317685839"><ele>6.3999999999999995</ele><time>2026-04-30T12:27:59.997Z</time></trkpt><trkpt lat="44.38646112052242" lon="9.001716339003801"><ele>6.199999999999999</ele><time>2026-04-30T12:28:00.997Z</time></trkpt><trkpt lat="44.38650803498261" lon="9.001613961787415"><ele>6.0</ele><time>2026-04-30T12:28:01.997Z</time></trkpt><trkpt lat="44.386559971752284" lon="9.00152076310901"><ele>6.0</ele><time>2026-04-30T12:28:02.997Z</time></trkpt><trkpt lat="44.3866121217406" lon="9.00143070544038"><ele>6.0</ele><time>2026-04-30T12:28:03.997Z</time></trkpt><trkpt lat="44.38666535887157" lon="9.001347583154473"><ele>6.0</ele><time>2026-04-30T12:28:04.997Z</time></trkpt><trkpt lat="44.38671944795714" lon="9.001270792806471"><ele>6.0</ele><time>2026-04-30T12:28:05.997Z</time></trkpt><trkpt lat="44.38677221474148" lon="9.00119265236143"><ele>6.0</ele><time>2026-04-30T12:28:06.997Z</time></trkpt><trkpt lat="44.386829677476314" lon="9.001108222258779"><ele>6.0</ele><time>2026-04-30T12:28:07.997Z</time></trkpt><trkpt lat="44.38689005979871" lon="9.001020558304457"><ele>6.0</ele><time>2026-04-30T12:28:08.997Z</time></trkpt><trkpt lat="44.38694993809202" lon="9.000930946442168"><ele>6.0</ele><time>2026-04-30T12:28:09.997Z</time></trkpt><trkpt lat="44.38700822041162" lon="9.00083884178271"><ele>6.0</ele><time>2026-04-30T12:28:10.997Z</time></trkpt><trkpt lat="44.38706192084061" lon="9.000744108571142"><ele>6.0</ele><time>2026-04-30T12:28:11.997Z</time></trkpt><trkpt lat="44.38710010054314" lon="9.000641080079474"><ele>6.0</ele><time>2026-04-30T12:28:12.997Z</time></trkpt><trkpt lat="44.38712564872503" lon="9.00053072380572"><ele>6.0</ele><time>2026-04-30T12:28:13.997Z</time></trkpt><trkpt lat="44.387144206557856" lon="9.000419520021069"><ele>6.4</ele><time>2026-04-30T12:28:14.997Z</time></trkpt><trkpt lat="44.38717459450416" lon="9.00029856715964"><ele>6.8</ele><time>2026-04-30T12:28:15.997Z</time></trkpt><trkpt lat="44.387175416650805" lon="9.000172681953453"><ele>7.200000000000001</ele><time>2026-04-30T12:28:16.997Z</time></trkpt><trkpt lat="44.387161915622976" lon="9.000044426409431"><ele>7.6000000000000005</ele><time>2026-04-30T12:28:17.997Z</time></trkpt><trkpt lat="44.38713228473609" lon="8.999918565210564"><ele>8.0</ele><time>2026-04-30T12:28:18.997Z</time></trkpt><trkpt lat="44.387091554124716" lon="8.999795649030414"><ele>8.0</ele><time>2026-04-30T12:28:19.997Z</time></trkpt><trkpt lat="44.387038975168174" lon="8.999676998573975"><ele>8.0</ele><time>2026-04-30T12:28:20.997Z</time></trkpt><trkpt lat="44.38697003547993" lon="8.999562524192473"><ele>8.0</ele><time>2026-04-30T12:28:21.996Z</time></trkpt><trkpt lat="44.38688695189635" lon="8.999445920562973"><ele>8.0</ele><time>2026-04-30T12:28:22.996Z</time></trkpt><trkpt lat="44.386800303503776" lon="8.999311711650432"><ele>8.5</ele><time>2026-04-30T12:28:23.996Z</time></trkpt><trkpt lat="44.38671051504565" lon="8.999161511199404"><ele>9.0</ele><time>2026-04-30T12:28:24.996Z</time></trkpt><trkpt lat="44.38662930729051" lon="8.999002683639317"><ele>9.5</ele><time>2026-04-30T12:28:25.996Z</time></trkpt><trkpt lat="44.38655873625189" lon="8.998839714652524"><ele>10.0</ele><time>2026-04-30T12:28:26.996Z</time></trkpt><trkpt lat="44.38649184714207" lon="8.998701956246686"><ele>10.0</ele><time>2026-04-30T12:28:27.996Z</time></trkpt><trkpt lat="44.386452023529195" lon="8.99857492264871"><ele>10.0</ele><time>2026-04-30T12:28:28.996Z</time></trkpt><trkpt lat="44.38643343759987" lon="8.998457949337524"><ele>10.0</ele><time>2026-04-30T12:28:29.996Z</time></trkpt><trkpt lat="44.386441263717565" lon="8.998344019480202"><ele>10.0</ele><time>2026-04-30T12:28:30.996Z</time></trkpt><trkpt lat="44.38647038826376" lon="8.998239216702743"><ele>10.0</ele><time>2026-04-30T12:28:31.996Z</time></trkpt><trkpt lat="44.38652495476747" lon="8.998170313684469"><ele>10.0</ele><time>2026-04-30T12:28:32.996Z</time></trkpt><trkpt lat="44.38660327026588" lon="8.998141716410299"><ele>10.166666666666668</ele><time>2026-04-30T12:28:33.996Z</time></trkpt><trkpt lat="44.38668999742671" lon="8.998123406793857"><ele>10.333333333333334</ele><time>2026-04-30T12:28:34.996Z</time></trkpt><trkpt lat="44.3867828875536" lon="8.998109513745687"><ele>10.5</ele><time>2026-04-30T12:28:35.996Z</time></trkpt><trkpt lat="44.386867594864114" lon="8.998073596674642"><ele>10.666666666666666</ele><time>2026-04-30T12:28:36.996Z</time></trkpt><trkpt lat="44.386950907748265" lon="8.99804733002719"><ele>10.833333333333332</ele><time>2026-04-30T12:28:37.996Z</time></trkpt><trkpt lat="44.387032388925874" lon="8.998023102949295"><ele>11.0</ele><time>2026-04-30T12:28:38.996Z</time></trkpt><trkpt lat="44.38711253382832" lon="8.99800603172892"><ele>11.666666666666666</ele><time>2026-04-30T12:28:39.996Z</time></trkpt><trkpt lat="44.387193210360905" lon="8.997989362338167"><ele>12.333333333333332</ele><time>2026-04-30T12:28:40.996Z</time></trkpt><trkpt lat="44.38727031998154" lon="8.997973758775077"><ele>13.0</ele><time>2026-04-30T12:28:41.996Z</time></trkpt><trkpt lat="44.387338250955395" lon="8.997936978639329"><ele>13.666666666666666</ele><time>2026-04-30T12:28:42.996Z</time></trkpt><trkpt lat="44.38740255144927" lon="8.997905777986286"><ele>14.333333333333334</ele><time>2026-04-30T12:28:43.996Z</time></trkpt><trkpt lat="44.3874588263418" lon="8.997864713552481"><ele>15.0</ele><time>2026-04-30T12:28:44.996Z</time></trkpt><trkpt lat="44.38755558369024" lon="8.997746115505413"><ele>15.0</ele><time>2026-04-30T12:28:46.996Z</time></trkpt><trkpt lat="44.387593390466705" lon="8.997669047975958"><ele>15.0</ele><time>2026-04-30T12:28:47.996Z</time></trkpt><trkpt lat="44.38762106463591" lon="8.997582136890891"><ele>15.0</ele><time>2026-04-30T12:28:48.996Z</time></trkpt><trkpt lat="44.38763921517522" lon="8.997485184640231"><ele>15.0</ele><time>2026-04-30T12:28:49.996Z</time></trkpt><trkpt lat="44.38765431930387" lon="8.997387155095607"><ele>15.0</ele><time>2026-04-30T12:28:50.996Z</time></trkpt><trkpt lat="44.387669937975936" lon="8.997278876938518"><ele>15.0</ele><time>2026-04-30T12:28:51.996Z</time></trkpt><trkpt lat="44.387655898535556" lon="8.997166126148365"><ele>15.0</ele><time>2026-04-30T12:28:52.996Z</time></trkpt><trkpt lat="44.38763441116112" lon="8.99705415288777"><ele>14.333333333333334</ele><time>2026-04-30T12:28:53.996Z</time></trkpt><trkpt lat="44.387597615888886" lon="8.996954729308976"><ele>13.666666666666666</ele><time>2026-04-30T12:28:54.996Z</time></trkpt><trkpt lat="44.38755250205729" lon="8.996857319070722"><ele>13.0</ele><time>2026-04-30T12:28:55.996Z</time></trkpt><trkpt lat="44.38749725604718" lon="8.996769311206783"><ele>12.333333333333332</ele><time>2026-04-30T12:28:56.996Z</time></trkpt><trkpt lat="44.38744728050577" lon="8.99667745047905"><ele>11.666666666666666</ele><time>2026-04-30T12:28:57.996Z</time></trkpt><trkpt lat="44.3874063888604" lon="8.996578448457678"><ele>11.0</ele><time>2026-04-30T12:28:58.996Z</time></trkpt><trkpt lat="44.387385994784275" lon="8.996472336629566"><ele>11.0</ele><time>2026-04-30T12:28:59.996Z</time></trkpt><trkpt lat="44.38736611520805" lon="8.996364561805796"><ele>11.0</ele><time>2026-04-30T12:29:00.996Z</time></trkpt><trkpt lat="44.38737173865368" lon="8.996260194437902"><ele>11.0</ele><time>2026-04-30T12:29:01.996Z</time></trkpt><trkpt lat="44.387383883505535" lon="8.996158780017803"><ele>11.0</ele><time>2026-04-30T12:29:02.996Z</time></trkpt><trkpt lat="44.38741911455217" lon="8.996049990028268"><ele>11.0</ele><time>2026-04-30T12:29:03.996Z</time></trkpt><trkpt lat="44.387467498800625" lon="8.995928481236756"><ele>11.0</ele><time>2026-04-30T12:29:04.996Z</time></trkpt><trkpt lat="44.387525284245335" lon="8.995811622005345"><ele>10.0</ele><time>2026-04-30T12:29:05.996Z</time></trkpt><trkpt lat="44.38758336677764" lon="8.995689714956198"><ele>9.0</ele><time>2026-04-30T12:29:06.996Z</time></trkpt><trkpt lat="44.38764334767033" lon="8.995573676402962"><ele>8.0</ele><time>2026-04-30T12:29:07.996Z</time></trkpt><trkpt lat="44.38769744505364" lon="8.995470260195013"><ele>7.0</ele><time>2026-04-30T12:29:08.995Z</time></trkpt><trkpt lat="44.38774541145293" lon="8.995376911615962"><ele>6.0</ele><time>2026-04-30T12:29:09.995Z</time></trkpt><trkpt lat="44.38778890680588" lon="8.995294351149592"><ele>6.0</ele><time>2026-04-30T12:29:10.995Z</time></trkpt><trkpt lat="44.38784789318197" lon="8.99518797817744"><ele>6.0</ele><time>2026-04-30T12:29:12.995Z</time></trkpt><trkpt lat="44.3878972794831" lon="8.995101259774055"><ele>6.0</ele><time>2026-04-30T12:29:15.995Z</time></trkpt><trkpt lat="44.38798466863848" lon="8.9950556065682"><ele>6.0</ele><time>2026-04-30T12:29:32.995Z</time></trkpt><trkpt lat="44.38804745971982" lon="8.994995988832713"><ele>6.0</ele><time>2026-04-30T12:29:33.995Z</time></trkpt><trkpt lat="44.38811898387593" lon="8.994897495739448"><ele>6.0</ele><time>2026-04-30T12:29:34.995Z</time></trkpt><trkpt lat="44.388208530088626" lon="8.99477421956527"><ele>8.25</ele><time>2026-04-30T12:29:35.995Z</time></trkpt><trkpt lat="44.38831699442449" lon="8.994657380347162"><ele>10.5</ele><time>2026-04-30T12:29:36.995Z</time></trkpt><trkpt lat="44.38841997392543" lon="8.994551133555355"><ele>12.75</ele><time>2026-04-30T12:29:37.995Z</time></trkpt><trkpt lat="44.38852330730207" lon="8.994458678785286"><ele>15.0</ele><time>2026-04-30T12:29:38.995Z</time></trkpt><trkpt lat="44.3886455493109" lon="8.994414937177396"><ele>15.0</ele><time>2026-04-30T12:29:39.995Z</time></trkpt><trkpt lat="44.38877402359707" lon="8.994394498672094"><ele>15.0</ele><time>2026-04-30T12:29:40.995Z</time></trkpt><trkpt lat="44.3889039785457" lon="8.994337744240875"><ele>15.0</ele><time>2026-04-30T12:29:41.995Z</time></trkpt><trkpt lat="44.389037070940596" lon="8.994289044210197"><ele>15.0</ele><time>2026-04-30T12:29:42.995Z</time></trkpt><trkpt lat="44.38916578089872" lon="8.994222709365756"><ele>15.0</ele><time>2026-04-30T12:29:43.995Z</time></trkpt><trkpt lat="44.389301172398575" lon="8.994169409675802"><ele>15.0</ele><time>2026-04-30T12:29:44.995Z</time></trkpt><trkpt lat="44.38940411891748" lon="8.994069677538755"><ele>15.0</ele><time>2026-04-30T12:29:45.995Z</time></trkpt><trkpt lat="44.38949335406527" lon="8.993962236790313"><ele>15.0</ele><time>2026-04-30T12:29:46.995Z</time></trkpt><trkpt lat="44.38956841875026" lon="8.993848547586243"><ele>15.0</ele><time>2026-04-30T12:29:47.995Z</time></trkpt><trkpt lat="44.389626342417515" lon="8.993725733138975"><ele>15.0</ele><time>2026-04-30T12:29:48.995Z</time></trkpt><trkpt lat="44.38967087198601" lon="8.993588343366817"><ele>15.0</ele><time>2026-04-30T12:29:49.995Z</time></trkpt><trkpt lat="44.38969965548725" lon="8.993438100906976"><ele>15.0</ele><time>2026-04-30T12:29:50.995Z</time></trkpt><trkpt lat="44.38972142040367" lon="8.993277898142225"><ele>15.0</ele><time>2026-04-30T12:29:51.995Z</time></trkpt><trkpt lat="44.38973093875649" lon="8.993108204594488"><ele>15.5</ele><time>2026-04-30T12:29:52.995Z</time></trkpt><trkpt lat="44.38972493307937" lon="8.992933299770673"><ele>16.0</ele><time>2026-04-30T12:29:53.995Z</time></trkpt><trkpt lat="44.389701327576965" lon="8.992756774988168"><ele>16.5</ele><time>2026-04-30T12:29:54.994Z</time></trkpt><trkpt lat="44.38967899401382" lon="8.992582250792784"><ele>17.0</ele><time>2026-04-30T12:29:55.994Z</time></trkpt><trkpt lat="44.389658320789465" lon="8.992413054162407"><ele>17.0</ele><time>2026-04-30T12:29:56.994Z</time></trkpt><trkpt lat="44.389648348405395" lon="8.992249319827454"><ele>17.0</ele><time>2026-04-30T12:29:57.994Z</time></trkpt><trkpt lat="44.38965934792646" lon="8.992087138985264"><ele>17.0</ele><time>2026-04-30T12:29:58.994Z</time></trkpt><trkpt lat="44.38969447544601" lon="8.991925896970102"><ele>17.0</ele><time>2026-04-30T12:29:59.994Z</time></trkpt><trkpt lat="44.38974541223853" lon="8.991769253248325"><ele>16.75</ele><time>2026-04-30T12:30:00.994Z</time></trkpt><trkpt lat="44.38981427451557" lon="8.991618552354275"><ele>16.5</ele><time>2026-04-30T12:30:01.994Z</time></trkpt><trkpt lat="44.38987687419539" lon="8.991462300501562"><ele>16.25</ele><time>2026-04-30T12:30:02.994Z</time></trkpt><trkpt lat="44.38993640529946" lon="8.991306722153826"><ele>16.0</ele><time>2026-04-30T12:30:03.994Z</time></trkpt><trkpt lat="44.38999149457243" lon="8.991154588572758"><ele>16.0</ele><time>2026-04-30T12:30:04.994Z</time></trkpt><trkpt lat="44.390052471195844" lon="8.991022188781384"><ele>16.0</ele><time>2026-04-30T12:30:05.994Z</time></trkpt><trkpt lat="44.390103355839244" lon="8.990887142289514"><ele>16.0</ele><time>2026-04-30T12:30:06.994Z</time></trkpt><trkpt lat="44.39018727916297" lon="8.990792621123413"><ele>16.0</ele><time>2026-04-30T12:30:07.994Z</time></trkpt><trkpt lat="44.39029379171189" lon="8.990742112792748"><ele>16.0</ele><time>2026-04-30T12:30:08.994Z</time></trkpt><trkpt lat="44.390399052979085" lon="8.99069419238242"><ele>17.0</ele><time>2026-04-30T12:30:09.994Z</time></trkpt><trkpt lat="44.39049654023968" lon="8.990625631521466"><ele>18.0</ele><time>2026-04-30T12:30:10.994Z</time></trkpt><trkpt lat="44.3905862609674" lon="8.990548180147512"><ele>19.0</ele><time>2026-04-30T12:30:11.994Z</time></trkpt><trkpt lat="44.39067093421457" lon="8.990447861509162"><ele>20.0</ele><time>2026-04-30T12:30:12.994Z</time></trkpt><trkpt lat="44.390736162779966" lon="8.990318559843445"><ele>21.0</ele><time>2026-04-30T12:30:13.994Z</time></trkpt><trkpt lat="44.39077636840586" lon="8.990169469751882"><ele>21.0</ele><time>2026-04-30T12:30:14.994Z</time></trkpt><trkpt lat="44.390818842910676" lon="8.99001713437377"><ele>21.0</ele><time>2026-04-30T12:30:15.994Z</time></trkpt><trkpt lat="44.39086200283597" lon="8.989870678342454"><ele>21.0</ele><time>2026-04-30T12:30:16.994Z</time></trkpt><trkpt lat="44.390898300008075" lon="8.9897290192721"><ele>21.0</ele><time>2026-04-30T12:30:17.994Z</time></trkpt><trkpt lat="44.39093354159849" lon="8.989585724406457"><ele>21.0</ele><time>2026-04-30T12:30:18.994Z</time></trkpt><trkpt lat="44.39097013312173" lon="8.989443251542587"><ele>19.2</ele><time>2026-04-30T12:30:19.994Z</time></trkpt><trkpt lat="44.391012380605424" lon="8.98930052549401"><ele>17.400000000000002</ele><time>2026-04-30T12:30:20.994Z</time></trkpt><trkpt lat="44.39105630438442" lon="8.989157066312664"><ele>15.6</ele><time>2026-04-30T12:30:21.994Z</time></trkpt><trkpt lat="44.39110153812106" lon="8.989010892318941"><ele>13.8</ele><time>2026-04-30T12:30:22.994Z</time></trkpt><trkpt lat="44.39113903188064" lon="8.988865626798013"><ele>12.0</ele><time>2026-04-30T12:30:23.994Z</time></trkpt><trkpt lat="44.39117859893735" lon="8.988724502562302"><ele>11.5</ele><time>2026-04-30T12:30:24.994Z</time></trkpt><trkpt lat="44.39121886412826" lon="8.988594165162233"><ele>11.0</ele><time>2026-04-30T12:30:25.994Z</time></trkpt><trkpt lat="44.391252558674886" lon="8.988473795187355"><ele>10.5</ele><time>2026-04-30T12:30:26.994Z</time></trkpt><trkpt lat="44.39128351513195" lon="8.98835997917894"><ele>10.0</ele><time>2026-04-30T12:30:27.994Z</time></trkpt><trkpt lat="44.391313062987656" lon="8.988256369053545"><ele>9.5</ele><time>2026-04-30T12:30:28.994Z</time></trkpt><trkpt lat="44.3913351542376" lon="8.988162461397225"><ele>9.0</ele><time>2026-04-30T12:30:29.994Z</time></trkpt><trkpt lat="44.39135868635074" lon="8.988071361583259"><ele>10.666666666666666</ele><time>2026-04-30T12:30:30.994Z</time></trkpt><trkpt lat="44.39138355449536" lon="8.98797161455883"><ele>12.333333333333332</ele><time>2026-04-30T12:30:31.994Z</time></trkpt><trkpt lat="44.391412479464165" lon="8.987865296996247"><ele>14.0</ele><time>2026-04-30T12:30:32.994Z</time></trkpt><trkpt lat="44.39144554437238" lon="8.987753768371546"><ele>15.666666666666666</ele><time>2026-04-30T12:30:33.994Z</time></trkpt><trkpt lat="44.39147791285311" lon="8.987633079407967"><ele>17.333333333333332</ele><time>2026-04-30T12:30:34.994Z</time></trkpt><trkpt lat="44.39151141091776" lon="8.987510516724473"><ele>19.0</ele><time>2026-04-30T12:30:35.994Z</time></trkpt><trkpt lat="44.39154596230955" lon="8.987388981349197"><ele>19.0</ele><time>2026-04-30T12:30:36.994Z</time></trkpt><trkpt lat="44.39158647011286" lon="8.987271667567015"><ele>19.0</ele><time>2026-04-30T12:30:37.994Z</time></trkpt><trkpt lat="44.39163001663929" lon="8.987159878083867"><ele>19.0</ele><time>2026-04-30T12:30:38.994Z</time></trkpt><trkpt lat="44.39165928558205" lon="8.98704095343475"><ele>19.0</ele><time>2026-04-30T12:30:39.994Z</time></trkpt><trkpt lat="44.39168790020787" lon="8.986928770002816"><ele>19.0</ele><time>2026-04-30T12:30:40.993Z</time></trkpt><trkpt lat="44.39171961815326" lon="8.986826357558174"><ele>19.0</ele><time>2026-04-30T12:30:41.993Z</time></trkpt><trkpt lat="44.391748742772606" lon="8.986732093503543"><ele>17.833333333333332</ele><time>2026-04-30T12:30:42.993Z</time></trkpt><trkpt lat="44.39178371159603" lon="8.986650269416481"><ele>16.666666666666664</ele><time>2026-04-30T12:30:43.993Z</time></trkpt><trkpt lat="44.39182062750215" lon="8.986571597938793"><ele>15.5</ele><time>2026-04-30T12:30:44.993Z</time></trkpt><trkpt lat="44.391850982773796" lon="8.986488743730602"><ele>14.333333333333332</ele><time>2026-04-30T12:30:45.993Z</time></trkpt><trkpt lat="44.39188041148024" lon="8.986405790005778"><ele>13.166666666666666</ele><time>2026-04-30T12:30:46.993Z</time></trkpt><trkpt lat="44.39191347083598" lon="8.986328750780334"><ele>12.0</ele><time>2026-04-30T12:30:47.993Z</time></trkpt><trkpt lat="44.391972593596876" lon="8.986178512097286"><ele>12.0</ele><time>2026-04-30T12:30:49.993Z</time></trkpt><trkpt lat="44.3920216737508" lon="8.98603190784534"><ele>12.0</ele><time>2026-04-30T12:30:51.993Z</time></trkpt><trkpt lat="44.392069851722106" lon="8.985900341729621"><ele>12.0</ele><time>2026-04-30T12:30:53.993Z</time></trkpt><trkpt lat="44.3921282237441" lon="8.98578325980653"><ele>12.0</ele><time>2026-04-30T12:30:55.993Z</time></trkpt><trkpt lat="44.39219396271946" lon="8.98566063755925"><ele>12.0</ele><time>2026-04-30T12:30:57.993Z</time></trkpt><trkpt lat="44.392260837244336" lon="8.985528572029564"><ele>12.0</ele><time>2026-04-30T12:30:59.993Z</time></trkpt><trkpt lat="44.392327286527845" lon="8.985398018176728"><ele>12.0</ele><time>2026-04-30T12:31:01.993Z</time></trkpt><trkpt lat="44.392393592811175" lon="8.985267199618423"><ele>12.0</ele><time>2026-04-30T12:31:03.993Z</time></trkpt><trkpt lat="44.392472430380934" lon="8.985123168115084"><ele>12.0</ele><time>2026-04-30T12:31:05.993Z</time></trkpt><trkpt lat="44.39251183931793" lon="8.98503963374914"><ele>12.0</ele><time>2026-04-30T12:31:06.993Z</time></trkpt><trkpt lat="44.39255406201865" lon="8.98495247510564"><ele>11.0</ele><time>2026-04-30T12:31:07.993Z</time></trkpt><trkpt lat="44.39259670244139" lon="8.984858100565326"><ele>10.0</ele><time>2026-04-30T12:31:08.993Z</time></trkpt><trkpt lat="44.39264321362244" lon="8.984768993103911"><ele>9.0</ele><time>2026-04-30T12:31:09.993Z</time></trkpt><trkpt lat="44.39268975737788" lon="8.984679766889286"><ele>8.0</ele><time>2026-04-30T12:31:10.993Z</time></trkpt><trkpt lat="44.39273862196024" lon="8.984590781692576"><ele>7.0</ele><time>2026-04-30T12:31:11.993Z</time></trkpt><trkpt lat="44.3927856347526" lon="8.984499391430276"><ele>6.0</ele><time>2026-04-30T12:31:12.993Z</time></trkpt><trkpt lat="44.392832463089206" lon="8.98439943465706"><ele>6.0</ele><time>2026-04-30T12:31:13.993Z</time></trkpt><trkpt lat="44.392887172869216" lon="8.984309751378722"><ele>6.0</ele><time>2026-04-30T12:31:14.993Z</time></trkpt><trkpt lat="44.39294074576975" lon="8.984215878838114"><ele>6.0</ele><time>2026-04-30T12:31:15.993Z</time></trkpt><trkpt lat="44.392991307837136" lon="8.984118744817462"><ele>6.0</ele><time>2026-04-30T12:31:16.993Z</time></trkpt><trkpt lat="44.39304449010193" lon="8.984026458895576"><ele>6.0</ele><time>2026-04-30T12:31:17.993Z</time></trkpt><trkpt lat="44.393091531070795" lon="8.983924726143757"><ele>6.0</ele><time>2026-04-30T12:31:18.993Z</time></trkpt><trkpt lat="44.39313879239889" lon="8.983816695458703"><ele>6.199999999999999</ele><time>2026-04-30T12:31:19.993Z</time></trkpt><trkpt lat="44.39318908049872" lon="8.983709905809809"><ele>6.3999999999999995</ele><time>2026-04-30T12:31:20.993Z</time></trkpt><trkpt lat="44.39324099036573" lon="8.983603404889406"><ele>6.6</ele><time>2026-04-30T12:31:21.993Z</time></trkpt><trkpt lat="44.393287996316886" lon="8.983491100011832"><ele>6.8</ele><time>2026-04-30T12:31:22.993Z</time></trkpt><trkpt lat="44.39333708660829" lon="8.983385335257433"><ele>7.0</ele><time>2026-04-30T12:31:23.993Z</time></trkpt><trkpt lat="44.39338563667241" lon="8.983279923513305"><ele>7.199999999999999</ele><time>2026-04-30T12:31:24.993Z</time></trkpt><trkpt lat="44.39344011973431" lon="8.98317917631891"><ele>7.3999999999999995</ele><time>2026-04-30T12:31:25.993Z</time></trkpt><trkpt lat="44.39349361165745" lon="8.983077041878168"><ele>7.6000000000000005</ele><time>2026-04-30T12:31:26.992Z</time></trkpt><trkpt lat="44.39355675532022" lon="8.982972657980945"><ele>7.800000000000001</ele><time>2026-04-30T12:31:27.992Z</time></trkpt><trkpt lat="44.393610358535945" lon="8.982864177087814"><ele>8.0</ele><time>2026-04-30T12:31:28.992Z</time></trkpt><trkpt lat="44.39365900332587" lon="8.982755208683377"><ele>7.999999999999999</ele><time>2026-04-30T12:31:29.992Z</time></trkpt><trkpt lat="44.39371532184894" lon="8.9826529569601"><ele>8.0</ele><time>2026-04-30T12:31:30.992Z</time></trkpt><trkpt lat="44.393763814799094" lon="8.982553485300233"><ele>8.0</ele><time>2026-04-30T12:31:31.992Z</time></trkpt><trkpt lat="44.39380909909908" lon="8.98246661093472"><ele>8.0</ele><time>2026-04-30T12:31:32.992Z</time></trkpt><trkpt lat="44.393852978492944" lon="8.982395233300622"><ele>7.999999999999999</ele><time>2026-04-30T12:31:33.992Z</time></trkpt><trkpt lat="44.393917133053996" lon="8.982293396207279"><ele>8.0</ele><time>2026-04-30T12:31:35.992Z</time></trkpt><trkpt lat="44.39396233783286" lon="8.982129336732134"><ele>9.600000000000001</ele><time>2026-04-30T12:32:10.992Z</time></trkpt><trkpt lat="44.39398895895391" lon="8.981995674260945"><ele>11.200000000000001</ele><time>2026-04-30T12:32:14.991Z</time></trkpt><trkpt lat="44.394040784491835" lon="8.98186042854922"><ele>12.8</ele><time>2026-04-30T12:32:16.991Z</time></trkpt><trkpt lat="44.394093108096015" lon="8.981704520145186"><ele>14.4</ele><time>2026-04-30T12:32:18.991Z</time></trkpt><trkpt lat="44.39413439782949" lon="8.981614358649205"><ele>16.0</ele><time>2026-04-30T12:32:21Z</time></trkpt><trkpt lat="44.39418476705665" lon="8.98154782290698"><ele>17.0</ele><time>2026-04-30T12:32:29Z</time></trkpt><trkpt lat="44.39422245418782" lon="8.981473169226831"><ele>18.0</ele><time>2026-04-30T12:32:33Z</time></trkpt><trkpt lat="44.394286683770574" lon="8.981297075761557"><ele>19.0</ele><time>2026-04-30T12:32:46Z</time></trkpt><trkpt lat="44.39437974667029" lon="8.981238705824705"><ele>20.0</ele><time>2026-04-30T12:32:48Z</time></trkpt><trkpt lat="44.39443343614487" lon="8.981148480523235"><ele>21.0</ele><time>2026-04-30T12:32:50Z</time></trkpt><trkpt lat="44.39448209927446" lon="8.981057085853655"><ele>21.0</ele><time>2026-04-30T12:32:52Z</time></trkpt><trkpt lat="44.394565516139465" lon="8.980934747410233"><ele>21.0</ele><time>2026-04-30T12:32:53.999Z</time></trkpt><trkpt lat="44.39461679773802" lon="8.98084354979173"><ele>21.0</ele><time>2026-04-30T12:32:54.999Z</time></trkpt><trkpt lat="44.39467599794245" lon="8.98074742078456"><ele>21.0</ele><time>2026-04-30T12:32:55.999Z</time></trkpt><trkpt lat="44.39473350323071" lon="8.98063829042186"><ele>21.0</ele><time>2026-04-30T12:32:56.999Z</time></trkpt><trkpt lat="44.394796137336996" lon="8.980528933742837"><ele>21.4</ele><time>2026-04-30T12:32:57.999Z</time></trkpt><trkpt lat="44.394840318549186" lon="8.98040209246389"><ele>21.8</ele><time>2026-04-30T12:32:58.999Z</time></trkpt><trkpt lat="44.39485634010674" lon="8.98025279016674"><ele>22.2</ele><time>2026-04-30T12:32:59.999Z</time></trkpt><trkpt lat="44.39485590844199" lon="8.980101673432527"><ele>22.599999999999998</ele><time>2026-04-30T12:33:00.999Z</time></trkpt><trkpt lat="44.394855302584475" lon="8.9799511531643"><ele>23.0</ele><time>2026-04-30T12:33:01.999Z</time></trkpt><trkpt lat="44.3948494848264" lon="8.979802783509216"><ele>21.599999999999998</ele><time>2026-04-30T12:33:02.999Z</time></trkpt><trkpt lat="44.3948437397717" lon="8.979655285525036"><ele>20.2</ele><time>2026-04-30T12:33:03.999Z</time></trkpt><trkpt lat="44.394839659729456" lon="8.979506954651377"><ele>18.8</ele><time>2026-04-30T12:33:04.999Z</time></trkpt><trkpt lat="44.39483662536094" lon="8.979357174545523"><ele>17.4</ele><time>2026-04-30T12:33:05.999Z</time></trkpt><trkpt lat="44.39483604981377" lon="8.979205950869751"><ele>16.0</ele><time>2026-04-30T12:33:06.999Z</time></trkpt><trkpt lat="44.394836670575174" lon="8.979053598608665"><ele>16.0</ele><time>2026-04-30T12:33:07.999Z</time></trkpt><trkpt lat="44.39483840582029" lon="8.978893558281252"><ele>16.0</ele><time>2026-04-30T12:33:08.999Z</time></trkpt><trkpt lat="44.39483591419437" lon="8.978734196362208"><ele>16.0</ele><time>2026-04-30T12:33:09.999Z</time></trkpt><trkpt lat="44.3948316446044" lon="8.978577266016014"><ele>16.0</ele><time>2026-04-30T12:33:10.999Z</time></trkpt><trkpt lat="44.39482416337492" lon="8.97841682522819"><ele>19.0</ele><time>2026-04-30T12:33:11.999Z</time></trkpt><trkpt lat="44.39482253884171" lon="8.978253100708377"><ele>22.0</ele><time>2026-04-30T12:33:12.999Z</time></trkpt><trkpt lat="44.39481846791561" lon="8.978091416891417"><ele>25.0</ele><time>2026-04-30T12:33:13.999Z</time></trkpt><trkpt lat="44.39481859762313" lon="8.977932160148402"><ele>28.0</ele><time>2026-04-30T12:33:14.999Z</time></trkpt><trkpt lat="44.39482186651259" lon="8.977777055787426"><ele>28.0</ele><time>2026-04-30T12:33:15.999Z</time></trkpt><trkpt lat="44.39482143160499" lon="8.977628890647793"><ele>27.999999999999996</ele><time>2026-04-30T12:33:16.999Z</time></trkpt><trkpt lat="44.394825632332044" lon="8.977485012058315"><ele>27.999999999999996</ele><time>2026-04-30T12:33:17.999Z</time></trkpt><trkpt lat="44.394825131670046" lon="8.977341577196993"><ele>28.0</ele><time>2026-04-30T12:33:18.999Z</time></trkpt><trkpt lat="44.394831089197304" lon="8.977199293313259"><ele>28.0</ele><time>2026-04-30T12:33:19.999Z</time></trkpt><trkpt lat="44.39483932002701" lon="8.977055524190432"><ele>29.799999999999997</ele><time>2026-04-30T12:33:20.999Z</time></trkpt><trkpt lat="44.39486038144019" lon="8.976910198476729"><ele>31.599999999999998</ele><time>2026-04-30T12:33:21.999Z</time></trkpt><trkpt lat="44.39489108847838" lon="8.97676326921304"><ele>33.400000000000006</ele><time>2026-04-30T12:33:22.999Z</time></trkpt><trkpt lat="44.39493052652411" lon="8.976628904241322"><ele>35.2</ele><time>2026-04-30T12:33:23.999Z</time></trkpt><trkpt lat="44.39497780679494" lon="8.976508031335063"><ele>37.0</ele><time>2026-04-30T12:33:24.999Z</time></trkpt><trkpt lat="44.395018700938174" lon="8.97639073705873"><ele>37.16666666666667</ele><time>2026-04-30T12:33:25.999Z</time></trkpt><trkpt lat="44.39506054512685" lon="8.976297352935836"><ele>37.333333333333336</ele><time>2026-04-30T12:33:26.999Z</time></trkpt><trkpt lat="44.39509796360016" lon="8.976223303653875"><ele>37.5</ele><time>2026-04-30T12:33:27.999Z</time></trkpt><trkpt lat="44.39514268054849" lon="8.97610467030329"><ele>37.666666666666664</ele><time>2026-04-30T12:33:29.999Z</time></trkpt><trkpt lat="44.395183603233434" lon="8.976011453597934"><ele>37.83333333333333</ele><time>2026-04-30T12:33:31.999Z</time></trkpt><trkpt lat="44.395253066649744" lon="8.975966816461446"><ele>38.0</ele><time>2026-04-30T12:33:48.998Z</time></trkpt><trkpt lat="44.39532894720441" lon="8.976010230640455"><ele>38.0</ele><time>2026-04-30T12:33:56.998Z</time></trkpt><trkpt lat="44.39527175127295" lon="8.975959702648872"><ele>38.0</ele><time>2026-04-30T12:34:19.998Z</time></trkpt><trkpt lat="44.395208207052065" lon="8.9759705639647"><ele>38.0</ele><time>2026-04-30T12:34:24.998Z</time></trkpt><trkpt lat="44.39536306881673" lon="8.97581026814486"><ele>38.0</ele><time>2026-04-30T12:34:39.997Z</time></trkpt><trkpt lat="44.39542648637194" lon="8.975684747960273"><ele>38.0</ele><time>2026-04-30T12:34:40.997Z</time></trkpt><trkpt lat="44.395471891493784" lon="8.975533094231606"><ele>38.0</ele><time>2026-04-30T12:34:41.997Z</time></trkpt><trkpt lat="44.39552132739211" lon="8.975365594666526"><ele>38.0</ele><time>2026-04-30T12:34:42.997Z</time></trkpt><trkpt lat="44.39556334240244" lon="8.975180773008908"><ele>38.0</ele><time>2026-04-30T12:34:43.997Z</time></trkpt><trkpt lat="44.395616017609484" lon="8.974996705399684"><ele>38.0</ele><time>2026-04-30T12:34:44.997Z</time></trkpt><trkpt lat="44.39567507824241" lon="8.974838405461568"><ele>38.0</ele><time>2026-04-30T12:34:45.997Z</time></trkpt><trkpt lat="44.39572808220347" lon="8.97468217430527"><ele>38.0</ele><time>2026-04-30T12:34:46.997Z</time></trkpt><trkpt lat="44.395768468620304" lon="8.974525050768948"><ele>38.0</ele><time>2026-04-30T12:34:47.997Z</time></trkpt><trkpt lat="44.39580740723756" lon="8.974362623288647"><ele>38.0</ele><time>2026-04-30T12:34:48.997Z</time></trkpt><trkpt lat="44.395838715718384" lon="8.974195316205789"><ele>38.25</ele><time>2026-04-30T12:34:49.997Z</time></trkpt><trkpt lat="44.39588433928864" lon="8.974033430544106"><ele>38.5</ele><time>2026-04-30T12:34:50.997Z</time></trkpt><trkpt lat="44.39592318134972" lon="8.973857934238723"><ele>38.75</ele><time>2026-04-30T12:34:51.997Z</time></trkpt><trkpt lat="44.39596218452404" lon="8.973676397958242"><ele>39.0</ele><time>2026-04-30T12:34:52.997Z</time></trkpt><trkpt lat="44.396007708227124" lon="8.973495472199271"><ele>38.75</ele><time>2026-04-30T12:34:53.997Z</time></trkpt><trkpt lat="44.39605341975698" lon="8.973310708279483"><ele>38.5</ele><time>2026-04-30T12:34:54.997Z</time></trkpt><trkpt lat="44.39610569556103" lon="8.973131352570674"><ele>38.25</ele><time>2026-04-30T12:34:55.997Z</time></trkpt><trkpt lat="44.39616259676946" lon="8.972941427220853"><ele>38.0</ele><time>2026-04-30T12:34:56.997Z</time></trkpt><trkpt lat="44.39624475411059" lon="8.972779067321323"><ele>38.0</ele><time>2026-04-30T12:34:57.997Z</time></trkpt><trkpt lat="44.39626946934409" lon="8.972600695846031"><ele>38.0</ele><time>2026-04-30T12:34:58.997Z</time></trkpt><trkpt lat="44.39625331291812" lon="8.972422241822413"><ele>38.0</ele><time>2026-04-30T12:34:59.997Z</time></trkpt><trkpt lat="44.39625003832104" lon="8.972239316450107"><ele>38.0</ele><time>2026-04-30T12:35:00.997Z</time></trkpt><trkpt lat="44.39624249282613" lon="8.972056447874985"><ele>38.25</ele><time>2026-04-30T12:35:01.997Z</time></trkpt><trkpt lat="44.39623130295287" lon="8.971868903013673"><ele>38.5</ele><time>2026-04-30T12:35:02.997Z</time></trkpt><trkpt lat="44.39621229301006" lon="8.97168666130858"><ele>38.75</ele><time>2026-04-30T12:35:03.997Z</time></trkpt><trkpt lat="44.39620196611648" lon="8.97150391211698"><ele>39.0</ele><time>2026-04-30T12:35:04.997Z</time></trkpt><trkpt lat="44.39620287954816" lon="8.971316418871096"><ele>39.75</ele><time>2026-04-30T12:35:05.997Z</time></trkpt><trkpt lat="44.39619832428394" lon="8.971131787225797"><ele>40.5</ele><time>2026-04-30T12:35:06.997Z</time></trkpt><trkpt lat="44.396189466518784" lon="8.97096199838335"><ele>41.25</ele><time>2026-04-30T12:35:07.997Z</time></trkpt><trkpt lat="44.3961822639773" lon="8.970807219884007"><ele>42.0</ele><time>2026-04-30T12:35:08.997Z</time></trkpt><trkpt lat="44.396192793378574" lon="8.970652495401552"><ele>42.0</ele><time>2026-04-30T12:35:09.997Z</time></trkpt><trkpt lat="44.39621087325747" lon="8.970492467826602"><ele>42.0</ele><time>2026-04-30T12:35:10.997Z</time></trkpt><trkpt lat="44.39626576424967" lon="8.97034040371746"><ele>42.0</ele><time>2026-04-30T12:35:11.997Z</time></trkpt><trkpt lat="44.39635005322243" lon="8.970208966678989"><ele>42.0</ele><time>2026-04-30T12:35:12.997Z</time></trkpt><trkpt lat="44.396441155213374" lon="8.97008169381612"><ele>41.0</ele><time>2026-04-30T12:35:13.997Z</time></trkpt><trkpt lat="44.39651780265357" lon="8.969939262337755"><ele>40.0</ele><time>2026-04-30T12:35:14.997Z</time></trkpt><trkpt lat="44.39658945306822" lon="8.969794138386892"><ele>39.0</ele><time>2026-04-30T12:35:15.996Z</time></trkpt><trkpt lat="44.396644801959624" lon="8.969641882738413"><ele>38.0</ele><time>2026-04-30T12:35:16.996Z</time></trkpt><trkpt lat="44.39667733558351" lon="8.969490665574574"><ele>38.0</ele><time>2026-04-30T12:35:17.996Z</time></trkpt><trkpt lat="44.39671167978899" lon="8.969363743577421"><ele>38.0</ele><time>2026-04-30T12:35:18.996Z</time></trkpt><trkpt lat="44.39673855488488" lon="8.969241011021385"><ele>38.0</ele><time>2026-04-30T12:35:19.996Z</time></trkpt><trkpt lat="44.39676465886305" lon="8.96912709509417"><ele>38.0</ele><time>2026-04-30T12:35:20.996Z</time></trkpt><trkpt lat="44.39678685600275" lon="8.96902172147941"><ele>38.0</ele><time>2026-04-30T12:35:21.996Z</time></trkpt><trkpt lat="44.39680762639043" lon="8.96893126534397"><ele>38.0</ele><time>2026-04-30T12:35:22.996Z</time></trkpt><trkpt lat="44.39683560054186" lon="8.968787436331082"><ele>38.0</ele><time>2026-04-30T12:35:24.996Z</time></trkpt><trkpt lat="44.396834891822934" lon="8.968675879604161"><ele>38.0</ele><time>2026-04-30T12:35:26.996Z</time></trkpt><trkpt lat="44.39683877159833" lon="8.968584693618395"><ele>38.0</ele><time>2026-04-30T12:35:35.996Z</time></trkpt><trkpt lat="44.39686932263467" lon="8.96842697482485"><ele>38.0</ele><time>2026-04-30T12:35:37.996Z</time></trkpt><trkpt lat="44.396871477036356" lon="8.968329230945534"><ele>38.0</ele><time>2026-04-30T12:35:38.996Z</time></trkpt><trkpt lat="44.39687410612451" lon="8.968227127015542"><ele>38.0</ele><time>2026-04-30T12:35:39.996Z</time></trkpt><trkpt lat="44.39687477288643" lon="8.968120422591406"><ele>38.0</ele><time>2026-04-30T12:35:40.996Z</time></trkpt><trkpt lat="44.396863720984285" lon="8.968007853792846"><ele>38.0</ele><time>2026-04-30T12:35:41.996Z</time></trkpt><trkpt lat="44.39685410941488" lon="8.967887836649956"><ele>38.0</ele><time>2026-04-30T12:35:42.996Z</time></trkpt><trkpt lat="44.3968556915551" lon="8.967751490775417"><ele>38.0</ele><time>2026-04-30T12:35:43.996Z</time></trkpt><trkpt lat="44.39687050224615" lon="8.967603566688423"><ele>38.0</ele><time>2026-04-30T12:35:44.996Z</time></trkpt><trkpt lat="44.396887499197916" lon="8.967447570469362"><ele>38.5</ele><time>2026-04-30T12:35:45.996Z</time></trkpt><trkpt lat="44.396927677571334" lon="8.967290655300824"><ele>39.0</ele><time>2026-04-30T12:35:46.996Z</time></trkpt><trkpt lat="44.397009097605924" lon="8.967140871016952"><ele>39.5</ele><time>2026-04-30T12:35:47.996Z</time></trkpt><trkpt lat="44.397038490232774" lon="8.966971207816691"><ele>40.0</ele><time>2026-04-30T12:35:48.996Z</time></trkpt><trkpt lat="44.39707831383563" lon="8.9667989296231"><ele>40.0</ele><time>2026-04-30T12:35:49.996Z</time></trkpt><trkpt lat="44.3971207097218" lon="8.966628737274286"><ele>40.0</ele><time>2026-04-30T12:35:50.996Z</time></trkpt><trkpt lat="44.3971644615831" lon="8.966459513924589"><ele>40.0</ele><time>2026-04-30T12:35:51.996Z</time></trkpt><trkpt lat="44.39720853963827" lon="8.96629151374315"><ele>40.0</ele><time>2026-04-30T12:35:52.996Z</time></trkpt><trkpt lat="44.397258307142565" lon="8.966130449906679"><ele>41.5</ele><time>2026-04-30T12:35:53.996Z</time></trkpt><trkpt lat="44.39730464899576" lon="8.965970816797146"><ele>43.0</ele><time>2026-04-30T12:35:54.996Z</time></trkpt><trkpt lat="44.39734074454571" lon="8.965795776687164"><ele>44.5</ele><time>2026-04-30T12:35:55.996Z</time></trkpt><trkpt lat="44.397393708711036" lon="8.965630225188127"><ele>46.0</ele><time>2026-04-30T12:35:56.996Z</time></trkpt><trkpt lat="44.3974417761839" lon="8.965462114916852"><ele>46.5</ele><time>2026-04-30T12:35:57.996Z</time></trkpt><trkpt lat="44.39748945474961" lon="8.965298436012802"><ele>47.0</ele><time>2026-04-30T12:35:58.996Z</time></trkpt><trkpt lat="44.39753970260531" lon="8.965136590420043"><ele>47.5</ele><time>2026-04-30T12:35:59.996Z</time></trkpt><trkpt lat="44.39756979616357" lon="8.964963634624082"><ele>48.0</ele><time>2026-04-30T12:36:00.996Z</time></trkpt><trkpt lat="44.397603731927845" lon="8.964798151868466"><ele>47.2</ele><time>2026-04-30T12:36:01.996Z</time></trkpt><trkpt lat="44.397651981166725" lon="8.96464837494655"><ele>46.4</ele><time>2026-04-30T12:36:02.995Z</time></trkpt><trkpt lat="44.39770305791177" lon="8.964501922398405"><ele>45.6</ele><time>2026-04-30T12:36:03.995Z</time></trkpt><trkpt lat="44.39776011254932" lon="8.96436927970033"><ele>44.800000000000004</ele><time>2026-04-30T12:36:04.995Z</time></trkpt><trkpt lat="44.397813720277036" lon="8.964244351883128"><ele>44.0</ele><time>2026-04-30T12:36:05.995Z</time></trkpt><trkpt lat="44.39788093938874" lon="8.964129257014712"><ele>44.0</ele><time>2026-04-30T12:36:06.995Z</time></trkpt><trkpt lat="44.39793631273238" lon="8.964018698980937"><ele>44.0</ele><time>2026-04-30T12:36:07.995Z</time></trkpt><trkpt lat="44.39798071843027" lon="8.963908945404896"><ele>44.0</ele><time>2026-04-30T12:36:08.995Z</time></trkpt><trkpt lat="44.39802538279919" lon="8.963805859532913"><ele>44.0</ele><time>2026-04-30T12:36:09.995Z</time></trkpt><trkpt lat="44.39807093835683" lon="8.963709708693804"><ele>44.0</ele><time>2026-04-30T12:36:10.995Z</time></trkpt><trkpt lat="44.3981079078627" lon="8.963616691297833"><ele>44.0</ele><time>2026-04-30T12:36:11.995Z</time></trkpt><trkpt lat="44.39814101316332" lon="8.963526688115028"><ele>43.85714285714286</ele><time>2026-04-30T12:36:12.995Z</time></trkpt><trkpt lat="44.39817562755044" lon="8.96344053649684"><ele>43.714285714285715</ele><time>2026-04-30T12:36:13.995Z</time></trkpt><trkpt lat="44.39821218516899" lon="8.963354611529402"><ele>43.57142857142857</ele><time>2026-04-30T12:36:14.995Z</time></trkpt><trkpt lat="44.39826020198572" lon="8.96327330379436"><ele>43.42857142857143</ele><time>2026-04-30T12:36:15.995Z</time></trkpt><trkpt lat="44.39831761520267" lon="8.96321019006473"><ele>43.285714285714285</ele><time>2026-04-30T12:36:16.995Z</time></trkpt><trkpt lat="44.39837601003517" lon="8.96315014162212"><ele>43.142857142857146</ele><time>2026-04-30T12:36:17.995Z</time></trkpt><trkpt lat="44.39844071993926" lon="8.963081292135685"><ele>43.0</ele><time>2026-04-30T12:36:18.995Z</time></trkpt><trkpt lat="44.398499540187835" lon="8.963042093443185"><ele>43.0</ele><time>2026-04-30T12:36:19.995Z</time></trkpt><trkpt lat="44.398600863673195" lon="8.962981845242076"><ele>43.0</ele><time>2026-04-30T12:36:21.995Z</time></trkpt><trkpt lat="44.398678178181605" lon="8.962908582942957"><ele>43.0</ele><time>2026-04-30T12:36:23.995Z</time></trkpt><trkpt lat="44.39874987133741" lon="8.96281971917754"><ele>43.0</ele><time>2026-04-30T12:36:25.995Z</time></trkpt><trkpt lat="44.39883398019781" lon="8.962695321576382"><ele>43.0</ele><time>2026-04-30T12:36:27.995Z</time></trkpt><trkpt lat="44.3988837287568" lon="8.962620262901757"><ele>42.599999999999994</ele><time>2026-04-30T12:36:28.995Z</time></trkpt><trkpt lat="44.398928809558896" lon="8.96254548275732"><ele>42.199999999999996</ele><time>2026-04-30T12:36:29.995Z</time></trkpt><trkpt lat="44.39900848529424" lon="8.962412871395847"><ele>41.8</ele><time>2026-04-30T12:36:31.995Z</time></trkpt><trkpt lat="44.3990759647569" lon="8.962283549585896"><ele>41.4</ele><time>2026-04-30T12:36:33.995Z</time></trkpt><trkpt lat="44.39914084099209" lon="8.962143667481019"><ele>41.0</ele><time>2026-04-30T12:36:35.995Z</time></trkpt><trkpt lat="44.399193248809915" lon="8.96198484703906"><ele>41.0</ele><time>2026-04-30T12:36:37.995Z</time></trkpt><trkpt lat="44.39920010640428" lon="8.961873367296638"><ele>41.0</ele><time>2026-04-30T12:36:38.995Z</time></trkpt><trkpt lat="44.39920483842307" lon="8.961741209902165"><ele>41.0</ele><time>2026-04-30T12:36:39.995Z</time></trkpt><trkpt lat="44.399213222692104" lon="8.961604365531768"><ele>41.0</ele><time>2026-04-30T12:36:40.995Z</time></trkpt><trkpt lat="44.39924386772007" lon="8.961475866501425"><ele>41.0</ele><time>2026-04-30T12:36:41.995Z</time></trkpt><trkpt lat="44.39929113211029" lon="8.961347767427963"><ele>41.4</ele><time>2026-04-30T12:36:42.995Z</time></trkpt><trkpt lat="44.399323340713345" lon="8.961204858151328"><ele>41.8</ele><time>2026-04-30T12:36:43.995Z</time></trkpt><trkpt lat="44.39935619970911" lon="8.961072397076022"><ele>42.199999999999996</ele><time>2026-04-30T12:36:44.995Z</time></trkpt><trkpt lat="44.39938182704185" lon="8.96094239086244"><ele>42.599999999999994</ele><time>2026-04-30T12:36:45.995Z</time></trkpt><trkpt lat="44.39939878100828" lon="8.960809532168703"><ele>43.0</ele><time>2026-04-30T12:36:46.995Z</time></trkpt><trkpt lat="44.399419357146215" lon="8.9606775293441"><ele>44.4</ele><time>2026-04-30T12:36:47.995Z</time></trkpt><trkpt lat="44.39945599261829" lon="8.960551038255737"><ele>45.8</ele><time>2026-04-30T12:36:48.995Z</time></trkpt><trkpt lat="44.39949775468903" lon="8.96042959650613"><ele>47.2</ele><time>2026-04-30T12:36:49.994Z</time></trkpt><trkpt lat="44.399556758762074" lon="8.960324224057663"><ele>48.6</ele><time>2026-04-30T12:36:50.994Z</time></trkpt><trkpt lat="44.399593671676854" lon="8.960211138174833"><ele>50.0</ele><time>2026-04-30T12:36:51.994Z</time></trkpt><trkpt lat="44.399624065737136" lon="8.960098554900126"><ele>50.50000000000001</ele><time>2026-04-30T12:36:52.994Z</time></trkpt><trkpt lat="44.39966129746324" lon="8.959988427050751"><ele>51.0</ele><time>2026-04-30T12:36:53.994Z</time></trkpt><trkpt lat="44.39969675468627" lon="8.959882013036443"><ele>51.5</ele><time>2026-04-30T12:36:54.994Z</time></trkpt><trkpt lat="44.39972538849302" lon="8.959783123939058"><ele>52.0</ele><time>2026-04-30T12:36:55.994Z</time></trkpt><trkpt lat="44.39974983606884" lon="8.959692172459789"><ele>52.50000000000001</ele><time>2026-04-30T12:36:56.994Z</time></trkpt><trkpt lat="44.39978557615919" lon="8.959616274267786"><ele>53.0</ele><time>2026-04-30T12:36:57.994Z</time></trkpt><trkpt lat="44.39983077850657" lon="8.959476624327438"><ele>53.0</ele><time>2026-04-30T12:36:59.994Z</time></trkpt><trkpt lat="44.39986582684605" lon="8.959305331239658"><ele>53.0</ele><time>2026-04-30T12:37:01.994Z</time></trkpt><trkpt lat="44.39990128408875" lon="8.959209665359245"><ele>53.0</ele><time>2026-04-30T12:37:02.994Z</time></trkpt><trkpt lat="44.399915603961155" lon="8.959100067097108"><ele>53.0</ele><time>2026-04-30T12:37:03.994Z</time></trkpt><trkpt lat="44.39996054190204" lon="8.958969720225907"><ele>53.0</ele><time>2026-04-30T12:37:04.994Z</time></trkpt><trkpt lat="44.40001157328183" lon="8.95880538292162"><ele>53.0</ele><time>2026-04-30T12:37:05.994Z</time></trkpt><trkpt lat="44.40004958752407" lon="8.95863243782727"><ele>53.0</ele><time>2026-04-30T12:37:06.994Z</time></trkpt><trkpt lat="44.4000878669686" lon="8.95843128863897"><ele>53.0</ele><time>2026-04-30T12:37:07.994Z</time></trkpt><trkpt lat="44.40011938966334" lon="8.958215540584376"><ele>53.0</ele><time>2026-04-30T12:37:08.994Z</time></trkpt><trkpt lat="44.40015596086356" lon="8.957973932711223"><ele>53.0</ele><time>2026-04-30T12:37:09.994Z</time></trkpt><trkpt lat="44.40021299251575" lon="8.957775425559516"><ele>53.0</ele><time>2026-04-30T12:37:10.994Z</time></trkpt><trkpt lat="44.40027470129846" lon="8.957592248848066"><ele>53.0</ele><time>2026-04-30T12:37:11.994Z</time></trkpt><trkpt lat="44.40033361447776" lon="8.95741709452564"><ele>53.0</ele><time>2026-04-30T12:37:12.994Z</time></trkpt><trkpt lat="44.400372186294696" lon="8.957248765786607"><ele>53.25</ele><time>2026-04-30T12:37:13.994Z</time></trkpt><trkpt lat="44.40041937795091" lon="8.957084536186509"><ele>53.5</ele><time>2026-04-30T12:37:14.994Z</time></trkpt><trkpt lat="44.400467958295565" lon="8.956909145002738"><ele>53.75</ele><time>2026-04-30T12:37:15.994Z</time></trkpt><trkpt lat="44.4005202642212" lon="8.956733156220034"><ele>54.0</ele><time>2026-04-30T12:37:16.994Z</time></trkpt><trkpt lat="44.40056995552263" lon="8.956552679667006"><ele>52.0</ele><time>2026-04-30T12:37:17.994Z</time></trkpt><trkpt lat="44.40061340688376" lon="8.95640394225327"><ele>50.00000000000001</ele><time>2026-04-30T12:37:18.994Z</time></trkpt><trkpt lat="44.40065524920361" lon="8.956261809225257"><ele>48.0</ele><time>2026-04-30T12:37:19.994Z</time></trkpt><trkpt lat="44.40069004952883" lon="8.956137451045318"><ele>46.0</ele><time>2026-04-30T12:37:20.994Z</time></trkpt><trkpt lat="44.40074395549108" lon="8.956025727819522"><ele>44.0</ele><time>2026-04-30T12:37:21.994Z</time></trkpt><trkpt lat="44.400824548968224" lon="8.95593785510629"><ele>44.0</ele><time>2026-04-30T12:37:22.994Z</time></trkpt><trkpt lat="44.40090767885646" lon="8.955869897796426"><ele>44.0</ele><time>2026-04-30T12:37:23.994Z</time></trkpt><trkpt lat="44.401009987594826" lon="8.955846215638779"><ele>44.0</ele><time>2026-04-30T12:37:24.994Z</time></trkpt><trkpt lat="44.40112034410415" lon="8.955868074755013"><ele>44.0</ele><time>2026-04-30T12:37:25.994Z</time></trkpt><trkpt lat="44.40121854470914" lon="8.955881975319722"><ele>44.0</ele><time>2026-04-30T12:37:26.994Z</time></trkpt><trkpt lat="44.40130583536058" lon="8.955867204530628"><ele>45.2</ele><time>2026-04-30T12:37:27.994Z</time></trkpt><trkpt lat="44.40139728045638" lon="8.955862808594377"><ele>46.400000000000006</ele><time>2026-04-30T12:37:28.994Z</time></trkpt><trkpt lat="44.401495357037255" lon="8.955867337850663"><ele>47.6</ele><time>2026-04-30T12:37:29.994Z</time></trkpt><trkpt lat="44.401594933110644" lon="8.955878104356994"><ele>48.8</ele><time>2026-04-30T12:37:30.994Z</time></trkpt><trkpt lat="44.40168956558574" lon="8.9558822394278"><ele>50.0</ele><time>2026-04-30T12:37:31.994Z</time></trkpt><trkpt lat="44.40178930870195" lon="8.955883758460281"><ele>50.0</ele><time>2026-04-30T12:37:32.994Z</time></trkpt><trkpt lat="44.40189133704635" lon="8.955894977639902"><ele>50.0</ele><time>2026-04-30T12:37:33.994Z</time></trkpt><trkpt lat="44.40198513983861" lon="8.955903124825948"><ele>50.0</ele><time>2026-04-30T12:37:34.994Z</time></trkpt><trkpt lat="44.40208820213229" lon="8.955921104766361"><ele>50.0</ele><time>2026-04-30T12:37:35.994Z</time></trkpt><trkpt lat="44.40217409953716" lon="8.955949660089809"><ele>50.0</ele><time>2026-04-30T12:37:36.993Z</time></trkpt><trkpt lat="44.40224941627753" lon="8.955982255090731"><ele>49.2</ele><time>2026-04-30T12:37:37.993Z</time></trkpt><trkpt lat="44.40232979042186" lon="8.956036794809615"><ele>48.4</ele><time>2026-04-30T12:37:38.993Z</time></trkpt><trkpt lat="44.40241426709841" lon="8.95611464704524"><ele>47.599999999999994</ele><time>2026-04-30T12:37:39.993Z</time></trkpt><trkpt lat="44.402485400787896" lon="8.956201144903137"><ele>46.8</ele><time>2026-04-30T12:37:40.993Z</time></trkpt><trkpt lat="44.40255266280535" lon="8.956296007655595"><ele>46.0</ele><time>2026-04-30T12:37:41.993Z</time></trkpt><trkpt lat="44.402620235899875" lon="8.956387713021973"><ele>46.0</ele><time>2026-04-30T12:37:42.993Z</time></trkpt><trkpt lat="44.40268737634774" lon="8.956484534314963"><ele>46.0</ele><time>2026-04-30T12:37:43.993Z</time></trkpt><trkpt lat="44.40275953973479" lon="8.95658187835373"><ele>46.0</ele><time>2026-04-30T12:37:44.993Z</time></trkpt><trkpt lat="44.4028335254481" lon="8.956682104251506"><ele>46.0</ele><time>2026-04-30T12:37:45.993Z</time></trkpt><trkpt lat="44.40290069231759" lon="8.956779202376808"><ele>46.0</ele><time>2026-04-30T12:37:46.993Z</time></trkpt><trkpt lat="44.402965661467015" lon="8.95686838750038"><ele>46.66666666666667</ele><time>2026-04-30T12:37:47.993Z</time></trkpt><trkpt lat="44.40303264459577" lon="8.95695532949351"><ele>47.333333333333336</ele><time>2026-04-30T12:37:48.993Z</time></trkpt><trkpt lat="44.40309653855485" lon="8.957010211180533"><ele>48.0</ele><time>2026-04-30T12:37:49.993Z</time></trkpt><trkpt lat="44.40316683650619" lon="8.957026809118467"><ele>48.66666666666667</ele><time>2026-04-30T12:37:50.993Z</time></trkpt><trkpt lat="44.40323654981653" lon="8.957015584129481"><ele>49.333333333333336</ele><time>2026-04-30T12:37:51.993Z</time></trkpt><trkpt lat="44.40330122157566" lon="8.956962315819469"><ele>50.0</ele><time>2026-04-30T12:37:52.993Z</time></trkpt><trkpt lat="44.40336044284117" lon="8.956918551935953"><ele>50.0</ele><time>2026-04-30T12:37:53.993Z</time></trkpt><trkpt lat="44.40346666434391" lon="8.956942659892055"><ele>50.0</ele><time>2026-04-30T12:37:55.993Z</time></trkpt><trkpt lat="44.40352793159319" lon="8.957019621111217"><ele>50.0</ele><time>2026-04-30T12:37:57.993Z</time></trkpt><trkpt lat="44.403621500100094" lon="8.95715371059727"><ele>50.0</ele><time>2026-04-30T12:37:59.993Z</time></trkpt><trkpt lat="44.403672518803575" lon="8.95722392714454"><ele>50.0</ele><time>2026-04-30T12:38:00.993Z</time></trkpt><trkpt lat="44.4037285917191" lon="8.95730548475387"><ele>50.00000000000001</ele><time>2026-04-30T12:38:01.993Z</time></trkpt><trkpt lat="44.403790879688124" lon="8.957390317861856"><ele>50.0</ele><time>2026-04-30T12:38:02.993Z</time></trkpt><trkpt lat="44.40385109120035" lon="8.957473981013218"><ele>50.0</ele><time>2026-04-30T12:38:03.993Z</time></trkpt><trkpt lat="44.40391036755753" lon="8.957561905592359"><ele>50.0</ele><time>2026-04-30T12:38:04.993Z</time></trkpt><trkpt lat="44.40396519930631" lon="8.95764354224984"><ele>50.00000000000001</ele><time>2026-04-30T12:38:05.993Z</time></trkpt><trkpt lat="44.40401453991585" lon="8.957727515975888"><ele>50.0</ele><time>2026-04-30T12:38:06.993Z</time></trkpt><trkpt lat="44.40406752262836" lon="8.957826189933638"><ele>48.00000000000001</ele><time>2026-04-30T12:38:07.993Z</time></trkpt><trkpt lat="44.404117924810016" lon="8.95792002577769"><ele>46.0</ele><time>2026-04-30T12:38:08.993Z</time></trkpt><trkpt lat="44.404159395919436" lon="8.95801206860749"><ele>44.0</ele><time>2026-04-30T12:38:09.993Z</time></trkpt><trkpt lat="44.40419076711613" lon="8.958101521771571"><ele>42.0</ele><time>2026-04-30T12:38:10.993Z</time></trkpt><trkpt lat="44.40422444628588" lon="8.958193544607502"><ele>40.0</ele><time>2026-04-30T12:38:11.993Z</time></trkpt><trkpt lat="44.404235304163706" lon="8.958288781458078"><ele>38.00000000000001</ele><time>2026-04-30T12:38:12.993Z</time></trkpt><trkpt lat="44.40424189105741" lon="8.958385897390192"><ele>36.0</ele><time>2026-04-30T12:38:13.993Z</time></trkpt><trkpt lat="44.40424251150532" lon="8.958486162738536"><ele>36.00000000000001</ele><time>2026-04-30T12:38:14.993Z</time></trkpt><trkpt lat="44.404233756137764" lon="8.95857924669401"><ele>36.0</ele><time>2026-04-30T12:38:15.993Z</time></trkpt><trkpt lat="44.404239100321426" lon="8.95867479918018"><ele>36.0</ele><time>2026-04-30T12:38:16.993Z</time></trkpt><trkpt lat="44.404259948890505" lon="8.958822796773724"><ele>36.0</ele><time>2026-04-30T12:38:18.993Z</time></trkpt><trkpt lat="44.40432084577251" lon="8.958868707674213"><ele>36.0</ele><time>2026-04-30T12:38:20.993Z</time></trkpt><trkpt lat="44.40438939884099" lon="8.958855713540611"><ele>36.00000000000001</ele><time>2026-04-30T12:38:24.992Z</time></trkpt><trkpt lat="44.40445227036453" lon="8.958871818495789"><ele>36.0</ele><time>2026-04-30T12:38:44.992Z</time></trkpt><trkpt lat="44.40450334347932" lon="8.958928113311485"><ele>36.0</ele><time>2026-04-30T12:38:56.992Z</time></trkpt><trkpt lat="44.40457629547904" lon="8.95892846094299"><ele>36.0</ele><time>2026-04-30T12:39:12.991Z</time></trkpt><trkpt lat="44.404646165607836" lon="8.958943811655804"><ele>36.0</ele><time>2026-04-30T12:39:39Z</time></trkpt><trkpt lat="44.40475897339169" lon="8.958964784793015"><ele>36.0</ele><time>2026-04-30T12:39:41Z</time></trkpt><trkpt lat="44.40482617100521" lon="8.958960622215377"><ele>36.0</ele><time>2026-04-30T12:39:43Z</time></trkpt><trkpt lat="44.40485962477638" lon="8.95883730531638"><ele>36.0</ele><time>2026-04-30T12:39:45Z</time></trkpt><trkpt lat="44.4048607589504" lon="8.95872961819929"><ele>32.2</ele><time>2026-04-30T12:39:45.999Z</time></trkpt><trkpt lat="44.404857246720816" lon="8.958612554385109"><ele>28.400000000000002</ele><time>2026-04-30T12:39:46.999Z</time></trkpt><trkpt lat="44.40486214414573" lon="8.958488223423224"><ele>24.6</ele><time>2026-04-30T12:39:47.999Z</time></trkpt><trkpt lat="44.40486415144647" lon="8.958355054059059"><ele>20.8</ele><time>2026-04-30T12:39:48.999Z</time></trkpt><trkpt lat="44.40486877255609" lon="8.958221511744554"><ele>17.0</ele><time>2026-04-30T12:39:49.999Z</time></trkpt><trkpt lat="44.40487478766123" lon="8.958071814378133"><ele>16.5</ele><time>2026-04-30T12:39:50.999Z</time></trkpt><trkpt lat="44.40488019398208" lon="8.957913628930644"><ele>16.0</ele><time>2026-04-30T12:39:51.999Z</time></trkpt><trkpt lat="44.404882730377246" lon="8.957749452806855"><ele>15.5</ele><time>2026-04-30T12:39:52.999Z</time></trkpt><trkpt lat="44.40488563415184" lon="8.957579664406431"><ele>15.0</ele><time>2026-04-30T12:39:53.999Z</time></trkpt><trkpt lat="44.40488929603546" lon="8.95740170636581"><ele>15.0</ele><time>2026-04-30T12:39:54.999Z</time></trkpt><trkpt lat="44.40489146519928" lon="8.957217307149762"><ele>15.0</ele><time>2026-04-30T12:39:55.999Z</time></trkpt><trkpt lat="44.40489364423441" lon="8.957029965014222"><ele>15.0</ele><time>2026-04-30T12:39:56.999Z</time></trkpt><trkpt lat="44.404892458289225" lon="8.956844171771586"><ele>15.0</ele><time>2026-04-30T12:39:57.999Z</time></trkpt><trkpt lat="44.40488851247134" lon="8.956661731040608"><ele>14.75</ele><time>2026-04-30T12:39:58.999Z</time></trkpt><trkpt lat="44.404886854238654" lon="8.956482763830545"><ele>14.5</ele><time>2026-04-30T12:39:59.999Z</time></trkpt><trkpt lat="44.40488289415755" lon="8.956303967109637"><ele>14.25</ele><time>2026-04-30T12:40:00.999Z</time></trkpt><trkpt lat="44.40488282981163" lon="8.956130361617966"><ele>14.0</ele><time>2026-04-30T12:40:01.999Z</time></trkpt><trkpt lat="44.40488338156215" lon="8.955959389592525"><ele>14.0</ele><time>2026-04-30T12:40:02.999Z</time></trkpt><trkpt lat="44.40487961875418" lon="8.955789098785793"><ele>14.0</ele><time>2026-04-30T12:40:03.999Z</time></trkpt><trkpt lat="44.40487598497931" lon="8.955619032048965"><ele>14.0</ele><time>2026-04-30T12:40:04.999Z</time></trkpt><trkpt lat="44.40487302131207" lon="8.955449377681854"><ele>14.0</ele><time>2026-04-30T12:40:05.999Z</time></trkpt><trkpt lat="44.40487437767965" lon="8.95528641290312"><ele>14.0</ele><time>2026-04-30T12:40:06.999Z</time></trkpt><trkpt lat="44.40487458582082" lon="8.955129365700374"><ele>13.999999999999998</ele><time>2026-04-30T12:40:07.999Z</time></trkpt><trkpt lat="44.404871830423936" lon="8.954979555726394"><ele>13.999999999999998</ele><time>2026-04-30T12:40:08.999Z</time></trkpt><trkpt lat="44.40487077869924" lon="8.954837277601293"><ele>14.0</ele><time>2026-04-30T12:40:09.999Z</time></trkpt><trkpt lat="44.404865229153714" lon="8.95469891269156"><ele>14.0</ele><time>2026-04-30T12:40:10.999Z</time></trkpt><trkpt lat="44.40486375572702" lon="8.954569362601193"><ele>13.833333333333334</ele><time>2026-04-30T12:40:11.999Z</time></trkpt><trkpt lat="44.404862983348956" lon="8.954446281253325"><ele>13.666666666666668</ele><time>2026-04-30T12:40:12.999Z</time></trkpt><trkpt lat="44.404860645458" lon="8.954327316128706"><ele>13.5</ele><time>2026-04-30T12:40:13.999Z</time></trkpt><trkpt lat="44.40486136481381" lon="8.954214586676331"><ele>13.333333333333332</ele><time>2026-04-30T12:40:14.999Z</time></trkpt><trkpt lat="44.40485982059841" lon="8.954106022580904"><ele>13.166666666666666</ele><time>2026-04-30T12:40:15.999Z</time></trkpt><trkpt lat="44.40486176099656" lon="8.954000807614644"><ele>13.0</ele><time>2026-04-30T12:40:16.999Z</time></trkpt><trkpt lat="44.40486551492338" lon="8.95389827783967"><ele>12.714285714285714</ele><time>2026-04-30T12:40:17.999Z</time></trkpt><trkpt lat="44.40486673793995" lon="8.953798874863377"><ele>12.428571428571429</ele><time>2026-04-30T12:40:18.999Z</time></trkpt><trkpt lat="44.40486711131449" lon="8.953698006596145"><ele>12.142857142857142</ele><time>2026-04-30T12:40:19.999Z</time></trkpt><trkpt lat="44.404867908732676" lon="8.953596981815004"><ele>11.857142857142858</ele><time>2026-04-30T12:40:20.999Z</time></trkpt><trkpt lat="44.40486943029024" lon="8.953494706152844"><ele>11.571428571428571</ele><time>2026-04-30T12:40:21.999Z</time></trkpt><trkpt lat="44.404870548230384" lon="8.953391492661094"><ele>11.285714285714286</ele><time>2026-04-30T12:40:22.999Z</time></trkpt><trkpt lat="44.404876617025096" lon="8.953292837220149"><ele>11.0</ele><time>2026-04-30T12:40:23.999Z</time></trkpt><trkpt lat="44.40486141506202" lon="8.95319547036992"><ele>11.0</ele><time>2026-04-30T12:40:24.999Z</time></trkpt><trkpt lat="44.4048608953074" lon="8.953099169183899"><ele>11.0</ele><time>2026-04-30T12:40:25.999Z</time></trkpt><trkpt lat="44.40488454407483" lon="8.952961811492843"><ele>11.0</ele><time>2026-04-30T12:40:27.999Z</time></trkpt><trkpt lat="44.404900688925544" lon="8.952851542550029"><ele>11.0</ele><time>2026-04-30T12:40:29.999Z</time></trkpt><trkpt lat="44.404908915384844" lon="8.952750927341874"><ele>11.0</ele><time>2026-04-30T12:40:32.999Z</time></trkpt><trkpt lat="44.40493513931526" lon="8.95264349584903"><ele>11.0</ele><time>2026-04-30T12:41:02.998Z</time></trkpt><trkpt lat="44.404954616174784" lon="8.952526212794874"><ele>11.0</ele><time>2026-04-30T12:41:05.998Z</time></trkpt><trkpt lat="44.404973201066994" lon="8.952415853894214"><ele>11.0</ele><time>2026-04-30T12:41:08.998Z</time></trkpt><trkpt lat="44.404983472222185" lon="8.952321008896364"><ele>11.0</ele><time>2026-04-30T12:41:12.998Z</time></trkpt><trkpt lat="44.40533293725296" lon="8.952324878648994"><ele>11.0</ele><time>2026-04-30T12:41:22.997Z</time></trkpt><trkpt lat="44.40547526510122" lon="8.952383071648256"><ele>11.0</ele><time>2026-04-30T12:41:23.997Z</time></trkpt><trkpt lat="44.405608792016835" lon="8.95243562336125"><ele>11.0</ele><time>2026-04-30T12:41:24.997Z</time></trkpt><trkpt lat="44.40575818334752" lon="8.95251664863795"><ele>11.0</ele><time>2026-04-30T12:41:25.997Z</time></trkpt><trkpt lat="44.405954963350126" lon="8.95266127647501"><ele>11.5</ele><time>2026-04-30T12:41:26.997Z</time></trkpt><trkpt lat="44.406086389216874" lon="8.952739313842946"><ele>12.0</ele><time>2026-04-30T12:41:27.997Z</time></trkpt><trkpt lat="44.40619588883688" lon="8.952793707469397"><ele>12.5</ele><time>2026-04-30T12:41:28.997Z</time></trkpt><trkpt lat="44.406293094253726" lon="8.952844513962233"><ele>13.0</ele><time>2026-04-30T12:41:29.997Z</time></trkpt><trkpt lat="44.40643263012695" lon="8.952947971618753"><ele>13.166666666666666</ele><time>2026-04-30T12:41:30.997Z</time></trkpt><trkpt lat="44.406519763857155" lon="8.95300913431969"><ele>13.333333333333332</ele><time>2026-04-30T12:41:31.997Z</time></trkpt><trkpt lat="44.40658222423229" lon="8.953046987941132"><ele>13.5</ele><time>2026-04-30T12:41:32.997Z</time></trkpt><trkpt lat="44.406666218344895" lon="8.95309312165266"><ele>13.666666666666668</ele><time>2026-04-30T12:41:34.997Z</time></trkpt><trkpt lat="44.40672648736908" lon="8.953128855438946"><ele>13.833333333333334</ele><time>2026-04-30T12:41:37.997Z</time></trkpt><trkpt lat="44.406829412053426" lon="8.9531450408427"><ele>14.0</ele><time>2026-04-30T12:41:42.997Z</time></trkpt><trkpt lat="44.40693269452215" lon="8.953188999237224"><ele>14.000000000000002</ele><time>2026-04-30T12:41:44.997Z</time></trkpt><trkpt lat="44.407071058901984" lon="8.953232291779559"><ele>14.0</ele><time>2026-04-30T12:41:46.997Z</time></trkpt><trkpt lat="44.407149479584234" lon="8.953252396170905"><ele>14.0</ele><time>2026-04-30T12:41:47.997Z</time></trkpt><trkpt lat="44.407217573018286" lon="8.953268594123557"><ele>14.0</ele><time>2026-04-30T12:41:48.997Z</time></trkpt><trkpt lat="44.40728112862753" lon="8.953289612407543"><ele>14.000000000000002</ele><time>2026-04-30T12:41:49.997Z</time></trkpt><trkpt lat="44.407343352680954" lon="8.953310326754536"><ele>14.0</ele><time>2026-04-30T12:41:50.997Z</time></trkpt><trkpt lat="44.40742198025359" lon="8.953338507088606"><ele>14.399999999999999</ele><time>2026-04-30T12:41:51.997Z</time></trkpt><trkpt lat="44.407514442347846" lon="8.953374189927512"><ele>14.799999999999999</ele><time>2026-04-30T12:41:52.997Z</time></trkpt><trkpt lat="44.407621599355586" lon="8.953426877702446"><ele>15.200000000000001</ele><time>2026-04-30T12:41:53.997Z</time></trkpt><trkpt lat="44.407715246826" lon="8.953478004349725"><ele>15.600000000000001</ele><time>2026-04-30T12:41:54.997Z</time></trkpt><trkpt lat="44.407812636217315" lon="8.953523961725121"><ele>16.0</ele><time>2026-04-30T12:41:55.997Z</time></trkpt><trkpt lat="44.40790850029885" lon="8.95356414633635"><ele>15.5</ele><time>2026-04-30T12:41:56.997Z</time></trkpt><trkpt lat="44.40801075653815" lon="8.953603686243023"><ele>15.0</ele><time>2026-04-30T12:41:57.997Z</time></trkpt><trkpt lat="44.40811956231942" lon="8.953653442680933"><ele>14.5</ele><time>2026-04-30T12:41:58.997Z</time></trkpt><trkpt lat="44.40822928086276" lon="8.953701525428853"><ele>14.0</ele><time>2026-04-30T12:41:59.997Z</time></trkpt><trkpt lat="44.40834420758053" lon="8.953761495091296"><ele>14.0</ele><time>2026-04-30T12:42:00.997Z</time></trkpt><trkpt lat="44.40847062842264" lon="8.953822831236954"><ele>14.0</ele><time>2026-04-30T12:42:01.997Z</time></trkpt><trkpt lat="44.408591808219136" lon="8.953885100637988"><ele>14.0</ele><time>2026-04-30T12:42:02.997Z</time></trkpt><trkpt lat="44.40871789570051" lon="8.953952004711793"><ele>14.0</ele><time>2026-04-30T12:42:03.997Z</time></trkpt><trkpt lat="44.40884278695439" lon="8.954012198786286"><ele>14.0</ele><time>2026-04-30T12:42:04.997Z</time></trkpt><trkpt lat="44.40896357642761" lon="8.954064154129473"><ele>13.999999999999998</ele><time>2026-04-30T12:42:05.997Z</time></trkpt><trkpt lat="44.40906936811701" lon="8.954111768015238"><ele>13.999999999999998</ele><time>2026-04-30T12:42:06.997Z</time></trkpt><trkpt lat="44.409150165269224" lon="8.954148359157566"><ele>14.0</ele><time>2026-04-30T12:42:07.997Z</time></trkpt><trkpt lat="44.40921769060656" lon="8.954178792445335"><ele>14.0</ele><time>2026-04-30T12:42:08.997Z</time></trkpt><trkpt lat="44.40928405905787" lon="8.95420560653954"><ele>14.000000000000002</ele><time>2026-04-30T12:42:09.996Z</time></trkpt><trkpt lat="44.409354595586215" lon="8.954228183429167"><ele>14.0</ele><time>2026-04-30T12:42:10.996Z</time></trkpt><trkpt lat="44.409431570963584" lon="8.95425678166337"><ele>14.0</ele><time>2026-04-30T12:42:11.996Z</time></trkpt><trkpt lat="44.40951355724729" lon="8.954291716317384"><ele>14.0</ele><time>2026-04-30T12:42:12.996Z</time></trkpt><trkpt lat="44.40960353947305" lon="8.954332872262023"><ele>14.000000000000002</ele><time>2026-04-30T12:42:13.996Z</time></trkpt><trkpt lat="44.40969780425776" lon="8.954375499627192"><ele>14.0</ele><time>2026-04-30T12:42:14.996Z</time></trkpt><trkpt lat="44.40979429515917" lon="8.954414904018078"><ele>14.6</ele><time>2026-04-30T12:42:15.996Z</time></trkpt><trkpt lat="44.40988891827786" lon="8.954452945495724"><ele>15.2</ele><time>2026-04-30T12:42:16.996Z</time></trkpt><trkpt lat="44.40998332138201" lon="8.954496576893053"><ele>15.799999999999999</ele><time>2026-04-30T12:42:17.996Z</time></trkpt><trkpt lat="44.41007587738997" lon="8.954544923566795"><ele>16.4</ele><time>2026-04-30T12:42:18.996Z</time></trkpt><trkpt lat="44.410166319413996" lon="8.95458655036"><ele>17.0</ele><time>2026-04-30T12:42:19.996Z</time></trkpt><trkpt lat="44.41025486339058" lon="8.95462847745134"><ele>17.0</ele><time>2026-04-30T12:42:20.996Z</time></trkpt><trkpt lat="44.410341597582914" lon="8.954671936003981"><ele>17.0</ele><time>2026-04-30T12:42:21.996Z</time></trkpt><trkpt lat="44.41042499193758" lon="8.954706945623082"><ele>17.0</ele><time>2026-04-30T12:42:22.996Z</time></trkpt><trkpt lat="44.410497108969274" lon="8.954739506754217"><ele>17.0</ele><time>2026-04-30T12:42:23.996Z</time></trkpt><trkpt lat="44.41055626886781" lon="8.954775697111783"><ele>17.0</ele><time>2026-04-30T12:42:24.996Z</time></trkpt><trkpt lat="44.41066204671896" lon="8.954840798474695"><ele>17.0</ele><time>2026-04-30T12:42:26.996Z</time></trkpt><trkpt lat="44.41076651168796" lon="8.954876440383266"><ele>18.0</ele><time>2026-04-30T12:42:28.996Z</time></trkpt><trkpt lat="44.410853548372195" lon="8.954924994282898"><ele>19.0</ele><time>2026-04-30T12:42:30.996Z</time></trkpt><trkpt lat="44.410941503393765" lon="8.95497286530867"><ele>20.0</ele><time>2026-04-30T12:42:32.996Z</time></trkpt><trkpt lat="44.411051508707914" lon="8.9550274524719"><ele>21.0</ele><time>2026-04-30T12:42:34.996Z</time></trkpt><trkpt lat="44.41116222009139" lon="8.95508855309378"><ele>22.0</ele><time>2026-04-30T12:42:36.996Z</time></trkpt><trkpt lat="44.411224922081516" lon="8.955141525028639"><ele>22.833333333333332</ele><time>2026-04-30T12:42:37.996Z</time></trkpt><trkpt lat="44.411296730567884" lon="8.955184157962186"><ele>23.666666666666664</ele><time>2026-04-30T12:42:38.996Z</time></trkpt><trkpt lat="44.41137278358079" lon="8.95523397042616"><ele>24.5</ele><time>2026-04-30T12:42:39.996Z</time></trkpt><trkpt lat="44.41144954407818" lon="8.955285586457341"><ele>25.333333333333332</ele><time>2026-04-30T12:42:40.996Z</time></trkpt><trkpt lat="44.41152225233119" lon="8.955328344973402"><ele>26.166666666666668</ele><time>2026-04-30T12:42:41.996Z</time></trkpt><trkpt lat="44.41159448218189" lon="8.955359539254536"><ele>27.0</ele><time>2026-04-30T12:42:42.996Z</time></trkpt><trkpt lat="44.41166933031265" lon="8.955398809687095"><ele>27.6</ele><time>2026-04-30T12:42:43.996Z</time></trkpt><trkpt lat="44.411755655458016" lon="8.955441419398111"><ele>28.200000000000003</ele><time>2026-04-30T12:42:44.996Z</time></trkpt><trkpt lat="44.41184826069348" lon="8.955483249345761"><ele>28.8</ele><time>2026-04-30T12:42:45.996Z</time></trkpt><trkpt lat="44.41194171164064" lon="8.955528609751585"><ele>29.4</ele><time>2026-04-30T12:42:46.996Z</time></trkpt><trkpt lat="44.41204048288002" lon="8.955579653485415"><ele>30.0</ele><time>2026-04-30T12:42:47.996Z</time></trkpt><trkpt lat="44.41214688218123" lon="8.955638825776473"><ele>29.5</ele><time>2026-04-30T12:42:48.996Z</time></trkpt><trkpt lat="44.412237918671345" lon="8.955688768188722"><ele>29.0</ele><time>2026-04-30T12:42:49.996Z</time></trkpt><trkpt lat="44.4123066721447" lon="8.955730363462163"><ele>28.5</ele><time>2026-04-30T12:42:50.996Z</time></trkpt><trkpt lat="44.41241079935457" lon="8.95577904267385"><ele>28.0</ele><time>2026-04-30T12:42:52.996Z</time></trkpt><trkpt lat="44.412476099401985" lon="8.95579945967838"><ele>27.5</ele><time>2026-04-30T12:42:53.996Z</time></trkpt><trkpt lat="44.412552206404364" lon="8.955831988218515"><ele>27.0</ele><time>2026-04-30T12:42:54.996Z</time></trkpt><trkpt lat="44.41263263102303" lon="8.955869730013918"><ele>28.200000000000003</ele><time>2026-04-30T12:42:55.996Z</time></trkpt><trkpt lat="44.41271166966585" lon="8.955917802433554"><ele>29.400000000000002</ele><time>2026-04-30T12:42:56.995Z</time></trkpt><trkpt lat="44.41279597038064" lon="8.955967089577062"><ele>30.599999999999998</ele><time>2026-04-30T12:42:57.995Z</time></trkpt><trkpt lat="44.41289917587784" lon="8.956014912849204"><ele>31.799999999999997</ele><time>2026-04-30T12:42:58.995Z</time></trkpt><trkpt lat="44.41301450536546" lon="8.956058249816781"><ele>33.0</ele><time>2026-04-30T12:42:59.995Z</time></trkpt><trkpt lat="44.41313586918784" lon="8.956103146150202"><ele>33.0</ele><time>2026-04-30T12:43:00.995Z</time></trkpt><trkpt lat="44.41325488559179" lon="8.95614629936237"><ele>33.0</ele><time>2026-04-30T12:43:01.995Z</time></trkpt><trkpt lat="44.41337444568192" lon="8.956206845417926"><ele>33.0</ele><time>2026-04-30T12:43:02.995Z</time></trkpt><trkpt lat="44.413485467691714" lon="8.956268660109451"><ele>33.0</ele><time>2026-04-30T12:43:03.995Z</time></trkpt><trkpt lat="44.413599529072066" lon="8.956332303506304"><ele>33.0</ele><time>2026-04-30T12:43:04.995Z</time></trkpt><trkpt lat="44.41373178141229" lon="8.956400512856193"><ele>33.0</ele><time>2026-04-30T12:43:05.995Z</time></trkpt><trkpt lat="44.413837356688035" lon="8.956455708029427"><ele>33.0</ele><time>2026-04-30T12:43:06.995Z</time></trkpt><trkpt lat="44.41393235094944" lon="8.95650580509433"><ele>33.0</ele><time>2026-04-30T12:43:07.995Z</time></trkpt><trkpt lat="44.41401571959814" lon="8.956550051886904"><ele>33.0</ele><time>2026-04-30T12:43:08.995Z</time></trkpt><trkpt lat="44.41408916981935" lon="8.956588635652002"><ele>32.333333333333336</ele><time>2026-04-30T12:43:09.995Z</time></trkpt><trkpt lat="44.41416107454557" lon="8.95661482121057"><ele>31.666666666666664</ele><time>2026-04-30T12:43:10.995Z</time></trkpt><trkpt lat="44.41422328931942" lon="8.956632664726568"><ele>31.0</ele><time>2026-04-30T12:43:11.995Z</time></trkpt><trkpt lat="44.41433048606461" lon="8.956685550112699"><ele>30.333333333333332</ele><time>2026-04-30T12:43:13.995Z</time></trkpt><trkpt lat="44.41441286080106" lon="8.956769872654103"><ele>29.666666666666664</ele><time>2026-04-30T12:43:15.995Z</time></trkpt><trkpt lat="44.414478634337016" lon="8.956825708215138"><ele>29.0</ele><time>2026-04-30T12:43:17.995Z</time></trkpt><trkpt lat="44.414571012196326" lon="8.95680493146636"><ele>28.333333333333332</ele><time>2026-04-30T12:43:34.995Z</time></trkpt><trkpt lat="44.41462237690732" lon="8.956729813963493"><ele>27.666666666666664</ele><time>2026-04-30T12:44:09.994Z</time></trkpt><trkpt lat="44.41471378672525" lon="8.956692192344617"><ele>27.0</ele><time>2026-04-30T12:44:12.994Z</time></trkpt><trkpt lat="44.414786534901054" lon="8.956643606821293"><ele>26.333333333333336</ele><time>2026-04-30T12:44:13.994Z</time></trkpt><trkpt lat="44.41485072283344" lon="8.956571804622868"><ele>25.666666666666668</ele><time>2026-04-30T12:44:14.994Z</time></trkpt><trkpt lat="44.41492778186712" lon="8.956499427478771"><ele>25.0</ele><time>2026-04-30T12:44:15.994Z</time></trkpt><trkpt lat="44.415006733810664" lon="8.956413756044473"><ele>25.0</ele><time>2026-04-30T12:44:16.994Z</time></trkpt><trkpt lat="44.41508746000275" lon="8.956309011699796"><ele>25.0</ele><time>2026-04-30T12:44:17.994Z</time></trkpt><trkpt lat="44.41516861192357" lon="8.956216253382683"><ele>25.0</ele><time>2026-04-30T12:44:18.994Z</time></trkpt><trkpt lat="44.41525959067052" lon="8.9561336513532"><ele>25.0</ele><time>2026-04-30T12:44:19.994Z</time></trkpt><trkpt lat="44.41535481987046" lon="8.956047212533747"><ele>25.0</ele><time>2026-04-30T12:44:20.994Z</time></trkpt><trkpt lat="44.41544736371635" lon="8.95593443077259"><ele>24.2</ele><time>2026-04-30T12:44:21.994Z</time></trkpt><trkpt lat="44.41553659492843" lon="8.955826475115474"><ele>23.4</ele><time>2026-04-30T12:44:22.994Z</time></trkpt><trkpt lat="44.41562247512037" lon="8.955722381021578"><ele>22.6</ele><time>2026-04-30T12:44:23.994Z</time></trkpt><trkpt lat="44.415708143615696" lon="8.955617534427462"><ele>21.8</ele><time>2026-04-30T12:44:24.994Z</time></trkpt><trkpt lat="44.41578877847762" lon="8.955525883184164"><ele>21.0</ele><time>2026-04-30T12:44:25.994Z</time></trkpt><trkpt lat="44.41586156684798" lon="8.955425797035222"><ele>21.0</ele><time>2026-04-30T12:44:26.994Z</time></trkpt><trkpt lat="44.41594577849227" lon="8.955322632184176"><ele>21.0</ele><time>2026-04-30T12:44:27.994Z</time></trkpt><trkpt lat="44.4160282967623" lon="8.95521851416987"><ele>21.0</ele><time>2026-04-30T12:44:28.994Z</time></trkpt><trkpt lat="44.41611357304772" lon="8.955141601653448"><ele>21.0</ele><time>2026-04-30T12:44:29.994Z</time></trkpt><trkpt lat="44.416181469616305" lon="8.955067693922276"><ele>21.0</ele><time>2026-04-30T12:44:30.994Z</time></trkpt><trkpt lat="44.41625055447505" lon="8.954972457329456"><ele>21.666666666666668</ele><time>2026-04-30T12:44:31.993Z</time></trkpt><trkpt lat="44.41631744836437" lon="8.954882727543989"><ele>22.333333333333336</ele><time>2026-04-30T12:44:32.993Z</time></trkpt><trkpt lat="44.41638870608126" lon="8.954820079778212"><ele>23.0</ele><time>2026-04-30T12:44:33.993Z</time></trkpt><trkpt lat="44.41645285242275" lon="8.95474348373102"><ele>23.666666666666668</ele><time>2026-04-30T12:44:34.993Z</time></trkpt><trkpt lat="44.41650761472024" lon="8.954668738786042"><ele>24.333333333333336</ele><time>2026-04-30T12:44:35.993Z</time></trkpt><trkpt lat="44.41656132023281" lon="8.954613236244008"><ele>25.0</ele><time>2026-04-30T12:44:36.993Z</time></trkpt><trkpt lat="44.41663534449511" lon="8.954528257923752"><ele>25.0</ele><time>2026-04-30T12:44:38.993Z</time></trkpt><trkpt lat="44.416701826722495" lon="8.954452027380924"><ele>25.0</ele><time>2026-04-30T12:44:41.993Z</time></trkpt><trkpt lat="44.416683854710364" lon="8.95435592429826"><ele>25.0</ele><time>2026-04-30T12:44:56.993Z</time></trkpt><trkpt lat="44.41676962250595" lon="8.954291854578573"><ele>25.0</ele><time>2026-04-30T12:45:00.993Z</time></trkpt><trkpt lat="44.41686854254366" lon="8.954177386337758"><ele>25.0</ele><time>2026-04-30T12:45:02.993Z</time></trkpt><trkpt lat="44.41692474979949" lon="8.954108856086336"><ele>24.833333333333336</ele><time>2026-04-30T12:45:03.993Z</time></trkpt><trkpt lat="44.416995397292276" lon="8.954058967767049"><ele>24.666666666666668</ele><time>2026-04-30T12:45:04.993Z</time></trkpt><trkpt lat="44.4170528791893" lon="8.953984990101484"><ele>24.5</ele><time>2026-04-30T12:45:05.993Z</time></trkpt><trkpt lat="44.41712603466949" lon="8.953912629709201"><ele>24.333333333333336</ele><time>2026-04-30T12:45:06.993Z</time></trkpt><trkpt lat="44.417201800016585" lon="8.953832015516824"><ele>24.166666666666668</ele><time>2026-04-30T12:45:07.993Z</time></trkpt><trkpt lat="44.41727935373419" lon="8.953754651635409"><ele>24.0</ele><time>2026-04-30T12:45:08.993Z</time></trkpt><trkpt lat="44.41735505866173" lon="8.9536722191355"><ele>23.799999999999997</ele><time>2026-04-30T12:45:09.993Z</time></trkpt><trkpt lat="44.417429569452686" lon="8.953583228279125"><ele>23.599999999999998</ele><time>2026-04-30T12:45:10.993Z</time></trkpt><trkpt lat="44.417509525991115" lon="8.95350270897739"><ele>23.4</ele><time>2026-04-30T12:45:11.993Z</time></trkpt><trkpt lat="44.417580124190934" lon="8.95341536074134"><ele>23.2</ele><time>2026-04-30T12:45:12.993Z</time></trkpt><trkpt lat="44.41765387616266" lon="8.953332387625522"><ele>23.0</ele><time>2026-04-30T12:45:13.993Z</time></trkpt><trkpt lat="44.41772811370295" lon="8.953248209392367"><ele>22.799999999999997</ele><time>2026-04-30T12:45:14.994Z</time></trkpt><trkpt lat="44.41780603437485" lon="8.9531518532425"><ele>22.6</ele><time>2026-04-30T12:45:15.994Z</time></trkpt><trkpt lat="44.41788239868998" lon="8.953052763335819"><ele>22.4</ele><time>2026-04-30T12:45:16.994Z</time></trkpt><trkpt lat="44.4179560536135" lon="8.952959446133612"><ele>22.200000000000003</ele><time>2026-04-30T12:45:17.994Z</time></trkpt><trkpt lat="44.418036993647604" lon="8.952868183992132"><ele>22.0</ele><time>2026-04-30T12:45:18.993Z</time></trkpt><trkpt lat="44.41811383143498" lon="8.952763148322822"><ele>22.8</ele><time>2026-04-30T12:45:19.993Z</time></trkpt><trkpt lat="44.418195724033126" lon="8.952656265030889"><ele>23.6</ele><time>2026-04-30T12:45:20.993Z</time></trkpt><trkpt lat="44.41827881187363" lon="8.952551539173625"><ele>24.400000000000002</ele><time>2026-04-30T12:45:21.993Z</time></trkpt><trkpt lat="44.41835778675431" lon="8.952451732277895"><ele>25.200000000000003</ele><time>2026-04-30T12:45:22.993Z</time></trkpt><trkpt lat="44.41842646289509" lon="8.952363946284358"><ele>26.0</ele><time>2026-04-30T12:45:23.993Z</time></trkpt><trkpt lat="44.41848510776905" lon="8.952286577654858"><ele>26.0</ele><time>2026-04-30T12:45:24.993Z</time></trkpt><trkpt lat="44.41853300830702" lon="8.95222066334975"><ele>26.0</ele><time>2026-04-30T12:45:25.993Z</time></trkpt><trkpt lat="44.41859495365751" lon="8.952137068720328"><ele>26.0</ele><time>2026-04-30T12:45:27.993Z</time></trkpt><trkpt lat="44.418667756136124" lon="8.952123281711302"><ele>26.0</ele><time>2026-04-30T12:45:49.993Z</time></trkpt><trkpt lat="44.41873636560138" lon="8.95221898893664"><ele>26.0</ele><time>2026-04-30T12:45:55.993Z</time></trkpt><trkpt lat="44.41887560509979" lon="8.952102534837753"><ele>26.4</ele><time>2026-04-30T12:46:02.993Z</time></trkpt><trkpt lat="44.418931580237725" lon="8.952013715117554"><ele>26.8</ele><time>2026-04-30T12:46:03.993Z</time></trkpt><trkpt lat="44.419002319083475" lon="8.951923212525198"><ele>27.199999999999996</ele><time>2026-04-30T12:46:04.993Z</time></trkpt><trkpt lat="44.41908017325862" lon="8.951809944072666"><ele>27.599999999999998</ele><time>2026-04-30T12:46:05.993Z</time></trkpt><trkpt lat="44.4191725452288" lon="8.951686523745373"><ele>28.0</ele><time>2026-04-30T12:46:06.992Z</time></trkpt><trkpt lat="44.41928162606081" lon="8.95155250802182"><ele>28.0</ele><time>2026-04-30T12:46:07.992Z</time></trkpt><trkpt lat="44.419396269679055" lon="8.95142672975968"><ele>28.0</ele><time>2026-04-30T12:46:08.992Z</time></trkpt><trkpt lat="44.419500818958404" lon="8.951291296683472"><ele>28.0</ele><time>2026-04-30T12:46:09.992Z</time></trkpt><trkpt lat="44.41960735796624" lon="8.951147708605594"><ele>28.0</ele><time>2026-04-30T12:46:10.992Z</time></trkpt><trkpt lat="44.419716338206804" lon="8.951002798211773"><ele>28.25</ele><time>2026-04-30T12:46:11.992Z</time></trkpt><trkpt lat="44.41980670359389" lon="8.950835252001553"><ele>28.5</ele><time>2026-04-30T12:46:12.992Z</time></trkpt><trkpt lat="44.41991370042792" lon="8.950698074974074"><ele>28.75</ele><time>2026-04-30T12:46:13.992Z</time></trkpt><trkpt lat="44.42002150464266" lon="8.950562794303325"><ele>29.0</ele><time>2026-04-30T12:46:14.992Z</time></trkpt><trkpt lat="44.420119571411604" lon="8.950415268252325"><ele>29.0</ele><time>2026-04-30T12:46:15.992Z</time></trkpt><trkpt lat="44.42021881340554" lon="8.950271343824586"><ele>29.0</ele><time>2026-04-30T12:46:16.992Z</time></trkpt><trkpt lat="44.420323025765725" lon="8.950146641929578"><ele>29.0</ele><time>2026-04-30T12:46:17.992Z</time></trkpt><trkpt lat="44.42042456056201" lon="8.950030109670099"><ele>29.0</ele><time>2026-04-30T12:46:18.992Z</time></trkpt><trkpt lat="44.420530910695255" lon="8.949927033368093"><ele>32.25</ele><time>2026-04-30T12:46:19.992Z</time></trkpt><trkpt lat="44.42063612732058" lon="8.949820928305764"><ele>35.5</ele><time>2026-04-30T12:46:20.992Z</time></trkpt><trkpt lat="44.42073486625541" lon="8.949712610571247"><ele>38.75</ele><time>2026-04-30T12:46:21.992Z</time></trkpt><trkpt lat="44.42083970362468" lon="8.94960562206924"><ele>42.0</ele><time>2026-04-30T12:46:22.992Z</time></trkpt><trkpt lat="44.42094717984354" lon="8.949503132343132"><ele>42.0</ele><time>2026-04-30T12:46:23.992Z</time></trkpt><trkpt lat="44.42105370838566" lon="8.949409490511544"><ele>42.0</ele><time>2026-04-30T12:46:24.992Z</time></trkpt><trkpt lat="44.42116285310405" lon="8.9493201385183"><ele>42.0</ele><time>2026-04-30T12:46:25.992Z</time></trkpt><trkpt lat="44.42126728788489" lon="8.94923359147412"><ele>42.0</ele><time>2026-04-30T12:46:26.992Z</time></trkpt><trkpt lat="44.421358633707136" lon="8.949161458691572"><ele>41.5</ele><time>2026-04-30T12:46:27.992Z</time></trkpt><trkpt lat="44.42143869046243" lon="8.949123037797692"><ele>41.0</ele><time>2026-04-30T12:46:28.992Z</time></trkpt><trkpt lat="44.42153053593316" lon="8.949064251084238"><ele>40.5</ele><time>2026-04-30T12:46:31Z</time></trkpt><trkpt lat="44.42159196943468" lon="8.948991526615862"><ele>40.0</ele><time>2026-04-30T12:46:33Z</time></trkpt><trkpt lat="44.42168728877117" lon="8.948909797878214"><ele>39.5</ele><time>2026-04-30T12:46:35Z</time></trkpt><trkpt lat="44.421750380116364" lon="8.948872714777952"><ele>39.0</ele><time>2026-04-30T12:46:36Z</time></trkpt><trkpt lat="44.421810768903775" lon="8.948830095912289"><ele>39.0</ele><time>2026-04-30T12:46:37Z</time></trkpt><trkpt lat="44.42186842869286" lon="8.948789810509016"><ele>39.0</ele><time>2026-04-30T12:46:38Z</time></trkpt><trkpt lat="44.421930875475724" lon="8.948771154777898"><ele>39.0</ele><time>2026-04-30T12:46:39Z</time></trkpt><trkpt lat="44.42202751314988" lon="8.948690342414048"><ele>39.0</ele><time>2026-04-30T12:46:41Z</time></trkpt><trkpt lat="44.42211269606878" lon="8.948601260695746"><ele>39.0</ele><time>2026-04-30T12:46:43Z</time></trkpt><trkpt lat="44.42217761051866" lon="8.948543204242757"><ele>39.0</ele><time>2026-04-30T12:46:45Z</time></trkpt><trkpt lat="44.422245194097954" lon="8.948487055227343"><ele>40.333333333333336</ele><time>2026-04-30T12:46:49Z</time></trkpt><trkpt lat="44.422310596824666" lon="8.948436953000465"><ele>41.666666666666664</ele><time>2026-04-30T12:46:53Z</time></trkpt><trkpt lat="44.42237710882889" lon="8.94837970806392"><ele>43.0</ele><time>2026-04-30T12:46:58Z</time></trkpt><trkpt lat="44.42246011979998" lon="8.948357555333908"><ele>44.33333333333333</ele><time>2026-04-30T12:47:00Z</time></trkpt><trkpt lat="44.422546758206636" lon="8.948327724070777"><ele>45.666666666666664</ele><time>2026-04-30T12:47:02Z</time></trkpt><trkpt lat="44.42262176176456" lon="8.948288459866829"><ele>47.0</ele><time>2026-04-30T12:47:04Z</time></trkpt><trkpt lat="44.42271198017922" lon="8.948286905467235"><ele>42.800000000000004</ele><time>2026-04-30T12:47:06Z</time></trkpt><trkpt lat="44.42281831483025" lon="8.948264399690055"><ele>38.6</ele><time>2026-04-30T12:47:08Z</time></trkpt><trkpt lat="44.422913252616176" lon="8.948276875932653"><ele>34.400000000000006</ele><time>2026-04-30T12:47:10Z</time></trkpt><trkpt lat="44.42301930733287" lon="8.94829262902989"><ele>30.200000000000003</ele><time>2026-04-30T12:47:12Z</time></trkpt><trkpt lat="44.42314079996179" lon="8.948304873374688"><ele>26.0</ele><time>2026-04-30T12:47:14Z</time></trkpt><trkpt lat="44.423207868568426" lon="8.94831083930724"><ele>25.57142857142857</ele><time>2026-04-30T12:47:15Z</time></trkpt><trkpt lat="44.42327480956123" lon="8.948318431639006"><ele>25.142857142857146</ele><time>2026-04-30T12:47:16Z</time></trkpt><trkpt lat="44.4233383672839" lon="8.948322099083601"><ele>24.714285714285715</ele><time>2026-04-30T12:47:17Z</time></trkpt><trkpt lat="44.42346095803143" lon="8.94833350193689"><ele>24.285714285714285</ele><time>2026-04-30T12:47:19Z</time></trkpt><trkpt lat="44.423526328632924" lon="8.948339386895075"><ele>23.857142857142854</ele><time>2026-04-30T12:47:20Z</time></trkpt><trkpt lat="44.42359099218544" lon="8.948344519678878"><ele>23.42857142857143</ele><time>2026-04-30T12:47:21Z</time></trkpt><trkpt lat="44.423654286697804" lon="8.948350267804225"><ele>23.0</ele><time>2026-04-30T12:47:22Z</time></trkpt><trkpt lat="44.42377033834986" lon="8.94837730131075"><ele>23.0</ele><time>2026-04-30T12:47:24Z</time></trkpt><trkpt lat="44.423832762668226" lon="8.948365166194401"><ele>23.0</ele><time>2026-04-30T12:47:25Z</time></trkpt><trkpt lat="44.42395770638442" lon="8.948393867420227"><ele>23.0</ele><time>2026-04-30T12:47:27Z</time></trkpt><trkpt lat="44.424019278916596" lon="8.948417238876935"><ele>23.0</ele><time>2026-04-30T12:47:28Z</time></trkpt><trkpt lat="44.42408326342933" lon="8.948435445567817"><ele>23.0</ele><time>2026-04-30T12:47:28.999Z</time></trkpt><trkpt lat="44.42415287675176" lon="8.948450096764294"><ele>23.0</ele><time>2026-04-30T12:47:29.999Z</time></trkpt><trkpt lat="44.42422448682541" lon="8.948462734811171"><ele>24.0</ele><time>2026-04-30T12:47:30.999Z</time></trkpt><trkpt lat="44.42430103408641" lon="8.94847499978008"><ele>25.0</ele><time>2026-04-30T12:47:31.999Z</time></trkpt><trkpt lat="44.42438398032211" lon="8.948493470098876"><ele>26.0</ele><time>2026-04-30T12:47:32.999Z</time></trkpt><trkpt lat="44.42446700133766" lon="8.948508279193998"><ele>27.0</ele><time>2026-04-30T12:47:33.999Z</time></trkpt><trkpt lat="44.42455247476479" lon="8.948531938592385"><ele>27.999999999999996</ele><time>2026-04-30T12:47:34.999Z</time></trkpt><trkpt lat="44.424644174138805" lon="8.948548629045764"><ele>29.0</ele><time>2026-04-30T12:47:35.999Z</time></trkpt><trkpt lat="44.42473912178569" lon="8.948562016480373"><ele>28.999999999999996</ele><time>2026-04-30T12:47:36.999Z</time></trkpt><trkpt lat="44.424828256674104" lon="8.948578083237441"><ele>29.0</ele><time>2026-04-30T12:47:37.999Z</time></trkpt><trkpt lat="44.42491432340065" lon="8.94859225143396"><ele>29.0</ele><time>2026-04-30T12:47:38.999Z</time></trkpt><trkpt lat="44.425000588083236" lon="8.948604988976392"><ele>29.0</ele><time>2026-04-30T12:47:39.999Z</time></trkpt><trkpt lat="44.42508742564066" lon="8.94862148980064"><ele>28.999999999999996</ele><time>2026-04-30T12:47:40.999Z</time></trkpt><trkpt lat="44.4251733238363" lon="8.948653807196708"><ele>29.0</ele><time>2026-04-30T12:47:41.999Z</time></trkpt><trkpt lat="44.42525883582511" lon="8.948678480083094"><ele>29.0</ele><time>2026-04-30T12:47:42.999Z</time></trkpt><trkpt lat="44.42535011252179" lon="8.94870616872311"><ele>29.0</ele><time>2026-04-30T12:47:43.999Z</time></trkpt><trkpt lat="44.42544921587209" lon="8.948737155848189"><ele>29.0</ele><time>2026-04-30T12:47:44.999Z</time></trkpt><trkpt lat="44.425553263239614" lon="8.948769718393722"><ele>29.0</ele><time>2026-04-30T12:47:45.999Z</time></trkpt><trkpt lat="44.42564913318335" lon="8.948820091716719"><ele>29.0</ele><time>2026-04-30T12:47:46.999Z</time></trkpt><trkpt lat="44.4257526069182" lon="8.94888004319635"><ele>28.5</ele><time>2026-04-30T12:47:47.999Z</time></trkpt><trkpt lat="44.42586682164974" lon="8.948949356577494"><ele>28.0</ele><time>2026-04-30T12:47:48.999Z</time></trkpt><trkpt lat="44.425985616492405" lon="8.949027266050773"><ele>27.5</ele><time>2026-04-30T12:47:49.999Z</time></trkpt><trkpt lat="44.426101069744824" lon="8.949124828626601"><ele>27.0</ele><time>2026-04-30T12:47:50.999Z</time></trkpt><trkpt lat="44.42621110634225" lon="8.949229203994502"><ele>28.25</ele><time>2026-04-30T12:47:51.999Z</time></trkpt><trkpt lat="44.426323197662164" lon="8.94932760383843"><ele>29.5</ele><time>2026-04-30T12:47:52.999Z</time></trkpt><trkpt lat="44.426414647220604" lon="8.949437233345014"><ele>30.75</ele><time>2026-04-30T12:47:53.999Z</time></trkpt><trkpt lat="44.42649680470095" lon="8.949536171058819"><ele>32.0</ele><time>2026-04-30T12:47:54.999Z</time></trkpt><trkpt lat="44.426570699339095" lon="8.949632292132797"><ele>32.0</ele><time>2026-04-30T12:47:55.999Z</time></trkpt><trkpt lat="44.42664190043566" lon="8.949729963821984"><ele>32.0</ele><time>2026-04-30T12:47:56.999Z</time></trkpt><trkpt lat="44.42670905453536" lon="8.949822097280656"><ele>32.0</ele><time>2026-04-30T12:47:57.999Z</time></trkpt><trkpt lat="44.42676738565383" lon="8.949923984318012"><ele>32.0</ele><time>2026-04-30T12:47:58.999Z</time></trkpt><trkpt lat="44.42682932138107" lon="8.950032779907303"><ele>32.0</ele><time>2026-04-30T12:47:59.999Z</time></trkpt><trkpt lat="44.426900687755975" lon="8.950143978314038"><ele>34.0</ele><time>2026-04-30T12:48:00.999Z</time></trkpt><trkpt lat="44.426953195812594" lon="8.950263788190972"><ele>36.0</ele><time>2026-04-30T12:48:01.999Z</time></trkpt><trkpt lat="44.427005362952876" lon="8.950385791694396"><ele>38.0</ele><time>2026-04-30T12:48:02.999Z</time></trkpt><trkpt lat="44.42705591148165" lon="8.950515273146628"><ele>40.0</ele><time>2026-04-30T12:48:03.999Z</time></trkpt><trkpt lat="44.42710513968204" lon="8.950643545538464"><ele>42.0</ele><time>2026-04-30T12:48:04.999Z</time></trkpt><trkpt lat="44.4271619806482" lon="8.950768571578903"><ele>39.2</ele><time>2026-04-30T12:48:05.999Z</time></trkpt><trkpt lat="44.42720376714197" lon="8.950893336133928"><ele>36.400000000000006</ele><time>2026-04-30T12:48:06.999Z</time></trkpt><trkpt lat="44.42724934903741" lon="8.95102384367627"><ele>33.599999999999994</ele><time>2026-04-30T12:48:07.999Z</time></trkpt><trkpt lat="44.42729315304254" lon="8.951169692552947"><ele>30.799999999999997</ele><time>2026-04-30T12:48:08.999Z</time></trkpt><trkpt lat="44.42733292389455" lon="8.951323104551243"><ele>28.0</ele><time>2026-04-30T12:48:09.999Z</time></trkpt><trkpt lat="44.42737195850564" lon="8.951475411940548"><ele>28.0</ele><time>2026-04-30T12:48:10.999Z</time></trkpt><trkpt lat="44.427410255073966" lon="8.951620323251552"><ele>27.999999999999996</ele><time>2026-04-30T12:48:11.999Z</time></trkpt><trkpt lat="44.427445892129306" lon="8.951758581595607"><ele>27.999999999999996</ele><time>2026-04-30T12:48:12.999Z</time></trkpt><trkpt lat="44.427479463974414" lon="8.951898242386235"><ele>28.0</ele><time>2026-04-30T12:48:13.999Z</time></trkpt><trkpt lat="44.42752108771661" lon="8.95204476482882"><ele>28.0</ele><time>2026-04-30T12:48:14.999Z</time></trkpt><trkpt lat="44.42756765444865" lon="8.952209076988266"><ele>31.25</ele><time>2026-04-30T12:48:15.999Z</time></trkpt><trkpt lat="44.42761648901074" lon="8.952390994328734"><ele>34.5</ele><time>2026-04-30T12:48:16.999Z</time></trkpt><trkpt lat="44.42766428926675" lon="8.952584917127021"><ele>37.75</ele><time>2026-04-30T12:48:17.998Z</time></trkpt><trkpt lat="44.427712550572515" lon="8.952778728261057"><ele>41.0</ele><time>2026-04-30T12:48:18.998Z</time></trkpt><trkpt lat="44.42776072414298" lon="8.952971477458894"><ele>44.25</ele><time>2026-04-30T12:48:19.998Z</time></trkpt><trkpt lat="44.42780929185058" lon="8.953164075384823"><ele>47.5</ele><time>2026-04-30T12:48:20.998Z</time></trkpt><trkpt lat="44.42785973497987" lon="8.95335979185133"><ele>50.75</ele><time>2026-04-30T12:48:21.998Z</time></trkpt><trkpt lat="44.42790994191745" lon="8.953556163662505"><ele>54.0</ele><time>2026-04-30T12:48:22.998Z</time></trkpt><trkpt lat="44.427958642043905" lon="8.953754968307203"><ele>48.25</ele><time>2026-04-30T12:48:23.998Z</time></trkpt><trkpt lat="44.427997869911415" lon="8.953958616033002"><ele>42.5</ele><time>2026-04-30T12:48:24.998Z</time></trkpt><trkpt lat="44.428048369688334" lon="8.954155869780347"><ele>36.75</ele><time>2026-04-30T12:48:25.998Z</time></trkpt><trkpt lat="44.42809893792315" lon="8.954347745150507"><ele>31.0</ele><time>2026-04-30T12:48:26.998Z</time></trkpt><trkpt lat="44.428153201989076" lon="8.954531040572128"><ele>31.0</ele><time>2026-04-30T12:48:27.998Z</time></trkpt><trkpt lat="44.428209010971564" lon="8.954706301961076"><ele>31.0</ele><time>2026-04-30T12:48:28.998Z</time></trkpt><trkpt lat="44.42826830471723" lon="8.95487044286274"><ele>31.0</ele><time>2026-04-30T12:48:29.998Z</time></trkpt><trkpt lat="44.42832669082189" lon="8.955025119276044"><ele>31.0</ele><time>2026-04-30T12:48:30.998Z</time></trkpt><trkpt lat="44.428383892630414" lon="8.955172739446974"><ele>32.5</ele><time>2026-04-30T12:48:31.998Z</time></trkpt><trkpt lat="44.42844251100279" lon="8.955315601230916"><ele>34.0</ele><time>2026-04-30T12:48:32.998Z</time></trkpt><trkpt lat="44.42850923709758" lon="8.95545186378915"><ele>35.5</ele><time>2026-04-30T12:48:33.998Z</time></trkpt><trkpt lat="44.42857290766796" lon="8.955595118610228"><ele>37.0</ele><time>2026-04-30T12:48:34.998Z</time></trkpt><trkpt lat="44.42863945806147" lon="8.955736656626659"><ele>37.0</ele><time>2026-04-30T12:48:35.998Z</time></trkpt><trkpt lat="44.428708730748795" lon="8.955867623691423"><ele>37.0</ele><time>2026-04-30T12:48:36.998Z</time></trkpt><trkpt lat="44.42877328544935" lon="8.95599094472298"><ele>37.0</ele><time>2026-04-30T12:48:37.998Z</time></trkpt><trkpt lat="44.42883855594588" lon="8.956106487518369"><ele>37.0</ele><time>2026-04-30T12:48:38.998Z</time></trkpt><trkpt lat="44.42890296684008" lon="8.956219064410755"><ele>37.0</ele><time>2026-04-30T12:48:39.998Z</time></trkpt><trkpt lat="44.428967307972535" lon="8.956334430805294"><ele>36.0</ele><time>2026-04-30T12:48:40.998Z</time></trkpt><trkpt lat="44.42903297297771" lon="8.956448904911834"><ele>35.0</ele><time>2026-04-30T12:48:41.998Z</time></trkpt><trkpt lat="44.42910096919336" lon="8.956561512721732"><ele>34.0</ele><time>2026-04-30T12:48:42.998Z</time></trkpt><trkpt lat="44.429173467868004" lon="8.956679208586001"><ele>33.0</ele><time>2026-04-30T12:48:43.998Z</time></trkpt><trkpt lat="44.42924849302" lon="8.95680497206584"><ele>32.0</ele><time>2026-04-30T12:48:44.998Z</time></trkpt><trkpt lat="44.42932938306264" lon="8.956925269721607"><ele>32.0</ele><time>2026-04-30T12:48:45.998Z</time></trkpt><trkpt lat="44.4294095737268" lon="8.957043734548277"><ele>32.0</ele><time>2026-04-30T12:48:46.998Z</time></trkpt><trkpt lat="44.429486391270494" lon="8.957160175810513"><ele>32.0</ele><time>2026-04-30T12:48:47.998Z</time></trkpt><trkpt lat="44.4295584467508" lon="8.95726519997074"><ele>32.0</ele><time>2026-04-30T12:48:48.998Z</time></trkpt><trkpt lat="44.42963049741666" lon="8.957362058381978"><ele>32.0</ele><time>2026-04-30T12:48:49.998Z</time></trkpt><trkpt lat="44.429707130408275" lon="8.957461647215572"><ele>31.0</ele><time>2026-04-30T12:48:50.998Z</time></trkpt><trkpt lat="44.429794983412435" lon="8.957568743080232"><ele>30.0</ele><time>2026-04-30T12:48:51.998Z</time></trkpt><trkpt lat="44.42989241733554" lon="8.957680232447249"><ele>29.0</ele><time>2026-04-30T12:48:52.998Z</time></trkpt><trkpt lat="44.42999130921731" lon="8.957799022912177"><ele>28.0</ele><time>2026-04-30T12:48:53.998Z</time></trkpt><trkpt lat="44.43009273610115" lon="8.957921109912554"><ele>28.0</ele><time>2026-04-30T12:48:54.998Z</time></trkpt><trkpt lat="44.43019479524497" lon="8.95804384653505"><ele>28.0</ele><time>2026-04-30T12:48:55.998Z</time></trkpt><trkpt lat="44.43029611905133" lon="8.958168376881291"><ele>28.0</ele><time>2026-04-30T12:48:56.998Z</time></trkpt><trkpt lat="44.430396467796825" lon="8.95829612280519"><ele>28.0</ele><time>2026-04-30T12:48:57.998Z</time></trkpt><trkpt lat="44.43049636808706" lon="8.95841675791556"><ele>28.799999999999997</ele><time>2026-04-30T12:48:58.998Z</time></trkpt><trkpt lat="44.43058651307531" lon="8.958521432585334"><ele>29.599999999999998</ele><time>2026-04-30T12:48:59.998Z</time></trkpt><trkpt lat="44.43066497934202" lon="8.958606341089405"><ele>30.400000000000002</ele><time>2026-04-30T12:49:00.998Z</time></trkpt><trkpt lat="44.430726565904266" lon="8.958673045956415"><ele>31.200000000000003</ele><time>2026-04-30T12:49:01.998Z</time></trkpt><trkpt lat="44.43079321343743" lon="8.958745743609775"><ele>32.0</ele><time>2026-04-30T12:49:03.998Z</time></trkpt><trkpt lat="44.43088994933075" lon="8.958713372903919"><ele>32.0</ele><time>2026-04-30T12:49:29.997Z</time></trkpt><trkpt lat="44.43098156245141" lon="8.958753151474859"><ele>32.0</ele><time>2026-04-30T12:49:35.997Z</time></trkpt><trkpt lat="44.4310391444304" lon="8.958810769088611"><ele>32.0</ele><time>2026-04-30T12:49:36.997Z</time></trkpt><trkpt lat="44.43111551401596" lon="8.958889311773303"><ele>32.0</ele><time>2026-04-30T12:49:37.997Z</time></trkpt><trkpt lat="44.43119780097514" lon="8.958989955472036"><ele>32.0</ele><time>2026-04-30T12:49:38.997Z</time></trkpt><trkpt lat="44.431283891793534" lon="8.95908918800169"><ele>31.833333333333332</ele><time>2026-04-30T12:49:39.997Z</time></trkpt><trkpt lat="44.43136566364037" lon="8.959186864123776"><ele>31.666666666666664</ele><time>2026-04-30T12:49:40.997Z</time></trkpt><trkpt lat="44.43143838358018" lon="8.959271720680368"><ele>31.5</ele><time>2026-04-30T12:49:41.997Z</time></trkpt><trkpt lat="44.431507375553274" lon="8.959344695328891"><ele>31.333333333333336</ele><time>2026-04-30T12:49:42.997Z</time></trkpt><trkpt lat="44.431578258181396" lon="8.959400139667467"><ele>31.166666666666668</ele><time>2026-04-30T12:49:43.997Z</time></trkpt><trkpt lat="44.43163622815669" lon="8.959451127322732"><ele>31.0</ele><time>2026-04-30T12:49:44.997Z</time></trkpt><trkpt lat="44.431690826641194" lon="8.95950453913732"><ele>31.0</ele><time>2026-04-30T12:49:45.997Z</time></trkpt><trkpt lat="44.43175024652285" lon="8.959580496629549"><ele>31.0</ele><time>2026-04-30T12:49:46.997Z</time></trkpt><trkpt lat="44.4318234937509" lon="8.959665964780326"><ele>31.0</ele><time>2026-04-30T12:49:47.997Z</time></trkpt><trkpt lat="44.431906722896116" lon="8.959760131584737"><ele>31.0</ele><time>2026-04-30T12:49:48.997Z</time></trkpt><trkpt lat="44.43200043549986" lon="8.959858122560112"><ele>31.0</ele><time>2026-04-30T12:49:49.997Z</time></trkpt><trkpt lat="44.43209718046171" lon="8.959979117403773"><ele>31.5</ele><time>2026-04-30T12:49:50.997Z</time></trkpt><trkpt lat="44.43220305625136" lon="8.960106449243064"><ele>32.0</ele><time>2026-04-30T12:49:51.997Z</time></trkpt><trkpt lat="44.432308787639926" lon="8.960234205289986"><ele>32.5</ele><time>2026-04-30T12:49:52.997Z</time></trkpt><trkpt lat="44.43241258202799" lon="8.960358695208352"><ele>33.0</ele><time>2026-04-30T12:49:53.997Z</time></trkpt><trkpt lat="44.432516685771915" lon="8.960494524409585"><ele>33.0</ele><time>2026-04-30T12:49:54.997Z</time></trkpt><trkpt lat="44.43262947929238" lon="8.96064253884232"><ele>33.0</ele><time>2026-04-30T12:49:55.996Z</time></trkpt><trkpt lat="44.43274846110539" lon="8.960782048206275"><ele>33.0</ele><time>2026-04-30T12:49:56.996Z</time></trkpt><trkpt lat="44.432860695644024" lon="8.960920284821444"><ele>32.333333333333336</ele><time>2026-04-30T12:49:57.996Z</time></trkpt><trkpt lat="44.43297455723006" lon="8.961053879159717"><ele>31.666666666666668</ele><time>2026-04-30T12:49:58.996Z</time></trkpt><trkpt lat="44.43308943646746" lon="8.961190999347338"><ele>31.0</ele><time>2026-04-30T12:49:59.996Z</time></trkpt><trkpt lat="44.433211530945876" lon="8.961326586288264"><ele>31.0</ele><time>2026-04-30T12:50:00.996Z</time></trkpt><trkpt lat="44.4333396195166" lon="8.961459459570548"><ele>31.0</ele><time>2026-04-30T12:50:01.996Z</time></trkpt><trkpt lat="44.433473636704086" lon="8.96161569284066"><ele>31.0</ele><time>2026-04-30T12:50:02.996Z</time></trkpt><trkpt lat="44.43361160772856" lon="8.961759338033588"><ele>31.0</ele><time>2026-04-30T12:50:03.996Z</time></trkpt><trkpt lat="44.43374212463103" lon="8.96190231775643"><ele>31.0</ele><time>2026-04-30T12:50:04.996Z</time></trkpt><trkpt lat="44.43388384410908" lon="8.962046744572376"><ele>31.0</ele><time>2026-04-30T12:50:05.996Z</time></trkpt><trkpt lat="44.43402029835867" lon="8.96210073966815"><ele>31.0</ele><time>2026-04-30T12:50:06.996Z</time></trkpt><trkpt lat="44.43414846062667" lon="8.962219932445537"><ele>31.0</ele><time>2026-04-30T12:50:07.996Z</time></trkpt><trkpt lat="44.434275414977876" lon="8.96233373714086"><ele>31.0</ele><time>2026-04-30T12:50:08.996Z</time></trkpt><trkpt lat="44.434397665812924" lon="8.96240249724999"><ele>31.0</ele><time>2026-04-30T12:50:09.996Z</time></trkpt><trkpt lat="44.43453340652967" lon="8.962440141738226"><ele>31.0</ele><time>2026-04-30T12:50:10.996Z</time></trkpt><trkpt lat="44.4346475668714" lon="8.962495542195878"><ele>31.0</ele><time>2026-04-30T12:50:11.996Z</time></trkpt><trkpt lat="44.43474897991139" lon="8.962563652330816"><ele>31.0</ele><time>2026-04-30T12:50:12.996Z</time></trkpt><trkpt lat="44.434858747554756" lon="8.962640641685873"><ele>31.0</ele><time>2026-04-30T12:50:13.996Z</time></trkpt><trkpt lat="44.434945895284834" lon="8.962724662353475"><ele>32.4</ele><time>2026-04-30T12:50:14.996Z</time></trkpt><trkpt lat="44.435023557292844" lon="8.962783741961058"><ele>33.8</ele><time>2026-04-30T12:50:15.996Z</time></trkpt><trkpt lat="44.435117475909315" lon="8.962756339278467"><ele>35.199999999999996</ele><time>2026-04-30T12:50:16.996Z</time></trkpt><trkpt lat="44.43522146336308" lon="8.96286203220171"><ele>36.6</ele><time>2026-04-30T12:50:18.996Z</time></trkpt><trkpt lat="44.43529726331951" lon="8.96288982805882"><ele>38.0</ele><time>2026-04-30T12:50:20.996Z</time></trkpt><trkpt lat="44.43540033676338" lon="8.962853828313067"><ele>38.0</ele><time>2026-04-30T12:50:23.996Z</time></trkpt><trkpt lat="44.4354175466113" lon="8.962939209126485"><ele>38.0</ele><time>2026-04-30T12:50:24.996Z</time></trkpt><trkpt lat="44.43552053958284" lon="8.962986187685908"><ele>38.0</ele><time>2026-04-30T12:50:26.996Z</time></trkpt><trkpt lat="44.43559925938688" lon="8.963018275683359"><ele>38.0</ele><time>2026-04-30T12:50:27.996Z</time></trkpt><trkpt lat="44.43565925457732" lon="8.963062294032005"><ele>38.0</ele><time>2026-04-30T12:50:28.996Z</time></trkpt><trkpt lat="44.43571948669993" lon="8.963101070062093"><ele>38.0</ele><time>2026-04-30T12:50:29.996Z</time></trkpt><trkpt lat="44.43576213387152" lon="8.96322826723142"><ele>37.166666666666664</ele><time>2026-04-30T12:50:31.996Z</time></trkpt><trkpt lat="44.43585969520443" lon="8.96319658049775"><ele>36.33333333333333</ele><time>2026-04-30T12:50:33.996Z</time></trkpt><trkpt lat="44.43592795815064" lon="8.963157873671667"><ele>35.5</ele><time>2026-04-30T12:50:34.996Z</time></trkpt><trkpt lat="44.4359998625377" lon="8.963133823351365"><ele>34.666666666666664</ele><time>2026-04-30T12:50:35.996Z</time></trkpt><trkpt lat="44.43606913182917" lon="8.963124204627372"><ele>33.833333333333336</ele><time>2026-04-30T12:50:36.996Z</time></trkpt><trkpt lat="44.43614042235455" lon="8.963062600119764"><ele>33.0</ele><time>2026-04-30T12:50:37.996Z</time></trkpt><trkpt lat="44.43624798884637" lon="8.963119400884956"><ele>33.5</ele><time>2026-04-30T12:50:38.996Z</time></trkpt><trkpt lat="44.43635955073236" lon="8.96316092559228"><ele>34.0</ele><time>2026-04-30T12:50:39.996Z</time></trkpt><trkpt lat="44.43645457813522" lon="8.96313539652095"><ele>34.5</ele><time>2026-04-30T12:50:40.996Z</time></trkpt><trkpt lat="44.43657188643815" lon="8.963173913398407"><ele>35.0</ele><time>2026-04-30T12:50:41.996Z</time></trkpt><trkpt lat="44.43669679877349" lon="8.96322139911932"><ele>35.0</ele><time>2026-04-30T12:50:42.996Z</time></trkpt><trkpt lat="44.43681562872262" lon="8.963236466395388"><ele>35.0</ele><time>2026-04-30T12:50:43.996Z</time></trkpt><trkpt lat="44.436909070010444" lon="8.963246021331818"><ele>35.0</ele><time>2026-04-30T12:50:44.995Z</time></trkpt><trkpt lat="44.437005039553924" lon="8.96326716885226"><ele>35.0</ele><time>2026-04-30T12:50:45.995Z</time></trkpt><trkpt lat="44.43707223006928" lon="8.963259703972831"><ele>35.0</ele><time>2026-04-30T12:50:46.995Z</time></trkpt><trkpt lat="44.437135427272686" lon="8.963266456483293"><ele>35.0</ele><time>2026-04-30T12:50:47.995Z</time></trkpt><trkpt lat="44.437192328730426" lon="8.963316851015625"><ele>35.0</ele><time>2026-04-30T12:50:48.995Z</time></trkpt><trkpt lat="44.43725769793763" lon="8.963290751828692"><ele>35.0</ele><time>2026-04-30T12:50:50.995Z</time></trkpt><trkpt lat="44.43733956686608" lon="8.963272855293454"><ele>35.0</ele><time>2026-04-30T12:50:53.995Z</time></trkpt><trkpt lat="44.43741935987157" lon="8.963311005182149"><ele>35.0</ele><time>2026-04-30T12:50:55.995Z</time></trkpt><trkpt lat="44.43749051468803" lon="8.963374034448702"><ele>35.0</ele><time>2026-04-30T12:50:57.995Z</time></trkpt><trkpt lat="44.437567742304665" lon="8.963415963737512"><ele>35.0</ele><time>2026-04-30T12:50:59.995Z</time></trkpt><trkpt lat="44.437679781285084" lon="8.963413893979292"><ele>35.6</ele><time>2026-04-30T12:51:01.995Z</time></trkpt><trkpt lat="44.43778876927335" lon="8.963484098289099"><ele>36.2</ele><time>2026-04-30T12:51:03.995Z</time></trkpt><trkpt lat="44.43787125047575" lon="8.963506417683305"><ele>36.8</ele><time>2026-04-30T12:51:05.995Z</time></trkpt><trkpt lat="44.43793751320628" lon="8.963504792378783"><ele>37.4</ele><time>2026-04-30T12:51:07.995Z</time></trkpt><trkpt lat="44.43799321563463" lon="8.963550909900913"><ele>38.0</ele><time>2026-04-30T12:51:09.995Z</time></trkpt><trkpt lat="44.438111130857365" lon="8.963555825687076"><ele>38.0</ele><time>2026-04-30T12:51:12.995Z</time></trkpt><trkpt lat="44.43820122493692" lon="8.963491796836392"><ele>38.0</ele><time>2026-04-30T12:51:13.995Z</time></trkpt><trkpt lat="44.43824921051583" lon="8.963562311347038"><ele>38.0</ele><time>2026-04-30T12:51:14.995Z</time></trkpt><trkpt lat="44.4383630441509" lon="8.963654893644469"><ele>38.0</ele><time>2026-04-30T12:51:16.995Z</time></trkpt><trkpt lat="44.4384127295614" lon="8.963727549675955"><ele>38.0</ele><time>2026-04-30T12:51:17.995Z</time></trkpt><trkpt lat="44.43847601146635" lon="8.963770947847538"><ele>38.0</ele><time>2026-04-30T12:51:19.995Z</time></trkpt><trkpt lat="44.43852616677231" lon="8.963849285944908"><ele>38.0</ele><time>2026-04-30T12:51:21.995Z</time></trkpt><trkpt lat="44.43853956329819" lon="8.96376113201566"><ele>38.0</ele><time>2026-04-30T12:51:22.995Z</time></trkpt><trkpt lat="44.43863752355967" lon="8.96374889384315"><ele>38.0</ele><time>2026-04-30T12:51:24.995Z</time></trkpt><trkpt lat="44.438784452478906" lon="8.963735464751304"><ele>38.0</ele><time>2026-04-30T12:51:26.995Z</time></trkpt><trkpt lat="44.438865523598054" lon="8.963716022841579"><ele>38.0</ele><time>2026-04-30T12:51:27.995Z</time></trkpt><trkpt lat="44.438963155457685" lon="8.963726104876612"><ele>37.857142857142854</ele><time>2026-04-30T12:51:28.995Z</time></trkpt><trkpt lat="44.4390336664485" lon="8.9637543762869"><ele>37.714285714285715</ele><time>2026-04-30T12:51:29.995Z</time></trkpt><trkpt lat="44.439098996734955" lon="8.963794403577612"><ele>37.57142857142857</ele><time>2026-04-30T12:51:30.995Z</time></trkpt><trkpt lat="44.43916056919725" lon="8.963822080551063"><ele>37.42857142857143</ele><time>2026-04-30T12:51:31.995Z</time></trkpt><trkpt lat="44.439237782730125" lon="8.96385886328192"><ele>37.285714285714285</ele><time>2026-04-30T12:51:32.995Z</time></trkpt><trkpt lat="44.43930799167084" lon="8.963854620339514"><ele>37.142857142857146</ele><time>2026-04-30T12:51:33.994Z</time></trkpt><trkpt lat="44.439375216568656" lon="8.963905662631248"><ele>37.0</ele><time>2026-04-30T12:51:34.994Z</time></trkpt><trkpt lat="44.439457124425" lon="8.963918627067638"><ele>37.0</ele><time>2026-04-30T12:51:35.994Z</time></trkpt><trkpt lat="44.43953550601272" lon="8.96393141955373"><ele>37.0</ele><time>2026-04-30T12:51:36.994Z</time></trkpt><trkpt lat="44.439622547913444" lon="8.963941539551259"><ele>37.0</ele><time>2026-04-30T12:51:37.994Z</time></trkpt><trkpt lat="44.439704810873266" lon="8.963935616981827"><ele>37.0</ele><time>2026-04-30T12:51:38.994Z</time></trkpt><trkpt lat="44.43977251208573" lon="8.96393698529931"><ele>37.0</ele><time>2026-04-30T12:51:39.994Z</time></trkpt><trkpt lat="44.439825323658724" lon="8.964001861412987"><ele>37.0</ele><time>2026-04-30T12:51:40.994Z</time></trkpt><trkpt lat="44.43991131585548" lon="8.964062784682106"><ele>37.16666666666667</ele><time>2026-04-30T12:51:41.994Z</time></trkpt><trkpt lat="44.43999151488781" lon="8.96411749199656"><ele>37.333333333333336</ele><time>2026-04-30T12:51:42.994Z</time></trkpt><trkpt lat="44.44008435111846" lon="8.96410858209262"><ele>37.5</ele><time>2026-04-30T12:51:43.994Z</time></trkpt><trkpt lat="44.44016019412775" lon="8.964109289093043"><ele>37.666666666666664</ele><time>2026-04-30T12:51:44.994Z</time></trkpt><trkpt lat="44.44022883991723" lon="8.964164677879689"><ele>37.83333333333333</ele><time>2026-04-30T12:51:45.994Z</time></trkpt><trkpt lat="44.44031601330723" lon="8.964200116858754"><ele>38.0</ele><time>2026-04-30T12:51:46.994Z</time></trkpt><trkpt lat="44.44040774981643" lon="8.96421819937745"><ele>38.5</ele><time>2026-04-30T12:51:47.994Z</time></trkpt><trkpt lat="44.44048326966999" lon="8.964256671045275"><ele>39.0</ele><time>2026-04-30T12:51:48.994Z</time></trkpt><trkpt lat="44.44056373420504" lon="8.964272847111124"><ele>39.5</ele><time>2026-04-30T12:51:49.994Z</time></trkpt><trkpt lat="44.440630611157836" lon="8.964349453948197"><ele>40.0</ele><time>2026-04-30T12:51:50.994Z</time></trkpt><trkpt lat="44.44071609357425" lon="8.96437911366753"><ele>40.5</ele><time>2026-04-30T12:51:51.994Z</time></trkpt><trkpt lat="44.440792489744894" lon="8.964406399048984"><ele>41.0</ele><time>2026-04-30T12:51:52.994Z</time></trkpt><trkpt lat="44.44086153533025" lon="8.964377082828886"><ele>41.0</ele><time>2026-04-30T12:51:53.994Z</time></trkpt><trkpt lat="44.44093789345378" lon="8.964409750706585"><ele>41.0</ele><time>2026-04-30T12:51:54.994Z</time></trkpt><trkpt lat="44.44100141230791" lon="8.964407525716485"><ele>41.0</ele><time>2026-04-30T12:51:55.994Z</time></trkpt><trkpt lat="44.44112012715525" lon="8.964445136832142"><ele>41.0</ele><time>2026-04-30T12:51:57.994Z</time></trkpt><trkpt lat="44.44116457503456" lon="8.964515683064084"><ele>41.0</ele><time>2026-04-30T12:51:58.994Z</time></trkpt><trkpt lat="44.44122045020372" lon="8.964566721862534"><ele>41.0</ele><time>2026-04-30T12:51:59.994Z</time></trkpt><trkpt lat="44.44131231371272" lon="8.964609455927208"><ele>40.199999999999996</ele><time>2026-04-30T12:52:02.994Z</time></trkpt><trkpt lat="44.4413886590436" lon="8.964646047591563"><ele>39.4</ele><time>2026-04-30T12:52:05.994Z</time></trkpt><trkpt lat="44.441506359527395" lon="8.964712664186862"><ele>38.6</ele><time>2026-04-30T12:52:07.994Z</time></trkpt><trkpt lat="44.44158188106528" lon="8.964765146427057"><ele>37.8</ele><time>2026-04-30T12:52:08.994Z</time></trkpt><trkpt lat="44.44165883386458" lon="8.964822724279044"><ele>37.0</ele><time>2026-04-30T12:52:09.994Z</time></trkpt><trkpt lat="44.441732347622235" lon="8.964868027535488"><ele>37.0</ele><time>2026-04-30T12:52:10.994Z</time></trkpt><trkpt lat="44.44179366627436" lon="8.964923889131237"><ele>37.0</ele><time>2026-04-30T12:52:11.994Z</time></trkpt><trkpt lat="44.44184781265355" lon="8.964988432151953"><ele>37.0</ele><time>2026-04-30T12:52:12.994Z</time></trkpt><trkpt lat="44.44190137379054" lon="8.96504404575121"><ele>37.0</ele><time>2026-04-30T12:52:13.994Z</time></trkpt><trkpt lat="44.44196652078177" lon="8.965063898005063"><ele>37.0</ele><time>2026-04-30T12:52:14.994Z</time></trkpt><trkpt lat="44.44204190122591" lon="8.965070336841896"><ele>37.0</ele><time>2026-04-30T12:52:15.994Z</time></trkpt><trkpt lat="44.442128242535055" lon="8.965093540523428"><ele>37.0</ele><time>2026-04-30T12:52:16.994Z</time></trkpt><trkpt lat="44.442214655816876" lon="8.965172353997112"><ele>38.0</ele><time>2026-04-30T12:52:17.994Z</time></trkpt><trkpt lat="44.44232287883967" lon="8.965254393388498"><ele>39.0</ele><time>2026-04-30T12:52:18.994Z</time></trkpt><trkpt lat="44.442441638097335" lon="8.965348446899764"><ele>40.0</ele><time>2026-04-30T12:52:19.994Z</time></trkpt><trkpt lat="44.44256674349217" lon="8.965443055361591"><ele>41.0</ele><time>2026-04-30T12:52:20.994Z</time></trkpt><trkpt lat="44.44269552772129" lon="8.965545316603201"><ele>41.0</ele><time>2026-04-30T12:52:21.993Z</time></trkpt><trkpt lat="44.44282937771707" lon="8.96564398793735"><ele>41.0</ele><time>2026-04-30T12:52:22.993Z</time></trkpt><trkpt lat="44.442965928430375" lon="8.965756613831093"><ele>41.0</ele><time>2026-04-30T12:52:23.993Z</time></trkpt><trkpt lat="44.44310276922077" lon="8.965878990831794"><ele>41.33333333333333</ele><time>2026-04-30T12:52:24.993Z</time></trkpt><trkpt lat="44.44324808421601" lon="8.96600192811648"><ele>41.666666666666664</ele><time>2026-04-30T12:52:25.993Z</time></trkpt><trkpt lat="44.44339483542492" lon="8.966127359968633"><ele>42.0</ele><time>2026-04-30T12:52:26.993Z</time></trkpt><trkpt lat="44.443545676768345" lon="8.966274548059333"><ele>42.0</ele><time>2026-04-30T12:52:27.993Z</time></trkpt><trkpt lat="44.44368209730878" lon="8.966458543497534"><ele>42.0</ele><time>2026-04-30T12:52:28.993Z</time></trkpt><trkpt lat="44.44385197559668" lon="8.966629880208025"><ele>42.0</ele><time>2026-04-30T12:52:29.993Z</time></trkpt><trkpt lat="44.44397778996934" lon="8.966784930709505"><ele>42.0</ele><time>2026-04-30T12:52:30.993Z</time></trkpt><trkpt lat="44.44412287890628" lon="8.96694973415777"><ele>42.0</ele><time>2026-04-30T12:52:31.993Z</time></trkpt><trkpt lat="44.44423967187957" lon="8.967120154414928"><ele>42.0</ele><time>2026-04-30T12:52:32.993Z</time></trkpt><trkpt lat="44.44435493115002" lon="8.967276294212029"><ele>42.0</ele><time>2026-04-30T12:52:33.993Z</time></trkpt><trkpt lat="44.44449332500652" lon="8.967482799306419"><ele>42.0</ele><time>2026-04-30T12:52:34.993Z</time></trkpt><trkpt lat="44.444631262394175" lon="8.967656736126958"><ele>42.0</ele><time>2026-04-30T12:52:35.993Z</time></trkpt><trkpt lat="44.4447532991217" lon="8.967823776903222"><ele>42.333333333333336</ele><time>2026-04-30T12:52:36.993Z</time></trkpt><trkpt lat="44.444861418230325" lon="8.967968476079431"><ele>42.66666666666667</ele><time>2026-04-30T12:52:37.993Z</time></trkpt><trkpt lat="44.4449873498951" lon="8.968110455049203"><ele>43.0</ele><time>2026-04-30T12:52:38.993Z</time></trkpt><trkpt lat="44.44510231852839" lon="8.968295171806343"><ele>43.0</ele><time>2026-04-30T12:52:39.993Z</time></trkpt><trkpt lat="44.44524236342949" lon="8.968449758112815"><ele>43.0</ele><time>2026-04-30T12:52:40.993Z</time></trkpt><trkpt lat="44.44538202181961" lon="8.968597553614531"><ele>43.0</ele><time>2026-04-30T12:52:41.993Z</time></trkpt><trkpt lat="44.44550208858796" lon="8.96876191221132"><ele>43.0</ele><time>2026-04-30T12:52:42.993Z</time></trkpt><trkpt lat="44.44561654521956" lon="8.968943462786779"><ele>43.0</ele><time>2026-04-30T12:52:43.993Z</time></trkpt><trkpt lat="44.44576014560221" lon="8.969038688478536"><ele>43.0</ele><time>2026-04-30T12:52:44.993Z</time></trkpt><trkpt lat="44.445879236738534" lon="8.96919288508771"><ele>43.66666666666667</ele><time>2026-04-30T12:52:45.993Z</time></trkpt><trkpt lat="44.44600611477315" lon="8.96931032140405"><ele>44.333333333333336</ele><time>2026-04-30T12:52:46.993Z</time></trkpt><trkpt lat="44.44614072850945" lon="8.969498670390525"><ele>45.0</ele><time>2026-04-30T12:52:47.993Z</time></trkpt><trkpt lat="44.4462701476755" lon="8.969609521348351"><ele>45.0</ele><time>2026-04-30T12:52:48.993Z</time></trkpt><trkpt lat="44.44638886160609" lon="8.969772541933366"><ele>45.0</ele><time>2026-04-30T12:52:49.993Z</time></trkpt><trkpt lat="44.44649157019677" lon="8.96994984356877"><ele>45.0</ele><time>2026-04-30T12:52:50.993Z</time></trkpt><trkpt lat="44.44659908367873" lon="8.970131166925002"><ele>45.0</ele><time>2026-04-30T12:52:51.993Z</time></trkpt><trkpt lat="44.4466966923896" lon="8.970298866054032"><ele>45.0</ele><time>2026-04-30T12:52:52.993Z</time></trkpt><trkpt lat="44.446811516376854" lon="8.970423610933938"><ele>45.0</ele><time>2026-04-30T12:52:53.993Z</time></trkpt><trkpt lat="44.44692090783785" lon="8.970564369087334"><ele>45.0</ele><time>2026-04-30T12:52:54.993Z</time></trkpt><trkpt lat="44.44704262004661" lon="8.970675059572537"><ele>44.666666666666664</ele><time>2026-04-30T12:52:55.993Z</time></trkpt><trkpt lat="44.44715101231062" lon="8.970808977112053"><ele>44.33333333333333</ele><time>2026-04-30T12:52:56.993Z</time></trkpt><trkpt lat="44.4472567967964" lon="8.970954729551028"><ele>44.0</ele><time>2026-04-30T12:52:57.993Z</time></trkpt><trkpt lat="44.44736827495097" lon="8.971126099735175"><ele>44.75</ele><time>2026-04-30T12:52:58.993Z</time></trkpt><trkpt lat="44.44747497815631" lon="8.971250598224035"><ele>45.5</ele><time>2026-04-30T12:52:59.993Z</time></trkpt><trkpt lat="44.447583053917384" lon="8.97138386474017"><ele>46.25</ele><time>2026-04-30T12:53:00.993Z</time></trkpt><trkpt lat="44.44770805983771" lon="8.971511523395884"><ele>47.0</ele><time>2026-04-30T12:53:01.993Z</time></trkpt><trkpt lat="44.44784791795916" lon="8.971572001636623"><ele>46.5</ele><time>2026-04-30T12:53:02.993Z</time></trkpt><trkpt lat="44.44793344697682" lon="8.971744741298503"><ele>46.0</ele><time>2026-04-30T12:53:03.993Z</time></trkpt><trkpt lat="44.44804917901286" lon="8.971857517740947"><ele>45.5</ele><time>2026-04-30T12:53:04.993Z</time></trkpt><trkpt lat="44.4481569572451" lon="8.971986536964405"><ele>45.0</ele><time>2026-04-30T12:53:05.993Z</time></trkpt><trkpt lat="44.44826803653443" lon="8.972136877322809"><ele>45.0</ele><time>2026-04-30T12:53:06.993Z</time></trkpt><trkpt lat="44.44837937465769" lon="8.972289048787447"><ele>45.0</ele><time>2026-04-30T12:53:07.993Z</time></trkpt><trkpt lat="44.44853098304882" lon="8.972406978170977"><ele>45.0</ele><time>2026-04-30T12:53:08.993Z</time></trkpt><trkpt lat="44.44863904581751" lon="8.972557457194807"><ele>45.75</ele><time>2026-04-30T12:53:09.993Z</time></trkpt><trkpt lat="44.4487398328015" lon="8.97270452415927"><ele>46.5</ele><time>2026-04-30T12:53:10.993Z</time></trkpt><trkpt lat="44.44884094242219" lon="8.972855961895498"><ele>47.25</ele><time>2026-04-30T12:53:11.992Z</time></trkpt><trkpt lat="44.44894129963944" lon="8.97301225651918"><ele>48.0</ele><time>2026-04-30T12:53:12.992Z</time></trkpt><trkpt lat="44.449041015611805" lon="8.97316211030682"><ele>48.0</ele><time>2026-04-30T12:53:13.992Z</time></trkpt><trkpt lat="44.449173434778814" lon="8.973290047736228"><ele>48.0</ele><time>2026-04-30T12:53:14.992Z</time></trkpt><trkpt lat="44.44931318736879" lon="8.973437104852982"><ele>48.0</ele><time>2026-04-30T12:53:15.992Z</time></trkpt><trkpt lat="44.44943479944157" lon="8.97360647300691"><ele>48.33333333333333</ele><time>2026-04-30T12:53:16.992Z</time></trkpt><trkpt lat="44.44955308368218" lon="8.973793004547169"><ele>48.666666666666664</ele><time>2026-04-30T12:53:17.992Z</time></trkpt><trkpt lat="44.44965502301465" lon="8.973966103067479"><ele>49.0</ele><time>2026-04-30T12:53:18.992Z</time></trkpt><trkpt lat="44.44978030034207" lon="8.974121709698963"><ele>52.0</ele><time>2026-04-30T12:53:19.992Z</time></trkpt><trkpt lat="44.44989376536689" lon="8.974268771099537"><ele>55.0</ele><time>2026-04-30T12:53:20.992Z</time></trkpt><trkpt lat="44.450005565347254" lon="8.974423334119127"><ele>58.0</ele><time>2026-04-30T12:53:21.992Z</time></trkpt><trkpt lat="44.45010257962014" lon="8.974574556721544"><ele>58.0</ele><time>2026-04-30T12:53:22.992Z</time></trkpt><trkpt lat="44.450232302111516" lon="8.974698889458132"><ele>58.0</ele><time>2026-04-30T12:53:23.992Z</time></trkpt><trkpt lat="44.45033082461856" lon="8.974845344207788"><ele>58.0</ele><time>2026-04-30T12:53:24.992Z</time></trkpt><trkpt lat="44.45043314177628" lon="8.974927506974216"><ele>58.0</ele><time>2026-04-30T12:53:25.992Z</time></trkpt><trkpt lat="44.45052883261903" lon="8.97507783015536"><ele>55.0</ele><time>2026-04-30T12:53:26.992Z</time></trkpt><trkpt lat="44.450644198660456" lon="8.97527497223333"><ele>52.0</ele><time>2026-04-30T12:53:27.992Z</time></trkpt><trkpt lat="44.45079599746913" lon="8.97539714350948"><ele>49.0</ele><time>2026-04-30T12:53:28.992Z</time></trkpt><trkpt lat="44.45091684656975" lon="8.975528008240422"><ele>49.0</ele><time>2026-04-30T12:53:29.992Z</time></trkpt><trkpt lat="44.45099524109855" lon="8.975688269874878"><ele>49.0</ele><time>2026-04-30T12:53:30.992Z</time></trkpt><trkpt lat="44.45110312168801" lon="8.975805256424298"><ele>49.0</ele><time>2026-04-30T12:53:31.992Z</time></trkpt><trkpt lat="44.45119176578056" lon="8.975951264563195"><ele>49.0</ele><time>2026-04-30T12:53:32.992Z</time></trkpt><trkpt lat="44.451305501893934" lon="8.976101016870524"><ele>50.6</ele><time>2026-04-30T12:53:33.992Z</time></trkpt><trkpt lat="44.451382342492344" lon="8.976245798402877"><ele>52.2</ele><time>2026-04-30T12:53:34.992Z</time></trkpt><trkpt lat="44.45145107654699" lon="8.976369839496298"><ele>53.800000000000004</ele><time>2026-04-30T12:53:35.992Z</time></trkpt><trkpt lat="44.451500394026326" lon="8.976488827952117"><ele>55.400000000000006</ele><time>2026-04-30T12:53:37Z</time></trkpt><trkpt lat="44.451577146280904" lon="8.976587459712421"><ele>57.0</ele><time>2026-04-30T12:53:38Z</time></trkpt><trkpt lat="44.451663178859654" lon="8.976680767275457"><ele>58.8</ele><time>2026-04-30T12:53:39Z</time></trkpt><trkpt lat="44.4517236666387" lon="8.976822554454278"><ele>60.6</ele><time>2026-04-30T12:53:40Z</time></trkpt><trkpt lat="44.45178146325483" lon="8.976953021887658"><ele>62.39999999999999</ele><time>2026-04-30T12:53:41Z</time></trkpt><trkpt lat="44.45184704324844" lon="8.977091311240926"><ele>64.2</ele><time>2026-04-30T12:53:42Z</time></trkpt><trkpt lat="44.4518984095792" lon="8.977162673338322"><ele>66.0</ele><time>2026-04-30T12:53:43Z</time></trkpt><trkpt lat="44.4519387415597" lon="8.977316984729963"><ele>66.0</ele><time>2026-04-30T12:53:44Z</time></trkpt><trkpt lat="44.45196839428267" lon="8.977495914081572"><ele>66.0</ele><time>2026-04-30T12:53:45Z</time></trkpt><trkpt lat="44.452028989166394" lon="8.977641537813163"><ele>66.0</ele><time>2026-04-30T12:53:46Z</time></trkpt><trkpt lat="44.45212996035586" lon="8.977744443332892"><ele>66.0</ele><time>2026-04-30T12:53:47Z</time></trkpt><trkpt lat="44.45221141671625" lon="8.977867310479397"><ele>66.0</ele><time>2026-04-30T12:53:48Z</time></trkpt><trkpt lat="44.45226323730185" lon="8.978007885577874"><ele>66.0</ele><time>2026-04-30T12:53:49Z</time></trkpt><trkpt lat="44.45231787953506" lon="8.978164756662153"><ele>66.0</ele><time>2026-04-30T12:53:50Z</time></trkpt><trkpt lat="44.45235165857768" lon="8.978369976853422"><ele>66.0</ele><time>2026-04-30T12:53:51Z</time></trkpt><trkpt lat="44.452382944274966" lon="8.978502859516977"><ele>66.0</ele><time>2026-04-30T12:53:52Z</time></trkpt><trkpt lat="44.45243245389006" lon="8.978659097933425"><ele>66.0</ele><time>2026-04-30T12:53:53Z</time></trkpt><trkpt lat="44.452486831080755" lon="8.978806404490427"><ele>66.0</ele><time>2026-04-30T12:53:54Z</time></trkpt><trkpt lat="44.45253356949428" lon="8.978931834810172"><ele>66.0</ele><time>2026-04-30T12:53:55Z</time></trkpt><trkpt lat="44.452558111456774" lon="8.979027446232008"><ele>66.0</ele><time>2026-04-30T12:53:56Z</time></trkpt><trkpt lat="44.45258280013718" lon="8.979142155569356"><ele>66.16666666666667</ele><time>2026-04-30T12:53:57Z</time></trkpt><trkpt lat="44.452612912015" lon="8.979250299465482"><ele>66.33333333333333</ele><time>2026-04-30T12:53:58Z</time></trkpt><trkpt lat="44.45263955155077" lon="8.979355974069026"><ele>66.5</ele><time>2026-04-30T12:53:59Z</time></trkpt><trkpt lat="44.45264413975799" lon="8.979496592771559"><ele>66.66666666666666</ele><time>2026-04-30T12:54:00Z</time></trkpt><trkpt lat="44.45269723103957" lon="8.979590317425133"><ele>66.83333333333333</ele><time>2026-04-30T12:54:01Z</time></trkpt><trkpt lat="44.45271606295313" lon="8.979690507428362"><ele>67.0</ele><time>2026-04-30T12:54:02Z</time></trkpt><trkpt lat="44.45274029664025" lon="8.979778180114923"><ele>67.0</ele><time>2026-04-30T12:54:03Z</time></trkpt><trkpt lat="44.452766747234094" lon="8.979888153029252"><ele>67.0</ele><time>2026-04-30T12:54:04Z</time></trkpt><trkpt lat="44.452782701149815" lon="8.980004135594536"><ele>67.0</ele><time>2026-04-30T12:54:05Z</time></trkpt><trkpt lat="44.452831293219724" lon="8.980138578560327"><ele>67.0</ele><time>2026-04-30T12:54:07Z</time></trkpt><trkpt lat="44.452911821139175" lon="8.980250644982535"><ele>67.0</ele><time>2026-04-30T12:54:09Z</time></trkpt><trkpt lat="44.45291991470203" lon="8.980364638275363"><ele>66.4</ele><time>2026-04-30T12:54:12Z</time></trkpt><trkpt lat="44.452942932682596" lon="8.980461971897624"><ele>65.80000000000001</ele><time>2026-04-30T12:54:13Z</time></trkpt><trkpt lat="44.45297763277294" lon="8.9805577087235"><ele>65.2</ele><time>2026-04-30T12:54:14Z</time></trkpt><trkpt lat="44.453011664886716" lon="8.98068620442127"><ele>64.60000000000001</ele><time>2026-04-30T12:54:15Z</time></trkpt><trkpt lat="44.45302502460924" lon="8.980805684043636"><ele>64.0</ele><time>2026-04-30T12:54:16Z</time></trkpt><trkpt lat="44.45305219554586" lon="8.980980487616902"><ele>61.25</ele><time>2026-04-30T12:54:17Z</time></trkpt><trkpt lat="44.45309121478139" lon="8.981120508313763"><ele>58.5</ele><time>2026-04-30T12:54:18Z</time></trkpt><trkpt lat="44.453145063172194" lon="8.981289935378877"><ele>55.75</ele><time>2026-04-30T12:54:19Z</time></trkpt><trkpt lat="44.45317876634937" lon="8.981441205679742"><ele>53.0</ele><time>2026-04-30T12:54:20Z</time></trkpt><trkpt lat="44.453223651228384" lon="8.981611403365953"><ele>53.333333333333336</ele><time>2026-04-30T12:54:21Z</time></trkpt><trkpt lat="44.453275354398045" lon="8.981825333836419"><ele>53.66666666666667</ele><time>2026-04-30T12:54:22Z</time></trkpt><trkpt lat="44.45331494836913" lon="8.98205114151305"><ele>54.0</ele><time>2026-04-30T12:54:23Z</time></trkpt><trkpt lat="44.45338399457886" lon="8.982219192179407"><ele>54.0</ele><time>2026-04-30T12:54:24Z</time></trkpt><trkpt lat="44.45341437460501" lon="8.982440028597477"><ele>54.0</ele><time>2026-04-30T12:54:25Z</time></trkpt><trkpt lat="44.45345333444045" lon="8.982635105819003"><ele>54.0</ele><time>2026-04-30T12:54:26Z</time></trkpt><trkpt lat="44.453546311660205" lon="8.982824922899093"><ele>54.33333333333333</ele><time>2026-04-30T12:54:26.999Z</time></trkpt><trkpt lat="44.45358195925149" lon="8.983038822230474"><ele>54.666666666666664</ele><time>2026-04-30T12:54:27.999Z</time></trkpt><trkpt lat="44.453622030334266" lon="8.983252201315247"><ele>55.0</ele><time>2026-04-30T12:54:28.999Z</time></trkpt><trkpt lat="44.45365970760421" lon="8.983455164186523"><ele>55.33333333333333</ele><time>2026-04-30T12:54:29.999Z</time></trkpt><trkpt lat="44.453737254275175" lon="8.983652311921778"><ele>55.66666666666667</ele><time>2026-04-30T12:54:30.999Z</time></trkpt><trkpt lat="44.45377200180814" lon="8.983851647419673"><ele>56.0</ele><time>2026-04-30T12:54:31.999Z</time></trkpt><trkpt lat="44.45380392922144" lon="8.984058457635092"><ele>56.0</ele><time>2026-04-30T12:54:32.999Z</time></trkpt><trkpt lat="44.45383265679961" lon="8.984241819619683"><ele>56.0</ele><time>2026-04-30T12:54:33.999Z</time></trkpt><trkpt lat="44.45382942187667" lon="8.984449357832196"><ele>56.0</ele><time>2026-04-30T12:54:34.999Z</time></trkpt><trkpt lat="44.45382709484558" lon="8.984644006749601"><ele>56.0</ele><time>2026-04-30T12:54:35.999Z</time></trkpt><trkpt lat="44.45383514906492" lon="8.98482102387122"><ele>55.75</ele><time>2026-04-30T12:54:36.999Z</time></trkpt><trkpt lat="44.45383263968172" lon="8.985020244308036"><ele>55.5</ele><time>2026-04-30T12:54:37.999Z</time></trkpt><trkpt lat="44.45384728435408" lon="8.985209261321648"><ele>55.25</ele><time>2026-04-30T12:54:38.999Z</time></trkpt><trkpt lat="44.453840412575666" lon="8.985408290644195"><ele>55.0</ele><time>2026-04-30T12:54:39.999Z</time></trkpt><trkpt lat="44.4538374090702" lon="8.985615458815724"><ele>55.0</ele><time>2026-04-30T12:54:40.999Z</time></trkpt><trkpt lat="44.45382019072189" lon="8.985807497652853"><ele>55.0</ele><time>2026-04-30T12:54:41.999Z</time></trkpt><trkpt lat="44.453813611301086" lon="8.985987912282715"><ele>55.0</ele><time>2026-04-30T12:54:42.999Z</time></trkpt><trkpt lat="44.45379110497491" lon="8.98616477239815"><ele>55.0</ele><time>2026-04-30T12:54:43.999Z</time></trkpt><trkpt lat="44.453763733493645" lon="8.98634582764823"><ele>59.5</ele><time>2026-04-30T12:54:44.999Z</time></trkpt><trkpt lat="44.45372105215273" lon="8.98653195311307"><ele>64.0</ele><time>2026-04-30T12:54:45.999Z</time></trkpt><trkpt lat="44.45366776106425" lon="8.986718847778222"><ele>68.5</ele><time>2026-04-30T12:54:46.999Z</time></trkpt><trkpt lat="44.45361706811609" lon="8.986901722847698"><ele>73.0</ele><time>2026-04-30T12:54:47.999Z</time></trkpt><trkpt lat="44.45354267832893" lon="8.987050844356316"><ele>73.0</ele><time>2026-04-30T12:54:48.999Z</time></trkpt><trkpt lat="44.453477855639065" lon="8.98723142572469"><ele>73.0</ele><time>2026-04-30T12:54:49.999Z</time></trkpt><trkpt lat="44.453436755323224" lon="8.987427479878939"><ele>73.0</ele><time>2026-04-30T12:54:50.999Z</time></trkpt><trkpt lat="44.45337397929641" lon="8.98762832911211"><ele>73.0</ele><time>2026-04-30T12:54:51.999Z</time></trkpt><trkpt lat="44.45331327458572" lon="8.9878324180991"><ele>69.75</ele><time>2026-04-30T12:54:52.999Z</time></trkpt><trkpt lat="44.45326433469647" lon="8.988034687553167"><ele>66.5</ele><time>2026-04-30T12:54:53.999Z</time></trkpt><trkpt lat="44.453193831305086" lon="8.98819826898923"><ele>63.25</ele><time>2026-04-30T12:54:54.999Z</time></trkpt><trkpt lat="44.453168168014344" lon="8.988399002280824"><ele>60.0</ele><time>2026-04-30T12:54:55.999Z</time></trkpt><trkpt lat="44.453100111776436" lon="8.988562908108053"><ele>60.0</ele><time>2026-04-30T12:54:56.999Z</time></trkpt><trkpt lat="44.45304693059249" lon="8.988767790007676"><ele>60.0</ele><time>2026-04-30T12:54:57.999Z</time></trkpt><trkpt lat="44.453017733100154" lon="8.988972585849002"><ele>60.0</ele><time>2026-04-30T12:54:58.999Z</time></trkpt><trkpt lat="44.45295763218677" lon="8.989137169909407"><ele>60.0</ele><time>2026-04-30T12:54:59.999Z</time></trkpt><trkpt lat="44.452880108333645" lon="8.989270920663362"><ele>63.25</ele><time>2026-04-30T12:55:00.999Z</time></trkpt><trkpt lat="44.45285952970624" lon="8.989469987582018"><ele>66.5</ele><time>2026-04-30T12:55:01.999Z</time></trkpt><trkpt lat="44.45281980626978" lon="8.989609319785334"><ele>69.75</ele><time>2026-04-30T12:55:02.999Z</time></trkpt><trkpt lat="44.452782893903354" lon="8.98978354078759"><ele>73.0</ele><time>2026-04-30T12:55:03.999Z</time></trkpt><trkpt lat="44.452738672157395" lon="8.989917686418197"><ele>70.75</ele><time>2026-04-30T12:55:04.999Z</time></trkpt><trkpt lat="44.45269621314824" lon="8.990068708782864"><ele>68.5</ele><time>2026-04-30T12:55:05.999Z</time></trkpt><trkpt lat="44.45265602031181" lon="8.990250445104774"><ele>66.25</ele><time>2026-04-30T12:55:06.999Z</time></trkpt><trkpt lat="44.45258875048344" lon="8.99042480718015"><ele>64.0</ele><time>2026-04-30T12:55:07.999Z</time></trkpt><trkpt lat="44.45247056314198" lon="8.990537165808723"><ele>64.0</ele><time>2026-04-30T12:55:08.999Z</time></trkpt><trkpt lat="44.45234124905811" lon="8.990651477839643"><ele>64.0</ele><time>2026-04-30T12:55:09.999Z</time></trkpt><trkpt lat="44.45222657584883" lon="8.990766314990832"><ele>64.0</ele><time>2026-04-30T12:55:10.999Z</time></trkpt><trkpt lat="44.45208655438402" lon="8.990823892923437"><ele>64.0</ele><time>2026-04-30T12:55:11.999Z</time></trkpt><trkpt lat="44.451954905430306" lon="8.990924173458545"><ele>64.75</ele><time>2026-04-30T12:55:12.999Z</time></trkpt><trkpt lat="44.45184169901817" lon="8.991043757672724"><ele>65.5</ele><time>2026-04-30T12:55:13.999Z</time></trkpt><trkpt lat="44.45175607110876" lon="8.991150506873211"><ele>66.25</ele><time>2026-04-30T12:55:14.999Z</time></trkpt><trkpt lat="44.45166001402348" lon="8.991215674831054"><ele>67.0</ele><time>2026-04-30T12:55:15.998Z</time></trkpt><trkpt lat="44.45155969838787" lon="8.99126791349008"><ele>67.0</ele><time>2026-04-30T12:55:16.998Z</time></trkpt><trkpt lat="44.45147041736718" lon="8.991340113198548"><ele>67.0</ele><time>2026-04-30T12:55:17.998Z</time></trkpt><trkpt lat="44.45136655113488" lon="8.991358035876864"><ele>67.0</ele><time>2026-04-30T12:55:18.998Z</time></trkpt><trkpt lat="44.45126861123499" lon="8.991325417404623"><ele>67.0</ele><time>2026-04-30T12:55:19.998Z</time></trkpt><trkpt lat="44.45114541143593" lon="8.991286693508167"><ele>67.0</ele><time>2026-04-30T12:55:20.998Z</time></trkpt><trkpt lat="44.451006268285305" lon="8.991258440556797"><ele>69.0</ele><time>2026-04-30T12:55:21.998Z</time></trkpt><trkpt lat="44.45084130058569" lon="8.991245005831118"><ele>71.0</ele><time>2026-04-30T12:55:22.998Z</time></trkpt><trkpt lat="44.45068341056708" lon="8.991226813630272"><ele>73.0</ele><time>2026-04-30T12:55:23.998Z</time></trkpt><trkpt lat="44.450515671832996" lon="8.991260874960416"><ele>73.0</ele><time>2026-04-30T12:55:24.998Z</time></trkpt><trkpt lat="44.450355288078136" lon="8.991307511636233"><ele>73.0</ele><time>2026-04-30T12:55:25.998Z</time></trkpt><trkpt lat="44.45021784847769" lon="8.99138247374765"><ele>73.0</ele><time>2026-04-30T12:55:26.998Z</time></trkpt><trkpt lat="44.450088363204856" lon="8.991482709088121"><ele>73.0</ele><time>2026-04-30T12:55:27.998Z</time></trkpt><trkpt lat="44.44995552358859" lon="8.991599476715058"><ele>73.0</ele><time>2026-04-30T12:55:28.998Z</time></trkpt><trkpt lat="44.44983593808419" lon="8.991764073571167"><ele>73.0</ele><time>2026-04-30T12:55:29.998Z</time></trkpt><trkpt lat="44.449735165175476" lon="8.991937891895587"><ele>72.66666666666666</ele><time>2026-04-30T12:55:30.998Z</time></trkpt><trkpt lat="44.44968544746819" lon="8.99216340422155"><ele>72.33333333333333</ele><time>2026-04-30T12:55:31.998Z</time></trkpt><trkpt lat="44.449596678014196" lon="8.992343267923257"><ele>72.0</ele><time>2026-04-30T12:55:32.998Z</time></trkpt><trkpt lat="44.44949150709199" lon="8.992554816718823"><ele>71.33333333333333</ele><time>2026-04-30T12:55:33.998Z</time></trkpt><trkpt lat="44.44941555230481" lon="8.992793964668484"><ele>70.66666666666666</ele><time>2026-04-30T12:55:34.998Z</time></trkpt><trkpt lat="44.44932354962852" lon="8.992967331369993"><ele>70.0</ele><time>2026-04-30T12:55:35.998Z</time></trkpt><trkpt lat="44.449247580561654" lon="8.993164911043817"><ele>69.33333333333333</ele><time>2026-04-30T12:55:36.998Z</time></trkpt><trkpt lat="44.44915745486599" lon="8.993376963709611"><ele>68.66666666666667</ele><time>2026-04-30T12:55:37.998Z</time></trkpt><trkpt lat="44.449085209375156" lon="8.993555886807522"><ele>68.0</ele><time>2026-04-30T12:55:38.998Z</time></trkpt><trkpt lat="44.449033821585836" lon="8.993781330907732"><ele>68.0</ele><time>2026-04-30T12:55:39.998Z</time></trkpt><trkpt lat="44.44895329579452" lon="8.993981338613896"><ele>68.0</ele><time>2026-04-30T12:55:40.998Z</time></trkpt><trkpt lat="44.44889640528796" lon="8.994164788592276"><ele>68.0</ele><time>2026-04-30T12:55:41.998Z</time></trkpt><trkpt lat="44.44885745744604" lon="8.994348497417826"><ele>68.0</ele><time>2026-04-30T12:55:42.998Z</time></trkpt><trkpt lat="44.44881397732181" lon="8.994526833363151"><ele>68.0</ele><time>2026-04-30T12:55:43.998Z</time></trkpt><trkpt lat="44.448775183706" lon="8.994704140403433"><ele>68.0</ele><time>2026-04-30T12:55:44.998Z</time></trkpt><trkpt lat="44.44873942140895" lon="8.994872700559059"><ele>68.0</ele><time>2026-04-30T12:55:45.998Z</time></trkpt><trkpt lat="44.44867575124736" lon="8.995027403710147"><ele>68.0</ele><time>2026-04-30T12:55:46.998Z</time></trkpt><trkpt lat="44.44864077258293" lon="8.995217767718035"><ele>68.0</ele><time>2026-04-30T12:55:47.998Z</time></trkpt><trkpt lat="44.448605746474385" lon="8.99536216749019"><ele>68.0</ele><time>2026-04-30T12:55:48.998Z</time></trkpt><trkpt lat="44.44856694187357" lon="8.995512293818347"><ele>68.0</ele><time>2026-04-30T12:55:49.998Z</time></trkpt><trkpt lat="44.4485155798489" lon="8.9956335945713"><ele>68.0</ele><time>2026-04-30T12:55:50.998Z</time></trkpt><trkpt lat="44.44849633767671" lon="8.995762039172213"><ele>68.0</ele><time>2026-04-30T12:55:51.998Z</time></trkpt><trkpt lat="44.44846057358203" lon="8.995888710442655"><ele>68.0</ele><time>2026-04-30T12:55:52.998Z</time></trkpt><trkpt lat="44.44843262727227" lon="8.99600648016773"><ele>68.0</ele><time>2026-04-30T12:55:53.998Z</time></trkpt><trkpt lat="44.44840940789641" lon="8.996123048133478"><ele>68.0</ele><time>2026-04-30T12:55:54.998Z</time></trkpt><trkpt lat="44.44836032131818" lon="8.99623855063539"><ele>68.0</ele><time>2026-04-30T12:55:55.998Z</time></trkpt><trkpt lat="44.44831208480371" lon="8.996358476801982"><ele>68.0</ele><time>2026-04-30T12:55:56.998Z</time></trkpt><trkpt lat="44.44829812618122" lon="8.996472687884081"><ele>68.0</ele><time>2026-04-30T12:55:57.998Z</time></trkpt><trkpt lat="44.44828014651898" lon="8.99657511994435"><ele>68.0</ele><time>2026-04-30T12:55:58.998Z</time></trkpt><trkpt lat="44.44823933314976" lon="8.996684049049993"><ele>68.0</ele><time>2026-04-30T12:55:59.998Z</time></trkpt><trkpt lat="44.44818981355053" lon="8.996809095745961"><ele>68.0</ele><time>2026-04-30T12:56:00.998Z</time></trkpt><trkpt lat="44.44815741614535" lon="8.996926028035562"><ele>68.0</ele><time>2026-04-30T12:56:01.998Z</time></trkpt><trkpt lat="44.4481089895878" lon="8.997058162685706"><ele>68.0</ele><time>2026-04-30T12:56:02.998Z</time></trkpt><trkpt lat="44.44810617726639" lon="8.997246062639253"><ele>68.0</ele><time>2026-04-30T12:56:03.998Z</time></trkpt><trkpt lat="44.44807185163049" lon="8.99741705422106"><ele>68.0</ele><time>2026-04-30T12:56:04.997Z</time></trkpt><trkpt lat="44.448029434913884" lon="8.99757533326488"><ele>68.0</ele><time>2026-04-30T12:56:05.997Z</time></trkpt><trkpt lat="44.44798979819716" lon="8.997739552699223"><ele>69.25</ele><time>2026-04-30T12:56:06.997Z</time></trkpt><trkpt lat="44.44793111888958" lon="8.997893854474263"><ele>70.5</ele><time>2026-04-30T12:56:07.997Z</time></trkpt><trkpt lat="44.44791014145263" lon="8.998071964382344"><ele>71.75</ele><time>2026-04-30T12:56:08.997Z</time></trkpt><trkpt lat="44.447866169518555" lon="8.998236174962924"><ele>73.0</ele><time>2026-04-30T12:56:09.997Z</time></trkpt><trkpt lat="44.44781826991119" lon="8.998403742653425"><ele>73.75</ele><time>2026-04-30T12:56:10.997Z</time></trkpt><trkpt lat="44.4477552603516" lon="8.998562320590539"><ele>74.5</ele><time>2026-04-30T12:56:11.997Z</time></trkpt><trkpt lat="44.44770870099609" lon="8.99871843776457"><ele>75.25</ele><time>2026-04-30T12:56:12.997Z</time></trkpt><trkpt lat="44.44765403355609" lon="8.998886696229317"><ele>76.0</ele><time>2026-04-30T12:56:13.997Z</time></trkpt><trkpt lat="44.44760003218974" lon="8.999074398821367"><ele>75.5</ele><time>2026-04-30T12:56:14.997Z</time></trkpt><trkpt lat="44.44753495549955" lon="8.999262036893636"><ele>75.0</ele><time>2026-04-30T12:56:15.997Z</time></trkpt><trkpt lat="44.44748950642028" lon="8.999444402886821"><ele>74.5</ele><time>2026-04-30T12:56:16.997Z</time></trkpt><trkpt lat="44.44745090304947" lon="8.999626331366628"><ele>74.0</ele><time>2026-04-30T12:56:17.997Z</time></trkpt><trkpt lat="44.44740898984896" lon="8.999796555693857"><ele>74.0</ele><time>2026-04-30T12:56:18.997Z</time></trkpt><trkpt lat="44.44735146590585" lon="8.999973687724552"><ele>74.0</ele><time>2026-04-30T12:56:19.997Z</time></trkpt><trkpt lat="44.447313130698745" lon="9.000140028040832"><ele>74.0</ele><time>2026-04-30T12:56:20.997Z</time></trkpt><trkpt lat="44.44725944359578" lon="9.00029127330724"><ele>74.0</ele><time>2026-04-30T12:56:21.997Z</time></trkpt><trkpt lat="44.44721965023997" lon="9.00042234387183"><ele>74.0</ele><time>2026-04-30T12:56:22.997Z</time></trkpt><trkpt lat="44.44717162339363" lon="9.00052260140007"><ele>74.0</ele><time>2026-04-30T12:56:23.997Z</time></trkpt><trkpt lat="44.4471504960076" lon="9.00072266876198"><ele>74.0</ele><time>2026-04-30T12:56:24.997Z</time></trkpt><trkpt lat="44.44712971997908" lon="9.000904972053037"><ele>74.0</ele><time>2026-04-30T12:56:25.997Z</time></trkpt><trkpt lat="44.44710482394671" lon="9.001032990955634"><ele>74.5</ele><time>2026-04-30T12:56:26.997Z</time></trkpt><trkpt lat="44.44706773729503" lon="9.001157868948583"><ele>75.0</ele><time>2026-04-30T12:56:27.997Z</time></trkpt><trkpt lat="44.4470535488288" lon="9.001316258774077"><ele>75.5</ele><time>2026-04-30T12:56:28.997Z</time></trkpt><trkpt lat="44.447021035147735" lon="9.001472604837664"><ele>76.0</ele><time>2026-04-30T12:56:29.997Z</time></trkpt><trkpt lat="44.44700498904322" lon="9.001668120288244"><ele>76.0</ele><time>2026-04-30T12:56:30.997Z</time></trkpt><trkpt lat="44.4469884323463" lon="9.001867694729086"><ele>76.0</ele><time>2026-04-30T12:56:31.997Z</time></trkpt><trkpt lat="44.446938395963855" lon="9.002030776657403"><ele>76.0</ele><time>2026-04-30T12:56:32.997Z</time></trkpt><trkpt lat="44.44690269183093" lon="9.002223433929823"><ele>76.0</ele><time>2026-04-30T12:56:33.997Z</time></trkpt><trkpt lat="44.44689528445324" lon="9.002432530135593"><ele>77.0</ele><time>2026-04-30T12:56:34.997Z</time></trkpt><trkpt lat="44.44687576895969" lon="9.00261295499856"><ele>78.0</ele><time>2026-04-30T12:56:35.997Z</time></trkpt><trkpt lat="44.44685081529502" lon="9.002783425383688"><ele>79.0</ele><time>2026-04-30T12:56:36.997Z</time></trkpt><trkpt lat="44.446814788741754" lon="9.002990653511324"><ele>80.0</ele><time>2026-04-30T12:56:37.997Z</time></trkpt><trkpt lat="44.446818733968584" lon="9.003223402209862"><ele>82.0</ele><time>2026-04-30T12:56:38.997Z</time></trkpt><trkpt lat="44.44677632356581" lon="9.003420308493626"><ele>84.0</ele><time>2026-04-30T12:56:39.997Z</time></trkpt><trkpt lat="44.4467422076314" lon="9.003611387463382"><ele>86.0</ele><time>2026-04-30T12:56:40.997Z</time></trkpt><trkpt lat="44.446734240706235" lon="9.003816697405323"><ele>88.0</ele><time>2026-04-30T12:56:41.997Z</time></trkpt><trkpt lat="44.44673869781105" lon="9.004031152242266"><ele>89.33333333333333</ele><time>2026-04-30T12:56:42.997Z</time></trkpt><trkpt lat="44.44672239393663" lon="9.004255361372682"><ele>90.66666666666667</ele><time>2026-04-30T12:56:43.997Z</time></trkpt><trkpt lat="44.44669332346747" lon="9.004459313147677"><ele>92.0</ele><time>2026-04-30T12:56:44.997Z</time></trkpt><trkpt lat="44.44669361711084" lon="9.004656737640598"><ele>92.0</ele><time>2026-04-30T12:56:45.997Z</time></trkpt><trkpt lat="44.44672860359595" lon="9.004868702538946"><ele>92.0</ele><time>2026-04-30T12:56:46.997Z</time></trkpt><trkpt lat="44.44676126256747" lon="9.005077237398982"><ele>92.0</ele><time>2026-04-30T12:56:47.997Z</time></trkpt><trkpt lat="44.44682181630686" lon="9.005281064039263"><ele>92.25</ele><time>2026-04-30T12:56:48.997Z</time></trkpt><trkpt lat="44.44684289051239" lon="9.005443418516021"><ele>92.5</ele><time>2026-04-30T12:56:49.997Z</time></trkpt><trkpt lat="44.44688703903271" lon="9.005631121556764"><ele>92.75</ele><time>2026-04-30T12:56:50.997Z</time></trkpt><trkpt lat="44.44693941316206" lon="9.005820210189338"><ele>93.0</ele><time>2026-04-30T12:56:51.997Z</time></trkpt><trkpt lat="44.44697797504583" lon="9.006001486572817"><ele>95.0</ele><time>2026-04-30T12:56:52.996Z</time></trkpt><trkpt lat="44.446995407347174" lon="9.00620012923201"><ele>97.0</ele><time>2026-04-30T12:56:53.996Z</time></trkpt><trkpt lat="44.4470224529612" lon="9.006377363594943"><ele>99.0</ele><time>2026-04-30T12:56:54.996Z</time></trkpt><trkpt lat="44.44704939943063" lon="9.006516248606175"><ele>101.0</ele><time>2026-04-30T12:56:55.996Z</time></trkpt><trkpt lat="44.447115389572254" lon="9.006636374690462"><ele>96.2</ele><time>2026-04-30T12:56:56.996Z</time></trkpt><trkpt lat="44.44720025013258" lon="9.006727253688208"><ele>91.39999999999999</ele><time>2026-04-30T12:56:57.996Z</time></trkpt><trkpt lat="44.44724827945401" lon="9.006872710251324"><ele>86.6</ele><time>2026-04-30T12:56:58.996Z</time></trkpt><trkpt lat="44.44728184514841" lon="9.007040997219898"><ele>81.8</ele><time>2026-04-30T12:56:59.996Z</time></trkpt><trkpt lat="44.447327378796274" lon="9.007165881761784"><ele>77.0</ele><time>2026-04-30T12:57:00.996Z</time></trkpt><trkpt lat="44.447373086880475" lon="9.007282934125639"><ele>77.0</ele><time>2026-04-30T12:57:01.996Z</time></trkpt><trkpt lat="44.447390132949295" lon="9.00739690299884"><ele>77.0</ele><time>2026-04-30T12:57:02.996Z</time></trkpt><trkpt lat="44.447464300146244" lon="9.007468844656808"><ele>77.0</ele><time>2026-04-30T12:57:03.996Z</time></trkpt><trkpt lat="44.44750338190742" lon="9.007560572060218"><ele>77.0</ele><time>2026-04-30T12:57:04.996Z</time></trkpt><trkpt lat="44.44753824882747" lon="9.00768145020361"><ele>77.0</ele><time>2026-04-30T12:57:05.996Z</time></trkpt><trkpt lat="44.44756328559292" lon="9.00778119097799"><ele>77.0</ele><time>2026-04-30T12:57:06.996Z</time></trkpt><trkpt lat="44.44761014921178" lon="9.007877370199914"><ele>77.16666666666667</ele><time>2026-04-30T12:57:07.996Z</time></trkpt><trkpt lat="44.44765100354793" lon="9.007980988274781"><ele>77.33333333333334</ele><time>2026-04-30T12:57:08.996Z</time></trkpt><trkpt lat="44.447686694679795" lon="9.008065493576371"><ele>77.5</ele><time>2026-04-30T12:57:09.996Z</time></trkpt><trkpt lat="44.44771563263669" lon="9.00816598118084"><ele>77.66666666666667</ele><time>2026-04-30T12:57:10.996Z</time></trkpt><trkpt lat="44.44774495187444" lon="9.008273936171381"><ele>77.83333333333333</ele><time>2026-04-30T12:57:11.996Z</time></trkpt><trkpt lat="44.44776381197064" lon="9.008399645869666"><ele>78.0</ele><time>2026-04-30T12:57:12.996Z</time></trkpt><trkpt lat="44.44778578929215" lon="9.008506448393602"><ele>78.16666666666667</ele><time>2026-04-30T12:57:13.996Z</time></trkpt><trkpt lat="44.447862599944656" lon="9.00860382128506"><ele>78.33333333333333</ele><time>2026-04-30T12:57:15.996Z</time></trkpt><trkpt lat="44.44788014567519" lon="9.008726412159438"><ele>78.5</ele><time>2026-04-30T12:57:16.996Z</time></trkpt><trkpt lat="44.44789475917151" lon="9.008830379663745"><ele>78.66666666666666</ele><time>2026-04-30T12:57:17.996Z</time></trkpt><trkpt lat="44.44791818653596" lon="9.00893972687291"><ele>78.83333333333333</ele><time>2026-04-30T12:57:18.996Z</time></trkpt><trkpt lat="44.44798154293186" lon="9.009034234033294"><ele>79.0</ele><time>2026-04-30T12:57:19.996Z</time></trkpt><trkpt lat="44.44799326454543" lon="9.009160451508285"><ele>79.0</ele><time>2026-04-30T12:57:20.996Z</time></trkpt><trkpt lat="44.44803527895245" lon="9.00928850408137"><ele>79.0</ele><time>2026-04-30T12:57:21.996Z</time></trkpt><trkpt lat="44.44806656523286" lon="9.00942668160345"><ele>79.0</ele><time>2026-04-30T12:57:22.996Z</time></trkpt><trkpt lat="44.448107174325564" lon="9.009541421873607"><ele>79.0</ele><time>2026-04-30T12:57:23.996Z</time></trkpt><trkpt lat="44.448143996405946" lon="9.009648739190055"><ele>79.0</ele><time>2026-04-30T12:57:24.996Z</time></trkpt><trkpt lat="44.44817411750664" lon="9.009744141410719"><ele>79.0</ele><time>2026-04-30T12:57:25.996Z</time></trkpt><trkpt lat="44.44824070993294" lon="9.00986139532425"><ele>79.0</ele><time>2026-04-30T12:57:27.996Z</time></trkpt><trkpt lat="44.44821916702084" lon="9.009960640494569"><ele>79.0</ele><time>2026-04-30T12:57:30.996Z</time></trkpt><trkpt lat="44.4481456679168" lon="9.010015125486841"><ele>79.0</ele><time>2026-04-30T12:57:37.996Z</time></trkpt><trkpt lat="44.448114206030645" lon="9.010096804799844"><ele>79.0</ele><time>2026-04-30T12:57:40.996Z</time></trkpt><trkpt lat="44.448114853622656" lon="9.010230949984003"><ele>79.0</ele><time>2026-04-30T12:57:49.995Z</time></trkpt><trkpt lat="44.44811067958306" lon="9.010336473749202"><ele>79.0</ele><time>2026-04-30T12:57:50.995Z</time></trkpt><trkpt lat="44.44814806868685" lon="9.010478794744735"><ele>79.0</ele><time>2026-04-30T12:57:51.995Z</time></trkpt><trkpt lat="44.448183944463054" lon="9.01066033524888"><ele>79.0</ele><time>2026-04-30T12:57:52.995Z</time></trkpt><trkpt lat="44.44822559663972" lon="9.01086791564728"><ele>79.0</ele><time>2026-04-30T12:57:53.995Z</time></trkpt><trkpt lat="44.44826719776273" lon="9.011089805968469"><ele>80.0</ele><time>2026-04-30T12:57:54.995Z</time></trkpt><trkpt lat="44.44830957060683" lon="9.011315521487242"><ele>81.0</ele><time>2026-04-30T12:57:55.995Z</time></trkpt><trkpt lat="44.44841666246439" lon="9.011558132863232"><ele>82.0</ele><time>2026-04-30T12:57:56.995Z</time></trkpt><trkpt lat="44.44846221919883" lon="9.011825766813944"><ele>82.0</ele><time>2026-04-30T12:57:57.995Z</time></trkpt><trkpt lat="44.4485025742298" lon="9.012083340717398"><ele>82.0</ele><time>2026-04-30T12:57:58.995Z</time></trkpt><trkpt lat="44.44854552620664" lon="9.012343115376908"><ele>82.0</ele><time>2026-04-30T12:57:59.995Z</time></trkpt><trkpt lat="44.44860079132628" lon="9.012569495457864"><ele>81.66666666666666</ele><time>2026-04-30T12:58:00.995Z</time></trkpt><trkpt lat="44.44865390680408" lon="9.012798118448213"><ele>81.33333333333333</ele><time>2026-04-30T12:58:01.995Z</time></trkpt><trkpt lat="44.448669301996176" lon="9.013007014008739"><ele>81.0</ele><time>2026-04-30T12:58:02.995Z</time></trkpt><trkpt lat="44.44869896175336" lon="9.013211064124768"><ele>81.5</ele><time>2026-04-30T12:58:03.995Z</time></trkpt><trkpt lat="44.44872648041668" lon="9.013420650175963"><ele>82.0</ele><time>2026-04-30T12:58:04.995Z</time></trkpt><trkpt lat="44.44874186710601" lon="9.01362751607202"><ele>82.5</ele><time>2026-04-30T12:58:05.995Z</time></trkpt><trkpt lat="44.448788421007215" lon="9.013799354497479"><ele>83.0</ele><time>2026-04-30T12:58:06.995Z</time></trkpt><trkpt lat="44.44878927698806" lon="9.013982884500475"><ele>82.80000000000001</ele><time>2026-04-30T12:58:07.995Z</time></trkpt><trkpt lat="44.4487936307247" lon="9.014151127475447"><ele>82.6</ele><time>2026-04-30T12:58:08.995Z</time></trkpt><trkpt lat="44.44876933837925" lon="9.014286082315367"><ele>82.4</ele><time>2026-04-30T12:58:09.995Z</time></trkpt><trkpt lat="44.44874143348298" lon="9.014403066585341"><ele>82.19999999999999</ele><time>2026-04-30T12:58:10.995Z</time></trkpt><trkpt lat="44.44872330068199" lon="9.014528117305371"><ele>82.0</ele><time>2026-04-30T12:58:11.995Z</time></trkpt><trkpt lat="44.448693023873986" lon="9.014661422544066"><ele>82.39999999999999</ele><time>2026-04-30T12:58:12.995Z</time></trkpt><trkpt lat="44.448659940641136" lon="9.014788970602018"><ele>82.8</ele><time>2026-04-30T12:58:13.995Z</time></trkpt><trkpt lat="44.4486243682494" lon="9.014913467759376"><ele>83.2</ele><time>2026-04-30T12:58:14.995Z</time></trkpt><trkpt lat="44.44867363176972" lon="9.015093260790152"><ele>83.6</ele><time>2026-04-30T12:58:16.995Z</time></trkpt><trkpt lat="44.44873337136604" lon="9.015171058387876"><ele>84.0</ele><time>2026-04-30T12:58:17.995Z</time></trkpt><trkpt lat="44.44878144445692" lon="9.01527825153428"><ele>83.75</ele><time>2026-04-30T12:58:18.995Z</time></trkpt><trkpt lat="44.44882840056874" lon="9.015381046303201"><ele>83.5</ele><time>2026-04-30T12:58:19.995Z</time></trkpt><trkpt lat="44.44884223027976" lon="9.015514608502645"><ele>83.25</ele><time>2026-04-30T12:58:20.995Z</time></trkpt><trkpt lat="44.44883470640415" lon="9.015741784483827"><ele>83.0</ele><time>2026-04-30T12:58:21.995Z</time></trkpt><trkpt lat="44.44882121251919" lon="9.015937116272525"><ele>83.0</ele><time>2026-04-30T12:58:22.995Z</time></trkpt><trkpt lat="44.44882170954002" lon="9.016162565534435"><ele>83.0</ele><time>2026-04-30T12:58:23.995Z</time></trkpt><trkpt lat="44.44881355051159" lon="9.01640439831619"><ele>83.0</ele><time>2026-04-30T12:58:24.995Z</time></trkpt><trkpt lat="44.44880948309404" lon="9.01665164325171"><ele>83.33333333333334</ele><time>2026-04-30T12:58:25.995Z</time></trkpt><trkpt lat="44.44884695879179" lon="9.0168909356656"><ele>83.66666666666667</ele><time>2026-04-30T12:58:26.995Z</time></trkpt><trkpt lat="44.44883061767963" lon="9.017143041419304"><ele>84.0</ele><time>2026-04-30T12:58:27.995Z</time></trkpt><trkpt lat="44.448820870171836" lon="9.017395104486981"><ele>84.0</ele><time>2026-04-30T12:58:28.995Z</time></trkpt><trkpt lat="44.44881759920809" lon="9.017646070879623"><ele>84.0</ele><time>2026-04-30T12:58:29.995Z</time></trkpt><trkpt lat="44.44880564029621" lon="9.017890492334756"><ele>84.0</ele><time>2026-04-30T12:58:30.994Z</time></trkpt><trkpt lat="44.4488198044972" lon="9.018123863093061"><ele>84.33333333333333</ele><time>2026-04-30T12:58:31.994Z</time></trkpt><trkpt lat="44.44881362286994" lon="9.018339928156257"><ele>84.66666666666666</ele><time>2026-04-30T12:58:32.994Z</time></trkpt><trkpt lat="44.44879241734897" lon="9.018564404694143"><ele>85.0</ele><time>2026-04-30T12:58:33.994Z</time></trkpt><trkpt lat="44.44880533731166" lon="9.018792608688162"><ele>86.66666666666666</ele><time>2026-04-30T12:58:34.994Z</time></trkpt><trkpt lat="44.44873955818709" lon="9.019011329879884"><ele>88.33333333333333</ele><time>2026-04-30T12:58:35.994Z</time></trkpt><trkpt lat="44.44872668627771" lon="9.01923978792694"><ele>90.0</ele><time>2026-04-30T12:58:36.994Z</time></trkpt><trkpt lat="44.44870438268493" lon="9.019463908622672"><ele>93.0</ele><time>2026-04-30T12:58:37.994Z</time></trkpt><trkpt lat="44.44867203526365" lon="9.01972323895961"><ele>96.0</ele><time>2026-04-30T12:58:38.994Z</time></trkpt><trkpt lat="44.4486207526067" lon="9.019988751770223"><ele>99.0</ele><time>2026-04-30T12:58:39.994Z</time></trkpt><trkpt lat="44.44857072688016" lon="9.020251829360621"><ele>97.66666666666667</ele><time>2026-04-30T12:58:40.994Z</time></trkpt><trkpt lat="44.448522698781666" lon="9.020564350685481"><ele>96.33333333333334</ele><time>2026-04-30T12:58:41.994Z</time></trkpt><trkpt lat="44.44846986996478" lon="9.020839369294327"><ele>95.0</ele><time>2026-04-30T12:58:42.994Z</time></trkpt><trkpt lat="44.44843344801642" lon="9.02112901505954"><ele>95.0</ele><time>2026-04-30T12:58:43.994Z</time></trkpt><trkpt lat="44.44839378058883" lon="9.021427005745732"><ele>95.0</ele><time>2026-04-30T12:58:44.994Z</time></trkpt><trkpt lat="44.44839586622675" lon="9.02170340155182"><ele>95.0</ele><time>2026-04-30T12:58:45.994Z</time></trkpt><trkpt lat="44.44838754259588" lon="9.021980148523511"><ele>94.0</ele><time>2026-04-30T12:58:46.994Z</time></trkpt><trkpt lat="44.44838368939228" lon="9.022258871725096"><ele>93.0</ele><time>2026-04-30T12:58:47.994Z</time></trkpt><trkpt lat="44.44837273476276" lon="9.022530345450784"><ele>92.0</ele><time>2026-04-30T12:58:48.994Z</time></trkpt><trkpt lat="44.448370062456995" lon="9.02280070316051"><ele>95.33333333333334</ele><time>2026-04-30T12:58:49.994Z</time></trkpt><trkpt lat="44.448379338991046" lon="9.023067492606975"><ele>98.66666666666667</ele><time>2026-04-30T12:58:50.994Z</time></trkpt><trkpt lat="44.448378726533555" lon="9.023403635473318"><ele>102.0</ele><time>2026-04-30T12:58:51.994Z</time></trkpt><trkpt lat="44.448372436718394" lon="9.02366953768357"><ele>179.0</ele><time>2026-04-30T12:58:52.994Z</time></trkpt><trkpt lat="44.44860407908497" lon="9.025198198375033"><ele>179.0</ele><time>2026-04-30T12:59:01.347Z</time></trkpt><trkpt lat="44.448691691775004" lon="9.025460306285828"><ele>179.0</ele><time>2026-04-30T12:59:02.345Z</time></trkpt><trkpt lat="44.44878250127037" lon="9.025720116441684"><ele>179.0</ele><time>2026-04-30T12:59:03.346Z</time></trkpt><trkpt lat="44.44889645289159" lon="9.025956525108695"><ele>168.66666666666666</ele><time>2026-04-30T12:59:04.345Z</time></trkpt><trkpt lat="44.44900262618895" lon="9.026197849443287"><ele>158.33333333333334</ele><time>2026-04-30T12:59:05.342Z</time></trkpt><trkpt lat="44.449120273924215" lon="9.026429648608444"><ele>148.0</ele><time>2026-04-30T12:59:06.342Z</time></trkpt><trkpt lat="44.44924432797488" lon="9.026656079687651"><ele>141.0</ele><time>2026-04-30T12:59:07.345Z</time></trkpt><trkpt lat="44.44914110650291" lon="9.027387521754957"><ele>108.0</ele><time>2026-04-30T12:59:07.994Z</time></trkpt><trkpt lat="44.44971161186325" lon="9.02745541468926"><ele>111.0</ele><time>2026-04-30T12:59:09.994Z</time></trkpt><trkpt lat="44.44984504634949" lon="9.027601679428702"><ele>114.0</ele><time>2026-04-30T12:59:10.994Z</time></trkpt><trkpt lat="44.45000898492478" lon="9.027764217762032"><ele>117.0</ele><time>2026-04-30T12:59:11.994Z</time></trkpt><trkpt lat="44.45017139281025" lon="9.027908570621985"><ele>117.0</ele><time>2026-04-30T12:59:12.994Z</time></trkpt><trkpt lat="44.45032047348085" lon="9.028035890221522"><ele>117.0</ele><time>2026-04-30T12:59:13.994Z</time></trkpt><trkpt lat="44.450492411928096" lon="9.028141739743933"><ele>117.0</ele><time>2026-04-30T12:59:14.994Z</time></trkpt><trkpt lat="44.450667890980846" lon="9.028259958610494"><ele>116.75</ele><time>2026-04-30T12:59:15.994Z</time></trkpt><trkpt lat="44.45080512391417" lon="9.028419744464717"><ele>116.5</ele><time>2026-04-30T12:59:16.994Z</time></trkpt><trkpt lat="44.45085551740201" lon="9.028563377482344"><ele>116.25</ele><time>2026-04-30T12:59:17.994Z</time></trkpt><trkpt lat="44.450871323829986" lon="9.028686761637104"><ele>116.0</ele><time>2026-04-30T12:59:18.993Z</time></trkpt><trkpt lat="44.45086242183858" lon="9.028783890847215"><ele>116.0</ele><time>2026-04-30T12:59:19.993Z</time></trkpt><trkpt lat="44.450834518555375" lon="9.02889557520396"><ele>116.0</ele><time>2026-04-30T12:59:20.993Z</time></trkpt><trkpt lat="44.45075076567962" lon="9.02908525360288"><ele>116.0</ele><time>2026-04-30T12:59:21.993Z</time></trkpt><trkpt lat="44.450653651914564" lon="9.02924555389107"><ele>116.0</ele><time>2026-04-30T12:59:22.993Z</time></trkpt><trkpt lat="44.450528278581636" lon="9.029419049472052"><ele>126.33333333333333</ele><time>2026-04-30T12:59:23.993Z</time></trkpt><trkpt lat="44.45040093058458" lon="9.029594842427167"><ele>136.66666666666666</ele><time>2026-04-30T12:59:24.993Z</time></trkpt><trkpt lat="44.45031084684212" lon="9.029744947973843"><ele>147.0</ele><time>2026-04-30T12:59:25.993Z</time></trkpt><trkpt lat="44.450226340044075" lon="9.029937942007622"><ele>145.33333333333334</ele><time>2026-04-30T12:59:26.993Z</time></trkpt><trkpt lat="44.4501610049916" lon="9.030114125889275"><ele>143.66666666666669</ele><time>2026-04-30T12:59:27.993Z</time></trkpt><trkpt lat="44.450131105224074" lon="9.03033034591239"><ele>142.0</ele><time>2026-04-30T12:59:28.993Z</time></trkpt><trkpt lat="44.4501049924204" lon="9.030547724626022"><ele>142.0</ele><time>2026-04-30T12:59:29.993Z</time></trkpt><trkpt lat="44.45012392177304" lon="9.030791951952773"><ele>142.0</ele><time>2026-04-30T12:59:30.993Z</time></trkpt><trkpt lat="44.45016223365622" lon="9.031006094926463"><ele>142.0</ele><time>2026-04-30T12:59:31.993Z</time></trkpt><trkpt lat="44.45023023610003" lon="9.03116152504975"><ele>143.0</ele><time>2026-04-30T12:59:32.993Z</time></trkpt><trkpt lat="44.450307599566145" lon="9.031314405978215"><ele>144.0</ele><time>2026-04-30T12:59:33.993Z</time></trkpt><trkpt lat="44.45040512048077" lon="9.031457700162008"><ele>145.0</ele><time>2026-04-30T12:59:34.993Z</time></trkpt><trkpt lat="44.45051721780738" lon="9.031566893913674"><ele>146.0</ele><time>2026-04-30T12:59:35.993Z</time></trkpt><trkpt lat="44.4506476024779" lon="9.031660574656609"><ele>138.33333333333331</ele><time>2026-04-30T12:59:36.993Z</time></trkpt><trkpt lat="44.450790982993524" lon="9.031761232959637"><ele>130.66666666666666</ele><time>2026-04-30T12:59:37.993Z</time></trkpt><trkpt lat="44.45094231254788" lon="9.031880518189856"><ele>123.0</ele><time>2026-04-30T12:59:38.993Z</time></trkpt><trkpt lat="44.45108462133039" lon="9.03199800527497"><ele>123.0</ele><time>2026-04-30T12:59:39.993Z</time></trkpt><trkpt lat="44.45120175153587" lon="9.032109924192461"><ele>123.0</ele><time>2026-04-30T12:59:40.993Z</time></trkpt><trkpt lat="44.451300494897104" lon="9.032209559960748"><ele>123.0</ele><time>2026-04-30T12:59:41.993Z</time></trkpt><trkpt lat="44.45137836049664" lon="9.03232757298199"><ele>123.0</ele><time>2026-04-30T12:59:42.993Z</time></trkpt><trkpt lat="44.451386462409026" lon="9.032471069650304"><ele>123.80000000000001</ele><time>2026-04-30T12:59:43.993Z</time></trkpt><trkpt lat="44.4513719584942" lon="9.032619738161436"><ele>124.60000000000001</ele><time>2026-04-30T12:59:44.993Z</time></trkpt><trkpt lat="44.45133998509504" lon="9.032716762952703"><ele>125.39999999999999</ele><time>2026-04-30T12:59:45.993Z</time></trkpt><trkpt lat="44.45126435485885" lon="9.032818624717589"><ele>126.19999999999999</ele><time>2026-04-30T12:59:46.993Z</time></trkpt><trkpt lat="44.45115424192103" lon="9.032892930737258"><ele>127.0</ele><time>2026-04-30T12:59:47.993Z</time></trkpt><trkpt lat="44.451011875709796" lon="9.032951227476598"><ele>127.0</ele><time>2026-04-30T12:59:48.993Z</time></trkpt><trkpt lat="44.45088738196158" lon="9.03299917071143"><ele>127.0</ele><time>2026-04-30T12:59:49.993Z</time></trkpt><trkpt lat="44.45074171247598" lon="9.033052898136194"><ele>127.0</ele><time>2026-04-30T12:59:50.993Z</time></trkpt><trkpt lat="44.45061640729874" lon="9.03311969285711"><ele>127.0</ele><time>2026-04-30T12:59:51.993Z</time></trkpt><trkpt lat="44.45047278493745" lon="9.033169524190713"><ele>129.25</ele><time>2026-04-30T12:59:52.993Z</time></trkpt><trkpt lat="44.45033554996577" lon="9.033220969501455"><ele>131.5</ele><time>2026-04-30T12:59:53.993Z</time></trkpt><trkpt lat="44.45019574397861" lon="9.03328309390628"><ele>133.75</ele><time>2026-04-30T12:59:54.993Z</time></trkpt><trkpt lat="44.4500633497747" lon="9.033365086572843"><ele>136.0</ele><time>2026-04-30T12:59:55.993Z</time></trkpt><trkpt lat="44.44993531812899" lon="9.03345708811077"><ele>136.0</ele><time>2026-04-30T12:59:56.993Z</time></trkpt><trkpt lat="44.44980078104703" lon="9.033568566183105"><ele>136.0</ele><time>2026-04-30T12:59:57.993Z</time></trkpt><trkpt lat="44.44969306777936" lon="9.03367853468028"><ele>136.0</ele><time>2026-04-30T12:59:58.993Z</time></trkpt><trkpt lat="44.44956973104519" lon="9.033796065862639"><ele>136.0</ele><time>2026-04-30T12:59:59.993Z</time></trkpt><trkpt lat="44.449454380174366" lon="9.033920110458448"><ele>145.33333333333334</ele><time>2026-04-30T13:00:00.993Z</time></trkpt><trkpt lat="44.44935059106538" lon="9.034082064561437"><ele>154.66666666666666</ele><time>2026-04-30T13:00:01.993Z</time></trkpt><trkpt lat="44.44928831959119" lon="9.034277743541995"><ele>164.0</ele><time>2026-04-30T13:00:02.993Z</time></trkpt><trkpt lat="44.44921987049562" lon="9.034493534459855"><ele>164.0</ele><time>2026-04-30T13:00:03.993Z</time></trkpt><trkpt lat="44.449162708332906" lon="9.034729865083182"><ele>164.0</ele><time>2026-04-30T13:00:04.993Z</time></trkpt><trkpt lat="44.449115177325275" lon="9.03496973139106"><ele>164.0</ele><time>2026-04-30T13:00:05.993Z</time></trkpt><trkpt lat="44.44907073949379" lon="9.03520121806606"><ele>158.75</ele><time>2026-04-30T13:00:06.993Z</time></trkpt><trkpt lat="44.44905045598593" lon="9.035429638198213"><ele>153.5</ele><time>2026-04-30T13:00:07.992Z</time></trkpt><trkpt lat="44.449033671115714" lon="9.035629804460457"><ele>148.25</ele><time>2026-04-30T13:00:08.992Z</time></trkpt><trkpt lat="44.44901054366337" lon="9.035824867528282"><ele>143.0</ele><time>2026-04-30T13:00:09.992Z</time></trkpt><trkpt lat="44.44897821461421" lon="9.036006136483419"><ele>143.25</ele><time>2026-04-30T13:00:10.992Z</time></trkpt><trkpt lat="44.44893554005214" lon="9.036183349948878"><ele>143.5</ele><time>2026-04-30T13:00:11.992Z</time></trkpt><trkpt lat="44.448921946706115" lon="9.036380733894458"><ele>143.75</ele><time>2026-04-30T13:00:12.992Z</time></trkpt><trkpt lat="44.44895639336661" lon="9.03655703748002"><ele>144.0</ele><time>2026-04-30T13:00:13.992Z</time></trkpt><trkpt lat="44.44901410752917" lon="9.03669764570536"><ele>144.0</ele><time>2026-04-30T13:00:14.992Z</time></trkpt><trkpt lat="44.44908977894688" lon="9.036848839717313"><ele>144.0</ele><time>2026-04-30T13:00:15.992Z</time></trkpt><trkpt lat="44.44917187830253" lon="9.036988747810602"><ele>144.0</ele><time>2026-04-30T13:00:16.992Z</time></trkpt><trkpt lat="44.449183705902776" lon="9.037116606064327"><ele>144.0</ele><time>2026-04-30T13:00:17.992Z</time></trkpt><trkpt lat="44.449148084656606" lon="9.037246442585964"><ele>144.0</ele><time>2026-04-30T13:00:18.992Z</time></trkpt><trkpt lat="44.44908817893564" lon="9.037358208244525"><ele>144.0</ele><time>2026-04-30T13:00:19.992Z</time></trkpt><trkpt lat="44.449010740846596" lon="9.037423508026256"><ele>144.0</ele><time>2026-04-30T13:00:20.992Z</time></trkpt><trkpt lat="44.448918703102564" lon="9.037479745920606"><ele>144.0</ele><time>2026-04-30T13:00:21.992Z</time></trkpt><trkpt lat="44.448849437044714" lon="9.037445945239718"><ele>144.0</ele><time>2026-04-30T13:00:22.992Z</time></trkpt><trkpt lat="44.44871747088216" lon="9.037439612873355"><ele>147.33333333333334</ele><time>2026-04-30T13:00:23.992Z</time></trkpt><trkpt lat="44.448561898814056" lon="9.03743139472935"><ele>150.66666666666669</ele><time>2026-04-30T13:00:24.992Z</time></trkpt><trkpt lat="44.44838599980846" lon="9.037434481237565"><ele>154.0</ele><time>2026-04-30T13:00:25.992Z</time></trkpt><trkpt lat="44.44821792642456" lon="9.037478901787349"><ele>154.0</ele><time>2026-04-30T13:00:26.992Z</time></trkpt><trkpt lat="44.44806880914774" lon="9.037552414238114"><ele>154.0</ele><time>2026-04-30T13:00:27.992Z</time></trkpt><trkpt lat="44.447929207127096" lon="9.037626601611667"><ele>154.0</ele><time>2026-04-30T13:00:28.992Z</time></trkpt><trkpt lat="44.447787173049235" lon="9.037708100831866"><ele>160.0</ele><time>2026-04-30T13:00:29.992Z</time></trkpt><trkpt lat="44.447646148361876" lon="9.037723348887392"><ele>166.0</ele><time>2026-04-30T13:00:30.992Z</time></trkpt><trkpt lat="44.447522098217476" lon="9.037762453835615"><ele>172.0</ele><time>2026-04-30T13:00:31.992Z</time></trkpt><trkpt lat="44.44739787364076" lon="9.037762600975784"><ele>178.0</ele><time>2026-04-30T13:00:32.992Z</time></trkpt><trkpt lat="44.44726386742433" lon="9.037777510330605"><ele>184.0</ele><time>2026-04-30T13:00:33.992Z</time></trkpt><trkpt lat="44.44712268138104" lon="9.037761098897018"><ele>190.0</ele><time>2026-04-30T13:00:34.992Z</time></trkpt><trkpt lat="44.446984719873186" lon="9.037748110636072"><ele>196.0</ele><time>2026-04-30T13:00:35.992Z</time></trkpt><trkpt lat="44.44680280178908" lon="9.03777002590389"><ele>196.0</ele><time>2026-04-30T13:00:36.992Z</time></trkpt><trkpt lat="44.44663676997209" lon="9.037805388735112"><ele>196.0</ele><time>2026-04-30T13:00:37.992Z</time></trkpt><trkpt lat="44.44646563578249" lon="9.037855575851422"><ele>196.0</ele><time>2026-04-30T13:00:38.992Z</time></trkpt><trkpt lat="44.44630569266641" lon="9.037938080800856"><ele>188.33333333333331</ele><time>2026-04-30T13:00:39.992Z</time></trkpt><trkpt lat="44.446159255333065" lon="9.038043933593697"><ele>180.66666666666666</ele><time>2026-04-30T13:00:40.992Z</time></trkpt><trkpt lat="44.44602913064972" lon="9.038157546958109"><ele>173.0</ele><time>2026-04-30T13:00:42Z</time></trkpt><trkpt lat="44.44591940355268" lon="9.038314827475626"><ele>173.0</ele><time>2026-04-30T13:00:43Z</time></trkpt><trkpt lat="44.44579490880389" lon="9.038461898455209"><ele>173.0</ele><time>2026-04-30T13:00:44Z</time></trkpt><trkpt lat="44.44566367245068" lon="9.038615679862138"><ele>173.0</ele><time>2026-04-30T13:00:45Z</time></trkpt><trkpt lat="44.44553641925568" lon="9.038764007405412"><ele>173.66666666666666</ele><time>2026-04-30T13:00:46Z</time></trkpt><trkpt lat="44.445403965958405" lon="9.038890671929241"><ele>174.33333333333334</ele><time>2026-04-30T13:00:47Z</time></trkpt><trkpt lat="44.44527704657506" lon="9.039047710117243"><ele>175.0</ele><time>2026-04-30T13:00:48Z</time></trkpt><trkpt lat="44.44514748455585" lon="9.039214995958082"><ele>175.0</ele><time>2026-04-30T13:00:49Z</time></trkpt><trkpt lat="44.44498626463574" lon="9.03939765222861"><ele>175.0</ele><time>2026-04-30T13:00:50Z</time></trkpt><trkpt lat="44.44483010638504" lon="9.039593289413697"><ele>175.0</ele><time>2026-04-30T13:00:51Z</time></trkpt><trkpt lat="44.44468474713878" lon="9.039793647471534"><ele>176.0</ele><time>2026-04-30T13:00:52Z</time></trkpt><trkpt lat="44.44454385283101" lon="9.039999973491767"><ele>177.0</ele><time>2026-04-30T13:00:53Z</time></trkpt><trkpt lat="44.44439605885756" lon="9.04023527235269"><ele>178.0</ele><time>2026-04-30T13:00:54Z</time></trkpt><trkpt lat="44.44425657208115" lon="9.040442564070963"><ele>178.0</ele><time>2026-04-30T13:00:55Z</time></trkpt><trkpt lat="44.44411938026244" lon="9.040664670511788"><ele>178.0</ele><time>2026-04-30T13:00:56Z</time></trkpt><trkpt lat="44.44400792085018" lon="9.040871152682715"><ele>178.0</ele><time>2026-04-30T13:00:57Z</time></trkpt><trkpt lat="44.443922882289804" lon="9.041049195040886"><ele>182.25</ele><time>2026-04-30T13:00:58Z</time></trkpt><trkpt lat="44.44383355950005" lon="9.04122882322618"><ele>186.5</ele><time>2026-04-30T13:00:59Z</time></trkpt><trkpt lat="44.44372781545382" lon="9.041384025112373"><ele>190.75</ele><time>2026-04-30T13:01:00Z</time></trkpt><trkpt lat="44.44363967855583" lon="9.041527028869762"><ele>195.0</ele><time>2026-04-30T13:01:01Z</time></trkpt><trkpt lat="44.443533176736594" lon="9.041641983464096"><ele>185.75</ele><time>2026-04-30T13:01:02Z</time></trkpt><trkpt lat="44.44340876704721" lon="9.041721480838683"><ele>176.5</ele><time>2026-04-30T13:01:03Z</time></trkpt><trkpt lat="44.44327598733286" lon="9.04175178911855"><ele>167.25</ele><time>2026-04-30T13:01:04Z</time></trkpt><trkpt lat="44.44313486553867" lon="9.041784859989638"><ele>158.0</ele><time>2026-04-30T13:01:05Z</time></trkpt><trkpt lat="44.442966818206784" lon="9.041782635926086"><ele>163.0</ele><time>2026-04-30T13:01:06Z</time></trkpt><trkpt lat="44.44281514625355" lon="9.041744296048192"><ele>168.0</ele><time>2026-04-30T13:01:07Z</time></trkpt><trkpt lat="44.442658191075274" lon="9.04173913087839"><ele>173.0</ele><time>2026-04-30T13:01:08Z</time></trkpt><trkpt lat="44.44251917172759" lon="9.041783780172686"><ele>173.0</ele><time>2026-04-30T13:01:09Z</time></trkpt><trkpt lat="44.442377811788496" lon="9.041810279270548"><ele>173.0</ele><time>2026-04-30T13:01:10Z</time></trkpt><trkpt lat="44.44222351598189" lon="9.041849808960372"><ele>173.0</ele><time>2026-04-30T13:01:10.999Z</time></trkpt><trkpt lat="44.44207963976435" lon="9.041914189261773"><ele>179.5</ele><time>2026-04-30T13:01:11.999Z</time></trkpt><trkpt lat="44.44194192578216" lon="9.041992084219343"><ele>186.0</ele><time>2026-04-30T13:01:12.999Z</time></trkpt><trkpt lat="44.44184538786418" lon="9.042079486321894"><ele>192.5</ele><time>2026-04-30T13:01:13.999Z</time></trkpt><trkpt lat="44.44178419285537" lon="9.042240580916479"><ele>199.0</ele><time>2026-04-30T13:01:14.999Z</time></trkpt><trkpt lat="44.44173619619232" lon="9.042431980911186"><ele>191.25</ele><time>2026-04-30T13:01:15.999Z</time></trkpt><trkpt lat="44.441731301212634" lon="9.04262861304095"><ele>183.5</ele><time>2026-04-30T13:01:16.999Z</time></trkpt><trkpt lat="44.4416900142178" lon="9.04281970225495"><ele>175.75</ele><time>2026-04-30T13:01:17.999Z</time></trkpt><trkpt lat="44.44163552952453" lon="9.043011233024266"><ele>168.0</ele><time>2026-04-30T13:01:18.999Z</time></trkpt><trkpt lat="44.441599397876736" lon="9.043184940887395"><ele>166.33333333333334</ele><time>2026-04-30T13:01:19.999Z</time></trkpt><trkpt lat="44.44155808393413" lon="9.043380043209845"><ele>164.66666666666669</ele><time>2026-04-30T13:01:20.999Z</time></trkpt><trkpt lat="44.44151358747967" lon="9.043588333262015"><ele>163.0</ele><time>2026-04-30T13:01:21.999Z</time></trkpt><trkpt lat="44.44147764060926" lon="9.043814416246457"><ele>163.0</ele><time>2026-04-30T13:01:22.999Z</time></trkpt><trkpt lat="44.44139266603179" lon="9.044032408882128"><ele>163.0</ele><time>2026-04-30T13:01:23.999Z</time></trkpt><trkpt lat="44.441292096170216" lon="9.04424773112935"><ele>163.0</ele><time>2026-04-30T13:01:24.999Z</time></trkpt><trkpt lat="44.44120673734268" lon="9.044474255706819"><ele>170.66666666666669</ele><time>2026-04-30T13:01:25.999Z</time></trkpt><trkpt lat="44.44113497010122" lon="9.044704793791777"><ele>178.33333333333334</ele><time>2026-04-30T13:01:26.999Z</time></trkpt><trkpt lat="44.44109430193813" lon="9.044960367412763"><ele>186.0</ele><time>2026-04-30T13:01:27.999Z</time></trkpt><trkpt lat="44.44104939819539" lon="9.045171070749403"><ele>186.0</ele><time>2026-04-30T13:01:28.999Z</time></trkpt><trkpt lat="44.441029129269765" lon="9.045393640449598"><ele>186.0</ele><time>2026-04-30T13:01:29.999Z</time></trkpt><trkpt lat="44.44100079243498" lon="9.045600245957175"><ele>186.0</ele><time>2026-04-30T13:01:30.999Z</time></trkpt><trkpt lat="44.44097299149894" lon="9.045809488333378"><ele>183.75</ele><time>2026-04-30T13:01:31.999Z</time></trkpt><trkpt lat="44.4409302633148" lon="9.045984607588396"><ele>181.5</ele><time>2026-04-30T13:01:32.999Z</time></trkpt><trkpt lat="44.440907594257716" lon="9.046160518182099"><ele>179.25</ele><time>2026-04-30T13:01:33.999Z</time></trkpt><trkpt lat="44.44087380159532" lon="9.046370301834676"><ele>177.0</ele><time>2026-04-30T13:01:34.999Z</time></trkpt><trkpt lat="44.440856829534845" lon="9.046574248573682"><ele>173.33333333333334</ele><time>2026-04-30T13:01:35.999Z</time></trkpt><trkpt lat="44.440810145569586" lon="9.046806700598394"><ele>169.66666666666669</ele><time>2026-04-30T13:01:36.999Z</time></trkpt><trkpt lat="44.44077878966568" lon="9.047013272179262"><ele>166.0</ele><time>2026-04-30T13:01:37.999Z</time></trkpt><trkpt lat="44.44075373363151" lon="9.047203572011407"><ele>166.0</ele><time>2026-04-30T13:01:38.999Z</time></trkpt><trkpt lat="44.44072602219119" lon="9.04739287540505"><ele>166.0</ele><time>2026-04-30T13:01:39.999Z</time></trkpt><trkpt lat="44.44070550007721" lon="9.047583568996714"><ele>166.0</ele><time>2026-04-30T13:01:40.999Z</time></trkpt><trkpt lat="44.440667372695955" lon="9.04776698405712"><ele>166.0</ele><time>2026-04-30T13:01:41.999Z</time></trkpt><trkpt lat="44.44061438834362" lon="9.047930927772553"><ele>167.25</ele><time>2026-04-30T13:01:42.999Z</time></trkpt><trkpt lat="44.440574675611174" lon="9.048108099154506"><ele>168.5</ele><time>2026-04-30T13:01:43.999Z</time></trkpt><trkpt lat="44.44050547707666" lon="9.0482393212014"><ele>169.75</ele><time>2026-04-30T13:01:44.999Z</time></trkpt><trkpt lat="44.440461561077576" lon="9.048413180293945"><ele>171.0</ele><time>2026-04-30T13:01:45.999Z</time></trkpt><trkpt lat="44.44044000948388" lon="9.048598409688113"><ele>171.0</ele><time>2026-04-30T13:01:46.999Z</time></trkpt><trkpt lat="44.4404156989968" lon="9.048805901064274"><ele>171.0</ele><time>2026-04-30T13:01:47.999Z</time></trkpt><trkpt lat="44.4404405559519" lon="9.048989601835713"><ele>171.0</ele><time>2026-04-30T13:01:48.999Z</time></trkpt><trkpt lat="44.440482682622466" lon="9.049174651032821"><ele>171.0</ele><time>2026-04-30T13:01:49.999Z</time></trkpt><trkpt lat="44.44056019348055" lon="9.049329838700848"><ele>170.75</ele><time>2026-04-30T13:01:50.999Z</time></trkpt><trkpt lat="44.44062889960417" lon="9.049495091639875"><ele>170.5</ele><time>2026-04-30T13:01:51.999Z</time></trkpt><trkpt lat="44.44070325101806" lon="9.049667646017063"><ele>170.25</ele><time>2026-04-30T13:01:52.999Z</time></trkpt><trkpt lat="44.44076231842117" lon="9.04984565619861"><ele>170.0</ele><time>2026-04-30T13:01:53.999Z</time></trkpt><trkpt lat="44.440802658554034" lon="9.050002071082105"><ele>170.0</ele><time>2026-04-30T13:01:54.999Z</time></trkpt><trkpt lat="44.440873260824084" lon="9.05016940373977"><ele>170.0</ele><time>2026-04-30T13:01:55.999Z</time></trkpt><trkpt lat="44.440936262025716" lon="9.050334129457253"><ele>170.0</ele><time>2026-04-30T13:01:56.999Z</time></trkpt><trkpt lat="44.441009686279436" lon="9.050490489897223"><ele>170.0</ele><time>2026-04-30T13:01:57.999Z</time></trkpt><trkpt lat="44.44111053691108" lon="9.050633320648826"><ele>170.0</ele><time>2026-04-30T13:01:58.999Z</time></trkpt><trkpt lat="44.44121765883969" lon="9.050770655937178"><ele>170.0</ele><time>2026-04-30T13:01:59.999Z</time></trkpt><trkpt lat="44.44131192313687" lon="9.050941262579025"><ele>170.0</ele><time>2026-04-30T13:02:00.999Z</time></trkpt><trkpt lat="44.441417631745466" lon="9.051076051553466"><ele>170.0</ele><time>2026-04-30T13:02:01.998Z</time></trkpt><trkpt lat="44.44151246594288" lon="9.051216758740946"><ele>171.0</ele><time>2026-04-30T13:02:02.998Z</time></trkpt><trkpt lat="44.441599759415915" lon="9.05137471921396"><ele>172.0</ele><time>2026-04-30T13:02:03.998Z</time></trkpt><trkpt lat="44.441661079381" lon="9.051513095634215"><ele>173.0</ele><time>2026-04-30T13:02:04.998Z</time></trkpt><trkpt lat="44.44169841886973" lon="9.051630390440087"><ele>174.0</ele><time>2026-04-30T13:02:05.998Z</time></trkpt><trkpt lat="44.44170710935246" lon="9.05174658396175"><ele>175.0</ele><time>2026-04-30T13:02:06.998Z</time></trkpt><trkpt lat="44.44169743631451" lon="9.051900279387509"><ele>175.6</ele><time>2026-04-30T13:02:07.998Z</time></trkpt><trkpt lat="44.44167680820087" lon="9.052063184904943"><ele>176.2</ele><time>2026-04-30T13:02:08.998Z</time></trkpt><trkpt lat="44.4416565341776" lon="9.05222764134008"><ele>176.8</ele><time>2026-04-30T13:02:09.998Z</time></trkpt><trkpt lat="44.441653028948515" lon="9.052368814083357"><ele>177.4</ele><time>2026-04-30T13:02:10.998Z</time></trkpt><trkpt lat="44.44164804207298" lon="9.052508258853823"><ele>178.0</ele><time>2026-04-30T13:02:11.998Z</time></trkpt><trkpt lat="44.44168530553093" lon="9.052701664955203"><ele>182.75</ele><time>2026-04-30T13:02:12.998Z</time></trkpt><trkpt lat="44.441780957895524" lon="9.05286402590796"><ele>187.5</ele><time>2026-04-30T13:02:13.998Z</time></trkpt><trkpt lat="44.44189511486002" lon="9.05293630497129"><ele>192.25</ele><time>2026-04-30T13:02:14.998Z</time></trkpt><trkpt lat="44.44200059167127" lon="9.053054979978825"><ele>197.0</ele><time>2026-04-30T13:02:15.998Z</time></trkpt><trkpt lat="44.442073721782" lon="9.053184982811292"><ele>193.75</ele><time>2026-04-30T13:02:16.998Z</time></trkpt><trkpt lat="44.44217675444062" lon="9.0532993848763"><ele>190.5</ele><time>2026-04-30T13:02:17.998Z</time></trkpt><trkpt lat="44.442283120802074" lon="9.053429266426376"><ele>187.25</ele><time>2026-04-30T13:02:18.998Z</time></trkpt><trkpt lat="44.442407126066286" lon="9.053506639233955"><ele>184.0</ele><time>2026-04-30T13:02:19.998Z</time></trkpt><trkpt lat="44.44254264976879" lon="9.053590294570236"><ele>184.0</ele><time>2026-04-30T13:02:20.998Z</time></trkpt><trkpt lat="44.44268530003001" lon="9.053635002985347"><ele>184.0</ele><time>2026-04-30T13:02:21.998Z</time></trkpt><trkpt lat="44.442821608935226" lon="9.053703427352557"><ele>184.0</ele><time>2026-04-30T13:02:22.998Z</time></trkpt><trkpt lat="44.44295107746592" lon="9.053766502668479"><ele>184.0</ele><time>2026-04-30T13:02:23.998Z</time></trkpt><trkpt lat="44.443068609996466" lon="9.053829562020471"><ele>183.79999999999998</ele><time>2026-04-30T13:02:24.998Z</time></trkpt><trkpt lat="44.443173356949465" lon="9.053937578404888"><ele>183.6</ele><time>2026-04-30T13:02:25.998Z</time></trkpt><trkpt lat="44.44323324203514" lon="9.05406025957759"><ele>183.4</ele><time>2026-04-30T13:02:26.998Z</time></trkpt><trkpt lat="44.4432515523623" lon="9.054153245889118"><ele>183.2</ele><time>2026-04-30T13:02:27.998Z</time></trkpt><trkpt lat="44.443260478261216" lon="9.054278421465291"><ele>183.0</ele><time>2026-04-30T13:02:28.998Z</time></trkpt><trkpt lat="44.44323374507015" lon="9.054412868073854"><ele>184.75</ele><time>2026-04-30T13:02:29.998Z</time></trkpt><trkpt lat="44.44317299563021" lon="9.054597277698013"><ele>186.5</ele><time>2026-04-30T13:02:30.998Z</time></trkpt><trkpt lat="44.443113309531725" lon="9.05475951942042"><ele>188.25</ele><time>2026-04-30T13:02:31.998Z</time></trkpt><trkpt lat="44.4430534134283" lon="9.054921452835522"><ele>190.0</ele><time>2026-04-30T13:02:32.998Z</time></trkpt><trkpt lat="44.44301551766562" lon="9.05507978616338"><ele>203.0</ele><time>2026-04-30T13:02:33.998Z</time></trkpt><trkpt lat="44.44295996590352" lon="9.055258017797877"><ele>216.0</ele><time>2026-04-30T13:02:34.998Z</time></trkpt><trkpt lat="44.44291129491604" lon="9.055437750039108"><ele>229.0</ele><time>2026-04-30T13:02:35.998Z</time></trkpt><trkpt lat="44.442851072478746" lon="9.055610501000087"><ele>242.0</ele><time>2026-04-30T13:02:36.998Z</time></trkpt><trkpt lat="44.44279850120427" lon="9.055763161756698"><ele>243.25</ele><time>2026-04-30T13:02:37.998Z</time></trkpt><trkpt lat="44.442750017288695" lon="9.055956550387483"><ele>244.5</ele><time>2026-04-30T13:02:38.998Z</time></trkpt><trkpt lat="44.44272688841305" lon="9.056162553293685"><ele>245.75</ele><time>2026-04-30T13:02:39.998Z</time></trkpt><trkpt lat="44.442711303945906" lon="9.056377423555478"><ele>247.0</ele><time>2026-04-30T13:02:40.998Z</time></trkpt><trkpt lat="44.442710617181525" lon="9.05658486577417"><ele>247.0</ele><time>2026-04-30T13:02:41.998Z</time></trkpt><trkpt lat="44.442683872536314" lon="9.056762342052348"><ele>247.0</ele><time>2026-04-30T13:02:42.998Z</time></trkpt><trkpt lat="44.44268200632665" lon="9.056975262384574"><ele>247.0</ele><time>2026-04-30T13:02:43.998Z</time></trkpt><trkpt lat="44.44269714928253" lon="9.057206567750146"><ele>247.0</ele><time>2026-04-30T13:02:44.998Z</time></trkpt><trkpt lat="44.442707861640244" lon="9.057411274280643"><ele>243.5</ele><time>2026-04-30T13:02:45.998Z</time></trkpt><trkpt lat="44.442704918027076" lon="9.057594973156338"><ele>240.0</ele><time>2026-04-30T13:02:46.998Z</time></trkpt><trkpt lat="44.44267249817293" lon="9.057765659761607"><ele>236.5</ele><time>2026-04-30T13:02:47.998Z</time></trkpt><trkpt lat="44.44261797865335" lon="9.05792471915692"><ele>233.0</ele><time>2026-04-30T13:02:48.998Z</time></trkpt><trkpt lat="44.44254360142833" lon="9.058098872378576"><ele>233.0</ele><time>2026-04-30T13:02:49.998Z</time></trkpt><trkpt lat="44.442467244556816" lon="9.058276678458286"><ele>233.0</ele><time>2026-04-30T13:02:50.998Z</time></trkpt><trkpt lat="44.44238756964946" lon="9.058470801547852"><ele>233.0</ele><time>2026-04-30T13:02:51.997Z</time></trkpt><trkpt lat="44.442326010685576" lon="9.058653673922835"><ele>228.33333333333334</ele><time>2026-04-30T13:02:52.997Z</time></trkpt><trkpt lat="44.44226738250841" lon="9.058864752696605"><ele>223.66666666666669</ele><time>2026-04-30T13:02:53.997Z</time></trkpt><trkpt lat="44.44222884817916" lon="9.059053290318852"><ele>219.0</ele><time>2026-04-30T13:02:54.997Z</time></trkpt><trkpt lat="44.442208764483084" lon="9.059282279792908"><ele>218.33333333333331</ele><time>2026-04-30T13:02:55.997Z</time></trkpt><trkpt lat="44.44218076311787" lon="9.059509857735002"><ele>217.66666666666666</ele><time>2026-04-30T13:02:56.997Z</time></trkpt><trkpt lat="44.442162789949165" lon="9.059700149948005"><ele>217.0</ele><time>2026-04-30T13:02:57.997Z</time></trkpt><trkpt lat="44.44213587790809" lon="9.059915541167722"><ele>218.33333333333331</ele><time>2026-04-30T13:02:58.997Z</time></trkpt><trkpt lat="44.44213984820572" lon="9.06013907490146"><ele>219.66666666666669</ele><time>2026-04-30T13:02:59.997Z</time></trkpt><trkpt lat="44.442169660438225" lon="9.060333851407586"><ele>221.0</ele><time>2026-04-30T13:03:00.997Z</time></trkpt><trkpt lat="44.442220855386424" lon="9.060550396636323"><ele>221.0</ele><time>2026-04-30T13:03:01.997Z</time></trkpt><trkpt lat="44.44226427914122" lon="9.060732444898722"><ele>221.0</ele><time>2026-04-30T13:03:02.997Z</time></trkpt><trkpt lat="44.442305081453746" lon="9.060913284070768"><ele>221.0</ele><time>2026-04-30T13:03:03.997Z</time></trkpt><trkpt lat="44.44233832659653" lon="9.061090361893985"><ele>221.0</ele><time>2026-04-30T13:03:04.997Z</time></trkpt><trkpt lat="44.44231501044418" lon="9.061296477232755"><ele>222.0</ele><time>2026-04-30T13:03:05.997Z</time></trkpt><trkpt lat="44.442286843931875" lon="9.061497009816705"><ele>223.0</ele><time>2026-04-30T13:03:06.997Z</time></trkpt><trkpt lat="44.442251365245255" lon="9.061676319517355"><ele>224.0</ele><time>2026-04-30T13:03:07.997Z</time></trkpt><trkpt lat="44.442225495943255" lon="9.061893383626737"><ele>225.0</ele><time>2026-04-30T13:03:08.997Z</time></trkpt><trkpt lat="44.44218910782934" lon="9.062083719488921"><ele>225.5</ele><time>2026-04-30T13:03:09.997Z</time></trkpt><trkpt lat="44.44216324776753" lon="9.06227633220965"><ele>226.0</ele><time>2026-04-30T13:03:10.997Z</time></trkpt><trkpt lat="44.442178828087854" lon="9.062473883029993"><ele>226.5</ele><time>2026-04-30T13:03:11.997Z</time></trkpt><trkpt lat="44.44221449618151" lon="9.062662885507642"><ele>227.0</ele><time>2026-04-30T13:03:12.997Z</time></trkpt><trkpt lat="44.44224772177708" lon="9.062850540292558"><ele>227.5</ele><time>2026-04-30T13:03:13.997Z</time></trkpt><trkpt lat="44.44227343332349" lon="9.063028670376768"><ele>228.0</ele><time>2026-04-30T13:03:14.997Z</time></trkpt><trkpt lat="44.44230353316461" lon="9.063208155328196"><ele>228.5</ele><time>2026-04-30T13:03:15.997Z</time></trkpt><trkpt lat="44.44233432542933" lon="9.063391769675727"><ele>229.0</ele><time>2026-04-30T13:03:16.997Z</time></trkpt><trkpt lat="44.442368308535514" lon="9.063594411201112"><ele>231.25</ele><time>2026-04-30T13:03:17.997Z</time></trkpt><trkpt lat="44.442412175505396" lon="9.063793608785854"><ele>233.5</ele><time>2026-04-30T13:03:18.997Z</time></trkpt><trkpt lat="44.44243124665761" lon="9.063971615942993"><ele>235.75</ele><time>2026-04-30T13:03:19.997Z</time></trkpt><trkpt lat="44.44244933797989" lon="9.06412807969584"><ele>238.0</ele><time>2026-04-30T13:03:20.997Z</time></trkpt><trkpt lat="44.4424428431342" lon="9.064228209264243"><ele>239.25</ele><time>2026-04-30T13:03:21.997Z</time></trkpt><trkpt lat="44.442418711149756" lon="9.064314961287748"><ele>240.5</ele><time>2026-04-30T13:03:22.997Z</time></trkpt><trkpt lat="44.44229086523812" lon="9.064513563872845"><ele>241.75</ele><time>2026-04-30T13:03:24.997Z</time></trkpt><trkpt lat="44.4421542284606" lon="9.064629319591969"><ele>243.0</ele><time>2026-04-30T13:03:25.997Z</time></trkpt><trkpt lat="44.4420413445952" lon="9.06475064742262"><ele>251.5</ele><time>2026-04-30T13:03:26.997Z</time></trkpt><trkpt lat="44.44194873297459" lon="9.064895551870595"><ele>260.0</ele><time>2026-04-30T13:03:27.997Z</time></trkpt><trkpt lat="44.44190166326835" lon="9.065055996700195"><ele>268.5</ele><time>2026-04-30T13:03:28.997Z</time></trkpt><trkpt lat="44.441895471975" lon="9.065231084666486"><ele>277.0</ele><time>2026-04-30T13:03:29.997Z</time></trkpt><trkpt lat="44.441920542617616" lon="9.065422083709757"><ele>277.0</ele><time>2026-04-30T13:03:30.997Z</time></trkpt><trkpt lat="44.44196114098279" lon="9.065606125020176"><ele>277.0</ele><time>2026-04-30T13:03:31.997Z</time></trkpt><trkpt lat="44.442020591475554" lon="9.065774531133277"><ele>277.0</ele><time>2026-04-30T13:03:32.997Z</time></trkpt><trkpt lat="44.442062108974646" lon="9.06594974222183"><ele>277.0</ele><time>2026-04-30T13:03:33.997Z</time></trkpt><trkpt lat="44.44210443026169" lon="9.066105935492391"><ele>276.8</ele><time>2026-04-30T13:03:34.997Z</time></trkpt><trkpt lat="44.44212868065072" lon="9.066259982521016"><ele>276.6</ele><time>2026-04-30T13:03:35.997Z</time></trkpt><trkpt lat="44.44211060211271" lon="9.066417482533428"><ele>276.40000000000003</ele><time>2026-04-30T13:03:36.997Z</time></trkpt><trkpt lat="44.44208742037276" lon="9.066568343378524"><ele>276.2</ele><time>2026-04-30T13:03:37.997Z</time></trkpt><trkpt lat="44.442043306171186" lon="9.066704969917643"><ele>276.0</ele><time>2026-04-30T13:03:38.997Z</time></trkpt><trkpt lat="44.4419787151163" lon="9.066826305604739"><ele>276.0</ele><time>2026-04-30T13:03:39.997Z</time></trkpt><trkpt lat="44.441886768859526" lon="9.06694829850626"><ele>276.0</ele><time>2026-04-30T13:03:40.997Z</time></trkpt><trkpt lat="44.44178925982731" lon="9.067073377160364"><ele>276.0</ele><time>2026-04-30T13:03:41.996Z</time></trkpt><trkpt lat="44.44168724337418" lon="9.067204237564203"><ele>276.0</ele><time>2026-04-30T13:03:42.996Z</time></trkpt><trkpt lat="44.441594167500895" lon="9.067353138860271"><ele>272.75</ele><time>2026-04-30T13:03:43.996Z</time></trkpt><trkpt lat="44.441485038352326" lon="9.067482872673146"><ele>269.5</ele><time>2026-04-30T13:03:44.996Z</time></trkpt><trkpt lat="44.441381517574094" lon="9.067616351982837"><ele>266.25</ele><time>2026-04-30T13:03:45.996Z</time></trkpt><trkpt lat="44.44128952775956" lon="9.067790387524083"><ele>263.0</ele><time>2026-04-30T13:03:46.996Z</time></trkpt><trkpt lat="44.44120262056008" lon="9.067960431640094"><ele>271.0</ele><time>2026-04-30T13:03:47.996Z</time></trkpt><trkpt lat="44.441120139932806" lon="9.06813070120987"><ele>279.0</ele><time>2026-04-30T13:03:48.996Z</time></trkpt><trkpt lat="44.441066172503646" lon="9.068312946104175"><ele>287.0</ele><time>2026-04-30T13:03:49.996Z</time></trkpt><trkpt lat="44.44104229099655" lon="9.068518527492339"><ele>295.0</ele><time>2026-04-30T13:03:50.996Z</time></trkpt><trkpt lat="44.441047168294595" lon="9.068723314030885"><ele>295.0</ele><time>2026-04-30T13:03:51.996Z</time></trkpt><trkpt lat="44.44108433091064" lon="9.068915349791803"><ele>295.0</ele><time>2026-04-30T13:03:52.996Z</time></trkpt><trkpt lat="44.44112478556844" lon="9.069092569213783"><ele>295.0</ele><time>2026-04-30T13:03:53.996Z</time></trkpt><trkpt lat="44.441155324609774" lon="9.069248250567275"><ele>295.0</ele><time>2026-04-30T13:03:54.996Z</time></trkpt><trkpt lat="44.441158956293044" lon="9.069393629583935"><ele>295.25</ele><time>2026-04-30T13:03:55.996Z</time></trkpt><trkpt lat="44.44113726532728" lon="9.069540741966621"><ele>295.5</ele><time>2026-04-30T13:03:56.996Z</time></trkpt><trkpt lat="44.44109001839139" lon="9.069690064009716"><ele>295.75</ele><time>2026-04-30T13:03:57.996Z</time></trkpt><trkpt lat="44.44102300761503" lon="9.069840326643826"><ele>296.0</ele><time>2026-04-30T13:03:58.996Z</time></trkpt><trkpt lat="44.44094521280783" lon="9.069969239910652"><ele>294.0</ele><time>2026-04-30T13:03:59.996Z</time></trkpt><trkpt lat="44.44086358344837" lon="9.070082322376894"><ele>292.0</ele><time>2026-04-30T13:04:00.996Z</time></trkpt><trkpt lat="44.440779852596506" lon="9.070185238174743"><ele>290.0</ele><time>2026-04-30T13:04:01.996Z</time></trkpt><trkpt lat="44.440671897574326" lon="9.070317877313993"><ele>288.0</ele><time>2026-04-30T13:04:02.996Z</time></trkpt><trkpt lat="44.440610817128324" lon="9.070488489570026"><ele>288.0</ele><time>2026-04-30T13:04:03.996Z</time></trkpt><trkpt lat="44.44059153513112" lon="9.070697217972791"><ele>288.0</ele><time>2026-04-30T13:04:04.996Z</time></trkpt><trkpt lat="44.44061033966451" lon="9.070867761429115"><ele>288.0</ele><time>2026-04-30T13:04:05.996Z</time></trkpt><trkpt lat="44.44063637905553" lon="9.07103266402659"><ele>288.0</ele><time>2026-04-30T13:04:06.996Z</time></trkpt><trkpt lat="44.440665546190395" lon="9.071202707646883"><ele>287.25</ele><time>2026-04-30T13:04:07.996Z</time></trkpt><trkpt lat="44.44069489310032" lon="9.071375719270137"><ele>286.5</ele><time>2026-04-30T13:04:08.996Z</time></trkpt><trkpt lat="44.44073193399508" lon="9.071540218742172"><ele>285.75</ele><time>2026-04-30T13:04:09.996Z</time></trkpt><trkpt lat="44.440756408023894" lon="9.071703739857409"><ele>285.0</ele><time>2026-04-30T13:04:10.996Z</time></trkpt><trkpt lat="44.44078075823804" lon="9.07186816399504"><ele>285.0</ele><time>2026-04-30T13:04:11.996Z</time></trkpt><trkpt lat="44.44079550451786" lon="9.072026555340768"><ele>285.0</ele><time>2026-04-30T13:04:12.996Z</time></trkpt><trkpt lat="44.44079320145838" lon="9.0721776431645"><ele>285.0</ele><time>2026-04-30T13:04:13.996Z</time></trkpt><trkpt lat="44.44075054485197" lon="9.072329267435226"><ele>285.0</ele><time>2026-04-30T13:04:14.996Z</time></trkpt><trkpt lat="44.44066460455563" lon="9.072453978114773"><ele>283.25</ele><time>2026-04-30T13:04:15.996Z</time></trkpt><trkpt lat="44.44057453617238" lon="9.07257738178882"><ele>281.5</ele><time>2026-04-30T13:04:16.996Z</time></trkpt><trkpt lat="44.44047417079968" lon="9.072714325797927"><ele>279.75</ele><time>2026-04-30T13:04:17.996Z</time></trkpt><trkpt lat="44.44034156763056" lon="9.072841231839922"><ele>278.0</ele><time>2026-04-30T13:04:18.996Z</time></trkpt><trkpt lat="44.44024837630808" lon="9.0729967932922"><ele>287.0</ele><time>2026-04-30T13:04:19.996Z</time></trkpt><trkpt lat="44.44018869365749" lon="9.073157916852757"><ele>296.0</ele><time>2026-04-30T13:04:20.996Z</time></trkpt><trkpt lat="44.440143960873115" lon="9.07334379430995"><ele>305.0</ele><time>2026-04-30T13:04:21.996Z</time></trkpt><trkpt lat="44.440095744597095" lon="9.073534901106251"><ele>314.0</ele><time>2026-04-30T13:04:22.996Z</time></trkpt><trkpt lat="44.44005068177079" lon="9.073724444735278"><ele>314.0</ele><time>2026-04-30T13:04:23.996Z</time></trkpt><trkpt lat="44.44000863308445" lon="9.07390267522493"><ele>314.0</ele><time>2026-04-30T13:04:24.996Z</time></trkpt><trkpt lat="44.43996088877543" lon="9.074077799505666"><ele>314.0</ele><time>2026-04-30T13:04:25.996Z</time></trkpt><trkpt lat="44.43992718199695" lon="9.074256180896107"><ele>314.0</ele><time>2026-04-30T13:04:26.996Z</time></trkpt><trkpt lat="44.4398909881765" lon="9.074430902220843"><ele>310.75</ele><time>2026-04-30T13:04:27.996Z</time></trkpt><trkpt lat="44.43988076490889" lon="9.07461989513327"><ele>307.5</ele><time>2026-04-30T13:04:28.996Z</time></trkpt><trkpt lat="44.439914210823254" lon="9.074801941427058"><ele>304.25</ele><time>2026-04-30T13:04:29.996Z</time></trkpt><trkpt lat="44.43996008719539" lon="9.074977307490819"><ele>301.0</ele><time>2026-04-30T13:04:30.995Z</time></trkpt><trkpt lat="44.440009248861365" lon="9.075142400402239"><ele>300.75</ele><time>2026-04-30T13:04:31.995Z</time></trkpt><trkpt lat="44.44004975740628" lon="9.07529593338682"><ele>300.5</ele><time>2026-04-30T13:04:32.995Z</time></trkpt><trkpt lat="44.44006387003659" lon="9.075462473166267"><ele>300.25</ele><time>2026-04-30T13:04:33.995Z</time></trkpt><trkpt lat="44.44005016868117" lon="9.075643097456028"><ele>300.0</ele><time>2026-04-30T13:04:34.995Z</time></trkpt><trkpt lat="44.43999290216478" lon="9.075822854498165"><ele>299.0</ele><time>2026-04-30T13:04:35.995Z</time></trkpt><trkpt lat="44.43989873186057" lon="9.07596586675739"><ele>298.0</ele><time>2026-04-30T13:04:36.995Z</time></trkpt><trkpt lat="44.43981700892849" lon="9.076124667614515"><ele>297.0</ele><time>2026-04-30T13:04:37.995Z</time></trkpt><trkpt lat="44.43969885751456" lon="9.076255622187412"><ele>296.0</ele><time>2026-04-30T13:04:38.995Z</time></trkpt><trkpt lat="44.439565270123595" lon="9.076351105717238"><ele>303.25</ele><time>2026-04-30T13:04:39.995Z</time></trkpt><trkpt lat="44.43943680531469" lon="9.076427145634055"><ele>310.5</ele><time>2026-04-30T13:04:40.995Z</time></trkpt><trkpt lat="44.439307697556686" lon="9.07650635683398"><ele>317.75</ele><time>2026-04-30T13:04:41.995Z</time></trkpt><trkpt lat="44.439184130542046" lon="9.076587183852721"><ele>325.0</ele><time>2026-04-30T13:04:42.995Z</time></trkpt><trkpt lat="44.43906999687693" lon="9.076698061793168"><ele>325.0</ele><time>2026-04-30T13:04:43.995Z</time></trkpt><trkpt lat="44.438979391249234" lon="9.076866663223377"><ele>325.0</ele><time>2026-04-30T13:04:44.995Z</time></trkpt><trkpt lat="44.43888298697518" lon="9.077030372319168"><ele>325.0</ele><time>2026-04-30T13:04:45.995Z</time></trkpt><trkpt lat="44.43881415870608" lon="9.077195433359556"><ele>325.0</ele><time>2026-04-30T13:04:46.995Z</time></trkpt><trkpt lat="44.438730223573025" lon="9.077344988910323"><ele>327.75</ele><time>2026-04-30T13:04:47.995Z</time></trkpt><trkpt lat="44.43865465299342" lon="9.077502004062955"><ele>330.5</ele><time>2026-04-30T13:04:48.995Z</time></trkpt><trkpt lat="44.43857785396724" lon="9.077667226625827"><ele>333.25</ele><time>2026-04-30T13:04:49.995Z</time></trkpt><trkpt lat="44.43849874704019" lon="9.07782535238973"><ele>336.0</ele><time>2026-04-30T13:04:50.995Z</time></trkpt><trkpt lat="44.438419744609405" lon="9.077987175096046"><ele>336.0</ele><time>2026-04-30T13:04:51.995Z</time></trkpt><trkpt lat="44.438339404384806" lon="9.078147072993135"><ele>336.0</ele><time>2026-04-30T13:04:52.995Z</time></trkpt><trkpt lat="44.43826245973681" lon="9.078303068709161"><ele>336.0</ele><time>2026-04-30T13:04:53.995Z</time></trkpt><trkpt lat="44.4381990393746" lon="9.078455673069046"><ele>336.0</ele><time>2026-04-30T13:04:54.995Z</time></trkpt><trkpt lat="44.43815775822369" lon="9.078630030578955"><ele>331.0</ele><time>2026-04-30T13:04:55.995Z</time></trkpt><trkpt lat="44.438155218799054" lon="9.078821115778753"><ele>326.0</ele><time>2026-04-30T13:04:56.995Z</time></trkpt><trkpt lat="44.438172893945136" lon="9.079014360450863"><ele>321.0</ele><time>2026-04-30T13:04:57.995Z</time></trkpt><trkpt lat="44.438189863240915" lon="9.07921022226323"><ele>316.0</ele><time>2026-04-30T13:04:58.995Z</time></trkpt><trkpt lat="44.43821348750089" lon="9.079403914941148"><ele>313.75</ele><time>2026-04-30T13:04:59.995Z</time></trkpt><trkpt lat="44.43821749456172" lon="9.079598163891804"><ele>311.5</ele><time>2026-04-30T13:05:00.995Z</time></trkpt><trkpt lat="44.438245736241036" lon="9.079792412383224"><ele>309.25</ele><time>2026-04-30T13:05:01.995Z</time></trkpt><trkpt lat="44.43827339850186" lon="9.079993809669379"><ele>307.0</ele><time>2026-04-30T13:05:02.995Z</time></trkpt><trkpt lat="44.43832158462871" lon="9.080202202246875"><ele>306.66666666666663</ele><time>2026-04-30T13:05:03.995Z</time></trkpt><trkpt lat="44.43839015839175" lon="9.080399289373084"><ele>306.3333333333333</ele><time>2026-04-30T13:05:04.995Z</time></trkpt><trkpt lat="44.43846489182814" lon="9.080595807500776"><ele>306.0</ele><time>2026-04-30T13:05:05.995Z</time></trkpt><trkpt lat="44.43856125711713" lon="9.080838413195732"><ele>304.3333333333333</ele><time>2026-04-30T13:05:06.995Z</time></trkpt><trkpt lat="44.43866468704273" lon="9.081067546220183"><ele>302.66666666666663</ele><time>2026-04-30T13:05:07.995Z</time></trkpt><trkpt lat="44.438727802602045" lon="9.081282858178207"><ele>301.0</ele><time>2026-04-30T13:05:08.995Z</time></trkpt><trkpt lat="44.43882487063216" lon="9.081464500219942"><ele>303.3333333333333</ele><time>2026-04-30T13:05:09.995Z</time></trkpt><trkpt lat="44.43888597134725" lon="9.081657554722913"><ele>305.6666666666667</ele><time>2026-04-30T13:05:10.995Z</time></trkpt><trkpt lat="44.4389652208582" lon="9.081839988362043"><ele>308.0</ele><time>2026-04-30T13:05:11.995Z</time></trkpt><trkpt lat="44.439021028175496" lon="9.082072532417252"><ele>308.0</ele><time>2026-04-30T13:05:12.995Z</time></trkpt><trkpt lat="44.439120868169475" lon="9.082196209970578"><ele>308.0</ele><time>2026-04-30T13:05:13.995Z</time></trkpt><trkpt lat="44.43921815683778" lon="9.082376024997039"><ele>308.0</ele><time>2026-04-30T13:05:14.995Z</time></trkpt><trkpt lat="44.43935053331686" lon="9.082477780481204"><ele>308.0</ele><time>2026-04-30T13:05:15.995Z</time></trkpt><trkpt lat="44.43945139715201" lon="9.082600049019812"><ele>309.75</ele><time>2026-04-30T13:05:16.995Z</time></trkpt><trkpt lat="44.43955796196419" lon="9.082728849202903"><ele>311.5</ele><time>2026-04-30T13:05:17.995Z</time></trkpt><trkpt lat="44.43966019295949" lon="9.082852468929993"><ele>313.25</ele><time>2026-04-30T13:05:18.995Z</time></trkpt><trkpt lat="44.43980171795246" lon="9.082988938175326"><ele>315.0</ele><time>2026-04-30T13:05:19.995Z</time></trkpt><trkpt lat="44.439905763885" lon="9.083125705702523"><ele>319.5</ele><time>2026-04-30T13:05:20.994Z</time></trkpt><trkpt lat="44.44002281752446" lon="9.083265659390717"><ele>324.0</ele><time>2026-04-30T13:05:21.994Z</time></trkpt><trkpt lat="44.44014761526048" lon="9.083390469475722"><ele>328.5</ele><time>2026-04-30T13:05:22.994Z</time></trkpt><trkpt lat="44.440253630098596" lon="9.083509985403222"><ele>333.0</ele><time>2026-04-30T13:05:23.994Z</time></trkpt><trkpt lat="44.44033621670763" lon="9.083660674533782"><ele>333.0</ele><time>2026-04-30T13:05:24.994Z</time></trkpt><trkpt lat="44.440445977189626" lon="9.083825668150288"><ele>333.0</ele><time>2026-04-30T13:05:25.994Z</time></trkpt><trkpt lat="44.44050769896512" lon="9.084006221063804"><ele>333.0</ele><time>2026-04-30T13:05:26.994Z</time></trkpt><trkpt lat="44.44057392514036" lon="9.084197825758451"><ele>332.5</ele><time>2026-04-30T13:05:27.994Z</time></trkpt><trkpt lat="44.44063033628432" lon="9.08439397321052"><ele>332.0</ele><time>2026-04-30T13:05:28.994Z</time></trkpt><trkpt lat="44.4406829621136" lon="9.084590792027695"><ele>331.5</ele><time>2026-04-30T13:05:29.994Z</time></trkpt><trkpt lat="44.440734550342505" lon="9.08478262701155"><ele>331.0</ele><time>2026-04-30T13:05:30.994Z</time></trkpt><trkpt lat="44.44078691028832" lon="9.084964299787718"><ele>331.0</ele><time>2026-04-30T13:05:31.994Z</time></trkpt><trkpt lat="44.4408387543908" lon="9.085145407737427"><ele>331.0</ele><time>2026-04-30T13:05:32.994Z</time></trkpt><trkpt lat="44.440892803360335" lon="9.085330812864422"><ele>331.0</ele><time>2026-04-30T13:05:33.994Z</time></trkpt><trkpt lat="44.44094983049734" lon="9.08551866498443"><ele>331.0</ele><time>2026-04-30T13:05:34.994Z</time></trkpt><trkpt lat="44.441005303716395" lon="9.085677586692075"><ele>335.25</ele><time>2026-04-30T13:05:35.994Z</time></trkpt><trkpt lat="44.44106202000148" lon="9.085840798124428"><ele>339.5</ele><time>2026-04-30T13:05:36.994Z</time></trkpt><trkpt lat="44.441129441348224" lon="9.085981463588595"><ele>343.75</ele><time>2026-04-30T13:05:37.994Z</time></trkpt><trkpt lat="44.44120320069344" lon="9.086115278346313"><ele>348.0</ele><time>2026-04-30T13:05:38.994Z</time></trkpt><trkpt lat="44.441289847704546" lon="9.086264581914195"><ele>348.0</ele><time>2026-04-30T13:05:39.994Z</time></trkpt><trkpt lat="44.44142033250099" lon="9.086355084994274"><ele>348.0</ele><time>2026-04-30T13:05:40.994Z</time></trkpt><trkpt lat="44.441521719674135" lon="9.086476773271524"><ele>348.0</ele><time>2026-04-30T13:05:41.994Z</time></trkpt><trkpt lat="44.441607994434094" lon="9.086620982708219"><ele>348.0</ele><time>2026-04-30T13:05:42.994Z</time></trkpt><trkpt lat="44.441689903115105" lon="9.086766527511646"><ele>348.0</ele><time>2026-04-30T13:05:43.994Z</time></trkpt><trkpt lat="44.44175520141049" lon="9.08694324964331"><ele>348.0</ele><time>2026-04-30T13:05:44.994Z</time></trkpt><trkpt lat="44.44180040192368" lon="9.087126282468425"><ele>348.0</ele><time>2026-04-30T13:05:45.994Z</time></trkpt><trkpt lat="44.441829580745306" lon="9.08729577007009"><ele>348.0</ele><time>2026-04-30T13:05:46.994Z</time></trkpt><trkpt lat="44.441863110582794" lon="9.087491448880455"><ele>351.5</ele><time>2026-04-30T13:05:47.994Z</time></trkpt><trkpt lat="44.44189511514316" lon="9.087678226067087"><ele>355.0</ele><time>2026-04-30T13:05:48.994Z</time></trkpt><trkpt lat="44.4419277080276" lon="9.087869669352763"><ele>358.5</ele><time>2026-04-30T13:05:49.994Z</time></trkpt><trkpt lat="44.44195939288115" lon="9.088059780228866"><ele>362.0</ele><time>2026-04-30T13:05:50.994Z</time></trkpt><trkpt lat="44.44199326594216" lon="9.088261163916313"><ele>363.75</ele><time>2026-04-30T13:05:51.994Z</time></trkpt><trkpt lat="44.44203234325386" lon="9.088440277052095"><ele>365.5</ele><time>2026-04-30T13:05:52.994Z</time></trkpt><trkpt lat="44.44207401776696" lon="9.08863937775464"><ele>367.25</ele><time>2026-04-30T13:05:53.994Z</time></trkpt><trkpt lat="44.4421261318269" lon="9.08879683136232"><ele>369.0</ele><time>2026-04-30T13:05:54.994Z</time></trkpt><trkpt lat="44.44220702832801" lon="9.088923471623906"><ele>361.75</ele><time>2026-04-30T13:05:55.994Z</time></trkpt><trkpt lat="44.44228808086503" lon="9.089051055146632"><ele>354.5</ele><time>2026-04-30T13:05:56.994Z</time></trkpt><trkpt lat="44.44235658523746" lon="9.089194103800466"><ele>347.25</ele><time>2026-04-30T13:05:57.994Z</time></trkpt><trkpt lat="44.44241917277769" lon="9.089346055983203"><ele>340.0</ele><time>2026-04-30T13:05:58.994Z</time></trkpt><trkpt lat="44.44246093611299" lon="9.08948938829189"><ele>340.0</ele><time>2026-04-30T13:05:59.994Z</time></trkpt><trkpt lat="44.44248010576216" lon="9.089614324638116"><ele>340.0</ele><time>2026-04-30T13:06:00.994Z</time></trkpt><trkpt lat="44.44247720144373" lon="9.089756775191237"><ele>340.0</ele><time>2026-04-30T13:06:01.994Z</time></trkpt><trkpt lat="44.44245319381933" lon="9.089909836442061"><ele>340.0</ele><time>2026-04-30T13:06:02.994Z</time></trkpt><trkpt lat="44.442424986446014" lon="9.090068983871994"><ele>340.0</ele><time>2026-04-30T13:06:03.994Z</time></trkpt><trkpt lat="44.44239562179079" lon="9.090183691806672"><ele>341.2</ele><time>2026-04-30T13:06:04.994Z</time></trkpt><trkpt lat="44.442370543338704" lon="9.090299803147394"><ele>342.4</ele><time>2026-04-30T13:06:05.994Z</time></trkpt><trkpt lat="44.44235477902921" lon="9.090421998461512"><ele>343.6</ele><time>2026-04-30T13:06:06.994Z</time></trkpt><trkpt lat="44.442311357487874" lon="9.090574767082863"><ele>344.8</ele><time>2026-04-30T13:06:07.994Z</time></trkpt><trkpt lat="44.44229822913428" lon="9.09073090874196"><ele>346.0</ele><time>2026-04-30T13:06:08.994Z</time></trkpt><trkpt lat="44.442321235586085" lon="9.09087352050359"><ele>346.4</ele><time>2026-04-30T13:06:09.994Z</time></trkpt><trkpt lat="44.44237805443295" lon="9.091002645033836"><ele>346.8</ele><time>2026-04-30T13:06:10.993Z</time></trkpt><trkpt lat="44.44241844703635" lon="9.091126330515573"><ele>347.2</ele><time>2026-04-30T13:06:11.993Z</time></trkpt><trkpt lat="44.44247558132342" lon="9.091229189564018"><ele>347.59999999999997</ele><time>2026-04-30T13:06:12.993Z</time></trkpt><trkpt lat="44.44249605942038" lon="9.09134350550235"><ele>348.0</ele><time>2026-04-30T13:06:13.993Z</time></trkpt><trkpt lat="44.4424791835352" lon="9.091442391180856"><ele>348.0</ele><time>2026-04-30T13:06:14.993Z</time></trkpt><trkpt lat="44.44246385153529" lon="9.091552471169752"><ele>348.0</ele><time>2026-04-30T13:06:15.993Z</time></trkpt><trkpt lat="44.442451035528094" lon="9.091666224149796"><ele>348.0</ele><time>2026-04-30T13:06:16.993Z</time></trkpt><trkpt lat="44.44247830529445" lon="9.09174621830836"><ele>348.0</ele><time>2026-04-30T13:06:17.993Z</time></trkpt><trkpt lat="44.442537591613565" lon="9.091816187929332"><ele>348.0</ele><time>2026-04-30T13:06:18.993Z</time></trkpt><trkpt lat="44.442615293698786" lon="9.091829765078993"><ele>348.0</ele><time>2026-04-30T13:06:19.993Z</time></trkpt><trkpt lat="44.44269357769333" lon="9.09179566211942"><ele>348.0</ele><time>2026-04-30T13:06:20.993Z</time></trkpt><trkpt lat="44.44275909877524" lon="9.091738326099579"><ele>348.0</ele><time>2026-04-30T13:06:21.993Z</time></trkpt><trkpt lat="44.442839017784955" lon="9.09165683467527"><ele>348.0</ele><time>2026-04-30T13:06:22.993Z</time></trkpt><trkpt lat="44.44289900992017" lon="9.09157051164112"><ele>348.0</ele><time>2026-04-30T13:06:23.993Z</time></trkpt><trkpt lat="44.44298912391189" lon="9.09150063210915"><ele>348.0</ele><time>2026-04-30T13:06:24.993Z</time></trkpt><trkpt lat="44.443095007636586" lon="9.091468655133827"><ele>347.75</ele><time>2026-04-30T13:06:25.993Z</time></trkpt><trkpt lat="44.4431992996721" lon="9.091419268737193"><ele>347.5</ele><time>2026-04-30T13:06:26.993Z</time></trkpt><trkpt lat="44.443310257484924" lon="9.091368818277763"><ele>347.25</ele><time>2026-04-30T13:06:27.993Z</time></trkpt><trkpt lat="44.443420854661" lon="9.091263747570686"><ele>347.0</ele><time>2026-04-30T13:06:28.993Z</time></trkpt><trkpt lat="44.44348737172502" lon="9.091095193825053"><ele>347.0</ele><time>2026-04-30T13:06:29.993Z</time></trkpt><trkpt lat="44.44353750534692" lon="9.090918582972403"><ele>347.0</ele><time>2026-04-30T13:06:30.993Z</time></trkpt><trkpt lat="44.443586764749575" lon="9.090747050191224"><ele>347.0</ele><time>2026-04-30T13:06:31.993Z</time></trkpt><trkpt lat="44.44367557809499" lon="9.090610977839756"><ele>347.0</ele><time>2026-04-30T13:06:32.993Z</time></trkpt><trkpt lat="44.44372122219496" lon="9.090409082179333"><ele>350.75</ele><time>2026-04-30T13:06:33.993Z</time></trkpt><trkpt lat="44.443812562197884" lon="9.090265844312558"><ele>354.5</ele><time>2026-04-30T13:06:34.993Z</time></trkpt><trkpt lat="44.44388737439326" lon="9.090099261355101"><ele>358.25</ele><time>2026-04-30T13:06:35.993Z</time></trkpt><trkpt lat="44.44395893757298" lon="9.089951484495048"><ele>362.0</ele><time>2026-04-30T13:06:36.993Z</time></trkpt><trkpt lat="44.443998236418636" lon="9.089791583797288"><ele>362.0</ele><time>2026-04-30T13:06:37.993Z</time></trkpt><trkpt lat="44.443992864505695" lon="9.089620714037384"><ele>362.0</ele><time>2026-04-30T13:06:38.993Z</time></trkpt><trkpt lat="44.44399058508338" lon="9.089457527360782"><ele>362.0</ele><time>2026-04-30T13:06:39.993Z</time></trkpt><trkpt lat="44.44399312171849" lon="9.089268787544126"><ele>362.0</ele><time>2026-04-30T13:06:40.993Z</time></trkpt><trkpt lat="44.44404898615726" lon="9.089126593040097"><ele>358.25</ele><time>2026-04-30T13:06:41.993Z</time></trkpt><trkpt lat="44.444126544521616" lon="9.08901941819879"><ele>354.5</ele><time>2026-04-30T13:06:42.993Z</time></trkpt><trkpt lat="44.44421310169636" lon="9.088904872321741"><ele>350.75</ele><time>2026-04-30T13:06:43.993Z</time></trkpt><trkpt lat="44.444305768908556" lon="9.088793736913345"><ele>347.0</ele><time>2026-04-30T13:06:44.993Z</time></trkpt><trkpt lat="44.44440729711653" lon="9.088700950152123"><ele>347.0</ele><time>2026-04-30T13:06:45.993Z</time></trkpt><trkpt lat="44.444480954410345" lon="9.088607809009872"><ele>347.0</ele><time>2026-04-30T13:06:46.993Z</time></trkpt><trkpt lat="44.44456788541249" lon="9.088520042311446"><ele>347.0</ele><time>2026-04-30T13:06:47.993Z</time></trkpt><trkpt lat="44.44466076402133" lon="9.088474526113181"><ele>347.0</ele><time>2026-04-30T13:06:48.993Z</time></trkpt><trkpt lat="44.444737294759726" lon="9.088482956918078"><ele>347.0</ele><time>2026-04-30T13:06:49.993Z</time></trkpt><trkpt lat="44.44485018809802" lon="9.088582648970208"><ele>350.75</ele><time>2026-04-30T13:06:51.993Z</time></trkpt><trkpt lat="44.444939938674544" lon="9.08866618244286"><ele>354.5</ele><time>2026-04-30T13:06:52.993Z</time></trkpt><trkpt lat="44.445051307568946" lon="9.088768455312351"><ele>358.25</ele><time>2026-04-30T13:06:53.993Z</time></trkpt><trkpt lat="44.445153578861834" lon="9.088890949507594"><ele>362.0</ele><time>2026-04-30T13:06:54.993Z</time></trkpt><trkpt lat="44.4452582736806" lon="9.088947083933569"><ele>362.0</ele><time>2026-04-30T13:06:55.993Z</time></trkpt><trkpt lat="44.44536562785216" lon="9.089005093003408"><ele>362.0</ele><time>2026-04-30T13:06:56.993Z</time></trkpt><trkpt lat="44.445434036082254" lon="9.089042802722112"><ele>362.0</ele><time>2026-04-30T13:06:57.993Z</time></trkpt><trkpt lat="44.445526823289114" lon="9.089104042626612"><ele>362.0</ele><time>2026-04-30T13:06:58.993Z</time></trkpt><trkpt lat="44.44563694341138" lon="9.089117807994613"><ele>362.0</ele><time>2026-04-30T13:06:59.993Z</time></trkpt><trkpt lat="44.445728937813584" lon="9.089124099481982"><ele>362.25</ele><time>2026-04-30T13:07:00.992Z</time></trkpt><trkpt lat="44.44584996501661" lon="9.08909760521948"><ele>362.5</ele><time>2026-04-30T13:07:01.992Z</time></trkpt><trkpt lat="44.445964279703645" lon="9.089023926897694"><ele>362.75</ele><time>2026-04-30T13:07:02.992Z</time></trkpt><trkpt lat="44.44608075379564" lon="9.088943305167959"><ele>363.0</ele><time>2026-04-30T13:07:03.992Z</time></trkpt><trkpt lat="44.446184317334364" lon="9.088853960057127"><ele>363.0</ele><time>2026-04-30T13:07:04.992Z</time></trkpt><trkpt lat="44.446286541622335" lon="9.08881020051666"><ele>363.0</ele><time>2026-04-30T13:07:05.992Z</time></trkpt><trkpt lat="44.44638870794976" lon="9.088725642676108"><ele>363.0</ele><time>2026-04-30T13:07:06.992Z</time></trkpt><trkpt lat="44.44649967594076" lon="9.088665051308576"><ele>363.0</ele><time>2026-04-30T13:07:07.992Z</time></trkpt><trkpt lat="44.446610901494545" lon="9.088574661657418"><ele>361.0</ele><time>2026-04-30T13:07:08.992Z</time></trkpt><trkpt lat="44.44672239673406" lon="9.088467596679267"><ele>359.0</ele><time>2026-04-30T13:07:09.992Z</time></trkpt><trkpt lat="44.44682291025545" lon="9.088369575355307"><ele>357.0</ele><time>2026-04-30T13:07:10.992Z</time></trkpt><trkpt lat="44.44692401359821" lon="9.088261919173314"><ele>355.0</ele><time>2026-04-30T13:07:11.992Z</time></trkpt><trkpt lat="44.44701035646655" lon="9.088153999992718"><ele>355.0</ele><time>2026-04-30T13:07:12.992Z</time></trkpt><trkpt lat="44.44706216557944" lon="9.088025013447023"><ele>355.0</ele><time>2026-04-30T13:07:13.992Z</time></trkpt><trkpt lat="44.447172867307266" lon="9.087896700522926"><ele>355.0</ele><time>2026-04-30T13:07:14.992Z</time></trkpt><trkpt lat="44.447270692851646" lon="9.087791054666583"><ele>355.0</ele><time>2026-04-30T13:07:15.992Z</time></trkpt><trkpt lat="44.447376313330075" lon="9.087667587125926"><ele>357.25</ele><time>2026-04-30T13:07:16.992Z</time></trkpt><trkpt lat="44.44748130937054" lon="9.087552320338292"><ele>359.5</ele><time>2026-04-30T13:07:17.992Z</time></trkpt><trkpt lat="44.447571238535076" lon="9.087457780934178"><ele>361.75</ele><time>2026-04-30T13:07:18.992Z</time></trkpt><trkpt lat="44.44765884257336" lon="9.087324111704941"><ele>364.0</ele><time>2026-04-30T13:07:19.992Z</time></trkpt><trkpt lat="44.44775117837196" lon="9.087213985274792"><ele>364.0</ele><time>2026-04-30T13:07:20.992Z</time></trkpt><trkpt lat="44.44784518591871" lon="9.087142997108533"><ele>364.0</ele><time>2026-04-30T13:07:21.992Z</time></trkpt><trkpt lat="44.44794531683733" lon="9.087093875180749"><ele>364.0</ele><time>2026-04-30T13:07:22.992Z</time></trkpt><trkpt lat="44.44803204664545" lon="9.087053958064514"><ele>364.0</ele><time>2026-04-30T13:07:23.992Z</time></trkpt><trkpt lat="44.44813185532909" lon="9.087014130618199"><ele>364.0</ele><time>2026-04-30T13:07:24.992Z</time></trkpt><trkpt lat="44.44825712952217" lon="9.086989230049815"><ele>370.75</ele><time>2026-04-30T13:07:25.992Z</time></trkpt><trkpt lat="44.448360574404106" lon="9.086946089959"><ele>377.5</ele><time>2026-04-30T13:07:26.992Z</time></trkpt><trkpt lat="44.448474322411904" lon="9.086888529886732"><ele>384.25</ele><time>2026-04-30T13:07:27.992Z</time></trkpt><trkpt lat="44.44857991997886" lon="9.086843826542285"><ele>391.0</ele><time>2026-04-30T13:07:28.992Z</time></trkpt><trkpt lat="44.44868966603973" lon="9.086801500321183"><ele>391.0</ele><time>2026-04-30T13:07:29.992Z</time></trkpt><trkpt lat="44.44878707498919" lon="9.086757563978667"><ele>391.0</ele><time>2026-04-30T13:07:30.992Z</time></trkpt><trkpt lat="44.44889715316275" lon="9.086757423582847"><ele>391.0</ele><time>2026-04-30T13:07:31.992Z</time></trkpt><trkpt lat="44.44899864276057" lon="9.086764283495526"><ele>391.0</ele><time>2026-04-30T13:07:32.992Z</time></trkpt><trkpt lat="44.449080986435895" lon="9.086796905854186"><ele>391.0</ele><time>2026-04-30T13:07:33.992Z</time></trkpt><trkpt lat="44.449176300165874" lon="9.086838060721773"><ele>393.0</ele><time>2026-04-30T13:07:34.992Z</time></trkpt><trkpt lat="44.44928557778836" lon="9.086890563780877"><ele>395.0</ele><time>2026-04-30T13:07:35.992Z</time></trkpt><trkpt lat="44.449399942853425" lon="9.086943887390497"><ele>397.0</ele><time>2026-04-30T13:07:36.992Z</time></trkpt><trkpt lat="44.449519470190054" lon="9.08697541944346"><ele>399.0</ele><time>2026-04-30T13:07:37.992Z</time></trkpt><trkpt lat="44.44962900170769" lon="9.086986073990056"><ele>399.6</ele><time>2026-04-30T13:07:38.992Z</time></trkpt><trkpt lat="44.449745458732004" lon="9.086987591805988"><ele>400.2</ele><time>2026-04-30T13:07:39.992Z</time></trkpt><trkpt lat="44.44985613392884" lon="9.086988409351454"><ele>400.8</ele><time>2026-04-30T13:07:40.992Z</time></trkpt><trkpt lat="44.449965822737425" lon="9.086989177625394"><ele>401.40000000000003</ele><time>2026-04-30T13:07:41.992Z</time></trkpt><trkpt lat="44.450072387473114" lon="9.086986681037564"><ele>402.0</ele><time>2026-04-30T13:07:42.992Z</time></trkpt><trkpt lat="44.45019112865721" lon="9.086952450183741"><ele>402.0</ele><time>2026-04-30T13:07:43.992Z</time></trkpt><trkpt lat="44.4503034236175" lon="9.086944685289359"><ele>402.0</ele><time>2026-04-30T13:07:44.992Z</time></trkpt><trkpt lat="44.45039650667478" lon="9.086889824529555"><ele>402.0</ele><time>2026-04-30T13:07:45.992Z</time></trkpt><trkpt lat="44.45048106476901" lon="9.086808276594015"><ele>402.0</ele><time>2026-04-30T13:07:46.992Z</time></trkpt><trkpt lat="44.450564311789456" lon="9.08674889026802"><ele>402.0</ele><time>2026-04-30T13:07:47.999Z</time></trkpt><trkpt lat="44.450645842580215" lon="9.086701825307411"><ele>404.5</ele><time>2026-04-30T13:07:48.999Z</time></trkpt><trkpt lat="44.45075618290718" lon="9.086770844039965"><ele>407.0</ele><time>2026-04-30T13:07:50.999Z</time></trkpt><trkpt lat="44.450881733241175" lon="9.086717322584793"><ele>409.5</ele><time>2026-04-30T13:07:51.999Z</time></trkpt><trkpt lat="44.450990670235655" lon="9.086719347083553"><ele>412.0</ele><time>2026-04-30T13:07:52.999Z</time></trkpt><trkpt lat="44.45110286049915" lon="9.086714218462584"><ele>412.0</ele><time>2026-04-30T13:07:53.999Z</time></trkpt><trkpt lat="44.45122574401841" lon="9.086724162317095"><ele>412.0</ele><time>2026-04-30T13:07:54.999Z</time></trkpt><trkpt lat="44.45133628932212" lon="9.086701271858566"><ele>412.0</ele><time>2026-04-30T13:07:55.999Z</time></trkpt><trkpt lat="44.451429677610385" lon="9.08663372192323"><ele>412.0</ele><time>2026-04-30T13:07:56.999Z</time></trkpt><trkpt lat="44.451518300259515" lon="9.086581814707428"><ele>412.0</ele><time>2026-04-30T13:07:57.999Z</time></trkpt><trkpt lat="44.45160539933844" lon="9.086555492495435"><ele>411.40000000000003</ele><time>2026-04-30T13:07:58.999Z</time></trkpt><trkpt lat="44.451690856039846" lon="9.086550824790839"><ele>410.8</ele><time>2026-04-30T13:07:59.999Z</time></trkpt><trkpt lat="44.4517843529814" lon="9.086619934092132"><ele>410.2</ele><time>2026-04-30T13:08:00.999Z</time></trkpt><trkpt lat="44.45188179914065" lon="9.086709224443636"><ele>409.6</ele><time>2026-04-30T13:08:01.999Z</time></trkpt><trkpt lat="44.451981762905554" lon="9.086796766241022"><ele>409.0</ele><time>2026-04-30T13:08:02.999Z</time></trkpt><trkpt lat="44.452077508108175" lon="9.086876689260999"><ele>413.0</ele><time>2026-04-30T13:08:03.999Z</time></trkpt><trkpt lat="44.452179085237404" lon="9.086926061596275"><ele>417.0</ele><time>2026-04-30T13:08:04.999Z</time></trkpt><trkpt lat="44.45228874244547" lon="9.086931880442004"><ele>421.0</ele><time>2026-04-30T13:08:05.999Z</time></trkpt><trkpt lat="44.45239818974932" lon="9.086870965467266"><ele>425.0</ele><time>2026-04-30T13:08:06.999Z</time></trkpt><trkpt lat="44.452500541839576" lon="9.086783226298403"><ele>425.0</ele><time>2026-04-30T13:08:07.999Z</time></trkpt><trkpt lat="44.452606743605514" lon="9.086709983059071"><ele>425.0</ele><time>2026-04-30T13:08:08.999Z</time></trkpt><trkpt lat="44.45270439533514" lon="9.086633497708268"><ele>425.0</ele><time>2026-04-30T13:08:09.999Z</time></trkpt><trkpt lat="44.45279898057786" lon="9.08657889073246"><ele>425.0</ele><time>2026-04-30T13:08:10.999Z</time></trkpt><trkpt lat="44.452894553206804" lon="9.086525400160866"><ele>425.0</ele><time>2026-04-30T13:08:11.999Z</time></trkpt><trkpt lat="44.453001246116855" lon="9.086553606557533"><ele>426.6</ele><time>2026-04-30T13:08:12.999Z</time></trkpt><trkpt lat="44.453095621524234" lon="9.086626637634566"><ele>428.2</ele><time>2026-04-30T13:08:13.999Z</time></trkpt><trkpt lat="44.453174523695104" lon="9.08669071066739"><ele>429.79999999999995</ele><time>2026-04-30T13:08:14.999Z</time></trkpt><trkpt lat="44.453237958565715" lon="9.08673253981657"><ele>431.4</ele><time>2026-04-30T13:08:15.999Z</time></trkpt><trkpt lat="44.453330621968874" lon="9.086830415308308"><ele>433.0</ele><time>2026-04-30T13:08:17.999Z</time></trkpt><trkpt lat="44.45339352455963" lon="9.086908518958694"><ele>433.00000000000006</ele><time>2026-04-30T13:08:19.999Z</time></trkpt><trkpt lat="44.45348760595057" lon="9.086833992822074"><ele>433.0</ele><time>2026-04-30T13:08:21.999Z</time></trkpt><trkpt lat="44.45343870273625" lon="9.086763801668434"><ele>433.0</ele><time>2026-04-30T13:08:22.999Z</time></trkpt><trkpt lat="44.453373771775304" lon="9.086711272382544"><ele>433.0</ele><time>2026-04-30T13:08:24.999Z</time></trkpt><trkpt lat="44.453296938065016" lon="9.08666436758938"><ele>433.00000000000006</ele><time>2026-04-30T13:08:26.999Z</time></trkpt><trkpt lat="44.45324335928839" lon="9.086601115885202"><ele>433.0</ele><time>2026-04-30T13:08:28.999Z</time></trkpt><trkpt lat="44.45324776530445" lon="9.086701256185895"><ele>433.00000000000006</ele><time>2026-04-30T13:08:35.999Z</time></trkpt><trkpt lat="44.4533033602984" lon="9.086758479801103"><ele>433.0</ele><time>2026-04-30T13:08:36.999Z</time></trkpt><trkpt lat="44.45335722098879" lon="9.086821357549269"><ele>433.0</ele><time>2026-04-30T13:08:37.999Z</time></trkpt><trkpt lat="44.45342318030476" lon="9.086878869214509"><ele>433.0</ele><time>2026-04-30T13:08:38.999Z</time></trkpt><trkpt lat="44.45350507491211" lon="9.086935107199626"><ele>433.00000000000006</ele><time>2026-04-30T13:08:39.999Z</time></trkpt><trkpt lat="44.45360895442875" lon="9.087014653881628"><ele>433.0</ele><time>2026-04-30T13:08:40.999Z</time></trkpt><trkpt lat="44.453724983382266" lon="9.087003493813093"><ele>434.5</ele><time>2026-04-30T13:08:41.999Z</time></trkpt><trkpt lat="44.45384623629047" lon="9.086954425400087"><ele>436.0</ele><time>2026-04-30T13:08:42.999Z</time></trkpt><trkpt lat="44.453950326419715" lon="9.086858248998272"><ele>437.5</ele><time>2026-04-30T13:08:43.999Z</time></trkpt><trkpt lat="44.45404495771036" lon="9.08675214231142"><ele>439.0</ele><time>2026-04-30T13:08:44.999Z</time></trkpt><trkpt lat="44.45413261340901" lon="9.0866535754929"><ele>434.2</ele><time>2026-04-30T13:08:45.999Z</time></trkpt><trkpt lat="44.454206713562655" lon="9.086592727699012"><ele>429.4</ele><time>2026-04-30T13:08:46.999Z</time></trkpt><trkpt lat="44.45429271604875" lon="9.086546672320187"><ele>424.6</ele><time>2026-04-30T13:08:47.999Z</time></trkpt><trkpt lat="44.454414693685365" lon="9.086539965314898"><ele>419.8</ele><time>2026-04-30T13:08:48.999Z</time></trkpt><trkpt lat="44.45455347481444" lon="9.086537906181016"><ele>415.0</ele><time>2026-04-30T13:08:49.999Z</time></trkpt><trkpt lat="44.45469750614617" lon="9.086558801447458"><ele>415.0</ele><time>2026-04-30T13:08:50.999Z</time></trkpt><trkpt lat="44.45484634097585" lon="9.086576411220026"><ele>415.0</ele><time>2026-04-30T13:08:51.999Z</time></trkpt><trkpt lat="44.454995478209895" lon="9.086581165472714"><ele>415.0</ele><time>2026-04-30T13:08:52.998Z</time></trkpt><trkpt lat="44.45514734662026" lon="9.086591802394574"><ele>425.0</ele><time>2026-04-30T13:08:53.998Z</time></trkpt><trkpt lat="44.455302406101836" lon="9.086611282094864"><ele>435.0</ele><time>2026-04-30T13:08:54.998Z</time></trkpt><trkpt lat="44.45546068860772" lon="9.086624752954906"><ele>445.0</ele><time>2026-04-30T13:08:55.998Z</time></trkpt><trkpt lat="44.45563637369675" lon="9.0866358698761"><ele>448.0</ele><time>2026-04-30T13:08:56.998Z</time></trkpt><trkpt lat="44.45582670573793" lon="9.086651616441666"><ele>451.0</ele><time>2026-04-30T13:08:57.998Z</time></trkpt><trkpt lat="44.45600660482406" lon="9.086677796637465"><ele>454.0</ele><time>2026-04-30T13:08:58.998Z</time></trkpt><trkpt lat="44.45617626539723" lon="9.086656650428148"><ele>451.0</ele><time>2026-04-30T13:08:59.998Z</time></trkpt><trkpt lat="44.45634257954994" lon="9.086694024006626"><ele>448.0</ele><time>2026-04-30T13:09:00.998Z</time></trkpt><trkpt lat="44.45649225752588" lon="9.086759181022302"><ele>445.0</ele><time>2026-04-30T13:09:01.998Z</time></trkpt><trkpt lat="44.45663662975827" lon="9.086880489742223"><ele>445.0</ele><time>2026-04-30T13:09:02.998Z</time></trkpt><trkpt lat="44.45675805462635" lon="9.087046388539793"><ele>445.0</ele><time>2026-04-30T13:09:03.998Z</time></trkpt><trkpt lat="44.45686011930061" lon="9.087239018771978"><ele>445.0</ele><time>2026-04-30T13:09:04.998Z</time></trkpt><trkpt lat="44.456942352234755" lon="9.087441345403484"><ele>446.5</ele><time>2026-04-30T13:09:05.998Z</time></trkpt><trkpt lat="44.45701440420731" lon="9.087626676944875"><ele>448.0</ele><time>2026-04-30T13:09:06.998Z</time></trkpt><trkpt lat="44.45706899111546" lon="9.087807832587615"><ele>449.5</ele><time>2026-04-30T13:09:07.998Z</time></trkpt><trkpt lat="44.45714985879134" lon="9.087958715011135"><ele>451.0</ele><time>2026-04-30T13:09:08.998Z</time></trkpt><trkpt lat="44.45729329057575" lon="9.088079295277993"><ele>451.0</ele><time>2026-04-30T13:09:09.998Z</time></trkpt><trkpt lat="44.45746282713101" lon="9.088169324065428"><ele>451.0</ele><time>2026-04-30T13:09:10.998Z</time></trkpt><trkpt lat="44.457640129681145" lon="9.088235675064725"><ele>451.0</ele><time>2026-04-30T13:09:11.998Z</time></trkpt><trkpt lat="44.457840089219445" lon="9.088312221654492"><ele>455.6666666666667</ele><time>2026-04-30T13:09:12.998Z</time></trkpt><trkpt lat="44.458029984408526" lon="9.08836265126386"><ele>460.33333333333337</ele><time>2026-04-30T13:09:13.998Z</time></trkpt><trkpt lat="44.45821053741948" lon="9.088431207672722"><ele>465.0</ele><time>2026-04-30T13:09:14.998Z</time></trkpt><trkpt lat="44.458383982574986" lon="9.088490206734324"><ele>465.0</ele><time>2026-04-30T13:09:15.998Z</time></trkpt><trkpt lat="44.45852926951455" lon="9.088568286187645"><ele>465.0</ele><time>2026-04-30T13:09:16.998Z</time></trkpt><trkpt lat="44.45864784655356" lon="9.088666615290549"><ele>465.0</ele><time>2026-04-30T13:09:17.998Z</time></trkpt><trkpt lat="44.458726693373386" lon="9.088812861076757"><ele>465.0</ele><time>2026-04-30T13:09:18.998Z</time></trkpt><trkpt lat="44.458753365100755" lon="9.08894230005637"><ele>470.75</ele><time>2026-04-30T13:09:19.998Z</time></trkpt><trkpt lat="44.45877523281775" lon="9.089115778775795"><ele>476.5</ele><time>2026-04-30T13:09:20.998Z</time></trkpt><trkpt lat="44.45876644697797" lon="9.089278190134534"><ele>482.25</ele><time>2026-04-30T13:09:21.998Z</time></trkpt><trkpt lat="44.45873255974106" lon="9.08944541229507"><ele>488.0</ele><time>2026-04-30T13:09:22.998Z</time></trkpt><trkpt lat="44.45866684209877" lon="9.089695518993"><ele>490.0</ele><time>2026-04-30T13:09:23.998Z</time></trkpt><trkpt lat="44.45865471415729" lon="9.089947740440335"><ele>492.0</ele><time>2026-04-30T13:09:24.998Z</time></trkpt><trkpt lat="44.458689067073" lon="9.09018092492643"><ele>494.0</ele><time>2026-04-30T13:09:25.998Z</time></trkpt><trkpt lat="44.45874142866204" lon="9.090433214918505"><ele>486.66666666666663</ele><time>2026-04-30T13:09:26.998Z</time></trkpt><trkpt lat="44.45879171190922" lon="9.090679228950329"><ele>479.33333333333337</ele><time>2026-04-30T13:09:27.998Z</time></trkpt><trkpt lat="44.45884298559894" lon="9.09092917760166"><ele>472.0</ele><time>2026-04-30T13:09:28.998Z</time></trkpt><trkpt lat="44.45889270990904" lon="9.091169054525208"><ele>472.0</ele><time>2026-04-30T13:09:29.998Z</time></trkpt><trkpt lat="44.45894142498827" lon="9.09140448659545"><ele>472.0</ele><time>2026-04-30T13:09:30.998Z</time></trkpt><trkpt lat="44.458977588748496" lon="9.091595013452677"><ele>472.0</ele><time>2026-04-30T13:09:31.998Z</time></trkpt><trkpt lat="44.45899141631055" lon="9.091781820068956"><ele>475.5</ele><time>2026-04-30T13:09:32.998Z</time></trkpt><trkpt lat="44.45897715562567" lon="9.091995525796237"><ele>479.0</ele><time>2026-04-30T13:09:33.998Z</time></trkpt><trkpt lat="44.45893221851692" lon="9.092179656881859"><ele>482.5</ele><time>2026-04-30T13:09:34.998Z</time></trkpt><trkpt lat="44.45885684288446" lon="9.092364013830373"><ele>486.0</ele><time>2026-04-30T13:09:35.998Z</time></trkpt><trkpt lat="44.458760789248004" lon="9.0925590613522"><ele>498.0</ele><time>2026-04-30T13:09:36.998Z</time></trkpt><trkpt lat="44.45866775604081" lon="9.092743651796978"><ele>510.0</ele><time>2026-04-30T13:09:37.998Z</time></trkpt><trkpt lat="44.45857627026803" lon="9.092934747308078"><ele>522.0</ele><time>2026-04-30T13:09:38.998Z</time></trkpt><trkpt lat="44.458530894377766" lon="9.093137963066743"><ele>522.5</ele><time>2026-04-30T13:09:39.998Z</time></trkpt><trkpt lat="44.458515522020086" lon="9.093329105481557"><ele>523.0</ele><time>2026-04-30T13:09:40.998Z</time></trkpt><trkpt lat="44.458534049715674" lon="9.093513838783926"><ele>523.5</ele><time>2026-04-30T13:09:41.998Z</time></trkpt><trkpt lat="44.45862188465568" lon="9.093665621252578"><ele>524.0</ele><time>2026-04-30T13:09:42.998Z</time></trkpt><trkpt lat="44.45872696408884" lon="9.09379087515026"><ele>517.3333333333333</ele><time>2026-04-30T13:09:43.998Z</time></trkpt><trkpt lat="44.45885713736045" lon="9.093912531994784"><ele>510.66666666666663</ele><time>2026-04-30T13:09:44.998Z</time></trkpt><trkpt lat="44.45902509730687" lon="9.094009064213122"><ele>504.0</ele><time>2026-04-30T13:09:45.998Z</time></trkpt><trkpt lat="44.459153558212584" lon="9.094122124796533"><ele>504.0</ele><time>2026-04-30T13:09:46.998Z</time></trkpt><trkpt lat="44.459293753872856" lon="9.09420237374363"><ele>504.0</ele><time>2026-04-30T13:09:47.997Z</time></trkpt><trkpt lat="44.45942875686737" lon="9.094264327399543"><ele>504.0</ele><time>2026-04-30T13:09:48.997Z</time></trkpt><trkpt lat="44.4595850390996" lon="9.0943115327124"><ele>503.5</ele><time>2026-04-30T13:09:49.997Z</time></trkpt><trkpt lat="44.45974795494618" lon="9.094326445217241"><ele>503.0</ele><time>2026-04-30T13:09:50.997Z</time></trkpt><trkpt lat="44.45989762261083" lon="9.094324461213498"><ele>502.5</ele><time>2026-04-30T13:09:51.997Z</time></trkpt><trkpt lat="44.459993179499826" lon="9.09441505110487"><ele>502.0</ele><time>2026-04-30T13:09:52.997Z</time></trkpt><trkpt lat="44.460092117908644" lon="9.094529339935098"><ele>502.0</ele><time>2026-04-30T13:09:53.997Z</time></trkpt><trkpt lat="44.46019863081489" lon="9.094689585155292"><ele>502.0</ele><time>2026-04-30T13:09:54.997Z</time></trkpt><trkpt lat="44.46030983312596" lon="9.094866392579963"><ele>502.0</ele><time>2026-04-30T13:09:55.997Z</time></trkpt><trkpt lat="44.460421626381454" lon="9.095042103477178"><ele>502.33333333333337</ele><time>2026-04-30T13:09:56.997Z</time></trkpt><trkpt lat="44.460533517151674" lon="9.095217967769457"><ele>502.66666666666663</ele><time>2026-04-30T13:09:57.997Z</time></trkpt><trkpt lat="44.460660614360634" lon="9.095391705806856"><ele>503.0</ele><time>2026-04-30T13:09:58.997Z</time></trkpt><trkpt lat="44.46075229116406" lon="9.095558679649121"><ele>509.66666666666663</ele><time>2026-04-30T13:09:59.997Z</time></trkpt><trkpt lat="44.460870891890686" lon="9.095753694217068"><ele>516.3333333333334</ele><time>2026-04-30T13:10:00.997Z</time></trkpt><trkpt lat="44.46095047493481" lon="9.095929775411959"><ele>523.0</ele><time>2026-04-30T13:10:01.997Z</time></trkpt><trkpt lat="44.46100647532578" lon="9.096108178895804"><ele>523.0</ele><time>2026-04-30T13:10:02.997Z</time></trkpt><trkpt lat="44.46104171298058" lon="9.09628965398921"><ele>523.0</ele><time>2026-04-30T13:10:03.997Z</time></trkpt><trkpt lat="44.46105464131685" lon="9.09647343858147"><ele>523.0</ele><time>2026-04-30T13:10:04.997Z</time></trkpt><trkpt lat="44.46104349730437" lon="9.096644015509208"><ele>523.0</ele><time>2026-04-30T13:10:05.997Z</time></trkpt><trkpt lat="44.461008070103006" lon="9.096871293333992"><ele>528.0</ele><time>2026-04-30T13:10:06.997Z</time></trkpt><trkpt lat="44.46095920928653" lon="9.097140428909906"><ele>533.0</ele><time>2026-04-30T13:10:07.997Z</time></trkpt><trkpt lat="44.460917360897646" lon="9.097370640053084"><ele>538.0</ele><time>2026-04-30T13:10:08.997Z</time></trkpt><trkpt lat="44.46088156121168" lon="9.09758716929858"><ele>538.0</ele><time>2026-04-30T13:10:09.997Z</time></trkpt><trkpt lat="44.46081439193196" lon="9.097786140070728"><ele>538.0</ele><time>2026-04-30T13:10:10.997Z</time></trkpt><trkpt lat="44.46078084721119" lon="9.098015605761006"><ele>538.0</ele><time>2026-04-30T13:10:11.997Z</time></trkpt><trkpt lat="44.46079976779862" lon="9.098259083509868"><ele>541.6666666666667</ele><time>2026-04-30T13:10:12.997Z</time></trkpt><trkpt lat="44.46087026964005" lon="9.098463552321553"><ele>545.3333333333334</ele><time>2026-04-30T13:10:13.997Z</time></trkpt><trkpt lat="44.460964918075355" lon="9.098640697316918"><ele>549.0</ele><time>2026-04-30T13:10:14.997Z</time></trkpt><trkpt lat="44.46107134289583" lon="9.09880479174462"><ele>549.0</ele><time>2026-04-30T13:10:15.997Z</time></trkpt><trkpt lat="44.46119909837603" lon="9.098897389556097"><ele>549.0</ele><time>2026-04-30T13:10:16.997Z</time></trkpt><trkpt lat="44.46136128061359" lon="9.09897559021094"><ele>549.0</ele><time>2026-04-30T13:10:17.997Z</time></trkpt><trkpt lat="44.46151237810919" lon="9.09904368863241"><ele>547.5</ele><time>2026-04-30T13:10:18.997Z</time></trkpt><trkpt lat="44.46164164855847" lon="9.09916919719773"><ele>546.0</ele><time>2026-04-30T13:10:19.997Z</time></trkpt><trkpt lat="44.46172987719045" lon="9.099353768623988"><ele>544.5</ele><time>2026-04-30T13:10:20.997Z</time></trkpt><trkpt lat="44.461737651942975" lon="9.099505861397065"><ele>543.0</ele><time>2026-04-30T13:10:21.997Z</time></trkpt><trkpt lat="44.46173693328657" lon="9.099699470038026"><ele>548.3333333333334</ele><time>2026-04-30T13:10:22.997Z</time></trkpt><trkpt lat="44.461736078122954" lon="9.099924148183892"><ele>553.6666666666667</ele><time>2026-04-30T13:10:23.997Z</time></trkpt><trkpt lat="44.46175672679858" lon="9.100155174568066"><ele>559.0</ele><time>2026-04-30T13:10:24.997Z</time></trkpt><trkpt lat="44.46182074601618" lon="9.100365140534901"><ele>559.0</ele><time>2026-04-30T13:10:25.997Z</time></trkpt><trkpt lat="44.46191502023242" lon="9.100519596939382"><ele>559.0</ele><time>2026-04-30T13:10:26.997Z</time></trkpt><trkpt lat="44.462035612656116" lon="9.10065358402538"><ele>559.0</ele><time>2026-04-30T13:10:27.997Z</time></trkpt><trkpt lat="44.462184910353905" lon="9.100750922395907"><ele>558.0</ele><time>2026-04-30T13:10:28.997Z</time></trkpt><trkpt lat="44.4623204771818" lon="9.100858940330788"><ele>557.0</ele><time>2026-04-30T13:10:29.997Z</time></trkpt><trkpt lat="44.46245845400872" lon="9.100988454287188"><ele>556.0</ele><time>2026-04-30T13:10:30.997Z</time></trkpt><trkpt lat="44.46261033017389" lon="9.10110945147872"><ele>556.0</ele><time>2026-04-30T13:10:31.997Z</time></trkpt><trkpt lat="44.462777680678656" lon="9.101197703218892"><ele>556.0</ele><time>2026-04-30T13:10:32.997Z</time></trkpt><trkpt lat="44.46292254751018" lon="9.101305194068194"><ele>556.0</ele><time>2026-04-30T13:10:33.997Z</time></trkpt><trkpt lat="44.463070872732644" lon="9.10143099762529"><ele>556.6666666666667</ele><time>2026-04-30T13:10:34.997Z</time></trkpt><trkpt lat="44.46322300223859" lon="9.101551379672701"><ele>557.3333333333334</ele><time>2026-04-30T13:10:35.997Z</time></trkpt><trkpt lat="44.46337503202969" lon="9.101642766848546"><ele>558.0</ele><time>2026-04-30T13:10:36.997Z</time></trkpt><trkpt lat="44.46350988854792" lon="9.101717584655674"><ele>558.0</ele><time>2026-04-30T13:10:37.997Z</time></trkpt><trkpt lat="44.4636419076224" lon="9.101821899077233"><ele>558.0</ele><time>2026-04-30T13:10:38.997Z</time></trkpt><trkpt lat="44.46378599673549" lon="9.101946672734138"><ele>558.0</ele><time>2026-04-30T13:10:39.997Z</time></trkpt><trkpt lat="44.46394380139657" lon="9.102039803778855"><ele>554.6666666666666</ele><time>2026-04-30T13:10:40.997Z</time></trkpt><trkpt lat="44.46409053621805" lon="9.102161547241824"><ele>551.3333333333333</ele><time>2026-04-30T13:10:41.996Z</time></trkpt><trkpt lat="44.464243830533704" lon="9.102291487276862"><ele>548.0</ele><time>2026-04-30T13:10:42.996Z</time></trkpt><trkpt lat="44.464399660497584" lon="9.102415457554274"><ele>552.0</ele><time>2026-04-30T13:10:43.996Z</time></trkpt><trkpt lat="44.4645668386018" lon="9.1025364230197"><ele>556.0</ele><time>2026-04-30T13:10:44.996Z</time></trkpt><trkpt lat="44.46472940554887" lon="9.102659767298883"><ele>560.0</ele><time>2026-04-30T13:10:45.996Z</time></trkpt><trkpt lat="44.464881328253426" lon="9.102775486770286"><ele>560.0</ele><time>2026-04-30T13:10:46.996Z</time></trkpt><trkpt lat="44.46504530168047" lon="9.102899134481214"><ele>560.0</ele><time>2026-04-30T13:10:47.996Z</time></trkpt><trkpt lat="44.46519999018098" lon="9.103006581161367"><ele>560.0</ele><time>2026-04-30T13:10:48.996Z</time></trkpt><trkpt lat="44.46535191952576" lon="9.10312719641469"><ele>559.0</ele><time>2026-04-30T13:10:49.996Z</time></trkpt><trkpt lat="44.465494089661114" lon="9.103240620780923"><ele>558.0</ele><time>2026-04-30T13:10:50.996Z</time></trkpt><trkpt lat="44.46563174597917" lon="9.103360519482951"><ele>557.0</ele><time>2026-04-30T13:10:51.997Z</time></trkpt><trkpt lat="44.465738080808144" lon="9.103490449721114"><ele>557.0</ele><time>2026-04-30T13:10:52.997Z</time></trkpt><trkpt lat="44.46582552524478" lon="9.10364488628194"><ele>557.0</ele><time>2026-04-30T13:10:53.997Z</time></trkpt><trkpt lat="44.465880979889995" lon="9.10380277321298"><ele>557.0</ele><time>2026-04-30T13:10:54.997Z</time></trkpt><trkpt lat="44.46592064556735" lon="9.103980039854987"><ele>557.0</ele><time>2026-04-30T13:10:55.997Z</time></trkpt><trkpt lat="44.465936805203995" lon="9.104151683594527"><ele>560.5</ele><time>2026-04-30T13:10:56.997Z</time></trkpt><trkpt lat="44.46592687835986" lon="9.104334508933187"><ele>564.0</ele><time>2026-04-30T13:10:57.997Z</time></trkpt><trkpt lat="44.46589503179064" lon="9.104530872796618"><ele>567.5</ele><time>2026-04-30T13:10:58.997Z</time></trkpt><trkpt lat="44.46583980782783" lon="9.104708353761074"><ele>571.0</ele><time>2026-04-30T13:10:59.997Z</time></trkpt><trkpt lat="44.46574303002898" lon="9.104897301819465"><ele>569.0</ele><time>2026-04-30T13:11:00.997Z</time></trkpt><trkpt lat="44.46563475842795" lon="9.105116816017043"><ele>567.0</ele><time>2026-04-30T13:11:01.997Z</time></trkpt><trkpt lat="44.46551378291008" lon="9.10531501030037"><ele>565.0</ele><time>2026-04-30T13:11:02.997Z</time></trkpt><trkpt lat="44.46541237035633" lon="9.105514517117502"><ele>576.6666666666667</ele><time>2026-04-30T13:11:03.997Z</time></trkpt><trkpt lat="44.46530784484753" lon="9.105701557395557"><ele>588.3333333333334</ele><time>2026-04-30T13:11:04.997Z</time></trkpt><trkpt lat="44.465198686531444" lon="9.105904105049882"><ele>600.0</ele><time>2026-04-30T13:11:05.997Z</time></trkpt><trkpt lat="44.465155275600424" lon="9.106053943668893"><ele>600.0</ele><time>2026-04-30T13:11:06.997Z</time></trkpt><trkpt lat="44.4651600733786" lon="9.106228225428298"><ele>600.0</ele><time>2026-04-30T13:11:07.997Z</time></trkpt><trkpt lat="44.46522600209494" lon="9.106440347381149"><ele>600.0</ele><time>2026-04-30T13:11:08.997Z</time></trkpt><trkpt lat="44.4653235593555" lon="9.106601619184701"><ele>600.0</ele><time>2026-04-30T13:11:09.997Z</time></trkpt><trkpt lat="44.4654516766498" lon="9.106747341018583"><ele>590.0</ele><time>2026-04-30T13:11:10.997Z</time></trkpt><trkpt lat="44.465592971250246" lon="9.106876142052627"><ele>580.0</ele><time>2026-04-30T13:11:11.997Z</time></trkpt><trkpt lat="44.46576101078393" lon="9.106952661455152"><ele>570.0</ele><time>2026-04-30T13:11:12.997Z</time></trkpt><trkpt lat="44.46593528854332" lon="9.107010130626493"><ele>570.0</ele><time>2026-04-30T13:11:13.997Z</time></trkpt><trkpt lat="44.46610223815762" lon="9.107051870355319"><ele>570.0</ele><time>2026-04-30T13:11:14.997Z</time></trkpt><trkpt lat="44.466248269963664" lon="9.107092670416947"><ele>570.0</ele><time>2026-04-30T13:11:15.997Z</time></trkpt><trkpt lat="44.466357988549234" lon="9.1072050261424"><ele>569.25</ele><time>2026-04-30T13:11:16.997Z</time></trkpt><trkpt lat="44.466423584332645" lon="9.107343805016077"><ele>568.5</ele><time>2026-04-30T13:11:17.997Z</time></trkpt><trkpt lat="44.46645547564071" lon="9.107471522079404"><ele>567.75</ele><time>2026-04-30T13:11:18.997Z</time></trkpt><trkpt lat="44.466464315608334" lon="9.107655247912156"><ele>567.0</ele><time>2026-04-30T13:11:19.997Z</time></trkpt><trkpt lat="44.46645394889878" lon="9.107827650873055"><ele>567.0</ele><time>2026-04-30T13:11:20.997Z</time></trkpt><trkpt lat="44.466429021237474" lon="9.108110000592163"><ele>567.0</ele><time>2026-04-30T13:11:21.997Z</time></trkpt><trkpt lat="44.46639547474837" lon="9.108345643851951"><ele>567.0</ele><time>2026-04-30T13:11:22.997Z</time></trkpt><trkpt lat="44.46633576813769" lon="9.108511545270387"><ele>577.0</ele><time>2026-04-30T13:11:23.997Z</time></trkpt><trkpt lat="44.46625737538674" lon="9.108683982597235"><ele>587.0</ele><time>2026-04-30T13:11:24.997Z</time></trkpt><trkpt lat="44.46615682031813" lon="9.108899989066293"><ele>597.0</ele><time>2026-04-30T13:11:25.997Z</time></trkpt><trkpt lat="44.46606458907077" lon="9.109119678218041"><ele>597.0</ele><time>2026-04-30T13:11:26.997Z</time></trkpt><trkpt lat="44.46599415852345" lon="9.109365316041362"><ele>597.0</ele><time>2026-04-30T13:11:27.997Z</time></trkpt><trkpt lat="44.46597487440846" lon="9.109604703318565"><ele>597.0</ele><time>2026-04-30T13:11:28.997Z</time></trkpt><trkpt lat="44.46596309766126" lon="9.109828692934693"><ele>597.3333333333334</ele><time>2026-04-30T13:11:29.997Z</time></trkpt><trkpt lat="44.46599546650532" lon="9.110079822138895"><ele>597.6666666666667</ele><time>2026-04-30T13:11:30.997Z</time></trkpt><trkpt lat="44.4660713719163" lon="9.110320743379079"><ele>598.0</ele><time>2026-04-30T13:11:31.997Z</time></trkpt><trkpt lat="44.4661398915672" lon="9.110548964252493"><ele>603.0</ele><time>2026-04-30T13:11:32.997Z</time></trkpt><trkpt lat="44.46620494439286" lon="9.110794063219574"><ele>608.0</ele><time>2026-04-30T13:11:33.997Z</time></trkpt><trkpt lat="44.46625049835843" lon="9.111044290786348"><ele>613.0</ele><time>2026-04-30T13:11:34.997Z</time></trkpt><trkpt lat="44.46631188424055" lon="9.111278785498445"><ele>604.3333333333334</ele><time>2026-04-30T13:11:35.996Z</time></trkpt><trkpt lat="44.46637779486096" lon="9.111504252155761"><ele>595.6666666666666</ele><time>2026-04-30T13:11:36.996Z</time></trkpt><trkpt lat="44.46642346601647" lon="9.111730864532593"><ele>587.0</ele><time>2026-04-30T13:11:37.996Z</time></trkpt><trkpt lat="44.46648473854077" lon="9.111962661154255"><ele>587.0</ele><time>2026-04-30T13:11:38.996Z</time></trkpt><trkpt lat="44.4665679760875" lon="9.112200134757988"><ele>587.0</ele><time>2026-04-30T13:11:39.996Z</time></trkpt><trkpt lat="44.46666621537782" lon="9.112401755668863"><ele>587.0</ele><time>2026-04-30T13:11:40.996Z</time></trkpt><trkpt lat="44.46675222421229" lon="9.11259071387305"><ele>590.3333333333333</ele><time>2026-04-30T13:11:41.996Z</time></trkpt><trkpt lat="44.46685338787284" lon="9.112793973350973"><ele>593.6666666666666</ele><time>2026-04-30T13:11:42.996Z</time></trkpt><trkpt lat="44.46695464757398" lon="9.113008894916133"><ele>597.0</ele><time>2026-04-30T13:11:43.996Z</time></trkpt><trkpt lat="44.467053101809675" lon="9.113211211834859"><ele>593.3333333333334</ele><time>2026-04-30T13:11:44.996Z</time></trkpt><trkpt lat="44.46715508901748" lon="9.113421617964935"><ele>589.6666666666667</ele><time>2026-04-30T13:11:45.996Z</time></trkpt><trkpt lat="44.46725423649866" lon="9.113627995603485"><ele>586.0</ele><time>2026-04-30T13:11:46.996Z</time></trkpt><trkpt lat="44.4673493252345" lon="9.113825924826328"><ele>586.0</ele><time>2026-04-30T13:11:47.996Z</time></trkpt><trkpt lat="44.467439558964664" lon="9.114013195918764"><ele>586.0</ele><time>2026-04-30T13:11:48.996Z</time></trkpt><trkpt lat="44.46753027038048" lon="9.114200979467176"><ele>586.0</ele><time>2026-04-30T13:11:49.996Z</time></trkpt><trkpt lat="44.46761358556518" lon="9.114373220987176"><ele>589.0</ele><time>2026-04-30T13:11:50.996Z</time></trkpt><trkpt lat="44.46769613465006" lon="9.11454599783118"><ele>592.0</ele><time>2026-04-30T13:11:51.996Z</time></trkpt><trkpt lat="44.46775050856146" lon="9.114660658511873"><ele>595.0</ele><time>2026-04-30T13:11:52.996Z</time></trkpt><trkpt lat="44.467786589639665" lon="9.114809065646934"><ele>598.0</ele><time>2026-04-30T13:11:53.996Z</time></trkpt><trkpt lat="44.46780280538427" lon="9.11494706039787"><ele>597.25</ele><time>2026-04-30T13:11:54.996Z</time></trkpt><trkpt lat="44.46782731404977" lon="9.115160234204208"><ele>596.5</ele><time>2026-04-30T13:11:55.996Z</time></trkpt><trkpt lat="44.467880526684304" lon="9.115354493947057"><ele>595.75</ele><time>2026-04-30T13:11:56.996Z</time></trkpt><trkpt lat="44.46797280034771" lon="9.115510608286877"><ele>595.0</ele><time>2026-04-30T13:11:57.996Z</time></trkpt><trkpt lat="44.468077473659946" lon="9.115620963729459"><ele>595.0</ele><time>2026-04-30T13:11:58.996Z</time></trkpt><trkpt lat="44.46821052414357" lon="9.115680596051225"><ele>595.0</ele><time>2026-04-30T13:11:59.996Z</time></trkpt><trkpt lat="44.46833160189375" lon="9.115753190650477"><ele>595.0</ele><time>2026-04-30T13:12:00.996Z</time></trkpt><trkpt lat="44.46845577155039" lon="9.115765847852819"><ele>595.0</ele><time>2026-04-30T13:12:01.996Z</time></trkpt><trkpt lat="44.46857725820087" lon="9.115831598828356"><ele>600.25</ele><time>2026-04-30T13:12:02.996Z</time></trkpt><trkpt lat="44.46870151714732" lon="9.115881914572205"><ele>605.5</ele><time>2026-04-30T13:12:03.996Z</time></trkpt><trkpt lat="44.46883054991872" lon="9.115917754376213"><ele>610.75</ele><time>2026-04-30T13:12:04.996Z</time></trkpt><trkpt lat="44.468961999021516" lon="9.11600394999382"><ele>616.0</ele><time>2026-04-30T13:12:05.996Z</time></trkpt><trkpt lat="44.46910080307253" lon="9.116088280401797"><ele>616.0</ele><time>2026-04-30T13:12:06.996Z</time></trkpt><trkpt lat="44.46921587424054" lon="9.116156094940418"><ele>616.0</ele><time>2026-04-30T13:12:07.996Z</time></trkpt><trkpt lat="44.46931592116137" lon="9.116222298407287"><ele>616.0</ele><time>2026-04-30T13:12:08.996Z</time></trkpt><trkpt lat="44.469396769744286" lon="9.116259330259384"><ele>616.0</ele><time>2026-04-30T13:12:09.996Z</time></trkpt><trkpt lat="44.469456629363386" lon="9.116319061047797"><ele>616.0</ele><time>2026-04-30T13:12:10.996Z</time></trkpt><trkpt lat="44.4695623100931" lon="9.116381792277348"><ele>616.2</ele><time>2026-04-30T13:12:12.996Z</time></trkpt><trkpt lat="44.46964641386533" lon="9.116408989387757"><ele>616.4000000000001</ele><time>2026-04-30T13:12:14.996Z</time></trkpt><trkpt lat="44.4697207372535" lon="9.116457887902245"><ele>616.6</ele><time>2026-04-30T13:13:16.995Z</time></trkpt><trkpt lat="44.4698504832646" lon="9.116485212672467"><ele>616.8000000000001</ele><time>2026-04-30T13:13:18.995Z</time></trkpt><trkpt lat="44.46992606174284" lon="9.116502803167325"><ele>617.0</ele><time>2026-04-30T13:13:19.995Z</time></trkpt><trkpt lat="44.47001344758089" lon="9.116523392006679"><ele>617.0</ele><time>2026-04-30T13:13:20.995Z</time></trkpt><trkpt lat="44.470110397411425" lon="9.116548377230037"><ele>617.0</ele><time>2026-04-30T13:13:21.995Z</time></trkpt><trkpt lat="44.470198605084384" lon="9.116571109485626"><ele>617.0</ele><time>2026-04-30T13:13:22.995Z</time></trkpt><trkpt lat="44.470307169269155" lon="9.116588987492392"><ele>617.0</ele><time>2026-04-30T13:13:23.995Z</time></trkpt><trkpt lat="44.470424455049894" lon="9.116640512568258"><ele>617.0</ele><time>2026-04-30T13:13:24.995Z</time></trkpt><trkpt lat="44.47055317440246" lon="9.116694595360041"><ele>624.3333333333333</ele><time>2026-04-30T13:13:25.994Z</time></trkpt><trkpt lat="44.47070512462857" lon="9.116770400170228"><ele>631.6666666666666</ele><time>2026-04-30T13:13:26.994Z</time></trkpt><trkpt lat="44.47086065728411" lon="9.116858026193809"><ele>639.0</ele><time>2026-04-30T13:13:27.994Z</time></trkpt><trkpt lat="44.471019896181055" lon="9.116948322768742"><ele>639.0</ele><time>2026-04-30T13:13:28.994Z</time></trkpt><trkpt lat="44.47118444478898" lon="9.117024181136234"><ele>639.0</ele><time>2026-04-30T13:13:29.994Z</time></trkpt><trkpt lat="44.47134043372607" lon="9.117128473898601"><ele>639.0</ele><time>2026-04-30T13:13:30.994Z</time></trkpt><trkpt lat="44.47150218167652" lon="9.117213898731322"><ele>650.3333333333334</ele><time>2026-04-30T13:13:31.994Z</time></trkpt><trkpt lat="44.47166527721548" lon="9.117294271948511"><ele>661.6666666666667</ele><time>2026-04-30T13:13:32.994Z</time></trkpt><trkpt lat="44.471827165205625" lon="9.11737922725557"><ele>673.0</ele><time>2026-04-30T13:13:33.994Z</time></trkpt><trkpt lat="44.47236132693929" lon="9.117704724062555"><ele>687.0</ele><time>2026-04-30T13:13:37.329Z</time></trkpt><trkpt lat="44.472523955432266" lon="9.117796220763584"><ele>701.0</ele><time>2026-04-30T13:13:38.331Z</time></trkpt><trkpt lat="44.47268608742386" lon="9.11788743804556"><ele>715.0</ele><time>2026-04-30T13:13:39.33Z</time></trkpt><trkpt lat="44.47284859303674" lon="9.117978865681383"><ele>721.6666666666667</ele><time>2026-04-30T13:13:40.332Z</time></trkpt><trkpt lat="44.473010835482874" lon="9.118070238275939"><ele>728.3333333333334</ele><time>2026-04-30T13:13:41.332Z</time></trkpt><trkpt lat="44.47317247882823" lon="9.118161762013274"><ele>735.0</ele><time>2026-04-30T13:13:42.328Z</time></trkpt><trkpt lat="44.47333513923988" lon="9.1182538616727"><ele>736.3333333333334</ele><time>2026-04-30T13:13:43.331Z</time></trkpt><trkpt lat="44.473503274629195" lon="9.118323975620028"><ele>737.6666666666667</ele><time>2026-04-30T13:13:44.33Z</time></trkpt><trkpt lat="44.47366549248997" lon="9.118415824698983"><ele>739.0</ele><time>2026-04-30T13:13:45.33Z</time></trkpt><trkpt lat="44.47382114518028" lon="9.118529042224996"><ele>732.3333333333334</ele><time>2026-04-30T13:13:46.328Z</time></trkpt><trkpt lat="44.47398309257645" lon="9.118620738164887"><ele>725.6666666666666</ele><time>2026-04-30T13:13:47.327Z</time></trkpt><trkpt lat="44.47415192174961" lon="9.118691322630863"><ele>719.0</ele><time>2026-04-30T13:13:48.33Z</time></trkpt><trkpt lat="44.47430793013082" lon="9.118804925100047"><ele>719.0</ele><time>2026-04-30T13:13:49.331Z</time></trkpt><trkpt lat="44.474476182238845" lon="9.118874644271832"><ele>719.0</ele><time>2026-04-30T13:13:50.329Z</time></trkpt><trkpt lat="44.47463219834792" lon="9.118986881081177"><ele>719.0</ele><time>2026-04-30T13:13:51.327Z</time></trkpt><trkpt lat="44.4748014437962" lon="9.11905642769738"><ele>719.3333333333333</ele><time>2026-04-30T13:13:52.331Z</time></trkpt><trkpt lat="44.47496329260236" lon="9.119147908472856"><ele>719.6666666666666</ele><time>2026-04-30T13:13:53.329Z</time></trkpt><trkpt lat="44.47512562991903" lon="9.11924057985637"><ele>720.0</ele><time>2026-04-30T13:13:54.331Z</time></trkpt><trkpt lat="44.475280628042576" lon="9.11935417833963"><ele>718.0</ele><time>2026-04-30T13:13:55.327Z</time></trkpt><trkpt lat="44.475449368053084" lon="9.119425388016284"><ele>716.0</ele><time>2026-04-30T13:13:56.33Z</time></trkpt><trkpt lat="44.47560495396936" lon="9.119539321998994"><ele>714.0</ele><time>2026-04-30T13:13:57.329Z</time></trkpt><trkpt lat="44.47576692439352" lon="9.119631784035352"><ele>714.0</ele><time>2026-04-30T13:13:58.329Z</time></trkpt><trkpt lat="44.475929093116555" lon="9.119724139794315"><ele>714.0</ele><time>2026-04-30T13:13:59.33Z</time></trkpt><trkpt lat="44.47609074478561" lon="9.119815885075463"><ele>714.0</ele><time>2026-04-30T13:14:00.327Z</time></trkpt><trkpt lat="44.47625960004768" lon="9.119886622637853"><ele>717.3333333333334</ele><time>2026-04-30T13:14:01.33Z</time></trkpt><trkpt lat="44.47641528316284" lon="9.120000076268111"><ele>720.6666666666667</ele><time>2026-04-30T13:14:02.329Z</time></trkpt><trkpt lat="44.4765776875169" lon="9.12009224865293"><ele>724.0</ele><time>2026-04-30T13:14:03.331Z</time></trkpt><trkpt lat="44.476746030708334" lon="9.120162595514097"><ele>724.0</ele><time>2026-04-30T13:14:04.331Z</time></trkpt><trkpt lat="44.47690757873475" lon="9.120254130020676"><ele>724.0</ele><time>2026-04-30T13:14:05.327Z</time></trkpt><trkpt lat="44.4770641172217" lon="9.120367916146682"><ele>724.0</ele><time>2026-04-30T13:14:06.331Z</time></trkpt><trkpt lat="44.47723240347616" lon="9.120438178523703"><ele>725.0</ele><time>2026-04-30T13:14:07.33Z</time></trkpt><trkpt lat="44.47739392863561" lon="9.12052970007366"><ele>726.0</ele><time>2026-04-30T13:14:08.326Z</time></trkpt><trkpt lat="44.477556813596735" lon="9.120621992098988"><ele>727.0</ele><time>2026-04-30T13:14:09.331Z</time></trkpt><trkpt lat="44.4777188939615" lon="9.120713828233072"><ele>731.6666666666667</ele><time>2026-04-30T13:14:10.33Z</time></trkpt><trkpt lat="44.477880606661394" lon="9.120805431336736"><ele>736.3333333333334</ele><time>2026-04-30T13:14:11.328Z</time></trkpt><trkpt lat="44.478043193554505" lon="9.120897779941078"><ele>741.0</ele><time>2026-04-30T13:14:12.331Z</time></trkpt><trkpt lat="44.478199012540536" lon="9.121011383061788"><ele>741.0</ele><time>2026-04-30T13:14:13.331Z</time></trkpt><trkpt lat="44.47836738050597" lon="9.121081846496553"><ele>741.0</ele><time>2026-04-30T13:14:14.331Z</time></trkpt><trkpt lat="44.478523243289835" lon="9.121195374980212"><ele>741.0</ele><time>2026-04-30T13:14:15.331Z</time></trkpt><trkpt lat="44.47868532843781" lon="9.121287339135444"><ele>738.3333333333334</ele><time>2026-04-30T13:14:16.331Z</time></trkpt><trkpt lat="44.47884712351049" lon="9.121379140638917"><ele>735.6666666666667</ele><time>2026-04-30T13:14:17.329Z</time></trkpt><trkpt lat="44.479015700226284" lon="9.12144918964745"><ele>733.0</ele><time>2026-04-30T13:14:18.329Z</time></trkpt><trkpt lat="44.47917167557055" lon="9.121562153317726"><ele>735.3333333333334</ele><time>2026-04-30T13:14:19.329Z</time></trkpt><trkpt lat="44.479334309849925" lon="9.12165379710062"><ele>737.6666666666666</ele><time>2026-04-30T13:14:20.331Z</time></trkpt><trkpt lat="44.47949657057718" lon="9.121745230332513"><ele>740.0</ele><time>2026-04-30T13:14:21.331Z</time></trkpt><trkpt lat="44.47965891169935" lon="9.121836708562265"><ele>733.0</ele><time>2026-04-30T13:14:22.331Z</time></trkpt><trkpt lat="44.47982739404716" lon="9.12190657535699"><ele>726.0</ele><time>2026-04-30T13:14:23.331Z</time></trkpt><trkpt lat="44.47998306909994" lon="9.122019369753836"><ele>719.0</ele><time>2026-04-30T13:14:24.329Z</time></trkpt><trkpt lat="44.48015189703963" lon="9.122089431290643"><ele>719.0</ele><time>2026-04-30T13:14:25.331Z</time></trkpt><trkpt lat="44.48030751417424" lon="9.122202304298309"><ele>719.0</ele><time>2026-04-30T13:14:26.328Z</time></trkpt><trkpt lat="44.48047593692415" lon="9.122272284546575"><ele>719.0</ele><time>2026-04-30T13:14:27.328Z</time></trkpt><trkpt lat="44.48063860356861" lon="9.122364093905183"><ele>716.0</ele><time>2026-04-30T13:14:28.331Z</time></trkpt><trkpt lat="44.48079458431268" lon="9.122477207614459"><ele>713.0</ele><time>2026-04-30T13:14:29.33Z</time></trkpt><trkpt lat="44.48096308150996" lon="9.122547409863403"><ele>710.0</ele><time>2026-04-30T13:14:30.331Z</time></trkpt><trkpt lat="44.48112520866292" lon="9.122639134478709"><ele>699.3333333333333</ele><time>2026-04-30T13:14:31.33Z</time></trkpt><trkpt lat="44.48128115789836" lon="9.12275245025581"><ele>688.6666666666666</ele><time>2026-04-30T13:14:32.331Z</time></trkpt><trkpt lat="44.48144335869678" lon="9.122844216525786"><ele>678.0</ele><time>2026-04-30T13:14:33.331Z</time></trkpt><trkpt lat="44.481611838194404" lon="9.122913354921485"><ele>678.0</ele><time>2026-04-30T13:14:34.329Z</time></trkpt><trkpt lat="44.48177449720384" lon="9.123002671631985"><ele>678.0</ele><time>2026-04-30T13:14:35.328Z</time></trkpt><trkpt lat="44.481937358181405" lon="9.123090995492321"><ele>678.0</ele><time>2026-04-30T13:14:36.327Z</time></trkpt><trkpt lat="44.482100996507995" lon="9.123180181551106"><ele>665.0</ele><time>2026-04-30T13:14:37.33Z</time></trkpt><trkpt lat="44.482256684355576" lon="9.123294012588538"><ele>652.0</ele><time>2026-04-30T13:14:38.33Z</time></trkpt><trkpt lat="44.48267754260707" lon="9.123625132657175"><ele>652.0</ele><time>2026-04-30T13:14:41.993Z</time></trkpt><trkpt lat="44.48280815131998" lon="9.123756212085492"><ele>652.0</ele><time>2026-04-30T13:14:42.993Z</time></trkpt><trkpt lat="44.48313367371431" lon="9.124356626926016"><ele>648.6666666666667</ele><time>2026-04-30T13:14:43.993Z</time></trkpt><trkpt lat="44.48322026283541" lon="9.124532743293843"><ele>645.3333333333334</ele><time>2026-04-30T13:14:44.993Z</time></trkpt><trkpt lat="44.48333483795682" lon="9.124684537635607"><ele>642.0</ele><time>2026-04-30T13:14:45.993Z</time></trkpt><trkpt lat="44.483441119450696" lon="9.12487504942427"><ele>637.3333333333334</ele><time>2026-04-30T13:14:46.993Z</time></trkpt><trkpt lat="44.48357526167312" lon="9.12506807770879"><ele>632.6666666666667</ele><time>2026-04-30T13:14:47.993Z</time></trkpt><trkpt lat="44.483701034386996" lon="9.12526446933927"><ele>628.0</ele><time>2026-04-30T13:14:48.993Z</time></trkpt><trkpt lat="44.48381845917996" lon="9.125458525592563"><ele>628.0</ele><time>2026-04-30T13:14:49.993Z</time></trkpt><trkpt lat="44.48393911001808" lon="9.125669130504022"><ele>628.0</ele><time>2026-04-30T13:14:50.993Z</time></trkpt><trkpt lat="44.4840680279473" lon="9.125884148006504"><ele>628.0</ele><time>2026-04-30T13:14:51.993Z</time></trkpt><trkpt lat="44.48420254393833" lon="9.126096209283864"><ele>629.6666666666667</ele><time>2026-04-30T13:14:53Z</time></trkpt><trkpt lat="44.48433164340706" lon="9.12633491433768"><ele>631.3333333333334</ele><time>2026-04-30T13:14:54Z</time></trkpt><trkpt lat="44.48445201596325" lon="9.126542144760641"><ele>633.0</ele><time>2026-04-30T13:14:55Z</time></trkpt><trkpt lat="44.484565406679984" lon="9.126755367898822"><ele>633.6666666666666</ele><time>2026-04-30T13:14:56Z</time></trkpt><trkpt lat="44.48469449167631" lon="9.12699410999747"><ele>634.3333333333333</ele><time>2026-04-30T13:14:57Z</time></trkpt><trkpt lat="44.48481537208891" lon="9.127200287975619"><ele>635.0</ele><time>2026-04-30T13:14:58Z</time></trkpt><trkpt lat="44.484946527399075" lon="9.127417156132232"><ele>635.0</ele><time>2026-04-30T13:14:59Z</time></trkpt><trkpt lat="44.485067011150264" lon="9.127629903863296"><ele>635.0</ele><time>2026-04-30T13:15:00Z</time></trkpt><trkpt lat="44.48518968380233" lon="9.127842382580635"><ele>635.0</ele><time>2026-04-30T13:15:01Z</time></trkpt><trkpt lat="44.485310352781816" lon="9.128056178036386"><ele>633.6666666666666</ele><time>2026-04-30T13:15:02Z</time></trkpt><trkpt lat="44.48544494580807" lon="9.12825758145487"><ele>632.3333333333334</ele><time>2026-04-30T13:15:03Z</time></trkpt><trkpt lat="44.48555993921741" lon="9.128471744066308"><ele>631.0</ele><time>2026-04-30T13:15:04Z</time></trkpt><trkpt lat="44.48568574167864" lon="9.128700634341879"><ele>631.0</ele><time>2026-04-30T13:15:05Z</time></trkpt><trkpt lat="44.48579291682752" lon="9.128912828102642"><ele>631.0</ele><time>2026-04-30T13:15:06Z</time></trkpt><trkpt lat="44.48589394150257" lon="9.129107865515813"><ele>631.0</ele><time>2026-04-30T13:15:07Z</time></trkpt><trkpt lat="44.4860101919658" lon="9.129289979826233"><ele>627.3333333333334</ele><time>2026-04-30T13:15:08Z</time></trkpt><trkpt lat="44.486146818018696" lon="9.129443415601896"><ele>623.6666666666666</ele><time>2026-04-30T13:15:09Z</time></trkpt><trkpt lat="44.48629418700901" lon="9.129605457668847"><ele>620.0</ele><time>2026-04-30T13:15:10Z</time></trkpt><trkpt lat="44.48645188221585" lon="9.129732377550974"><ele>620.0</ele><time>2026-04-30T13:15:11Z</time></trkpt><trkpt lat="44.48661203716541" lon="9.129861617914514"><ele>620.0</ele><time>2026-04-30T13:15:12Z</time></trkpt><trkpt lat="44.48680899623404" lon="9.129973708430114"><ele>620.0</ele><time>2026-04-30T13:15:13Z</time></trkpt><trkpt lat="44.48700982148353" lon="9.130092850348792"><ele>620.3333333333333</ele><time>2026-04-30T13:15:14Z</time></trkpt><trkpt lat="44.48720442106154" lon="9.130216296662713"><ele>620.6666666666666</ele><time>2026-04-30T13:15:15Z</time></trkpt><trkpt lat="44.48737359363433" lon="9.130325036743615"><ele>621.0</ele><time>2026-04-30T13:15:16Z</time></trkpt><trkpt lat="44.48754221999153" lon="9.130443623142057"><ele>621.0</ele><time>2026-04-30T13:15:17Z</time></trkpt><trkpt lat="44.487699195126105" lon="9.130545731834085"><ele>621.0</ele><time>2026-04-30T13:15:18Z</time></trkpt><trkpt lat="44.487845267410506" lon="9.130642437993878"><ele>621.0</ele><time>2026-04-30T13:15:19Z</time></trkpt><trkpt lat="44.48799295391417" lon="9.130731883245344"><ele>627.0</ele><time>2026-04-30T13:15:20Z</time></trkpt><trkpt lat="44.488148855689865" lon="9.130826721746562"><ele>633.0</ele><time>2026-04-30T13:15:21Z</time></trkpt><trkpt lat="44.48830389931085" lon="9.130914933411685"><ele>639.0</ele><time>2026-04-30T13:15:22Z</time></trkpt><trkpt lat="44.4884625209338" lon="9.130985990121577"><ele>639.0</ele><time>2026-04-30T13:15:23Z</time></trkpt><trkpt lat="44.488627535542996" lon="9.131036342389256"><ele>639.0</ele><time>2026-04-30T13:15:24Z</time></trkpt><trkpt lat="44.488777276022766" lon="9.131069700480857"><ele>639.0</ele><time>2026-04-30T13:15:25Z</time></trkpt><trkpt lat="44.48893240571592" lon="9.131104385952968"><ele>637.3333333333334</ele><time>2026-04-30T13:15:26Z</time></trkpt><trkpt lat="44.48911681697119" lon="9.131101620264824"><ele>635.6666666666667</ele><time>2026-04-30T13:15:27Z</time></trkpt><trkpt lat="44.48931198477971" lon="9.131075617327399"><ele>634.0</ele><time>2026-04-30T13:15:28Z</time></trkpt><trkpt lat="44.4894912767419" lon="9.13104221610073"><ele>632.3333333333334</ele><time>2026-04-30T13:15:29Z</time></trkpt><trkpt lat="44.48968726169587" lon="9.13102203385683"><ele>630.6666666666666</ele><time>2026-04-30T13:15:30Z</time></trkpt><trkpt lat="44.48989730939313" lon="9.130999322504492"><ele>629.0</ele><time>2026-04-30T13:15:31Z</time></trkpt><trkpt lat="44.49011278303255" lon="9.130979317678953"><ele>629.0</ele><time>2026-04-30T13:15:32Z</time></trkpt><trkpt lat="44.49030257379832" lon="9.13096545731924"><ele>629.0</ele><time>2026-04-30T13:15:33Z</time></trkpt><trkpt lat="44.49050577654426" lon="9.130969551133651"><ele>629.0</ele><time>2026-04-30T13:15:34Z</time></trkpt><trkpt lat="44.49072209316528" lon="9.130965612872995"><ele>626.0</ele><time>2026-04-30T13:15:35Z</time></trkpt><trkpt lat="44.49092496776354" lon="9.130946294777772"><ele>623.0</ele><time>2026-04-30T13:15:36Z</time></trkpt><trkpt lat="44.49111641329673" lon="9.130937579784545"><ele>620.0</ele><time>2026-04-30T13:15:37Z</time></trkpt><trkpt lat="44.491311097949946" lon="9.130925828283587"><ele>610.6666666666666</ele><time>2026-04-30T13:15:38Z</time></trkpt><trkpt lat="44.49151008706178" lon="9.130881948295535"><ele>601.3333333333334</ele><time>2026-04-30T13:15:39Z</time></trkpt><trkpt lat="44.49170576990058" lon="9.130847214878541"><ele>592.0</ele><time>2026-04-30T13:15:40Z</time></trkpt><trkpt lat="44.49187634296748" lon="9.130809545446613"><ele>592.0</ele><time>2026-04-30T13:15:41Z</time></trkpt><trkpt lat="44.4920456379426" lon="9.130787721523431"><ele>592.0</ele><time>2026-04-30T13:15:42Z</time></trkpt><trkpt lat="44.49221739661926" lon="9.130739294227732"><ele>592.0</ele><time>2026-04-30T13:15:43Z</time></trkpt><trkpt lat="44.49236149850898" lon="9.130710424211363"><ele>593.25</ele><time>2026-04-30T13:15:44Z</time></trkpt><trkpt lat="44.492446289740535" lon="9.13077382689726"><ele>594.5</ele><time>2026-04-30T13:15:45Z</time></trkpt><trkpt lat="44.49258414666655" lon="9.130832158653565"><ele>595.75</ele><time>2026-04-30T13:15:46Z</time></trkpt><trkpt lat="44.49273123345684" lon="9.13090166844599"><ele>597.0</ele><time>2026-04-30T13:15:47Z</time></trkpt><trkpt lat="44.4928864380329" lon="9.130978420435497"><ele>603.3333333333334</ele><time>2026-04-30T13:15:48Z</time></trkpt><trkpt lat="44.49305616973819" lon="9.131081836234356"><ele>609.6666666666667</ele><time>2026-04-30T13:15:49Z</time></trkpt><trkpt lat="44.493217978410215" lon="9.131206167881887"><ele>616.0</ele><time>2026-04-30T13:15:50Z</time></trkpt><trkpt lat="44.49336778528443" lon="9.131262233862513"><ele>616.0</ele><time>2026-04-30T13:15:51Z</time></trkpt><trkpt lat="44.49350532430101" lon="9.131338969212088"><ele>616.0</ele><time>2026-04-30T13:15:51.999Z</time></trkpt><trkpt lat="44.49361741664515" lon="9.131413748570427"><ele>616.0</ele><time>2026-04-30T13:15:52.999Z</time></trkpt><trkpt lat="44.49370784420471" lon="9.13147581436921"><ele>616.0</ele><time>2026-04-30T13:15:53.999Z</time></trkpt><trkpt lat="44.4937841449161" lon="9.131577552650192"><ele>620.5</ele><time>2026-04-30T13:15:54.999Z</time></trkpt><trkpt lat="44.49387219342354" lon="9.131631566312848"><ele>625.0</ele><time>2026-04-30T13:15:55.999Z</time></trkpt><trkpt lat="44.493964989487814" lon="9.13176379390006"><ele>629.5</ele><time>2026-04-30T13:15:56.999Z</time></trkpt><trkpt lat="44.49409216801099" lon="9.13185837578984"><ele>634.0</ele><time>2026-04-30T13:15:57.999Z</time></trkpt><trkpt lat="44.49422599909446" lon="9.131987835491257"><ele>634.0</ele><time>2026-04-30T13:15:58.999Z</time></trkpt><trkpt lat="44.49436212646004" lon="9.132096006452862"><ele>634.0</ele><time>2026-04-30T13:15:59.999Z</time></trkpt><trkpt lat="44.49565888659987" lon="9.133121426372766"><ele>640.0</ele><time>2026-04-30T13:16:09.324Z</time></trkpt><trkpt lat="44.49577688706778" lon="9.133227360448172"><ele>646.0</ele><time>2026-04-30T13:16:10.329Z</time></trkpt><trkpt lat="44.49589408517255" lon="9.13333268328421"><ele>652.0</ele><time>2026-04-30T13:16:11.327Z</time></trkpt><trkpt lat="44.496011152588785" lon="9.133439796545558"><ele>658.0</ele><time>2026-04-30T13:16:12.329Z</time></trkpt><trkpt lat="44.49612678091082" lon="9.133549135885707"><ele>658.0</ele><time>2026-04-30T13:16:13.329Z</time></trkpt><trkpt lat="44.496231239296094" lon="9.133680501960844"><ele>658.0</ele><time>2026-04-30T13:16:14.331Z</time></trkpt><trkpt lat="44.496353112208155" lon="9.133777576543379"><ele>658.0</ele><time>2026-04-30T13:16:15.329Z</time></trkpt><trkpt lat="44.49645350341062" lon="9.133915023225976"><ele>658.0</ele><time>2026-04-30T13:16:16.328Z</time></trkpt><trkpt lat="44.4970075630621" lon="9.13463199108741"><ele>653.5</ele><time>2026-04-30T13:16:16.999Z</time></trkpt><trkpt lat="44.4972089560073" lon="9.134834215652424"><ele>649.0</ele><time>2026-04-30T13:16:17.999Z</time></trkpt><trkpt lat="44.49736182866325" lon="9.135035141790146"><ele>649.0</ele><time>2026-04-30T13:16:18.999Z</time></trkpt><trkpt lat="44.49751426326598" lon="9.135228505063004"><ele>649.0</ele><time>2026-04-30T13:16:19.999Z</time></trkpt><trkpt lat="44.49766170394551" lon="9.135428396072008"><ele>649.0</ele><time>2026-04-30T13:16:20.999Z</time></trkpt><trkpt lat="44.497799464243066" lon="9.13560120728612"><ele>651.3333333333334</ele><time>2026-04-30T13:16:21.999Z</time></trkpt><trkpt lat="44.49795278616357" lon="9.135769226838791"><ele>653.6666666666666</ele><time>2026-04-30T13:16:22.999Z</time></trkpt><trkpt lat="44.498085936578384" lon="9.1359549808116"><ele>656.0</ele><time>2026-04-30T13:16:23.999Z</time></trkpt><trkpt lat="44.49822095807326" lon="9.136115791172868"><ele>656.0</ele><time>2026-04-30T13:16:24.999Z</time></trkpt><trkpt lat="44.498365613418" lon="9.136302407888524"><ele>656.0</ele><time>2026-04-30T13:16:25.999Z</time></trkpt><trkpt lat="44.4985103021071" lon="9.136487211364166"><ele>656.0</ele><time>2026-04-30T13:16:26.999Z</time></trkpt><trkpt lat="44.498649315913646" lon="9.136665928987801"><ele>658.0</ele><time>2026-04-30T13:16:27.999Z</time></trkpt><trkpt lat="44.49879229573556" lon="9.136855904596572"><ele>660.0</ele><time>2026-04-30T13:16:28.999Z</time></trkpt><trkpt lat="44.49893033171257" lon="9.137044613750783"><ele>662.0</ele><time>2026-04-30T13:16:29.999Z</time></trkpt><trkpt lat="44.49907240847138" lon="9.137243440664637"><ele>666.0</ele><time>2026-04-30T13:16:30.999Z</time></trkpt><trkpt lat="44.49919882682411" lon="9.137427439370652"><ele>670.0</ele><time>2026-04-30T13:16:31.999Z</time></trkpt><trkpt lat="44.49931757690732" lon="9.137605992419239"><ele>674.0</ele><time>2026-04-30T13:16:32.999Z</time></trkpt><trkpt lat="44.499442680191336" lon="9.137800564857754"><ele>674.0</ele><time>2026-04-30T13:16:33.999Z</time></trkpt><trkpt lat="44.49957077828522" lon="9.13800633058223"><ele>674.0</ele><time>2026-04-30T13:16:34.999Z</time></trkpt><trkpt lat="44.49968715200208" lon="9.138195835760733"><ele>674.0</ele><time>2026-04-30T13:16:35.999Z</time></trkpt><trkpt lat="44.49981747315086" lon="9.138411261435344"><ele>674.6666666666666</ele><time>2026-04-30T13:16:36.999Z</time></trkpt><trkpt lat="44.499934540762325" lon="9.13861227299967"><ele>675.3333333333334</ele><time>2026-04-30T13:16:37.999Z</time></trkpt><trkpt lat="44.50005714419435" lon="9.138830186106988"><ele>676.0</ele><time>2026-04-30T13:16:38.999Z</time></trkpt><trkpt lat="44.50018722414335" lon="9.139067230523672"><ele>679.6666666666667</ele><time>2026-04-30T13:16:39.999Z</time></trkpt><trkpt lat="44.50030863834818" lon="9.139292200607382"><ele>683.3333333333334</ele><time>2026-04-30T13:16:40.999Z</time></trkpt><trkpt lat="44.50042932960113" lon="9.139520054269648"><ele>687.0</ele><time>2026-04-30T13:16:41.999Z</time></trkpt><trkpt lat="44.50054795012363" lon="9.139750334845653"><ele>692.0</ele><time>2026-04-30T13:16:42.999Z</time></trkpt><trkpt lat="44.5006560560868" lon="9.139983352993243"><ele>697.0</ele><time>2026-04-30T13:16:43.999Z</time></trkpt><trkpt lat="44.50076598660081" lon="9.140227432859819"><ele>702.0</ele><time>2026-04-30T13:16:44.999Z</time></trkpt><trkpt lat="44.50087414328675" lon="9.140466714435847"><ele>702.0</ele><time>2026-04-30T13:16:45.999Z</time></trkpt><trkpt lat="44.50098027901594" lon="9.140703990800443"><ele>702.0</ele><time>2026-04-30T13:16:46.999Z</time></trkpt><trkpt lat="44.501084611479776" lon="9.14094414876252"><ele>702.0</ele><time>2026-04-30T13:16:47.998Z</time></trkpt><trkpt lat="44.501186486395724" lon="9.141184558601353"><ele>714.0</ele><time>2026-04-30T13:16:48.998Z</time></trkpt><trkpt lat="44.50128305285022" lon="9.141426656780723"><ele>726.0</ele><time>2026-04-30T13:16:49.998Z</time></trkpt><trkpt lat="44.50159054603034" lon="9.14223286500875"><ele>731.3333333333334</ele><time>2026-04-30T13:16:53.324Z</time></trkpt><trkpt lat="44.50167536126956" lon="9.142480899846019"><ele>736.6666666666667</ele><time>2026-04-30T13:16:54.324Z</time></trkpt><trkpt lat="44.50175935856554" lon="9.142730008296725"><ele>742.0</ele><time>2026-04-30T13:16:55.325Z</time></trkpt><trkpt lat="44.50182630840092" lon="9.14298983446511"><ele>740.3333333333334</ele><time>2026-04-30T13:16:56.327Z</time></trkpt><trkpt lat="44.5019056294865" lon="9.143241317076255"><ele>738.6666666666666</ele><time>2026-04-30T13:16:57.328Z</time></trkpt><trkpt lat="44.501981064297084" lon="9.143493434486135"><ele>737.0</ele><time>2026-04-30T13:16:58.324Z</time></trkpt><trkpt lat="44.502071069128604" lon="9.143739730071703"><ele>733.0</ele><time>2026-04-30T13:16:59.326Z</time></trkpt><trkpt lat="44.502127832765346" lon="9.144004560475128"><ele>729.0</ele><time>2026-04-30T13:17:00.328Z</time></trkpt><trkpt lat="44.50221393478111" lon="9.144252315241253"><ele>725.0</ele><time>2026-04-30T13:17:01.327Z</time></trkpt><trkpt lat="44.50226883875554" lon="9.144517765940403"><ele>725.0</ele><time>2026-04-30T13:17:02.328Z</time></trkpt><trkpt lat="44.50233867420053" lon="9.144774469396317"><ele>725.0</ele><time>2026-04-30T13:17:03.328Z</time></trkpt><trkpt lat="44.502422439595215" lon="9.145023305213096"><ele>725.0</ele><time>2026-04-30T13:17:04.325Z</time></trkpt><trkpt lat="44.50249105551858" lon="9.145281957198458"><ele>716.0</ele><time>2026-04-30T13:17:05.328Z</time></trkpt><trkpt lat="44.5025923598158" lon="9.145737217283816"><ele>707.0</ele><time>2026-04-30T13:17:05.998Z</time></trkpt><trkpt lat="44.50264605480867" lon="9.145944616364554"><ele>707.0</ele><time>2026-04-30T13:17:06.998Z</time></trkpt><trkpt lat="44.5027182578609" lon="9.146220958895158"><ele>707.0</ele><time>2026-04-30T13:17:07.998Z</time></trkpt><trkpt lat="44.50286384676535" lon="9.146750811052845"><ele>709.6666666666666</ele><time>2026-04-30T13:17:09.998Z</time></trkpt><trkpt lat="44.50294582268786" lon="9.147025178669278"><ele>712.3333333333334</ele><time>2026-04-30T13:17:10.998Z</time></trkpt><trkpt lat="44.503031464355594" lon="9.147287595876579"><ele>715.0</ele><time>2026-04-30T13:17:11.998Z</time></trkpt><trkpt lat="44.5031388309293" lon="9.147533256820903"><ele>715.0</ele><time>2026-04-30T13:17:12.998Z</time></trkpt><trkpt lat="44.50322453239502" lon="9.147787576750124"><ele>715.0</ele><time>2026-04-30T13:17:13.998Z</time></trkpt><trkpt lat="44.50333535943152" lon="9.148029179655286"><ele>715.0</ele><time>2026-04-30T13:17:14.998Z</time></trkpt><trkpt lat="44.50345151126213" lon="9.14825654870078"><ele>710.0</ele><time>2026-04-30T13:17:15.998Z</time></trkpt><trkpt lat="44.5035753227085" lon="9.148468312444546"><ele>705.0</ele><time>2026-04-30T13:17:16.998Z</time></trkpt><trkpt lat="44.50369971939205" lon="9.148684595504271"><ele>700.0</ele><time>2026-04-30T13:17:17.998Z</time></trkpt><trkpt lat="44.50381512108866" lon="9.148896053262202"><ele>704.0</ele><time>2026-04-30T13:17:18.998Z</time></trkpt><trkpt lat="44.503968577511856" lon="9.149074696302044"><ele>708.0</ele><time>2026-04-30T13:17:19.998Z</time></trkpt><trkpt lat="44.50412236840831" lon="9.14924285733921"><ele>712.0</ele><time>2026-04-30T13:17:20.998Z</time></trkpt><trkpt lat="44.50428553697871" lon="9.149424215367514"><ele>712.0</ele><time>2026-04-30T13:17:21.998Z</time></trkpt><trkpt lat="44.50445874095989" lon="9.149604434849813"><ele>712.0</ele><time>2026-04-30T13:17:22.998Z</time></trkpt><trkpt lat="44.5046201039524" lon="9.149776820808473"><ele>712.0</ele><time>2026-04-30T13:17:23.998Z</time></trkpt><trkpt lat="44.5047850908519" lon="9.149955342623397"><ele>722.0</ele><time>2026-04-30T13:17:24.998Z</time></trkpt><trkpt lat="44.50493404050918" lon="9.150149966187566"><ele>732.0</ele><time>2026-04-30T13:17:25.998Z</time></trkpt><trkpt lat="44.50506387163661" lon="9.150321591500916"><ele>742.0</ele><time>2026-04-30T13:17:26.998Z</time></trkpt><trkpt lat="44.505252998933" lon="9.150374385107577"><ele>742.0</ele><time>2026-04-30T13:17:27.998Z</time></trkpt><trkpt lat="44.50536392103833" lon="9.150520148574907"><ele>742.0</ele><time>2026-04-30T13:17:28.998Z</time></trkpt><trkpt lat="44.505476567699446" lon="9.15066445124839"><ele>742.0</ele><time>2026-04-30T13:17:29.998Z</time></trkpt><trkpt lat="44.50558905794507" lon="9.150809069683262"><ele>740.6666666666667</ele><time>2026-04-30T13:17:30.998Z</time></trkpt><trkpt lat="44.505701868878276" lon="9.150952992072748"><ele>739.3333333333334</ele><time>2026-04-30T13:17:31.998Z</time></trkpt><trkpt lat="44.50582859380703" lon="9.151068862376533"><ele>738.0</ele><time>2026-04-30T13:17:32.998Z</time></trkpt><trkpt lat="44.50642371939639" lon="9.151519008441621"><ele>732.5</ele><time>2026-04-30T13:17:36.325Z</time></trkpt><trkpt lat="44.50662051757677" lon="9.151850212871624"><ele>727.0</ele><time>2026-04-30T13:17:36.998Z</time></trkpt><trkpt lat="44.50687181676678" lon="9.151980566296984"><ele>727.0</ele><time>2026-04-30T13:17:37.998Z</time></trkpt><trkpt lat="44.50702942572799" lon="9.152131348574963"><ele>727.0</ele><time>2026-04-30T13:17:38.998Z</time></trkpt><trkpt lat="44.50719072959572" lon="9.152289928277233"><ele>727.0</ele><time>2026-04-30T13:17:39.998Z</time></trkpt><trkpt lat="44.5073733056925" lon="9.152454127494797"><ele>730.0</ele><time>2026-04-30T13:17:40.998Z</time></trkpt><trkpt lat="44.50755248244981" lon="9.152617030365784"><ele>733.0</ele><time>2026-04-30T13:17:41.998Z</time></trkpt><trkpt lat="44.50775912956926" lon="9.152802852551279"><ele>740.5</ele><time>2026-04-30T13:17:42.997Z</time></trkpt><trkpt lat="44.50797314122203" lon="9.152984397023094"><ele>748.0</ele><time>2026-04-30T13:17:43.997Z</time></trkpt><trkpt lat="44.50818049210071" lon="9.153133938572145"><ele>746.6666666666667</ele><time>2026-04-30T13:17:44.997Z</time></trkpt><trkpt lat="44.50838024373861" lon="9.153261305140107"><ele>745.3333333333334</ele><time>2026-04-30T13:17:45.997Z</time></trkpt><trkpt lat="44.508578084224794" lon="9.153371867206449"><ele>744.0</ele><time>2026-04-30T13:17:46.997Z</time></trkpt><trkpt lat="44.50873515355022" lon="9.153426066972422"><ele>741.6666666666666</ele><time>2026-04-30T13:17:47.997Z</time></trkpt><trkpt lat="44.508924454593156" lon="9.153531282603714"><ele>739.3333333333333</ele><time>2026-04-30T13:17:48.997Z</time></trkpt><trkpt lat="44.5091212920568" lon="9.153605912247427"><ele>737.0</ele><time>2026-04-30T13:17:49.997Z</time></trkpt><trkpt lat="44.50928444168508" lon="9.153673598951185"><ele>737.0</ele><time>2026-04-30T13:17:50.997Z</time></trkpt><trkpt lat="44.50946217390936" lon="9.153734151085564"><ele>737.0</ele><time>2026-04-30T13:17:51.997Z</time></trkpt><trkpt lat="44.5096681703435" lon="9.153810232151278"><ele>737.0</ele><time>2026-04-30T13:17:52.997Z</time></trkpt><trkpt lat="44.50985639971979" lon="9.153884822746594"><ele>738.0</ele><time>2026-04-30T13:17:53.997Z</time></trkpt><trkpt lat="44.510041530560116" lon="9.153963007159083"><ele>739.0</ele><time>2026-04-30T13:17:54.997Z</time></trkpt><trkpt lat="44.51022545800492" lon="9.15403530737238"><ele>740.0</ele><time>2026-04-30T13:17:55.997Z</time></trkpt><trkpt lat="44.51040778739178" lon="9.154130656677859"><ele>738.3333333333333</ele><time>2026-04-30T13:17:56.997Z</time></trkpt><trkpt lat="44.51060354126845" lon="9.15418945629697"><ele>736.6666666666666</ele><time>2026-04-30T13:17:57.997Z</time></trkpt><trkpt lat="44.51080528908774" lon="9.154256445617936"><ele>735.0</ele><time>2026-04-30T13:17:58.997Z</time></trkpt><trkpt lat="44.51099659853564" lon="9.154331943993515"><ele>735.0</ele><time>2026-04-30T13:17:59.997Z</time></trkpt><trkpt lat="44.5111896513034" lon="9.154381762856488"><ele>735.0</ele><time>2026-04-30T13:18:00.997Z</time></trkpt><trkpt lat="44.51138892966417" lon="9.154480283860137"><ele>735.0</ele><time>2026-04-30T13:18:01.997Z</time></trkpt><trkpt lat="44.51159506548901" lon="9.154586886707479"><ele>736.3333333333334</ele><time>2026-04-30T13:18:02.997Z</time></trkpt><trkpt lat="44.51172634613764" lon="9.154754548099914"><ele>737.6666666666667</ele><time>2026-04-30T13:18:03.997Z</time></trkpt><trkpt lat="44.5118893327698" lon="9.15488926490876"><ele>739.0</ele><time>2026-04-30T13:18:04.997Z</time></trkpt><trkpt lat="44.51207012484201" lon="9.155052753643421"><ele>742.0</ele><time>2026-04-30T13:18:05.997Z</time></trkpt><trkpt lat="44.51225438643364" lon="9.155229794110264"><ele>745.0</ele><time>2026-04-30T13:18:06.997Z</time></trkpt><trkpt lat="44.51242725390251" lon="9.155420063202344"><ele>748.0</ele><time>2026-04-30T13:18:07.997Z</time></trkpt><trkpt lat="44.51259874243032" lon="9.155594857391987"><ele>746.6666666666667</ele><time>2026-04-30T13:18:08.997Z</time></trkpt><trkpt lat="44.51273939410454" lon="9.15581180282159"><ele>745.3333333333334</ele><time>2026-04-30T13:18:09.997Z</time></trkpt><trkpt lat="44.512881912370425" lon="9.156026874425809"><ele>744.0</ele><time>2026-04-30T13:18:10.997Z</time></trkpt><trkpt lat="44.51301074925225" lon="9.156237774594365"><ele>744.0</ele><time>2026-04-30T13:18:11.997Z</time></trkpt><trkpt lat="44.51313748942034" lon="9.156457688485578"><ele>744.0</ele><time>2026-04-30T13:18:12.997Z</time></trkpt><trkpt lat="44.513253561959075" lon="9.156691272423142"><ele>744.0</ele><time>2026-04-30T13:18:13.997Z</time></trkpt><trkpt lat="44.51336235042142" lon="9.15693752034772"><ele>744.0</ele><time>2026-04-30T13:18:14.997Z</time></trkpt><trkpt lat="44.51346442434665" lon="9.157196297774242"><ele>744.0</ele><time>2026-04-30T13:18:15.997Z</time></trkpt><trkpt lat="44.51356036309559" lon="9.157457360418263"><ele>744.0</ele><time>2026-04-30T13:18:16.997Z</time></trkpt><trkpt lat="44.513604573027706" lon="9.157595068790108"><ele>744.0</ele><time>2026-04-30T13:18:17.997Z</time></trkpt><trkpt lat="44.51367908174291" lon="9.157844101234456"><ele>744.0</ele><time>2026-04-30T13:18:18.997Z</time></trkpt><trkpt lat="44.51374627429438" lon="9.15811788691393"><ele>744.0</ele><time>2026-04-30T13:18:19.997Z</time></trkpt><trkpt lat="44.51380893505723" lon="9.15840288049741"><ele>744.0</ele><time>2026-04-30T13:18:20.997Z</time></trkpt><trkpt lat="44.51387275785027" lon="9.15871711469299"><ele>744.0</ele><time>2026-04-30T13:18:21.997Z</time></trkpt><trkpt lat="44.51391575003747" lon="9.159069571599964"><ele>737.5</ele><time>2026-04-30T13:18:22.997Z</time></trkpt><trkpt lat="44.513953287197644" lon="9.159406311447082"><ele>731.0</ele><time>2026-04-30T13:18:23.997Z</time></trkpt><trkpt lat="44.51396329859501" lon="9.15971432018727"><ele>728.3333333333333</ele><time>2026-04-30T13:18:24.997Z</time></trkpt><trkpt lat="44.513968354658886" lon="9.160016394558431"><ele>725.6666666666666</ele><time>2026-04-30T13:18:25.997Z</time></trkpt><trkpt lat="44.513961205320754" lon="9.160288269191557"><ele>723.0</ele><time>2026-04-30T13:18:26.997Z</time></trkpt><trkpt lat="44.513949499207364" lon="9.160547405602394"><ele>723.0</ele><time>2026-04-30T13:18:27.997Z</time></trkpt><trkpt lat="44.5139295021557" lon="9.160792054209159"><ele>723.0</ele><time>2026-04-30T13:18:28.997Z</time></trkpt><trkpt lat="44.51389942821467" lon="9.161061907363292"><ele>723.0</ele><time>2026-04-30T13:18:29.997Z</time></trkpt><trkpt lat="44.513860398906395" lon="9.161326968096406"><ele>728.3333333333334</ele><time>2026-04-30T13:18:30.997Z</time></trkpt><trkpt lat="44.51381084572639" lon="9.161592852325326"><ele>733.6666666666667</ele><time>2026-04-30T13:18:31.997Z</time></trkpt><trkpt lat="44.513753809153954" lon="9.161866300625746"><ele>739.0</ele><time>2026-04-30T13:18:32.997Z</time></trkpt><trkpt lat="44.513694306837735" lon="9.16212563273757"><ele>749.0</ele><time>2026-04-30T13:18:33.997Z</time></trkpt><trkpt lat="44.51362820942275" lon="9.162412698500894"><ele>759.0</ele><time>2026-04-30T13:18:34.997Z</time></trkpt><trkpt lat="44.51357118727312" lon="9.16265448560135"><ele>769.0</ele><time>2026-04-30T13:18:35.997Z</time></trkpt><trkpt lat="44.513520032218715" lon="9.16286936858308"><ele>769.0</ele><time>2026-04-30T13:18:36.997Z</time></trkpt><trkpt lat="44.513470141590226" lon="9.163072265040913"><ele>769.0</ele><time>2026-04-30T13:18:37.996Z</time></trkpt><trkpt lat="44.513420217532484" lon="9.16327529748447"><ele>769.0</ele><time>2026-04-30T13:18:38.996Z</time></trkpt><trkpt lat="44.5133701064531" lon="9.163480447433267"><ele>774.3333333333333</ele><time>2026-04-30T13:18:39.996Z</time></trkpt><trkpt lat="44.513321798274525" lon="9.163684350755098"><ele>779.6666666666667</ele><time>2026-04-30T13:18:40.996Z</time></trkpt><trkpt lat="44.5132734840888" lon="9.1638882788182"><ele>785.0</ele><time>2026-04-30T13:18:41.996Z</time></trkpt><trkpt lat="44.513058719140574" lon="9.164782900649952"><ele>799.3333333333334</ele><time>2026-04-30T13:18:45.325Z</time></trkpt><trkpt lat="44.51299332063969" lon="9.165052780828995"><ele>813.6666666666667</ele><time>2026-04-30T13:18:46.326Z</time></trkpt><trkpt lat="44.512944865774124" lon="9.1653301796663"><ele>828.0</ele><time>2026-04-30T13:18:47.325Z</time></trkpt><trkpt lat="44.51288010292369" lon="9.165600342403048"><ele>837.6666666666667</ele><time>2026-04-30T13:18:48.326Z</time></trkpt><trkpt lat="44.51281504631222" lon="9.165869586676935"><ele>847.3333333333334</ele><time>2026-04-30T13:18:49.324Z</time></trkpt><trkpt lat="44.51273404520189" lon="9.166132104003964"><ele>857.0</ele><time>2026-04-30T13:18:50.325Z</time></trkpt><trkpt lat="44.512685917049076" lon="9.166410151809151"><ele>863.0</ele><time>2026-04-30T13:18:51.326Z</time></trkpt><trkpt lat="44.512622075132796" lon="9.166680184093343"><ele>869.0</ele><time>2026-04-30T13:18:52.325Z</time></trkpt><trkpt lat="44.51255831877363" lon="9.166949518258699"><ele>875.0</ele><time>2026-04-30T13:18:53.321Z</time></trkpt><trkpt lat="44.512478332479574" lon="9.16721255687542"><ele>877.0</ele><time>2026-04-30T13:18:54.323Z</time></trkpt><trkpt lat="44.51242739881698" lon="9.167489836848532"><ele>879.0</ele><time>2026-04-30T13:18:55.325Z</time></trkpt><trkpt lat="44.51236841916758" lon="9.167730689878226"><ele>881.0</ele><time>2026-04-30T13:18:56.323Z</time></trkpt><trkpt lat="44.5090578940196" lon="9.182894260930494"><ele>853.3333333333334</ele><time>2026-04-30T13:19:54.995Z</time></trkpt><trkpt lat="44.50901483872012" lon="9.183322718095557"><ele>825.6666666666667</ele><time>2026-04-30T13:19:55.995Z</time></trkpt><trkpt lat="44.509007997513145" lon="9.183415738946128"><ele>798.0</ele><time>2026-04-30T13:19:56.995Z</time></trkpt><trkpt lat="44.508979079105984" lon="9.183680234369591"><ele>798.0</ele><time>2026-04-30T13:19:57.995Z</time></trkpt><trkpt lat="44.50894640652966" lon="9.183948392307974"><ele>798.0</ele><time>2026-04-30T13:19:58.995Z</time></trkpt><trkpt lat="44.50891756659012" lon="9.184205473619949"><ele>798.0</ele><time>2026-04-30T13:19:59.995Z</time></trkpt><trkpt lat="44.50887607292388" lon="9.184477256740134"><ele>796.3333333333333</ele><time>2026-04-30T13:20:00.995Z</time></trkpt><trkpt lat="44.508828988115205" lon="9.184714793693011"><ele>794.6666666666666</ele><time>2026-04-30T13:20:01.995Z</time></trkpt><trkpt lat="44.50878431628745" lon="9.184982271346541"><ele>793.0</ele><time>2026-04-30T13:20:02.995Z</time></trkpt><trkpt lat="44.50874144992776" lon="9.185265711303211"><ele>800.0</ele><time>2026-04-30T13:20:03.995Z</time></trkpt><trkpt lat="44.508709415056614" lon="9.18552459350068"><ele>807.0</ele><time>2026-04-30T13:20:04.995Z</time></trkpt><trkpt lat="44.508669517968286" lon="9.18578906514363"><ele>814.0</ele><time>2026-04-30T13:20:05.995Z</time></trkpt><trkpt lat="44.508627572055225" lon="9.186032052269026"><ele>815.3333333333333</ele><time>2026-04-30T13:20:06.995Z</time></trkpt><trkpt lat="44.50858514590187" lon="9.186288028171191"><ele>816.6666666666667</ele><time>2026-04-30T13:20:07.995Z</time></trkpt><trkpt lat="44.5085395519079" lon="9.1865377541993"><ele>818.0</ele><time>2026-04-30T13:20:08.995Z</time></trkpt><trkpt lat="44.50850116189172" lon="9.186795624119588"><ele>814.3333333333334</ele><time>2026-04-30T13:20:09.995Z</time></trkpt><trkpt lat="44.50845373391636" lon="9.187066255956774"><ele>810.6666666666667</ele><time>2026-04-30T13:20:10.995Z</time></trkpt><trkpt lat="44.508417041483675" lon="9.187332029281457"><ele>807.0</ele><time>2026-04-30T13:20:11.995Z</time></trkpt><trkpt lat="44.50840910278153" lon="9.18758857693947"><ele>807.3333333333333</ele><time>2026-04-30T13:20:12.995Z</time></trkpt><trkpt lat="44.508437154414715" lon="9.187874108343312"><ele>807.6666666666666</ele><time>2026-04-30T13:20:13.995Z</time></trkpt><trkpt lat="44.508497591029005" lon="9.188141995576125"><ele>808.0</ele><time>2026-04-30T13:20:14.995Z</time></trkpt><trkpt lat="44.50857667147311" lon="9.18838512716023"><ele>808.0</ele><time>2026-04-30T13:20:15.995Z</time></trkpt><trkpt lat="44.5087040991665" lon="9.188621354545432"><ele>808.0</ele><time>2026-04-30T13:20:16.995Z</time></trkpt><trkpt lat="44.5088440040291" lon="9.188842057469328"><ele>808.0</ele><time>2026-04-30T13:20:17.995Z</time></trkpt><trkpt lat="44.5089944858148" lon="9.189024196466157"><ele>802.3333333333333</ele><time>2026-04-30T13:20:18.995Z</time></trkpt><trkpt lat="44.509148123390496" lon="9.18918883527173"><ele>796.6666666666667</ele><time>2026-04-30T13:20:19.995Z</time></trkpt><trkpt lat="44.5092987396008" lon="9.189336653865297"><ele>791.0</ele><time>2026-04-30T13:20:20.995Z</time></trkpt><trkpt lat="44.50944377894256" lon="9.189487701204209"><ele>789.6666666666667</ele><time>2026-04-30T13:20:21.995Z</time></trkpt><trkpt lat="44.509582045321814" lon="9.189642287041295"><ele>788.3333333333333</ele><time>2026-04-30T13:20:22.995Z</time></trkpt><trkpt lat="44.50970826963917" lon="9.189823346715485"><ele>787.0</ele><time>2026-04-30T13:20:23.995Z</time></trkpt><trkpt lat="44.50980721517839" lon="9.190053996168315"><ele>783.6666666666666</ele><time>2026-04-30T13:20:24.995Z</time></trkpt><trkpt lat="44.509864146482855" lon="9.19031073437154"><ele>780.3333333333333</ele><time>2026-04-30T13:20:25.995Z</time></trkpt><trkpt lat="44.50989401773677" lon="9.190579393790216"><ele>777.0</ele><time>2026-04-30T13:20:26.995Z</time></trkpt><trkpt lat="44.50989506130068" lon="9.19085303324863"><ele>777.0</ele><time>2026-04-30T13:20:27.994Z</time></trkpt><trkpt lat="44.50985982004288" lon="9.191097097063428"><ele>777.0</ele><time>2026-04-30T13:20:28.994Z</time></trkpt><trkpt lat="44.509805911093004" lon="9.191353481935904"><ele>777.0</ele><time>2026-04-30T13:20:29.994Z</time></trkpt><trkpt lat="44.50975389908212" lon="9.191613088604594"><ele>783.0</ele><time>2026-04-30T13:20:30.994Z</time></trkpt><trkpt lat="44.509638240746234" lon="9.19286515735722"><ele>779.6666666666667</ele><time>2026-04-30T13:20:35.994Z</time></trkpt><trkpt lat="44.50964267083668" lon="9.193179160029025"><ele>776.3333333333334</ele><time>2026-04-30T13:20:36.994Z</time></trkpt><trkpt lat="44.50964530012692" lon="9.193486294164346"><ele>773.0</ele><time>2026-04-30T13:20:37.994Z</time></trkpt><trkpt lat="44.50963895229462" lon="9.193729710108263"><ele>777.6666666666667</ele><time>2026-04-30T13:20:38.994Z</time></trkpt><trkpt lat="44.50956908129733" lon="9.193981378798814"><ele>782.3333333333333</ele><time>2026-04-30T13:20:39.994Z</time></trkpt><trkpt lat="44.509494321543144" lon="9.194189664788388"><ele>787.0</ele><time>2026-04-30T13:20:40.994Z</time></trkpt><trkpt lat="44.50940243567151" lon="9.194390032528503"><ele>787.0</ele><time>2026-04-30T13:20:41.994Z</time></trkpt><trkpt lat="44.50930536362892" lon="9.194520400610678"><ele>787.0</ele><time>2026-04-30T13:20:42.994Z</time></trkpt><trkpt lat="44.509210847511106" lon="9.194612110800547"><ele>787.0</ele><time>2026-04-30T13:20:43.994Z</time></trkpt><trkpt lat="44.50910092276542" lon="9.194688774704376"><ele>787.0</ele><time>2026-04-30T13:20:44.994Z</time></trkpt><trkpt lat="44.508978906092764" lon="9.194767633914992"><ele>783.6</ele><time>2026-04-30T13:20:45.994Z</time></trkpt><trkpt lat="44.50889016789423" lon="9.1948896068776"><ele>780.2</ele><time>2026-04-30T13:20:46.994Z</time></trkpt><trkpt lat="44.50885507402956" lon="9.195032608155156"><ele>776.8</ele><time>2026-04-30T13:20:47.994Z</time></trkpt><trkpt lat="44.50885251228233" lon="9.195154348505913"><ele>773.4</ele><time>2026-04-30T13:20:48.994Z</time></trkpt><trkpt lat="44.50887708162105" lon="9.19530374699186"><ele>770.0</ele><time>2026-04-30T13:20:49.994Z</time></trkpt><trkpt lat="44.50892241708508" lon="9.195456790129258"><ele>770.0</ele><time>2026-04-30T13:20:50.994Z</time></trkpt><trkpt lat="44.50897244277022" lon="9.195645825018737"><ele>770.0</ele><time>2026-04-30T13:20:51.994Z</time></trkpt><trkpt lat="44.509010928747045" lon="9.195810174959806"><ele>770.0</ele><time>2026-04-30T13:20:52.994Z</time></trkpt><trkpt lat="44.509033296208194" lon="9.195969237406246"><ele>770.0</ele><time>2026-04-30T13:20:53.994Z</time></trkpt><trkpt lat="44.50904050236532" lon="9.1961295534143"><ele>770.1666666666667</ele><time>2026-04-30T13:20:54.994Z</time></trkpt><trkpt lat="44.50901379141595" lon="9.19626299211186"><ele>770.3333333333334</ele><time>2026-04-30T13:20:55.994Z</time></trkpt><trkpt lat="44.50900055057307" lon="9.196383553242653"><ele>770.5</ele><time>2026-04-30T13:20:56.994Z</time></trkpt><trkpt lat="44.50899695849316" lon="9.196499071460977"><ele>770.6666666666667</ele><time>2026-04-30T13:20:57.994Z</time></trkpt><trkpt lat="44.50899102985719" lon="9.196599294881876"><ele>770.8333333333334</ele><time>2026-04-30T13:20:58.994Z</time></trkpt><trkpt lat="44.50900078806597" lon="9.19669614623402"><ele>771.0</ele><time>2026-04-30T13:20:59.994Z</time></trkpt><trkpt lat="44.50903598346606" lon="9.196831671936295"><ele>771.1666666666666</ele><time>2026-04-30T13:21:02.994Z</time></trkpt><trkpt lat="44.50911541396315" lon="9.196850186700162"><ele>771.3333333333333</ele><time>2026-04-30T13:21:03.994Z</time></trkpt><trkpt lat="44.509225336173" lon="9.19688361360957"><ele>771.5</ele><time>2026-04-30T13:21:05.994Z</time></trkpt><trkpt lat="44.50929750634951" lon="9.196944073362806"><ele>771.6666666666666</ele><time>2026-04-30T13:21:06.994Z</time></trkpt><trkpt lat="44.50935784891121" lon="9.196989994041994"><ele>771.8333333333333</ele><time>2026-04-30T13:21:07.994Z</time></trkpt><trkpt lat="44.509423701727755" lon="9.197059521637472"><ele>772.0</ele><time>2026-04-30T13:21:09.994Z</time></trkpt><trkpt lat="44.509427480738246" lon="9.197236234649832"><ele>772.0</ele><time>2026-04-30T13:21:11.994Z</time></trkpt><trkpt lat="44.50937143865802" lon="9.197287573404298"><ele>772.0</ele><time>2026-04-30T13:21:13.994Z</time></trkpt><trkpt lat="44.50927417348178" lon="9.197326692155066"><ele>772.0</ele><time>2026-04-30T13:21:15.994Z</time></trkpt><trkpt lat="44.50918533751328" lon="9.197327691207708"><ele>772.0</ele><time>2026-04-30T13:21:17.994Z</time></trkpt><trkpt lat="44.509060388347066" lon="9.19736276750891"><ele>772.0</ele><time>2026-04-30T13:21:19.994Z</time></trkpt><trkpt lat="44.5089839070665" lon="9.197397757368543"><ele>772.8</ele><time>2026-04-30T13:21:20.994Z</time></trkpt><trkpt lat="44.50890435426967" lon="9.197415631120066"><ele>773.6</ele><time>2026-04-30T13:21:21.994Z</time></trkpt><trkpt lat="44.50882175817298" lon="9.197540621455055"><ele>774.4</ele><time>2026-04-30T13:21:23.993Z</time></trkpt><trkpt lat="44.50879340092326" lon="9.197680737711112"><ele>775.1999999999999</ele><time>2026-04-30T13:21:25.993Z</time></trkpt><trkpt lat="44.50880414354412" lon="9.19777808126442"><ele>776.0</ele><time>2026-04-30T13:21:26.993Z</time></trkpt><trkpt lat="44.50883313789555" lon="9.197880381712096"><ele>776.0</ele><time>2026-04-30T13:21:27.993Z</time></trkpt><trkpt lat="44.50883045027037" lon="9.197968733910518"><ele>776.0</ele><time>2026-04-30T13:21:28.993Z</time></trkpt><trkpt lat="44.50884611263151" lon="9.198100640781515"><ele>776.0</ele><time>2026-04-30T13:21:30.993Z</time></trkpt><trkpt lat="44.508865262652435" lon="9.19825524970016"><ele>776.0</ele><time>2026-04-30T13:21:32.993Z</time></trkpt><trkpt lat="44.50888587540342" lon="9.198412476114381"><ele>776.0</ele><time>2026-04-30T13:21:34.993Z</time></trkpt><trkpt lat="44.508900614359405" lon="9.198504260331624"><ele>776.6666666666667</ele><time>2026-04-30T13:21:35.993Z</time></trkpt><trkpt lat="44.50892366201993" lon="9.198601176411003"><ele>777.3333333333334</ele><time>2026-04-30T13:21:36.993Z</time></trkpt><trkpt lat="44.50896525675396" lon="9.198669081407935"><ele>778.0</ele><time>2026-04-30T13:21:37.993Z</time></trkpt><trkpt lat="44.50907763552443" lon="9.198757863212869"><ele>778.6666666666667</ele><time>2026-04-30T13:21:39.993Z</time></trkpt><trkpt lat="44.50915189399786" lon="9.198781286833825"><ele>779.3333333333334</ele><time>2026-04-30T13:21:40.993Z</time></trkpt><trkpt lat="44.50922480436209" lon="9.19877558458276"><ele>780.0</ele><time>2026-04-30T13:21:41.993Z</time></trkpt><trkpt lat="44.509292479152855" lon="9.198788640099496"><ele>780.0</ele><time>2026-04-30T13:21:42.993Z</time></trkpt><trkpt lat="44.50937899659615" lon="9.198781662705613"><ele>780.0</ele><time>2026-04-30T13:21:43.993Z</time></trkpt><trkpt lat="44.50945639015188" lon="9.19876954762214"><ele>780.0</ele><time>2026-04-30T13:21:44.993Z</time></trkpt><trkpt lat="44.50953606482465" lon="9.198784827728263"><ele>780.0</ele><time>2026-04-30T13:21:45.993Z</time></trkpt><trkpt lat="44.50962313500593" lon="9.198812863060525"><ele>780.0</ele><time>2026-04-30T13:21:46.993Z</time></trkpt><trkpt lat="44.50972569010635" lon="9.198822622286484"><ele>780.0</ele><time>2026-04-30T13:21:47.993Z</time></trkpt><trkpt lat="44.509827821330354" lon="9.198804863880266"><ele>780.8</ele><time>2026-04-30T13:21:48.993Z</time></trkpt><trkpt lat="44.509909767522636" lon="9.198819647216679"><ele>781.6</ele><time>2026-04-30T13:21:49.993Z</time></trkpt><trkpt lat="44.50991463044148" lon="9.198975007570011"><ele>782.4000000000001</ele><time>2026-04-30T13:21:50.993Z</time></trkpt><trkpt lat="44.50997154127961" lon="9.199079893437007"><ele>783.2</ele><time>2026-04-30T13:21:51.993Z</time></trkpt><trkpt lat="44.510048139473874" lon="9.199221098034451"><ele>784.0</ele><time>2026-04-30T13:21:52.993Z</time></trkpt><trkpt lat="44.51012719249842" lon="9.199367373090917"><ele>784.0</ele><time>2026-04-30T13:21:53.993Z</time></trkpt><trkpt lat="44.510200691550914" lon="9.199503371380791"><ele>784.0</ele><time>2026-04-30T13:21:54.993Z</time></trkpt><trkpt lat="44.51029076925782" lon="9.199640656621023"><ele>784.0</ele><time>2026-04-30T13:21:55.993Z</time></trkpt><trkpt lat="44.51036639216449" lon="9.199810406209052"><ele>784.0</ele><time>2026-04-30T13:21:56.993Z</time></trkpt><trkpt lat="44.51041580890954" lon="9.199948770608383"><ele>789.25</ele><time>2026-04-30T13:21:57.993Z</time></trkpt><trkpt lat="44.51043840160546" lon="9.200119572202402"><ele>794.5</ele><time>2026-04-30T13:21:58.998Z</time></trkpt><trkpt lat="44.51045135184545" lon="9.200303040162783"><ele>799.75</ele><time>2026-04-30T13:21:59.998Z</time></trkpt><trkpt lat="44.51046671465842" lon="9.200524132764103"><ele>805.0</ele><time>2026-04-30T13:22:00.998Z</time></trkpt><trkpt lat="44.51044320308265" lon="9.200696065233664"><ele>791.6666666666666</ele><time>2026-04-30T13:22:01.998Z</time></trkpt><trkpt lat="44.51038072295333" lon="9.200873525412698"><ele>778.3333333333333</ele><time>2026-04-30T13:22:02.998Z</time></trkpt><trkpt lat="44.51031149610097" lon="9.201059350626116"><ele>765.0</ele><time>2026-04-30T13:22:03.998Z</time></trkpt><trkpt lat="44.51023708553179" lon="9.201258616359365"><ele>765.0</ele><time>2026-04-30T13:22:04.998Z</time></trkpt><trkpt lat="44.510161007691764" lon="9.201463240603019"><ele>765.0</ele><time>2026-04-30T13:22:05.998Z</time></trkpt><trkpt lat="44.510088721713906" lon="9.201657604113839"><ele>765.0</ele><time>2026-04-30T13:22:06.998Z</time></trkpt><trkpt lat="44.510022036428325" lon="9.20182952182843"><ele>766.0</ele><time>2026-04-30T13:22:07.998Z</time></trkpt><trkpt lat="44.509960071326574" lon="9.201981611000662"><ele>767.0</ele><time>2026-04-30T13:22:08.998Z</time></trkpt><trkpt lat="44.50987979336941" lon="9.202165426642338"><ele>768.0</ele><time>2026-04-30T13:22:09.998Z</time></trkpt><trkpt lat="44.50979412158896" lon="9.202350924672958"><ele>769.0</ele><time>2026-04-30T13:22:10.999Z</time></trkpt><trkpt lat="44.50969597811446" lon="9.202559959688609"><ele>769.0</ele><time>2026-04-30T13:22:11.999Z</time></trkpt><trkpt lat="44.50961267586393" lon="9.20273684978974"><ele>769.0</ele><time>2026-04-30T13:22:12.999Z</time></trkpt><trkpt lat="44.509543986853416" lon="9.202927524986949"><ele>769.0</ele><time>2026-04-30T13:22:13.999Z</time></trkpt><trkpt lat="44.50952270579019" lon="9.203124556016684"><ele>769.0</ele><time>2026-04-30T13:22:14.999Z</time></trkpt><trkpt lat="44.50954759170898" lon="9.203346773201721"><ele>769.0</ele><time>2026-04-30T13:22:15.999Z</time></trkpt><trkpt lat="44.50955874761542" lon="9.203560218855797"><ele>769.0</ele><time>2026-04-30T13:22:16.999Z</time></trkpt><trkpt lat="44.509549806422" lon="9.203781873249861"><ele>769.0</ele><time>2026-04-30T13:22:17.999Z</time></trkpt><trkpt lat="44.50952834971229" lon="9.20402174891362"><ele>769.5</ele><time>2026-04-30T13:22:18.999Z</time></trkpt><trkpt lat="44.50949487933832" lon="9.204226227130457"><ele>770.0</ele><time>2026-04-30T13:22:19.999Z</time></trkpt><trkpt lat="44.50947632559736" lon="9.204415908191141"><ele>770.5</ele><time>2026-04-30T13:22:20.999Z</time></trkpt><trkpt lat="44.5094575380132" lon="9.204578956992615"><ele>771.0</ele><time>2026-04-30T13:22:21.999Z</time></trkpt><trkpt lat="44.509415495597814" lon="9.204727785180719"><ele>775.6666666666667</ele><time>2026-04-30T13:22:22.999Z</time></trkpt><trkpt lat="44.5093430040516" lon="9.204869145373443"><ele>780.3333333333334</ele><time>2026-04-30T13:22:23.999Z</time></trkpt><trkpt lat="44.509237443264595" lon="9.205061799300173"><ele>785.0</ele><time>2026-04-30T13:22:24.999Z</time></trkpt><trkpt lat="44.509137639498995" lon="9.205245508891144"><ele>785.0</ele><time>2026-04-30T13:22:25.999Z</time></trkpt><trkpt lat="44.50903619376697" lon="9.205433693628592"><ele>785.0</ele><time>2026-04-30T13:22:26.999Z</time></trkpt><trkpt lat="44.50892680368813" lon="9.205620951950584"><ele>785.0</ele><time>2026-04-30T13:22:27.999Z</time></trkpt><trkpt lat="44.508837759318" lon="9.205820662483061"><ele>781.25</ele><time>2026-04-30T13:22:28.999Z</time></trkpt><trkpt lat="44.50874113393543" lon="9.20595185387556"><ele>777.5</ele><time>2026-04-30T13:22:29.999Z</time></trkpt><trkpt lat="44.50868387901411" lon="9.206127518001653"><ele>773.75</ele><time>2026-04-30T13:22:30.999Z</time></trkpt><trkpt lat="44.50862382859048" lon="9.206296877986507"><ele>770.0</ele><time>2026-04-30T13:22:31.999Z</time></trkpt><trkpt lat="44.508557129712784" lon="9.206449375360584"><ele>771.25</ele><time>2026-04-30T13:22:32.999Z</time></trkpt><trkpt lat="44.50851257354851" lon="9.206579258970844"><ele>772.5</ele><time>2026-04-30T13:22:33.999Z</time></trkpt><trkpt lat="44.508471644138616" lon="9.206730951481715"><ele>773.75</ele><time>2026-04-30T13:22:34.999Z</time></trkpt><trkpt lat="44.50846732294044" lon="9.206878484290733"><ele>775.0</ele><time>2026-04-30T13:22:35.999Z</time></trkpt><trkpt lat="44.508520985227044" lon="9.207103242621708"><ele>775.0</ele><time>2026-04-30T13:22:36.999Z</time></trkpt><trkpt lat="44.508590334411124" lon="9.20729458676033"><ele>775.0</ele><time>2026-04-30T13:22:37.999Z</time></trkpt><trkpt lat="44.508689741166556" lon="9.207449489193726"><ele>775.0</ele><time>2026-04-30T13:22:38.999Z</time></trkpt><trkpt lat="44.50879902865315" lon="9.207579393497374"><ele>775.0</ele><time>2026-04-30T13:22:39.999Z</time></trkpt><trkpt lat="44.50894599366353" lon="9.207668497068488"><ele>781.25</ele><time>2026-04-30T13:22:40.999Z</time></trkpt><trkpt lat="44.509089579709695" lon="9.207722404666768"><ele>787.5</ele><time>2026-04-30T13:22:41.999Z</time></trkpt><trkpt lat="44.509212666993356" lon="9.207750396841076"><ele>793.75</ele><time>2026-04-30T13:22:42.999Z</time></trkpt><trkpt lat="44.509324481684615" lon="9.207753915516975"><ele>800.0</ele><time>2026-04-30T13:22:43.999Z</time></trkpt><trkpt lat="44.50942854048973" lon="9.207768348739648"><ele>800.0</ele><time>2026-04-30T13:22:44.999Z</time></trkpt><trkpt lat="44.50952138330306" lon="9.207751539006532"><ele>800.0</ele><time>2026-04-30T13:22:45.999Z</time></trkpt><trkpt lat="44.5095826203796" lon="9.207806919440214"><ele>800.0</ele><time>2026-04-30T13:22:46.999Z</time></trkpt><trkpt lat="44.50963130688693" lon="9.207942930129782"><ele>800.0</ele><time>2026-04-30T13:22:48.999Z</time></trkpt><trkpt lat="44.50955981403569" lon="9.208120733142115"><ele>800.0</ele><time>2026-04-30T13:22:50.999Z</time></trkpt><trkpt lat="44.50945975953265" lon="9.208209932162443"><ele>796.0</ele><time>2026-04-30T13:22:51.999Z</time></trkpt><trkpt lat="44.50936342657957" lon="9.208315148569055"><ele>792.0</ele><time>2026-04-30T13:22:52.999Z</time></trkpt><trkpt lat="44.509310546675074" lon="9.208443045063856"><ele>788.0</ele><time>2026-04-30T13:22:53.999Z</time></trkpt><trkpt lat="44.50929394253775" lon="9.208570787326298"><ele>784.0</ele><time>2026-04-30T13:22:54.999Z</time></trkpt><trkpt lat="44.509273329250185" lon="9.208699491469623"><ele>780.0</ele><time>2026-04-30T13:22:55.999Z</time></trkpt><trkpt lat="44.509313990672545" lon="9.208853854526067"><ele>780.0</ele><time>2026-04-30T13:22:56.999Z</time></trkpt><trkpt lat="44.5093838308777" lon="9.20896952339711"><ele>780.0</ele><time>2026-04-30T13:22:57.999Z</time></trkpt><trkpt lat="44.50948632203322" lon="9.209038742824575"><ele>780.0</ele><time>2026-04-30T13:22:58.999Z</time></trkpt><trkpt lat="44.509593468521594" lon="9.209036823946878"><ele>780.0</ele><time>2026-04-30T13:22:59.999Z</time></trkpt><trkpt lat="44.50969438356491" lon="9.208963764122185"><ele>780.0</ele><time>2026-04-30T13:23:00.999Z</time></trkpt><trkpt lat="44.50979918445745" lon="9.208892403151458"><ele>784.5</ele><time>2026-04-30T13:23:01.999Z</time></trkpt><trkpt lat="44.509886095324134" lon="9.208819331627806"><ele>789.0</ele><time>2026-04-30T13:23:02.999Z</time></trkpt><trkpt lat="44.509967489274175" lon="9.208707653885003"><ele>793.5</ele><time>2026-04-30T13:23:03.999Z</time></trkpt><trkpt lat="44.51008487214666" lon="9.208590363113744"><ele>798.0</ele><time>2026-04-30T13:23:04.999Z</time></trkpt><trkpt lat="44.51020025397732" lon="9.20847614291611"><ele>798.0</ele><time>2026-04-30T13:23:05.999Z</time></trkpt><trkpt lat="44.51032569172539" lon="9.208366016443334"><ele>798.0</ele><time>2026-04-30T13:23:06.999Z</time></trkpt><trkpt lat="44.51047794140976" lon="9.208281587631596"><ele>798.0</ele><time>2026-04-30T13:23:07.999Z</time></trkpt><trkpt lat="44.510613647827746" lon="9.208208213376093"><ele>793.0</ele><time>2026-04-30T13:23:08.999Z</time></trkpt><trkpt lat="44.51076286396659" lon="9.208181443258361"><ele>788.0</ele><time>2026-04-30T13:23:09.999Z</time></trkpt><trkpt lat="44.510948378163455" lon="9.208171016959021"><ele>783.0</ele><time>2026-04-30T13:23:10.999Z</time></trkpt><trkpt lat="44.51112185593219" lon="9.208201507232006"><ele>784.0</ele><time>2026-04-30T13:23:11.999Z</time></trkpt><trkpt lat="44.51128929557421" lon="9.208242810457625"><ele>785.0</ele><time>2026-04-30T13:23:12.999Z</time></trkpt><trkpt lat="44.511432292701514" lon="9.20824960384654"><ele>786.0</ele><time>2026-04-30T13:23:13.999Z</time></trkpt><trkpt lat="44.511552014065124" lon="9.2082242159815"><ele>787.0</ele><time>2026-04-30T13:23:14.999Z</time></trkpt><trkpt lat="44.51166688904255" lon="9.208244122586967"><ele>787.0</ele><time>2026-04-30T13:23:15.999Z</time></trkpt><trkpt lat="44.511771459889715" lon="9.208268782533596"><ele>787.0</ele><time>2026-04-30T13:23:16.999Z</time></trkpt><trkpt lat="44.51185990224053" lon="9.208354600472699"><ele>787.0</ele><time>2026-04-30T13:23:17.999Z</time></trkpt><trkpt lat="44.51190572249591" lon="9.208515021991419"><ele>787.0</ele><time>2026-04-30T13:23:18.999Z</time></trkpt><trkpt lat="44.51199517099321" lon="9.20864890390171"><ele>786.25</ele><time>2026-04-30T13:23:19.999Z</time></trkpt><trkpt lat="44.51210488750797" lon="9.208807023196218"><ele>785.5</ele><time>2026-04-30T13:23:20.999Z</time></trkpt><trkpt lat="44.512220571866514" lon="9.208942041846953"><ele>784.75</ele><time>2026-04-30T13:23:21.999Z</time></trkpt><trkpt lat="44.512297255287976" lon="9.209098055211498"><ele>784.0</ele><time>2026-04-30T13:23:22.999Z</time></trkpt><trkpt lat="44.51234408485366" lon="9.209280655981264"><ele>784.0</ele><time>2026-04-30T13:23:23.999Z</time></trkpt><trkpt lat="44.51239549499191" lon="9.209459737856589"><ele>784.0</ele><time>2026-04-30T13:23:24.999Z</time></trkpt><trkpt lat="44.5124299008357" lon="9.20961741840161"><ele>784.0</ele><time>2026-04-30T13:23:25.999Z</time></trkpt><trkpt lat="44.51248178931735" lon="9.209747310245648"><ele>784.0</ele><time>2026-04-30T13:23:26.999Z</time></trkpt><trkpt lat="44.51255460891288" lon="9.209870648178276"><ele>784.0</ele><time>2026-04-30T13:23:27.999Z</time></trkpt><trkpt lat="44.512628456711454" lon="9.209885499664836"><ele>784.0</ele><time>2026-04-30T13:23:28.999Z</time></trkpt><trkpt lat="44.51270757161286" lon="9.209859389412774"><ele>784.0</ele><time>2026-04-30T13:23:29.999Z</time></trkpt><trkpt lat="44.51280055356335" lon="9.20980976157344"><ele>784.0</ele><time>2026-04-30T13:23:30.999Z</time></trkpt><trkpt lat="44.51287456251929" lon="9.209679145731823"><ele>784.0</ele><time>2026-04-30T13:23:31.999Z</time></trkpt><trkpt lat="44.51292599677042" lon="9.20954578935234"><ele>785.8000000000001</ele><time>2026-04-30T13:23:32.999Z</time></trkpt><trkpt lat="44.512992988730296" lon="9.209488705255993"><ele>787.6</ele><time>2026-04-30T13:23:33.999Z</time></trkpt><trkpt lat="44.51306632811342" lon="9.209477239178687"><ele>789.4</ele><time>2026-04-30T13:23:34.999Z</time></trkpt><trkpt lat="44.51315401975875" lon="9.20955759316693"><ele>791.2</ele><time>2026-04-30T13:23:36.999Z</time></trkpt><trkpt lat="44.513129171973276" lon="9.20978802283649"><ele>793.0</ele><time>2026-04-30T13:23:38.999Z</time></trkpt><trkpt lat="44.51309458524005" lon="9.209939696655677"><ele>793.0</ele><time>2026-04-30T13:23:39.999Z</time></trkpt><trkpt lat="44.5130590640793" lon="9.210106032276324"><ele>793.0</ele><time>2026-04-30T13:23:40.999Z</time></trkpt><trkpt lat="44.51306332752388" lon="9.210318505325455"><ele>793.0</ele><time>2026-04-30T13:23:41.999Z</time></trkpt><trkpt lat="44.51303310528991" lon="9.21053092133222"><ele>793.0</ele><time>2026-04-30T13:23:42.999Z</time></trkpt><trkpt lat="44.51300783659202" lon="9.210753096431127"><ele>792.6666666666666</ele><time>2026-04-30T13:23:43.999Z</time></trkpt><trkpt lat="44.512975444114694" lon="9.21098000218994"><ele>792.3333333333333</ele><time>2026-04-30T13:23:44.998Z</time></trkpt><trkpt lat="44.5129332723178" lon="9.211196457758199"><ele>792.0</ele><time>2026-04-30T13:23:45.998Z</time></trkpt><trkpt lat="44.51289883604675" lon="9.211431146147477"><ele>779.0</ele><time>2026-04-30T13:23:46.998Z</time></trkpt><trkpt lat="44.51287742730115" lon="9.211661683148664"><ele>766.0</ele><time>2026-04-30T13:23:47.998Z</time></trkpt><trkpt lat="44.51282401768513" lon="9.21188240843138"><ele>753.0</ele><time>2026-04-30T13:23:48.998Z</time></trkpt><trkpt lat="44.51278686345123" lon="9.212069018156333"><ele>753.0</ele><time>2026-04-30T13:23:49.998Z</time></trkpt><trkpt lat="44.51273536101462" lon="9.212247596057502"><ele>753.0</ele><time>2026-04-30T13:23:50.998Z</time></trkpt><trkpt lat="44.512675370819174" lon="9.212403916342959"><ele>753.0</ele><time>2026-04-30T13:23:51.998Z</time></trkpt><trkpt lat="44.51258962408722" lon="9.212565966624606"><ele>753.0</ele><time>2026-04-30T13:23:52.998Z</time></trkpt><trkpt lat="44.51249663907678" lon="9.212730248363604"><ele>754.5</ele><time>2026-04-30T13:23:53.998Z</time></trkpt><trkpt lat="44.5123928864889" lon="9.212839911361641"><ele>756.0</ele><time>2026-04-30T13:23:54.998Z</time></trkpt><trkpt lat="44.51234764161372" lon="9.212974936620402"><ele>757.5</ele><time>2026-04-30T13:23:55.998Z</time></trkpt><trkpt lat="44.51230669690345" lon="9.213156990328587"><ele>759.0</ele><time>2026-04-30T13:23:56.998Z</time></trkpt><trkpt lat="44.51229299995193" lon="9.213341406080142"><ele>762.0</ele><time>2026-04-30T13:23:57.998Z</time></trkpt><trkpt lat="44.51227338239105" lon="9.213556525665329"><ele>765.0</ele><time>2026-04-30T13:23:58.998Z</time></trkpt><trkpt lat="44.512265054399855" lon="9.2137758859023"><ele>768.0</ele><time>2026-04-30T13:23:59.998Z</time></trkpt><trkpt lat="44.51225482586864" lon="9.213982665549246"><ele>764.75</ele><time>2026-04-30T13:24:00.998Z</time></trkpt><trkpt lat="44.512250716538745" lon="9.214185989486296"><ele>761.5</ele><time>2026-04-30T13:24:01.998Z</time></trkpt><trkpt lat="44.512282511496416" lon="9.21436392530332"><ele>758.25</ele><time>2026-04-30T13:24:02.998Z</time></trkpt><trkpt lat="44.5123192468606" lon="9.214491781705071"><ele>755.0</ele><time>2026-04-30T13:24:03.998Z</time></trkpt><trkpt lat="44.51238163436973" lon="9.214553001796158"><ele>755.0</ele><time>2026-04-30T13:24:04.998Z</time></trkpt><trkpt lat="44.51247651404976" lon="9.214551978732546"><ele>755.0</ele><time>2026-04-30T13:24:05.998Z</time></trkpt><trkpt lat="44.51260919017113" lon="9.214498603052412"><ele>755.0</ele><time>2026-04-30T13:24:06.998Z</time></trkpt><trkpt lat="44.51271052591875" lon="9.214377180334969"><ele>755.0</ele><time>2026-04-30T13:24:07.998Z</time></trkpt><trkpt lat="44.51280118108383" lon="9.214247577381487"><ele>754.0</ele><time>2026-04-30T13:24:08.998Z</time></trkpt><trkpt lat="44.5129152025925" lon="9.214154098247045"><ele>753.0</ele><time>2026-04-30T13:24:09.998Z</time></trkpt><trkpt lat="44.51306506340712" lon="9.21405053901853"><ele>752.0</ele><time>2026-04-30T13:24:10.998Z</time></trkpt><trkpt lat="44.513196990536315" lon="9.21393738127521"><ele>760.6666666666666</ele><time>2026-04-30T13:24:11.998Z</time></trkpt><trkpt lat="44.513345950978945" lon="9.213849714827097"><ele>769.3333333333333</ele><time>2026-04-30T13:24:12.998Z</time></trkpt><trkpt lat="44.51350834189402" lon="9.213751925197187"><ele>778.0</ele><time>2026-04-30T13:24:13.998Z</time></trkpt><trkpt lat="44.5136621283245" lon="9.213637918586134"><ele>770.3333333333333</ele><time>2026-04-30T13:24:14.998Z</time></trkpt><trkpt lat="44.51380668322274" lon="9.21354581707424"><ele>762.6666666666666</ele><time>2026-04-30T13:24:15.998Z</time></trkpt><trkpt lat="44.51395194353741" lon="9.213515072695978"><ele>755.0</ele><time>2026-04-30T13:24:16.998Z</time></trkpt><trkpt lat="44.51408591123241" lon="9.21342536595013"><ele>755.0</ele><time>2026-04-30T13:24:17.998Z</time></trkpt><trkpt lat="44.51418793514351" lon="9.213337145298132"><ele>755.0</ele><time>2026-04-30T13:24:18.998Z</time></trkpt><trkpt lat="44.51426193583352" lon="9.213266070515395"><ele>755.0</ele><time>2026-04-30T13:24:19.998Z</time></trkpt><trkpt lat="44.51433641734746" lon="9.21322257411457"><ele>755.0</ele><time>2026-04-30T13:24:20.998Z</time></trkpt><trkpt lat="44.5144095690056" lon="9.213196140387117"><ele>755.0</ele><time>2026-04-30T13:24:21.998Z</time></trkpt><trkpt lat="44.514521994262466" lon="9.213221728043216"><ele>755.0</ele><time>2026-04-30T13:24:22.998Z</time></trkpt><trkpt lat="44.5146004514864" lon="9.213290861863864"><ele>755.0</ele><time>2026-04-30T13:24:23.998Z</time></trkpt><trkpt lat="44.51463078969599" lon="9.21344214781339"><ele>755.0</ele><time>2026-04-30T13:24:24.998Z</time></trkpt><trkpt lat="44.51459352925388" lon="9.213585465186794"><ele>755.0</ele><time>2026-04-30T13:24:25.998Z</time></trkpt><trkpt lat="44.514529227321454" lon="9.213718855591583"><ele>755.0</ele><time>2026-04-30T13:24:26.998Z</time></trkpt><trkpt lat="44.51444526191627" lon="9.213866126026396"><ele>753.75</ele><time>2026-04-30T13:24:27.998Z</time></trkpt><trkpt lat="44.5143510139345" lon="9.214014211991142"><ele>752.5</ele><time>2026-04-30T13:24:28.998Z</time></trkpt><trkpt lat="44.51427861164672" lon="9.214170877812716"><ele>751.25</ele><time>2026-04-30T13:24:29.998Z</time></trkpt><trkpt lat="44.51417933866375" lon="9.214293426403174"><ele>750.0</ele><time>2026-04-30T13:24:30.998Z</time></trkpt><trkpt lat="44.51406651627349" lon="9.214395701838132"><ele>750.0</ele><time>2026-04-30T13:24:31.998Z</time></trkpt><trkpt lat="44.513938309646804" lon="9.214519223691413"><ele>750.0</ele><time>2026-04-30T13:24:32.998Z</time></trkpt><trkpt lat="44.513813649358305" lon="9.214644125189254"><ele>750.0</ele><time>2026-04-30T13:24:33.998Z</time></trkpt><trkpt lat="44.51371497360145" lon="9.214743697477113"><ele>750.0</ele><time>2026-04-30T13:24:34.998Z</time></trkpt><trkpt lat="44.51361977213923" lon="9.214841266765491"><ele>749.4</ele><time>2026-04-30T13:24:35.998Z</time></trkpt><trkpt lat="44.51353123445236" lon="9.21493397409505"><ele>748.8</ele><time>2026-04-30T13:24:36.998Z</time></trkpt><trkpt lat="44.51345713229515" lon="9.215034892932147"><ele>748.2</ele><time>2026-04-30T13:24:37.998Z</time></trkpt><trkpt lat="44.51340701317251" lon="9.215133781061912"><ele>747.6</ele><time>2026-04-30T13:24:38.998Z</time></trkpt><trkpt lat="44.51336538779916" lon="9.21525593339464"><ele>747.0</ele><time>2026-04-30T13:24:39.998Z</time></trkpt><trkpt lat="44.513397382447685" lon="9.21539141518472"><ele>747.0</ele><time>2026-04-30T13:24:40.998Z</time></trkpt><trkpt lat="44.51346036553567" lon="9.215515222848646"><ele>747.0</ele><time>2026-04-30T13:24:41.998Z</time></trkpt><trkpt lat="44.51356614686147" lon="9.215600085354723"><ele>747.0</ele><time>2026-04-30T13:24:42.998Z</time></trkpt><trkpt lat="44.51365754586601" lon="9.21573932273002"><ele>747.0</ele><time>2026-04-30T13:24:43.998Z</time></trkpt><trkpt lat="44.513771335205284" lon="9.215847406780764"><ele>750.25</ele><time>2026-04-30T13:24:44.998Z</time></trkpt><trkpt lat="44.51386784949524" lon="9.215920633430015"><ele>753.5</ele><time>2026-04-30T13:24:45.998Z</time></trkpt><trkpt lat="44.51397473757069" lon="9.21594770491935"><ele>756.75</ele><time>2026-04-30T13:24:46.998Z</time></trkpt><trkpt lat="44.51409279450261" lon="9.215906039746583"><ele>760.0</ele><time>2026-04-30T13:24:47.998Z</time></trkpt><trkpt lat="44.51420336096459" lon="9.215850888433256"><ele>760.0</ele><time>2026-04-30T13:24:48.998Z</time></trkpt><trkpt lat="44.51433062296254" lon="9.215838158114313"><ele>760.0</ele><time>2026-04-30T13:24:49.998Z</time></trkpt><trkpt lat="44.5144688744128" lon="9.215792198904753"><ele>760.0</ele><time>2026-04-30T13:24:50.998Z</time></trkpt><trkpt lat="44.51457607857476" lon="9.215736520683826"><ele>760.0</ele><time>2026-04-30T13:24:51.998Z</time></trkpt><trkpt lat="44.514671321194264" lon="9.215689164870758"><ele>760.8333333333334</ele><time>2026-04-30T13:24:52.998Z</time></trkpt><trkpt lat="44.51475713092649" lon="9.215619416121658"><ele>761.6666666666667</ele><time>2026-04-30T13:24:53.998Z</time></trkpt><trkpt lat="44.51484162408076" lon="9.215597481789183"><ele>762.5</ele><time>2026-04-30T13:24:54.998Z</time></trkpt><trkpt lat="44.514914116001734" lon="9.215581623376151"><ele>763.3333333333334</ele><time>2026-04-30T13:24:55.997Z</time></trkpt><trkpt lat="44.51496757203881" lon="9.21563237301121"><ele>764.1666666666666</ele><time>2026-04-30T13:24:56.997Z</time></trkpt><trkpt lat="44.5150080145296" lon="9.215766410291575"><ele>765.0</ele><time>2026-04-30T13:24:58.997Z</time></trkpt><trkpt lat="44.51493228057778" lon="9.215851865350617"><ele>765.0</ele><time>2026-04-30T13:24:59.997Z</time></trkpt><trkpt lat="44.51482934694673" lon="9.215920889909858"><ele>765.0</ele><time>2026-04-30T13:25:00.997Z</time></trkpt><trkpt lat="44.514738576514425" lon="9.216006496654982"><ele>765.0</ele><time>2026-04-30T13:25:01.997Z</time></trkpt><trkpt lat="44.51464080331693" lon="9.216116764514616"><ele>765.0</ele><time>2026-04-30T13:25:02.997Z</time></trkpt><trkpt lat="44.51458870367193" lon="9.216285876127834"><ele>771.0</ele><time>2026-04-30T13:25:03.997Z</time></trkpt><trkpt lat="44.51458821932754" lon="9.216529582904204"><ele>777.0</ele><time>2026-04-30T13:25:04.997Z</time></trkpt><trkpt lat="44.51450323838509" lon="9.216736702257329"><ele>783.0</ele><time>2026-04-30T13:25:05.997Z</time></trkpt><trkpt lat="44.514447870723586" lon="9.216932525703724"><ele>772.75</ele><time>2026-04-30T13:25:06.997Z</time></trkpt><trkpt lat="44.51443920976804" lon="9.217076654357147"><ele>762.5</ele><time>2026-04-30T13:25:07.997Z</time></trkpt><trkpt lat="44.51443214625107" lon="9.217232031767235"><ele>752.25</ele><time>2026-04-30T13:25:08.997Z</time></trkpt><trkpt lat="44.51444781169814" lon="9.217421472657948"><ele>742.0</ele><time>2026-04-30T13:25:09.997Z</time></trkpt><trkpt lat="44.51448955136795" lon="9.217616784202718"><ele>741.0</ele><time>2026-04-30T13:25:10.997Z</time></trkpt><trkpt lat="44.51449764459177" lon="9.21778848311739"><ele>740.0</ele><time>2026-04-30T13:25:11.997Z</time></trkpt><trkpt lat="44.51449211247667" lon="9.21793272553164"><ele>739.0</ele><time>2026-04-30T13:25:12.997Z</time></trkpt><trkpt lat="44.51446266511095" lon="9.218044479027256"><ele>738.0</ele><time>2026-04-30T13:25:13.997Z</time></trkpt><trkpt lat="44.514410810591855" lon="9.218179184682976"><ele>737.0</ele><time>2026-04-30T13:25:14.997Z</time></trkpt><trkpt lat="44.514376930798" lon="9.218350028424222"><ele>739.75</ele><time>2026-04-30T13:25:15.997Z</time></trkpt><trkpt lat="44.51434152049957" lon="9.218462474308692"><ele>742.5</ele><time>2026-04-30T13:25:16.997Z</time></trkpt><trkpt lat="44.51426544494521" lon="9.218561521471633"><ele>745.25</ele><time>2026-04-30T13:25:17.997Z</time></trkpt><trkpt lat="44.51415047028526" lon="9.21864989982185"><ele>748.0</ele><time>2026-04-30T13:25:18.997Z</time></trkpt><trkpt lat="44.51402294052982" lon="9.21875814269184"><ele>748.0</ele><time>2026-04-30T13:25:19.997Z</time></trkpt><trkpt lat="44.51390979180212" lon="9.218879898930323"><ele>748.0</ele><time>2026-04-30T13:25:20.997Z</time></trkpt><trkpt lat="44.51379693110742" lon="9.218976694832232"><ele>748.0</ele><time>2026-04-30T13:25:21.997Z</time></trkpt><trkpt lat="44.51366358337176" lon="9.219055909424926"><ele>748.0</ele><time>2026-04-30T13:25:22.997Z</time></trkpt><trkpt lat="44.51353349388921" lon="9.219126764829628"><ele>753.0</ele><time>2026-04-30T13:25:23.997Z</time></trkpt><trkpt lat="44.51339429749812" lon="9.219193069697125"><ele>758.0</ele><time>2026-04-30T13:25:24.997Z</time></trkpt><trkpt lat="44.51324278470532" lon="9.219223797791212"><ele>763.0</ele><time>2026-04-30T13:25:25.997Z</time></trkpt><trkpt lat="44.513081852906204" lon="9.219230447656967"><ele>763.0</ele><time>2026-04-30T13:25:26.997Z</time></trkpt><trkpt lat="44.512910951923246" lon="9.219212347958765"><ele>763.0</ele><time>2026-04-30T13:25:27.997Z</time></trkpt><trkpt lat="44.51273431017689" lon="9.219197370992216"><ele>763.0</ele><time>2026-04-30T13:25:28.997Z</time></trkpt><trkpt lat="44.5125639844255" lon="9.219208535224789"><ele>761.5</ele><time>2026-04-30T13:25:29.997Z</time></trkpt><trkpt lat="44.51241891583088" lon="9.219217856013524"><ele>760.0</ele><time>2026-04-30T13:25:30.997Z</time></trkpt><trkpt lat="44.51227476189049" lon="9.219248076144414"><ele>758.5</ele><time>2026-04-30T13:25:31.997Z</time></trkpt><trkpt lat="44.5121207687069" lon="9.219298936245305"><ele>757.0</ele><time>2026-04-30T13:25:32.997Z</time></trkpt><trkpt lat="44.51198419637716" lon="9.219382966028855"><ele>754.6666666666667</ele><time>2026-04-30T13:25:33.997Z</time></trkpt><trkpt lat="44.51181836883762" lon="9.219485015778757"><ele>752.3333333333334</ele><time>2026-04-30T13:25:34.997Z</time></trkpt><trkpt lat="44.51168154493988" lon="9.219599157345822"><ele>750.0</ele><time>2026-04-30T13:25:35.997Z</time></trkpt><trkpt lat="44.51155636527026" lon="9.21970123132656"><ele>750.0</ele><time>2026-04-30T13:25:36.997Z</time></trkpt><trkpt lat="44.5114483591942" lon="9.219785804504147"><ele>750.0</ele><time>2026-04-30T13:25:37.997Z</time></trkpt><trkpt lat="44.51134005074054" lon="9.219858183444474"><ele>750.0</ele><time>2026-04-30T13:25:38.997Z</time></trkpt><trkpt lat="44.51126298372148" lon="9.219951997973315"><ele>750.0</ele><time>2026-04-30T13:25:39.997Z</time></trkpt><trkpt lat="44.51119110842072" lon="9.220035193777086"><ele>750.0</ele><time>2026-04-30T13:25:40.997Z</time></trkpt><trkpt lat="44.51115133429013" lon="9.220146789098496"><ele>748.5</ele><time>2026-04-30T13:25:41.997Z</time></trkpt><trkpt lat="44.5111708270702" lon="9.220267610962324"><ele>747.0</ele><time>2026-04-30T13:25:42.997Z</time></trkpt><trkpt lat="44.511239277621605" lon="9.220373460622245"><ele>745.5</ele><time>2026-04-30T13:25:43.997Z</time></trkpt><trkpt lat="44.51133201023606" lon="9.220527990927645"><ele>744.0</ele><time>2026-04-30T13:25:44.997Z</time></trkpt><trkpt lat="44.51146413262322" lon="9.220686776867744"><ele>751.3333333333334</ele><time>2026-04-30T13:25:45.997Z</time></trkpt><trkpt lat="44.51158549319221" lon="9.220845374810063"><ele>758.6666666666667</ele><time>2026-04-30T13:25:46.997Z</time></trkpt><trkpt lat="44.511715450063804" lon="9.220992732528117"><ele>766.0</ele><time>2026-04-30T13:25:47.997Z</time></trkpt><trkpt lat="44.51181369781353" lon="9.221201479055408"><ele>766.0</ele><time>2026-04-30T13:25:48.997Z</time></trkpt><trkpt lat="44.51192257765898" lon="9.22140357433874"><ele>766.0</ele><time>2026-04-30T13:25:49.997Z</time></trkpt><trkpt lat="44.512038985897725" lon="9.221588637833555"><ele>766.0</ele><time>2026-04-30T13:25:50.997Z</time></trkpt><trkpt lat="44.51214505756388" lon="9.22171279403879"><ele>770.5</ele><time>2026-04-30T13:25:51.997Z</time></trkpt><trkpt lat="44.51223947206577" lon="9.22184815102151"><ele>775.0</ele><time>2026-04-30T13:25:52.997Z</time></trkpt><trkpt lat="44.51232780310804" lon="9.222004977828764"><ele>779.5</ele><time>2026-04-30T13:25:53.997Z</time></trkpt><trkpt lat="44.51242522819516" lon="9.222134013791486"><ele>784.0</ele><time>2026-04-30T13:25:54.997Z</time></trkpt><trkpt lat="44.51254124912717" lon="9.222228794349723"><ele>784.0</ele><time>2026-04-30T13:25:55.997Z</time></trkpt><trkpt lat="44.51266704592655" lon="9.222322090304605"><ele>784.0</ele><time>2026-04-30T13:25:56.997Z</time></trkpt><trkpt lat="44.51278038353351" lon="9.222302806328017"><ele>784.0</ele><time>2026-04-30T13:25:57.997Z</time></trkpt><trkpt lat="44.51290538930807" lon="9.222292651937012"><ele>784.0</ele><time>2026-04-30T13:25:58.997Z</time></trkpt><trkpt lat="44.513046881519514" lon="9.222247931427212"><ele>788.6666666666666</ele><time>2026-04-30T13:25:59.997Z</time></trkpt><trkpt lat="44.513189648283806" lon="9.22218609885102"><ele>793.3333333333333</ele><time>2026-04-30T13:26:00.996Z</time></trkpt><trkpt lat="44.513332848197834" lon="9.222172479498393"><ele>798.0</ele><time>2026-04-30T13:26:01.996Z</time></trkpt><trkpt lat="44.51348880356403" lon="9.222212912136214"><ele>798.0</ele><time>2026-04-30T13:26:02.996Z</time></trkpt><trkpt lat="44.51366175698708" lon="9.222239060408338"><ele>798.0</ele><time>2026-04-30T13:26:03.996Z</time></trkpt><trkpt lat="44.51381482762675" lon="9.222252716744665"><ele>798.0</ele><time>2026-04-30T13:26:04.996Z</time></trkpt><trkpt lat="44.513977712556624" lon="9.22225959934855"><ele>797.3333333333333</ele><time>2026-04-30T13:26:05.996Z</time></trkpt><trkpt lat="44.51414000723514" lon="9.22226282768113"><ele>796.6666666666666</ele><time>2026-04-30T13:26:06.996Z</time></trkpt><trkpt lat="44.51430250506973" lon="9.222268075695068"><ele>796.0</ele><time>2026-04-30T13:26:07.996Z</time></trkpt><trkpt lat="44.514447301044335" lon="9.222288722770413"><ele>795.3333333333333</ele><time>2026-04-30T13:26:08.996Z</time></trkpt><trkpt lat="44.51460235217055" lon="9.222269898739293"><ele>794.6666666666667</ele><time>2026-04-30T13:26:09.996Z</time></trkpt><trkpt lat="44.51475373646929" lon="9.222210979731484"><ele>794.0</ele><time>2026-04-30T13:26:10.996Z</time></trkpt><trkpt lat="44.51488818723755" lon="9.22216336696373"><ele>794.0</ele><time>2026-04-30T13:26:11.996Z</time></trkpt><trkpt lat="44.51501332552257" lon="9.222157851678276"><ele>794.0</ele><time>2026-04-30T13:26:12.996Z</time></trkpt><trkpt lat="44.515170694594936" lon="9.222203432758148"><ele>794.0</ele><time>2026-04-30T13:26:13.996Z</time></trkpt><trkpt lat="44.51531413879577" lon="9.222218844016204"><ele>794.0</ele><time>2026-04-30T13:26:14.996Z</time></trkpt><trkpt lat="44.51546926362695" lon="9.222205540552174"><ele>796.0</ele><time>2026-04-30T13:26:15.996Z</time></trkpt><trkpt lat="44.515591000481884" lon="9.22218010118664"><ele>798.0</ele><time>2026-04-30T13:26:16.996Z</time></trkpt><trkpt lat="44.51569431541823" lon="9.222156883220192"><ele>800.0</ele><time>2026-04-30T13:26:17.996Z</time></trkpt><trkpt lat="44.51577223518469" lon="9.222173303954957"><ele>802.0</ele><time>2026-04-30T13:26:18.996Z</time></trkpt><trkpt lat="44.51583152127058" lon="9.222216029831621"><ele>804.0</ele><time>2026-04-30T13:26:19.996Z</time></trkpt><trkpt lat="44.515878770399524" lon="9.222345211985234"><ele>796.25</ele><time>2026-04-30T13:26:22.996Z</time></trkpt><trkpt lat="44.51585519905257" lon="9.222482409289864"><ele>788.5</ele><time>2026-04-30T13:26:23.996Z</time></trkpt><trkpt lat="44.51580004581088" lon="9.222615229112373"><ele>780.75</ele><time>2026-04-30T13:26:24.996Z</time></trkpt><trkpt lat="44.51569381569553" lon="9.222734438027082"><ele>773.0</ele><time>2026-04-30T13:26:25.996Z</time></trkpt><trkpt lat="44.51557684892742" lon="9.222857119678913"><ele>773.0</ele><time>2026-04-30T13:26:26.996Z</time></trkpt><trkpt lat="44.51548809350979" lon="9.222952757198563"><ele>773.0</ele><time>2026-04-30T13:26:27.996Z</time></trkpt><trkpt lat="44.515428436160136" lon="9.223037158212664"><ele>773.0</ele><time>2026-04-30T13:26:28.996Z</time></trkpt><trkpt lat="44.51538561147146" lon="9.223176967469547"><ele>773.0</ele><time>2026-04-30T13:26:29.996Z</time></trkpt><trkpt lat="44.51539863683505" lon="9.223296474588487"><ele>773.0</ele><time>2026-04-30T13:26:30.996Z</time></trkpt><trkpt lat="44.51545827315812" lon="9.223420340048248"><ele>773.2</ele><time>2026-04-30T13:26:31.996Z</time></trkpt><trkpt lat="44.51556903340102" lon="9.223479679166234"><ele>773.4</ele><time>2026-04-30T13:26:32.996Z</time></trkpt><trkpt lat="44.5156938260745" lon="9.223561365269864"><ele>773.6</ele><time>2026-04-30T13:26:33.996Z</time></trkpt><trkpt lat="44.51577713785003" lon="9.223627210313241"><ele>773.8000000000001</ele><time>2026-04-30T13:26:34.996Z</time></trkpt><trkpt lat="44.51579702898005" lon="9.223730558022885"><ele>774.0</ele><time>2026-04-30T13:26:35.996Z</time></trkpt><trkpt lat="44.51578431449843" lon="9.223834351255498"><ele>769.75</ele><time>2026-04-30T13:26:36.996Z</time></trkpt><trkpt lat="44.51577043014012" lon="9.223996326239462"><ele>765.5</ele><time>2026-04-30T13:26:37.996Z</time></trkpt><trkpt lat="44.51576784587027" lon="9.224170802079053"><ele>761.25</ele><time>2026-04-30T13:26:38.996Z</time></trkpt><trkpt lat="44.5158004775891" lon="9.224348557622841"><ele>757.0</ele><time>2026-04-30T13:26:39.996Z</time></trkpt><trkpt lat="44.515831621985285" lon="9.224505617037828"><ele>757.0</ele><time>2026-04-30T13:26:40.996Z</time></trkpt><trkpt lat="44.51590097227798" lon="9.224637487386655"><ele>757.0</ele><time>2026-04-30T13:26:41.996Z</time></trkpt><trkpt lat="44.5160070319301" lon="9.224728456407439"><ele>757.0</ele><time>2026-04-30T13:26:42.996Z</time></trkpt><trkpt lat="44.516141855759855" lon="9.224781966522617"><ele>757.0</ele><time>2026-04-30T13:26:43.996Z</time></trkpt><trkpt lat="44.51627162234067" lon="9.224823434494674"><ele>761.4000000000001</ele><time>2026-04-30T13:26:44.996Z</time></trkpt><trkpt lat="44.51638642883924" lon="9.224825197658403"><ele>765.8000000000001</ele><time>2026-04-30T13:26:45.996Z</time></trkpt><trkpt lat="44.51649118863943" lon="9.224812796928013"><ele>770.2</ele><time>2026-04-30T13:26:46.996Z</time></trkpt><trkpt lat="44.51657523871764" lon="9.224830372750468"><ele>774.6</ele><time>2026-04-30T13:26:47.996Z</time></trkpt><trkpt lat="44.51663249253699" lon="9.224901286799865"><ele>779.0</ele><time>2026-04-30T13:26:48.996Z</time></trkpt><trkpt lat="44.51665891331821" lon="9.224995109759606"><ele>779.0</ele><time>2026-04-30T13:26:49.996Z</time></trkpt><trkpt lat="44.51664165051447" lon="9.225133870109055"><ele>779.0</ele><time>2026-04-30T13:26:50.996Z</time></trkpt><trkpt lat="44.516596678309035" lon="9.22527908760487"><ele>779.0</ele><time>2026-04-30T13:26:51.996Z</time></trkpt><trkpt lat="44.5165205267595" lon="9.225382586622136"><ele>779.0</ele><time>2026-04-30T13:26:52.996Z</time></trkpt><trkpt lat="44.51647092575676" lon="9.225510486416404"><ele>779.0</ele><time>2026-04-30T13:26:53.996Z</time></trkpt><trkpt lat="44.51641174304174" lon="9.2256137371789"><ele>778.2</ele><time>2026-04-30T13:26:54.996Z</time></trkpt><trkpt lat="44.51639101598247" lon="9.225754227145787"><ele>777.4000000000001</ele><time>2026-04-30T13:26:55.996Z</time></trkpt><trkpt lat="44.51633193379564" lon="9.225805800993822"><ele>776.6</ele><time>2026-04-30T13:26:56.996Z</time></trkpt><trkpt lat="44.51633811858593" lon="9.225936125855892"><ele>775.8</ele><time>2026-04-30T13:26:57.996Z</time></trkpt><trkpt lat="44.516233300102776" lon="9.226038064737558"><ele>775.0</ele><time>2026-04-30T13:26:59.996Z</time></trkpt><trkpt lat="44.51624468897087" lon="9.226125913646095"><ele>774.9999999999999</ele><time>2026-04-30T13:27:00.996Z</time></trkpt><trkpt lat="44.51620108081291" lon="9.226201891067232"><ele>775.0</ele><time>2026-04-30T13:27:02.996Z</time></trkpt><trkpt lat="44.5161207914455" lon="9.226212702165931"><ele>775.0</ele><time>2026-04-30T13:27:07.996Z</time></trkpt><trkpt lat="44.51624375481257" lon="9.226185654595463"><ele>775.0</ele><time>2026-04-30T13:27:16.995Z</time></trkpt><trkpt lat="44.516301953195594" lon="9.226223863062582"><ele>774.9999999999999</ele><time>2026-04-30T13:29:05.999Z</time></trkpt><trkpt lat="44.51633547897476" lon="9.22636518154961"><ele>775.0</ele><time>2026-04-30T13:34:19.996Z</time></trkpt><trkpt lat="44.51635833588571" lon="9.226282294307119"><ele>774.9999999999999</ele><time>2026-04-30T13:35:58.996Z</time></trkpt><trkpt lat="44.516356792903224" lon="9.226187355952838"><ele>775.0</ele><time>2026-04-30T13:39:33.998Z</time></trkpt><trkpt lat="44.51630253185174" lon="9.226139931435478"><ele>775.0</ele><time>2026-04-30T13:39:56.998Z</time></trkpt><trkpt lat="44.51623182801999" lon="9.22618472326252"><ele>775.0</ele><time>2026-04-30T13:40:53.998Z</time></trkpt><trkpt lat="44.51629539916767" lon="9.226204725011586"><ele>775.0</ele><time>2026-04-30T13:48:54.996Z</time></trkpt><trkpt lat="44.51633971600201" lon="9.226327217975241"><ele>774.9999999999999</ele><time>2026-04-30T13:48:57.996Z</time></trkpt><trkpt lat="44.51634034081606" lon="9.22641905859789"><ele>775.0</ele><time>2026-04-30T13:48:58.996Z</time></trkpt><trkpt lat="44.51634304340629" lon="9.226520462281503"><ele>776.6</ele><time>2026-04-30T13:48:59.996Z</time></trkpt><trkpt lat="44.51632935513791" lon="9.226642101193905"><ele>778.2</ele><time>2026-04-30T13:49:00.996Z</time></trkpt><trkpt lat="44.516282596645915" lon="9.226736124490731"><ele>779.8</ele><time>2026-04-30T13:49:01.996Z</time></trkpt><trkpt lat="44.51624460373485" lon="9.226877201058674"><ele>781.4</ele><time>2026-04-30T13:49:02.996Z</time></trkpt><trkpt lat="44.51621161271202" lon="9.22705009850201"><ele>783.0</ele><time>2026-04-30T13:49:03.996Z</time></trkpt><trkpt lat="44.516160840527945" lon="9.22722860161352"><ele>767.0</ele><time>2026-04-30T13:49:04.996Z</time></trkpt><trkpt lat="44.51610776398785" lon="9.22741409462908"><ele>751.0</ele><time>2026-04-30T13:49:05.996Z</time></trkpt><trkpt lat="44.51605339860902" lon="9.22763785892167"><ele>735.0</ele><time>2026-04-30T13:49:06.996Z</time></trkpt><trkpt lat="44.51599774746125" lon="9.227859893393529"><ele>735.0</ele><time>2026-04-30T13:49:07.996Z</time></trkpt><trkpt lat="44.51594453468587" lon="9.228081884403576"><ele>735.0</ele><time>2026-04-30T13:49:08.996Z</time></trkpt><trkpt lat="44.515889317818825" lon="9.228301763713432"><ele>735.0</ele><time>2026-04-30T13:49:09.996Z</time></trkpt><trkpt lat="44.51585958370485" lon="9.228534616065927"><ele>734.75</ele><time>2026-04-30T13:49:10.996Z</time></trkpt><trkpt lat="44.51581608733277" lon="9.228738391931136"><ele>734.5</ele><time>2026-04-30T13:49:11.996Z</time></trkpt><trkpt lat="44.515828669016074" lon="9.228916087525297"><ele>734.25</ele><time>2026-04-30T13:49:12.996Z</time></trkpt><trkpt lat="44.51587334387572" lon="9.22904510623777"><ele>734.0</ele><time>2026-04-30T13:49:13.996Z</time></trkpt><trkpt lat="44.51591838422102" lon="9.229220142149487"><ele>734.0</ele><time>2026-04-30T13:49:14.996Z</time></trkpt><trkpt lat="44.51597168198818" lon="9.229390443528182"><ele>734.0</ele><time>2026-04-30T13:49:15.996Z</time></trkpt><trkpt lat="44.5160378618948" lon="9.229535240847975"><ele>734.0</ele><time>2026-04-30T13:49:16.996Z</time></trkpt><trkpt lat="44.5161276877127" lon="9.229637504733805"><ele>734.0</ele><time>2026-04-30T13:49:17.996Z</time></trkpt><trkpt lat="44.51627155898226" lon="9.229730757666426"><ele>740.75</ele><time>2026-04-30T13:49:18.996Z</time></trkpt><trkpt lat="44.51642650765093" lon="9.229765458645494"><ele>747.5</ele><time>2026-04-30T13:49:19.996Z</time></trkpt><trkpt lat="44.51656988048367" lon="9.229743047704483"><ele>754.25</ele><time>2026-04-30T13:49:20.996Z</time></trkpt><trkpt lat="44.51669479820146" lon="9.229692379099799"><ele>761.0</ele><time>2026-04-30T13:49:21.996Z</time></trkpt><trkpt lat="44.51682220822656" lon="9.229635384894614"><ele>761.0</ele><time>2026-04-30T13:49:22.996Z</time></trkpt><trkpt lat="44.51695236421491" lon="9.229580798958601"><ele>761.0</ele><time>2026-04-30T13:49:23.996Z</time></trkpt><trkpt lat="44.517106564263294" lon="9.229551241715125"><ele>761.0</ele><time>2026-04-30T13:49:24.996Z</time></trkpt><trkpt lat="44.51726864199522" lon="9.229557264343288"><ele>759.0</ele><time>2026-04-30T13:49:25.995Z</time></trkpt><trkpt lat="44.51744241138382" lon="9.22956600679832"><ele>757.0</ele><time>2026-04-30T13:49:26.995Z</time></trkpt><trkpt lat="44.51761837533673" lon="9.229559218575819"><ele>755.0</ele><time>2026-04-30T13:49:27.995Z</time></trkpt><trkpt lat="44.517781157983684" lon="9.22953692819472"><ele>749.6666666666666</ele><time>2026-04-30T13:49:28.995Z</time></trkpt><trkpt lat="44.51794220677895" lon="9.229509563310282"><ele>744.3333333333334</ele><time>2026-04-30T13:49:29.995Z</time></trkpt><trkpt lat="44.518108157032096" lon="9.22950822513101"><ele>739.0</ele><time>2026-04-30T13:49:30.995Z</time></trkpt><trkpt lat="44.518292965675194" lon="9.229550450194797"><ele>739.0</ele><time>2026-04-30T13:49:31.995Z</time></trkpt><trkpt lat="44.51846349000671" lon="9.229628019319845"><ele>739.0</ele><time>2026-04-30T13:49:32.995Z</time></trkpt><trkpt lat="44.518644868216775" lon="9.229716756231069"><ele>739.0</ele><time>2026-04-30T13:49:33.995Z</time></trkpt><trkpt lat="44.51884140334444" lon="9.229813051083722"><ele>733.6666666666667</ele><time>2026-04-30T13:49:34.995Z</time></trkpt><trkpt lat="44.51901745515553" lon="9.229879638616929"><ele>728.3333333333334</ele><time>2026-04-30T13:49:35.995Z</time></trkpt><trkpt lat="44.51918390956611" lon="9.229981256393117"><ele>723.0</ele><time>2026-04-30T13:49:36.995Z</time></trkpt><trkpt lat="44.51933212160668" lon="9.230053733112365"><ele>723.0</ele><time>2026-04-30T13:49:37.995Z</time></trkpt><trkpt lat="44.51949417975372" lon="9.230132157842558"><ele>723.0</ele><time>2026-04-30T13:49:38.995Z</time></trkpt><trkpt lat="44.51965314478132" lon="9.230199047129949"><ele>723.0</ele><time>2026-04-30T13:49:39.995Z</time></trkpt><trkpt lat="44.519785595680176" lon="9.230359416520713"><ele>720.6666666666666</ele><time>2026-04-30T13:49:40.995Z</time></trkpt><trkpt lat="44.519911602160334" lon="9.23050049357759"><ele>718.3333333333333</ele><time>2026-04-30T13:49:41.995Z</time></trkpt><trkpt lat="44.52003447605214" lon="9.230664530027827"><ele>716.0</ele><time>2026-04-30T13:49:42.995Z</time></trkpt><trkpt lat="44.52023289786231" lon="9.230831841964612"><ele>716.0</ele><time>2026-04-30T13:49:43.995Z</time></trkpt><trkpt lat="44.52039034053284" lon="9.23100226990157"><ele>716.0</ele><time>2026-04-30T13:49:44.995Z</time></trkpt><trkpt lat="44.520526648122924" lon="9.231188842618414"><ele>716.0</ele><time>2026-04-30T13:49:45.995Z</time></trkpt><trkpt lat="44.52066436957088" lon="9.231334508820908"><ele>714.0</ele><time>2026-04-30T13:49:46.995Z</time></trkpt><trkpt lat="44.5208147845057" lon="9.231467882776906"><ele>712.0</ele><time>2026-04-30T13:49:47.995Z</time></trkpt><trkpt lat="44.52095691605668" lon="9.231665379995754"><ele>710.0</ele><time>2026-04-30T13:49:48.995Z</time></trkpt><trkpt lat="44.52111780345155" lon="9.231782388481262"><ele>715.6666666666666</ele><time>2026-04-30T13:49:49.995Z</time></trkpt><trkpt lat="44.52125419558746" lon="9.231912987504455"><ele>721.3333333333334</ele><time>2026-04-30T13:49:50.995Z</time></trkpt><trkpt lat="44.52138448020253" lon="9.232084425878343"><ele>727.0</ele><time>2026-04-30T13:49:51.995Z</time></trkpt><trkpt lat="44.5214986751319" lon="9.23225038886493"><ele>722.0</ele><time>2026-04-30T13:49:52.995Z</time></trkpt><trkpt lat="44.52159721955408" lon="9.232407957387162"><ele>717.0</ele><time>2026-04-30T13:49:53.995Z</time></trkpt><trkpt lat="44.521662762034246" lon="9.232586986328567"><ele>712.0</ele><time>2026-04-30T13:49:54.995Z</time></trkpt><trkpt lat="44.52170163547409" lon="9.232794420021602"><ele>707.0</ele><time>2026-04-30T13:49:55.995Z</time></trkpt><trkpt lat="44.52173274305388" lon="9.233011212382937"><ele>705.0</ele><time>2026-04-30T13:49:56.995Z</time></trkpt><trkpt lat="44.52176237711139" lon="9.233232247901396"><ele>703.0</ele><time>2026-04-30T13:49:57.995Z</time></trkpt><trkpt lat="44.521786607193114" lon="9.233446952687023"><ele>701.0</ele><time>2026-04-30T13:49:58.995Z</time></trkpt><trkpt lat="44.52180246076553" lon="9.233678280570855"><ele>701.0</ele><time>2026-04-30T13:49:59.995Z</time></trkpt><trkpt lat="44.52181721400842" lon="9.233920074438913"><ele>701.0</ele><time>2026-04-30T13:50:00.995Z</time></trkpt><trkpt lat="44.52186702474421" lon="9.234190857100751"><ele>701.0</ele><time>2026-04-30T13:50:01.995Z</time></trkpt><trkpt lat="44.521957485249324" lon="9.234377203515422"><ele>703.3333333333333</ele><time>2026-04-30T13:50:02.995Z</time></trkpt><trkpt lat="44.522069115794764" lon="9.234527102292704"><ele>705.6666666666666</ele><time>2026-04-30T13:50:03.995Z</time></trkpt><trkpt lat="44.52219533557336" lon="9.234683065482356"><ele>708.0</ele><time>2026-04-30T13:50:04.995Z</time></trkpt><trkpt lat="44.522307976374236" lon="9.234822122746861"><ele>701.6666666666666</ele><time>2026-04-30T13:50:05.995Z</time></trkpt><trkpt lat="44.522442027377494" lon="9.234982081389157"><ele>695.3333333333333</ele><time>2026-04-30T13:50:06.995Z</time></trkpt><trkpt lat="44.522582481296844" lon="9.235138682355155"><ele>689.0</ele><time>2026-04-30T13:50:07.995Z</time></trkpt><trkpt lat="44.52271293099309" lon="9.235280900690213"><ele>689.0</ele><time>2026-04-30T13:50:08.995Z</time></trkpt><trkpt lat="44.5228591326958" lon="9.235433684739599"><ele>689.0</ele><time>2026-04-30T13:50:09.995Z</time></trkpt><trkpt lat="44.523024847375694" lon="9.23550758837411"><ele>689.0</ele><time>2026-04-30T13:50:10.995Z</time></trkpt><trkpt lat="44.523212238281786" lon="9.235601246460773"><ele>689.6666666666666</ele><time>2026-04-30T13:50:11.995Z</time></trkpt><trkpt lat="44.52340327892817" lon="9.235664057131466"><ele>690.3333333333334</ele><time>2026-04-30T13:50:12.995Z</time></trkpt><trkpt lat="44.52359991612421" lon="9.235745935887115"><ele>691.0</ele><time>2026-04-30T13:50:13.995Z</time></trkpt><trkpt lat="44.52378942528849" lon="9.235808478387884"><ele>691.0</ele><time>2026-04-30T13:50:14.995Z</time></trkpt><trkpt lat="44.52399138023787" lon="9.235884746085652"><ele>691.0</ele><time>2026-04-30T13:50:15.995Z</time></trkpt><trkpt lat="44.52419696711095" lon="9.235951573501186"><ele>691.0</ele><time>2026-04-30T13:50:16.995Z</time></trkpt><trkpt lat="44.52439955284638" lon="9.23599172481116"><ele>694.3333333333334</ele><time>2026-04-30T13:50:17.995Z</time></trkpt><trkpt lat="44.52460944899196" lon="9.236065351549374"><ele>697.6666666666666</ele><time>2026-04-30T13:50:18.995Z</time></trkpt><trkpt lat="44.52478851930935" lon="9.236136498879327"><ele>701.0</ele><time>2026-04-30T13:50:19.995Z</time></trkpt><trkpt lat="44.52493926126037" lon="9.23622626359983"><ele>701.0</ele><time>2026-04-30T13:50:21.001Z</time></trkpt><trkpt lat="44.52504746010324" lon="9.23633734825504"><ele>701.0</ele><time>2026-04-30T13:50:22.001Z</time></trkpt><trkpt lat="44.52514082277528" lon="9.23646992437783"><ele>701.0</ele><time>2026-04-30T13:50:23.001Z</time></trkpt><trkpt lat="44.52523706630311" lon="9.236651366680348"><ele>701.0</ele><time>2026-04-30T13:50:24.001Z</time></trkpt><trkpt lat="44.52535447481687" lon="9.236872122122671"><ele>698.6666666666666</ele><time>2026-04-30T13:50:25.001Z</time></trkpt><trkpt lat="44.52548890108859" lon="9.237088715661375"><ele>696.3333333333334</ele><time>2026-04-30T13:50:26.001Z</time></trkpt><trkpt lat="44.52563859348373" lon="9.237245839377758"><ele>694.0</ele><time>2026-04-30T13:50:27.001Z</time></trkpt><trkpt lat="44.52578841746599" lon="9.237345461942999"><ele>686.3333333333334</ele><time>2026-04-30T13:50:28.001Z</time></trkpt><trkpt lat="44.52591663344244" lon="9.237501654090176"><ele>678.6666666666666</ele><time>2026-04-30T13:50:29.001Z</time></trkpt><trkpt lat="44.52602928090865" lon="9.237665538128116"><ele>671.0</ele><time>2026-04-30T13:50:30.001Z</time></trkpt><trkpt lat="44.52613679944012" lon="9.237833085738506"><ele>676.25</ele><time>2026-04-30T13:50:31.001Z</time></trkpt><trkpt lat="44.52624307340385" lon="9.237999572635392"><ele>681.5</ele><time>2026-04-30T13:50:32.001Z</time></trkpt><trkpt lat="44.52632962038596" lon="9.238163530531429"><ele>686.75</ele><time>2026-04-30T13:50:33.001Z</time></trkpt><trkpt lat="44.52636281642279" lon="9.23835893949854"><ele>692.0</ele><time>2026-04-30T13:50:34.001Z</time></trkpt><trkpt lat="44.52638726846015" lon="9.23855120172431"><ele>692.0</ele><time>2026-04-30T13:50:35.001Z</time></trkpt><trkpt lat="44.52638601574062" lon="9.238700188284119"><ele>692.0</ele><time>2026-04-30T13:50:36.001Z</time></trkpt><trkpt lat="44.52635755081292" lon="9.238880450585327"><ele>692.0</ele><time>2026-04-30T13:50:37.001Z</time></trkpt><trkpt lat="44.526294009847824" lon="9.239078366600024"><ele>692.0</ele><time>2026-04-30T13:50:38Z</time></trkpt><trkpt lat="44.52622737413685" lon="9.239266071191336"><ele>685.0</ele><time>2026-04-30T13:50:39Z</time></trkpt><trkpt lat="44.52608545046748" lon="9.239651827011901"><ele>678.0</ele><time>2026-04-30T13:50:41Z</time></trkpt><trkpt lat="44.526027499710274" lon="9.239824654642014"><ele>671.0</ele><time>2026-04-30T13:50:42Z</time></trkpt><trkpt lat="44.52599720003635" lon="9.240013529360418"><ele>670.0</ele><time>2026-04-30T13:50:43Z</time></trkpt><trkpt lat="44.526000377594166" lon="9.24018897474544"><ele>669.0</ele><time>2026-04-30T13:50:44Z</time></trkpt><trkpt lat="44.52604742268873" lon="9.240346757002458"><ele>668.0</ele><time>2026-04-30T13:50:45Z</time></trkpt><trkpt lat="44.52607916568547" lon="9.240517412724959"><ele>667.0</ele><time>2026-04-30T13:50:46Z</time></trkpt><trkpt lat="44.52612649889027" lon="9.240703743291178"><ele>667.25</ele><time>2026-04-30T13:50:47Z</time></trkpt><trkpt lat="44.52617095706336" lon="9.240889108532487"><ele>667.5</ele><time>2026-04-30T13:50:48Z</time></trkpt><trkpt lat="44.526220462607526" lon="9.241088689721167"><ele>667.75</ele><time>2026-04-30T13:50:49Z</time></trkpt><trkpt lat="44.526263508489464" lon="9.241267359990585"><ele>668.0</ele><time>2026-04-30T13:50:50Z</time></trkpt><trkpt lat="44.52629208670026" lon="9.241459419775468"><ele>667.5</ele><time>2026-04-30T13:50:51Z</time></trkpt><trkpt lat="44.526307005404206" lon="9.24165610063861"><ele>667.0</ele><time>2026-04-30T13:50:52Z</time></trkpt><trkpt lat="44.52626355153636" lon="9.241823008002044"><ele>666.5</ele><time>2026-04-30T13:50:53Z</time></trkpt><trkpt lat="44.52623883081425" lon="9.242048630953027"><ele>666.0</ele><time>2026-04-30T13:50:54Z</time></trkpt><trkpt lat="44.526218197586125" lon="9.242239303665377"><ele>665.3333333333334</ele><time>2026-04-30T13:50:55Z</time></trkpt><trkpt lat="44.52619314707069" lon="9.242468649735752"><ele>664.6666666666667</ele><time>2026-04-30T13:50:56Z</time></trkpt><trkpt lat="44.526167979379565" lon="9.242697183190803"><ele>664.0</ele><time>2026-04-30T13:50:57Z</time></trkpt><trkpt lat="44.526141489710746" lon="9.242907113710489"><ele>664.0</ele><time>2026-04-30T13:50:58Z</time></trkpt><trkpt lat="44.52610303320235" lon="9.243071019086011"><ele>664.0</ele><time>2026-04-30T13:50:59Z</time></trkpt><trkpt lat="44.52602842589407" lon="9.243236422819544"><ele>664.0</ele><time>2026-04-30T13:51:00Z</time></trkpt><trkpt lat="44.52591936398494" lon="9.243387666576073"><ele>664.0</ele><time>2026-04-30T13:51:01Z</time></trkpt><trkpt lat="44.525828288773525" lon="9.243604349918591"><ele>665.6666666666667</ele><time>2026-04-30T13:51:02Z</time></trkpt><trkpt lat="44.52578113724823" lon="9.243800101660005"><ele>667.3333333333334</ele><time>2026-04-30T13:51:03Z</time></trkpt><trkpt lat="44.525733631721664" lon="9.244005854091695"><ele>669.0</ele><time>2026-04-30T13:51:04Z</time></trkpt><trkpt lat="44.52566529490453" lon="9.24420956395244"><ele>671.3333333333334</ele><time>2026-04-30T13:51:05Z</time></trkpt><trkpt lat="44.52559767625466" lon="9.244421162077078"><ele>673.6666666666667</ele><time>2026-04-30T13:51:06Z</time></trkpt><trkpt lat="44.5255298357252" lon="9.244625189311332"><ele>676.0</ele><time>2026-04-30T13:51:07Z</time></trkpt><trkpt lat="44.52547690266271" lon="9.244820751703084"><ele>677.25</ele><time>2026-04-30T13:51:08Z</time></trkpt><trkpt lat="44.525423499136075" lon="9.245020106593872"><ele>678.5</ele><time>2026-04-30T13:51:09Z</time></trkpt><trkpt lat="44.52538431189529" lon="9.245209781228265"><ele>679.75</ele><time>2026-04-30T13:51:10Z</time></trkpt><trkpt lat="44.52534119149656" lon="9.245405216762054"><ele>681.0</ele><time>2026-04-30T13:51:11Z</time></trkpt><trkpt lat="44.52530684449938" lon="9.245587024875826"><ele>676.5999999999999</ele><time>2026-04-30T13:51:12Z</time></trkpt><trkpt lat="44.525291248532184" lon="9.24576270988132"><ele>672.2</ele><time>2026-04-30T13:51:12.999Z</time></trkpt><trkpt lat="44.5252800803547" lon="9.245917868374905"><ele>667.8</ele><time>2026-04-30T13:51:13.999Z</time></trkpt><trkpt lat="44.52526277285782" lon="9.2460702730669"><ele>663.4000000000001</ele><time>2026-04-30T13:51:14.999Z</time></trkpt><trkpt lat="44.52524415238876" lon="9.246186665575664"><ele>659.0</ele><time>2026-04-30T13:51:15.999Z</time></trkpt><trkpt lat="44.52521189406575" lon="9.24632155156693"><ele>659.5</ele><time>2026-04-30T13:51:16.999Z</time></trkpt><trkpt lat="44.52517661838112" lon="9.246482151430188"><ele>660.0</ele><time>2026-04-30T13:51:17.999Z</time></trkpt><trkpt lat="44.52515888725456" lon="9.24662342892736"><ele>660.5</ele><time>2026-04-30T13:51:18.999Z</time></trkpt><trkpt lat="44.525194344429366" lon="9.246812518041128"><ele>661.0</ele><time>2026-04-30T13:51:19.999Z</time></trkpt><trkpt lat="44.525224835144705" lon="9.246934876253654"><ele>661.0</ele><time>2026-04-30T13:51:20.999Z</time></trkpt><trkpt lat="44.52525195098371" lon="9.247092522775457"><ele>661.0</ele><time>2026-04-30T13:51:21.999Z</time></trkpt><trkpt lat="44.5253419162219" lon="9.24718184316044"><ele>661.0</ele><time>2026-04-30T13:51:22.999Z</time></trkpt><trkpt lat="44.525394788820456" lon="9.247284931576802"><ele>661.0</ele><time>2026-04-30T13:51:23.999Z</time></trkpt><trkpt lat="44.52543624356323" lon="9.247389227503623"><ele>661.0</ele><time>2026-04-30T13:51:24.999Z</time></trkpt><trkpt lat="44.52550161991218" lon="9.247481544950892"><ele>662.0</ele><time>2026-04-30T13:51:25.999Z</time></trkpt><trkpt lat="44.525541552757275" lon="9.247584188042554"><ele>663.0</ele><time>2026-04-30T13:51:26.999Z</time></trkpt><trkpt lat="44.52558237809346" lon="9.247671198657988"><ele>664.0</ele><time>2026-04-30T13:51:27.999Z</time></trkpt><trkpt lat="44.52565590259565" lon="9.247740881948657"><ele>665.0</ele><time>2026-04-30T13:51:28.999Z</time></trkpt><trkpt lat="44.52570108472118" lon="9.247842496472582"><ele>666.0</ele><time>2026-04-30T13:51:29.999Z</time></trkpt><trkpt lat="44.52574167670172" lon="9.247927580179997"><ele>667.0</ele><time>2026-04-30T13:51:30.999Z</time></trkpt><trkpt lat="44.52578643117368" lon="9.248024647783142"><ele>667.0</ele><time>2026-04-30T13:51:31.999Z</time></trkpt><trkpt lat="44.52583271947187" lon="9.248126080130714"><ele>667.0</ele><time>2026-04-30T13:51:32.999Z</time></trkpt><trkpt lat="44.525898273032624" lon="9.248223359004777"><ele>667.0</ele><time>2026-04-30T13:51:33.999Z</time></trkpt><trkpt lat="44.52593517521122" lon="9.248333428783258"><ele>667.0</ele><time>2026-04-30T13:51:34.999Z</time></trkpt><trkpt lat="44.525978673261655" lon="9.248407736471679"><ele>667.0</ele><time>2026-04-30T13:51:35.999Z</time></trkpt><trkpt lat="44.52603035496608" lon="9.248509157433036"><ele>667.0</ele><time>2026-04-30T13:51:36.999Z</time></trkpt><trkpt lat="44.526081442095276" lon="9.248600877674233"><ele>666.6</ele><time>2026-04-30T13:51:37.999Z</time></trkpt><trkpt lat="44.526118311029066" lon="9.24871300260068"><ele>666.2</ele><time>2026-04-30T13:51:38.999Z</time></trkpt><trkpt lat="44.52617076292583" lon="9.248821641472148"><ele>665.8</ele><time>2026-04-30T13:51:39.999Z</time></trkpt><trkpt lat="44.52622195457584" lon="9.248929135939084"><ele>665.4</ele><time>2026-04-30T13:51:40.999Z</time></trkpt><trkpt lat="44.526272542012364" lon="9.24903531282363"><ele>665.0</ele><time>2026-04-30T13:51:41.999Z</time></trkpt><trkpt lat="44.526330821112836" lon="9.249152702236831"><ele>665.0</ele><time>2026-04-30T13:51:42.999Z</time></trkpt><trkpt lat="44.52643794988054" lon="9.249220781954579"><ele>665.0</ele><time>2026-04-30T13:51:43.999Z</time></trkpt><trkpt lat="44.526513105794756" lon="9.249308850611893"><ele>665.0</ele><time>2026-04-30T13:51:44.999Z</time></trkpt><trkpt lat="44.52657604503403" lon="9.249420957031496"><ele>665.0</ele><time>2026-04-30T13:51:45.999Z</time></trkpt><trkpt lat="44.52662485502739" lon="9.249551914763146"><ele>665.0</ele><time>2026-04-30T13:51:46.999Z</time></trkpt><trkpt lat="44.52663600688865" lon="9.2497161694696"><ele>663.8</ele><time>2026-04-30T13:51:47.999Z</time></trkpt><trkpt lat="44.5266886954766" lon="9.24984153894899"><ele>662.6</ele><time>2026-04-30T13:51:48.999Z</time></trkpt><trkpt lat="44.52677928627299" lon="9.24995862528356"><ele>661.4000000000001</ele><time>2026-04-30T13:51:49.999Z</time></trkpt><trkpt lat="44.526847240440055" lon="9.250082468000123"><ele>660.2</ele><time>2026-04-30T13:51:50.999Z</time></trkpt><trkpt lat="44.52693915701696" lon="9.250167546791952"><ele>659.0</ele><time>2026-04-30T13:51:51.999Z</time></trkpt><trkpt lat="44.52703111231447" lon="9.250279654844858"><ele>658.25</ele><time>2026-04-30T13:51:52.999Z</time></trkpt><trkpt lat="44.5271332772526" lon="9.250370982780145"><ele>657.5</ele><time>2026-04-30T13:51:53.999Z</time></trkpt><trkpt lat="44.52722519486204" lon="9.250464573888642"><ele>656.75</ele><time>2026-04-30T13:51:54.999Z</time></trkpt><trkpt lat="44.527287039658" lon="9.2505818181162"><ele>656.0</ele><time>2026-04-30T13:51:55.999Z</time></trkpt><trkpt lat="44.5273604421173" lon="9.250714462527188"><ele>656.0</ele><time>2026-04-30T13:51:56.999Z</time></trkpt><trkpt lat="44.5274337753706" lon="9.250831905216833"><ele>656.0</ele><time>2026-04-30T13:51:57.999Z</time></trkpt><trkpt lat="44.52750912018815" lon="9.250953358505033"><ele>656.0</ele><time>2026-04-30T13:51:58.999Z</time></trkpt><trkpt lat="44.527596784021384" lon="9.251048776476864"><ele>656.0</ele><time>2026-04-30T13:51:59.999Z</time></trkpt><trkpt lat="44.527713527489645" lon="9.251132135683514"><ele>656.0</ele><time>2026-04-30T13:52:00.999Z</time></trkpt><trkpt lat="44.52780930025966" lon="9.251218415555686"><ele>656.0</ele><time>2026-04-30T13:52:01.999Z</time></trkpt><trkpt lat="44.527907838838395" lon="9.25130886452997"><ele>656.0</ele><time>2026-04-30T13:52:02.999Z</time></trkpt><trkpt lat="44.52800991777589" lon="9.251391985006764"><ele>656.0</ele><time>2026-04-30T13:52:03.999Z</time></trkpt><trkpt lat="44.52810753294156" lon="9.251504140418733"><ele>660.5</ele><time>2026-04-30T13:52:04.999Z</time></trkpt><trkpt lat="44.52816780436745" lon="9.251643704722644"><ele>665.0</ele><time>2026-04-30T13:52:05.999Z</time></trkpt><trkpt lat="44.528218103547914" lon="9.251785282407253"><ele>669.5</ele><time>2026-04-30T13:52:06.999Z</time></trkpt><trkpt lat="44.52826034023306" lon="9.251941953471125"><ele>674.0</ele><time>2026-04-30T13:52:07.999Z</time></trkpt><trkpt lat="44.52828596484777" lon="9.252124033914994"><ele>673.3333333333333</ele><time>2026-04-30T13:52:08.999Z</time></trkpt><trkpt lat="44.5282956457986" lon="9.252337780779342"><ele>672.6666666666666</ele><time>2026-04-30T13:52:09.999Z</time></trkpt><trkpt lat="44.52829364598791" lon="9.252554774826104"><ele>672.0</ele><time>2026-04-30T13:52:10.998Z</time></trkpt><trkpt lat="44.52828576621816" lon="9.252764232574721"><ele>672.0</ele><time>2026-04-30T13:52:11.998Z</time></trkpt><trkpt lat="44.528252747612036" lon="9.252944377413343"><ele>672.0</ele><time>2026-04-30T13:52:12.998Z</time></trkpt><trkpt lat="44.52819416630656" lon="9.253095948179867"><ele>672.0</ele><time>2026-04-30T13:52:13.998Z</time></trkpt><trkpt lat="44.52810640656684" lon="9.253255247019071"><ele>672.0</ele><time>2026-04-30T13:52:14.998Z</time></trkpt><trkpt lat="44.52800189761516" lon="9.253445389880804"><ele>673.3333333333334</ele><time>2026-04-30T13:52:15.998Z</time></trkpt><trkpt lat="44.527896083592914" lon="9.253637907164856"><ele>674.6666666666667</ele><time>2026-04-30T13:52:16.998Z</time></trkpt><trkpt lat="44.52778993404793" lon="9.2538310946749"><ele>676.0</ele><time>2026-04-30T13:52:17.998Z</time></trkpt><trkpt lat="44.52769048000484" lon="9.254016597763128"><ele>669.6666666666667</ele><time>2026-04-30T13:52:18.998Z</time></trkpt><trkpt lat="44.527588462494094" lon="9.254204818009546"><ele>663.3333333333334</ele><time>2026-04-30T13:52:19.998Z</time></trkpt><trkpt lat="44.52749226985733" lon="9.254380782393525"><ele>657.0</ele><time>2026-04-30T13:52:20.998Z</time></trkpt><trkpt lat="44.52739045197486" lon="9.254567037395644"><ele>657.0</ele><time>2026-04-30T13:52:21.998Z</time></trkpt><trkpt lat="44.52729227943925" lon="9.254746623690885"><ele>657.0</ele><time>2026-04-30T13:52:22.998Z</time></trkpt><trkpt lat="44.52718689710671" lon="9.254939399179962"><ele>657.0</ele><time>2026-04-30T13:52:23.998Z</time></trkpt><trkpt lat="44.52709462130733" lon="9.25510819871754"><ele>656.0</ele><time>2026-04-30T13:52:24.998Z</time></trkpt><trkpt lat="44.52700165389582" lon="9.255287163654842"><ele>655.0</ele><time>2026-04-30T13:52:25.998Z</time></trkpt><trkpt lat="44.526915963510284" lon="9.255475118875795"><ele>654.0</ele><time>2026-04-30T13:52:26.998Z</time></trkpt><trkpt lat="44.52683125420246" lon="9.255662667914605"><ele>656.0</ele><time>2026-04-30T13:52:27.998Z</time></trkpt><trkpt lat="44.526744086303836" lon="9.255855660653278"><ele>658.0</ele><time>2026-04-30T13:52:28.998Z</time></trkpt><trkpt lat="44.526656574633236" lon="9.256047876723505"><ele>660.0</ele><time>2026-04-30T13:52:29.998Z</time></trkpt><trkpt lat="44.526568335449525" lon="9.25624031755973"><ele>660.0</ele><time>2026-04-30T13:52:30.998Z</time></trkpt><trkpt lat="44.526486902817716" lon="9.256434363093526"><ele>660.0</ele><time>2026-04-30T13:52:31.998Z</time></trkpt><trkpt lat="44.526436580481366" lon="9.256658424926867"><ele>660.0</ele><time>2026-04-30T13:52:32.998Z</time></trkpt><trkpt lat="44.5263881761549" lon="9.256879944228855"><ele>662.3333333333334</ele><time>2026-04-30T13:52:33.998Z</time></trkpt><trkpt lat="44.52635907236956" lon="9.257121212872338"><ele>664.6666666666667</ele><time>2026-04-30T13:52:34.998Z</time></trkpt><trkpt lat="44.526366529271286" lon="9.257364903135914"><ele>667.0</ele><time>2026-04-30T13:52:35.998Z</time></trkpt><trkpt lat="44.52636595422518" lon="9.257574517668912"><ele>668.0</ele><time>2026-04-30T13:52:36.998Z</time></trkpt><trkpt lat="44.526408670729374" lon="9.257820397792171"><ele>669.0</ele><time>2026-04-30T13:52:37.998Z</time></trkpt><trkpt lat="44.52647608525606" lon="9.258051447982014"><ele>670.0</ele><time>2026-04-30T13:52:38.998Z</time></trkpt><trkpt lat="44.526591220013344" lon="9.258247938657604"><ele>666.0</ele><time>2026-04-30T13:52:39.998Z</time></trkpt><trkpt lat="44.52671377054743" lon="9.258426764620747"><ele>662.0</ele><time>2026-04-30T13:52:40.998Z</time></trkpt><trkpt lat="44.526857203687" lon="9.258586248993028"><ele>658.0</ele><time>2026-04-30T13:52:41.998Z</time></trkpt><trkpt lat="44.5270156161334" lon="9.25872142395048"><ele>658.0</ele><time>2026-04-30T13:52:42.998Z</time></trkpt><trkpt lat="44.52716356966865" lon="9.258851304021006"><ele>658.0</ele><time>2026-04-30T13:52:43.998Z</time></trkpt><trkpt lat="44.527321847003975" lon="9.258970046337268"><ele>658.0</ele><time>2026-04-30T13:52:44.998Z</time></trkpt><trkpt lat="44.52749320536797" lon="9.259070153449102"><ele>658.0</ele><time>2026-04-30T13:52:45.998Z</time></trkpt><trkpt lat="44.52765740244005" lon="9.259194929336727"><ele>658.0</ele><time>2026-04-30T13:52:46.998Z</time></trkpt><trkpt lat="44.527825729657856" lon="9.259304421270437"><ele>658.0</ele><time>2026-04-30T13:52:47.998Z</time></trkpt><trkpt lat="44.527974249795385" lon="9.259475376790256"><ele>656.0</ele><time>2026-04-30T13:52:48.998Z</time></trkpt><trkpt lat="44.528102730681184" lon="9.259638225072223"><ele>654.0</ele><time>2026-04-30T13:52:49.998Z</time></trkpt><trkpt lat="44.528219794259634" lon="9.259815297230118"><ele>652.0</ele><time>2026-04-30T13:52:50.998Z</time></trkpt><trkpt lat="44.52835933354703" lon="9.259963478054857"><ele>652.0</ele><time>2026-04-30T13:52:51.998Z</time></trkpt><trkpt lat="44.52851154826257" lon="9.260069944260351"><ele>652.0</ele><time>2026-04-30T13:52:52.998Z</time></trkpt><trkpt lat="44.528687304376476" lon="9.260161340036976"><ele>652.0</ele><time>2026-04-30T13:52:53.998Z</time></trkpt><trkpt lat="44.52886292284759" lon="9.260203706947161"><ele>656.0</ele><time>2026-04-30T13:52:54.998Z</time></trkpt><trkpt lat="44.529038357867236" lon="9.260253663395444"><ele>660.0</ele><time>2026-04-30T13:52:55.998Z</time></trkpt><trkpt lat="44.529208712885016" lon="9.260280965215529"><ele>664.0</ele><time>2026-04-30T13:52:56.998Z</time></trkpt><trkpt lat="44.5293531218153" lon="9.26037532514243"><ele>664.0</ele><time>2026-04-30T13:52:57.998Z</time></trkpt><trkpt lat="44.52951268443963" lon="9.26048023414861"><ele>664.0</ele><time>2026-04-30T13:52:58.998Z</time></trkpt><trkpt lat="44.529666455337605" lon="9.260555282300299"><ele>664.0</ele><time>2026-04-30T13:52:59.998Z</time></trkpt><trkpt lat="44.52982728774147" lon="9.260592213481521"><ele>658.6666666666667</ele><time>2026-04-30T13:53:00.998Z</time></trkpt><trkpt lat="44.529973959988986" lon="9.260555064397948"><ele>653.3333333333334</ele><time>2026-04-30T13:53:01.998Z</time></trkpt><trkpt lat="44.53011586444353" lon="9.260475047971777"><ele>648.0</ele><time>2026-04-30T13:53:02.998Z</time></trkpt><trkpt lat="44.53023163826249" lon="9.260341103630537"><ele>648.0</ele><time>2026-04-30T13:53:03.998Z</time></trkpt><trkpt lat="44.530335743921256" lon="9.260176710785808"><ele>648.0</ele><time>2026-04-30T13:53:04.998Z</time></trkpt><trkpt lat="44.53040820639681" lon="9.259965998304997"><ele>648.0</ele><time>2026-04-30T13:53:05.998Z</time></trkpt><trkpt lat="44.53046298799509" lon="9.259750668522102"><ele>647.6666666666666</ele><time>2026-04-30T13:53:06.998Z</time></trkpt><trkpt lat="44.5304961496092" lon="9.259548662268063"><ele>647.3333333333333</ele><time>2026-04-30T13:53:07.998Z</time></trkpt><trkpt lat="44.53048849754092" lon="9.259339242833365"><ele>647.0</ele><time>2026-04-30T13:53:08.998Z</time></trkpt><trkpt lat="44.530459670404355" lon="9.259093182739669"><ele>646.75</ele><time>2026-04-30T13:53:09.998Z</time></trkpt><trkpt lat="44.53044803940655" lon="9.258860876601027"><ele>646.5</ele><time>2026-04-30T13:53:10.998Z</time></trkpt><trkpt lat="44.53043877122652" lon="9.258661844537215"><ele>646.25</ele><time>2026-04-30T13:53:11.997Z</time></trkpt><trkpt lat="44.53043119554268" lon="9.258469939909606"><ele>646.0</ele><time>2026-04-30T13:53:12.997Z</time></trkpt><trkpt lat="44.530423479930406" lon="9.258268766650097"><ele>645.75</ele><time>2026-04-30T13:53:13.997Z</time></trkpt><trkpt lat="44.53041844955366" lon="9.258074200657093"><ele>645.5</ele><time>2026-04-30T13:53:14.997Z</time></trkpt><trkpt lat="44.53041897350327" lon="9.257878788659301"><ele>645.25</ele><time>2026-04-30T13:53:15.997Z</time></trkpt><trkpt lat="44.53042337462847" lon="9.257686309318446"><ele>645.0</ele><time>2026-04-30T13:53:16.997Z</time></trkpt><trkpt lat="44.53042840221015" lon="9.257489347258561"><ele>645.0</ele><time>2026-04-30T13:53:17.997Z</time></trkpt><trkpt lat="44.53043674315876" lon="9.257320083147885"><ele>645.0</ele><time>2026-04-30T13:53:18.997Z</time></trkpt><trkpt lat="44.5304465236222" lon="9.257124259001854"><ele>645.0</ele><time>2026-04-30T13:53:19.997Z</time></trkpt><trkpt lat="44.53045617168698" lon="9.256934192157049"><ele>645.0</ele><time>2026-04-30T13:53:20.997Z</time></trkpt><trkpt lat="44.530468846553674" lon="9.25673151073328"><ele>644.75</ele><time>2026-04-30T13:53:21.997Z</time></trkpt><trkpt lat="44.53049797689501" lon="9.256576887949386"><ele>644.5</ele><time>2026-04-30T13:53:22.997Z</time></trkpt><trkpt lat="44.53055530877081" lon="9.256407549428355"><ele>644.25</ele><time>2026-04-30T13:53:23.997Z</time></trkpt><trkpt lat="44.530615912997156" lon="9.256225396388752"><ele>644.0</ele><time>2026-04-30T13:53:24.997Z</time></trkpt><trkpt lat="44.530685502390085" lon="9.256022504371359"><ele>645.6666666666666</ele><time>2026-04-30T13:53:25.997Z</time></trkpt><trkpt lat="44.53076577115924" lon="9.255810780601983"><ele>647.3333333333334</ele><time>2026-04-30T13:53:26.997Z</time></trkpt><trkpt lat="44.5308609109309" lon="9.255620346137908"><ele>649.0</ele><time>2026-04-30T13:53:27.997Z</time></trkpt><trkpt lat="44.53097359976616" lon="9.255416020212934"><ele>645.6666666666667</ele><time>2026-04-30T13:53:28.997Z</time></trkpt><trkpt lat="44.53108475025265" lon="9.25521741876525"><ele>642.3333333333334</ele><time>2026-04-30T13:53:29.997Z</time></trkpt><trkpt lat="44.53119294313117" lon="9.255037504979141"><ele>639.0</ele><time>2026-04-30T13:53:30.997Z</time></trkpt><trkpt lat="44.53132034085088" lon="9.254845588429738"><ele>647.0</ele><time>2026-04-30T13:53:31.997Z</time></trkpt><trkpt lat="44.53144917948946" lon="9.254678494644137"><ele>655.0</ele><time>2026-04-30T13:53:32.997Z</time></trkpt><trkpt lat="44.53156947620448" lon="9.254549389589405"><ele>663.0</ele><time>2026-04-30T13:53:33.997Z</time></trkpt><trkpt lat="44.53169363921737" lon="9.254439929970653"><ele>663.0</ele><time>2026-04-30T13:53:34.997Z</time></trkpt><trkpt lat="44.531841364817076" lon="9.254326012518929"><ele>663.0</ele><time>2026-04-30T13:53:35.997Z</time></trkpt><trkpt lat="44.532004696646005" lon="9.254237549106104"><ele>663.0</ele><time>2026-04-30T13:53:36.997Z</time></trkpt><trkpt lat="44.532167274804465" lon="9.25419671971099"><ele>658.3333333333334</ele><time>2026-04-30T13:53:37.997Z</time></trkpt><trkpt lat="44.53231832378163" lon="9.254192883186228"><ele>653.6666666666667</ele><time>2026-04-30T13:53:38.997Z</time></trkpt><trkpt lat="44.53249016742818" lon="9.254206339628261"><ele>649.0</ele><time>2026-04-30T13:53:39.997Z</time></trkpt><trkpt lat="44.53265089883167" lon="9.25422146177143"><ele>649.0</ele><time>2026-04-30T13:53:40.997Z</time></trkpt><trkpt lat="44.53277638267582" lon="9.254258094481619"><ele>649.0</ele><time>2026-04-30T13:53:41.997Z</time></trkpt><trkpt lat="44.53290699972001" lon="9.254348627406962"><ele>649.0</ele><time>2026-04-30T13:53:42.997Z</time></trkpt><trkpt lat="44.533043944407936" lon="9.25448235158697"><ele>649.0</ele><time>2026-04-30T13:53:43.997Z</time></trkpt><trkpt lat="44.533178115579304" lon="9.254612138387609"><ele>647.3333333333334</ele><time>2026-04-30T13:53:44.997Z</time></trkpt><trkpt lat="44.5333025714637" lon="9.254732527787455"><ele>645.6666666666666</ele><time>2026-04-30T13:53:45.997Z</time></trkpt><trkpt lat="44.533435068975884" lon="9.254861773805453"><ele>644.0</ele><time>2026-04-30T13:53:46.997Z</time></trkpt><trkpt lat="44.53356583797891" lon="9.254993217610771"><ele>644.0</ele><time>2026-04-30T13:53:47.997Z</time></trkpt><trkpt lat="44.533677835169165" lon="9.255130738293932"><ele>644.0</ele><time>2026-04-30T13:53:48.997Z</time></trkpt><trkpt lat="44.533759429437964" lon="9.255263038497741"><ele>644.0</ele><time>2026-04-30T13:53:49.997Z</time></trkpt><trkpt lat="44.533851114917475" lon="9.25542639372047"><ele>644.0</ele><time>2026-04-30T13:53:50.997Z</time></trkpt><trkpt lat="44.53392881214434" lon="9.255570924795968"><ele>647.75</ele><time>2026-04-30T13:53:51.997Z</time></trkpt><trkpt lat="44.53398693845947" lon="9.25569163617476"><ele>651.5</ele><time>2026-04-30T13:53:52.997Z</time></trkpt><trkpt lat="44.53401880444717" lon="9.255828943503861"><ele>655.25</ele><time>2026-04-30T13:53:53.997Z</time></trkpt><trkpt lat="44.53401039136863" lon="9.256022695337453"><ele>659.0</ele><time>2026-04-30T13:53:54.997Z</time></trkpt><trkpt lat="44.533971072307615" lon="9.256254981807327"><ele>659.0</ele><time>2026-04-30T13:53:55.997Z</time></trkpt><trkpt lat="44.53395443925165" lon="9.256485579713358"><ele>659.0</ele><time>2026-04-30T13:53:56.997Z</time></trkpt><trkpt lat="44.53393908799527" lon="9.25670139272657"><ele>659.0</ele><time>2026-04-30T13:53:57.997Z</time></trkpt><trkpt lat="44.53391505131485" lon="9.256934283944634"><ele>659.0</ele><time>2026-04-30T13:53:58.997Z</time></trkpt><trkpt lat="44.53388545040156" lon="9.257184205055125"><ele>659.0</ele><time>2026-04-30T13:53:59.997Z</time></trkpt><trkpt lat="44.533857416488345" lon="9.257422157994787"><ele>659.0</ele><time>2026-04-30T13:54:00.997Z</time></trkpt><trkpt lat="44.53383111682455" lon="9.257647902905244"><ele>659.0</ele><time>2026-04-30T13:54:01.997Z</time></trkpt><trkpt lat="44.53380314679731" lon="9.257899966217852"><ele>659.0</ele><time>2026-04-30T13:54:02.997Z</time></trkpt><trkpt lat="44.53380014019951" lon="9.25814947982748"><ele>659.0</ele><time>2026-04-30T13:54:03.997Z</time></trkpt><trkpt lat="44.533802329572204" lon="9.25840793854738"><ele>659.0</ele><time>2026-04-30T13:54:04.997Z</time></trkpt><trkpt lat="44.53383636350041" lon="9.258628803031666"><ele>659.0</ele><time>2026-04-30T13:54:05.997Z</time></trkpt><trkpt lat="44.53384840118664" lon="9.258860128541428"><ele>659.0</ele><time>2026-04-30T13:54:06.997Z</time></trkpt><trkpt lat="44.533856101654735" lon="9.259103557283472"><ele>659.0</ele><time>2026-04-30T13:54:07.997Z</time></trkpt><trkpt lat="44.53383557499746" lon="9.259324371339405"><ele>659.0</ele><time>2026-04-30T13:54:08.997Z</time></trkpt><trkpt lat="44.53380662584245" lon="9.259566602737493"><ele>659.0</ele><time>2026-04-30T13:54:09.997Z</time></trkpt><trkpt lat="44.53379733462876" lon="9.259777284109662"><ele>658.6666666666666</ele><time>2026-04-30T13:54:10.997Z</time></trkpt><trkpt lat="44.533800054822805" lon="9.25996893371669"><ele>658.3333333333334</ele><time>2026-04-30T13:54:11.997Z</time></trkpt><trkpt lat="44.533805719706855" lon="9.260180728477286"><ele>658.0</ele><time>2026-04-30T13:54:12.996Z</time></trkpt><trkpt lat="44.533816061313466" lon="9.260430771520817"><ele>655.6666666666667</ele><time>2026-04-30T13:54:13.996Z</time></trkpt><trkpt lat="44.53382516945122" lon="9.260677693409686"><ele>653.3333333333334</ele><time>2026-04-30T13:54:14.996Z</time></trkpt><trkpt lat="44.53381294110538" lon="9.260908274893048"><ele>651.0</ele><time>2026-04-30T13:54:15.996Z</time></trkpt><trkpt lat="44.53379324540861" lon="9.261127270602108"><ele>651.0</ele><time>2026-04-30T13:54:16.996Z</time></trkpt><trkpt lat="44.53378741294972" lon="9.261330767606005"><ele>651.0</ele><time>2026-04-30T13:54:17.996Z</time></trkpt><trkpt lat="44.53380276898964" lon="9.261520138245555"><ele>651.0</ele><time>2026-04-30T13:54:18.996Z</time></trkpt><trkpt lat="44.53382960088597" lon="9.261671346791129"><ele>651.0</ele><time>2026-04-30T13:54:19.996Z</time></trkpt><trkpt lat="44.533873660932265" lon="9.26180810660623"><ele>647.75</ele><time>2026-04-30T13:54:20.996Z</time></trkpt><trkpt lat="44.533957287668656" lon="9.261924882070591"><ele>644.5</ele><time>2026-04-30T13:54:21.996Z</time></trkpt><trkpt lat="44.534051522315615" lon="9.262021651459037"><ele>641.25</ele><time>2026-04-30T13:54:22.996Z</time></trkpt><trkpt lat="44.534177292136384" lon="9.262044489896255"><ele>638.0</ele><time>2026-04-30T13:54:23.996Z</time></trkpt><trkpt lat="44.534307654107046" lon="9.26205307015671"><ele>638.0</ele><time>2026-04-30T13:54:24.996Z</time></trkpt><trkpt lat="44.534434616001164" lon="9.262005639901599"><ele>638.0</ele><time>2026-04-30T13:54:25.996Z</time></trkpt><trkpt lat="44.534561083597296" lon="9.261918409885302"><ele>638.0</ele><time>2026-04-30T13:54:26.996Z</time></trkpt><trkpt lat="44.53468027903954" lon="9.261845753960376"><ele>638.0</ele><time>2026-04-30T13:54:27.996Z</time></trkpt><trkpt lat="44.53482160063855" lon="9.261755872891717"><ele>638.0</ele><time>2026-04-30T13:54:28.996Z</time></trkpt><trkpt lat="44.5349511202773" lon="9.261659062556516"><ele>638.0</ele><time>2026-04-30T13:54:29.996Z</time></trkpt><trkpt lat="44.5350908708845" lon="9.261514316081154"><ele>638.0</ele><time>2026-04-30T13:54:30.996Z</time></trkpt><trkpt lat="44.53522091535226" lon="9.261392004909709"><ele>645.0</ele><time>2026-04-30T13:54:31.996Z</time></trkpt><trkpt lat="44.53536625015503" lon="9.261283766381766"><ele>652.0</ele><time>2026-04-30T13:54:32.996Z</time></trkpt><trkpt lat="44.53551003992319" lon="9.261220644246796"><ele>659.0</ele><time>2026-04-30T13:54:33.996Z</time></trkpt><trkpt lat="44.53564873850826" lon="9.261154160453906"><ele>659.0</ele><time>2026-04-30T13:54:34.996Z</time></trkpt><trkpt lat="44.53579443564643" lon="9.261180608048475"><ele>659.0</ele><time>2026-04-30T13:54:35.996Z</time></trkpt><trkpt lat="44.5359452961306" lon="9.261212091565229"><ele>659.0</ele><time>2026-04-30T13:54:36.996Z</time></trkpt><trkpt lat="44.536118907894924" lon="9.261208230530876"><ele>652.3333333333333</ele><time>2026-04-30T13:54:37.996Z</time></trkpt><trkpt lat="44.536278690765336" lon="9.261183246333555"><ele>645.6666666666666</ele><time>2026-04-30T13:54:38.996Z</time></trkpt><trkpt lat="44.53644560826051" lon="9.261154033370943"><ele>639.0</ele><time>2026-04-30T13:54:39.996Z</time></trkpt><trkpt lat="44.53659652329823" lon="9.261124802563078"><ele>639.0</ele><time>2026-04-30T13:54:40.996Z</time></trkpt><trkpt lat="44.536737069260894" lon="9.261093061180691"><ele>639.0</ele><time>2026-04-30T13:54:41.996Z</time></trkpt><trkpt lat="44.536919234711974" lon="9.261103065958126"><ele>639.0</ele><time>2026-04-30T13:54:42.996Z</time></trkpt><trkpt lat="44.537078390968716" lon="9.261060197953014"><ele>638.0</ele><time>2026-04-30T13:54:43.996Z</time></trkpt><trkpt lat="44.53723215667685" lon="9.261035851723063"><ele>637.0</ele><time>2026-04-30T13:54:44.996Z</time></trkpt><trkpt lat="44.53739286628017" lon="9.261044413854922"><ele>636.0</ele><time>2026-04-30T13:54:45.996Z</time></trkpt><trkpt lat="44.53756002956097" lon="9.261039351267877"><ele>636.0</ele><time>2026-04-30T13:54:46.996Z</time></trkpt><trkpt lat="44.53773373360762" lon="9.261034090609927"><ele>636.0</ele><time>2026-04-30T13:54:47.996Z</time></trkpt><trkpt lat="44.53790318219223" lon="9.261007478780993"><ele>636.0</ele><time>2026-04-30T13:54:48.996Z</time></trkpt><trkpt lat="44.538069909244136" lon="9.261023909431891"><ele>637.0</ele><time>2026-04-30T13:54:49.996Z</time></trkpt><trkpt lat="44.53824301024738" lon="9.261018667032474"><ele>638.0</ele><time>2026-04-30T13:54:50.996Z</time></trkpt><trkpt lat="44.538408451693286" lon="9.26099408398355"><ele>639.0</ele><time>2026-04-30T13:54:51.996Z</time></trkpt><trkpt lat="44.538578195411745" lon="9.261008515857013"><ele>642.0</ele><time>2026-04-30T13:54:52.996Z</time></trkpt><trkpt lat="44.53875222566776" lon="9.261003245317516"><ele>645.0</ele><time>2026-04-30T13:54:53.996Z</time></trkpt><trkpt lat="44.538926332129044" lon="9.26099781101725"><ele>648.0</ele><time>2026-04-30T13:54:54.996Z</time></trkpt><trkpt lat="44.53909102292896" lon="9.260983821231834"><ele>648.0</ele><time>2026-04-30T13:54:55.996Z</time></trkpt><trkpt lat="44.53925739469215" lon="9.26099159506777"><ele>648.0</ele><time>2026-04-30T13:54:56.996Z</time></trkpt><trkpt lat="44.539426482259145" lon="9.26098009610657"><ele>648.0</ele><time>2026-04-30T13:54:57.996Z</time></trkpt><trkpt lat="44.539602556042254" lon="9.26097379458597"><ele>646.0</ele><time>2026-04-30T13:54:58.996Z</time></trkpt><trkpt lat="44.53976352482048" lon="9.260952835154578"><ele>644.0</ele><time>2026-04-30T13:54:59.996Z</time></trkpt><trkpt lat="44.53991852739207" lon="9.260961786340879"><ele>642.0</ele><time>2026-04-30T13:55:00.996Z</time></trkpt><trkpt lat="44.540072318474316" lon="9.260955810329087"><ele>642.0</ele><time>2026-04-30T13:55:01.996Z</time></trkpt><trkpt lat="44.54021917034566" lon="9.260949962283005"><ele>642.0</ele><time>2026-04-30T13:55:02.996Z</time></trkpt><trkpt lat="44.54036768660064" lon="9.26094404795639"><ele>642.0</ele><time>2026-04-30T13:55:03.996Z</time></trkpt><trkpt lat="44.54052289494398" lon="9.260935770417927"><ele>639.5</ele><time>2026-04-30T13:55:04.996Z</time></trkpt><trkpt lat="44.540672713520195" lon="9.26092609869837"><ele>637.0</ele><time>2026-04-30T13:55:05.996Z</time></trkpt><trkpt lat="44.54079955096995" lon="9.260917401450701"><ele>634.5</ele><time>2026-04-30T13:55:06.996Z</time></trkpt><trkpt lat="44.54091460415665" lon="9.260882851500774"><ele>632.0</ele><time>2026-04-30T13:55:07.996Z</time></trkpt><trkpt lat="44.54101418156435" lon="9.260866840765475"><ele>632.0</ele><time>2026-04-30T13:55:08.996Z</time></trkpt><trkpt lat="44.54109955729846" lon="9.260823106439425"><ele>632.0</ele><time>2026-04-30T13:55:09.996Z</time></trkpt><trkpt lat="44.54118269788563" lon="9.260794135610562"><ele>632.0</ele><time>2026-04-30T13:55:10.996Z</time></trkpt><trkpt lat="44.541266243426946" lon="9.260731587589786"><ele>632.0</ele><time>2026-04-30T13:55:11.996Z</time></trkpt><trkpt lat="44.541344615961336" lon="9.260671038156097"><ele>632.0</ele><time>2026-04-30T13:55:12.996Z</time></trkpt><trkpt lat="44.54141314556197" lon="9.260645620808829"><ele>632.0</ele><time>2026-04-30T13:55:13.995Z</time></trkpt><trkpt lat="44.5414573887453" lon="9.260562556255966"><ele>631.1666666666666</ele><time>2026-04-30T13:55:14.995Z</time></trkpt><trkpt lat="44.54153136182843" lon="9.26050298198502"><ele>630.3333333333333</ele><time>2026-04-30T13:55:15.995Z</time></trkpt><trkpt lat="44.54158887188092" lon="9.26044382737182"><ele>629.5</ele><time>2026-04-30T13:55:16.995Z</time></trkpt><trkpt lat="44.54163175825909" lon="9.26037249047643"><ele>628.6666666666666</ele><time>2026-04-30T13:55:17.995Z</time></trkpt><trkpt lat="44.54167052663007" lon="9.260302135961082"><ele>627.8333333333334</ele><time>2026-04-30T13:55:18.995Z</time></trkpt><trkpt lat="44.54173761321546" lon="9.260259903223503"><ele>627.0</ele><time>2026-04-30T13:55:20.995Z</time></trkpt><trkpt lat="44.541798409511465" lon="9.260117733210489"><ele>627.0</ele><time>2026-04-30T13:56:25.994Z</time></trkpt><trkpt lat="44.54185972394414" lon="9.260038607864178"><ele>627.0</ele><time>2026-04-30T13:56:26.994Z</time></trkpt><trkpt lat="44.5419243508023" lon="9.25995613661719"><ele>627.0</ele><time>2026-04-30T13:56:27.994Z</time></trkpt><trkpt lat="44.54199135641293" lon="9.259880287021254"><ele>627.0</ele><time>2026-04-30T13:56:28.994Z</time></trkpt><trkpt lat="44.54204888821462" lon="9.259826923665681"><ele>627.0</ele><time>2026-04-30T13:56:29.994Z</time></trkpt><trkpt lat="44.54211554968548" lon="9.259782947186123"><ele>627.0</ele><time>2026-04-30T13:56:30.994Z</time></trkpt><trkpt lat="44.54217527590156" lon="9.259713038484326"><ele>626.25</ele><time>2026-04-30T13:56:31.994Z</time></trkpt><trkpt lat="44.542273407885205" lon="9.259746666057982"><ele>625.5</ele><time>2026-04-30T13:56:32.994Z</time></trkpt><trkpt lat="44.542385275807035" lon="9.259783179607746"><ele>624.75</ele><time>2026-04-30T13:56:33.994Z</time></trkpt><trkpt lat="44.54250954112827" lon="9.259848773034554"><ele>624.0</ele><time>2026-04-30T13:56:34.994Z</time></trkpt><trkpt lat="44.54263907107027" lon="9.25990103862383"><ele>623.5</ele><time>2026-04-30T13:56:35.994Z</time></trkpt><trkpt lat="44.54277422827269" lon="9.259947988258482"><ele>623.0</ele><time>2026-04-30T13:56:36.994Z</time></trkpt><trkpt lat="44.54291159691162" lon="9.259959826085614"><ele>622.5</ele><time>2026-04-30T13:56:37.994Z</time></trkpt><trkpt lat="44.543023945073436" lon="9.260014432276733"><ele>622.0</ele><time>2026-04-30T13:56:38.994Z</time></trkpt><trkpt lat="44.54311667192954" lon="9.260072795243895"><ele>622.0</ele><time>2026-04-30T13:56:39.994Z</time></trkpt><trkpt lat="44.54322667082664" lon="9.260118775552064"><ele>622.0</ele><time>2026-04-30T13:56:40.994Z</time></trkpt><trkpt lat="44.543353262804295" lon="9.260171095663372"><ele>622.0</ele><time>2026-04-30T13:56:41.994Z</time></trkpt><trkpt lat="44.543458609868765" lon="9.260214407165646"><ele>622.0</ele><time>2026-04-30T13:56:42.994Z</time></trkpt><trkpt lat="44.54356429575566" lon="9.260256940106412"><ele>622.0</ele><time>2026-04-30T13:56:43.994Z</time></trkpt><trkpt lat="44.54366505275833" lon="9.26029936956427"><ele>622.0</ele><time>2026-04-30T13:56:44.994Z</time></trkpt><trkpt lat="44.54377307100773" lon="9.260344837238954"><ele>622.0</ele><time>2026-04-30T13:56:45.994Z</time></trkpt><trkpt lat="44.54387699431154" lon="9.26038858122447"><ele>622.0</ele><time>2026-04-30T13:56:46.994Z</time></trkpt><trkpt lat="44.54396884684753" lon="9.26042724432477"><ele>622.0</ele><time>2026-04-30T13:56:47.994Z</time></trkpt><trkpt lat="44.544076254669804" lon="9.260478523194548"><ele>622.4</ele><time>2026-04-30T13:56:48.994Z</time></trkpt><trkpt lat="44.54414915952269" lon="9.260532797255298"><ele>622.8000000000001</ele><time>2026-04-30T13:56:49.994Z</time></trkpt><trkpt lat="44.54420478993661" lon="9.260610667550534"><ele>623.2</ele><time>2026-04-30T13:56:50.994Z</time></trkpt><trkpt lat="44.54423451918666" lon="9.260769036889211"><ele>623.6</ele><time>2026-04-30T13:56:52.994Z</time></trkpt><trkpt lat="44.54427027737074" lon="9.26090036502499"><ele>624.0</ele><time>2026-04-30T13:56:53.994Z</time></trkpt><trkpt lat="44.54431092141898" lon="9.261079092299985"><ele>624.0</ele><time>2026-04-30T13:56:54.994Z</time></trkpt><trkpt lat="44.54435300810833" lon="9.261282031759539"><ele>624.0</ele><time>2026-04-30T13:56:55.994Z</time></trkpt><trkpt lat="44.54438793019764" lon="9.261453529583658"><ele>624.0</ele><time>2026-04-30T13:56:56.994Z</time></trkpt><trkpt lat="44.5444352055512" lon="9.261624616889014"><ele>624.0</ele><time>2026-04-30T13:56:57.994Z</time></trkpt><trkpt lat="44.54447001594936" lon="9.261825040255998"><ele>622.3333333333334</ele><time>2026-04-30T13:56:58.994Z</time></trkpt><trkpt lat="44.544520245695956" lon="9.262049215532898"><ele>620.6666666666667</ele><time>2026-04-30T13:56:59.994Z</time></trkpt><trkpt lat="44.54458348024466" lon="9.262272698250753"><ele>619.0</ele><time>2026-04-30T13:57:00.994Z</time></trkpt><trkpt lat="44.544674720090725" lon="9.262477147827829"><ele>624.0</ele><time>2026-04-30T13:57:01.994Z</time></trkpt><trkpt lat="44.5447503049298" lon="9.262700284937168"><ele>629.0</ele><time>2026-04-30T13:57:02.994Z</time></trkpt><trkpt lat="44.544831182078916" lon="9.262923539224111"><ele>634.0</ele><time>2026-04-30T13:57:03.994Z</time></trkpt><trkpt lat="44.54489671744324" lon="9.263163131724815"><ele>634.0</ele><time>2026-04-30T13:57:04.994Z</time></trkpt><trkpt lat="44.54497644120717" lon="9.263396176419564"><ele>634.0</ele><time>2026-04-30T13:57:05.994Z</time></trkpt><trkpt lat="44.54505812522727" lon="9.263635529485688"><ele>634.0</ele><time>2026-04-30T13:57:06.994Z</time></trkpt><trkpt lat="44.54513428956663" lon="9.263858549743308"><ele>629.6666666666667</ele><time>2026-04-30T13:57:07.994Z</time></trkpt><trkpt lat="44.545217026596774" lon="9.264098385297263"><ele>625.3333333333334</ele><time>2026-04-30T13:57:08.994Z</time></trkpt><trkpt lat="44.54529743905534" lon="9.264332129795118"><ele>621.0</ele><time>2026-04-30T13:57:09.994Z</time></trkpt><trkpt lat="44.54536339107036" lon="9.264572494152441"><ele>625.3333333333334</ele><time>2026-04-30T13:57:10.994Z</time></trkpt><trkpt lat="44.545425671424816" lon="9.264814156812616"><ele>629.6666666666667</ele><time>2026-04-30T13:57:11.994Z</time></trkpt><trkpt lat="44.54548468851219" lon="9.265045395331958"><ele>634.0</ele><time>2026-04-30T13:57:12.994Z</time></trkpt><trkpt lat="44.545545220943374" lon="9.265283154920759"><ele>634.0</ele><time>2026-04-30T13:57:13.994Z</time></trkpt><trkpt lat="44.545608298487785" lon="9.265537325099302"><ele>634.0</ele><time>2026-04-30T13:57:14.994Z</time></trkpt><trkpt lat="44.54566806550002" lon="9.265773479667144"><ele>634.0</ele><time>2026-04-30T13:57:15.993Z</time></trkpt><trkpt lat="44.54572892472078" lon="9.266013394190784"><ele>631.3333333333334</ele><time>2026-04-30T13:57:16.993Z</time></trkpt><trkpt lat="44.54582577457165" lon="9.266245837004966"><ele>628.6666666666666</ele><time>2026-04-30T13:57:17.993Z</time></trkpt><trkpt lat="44.54586601905461" lon="9.266504666154205"><ele>626.0</ele><time>2026-04-30T13:57:18.993Z</time></trkpt><trkpt lat="44.545895690982896" lon="9.266764791583034"><ele>624.0</ele><time>2026-04-30T13:57:19.993Z</time></trkpt><trkpt lat="44.545939580394105" lon="9.267004388878101"><ele>622.0</ele><time>2026-04-30T13:57:20.993Z</time></trkpt><trkpt lat="44.54592837829736" lon="9.267278512924268"><ele>620.0</ele><time>2026-04-30T13:57:21.993Z</time></trkpt><trkpt lat="44.5460258368292" lon="9.267457391057125"><ele>621.6666666666666</ele><time>2026-04-30T13:57:22.993Z</time></trkpt><trkpt lat="44.54610705298647" lon="9.267646421415703"><ele>623.3333333333334</ele><time>2026-04-30T13:57:23.993Z</time></trkpt><trkpt lat="44.54620640593203" lon="9.267790743880742"><ele>625.0</ele><time>2026-04-30T13:57:24.993Z</time></trkpt><trkpt lat="44.546345354897156" lon="9.267937363509082"><ele>625.0</ele><time>2026-04-30T13:57:25.993Z</time></trkpt><trkpt lat="44.54646120798647" lon="9.268109696532905"><ele>625.0</ele><time>2026-04-30T13:57:26.999Z</time></trkpt><trkpt lat="44.546594132482255" lon="9.26825029332392"><ele>625.0</ele><time>2026-04-30T13:57:27.999Z</time></trkpt><trkpt lat="44.54672364012421" lon="9.268419242619295"><ele>623.3333333333334</ele><time>2026-04-30T13:57:28.999Z</time></trkpt><trkpt lat="44.54685414710689" lon="9.268565031745934"><ele>621.6666666666666</ele><time>2026-04-30T13:57:29.999Z</time></trkpt><trkpt lat="44.54693775556901" lon="9.268746715242797"><ele>620.0</ele><time>2026-04-30T13:57:30.999Z</time></trkpt><trkpt lat="44.547042522244055" lon="9.268920392820162"><ele>622.0</ele><time>2026-04-30T13:57:31.999Z</time></trkpt><trkpt lat="44.5471351443762" lon="9.269082002261449"><ele>624.0</ele><time>2026-04-30T13:57:32.999Z</time></trkpt><trkpt lat="44.5472218530196" lon="9.269242743505211"><ele>626.0</ele><time>2026-04-30T13:57:33.999Z</time></trkpt><trkpt lat="44.54728558877935" lon="9.269449279500606"><ele>626.0</ele><time>2026-04-30T13:57:34.999Z</time></trkpt><trkpt lat="44.5473704844837" lon="9.269668574570712"><ele>626.0</ele><time>2026-04-30T13:57:35.999Z</time></trkpt><trkpt lat="44.54743649733735" lon="9.269896290992126"><ele>626.0</ele><time>2026-04-30T13:57:36.999Z</time></trkpt><trkpt lat="44.54752964449955" lon="9.270109763795471"><ele>626.0</ele><time>2026-04-30T13:57:37.999Z</time></trkpt><trkpt lat="44.54763344681133" lon="9.270283677140611"><ele>626.0</ele><time>2026-04-30T13:57:38.999Z</time></trkpt><trkpt lat="44.547751429755344" lon="9.270449151031743"><ele>626.0</ele><time>2026-04-30T13:57:39.999Z</time></trkpt><trkpt lat="44.547906809679105" lon="9.270607155705132"><ele>623.0</ele><time>2026-04-30T13:57:40.999Z</time></trkpt><trkpt lat="44.54808676637273" lon="9.270719093404017"><ele>620.0</ele><time>2026-04-30T13:57:41.999Z</time></trkpt><trkpt lat="44.54824526355937" lon="9.270836699942462"><ele>617.0</ele><time>2026-04-30T13:57:42.999Z</time></trkpt><trkpt lat="44.548410527145194" lon="9.270937787637616"><ele>617.0</ele><time>2026-04-30T13:57:43.999Z</time></trkpt><trkpt lat="44.54857223407756" lon="9.271016115728074"><ele>617.0</ele><time>2026-04-30T13:57:44.999Z</time></trkpt><trkpt lat="44.5487474888843" lon="9.27109582394338"><ele>617.0</ele><time>2026-04-30T13:57:45.999Z</time></trkpt><trkpt lat="44.548904049599265" lon="9.271160315187915"><ele>615.3333333333333</ele><time>2026-04-30T13:57:46.999Z</time></trkpt><trkpt lat="44.54906178814056" lon="9.27125347626201"><ele>613.6666666666666</ele><time>2026-04-30T13:57:47.999Z</time></trkpt><trkpt lat="44.54924762019587" lon="9.271326310542594"><ele>612.0</ele><time>2026-04-30T13:57:48.999Z</time></trkpt><trkpt lat="44.549403246870966" lon="9.271452295882343"><ele>619.6666666666666</ele><time>2026-04-30T13:57:49.999Z</time></trkpt><trkpt lat="44.549554540131005" lon="9.271559593071828"><ele>627.3333333333333</ele><time>2026-04-30T13:57:50.999Z</time></trkpt><trkpt lat="44.549722017117645" lon="9.271681344089698"><ele>635.0</ele><time>2026-04-30T13:57:51.999Z</time></trkpt><trkpt lat="44.54987830455181" lon="9.271791398873646"><ele>635.0</ele><time>2026-04-30T13:57:52.999Z</time></trkpt><trkpt lat="44.550045350354395" lon="9.271908295246478"><ele>635.0</ele><time>2026-04-30T13:57:53.999Z</time></trkpt><trkpt lat="44.55021099491012" lon="9.272027076156109"><ele>635.0</ele><time>2026-04-30T13:57:54.999Z</time></trkpt><trkpt lat="44.550363258495636" lon="9.272142252948473"><ele>635.6666666666666</ele><time>2026-04-30T13:57:55.999Z</time></trkpt><trkpt lat="44.55049533899871" lon="9.272286474724462"><ele>636.3333333333334</ele><time>2026-04-30T13:57:56.999Z</time></trkpt><trkpt lat="44.5506063510306" lon="9.272442260748635"><ele>637.0</ele><time>2026-04-30T13:57:57.999Z</time></trkpt><trkpt lat="44.55070581073356" lon="9.272610236563624"><ele>637.0</ele><time>2026-04-30T13:57:58.999Z</time></trkpt><trkpt lat="44.550819513938826" lon="9.272810358199346"><ele>637.0</ele><time>2026-04-30T13:57:59.999Z</time></trkpt><trkpt lat="44.550938598227326" lon="9.273012486689442"><ele>637.0</ele><time>2026-04-30T13:58:00.999Z</time></trkpt><trkpt lat="44.55105145451146" lon="9.273194925299242"><ele>644.0</ele><time>2026-04-30T13:58:01.999Z</time></trkpt><trkpt lat="44.5511737348422" lon="9.273414893474829"><ele>651.0</ele><time>2026-04-30T13:58:02.999Z</time></trkpt><trkpt lat="44.55126632154848" lon="9.273601198447848"><ele>658.0</ele><time>2026-04-30T13:58:03.999Z</time></trkpt><trkpt lat="44.5513467479867" lon="9.273811038324768"><ele>649.0</ele><time>2026-04-30T13:58:04.999Z</time></trkpt><trkpt lat="44.55139604997691" lon="9.274009130022959"><ele>640.0</ele><time>2026-04-30T13:58:05.999Z</time></trkpt><trkpt lat="44.551435466943076" lon="9.274248565559299"><ele>631.0</ele><time>2026-04-30T13:58:06.999Z</time></trkpt><trkpt lat="44.55147807504873" lon="9.27444440637776"><ele>631.0</ele><time>2026-04-30T13:58:07.999Z</time></trkpt><trkpt lat="44.55156848243575" lon="9.274636766739507"><ele>631.0</ele><time>2026-04-30T13:58:08.999Z</time></trkpt><trkpt lat="44.55167668900648" lon="9.274806454801332"><ele>631.0</ele><time>2026-04-30T13:58:09.999Z</time></trkpt><trkpt lat="44.55177839836392" lon="9.27494978284068"><ele>627.5</ele><time>2026-04-30T13:58:10.999Z</time></trkpt><trkpt lat="44.5518365691547" lon="9.275079857861973"><ele>624.0</ele><time>2026-04-30T13:58:11.999Z</time></trkpt><trkpt lat="44.551867184408756" lon="9.275234446536182"><ele>620.5</ele><time>2026-04-30T13:58:12.999Z</time></trkpt><trkpt lat="44.55185394043433" lon="9.275390175677424"><ele>617.0</ele><time>2026-04-30T13:58:13.999Z</time></trkpt><trkpt lat="44.55181097642527" lon="9.27557615779079"><ele>615.75</ele><time>2026-04-30T13:58:14.999Z</time></trkpt><trkpt lat="44.55176775875948" lon="9.27576726063618"><ele>614.5</ele><time>2026-04-30T13:58:15.999Z</time></trkpt><trkpt lat="44.55172602492299" lon="9.275959735769845"><ele>613.25</ele><time>2026-04-30T13:58:16.999Z</time></trkpt><trkpt lat="44.55169182659109" lon="9.276182405866836"><ele>612.0</ele><time>2026-04-30T13:58:17.999Z</time></trkpt><trkpt lat="44.55164571507539" lon="9.276394931783745"><ele>615.0</ele><time>2026-04-30T13:58:18.999Z</time></trkpt><trkpt lat="44.55158594230886" lon="9.276637644383461"><ele>618.0</ele><time>2026-04-30T13:58:19.999Z</time></trkpt><trkpt lat="44.551520573262515" lon="9.276870288348693"><ele>621.0</ele><time>2026-04-30T13:58:20.999Z</time></trkpt><trkpt lat="44.551467971174354" lon="9.277118225827984"><ele>621.6666666666666</ele><time>2026-04-30T13:58:21.999Z</time></trkpt><trkpt lat="44.55144495449493" lon="9.277371179266801"><ele>622.3333333333333</ele><time>2026-04-30T13:58:22.999Z</time></trkpt><trkpt lat="44.55140861948819" lon="9.277636055027264"><ele>623.0</ele><time>2026-04-30T13:58:23.999Z</time></trkpt><trkpt lat="44.55139950095897" lon="9.277885032204384"><ele>620.3333333333333</ele><time>2026-04-30T13:58:24.999Z</time></trkpt><trkpt lat="44.55137289465853" lon="9.278131244081358"><ele>617.6666666666666</ele><time>2026-04-30T13:58:25.999Z</time></trkpt><trkpt lat="44.55135986967227" lon="9.27839049200462"><ele>615.0</ele><time>2026-04-30T13:58:26.999Z</time></trkpt><trkpt lat="44.551322663439656" lon="9.278631185480812"><ele>615.0</ele><time>2026-04-30T13:58:27.999Z</time></trkpt><trkpt lat="44.551338605089335" lon="9.278865785410158"><ele>615.0</ele><time>2026-04-30T13:58:28.999Z</time></trkpt><trkpt lat="44.551401419002374" lon="9.279055087920614"><ele>615.0</ele><time>2026-04-30T13:58:29.999Z</time></trkpt><trkpt lat="44.551468936011055" lon="9.279186491266556"><ele>615.0</ele><time>2026-04-30T13:58:30.999Z</time></trkpt><trkpt lat="44.55154469932431" lon="9.27928658087321"><ele>613.0</ele><time>2026-04-30T13:58:31.999Z</time></trkpt><trkpt lat="44.55166795441119" lon="9.27940984691621"><ele>611.0</ele><time>2026-04-30T13:58:32.999Z</time></trkpt><trkpt lat="44.551824020013335" lon="9.279537806651351"><ele>609.0</ele><time>2026-04-30T13:58:33.999Z</time></trkpt><trkpt lat="44.55196817103466" lon="9.27965579654722"><ele>610.0</ele><time>2026-04-30T13:58:34.999Z</time></trkpt><trkpt lat="44.55209854951037" lon="9.279755408691269"><ele>611.0</ele><time>2026-04-30T13:58:35.999Z</time></trkpt><trkpt lat="44.55225493390151" lon="9.279844436280165"><ele>612.0</ele><time>2026-04-30T13:58:36.999Z</time></trkpt><trkpt lat="44.552404246223205" lon="9.279946348058282"><ele>612.0</ele><time>2026-04-30T13:58:37.999Z</time></trkpt><trkpt lat="44.55254327280838" lon="9.280016533269729"><ele>612.0</ele><time>2026-04-30T13:58:38.999Z</time></trkpt><trkpt lat="44.552679091831486" lon="9.28011717823667"><ele>612.0</ele><time>2026-04-30T13:58:39.999Z</time></trkpt><trkpt lat="44.55280331676549" lon="9.280197947941328"><ele>612.0</ele><time>2026-04-30T13:58:40.999Z</time></trkpt><trkpt lat="44.55294793204782" lon="9.280298354375509"><ele>613.75</ele><time>2026-04-30T13:58:41.999Z</time></trkpt><trkpt lat="44.55306807106462" lon="9.280361032760606"><ele>615.5</ele><time>2026-04-30T13:58:42.999Z</time></trkpt><trkpt lat="44.553186015595905" lon="9.280455565440239"><ele>617.25</ele><time>2026-04-30T13:58:43.999Z</time></trkpt><trkpt lat="44.55329467914302" lon="9.280537915928656"><ele>619.0</ele><time>2026-04-30T13:58:44.999Z</time></trkpt><trkpt lat="44.55342253330575" lon="9.28057915055335"><ele>620.75</ele><time>2026-04-30T13:58:45.999Z</time></trkpt><trkpt lat="44.55355102560692" lon="9.280651679025498"><ele>622.5</ele><time>2026-04-30T13:58:46.999Z</time></trkpt><trkpt lat="44.55368609158661" lon="9.280739727212458"><ele>624.25</ele><time>2026-04-30T13:58:47.999Z</time></trkpt><trkpt lat="44.55382298294495" lon="9.280812905851821"><ele>626.0</ele><time>2026-04-30T13:58:48.998Z</time></trkpt><trkpt lat="44.55394860902005" lon="9.280900035489505"><ele>626.0</ele><time>2026-04-30T13:58:49.998Z</time></trkpt><trkpt lat="44.55407176431827" lon="9.280975418353606"><ele>626.0</ele><time>2026-04-30T13:58:50.998Z</time></trkpt><trkpt lat="44.55419387307547" lon="9.281069991135297"><ele>626.0</ele><time>2026-04-30T13:58:51.998Z</time></trkpt><trkpt lat="44.55429169651285" lon="9.281190808075047"><ele>626.0</ele><time>2026-04-30T13:58:52.998Z</time></trkpt><trkpt lat="44.55435159074057" lon="9.281303778773026"><ele>625.5</ele><time>2026-04-30T13:58:53.998Z</time></trkpt><trkpt lat="44.55441636612338" lon="9.281444860017308"><ele>625.0</ele><time>2026-04-30T13:58:54.998Z</time></trkpt><trkpt lat="44.554491267602046" lon="9.281608632721989"><ele>624.5</ele><time>2026-04-30T13:58:55.998Z</time></trkpt><trkpt lat="44.55458341683965" lon="9.28173982121244"><ele>624.0</ele><time>2026-04-30T13:58:56.998Z</time></trkpt><trkpt lat="44.554681807314104" lon="9.281864491165669"><ele>624.0</ele><time>2026-04-30T13:58:57.998Z</time></trkpt><trkpt lat="44.554775660927604" lon="9.28198604409348"><ele>624.0</ele><time>2026-04-30T13:58:58.998Z</time></trkpt><trkpt lat="44.55487137880239" lon="9.282121911647847"><ele>624.0</ele><time>2026-04-30T13:58:59.998Z</time></trkpt><trkpt lat="44.55496361637759" lon="9.282262729975821"><ele>624.0</ele><time>2026-04-30T13:59:00.998Z</time></trkpt><trkpt lat="44.555050463674405" lon="9.282382293300333"><ele>618.5</ele><time>2026-04-30T13:59:01.998Z</time></trkpt><trkpt lat="44.555112863967295" lon="9.282518156566207"><ele>613.0</ele><time>2026-04-30T13:59:02.998Z</time></trkpt><trkpt lat="44.555173239599505" lon="9.28265027200894"><ele>607.5</ele><time>2026-04-30T13:59:03.998Z</time></trkpt><trkpt lat="44.55521437767137" lon="9.28279322486243"><ele>602.0</ele><time>2026-04-30T13:59:04.998Z</time></trkpt><trkpt lat="44.55525316619955" lon="9.282951417553763"><ele>601.25</ele><time>2026-04-30T13:59:05.998Z</time></trkpt><trkpt lat="44.555287598675136" lon="9.283109838970342"><ele>600.5</ele><time>2026-04-30T13:59:06.998Z</time></trkpt><trkpt lat="44.55535964057643" lon="9.28329248066543"><ele>599.75</ele><time>2026-04-30T13:59:07.998Z</time></trkpt><trkpt lat="44.55544310184656" lon="9.28339509743222"><ele>599.0</ele><time>2026-04-30T13:59:08.998Z</time></trkpt><trkpt lat="44.5555227973457" lon="9.283508041539765"><ele>600.6</ele><time>2026-04-30T13:59:09.998Z</time></trkpt><trkpt lat="44.55560747134867" lon="9.283552445485949"><ele>602.2</ele><time>2026-04-30T13:59:10.998Z</time></trkpt><trkpt lat="44.55570057847235" lon="9.28356503400413"><ele>603.8000000000001</ele><time>2026-04-30T13:59:11.998Z</time></trkpt><trkpt lat="44.55578701417065" lon="9.283571953910782"><ele>605.4</ele><time>2026-04-30T13:59:12.998Z</time></trkpt><trkpt lat="44.555886534773144" lon="9.283549131493478"><ele>607.0</ele><time>2026-04-30T13:59:13.998Z</time></trkpt><trkpt lat="44.556001252711624" lon="9.283505961535107"><ele>607.0</ele><time>2026-04-30T13:59:14.998Z</time></trkpt><trkpt lat="44.55611821038775" lon="9.283440737804131"><ele>607.0</ele><time>2026-04-30T13:59:15.998Z</time></trkpt><trkpt lat="44.55622776131173" lon="9.283363201491"><ele>607.0</ele><time>2026-04-30T13:59:16.998Z</time></trkpt><trkpt lat="44.556336512201106" lon="9.283287195076696"><ele>607.0</ele><time>2026-04-30T13:59:17.998Z</time></trkpt><trkpt lat="44.55645511375746" lon="9.283203295440112"><ele>606.2</ele><time>2026-04-30T13:59:18.998Z</time></trkpt><trkpt lat="44.556564427184476" lon="9.283126100868264"><ele>605.4000000000001</ele><time>2026-04-30T13:59:19.998Z</time></trkpt><trkpt lat="44.556665569746066" lon="9.283060364790606"><ele>604.5999999999999</ele><time>2026-04-30T13:59:20.998Z</time></trkpt><trkpt lat="44.5567624573993" lon="9.282998919461836"><ele>603.8</ele><time>2026-04-30T13:59:21.998Z</time></trkpt><trkpt lat="44.55685402077708" lon="9.282940114527033"><ele>603.0</ele><time>2026-04-30T13:59:22.998Z</time></trkpt><trkpt lat="44.556927017624005" lon="9.282893233620396"><ele>603.0</ele><time>2026-04-30T13:59:23.998Z</time></trkpt><trkpt lat="44.55696444963958" lon="9.282814991089722"><ele>603.0</ele><time>2026-04-30T13:59:24.998Z</time></trkpt><trkpt lat="44.55702596171848" lon="9.282699744342917"><ele>603.0</ele><time>2026-04-30T13:59:27.998Z</time></trkpt><trkpt lat="44.55708000073941" lon="9.282599601978893"><ele>603.0</ele><time>2026-04-30T13:59:30.998Z</time></trkpt><trkpt lat="44.55722352283584" lon="9.282526152531766"><ele>603.0</ele><time>2026-04-30T14:03:38.995Z</time></trkpt><trkpt lat="44.5573739944164" lon="9.282597671014724"><ele>602.3333333333334</ele><time>2026-04-30T14:03:59.995Z</time></trkpt><trkpt lat="44.55735869733128" lon="9.28250550116114"><ele>601.6666666666666</ele><time>2026-04-30T14:04:00.995Z</time></trkpt><trkpt lat="44.55745564135562" lon="9.28250291076868"><ele>601.0</ele><time>2026-04-30T14:04:03.994Z</time></trkpt><trkpt lat="44.55757434429894" lon="9.282454352938764"><ele>600.3333333333333</ele><time>2026-04-30T14:04:05.994Z</time></trkpt><trkpt lat="44.55765009016757" lon="9.28243764018502"><ele>599.6666666666666</ele><time>2026-04-30T14:04:06.994Z</time></trkpt><trkpt lat="44.557727437133316" lon="9.282388908594072"><ele>599.0</ele><time>2026-04-30T14:04:07.994Z</time></trkpt><trkpt lat="44.55781245449837" lon="9.282335344409331"><ele>598.0</ele><time>2026-04-30T14:04:08.994Z</time></trkpt><trkpt lat="44.55790338040087" lon="9.282278720898118"><ele>597.0</ele><time>2026-04-30T14:04:09.994Z</time></trkpt><trkpt lat="44.55799346351644" lon="9.282198680804322"><ele>596.0</ele><time>2026-04-30T14:04:10.994Z</time></trkpt><trkpt lat="44.558095998954975" lon="9.282159585296592"><ele>595.0</ele><time>2026-04-30T14:04:11.994Z</time></trkpt><trkpt lat="44.55819960845341" lon="9.282096050826631"><ele>594.0</ele><time>2026-04-30T14:04:12.994Z</time></trkpt><trkpt lat="44.55830682529078" lon="9.282034672915382"><ele>597.0</ele><time>2026-04-30T14:04:13.994Z</time></trkpt><trkpt lat="44.55841813380688" lon="9.281994143136494"><ele>600.0</ele><time>2026-04-30T14:04:14.994Z</time></trkpt><trkpt lat="44.55853245328014" lon="9.281973691653729"><ele>603.0</ele><time>2026-04-30T14:04:15.994Z</time></trkpt><trkpt lat="44.558653345232074" lon="9.28198989003186"><ele>606.0</ele><time>2026-04-30T14:04:16.994Z</time></trkpt><trkpt lat="44.55877512331342" lon="9.282033920609816"><ele>607.75</ele><time>2026-04-30T14:04:17.994Z</time></trkpt><trkpt lat="44.55888557574542" lon="9.282111456173704"><ele>609.5</ele><time>2026-04-30T14:04:18.994Z</time></trkpt><trkpt lat="44.558990910480816" lon="9.282219897541168"><ele>611.25</ele><time>2026-04-30T14:04:19.994Z</time></trkpt><trkpt lat="44.559079351230714" lon="9.282354769736184"><ele>613.0</ele><time>2026-04-30T14:04:20.994Z</time></trkpt><trkpt lat="44.559146033797894" lon="9.28251026886236"><ele>613.0</ele><time>2026-04-30T14:04:21.994Z</time></trkpt><trkpt lat="44.559189781330865" lon="9.28269039940762"><ele>613.0</ele><time>2026-04-30T14:04:22.994Z</time></trkpt><trkpt lat="44.55920699459526" lon="9.282894036848138"><ele>613.0</ele><time>2026-04-30T14:04:23.994Z</time></trkpt><trkpt lat="44.55921073782863" lon="9.283107066142112"><ele>613.0</ele><time>2026-04-30T14:04:24.994Z</time></trkpt><trkpt lat="44.559227221434845" lon="9.283330209818397"><ele>610.0</ele><time>2026-04-30T14:04:25.994Z</time></trkpt><trkpt lat="44.5592946349992" lon="9.283522876273876"><ele>607.0</ele><time>2026-04-30T14:04:26.994Z</time></trkpt><trkpt lat="44.55940087935891" lon="9.283663739734571"><ele>604.0</ele><time>2026-04-30T14:04:27.994Z</time></trkpt><trkpt lat="44.559522266294834" lon="9.283768295501794"><ele>601.0</ele><time>2026-04-30T14:04:28.994Z</time></trkpt><trkpt lat="44.55966032897151" lon="9.283811190738128"><ele>610.0</ele><time>2026-04-30T14:04:29.994Z</time></trkpt><trkpt lat="44.55981032583101" lon="9.283825185639245"><ele>619.0</ele><time>2026-04-30T14:04:30.994Z</time></trkpt><trkpt lat="44.559969881407085" lon="9.28383731529182"><ele>628.0</ele><time>2026-04-30T14:04:31.994Z</time></trkpt><trkpt lat="44.56013965606363" lon="9.283851727475147"><ele>628.0</ele><time>2026-04-30T14:04:32.998Z</time></trkpt><trkpt lat="44.560316160232404" lon="9.283865538410797"><ele>628.0</ele><time>2026-04-30T14:04:33.998Z</time></trkpt><trkpt lat="44.5605016873514" lon="9.28387338903722"><ele>628.0</ele><time>2026-04-30T14:04:34.998Z</time></trkpt><trkpt lat="44.5606919315206" lon="9.28386219925218"><ele>628.0</ele><time>2026-04-30T14:04:35.998Z</time></trkpt><trkpt lat="44.56089005123455" lon="9.283822347658054"><ele>628.0</ele><time>2026-04-30T14:04:36.998Z</time></trkpt><trkpt lat="44.5610801971099" lon="9.28379971374282"><ele>628.0</ele><time>2026-04-30T14:04:37.998Z</time></trkpt><trkpt lat="44.561267908400815" lon="9.283771982662389"><ele>623.6666666666667</ele><time>2026-04-30T14:04:38.998Z</time></trkpt><trkpt lat="44.56144510135033" lon="9.283734600752576"><ele>619.3333333333334</ele><time>2026-04-30T14:04:39.998Z</time></trkpt><trkpt lat="44.56162674376327" lon="9.283688522739777"><ele>615.0</ele><time>2026-04-30T14:04:40.998Z</time></trkpt><trkpt lat="44.56181062253085" lon="9.283630147273557"><ele>615.0</ele><time>2026-04-30T14:04:41.998Z</time></trkpt><trkpt lat="44.56199640357825" lon="9.283538559435891"><ele>615.0</ele><time>2026-04-30T14:04:42.999Z</time></trkpt><trkpt lat="44.562177392825625" lon="9.283414137576347"><ele>615.0</ele><time>2026-04-30T14:04:43.999Z</time></trkpt><trkpt lat="44.562369874336625" lon="9.28327189449945"><ele>609.5</ele><time>2026-04-30T14:04:44.999Z</time></trkpt><trkpt lat="44.56255402924946" lon="9.283114940554603"><ele>604.0</ele><time>2026-04-30T14:04:45.999Z</time></trkpt><trkpt lat="44.56275170706877" lon="9.282935979809336"><ele>596.5</ele><time>2026-04-30T14:04:46.999Z</time></trkpt><trkpt lat="44.56293437149793" lon="9.282762240856872"><ele>589.0</ele><time>2026-04-30T14:04:47.999Z</time></trkpt><trkpt lat="44.56313830666547" lon="9.282568920670464"><ele>589.0</ele><time>2026-04-30T14:04:48.999Z</time></trkpt><trkpt lat="44.56331933064141" lon="9.282397318984575"><ele>589.0</ele><time>2026-04-30T14:04:49.999Z</time></trkpt><trkpt lat="44.56347720657481" lon="9.282247660517058"><ele>589.0</ele><time>2026-04-30T14:04:50.999Z</time></trkpt><trkpt lat="44.56363568511137" lon="9.282097757278088"><ele>589.3333333333334</ele><time>2026-04-30T14:04:51.999Z</time></trkpt><trkpt lat="44.563806726212974" lon="9.281936580383654"><ele>589.6666666666666</ele><time>2026-04-30T14:04:52.999Z</time></trkpt><trkpt lat="44.563973319016306" lon="9.281780698484505"><ele>590.0</ele><time>2026-04-30T14:04:53.999Z</time></trkpt><trkpt lat="44.56413370803415" lon="9.281626976619627"><ele>590.0</ele><time>2026-04-30T14:04:54.999Z</time></trkpt><trkpt lat="44.56430873905506" lon="9.281453234453032"><ele>590.0</ele><time>2026-04-30T14:04:55.999Z</time></trkpt><trkpt lat="44.564450774931885" lon="9.281287170707847"><ele>590.0</ele><time>2026-04-30T14:04:56.999Z</time></trkpt><trkpt lat="44.56458253292679" lon="9.281130819105627"><ele>590.25</ele><time>2026-04-30T14:04:57.999Z</time></trkpt><trkpt lat="44.56468284722023" lon="9.28101141323119"><ele>590.5</ele><time>2026-04-30T14:04:58.999Z</time></trkpt><trkpt lat="44.564773199162175" lon="9.280884749463537"><ele>590.75</ele><time>2026-04-30T14:04:59.999Z</time></trkpt><trkpt lat="44.56489044963154" lon="9.280774873943747"><ele>591.0</ele><time>2026-04-30T14:05:00.999Z</time></trkpt><trkpt lat="44.56499941308007" lon="9.280792170521163"><ele>591.0</ele><time>2026-04-30T14:05:01.999Z</time></trkpt><trkpt lat="44.56507802624798" lon="9.280851165705991"><ele>591.0</ele><time>2026-04-30T14:05:02.999Z</time></trkpt><trkpt lat="44.56515117059218" lon="9.280913271761232"><ele>591.0</ele><time>2026-04-30T14:05:03.999Z</time></trkpt><trkpt lat="44.56523327298504" lon="9.280984010879129"><ele>591.0</ele><time>2026-04-30T14:05:04.999Z</time></trkpt><trkpt lat="44.56531534140171" lon="9.281050808412207"><ele>591.0</ele><time>2026-04-30T14:05:05.999Z</time></trkpt><trkpt lat="44.565405728723576" lon="9.2811235711471"><ele>591.6</ele><time>2026-04-30T14:05:06.999Z</time></trkpt><trkpt lat="44.56551887776599" lon="9.281195338487858"><ele>592.2</ele><time>2026-04-30T14:05:07.999Z</time></trkpt><trkpt lat="44.56566952734671" lon="9.281138119453528"><ele>592.8</ele><time>2026-04-30T14:05:08.999Z</time></trkpt><trkpt lat="44.56576276657201" lon="9.28112210616051"><ele>593.4</ele><time>2026-04-30T14:05:09.999Z</time></trkpt><trkpt lat="44.565827097976175" lon="9.281114057651479"><ele>594.0</ele><time>2026-04-30T14:05:10.999Z</time></trkpt><trkpt lat="44.56588637773934" lon="9.28105944482237"><ele>594.0</ele><time>2026-04-30T14:05:11.999Z</time></trkpt><trkpt lat="44.56593795666969" lon="9.28091424219244"><ele>594.0</ele><time>2026-04-30T14:05:12.999Z</time></trkpt><trkpt lat="44.565998031939586" lon="9.280754240614643"><ele>594.0</ele><time>2026-04-30T14:05:13.999Z</time></trkpt><trkpt lat="44.56605861991372" lon="9.280612775487231"><ele>594.0</ele><time>2026-04-30T14:05:14.999Z</time></trkpt><trkpt lat="44.56611598805381" lon="9.280438697694954"><ele>592.75</ele><time>2026-04-30T14:05:15.999Z</time></trkpt><trkpt lat="44.56618423828769" lon="9.28024936492818"><ele>591.5</ele><time>2026-04-30T14:05:16.999Z</time></trkpt><trkpt lat="44.56626029160153" lon="9.280088375813698"><ele>590.25</ele><time>2026-04-30T14:05:17.999Z</time></trkpt><trkpt lat="44.56633356984272" lon="9.27992162252561"><ele>589.0</ele><time>2026-04-30T14:05:18.999Z</time></trkpt><trkpt lat="44.566424759617156" lon="9.279765890562668"><ele>588.75</ele><time>2026-04-30T14:05:19.999Z</time></trkpt><trkpt lat="44.56651034497346" lon="9.27962348245789"><ele>588.5</ele><time>2026-04-30T14:05:20.999Z</time></trkpt><trkpt lat="44.56661980735706" lon="9.2795077035726"><ele>588.25</ele><time>2026-04-30T14:05:21.999Z</time></trkpt><trkpt lat="44.56674974383404" lon="9.279397995413332"><ele>588.0</ele><time>2026-04-30T14:05:22.999Z</time></trkpt><trkpt lat="44.566898389903066" lon="9.27928894986183"><ele>593.6666666666666</ele><time>2026-04-30T14:05:23.999Z</time></trkpt><trkpt lat="44.567034433260964" lon="9.279177182089727"><ele>599.3333333333333</ele><time>2026-04-30T14:05:24.999Z</time></trkpt><trkpt lat="44.56717431446913" lon="9.279061215260494"><ele>605.0</ele><time>2026-04-30T14:05:25.999Z</time></trkpt><trkpt lat="44.56732640094756" lon="9.27894296770272"><ele>598.6666666666666</ele><time>2026-04-30T14:05:26.999Z</time></trkpt><trkpt lat="44.567491153868794" lon="9.278831951979363"><ele>592.3333333333334</ele><time>2026-04-30T14:05:27.999Z</time></trkpt><trkpt lat="44.56764757187316" lon="9.278688274665726"><ele>586.0</ele><time>2026-04-30T14:05:28.999Z</time></trkpt><trkpt lat="44.56780690447227" lon="9.278531770135034"><ele>584.6666666666667</ele><time>2026-04-30T14:05:29.999Z</time></trkpt><trkpt lat="44.56796970482969" lon="9.278340570017447"><ele>583.3333333333334</ele><time>2026-04-30T14:05:30.999Z</time></trkpt><trkpt lat="44.5681360040981" lon="9.278164037526206"><ele>582.0</ele><time>2026-04-30T14:05:31.999Z</time></trkpt><trkpt lat="44.568308653510016" lon="9.277991094991044"><ele>582.0</ele><time>2026-04-30T14:05:32.999Z</time></trkpt><trkpt lat="44.56846990695047" lon="9.277821272549248"><ele>582.0</ele><time>2026-04-30T14:05:33.999Z</time></trkpt><trkpt lat="44.56861794088502" lon="9.277658510427619"><ele>582.0</ele><time>2026-04-30T14:05:34.999Z</time></trkpt><trkpt lat="44.56875853599841" lon="9.277515316176615"><ele>582.0</ele><time>2026-04-30T14:05:35.999Z</time></trkpt><trkpt lat="44.568878788643524" lon="9.27736869901974"><ele>582.0</ele><time>2026-04-30T14:05:36.999Z</time></trkpt><trkpt lat="44.56901501283628" lon="9.27721991153838"><ele>582.0</ele><time>2026-04-30T14:05:37.999Z</time></trkpt><trkpt lat="44.56909012277877" lon="9.277045237892963"><ele>582.0</ele><time>2026-04-30T14:05:38.999Z</time></trkpt><trkpt lat="44.569136378645645" lon="9.276834284870212"><ele>582.0</ele><time>2026-04-30T14:05:39.999Z</time></trkpt><trkpt lat="44.56919714604582" lon="9.276652645060151"><ele>582.0</ele><time>2026-04-30T14:05:40.999Z</time></trkpt><trkpt lat="44.56928098989507" lon="9.276469484502487"><ele>581.6666666666666</ele><time>2026-04-30T14:05:41.999Z</time></trkpt><trkpt lat="44.56936629085395" lon="9.276306549552201"><ele>581.3333333333333</ele><time>2026-04-30T14:05:42.999Z</time></trkpt><trkpt lat="44.569477952769354" lon="9.276156994811513"><ele>581.0</ele><time>2026-04-30T14:05:43.999Z</time></trkpt><trkpt lat="44.56960569414241" lon="9.276036864808766"><ele>582.0</ele><time>2026-04-30T14:05:44.999Z</time></trkpt><trkpt lat="44.569752922054384" lon="9.275937877132884"><ele>583.0</ele><time>2026-04-30T14:05:45.999Z</time></trkpt><trkpt lat="44.56992104507416" lon="9.275881465521856"><ele>584.0</ele><time>2026-04-30T14:05:46.999Z</time></trkpt><trkpt lat="44.57007582500091" lon="9.275848294739909"><ele>584.0</ele><time>2026-04-30T14:05:47.999Z</time></trkpt><trkpt lat="44.570232929174615" lon="9.275824585187536"><ele>584.0</ele><time>2026-04-30T14:05:48.999Z</time></trkpt><trkpt lat="44.57039317670615" lon="9.275854659235568"><ele>584.0</ele><time>2026-04-30T14:05:49.999Z</time></trkpt><trkpt lat="44.5705472159868" lon="9.275891174445514"><ele>585.6666666666666</ele><time>2026-04-30T14:05:50.999Z</time></trkpt><trkpt lat="44.57069181743464" lon="9.275963999001746"><ele>587.3333333333334</ele><time>2026-04-30T14:05:51.999Z</time></trkpt><trkpt lat="44.57083131273073" lon="9.276046402839981"><ele>589.0</ele><time>2026-04-30T14:05:52.999Z</time></trkpt><trkpt lat="44.570968909962" lon="9.27613926418786"><ele>589.0</ele><time>2026-04-30T14:05:53.999Z</time></trkpt><trkpt lat="44.57111221625749" lon="9.276203538758791"><ele>589.0</ele><time>2026-04-30T14:05:54.999Z</time></trkpt><trkpt lat="44.57123388383082" lon="9.276194542756006"><ele>589.0</ele><time>2026-04-30T14:05:55.999Z</time></trkpt><trkpt lat="44.57134229972055" lon="9.276177595733277"><ele>589.0</ele><time>2026-04-30T14:05:56.999Z</time></trkpt><trkpt lat="44.57143426971552" lon="9.276096245109944"><ele>589.0</ele><time>2026-04-30T14:05:57.999Z</time></trkpt><trkpt lat="44.57152542317208" lon="9.27595878552356"><ele>589.0</ele><time>2026-04-30T14:05:58.999Z</time></trkpt><trkpt lat="44.571641814956976" lon="9.275796397762738"><ele>589.0</ele><time>2026-04-30T14:05:59.999Z</time></trkpt><trkpt lat="44.57178444954372" lon="9.275638094215434"><ele>588.3333333333334</ele><time>2026-04-30T14:06:00.999Z</time></trkpt><trkpt lat="44.57195933227479" lon="9.275505350843412"><ele>587.6666666666666</ele><time>2026-04-30T14:06:01.999Z</time></trkpt><trkpt lat="44.57210137542612" lon="9.275405058400034"><ele>587.0</ele><time>2026-04-30T14:06:02.999Z</time></trkpt><trkpt lat="44.57227387239592" lon="9.27529638126251"><ele>587.0</ele><time>2026-04-30T14:06:03.999Z</time></trkpt><trkpt lat="44.572456477251706" lon="9.275171356774992"><ele>587.0</ele><time>2026-04-30T14:06:04.999Z</time></trkpt><trkpt lat="44.572637676201374" lon="9.275038567811858"><ele>587.0</ele><time>2026-04-30T14:06:05.999Z</time></trkpt><trkpt lat="44.572823027616586" lon="9.274898176531119"><ele>586.3333333333333</ele><time>2026-04-30T14:06:06.999Z</time></trkpt><trkpt lat="44.57299644373356" lon="9.274762459927379"><ele>585.6666666666666</ele><time>2026-04-30T14:06:07.999Z</time></trkpt><trkpt lat="44.57314229807493" lon="9.274610262334145"><ele>585.0</ele><time>2026-04-30T14:06:08.999Z</time></trkpt><trkpt lat="44.57328577912058" lon="9.274429715426384"><ele>585.0</ele><time>2026-04-30T14:06:09.999Z</time></trkpt><trkpt lat="44.573426496690004" lon="9.27425659607228"><ele>585.0</ele><time>2026-04-30T14:06:10.999Z</time></trkpt><trkpt lat="44.57357272451375" lon="9.274081236573293"><ele>585.0</ele><time>2026-04-30T14:06:11.999Z</time></trkpt><trkpt lat="44.57371110341137" lon="9.273908760061353"><ele>585.6666666666666</ele><time>2026-04-30T14:06:12.999Z</time></trkpt><trkpt lat="44.573852265987334" lon="9.273753039881194"><ele>586.3333333333333</ele><time>2026-04-30T14:06:13.999Z</time></trkpt><trkpt lat="44.57397804588628" lon="9.27360886719471"><ele>587.0</ele><time>2026-04-30T14:06:14.999Z</time></trkpt><trkpt lat="44.574147365719504" lon="9.273475793879285"><ele>587.0</ele><time>2026-04-30T14:06:15.999Z</time></trkpt><trkpt lat="44.574258755103436" lon="9.273300934109109"><ele>587.0</ele><time>2026-04-30T14:06:16.999Z</time></trkpt><trkpt lat="44.57437779505997" lon="9.273177106066349"><ele>587.0</ele><time>2026-04-30T14:06:17.999Z</time></trkpt><trkpt lat="44.574440685095865" lon="9.273060426225245"><ele>587.0</ele><time>2026-04-30T14:06:18.999Z</time></trkpt><trkpt lat="44.57450171168829" lon="9.272882716912049"><ele>587.0</ele><time>2026-04-30T14:06:19.999Z</time></trkpt><trkpt lat="44.574564429058086" lon="9.272651253477424"><ele>587.0</ele><time>2026-04-30T14:06:20.999Z</time></trkpt><trkpt lat="44.57463179395552" lon="9.272427482731894"><ele>587.0</ele><time>2026-04-30T14:06:21.999Z</time></trkpt><trkpt lat="44.57470426736431" lon="9.272206715990256"><ele>587.0</ele><time>2026-04-30T14:06:22.999Z</time></trkpt><trkpt lat="44.57478353097382" lon="9.2720161766945"><ele>587.0</ele><time>2026-04-30T14:06:23.999Z</time></trkpt><trkpt lat="44.57483819795809" lon="9.271837866135373"><ele>587.0</ele><time>2026-04-30T14:06:24.999Z</time></trkpt><trkpt lat="44.574907206819674" lon="9.271650886836696"><ele>587.0</ele><time>2026-04-30T14:06:25.999Z</time></trkpt><trkpt lat="44.57499665154224" lon="9.271509573709258"><ele>585.8000000000001</ele><time>2026-04-30T14:06:26.999Z</time></trkpt><trkpt lat="44.57506620396885" lon="9.271379471125657"><ele>584.6</ele><time>2026-04-30T14:06:27.999Z</time></trkpt><trkpt lat="44.57513894128426" lon="9.271248951561304"><ele>583.4000000000001</ele><time>2026-04-30T14:06:28.999Z</time></trkpt><trkpt lat="44.57517691876385" lon="9.271147434257788"><ele>582.2</ele><time>2026-04-30T14:06:29.999Z</time></trkpt><trkpt lat="44.5752404118311" lon="9.271075080506888"><ele>581.0</ele><time>2026-04-30T14:06:30.999Z</time></trkpt><trkpt lat="44.575300360080526" lon="9.270977262519855"><ele>580.6</ele><time>2026-04-30T14:06:31.999Z</time></trkpt><trkpt lat="44.575366115839806" lon="9.270875945289049"><ele>580.2</ele><time>2026-04-30T14:06:32.999Z</time></trkpt><trkpt lat="44.57544665244661" lon="9.270756182675887"><ele>579.8</ele><time>2026-04-30T14:06:33.999Z</time></trkpt><trkpt lat="44.57553302193979" lon="9.270665913954543"><ele>579.4</ele><time>2026-04-30T14:06:34.999Z</time></trkpt><trkpt lat="44.57563347111128" lon="9.270594879731172"><ele>579.0</ele><time>2026-04-30T14:06:35.999Z</time></trkpt><trkpt lat="44.57572071627613" lon="9.270562488934182"><ele>579.0</ele><time>2026-04-30T14:06:36.999Z</time></trkpt><trkpt lat="44.575823089736744" lon="9.270555546699962"><ele>579.0</ele><time>2026-04-30T14:06:37.999Z</time></trkpt><trkpt lat="44.57592059862518" lon="9.270557840034863"><ele>579.0</ele><time>2026-04-30T14:06:38.999Z</time></trkpt><trkpt lat="44.57602161472286" lon="9.270566036902625"><ele>579.0</ele><time>2026-04-30T14:06:39.999Z</time></trkpt><trkpt lat="44.5761255776739" lon="9.270484958327433"><ele>579.0</ele><time>2026-04-30T14:06:40.999Z</time></trkpt><trkpt lat="44.57622488749339" lon="9.27044508546349"><ele>578.5</ele><time>2026-04-30T14:06:41.999Z</time></trkpt><trkpt lat="44.576345237187155" lon="9.270422130245791"><ele>578.0</ele><time>2026-04-30T14:06:42.999Z</time></trkpt><trkpt lat="44.576445830020035" lon="9.270327564933213"><ele>577.5</ele><time>2026-04-30T14:06:43.999Z</time></trkpt><trkpt lat="44.5765683020982" lon="9.270310525255763"><ele>577.0</ele><time>2026-04-30T14:06:44.999Z</time></trkpt><trkpt lat="44.57670381275432" lon="9.270327723934797"><ele>577.0</ele><time>2026-04-30T14:06:45.999Z</time></trkpt><trkpt lat="44.576841514497204" lon="9.270288311376712"><ele>577.0</ele><time>2026-04-30T14:06:46.999Z</time></trkpt><trkpt lat="44.57696938663544" lon="9.270249979177072"><ele>577.0</ele><time>2026-04-30T14:06:47.999Z</time></trkpt><trkpt lat="44.57713286137045" lon="9.270268418731142"><ele>577.0</ele><time>2026-04-30T14:06:48.999Z</time></trkpt><trkpt lat="44.5773077640491" lon="9.270284668079762"><ele>576.3333333333334</ele><time>2026-04-30T14:06:49.999Z</time></trkpt><trkpt lat="44.577472701102906" lon="9.270315751152898"><ele>575.6666666666666</ele><time>2026-04-30T14:06:50.999Z</time></trkpt><trkpt lat="44.57764322227479" lon="9.270308194300272"><ele>575.0</ele><time>2026-04-30T14:06:51.999Z</time></trkpt><trkpt lat="44.57781132882819" lon="9.2702993277173"><ele>575.0</ele><time>2026-04-30T14:06:52.999Z</time></trkpt><trkpt lat="44.57796861505721" lon="9.270273780280187"><ele>575.0</ele><time>2026-04-30T14:06:53.998Z</time></trkpt><trkpt lat="44.57816361108187" lon="9.27022113998067"><ele>575.0</ele><time>2026-04-30T14:06:54.998Z</time></trkpt><trkpt lat="44.57836210829252" lon="9.2701608079939"><ele>575.0</ele><time>2026-04-30T14:06:55.998Z</time></trkpt><trkpt lat="44.5785481362678" lon="9.270104092176966"><ele>575.0</ele><time>2026-04-30T14:06:56.998Z</time></trkpt><trkpt lat="44.578722729876716" lon="9.270037997040609"><ele>575.0</ele><time>2026-04-30T14:06:57.998Z</time></trkpt><trkpt lat="44.5788943759655" lon="9.270018450888996"><ele>575.3333333333333</ele><time>2026-04-30T14:06:58.998Z</time></trkpt><trkpt lat="44.579045299495654" lon="9.270004224079226"><ele>575.6666666666666</ele><time>2026-04-30T14:06:59.998Z</time></trkpt><trkpt lat="44.57920395697244" lon="9.270016963077103"><ele>576.0</ele><time>2026-04-30T14:07:00.998Z</time></trkpt><trkpt lat="44.5793712760971" lon="9.270032515486164"><ele>576.0</ele><time>2026-04-30T14:07:01.998Z</time></trkpt><trkpt lat="44.579550981508675" lon="9.270036978798496"><ele>576.0</ele><time>2026-04-30T14:07:02.998Z</time></trkpt><trkpt lat="44.579748895861485" lon="9.270076391056552"><ele>576.0</ele><time>2026-04-30T14:07:03.998Z</time></trkpt><trkpt lat="44.579918015498784" lon="9.270093876437343"><ele>576.0</ele><time>2026-04-30T14:07:04.998Z</time></trkpt><trkpt lat="44.5800977671954" lon="9.270113340250571"><ele>576.0</ele><time>2026-04-30T14:07:05.998Z</time></trkpt><trkpt lat="44.58028242187174" lon="9.270121644187016"><ele>576.0</ele><time>2026-04-30T14:07:06.998Z</time></trkpt><trkpt lat="44.580471519378186" lon="9.270164016820429"><ele>575.0</ele><time>2026-04-30T14:07:07.998Z</time></trkpt><trkpt lat="44.58065475417115" lon="9.270201900444352"><ele>574.0</ele><time>2026-04-30T14:07:08.998Z</time></trkpt><trkpt lat="44.58082081982388" lon="9.270233746685173"><ele>573.0</ele><time>2026-04-30T14:07:09.998Z</time></trkpt><trkpt lat="44.580997877555" lon="9.270273928051267"><ele>573.0</ele><time>2026-04-30T14:07:10.998Z</time></trkpt><trkpt lat="44.581147926917176" lon="9.27036297958888"><ele>573.0</ele><time>2026-04-30T14:07:11.998Z</time></trkpt><trkpt lat="44.58133274096705" lon="9.270435835034187"><ele>573.0</ele><time>2026-04-30T14:07:12.998Z</time></trkpt><trkpt lat="44.5815095325428" lon="9.270534195850436"><ele>571.3333333333334</ele><time>2026-04-30T14:07:13.998Z</time></trkpt><trkpt lat="44.5816945596386" lon="9.270669104740977"><ele>569.6666666666667</ele><time>2026-04-30T14:07:14.998Z</time></trkpt><trkpt lat="44.581900091620916" lon="9.270832092069313"><ele>568.0</ele><time>2026-04-30T14:07:15.998Z</time></trkpt><trkpt lat="44.582110322765246" lon="9.270971042793002"><ele>568.0</ele><time>2026-04-30T14:07:16.998Z</time></trkpt><trkpt lat="44.582297333461405" lon="9.271115715710394"><ele>568.0</ele><time>2026-04-30T14:07:17.998Z</time></trkpt><trkpt lat="44.5824794372117" lon="9.271268712405414"><ele>568.0</ele><time>2026-04-30T14:07:18.998Z</time></trkpt><trkpt lat="44.58263316235231" lon="9.271381612247682"><ele>569.3333333333334</ele><time>2026-04-30T14:07:19.998Z</time></trkpt><trkpt lat="44.58285387222235" lon="9.27145837139673"><ele>570.6666666666666</ele><time>2026-04-30T14:07:20.998Z</time></trkpt><trkpt lat="44.58301777936918" lon="9.271577858849666"><ele>572.0</ele><time>2026-04-30T14:07:21.998Z</time></trkpt><trkpt lat="44.58317435371552" lon="9.271711498095724"><ele>572.0</ele><time>2026-04-30T14:07:22.998Z</time></trkpt><trkpt lat="44.58331098489614" lon="9.271832046443018"><ele>572.0</ele><time>2026-04-30T14:07:23.998Z</time></trkpt><trkpt lat="44.5834446514018" lon="9.271990318267633"><ele>572.0</ele><time>2026-04-30T14:07:24.998Z</time></trkpt><trkpt lat="44.583569478096166" lon="9.272185448230445"><ele>571.0</ele><time>2026-04-30T14:07:25.998Z</time></trkpt><trkpt lat="44.58369429240468" lon="9.272437839967704"><ele>570.0</ele><time>2026-04-30T14:07:26.998Z</time></trkpt><trkpt lat="44.58381515575758" lon="9.272690028865204"><ele>569.0</ele><time>2026-04-30T14:07:27.998Z</time></trkpt><trkpt lat="44.58393203053143" lon="9.272919001412925"><ele>571.3333333333333</ele><time>2026-04-30T14:07:28.998Z</time></trkpt><trkpt lat="44.58405763441575" lon="9.273147922719682"><ele>573.6666666666666</ele><time>2026-04-30T14:07:29.998Z</time></trkpt><trkpt lat="44.58417901837924" lon="9.273338086236851"><ele>576.0</ele><time>2026-04-30T14:07:30.998Z</time></trkpt><trkpt lat="44.584338252650554" lon="9.273531938316763"><ele>576.0</ele><time>2026-04-30T14:07:31.998Z</time></trkpt><trkpt lat="44.58446792916391" lon="9.273786969397177"><ele>576.0</ele><time>2026-04-30T14:07:32.998Z</time></trkpt><trkpt lat="44.58460072207381" lon="9.27404714728074"><ele>573.3333333333334</ele><time>2026-04-30T14:07:33.998Z</time></trkpt><trkpt lat="44.584689865345716" lon="9.274312580358467"><ele>570.6666666666667</ele><time>2026-04-30T14:07:34.998Z</time></trkpt><trkpt lat="44.584794312616374" lon="9.274557567758091"><ele>568.0</ele><time>2026-04-30T14:07:35.998Z</time></trkpt><trkpt lat="44.58487118210676" lon="9.274807101900752"><ele>568.0</ele><time>2026-04-30T14:07:36.998Z</time></trkpt><trkpt lat="44.58497283309991" lon="9.275055627640592"><ele>568.0</ele><time>2026-04-30T14:07:37.998Z</time></trkpt><trkpt lat="44.58503629440793" lon="9.275275541263817"><ele>568.0</ele><time>2026-04-30T14:07:38.998Z</time></trkpt><trkpt lat="44.58512491387159" lon="9.275493785103404"><ele>570.6666666666667</ele><time>2026-04-30T14:07:39.998Z</time></trkpt><trkpt lat="44.58519082785743" lon="9.275703113530783"><ele>573.3333333333334</ele><time>2026-04-30T14:07:40.998Z</time></trkpt><trkpt lat="44.58523154661721" lon="9.275916016895598"><ele>576.0</ele><time>2026-04-30T14:07:41.998Z</time></trkpt><trkpt lat="44.58522937821101" lon="9.27614222786669"><ele>576.0</ele><time>2026-04-30T14:07:42.998Z</time></trkpt><trkpt lat="44.58523636775877" lon="9.276393195218041"><ele>576.0</ele><time>2026-04-30T14:07:43.998Z</time></trkpt><trkpt lat="44.5852421979867" lon="9.276655963992138"><ele>576.0</ele><time>2026-04-30T14:07:44.998Z</time></trkpt><trkpt lat="44.585251312596036" lon="9.27691669766705"><ele>575.0</ele><time>2026-04-30T14:07:45.998Z</time></trkpt><trkpt lat="44.58527929168825" lon="9.277183016268086"><ele>574.0</ele><time>2026-04-30T14:07:46.998Z</time></trkpt><trkpt lat="44.58534579334038" lon="9.277424551344346"><ele>573.0</ele><time>2026-04-30T14:07:47.998Z</time></trkpt><trkpt lat="44.58544738362892" lon="9.27763919690391"><ele>570.0</ele><time>2026-04-30T14:07:48.998Z</time></trkpt><trkpt lat="44.58555410078967" lon="9.277855638540755"><ele>567.0</ele><time>2026-04-30T14:07:49.998Z</time></trkpt><trkpt lat="44.585659022173516" lon="9.278066707077565"><ele>564.0</ele><time>2026-04-30T14:07:50.998Z</time></trkpt><trkpt lat="44.585762172482895" lon="9.278284923028833"><ele>564.0</ele><time>2026-04-30T14:07:51.998Z</time></trkpt><trkpt lat="44.58585155432386" lon="9.278502749615228"><ele>564.0</ele><time>2026-04-30T14:07:52.998Z</time></trkpt><trkpt lat="44.58592515050931" lon="9.278703671223319"><ele>564.0</ele><time>2026-04-30T14:07:53.998Z</time></trkpt><trkpt lat="44.58598037577181" lon="9.278867623962688"><ele>566.75</ele><time>2026-04-30T14:07:54.998Z</time></trkpt><trkpt lat="44.586030595913414" lon="9.279054769376893"><ele>569.5</ele><time>2026-04-30T14:07:55.998Z</time></trkpt><trkpt lat="44.58609836939646" lon="9.279216562549562"><ele>572.25</ele><time>2026-04-30T14:07:56.998Z</time></trkpt><trkpt lat="44.58613940288624" lon="9.279363328590554"><ele>575.0</ele><time>2026-04-30T14:07:57.998Z</time></trkpt><trkpt lat="44.58617180653793" lon="9.279491678189903"><ele>571.0</ele><time>2026-04-30T14:07:58.998Z</time></trkpt><trkpt lat="44.5861999723075" lon="9.27958063474039"><ele>567.0</ele><time>2026-04-30T14:07:59.998Z</time></trkpt><trkpt lat="44.58624264027104" lon="9.279702097442499"><ele>563.0</ele><time>2026-04-30T14:08:01.998Z</time></trkpt><trkpt lat="44.58629063767341" lon="9.279836001884808"><ele>559.0</ele><time>2026-04-30T14:10:05.996Z</time></trkpt><trkpt lat="44.58632130687234" lon="9.27991788218432"><ele>555.0</ele><time>2026-04-30T14:10:06.996Z</time></trkpt><trkpt lat="44.586354560035225" lon="9.280005549519515"><ele>551.0</ele><time>2026-04-30T14:10:07.996Z</time></trkpt><trkpt lat="44.58638992231094" lon="9.280096502004623"><ele>551.0</ele><time>2026-04-30T14:10:08.996Z</time></trkpt><trkpt lat="44.58642916517111" lon="9.280197435429956"><ele>551.0</ele><time>2026-04-30T14:10:09.996Z</time></trkpt><trkpt lat="44.58647318805874" lon="9.280312997791048"><ele>551.0</ele><time>2026-04-30T14:10:10.996Z</time></trkpt><trkpt lat="44.58652247277951" lon="9.280443901184562"><ele>551.0</ele><time>2026-04-30T14:10:11.996Z</time></trkpt><trkpt lat="44.586579526390594" lon="9.280595439247596"><ele>551.0</ele><time>2026-04-30T14:10:12.996Z</time></trkpt><trkpt lat="44.586643946435636" lon="9.280766026666706"><ele>553.75</ele><time>2026-04-30T14:10:13.996Z</time></trkpt><trkpt lat="44.586710903308585" lon="9.280936360757545"><ele>556.5</ele><time>2026-04-30T14:10:14.996Z</time></trkpt><trkpt lat="44.586785002963246" lon="9.281110320541368"><ele>559.25</ele><time>2026-04-30T14:10:15.996Z</time></trkpt><trkpt lat="44.58686929682619" lon="9.28126574820032"><ele>562.0</ele><time>2026-04-30T14:10:16.996Z</time></trkpt><trkpt lat="44.58696194305211" lon="9.281399254521654"><ele>561.5</ele><time>2026-04-30T14:10:17.996Z</time></trkpt><trkpt lat="44.58705548081996" lon="9.281523952650119"><ele>561.0</ele><time>2026-04-30T14:10:18.996Z</time></trkpt><trkpt lat="44.58715822356427" lon="9.281652597832453"><ele>560.5</ele><time>2026-04-30T14:10:19.996Z</time></trkpt><trkpt lat="44.58726442634088" lon="9.28176303869933"><ele>560.0</ele><time>2026-04-30T14:10:20.996Z</time></trkpt><trkpt lat="44.587365805066085" lon="9.281855914832501"><ele>560.0</ele><time>2026-04-30T14:10:21.996Z</time></trkpt><trkpt lat="44.587461203502656" lon="9.281937450658344"><ele>560.0</ele><time>2026-04-30T14:10:22.996Z</time></trkpt><trkpt lat="44.58755447066544" lon="9.282009909425259"><ele>560.0</ele><time>2026-04-30T14:10:23.996Z</time></trkpt><trkpt lat="44.58766337833565" lon="9.282079623949338"><ele>560.0</ele><time>2026-04-30T14:10:24.996Z</time></trkpt><trkpt lat="44.58777930649148" lon="9.282108405020592"><ele>560.0</ele><time>2026-04-30T14:10:25.996Z</time></trkpt><trkpt lat="44.58788257728959" lon="9.282100123258681"><ele>560.0</ele><time>2026-04-30T14:10:26.996Z</time></trkpt><trkpt lat="44.58798507844645" lon="9.282074889484035"><ele>560.0</ele><time>2026-04-30T14:10:27.996Z</time></trkpt><trkpt lat="44.58808128297446" lon="9.282003319498253"><ele>560.0</ele><time>2026-04-30T14:10:28.996Z</time></trkpt><trkpt lat="44.5881893855231" lon="9.281936298087617"><ele>560.0</ele><time>2026-04-30T14:10:29.996Z</time></trkpt><trkpt lat="44.58829780123516" lon="9.28187091354218"><ele>560.0</ele><time>2026-04-30T14:10:30.996Z</time></trkpt><trkpt lat="44.588399333182906" lon="9.281816715722181"><ele>560.0</ele><time>2026-04-30T14:10:31.996Z</time></trkpt><trkpt lat="44.58849628905773" lon="9.28179421333721"><ele>560.0</ele><time>2026-04-30T14:10:32.996Z</time></trkpt><trkpt lat="44.58858649182309" lon="9.281801723695217"><ele>560.0</ele><time>2026-04-30T14:10:33.996Z</time></trkpt><trkpt lat="44.58867623701499" lon="9.281837116894959"><ele>560.0</ele><time>2026-04-30T14:10:34.996Z</time></trkpt><trkpt lat="44.58875896203106" lon="9.281917100164017"><ele>560.0</ele><time>2026-04-30T14:10:35.996Z</time></trkpt><trkpt lat="44.588840372437865" lon="9.28203122218259"><ele>560.0</ele><time>2026-04-30T14:10:36.996Z</time></trkpt><trkpt lat="44.588914158868064" lon="9.282179771328375"><ele>560.0</ele><time>2026-04-30T14:10:37.996Z</time></trkpt><trkpt lat="44.58899658328442" lon="9.282342980400285"><ele>560.0</ele><time>2026-04-30T14:10:38.996Z</time></trkpt><trkpt lat="44.58907324103938" lon="9.282528091223677"><ele>560.0</ele><time>2026-04-30T14:10:39.996Z</time></trkpt><trkpt lat="44.58913812362933" lon="9.282729844129008"><ele>560.0</ele><time>2026-04-30T14:10:40.996Z</time></trkpt><trkpt lat="44.589184629734724" lon="9.282949951485678"><ele>560.0</ele><time>2026-04-30T14:10:41.996Z</time></trkpt><trkpt lat="44.58922297052176" lon="9.283163811078978"><ele>562.6666666666666</ele><time>2026-04-30T14:10:42.996Z</time></trkpt><trkpt lat="44.58924330600393" lon="9.28337718475401"><ele>565.3333333333334</ele><time>2026-04-30T14:10:43.996Z</time></trkpt><trkpt lat="44.58923750585518" lon="9.283615042542632"><ele>568.0</ele><time>2026-04-30T14:10:44.996Z</time></trkpt><trkpt lat="44.58922754508839" lon="9.283861696385408"><ele>568.0</ele><time>2026-04-30T14:10:45.996Z</time></trkpt><trkpt lat="44.58921391305378" lon="9.28411007891138"><ele>568.0</ele><time>2026-04-30T14:10:46.996Z</time></trkpt><trkpt lat="44.589248354445566" lon="9.28433852283262"><ele>568.0</ele><time>2026-04-30T14:10:47.996Z</time></trkpt><trkpt lat="44.58932182549287" lon="9.284567946613677"><ele>571.3333333333334</ele><time>2026-04-30T14:10:48.996Z</time></trkpt><trkpt lat="44.58941878554321" lon="9.284796173610852"><ele>574.6666666666666</ele><time>2026-04-30T14:10:49.996Z</time></trkpt><trkpt lat="44.58950904808749" lon="9.285020051359053"><ele>578.0</ele><time>2026-04-30T14:10:50.996Z</time></trkpt><trkpt lat="44.58958572494062" lon="9.285246395464926"><ele>571.6666666666666</ele><time>2026-04-30T14:10:51.996Z</time></trkpt><trkpt lat="44.58966046912186" lon="9.285455615670818"><ele>565.3333333333334</ele><time>2026-04-30T14:10:52.996Z</time></trkpt><trkpt lat="44.58974892209745" lon="9.28563760756605"><ele>559.0</ele><time>2026-04-30T14:10:53.996Z</time></trkpt><trkpt lat="44.589875384169694" lon="9.285772335820079"><ele>559.0</ele><time>2026-04-30T14:10:54.996Z</time></trkpt><trkpt lat="44.590009450706845" lon="9.285898018769604"><ele>559.0</ele><time>2026-04-30T14:10:55.996Z</time></trkpt><trkpt lat="44.590146631178854" lon="9.286052086678373"><ele>559.0</ele><time>2026-04-30T14:10:56.996Z</time></trkpt><trkpt lat="44.59027286037036" lon="9.28624428463041"><ele>555.0</ele><time>2026-04-30T14:10:57.996Z</time></trkpt><trkpt lat="44.59036639860803" lon="9.286435600305056"><ele>551.0</ele><time>2026-04-30T14:10:58.996Z</time></trkpt><trkpt lat="44.59042803997399" lon="9.286633212867585"><ele>547.0</ele><time>2026-04-30T14:10:59.996Z</time></trkpt><trkpt lat="44.59048528255603" lon="9.286875288118619"><ele>547.0</ele><time>2026-04-30T14:11:00.996Z</time></trkpt><trkpt lat="44.590529489843746" lon="9.287129002572403"><ele>547.0</ele><time>2026-04-30T14:11:01.996Z</time></trkpt><trkpt lat="44.590607270517225" lon="9.287380468980825"><ele>547.0</ele><time>2026-04-30T14:11:02.996Z</time></trkpt><trkpt lat="44.59067156552946" lon="9.287607320793814"><ele>549.0</ele><time>2026-04-30T14:11:03.996Z</time></trkpt><trkpt lat="44.59073338627519" lon="9.28782800654608"><ele>551.0</ele><time>2026-04-30T14:11:04.996Z</time></trkpt><trkpt lat="44.590800926177096" lon="9.288039366163837"><ele>553.0</ele><time>2026-04-30T14:11:05.996Z</time></trkpt><trkpt lat="44.59087673273768" lon="9.288201932384807"><ele>552.0</ele><time>2026-04-30T14:11:06.996Z</time></trkpt><trkpt lat="44.59100467822636" lon="9.288343018417313"><ele>551.0</ele><time>2026-04-30T14:11:07.996Z</time></trkpt><trkpt lat="44.59112687522163" lon="9.288478671004631"><ele>550.0</ele><time>2026-04-30T14:11:08.996Z</time></trkpt><trkpt lat="44.5912790374239" lon="9.288562352315093"><ele>550.0</ele><time>2026-04-30T14:11:09.996Z</time></trkpt><trkpt lat="44.591408246710444" lon="9.288673254177624"><ele>550.0</ele><time>2026-04-30T14:11:10.996Z</time></trkpt><trkpt lat="44.59155184132877" lon="9.288764314438293"><ele>550.0</ele><time>2026-04-30T14:11:11.995Z</time></trkpt><trkpt lat="44.59170339784692" lon="9.288821778546048"><ele>550.0</ele><time>2026-04-30T14:11:12.995Z</time></trkpt><trkpt lat="44.59186670901428" lon="9.28884864006353"><ele>550.0</ele><time>2026-04-30T14:11:13.995Z</time></trkpt><trkpt lat="44.59203811976156" lon="9.2888249261489"><ele>550.0</ele><time>2026-04-30T14:11:14.995Z</time></trkpt><trkpt lat="44.59221070909036" lon="9.288738446742183"><ele>547.6666666666667</ele><time>2026-04-30T14:11:15.995Z</time></trkpt><trkpt lat="44.59237642195641" lon="9.288695078556392"><ele>545.3333333333334</ele><time>2026-04-30T14:11:16.995Z</time></trkpt><trkpt lat="44.59253486597313" lon="9.28865410447481"><ele>543.0</ele><time>2026-04-30T14:11:17.995Z</time></trkpt><trkpt lat="44.59267710058957" lon="9.288731876166977"><ele>543.0</ele><time>2026-04-30T14:11:18.995Z</time></trkpt><trkpt lat="44.592809708320374" lon="9.288854887685156"><ele>543.0</ele><time>2026-04-30T14:11:19.995Z</time></trkpt><trkpt lat="44.59290600803906" lon="9.289028697333674"><ele>543.0</ele><time>2026-04-30T14:11:20.995Z</time></trkpt><trkpt lat="44.59299251077797" lon="9.289210438884641"><ele>544.3333333333334</ele><time>2026-04-30T14:11:21.995Z</time></trkpt><trkpt lat="44.59308156465957" lon="9.289399798557266"><ele>545.6666666666667</ele><time>2026-04-30T14:11:22.995Z</time></trkpt><trkpt lat="44.593186219195644" lon="9.289596875992315"><ele>547.0</ele><time>2026-04-30T14:11:23.995Z</time></trkpt><trkpt lat="44.59327034827611" lon="9.28980992753868"><ele>552.3333333333334</ele><time>2026-04-30T14:11:24.995Z</time></trkpt><trkpt lat="44.59337837391583" lon="9.290015474628873"><ele>557.6666666666666</ele><time>2026-04-30T14:11:25.995Z</time></trkpt><trkpt lat="44.593483216050245" lon="9.2902239926054"><ele>563.0</ele><time>2026-04-30T14:11:26.995Z</time></trkpt><trkpt lat="44.59362096422393" lon="9.290405939487377"><ele>555.0</ele><time>2026-04-30T14:11:27.995Z</time></trkpt><trkpt lat="44.59373498499667" lon="9.29061332427669"><ele>547.0</ele><time>2026-04-30T14:11:28.995Z</time></trkpt><trkpt lat="44.59383353441829" lon="9.29085342100694"><ele>539.0</ele><time>2026-04-30T14:11:29.995Z</time></trkpt><trkpt lat="44.59390952318969" lon="9.291124779266502"><ele>539.0</ele><time>2026-04-30T14:11:30.995Z</time></trkpt><trkpt lat="44.59396847312709" lon="9.291380690486145"><ele>539.0</ele><time>2026-04-30T14:11:31.995Z</time></trkpt><trkpt lat="44.59403577040932" lon="9.291602181843809"><ele>539.0</ele><time>2026-04-30T14:11:32.995Z</time></trkpt><trkpt lat="44.59408887643079" lon="9.291811947929931"><ele>544.0</ele><time>2026-04-30T14:11:33.995Z</time></trkpt><trkpt lat="44.59417390678789" lon="9.292014962953512"><ele>549.0</ele><time>2026-04-30T14:11:34.995Z</time></trkpt><trkpt lat="44.59429485866234" lon="9.29217122919616"><ele>554.0</ele><time>2026-04-30T14:11:35.995Z</time></trkpt><trkpt lat="44.5944477906074" lon="9.292300265668892"><ele>554.3333333333333</ele><time>2026-04-30T14:11:36.995Z</time></trkpt><trkpt lat="44.59460401783592" lon="9.292353335728547"><ele>554.6666666666666</ele><time>2026-04-30T14:11:37.995Z</time></trkpt><trkpt lat="44.594760233259926" lon="9.292353569640381"><ele>555.0</ele><time>2026-04-30T14:11:38.999Z</time></trkpt><trkpt lat="44.59489942028358" lon="9.292405407299762"><ele>555.0</ele><time>2026-04-30T14:11:39.999Z</time></trkpt><trkpt lat="44.595011043390215" lon="9.292482110386548"><ele>555.0</ele><time>2026-04-30T14:11:40.999Z</time></trkpt><trkpt lat="44.59510482470755" lon="9.292655201736236"><ele>555.0</ele><time>2026-04-30T14:11:41.999Z</time></trkpt><trkpt lat="44.59520894509143" lon="9.292774225740931"><ele>555.0</ele><time>2026-04-30T14:11:42.999Z</time></trkpt><trkpt lat="44.59535575628753" lon="9.2928455114503"><ele>548.6666666666666</ele><time>2026-04-30T14:11:43.999Z</time></trkpt><trkpt lat="44.595545879460396" lon="9.29289072648193"><ele>542.3333333333333</ele><time>2026-04-30T14:11:45Z</time></trkpt><trkpt lat="44.595751372056775" lon="9.292927179995994"><ele>536.0</ele><time>2026-04-30T14:11:46Z</time></trkpt><trkpt lat="44.59594828072462" lon="9.292982707467413"><ele>536.0</ele><time>2026-04-30T14:11:47Z</time></trkpt><trkpt lat="44.59616557842519" lon="9.293044889397645"><ele>536.0</ele><time>2026-04-30T14:11:48Z</time></trkpt><trkpt lat="44.5963497638475" lon="9.293072117345107"><ele>536.0</ele><time>2026-04-30T14:11:49Z</time></trkpt><trkpt lat="44.59654529544682" lon="9.293134825327371"><ele>538.6666666666666</ele><time>2026-04-30T14:11:50Z</time></trkpt><trkpt lat="44.59674637169716" lon="9.293237121400686"><ele>541.3333333333334</ele><time>2026-04-30T14:11:51Z</time></trkpt><trkpt lat="44.59694216835252" lon="9.293304405445264"><ele>544.0</ele><time>2026-04-30T14:11:52Z</time></trkpt><trkpt lat="44.59713545269134" lon="9.293381868029313"><ele>544.0</ele><time>2026-04-30T14:11:53Z</time></trkpt><trkpt lat="44.59731191386366" lon="9.293502341144002"><ele>544.0</ele><time>2026-04-30T14:11:54Z</time></trkpt><trkpt lat="44.59747301324322" lon="9.293600553893016"><ele>544.0</ele><time>2026-04-30T14:11:55Z</time></trkpt><trkpt lat="44.59763383065309" lon="9.293701665174758"><ele>544.0</ele><time>2026-04-30T14:11:56Z</time></trkpt><trkpt lat="44.59779721572688" lon="9.293764980473442"><ele>544.0</ele><time>2026-04-30T14:11:57Z</time></trkpt><trkpt lat="44.59798692089823" lon="9.293763601013634"><ele>544.0</ele><time>2026-04-30T14:11:58Z</time></trkpt><trkpt lat="44.59817796344474" lon="9.293646903736168"><ele>544.6666666666667</ele><time>2026-04-30T14:11:59Z</time></trkpt><trkpt lat="44.598369062641055" lon="9.293551758297243"><ele>545.3333333333334</ele><time>2026-04-30T14:12:00Z</time></trkpt><trkpt lat="44.59852615545662" lon="9.293390804176859"><ele>546.0</ele><time>2026-04-30T14:12:01Z</time></trkpt><trkpt lat="44.598728265376515" lon="9.293281970251844"><ele>548.6666666666666</ele><time>2026-04-30T14:12:02Z</time></trkpt><trkpt lat="44.59892084921849" lon="9.293190940796888"><ele>551.3333333333333</ele><time>2026-04-30T14:12:03Z</time></trkpt><trkpt lat="44.59909629878351" lon="9.293087323310969"><ele>554.0</ele><time>2026-04-30T14:12:04Z</time></trkpt><trkpt lat="44.59925632285938" lon="9.29296388879872"><ele>556.75</ele><time>2026-04-30T14:12:05Z</time></trkpt><trkpt lat="44.5993672252236" lon="9.29289868716523"><ele>559.5</ele><time>2026-04-30T14:12:06Z</time></trkpt><trkpt lat="44.599489962874294" lon="9.292809304446354"><ele>562.25</ele><time>2026-04-30T14:12:07Z</time></trkpt><trkpt lat="44.5996113106557" lon="9.292663501632543"><ele>565.0</ele><time>2026-04-30T14:12:08Z</time></trkpt><trkpt lat="44.59968919167552" lon="9.29247818616103"><ele>565.0</ele><time>2026-04-30T14:12:09Z</time></trkpt><trkpt lat="44.59976881498282" lon="9.292270631714334"><ele>565.0</ele><time>2026-04-30T14:12:10Z</time></trkpt><trkpt lat="44.59985329850509" lon="9.292038489555416"><ele>565.0</ele><time>2026-04-30T14:12:11Z</time></trkpt><trkpt lat="44.59996003392129" lon="9.291827971697263"><ele>558.0</ele><time>2026-04-30T14:12:12Z</time></trkpt><trkpt lat="44.60004554848608" lon="9.291597806225377"><ele>551.0</ele><time>2026-04-30T14:12:13Z</time></trkpt><trkpt lat="44.600103794383855" lon="9.291340263331659"><ele>544.0</ele><time>2026-04-30T14:12:14Z</time></trkpt><trkpt lat="44.60020346211272" lon="9.291111700842238"><ele>544.6666666666667</ele><time>2026-04-30T14:12:15Z</time></trkpt><trkpt lat="44.600314383649696" lon="9.290905435120177"><ele>545.3333333333334</ele><time>2026-04-30T14:12:16Z</time></trkpt><trkpt lat="44.60042236509022" lon="9.290721409060607"><ele>546.0</ele><time>2026-04-30T14:12:17Z</time></trkpt><trkpt lat="44.60056373623693" lon="9.290606114226067"><ele>541.0</ele><time>2026-04-30T14:12:18Z</time></trkpt><trkpt lat="44.60074263420907" lon="9.290526511635587"><ele>536.0</ele><time>2026-04-30T14:12:19Z</time></trkpt><trkpt lat="44.60091696400058" lon="9.290474877368741"><ele>531.0</ele><time>2026-04-30T14:12:20Z</time></trkpt><trkpt lat="44.6010836274084" lon="9.290417166146671"><ele>531.0</ele><time>2026-04-30T14:12:21Z</time></trkpt><trkpt lat="44.60124497051831" lon="9.290340505258461"><ele>531.0</ele><time>2026-04-30T14:12:22Z</time></trkpt><trkpt lat="44.60140572135974" lon="9.290307012572288"><ele>531.0</ele><time>2026-04-30T14:12:23Z</time></trkpt><trkpt lat="44.60155653235789" lon="9.290338263377034"><ele>531.0</ele><time>2026-04-30T14:12:24Z</time></trkpt><trkpt lat="44.60172683190374" lon="9.29040887419542"><ele>531.0</ele><time>2026-04-30T14:12:25Z</time></trkpt><trkpt lat="44.60190547347186" lon="9.290496033659448"><ele>531.0</ele><time>2026-04-30T14:12:26Z</time></trkpt><trkpt lat="44.60210312054326" lon="9.290582050459914"><ele>531.0</ele><time>2026-04-30T14:12:27Z</time></trkpt><trkpt lat="44.60230795930593" lon="9.290708367330412"><ele>531.0</ele><time>2026-04-30T14:12:28Z</time></trkpt><trkpt lat="44.60248116001658" lon="9.290788195477013"><ele>531.0</ele><time>2026-04-30T14:12:29Z</time></trkpt><trkpt lat="44.60267672728056" lon="9.290874019259507"><ele>528.0</ele><time>2026-04-30T14:12:30Z</time></trkpt><trkpt lat="44.60285894123723" lon="9.290973515817807"><ele>525.0</ele><time>2026-04-30T14:12:31Z</time></trkpt><trkpt lat="44.603030917984384" lon="9.291068295925204"><ele>522.0</ele><time>2026-04-30T14:12:32Z</time></trkpt><trkpt lat="44.60320625731155" lon="9.291161388057832"><ele>522.0</ele><time>2026-04-30T14:12:33Z</time></trkpt><trkpt lat="44.60338024728655" lon="9.291255885966432"><ele>522.0</ele><time>2026-04-30T14:12:34Z</time></trkpt><trkpt lat="44.60355154630217" lon="9.29133383322249"><ele>522.0</ele><time>2026-04-30T14:12:35Z</time></trkpt><trkpt lat="44.6036982829054" lon="9.291407525530868"><ele>522.75</ele><time>2026-04-30T14:12:36Z</time></trkpt><trkpt lat="44.60385673771029" lon="9.291476991446771"><ele>523.5</ele><time>2026-04-30T14:12:37Z</time></trkpt><trkpt lat="44.6039760295559" lon="9.291541118359985"><ele>524.25</ele><time>2026-04-30T14:12:38Z</time></trkpt><trkpt lat="44.60409891068333" lon="9.29161824631146"><ele>525.0</ele><time>2026-04-30T14:12:39Z</time></trkpt><trkpt lat="44.60420669006919" lon="9.291707244258536"><ele>525.0</ele><time>2026-04-30T14:12:40Z</time></trkpt><trkpt lat="44.60431769877478" lon="9.291767792483544"><ele>525.0</ele><time>2026-04-30T14:12:41Z</time></trkpt><trkpt lat="44.60443760332628" lon="9.291823172884381"><ele>525.0</ele><time>2026-04-30T14:12:42Z</time></trkpt><trkpt lat="44.60454656052356" lon="9.291885567964995"><ele>525.0</ele><time>2026-04-30T14:12:42.999Z</time></trkpt><trkpt lat="44.60465754265306" lon="9.291950037715466"><ele>525.0</ele><time>2026-04-30T14:12:43.999Z</time></trkpt><trkpt lat="44.60475783785142" lon="9.292023608935688"><ele>525.0</ele><time>2026-04-30T14:12:44.999Z</time></trkpt><trkpt lat="44.604837154958844" lon="9.292115345780013"><ele>525.0</ele><time>2026-04-30T14:12:45.999Z</time></trkpt><trkpt lat="44.60488715708412" lon="9.29225029929051"><ele>525.0</ele><time>2026-04-30T14:12:46.999Z</time></trkpt><trkpt lat="44.60495173778933" lon="9.292384359882183"><ele>525.0</ele><time>2026-04-30T14:12:47.999Z</time></trkpt><trkpt lat="44.6050142422691" lon="9.29251411021468"><ele>525.0</ele><time>2026-04-30T14:12:48.999Z</time></trkpt><trkpt lat="44.60508166933206" lon="9.292632220368976"><ele>525.0</ele><time>2026-04-30T14:12:49.999Z</time></trkpt><trkpt lat="44.60513417268553" lon="9.292769864270904"><ele>525.0</ele><time>2026-04-30T14:12:50.999Z</time></trkpt><trkpt lat="44.60519176201892" lon="9.292910189661335"><ele>525.0</ele><time>2026-04-30T14:12:51.999Z</time></trkpt><trkpt lat="44.60527188078334" lon="9.293046679184473"><ele>524.75</ele><time>2026-04-30T14:12:52.999Z</time></trkpt><trkpt lat="44.60534281776023" lon="9.293187682260763"><ele>524.5</ele><time>2026-04-30T14:12:53.999Z</time></trkpt><trkpt lat="44.60541634490187" lon="9.293338715156256"><ele>524.25</ele><time>2026-04-30T14:12:54.999Z</time></trkpt><trkpt lat="44.60548464732458" lon="9.293479016002133"><ele>524.0</ele><time>2026-04-30T14:12:55.999Z</time></trkpt><trkpt lat="44.605567947918516" lon="9.293650124833059"><ele>524.0</ele><time>2026-04-30T14:12:56.999Z</time></trkpt><trkpt lat="44.60565235859072" lon="9.29382351386956"><ele>524.0</ele><time>2026-04-30T14:12:57.999Z</time></trkpt><trkpt lat="44.605731756527845" lon="9.293986606205426"><ele>524.0</ele><time>2026-04-30T14:12:58.999Z</time></trkpt><trkpt lat="44.605820633118945" lon="9.294139788074649"><ele>524.0</ele><time>2026-04-30T14:12:59.999Z</time></trkpt><trkpt lat="44.60589327217631" lon="9.294306525789247"><ele>524.0</ele><time>2026-04-30T14:13:00.999Z</time></trkpt><trkpt lat="44.60596428770848" lon="9.29447161556767"><ele>524.0</ele><time>2026-04-30T14:13:01.999Z</time></trkpt><trkpt lat="44.60605603158026" lon="9.294629480173855"><ele>524.0</ele><time>2026-04-30T14:13:02.999Z</time></trkpt><trkpt lat="44.606123415739965" lon="9.294792663658594"><ele>524.0</ele><time>2026-04-30T14:13:03.999Z</time></trkpt><trkpt lat="44.606205666246375" lon="9.294960654596322"><ele>525.6666666666666</ele><time>2026-04-30T14:13:04.999Z</time></trkpt><trkpt lat="44.60629240634827" lon="9.295137815227395"><ele>527.3333333333334</ele><time>2026-04-30T14:13:05.999Z</time></trkpt><trkpt lat="44.60638119534782" lon="9.295319160522407"><ele>529.0</ele><time>2026-04-30T14:13:06.999Z</time></trkpt><trkpt lat="44.606485844309084" lon="9.295495545044062"><ele>529.3333333333334</ele><time>2026-04-30T14:13:07.999Z</time></trkpt><trkpt lat="44.606550193465324" lon="9.295681233724636"><ele>529.6666666666666</ele><time>2026-04-30T14:13:08.999Z</time></trkpt><trkpt lat="44.60663058658929" lon="9.295856526685608"><ele>530.0</ele><time>2026-04-30T14:13:09.999Z</time></trkpt><trkpt lat="44.60672201914405" lon="9.296031241544723"><ele>530.0</ele><time>2026-04-30T14:13:10.999Z</time></trkpt><trkpt lat="44.60679326763288" lon="9.29618408289413"><ele>530.0</ele><time>2026-04-30T14:13:11.999Z</time></trkpt><trkpt lat="44.606833193836174" lon="9.296348260748228"><ele>530.0</ele><time>2026-04-30T14:13:12.999Z</time></trkpt><trkpt lat="44.60684249278708" lon="9.296550259784885"><ele>530.0</ele><time>2026-04-30T14:13:13.999Z</time></trkpt><trkpt lat="44.6068816734911" lon="9.296745994913323"><ele>529.0</ele><time>2026-04-30T14:13:14.999Z</time></trkpt><trkpt lat="44.60691875990207" lon="9.296939417696603"><ele>528.0</ele><time>2026-04-30T14:13:15.999Z</time></trkpt><trkpt lat="44.6069886149821" lon="9.29711957675422"><ele>527.0</ele><time>2026-04-30T14:13:16.999Z</time></trkpt><trkpt lat="44.60705592657403" lon="9.297312132320874"><ele>526.0</ele><time>2026-04-30T14:13:17.999Z</time></trkpt><trkpt lat="44.60715082718187" lon="9.297476263437924"><ele>528.6666666666667</ele><time>2026-04-30T14:13:18.999Z</time></trkpt><trkpt lat="44.60724948388186" lon="9.297615398039234"><ele>531.3333333333334</ele><time>2026-04-30T14:13:19.999Z</time></trkpt><trkpt lat="44.607378511650204" lon="9.297737923230976"><ele>534.0</ele><time>2026-04-30T14:13:20.999Z</time></trkpt><trkpt lat="44.60750005442089" lon="9.297885695611349"><ele>534.0</ele><time>2026-04-30T14:13:21.999Z</time></trkpt><trkpt lat="44.60761685969772" lon="9.29800920554647"><ele>534.0</ele><time>2026-04-30T14:13:22.999Z</time></trkpt><trkpt lat="44.607748639060134" lon="9.29807741919586"><ele>534.0</ele><time>2026-04-30T14:13:23.999Z</time></trkpt><trkpt lat="44.60786892680724" lon="9.298118438772212"><ele>534.0</ele><time>2026-04-30T14:13:24.999Z</time></trkpt><trkpt lat="44.60797925633065" lon="9.298168951185724"><ele>536.6</ele><time>2026-04-30T14:13:25.999Z</time></trkpt><trkpt lat="44.608026748140254" lon="9.2982761316515"><ele>539.2</ele><time>2026-04-30T14:13:26.999Z</time></trkpt><trkpt lat="44.608065635059106" lon="9.298400237651641"><ele>541.8000000000001</ele><time>2026-04-30T14:13:27.999Z</time></trkpt><trkpt lat="44.60809197768187" lon="9.298557548513298"><ele>544.4</ele><time>2026-04-30T14:13:28.999Z</time></trkpt><trkpt lat="44.60811472390361" lon="9.298747826519847"><ele>547.0</ele><time>2026-04-30T14:13:29.999Z</time></trkpt><trkpt lat="44.608140303293645" lon="9.298927473937267"><ele>547.0</ele><time>2026-04-30T14:13:30.999Z</time></trkpt><trkpt lat="44.608166644280615" lon="9.299105435588848"><ele>547.0</ele><time>2026-04-30T14:13:31.999Z</time></trkpt><trkpt lat="44.60819511785315" lon="9.299295412623504"><ele>547.0</ele><time>2026-04-30T14:13:32.999Z</time></trkpt><trkpt lat="44.60822292512877" lon="9.299484942632764"><ele>547.0</ele><time>2026-04-30T14:13:33.999Z</time></trkpt><trkpt lat="44.608254114823616" lon="9.299703995387095"><ele>545.0</ele><time>2026-04-30T14:13:34.999Z</time></trkpt><trkpt lat="44.60828191788762" lon="9.299919174773297"><ele>543.0</ele><time>2026-04-30T14:13:35.999Z</time></trkpt><trkpt lat="44.60830326298229" lon="9.300138443340295"><ele>541.0</ele><time>2026-04-30T14:13:36.999Z</time></trkpt><trkpt lat="44.60831387440988" lon="9.300360374181611"><ele>538.3333333333334</ele><time>2026-04-30T14:13:37.999Z</time></trkpt><trkpt lat="44.60831528419822" lon="9.300635601721856"><ele>535.6666666666666</ele><time>2026-04-30T14:13:38.999Z</time></trkpt><trkpt lat="44.608317599199644" lon="9.30093544760473"><ele>533.0</ele><time>2026-04-30T14:13:39.999Z</time></trkpt><trkpt lat="44.608334188369916" lon="9.301247857617577"><ele>532.0</ele><time>2026-04-30T14:13:40.999Z</time></trkpt><trkpt lat="44.608374654419045" lon="9.301517514356538"><ele>531.0</ele><time>2026-04-30T14:13:41.999Z</time></trkpt><trkpt lat="44.60840114312997" lon="9.301790796053858"><ele>530.0</ele><time>2026-04-30T14:13:42.999Z</time></trkpt><trkpt lat="44.60842705264814" lon="9.302047293886437"><ele>530.5</ele><time>2026-04-30T14:13:43.999Z</time></trkpt><trkpt lat="44.608452706685014" lon="9.302274776301108"><ele>531.0</ele><time>2026-04-30T14:13:44.999Z</time></trkpt><trkpt lat="44.60847576997967" lon="9.302461563892566"><ele>531.5</ele><time>2026-04-30T14:13:45.999Z</time></trkpt><trkpt lat="44.608480183259935" lon="9.30262060649903"><ele>532.0</ele><time>2026-04-30T14:13:46.999Z</time></trkpt><trkpt lat="44.608435875268505" lon="9.302772487696757"><ele>532.0</ele><time>2026-04-30T14:13:47.999Z</time></trkpt><trkpt lat="44.60834738841355" lon="9.303000365791394"><ele>532.0</ele><time>2026-04-30T14:13:48.999Z</time></trkpt><trkpt lat="44.60825274147579" lon="9.303233991961962"><ele>532.0</ele><time>2026-04-30T14:13:49.999Z</time></trkpt><trkpt lat="44.60818162671427" lon="9.30343858288068"><ele>532.6666666666667</ele><time>2026-04-30T14:13:50.999Z</time></trkpt><trkpt lat="44.60804164650237" lon="9.303615162360236"><ele>533.3333333333334</ele><time>2026-04-30T14:13:51.999Z</time></trkpt><trkpt lat="44.607886801226414" lon="9.303767935455406"><ele>534.0</ele><time>2026-04-30T14:13:52.999Z</time></trkpt><trkpt lat="44.60774923124884" lon="9.303907234582534"><ele>533.6666666666666</ele><time>2026-04-30T14:13:53.999Z</time></trkpt><trkpt lat="44.607625820567016" lon="9.304017624488125"><ele>533.3333333333333</ele><time>2026-04-30T14:13:54.999Z</time></trkpt><trkpt lat="44.60748285715237" lon="9.304134744341422"><ele>533.0</ele><time>2026-04-30T14:13:55.999Z</time></trkpt><trkpt lat="44.60733664675866" lon="9.304247607967193"><ele>533.0</ele><time>2026-04-30T14:13:56.999Z</time></trkpt><trkpt lat="44.60717704315341" lon="9.304256594626597"><ele>533.0</ele><time>2026-04-30T14:13:57.999Z</time></trkpt><trkpt lat="44.60701538998563" lon="9.304285509856312"><ele>533.0</ele><time>2026-04-30T14:13:58.999Z</time></trkpt><trkpt lat="44.60690417753064" lon="9.304220918474563"><ele>533.0</ele><time>2026-04-30T14:13:59.999Z</time></trkpt><trkpt lat="44.606806032953784" lon="9.304267144901653"><ele>531.5</ele><time>2026-04-30T14:14:00.999Z</time></trkpt><trkpt lat="44.6067345091449" lon="9.304336747045719"><ele>530.0</ele><time>2026-04-30T14:14:01.999Z</time></trkpt><trkpt lat="44.60670093687095" lon="9.304502457223673"><ele>528.5</ele><time>2026-04-30T14:14:02.999Z</time></trkpt><trkpt lat="44.606670379047245" lon="9.304707744028871"><ele>527.0</ele><time>2026-04-30T14:14:03.999Z</time></trkpt><trkpt lat="44.6066471872115" lon="9.30494926619287"><ele>527.0</ele><time>2026-04-30T14:14:04.999Z</time></trkpt><trkpt lat="44.60669017233906" lon="9.305184224430244"><ele>527.0</ele><time>2026-04-30T14:14:05.999Z</time></trkpt><trkpt lat="44.60672680614759" lon="9.305424128865527"><ele>527.0</ele><time>2026-04-30T14:14:06.999Z</time></trkpt><trkpt lat="44.606752509556244" lon="9.305649804857449"><ele>527.0</ele><time>2026-04-30T14:14:07.999Z</time></trkpt><trkpt lat="44.6067939188263" lon="9.305877347446716"><ele>527.0</ele><time>2026-04-30T14:14:08.999Z</time></trkpt><trkpt lat="44.606840350600166" lon="9.306112447203006"><ele>527.0</ele><time>2026-04-30T14:14:09.999Z</time></trkpt><trkpt lat="44.60689868234462" lon="9.306325344227295"><ele>526.75</ele><time>2026-04-30T14:14:10.999Z</time></trkpt><trkpt lat="44.60698699167446" lon="9.306511624059679"><ele>526.5</ele><time>2026-04-30T14:14:11.999Z</time></trkpt><trkpt lat="44.6070697261926" lon="9.30667821425642"><ele>526.25</ele><time>2026-04-30T14:14:12.999Z</time></trkpt><trkpt lat="44.607171878964415" lon="9.306810066879644"><ele>526.0</ele><time>2026-04-30T14:14:13.999Z</time></trkpt><trkpt lat="44.60728474238964" lon="9.306911705840962"><ele>526.0</ele><time>2026-04-30T14:14:14.999Z</time></trkpt><trkpt lat="44.60741031131047" lon="9.306992032902652"><ele>526.0</ele><time>2026-04-30T14:14:15.999Z</time></trkpt><trkpt lat="44.60753847673108" lon="9.307060283916313"><ele>526.0</ele><time>2026-04-30T14:14:16.999Z</time></trkpt><trkpt lat="44.60770167348935" lon="9.30709760459141"><ele>526.0</ele><time>2026-04-30T14:14:17.999Z</time></trkpt><trkpt lat="44.607866849882214" lon="9.307056490940248"><ele>526.6666666666667</ele><time>2026-04-30T14:14:18.999Z</time></trkpt><trkpt lat="44.60803498819858" lon="9.306995357734792"><ele>527.3333333333334</ele><time>2026-04-30T14:14:19.998Z</time></trkpt><trkpt lat="44.6082008037851" lon="9.307052961828132"><ele>528.0</ele><time>2026-04-30T14:14:20.998Z</time></trkpt><trkpt lat="44.6083619104616" lon="9.307088864525259"><ele>528.0</ele><time>2026-04-30T14:14:21.998Z</time></trkpt><trkpt lat="44.60850112972332" lon="9.307073273827864"><ele>528.0</ele><time>2026-04-30T14:14:22.998Z</time></trkpt><trkpt lat="44.60863383847454" lon="9.307102036484578"><ele>528.0</ele><time>2026-04-30T14:14:23.998Z</time></trkpt><trkpt lat="44.60874258131463" lon="9.307056424150769"><ele>528.0</ele><time>2026-04-30T14:14:24.998Z</time></trkpt><trkpt lat="44.60887369009346" lon="9.306978037371966"><ele>528.6666666666666</ele><time>2026-04-30T14:14:25.998Z</time></trkpt><trkpt lat="44.60901582188566" lon="9.306927824401766"><ele>529.3333333333333</ele><time>2026-04-30T14:14:26.998Z</time></trkpt><trkpt lat="44.60919340382951" lon="9.306883079793852"><ele>530.0</ele><time>2026-04-30T14:14:27.998Z</time></trkpt><trkpt lat="44.60937445273351" lon="9.306844403679913"><ele>531.6666666666666</ele><time>2026-04-30T14:14:28.998Z</time></trkpt><trkpt lat="44.609538738062994" lon="9.306802467608357"><ele>533.3333333333334</ele><time>2026-04-30T14:14:29.998Z</time></trkpt><trkpt lat="44.6097029160686" lon="9.306764381011353"><ele>535.0</ele><time>2026-04-30T14:14:30.998Z</time></trkpt><trkpt lat="44.60987720524891" lon="9.306733972435849"><ele>535.0</ele><time>2026-04-30T14:14:31.998Z</time></trkpt><trkpt lat="44.61004397835885" lon="9.306710906974795"><ele>535.0</ele><time>2026-04-30T14:14:32.998Z</time></trkpt><trkpt lat="44.610208568928755" lon="9.306750182023038"><ele>535.0</ele><time>2026-04-30T14:14:33.998Z</time></trkpt><trkpt lat="44.61033772274157" lon="9.30683100910066"><ele>532.0</ele><time>2026-04-30T14:14:34.998Z</time></trkpt><trkpt lat="44.610459727594275" lon="9.306917119485691"><ele>529.0</ele><time>2026-04-30T14:14:35.998Z</time></trkpt><trkpt lat="44.61054761686483" lon="9.307036730783809"><ele>526.0</ele><time>2026-04-30T14:14:36.998Z</time></trkpt><trkpt lat="44.61058458778461" lon="9.307187008315024"><ele>523.0</ele><time>2026-04-30T14:14:37.998Z</time></trkpt><trkpt lat="44.610578709835195" lon="9.307360402592694"><ele>523.0</ele><time>2026-04-30T14:14:38.998Z</time></trkpt><trkpt lat="44.61058592919365" lon="9.307547697392547"><ele>523.0</ele><time>2026-04-30T14:14:39.998Z</time></trkpt><trkpt lat="44.610617389935754" lon="9.307731942702295"><ele>523.0</ele><time>2026-04-30T14:14:40.998Z</time></trkpt><trkpt lat="44.61069428569501" lon="9.307899444479231"><ele>523.0</ele><time>2026-04-30T14:14:41.998Z</time></trkpt><trkpt lat="44.61079862654059" lon="9.308112118487903"><ele>520.0</ele><time>2026-04-30T14:14:42.998Z</time></trkpt><trkpt lat="44.61092373424752" lon="9.308306840069362"><ele>517.0</ele><time>2026-04-30T14:14:43.998Z</time></trkpt><trkpt lat="44.61102322036919" lon="9.30848471763688"><ele>514.0</ele><time>2026-04-30T14:14:44.998Z</time></trkpt><trkpt lat="44.611111720427935" lon="9.308635600093927"><ele>518.25</ele><time>2026-04-30T14:14:45.998Z</time></trkpt><trkpt lat="44.611203089477215" lon="9.308776674279263"><ele>522.5</ele><time>2026-04-30T14:14:46.998Z</time></trkpt><trkpt lat="44.611255848206504" lon="9.30888401251496"><ele>526.75</ele><time>2026-04-30T14:14:47.998Z</time></trkpt><trkpt lat="44.61127009106153" lon="9.309016265045127"><ele>531.0</ele><time>2026-04-30T14:14:48.998Z</time></trkpt><trkpt lat="44.611184688336834" lon="9.309169360203647"><ele>527.0</ele><time>2026-04-30T14:14:49.998Z</time></trkpt><trkpt lat="44.611146267849314" lon="9.309382365307359"><ele>523.0</ele><time>2026-04-30T14:14:50.998Z</time></trkpt><trkpt lat="44.61114064775067" lon="9.309585159146604"><ele>519.0</ele><time>2026-04-30T14:14:51.998Z</time></trkpt><trkpt lat="44.61110752148795" lon="9.309788540187645"><ele>515.0</ele><time>2026-04-30T14:14:52.998Z</time></trkpt><trkpt lat="44.611072679125584" lon="9.309976391538296"><ele>515.0</ele><time>2026-04-30T14:14:53.998Z</time></trkpt><trkpt lat="44.611001150874735" lon="9.310113996721018"><ele>515.0</ele><time>2026-04-30T14:14:54.998Z</time></trkpt><trkpt lat="44.61090682971384" lon="9.310265715773776"><ele>515.0</ele><time>2026-04-30T14:14:55.998Z</time></trkpt><trkpt lat="44.61079818587279" lon="9.310434587300877"><ele>515.0</ele><time>2026-04-30T14:14:56.998Z</time></trkpt><trkpt lat="44.61069040282835" lon="9.310600110869686"><ele>520.3333333333333</ele><time>2026-04-30T14:14:57.998Z</time></trkpt><trkpt lat="44.610578149965136" lon="9.310783515686438"><ele>525.6666666666666</ele><time>2026-04-30T14:14:58.998Z</time></trkpt><trkpt lat="44.61046642436041" lon="9.310962766409888"><ele>531.0</ele><time>2026-04-30T14:14:59.998Z</time></trkpt><trkpt lat="44.61035936140379" lon="9.311128905265335"><ele>526.0</ele><time>2026-04-30T14:15:00.998Z</time></trkpt><trkpt lat="44.6102651434519" lon="9.311280212659641"><ele>521.0</ele><time>2026-04-30T14:15:01.998Z</time></trkpt><trkpt lat="44.610184534005164" lon="9.311425679019235"><ele>516.0</ele><time>2026-04-30T14:15:02.998Z</time></trkpt><trkpt lat="44.61011953665141" lon="9.311574802763248"><ele>511.0</ele><time>2026-04-30T14:15:03.998Z</time></trkpt><trkpt lat="44.610090583781854" lon="9.311732582170007"><ele>511.0</ele><time>2026-04-30T14:15:04.998Z</time></trkpt><trkpt lat="44.6101032752704" lon="9.31192165958771"><ele>511.0</ele><time>2026-04-30T14:15:05.998Z</time></trkpt><trkpt lat="44.61013791147999" lon="9.312146639411498"><ele>511.0</ele><time>2026-04-30T14:15:06.998Z</time></trkpt><trkpt lat="44.610185826746495" lon="9.312333202968869"><ele>511.0</ele><time>2026-04-30T14:15:07.998Z</time></trkpt><trkpt lat="44.61025070822944" lon="9.31253130026047"><ele>510.6666666666667</ele><time>2026-04-30T14:15:08.998Z</time></trkpt><trkpt lat="44.610321792612744" lon="9.312739230533467"><ele>510.33333333333337</ele><time>2026-04-30T14:15:09.998Z</time></trkpt><trkpt lat="44.61037885997532" lon="9.312974398280508"><ele>510.0</ele><time>2026-04-30T14:15:10.998Z</time></trkpt><trkpt lat="44.61044405638662" lon="9.313195606411877"><ele>515.6666666666666</ele><time>2026-04-30T14:15:11.998Z</time></trkpt><trkpt lat="44.61050618094166" lon="9.313426692578828"><ele>521.3333333333333</ele><time>2026-04-30T14:15:12.998Z</time></trkpt><trkpt lat="44.61052404449282" lon="9.313682317059264"><ele>527.0</ele><time>2026-04-30T14:15:13.998Z</time></trkpt><trkpt lat="44.6105320549435" lon="9.313927091145736"><ele>527.0</ele><time>2026-04-30T14:15:14.998Z</time></trkpt><trkpt lat="44.610518812964514" lon="9.314153520583952"><ele>527.0</ele><time>2026-04-30T14:15:15.998Z</time></trkpt><trkpt lat="44.61049211524978" lon="9.314364047628098"><ele>527.0</ele><time>2026-04-30T14:15:16.998Z</time></trkpt><trkpt lat="44.610503499019416" lon="9.314579009132446"><ele>524.3333333333333</ele><time>2026-04-30T14:15:17.998Z</time></trkpt><trkpt lat="44.6105396182396" lon="9.314797466454117"><ele>521.6666666666666</ele><time>2026-04-30T14:15:18.998Z</time></trkpt><trkpt lat="44.610588276935914" lon="9.314998567802814"><ele>519.0</ele><time>2026-04-30T14:15:19.998Z</time></trkpt><trkpt lat="44.61064290066137" lon="9.315208872283018"><ele>519.0</ele><time>2026-04-30T14:15:20.998Z</time></trkpt><trkpt lat="44.610702891153565" lon="9.31543664622761"><ele>519.0</ele><time>2026-04-30T14:15:21.998Z</time></trkpt><trkpt lat="44.610755114426105" lon="9.315646894134815"><ele>519.0</ele><time>2026-04-30T14:15:22.998Z</time></trkpt><trkpt lat="44.61079827235338" lon="9.31584959178164"><ele>518.75</ele><time>2026-04-30T14:15:23.998Z</time></trkpt><trkpt lat="44.61082201209734" lon="9.316056069483421"><ele>518.5</ele><time>2026-04-30T14:15:24.998Z</time></trkpt><trkpt lat="44.6108324556887" lon="9.31625599512171"><ele>518.25</ele><time>2026-04-30T14:15:25.998Z</time></trkpt><trkpt lat="44.61080735181594" lon="9.316425588520309"><ele>518.0</ele><time>2026-04-30T14:15:26.998Z</time></trkpt><trkpt lat="44.610747413748086" lon="9.316602465476207"><ele>517.75</ele><time>2026-04-30T14:15:27.998Z</time></trkpt><trkpt lat="44.61071340317598" lon="9.31680097742089"><ele>517.5</ele><time>2026-04-30T14:15:28.998Z</time></trkpt><trkpt lat="44.61071827428236" lon="9.317006630606244"><ele>517.25</ele><time>2026-04-30T14:15:29.998Z</time></trkpt><trkpt lat="44.610722814293865" lon="9.317204734589714"><ele>517.0</ele><time>2026-04-30T14:15:30.998Z</time></trkpt><trkpt lat="44.6107579216452" lon="9.317378168783659"><ele>516.0</ele><time>2026-04-30T14:15:31.998Z</time></trkpt><trkpt lat="44.61076149341995" lon="9.31751472251518"><ele>515.0</ele><time>2026-04-30T14:15:32.998Z</time></trkpt><trkpt lat="44.61073855776939" lon="9.317676578366681"><ele>514.0</ele><time>2026-04-30T14:15:33.998Z</time></trkpt><trkpt lat="44.610719496457065" lon="9.317837274978315"><ele>513.0</ele><time>2026-04-30T14:15:34.998Z</time></trkpt><trkpt lat="44.610737779510956" lon="9.31798969943848"><ele>512.0</ele><time>2026-04-30T14:15:35.998Z</time></trkpt><trkpt lat="44.61076138425804" lon="9.318130943382057"><ele>510.0</ele><time>2026-04-30T14:15:36.998Z</time></trkpt><trkpt lat="44.61084855734567" lon="9.318208283262866"><ele>508.0</ele><time>2026-04-30T14:15:37.998Z</time></trkpt><trkpt lat="44.61096223289619" lon="9.318296547861735"><ele>506.0</ele><time>2026-04-30T14:15:38.998Z</time></trkpt><trkpt lat="44.611097149181816" lon="9.3183426119001"><ele>504.0</ele><time>2026-04-30T14:15:39.998Z</time></trkpt><trkpt lat="44.611252598606775" lon="9.31840250427874"><ele>511.25</ele><time>2026-04-30T14:15:40.998Z</time></trkpt><trkpt lat="44.611386127013354" lon="9.318505279095255"><ele>518.5</ele><time>2026-04-30T14:15:41.998Z</time></trkpt><trkpt lat="44.611515855746454" lon="9.318626407694252"><ele>525.75</ele><time>2026-04-30T14:15:42.998Z</time></trkpt><trkpt lat="44.61163203040269" lon="9.318717364015608"><ele>533.0</ele><time>2026-04-30T14:15:43.998Z</time></trkpt><trkpt lat="44.61173089105698" lon="9.318810598241791"><ele>533.0</ele><time>2026-04-30T14:15:44.998Z</time></trkpt><trkpt lat="44.61181975582373" lon="9.318894284954238"><ele>533.0</ele><time>2026-04-30T14:15:45.998Z</time></trkpt><trkpt lat="44.611869139708936" lon="9.318999423342465"><ele>533.0</ele><time>2026-04-30T14:15:46.998Z</time></trkpt><trkpt lat="44.611874345983054" lon="9.319115483910508"><ele>533.0</ele><time>2026-04-30T14:15:47.998Z</time></trkpt><trkpt lat="44.611874016498184" lon="9.319246970239101"><ele>533.0</ele><time>2026-04-30T14:15:48.998Z</time></trkpt><trkpt lat="44.61187414109356" lon="9.319406842319248"><ele>530.5</ele><time>2026-04-30T14:15:49.998Z</time></trkpt><trkpt lat="44.611872562879746" lon="9.319573940133328"><ele>528.0</ele><time>2026-04-30T14:15:50.998Z</time></trkpt><trkpt lat="44.61189929698362" lon="9.319741443970532"><ele>525.5</ele><time>2026-04-30T14:15:51.998Z</time></trkpt><trkpt lat="44.61198694614064" lon="9.319891199693908"><ele>523.0</ele><time>2026-04-30T14:15:52.998Z</time></trkpt><trkpt lat="44.61206229177795" lon="9.319983623968493"><ele>518.5</ele><time>2026-04-30T14:15:53.998Z</time></trkpt><trkpt lat="44.612146844810916" lon="9.320098397425033"><ele>514.0</ele><time>2026-04-30T14:15:54.998Z</time></trkpt><trkpt lat="44.61226818643879" lon="9.32022489590871"><ele>509.5</ele><time>2026-04-30T14:15:55.997Z</time></trkpt><trkpt lat="44.61243432571118" lon="9.320256009416116"><ele>505.0</ele><time>2026-04-30T14:15:56.997Z</time></trkpt><trkpt lat="44.61255573420135" lon="9.320357480785264"><ele>505.0</ele><time>2026-04-30T14:15:57.997Z</time></trkpt><trkpt lat="44.61267358443206" lon="9.320461374276855"><ele>505.0</ele><time>2026-04-30T14:15:58.997Z</time></trkpt><trkpt lat="44.61278810215137" lon="9.320588524534669"><ele>505.0</ele><time>2026-04-30T14:15:59.997Z</time></trkpt><trkpt lat="44.612863255629996" lon="9.320786587398688"><ele>505.0</ele><time>2026-04-30T14:16:00.997Z</time></trkpt><trkpt lat="44.61290345951209" lon="9.320975723342215"><ele>504.25</ele><time>2026-04-30T14:16:01.997Z</time></trkpt><trkpt lat="44.61295250919004" lon="9.321148423674234"><ele>503.5</ele><time>2026-04-30T14:16:02.997Z</time></trkpt><trkpt lat="44.61298576338302" lon="9.321329434807001"><ele>502.75</ele><time>2026-04-30T14:16:03.997Z</time></trkpt><trkpt lat="44.61302150666799" lon="9.321495274293351"><ele>502.0</ele><time>2026-04-30T14:16:04.997Z</time></trkpt><trkpt lat="44.61304448545571" lon="9.321637246602199"><ele>505.75</ele><time>2026-04-30T14:16:05.997Z</time></trkpt><trkpt lat="44.613100818829444" lon="9.321741919969726"><ele>509.5</ele><time>2026-04-30T14:16:06.997Z</time></trkpt><trkpt lat="44.61318969477048" lon="9.32182262703154"><ele>513.25</ele><time>2026-04-30T14:16:07.997Z</time></trkpt><trkpt lat="44.61330640111122" lon="9.32177505503485"><ele>517.0</ele><time>2026-04-30T14:16:08.997Z</time></trkpt><trkpt lat="44.61342914431548" lon="9.321718805752468"><ele>517.0</ele><time>2026-04-30T14:16:09.997Z</time></trkpt><trkpt lat="44.61356526916058" lon="9.321594166245632"><ele>517.0</ele><time>2026-04-30T14:16:10.997Z</time></trkpt><trkpt lat="44.61372669823965" lon="9.321553051384205"><ele>517.0</ele><time>2026-04-30T14:16:11.997Z</time></trkpt><trkpt lat="44.61388361976233" lon="9.321515482117816"><ele>518.3333333333334</ele><time>2026-04-30T14:16:12.997Z</time></trkpt><trkpt lat="44.61404510102066" lon="9.321474731712447"><ele>519.6666666666666</ele><time>2026-04-30T14:16:13.997Z</time></trkpt><trkpt lat="44.61419939632417" lon="9.321443181109439"><ele>521.0</ele><time>2026-04-30T14:16:14.997Z</time></trkpt><trkpt lat="44.61434557969499" lon="9.321428557316244"><ele>518.5</ele><time>2026-04-30T14:16:15.997Z</time></trkpt><trkpt lat="44.61448965920411" lon="9.321404577994102"><ele>516.0</ele><time>2026-04-30T14:16:16.997Z</time></trkpt><trkpt lat="44.61462095138664" lon="9.321387819179032"><ele>513.5</ele><time>2026-04-30T14:16:17.997Z</time></trkpt><trkpt lat="44.61473476177023" lon="9.321440268482425"><ele>511.0</ele><time>2026-04-30T14:16:18.997Z</time></trkpt><trkpt lat="44.614855101887876" lon="9.321547604493466"><ele>511.0</ele><time>2026-04-30T14:16:19.997Z</time></trkpt><trkpt lat="44.61495328251213" lon="9.321683800191321"><ele>511.0</ele><time>2026-04-30T14:16:20.997Z</time></trkpt><trkpt lat="44.61507543281627" lon="9.321779948485696"><ele>511.0</ele><time>2026-04-30T14:16:21.997Z</time></trkpt><trkpt lat="44.61523073055809" lon="9.321845494373854"><ele>511.0</ele><time>2026-04-30T14:16:22.997Z</time></trkpt><trkpt lat="44.615395585022355" lon="9.321856059479638"><ele>510.33333333333337</ele><time>2026-04-30T14:16:23.997Z</time></trkpt><trkpt lat="44.61553540039867" lon="9.321870894600229"><ele>509.66666666666663</ele><time>2026-04-30T14:16:24.997Z</time></trkpt><trkpt lat="44.61567914957171" lon="9.321863375041215"><ele>509.0</ele><time>2026-04-30T14:16:25.997Z</time></trkpt><trkpt lat="44.615850321556735" lon="9.321858736690018"><ele>509.0</ele><time>2026-04-30T14:16:26.997Z</time></trkpt><trkpt lat="44.616019673688555" lon="9.3218395505667"><ele>509.0</ele><time>2026-04-30T14:16:27.997Z</time></trkpt><trkpt lat="44.616186145405685" lon="9.321835048475815"><ele>509.0</ele><time>2026-04-30T14:16:28.997Z</time></trkpt><trkpt lat="44.61635238429985" lon="9.321823549347103"><ele>506.66666666666663</ele><time>2026-04-30T14:16:29.997Z</time></trkpt><trkpt lat="44.616530930714596" lon="9.321856799677759"><ele>504.33333333333337</ele><time>2026-04-30T14:16:30.997Z</time></trkpt><trkpt lat="44.61671015994061" lon="9.321954468536918"><ele>502.0</ele><time>2026-04-30T14:16:31.997Z</time></trkpt><trkpt lat="44.61688020453749" lon="9.3220282208069"><ele>498.0</ele><time>2026-04-30T14:16:32.997Z</time></trkpt><trkpt lat="44.61705354405408" lon="9.322143860457894"><ele>494.0</ele><time>2026-04-30T14:16:33.997Z</time></trkpt><trkpt lat="44.61720268755494" lon="9.322251692308692"><ele>490.0</ele><time>2026-04-30T14:16:34.997Z</time></trkpt><trkpt lat="44.61735291021654" lon="9.322387900186177"><ele>490.0</ele><time>2026-04-30T14:16:35.997Z</time></trkpt><trkpt lat="44.61749323519311" lon="9.322554509027764"><ele>490.0</ele><time>2026-04-30T14:16:36.997Z</time></trkpt><trkpt lat="44.617602169748984" lon="9.322769930005704"><ele>490.0</ele><time>2026-04-30T14:16:37.997Z</time></trkpt><trkpt lat="44.61774374854929" lon="9.32295444836337"><ele>493.0</ele><time>2026-04-30T14:16:38.997Z</time></trkpt><trkpt lat="44.61788148402326" lon="9.323139556105605"><ele>496.0</ele><time>2026-04-30T14:16:39.997Z</time></trkpt><trkpt lat="44.618022765750375" lon="9.323321784126199"><ele>499.0</ele><time>2026-04-30T14:16:40.997Z</time></trkpt><trkpt lat="44.61815918176482" lon="9.323504300863172"><ele>499.0</ele><time>2026-04-30T14:16:41.997Z</time></trkpt><trkpt lat="44.618299475069485" lon="9.32367865989242"><ele>499.0</ele><time>2026-04-30T14:16:42.997Z</time></trkpt><trkpt lat="44.61844452859214" lon="9.323837304041769"><ele>499.0</ele><time>2026-04-30T14:16:43.997Z</time></trkpt><trkpt lat="44.618584331786614" lon="9.32400463873942"><ele>500.6666666666667</ele><time>2026-04-30T14:16:44.997Z</time></trkpt><trkpt lat="44.61871976656951" lon="9.324184758982128"><ele>502.33333333333337</ele><time>2026-04-30T14:16:45.997Z</time></trkpt><trkpt lat="44.61886192462632" lon="9.324370063444654"><ele>504.0</ele><time>2026-04-30T14:16:46.997Z</time></trkpt><trkpt lat="44.618994474459846" lon="9.32456384072153"><ele>500.0</ele><time>2026-04-30T14:16:47.997Z</time></trkpt><trkpt lat="44.61913691529467" lon="9.324744055962451"><ele>496.0</ele><time>2026-04-30T14:16:48.997Z</time></trkpt><trkpt lat="44.61926931298934" lon="9.324958736827902"><ele>492.0</ele><time>2026-04-30T14:16:49.997Z</time></trkpt><trkpt lat="44.61941256512683" lon="9.325152544521481"><ele>490.66666666666663</ele><time>2026-04-30T14:16:50.997Z</time></trkpt><trkpt lat="44.61954549718617" lon="9.325344644585739"><ele>489.3333333333333</ele><time>2026-04-30T14:16:51.997Z</time></trkpt><trkpt lat="44.61967648522511" lon="9.325522790052451"><ele>488.0</ele><time>2026-04-30T14:16:52.997Z</time></trkpt><trkpt lat="44.61980289452749" lon="9.325712629349809"><ele>488.0</ele><time>2026-04-30T14:16:53.997Z</time></trkpt><trkpt lat="44.61992895651784" lon="9.325890305432184"><ele>488.0</ele><time>2026-04-30T14:16:54.997Z</time></trkpt><trkpt lat="44.62005314819687" lon="9.32607329929292"><ele>488.0</ele><time>2026-04-30T14:16:55.997Z</time></trkpt><trkpt lat="44.62017400589541" lon="9.326251556967991"><ele>486.66666666666663</ele><time>2026-04-30T14:16:56.997Z</time></trkpt><trkpt lat="44.620294226011374" lon="9.326429963584088"><ele>485.33333333333337</ele><time>2026-04-30T14:16:57.997Z</time></trkpt><trkpt lat="44.620403384207954" lon="9.326635051957348"><ele>484.0</ele><time>2026-04-30T14:16:58.997Z</time></trkpt><trkpt lat="44.620539818221985" lon="9.326826516644774"><ele>484.0</ele><time>2026-04-30T14:16:59.997Z</time></trkpt><trkpt lat="44.620653952686325" lon="9.32703489417102"><ele>484.0</ele><time>2026-04-30T14:17:00.997Z</time></trkpt><trkpt lat="44.62076379995951" lon="9.327237230054559"><ele>484.0</ele><time>2026-04-30T14:17:01.997Z</time></trkpt><trkpt lat="44.62086483877992" lon="9.327467914850395"><ele>483.6666666666667</ele><time>2026-04-30T14:17:02.997Z</time></trkpt><trkpt lat="44.62095692604327" lon="9.327698334591478"><ele>483.33333333333337</ele><time>2026-04-30T14:17:03.997Z</time></trkpt><trkpt lat="44.62104962064157" lon="9.327922110540435"><ele>483.0</ele><time>2026-04-30T14:17:04.997Z</time></trkpt><trkpt lat="44.621143963798296" lon="9.328139085867203"><ele>485.33333333333337</ele><time>2026-04-30T14:17:05.997Z</time></trkpt><trkpt lat="44.62122676497568" lon="9.328350059638073"><ele>487.6666666666667</ele><time>2026-04-30T14:17:06.997Z</time></trkpt><trkpt lat="44.62131579663306" lon="9.328570647064574"><ele>490.0</ele><time>2026-04-30T14:17:07.997Z</time></trkpt><trkpt lat="44.62138899607443" lon="9.328792502370185"><ele>488.6666666666667</ele><time>2026-04-30T14:17:08.997Z</time></trkpt><trkpt lat="44.62149215653247" lon="9.32899576555651"><ele>487.33333333333337</ele><time>2026-04-30T14:17:09.997Z</time></trkpt><trkpt lat="44.6215960081009" lon="9.329211145788184"><ele>486.0</ele><time>2026-04-30T14:17:10.997Z</time></trkpt><trkpt lat="44.62167581922024" lon="9.329408395533273"><ele>486.0</ele><time>2026-04-30T14:17:11.997Z</time></trkpt><trkpt lat="44.6217708409341" lon="9.329606780006173"><ele>486.0</ele><time>2026-04-30T14:17:12.997Z</time></trkpt><trkpt lat="44.621867725342426" lon="9.329809248341476"><ele>486.0</ele><time>2026-04-30T14:17:13.997Z</time></trkpt><trkpt lat="44.621986632378054" lon="9.329978621955684"><ele>485.0</ele><time>2026-04-30T14:17:14.997Z</time></trkpt><trkpt lat="44.622106415050744" lon="9.330168220502442"><ele>484.0</ele><time>2026-04-30T14:17:15.997Z</time></trkpt><trkpt lat="44.62221914227213" lon="9.330305766737172"><ele>483.0</ele><time>2026-04-30T14:17:16.997Z</time></trkpt><trkpt lat="44.622356484313194" lon="9.330456649421128"><ele>481.66666666666663</ele><time>2026-04-30T14:17:17.997Z</time></trkpt><trkpt lat="44.62249144759597" lon="9.3305915176091"><ele>480.3333333333333</ele><time>2026-04-30T14:17:18.997Z</time></trkpt><trkpt lat="44.62262976693642" lon="9.330734593732908"><ele>479.0</ele><time>2026-04-30T14:17:19.997Z</time></trkpt><trkpt lat="44.62278904294422" lon="9.330834915698277"><ele>478.66666666666663</ele><time>2026-04-30T14:17:20.997Z</time></trkpt><trkpt lat="44.622958723707484" lon="9.330953203463315"><ele>478.33333333333337</ele><time>2026-04-30T14:17:21.997Z</time></trkpt><trkpt lat="44.623144727137664" lon="9.331036587557104"><ele>478.0</ele><time>2026-04-30T14:17:22.997Z</time></trkpt><trkpt lat="44.62333675515883" lon="9.331118616828828"><ele>478.0</ele><time>2026-04-30T14:17:23.997Z</time></trkpt><trkpt lat="44.6235300120475" lon="9.331198793344553"><ele>478.0</ele><time>2026-04-30T14:17:24.997Z</time></trkpt><trkpt lat="44.62370249656781" lon="9.331277239655071"><ele>478.0</ele><time>2026-04-30T14:17:25.997Z</time></trkpt><trkpt lat="44.623865691392254" lon="9.331394300159563"><ele>479.33333333333337</ele><time>2026-04-30T14:17:26.997Z</time></trkpt><trkpt lat="44.62403200090107" lon="9.331477782068026"><ele>480.66666666666663</ele><time>2026-04-30T14:17:27.997Z</time></trkpt><trkpt lat="44.624194838266824" lon="9.331588751678556"><ele>482.0</ele><time>2026-04-30T14:17:28.997Z</time></trkpt><trkpt lat="44.624362767227915" lon="9.331668943789408"><ele>481.3333333333333</ele><time>2026-04-30T14:17:29.997Z</time></trkpt><trkpt lat="44.62453983530823" lon="9.331762640000942"><ele>480.66666666666663</ele><time>2026-04-30T14:17:30.996Z</time></trkpt><trkpt lat="44.62471978368478" lon="9.331864859625073"><ele>480.0</ele><time>2026-04-30T14:17:31.996Z</time></trkpt><trkpt lat="44.62489461241221" lon="9.331924519081086"><ele>480.0</ele><time>2026-04-30T14:17:32.996Z</time></trkpt><trkpt lat="44.62506178207465" lon="9.332040745399912"><ele>480.0</ele><time>2026-04-30T14:17:33.996Z</time></trkpt><trkpt lat="44.6252359335232" lon="9.332140434919328"><ele>480.0</ele><time>2026-04-30T14:17:34.996Z</time></trkpt><trkpt lat="44.62541171934366" lon="9.33224106000436"><ele>478.0</ele><time>2026-04-30T14:17:35.996Z</time></trkpt><trkpt lat="44.62557671233475" lon="9.332333225543437"><ele>476.0</ele><time>2026-04-30T14:17:36.996Z</time></trkpt><trkpt lat="44.62574064114836" lon="9.332421273734854"><ele>474.0</ele><time>2026-04-30T14:17:37.996Z</time></trkpt><trkpt lat="44.625908600117654" lon="9.332507501900707"><ele>474.0</ele><time>2026-04-30T14:17:38.996Z</time></trkpt><trkpt lat="44.62609274042603" lon="9.332593498804282"><ele>474.0</ele><time>2026-04-30T14:17:39.996Z</time></trkpt><trkpt lat="44.62626973486888" lon="9.332669364024243"><ele>474.0</ele><time>2026-04-30T14:17:40.996Z</time></trkpt><trkpt lat="44.62645656857576" lon="9.332738984313096"><ele>473.66666666666663</ele><time>2026-04-30T14:17:41.996Z</time></trkpt><trkpt lat="44.6266458882348" lon="9.33278067459548"><ele>473.3333333333333</ele><time>2026-04-30T14:17:42.996Z</time></trkpt><trkpt lat="44.626829618559135" lon="9.332856799585958"><ele>473.0</ele><time>2026-04-30T14:17:43.996Z</time></trkpt><trkpt lat="44.627006653955775" lon="9.332873236232581"><ele>473.0</ele><time>2026-04-30T14:17:44.996Z</time></trkpt><trkpt lat="44.627188687726786" lon="9.332951871713155"><ele>473.0</ele><time>2026-04-30T14:17:45.996Z</time></trkpt><trkpt lat="44.627384696637044" lon="9.333007681340368"><ele>473.0</ele><time>2026-04-30T14:17:46.996Z</time></trkpt><trkpt lat="44.62758880276919" lon="9.333020230750362"><ele>473.0</ele><time>2026-04-30T14:17:47.996Z</time></trkpt><trkpt lat="44.62778448791105" lon="9.333021596226208"><ele>473.0</ele><time>2026-04-30T14:17:48.996Z</time></trkpt><trkpt lat="44.62797856150425" lon="9.332999788944367"><ele>473.0</ele><time>2026-04-30T14:17:49.996Z</time></trkpt><trkpt lat="44.628176254827856" lon="9.333025414158294"><ele>473.0</ele><time>2026-04-30T14:17:50.996Z</time></trkpt><trkpt lat="44.628364944288776" lon="9.333008408623694"><ele>473.0</ele><time>2026-04-30T14:17:51.996Z</time></trkpt><trkpt lat="44.628552356703416" lon="9.333022633529598"><ele>473.0</ele><time>2026-04-30T14:17:52.996Z</time></trkpt><trkpt lat="44.62875026742109" lon="9.333065987875957"><ele>475.3333333333333</ele><time>2026-04-30T14:17:53.996Z</time></trkpt><trkpt lat="44.62892852926455" lon="9.333092751947227"><ele>477.66666666666663</ele><time>2026-04-30T14:17:54.996Z</time></trkpt><trkpt lat="44.62911661441668" lon="9.333097639822164"><ele>480.0</ele><time>2026-04-30T14:17:55.996Z</time></trkpt><trkpt lat="44.62929250350181" lon="9.333085436453121"><ele>477.0</ele><time>2026-04-30T14:17:56.996Z</time></trkpt><trkpt lat="44.62948537894066" lon="9.333055719533236"><ele>474.0</ele><time>2026-04-30T14:17:57.996Z</time></trkpt><trkpt lat="44.62966999956149" lon="9.333004642412993"><ele>471.0</ele><time>2026-04-30T14:17:58.996Z</time></trkpt><trkpt lat="44.62984319391342" lon="9.332941179880224"><ele>471.0</ele><time>2026-04-30T14:17:59.996Z</time></trkpt><trkpt lat="44.63002849080993" lon="9.332831331096125"><ele>471.0</ele><time>2026-04-30T14:18:00.996Z</time></trkpt><trkpt lat="44.63022148109428" lon="9.332757652836992"><ele>471.0</ele><time>2026-04-30T14:18:01.996Z</time></trkpt><trkpt lat="44.63040092387977" lon="9.33262939786132"><ele>475.66666666666663</ele><time>2026-04-30T14:18:02.996Z</time></trkpt><trkpt lat="44.630581625871415" lon="9.332501733779333"><ele>480.3333333333333</ele><time>2026-04-30T14:18:03.996Z</time></trkpt><trkpt lat="44.63076220332886" lon="9.332369678477"><ele>485.0</ele><time>2026-04-30T14:18:04.996Z</time></trkpt><trkpt lat="44.63094852639315" lon="9.332228996969157"><ele>483.3333333333333</ele><time>2026-04-30T14:18:05.996Z</time></trkpt><trkpt lat="44.63113432933432" lon="9.33209262862346"><ele>481.66666666666663</ele><time>2026-04-30T14:18:06.996Z</time></trkpt><trkpt lat="44.63130844887675" lon="9.331944390250339"><ele>480.0</ele><time>2026-04-30T14:18:07.996Z</time></trkpt><trkpt lat="44.6314746127633" lon="9.33179880975346"><ele>480.0</ele><time>2026-04-30T14:18:08.996Z</time></trkpt><trkpt lat="44.63164262886453" lon="9.331655517127343"><ele>480.0</ele><time>2026-04-30T14:18:09.996Z</time></trkpt><trkpt lat="44.631808651659696" lon="9.331495232075834"><ele>480.0</ele><time>2026-04-30T14:18:10.996Z</time></trkpt><trkpt lat="44.63198112004622" lon="9.331326952196191"><ele>478.66666666666663</ele><time>2026-04-30T14:18:11.996Z</time></trkpt><trkpt lat="44.632142586732414" lon="9.33113800545103"><ele>477.3333333333333</ele><time>2026-04-30T14:18:12.996Z</time></trkpt><trkpt lat="44.632303747129264" lon="9.33096143834655"><ele>476.0</ele><time>2026-04-30T14:18:13.996Z</time></trkpt><trkpt lat="44.632477643315646" lon="9.330792408496842"><ele>476.0</ele><time>2026-04-30T14:18:14.996Z</time></trkpt><trkpt lat="44.63265546565113" lon="9.330629340271882"><ele>476.0</ele><time>2026-04-30T14:18:15.996Z</time></trkpt><trkpt lat="44.63282941223774" lon="9.330466100183912"><ele>476.0</ele><time>2026-04-30T14:18:16.996Z</time></trkpt><trkpt lat="44.63300867250147" lon="9.330296037527207"><ele>474.66666666666663</ele><time>2026-04-30T14:18:17.996Z</time></trkpt><trkpt lat="44.63320714805608" lon="9.33016175664968"><ele>473.33333333333337</ele><time>2026-04-30T14:18:18.996Z</time></trkpt><trkpt lat="44.633407446461575" lon="9.330050469782705"><ele>472.0</ele><time>2026-04-30T14:18:19.996Z</time></trkpt><trkpt lat="44.633586353610546" lon="9.32992862017891"><ele>471.0</ele><time>2026-04-30T14:18:20.996Z</time></trkpt><trkpt lat="44.63377695155357" lon="9.329776231471604"><ele>470.0</ele><time>2026-04-30T14:18:21.996Z</time></trkpt><trkpt lat="44.63397490464762" lon="9.329645104321859"><ele>469.0</ele><time>2026-04-30T14:18:22.996Z</time></trkpt><trkpt lat="44.63416471462673" lon="9.329519606353719"><ele>469.0</ele><time>2026-04-30T14:18:23.996Z</time></trkpt><trkpt lat="44.6343500909661" lon="9.329409622643027"><ele>469.0</ele><time>2026-04-30T14:18:24.996Z</time></trkpt><trkpt lat="44.63452746761466" lon="9.329265696242821"><ele>469.0</ele><time>2026-04-30T14:18:25.996Z</time></trkpt><trkpt lat="44.634705288871885" lon="9.32914736393613"><ele>467.6666666666667</ele><time>2026-04-30T14:18:26.996Z</time></trkpt><trkpt lat="44.63492889658122" lon="9.32901754965026"><ele>466.33333333333337</ele><time>2026-04-30T14:18:27.996Z</time></trkpt><trkpt lat="44.635109162950876" lon="9.328900910215246"><ele>465.0</ele><time>2026-04-30T14:18:28.996Z</time></trkpt><trkpt lat="44.63528416542983" lon="9.328772499994137"><ele>465.66666666666663</ele><time>2026-04-30T14:18:29.996Z</time></trkpt><trkpt lat="44.63545206580131" lon="9.328655154681021"><ele>466.3333333333333</ele><time>2026-04-30T14:18:30.996Z</time></trkpt><trkpt lat="44.6356360818809" lon="9.328594631329873"><ele>467.0</ele><time>2026-04-30T14:18:31.996Z</time></trkpt><trkpt lat="44.63581503964147" lon="9.32853134738204"><ele>467.0</ele><time>2026-04-30T14:18:32.996Z</time></trkpt><trkpt lat="44.636014738510795" lon="9.32850532587149"><ele>467.0</ele><time>2026-04-30T14:18:33.996Z</time></trkpt><trkpt lat="44.636209842827036" lon="9.328530371679939"><ele>467.0</ele><time>2026-04-30T14:18:34.996Z</time></trkpt><trkpt lat="44.636406191464935" lon="9.328572654964331"><ele>465.66666666666663</ele><time>2026-04-30T14:18:35.996Z</time></trkpt><trkpt lat="44.636590432255936" lon="9.328639018442125"><ele>464.33333333333337</ele><time>2026-04-30T14:18:36.996Z</time></trkpt><trkpt lat="44.63676428784067" lon="9.328732065292918"><ele>463.0</ele><time>2026-04-30T14:18:37.996Z</time></trkpt><trkpt lat="44.63692693226645" lon="9.328841502560298"><ele>464.6666666666667</ele><time>2026-04-30T14:18:38.996Z</time></trkpt><trkpt lat="44.63711863677913" lon="9.328973686700095"><ele>466.33333333333337</ele><time>2026-04-30T14:18:39.996Z</time></trkpt><trkpt lat="44.63731817861024" lon="9.329118767707696"><ele>468.0</ele><time>2026-04-30T14:18:40.996Z</time></trkpt><trkpt lat="44.63750820528404" lon="9.329257157780587"><ele>468.0</ele><time>2026-04-30T14:18:41.996Z</time></trkpt><trkpt lat="44.637710691936526" lon="9.329382123643628"><ele>468.0</ele><time>2026-04-30T14:18:42.996Z</time></trkpt><trkpt lat="44.63790143887329" lon="9.329524813859756"><ele>468.0</ele><time>2026-04-30T14:18:43.996Z</time></trkpt><trkpt lat="44.63807615189188" lon="9.329649570090874"><ele>469.66666666666663</ele><time>2026-04-30T14:18:45.001Z</time></trkpt><trkpt lat="44.6382406032793" lon="9.329828009120074"><ele>471.3333333333333</ele><time>2026-04-30T14:18:46.001Z</time></trkpt><trkpt lat="44.638410340742915" lon="9.329940941924935"><ele>473.0</ele><time>2026-04-30T14:18:47.001Z</time></trkpt><trkpt lat="44.638574950683896" lon="9.330026805387314"><ele>469.0</ele><time>2026-04-30T14:18:48.001Z</time></trkpt><trkpt lat="44.63874732457339" lon="9.330099508265048"><ele>465.0</ele><time>2026-04-30T14:18:49.001Z</time></trkpt><trkpt lat="44.63894568090639" lon="9.330119271104692"><ele>461.0</ele><time>2026-04-30T14:18:50.001Z</time></trkpt><trkpt lat="44.63914876895825" lon="9.330116884468175"><ele>461.0</ele><time>2026-04-30T14:18:51.001Z</time></trkpt><trkpt lat="44.63936058459464" lon="9.33007110299703"><ele>461.0</ele><time>2026-04-30T14:18:52.001Z</time></trkpt><trkpt lat="44.639567262192124" lon="9.330023587574193"><ele>461.0</ele><time>2026-04-30T14:18:53.001Z</time></trkpt><trkpt lat="44.63977902530821" lon="9.329924447271491"><ele>460.3333333333333</ele><time>2026-04-30T14:18:54.001Z</time></trkpt><trkpt lat="44.63998693341666" lon="9.329867424456092"><ele>459.66666666666663</ele><time>2026-04-30T14:18:55.001Z</time></trkpt><trkpt lat="44.64019441130779" lon="9.32983388740504"><ele>459.0</ele><time>2026-04-30T14:18:56.001Z</time></trkpt><trkpt lat="44.64040306021724" lon="9.329777984179575"><ele>462.0</ele><time>2026-04-30T14:18:57Z</time></trkpt><trkpt lat="44.640603467406116" lon="9.329692341296889"><ele>465.0</ele><time>2026-04-30T14:18:58Z</time></trkpt><trkpt lat="44.640783727153334" lon="9.32963770943638"><ele>468.0</ele><time>2026-04-30T14:18:59Z</time></trkpt><trkpt lat="44.64097404827799" lon="9.329588665853004"><ele>466.66666666666663</ele><time>2026-04-30T14:19:00Z</time></trkpt><trkpt lat="44.64115646309858" lon="9.329549281936332"><ele>465.3333333333333</ele><time>2026-04-30T14:19:01Z</time></trkpt><trkpt lat="44.64134635073237" lon="9.329495059296935"><ele>464.0</ele><time>2026-04-30T14:19:02Z</time></trkpt><trkpt lat="44.641538845188286" lon="9.329433212420533"><ele>464.0</ele><time>2026-04-30T14:19:03Z</time></trkpt><trkpt lat="44.64174428118007" lon="9.3293814425414"><ele>464.0</ele><time>2026-04-30T14:19:04Z</time></trkpt><trkpt lat="44.64195575476699" lon="9.329338349062109"><ele>464.0</ele><time>2026-04-30T14:19:05Z</time></trkpt><trkpt lat="44.64215807325717" lon="9.329273203184783"><ele>463.0</ele><time>2026-04-30T14:19:06Z</time></trkpt><trkpt lat="44.64236841312156" lon="9.329211896519745"><ele>462.0</ele><time>2026-04-30T14:19:07Z</time></trkpt><trkpt lat="44.64257605824262" lon="9.329163165833982"><ele>461.0</ele><time>2026-04-30T14:19:08Z</time></trkpt><trkpt lat="44.642784572035865" lon="9.32914087044434"><ele>460.3333333333333</ele><time>2026-04-30T14:19:09Z</time></trkpt><trkpt lat="44.64298966511418" lon="9.329091795639538"><ele>459.66666666666663</ele><time>2026-04-30T14:19:10Z</time></trkpt><trkpt lat="44.64318515436686" lon="9.329020194180343"><ele>459.0</ele><time>2026-04-30T14:19:11Z</time></trkpt><trkpt lat="44.64338687670077" lon="9.328980639452585"><ele>459.0</ele><time>2026-04-30T14:19:12Z</time></trkpt><trkpt lat="44.64358075260934" lon="9.328917639151305"><ele>459.0</ele><time>2026-04-30T14:19:13Z</time></trkpt><trkpt lat="44.643775861422455" lon="9.328857406931894"><ele>459.0</ele><time>2026-04-30T14:19:14Z</time></trkpt><trkpt lat="44.643966502832924" lon="9.328799634682216"><ele>461.66666666666663</ele><time>2026-04-30T14:19:15Z</time></trkpt><trkpt lat="44.64417301773832" lon="9.328741966309709"><ele>464.3333333333333</ele><time>2026-04-30T14:19:16Z</time></trkpt><trkpt lat="44.64436472134733" lon="9.328682050927561"><ele>467.0</ele><time>2026-04-30T14:19:17Z</time></trkpt><trkpt lat="44.64455080757396" lon="9.328648189377505"><ele>467.0</ele><time>2026-04-30T14:19:18Z</time></trkpt><trkpt lat="44.64473446879523" lon="9.328600313749694"><ele>467.0</ele><time>2026-04-30T14:19:19Z</time></trkpt><trkpt lat="44.64491902407316" lon="9.328540821814116"><ele>467.0</ele><time>2026-04-30T14:19:20Z</time></trkpt><trkpt lat="44.64510349203488" lon="9.328460440439528"><ele>462.3333333333333</ele><time>2026-04-30T14:19:21Z</time></trkpt><trkpt lat="44.645311644707945" lon="9.328344878643222"><ele>457.66666666666663</ele><time>2026-04-30T14:19:22Z</time></trkpt><trkpt lat="44.64550499560483" lon="9.328213426735983"><ele>453.0</ele><time>2026-04-30T14:19:23Z</time></trkpt><trkpt lat="44.645700898704376" lon="9.328067417410752"><ele>452.66666666666663</ele><time>2026-04-30T14:19:24Z</time></trkpt><trkpt lat="44.64588553201688" lon="9.327931831881667"><ele>452.3333333333333</ele><time>2026-04-30T14:19:25Z</time></trkpt><trkpt lat="44.64606750302717" lon="9.327828933954379"><ele>452.0</ele><time>2026-04-30T14:19:26Z</time></trkpt><trkpt lat="44.64622443803413" lon="9.327696515629425"><ele>452.0</ele><time>2026-04-30T14:19:27Z</time></trkpt><trkpt lat="44.64638431551827" lon="9.327554705188776"><ele>452.0</ele><time>2026-04-30T14:19:28Z</time></trkpt><trkpt lat="44.646554578632355" lon="9.32742378588874"><ele>452.0</ele><time>2026-04-30T14:19:29Z</time></trkpt><trkpt lat="44.64671701505429" lon="9.327299041946302"><ele>451.0</ele><time>2026-04-30T14:19:30Z</time></trkpt><trkpt lat="44.646877550905614" lon="9.32716156359503"><ele>450.0</ele><time>2026-04-30T14:19:31Z</time></trkpt><trkpt lat="44.647055950374096" lon="9.327027655067614"><ele>449.0</ele><time>2026-04-30T14:19:31.999Z</time></trkpt><trkpt lat="44.64721514116848" lon="9.326838498590744"><ele>449.0</ele><time>2026-04-30T14:19:32.999Z</time></trkpt><trkpt lat="44.64734215830296" lon="9.3266577326999"><ele>449.0</ele><time>2026-04-30T14:19:33.999Z</time></trkpt><trkpt lat="44.64744538550735" lon="9.326409866618516"><ele>449.0</ele><time>2026-04-30T14:19:34.999Z</time></trkpt><trkpt lat="44.64754887582315" lon="9.3261363165644"><ele>449.0</ele><time>2026-04-30T14:19:35.999Z</time></trkpt><trkpt lat="44.647630316857345" lon="9.32588394580147"><ele>449.0</ele><time>2026-04-30T14:19:36.999Z</time></trkpt><trkpt lat="44.6477052856118" lon="9.325635027038901"><ele>449.0</ele><time>2026-04-30T14:19:37.999Z</time></trkpt><trkpt lat="44.64778965826255" lon="9.325391913187298"><ele>450.66666666666663</ele><time>2026-04-30T14:19:38.999Z</time></trkpt><trkpt lat="44.647868175152006" lon="9.325142258759719"><ele>452.33333333333337</ele><time>2026-04-30T14:19:39.999Z</time></trkpt><trkpt lat="44.647923955663096" lon="9.32488556268749"><ele>454.0</ele><time>2026-04-30T14:19:40.999Z</time></trkpt><trkpt lat="44.64799925829317" lon="9.324620808612622"><ele>454.0</ele><time>2026-04-30T14:19:41.999Z</time></trkpt><trkpt lat="44.64807370174656" lon="9.324367422938069"><ele>454.0</ele><time>2026-04-30T14:19:42.999Z</time></trkpt><trkpt lat="44.648150656655325" lon="9.324108644060258"><ele>454.0</ele><time>2026-04-30T14:19:43.999Z</time></trkpt><trkpt lat="44.64821711947126" lon="9.32383733993674"><ele>451.0</ele><time>2026-04-30T14:19:44.999Z</time></trkpt><trkpt lat="44.648300642070204" lon="9.323590872306896"><ele>448.0</ele><time>2026-04-30T14:19:45.999Z</time></trkpt><trkpt lat="44.64839475483698" lon="9.323353734146222"><ele>445.0</ele><time>2026-04-30T14:19:46.999Z</time></trkpt><trkpt lat="44.64848793892672" lon="9.323111589176786"><ele>444.6666666666667</ele><time>2026-04-30T14:19:47.999Z</time></trkpt><trkpt lat="44.64855917523121" lon="9.322860523641483"><ele>444.33333333333337</ele><time>2026-04-30T14:19:48.999Z</time></trkpt><trkpt lat="44.64861783710995" lon="9.322621827265406"><ele>444.0</ele><time>2026-04-30T14:19:49.999Z</time></trkpt><trkpt lat="44.648650029908865" lon="9.322370200283697"><ele>450.33333333333337</ele><time>2026-04-30T14:19:50.999Z</time></trkpt><trkpt lat="44.648737104736504" lon="9.32217754933346"><ele>456.6666666666667</ele><time>2026-04-30T14:19:51.999Z</time></trkpt><trkpt lat="44.64882889818488" lon="9.32197760869745"><ele>463.0</ele><time>2026-04-30T14:19:52.999Z</time></trkpt><trkpt lat="44.648930619252575" lon="9.321774296768051"><ele>463.0</ele><time>2026-04-30T14:19:53.999Z</time></trkpt><trkpt lat="44.64904178931111" lon="9.321559865965803"><ele>463.0</ele><time>2026-04-30T14:19:54.999Z</time></trkpt><trkpt lat="44.649159708682426" lon="9.321373386056857"><ele>463.0</ele><time>2026-04-30T14:19:55.999Z</time></trkpt><trkpt lat="44.6492686335054" lon="9.321201883617261"><ele>462.5</ele><time>2026-04-30T14:19:56.999Z</time></trkpt><trkpt lat="44.649345547944776" lon="9.320974047024276"><ele>462.0</ele><time>2026-04-30T14:19:57.999Z</time></trkpt><trkpt lat="44.64942557940305" lon="9.320838647554464"><ele>461.5</ele><time>2026-04-30T14:19:58.999Z</time></trkpt><trkpt lat="44.649550799563116" lon="9.320778410901234"><ele>461.0</ele><time>2026-04-30T14:19:59.999Z</time></trkpt><trkpt lat="44.649668083359124" lon="9.320706604727429"><ele>461.0</ele><time>2026-04-30T14:20:00.999Z</time></trkpt><trkpt lat="44.64978662910281" lon="9.320615845621688"><ele>461.0</ele><time>2026-04-30T14:20:01.999Z</time></trkpt><trkpt lat="44.64991343277063" lon="9.320526910292434"><ele>461.0</ele><time>2026-04-30T14:20:02.999Z</time></trkpt><trkpt lat="44.65003314395857" lon="9.32045878502851"><ele>461.0</ele><time>2026-04-30T14:20:03.999Z</time></trkpt><trkpt lat="44.65015294457347" lon="9.320447537424464"><ele>461.0</ele><time>2026-04-30T14:20:04.999Z</time></trkpt><trkpt lat="44.65023506915262" lon="9.320534101091912"><ele>461.0</ele><time>2026-04-30T14:20:06.999Z</time></trkpt><trkpt lat="44.65028558391855" lon="9.320717752285319"><ele>461.0</ele><time>2026-04-30T14:20:08.999Z</time></trkpt><trkpt lat="44.65034185773249" lon="9.320970709851071"><ele>461.0</ele><time>2026-04-30T14:20:09.999Z</time></trkpt><trkpt lat="44.65045986400033" lon="9.321106013640327"><ele>462.6</ele><time>2026-04-30T14:20:10.999Z</time></trkpt><trkpt lat="44.65056883446965" lon="9.321183156487393"><ele>464.20000000000005</ele><time>2026-04-30T14:20:11.999Z</time></trkpt><trkpt lat="44.65067942711615" lon="9.321253297572794"><ele>465.79999999999995</ele><time>2026-04-30T14:20:12.999Z</time></trkpt><trkpt lat="44.65079050697196" lon="9.321294654470863"><ele>467.4</ele><time>2026-04-30T14:20:13.999Z</time></trkpt><trkpt lat="44.65087782770841" lon="9.321297083361168"><ele>469.0</ele><time>2026-04-30T14:20:14.999Z</time></trkpt><trkpt lat="44.65095590294705" lon="9.32133823829111"><ele>470.2</ele><time>2026-04-30T14:20:15.999Z</time></trkpt><trkpt lat="44.65102268497718" lon="9.321408701238578"><ele>471.4</ele><time>2026-04-30T14:20:16.999Z</time></trkpt><trkpt lat="44.65108393665172" lon="9.321518448135345"><ele>472.6</ele><time>2026-04-30T14:20:17.999Z</time></trkpt><trkpt lat="44.65115978634591" lon="9.32164232783174"><ele>473.8</ele><time>2026-04-30T14:20:18.999Z</time></trkpt><trkpt lat="44.65121307614475" lon="9.321769427074008"><ele>475.0</ele><time>2026-04-30T14:20:19.999Z</time></trkpt><trkpt lat="44.651295370869654" lon="9.321788564539908"><ele>475.6</ele><time>2026-04-30T14:20:20.999Z</time></trkpt><trkpt lat="44.65137360635005" lon="9.321755614606886"><ele>476.2</ele><time>2026-04-30T14:20:21.999Z</time></trkpt><trkpt lat="44.65145274959225" lon="9.321628545019966"><ele>476.79999999999995</ele><time>2026-04-30T14:20:22.999Z</time></trkpt><trkpt lat="44.65152856592299" lon="9.321496505991824"><ele>477.4</ele><time>2026-04-30T14:20:23.999Z</time></trkpt><trkpt lat="44.651585064109796" lon="9.32133753504602"><ele>478.0</ele><time>2026-04-30T14:20:24.999Z</time></trkpt><trkpt lat="44.65164911721416" lon="9.321181208461391"><ele>478.0</ele><time>2026-04-30T14:20:25.999Z</time></trkpt><trkpt lat="44.65169471401888" lon="9.321045623648413"><ele>478.0</ele><time>2026-04-30T14:20:26.999Z</time></trkpt><trkpt lat="44.651673976788246" lon="9.320909469682542"><ele>478.0</ele><time>2026-04-30T14:20:27.999Z</time></trkpt><trkpt lat="44.65161298267323" lon="9.320774061889699"><ele>478.0</ele><time>2026-04-30T14:20:28.999Z</time></trkpt><trkpt lat="44.65148204973832" lon="9.320671000594388"><ele>478.0</ele><time>2026-04-30T14:20:29.999Z</time></trkpt><trkpt lat="44.65138240997035" lon="9.32061662701632"><ele>477.99999999999994</ele><time>2026-04-30T14:20:30.999Z</time></trkpt><trkpt lat="44.65130063608621" lon="9.320546439210581"><ele>477.99999999999994</ele><time>2026-04-30T14:20:31.999Z</time></trkpt><trkpt lat="44.65122740479343" lon="9.320430053486335"><ele>478.0</ele><time>2026-04-30T14:20:32.999Z</time></trkpt><trkpt lat="44.65124333451645" lon="9.320333686250757"><ele>478.0</ele><time>2026-04-30T14:20:33.999Z</time></trkpt><trkpt lat="44.65130374051213" lon="9.320268277547694"><ele>481.4</ele><time>2026-04-30T14:20:34.999Z</time></trkpt><trkpt lat="44.651378108680035" lon="9.320167925150406"><ele>484.79999999999995</ele><time>2026-04-30T14:20:35.999Z</time></trkpt><trkpt lat="44.651430276293006" lon="9.320075167857507"><ele>488.2</ele><time>2026-04-30T14:20:36.999Z</time></trkpt><trkpt lat="44.65145749107235" lon="9.31995555587535"><ele>491.6</ele><time>2026-04-30T14:20:37.999Z</time></trkpt><trkpt lat="44.65142264544005" lon="9.319812489190769"><ele>495.0</ele><time>2026-04-30T14:20:38.999Z</time></trkpt><trkpt lat="44.651372115089146" lon="9.319622262335061"><ele>499.25</ele><time>2026-04-30T14:20:39.999Z</time></trkpt><trkpt lat="44.65129514521166" lon="9.319482022763138"><ele>503.5</ele><time>2026-04-30T14:20:40.999Z</time></trkpt><trkpt lat="44.651269127517246" lon="9.319300996720537"><ele>507.75</ele><time>2026-04-30T14:20:41.999Z</time></trkpt><trkpt lat="44.65126886715406" lon="9.319107622611778"><ele>512.0</ele><time>2026-04-30T14:20:42.999Z</time></trkpt><trkpt lat="44.651242388100044" lon="9.318924616636231"><ele>512.0</ele><time>2026-04-30T14:20:43.999Z</time></trkpt><trkpt lat="44.651232731634614" lon="9.318738888394208"><ele>512.0</ele><time>2026-04-30T14:20:44.999Z</time></trkpt><trkpt lat="44.65123610720551" lon="9.318567825176652"><ele>512.0</ele><time>2026-04-30T14:20:45.999Z</time></trkpt><trkpt lat="44.65123334485755" lon="9.318395333691967"><ele>512.0</ele><time>2026-04-30T14:20:46.999Z</time></trkpt><trkpt lat="44.65125794283827" lon="9.318267933624709"><ele>512.0</ele><time>2026-04-30T14:20:47.998Z</time></trkpt><trkpt lat="44.651300938401164" lon="9.318128372707518"><ele>512.0</ele><time>2026-04-30T14:20:48.998Z</time></trkpt><trkpt lat="44.651349083565755" lon="9.31797079723165"><ele>512.0</ele><time>2026-04-30T14:20:49.998Z</time></trkpt><trkpt lat="44.651382335595684" lon="9.317811380308735"><ele>512.0</ele><time>2026-04-30T14:20:50.998Z</time></trkpt><trkpt lat="44.65139669513617" lon="9.317639599027036"><ele>509.0</ele><time>2026-04-30T14:20:51.998Z</time></trkpt><trkpt lat="44.651386547421446" lon="9.317485581273361"><ele>506.00000000000006</ele><time>2026-04-30T14:20:52.998Z</time></trkpt><trkpt lat="44.6514113045419" lon="9.317357556084115"><ele>503.00000000000006</ele><time>2026-04-30T14:20:53.998Z</time></trkpt><trkpt lat="44.65145971105447" lon="9.317266971378173"><ele>500.0</ele><time>2026-04-30T14:20:54.998Z</time></trkpt><trkpt lat="44.65155205994737" lon="9.317179740079476"><ele>497.0</ele><time>2026-04-30T14:20:55.998Z</time></trkpt><trkpt lat="44.65167145427105" lon="9.317166237357387"><ele>494.75</ele><time>2026-04-30T14:20:56.998Z</time></trkpt><trkpt lat="44.65177250661244" lon="9.317108307987136"><ele>492.5</ele><time>2026-04-30T14:20:57.998Z</time></trkpt><trkpt lat="44.651839740987924" lon="9.316974728554595"><ele>490.25</ele><time>2026-04-30T14:20:58.998Z</time></trkpt><trkpt lat="44.65189124103441" lon="9.316818169156738"><ele>488.0</ele><time>2026-04-30T14:20:59.998Z</time></trkpt><trkpt lat="44.65193858262959" lon="9.316687221945958"><ele>494.25</ele><time>2026-04-30T14:21:00.998Z</time></trkpt><trkpt lat="44.65200373616497" lon="9.316606780682681"><ele>500.5</ele><time>2026-04-30T14:21:01.998Z</time></trkpt><trkpt lat="44.65210130796578" lon="9.316565137269135"><ele>506.75</ele><time>2026-04-30T14:21:02.998Z</time></trkpt><trkpt lat="44.65221974210603" lon="9.31652592096941"><ele>513.0</ele><time>2026-04-30T14:21:03.998Z</time></trkpt><trkpt lat="44.65235697584112" lon="9.316440134450513"><ele>508.75</ele><time>2026-04-30T14:21:04.998Z</time></trkpt><trkpt lat="44.6524531330699" lon="9.316278483389183"><ele>504.5</ele><time>2026-04-30T14:21:05.998Z</time></trkpt><trkpt lat="44.65251519919646" lon="9.316110176381207"><ele>500.25</ele><time>2026-04-30T14:21:06.998Z</time></trkpt><trkpt lat="44.65257681837044" lon="9.315993767593016"><ele>496.0</ele><time>2026-04-30T14:21:07.998Z</time></trkpt><trkpt lat="44.65266134929073" lon="9.31591544587691"><ele>496.0</ele><time>2026-04-30T14:21:08.998Z</time></trkpt><trkpt lat="44.652742332043694" lon="9.31588896792897"><ele>496.0</ele><time>2026-04-30T14:21:09.998Z</time></trkpt><trkpt lat="44.65287009713156" lon="9.31587356489485"><ele>496.0</ele><time>2026-04-30T14:21:10.998Z</time></trkpt><trkpt lat="44.652984322483285" lon="9.31586903147222"><ele>496.0</ele><time>2026-04-30T14:21:11.998Z</time></trkpt><trkpt lat="44.65311082607452" lon="9.315850551777997"><ele>495.5</ele><time>2026-04-30T14:21:12.998Z</time></trkpt><trkpt lat="44.65323068876264" lon="9.315812164311033"><ele>495.0</ele><time>2026-04-30T14:21:13.998Z</time></trkpt><trkpt lat="44.653336775356514" lon="9.315751440640485"><ele>494.5</ele><time>2026-04-30T14:21:14.998Z</time></trkpt><trkpt lat="44.65340663454776" lon="9.315589330023078"><ele>494.0</ele><time>2026-04-30T14:21:15.998Z</time></trkpt><trkpt lat="44.65345911808263" lon="9.315424170746214"><ele>494.0</ele><time>2026-04-30T14:21:16.998Z</time></trkpt><trkpt lat="44.65352183217357" lon="9.31528999716303"><ele>494.0</ele><time>2026-04-30T14:21:17.998Z</time></trkpt><trkpt lat="44.65359335285077" lon="9.315174282948064"><ele>494.0</ele><time>2026-04-30T14:21:18.998Z</time></trkpt><trkpt lat="44.65371169906878" lon="9.315111724454441"><ele>494.0</ele><time>2026-04-30T14:21:19.998Z</time></trkpt><trkpt lat="44.653844557336654" lon="9.31509073438743"><ele>499.5</ele><time>2026-04-30T14:21:20.998Z</time></trkpt><trkpt lat="44.65396820745736" lon="9.315055213757041"><ele>505.0</ele><time>2026-04-30T14:21:21.998Z</time></trkpt><trkpt lat="44.65409943117608" lon="9.315046302897967"><ele>510.5</ele><time>2026-04-30T14:21:22.998Z</time></trkpt><trkpt lat="44.65422628157603" lon="9.314998637461494"><ele>516.0</ele><time>2026-04-30T14:21:23.998Z</time></trkpt><trkpt lat="44.6543484178757" lon="9.314945722985062"><ele>516.0</ele><time>2026-04-30T14:21:24.998Z</time></trkpt><trkpt lat="44.654414657257455" lon="9.314863120979934"><ele>516.0</ele><time>2026-04-30T14:21:25.998Z</time></trkpt><trkpt lat="44.65449193504495" lon="9.31469651352845"><ele>516.0</ele><time>2026-04-30T14:21:26.998Z</time></trkpt><trkpt lat="44.654488409571755" lon="9.314502540116191"><ele>516.0</ele><time>2026-04-30T14:21:27.998Z</time></trkpt><trkpt lat="44.65445222043216" lon="9.314333206937729"><ele>515.5</ele><time>2026-04-30T14:21:28.998Z</time></trkpt><trkpt lat="44.65438278565312" lon="9.314176260192262"><ele>515.0</ele><time>2026-04-30T14:21:29.998Z</time></trkpt><trkpt lat="44.65427339801627" lon="9.31403299571923"><ele>514.5</ele><time>2026-04-30T14:21:30.998Z</time></trkpt><trkpt lat="44.654186534710554" lon="9.31388624098405"><ele>514.0</ele><time>2026-04-30T14:21:31.998Z</time></trkpt><trkpt lat="44.65410475990094" lon="9.313768226353888"><ele>515.2</ele><time>2026-04-30T14:21:32.998Z</time></trkpt><trkpt lat="44.65403005301176" lon="9.313656511504373"><ele>516.4</ele><time>2026-04-30T14:21:33.998Z</time></trkpt><trkpt lat="44.65396905887011" lon="9.313536555993116"><ele>517.6</ele><time>2026-04-30T14:21:34.998Z</time></trkpt><trkpt lat="44.65394140202662" lon="9.313445072844507"><ele>518.8</ele><time>2026-04-30T14:21:35.998Z</time></trkpt><trkpt lat="44.65400697068423" lon="9.313277691647581"><ele>520.0</ele><time>2026-04-30T14:21:37.998Z</time></trkpt><trkpt lat="44.65410501923546" lon="9.313164088006769"><ele>518.3333333333334</ele><time>2026-04-30T14:21:38.998Z</time></trkpt><trkpt lat="44.65423769725467" lon="9.313018423333183"><ele>516.6666666666666</ele><time>2026-04-30T14:21:39.998Z</time></trkpt><trkpt lat="44.65433526590507" lon="9.31282443926645"><ele>515.0</ele><time>2026-04-30T14:21:40.998Z</time></trkpt><trkpt lat="44.65440205999637" lon="9.312641969160792"><ele>513.25</ele><time>2026-04-30T14:21:41.998Z</time></trkpt><trkpt lat="44.65449584866526" lon="9.312473915459531"><ele>511.5</ele><time>2026-04-30T14:21:42.998Z</time></trkpt><trkpt lat="44.65460011830469" lon="9.312345654665219"><ele>509.75</ele><time>2026-04-30T14:21:43.998Z</time></trkpt><trkpt lat="44.654702922615016" lon="9.312258392779036"><ele>508.0</ele><time>2026-04-30T14:21:44.998Z</time></trkpt><trkpt lat="44.654802916433674" lon="9.312204157695156"><ele>512.5</ele><time>2026-04-30T14:21:45.998Z</time></trkpt><trkpt lat="44.654911953866296" lon="9.312261148868265"><ele>517.0</ele><time>2026-04-30T14:21:46.998Z</time></trkpt><trkpt lat="44.6550326235219" lon="9.31234326830717"><ele>521.5</ele><time>2026-04-30T14:21:47.998Z</time></trkpt><trkpt lat="44.655151386439755" lon="9.312441176933582"><ele>526.0</ele><time>2026-04-30T14:21:48.998Z</time></trkpt><trkpt lat="44.655270664891965" lon="9.312517712537105"><ele>526.5</ele><time>2026-04-30T14:21:49.998Z</time></trkpt><trkpt lat="44.65540494947979" lon="9.312565166466076"><ele>527.0</ele><time>2026-04-30T14:21:50.998Z</time></trkpt><trkpt lat="44.65552384459812" lon="9.31261907151739"><ele>527.5</ele><time>2026-04-30T14:21:51.998Z</time></trkpt><trkpt lat="44.65564340459322" lon="9.312631061417527"><ele>528.0</ele><time>2026-04-30T14:21:52.998Z</time></trkpt><trkpt lat="44.65576759464079" lon="9.312617832090682"><ele>528.0</ele><time>2026-04-30T14:21:53.998Z</time></trkpt><trkpt lat="44.655876362990156" lon="9.312492317840796"><ele>528.0</ele><time>2026-04-30T14:21:54.998Z</time></trkpt><trkpt lat="44.655978970058044" lon="9.312390920551705"><ele>528.0</ele><time>2026-04-30T14:21:55.998Z</time></trkpt><trkpt lat="44.65607637365596" lon="9.312295009289853"><ele>528.0</ele><time>2026-04-30T14:21:56.998Z</time></trkpt><trkpt lat="44.656180625613324" lon="9.312253327734313"><ele>528.0</ele><time>2026-04-30T14:21:57.998Z</time></trkpt><trkpt lat="44.65628676782002" lon="9.312254013462715"><ele>528.0</ele><time>2026-04-30T14:21:58.998Z</time></trkpt><trkpt lat="44.656360338433636" lon="9.312325083611137"><ele>528.0</ele><time>2026-04-30T14:21:59.998Z</time></trkpt><trkpt lat="44.65644171745563" lon="9.312427915140047"><ele>528.0</ele><time>2026-04-30T14:22:00.998Z</time></trkpt><trkpt lat="44.65652728907569" lon="9.312545597736753"><ele>528.0</ele><time>2026-04-30T14:22:01.998Z</time></trkpt><trkpt lat="44.656627562985236" lon="9.312681926471315"><ele>528.0</ele><time>2026-04-30T14:22:02.998Z</time></trkpt><trkpt lat="44.65672659642895" lon="9.31281372158231"><ele>528.0</ele><time>2026-04-30T14:22:03.998Z</time></trkpt><trkpt lat="44.65684085669238" lon="9.312944683731923"><ele>528.0</ele><time>2026-04-30T14:22:04.998Z</time></trkpt><trkpt lat="44.656973188098576" lon="9.31296809468639"><ele>528.0</ele><time>2026-04-30T14:22:05.998Z</time></trkpt><trkpt lat="44.657106884650766" lon="9.31292273402138"><ele>527.25</ele><time>2026-04-30T14:22:06.998Z</time></trkpt><trkpt lat="44.65722973999805" lon="9.31285632667413"><ele>526.5</ele><time>2026-04-30T14:22:07.998Z</time></trkpt><trkpt lat="44.65736550007125" lon="9.312775602785205"><ele>525.75</ele><time>2026-04-30T14:22:08.997Z</time></trkpt><trkpt lat="44.65750253628256" lon="9.312707194832077"><ele>525.0</ele><time>2026-04-30T14:22:09.997Z</time></trkpt><trkpt lat="44.65765973002164" lon="9.312656033477696"><ele>529.0</ele><time>2026-04-30T14:22:10.997Z</time></trkpt><trkpt lat="44.657828278232046" lon="9.312581629369111"><ele>533.0</ele><time>2026-04-30T14:22:11.997Z</time></trkpt><trkpt lat="44.657986084210336" lon="9.312448974951932"><ele>537.0</ele><time>2026-04-30T14:22:12.997Z</time></trkpt><trkpt lat="44.65816112398759" lon="9.312329601897703"><ele>536.0</ele><time>2026-04-30T14:22:13.997Z</time></trkpt><trkpt lat="44.658344101789396" lon="9.312204871127912"><ele>535.0</ele><time>2026-04-30T14:22:14.997Z</time></trkpt><trkpt lat="44.65853087546784" lon="9.31206949605179"><ele>534.0</ele><time>2026-04-30T14:22:15.997Z</time></trkpt><trkpt lat="44.65871497232667" lon="9.311963817114522"><ele>534.0</ele><time>2026-04-30T14:22:16.997Z</time></trkpt><trkpt lat="44.65889110126232" lon="9.311843162929208"><ele>534.0</ele><time>2026-04-30T14:22:17.997Z</time></trkpt><trkpt lat="44.659066667377914" lon="9.311729992958181"><ele>534.0</ele><time>2026-04-30T14:22:18.997Z</time></trkpt><trkpt lat="44.65924996888286" lon="9.311648282867466"><ele>534.0</ele><time>2026-04-30T14:22:19.997Z</time></trkpt><trkpt lat="44.65941999001678" lon="9.311553135015956"><ele>534.0</ele><time>2026-04-30T14:22:20.997Z</time></trkpt><trkpt lat="44.659556655973596" lon="9.311420249935864"><ele>534.0</ele><time>2026-04-30T14:22:21.997Z</time></trkpt><trkpt lat="44.6596939292573" lon="9.3112737714644"><ele>534.0</ele><time>2026-04-30T14:22:22.997Z</time></trkpt><trkpt lat="44.65982424817803" lon="9.311096583797944"><ele>534.0</ele><time>2026-04-30T14:22:23.997Z</time></trkpt><trkpt lat="44.65998200042393" lon="9.310940644098674"><ele>534.0</ele><time>2026-04-30T14:22:24.997Z</time></trkpt><trkpt lat="44.66012398784624" lon="9.310808505309613"><ele>534.0</ele><time>2026-04-30T14:22:25.997Z</time></trkpt><trkpt lat="44.66026127547279" lon="9.310747264853944"><ele>534.0</ele><time>2026-04-30T14:22:26.997Z</time></trkpt><trkpt lat="44.660374961920766" lon="9.310685240223197"><ele>534.0</ele><time>2026-04-30T14:22:27.997Z</time></trkpt><trkpt lat="44.660471294610865" lon="9.310571986279367"><ele>534.0</ele><time>2026-04-30T14:22:28.997Z</time></trkpt><trkpt lat="44.66052244496687" lon="9.310422332148782"><ele>534.0</ele><time>2026-04-30T14:22:29.997Z</time></trkpt><trkpt lat="44.66056174437446" lon="9.310273714426026"><ele>534.0</ele><time>2026-04-30T14:22:30.997Z</time></trkpt><trkpt lat="44.66060431669212" lon="9.310165319164941"><ele>534.0</ele><time>2026-04-30T14:22:31.997Z</time></trkpt><trkpt lat="44.660652259139574" lon="9.310033106621763"><ele>534.0</ele><time>2026-04-30T14:22:32.997Z</time></trkpt><trkpt lat="44.66071302601847" lon="9.30997781907187"><ele>534.0</ele><time>2026-04-30T14:22:33.997Z</time></trkpt><trkpt lat="44.66080508683426" lon="9.309965961318317"><ele>534.0</ele><time>2026-04-30T14:22:34.997Z</time></trkpt><trkpt lat="44.66092381076666" lon="9.310072307587545"><ele>534.0</ele><time>2026-04-30T14:22:35.997Z</time></trkpt><trkpt lat="44.66100529082131" lon="9.310227731086025"><ele>534.0</ele><time>2026-04-30T14:22:36.997Z</time></trkpt><trkpt lat="44.661047049535455" lon="9.310388115225546"><ele>534.0</ele><time>2026-04-30T14:22:37.997Z</time></trkpt><trkpt lat="44.66108421866708" lon="9.310554913659281"><ele>533.75</ele><time>2026-04-30T14:22:38.997Z</time></trkpt><trkpt lat="44.661096380228926" lon="9.310754216065286"><ele>533.5</ele><time>2026-04-30T14:22:39.997Z</time></trkpt><trkpt lat="44.661117013772895" lon="9.31094284970704"><ele>533.25</ele><time>2026-04-30T14:22:40.997Z</time></trkpt><trkpt lat="44.66113521018482" lon="9.311121272335685"><ele>533.0</ele><time>2026-04-30T14:22:41.997Z</time></trkpt><trkpt lat="44.66116838352415" lon="9.311324444976774"><ele>534.3333333333333</ele><time>2026-04-30T14:22:42.997Z</time></trkpt><trkpt lat="44.661181302317296" lon="9.31154719624149"><ele>535.6666666666666</ele><time>2026-04-30T14:22:43.997Z</time></trkpt><trkpt lat="44.6611926178742" lon="9.311798969744583"><ele>537.0</ele><time>2026-04-30T14:22:44.997Z</time></trkpt><trkpt lat="44.661270966356476" lon="9.312021356955455"><ele>540.0</ele><time>2026-04-30T14:22:45.997Z</time></trkpt><trkpt lat="44.6613507536253" lon="9.312244540687168"><ele>543.0</ele><time>2026-04-30T14:22:46.997Z</time></trkpt><trkpt lat="44.66142971411288" lon="9.312469835160954"><ele>546.0</ele><time>2026-04-30T14:22:47.997Z</time></trkpt><trkpt lat="44.661509216122695" lon="9.312697575452315"><ele>546.0</ele><time>2026-04-30T14:22:48.997Z</time></trkpt><trkpt lat="44.661576087709896" lon="9.312889248664822"><ele>546.0</ele><time>2026-04-30T14:22:49.997Z</time></trkpt><trkpt lat="44.66164183526" lon="9.313079201886204"><ele>546.0</ele><time>2026-04-30T14:22:50.997Z</time></trkpt><trkpt lat="44.66170073804573" lon="9.313257396364973"><ele>546.0</ele><time>2026-04-30T14:22:51.997Z</time></trkpt><trkpt lat="44.66175543150855" lon="9.313392588760893"><ele>549.75</ele><time>2026-04-30T14:22:52.997Z</time></trkpt><trkpt lat="44.661808257916775" lon="9.313479061694064"><ele>553.5</ele><time>2026-04-30T14:22:53.997Z</time></trkpt><trkpt lat="44.661914137287866" lon="9.313563933287435"><ele>557.25</ele><time>2026-04-30T14:22:54.997Z</time></trkpt><trkpt lat="44.66202897937191" lon="9.313534519907634"><ele>561.0</ele><time>2026-04-30T14:22:55.997Z</time></trkpt><trkpt lat="44.66216093165037" lon="9.313429470968185"><ele>561.0</ele><time>2026-04-30T14:22:56.997Z</time></trkpt><trkpt lat="44.662314983364254" lon="9.313326136882134"><ele>561.0</ele><time>2026-04-30T14:22:57.997Z</time></trkpt><trkpt lat="44.66243275759667" lon="9.313191411883187"><ele>561.0</ele><time>2026-04-30T14:22:58.997Z</time></trkpt><trkpt lat="44.662536919342166" lon="9.313032114274222"><ele>563.25</ele><time>2026-04-30T14:22:59.997Z</time></trkpt><trkpt lat="44.66257811077346" lon="9.312848952939456"><ele>565.5</ele><time>2026-04-30T14:23:00.997Z</time></trkpt><trkpt lat="44.662620358815836" lon="9.312683257097483"><ele>567.75</ele><time>2026-04-30T14:23:01.997Z</time></trkpt><trkpt lat="44.66271861099364" lon="9.312570546941851"><ele>570.0</ele><time>2026-04-30T14:23:02.997Z</time></trkpt><trkpt lat="44.66283428850208" lon="9.312457201539997"><ele>570.0</ele><time>2026-04-30T14:23:03.997Z</time></trkpt><trkpt lat="44.6629695614053" lon="9.312324069194288"><ele>570.0</ele><time>2026-04-30T14:23:04.997Z</time></trkpt><trkpt lat="44.66311915686561" lon="9.312182363265217"><ele>570.0</ele><time>2026-04-30T14:23:05.997Z</time></trkpt><trkpt lat="44.66329685100472" lon="9.312060986126111"><ele>570.0</ele><time>2026-04-30T14:23:06.997Z</time></trkpt><trkpt lat="44.663500967258685" lon="9.311933491748286"><ele>570.0</ele><time>2026-04-30T14:23:07.997Z</time></trkpt><trkpt lat="44.663670076649716" lon="9.311811213684484"><ele>570.0</ele><time>2026-04-30T14:23:08.997Z</time></trkpt><trkpt lat="44.66379982745691" lon="9.311658947446096"><ele>570.0</ele><time>2026-04-30T14:23:09.997Z</time></trkpt><trkpt lat="44.66392287349093" lon="9.311533212883562"><ele>570.0</ele><time>2026-04-30T14:23:10.997Z</time></trkpt><trkpt lat="44.66401554094113" lon="9.311397432294429"><ele>570.0</ele><time>2026-04-30T14:23:11.997Z</time></trkpt><trkpt lat="44.66414311490746" lon="9.31133635408501"><ele>570.0</ele><time>2026-04-30T14:23:12.997Z</time></trkpt><trkpt lat="44.66429012856372" lon="9.311289353835702"><ele>564.25</ele><time>2026-04-30T14:23:13.997Z</time></trkpt><trkpt lat="44.6644395868687" lon="9.311247863585514"><ele>558.5</ele><time>2026-04-30T14:23:14.997Z</time></trkpt><trkpt lat="44.66457488101035" lon="9.311218722101493"><ele>552.75</ele><time>2026-04-30T14:23:15.997Z</time></trkpt><trkpt lat="44.66469543911638" lon="9.311208017745683"><ele>547.0</ele><time>2026-04-30T14:23:16.997Z</time></trkpt><trkpt lat="44.66482518342909" lon="9.311226736388347"><ele>547.0</ele><time>2026-04-30T14:23:17.997Z</time></trkpt><trkpt lat="44.66496511129145" lon="9.311287956838324"><ele>547.0</ele><time>2026-04-30T14:23:18.997Z</time></trkpt><trkpt lat="44.665111934740594" lon="9.311420811785133"><ele>547.0</ele><time>2026-04-30T14:23:19.997Z</time></trkpt><trkpt lat="44.66522536921843" lon="9.31158153862811"><ele>545.0</ele><time>2026-04-30T14:23:20.997Z</time></trkpt><trkpt lat="44.66533642612614" lon="9.31173878125638"><ele>543.0</ele><time>2026-04-30T14:23:21.997Z</time></trkpt><trkpt lat="44.6654409275112" lon="9.311910573395833"><ele>541.0</ele><time>2026-04-30T14:23:22.997Z</time></trkpt><trkpt lat="44.66548679004924" lon="9.312076704628598"><ele>539.0</ele><time>2026-04-30T14:23:23.997Z</time></trkpt><trkpt lat="44.66554200151639" lon="9.312263965614374"><ele>543.75</ele><time>2026-04-30T14:23:24.997Z</time></trkpt><trkpt lat="44.665621492652505" lon="9.312404126920065"><ele>548.5</ele><time>2026-04-30T14:23:25.997Z</time></trkpt><trkpt lat="44.665715565334345" lon="9.312510221558693"><ele>553.25</ele><time>2026-04-30T14:23:26.997Z</time></trkpt><trkpt lat="44.66584059976528" lon="9.312573047227866"><ele>558.0</ele><time>2026-04-30T14:23:27.997Z</time></trkpt><trkpt lat="44.665949801761194" lon="9.312646182069264"><ele>558.0</ele><time>2026-04-30T14:23:28.997Z</time></trkpt><trkpt lat="44.666042406624186" lon="9.312738358354677"><ele>558.0</ele><time>2026-04-30T14:23:29.997Z</time></trkpt><trkpt lat="44.66612574504658" lon="9.312872305025431"><ele>558.0</ele><time>2026-04-30T14:23:30.996Z</time></trkpt><trkpt lat="44.666185194727156" lon="9.313020027033657"><ele>558.0</ele><time>2026-04-30T14:23:31.996Z</time></trkpt><trkpt lat="44.666262735690474" lon="9.313097191916416"><ele>561.25</ele><time>2026-04-30T14:23:32.996Z</time></trkpt><trkpt lat="44.666354038902256" lon="9.313124874453708"><ele>564.5</ele><time>2026-04-30T14:23:33.996Z</time></trkpt><trkpt lat="44.66646080338496" lon="9.313122043548923"><ele>567.75</ele><time>2026-04-30T14:23:34.996Z</time></trkpt><trkpt lat="44.66660071058821" lon="9.313053953765452"><ele>571.0</ele><time>2026-04-30T14:23:35.996Z</time></trkpt><trkpt lat="44.66676513169487" lon="9.312981314294694"><ele>566.6666666666667</ele><time>2026-04-30T14:23:36.996Z</time></trkpt><trkpt lat="44.66692949793565" lon="9.312929644596558"><ele>562.3333333333334</ele><time>2026-04-30T14:23:37.996Z</time></trkpt><trkpt lat="44.66708378363244" lon="9.312881232172652"><ele>558.0</ele><time>2026-04-30T14:23:38.996Z</time></trkpt><trkpt lat="44.66723854222238" lon="9.312814858304558"><ele>558.0</ele><time>2026-04-30T14:23:39.996Z</time></trkpt><trkpt lat="44.667375295423334" lon="9.31267197063051"><ele>558.0</ele><time>2026-04-30T14:23:40.996Z</time></trkpt><trkpt lat="44.667495179368274" lon="9.31248781958499"><ele>558.0</ele><time>2026-04-30T14:23:41.996Z</time></trkpt><trkpt lat="44.66755928570025" lon="9.312255637602687"><ele>554.5</ele><time>2026-04-30T14:23:42.996Z</time></trkpt><trkpt lat="44.66762780536078" lon="9.312053460855443"><ele>551.0</ele><time>2026-04-30T14:23:43.996Z</time></trkpt><trkpt lat="44.667700191715355" lon="9.311919277949656"><ele>547.5</ele><time>2026-04-30T14:23:44.996Z</time></trkpt><trkpt lat="44.66776895926692" lon="9.311772103218388"><ele>544.0</ele><time>2026-04-30T14:23:46.996Z</time></trkpt><trkpt lat="44.66786723964767" lon="9.311757719771771"><ele>544.0</ele><time>2026-04-30T14:23:47.996Z</time></trkpt><trkpt lat="44.66797468249408" lon="9.311826270343095"><ele>544.0</ele><time>2026-04-30T14:23:48.996Z</time></trkpt><trkpt lat="44.66808241474056" lon="9.311957349124203"><ele>544.0</ele><time>2026-04-30T14:23:49.996Z</time></trkpt><trkpt lat="44.66820019146928" lon="9.312046954113363"><ele>544.0</ele><time>2026-04-30T14:23:50.996Z</time></trkpt><trkpt lat="44.66831770479231" lon="9.31211534227822"><ele>544.0</ele><time>2026-04-30T14:23:51.996Z</time></trkpt><trkpt lat="44.66846408790818" lon="9.312129044576665"><ele>544.0</ele><time>2026-04-30T14:23:52.996Z</time></trkpt><trkpt lat="44.6686162756138" lon="9.312102172943373"><ele>544.0</ele><time>2026-04-30T14:23:53.996Z</time></trkpt><trkpt lat="44.66875064726175" lon="9.312071037419807"><ele>544.0</ele><time>2026-04-30T14:23:54.996Z</time></trkpt><trkpt lat="44.66884157011234" lon="9.311944772993497"><ele>542.3333333333334</ele><time>2026-04-30T14:23:55.996Z</time></trkpt><trkpt lat="44.66890333440886" lon="9.311763076896554"><ele>540.6666666666666</ele><time>2026-04-30T14:23:56.996Z</time></trkpt><trkpt lat="44.668937698926456" lon="9.311550468314984"><ele>539.0</ele><time>2026-04-30T14:23:57.996Z</time></trkpt><trkpt lat="44.66897319457995" lon="9.31132226112452"><ele>539.0</ele><time>2026-04-30T14:23:58.996Z</time></trkpt><trkpt lat="44.66901153339994" lon="9.3111399810278"><ele>539.0</ele><time>2026-04-30T14:23:59.996Z</time></trkpt><trkpt lat="44.66907241115994" lon="9.311010807708225"><ele>539.0</ele><time>2026-04-30T14:24:00.996Z</time></trkpt><trkpt lat="44.669149937390024" lon="9.310929521559027"><ele>539.0</ele><time>2026-04-30T14:24:01.996Z</time></trkpt><trkpt lat="44.66924626150277" lon="9.31088614149381"><ele>539.0</ele><time>2026-04-30T14:24:02.996Z</time></trkpt><trkpt lat="44.66936519799954" lon="9.310864060111792"><ele>548.75</ele><time>2026-04-30T14:24:03.996Z</time></trkpt><trkpt lat="44.669492239713264" lon="9.310843411413309"><ele>558.5</ele><time>2026-04-30T14:24:04.996Z</time></trkpt><trkpt lat="44.66961448176138" lon="9.310806928095325"><ele>568.25</ele><time>2026-04-30T14:24:05.996Z</time></trkpt><trkpt lat="44.66969792327844" lon="9.31071655153228"><ele>578.0</ele><time>2026-04-30T14:24:06.996Z</time></trkpt><trkpt lat="44.66975218035579" lon="9.310584183849379"><ele>572.0</ele><time>2026-04-30T14:24:07.996Z</time></trkpt><trkpt lat="44.66973915425596" lon="9.310400423169243"><ele>566.0</ele><time>2026-04-30T14:24:08.996Z</time></trkpt><trkpt lat="44.66969212719544" lon="9.310185611749944"><ele>560.0</ele><time>2026-04-30T14:24:09.997Z</time></trkpt><trkpt lat="44.669670525169636" lon="9.309989593707423"><ele>554.0</ele><time>2026-04-30T14:24:10.997Z</time></trkpt><trkpt lat="44.669680418163416" lon="9.309833164703962"><ele>548.2</ele><time>2026-04-30T14:24:11.997Z</time></trkpt><trkpt lat="44.66971034011257" lon="9.30972402225067"><ele>542.4</ele><time>2026-04-30T14:24:12.997Z</time></trkpt><trkpt lat="44.66976707286178" lon="9.309609168185446"><ele>536.6</ele><time>2026-04-30T14:24:13.997Z</time></trkpt><trkpt lat="44.66983688690084" lon="9.309514890280242"><ele>530.8</ele><time>2026-04-30T14:24:14.997Z</time></trkpt><trkpt lat="44.66993983577648" lon="9.309459927146055"><ele>525.0</ele><time>2026-04-30T14:24:15.997Z</time></trkpt><trkpt lat="44.67005203191608" lon="9.309447504501188"><ele>525.0</ele><time>2026-04-30T14:24:16.997Z</time></trkpt><trkpt lat="44.67017655253764" lon="9.30950866622995"><ele>525.0</ele><time>2026-04-30T14:24:17.997Z</time></trkpt><trkpt lat="44.670302456792875" lon="9.309611876130083"><ele>525.0</ele><time>2026-04-30T14:24:18.997Z</time></trkpt><trkpt lat="44.67044921064644" lon="9.309653754646208"><ele>525.0</ele><time>2026-04-30T14:24:19.997Z</time></trkpt><trkpt lat="44.67059331081538" lon="9.309655902351475"><ele>526.75</ele><time>2026-04-30T14:24:20.997Z</time></trkpt><trkpt lat="44.6707244628751" lon="9.309663990322987"><ele>528.5</ele><time>2026-04-30T14:24:21.997Z</time></trkpt><trkpt lat="44.6708317937757" lon="9.309582849161668"><ele>530.25</ele><time>2026-04-30T14:24:22.997Z</time></trkpt><trkpt lat="44.67094568676764" lon="9.309484883224279"><ele>532.0</ele><time>2026-04-30T14:24:23.997Z</time></trkpt><trkpt lat="44.67103699327023" lon="9.309409500830661"><ele>531.4</ele><time>2026-04-30T14:24:24.997Z</time></trkpt><trkpt lat="44.67112339398338" lon="9.309419316533567"><ele>530.8000000000001</ele><time>2026-04-30T14:24:25.997Z</time></trkpt><trkpt lat="44.67120214112101" lon="9.309469443238413"><ele>530.2</ele><time>2026-04-30T14:24:26.997Z</time></trkpt><trkpt lat="44.671312432257096" lon="9.309560399053021"><ele>529.6</ele><time>2026-04-30T14:24:27.997Z</time></trkpt><trkpt lat="44.67141873230658" lon="9.309644372678429"><ele>529.0</ele><time>2026-04-30T14:24:28.997Z</time></trkpt><trkpt lat="44.67152810846213" lon="9.309723985940723"><ele>529.0</ele><time>2026-04-30T14:24:29.997Z</time></trkpt><trkpt lat="44.671655384511716" lon="9.30973884663225"><ele>529.0</ele><time>2026-04-30T14:24:30.997Z</time></trkpt><trkpt lat="44.67180026872469" lon="9.30968637211787"><ele>529.0</ele><time>2026-04-30T14:24:31.997Z</time></trkpt><trkpt lat="44.67196002637417" lon="9.30967993695599"><ele>529.0</ele><time>2026-04-30T14:24:32.997Z</time></trkpt><trkpt lat="44.6721221705146" lon="9.30969627194079"><ele>533.0</ele><time>2026-04-30T14:24:33.997Z</time></trkpt><trkpt lat="44.67226262081439" lon="9.309689621082667"><ele>537.0</ele><time>2026-04-30T14:24:34.997Z</time></trkpt><trkpt lat="44.672405039102465" lon="9.309565084891812"><ele>541.0</ele><time>2026-04-30T14:24:35.997Z</time></trkpt><trkpt lat="44.672526057050206" lon="9.309424898639024"><ele>541.0</ele><time>2026-04-30T14:24:36.997Z</time></trkpt><trkpt lat="44.672645160287125" lon="9.309325974597837"><ele>541.0</ele><time>2026-04-30T14:24:37.997Z</time></trkpt><trkpt lat="44.672759075276225" lon="9.309241181627117"><ele>541.0</ele><time>2026-04-30T14:24:38.997Z</time></trkpt><trkpt lat="44.672855883149055" lon="9.309132550832057"><ele>541.0</ele><time>2026-04-30T14:24:39.997Z</time></trkpt><trkpt lat="44.67292582479492" lon="9.308972875771294"><ele>538.5</ele><time>2026-04-30T14:24:40.997Z</time></trkpt><trkpt lat="44.6730027477461" lon="9.308826177822743"><ele>536.0</ele><time>2026-04-30T14:24:41.997Z</time></trkpt><trkpt lat="44.67307835888173" lon="9.308683690735556"><ele>533.5</ele><time>2026-04-30T14:24:42.997Z</time></trkpt><trkpt lat="44.67314950372855" lon="9.308569609777932"><ele>531.0</ele><time>2026-04-30T14:24:43.997Z</time></trkpt><trkpt lat="44.67322225028253" lon="9.308477403080138"><ele>531.0</ele><time>2026-04-30T14:24:44.997Z</time></trkpt><trkpt lat="44.67332456662889" lon="9.308468490667975"><ele>531.0</ele><time>2026-04-30T14:24:45.997Z</time></trkpt><trkpt lat="44.673440655746596" lon="9.308509545820918"><ele>531.0</ele><time>2026-04-30T14:24:46.997Z</time></trkpt><trkpt lat="44.67355046850544" lon="9.30859068738678"><ele>531.0</ele><time>2026-04-30T14:24:47.997Z</time></trkpt><trkpt lat="44.67366936073408" lon="9.30867810483665"><ele>530.0</ele><time>2026-04-30T14:24:48.997Z</time></trkpt><trkpt lat="44.67376633255087" lon="9.308832229307152"><ele>529.0</ele><time>2026-04-30T14:24:49.997Z</time></trkpt><trkpt lat="44.67386566097187" lon="9.308980989308969"><ele>528.0</ele><time>2026-04-30T14:24:50.997Z</time></trkpt><trkpt lat="44.67398011626433" lon="9.309077388711062"><ele>527.0</ele><time>2026-04-30T14:24:51.997Z</time></trkpt><trkpt lat="44.67410845735311" lon="9.309100996810887"><ele>532.5</ele><time>2026-04-30T14:24:52.997Z</time></trkpt><trkpt lat="44.674247093970195" lon="9.309053364940793"><ele>538.0</ele><time>2026-04-30T14:24:53.997Z</time></trkpt><trkpt lat="44.67436610449682" lon="9.308977732935547"><ele>543.5</ele><time>2026-04-30T14:24:54.997Z</time></trkpt><trkpt lat="44.674463626551514" lon="9.308985017305755"><ele>549.0</ele><time>2026-04-30T14:24:55.997Z</time></trkpt><trkpt lat="44.674547752704896" lon="9.309007363550155"><ele>549.0</ele><time>2026-04-30T14:24:56.996Z</time></trkpt><trkpt lat="44.67462488248175" lon="9.309131690210066"><ele>549.0</ele><time>2026-04-30T14:24:57.996Z</time></trkpt><trkpt lat="44.67468463096674" lon="9.309249161329005"><ele>549.0</ele><time>2026-04-30T14:24:58.996Z</time></trkpt><trkpt lat="44.6747857022922" lon="9.309317443589247"><ele>549.0</ele><time>2026-04-30T14:24:59.996Z</time></trkpt><trkpt lat="44.67488859694026" lon="9.309348992686699"><ele>549.0</ele><time>2026-04-30T14:25:00.996Z</time></trkpt><trkpt lat="44.6749725960453" lon="9.309323688599237"><ele>549.0</ele><time>2026-04-30T14:25:01.996Z</time></trkpt><trkpt lat="44.675083225986214" lon="9.30920522088538"><ele>549.0</ele><time>2026-04-30T14:25:02.996Z</time></trkpt><trkpt lat="44.675202888298344" lon="9.309109378248674"><ele>549.0</ele><time>2026-04-30T14:25:03.996Z</time></trkpt><trkpt lat="44.675318963116354" lon="9.309013187884807"><ele>549.0</ele><time>2026-04-30T14:25:04.996Z</time></trkpt><trkpt lat="44.67542147590988" lon="9.308927622966566"><ele>551.6</ele><time>2026-04-30T14:25:05.996Z</time></trkpt><trkpt lat="44.67552336540508" lon="9.308833988135348"><ele>554.2</ele><time>2026-04-30T14:25:06.996Z</time></trkpt><trkpt lat="44.67558251132074" lon="9.308737207852428"><ele>556.8000000000001</ele><time>2026-04-30T14:25:07.996Z</time></trkpt><trkpt lat="44.67557819659182" lon="9.308623100687873"><ele>559.4</ele><time>2026-04-30T14:25:08.996Z</time></trkpt><trkpt lat="44.67554379529336" lon="9.308485511201468"><ele>562.0</ele><time>2026-04-30T14:25:09.996Z</time></trkpt><trkpt lat="44.67547617184501" lon="9.308298198524614"><ele>562.0</ele><time>2026-04-30T14:25:10.996Z</time></trkpt><trkpt lat="44.67536447366976" lon="9.308139842399667"><ele>562.0</ele><time>2026-04-30T14:25:11.996Z</time></trkpt><trkpt lat="44.67531188606616" lon="9.307960144422516"><ele>562.0</ele><time>2026-04-30T14:25:12.996Z</time></trkpt><trkpt lat="44.67526814122914" lon="9.3077970532837"><ele>562.0</ele><time>2026-04-30T14:25:13.996Z</time></trkpt><trkpt lat="44.67525300835633" lon="9.307621149252268"><ele>561.6</ele><time>2026-04-30T14:25:14.996Z</time></trkpt><trkpt lat="44.67525288178413" lon="9.30745238966869"><ele>561.2</ele><time>2026-04-30T14:25:15.996Z</time></trkpt><trkpt lat="44.67527347269306" lon="9.307343470519983"><ele>560.8</ele><time>2026-04-30T14:25:16.996Z</time></trkpt><trkpt lat="44.67531324546859" lon="9.307206404523921"><ele>560.4</ele><time>2026-04-30T14:25:17.996Z</time></trkpt><trkpt lat="44.67536763206028" lon="9.307151744802207"><ele>560.0</ele><time>2026-04-30T14:25:18.996Z</time></trkpt><trkpt lat="44.67555772940409" lon="9.307045946050495"><ele>558.0</ele><time>2026-04-30T14:25:20.996Z</time></trkpt><trkpt lat="44.67565774454907" lon="9.306813123919792"><ele>556.0</ele><time>2026-04-30T14:25:21.996Z</time></trkpt><trkpt lat="44.67564745751551" lon="9.306666095183258"><ele>554.0</ele><time>2026-04-30T14:25:22.996Z</time></trkpt><trkpt lat="44.67563504552207" lon="9.306533427770113"><ele>552.0</ele><time>2026-04-30T14:25:23.996Z</time></trkpt><trkpt lat="44.67563121010749" lon="9.30640417555015"><ele>549.2</ele><time>2026-04-30T14:25:24.996Z</time></trkpt><trkpt lat="44.675639876915106" lon="9.306279334356862"><ele>546.4000000000001</ele><time>2026-04-30T14:25:25.996Z</time></trkpt><trkpt lat="44.67567276825116" lon="9.306155780542078"><ele>543.5999999999999</ele><time>2026-04-30T14:25:26.996Z</time></trkpt><trkpt lat="44.67572169017247" lon="9.305993645198177"><ele>540.8</ele><time>2026-04-30T14:25:27.996Z</time></trkpt><trkpt lat="44.675796473024704" lon="9.305850676604576"><ele>538.0</ele><time>2026-04-30T14:25:28.996Z</time></trkpt><trkpt lat="44.67588025080701" lon="9.305709976639918"><ele>538.0</ele><time>2026-04-30T14:25:29.996Z</time></trkpt><trkpt lat="44.67598347290083" lon="9.305579010093838"><ele>538.0</ele><time>2026-04-30T14:25:30.996Z</time></trkpt><trkpt lat="44.6761111462996" lon="9.305504755003332"><ele>538.0</ele><time>2026-04-30T14:25:31.996Z</time></trkpt><trkpt lat="44.67623931919575" lon="9.305418192599038"><ele>538.0</ele><time>2026-04-30T14:25:32.996Z</time></trkpt><trkpt lat="44.67639443092531" lon="9.305400400200579"><ele>535.3333333333334</ele><time>2026-04-30T14:25:33.996Z</time></trkpt><trkpt lat="44.676567408761926" lon="9.305381719723224"><ele>532.6666666666666</ele><time>2026-04-30T14:25:34.996Z</time></trkpt><trkpt lat="44.676753407797996" lon="9.305339353693498"><ele>530.0</ele><time>2026-04-30T14:25:35.996Z</time></trkpt><trkpt lat="44.67692909441283" lon="9.30529305675569"><ele>530.3333333333333</ele><time>2026-04-30T14:25:36.996Z</time></trkpt><trkpt lat="44.67710568388656" lon="9.305273351006967"><ele>530.6666666666666</ele><time>2026-04-30T14:25:37.996Z</time></trkpt><trkpt lat="44.67727684894499" lon="9.30523566584289"><ele>531.0</ele><time>2026-04-30T14:25:38.996Z</time></trkpt><trkpt lat="44.67743571975061" lon="9.305197725646547"><ele>531.0</ele><time>2026-04-30T14:25:39.996Z</time></trkpt><trkpt lat="44.67758086732109" lon="9.30515919441746"><ele>531.0</ele><time>2026-04-30T14:25:40.996Z</time></trkpt><trkpt lat="44.6776883363104" lon="9.305126022773537"><ele>531.0</ele><time>2026-04-30T14:25:41.996Z</time></trkpt><trkpt lat="44.67777689427754" lon="9.305028048061041"><ele>531.0</ele><time>2026-04-30T14:25:42.996Z</time></trkpt><trkpt lat="44.677842643692934" lon="9.304879407842812"><ele>528.25</ele><time>2026-04-30T14:25:43.996Z</time></trkpt><trkpt lat="44.67795155327154" lon="9.304800847199534"><ele>525.5</ele><time>2026-04-30T14:25:44.996Z</time></trkpt><trkpt lat="44.678062407795984" lon="9.304777724366941"><ele>522.75</ele><time>2026-04-30T14:25:45.996Z</time></trkpt><trkpt lat="44.6782051586515" lon="9.30471420858652"><ele>520.0</ele><time>2026-04-30T14:25:46.996Z</time></trkpt><trkpt lat="44.678297548218076" lon="9.304582910672753"><ele>520.0</ele><time>2026-04-30T14:25:47.996Z</time></trkpt><trkpt lat="44.67834704242903" lon="9.304428531811862"><ele>520.0</ele><time>2026-04-30T14:25:48.996Z</time></trkpt><trkpt lat="44.67841439882394" lon="9.304289336862887"><ele>520.0</ele><time>2026-04-30T14:25:50.001Z</time></trkpt><trkpt lat="44.67846968506632" lon="9.304130377439543"><ele>520.0</ele><time>2026-04-30T14:25:51.001Z</time></trkpt><trkpt lat="44.67858661530943" lon="9.304041100097713"><ele>517.0</ele><time>2026-04-30T14:25:52.001Z</time></trkpt><trkpt lat="44.6787020312072" lon="9.303967486205208"><ele>514.0</ele><time>2026-04-30T14:25:53.001Z</time></trkpt><trkpt lat="44.6788286834377" lon="9.303905294813411"><ele>511.0</ele><time>2026-04-30T14:25:54.001Z</time></trkpt><trkpt lat="44.678965014700985" lon="9.30385964028582"><ele>508.0</ele><time>2026-04-30T14:25:55.001Z</time></trkpt><trkpt lat="44.67909553278187" lon="9.30383982027432"><ele>508.0</ele><time>2026-04-30T14:25:56.001Z</time></trkpt><trkpt lat="44.679245540299085" lon="9.303822943307425"><ele>508.0</ele><time>2026-04-30T14:25:57.001Z</time></trkpt><trkpt lat="44.67939478892466" lon="9.303793095726045"><ele>508.0</ele><time>2026-04-30T14:25:58.001Z</time></trkpt><trkpt lat="44.67954130878617" lon="9.303688351483064"><ele>510.5</ele><time>2026-04-30T14:25:59.001Z</time></trkpt><trkpt lat="44.6796790029156" lon="9.303617793884545"><ele>513.0</ele><time>2026-04-30T14:26:00.001Z</time></trkpt><trkpt lat="44.67979672571441" lon="9.303483778877872"><ele>515.5</ele><time>2026-04-30T14:26:01.001Z</time></trkpt><trkpt lat="44.67990364603602" lon="9.303381827593583"><ele>518.0</ele><time>2026-04-30T14:26:02.001Z</time></trkpt><trkpt lat="44.68001962417418" lon="9.303333138947933"><ele>518.0</ele><time>2026-04-30T14:26:03.001Z</time></trkpt><trkpt lat="44.68010286092833" lon="9.30332270776769"><ele>518.0</ele><time>2026-04-30T14:26:04.001Z</time></trkpt><trkpt lat="44.68016675310357" lon="9.303347092074555"><ele>518.0</ele><time>2026-04-30T14:26:05.001Z</time></trkpt><trkpt lat="44.68023752002967" lon="9.30340692396547"><ele>518.0</ele><time>2026-04-30T14:26:06.001Z</time></trkpt><trkpt lat="44.68034295974103" lon="9.303502434905466"><ele>518.0</ele><time>2026-04-30T14:26:07.001Z</time></trkpt><trkpt lat="44.68044291107451" lon="9.303666872116427"><ele>519.6666666666666</ele><time>2026-04-30T14:26:08.001Z</time></trkpt><trkpt lat="44.680579265549866" lon="9.303856418192343"><ele>521.3333333333334</ele><time>2026-04-30T14:26:09.001Z</time></trkpt><trkpt lat="44.680717479552555" lon="9.304022473040101"><ele>523.0</ele><time>2026-04-30T14:26:10.001Z</time></trkpt><trkpt lat="44.68081971052119" lon="9.304159170646606"><ele>523.0</ele><time>2026-04-30T14:26:11.001Z</time></trkpt><trkpt lat="44.68091945208417" lon="9.304232756203707"><ele>523.0</ele><time>2026-04-30T14:26:12.001Z</time></trkpt><trkpt lat="44.681045787767815" lon="9.304270334390715"><ele>523.0</ele><time>2026-04-30T14:26:13.001Z</time></trkpt><trkpt lat="44.681176490275035" lon="9.304313924064923"><ele>523.0</ele><time>2026-04-30T14:26:14Z</time></trkpt><trkpt lat="44.68133266837986" lon="9.304232669412508"><ele>517.3333333333334</ele><time>2026-04-30T14:26:15Z</time></trkpt><trkpt lat="44.6815012171109" lon="9.304203240348663"><ele>511.66666666666663</ele><time>2026-04-30T14:26:16Z</time></trkpt><trkpt lat="44.68166422848917" lon="9.304151873783676"><ele>506.0</ele><time>2026-04-30T14:26:17Z</time></trkpt><trkpt lat="44.68183444759987" lon="9.304114381805332"><ele>504.3333333333333</ele><time>2026-04-30T14:26:18Z</time></trkpt><trkpt lat="44.68201375010439" lon="9.304050620418176"><ele>502.66666666666663</ele><time>2026-04-30T14:26:19Z</time></trkpt><trkpt lat="44.682167410838204" lon="9.304002832103912"><ele>501.0</ele><time>2026-04-30T14:26:20Z</time></trkpt><trkpt lat="44.682309504174086" lon="9.303978177934962"><ele>501.0</ele><time>2026-04-30T14:26:21Z</time></trkpt><trkpt lat="44.68244534341654" lon="9.303963074350806"><ele>501.0</ele><time>2026-04-30T14:26:22Z</time></trkpt><trkpt lat="44.682536824914315" lon="9.303961154899321"><ele>501.0</ele><time>2026-04-30T14:26:23Z</time></trkpt><trkpt lat="44.68266717109614" lon="9.304095511516133"><ele>501.0</ele><time>2026-04-30T14:26:25Z</time></trkpt><trkpt lat="44.68275542463569" lon="9.304298183588763"><ele>497.66666666666663</ele><time>2026-04-30T14:26:26Z</time></trkpt><trkpt lat="44.68282984731781" lon="9.304486843809265"><ele>494.3333333333333</ele><time>2026-04-30T14:26:27Z</time></trkpt><trkpt lat="44.682901830423056" lon="9.304669435445952"><ele>491.0</ele><time>2026-04-30T14:26:28Z</time></trkpt><trkpt lat="44.68298100685752" lon="9.304862266982717"><ele>490.5</ele><time>2026-04-30T14:26:29Z</time></trkpt><trkpt lat="44.68303910487888" lon="9.305007448067833"><ele>490.0</ele><time>2026-04-30T14:26:30Z</time></trkpt><trkpt lat="44.683070922399516" lon="9.30516412973838"><ele>489.5</ele><time>2026-04-30T14:26:31Z</time></trkpt><trkpt lat="44.683069297440255" lon="9.305310089752888"><ele>489.0</ele><time>2026-04-30T14:26:32Z</time></trkpt><trkpt lat="44.68307036075996" lon="9.305479586607266"><ele>491.25</ele><time>2026-04-30T14:26:33Z</time></trkpt><trkpt lat="44.68305959313428" lon="9.305644181529113"><ele>493.5</ele><time>2026-04-30T14:26:34Z</time></trkpt><trkpt lat="44.68310048362611" lon="9.305795616238514"><ele>495.75</ele><time>2026-04-30T14:26:35Z</time></trkpt><trkpt lat="44.68321012687703" lon="9.30588845565657"><ele>498.0</ele><time>2026-04-30T14:26:36Z</time></trkpt><trkpt lat="44.68330655806985" lon="9.305969636160475"><ele>498.0</ele><time>2026-04-30T14:26:37Z</time></trkpt><trkpt lat="44.683422264925056" lon="9.306014357598599"><ele>497.99999999999994</ele><time>2026-04-30T14:26:38Z</time></trkpt><trkpt lat="44.683520705877065" lon="9.306066446672853"><ele>497.99999999999994</ele><time>2026-04-30T14:26:39Z</time></trkpt><trkpt lat="44.683608845921995" lon="9.306157221184192"><ele>498.0</ele><time>2026-04-30T14:26:40Z</time></trkpt><trkpt lat="44.68367085790165" lon="9.306284210524517"><ele>498.0</ele><time>2026-04-30T14:26:41Z</time></trkpt><trkpt lat="44.6836999070541" lon="9.306409562164378"><ele>493.75</ele><time>2026-04-30T14:26:42Z</time></trkpt><trkpt lat="44.68370462230569" lon="9.306569890550238"><ele>489.5</ele><time>2026-04-30T14:26:43Z</time></trkpt><trkpt lat="44.683692456920156" lon="9.306709950851864"><ele>485.25</ele><time>2026-04-30T14:26:44Z</time></trkpt><trkpt lat="44.68367124815742" lon="9.306875201627104"><ele>481.0</ele><time>2026-04-30T14:26:45Z</time></trkpt><trkpt lat="44.68363083260666" lon="9.307095266804637"><ele>481.33333333333337</ele><time>2026-04-30T14:26:46Z</time></trkpt><trkpt lat="44.6836058741961" lon="9.30730813478781"><ele>481.66666666666663</ele><time>2026-04-30T14:26:47Z</time></trkpt><trkpt lat="44.68356714658349" lon="9.307519194664701"><ele>482.0</ele><time>2026-04-30T14:26:48Z</time></trkpt><trkpt lat="44.68350920444356" lon="9.30772690405271"><ele>483.75</ele><time>2026-04-30T14:26:49Z</time></trkpt><trkpt lat="44.68340975699879" lon="9.307882964660267"><ele>485.5</ele><time>2026-04-30T14:26:50Z</time></trkpt><trkpt lat="44.68329928606981" lon="9.30798304006308"><ele>487.25</ele><time>2026-04-30T14:26:51Z</time></trkpt><trkpt lat="44.683221150888464" lon="9.308076055939072"><ele>489.0</ele><time>2026-04-30T14:26:52Z</time></trkpt><trkpt lat="44.68318546769134" lon="9.308208094213024"><ele>489.0</ele><time>2026-04-30T14:26:53Z</time></trkpt><trkpt lat="44.683213415514714" lon="9.308290928108947"><ele>489.0</ele><time>2026-04-30T14:26:54Z</time></trkpt><trkpt lat="44.68323574733173" lon="9.308386062439535"><ele>489.0</ele><time>2026-04-30T14:26:55Z</time></trkpt><trkpt lat="44.68332517688459" lon="9.308449584732726"><ele>489.0</ele><time>2026-04-30T14:26:56Z</time></trkpt><trkpt lat="44.683423217691704" lon="9.308533990963872"><ele>489.0</ele><time>2026-04-30T14:26:57Z</time></trkpt><trkpt lat="44.68353926392066" lon="9.308594738730424"><ele>489.5</ele><time>2026-04-30T14:26:58Z</time></trkpt><trkpt lat="44.68366485128943" lon="9.308712630792074"><ele>490.0</ele><time>2026-04-30T14:26:59Z</time></trkpt><trkpt lat="44.683758166057984" lon="9.308839889911917"><ele>490.5</ele><time>2026-04-30T14:27:00Z</time></trkpt><trkpt lat="44.683825681833234" lon="9.308989632708693"><ele>491.0</ele><time>2026-04-30T14:27:01Z</time></trkpt><trkpt lat="44.683883667541" lon="9.309123115985997"><ele>491.0</ele><time>2026-04-30T14:27:02Z</time></trkpt><trkpt lat="44.68396951843157" lon="9.309207498412928"><ele>491.0</ele><time>2026-04-30T14:27:03Z</time></trkpt><trkpt lat="44.684116938911146" lon="9.309200762478756"><ele>491.0</ele><time>2026-04-30T14:27:04Z</time></trkpt><trkpt lat="44.68426425222925" lon="9.309231544369746"><ele>491.0</ele><time>2026-04-30T14:27:05Z</time></trkpt><trkpt lat="44.6844127478282" lon="9.30921871382902"><ele>490.75</ele><time>2026-04-30T14:27:06Z</time></trkpt><trkpt lat="44.684563098095765" lon="9.309176307159662"><ele>490.5</ele><time>2026-04-30T14:27:07Z</time></trkpt><trkpt lat="44.68469329823716" lon="9.309085595520186"><ele>490.25</ele><time>2026-04-30T14:27:08Z</time></trkpt><trkpt lat="44.68481998643328" lon="9.30897725679342"><ele>490.0</ele><time>2026-04-30T14:27:09Z</time></trkpt><trkpt lat="44.68496041235817" lon="9.308922159493171"><ele>482.6666666666667</ele><time>2026-04-30T14:27:10Z</time></trkpt><trkpt lat="44.68510667029694" lon="9.308890276454617"><ele>475.33333333333337</ele><time>2026-04-30T14:27:10.999Z</time></trkpt><trkpt lat="44.68526173707871" lon="9.308874377616455"><ele>468.0</ele><time>2026-04-30T14:27:11.999Z</time></trkpt><trkpt lat="44.68541185375822" lon="9.308876832485835"><ele>462.66666666666663</ele><time>2026-04-30T14:27:12.999Z</time></trkpt><trkpt lat="44.68556408119293" lon="9.308895535959"><ele>457.3333333333333</ele><time>2026-04-30T14:27:13.999Z</time></trkpt><trkpt lat="44.68572210959994" lon="9.308895229608297"><ele>452.0</ele><time>2026-04-30T14:27:14.999Z</time></trkpt><trkpt lat="44.68586478220827" lon="9.308903288032456"><ele>452.0</ele><time>2026-04-30T14:27:15.999Z</time></trkpt><trkpt lat="44.686009505083" lon="9.308886518680964"><ele>452.0</ele><time>2026-04-30T14:27:16.999Z</time></trkpt><trkpt lat="44.68615854355005" lon="9.308881141744656"><ele>452.0</ele><time>2026-04-30T14:27:17.999Z</time></trkpt><trkpt lat="44.686323512623595" lon="9.30888973687119"><ele>456.0</ele><time>2026-04-30T14:27:18.999Z</time></trkpt><trkpt lat="44.68646611807786" lon="9.3089551455805"><ele>460.0</ele><time>2026-04-30T14:27:19.999Z</time></trkpt><trkpt lat="44.68660378229544" lon="9.309002175002156"><ele>464.0</ele><time>2026-04-30T14:27:20.999Z</time></trkpt><trkpt lat="44.68669686617385" lon="9.309033221272353"><ele>468.0</ele><time>2026-04-30T14:27:21.999Z</time></trkpt><trkpt lat="44.68676756362375" lon="9.309119936499501"><ele>468.0</ele><time>2026-04-30T14:27:22.999Z</time></trkpt><trkpt lat="44.686872176543254" lon="9.309254586262762"><ele>468.0</ele><time>2026-04-30T14:27:23.999Z</time></trkpt><trkpt lat="44.68693410707607" lon="9.309405108387573"><ele>468.0</ele><time>2026-04-30T14:27:24.999Z</time></trkpt><trkpt lat="44.68695960988757" lon="9.309541043359783"><ele>468.0</ele><time>2026-04-30T14:27:25.999Z</time></trkpt><trkpt lat="44.686953868443155" lon="9.309712407352954"><ele>468.5</ele><time>2026-04-30T14:27:26.999Z</time></trkpt><trkpt lat="44.686927872993344" lon="9.309877548181749"><ele>469.0</ele><time>2026-04-30T14:27:27.999Z</time></trkpt><trkpt lat="44.68682735079848" lon="9.30999582717865"><ele>469.5</ele><time>2026-04-30T14:27:28.999Z</time></trkpt><trkpt lat="44.68671622896908" lon="9.310107443201465"><ele>470.0</ele><time>2026-04-30T14:27:29.999Z</time></trkpt><trkpt lat="44.68656864344336" lon="9.310169867262749"><ele>470.0</ele><time>2026-04-30T14:27:30.999Z</time></trkpt><trkpt lat="44.686415152413666" lon="9.3101775449668"><ele>470.0</ele><time>2026-04-30T14:27:31.999Z</time></trkpt><trkpt lat="44.6862875928346" lon="9.310262808086124"><ele>470.0</ele><time>2026-04-30T14:27:32.999Z</time></trkpt><trkpt lat="44.686223448575724" lon="9.310407120794215"><ele>470.0</ele><time>2026-04-30T14:27:33.999Z</time></trkpt><trkpt lat="44.686183934825706" lon="9.310565891678548"><ele>464.5</ele><time>2026-04-30T14:27:34.999Z</time></trkpt><trkpt lat="44.686146198990045" lon="9.310741766712948"><ele>459.0</ele><time>2026-04-30T14:27:35.999Z</time></trkpt><trkpt lat="44.686121230101946" lon="9.310904074300616"><ele>453.5</ele><time>2026-04-30T14:27:36.999Z</time></trkpt><trkpt lat="44.686113072520534" lon="9.311095365325187"><ele>448.0</ele><time>2026-04-30T14:27:37.999Z</time></trkpt><trkpt lat="44.686121960030334" lon="9.311237953728169"><ele>450.0</ele><time>2026-04-30T14:27:38.999Z</time></trkpt><trkpt lat="44.686162532060074" lon="9.311410865721674"><ele>452.0</ele><time>2026-04-30T14:27:40.999Z</time></trkpt><trkpt lat="44.68623231946559" lon="9.31153702491657"><ele>454.0</ele><time>2026-04-30T14:27:41.999Z</time></trkpt><trkpt lat="44.68632333447163" lon="9.31164556856808"><ele>456.0</ele><time>2026-04-30T14:27:42.999Z</time></trkpt><trkpt lat="44.68643563355332" lon="9.311729948537343"><ele>456.0</ele><time>2026-04-30T14:27:43.999Z</time></trkpt><trkpt lat="44.686502752898" lon="9.312166302394354"><ele>456.0</ele><time>2026-04-30T14:27:44.999Z</time></trkpt><trkpt lat="44.68669277896602" lon="9.31238544283936"><ele>459.33333333333337</ele><time>2026-04-30T14:27:45.999Z</time></trkpt><trkpt lat="44.68688339271748" lon="9.312593852786542"><ele>462.6666666666667</ele><time>2026-04-30T14:27:46.999Z</time></trkpt><trkpt lat="44.686915801986565" lon="9.312811132676702"><ele>466.0</ele><time>2026-04-30T14:27:47.999Z</time></trkpt><trkpt lat="44.68699806504802" lon="9.313021796926892"><ele>460.0</ele><time>2026-04-30T14:27:48.999Z</time></trkpt><trkpt lat="44.687076277310915" lon="9.31320122776609"><ele>454.0</ele><time>2026-04-30T14:27:49.999Z</time></trkpt><trkpt lat="44.68712452560408" lon="9.313361016069024"><ele>448.0</ele><time>2026-04-30T14:27:50.999Z</time></trkpt><trkpt lat="44.68716387349581" lon="9.313499019627148"><ele>442.0</ele><time>2026-04-30T14:27:51.999Z</time></trkpt><trkpt lat="44.68725311988047" lon="9.313571044530514"><ele>442.0</ele><time>2026-04-30T14:27:52.999Z</time></trkpt><trkpt lat="44.68736603222734" lon="9.313628791604113"><ele>442.0</ele><time>2026-04-30T14:27:53.999Z</time></trkpt><trkpt lat="44.68750916089687" lon="9.313667574890692"><ele>442.0</ele><time>2026-04-30T14:27:54.999Z</time></trkpt><trkpt lat="44.687637696796415" lon="9.313734853815735"><ele>442.0</ele><time>2026-04-30T14:27:55.999Z</time></trkpt><trkpt lat="44.68769558073578" lon="9.313887851895752"><ele>445.25</ele><time>2026-04-30T14:27:56.999Z</time></trkpt><trkpt lat="44.68770061169269" lon="9.314037597004718"><ele>448.5</ele><time>2026-04-30T14:27:57.999Z</time></trkpt><trkpt lat="44.687697167767425" lon="9.31420712586457"><ele>451.75</ele><time>2026-04-30T14:27:58.999Z</time></trkpt><trkpt lat="44.68768959718649" lon="9.31436049360113"><ele>455.0</ele><time>2026-04-30T14:27:59.999Z</time></trkpt><trkpt lat="44.687652836190004" lon="9.314525698620734"><ele>455.0</ele><time>2026-04-30T14:28:00.999Z</time></trkpt><trkpt lat="44.68759883369949" lon="9.314730279812984"><ele>455.0</ele><time>2026-04-30T14:28:01.999Z</time></trkpt><trkpt lat="44.68750946999485" lon="9.31487034447178"><ele>455.0</ele><time>2026-04-30T14:28:02.999Z</time></trkpt><trkpt lat="44.687439876397136" lon="9.315032385329776"><ele>455.0</ele><time>2026-04-30T14:28:03.999Z</time></trkpt><trkpt lat="44.6873270315951" lon="9.315174037090749"><ele>452.5</ele><time>2026-04-30T14:28:04.999Z</time></trkpt><trkpt lat="44.687294999425724" lon="9.315412799817889"><ele>450.0</ele><time>2026-04-30T14:28:05.999Z</time></trkpt><trkpt lat="44.687325795206625" lon="9.31558158380465"><ele>447.5</ele><time>2026-04-30T14:28:06.999Z</time></trkpt><trkpt lat="44.68732702563302" lon="9.315752197269799"><ele>445.0</ele><time>2026-04-30T14:28:07.999Z</time></trkpt><trkpt lat="44.68732150886808" lon="9.315939353995251"><ele>440.6666666666667</ele><time>2026-04-30T14:28:08.999Z</time></trkpt><trkpt lat="44.68728457155989" lon="9.316141568159399"><ele>436.33333333333337</ele><time>2026-04-30T14:28:09.999Z</time></trkpt><trkpt lat="44.68726577239331" lon="9.316339565893827"><ele>432.0</ele><time>2026-04-30T14:28:10.999Z</time></trkpt><trkpt lat="44.687244331227724" lon="9.316601595026263"><ele>429.5</ele><time>2026-04-30T14:28:11.999Z</time></trkpt><trkpt lat="44.68717542288228" lon="9.316821599128966"><ele>427.0</ele><time>2026-04-30T14:28:12.999Z</time></trkpt><trkpt lat="44.68718974894818" lon="9.317030877883008"><ele>424.5</ele><time>2026-04-30T14:28:13.999Z</time></trkpt><trkpt lat="44.68723931491862" lon="9.317194775604438"><ele>422.0</ele><time>2026-04-30T14:28:14.999Z</time></trkpt><trkpt lat="44.68725425802068" lon="9.317384935706407"><ele>419.0</ele><time>2026-04-30T14:28:15.999Z</time></trkpt><trkpt lat="44.687205541184504" lon="9.31753202474342"><ele>416.0</ele><time>2026-04-30T14:28:16.999Z</time></trkpt><trkpt lat="44.68712087011041" lon="9.31767074779561"><ele>413.0</ele><time>2026-04-30T14:28:17.999Z</time></trkpt><trkpt lat="44.68702149789944" lon="9.317814349033311"><ele>410.0</ele><time>2026-04-30T14:28:18.999Z</time></trkpt><trkpt lat="44.68692796038904" lon="9.317974083311263"><ele>419.25</ele><time>2026-04-30T14:28:19.999Z</time></trkpt><trkpt lat="44.68686566020791" lon="9.31813477954308"><ele>428.5</ele><time>2026-04-30T14:28:20.999Z</time></trkpt><trkpt lat="44.68682831385004" lon="9.318306009401224"><ele>437.75</ele><time>2026-04-30T14:28:21.999Z</time></trkpt><trkpt lat="44.68681102986749" lon="9.318496879535846"><ele>447.0</ele><time>2026-04-30T14:28:22.999Z</time></trkpt><trkpt lat="44.686820305062476" lon="9.3186708676345"><ele>447.0</ele><time>2026-04-30T14:28:23.999Z</time></trkpt><trkpt lat="44.6868750249788" lon="9.318883270395936"><ele>447.0</ele><time>2026-04-30T14:28:24.999Z</time></trkpt><trkpt lat="44.68694276744847" lon="9.319092253444193"><ele>447.0</ele><time>2026-04-30T14:28:25.999Z</time></trkpt><trkpt lat="44.687000376908465" lon="9.31926944412211"><ele>441.40000000000003</ele><time>2026-04-30T14:28:26.999Z</time></trkpt><trkpt lat="44.68705184785856" lon="9.319400955511524"><ele>435.80000000000007</ele><time>2026-04-30T14:28:27.999Z</time></trkpt><trkpt lat="44.68711325377567" lon="9.319497444553562"><ele>430.2</ele><time>2026-04-30T14:28:28.999Z</time></trkpt><trkpt lat="44.6871801903588" lon="9.319566913808979"><ele>424.6</ele><time>2026-04-30T14:28:29.999Z</time></trkpt><trkpt lat="44.68730433411715" lon="9.319588704444081"><ele>419.0</ele><time>2026-04-30T14:28:30.999Z</time></trkpt><trkpt lat="44.68741534150753" lon="9.319501208027637"><ele>419.0</ele><time>2026-04-30T14:28:31.999Z</time></trkpt><trkpt lat="44.687531534560975" lon="9.31940302952916"><ele>419.0</ele><time>2026-04-30T14:28:32.999Z</time></trkpt><trkpt lat="44.68762182874324" lon="9.319297645995814"><ele>419.0</ele><time>2026-04-30T14:28:33.999Z</time></trkpt><trkpt lat="44.687712721264866" lon="9.319211279428565"><ele>419.0</ele><time>2026-04-30T14:28:34.999Z</time></trkpt><trkpt lat="44.68782265108142" lon="9.31924258188995"><ele>410.66666666666663</ele><time>2026-04-30T14:28:35.999Z</time></trkpt><trkpt lat="44.68800320689511" lon="9.319429846195888"><ele>402.33333333333337</ele><time>2026-04-30T14:28:36.999Z</time></trkpt><trkpt lat="44.688074207705384" lon="9.319647121036589"><ele>394.0</ele><time>2026-04-30T14:28:37.999Z</time></trkpt><trkpt lat="44.68806298672306" lon="9.319831669467424"><ele>394.0</ele><time>2026-04-30T14:28:38.998Z</time></trkpt><trkpt lat="44.688055334274814" lon="9.320052558313892"><ele>394.0</ele><time>2026-04-30T14:28:39.998Z</time></trkpt><trkpt lat="44.688035921357915" lon="9.320298804370566"><ele>394.0</ele><time>2026-04-30T14:28:40.998Z</time></trkpt><trkpt lat="44.68803589327343" lon="9.320536897099577"><ele>396.0</ele><time>2026-04-30T14:28:41.998Z</time></trkpt><trkpt lat="44.688011704822706" lon="9.32079597680937"><ele>398.0</ele><time>2026-04-30T14:28:42.998Z</time></trkpt><trkpt lat="44.688014346013055" lon="9.321052818581592"><ele>400.0</ele><time>2026-04-30T14:28:43.998Z</time></trkpt><trkpt lat="44.688004645912024" lon="9.32128408314382"><ele>401.0</ele><time>2026-04-30T14:28:44.998Z</time></trkpt><trkpt lat="44.68799935754784" lon="9.321484655870547"><ele>402.0</ele><time>2026-04-30T14:28:45.998Z</time></trkpt><trkpt lat="44.688008637834194" lon="9.321658373175582"><ele>403.0</ele><time>2026-04-30T14:28:46.998Z</time></trkpt><trkpt lat="44.688037894505264" lon="9.321776985413281"><ele>404.0</ele><time>2026-04-30T14:28:47.998Z</time></trkpt><trkpt lat="44.688105293740165" lon="9.321940545929108"><ele>404.0</ele><time>2026-04-30T14:28:48.998Z</time></trkpt><trkpt lat="44.688162879597094" lon="9.3221655474553"><ele>404.0</ele><time>2026-04-30T14:28:49.998Z</time></trkpt><trkpt lat="44.68816173510119" lon="9.322365958957077"><ele>404.0</ele><time>2026-04-30T14:28:50.998Z</time></trkpt><trkpt lat="44.688155652624495" lon="9.322541352497408"><ele>404.0</ele><time>2026-04-30T14:28:51.998Z</time></trkpt><trkpt lat="44.68815589858319" lon="9.322668078090773"><ele>404.0</ele><time>2026-04-30T14:28:52.998Z</time></trkpt><trkpt lat="44.68820230170978" lon="9.322810346516325"><ele>404.0</ele><time>2026-04-30T14:28:53.998Z</time></trkpt><trkpt lat="44.688240221570055" lon="9.3228887151742"><ele>404.0</ele><time>2026-04-30T14:28:54.998Z</time></trkpt><trkpt lat="44.688330342671584" lon="9.32297192579452"><ele>404.0</ele><time>2026-04-30T14:28:55.998Z</time></trkpt><trkpt lat="44.68845319624708" lon="9.323038112877402"><ele>404.0</ele><time>2026-04-30T14:28:56.998Z</time></trkpt><trkpt lat="44.688600368708705" lon="9.323097582780555"><ele>400.75</ele><time>2026-04-30T14:28:57.998Z</time></trkpt><trkpt lat="44.68870860984626" lon="9.323140388555606"><ele>397.5</ele><time>2026-04-30T14:28:58.998Z</time></trkpt><trkpt lat="44.68880905258805" lon="9.323174838635946"><ele>394.25</ele><time>2026-04-30T14:28:59.998Z</time></trkpt><trkpt lat="44.68894818607997" lon="9.323340798280565"><ele>391.0</ele><time>2026-04-30T14:29:00.998Z</time></trkpt><trkpt lat="44.689027082926344" lon="9.32347782948619"><ele>391.0</ele><time>2026-04-30T14:29:01.998Z</time></trkpt><trkpt lat="44.689108259460696" lon="9.323618937764248"><ele>391.0</ele><time>2026-04-30T14:29:02.998Z</time></trkpt><trkpt lat="44.689195508076864" lon="9.323794373693039"><ele>391.0</ele><time>2026-04-30T14:29:03.998Z</time></trkpt><trkpt lat="44.68923884152887" lon="9.323953674601544"><ele>391.0</ele><time>2026-04-30T14:29:04.998Z</time></trkpt><trkpt lat="44.689237775760155" lon="9.324110695968123"><ele>391.20000000000005</ele><time>2026-04-30T14:29:05.998Z</time></trkpt><trkpt lat="44.6892454805341" lon="9.324247616868067"><ele>391.40000000000003</ele><time>2026-04-30T14:29:06.998Z</time></trkpt><trkpt lat="44.689268756858" lon="9.324337054569256"><ele>391.6</ele><time>2026-04-30T14:29:07.998Z</time></trkpt><trkpt lat="44.68927288116383" lon="9.324451834992633"><ele>391.8</ele><time>2026-04-30T14:29:09.998Z</time></trkpt><trkpt lat="44.689285828248885" lon="9.324629380908991"><ele>392.0</ele><time>2026-04-30T14:29:37.998Z</time></trkpt><trkpt lat="44.689299216104736" lon="9.324787939687807"><ele>391.99999999999994</ele><time>2026-04-30T14:29:39.998Z</time></trkpt><trkpt lat="44.68929350099497" lon="9.324879627707077"><ele>392.0</ele><time>2026-04-30T14:29:40.998Z</time></trkpt><trkpt lat="44.68929929682263" lon="9.324971449579042"><ele>392.0</ele><time>2026-04-30T14:29:41.998Z</time></trkpt><trkpt lat="44.689306135623426" lon="9.325092167310615"><ele>392.0</ele><time>2026-04-30T14:29:42.998Z</time></trkpt><trkpt lat="44.689327277592874" lon="9.325213541571197"><ele>391.99999999999994</ele><time>2026-04-30T14:29:43.998Z</time></trkpt><trkpt lat="44.689314112640425" lon="9.325360678062966"><ele>392.0</ele><time>2026-04-30T14:29:44.998Z</time></trkpt><trkpt lat="44.68931354594895" lon="9.325486527852334"><ele>391.49999999999994</ele><time>2026-04-30T14:29:45.998Z</time></trkpt><trkpt lat="44.68931089890204" lon="9.325605470663469"><ele>391.0</ele><time>2026-04-30T14:29:46.998Z</time></trkpt><trkpt lat="44.68930475176985" lon="9.325716136049941"><ele>390.5</ele><time>2026-04-30T14:29:47.998Z</time></trkpt><trkpt lat="44.68931252433825" lon="9.325830740710021"><ele>390.0</ele><time>2026-04-30T14:29:48.998Z</time></trkpt><trkpt lat="44.68930189223094" lon="9.325969110204777"><ele>389.49999999999994</ele><time>2026-04-30T14:29:49.998Z</time></trkpt><trkpt lat="44.68928049125781" lon="9.326098582775677"><ele>389.0</ele><time>2026-04-30T14:29:50.998Z</time></trkpt><trkpt lat="44.68927499650532" lon="9.326228539336773"><ele>388.99999999999994</ele><time>2026-04-30T14:29:51.998Z</time></trkpt><trkpt lat="44.689242022961295" lon="9.326364481094355"><ele>389.0</ele><time>2026-04-30T14:29:52.998Z</time></trkpt><trkpt lat="44.68922407798864" lon="9.326486429456361"><ele>389.0</ele><time>2026-04-30T14:29:53.998Z</time></trkpt><trkpt lat="44.68919765217489" lon="9.326584653058067"><ele>389.0</ele><time>2026-04-30T14:29:54.997Z</time></trkpt><trkpt lat="44.68917519232044" lon="9.326669543674289"><ele>388.99999999999994</ele><time>2026-04-30T14:29:55.997Z</time></trkpt><trkpt lat="44.68915933681716" lon="9.326789237468933"><ele>389.0</ele><time>2026-04-30T14:29:56.997Z</time></trkpt><trkpt lat="44.68914214205191" lon="9.326942374619222"><ele>388.0</ele><time>2026-04-30T14:29:57.997Z</time></trkpt><trkpt lat="44.689137132867074" lon="9.327088127129313"><ele>387.0</ele><time>2026-04-30T14:29:58.997Z</time></trkpt><trkpt lat="44.689124032446564" lon="9.327250423168424"><ele>386.0</ele><time>2026-04-30T14:29:59.997Z</time></trkpt><trkpt lat="44.68909597076786" lon="9.327410993060413"><ele>385.0</ele><time>2026-04-30T14:30:00.997Z</time></trkpt><trkpt lat="44.68906687598554" lon="9.327571075657"><ele>383.25</ele><time>2026-04-30T14:30:01.997Z</time></trkpt><trkpt lat="44.6890501074767" lon="9.327733775556222"><ele>381.5</ele><time>2026-04-30T14:30:02.997Z</time></trkpt><trkpt lat="44.68904765105066" lon="9.3278992606219"><ele>379.75</ele><time>2026-04-30T14:30:03.997Z</time></trkpt><trkpt lat="44.6890153132569" lon="9.328062431870972"><ele>378.0</ele><time>2026-04-30T14:30:04.997Z</time></trkpt><trkpt lat="44.68897253790423" lon="9.328232716906403"><ele>376.75</ele><time>2026-04-30T14:30:05.997Z</time></trkpt><trkpt lat="44.688938673806774" lon="9.328383748714785"><ele>375.5</ele><time>2026-04-30T14:30:06.997Z</time></trkpt><trkpt lat="44.68890270362466" lon="9.328545899134179"><ele>374.25</ele><time>2026-04-30T14:30:07.997Z</time></trkpt><trkpt lat="44.68887469956991" lon="9.32868729396054"><ele>373.0</ele><time>2026-04-30T14:30:08.997Z</time></trkpt><trkpt lat="44.688882294167236" lon="9.32884739882022"><ele>371.8333333333333</ele><time>2026-04-30T14:30:09.997Z</time></trkpt><trkpt lat="44.68891777340408" lon="9.328942740364239"><ele>370.66666666666663</ele><time>2026-04-30T14:30:10.997Z</time></trkpt><trkpt lat="44.68898755730282" lon="9.32899829404468"><ele>369.5</ele><time>2026-04-30T14:30:11.997Z</time></trkpt><trkpt lat="44.68906040223661" lon="9.32905039332953"><ele>368.3333333333333</ele><time>2026-04-30T14:30:12.997Z</time></trkpt><trkpt lat="44.68914039639581" lon="9.329111351503094"><ele>367.1666666666667</ele><time>2026-04-30T14:30:13.997Z</time></trkpt><trkpt lat="44.68922132767722" lon="9.329152974322323"><ele>366.0</ele><time>2026-04-30T14:30:14.997Z</time></trkpt><trkpt lat="44.6893099276698" lon="9.329181793758595"><ele>366.0</ele><time>2026-04-30T14:30:15.997Z</time></trkpt><trkpt lat="44.689377352561266" lon="9.329255191110521"><ele>366.0</ele><time>2026-04-30T14:30:16.997Z</time></trkpt><trkpt lat="44.68947096479679" lon="9.32932314728862"><ele>366.0</ele><time>2026-04-30T14:30:17.997Z</time></trkpt><trkpt lat="44.68958760063024" lon="9.32937683678253"><ele>366.0</ele><time>2026-04-30T14:30:18.997Z</time></trkpt><trkpt lat="44.68971196013181" lon="9.32944818948017"><ele>366.0</ele><time>2026-04-30T14:30:19.997Z</time></trkpt><trkpt lat="44.68982440336728" lon="9.329504012451993"><ele>367.8</ele><time>2026-04-30T14:30:20.997Z</time></trkpt><trkpt lat="44.68993197275106" lon="9.329578782064605"><ele>369.6</ele><time>2026-04-30T14:30:21.997Z</time></trkpt><trkpt lat="44.69004280055933" lon="9.329628911053613"><ele>371.4</ele><time>2026-04-30T14:30:22.997Z</time></trkpt><trkpt lat="44.690128524484436" lon="9.329711328813765"><ele>373.2</ele><time>2026-04-30T14:30:23.997Z</time></trkpt><trkpt lat="44.69017439933609" lon="9.329818492637491"><ele>375.0</ele><time>2026-04-30T14:30:24.997Z</time></trkpt><trkpt lat="44.69020102558795" lon="9.329973254414977"><ele>375.0</ele><time>2026-04-30T14:30:25.997Z</time></trkpt><trkpt lat="44.69022678052064" lon="9.330157474353244"><ele>375.0</ele><time>2026-04-30T14:30:26.997Z</time></trkpt><trkpt lat="44.690209174260886" lon="9.33035023668157"><ele>375.0</ele><time>2026-04-30T14:30:27.997Z</time></trkpt><trkpt lat="44.69019822646711" lon="9.33053622023507"><ele>375.0</ele><time>2026-04-30T14:30:28.997Z</time></trkpt><trkpt lat="44.690180591779566" lon="9.330710854980616"><ele>375.0</ele><time>2026-04-30T14:30:29.997Z</time></trkpt><trkpt lat="44.690160855784015" lon="9.330889611882192"><ele>375.0</ele><time>2026-04-30T14:30:30.997Z</time></trkpt><trkpt lat="44.69014405005151" lon="9.331066174408393"><ele>375.0</ele><time>2026-04-30T14:30:31.997Z</time></trkpt><trkpt lat="44.69013711052932" lon="9.331236288734692"><ele>375.0</ele><time>2026-04-30T14:30:32.997Z</time></trkpt><trkpt lat="44.69016860414248" lon="9.331423327871667"><ele>376.3333333333333</ele><time>2026-04-30T14:30:33.997Z</time></trkpt><trkpt lat="44.69023360456168" lon="9.331624810351203"><ele>377.66666666666663</ele><time>2026-04-30T14:30:34.997Z</time></trkpt><trkpt lat="44.69034091462489" lon="9.331802335509927"><ele>379.0</ele><time>2026-04-30T14:30:35.997Z</time></trkpt><trkpt lat="44.69043889994978" lon="9.331952082152462"><ele>383.5</ele><time>2026-04-30T14:30:36.997Z</time></trkpt><trkpt lat="44.690517242002265" lon="9.33208455293038"><ele>388.0</ele><time>2026-04-30T14:30:37.997Z</time></trkpt><trkpt lat="44.69061234461479" lon="9.332234801566383"><ele>392.5</ele><time>2026-04-30T14:30:38.997Z</time></trkpt><trkpt lat="44.69071055114584" lon="9.332327468564136"><ele>397.0</ele><time>2026-04-30T14:30:39.997Z</time></trkpt><trkpt lat="44.69080911016051" lon="9.332358660024004"><ele>397.0</ele><time>2026-04-30T14:30:40.997Z</time></trkpt><trkpt lat="44.690903040174256" lon="9.332411150044859"><ele>397.0</ele><time>2026-04-30T14:30:41.997Z</time></trkpt><trkpt lat="44.69098120647331" lon="9.332422314691126"><ele>397.0</ele><time>2026-04-30T14:30:42.997Z</time></trkpt><trkpt lat="44.691001837921725" lon="9.332587969345262"><ele>397.0</ele><time>2026-04-30T14:30:44.997Z</time></trkpt><trkpt lat="44.69093860439963" lon="9.332690971691004"><ele>397.0</ele><time>2026-04-30T14:30:46.997Z</time></trkpt><trkpt lat="44.6908231863563" lon="9.332709180763812"><ele>397.0</ele><time>2026-04-30T14:30:47.997Z</time></trkpt><trkpt lat="44.69070648312919" lon="9.332718258712065"><ele>397.0</ele><time>2026-04-30T14:30:48.997Z</time></trkpt><trkpt lat="44.69057700049765" lon="9.332752185014368"><ele>397.0</ele><time>2026-04-30T14:30:49.997Z</time></trkpt><trkpt lat="44.69044476740801" lon="9.332752345975877"><ele>397.0</ele><time>2026-04-30T14:30:50.997Z</time></trkpt><trkpt lat="44.690321877026044" lon="9.332792347953525"><ele>396.5</ele><time>2026-04-30T14:30:51.997Z</time></trkpt><trkpt lat="44.6902201632944" lon="9.332867805315248"><ele>396.0</ele><time>2026-04-30T14:30:52.997Z</time></trkpt><trkpt lat="44.69014932123499" lon="9.33296506198888"><ele>395.5</ele><time>2026-04-30T14:30:53.997Z</time></trkpt><trkpt lat="44.6900999860782" lon="9.333111717834669"><ele>395.0</ele><time>2026-04-30T14:30:54.997Z</time></trkpt><trkpt lat="44.69007824861613" lon="9.333306348863417"><ele>395.0</ele><time>2026-04-30T14:30:55.997Z</time></trkpt><trkpt lat="44.6900970858197" lon="9.333493001949488"><ele>395.0</ele><time>2026-04-30T14:30:56.997Z</time></trkpt><trkpt lat="44.690123280540774" lon="9.333691373986188"><ele>395.0</ele><time>2026-04-30T14:30:57.997Z</time></trkpt><trkpt lat="44.690138107906954" lon="9.333893558904604"><ele>395.0</ele><time>2026-04-30T14:30:58.997Z</time></trkpt><trkpt lat="44.690143379532564" lon="9.334078241855465"><ele>395.5</ele><time>2026-04-30T14:30:59.997Z</time></trkpt><trkpt lat="44.69014703794803" lon="9.334277003163788"><ele>396.0</ele><time>2026-04-30T14:31:00.997Z</time></trkpt><trkpt lat="44.69018965201913" lon="9.334449470815404"><ele>396.5</ele><time>2026-04-30T14:31:01.997Z</time></trkpt><trkpt lat="44.69021611082926" lon="9.33462966553505"><ele>397.0</ele><time>2026-04-30T14:31:02.997Z</time></trkpt><trkpt lat="44.69028616812239" lon="9.334808084311774"><ele>403.25</ele><time>2026-04-30T14:31:03.997Z</time></trkpt><trkpt lat="44.69039782215503" lon="9.334948776531423"><ele>409.5</ele><time>2026-04-30T14:31:04.997Z</time></trkpt><trkpt lat="44.690493008086776" lon="9.335119209460485"><ele>415.75</ele><time>2026-04-30T14:31:05.997Z</time></trkpt><trkpt lat="44.69054301707532" lon="9.335307616655927"><ele>422.0</ele><time>2026-04-30T14:31:06.997Z</time></trkpt><trkpt lat="44.69055598869241" lon="9.335526282218071"><ele>423.3333333333333</ele><time>2026-04-30T14:31:07.997Z</time></trkpt><trkpt lat="44.69054748199073" lon="9.335756566010916"><ele>424.66666666666663</ele><time>2026-04-30T14:31:08.997Z</time></trkpt><trkpt lat="44.69054863294967" lon="9.335995231772"><ele>426.0</ele><time>2026-04-30T14:31:09.996Z</time></trkpt><trkpt lat="44.690549648319966" lon="9.336231360208307"><ele>425.25</ele><time>2026-04-30T14:31:10.996Z</time></trkpt><trkpt lat="44.690550343933616" lon="9.336440908169331"><ele>424.5</ele><time>2026-04-30T14:31:11.996Z</time></trkpt><trkpt lat="44.690540574129756" lon="9.33665979239029"><ele>423.75</ele><time>2026-04-30T14:31:12.996Z</time></trkpt><trkpt lat="44.69050266267819" lon="9.336832614775577"><ele>423.0</ele><time>2026-04-30T14:31:13.996Z</time></trkpt><trkpt lat="44.6904855162888" lon="9.3370108680746"><ele>423.0</ele><time>2026-04-30T14:31:14.996Z</time></trkpt><trkpt lat="44.690491013504804" lon="9.337158213056249"><ele>423.0</ele><time>2026-04-30T14:31:15.996Z</time></trkpt><trkpt lat="44.69054564761321" lon="9.337317492143479"><ele>423.0</ele><time>2026-04-30T14:31:16.996Z</time></trkpt><trkpt lat="44.690634202847185" lon="9.337443916027754"><ele>423.0</ele><time>2026-04-30T14:31:17.996Z</time></trkpt><trkpt lat="44.69072008936727" lon="9.33757038747446"><ele>422.25</ele><time>2026-04-30T14:31:18.996Z</time></trkpt><trkpt lat="44.69080659753276" lon="9.337695609756748"><ele>421.5</ele><time>2026-04-30T14:31:19.996Z</time></trkpt><trkpt lat="44.69090153991798" lon="9.337813245069492"><ele>420.75</ele><time>2026-04-30T14:31:20.996Z</time></trkpt><trkpt lat="44.69101756138539" lon="9.337908627551652"><ele>420.0</ele><time>2026-04-30T14:31:21.996Z</time></trkpt><trkpt lat="44.691135875408214" lon="9.33795526622937"><ele>420.0</ele><time>2026-04-30T14:31:22.996Z</time></trkpt><trkpt lat="44.69127250894754" lon="9.337976879578576"><ele>420.0</ele><time>2026-04-30T14:31:23.996Z</time></trkpt><trkpt lat="44.69139602121302" lon="9.33800722192983"><ele>420.0</ele><time>2026-04-30T14:31:24.996Z</time></trkpt><trkpt lat="44.69151472364356" lon="9.338042290111316"><ele>420.0</ele><time>2026-04-30T14:31:25.996Z</time></trkpt><trkpt lat="44.69161354816363" lon="9.338114084908732"><ele>420.0</ele><time>2026-04-30T14:31:26.996Z</time></trkpt><trkpt lat="44.69173092433006" lon="9.33820084480035"><ele>420.0</ele><time>2026-04-30T14:31:27.996Z</time></trkpt><trkpt lat="44.691769235841065" lon="9.33833051073356"><ele>420.0</ele><time>2026-04-30T14:31:28.996Z</time></trkpt><trkpt lat="44.69179298111667" lon="9.33846420398336"><ele>420.0</ele><time>2026-04-30T14:31:29.996Z</time></trkpt><trkpt lat="44.69177732102697" lon="9.338600901400243"><ele>420.0</ele><time>2026-04-30T14:31:30.996Z</time></trkpt><trkpt lat="44.69172072389511" lon="9.338715523329922"><ele>420.0</ele><time>2026-04-30T14:31:31.996Z</time></trkpt><trkpt lat="44.69164618373068" lon="9.338847152049158"><ele>420.0</ele><time>2026-04-30T14:31:32.996Z</time></trkpt><trkpt lat="44.69155985273146" lon="9.338982874523735"><ele>420.0</ele><time>2026-04-30T14:31:33.996Z</time></trkpt><trkpt lat="44.69148853162061" lon="9.339142110049645"><ele>420.0</ele><time>2026-04-30T14:31:34.996Z</time></trkpt><trkpt lat="44.691415000619955" lon="9.339300564942597"><ele>420.25</ele><time>2026-04-30T14:31:35.996Z</time></trkpt><trkpt lat="44.69135340352399" lon="9.339452153272868"><ele>420.5</ele><time>2026-04-30T14:31:36.996Z</time></trkpt><trkpt lat="44.69132921913726" lon="9.339592174344704"><ele>420.75</ele><time>2026-04-30T14:31:37.996Z</time></trkpt><trkpt lat="44.69141539661034" lon="9.339723281828926"><ele>421.0</ele><time>2026-04-30T14:31:38.996Z</time></trkpt><trkpt lat="44.691482345305076" lon="9.3398682017059"><ele>421.25</ele><time>2026-04-30T14:31:39.996Z</time></trkpt><trkpt lat="44.69148319803595" lon="9.340027527038632"><ele>421.5</ele><time>2026-04-30T14:31:40.996Z</time></trkpt><trkpt lat="44.69151415050219" lon="9.340196016802832"><ele>421.75</ele><time>2026-04-30T14:31:41.996Z</time></trkpt><trkpt lat="44.691482759109846" lon="9.340384942556723"><ele>422.0</ele><time>2026-04-30T14:31:42.996Z</time></trkpt><trkpt lat="44.69144281198254" lon="9.340562844094643"><ele>422.0</ele><time>2026-04-30T14:31:43.996Z</time></trkpt><trkpt lat="44.69141272797896" lon="9.340751358921523"><ele>422.0</ele><time>2026-04-30T14:31:44.996Z</time></trkpt><trkpt lat="44.69138315020545" lon="9.34093283273751"><ele>422.0</ele><time>2026-04-30T14:31:45.996Z</time></trkpt><trkpt lat="44.69140168597493" lon="9.341130564185622"><ele>422.0</ele><time>2026-04-30T14:31:46.996Z</time></trkpt><trkpt lat="44.69148174496633" lon="9.341325884157296"><ele>420.75</ele><time>2026-04-30T14:31:47.996Z</time></trkpt><trkpt lat="44.691509101291565" lon="9.34152612594481"><ele>419.5</ele><time>2026-04-30T14:31:48.996Z</time></trkpt><trkpt lat="44.691520603663115" lon="9.341700485747744"><ele>418.25</ele><time>2026-04-30T14:31:49.996Z</time></trkpt><trkpt lat="44.69149431960247" lon="9.34185723274098"><ele>417.0</ele><time>2026-04-30T14:31:50.996Z</time></trkpt><trkpt lat="44.6914559619958" lon="9.342013606669807"><ele>412.5</ele><time>2026-04-30T14:31:51.996Z</time></trkpt><trkpt lat="44.69145837422451" lon="9.342233109093247"><ele>408.0</ele><time>2026-04-30T14:31:52.996Z</time></trkpt><trkpt lat="44.69153641410046" lon="9.3423799377047"><ele>403.5</ele><time>2026-04-30T14:31:53.996Z</time></trkpt><trkpt lat="44.69162782312313" lon="9.342443855011613"><ele>399.0</ele><time>2026-04-30T14:31:54.996Z</time></trkpt><trkpt lat="44.6917297561411" lon="9.342446051194164"><ele>399.0</ele><time>2026-04-30T14:31:55.996Z</time></trkpt><trkpt lat="44.69184193438895" lon="9.342405442132135"><ele>399.0</ele><time>2026-04-30T14:31:56.996Z</time></trkpt><trkpt lat="44.691952452715945" lon="9.342323916729383"><ele>399.0</ele><time>2026-04-30T14:31:57.996Z</time></trkpt><trkpt lat="44.692054481530924" lon="9.342226132852197"><ele>399.0</ele><time>2026-04-30T14:31:58.996Z</time></trkpt><trkpt lat="44.692144451737526" lon="9.342073745646877"><ele>402.5</ele><time>2026-04-30T14:31:59.996Z</time></trkpt><trkpt lat="44.69222959364822" lon="9.341922865725842"><ele>406.0</ele><time>2026-04-30T14:32:00.996Z</time></trkpt><trkpt lat="44.69233110914042" lon="9.341779365825971"><ele>409.5</ele><time>2026-04-30T14:32:01.996Z</time></trkpt><trkpt lat="44.69242041489272" lon="9.341632925168652"><ele>413.0</ele><time>2026-04-30T14:32:02.996Z</time></trkpt><trkpt lat="44.69251670251587" lon="9.341481596826585"><ele>419.5</ele><time>2026-04-30T14:32:03.996Z</time></trkpt><trkpt lat="44.69259494070011" lon="9.341333376162417"><ele>426.0</ele><time>2026-04-30T14:32:04.996Z</time></trkpt><trkpt lat="44.6926924226104" lon="9.341237142697032"><ele>432.5</ele><time>2026-04-30T14:32:05.996Z</time></trkpt><trkpt lat="44.69279847707839" lon="9.341189301354193"><ele>439.0</ele><time>2026-04-30T14:32:06.996Z</time></trkpt><trkpt lat="44.69292936357151" lon="9.34117732723723"><ele>439.75</ele><time>2026-04-30T14:32:07.996Z</time></trkpt><trkpt lat="44.69309434969063" lon="9.341186042753433"><ele>440.5</ele><time>2026-04-30T14:32:08.996Z</time></trkpt><trkpt lat="44.693232048577514" lon="9.341223262024707"><ele>441.25</ele><time>2026-04-30T14:32:09.996Z</time></trkpt><trkpt lat="44.69332038829512" lon="9.341279327613476"><ele>442.0</ele><time>2026-04-30T14:32:10.996Z</time></trkpt><trkpt lat="44.693379260111705" lon="9.341363585151027"><ele>436.0</ele><time>2026-04-30T14:32:11.996Z</time></trkpt><trkpt lat="44.693400747527654" lon="9.341466989075839"><ele>430.00000000000006</ele><time>2026-04-30T14:32:12.996Z</time></trkpt><trkpt lat="44.69340945321236" lon="9.341606816000775"><ele>424.0</ele><time>2026-04-30T14:32:13.996Z</time></trkpt><trkpt lat="44.69341493464189" lon="9.341745911941132"><ele>418.0</ele><time>2026-04-30T14:32:14.996Z</time></trkpt><trkpt lat="44.693411463133195" lon="9.341865716977896"><ele>412.0</ele><time>2026-04-30T14:32:15.996Z</time></trkpt><trkpt lat="44.69336463645086" lon="9.34197424990954"><ele>412.0</ele><time>2026-04-30T14:32:16.996Z</time></trkpt><trkpt lat="44.69327211024819" lon="9.34207601021143"><ele>412.0</ele><time>2026-04-30T14:32:17.996Z</time></trkpt><trkpt lat="44.693183039217075" lon="9.34220586182491"><ele>412.0</ele><time>2026-04-30T14:32:18.996Z</time></trkpt><trkpt lat="44.69309515483752" lon="9.34234090064794"><ele>412.0</ele><time>2026-04-30T14:32:19.996Z</time></trkpt><trkpt lat="44.6930184909308" lon="9.342496009464908"><ele>416.0</ele><time>2026-04-30T14:32:20.996Z</time></trkpt><trkpt lat="44.69292767572297" lon="9.342657752070458"><ele>420.0</ele><time>2026-04-30T14:32:21.996Z</time></trkpt><trkpt lat="44.69284288600148" lon="9.342851418257672"><ele>424.0</ele><time>2026-04-30T14:32:22.996Z</time></trkpt><trkpt lat="44.69280468621936" lon="9.343058889065677"><ele>419.75</ele><time>2026-04-30T14:32:23.996Z</time></trkpt><trkpt lat="44.69275065101889" lon="9.343243139420935"><ele>415.5</ele><time>2026-04-30T14:32:24.995Z</time></trkpt><trkpt lat="44.69270534670392" lon="9.34338958833193"><ele>411.25</ele><time>2026-04-30T14:32:25.995Z</time></trkpt><trkpt lat="44.69262155203171" lon="9.343509399069037"><ele>407.0</ele><time>2026-04-30T14:32:26.995Z</time></trkpt><trkpt lat="44.692519211133494" lon="9.34364723906473"><ele>407.0</ele><time>2026-04-30T14:32:27.995Z</time></trkpt><trkpt lat="44.6924259971836" lon="9.343793279478678"><ele>407.0</ele><time>2026-04-30T14:32:28.995Z</time></trkpt><trkpt lat="44.69232684855916" lon="9.343934150706461"><ele>407.0</ele><time>2026-04-30T14:32:29.995Z</time></trkpt><trkpt lat="44.69219358145526" lon="9.344056417614068"><ele>407.0</ele><time>2026-04-30T14:32:30.995Z</time></trkpt><trkpt lat="44.69205877478238" lon="9.344151056656797"><ele>409.0</ele><time>2026-04-30T14:32:31.995Z</time></trkpt><trkpt lat="44.691922092453304" lon="9.344254433394747"><ele>411.0</ele><time>2026-04-30T14:32:32.995Z</time></trkpt><trkpt lat="44.691798000303" lon="9.344384367236094"><ele>413.0</ele><time>2026-04-30T14:32:33.995Z</time></trkpt><trkpt lat="44.69169382610149" lon="9.344524006973858"><ele>413.0</ele><time>2026-04-30T14:32:34.995Z</time></trkpt><trkpt lat="44.69156861891456" lon="9.344624951861586"><ele>413.0</ele><time>2026-04-30T14:32:35.995Z</time></trkpt><trkpt lat="44.69147398239197" lon="9.344697294619522"><ele>413.0</ele><time>2026-04-30T14:32:36.995Z</time></trkpt><trkpt lat="44.691364017220046" lon="9.344711205143044"><ele>413.0</ele><time>2026-04-30T14:32:37.995Z</time></trkpt><trkpt lat="44.69127444176377" lon="9.344794945310348"><ele>421.0</ele><time>2026-04-30T14:32:38.995Z</time></trkpt><trkpt lat="44.691192440496025" lon="9.344901579009978"><ele>429.0</ele><time>2026-04-30T14:32:39.995Z</time></trkpt><trkpt lat="44.69117544680149" lon="9.345070633447028"><ele>437.0</ele><time>2026-04-30T14:32:40.995Z</time></trkpt><trkpt lat="44.691143716183646" lon="9.345259370045351"><ele>445.0</ele><time>2026-04-30T14:32:41.995Z</time></trkpt><trkpt lat="44.691130224656085" lon="9.345478739738356"><ele>447.25</ele><time>2026-04-30T14:32:42.995Z</time></trkpt><trkpt lat="44.69112187928481" lon="9.34568665281387"><ele>449.5</ele><time>2026-04-30T14:32:43.995Z</time></trkpt><trkpt lat="44.69111921004992" lon="9.345870413484832"><ele>451.75</ele><time>2026-04-30T14:32:44.995Z</time></trkpt><trkpt lat="44.69114891281413" lon="9.346026660287654"><ele>454.0</ele><time>2026-04-30T14:32:45.995Z</time></trkpt><trkpt lat="44.691219144950225" lon="9.346169831156175"><ele>454.0</ele><time>2026-04-30T14:32:46.995Z</time></trkpt><trkpt lat="44.69130363267222" lon="9.346312159994024"><ele>454.0</ele><time>2026-04-30T14:32:47.995Z</time></trkpt><trkpt lat="44.69142858823266" lon="9.346365768145565"><ele>454.0</ele><time>2026-04-30T14:32:48.995Z</time></trkpt><trkpt lat="44.69153127654476" lon="9.346439842652979"><ele>454.0</ele><time>2026-04-30T14:32:49.995Z</time></trkpt><trkpt lat="44.69157293968244" lon="9.346535534331593"><ele>452.50000000000006</ele><time>2026-04-30T14:32:50.995Z</time></trkpt><trkpt lat="44.691562840254115" lon="9.346652170834961"><ele>451.0</ele><time>2026-04-30T14:32:51.995Z</time></trkpt><trkpt lat="44.69152981547858" lon="9.346766332610411"><ele>449.5</ele><time>2026-04-30T14:32:52.995Z</time></trkpt><trkpt lat="44.691478440121365" lon="9.346861986269984"><ele>448.0</ele><time>2026-04-30T14:32:53.995Z</time></trkpt><trkpt lat="44.69143000905975" lon="9.346992763818166"><ele>446.50000000000006</ele><time>2026-04-30T14:32:56Z</time></trkpt><trkpt lat="44.69140310950239" lon="9.34707360115486"><ele>445.0</ele><time>2026-04-30T14:32:58Z</time></trkpt><trkpt lat="44.69134822482127" lon="9.3471703476257"><ele>444.4</ele><time>2026-04-30T14:33:14Z</time></trkpt><trkpt lat="44.691382548704745" lon="9.347332975548122"><ele>443.8</ele><time>2026-04-30T14:37:32.997Z</time></trkpt><trkpt lat="44.69141223573897" lon="9.34744184621763"><ele>443.20000000000005</ele><time>2026-04-30T14:37:33.997Z</time></trkpt><trkpt lat="44.69144694206306" lon="9.347554658945592"><ele>442.6</ele><time>2026-04-30T14:37:34.997Z</time></trkpt><trkpt lat="44.69149922785686" lon="9.347649189729704"><ele>442.0</ele><time>2026-04-30T14:37:35.997Z</time></trkpt><trkpt lat="44.69156367635158" lon="9.347746839972714"><ele>442.00000000000006</ele><time>2026-04-30T14:37:36.997Z</time></trkpt><trkpt lat="44.69163548601091" lon="9.347815771543367"><ele>442.0</ele><time>2026-04-30T14:37:37.997Z</time></trkpt><trkpt lat="44.691697417771216" lon="9.347863134524085"><ele>442.0</ele><time>2026-04-30T14:37:38.997Z</time></trkpt><trkpt lat="44.691727118766856" lon="9.34795781110687"><ele>442.0</ele><time>2026-04-30T14:37:39.997Z</time></trkpt><trkpt lat="44.691737468386506" lon="9.348090291904144"><ele>442.00000000000006</ele><time>2026-04-30T14:37:40.997Z</time></trkpt><trkpt lat="44.69172994773577" lon="9.348236154522871"><ele>442.0</ele><time>2026-04-30T14:37:41.996Z</time></trkpt><trkpt lat="44.691708339420956" lon="9.34839459378434"><ele>440.6</ele><time>2026-04-30T14:37:42.996Z</time></trkpt><trkpt lat="44.69167307959885" lon="9.348545852617141"><ele>439.20000000000005</ele><time>2026-04-30T14:37:43.996Z</time></trkpt><trkpt lat="44.69161209017254" lon="9.34868051982666"><ele>437.8</ele><time>2026-04-30T14:37:44.996Z</time></trkpt><trkpt lat="44.69155171927408" lon="9.348799458347301"><ele>436.4</ele><time>2026-04-30T14:37:45.996Z</time></trkpt><trkpt lat="44.69149671599378" lon="9.348912437519163"><ele>435.0</ele><time>2026-04-30T14:37:46.996Z</time></trkpt><trkpt lat="44.69148036050309" lon="9.349041687320822"><ele>434.0</ele><time>2026-04-30T14:37:47.996Z</time></trkpt><trkpt lat="44.691519135668436" lon="9.349173578022832"><ele>433.0</ele><time>2026-04-30T14:37:48.996Z</time></trkpt><trkpt lat="44.691588920464106" lon="9.34930105626178"><ele>432.0</ele><time>2026-04-30T14:37:49.996Z</time></trkpt><trkpt lat="44.69168560866299" lon="9.349399202426207"><ele>431.0</ele><time>2026-04-30T14:37:50.996Z</time></trkpt><trkpt lat="44.691789019444094" lon="9.349469721263223"><ele>431.0</ele><time>2026-04-30T14:37:51.996Z</time></trkpt><trkpt lat="44.6918809881134" lon="9.349521905650427"><ele>431.0</ele><time>2026-04-30T14:37:52.996Z</time></trkpt><trkpt lat="44.69196694804886" lon="9.349608759114735"><ele>431.0</ele><time>2026-04-30T14:37:53.996Z</time></trkpt><trkpt lat="44.692015912577006" lon="9.349744115005512"><ele>431.0</ele><time>2026-04-30T14:37:54.996Z</time></trkpt><trkpt lat="44.692048028324585" lon="9.349899533751518"><ele>431.0</ele><time>2026-04-30T14:37:55.996Z</time></trkpt><trkpt lat="44.69213802843519" lon="9.350016900803348"><ele>432.5</ele><time>2026-04-30T14:37:56.996Z</time></trkpt><trkpt lat="44.69224129746235" lon="9.350112278975942"><ele>434.0</ele><time>2026-04-30T14:37:57.996Z</time></trkpt><trkpt lat="44.69231134409657" lon="9.350252119004674"><ele>435.5</ele><time>2026-04-30T14:37:58.996Z</time></trkpt><trkpt lat="44.69236017445987" lon="9.350406798322238"><ele>437.0</ele><time>2026-04-30T14:37:59.996Z</time></trkpt><trkpt lat="44.69242554111741" lon="9.350589405563788"><ele>437.0</ele><time>2026-04-30T14:38:00.996Z</time></trkpt><trkpt lat="44.69253141905093" lon="9.35074110084322"><ele>437.0</ele><time>2026-04-30T14:38:01.996Z</time></trkpt><trkpt lat="44.69264004189263" lon="9.350877765233921"><ele>437.0</ele><time>2026-04-30T14:38:02.996Z</time></trkpt><trkpt lat="44.692741843401954" lon="9.351005847300645"><ele>437.0</ele><time>2026-04-30T14:38:03.996Z</time></trkpt><trkpt lat="44.69282929866692" lon="9.351118051319034"><ele>444.5</ele><time>2026-04-30T14:38:04.996Z</time></trkpt><trkpt lat="44.69287616462261" lon="9.351242761556229"><ele>452.0</ele><time>2026-04-30T14:38:05.996Z</time></trkpt><trkpt lat="44.69289674784428" lon="9.35141219124318"><ele>459.5</ele><time>2026-04-30T14:38:06.996Z</time></trkpt><trkpt lat="44.69293866854315" lon="9.351580791312225"><ele>467.0</ele><time>2026-04-30T14:38:07.996Z</time></trkpt><trkpt lat="44.692999763860406" lon="9.351717148265447"><ele>467.0</ele><time>2026-04-30T14:38:08.996Z</time></trkpt><trkpt lat="44.69306379396027" lon="9.351849775669015"><ele>467.0</ele><time>2026-04-30T14:38:09.996Z</time></trkpt><trkpt lat="44.693129220921676" lon="9.35198748872697"><ele>467.0</ele><time>2026-04-30T14:38:10.996Z</time></trkpt><trkpt lat="44.69319246721281" lon="9.352122263625837"><ele>467.0</ele><time>2026-04-30T14:38:11.996Z</time></trkpt><trkpt lat="44.693249710851525" lon="9.352245607284573"><ele>462.99999999999994</ele><time>2026-04-30T14:38:12.996Z</time></trkpt><trkpt lat="44.693289972238816" lon="9.352356068314627"><ele>459.0</ele><time>2026-04-30T14:38:13.996Z</time></trkpt><trkpt lat="44.69330521503878" lon="9.352462764894328"><ele>455.0</ele><time>2026-04-30T14:38:14.996Z</time></trkpt><trkpt lat="44.69329776505993" lon="9.352573691143956"><ele>451.0</ele><time>2026-04-30T14:38:15.996Z</time></trkpt><trkpt lat="44.693276736723845" lon="9.352690217272478"><ele>446.99999999999994</ele><time>2026-04-30T14:38:16.996Z</time></trkpt><trkpt lat="44.693251487791095" lon="9.3528138903474"><ele>443.0</ele><time>2026-04-30T14:38:17.996Z</time></trkpt><trkpt lat="44.69324212665347" lon="9.352948974945004"><ele>447.0</ele><time>2026-04-30T14:38:18.996Z</time></trkpt><trkpt lat="44.693264182146194" lon="9.353087718125334"><ele>450.99999999999994</ele><time>2026-04-30T14:38:19.996Z</time></trkpt><trkpt lat="44.69332557759188" lon="9.35319404511166"><ele>454.99999999999994</ele><time>2026-04-30T14:38:20.996Z</time></trkpt><trkpt lat="44.693408493178325" lon="9.353248400444212"><ele>459.0</ele><time>2026-04-30T14:38:21.996Z</time></trkpt><trkpt lat="44.69350506797241" lon="9.35323693681396"><ele>463.0</ele><time>2026-04-30T14:38:22.996Z</time></trkpt><trkpt lat="44.69360602964478" lon="9.353246879875666"><ele>463.0</ele><time>2026-04-30T14:38:23.996Z</time></trkpt><trkpt lat="44.69370777028289" lon="9.353219243856937"><ele>462.99999999999994</ele><time>2026-04-30T14:38:24.996Z</time></trkpt><trkpt lat="44.69379571491121" lon="9.353268422165808"><ele>462.99999999999994</ele><time>2026-04-30T14:38:25.996Z</time></trkpt><trkpt lat="44.69385093198285" lon="9.353351108212104"><ele>463.0</ele><time>2026-04-30T14:38:26.996Z</time></trkpt><trkpt lat="44.69390219176501" lon="9.353454439743707"><ele>463.0</ele><time>2026-04-30T14:38:27.996Z</time></trkpt><trkpt lat="44.69397623591265" lon="9.3535191511568"><ele>463.00000000000006</ele><time>2026-04-30T14:38:28.996Z</time></trkpt><trkpt lat="44.69406045385667" lon="9.35353030564879"><ele>463.0</ele><time>2026-04-30T14:38:29.996Z</time></trkpt><trkpt lat="44.69414733226561" lon="9.353515177409639"><ele>463.0</ele><time>2026-04-30T14:38:30.996Z</time></trkpt><trkpt lat="44.69423615099763" lon="9.35349535886789"><ele>463.0</ele><time>2026-04-30T14:38:31.996Z</time></trkpt><trkpt lat="44.69432652581202" lon="9.353454128663724"><ele>463.00000000000006</ele><time>2026-04-30T14:38:32.996Z</time></trkpt><trkpt lat="44.6944164521514" lon="9.35344730149473"><ele>463.0</ele><time>2026-04-30T14:38:33.996Z</time></trkpt><trkpt lat="44.69450092523276" lon="9.353444579359422"><ele>465.50000000000006</ele><time>2026-04-30T14:38:34.996Z</time></trkpt><trkpt lat="44.69458312021244" lon="9.353454078035243"><ele>468.0</ele><time>2026-04-30T14:38:35.996Z</time></trkpt><trkpt lat="44.69464619634834" lon="9.353513547138752"><ele>470.5</ele><time>2026-04-30T14:38:36.996Z</time></trkpt><trkpt lat="44.694670555383105" lon="9.353604578021757"><ele>473.0</ele><time>2026-04-30T14:38:37.996Z</time></trkpt><trkpt lat="44.69467607914629" lon="9.353698374136187"><ele>475.50000000000006</ele><time>2026-04-30T14:38:38.996Z</time></trkpt><trkpt lat="44.69464463408652" lon="9.353851958819286"><ele>478.0</ele><time>2026-04-30T14:38:40.996Z</time></trkpt><trkpt lat="44.694632047809506" lon="9.353955656905178"><ele>478.00000000000006</ele><time>2026-04-30T14:38:42.996Z</time></trkpt><trkpt lat="44.69465768253906" lon="9.354059352221606"><ele>478.0</ele><time>2026-04-30T14:38:45.996Z</time></trkpt><trkpt lat="44.694676558985854" lon="9.354198601913104"><ele>478.0</ele><time>2026-04-30T14:38:54.996Z</time></trkpt><trkpt lat="44.694715605981216" lon="9.354288603993812"><ele>478.0</ele><time>2026-04-30T14:38:55.996Z</time></trkpt><trkpt lat="44.694766045955554" lon="9.354388261196725"><ele>478.00000000000006</ele><time>2026-04-30T14:38:56.995Z</time></trkpt><trkpt lat="44.69480643213085" lon="9.35446998877156"><ele>478.0</ele><time>2026-04-30T14:38:57.995Z</time></trkpt><trkpt lat="44.69484456989101" lon="9.354548407678022"><ele>478.0</ele><time>2026-04-30T14:38:58.995Z</time></trkpt><trkpt lat="44.69485247444405" lon="9.354676478514037"><ele>477.99999999999994</ele><time>2026-04-30T14:38:59.995Z</time></trkpt><trkpt lat="44.69482975002405" lon="9.354831183486496"><ele>477.99999999999994</ele><time>2026-04-30T14:39:00.995Z</time></trkpt><trkpt lat="44.69480069287584" lon="9.354987968121144"><ele>478.0</ele><time>2026-04-30T14:39:01.995Z</time></trkpt><trkpt lat="44.694785569983765" lon="9.355154550148418"><ele>478.0</ele><time>2026-04-30T14:39:02.995Z</time></trkpt><trkpt lat="44.69475495778922" lon="9.355300883598469"><ele>476.4</ele><time>2026-04-30T14:39:03.995Z</time></trkpt><trkpt lat="44.694687739262086" lon="9.355451135073638"><ele>474.79999999999995</ele><time>2026-04-30T14:39:04.995Z</time></trkpt><trkpt lat="44.6947098867825" lon="9.355592414357623"><ele>473.2</ele><time>2026-04-30T14:39:05.995Z</time></trkpt><trkpt lat="44.69476133130178" lon="9.355723600575642"><ele>471.6</ele><time>2026-04-30T14:39:06.995Z</time></trkpt><trkpt lat="44.69481287787678" lon="9.355849513813714"><ele>470.0</ele><time>2026-04-30T14:39:07.995Z</time></trkpt><trkpt lat="44.694885581519" lon="9.35593999221011"><ele>470.0</ele><time>2026-04-30T14:39:08.995Z</time></trkpt><trkpt lat="44.694906255778" lon="9.356092966215526"><ele>470.0</ele><time>2026-04-30T14:39:09.995Z</time></trkpt><trkpt lat="44.69487959333751" lon="9.356252183934984"><ele>470.0</ele><time>2026-04-30T14:39:10.995Z</time></trkpt><trkpt lat="44.69484223402178" lon="9.356426895204523"><ele>470.0</ele><time>2026-04-30T14:39:11.995Z</time></trkpt><trkpt lat="44.694817740139406" lon="9.35661838581165"><ele>470.75</ele><time>2026-04-30T14:39:12.995Z</time></trkpt><trkpt lat="44.694777883361574" lon="9.356802967057975"><ele>471.5</ele><time>2026-04-30T14:39:13.995Z</time></trkpt><trkpt lat="44.69472969593678" lon="9.356983970792466"><ele>472.25</ele><time>2026-04-30T14:39:14.995Z</time></trkpt><trkpt lat="44.69468352519512" lon="9.357150106301606"><ele>473.0</ele><time>2026-04-30T14:39:15.995Z</time></trkpt><trkpt lat="44.69464604382997" lon="9.357301327436968"><ele>476.25</ele><time>2026-04-30T14:39:16.995Z</time></trkpt><trkpt lat="44.69456538657466" lon="9.357436536942114"><ele>479.5</ele><time>2026-04-30T14:39:17.995Z</time></trkpt><trkpt lat="44.694437346348465" lon="9.357524195289853"><ele>482.75</ele><time>2026-04-30T14:39:18.995Z</time></trkpt><trkpt lat="44.69430322733751" lon="9.357606515313444"><ele>486.0</ele><time>2026-04-30T14:39:19.995Z</time></trkpt><trkpt lat="44.69417857760558" lon="9.357696227747137"><ele>481.25</ele><time>2026-04-30T14:39:20.995Z</time></trkpt><trkpt lat="44.69407315695352" lon="9.357812534310805"><ele>476.5</ele><time>2026-04-30T14:39:21.995Z</time></trkpt><trkpt lat="44.69399624642991" lon="9.357949909842386"><ele>471.75</ele><time>2026-04-30T14:39:22.995Z</time></trkpt><trkpt lat="44.6939528824042" lon="9.358091501204942"><ele>467.0</ele><time>2026-04-30T14:39:23.995Z</time></trkpt><trkpt lat="44.693878421541065" lon="9.358253084376528"><ele>467.0</ele><time>2026-04-30T14:39:24.995Z</time></trkpt><trkpt lat="44.69391651241146" lon="9.358468664545507"><ele>467.0</ele><time>2026-04-30T14:39:25.995Z</time></trkpt><trkpt lat="44.69399802805267" lon="9.358611477338913"><ele>467.0</ele><time>2026-04-30T14:39:26.995Z</time></trkpt><trkpt lat="44.69409076339148" lon="9.358761410949596"><ele>467.0</ele><time>2026-04-30T14:39:27.995Z</time></trkpt><trkpt lat="44.69418719512958" lon="9.358919548055363"><ele>469.0</ele><time>2026-04-30T14:39:28.995Z</time></trkpt><trkpt lat="44.694281651773736" lon="9.359075311442204"><ele>471.0</ele><time>2026-04-30T14:39:29.995Z</time></trkpt><trkpt lat="44.69437648397116" lon="9.359231347379245"><ele>473.0</ele><time>2026-04-30T14:39:30.995Z</time></trkpt><trkpt lat="44.694530331992254" lon="9.359345997995693"><ele>473.0</ele><time>2026-04-30T14:39:31.995Z</time></trkpt><trkpt lat="44.694667487149246" lon="9.359319857611222"><ele>473.0</ele><time>2026-04-30T14:39:32.995Z</time></trkpt><trkpt lat="44.694797757496886" lon="9.35928545635255"><ele>473.0</ele><time>2026-04-30T14:39:33.995Z</time></trkpt><trkpt lat="44.69493575572981" lon="9.359243853522559"><ele>473.0</ele><time>2026-04-30T14:39:34.995Z</time></trkpt><trkpt lat="44.69506736906412" lon="9.359201818209096"><ele>473.0</ele><time>2026-04-30T14:39:35.995Z</time></trkpt><trkpt lat="44.69518690689322" lon="9.3591608291825"><ele>472.99999999999994</ele><time>2026-04-30T14:39:36.995Z</time></trkpt><trkpt lat="44.6952933424809" lon="9.359135480086508"><ele>472.99999999999994</ele><time>2026-04-30T14:39:37.995Z</time></trkpt><trkpt lat="44.695389794312625" lon="9.35910117111449"><ele>473.0</ele><time>2026-04-30T14:39:38.995Z</time></trkpt><trkpt lat="44.695486106057935" lon="9.359172455660145"><ele>473.0</ele><time>2026-04-30T14:39:39.995Z</time></trkpt><trkpt lat="44.69555757216387" lon="9.359294867750432"><ele>474.75</ele><time>2026-04-30T14:39:40.995Z</time></trkpt><trkpt lat="44.69559215214503" lon="9.359445033427553"><ele>476.5</ele><time>2026-04-30T14:39:41.995Z</time></trkpt><trkpt lat="44.69558474476385" lon="9.3596170958025"><ele>478.25</ele><time>2026-04-30T14:39:42.995Z</time></trkpt><trkpt lat="44.695540541604416" lon="9.359801520618513"><ele>480.0</ele><time>2026-04-30T14:39:43.995Z</time></trkpt><trkpt lat="44.69548233826082" lon="9.359997353814371"><ele>480.0</ele><time>2026-04-30T14:39:44.995Z</time></trkpt><trkpt lat="44.69542418631914" lon="9.360206917926645"><ele>480.0</ele><time>2026-04-30T14:39:45.995Z</time></trkpt><trkpt lat="44.695369045650146" lon="9.36042088005245"><ele>480.0</ele><time>2026-04-30T14:39:46.995Z</time></trkpt><trkpt lat="44.695319466624014" lon="9.36065099705799"><ele>479.33333333333337</ele><time>2026-04-30T14:39:47.995Z</time></trkpt><trkpt lat="44.695290764409066" lon="9.360893734409203"><ele>478.6666666666667</ele><time>2026-04-30T14:39:48.995Z</time></trkpt><trkpt lat="44.69527633978699" lon="9.361115184551357"><ele>478.0</ele><time>2026-04-30T14:39:49.995Z</time></trkpt><trkpt lat="44.69527496025625" lon="9.361338010424978"><ele>479.5</ele><time>2026-04-30T14:39:50.995Z</time></trkpt><trkpt lat="44.695328026588165" lon="9.361532862672378"><ele>481.0</ele><time>2026-04-30T14:39:51.995Z</time></trkpt><trkpt lat="44.695372575463544" lon="9.361724754004674"><ele>482.5</ele><time>2026-04-30T14:39:52.995Z</time></trkpt><trkpt lat="44.695367824043586" lon="9.361909603285492"><ele>484.0</ele><time>2026-04-30T14:39:53.995Z</time></trkpt><trkpt lat="44.69529995231421" lon="9.362021262796773"><ele>478.25</ele><time>2026-04-30T14:39:54.995Z</time></trkpt><trkpt lat="44.69522747293975" lon="9.36208254317347"><ele>472.5</ele><time>2026-04-30T14:39:55.995Z</time></trkpt><trkpt lat="44.69511971706657" lon="9.362137227659517"><ele>466.75</ele><time>2026-04-30T14:39:56.995Z</time></trkpt><trkpt lat="44.6949986444259" lon="9.362200375382361"><ele>461.0</ele><time>2026-04-30T14:39:57.995Z</time></trkpt><trkpt lat="44.69487590918293" lon="9.36229583689508"><ele>461.0</ele><time>2026-04-30T14:39:58.995Z</time></trkpt><trkpt lat="44.69478876164077" lon="9.362444604163368"><ele>461.0</ele><time>2026-04-30T14:39:59.995Z</time></trkpt><trkpt lat="44.69469589775602" lon="9.362574800086945"><ele>461.0</ele><time>2026-04-30T14:40:00.999Z</time></trkpt><trkpt lat="44.69462697360603" lon="9.362721319283644"><ele>461.0</ele><time>2026-04-30T14:40:01.999Z</time></trkpt><trkpt lat="44.694582013336436" lon="9.36288876855983"><ele>462.8</ele><time>2026-04-30T14:40:02.999Z</time></trkpt><trkpt lat="44.694580973407106" lon="9.363062653313715"><ele>464.6</ele><time>2026-04-30T14:40:03.999Z</time></trkpt><trkpt lat="44.69459195246269" lon="9.363221172928919"><ele>466.4</ele><time>2026-04-30T14:40:04.999Z</time></trkpt><trkpt lat="44.69460416145115" lon="9.363354184291467"><ele>468.2</ele><time>2026-04-30T14:40:05.999Z</time></trkpt><trkpt lat="44.69459275175835" lon="9.363466634342815"><ele>470.0</ele><time>2026-04-30T14:40:06.999Z</time></trkpt><trkpt lat="44.69455373473042" lon="9.363565347810288"><ele>469.99999999999994</ele><time>2026-04-30T14:40:07.999Z</time></trkpt><trkpt lat="44.69449187673763" lon="9.36361046025882"><ele>470.0</ele><time>2026-04-30T14:40:08.999Z</time></trkpt><trkpt lat="44.69442343776035" lon="9.363643848766184"><ele>470.0</ele><time>2026-04-30T14:40:09.999Z</time></trkpt><trkpt lat="44.69436715794517" lon="9.36369381535563"><ele>470.0</ele><time>2026-04-30T14:40:10.999Z</time></trkpt><trkpt lat="44.69427899825293" lon="9.363779123101375"><ele>469.99999999999994</ele><time>2026-04-30T14:40:12.999Z</time></trkpt><trkpt lat="44.69424690942087" lon="9.363862053942634"><ele>470.0</ele><time>2026-04-30T14:40:16.999Z</time></trkpt><trkpt lat="44.69431717595378" lon="9.364023764471831"><ele>465.2</ele><time>2026-04-30T14:43:44.997Z</time></trkpt><trkpt lat="44.69439034009626" lon="9.364039403403778"><ele>460.4</ele><time>2026-04-30T14:43:45.997Z</time></trkpt><trkpt lat="44.69451748956933" lon="9.364040286107839"><ele>455.6</ele><time>2026-04-30T14:43:47.997Z</time></trkpt><trkpt lat="44.69459332389113" lon="9.36402844397764"><ele>450.8</ele><time>2026-04-30T14:43:48.997Z</time></trkpt><trkpt lat="44.694675545603886" lon="9.363987064959874"><ele>446.0</ele><time>2026-04-30T14:43:49.997Z</time></trkpt><trkpt lat="44.69476764113275" lon="9.363971579224446"><ele>446.0</ele><time>2026-04-30T14:43:50.997Z</time></trkpt><trkpt lat="44.69488484781553" lon="9.363970772822698"><ele>446.0</ele><time>2026-04-30T14:43:51.997Z</time></trkpt><trkpt lat="44.6950131581358" lon="9.363948314330013"><ele>446.0</ele><time>2026-04-30T14:43:52.997Z</time></trkpt><trkpt lat="44.69514838710869" lon="9.363924644878745"><ele>446.0</ele><time>2026-04-30T14:43:53.997Z</time></trkpt><trkpt lat="44.695284295345" lon="9.36390085652492"><ele>444.0</ele><time>2026-04-30T14:43:54.997Z</time></trkpt><trkpt lat="44.69542008482791" lon="9.363876152062586"><ele>442.0</ele><time>2026-04-30T14:43:55.997Z</time></trkpt><trkpt lat="44.69554724572093" lon="9.363853270741037"><ele>440.0</ele><time>2026-04-30T14:43:56.997Z</time></trkpt><trkpt lat="44.6956749970986" lon="9.36384660238345"><ele>438.0</ele><time>2026-04-30T14:43:57.997Z</time></trkpt><trkpt lat="44.69580360923168" lon="9.363866401985286"><ele>438.0</ele><time>2026-04-30T14:43:58.997Z</time></trkpt><trkpt lat="44.69592292838629" lon="9.363929265032306"><ele>438.0</ele><time>2026-04-30T14:43:59.997Z</time></trkpt><trkpt lat="44.6960526742484" lon="9.363988840367774"><ele>438.0</ele><time>2026-04-30T14:44:00.997Z</time></trkpt><trkpt lat="44.696192160634766" lon="9.364014711545043"><ele>438.0</ele><time>2026-04-30T14:44:01.997Z</time></trkpt><trkpt lat="44.69632912231138" lon="9.364034305533925"><ele>439.5</ele><time>2026-04-30T14:44:02.997Z</time></trkpt><trkpt lat="44.69646542497075" lon="9.364054880996783"><ele>441.0</ele><time>2026-04-30T14:44:03.997Z</time></trkpt><trkpt lat="44.69659887592654" lon="9.36407099700987"><ele>442.5</ele><time>2026-04-30T14:44:04.997Z</time></trkpt><trkpt lat="44.69673653494026" lon="9.36408735724038"><ele>444.0</ele><time>2026-04-30T14:44:05.997Z</time></trkpt><trkpt lat="44.69687412704028" lon="9.364077707088978"><ele>441.75</ele><time>2026-04-30T14:44:06.997Z</time></trkpt><trkpt lat="44.69699634559105" lon="9.364013911685648"><ele>439.5</ele><time>2026-04-30T14:44:07.997Z</time></trkpt><trkpt lat="44.69711430587128" lon="9.363978456904533"><ele>437.25</ele><time>2026-04-30T14:44:08.997Z</time></trkpt><trkpt lat="44.69721878247303" lon="9.36401727224831"><ele>435.0</ele><time>2026-04-30T14:44:09.997Z</time></trkpt><trkpt lat="44.697363584026576" lon="9.364055709710941"><ele>435.0</ele><time>2026-04-30T14:44:10.997Z</time></trkpt><trkpt lat="44.69749712836446" lon="9.36406658470966"><ele>435.0</ele><time>2026-04-30T14:44:11.997Z</time></trkpt><trkpt lat="44.697617823401494" lon="9.364076218464403"><ele>435.0</ele><time>2026-04-30T14:44:12.997Z</time></trkpt><trkpt lat="44.697701908026495" lon="9.364074226175136"><ele>435.0</ele><time>2026-04-30T14:44:13.997Z</time></trkpt><trkpt lat="44.697775854283016" lon="9.364124019824052"><ele>435.0</ele><time>2026-04-30T14:44:14.997Z</time></trkpt><trkpt lat="44.697838821991866" lon="9.364246874250991"><ele>430.5</ele><time>2026-04-30T14:44:15.997Z</time></trkpt><trkpt lat="44.69790063832897" lon="9.36439277349698"><ele>426.0</ele><time>2026-04-30T14:44:16.997Z</time></trkpt><trkpt lat="44.69796255150317" lon="9.364531426655592"><ele>421.5</ele><time>2026-04-30T14:44:17.997Z</time></trkpt><trkpt lat="44.69804596409335" lon="9.36467458587555"><ele>417.0</ele><time>2026-04-30T14:44:18.997Z</time></trkpt><trkpt lat="44.6981569054836" lon="9.364785005826578"><ele>417.0</ele><time>2026-04-30T14:44:19.997Z</time></trkpt><trkpt lat="44.698279671559284" lon="9.364837358696484"><ele>417.0</ele><time>2026-04-30T14:44:20.997Z</time></trkpt><trkpt lat="44.69839583827922" lon="9.364845883826645"><ele>417.0</ele><time>2026-04-30T14:44:21.997Z</time></trkpt><trkpt lat="44.69849134050802" lon="9.364854842951473"><ele>417.0</ele><time>2026-04-30T14:44:22.997Z</time></trkpt><trkpt lat="44.69857820133816" lon="9.364917810434786"><ele>417.0</ele><time>2026-04-30T14:44:23.997Z</time></trkpt><trkpt lat="44.6986383211792" lon="9.365016922194757"><ele>418.20000000000005</ele><time>2026-04-30T14:44:24.997Z</time></trkpt><trkpt lat="44.69870388074416" lon="9.36516189685884"><ele>419.4</ele><time>2026-04-30T14:44:25.997Z</time></trkpt><trkpt lat="44.69876488156912" lon="9.365306715028913"><ele>420.6</ele><time>2026-04-30T14:44:26.997Z</time></trkpt><trkpt lat="44.69881342559122" lon="9.365419059544847"><ele>421.79999999999995</ele><time>2026-04-30T14:44:27.997Z</time></trkpt><trkpt lat="44.69885135819278" lon="9.365498080367585"><ele>423.0</ele><time>2026-04-30T14:44:28.997Z</time></trkpt><trkpt lat="44.69885024263383" lon="9.36562854076744"><ele>423.0</ele><time>2026-04-30T14:44:29.997Z</time></trkpt><trkpt lat="44.698808899035086" lon="9.365798735714863"><ele>423.0</ele><time>2026-04-30T14:44:30.997Z</time></trkpt><trkpt lat="44.69887323713936" lon="9.366020872698845"><ele>423.0</ele><time>2026-04-30T14:44:31.997Z</time></trkpt><trkpt lat="44.69898177740221" lon="9.366100685602"><ele>423.0</ele><time>2026-04-30T14:44:32.997Z</time></trkpt><trkpt lat="44.69907709339912" lon="9.366149048420418"><ele>423.0</ele><time>2026-04-30T14:44:33.997Z</time></trkpt><trkpt lat="44.69915306101506" lon="9.366205087609439"><ele>423.0</ele><time>2026-04-30T14:44:34.997Z</time></trkpt><trkpt lat="44.699247498537915" lon="9.366315673703912"><ele>423.0</ele><time>2026-04-30T14:44:35.997Z</time></trkpt><trkpt lat="44.69940396092249" lon="9.366375735569267"><ele>423.0</ele><time>2026-04-30T14:44:36.997Z</time></trkpt><trkpt lat="44.69953128054733" lon="9.366347789605154"><ele>427.5</ele><time>2026-04-30T14:44:37.997Z</time></trkpt><trkpt lat="44.69965927715136" lon="9.366312746870237"><ele>432.0</ele><time>2026-04-30T14:44:38.997Z</time></trkpt><trkpt lat="44.699796695583856" lon="9.366259684348645"><ele>436.5</ele><time>2026-04-30T14:44:39.997Z</time></trkpt><trkpt lat="44.699936653009466" lon="9.36622596431135"><ele>441.0</ele><time>2026-04-30T14:44:40.997Z</time></trkpt><trkpt lat="44.70006252620913" lon="9.366179467735686"><ele>441.0</ele><time>2026-04-30T14:44:41.997Z</time></trkpt><trkpt lat="44.7001788135694" lon="9.366176449697798"><ele>441.0</ele><time>2026-04-30T14:44:42.997Z</time></trkpt><trkpt lat="44.700273928203906" lon="9.366169915748975"><ele>441.0</ele><time>2026-04-30T14:44:43.997Z</time></trkpt><trkpt lat="44.70034261005626" lon="9.36621277868364"><ele>441.0</ele><time>2026-04-30T14:44:44.997Z</time></trkpt><trkpt lat="44.70040351298685" lon="9.366288878690519"><ele>441.0</ele><time>2026-04-30T14:44:45.997Z</time></trkpt><trkpt lat="44.700455190019795" lon="9.366366772324906"><ele>441.0</ele><time>2026-04-30T14:44:46.997Z</time></trkpt><trkpt lat="44.70050246293026" lon="9.36653701414335"><ele>439.5</ele><time>2026-04-30T14:44:48.997Z</time></trkpt><trkpt lat="44.70046233286946" lon="9.366689828456177"><ele>438.0</ele><time>2026-04-30T14:44:49.997Z</time></trkpt><trkpt lat="44.70042447377575" lon="9.366849705122045"><ele>436.5</ele><time>2026-04-30T14:44:50.997Z</time></trkpt><trkpt lat="44.700409980067974" lon="9.367052512296889"><ele>435.0</ele><time>2026-04-30T14:44:51.997Z</time></trkpt><trkpt lat="44.7004809775094" lon="9.36726053817415"><ele>428.33333333333337</ele><time>2026-04-30T14:44:52.997Z</time></trkpt><trkpt lat="44.700601307149675" lon="9.367411264067968"><ele>421.6666666666667</ele><time>2026-04-30T14:44:53.997Z</time></trkpt><trkpt lat="44.70071729956791" lon="9.367532505128368"><ele>415.0</ele><time>2026-04-30T14:44:54.997Z</time></trkpt><trkpt lat="44.70084469337101" lon="9.367660264929162"><ele>415.0</ele><time>2026-04-30T14:44:55.997Z</time></trkpt><trkpt lat="44.700961065622174" lon="9.367776011345946"><ele>415.0</ele><time>2026-04-30T14:44:56.997Z</time></trkpt><trkpt lat="44.70105379234024" lon="9.367865438623824"><ele>415.0</ele><time>2026-04-30T14:44:57.997Z</time></trkpt><trkpt lat="44.70113972914241" lon="9.367997240547531"><ele>415.0</ele><time>2026-04-30T14:44:58.997Z</time></trkpt><trkpt lat="44.701207304439215" lon="9.368151744010886"><ele>419.6666666666667</ele><time>2026-04-30T14:44:59.997Z</time></trkpt><trkpt lat="44.7012674001738" lon="9.368322579291409"><ele>424.33333333333337</ele><time>2026-04-30T14:45:00.997Z</time></trkpt><trkpt lat="44.70133039239562" lon="9.36855103032178"><ele>429.0</ele><time>2026-04-30T14:45:01.996Z</time></trkpt><trkpt lat="44.701441538673606" lon="9.368713588224416"><ele>429.0</ele><time>2026-04-30T14:45:02.996Z</time></trkpt><trkpt lat="44.70153593884847" lon="9.368818171097534"><ele>429.0</ele><time>2026-04-30T14:45:03.996Z</time></trkpt><trkpt lat="44.70159367758167" lon="9.36887854159425"><ele>429.0</ele><time>2026-04-30T14:45:04.996Z</time></trkpt><trkpt lat="44.70163909416328" lon="9.368988105584723"><ele>429.0</ele><time>2026-04-30T14:45:05.996Z</time></trkpt><trkpt lat="44.70167006894034" lon="9.3691457354245"><ele>429.0</ele><time>2026-04-30T14:45:06.996Z</time></trkpt><trkpt lat="44.70169544294819" lon="9.369341483036914"><ele>425.75</ele><time>2026-04-30T14:45:07.996Z</time></trkpt><trkpt lat="44.701748006019116" lon="9.369553141132055"><ele>422.5</ele><time>2026-04-30T14:45:08.996Z</time></trkpt><trkpt lat="44.70181288291665" lon="9.369682584930676"><ele>419.25</ele><time>2026-04-30T14:45:09.996Z</time></trkpt><trkpt lat="44.70193952461552" lon="9.369777288702089"><ele>416.0</ele><time>2026-04-30T14:45:11.996Z</time></trkpt><trkpt lat="44.70186807603839" lon="9.369907168091911"><ele>409.0</ele><time>2026-04-30T14:45:12.996Z</time></trkpt><trkpt lat="44.70181593166577" lon="9.370053579862697"><ele>402.0</ele><time>2026-04-30T14:45:13.996Z</time></trkpt><trkpt lat="44.70180893870816" lon="9.370213245118613"><ele>395.0</ele><time>2026-04-30T14:45:14.996Z</time></trkpt><trkpt lat="44.70174410948703" lon="9.370374086959481"><ele>388.0</ele><time>2026-04-30T14:45:15.996Z</time></trkpt><trkpt lat="44.701729222599226" lon="9.370639961768852"><ele>392.0</ele><time>2026-04-30T14:45:16.996Z</time></trkpt><trkpt lat="44.7018123479631" lon="9.37085996003182"><ele>396.0</ele><time>2026-04-30T14:45:17.996Z</time></trkpt><trkpt lat="44.701931452977384" lon="9.371030664657582"><ele>400.0</ele><time>2026-04-30T14:45:18.996Z</time></trkpt><trkpt lat="44.70214369140944" lon="9.371197579705694"><ele>400.0</ele><time>2026-04-30T14:45:19.996Z</time></trkpt><trkpt lat="44.70229910308748" lon="9.371262829038402"><ele>400.0</ele><time>2026-04-30T14:45:20.996Z</time></trkpt><trkpt lat="44.70245657026339" lon="9.371324412079645"><ele>400.0</ele><time>2026-04-30T14:45:21.996Z</time></trkpt><trkpt lat="44.702608716516686" lon="9.371382719571175"><ele>396.0</ele><time>2026-04-30T14:45:22.996Z</time></trkpt><trkpt lat="44.70276637651974" lon="9.371441937478792"><ele>392.0</ele><time>2026-04-30T14:45:23.996Z</time></trkpt><trkpt lat="44.702915724843955" lon="9.37149969001971"><ele>388.0</ele><time>2026-04-30T14:45:24.996Z</time></trkpt><trkpt lat="44.703063393614826" lon="9.371561120401406"><ele>388.0</ele><time>2026-04-30T14:45:25.996Z</time></trkpt><trkpt lat="44.70316731406544" lon="9.37165001486624"><ele>388.0</ele><time>2026-04-30T14:45:26.996Z</time></trkpt><trkpt lat="44.70326028343219" lon="9.371792454465051"><ele>388.0</ele><time>2026-04-30T14:45:27.996Z</time></trkpt><trkpt lat="44.7033609130749" lon="9.371973617797366"><ele>388.0</ele><time>2026-04-30T14:45:28.996Z</time></trkpt><trkpt lat="44.70345836864266" lon="9.372160104914022"><ele>387.33333333333337</ele><time>2026-04-30T14:45:29.996Z</time></trkpt><trkpt lat="44.703553554003115" lon="9.37231328710833"><ele>386.66666666666663</ele><time>2026-04-30T14:45:30.996Z</time></trkpt><trkpt lat="44.7036321647348" lon="9.37249081034046"><ele>386.0</ele><time>2026-04-30T14:45:31.996Z</time></trkpt><trkpt lat="44.70376296539119" lon="9.372635597532385"><ele>386.0</ele><time>2026-04-30T14:45:32.996Z</time></trkpt><trkpt lat="44.703880564533556" lon="9.37275988818861"><ele>386.0</ele><time>2026-04-30T14:45:33.996Z</time></trkpt><trkpt lat="44.70400273772711" lon="9.372853262018307"><ele>386.0</ele><time>2026-04-30T14:45:34.996Z</time></trkpt><trkpt lat="44.704118622637274" lon="9.372920397070189"><ele>386.0</ele><time>2026-04-30T14:45:35.996Z</time></trkpt><trkpt lat="44.70423794449977" lon="9.372918555632927"><ele>386.0</ele><time>2026-04-30T14:45:36.996Z</time></trkpt><trkpt lat="44.704372936844045" lon="9.372902937120655"><ele>386.0</ele><time>2026-04-30T14:45:37.996Z</time></trkpt><trkpt lat="44.70451157585212" lon="9.372891490388772"><ele>386.0</ele><time>2026-04-30T14:45:38.996Z</time></trkpt><trkpt lat="44.70464855059975" lon="9.37288981565291"><ele>386.0</ele><time>2026-04-30T14:45:39.996Z</time></trkpt><trkpt lat="44.70477108666778" lon="9.3728991370629"><ele>387.5</ele><time>2026-04-30T14:45:40.996Z</time></trkpt><trkpt lat="44.704895695098024" lon="9.372970859503885"><ele>389.0</ele><time>2026-04-30T14:45:41.996Z</time></trkpt><trkpt lat="44.7050221843827" lon="9.37304466776798"><ele>390.5</ele><time>2026-04-30T14:45:42.996Z</time></trkpt><trkpt lat="44.705144998537456" lon="9.373075919520936"><ele>392.0</ele><time>2026-04-30T14:45:43.996Z</time></trkpt><trkpt lat="44.70526224123993" lon="9.373097889519"><ele>388.75</ele><time>2026-04-30T14:45:44.996Z</time></trkpt><trkpt lat="44.70535149160419" lon="9.373193020096819"><ele>385.5</ele><time>2026-04-30T14:45:45.996Z</time></trkpt><trkpt lat="44.705428859594186" lon="9.373329786979623"><ele>382.25</ele><time>2026-04-30T14:45:46.996Z</time></trkpt><trkpt lat="44.70552793303602" lon="9.373458756840693"><ele>379.0</ele><time>2026-04-30T14:45:47.996Z</time></trkpt><trkpt lat="44.705623822163744" lon="9.373614520042931"><ele>379.0</ele><time>2026-04-30T14:45:48.996Z</time></trkpt><trkpt lat="44.705711105862285" lon="9.373776445056277"><ele>379.0</ele><time>2026-04-30T14:45:49.996Z</time></trkpt><trkpt lat="44.70577916286654" lon="9.373900201174875"><ele>379.0</ele><time>2026-04-30T14:45:50.996Z</time></trkpt><trkpt lat="44.70581390434585" lon="9.374024817457483"><ele>379.0</ele><time>2026-04-30T14:45:51.996Z</time></trkpt><trkpt lat="44.705813921577985" lon="9.374209758665952"><ele>373.0</ele><time>2026-04-30T14:45:52.996Z</time></trkpt><trkpt lat="44.70576907041905" lon="9.374417204300505"><ele>367.0</ele><time>2026-04-30T14:45:53.996Z</time></trkpt><trkpt lat="44.70571871091543" lon="9.374627329875716"><ele>361.0</ele><time>2026-04-30T14:45:54.996Z</time></trkpt><trkpt lat="44.70564873026098" lon="9.374830746100919"><ele>359.66666666666663</ele><time>2026-04-30T14:45:55.996Z</time></trkpt><trkpt lat="44.70558256479862" lon="9.375036080759612"><ele>358.3333333333333</ele><time>2026-04-30T14:45:56.996Z</time></trkpt><trkpt lat="44.705536702952095" lon="9.375243960117482"><ele>357.0</ele><time>2026-04-30T14:45:57.996Z</time></trkpt><trkpt lat="44.70550439088678" lon="9.375443325823552"><ele>356.0</ele><time>2026-04-30T14:45:58.996Z</time></trkpt><trkpt lat="44.70550464080744" lon="9.375626224886037"><ele>355.0</ele><time>2026-04-30T14:45:59.996Z</time></trkpt><trkpt lat="44.70550643874935" lon="9.375803173347032"><ele>354.0</ele><time>2026-04-30T14:46:00.996Z</time></trkpt><trkpt lat="44.705562681159336" lon="9.375960746534783"><ele>353.0</ele><time>2026-04-30T14:46:01.996Z</time></trkpt><trkpt lat="44.705626720196" lon="9.376126736568008"><ele>353.0</ele><time>2026-04-30T14:46:02.996Z</time></trkpt><trkpt lat="44.705683496051975" lon="9.376300715686279"><ele>353.0</ele><time>2026-04-30T14:46:03.996Z</time></trkpt><trkpt lat="44.70573322597644" lon="9.376483962414722"><ele>353.0</ele><time>2026-04-30T14:46:04.996Z</time></trkpt><trkpt lat="44.70580956862275" lon="9.376657195810456"><ele>353.0</ele><time>2026-04-30T14:46:05.996Z</time></trkpt><trkpt lat="44.70587685155825" lon="9.37681002075856"><ele>351.6666666666667</ele><time>2026-04-30T14:46:06.996Z</time></trkpt><trkpt lat="44.705994496963" lon="9.376930464597027"><ele>350.3333333333333</ele><time>2026-04-30T14:46:07.996Z</time></trkpt><trkpt lat="44.70613142877093" lon="9.377050931408085"><ele>349.0</ele><time>2026-04-30T14:46:08.996Z</time></trkpt><trkpt lat="44.70628265611591" lon="9.3771587629905"><ele>346.5</ele><time>2026-04-30T14:46:09.996Z</time></trkpt><trkpt lat="44.70640047373095" lon="9.377247392746542"><ele>344.0</ele><time>2026-04-30T14:46:10.996Z</time></trkpt><trkpt lat="44.706516431372" lon="9.377329719239443"><ele>341.5</ele><time>2026-04-30T14:46:11.996Z</time></trkpt><trkpt lat="44.706624550528325" lon="9.377408163928527"><ele>339.0</ele><time>2026-04-30T14:46:12.996Z</time></trkpt><trkpt lat="44.70671778322663" lon="9.37748930098686"><ele>339.0</ele><time>2026-04-30T14:46:13.996Z</time></trkpt><trkpt lat="44.70683456387571" lon="9.377463471542828"><ele>339.0</ele><time>2026-04-30T14:46:14.996Z</time></trkpt><trkpt lat="44.70690746166604" lon="9.377388071340288"><ele>339.0</ele><time>2026-04-30T14:46:15.996Z</time></trkpt><trkpt lat="44.70698227709516" lon="9.377258919345909"><ele>339.0</ele><time>2026-04-30T14:46:16.996Z</time></trkpt><trkpt lat="44.707065896924824" lon="9.377123015323177"><ele>340.5</ele><time>2026-04-30T14:46:17.996Z</time></trkpt><trkpt lat="44.707171997596056" lon="9.377014829246576"><ele>342.0</ele><time>2026-04-30T14:46:18.996Z</time></trkpt><trkpt lat="44.70729944191308" lon="9.376910465694898"><ele>343.5</ele><time>2026-04-30T14:46:19.996Z</time></trkpt><trkpt lat="44.707430004359686" lon="9.376872888520618"><ele>345.0</ele><time>2026-04-30T14:46:20.996Z</time></trkpt><trkpt lat="44.70756394782049" lon="9.376903256939586"><ele>345.0</ele><time>2026-04-30T14:46:21.996Z</time></trkpt><trkpt lat="44.707690238821996" lon="9.376875764655074"><ele>345.0</ele><time>2026-04-30T14:46:22.996Z</time></trkpt><trkpt lat="44.707814523860776" lon="9.37683904640601"><ele>345.0</ele><time>2026-04-30T14:46:23.996Z</time></trkpt><trkpt lat="44.70791078827431" lon="9.376912710740621"><ele>345.0</ele><time>2026-04-30T14:46:24.996Z</time></trkpt><trkpt lat="44.707976442216534" lon="9.376991142520348"><ele>342.5</ele><time>2026-04-30T14:46:25.996Z</time></trkpt><trkpt lat="44.708021706980645" lon="9.37711128313259"><ele>340.0</ele><time>2026-04-30T14:46:26.996Z</time></trkpt><trkpt lat="44.70804950027057" lon="9.377266536969367"><ele>337.5</ele><time>2026-04-30T14:46:27.996Z</time></trkpt><trkpt lat="44.70807959443957" lon="9.37744709971812"><ele>335.0</ele><time>2026-04-30T14:46:28.996Z</time></trkpt><trkpt lat="44.70812877739176" lon="9.37764625836807"><ele>335.0</ele><time>2026-04-30T14:46:29.995Z</time></trkpt><trkpt lat="44.70822195147673" lon="9.377806896877274"><ele>335.0</ele><time>2026-04-30T14:46:30.995Z</time></trkpt><trkpt lat="44.708342449990006" lon="9.377882823178878"><ele>335.0</ele><time>2026-04-30T14:46:31.995Z</time></trkpt><trkpt lat="44.708473020996195" lon="9.377936841930547"><ele>335.0</ele><time>2026-04-30T14:46:32.995Z</time></trkpt><trkpt lat="44.708602383705546" lon="9.377996156679712"><ele>331.25</ele><time>2026-04-30T14:46:33.995Z</time></trkpt><trkpt lat="44.70873052540817" lon="9.378071095220882"><ele>327.5</ele><time>2026-04-30T14:46:34.995Z</time></trkpt><trkpt lat="44.70886608134988" lon="9.37812707662611"><ele>323.75</ele><time>2026-04-30T14:46:35.995Z</time></trkpt><trkpt lat="44.70899567604505" lon="9.378159315639422"><ele>320.0</ele><time>2026-04-30T14:46:36.995Z</time></trkpt><trkpt lat="44.70912126988347" lon="9.378176731753163"><ele>320.0</ele><time>2026-04-30T14:46:37.995Z</time></trkpt><trkpt lat="44.709248588465655" lon="9.3781309348342"><ele>320.0</ele><time>2026-04-30T14:46:38.995Z</time></trkpt><trkpt lat="44.70938678964349" lon="9.378041564005143"><ele>320.0</ele><time>2026-04-30T14:46:39.995Z</time></trkpt><trkpt lat="44.709524741492736" lon="9.377995252986683"><ele>320.0</ele><time>2026-04-30T14:46:40.995Z</time></trkpt><trkpt lat="44.70966336745162" lon="9.377913977971803"><ele>322.75</ele><time>2026-04-30T14:46:41.995Z</time></trkpt><trkpt lat="44.70979512492649" lon="9.377800244022184"><ele>325.5</ele><time>2026-04-30T14:46:42.995Z</time></trkpt><trkpt lat="44.709904876082156" lon="9.377661901611827"><ele>328.25</ele><time>2026-04-30T14:46:43.995Z</time></trkpt><trkpt lat="44.70999877188343" lon="9.377551910686291"><ele>331.0</ele><time>2026-04-30T14:46:44.995Z</time></trkpt><trkpt lat="44.710122920481204" lon="9.377498294573225"><ele>329.25</ele><time>2026-04-30T14:46:45.995Z</time></trkpt><trkpt lat="44.71025750626308" lon="9.37749499748698"><ele>327.5</ele><time>2026-04-30T14:46:46.995Z</time></trkpt><trkpt lat="44.71037576099024" lon="9.377524881445433"><ele>325.75</ele><time>2026-04-30T14:46:47.995Z</time></trkpt><trkpt lat="44.7104711018385" lon="9.37761857774804"><ele>324.0</ele><time>2026-04-30T14:46:48.995Z</time></trkpt><trkpt lat="44.710562945325385" lon="9.377745429062413"><ele>324.0</ele><time>2026-04-30T14:46:49.995Z</time></trkpt><trkpt lat="44.71064378828537" lon="9.37792315176015"><ele>324.0</ele><time>2026-04-30T14:46:50.995Z</time></trkpt><trkpt lat="44.71072571214202" lon="9.378095629569678"><ele>324.0</ele><time>2026-04-30T14:46:51.995Z</time></trkpt><trkpt lat="44.7108205966031" lon="9.378284595862974"><ele>321.3333333333333</ele><time>2026-04-30T14:46:52.995Z</time></trkpt><trkpt lat="44.71091119517257" lon="9.378474424487829"><ele>318.66666666666663</ele><time>2026-04-30T14:46:53.995Z</time></trkpt><trkpt lat="44.71099945420972" lon="9.378659465837044"><ele>316.0</ele><time>2026-04-30T14:46:54.995Z</time></trkpt><trkpt lat="44.71108388726964" lon="9.378836486336633"><ele>315.25</ele><time>2026-04-30T14:46:55.995Z</time></trkpt><trkpt lat="44.711168460446956" lon="9.379012879154999"><ele>314.5</ele><time>2026-04-30T14:46:56.995Z</time></trkpt><trkpt lat="44.71124915848505" lon="9.379179604059928"><ele>313.75</ele><time>2026-04-30T14:46:57.995Z</time></trkpt><trkpt lat="44.71133037693099" lon="9.379351494448876"><ele>313.0</ele><time>2026-04-30T14:46:58.995Z</time></trkpt><trkpt lat="44.71140974448852" lon="9.379519979544225"><ele>313.0</ele><time>2026-04-30T14:46:59.995Z</time></trkpt><trkpt lat="44.711481593978185" lon="9.379672221331896"><ele>313.0</ele><time>2026-04-30T14:47:00.995Z</time></trkpt><trkpt lat="44.71158093038756" lon="9.37980450036517"><ele>313.0</ele><time>2026-04-30T14:47:01.995Z</time></trkpt><trkpt lat="44.71165082187786" lon="9.37992466419563"><ele>313.0</ele><time>2026-04-30T14:47:02.995Z</time></trkpt><trkpt lat="44.71173741252331" lon="9.38001020221357"><ele>314.25</ele><time>2026-04-30T14:47:03.995Z</time></trkpt><trkpt lat="44.711846868264864" lon="9.380062973038385"><ele>315.5</ele><time>2026-04-30T14:47:04.995Z</time></trkpt><trkpt lat="44.71197001296091" lon="9.380052801884629"><ele>316.75</ele><time>2026-04-30T14:47:05.995Z</time></trkpt><trkpt lat="44.712077656224416" lon="9.380032274150533"><ele>318.0</ele><time>2026-04-30T14:47:07Z</time></trkpt><trkpt lat="44.71218426554693" lon="9.380047021603414"><ele>318.8</ele><time>2026-04-30T14:47:08Z</time></trkpt><trkpt lat="44.71227739469263" lon="9.380072723895955"><ele>319.6</ele><time>2026-04-30T14:47:09Z</time></trkpt><trkpt lat="44.712371871566965" lon="9.380098246542639"><ele>320.40000000000003</ele><time>2026-04-30T14:47:10Z</time></trkpt><trkpt lat="44.71247521123355" lon="9.38013276974017"><ele>321.20000000000005</ele><time>2026-04-30T14:47:11Z</time></trkpt><trkpt lat="44.71257267884015" lon="9.38011709208968"><ele>322.0</ele><time>2026-04-30T14:47:12Z</time></trkpt><trkpt lat="44.7126742946835" lon="9.380132864867615"><ele>321.40000000000003</ele><time>2026-04-30T14:47:13Z</time></trkpt><trkpt lat="44.712794412870245" lon="9.380196259641309"><ele>320.8</ele><time>2026-04-30T14:47:14Z</time></trkpt><trkpt lat="44.71289434382931" lon="9.380231015435458"><ele>320.2</ele><time>2026-04-30T14:47:15Z</time></trkpt><trkpt lat="44.71298319027858" lon="9.380247201092892"><ele>319.6</ele><time>2026-04-30T14:47:16Z</time></trkpt><trkpt lat="44.71308338692727" lon="9.380277060011572"><ele>319.0</ele><time>2026-04-30T14:47:17Z</time></trkpt><trkpt lat="44.71318792502065" lon="9.380307260655165"><ele>319.0</ele><time>2026-04-30T14:47:18Z</time></trkpt><trkpt lat="44.71327694546845" lon="9.38036546721226"><ele>319.0</ele><time>2026-04-30T14:47:19Z</time></trkpt><trkpt lat="44.71336430839004" lon="9.380471119864664"><ele>319.0</ele><time>2026-04-30T14:47:20Z</time></trkpt><trkpt lat="44.7134388631022" lon="9.38058043271169"><ele>319.0</ele><time>2026-04-30T14:47:21Z</time></trkpt><trkpt lat="44.71350304644828" lon="9.380683148016264"><ele>319.0</ele><time>2026-04-30T14:47:22Z</time></trkpt><trkpt lat="44.713571654027525" lon="9.380781618325827"><ele>318.0</ele><time>2026-04-30T14:47:23Z</time></trkpt><trkpt lat="44.71363403038997" lon="9.380871723456343"><ele>317.0</ele><time>2026-04-30T14:47:24Z</time></trkpt><trkpt lat="44.71368722910052" lon="9.380985135018689"><ele>316.0</ele><time>2026-04-30T14:47:25Z</time></trkpt><trkpt lat="44.713745353065015" lon="9.381093131208395"><ele>315.0</ele><time>2026-04-30T14:47:26Z</time></trkpt><trkpt lat="44.71379584755223" lon="9.381235819271009"><ele>314.0</ele><time>2026-04-30T14:47:27Z</time></trkpt><trkpt lat="44.71381680628256" lon="9.381358373203025"><ele>314.0</ele><time>2026-04-30T14:47:28Z</time></trkpt><trkpt lat="44.71383112073164" lon="9.381493287299172"><ele>314.0</ele><time>2026-04-30T14:47:29Z</time></trkpt><trkpt lat="44.71387710587628" lon="9.381647214229567"><ele>314.0</ele><time>2026-04-30T14:47:30Z</time></trkpt><trkpt lat="44.713872212427226" lon="9.381790156049052"><ele>314.0</ele><time>2026-04-30T14:47:31Z</time></trkpt><trkpt lat="44.71388592867164" lon="9.381955020120856"><ele>314.0</ele><time>2026-04-30T14:47:32Z</time></trkpt><trkpt lat="44.713901062566016" lon="9.382114528323239"><ele>314.75</ele><time>2026-04-30T14:47:33Z</time></trkpt><trkpt lat="44.713892078237315" lon="9.382266039816317"><ele>315.5</ele><time>2026-04-30T14:47:34Z</time></trkpt><trkpt lat="44.71393876077774" lon="9.382407092557466"><ele>316.25</ele><time>2026-04-30T14:47:35Z</time></trkpt><trkpt lat="44.713986067351705" lon="9.382575022529478"><ele>317.0</ele><time>2026-04-30T14:47:36Z</time></trkpt><trkpt lat="44.714053336078926" lon="9.382744083078968"><ele>317.0</ele><time>2026-04-30T14:47:37Z</time></trkpt><trkpt lat="44.71413722930668" lon="9.382884693537338"><ele>317.0</ele><time>2026-04-30T14:47:38Z</time></trkpt><trkpt lat="44.71423451150379" lon="9.382998775647431"><ele>317.0</ele><time>2026-04-30T14:47:39Z</time></trkpt><trkpt lat="44.71431273850149" lon="9.383119634878257"><ele>317.0</ele><time>2026-04-30T14:47:40Z</time></trkpt><trkpt lat="44.71438836017632" lon="9.383241221492584"><ele>316.0</ele><time>2026-04-30T14:47:41Z</time></trkpt><trkpt lat="44.71447189416626" lon="9.38335158485782"><ele>315.0</ele><time>2026-04-30T14:47:42Z</time></trkpt><trkpt lat="44.71450893977443" lon="9.38346217361347"><ele>314.0</ele><time>2026-04-30T14:47:42.999Z</time></trkpt><trkpt lat="44.71451048344646" lon="9.383603640770726"><ele>313.0</ele><time>2026-04-30T14:47:43.999Z</time></trkpt><trkpt lat="44.7145143774759" lon="9.383701863090478"><ele>312.0</ele><time>2026-04-30T14:47:44.999Z</time></trkpt><trkpt lat="44.71449796517487" lon="9.383827767662558"><ele>310.6666666666667</ele><time>2026-04-30T14:47:45.999Z</time></trkpt><trkpt lat="44.7144742453634" lon="9.383962919528441"><ele>309.33333333333337</ele><time>2026-04-30T14:47:46.999Z</time></trkpt><trkpt lat="44.714440241916215" lon="9.384223517252613"><ele>308.0</ele><time>2026-04-30T14:47:47.999Z</time></trkpt><trkpt lat="44.71442992926604" lon="9.384518089963516"><ele>321.0</ele><time>2026-04-30T14:47:48.999Z</time></trkpt><trkpt lat="44.71439632735523" lon="9.384734812851375"><ele>334.0</ele><time>2026-04-30T14:47:49.999Z</time></trkpt><trkpt lat="44.714373344525164" lon="9.384994756009922"><ele>347.0</ele><time>2026-04-30T14:47:50.999Z</time></trkpt><trkpt lat="44.7143646495883" lon="9.385203402006754"><ele>339.0</ele><time>2026-04-30T14:47:51.999Z</time></trkpt><trkpt lat="44.714434099240634" lon="9.385386392367753"><ele>331.0</ele><time>2026-04-30T14:47:52.999Z</time></trkpt><trkpt lat="44.714492135228355" lon="9.385552365523703"><ele>323.0</ele><time>2026-04-30T14:47:53.999Z</time></trkpt><trkpt lat="44.71456215050296" lon="9.385749322918766"><ele>315.0</ele><time>2026-04-30T14:47:54.999Z</time></trkpt><trkpt lat="44.714636943251406" lon="9.38595275798543"><ele>315.0</ele><time>2026-04-30T14:47:55.999Z</time></trkpt><trkpt lat="44.714713905889475" lon="9.38615017223665"><ele>315.0</ele><time>2026-04-30T14:47:56.999Z</time></trkpt><trkpt lat="44.714788108952355" lon="9.386337540719687"><ele>315.0</ele><time>2026-04-30T14:47:57.999Z</time></trkpt><trkpt lat="44.71485909555758" lon="9.386536531682907"><ele>317.75</ele><time>2026-04-30T14:47:58.999Z</time></trkpt><trkpt lat="44.71490167495205" lon="9.386709462209673"><ele>320.5</ele><time>2026-04-30T14:47:59.999Z</time></trkpt><trkpt lat="44.7149696112051" lon="9.386871024004813"><ele>323.25</ele><time>2026-04-30T14:48:00.999Z</time></trkpt><trkpt lat="44.7150722572682" lon="9.387053403088009"><ele>326.0</ele><time>2026-04-30T14:48:01.999Z</time></trkpt><trkpt lat="44.71515059254297" lon="9.387162153794533"><ele>322.25</ele><time>2026-04-30T14:48:02.999Z</time></trkpt><trkpt lat="44.71519790945564" lon="9.387310400104804"><ele>318.5</ele><time>2026-04-30T14:48:03.999Z</time></trkpt><trkpt lat="44.715231932071255" lon="9.387507299867911"><ele>314.75</ele><time>2026-04-30T14:48:04.999Z</time></trkpt><trkpt lat="44.71529772121603" lon="9.387668372373835"><ele>311.0</ele><time>2026-04-30T14:48:05.999Z</time></trkpt><trkpt lat="44.7154090276421" lon="9.38781891575117"><ele>311.0</ele><time>2026-04-30T14:48:06.999Z</time></trkpt><trkpt lat="44.715527347820434" lon="9.387966098181165"><ele>311.0</ele><time>2026-04-30T14:48:07.999Z</time></trkpt><trkpt lat="44.71560652203616" lon="9.388144963655858"><ele>311.0</ele><time>2026-04-30T14:48:08.999Z</time></trkpt><trkpt lat="44.7156598493382" lon="9.388315196139928"><ele>311.0</ele><time>2026-04-30T14:48:09.999Z</time></trkpt><trkpt lat="44.715722065172585" lon="9.388481239129582"><ele>314.25</ele><time>2026-04-30T14:48:10.999Z</time></trkpt><trkpt lat="44.715783097561264" lon="9.38866359260679"><ele>317.5</ele><time>2026-04-30T14:48:11.999Z</time></trkpt><trkpt lat="44.71584522299249" lon="9.388845884616003"><ele>320.75</ele><time>2026-04-30T14:48:12.999Z</time></trkpt><trkpt lat="44.715882225114676" lon="9.38900414682281"><ele>324.0</ele><time>2026-04-30T14:48:13.999Z</time></trkpt><trkpt lat="44.7159514767022" lon="9.389180662094773"><ele>321.0</ele><time>2026-04-30T14:48:14.999Z</time></trkpt><trkpt lat="44.71605452150011" lon="9.38931521325283"><ele>318.0</ele><time>2026-04-30T14:48:15.999Z</time></trkpt><trkpt lat="44.71617759235801" lon="9.389432624411052"><ele>315.0</ele><time>2026-04-30T14:48:16.999Z</time></trkpt><trkpt lat="44.716293138403714" lon="9.389562939379017"><ele>312.0</ele><time>2026-04-30T14:48:17.999Z</time></trkpt><trkpt lat="44.71643129412869" lon="9.389660948758575"><ele>317.0</ele><time>2026-04-30T14:48:19Z</time></trkpt><trkpt lat="44.71655505916979" lon="9.389751309589661"><ele>322.0</ele><time>2026-04-30T14:48:20Z</time></trkpt><trkpt lat="44.71667521819101" lon="9.389826510909792"><ele>327.0</ele><time>2026-04-30T14:48:21Z</time></trkpt><trkpt lat="44.71683484535814" lon="9.389849993948372"><ele>332.0</ele><time>2026-04-30T14:48:22Z</time></trkpt><trkpt lat="44.71697277723712" lon="9.389925863557032"><ele>332.0</ele><time>2026-04-30T14:48:23Z</time></trkpt><trkpt lat="44.71710602225172" lon="9.38997198272067"><ele>332.0</ele><time>2026-04-30T14:48:24Z</time></trkpt><trkpt lat="44.71722645147488" lon="9.390054700386912"><ele>332.0</ele><time>2026-04-30T14:48:25Z</time></trkpt><trkpt lat="44.71736194643708" lon="9.39011415699085"><ele>332.0</ele><time>2026-04-30T14:48:26Z</time></trkpt><trkpt lat="44.717501242522594" lon="9.390184647318954"><ele>332.0</ele><time>2026-04-30T14:48:27Z</time></trkpt><trkpt lat="44.71765572989346" lon="9.390176352499743"><ele>332.0</ele><time>2026-04-30T14:48:28Z</time></trkpt><trkpt lat="44.71778780077105" lon="9.390174291193508"><ele>332.0</ele><time>2026-04-30T14:48:29Z</time></trkpt><trkpt lat="44.717936113514156" lon="9.39017361109256"><ele>332.0</ele><time>2026-04-30T14:48:30Z</time></trkpt><trkpt lat="44.718072456681355" lon="9.390218691113233"><ele>329.6666666666667</ele><time>2026-04-30T14:48:31Z</time></trkpt><trkpt lat="44.71823101394073" lon="9.390235563802726"><ele>327.3333333333333</ele><time>2026-04-30T14:48:32Z</time></trkpt><trkpt lat="44.718382712506326" lon="9.390254928116882"><ele>325.0</ele><time>2026-04-30T14:48:33Z</time></trkpt><trkpt lat="44.71852432818251" lon="9.390269591885561"><ele>324.6</ele><time>2026-04-30T14:48:34Z</time></trkpt><trkpt lat="44.718640517449" lon="9.39028989397748"><ele>324.2</ele><time>2026-04-30T14:48:35Z</time></trkpt><trkpt lat="44.71875745596245" lon="9.390273381810696"><ele>323.79999999999995</ele><time>2026-04-30T14:48:36Z</time></trkpt><trkpt lat="44.71886490247501" lon="9.390246891838984"><ele>323.4</ele><time>2026-04-30T14:48:37Z</time></trkpt><trkpt lat="44.7189562877197" lon="9.39020787227061"><ele>323.0</ele><time>2026-04-30T14:48:38Z</time></trkpt><trkpt lat="44.71905357896165" lon="9.390119802079438"><ele>323.0</ele><time>2026-04-30T14:48:39Z</time></trkpt><trkpt lat="44.71915755637289" lon="9.390090055265697"><ele>323.0</ele><time>2026-04-30T14:48:40Z</time></trkpt><trkpt lat="44.7192512366736" lon="9.390043545636106"><ele>323.0</ele><time>2026-04-30T14:48:41Z</time></trkpt><trkpt lat="44.71936359987824" lon="9.390046840601917"><ele>323.0</ele><time>2026-04-30T14:48:42Z</time></trkpt><trkpt lat="44.71947168266184" lon="9.390044643752553"><ele>323.0</ele><time>2026-04-30T14:48:43Z</time></trkpt><trkpt lat="44.7195945985318" lon="9.390057481985844"><ele>322.0</ele><time>2026-04-30T14:48:44Z</time></trkpt><trkpt lat="44.71970668891366" lon="9.39007608146278"><ele>321.0</ele><time>2026-04-30T14:48:45Z</time></trkpt><trkpt lat="44.71981189524778" lon="9.390112336178499"><ele>320.0</ele><time>2026-04-30T14:48:46Z</time></trkpt><trkpt lat="44.71994332301659" lon="9.390124292297466"><ele>319.0</ele><time>2026-04-30T14:48:47Z</time></trkpt><trkpt lat="44.72003603513221" lon="9.390206812223747"><ele>319.0</ele><time>2026-04-30T14:48:48Z</time></trkpt><trkpt lat="44.720117900154335" lon="9.390323095541767"><ele>319.0</ele><time>2026-04-30T14:48:49Z</time></trkpt><trkpt lat="44.72015358928636" lon="9.390477572621512"><ele>319.0</ele><time>2026-04-30T14:48:50Z</time></trkpt><trkpt lat="44.7201751615023" lon="9.390653256853245"><ele>319.0</ele><time>2026-04-30T14:48:51Z</time></trkpt><trkpt lat="44.72019529844031" lon="9.390854405133068"><ele>316.5</ele><time>2026-04-30T14:48:52Z</time></trkpt><trkpt lat="44.720210216167295" lon="9.391051978261942"><ele>314.0</ele><time>2026-04-30T14:48:53Z</time></trkpt><trkpt lat="44.72022619813936" lon="9.391244531889498"><ele>311.5</ele><time>2026-04-30T14:48:54Z</time></trkpt><trkpt lat="44.72025029653934" lon="9.391420103266231"><ele>309.0</ele><time>2026-04-30T14:48:55Z</time></trkpt><trkpt lat="44.720253108226565" lon="9.3916238879028"><ele>309.0</ele><time>2026-04-30T14:48:56Z</time></trkpt><trkpt lat="44.72025373831274" lon="9.391873914066293"><ele>309.0</ele><time>2026-04-30T14:48:57Z</time></trkpt><trkpt lat="44.72025892859665" lon="9.392097262190703"><ele>309.0</ele><time>2026-04-30T14:48:58Z</time></trkpt><trkpt lat="44.72030799178422" lon="9.392310044550294"><ele>312.25</ele><time>2026-04-30T14:48:58.999Z</time></trkpt><trkpt lat="44.720350657692116" lon="9.39252274280786"><ele>315.5</ele><time>2026-04-30T14:48:59.999Z</time></trkpt><trkpt lat="44.72041863726461" lon="9.392682227873467"><ele>318.75</ele><time>2026-04-30T14:49:00.999Z</time></trkpt><trkpt lat="44.7205053491568" lon="9.392799191815547"><ele>322.0</ele><time>2026-04-30T14:49:01.999Z</time></trkpt><trkpt lat="44.72058923782263" lon="9.392899788113507"><ele>322.0</ele><time>2026-04-30T14:49:02.999Z</time></trkpt><trkpt lat="44.72066644981974" lon="9.392983922482241"><ele>322.0</ele><time>2026-04-30T14:49:03.999Z</time></trkpt><trkpt lat="44.720751750860195" lon="9.393090885992779"><ele>322.0</ele><time>2026-04-30T14:49:04.999Z</time></trkpt><trkpt lat="44.72080311090932" lon="9.393223782736783"><ele>322.0</ele><time>2026-04-30T14:49:05.999Z</time></trkpt><trkpt lat="44.720807315446656" lon="9.393392040519723"><ele>322.0</ele><time>2026-04-30T14:49:06.999Z</time></trkpt><trkpt lat="44.72076045434718" lon="9.393521480676826"><ele>322.75</ele><time>2026-04-30T14:49:07.999Z</time></trkpt><trkpt lat="44.72068168219422" lon="9.393683239220929"><ele>323.5</ele><time>2026-04-30T14:49:08.999Z</time></trkpt><trkpt lat="44.72061063658816" lon="9.393828449212602"><ele>324.25</ele><time>2026-04-30T14:49:09.999Z</time></trkpt><trkpt lat="44.720518341731484" lon="9.393987320515485"><ele>325.0</ele><time>2026-04-30T14:49:10.999Z</time></trkpt><trkpt lat="44.72040476923709" lon="9.394186572732504"><ele>325.0</ele><time>2026-04-30T14:49:11.999Z</time></trkpt><trkpt lat="44.72037472224576" lon="9.394411612517171"><ele>325.0</ele><time>2026-04-30T14:49:12.999Z</time></trkpt><trkpt lat="44.72038718783925" lon="9.39458389755971"><ele>325.0</ele><time>2026-04-30T14:49:13.999Z</time></trkpt><trkpt lat="44.720374131908166" lon="9.39474315114145"><ele>325.0</ele><time>2026-04-30T14:49:14.999Z</time></trkpt><trkpt lat="44.720437542269295" lon="9.39487847586868"><ele>329.8</ele><time>2026-04-30T14:49:15.999Z</time></trkpt><trkpt lat="44.72047586442975" lon="9.39499365973213"><ele>334.6</ele><time>2026-04-30T14:49:16.999Z</time></trkpt><trkpt lat="44.7205377735523" lon="9.395019473461133"><ele>339.4</ele><time>2026-04-30T14:49:17.999Z</time></trkpt><trkpt lat="44.720637533064675" lon="9.395073656482504"><ele>344.2</ele><time>2026-04-30T14:49:18.999Z</time></trkpt><trkpt lat="44.72078165403833" lon="9.395063176456572"><ele>349.0</ele><time>2026-04-30T14:49:19.999Z</time></trkpt><trkpt lat="44.72090359096382" lon="9.395011684617455"><ele>349.0</ele><time>2026-04-30T14:49:20.999Z</time></trkpt><trkpt lat="44.721004295994774" lon="9.394923124925201"><ele>349.0</ele><time>2026-04-30T14:49:21.999Z</time></trkpt><trkpt lat="44.72108782073156" lon="9.394837531501185"><ele>349.0</ele><time>2026-04-30T14:49:22.999Z</time></trkpt><trkpt lat="44.72118183163748" lon="9.394732497687436"><ele>349.0</ele><time>2026-04-30T14:49:23.999Z</time></trkpt><trkpt lat="44.72127149531987" lon="9.394627715232751"><ele>346.0</ele><time>2026-04-30T14:49:24.999Z</time></trkpt><trkpt lat="44.72134855415446" lon="9.3944943295921"><ele>343.0</ele><time>2026-04-30T14:49:25.999Z</time></trkpt><trkpt lat="44.721400067844144" lon="9.39435802586596"><ele>340.0</ele><time>2026-04-30T14:49:26.999Z</time></trkpt><trkpt lat="44.72143272690998" lon="9.394200837887384"><ele>337.0</ele><time>2026-04-30T14:49:27.999Z</time></trkpt><trkpt lat="44.72145243670013" lon="9.39405863504702"><ele>337.0</ele><time>2026-04-30T14:49:28.999Z</time></trkpt><trkpt lat="44.72150709690534" lon="9.393950032071162"><ele>337.0</ele><time>2026-04-30T14:49:29.999Z</time></trkpt><trkpt lat="44.72158374234904" lon="9.393876921034657"><ele>337.0</ele><time>2026-04-30T14:49:30.999Z</time></trkpt><trkpt lat="44.721713726521074" lon="9.393853054824456"><ele>337.0</ele><time>2026-04-30T14:49:32.999Z</time></trkpt><trkpt lat="44.72182828347655" lon="9.393892062979484"><ele>337.0</ele><time>2026-04-30T14:49:33.999Z</time></trkpt><trkpt lat="44.72194380169279" lon="9.393978677814118"><ele>337.75</ele><time>2026-04-30T14:49:34.999Z</time></trkpt><trkpt lat="44.72205609812573" lon="9.39410095404468"><ele>338.5</ele><time>2026-04-30T14:49:35.999Z</time></trkpt><trkpt lat="44.722165171995194" lon="9.394243177907391"><ele>339.25</ele><time>2026-04-30T14:49:36.999Z</time></trkpt><trkpt lat="44.72223945181056" lon="9.394377706594488"><ele>340.0</ele><time>2026-04-30T14:49:37.999Z</time></trkpt><trkpt lat="44.722308061261074" lon="9.394488673839495"><ele>340.0</ele><time>2026-04-30T14:49:38.999Z</time></trkpt><trkpt lat="44.72240431243386" lon="9.394587889709527"><ele>340.0</ele><time>2026-04-30T14:49:39.999Z</time></trkpt><trkpt lat="44.72251992254866" lon="9.394595481381595"><ele>340.0</ele><time>2026-04-30T14:49:40.999Z</time></trkpt><trkpt lat="44.72260886578886" lon="9.394516523035225"><ele>340.0</ele><time>2026-04-30T14:49:41.999Z</time></trkpt><trkpt lat="44.72265434966748" lon="9.39442953720883"><ele>340.0</ele><time>2026-04-30T14:49:42.999Z</time></trkpt><trkpt lat="44.722677962854625" lon="9.394317898986182"><ele>340.0</ele><time>2026-04-30T14:49:43.999Z</time></trkpt><trkpt lat="44.72270965473625" lon="9.39419943848958"><ele>340.0</ele><time>2026-04-30T14:49:44.999Z</time></trkpt><trkpt lat="44.72277834161257" lon="9.394142426106487"><ele>340.0</ele><time>2026-04-30T14:49:45.999Z</time></trkpt><trkpt lat="44.7228575799624" lon="9.394099996917488"><ele>340.0</ele><time>2026-04-30T14:49:46.999Z</time></trkpt><trkpt lat="44.72292618945307" lon="9.394070930029384"><ele>340.0</ele><time>2026-04-30T14:49:47.999Z</time></trkpt><trkpt lat="44.72300178466187" lon="9.394040257732357"><ele>340.0</ele><time>2026-04-30T14:49:48.999Z</time></trkpt><trkpt lat="44.72310468522021" lon="9.393998006866308"><ele>336.0</ele><time>2026-04-30T14:49:50.999Z</time></trkpt><trkpt lat="44.72317500768347" lon="9.39396894640745"><ele>332.0</ele><time>2026-04-30T14:49:52.999Z</time></trkpt><trkpt lat="44.72326511352544" lon="9.393931710556052"><ele>328.0</ele><time>2026-04-30T14:49:56.999Z</time></trkpt><trkpt lat="44.723369978288886" lon="9.393865840013792"><ele>324.0</ele><time>2026-04-30T14:49:58.999Z</time></trkpt><trkpt lat="44.72344549472073" lon="9.393853146968379"><ele>320.0</ele><time>2026-04-30T14:49:59.999Z</time></trkpt><trkpt lat="44.7235175817931" lon="9.393814998938813"><ele>316.0</ele><time>2026-04-30T14:50:00.999Z</time></trkpt><trkpt lat="44.723577129717455" lon="9.393758571909093"><ele>326.0</ele><time>2026-04-30T14:50:01.999Z</time></trkpt><trkpt lat="44.72365228182344" lon="9.3937388652491"><ele>336.0</ele><time>2026-04-30T14:50:02.999Z</time></trkpt><trkpt lat="44.72373196994946" lon="9.39368835400635"><ele>346.0</ele><time>2026-04-30T14:50:03.999Z</time></trkpt><trkpt lat="44.72381521564685" lon="9.393610627630308"><ele>356.0</ele><time>2026-04-30T14:50:04.999Z</time></trkpt><trkpt lat="44.723899300569734" lon="9.393542167718405"><ele>366.0</ele><time>2026-04-30T14:50:05.999Z</time></trkpt><trkpt lat="44.7239842685647" lon="9.393428817177883"><ele>366.0</ele><time>2026-04-30T14:50:06.999Z</time></trkpt><trkpt lat="44.72402165742749" lon="9.39325464559651"><ele>366.0</ele><time>2026-04-30T14:50:07.999Z</time></trkpt><trkpt lat="44.72409097662553" lon="9.39311062493328"><ele>366.0</ele><time>2026-04-30T14:50:08.999Z</time></trkpt><trkpt lat="44.72419018149163" lon="9.39298291239252"><ele>366.0</ele><time>2026-04-30T14:50:09.999Z</time></trkpt><trkpt lat="44.72429625826535" lon="9.392812426482369"><ele>370.3333333333333</ele><time>2026-04-30T14:50:10.999Z</time></trkpt><trkpt lat="44.72439833799334" lon="9.392632705202338"><ele>374.66666666666663</ele><time>2026-04-30T14:50:11.999Z</time></trkpt><trkpt lat="44.724490281524936" lon="9.39245110574682"><ele>379.0</ele><time>2026-04-30T14:50:12.999Z</time></trkpt><trkpt lat="44.7245654946585" lon="9.39224802839086"><ele>373.3333333333333</ele><time>2026-04-30T14:50:13.999Z</time></trkpt><trkpt lat="44.724612245465195" lon="9.392039898407255"><ele>367.6666666666667</ele><time>2026-04-30T14:50:14.999Z</time></trkpt><trkpt lat="44.724679821655066" lon="9.391803299511436"><ele>362.0</ele><time>2026-04-30T14:50:15.999Z</time></trkpt><trkpt lat="44.72474875260061" lon="9.391553996209511"><ele>357.33333333333337</ele><time>2026-04-30T14:50:16.999Z</time></trkpt><trkpt lat="44.72481547563103" lon="9.391279780215925"><ele>352.6666666666667</ele><time>2026-04-30T14:50:17.999Z</time></trkpt><trkpt lat="44.72487284943551" lon="9.39102896803923"><ele>348.0</ele><time>2026-04-30T14:50:18.999Z</time></trkpt><trkpt lat="44.724906955915436" lon="9.390799647535344"><ele>348.0</ele><time>2026-04-30T14:50:19.998Z</time></trkpt><trkpt lat="44.724951525664444" lon="9.390612298875817"><ele>348.0</ele><time>2026-04-30T14:50:20.998Z</time></trkpt><trkpt lat="44.72498120223362" lon="9.390453811861967"><ele>348.0</ele><time>2026-04-30T14:50:21.998Z</time></trkpt><trkpt lat="44.7249689782905" lon="9.390266122332651"><ele>348.0</ele><time>2026-04-30T14:50:22.998Z</time></trkpt><trkpt lat="44.724886908094376" lon="9.39015309310207"><ele>350.25</ele><time>2026-04-30T14:50:23.998Z</time></trkpt><trkpt lat="44.7248361335009" lon="9.389995819993468"><ele>352.5</ele><time>2026-04-30T14:50:24.998Z</time></trkpt><trkpt lat="44.72479278741739" lon="9.389824660109882"><ele>354.75</ele><time>2026-04-30T14:50:25.998Z</time></trkpt><trkpt lat="44.72481940337009" lon="9.38968440276487"><ele>357.0</ele><time>2026-04-30T14:50:26.998Z</time></trkpt><trkpt lat="44.72487127808131" lon="9.389490805189425"><ele>357.0</ele><time>2026-04-30T14:50:27.998Z</time></trkpt><trkpt lat="44.72493434814679" lon="9.389282578040778"><ele>357.0</ele><time>2026-04-30T14:50:28.998Z</time></trkpt><trkpt lat="44.725004638633244" lon="9.389107068448538"><ele>357.0</ele><time>2026-04-30T14:50:29.998Z</time></trkpt><trkpt lat="44.725108418065055" lon="9.388973232667734"><ele>357.0</ele><time>2026-04-30T14:50:30.998Z</time></trkpt><trkpt lat="44.72520230894698" lon="9.388922042493027"><ele>361.0</ele><time>2026-04-30T14:50:31.998Z</time></trkpt><trkpt lat="44.72535383154913" lon="9.388814777872373"><ele>365.0</ele><time>2026-04-30T14:50:32.998Z</time></trkpt><trkpt lat="44.72550876787592" lon="9.388679674840521"><ele>369.0</ele><time>2026-04-30T14:50:33.998Z</time></trkpt><trkpt lat="44.725648119015126" lon="9.38853972806111"><ele>369.0</ele><time>2026-04-30T14:50:34.998Z</time></trkpt><trkpt lat="44.725793447745154" lon="9.38838205374794"><ele>369.0</ele><time>2026-04-30T14:50:35.998Z</time></trkpt><trkpt lat="44.72591900252955" lon="9.388213904879262"><ele>369.0</ele><time>2026-04-30T14:50:36.998Z</time></trkpt><trkpt lat="44.72601553008091" lon="9.388014999538179"><ele>377.66666666666663</ele><time>2026-04-30T14:50:37.998Z</time></trkpt><trkpt lat="44.726122745019865" lon="9.387821089702843"><ele>386.3333333333333</ele><time>2026-04-30T14:50:38.998Z</time></trkpt><trkpt lat="44.72623062804367" lon="9.38759435534493"><ele>395.0</ele><time>2026-04-30T14:50:39.998Z</time></trkpt><trkpt lat="44.7263270370644" lon="9.387363191185967"><ele>388.66666666666663</ele><time>2026-04-30T14:50:40.998Z</time></trkpt><trkpt lat="44.726400266612465" lon="9.387130786016163"><ele>382.3333333333333</ele><time>2026-04-30T14:50:41.998Z</time></trkpt><trkpt lat="44.726447141838584" lon="9.38689197801609"><ele>376.0</ele><time>2026-04-30T14:50:42.998Z</time></trkpt><trkpt lat="44.72645986838744" lon="9.386661069641915"><ele>376.0</ele><time>2026-04-30T14:50:43.998Z</time></trkpt><trkpt lat="44.72646154871255" lon="9.386445296303012"><ele>376.0</ele><time>2026-04-30T14:50:44.998Z</time></trkpt><trkpt lat="44.726421390755036" lon="9.3862242296144"><ele>376.0</ele><time>2026-04-30T14:50:45.998Z</time></trkpt><trkpt lat="44.72637114575358" lon="9.38602236559569"><ele>371.25</ele><time>2026-04-30T14:50:46.998Z</time></trkpt><trkpt lat="44.72630016780593" lon="9.385821688953643"><ele>366.5</ele><time>2026-04-30T14:50:47.998Z</time></trkpt><trkpt lat="44.726260362648446" lon="9.385616326306987"><ele>361.75</ele><time>2026-04-30T14:50:48.998Z</time></trkpt><trkpt lat="44.72622858612907" lon="9.385464720682897"><ele>357.0</ele><time>2026-04-30T14:50:49.998Z</time></trkpt><trkpt lat="44.72620858257443" lon="9.385356896863026"><ele>349.0</ele><time>2026-04-30T14:50:50.998Z</time></trkpt><trkpt lat="44.72627811830377" lon="9.385257533166408"><ele>341.0</ele><time>2026-04-30T14:50:52.998Z</time></trkpt><trkpt lat="44.726359341559046" lon="9.385277266267824"><ele>333.0</ele><time>2026-04-30T14:50:54.998Z</time></trkpt><trkpt lat="44.726453444761745" lon="9.385334987019387"><ele>325.0</ele><time>2026-04-30T14:50:55.998Z</time></trkpt><trkpt lat="44.7265596470797" lon="9.385386079095777"><ele>317.0</ele><time>2026-04-30T14:50:56.998Z</time></trkpt><trkpt lat="44.7266773991325" lon="9.385444230792086"><ele>321.0</ele><time>2026-04-30T14:50:57.998Z</time></trkpt><trkpt lat="44.72681117711955" lon="9.385545909416447"><ele>325.0</ele><time>2026-04-30T14:50:58.998Z</time></trkpt><trkpt lat="44.72689566369933" lon="9.385695384591132"><ele>329.0</ele><time>2026-04-30T14:50:59.998Z</time></trkpt><trkpt lat="44.72699677412364" lon="9.385835917403735"><ele>333.0</ele><time>2026-04-30T14:51:00.998Z</time></trkpt><trkpt lat="44.72713255119716" lon="9.385964495080666"><ele>333.0</ele><time>2026-04-30T14:51:01.998Z</time></trkpt><trkpt lat="44.727284342088495" lon="9.386084489334904"><ele>333.0</ele><time>2026-04-30T14:51:02.998Z</time></trkpt><trkpt lat="44.72744525094768" lon="9.386216895255938"><ele>333.0</ele><time>2026-04-30T14:51:03.998Z</time></trkpt><trkpt lat="44.72760100309898" lon="9.386343361266864"><ele>342.0</ele><time>2026-04-30T14:51:04.998Z</time></trkpt><trkpt lat="44.72775785298649" lon="9.386465097948163"><ele>351.0</ele><time>2026-04-30T14:51:05.998Z</time></trkpt><trkpt lat="44.72791672899942" lon="9.386564272506995"><ele>360.0</ele><time>2026-04-30T14:51:06.998Z</time></trkpt><trkpt lat="44.72808714277345" lon="9.3866146353987"><ele>360.0</ele><time>2026-04-30T14:51:07.998Z</time></trkpt><trkpt lat="44.728263023092936" lon="9.386653274205717"><ele>360.0</ele><time>2026-04-30T14:51:08.998Z</time></trkpt><trkpt lat="44.7283912865016" lon="9.386683598700039"><ele>360.0</ele><time>2026-04-30T14:51:09.998Z</time></trkpt><trkpt lat="44.7284934366665" lon="9.386703683875776"><ele>360.0</ele><time>2026-04-30T14:51:10.998Z</time></trkpt><trkpt lat="44.72858623003527" lon="9.386732673049524"><ele>363.75</ele><time>2026-04-30T14:51:11.998Z</time></trkpt><trkpt lat="44.72867722761842" lon="9.386812646031983"><ele>367.5</ele><time>2026-04-30T14:51:12.998Z</time></trkpt><trkpt lat="44.728728163516415" lon="9.387064334372782"><ele>371.25</ele><time>2026-04-30T14:51:13.998Z</time></trkpt><trkpt lat="44.72880054449166" lon="9.387203676522537"><ele>375.0</ele><time>2026-04-30T14:51:14.998Z</time></trkpt><trkpt lat="44.72887620382403" lon="9.387343007945958"><ele>375.0</ele><time>2026-04-30T14:51:15.998Z</time></trkpt><trkpt lat="44.72900290121182" lon="9.387380707694195"><ele>375.0</ele><time>2026-04-30T14:51:16.998Z</time></trkpt><trkpt lat="44.72913051046421" lon="9.387382119653044"><ele>375.0</ele><time>2026-04-30T14:51:17.998Z</time></trkpt><trkpt lat="44.729277412541975" lon="9.387392408478618"><ele>375.0</ele><time>2026-04-30T14:51:18.998Z</time></trkpt><trkpt lat="44.72940971867445" lon="9.387362888799453"><ele>365.25</ele><time>2026-04-30T14:51:19.998Z</time></trkpt><trkpt lat="44.729528619025075" lon="9.387414408131628"><ele>355.5</ele><time>2026-04-30T14:51:20.998Z</time></trkpt><trkpt lat="44.729628855596" lon="9.387505297064733"><ele>345.75</ele><time>2026-04-30T14:51:21.998Z</time></trkpt><trkpt lat="44.72973567946458" lon="9.387656534118387"><ele>336.0</ele><time>2026-04-30T14:51:22.998Z</time></trkpt><trkpt lat="44.72984854518017" lon="9.387760194200235"><ele>336.0</ele><time>2026-04-30T14:51:23.998Z</time></trkpt><trkpt lat="44.729967748183924" lon="9.387788342833444"><ele>336.0</ele><time>2026-04-30T14:51:24.998Z</time></trkpt><trkpt lat="44.73009487463011" lon="9.387852535429358"><ele>336.0</ele><time>2026-04-30T14:51:25.998Z</time></trkpt><trkpt lat="44.73021830954584" lon="9.3879404160011"><ele>336.0</ele><time>2026-04-30T14:51:26.998Z</time></trkpt><trkpt lat="44.73032149951395" lon="9.388042360800977"><ele>342.0</ele><time>2026-04-30T14:51:27.998Z</time></trkpt><trkpt lat="44.730436966384495" lon="9.388101373490136"><ele>348.0</ele><time>2026-04-30T14:51:28.998Z</time></trkpt><trkpt lat="44.73057402645593" lon="9.38808232596409"><ele>354.0</ele><time>2026-04-30T14:51:29.998Z</time></trkpt><trkpt lat="44.73069103416937" lon="9.388070258747556"><ele>360.0</ele><time>2026-04-30T14:51:30.998Z</time></trkpt><trkpt lat="44.73079562760276" lon="9.388109316934532"><ele>360.0</ele><time>2026-04-30T14:51:31.998Z</time></trkpt><trkpt lat="44.730878179190604" lon="9.388208228117081"><ele>360.0</ele><time>2026-04-30T14:51:32.998Z</time></trkpt><trkpt lat="44.73096007461531" lon="9.388372645654927"><ele>360.0</ele><time>2026-04-30T14:51:33.998Z</time></trkpt><trkpt lat="44.73103986416897" lon="9.388478720582315"><ele>360.0</ele><time>2026-04-30T14:51:34.998Z</time></trkpt><trkpt lat="44.73123199645753" lon="9.388517567542225"><ele>355.25</ele><time>2026-04-30T14:51:35.998Z</time></trkpt><trkpt lat="44.73135511837868" lon="9.388498978579834"><ele>350.5</ele><time>2026-04-30T14:51:36.998Z</time></trkpt><trkpt lat="44.73152363544994" lon="9.388446445828723"><ele>345.75</ele><time>2026-04-30T14:51:37.998Z</time></trkpt><trkpt lat="44.731658066471496" lon="9.388415468926665"><ele>341.0</ele><time>2026-04-30T14:51:38.998Z</time></trkpt><trkpt lat="44.73178331181439" lon="9.388439301651053"><ele>335.25</ele><time>2026-04-30T14:51:39.998Z</time></trkpt><trkpt lat="44.73191105577136" lon="9.388495574614707"><ele>329.5</ele><time>2026-04-30T14:51:40.997Z</time></trkpt><trkpt lat="44.732040819093825" lon="9.388542382503745"><ele>323.75</ele><time>2026-04-30T14:51:41.997Z</time></trkpt><trkpt lat="44.732145632946256" lon="9.38861381701321"><ele>318.0</ele><time>2026-04-30T14:51:42.997Z</time></trkpt><trkpt lat="44.73224310352745" lon="9.388704623843568"><ele>335.0</ele><time>2026-04-30T14:51:43.997Z</time></trkpt><trkpt lat="44.73232456430768" lon="9.388879544913294"><ele>352.0</ele><time>2026-04-30T14:51:44.997Z</time></trkpt><trkpt lat="44.73248046189912" lon="9.389025631439905"><ele>369.0</ele><time>2026-04-30T14:51:45.997Z</time></trkpt><trkpt lat="44.73266902371318" lon="9.389049035165641"><ele>363.75</ele><time>2026-04-30T14:51:46.997Z</time></trkpt><trkpt lat="44.73281597619784" lon="9.389053459963085"><ele>358.5</ele><time>2026-04-30T14:51:47.997Z</time></trkpt><trkpt lat="44.7329641512283" lon="9.389061375538974"><ele>353.25</ele><time>2026-04-30T14:51:48.997Z</time></trkpt><trkpt lat="44.73311456816544" lon="9.389078254708329"><ele>348.0</ele><time>2026-04-30T14:51:49.997Z</time></trkpt><trkpt lat="44.733260309530785" lon="9.38913682359486"><ele>348.0</ele><time>2026-04-30T14:51:50.997Z</time></trkpt><trkpt lat="44.733398903292546" lon="9.389172086467308"><ele>348.0</ele><time>2026-04-30T14:51:51.997Z</time></trkpt><trkpt lat="44.733531932352406" lon="9.389194375687909"><ele>348.0</ele><time>2026-04-30T14:51:52.997Z</time></trkpt><trkpt lat="44.73366952943647" lon="9.389123660466899"><ele>348.0</ele><time>2026-04-30T14:51:53.997Z</time></trkpt><trkpt lat="44.73378808149008" lon="9.389115937058891"><ele>347.25</ele><time>2026-04-30T14:51:54.997Z</time></trkpt><trkpt lat="44.733908744633965" lon="9.389112737833228"><ele>346.5</ele><time>2026-04-30T14:51:55.997Z</time></trkpt><trkpt lat="44.73405801714104" lon="9.389123424613024"><ele>345.75</ele><time>2026-04-30T14:51:56.997Z</time></trkpt><trkpt lat="44.73419867866962" lon="9.389139021920288"><ele>345.0</ele><time>2026-04-30T14:51:57.997Z</time></trkpt><trkpt lat="44.734329307836774" lon="9.389168584275877"><ele>341.25</ele><time>2026-04-30T14:51:58.997Z</time></trkpt><trkpt lat="44.7344601787557" lon="9.389228274112972"><ele>337.5</ele><time>2026-04-30T14:51:59.997Z</time></trkpt><trkpt lat="44.734582168389416" lon="9.389314801307638"><ele>333.75</ele><time>2026-04-30T14:52:00.997Z</time></trkpt><trkpt lat="44.734717060210414" lon="9.389422058217423"><ele>330.0</ele><time>2026-04-30T14:52:01.997Z</time></trkpt><trkpt lat="44.73485035638594" lon="9.389501040984069"><ele>330.0</ele><time>2026-04-30T14:52:02.997Z</time></trkpt><trkpt lat="44.734988142267625" lon="9.38954420886234"><ele>330.0</ele><time>2026-04-30T14:52:03.997Z</time></trkpt><trkpt lat="44.735133228384655" lon="9.389619272516004"><ele>330.0</ele><time>2026-04-30T14:52:04.997Z</time></trkpt><trkpt lat="44.73528439476533" lon="9.389689929510553"><ele>340.0</ele><time>2026-04-30T14:52:05.997Z</time></trkpt><trkpt lat="44.73546839209574" lon="9.38972362432709"><ele>350.0</ele><time>2026-04-30T14:52:06.997Z</time></trkpt><trkpt lat="44.73562701144836" lon="9.389727593055875"><ele>360.0</ele><time>2026-04-30T14:52:07.997Z</time></trkpt><trkpt lat="44.73580279582175" lon="9.38972404525341"><ele>360.0</ele><time>2026-04-30T14:52:08.997Z</time></trkpt><trkpt lat="44.73597218494663" lon="9.389710203643203"><ele>360.0</ele><time>2026-04-30T14:52:09.997Z</time></trkpt><trkpt lat="44.736149879984595" lon="9.389693010458366"><ele>360.0</ele><time>2026-04-30T14:52:10.997Z</time></trkpt><trkpt lat="44.736332111964956" lon="9.389697321875945"><ele>361.3333333333333</ele><time>2026-04-30T14:52:11.997Z</time></trkpt><trkpt lat="44.73652593576143" lon="9.389694512765038"><ele>362.66666666666663</ele><time>2026-04-30T14:52:12.997Z</time></trkpt><trkpt lat="44.736712277672375" lon="9.38967160297154"><ele>364.0</ele><time>2026-04-30T14:52:13.997Z</time></trkpt><trkpt lat="44.736891281221745" lon="9.389645007613774"><ele>353.66666666666663</ele><time>2026-04-30T14:52:14.997Z</time></trkpt><trkpt lat="44.73707884342724" lon="9.38959351349128"><ele>343.3333333333333</ele><time>2026-04-30T14:52:15.997Z</time></trkpt><trkpt lat="44.73726098980338" lon="9.389505163553348"><ele>333.0</ele><time>2026-04-30T14:52:16.997Z</time></trkpt><trkpt lat="44.73742894687578" lon="9.389393363000229"><ele>333.0</ele><time>2026-04-30T14:52:17.997Z</time></trkpt><trkpt lat="44.73756804096695" lon="9.38922552038264"><ele>333.0</ele><time>2026-04-30T14:52:18.997Z</time></trkpt><trkpt lat="44.737708940055484" lon="9.389079166137716"><ele>333.0</ele><time>2026-04-30T14:52:19.997Z</time></trkpt><trkpt lat="44.737836287637364" lon="9.388924564813609"><ele>330.6666666666667</ele><time>2026-04-30T14:52:20.997Z</time></trkpt><trkpt lat="44.73798241055265" lon="9.388775887387776"><ele>328.33333333333337</ele><time>2026-04-30T14:52:21.997Z</time></trkpt><trkpt lat="44.738122195003236" lon="9.38863780239538"><ele>326.0</ele><time>2026-04-30T14:52:22.997Z</time></trkpt><trkpt lat="44.73825143429463" lon="9.388479101621815"><ele>326.0</ele><time>2026-04-30T14:52:23.997Z</time></trkpt><trkpt lat="44.73836559264021" lon="9.388317188988296"><ele>326.0</ele><time>2026-04-30T14:52:24.997Z</time></trkpt><trkpt lat="44.73848256343254" lon="9.388150551342518"><ele>326.0</ele><time>2026-04-30T14:52:25.997Z</time></trkpt><trkpt lat="44.738590324317045" lon="9.38799231116188"><ele>326.5</ele><time>2026-04-30T14:52:26.997Z</time></trkpt><trkpt lat="44.738690541923404" lon="9.38785369604846"><ele>327.0</ele><time>2026-04-30T14:52:27.997Z</time></trkpt><trkpt lat="44.73882859320832" lon="9.387763859854294"><ele>327.5</ele><time>2026-04-30T14:52:28.997Z</time></trkpt><trkpt lat="44.73893041190342" lon="9.387645221001932"><ele>328.0</ele><time>2026-04-30T14:52:29.997Z</time></trkpt><trkpt lat="44.73903124695313" lon="9.387544847028618"><ele>328.0</ele><time>2026-04-30T14:52:30.997Z</time></trkpt><trkpt lat="44.739140059808136" lon="9.38745863064752"><ele>328.0</ele><time>2026-04-30T14:52:31.997Z</time></trkpt><trkpt lat="44.73926076937106" lon="9.387382076033148"><ele>328.0</ele><time>2026-04-30T14:52:32.997Z</time></trkpt><trkpt lat="44.73939526313506" lon="9.387317361305008"><ele>328.0</ele><time>2026-04-30T14:52:33.997Z</time></trkpt><trkpt lat="44.739542797862256" lon="9.387264054333338"><ele>324.0</ele><time>2026-04-30T14:52:34.997Z</time></trkpt><trkpt lat="44.73970937506665" lon="9.387226936848679"><ele>320.0</ele><time>2026-04-30T14:52:35.997Z</time></trkpt><trkpt lat="44.73986806953516" lon="9.387216592901302"><ele>316.0</ele><time>2026-04-30T14:52:36.997Z</time></trkpt><trkpt lat="44.74002226356391" lon="9.38722775791544"><ele>316.0</ele><time>2026-04-30T14:52:37.997Z</time></trkpt><trkpt lat="44.74016312738809" lon="9.387259599373978"><ele>316.0</ele><time>2026-04-30T14:52:38.997Z</time></trkpt><trkpt lat="44.740314607853676" lon="9.387313058843537"><ele>316.0</ele><time>2026-04-30T14:52:39.997Z</time></trkpt><trkpt lat="44.74046849862431" lon="9.38738875141456"><ele>321.66666666666663</ele><time>2026-04-30T14:52:40.997Z</time></trkpt><trkpt lat="44.74063225721284" lon="9.387484669096967"><ele>327.3333333333333</ele><time>2026-04-30T14:52:41.997Z</time></trkpt><trkpt lat="44.74079156514355" lon="9.38758063138429"><ele>333.0</ele><time>2026-04-30T14:52:42.997Z</time></trkpt><trkpt lat="44.74209644477487" lon="9.388356423684089"><ele>333.0</ele><time>2026-04-30T14:52:51.259Z</time></trkpt><trkpt lat="44.74226647584041" lon="9.388432145135296"><ele>333.0</ele><time>2026-04-30T14:52:52.259Z</time></trkpt><trkpt lat="44.74258965789127" lon="9.388742196386778"><ele>337.6666666666667</ele><time>2026-04-30T14:52:54.997Z</time></trkpt><trkpt lat="44.74272475923363" lon="9.388807801565834"><ele>342.33333333333337</ele><time>2026-04-30T14:52:55.997Z</time></trkpt><trkpt lat="44.742908949421796" lon="9.388832417058747"><ele>347.0</ele><time>2026-04-30T14:52:57.997Z</time></trkpt><trkpt lat="44.743062576617604" lon="9.388924879260975"><ele>347.0</ele><time>2026-04-30T14:52:58.997Z</time></trkpt><trkpt lat="44.743268770593325" lon="9.389015188249415"><ele>347.0</ele><time>2026-04-30T14:52:59.997Z</time></trkpt><trkpt lat="44.743444791548505" lon="9.389043502091827"><ele>347.0</ele><time>2026-04-30T14:53:00.996Z</time></trkpt><trkpt lat="44.74362288790085" lon="9.389039376142208"><ele>341.33333333333337</ele><time>2026-04-30T14:53:01.996Z</time></trkpt><trkpt lat="44.74379186885152" lon="9.389023472863194"><ele>335.6666666666667</ele><time>2026-04-30T14:53:02.996Z</time></trkpt><trkpt lat="44.743958867884196" lon="9.389012386108062"><ele>330.0</ele><time>2026-04-30T14:53:03.996Z</time></trkpt><trkpt lat="44.74411347260389" lon="9.389014902314205"><ele>330.0</ele><time>2026-04-30T14:53:04.996Z</time></trkpt><trkpt lat="44.74426036519995" lon="9.389032763063112"><ele>330.0</ele><time>2026-04-30T14:53:05.996Z</time></trkpt><trkpt lat="44.74442418694339" lon="9.389072874197677"><ele>330.0</ele><time>2026-04-30T14:53:06.996Z</time></trkpt><trkpt lat="44.74457868337712" lon="9.389128244652612"><ele>324.6666666666667</ele><time>2026-04-30T14:53:07.996Z</time></trkpt><trkpt lat="44.744719373280724" lon="9.389196149308953"><ele>319.33333333333337</ele><time>2026-04-30T14:53:08.996Z</time></trkpt><trkpt lat="44.74487020898446" lon="9.38929108156113"><ele>314.0</ele><time>2026-04-30T14:53:09.996Z</time></trkpt><trkpt lat="44.74506370533136" lon="9.389410859213097"><ele>316.6666666666667</ele><time>2026-04-30T14:53:10.996Z</time></trkpt><trkpt lat="44.74523886147162" lon="9.389597654929482"><ele>319.3333333333333</ele><time>2026-04-30T14:53:11.996Z</time></trkpt><trkpt lat="44.74540098225815" lon="9.389728203916933"><ele>322.0</ele><time>2026-04-30T14:53:12.996Z</time></trkpt><trkpt lat="44.74557191192273" lon="9.389867788058604"><ele>322.0</ele><time>2026-04-30T14:53:13.996Z</time></trkpt><trkpt lat="44.745773589184644" lon="9.389932683868194"><ele>322.0</ele><time>2026-04-30T14:53:14.996Z</time></trkpt><trkpt lat="44.74595725250481" lon="9.390014503239364"><ele>322.0</ele><time>2026-04-30T14:53:15.996Z</time></trkpt><trkpt lat="44.74613040757424" lon="9.390087062471773"><ele>316.66666666666663</ele><time>2026-04-30T14:53:16.996Z</time></trkpt><trkpt lat="44.74630035675151" lon="9.390139830113055"><ele>311.3333333333333</ele><time>2026-04-30T14:53:17.996Z</time></trkpt><trkpt lat="44.74648734631412" lon="9.390185341728765"><ele>306.0</ele><time>2026-04-30T14:53:18.996Z</time></trkpt><trkpt lat="44.74666600830141" lon="9.390151680616185"><ele>306.0</ele><time>2026-04-30T14:53:19.996Z</time></trkpt><trkpt lat="44.746862296641275" lon="9.390138005241841"><ele>306.0</ele><time>2026-04-30T14:53:20.996Z</time></trkpt><trkpt lat="44.747064118760264" lon="9.390078316324365"><ele>306.0</ele><time>2026-04-30T14:53:21.996Z</time></trkpt><trkpt lat="44.74725082742678" lon="9.38999397071547"><ele>312.0</ele><time>2026-04-30T14:53:22.996Z</time></trkpt><trkpt lat="44.74743929581937" lon="9.389875178145646"><ele>318.0</ele><time>2026-04-30T14:53:23.996Z</time></trkpt><trkpt lat="44.74761696037183" lon="9.389729027358202"><ele>324.0</ele><time>2026-04-30T14:53:24.996Z</time></trkpt><trkpt lat="44.747779390124364" lon="9.389552445925704"><ele>328.3333333333333</ele><time>2026-04-30T14:53:25.996Z</time></trkpt><trkpt lat="44.747924311594666" lon="9.38935818266227"><ele>332.66666666666663</ele><time>2026-04-30T14:53:26.996Z</time></trkpt><trkpt lat="44.74805503134583" lon="9.389142969611875"><ele>337.0</ele><time>2026-04-30T14:53:27.996Z</time></trkpt><trkpt lat="44.74817020645665" lon="9.388902891783566"><ele>327.0</ele><time>2026-04-30T14:53:28.996Z</time></trkpt><trkpt lat="44.748281568834464" lon="9.388653627591744"><ele>317.0</ele><time>2026-04-30T14:53:29.996Z</time></trkpt><trkpt lat="44.74838584843125" lon="9.388397520569024"><ele>307.0</ele><time>2026-04-30T14:53:30.996Z</time></trkpt><trkpt lat="44.74849071719882" lon="9.388145899081488"><ele>320.3333333333333</ele><time>2026-04-30T14:53:31.996Z</time></trkpt><trkpt lat="44.7485908967697" lon="9.387907079838792"><ele>333.6666666666667</ele><time>2026-04-30T14:53:32.996Z</time></trkpt><trkpt lat="44.748689942384836" lon="9.387646139896733"><ele>347.0</ele><time>2026-04-30T14:53:33.996Z</time></trkpt><trkpt lat="44.74878881327771" lon="9.387393498622943"><ele>341.6666666666667</ele><time>2026-04-30T14:53:34.996Z</time></trkpt><trkpt lat="44.74889925121709" lon="9.387161765698735"><ele>336.3333333333333</ele><time>2026-04-30T14:53:35.996Z</time></trkpt><trkpt lat="44.748942038765016" lon="9.38685132983113"><ele>331.0</ele><time>2026-04-30T14:53:36.996Z</time></trkpt><trkpt lat="44.748986317632344" lon="9.386572734838568"><ele>326.3333333333333</ele><time>2026-04-30T14:53:37.996Z</time></trkpt><trkpt lat="44.74901447444166" lon="9.386286531236165"><ele>321.6666666666667</ele><time>2026-04-30T14:53:38.996Z</time></trkpt><trkpt lat="44.7490228898685" lon="9.385985730523325"><ele>317.0</ele><time>2026-04-30T14:53:39.996Z</time></trkpt><trkpt lat="44.749017851904355" lon="9.385683457110064"><ele>314.33333333333337</ele><time>2026-04-30T14:53:40.996Z</time></trkpt><trkpt lat="44.74900907041504" lon="9.385391549817507"><ele>311.6666666666667</ele><time>2026-04-30T14:53:41.996Z</time></trkpt><trkpt lat="44.74901160539427" lon="9.385089489665093"><ele>309.0</ele><time>2026-04-30T14:53:42.996Z</time></trkpt><trkpt lat="44.74900501497105" lon="9.384787294748229"><ele>310.0</ele><time>2026-04-30T14:53:43.996Z</time></trkpt><trkpt lat="44.748996045324716" lon="9.384488007836243"><ele>311.0</ele><time>2026-04-30T14:53:44.996Z</time></trkpt><trkpt lat="44.748996081368354" lon="9.384213389657877"><ele>312.0</ele><time>2026-04-30T14:53:45.996Z</time></trkpt><trkpt lat="44.74899093423891" lon="9.383927802342873"><ele>310.3333333333333</ele><time>2026-04-30T14:53:46.996Z</time></trkpt><trkpt lat="44.74895651705308" lon="9.383629738134545"><ele>308.66666666666663</ele><time>2026-04-30T14:53:47.996Z</time></trkpt><trkpt lat="44.74893011256456" lon="9.383343788747437"><ele>307.0</ele><time>2026-04-30T14:53:48.996Z</time></trkpt><trkpt lat="44.74887460541209" lon="9.383047130160325"><ele>306.66666666666663</ele><time>2026-04-30T14:53:49.996Z</time></trkpt><trkpt lat="44.74882807212545" lon="9.382780931675684"><ele>306.3333333333333</ele><time>2026-04-30T14:53:50.996Z</time></trkpt><trkpt lat="44.748788337491185" lon="9.38251338277915"><ele>306.0</ele><time>2026-04-30T14:53:51.996Z</time></trkpt><trkpt lat="44.74875586989872" lon="9.382264712172653"><ele>303.6666666666667</ele><time>2026-04-30T14:53:52.996Z</time></trkpt><trkpt lat="44.74876467206136" lon="9.382025474690055"><ele>301.33333333333337</ele><time>2026-04-30T14:53:53.996Z</time></trkpt><trkpt lat="44.7487783467823" lon="9.381790077589184"><ele>299.0</ele><time>2026-04-30T14:53:54.996Z</time></trkpt><trkpt lat="44.74880516584646" lon="9.381549306757565"><ele>294.33333333333337</ele><time>2026-04-30T14:53:55.996Z</time></trkpt><trkpt lat="44.74884707390563" lon="9.381317075118176"><ele>289.6666666666667</ele><time>2026-04-30T14:53:56.996Z</time></trkpt><trkpt lat="44.748908705815204" lon="9.381092691630212"><ele>285.0</ele><time>2026-04-30T14:53:57.996Z</time></trkpt><trkpt lat="44.74898610322535" lon="9.380867089835746"><ele>285.0</ele><time>2026-04-30T14:53:58.996Z</time></trkpt><trkpt lat="44.74908029410658" lon="9.38065988093665"><ele>285.0</ele><time>2026-04-30T14:53:59.996Z</time></trkpt><trkpt lat="44.749194531666674" lon="9.380464609533052"><ele>285.0</ele><time>2026-04-30T14:54:00.996Z</time></trkpt><trkpt lat="44.749323652767494" lon="9.380286893373745"><ele>280.0</ele><time>2026-04-30T14:54:01.996Z</time></trkpt><trkpt lat="44.749468738794185" lon="9.380124796470344"><ele>275.0</ele><time>2026-04-30T14:54:02.996Z</time></trkpt><trkpt lat="44.749618050055005" lon="9.37997812125128"><ele>270.0</ele><time>2026-04-30T14:54:03.996Z</time></trkpt><trkpt lat="44.74980823620624" lon="9.379882225238648"><ele>270.0</ele><time>2026-04-30T14:54:04.996Z</time></trkpt><trkpt lat="44.74999646709388" lon="9.379776246307898"><ele>270.0</ele><time>2026-04-30T14:54:05.996Z</time></trkpt><trkpt lat="44.75018731643462" lon="9.37971886262159"><ele>270.0</ele><time>2026-04-30T14:54:06.996Z</time></trkpt><trkpt lat="44.750379906786456" lon="9.379672599652972"><ele>269.0</ele><time>2026-04-30T14:54:07.996Z</time></trkpt><trkpt lat="44.750576928583314" lon="9.379672111476552"><ele>268.0</ele><time>2026-04-30T14:54:08.996Z</time></trkpt><trkpt lat="44.75075921815469" lon="9.379697059749594"><ele>267.0</ele><time>2026-04-30T14:54:09.996Z</time></trkpt><trkpt lat="44.75094489033893" lon="9.37971406265444"><ele>266.3333333333333</ele><time>2026-04-30T14:54:10.996Z</time></trkpt><trkpt lat="44.75113603682673" lon="9.379709085063999"><ele>265.66666666666663</ele><time>2026-04-30T14:54:12.001Z</time></trkpt><trkpt lat="44.751334794664125" lon="9.379756260258274"><ele>265.0</ele><time>2026-04-30T14:54:13.001Z</time></trkpt><trkpt lat="44.75153434372279" lon="9.379774501719004"><ele>265.0</ele><time>2026-04-30T14:54:14.001Z</time></trkpt><trkpt lat="44.75173267062979" lon="9.379792198374416"><ele>265.0</ele><time>2026-04-30T14:54:15.001Z</time></trkpt><trkpt lat="44.751939309834704" lon="9.379803570916579"><ele>265.0</ele><time>2026-04-30T14:54:16.001Z</time></trkpt><trkpt lat="44.75213641005035" lon="9.379821776813923"><ele>264.0</ele><time>2026-04-30T14:54:17.001Z</time></trkpt><trkpt lat="44.752302418173166" lon="9.379826140826044"><ele>263.0</ele><time>2026-04-30T14:54:18.001Z</time></trkpt><trkpt lat="44.75249067286111" lon="9.379842381331242"><ele>262.0</ele><time>2026-04-30T14:54:19.001Z</time></trkpt><trkpt lat="44.75267632943422" lon="9.379858397659762"><ele>262.66666666666663</ele><time>2026-04-30T14:54:20.001Z</time></trkpt><trkpt lat="44.7528900061639" lon="9.379877723083915"><ele>263.3333333333333</ele><time>2026-04-30T14:54:21.001Z</time></trkpt><trkpt lat="44.75308840055645" lon="9.379871226055448"><ele>264.0</ele><time>2026-04-30T14:54:22.001Z</time></trkpt><trkpt lat="44.75325630180885" lon="9.379906260073517"><ele>264.0</ele><time>2026-04-30T14:54:23.001Z</time></trkpt><trkpt lat="44.75342831043849" lon="9.379919719903588"><ele>264.0</ele><time>2026-04-30T14:54:24.001Z</time></trkpt><trkpt lat="44.7536025460665" lon="9.379940650158886"><ele>264.0</ele><time>2026-04-30T14:54:25.001Z</time></trkpt><trkpt lat="44.75376466753381" lon="9.379971786890858"><ele>266.3333333333333</ele><time>2026-04-30T14:54:26.001Z</time></trkpt><trkpt lat="44.75393020123256" lon="9.380033336387996"><ele>268.66666666666663</ele><time>2026-04-30T14:54:27.001Z</time></trkpt><trkpt lat="44.75408138123704" lon="9.380117657750901"><ele>271.0</ele><time>2026-04-30T14:54:28.001Z</time></trkpt><trkpt lat="44.754221977077094" lon="9.380222553036159"><ele>271.0</ele><time>2026-04-30T14:54:29.001Z</time></trkpt><trkpt lat="44.754372824352686" lon="9.380352402625643"><ele>271.0</ele><time>2026-04-30T14:54:30.001Z</time></trkpt><trkpt lat="44.75452595752521" lon="9.38048975559482"><ele>271.0</ele><time>2026-04-30T14:54:31.001Z</time></trkpt><trkpt lat="44.7546857446295" lon="9.380621424466305"><ele>271.0</ele><time>2026-04-30T14:54:32.001Z</time></trkpt><trkpt lat="44.75484373496828" lon="9.380773698715988"><ele>271.0</ele><time>2026-04-30T14:54:33.001Z</time></trkpt><trkpt lat="44.75499565109476" lon="9.380922624717163"><ele>271.0</ele><time>2026-04-30T14:54:34.001Z</time></trkpt><trkpt lat="44.75515125185498" lon="9.381066026126401"><ele>270.66666666666663</ele><time>2026-04-30T14:54:35.001Z</time></trkpt><trkpt lat="44.755293576195236" lon="9.381196869538153"><ele>270.3333333333333</ele><time>2026-04-30T14:54:36Z</time></trkpt><trkpt lat="44.755448633295856" lon="9.381343197648805"><ele>270.0</ele><time>2026-04-30T14:54:37Z</time></trkpt><trkpt lat="44.755596271809445" lon="9.381479693095796"><ele>270.0</ele><time>2026-04-30T14:54:38Z</time></trkpt><trkpt lat="44.75574085504795" lon="9.381614338477258"><ele>270.0</ele><time>2026-04-30T14:54:39Z</time></trkpt><trkpt lat="44.75588362940798" lon="9.381788242261075"><ele>270.0</ele><time>2026-04-30T14:54:40Z</time></trkpt><trkpt lat="44.756031165051056" lon="9.381910510200283"><ele>270.3333333333333</ele><time>2026-04-30T14:54:41Z</time></trkpt><trkpt lat="44.75618005308507" lon="9.382013822378225"><ele>270.66666666666663</ele><time>2026-04-30T14:54:42Z</time></trkpt><trkpt lat="44.756337731314886" lon="9.382074080951107"><ele>271.0</ele><time>2026-04-30T14:54:43Z</time></trkpt><trkpt lat="44.756485302801025" lon="9.382084722650612"><ele>271.0</ele><time>2026-04-30T14:54:44Z</time></trkpt><trkpt lat="44.75665998139407" lon="9.382125982054283"><ele>271.0</ele><time>2026-04-30T14:54:45Z</time></trkpt><trkpt lat="44.75683561829326" lon="9.382117542221595"><ele>271.0</ele><time>2026-04-30T14:54:46Z</time></trkpt><trkpt lat="44.757015955549505" lon="9.38210360280371"><ele>270.3333333333333</ele><time>2026-04-30T14:54:47Z</time></trkpt><trkpt lat="44.75718416727284" lon="9.382070482752455"><ele>269.6666666666667</ele><time>2026-04-30T14:54:48Z</time></trkpt><trkpt lat="44.75735489972815" lon="9.382050108573496"><ele>269.0</ele><time>2026-04-30T14:54:49Z</time></trkpt><trkpt lat="44.75753087060689" lon="9.382035136175249"><ele>269.0</ele><time>2026-04-30T14:54:50Z</time></trkpt><trkpt lat="44.7576923395617" lon="9.38200134621132"><ele>269.0</ele><time>2026-04-30T14:54:51Z</time></trkpt><trkpt lat="44.75785144380198" lon="9.381950829746165"><ele>269.0</ele><time>2026-04-30T14:54:52Z</time></trkpt><trkpt lat="44.75802405355657" lon="9.381939772442092"><ele>268.33333333333337</ele><time>2026-04-30T14:54:53Z</time></trkpt><trkpt lat="44.758192443065646" lon="9.38190378677006"><ele>267.6666666666667</ele><time>2026-04-30T14:54:54Z</time></trkpt><trkpt lat="44.75837427732254" lon="9.381895073211929"><ele>267.0</ele><time>2026-04-30T14:54:55Z</time></trkpt><trkpt lat="44.758549212952865" lon="9.381844446502658"><ele>266.6666666666667</ele><time>2026-04-30T14:54:56Z</time></trkpt><trkpt lat="44.75870887831965" lon="9.381817524734853"><ele>266.33333333333337</ele><time>2026-04-30T14:54:57Z</time></trkpt><trkpt lat="44.758864167696515" lon="9.38180054336138"><ele>266.0</ele><time>2026-04-30T14:54:58Z</time></trkpt><trkpt lat="44.75903010893237" lon="9.381772231134105"><ele>266.0</ele><time>2026-04-30T14:54:59Z</time></trkpt><trkpt lat="44.759186725788275" lon="9.381738770071175"><ele>266.0</ele><time>2026-04-30T14:55:00Z</time></trkpt><trkpt lat="44.75933109135376" lon="9.38170144463358"><ele>266.0</ele><time>2026-04-30T14:55:01Z</time></trkpt><trkpt lat="44.75947511052231" lon="9.381691490802902"><ele>266.0</ele><time>2026-04-30T14:55:02Z</time></trkpt><trkpt lat="44.75963000862776" lon="9.381667879552621"><ele>266.0</ele><time>2026-04-30T14:55:03Z</time></trkpt><trkpt lat="44.7597886493806" lon="9.381658011253997"><ele>266.0</ele><time>2026-04-30T14:55:04Z</time></trkpt><trkpt lat="44.759942186660574" lon="9.381681611245073"><ele>266.0</ele><time>2026-04-30T14:55:05Z</time></trkpt><trkpt lat="44.7600966864431" lon="9.381714707833678"><ele>266.6666666666667</ele><time>2026-04-30T14:55:06Z</time></trkpt><trkpt lat="44.760258458018896" lon="9.38176982925452"><ele>267.3333333333333</ele><time>2026-04-30T14:55:07Z</time></trkpt><trkpt lat="44.7604104871734" lon="9.38184768068227"><ele>268.0</ele><time>2026-04-30T14:55:08Z</time></trkpt><trkpt lat="44.76054776836503" lon="9.381931751085386"><ele>268.0</ele><time>2026-04-30T14:55:09Z</time></trkpt><trkpt lat="44.760674495901036" lon="9.38201595522421"><ele>268.0</ele><time>2026-04-30T14:55:10Z</time></trkpt><trkpt lat="44.76081550880598" lon="9.382111683725082"><ele>268.0</ele><time>2026-04-30T14:55:11Z</time></trkpt><trkpt lat="44.76095957010378" lon="9.382196179273322"><ele>266.3333333333333</ele><time>2026-04-30T14:55:12Z</time></trkpt><trkpt lat="44.761104308484185" lon="9.382309276551052"><ele>264.6666666666667</ele><time>2026-04-30T14:55:13Z</time></trkpt><trkpt lat="44.76125018474428" lon="9.382409468586514"><ele>263.0</ele><time>2026-04-30T14:55:14Z</time></trkpt><trkpt lat="44.7614036123382" lon="9.382512105754039"><ele>263.0</ele><time>2026-04-30T14:55:15Z</time></trkpt><trkpt lat="44.76155363087547" lon="9.38261284033341"><ele>263.0</ele><time>2026-04-30T14:55:16Z</time></trkpt><trkpt lat="44.76168727062149" lon="9.382705124061948"><ele>263.0</ele><time>2026-04-30T14:55:17Z</time></trkpt><trkpt lat="44.761818109891905" lon="9.382804902577698"><ele>263.0</ele><time>2026-04-30T14:55:18Z</time></trkpt><trkpt lat="44.7619602693282" lon="9.382921645582616"><ele>263.0</ele><time>2026-04-30T14:55:19Z</time></trkpt><trkpt lat="44.76212481614524" lon="9.383040570339713"><ele>263.0</ele><time>2026-04-30T14:55:20Z</time></trkpt><trkpt lat="44.762276250472546" lon="9.383138548853646"><ele>263.0</ele><time>2026-04-30T14:55:21Z</time></trkpt><trkpt lat="44.76242173247979" lon="9.383248962081835"><ele>263.0</ele><time>2026-04-30T14:55:22Z</time></trkpt><trkpt lat="44.76256614026913" lon="9.383376495832378"><ele>263.0</ele><time>2026-04-30T14:55:23Z</time></trkpt><trkpt lat="44.762703735552826" lon="9.383487499270897"><ele>264.6666666666667</ele><time>2026-04-30T14:55:24Z</time></trkpt><trkpt lat="44.76283564639148" lon="9.383609658215384"><ele>266.3333333333333</ele><time>2026-04-30T14:55:25Z</time></trkpt><trkpt lat="44.76295254981029" lon="9.383771885717987"><ele>268.0</ele><time>2026-04-30T14:55:26Z</time></trkpt><trkpt lat="44.76307176427349" lon="9.383936283814304"><ele>268.0</ele><time>2026-04-30T14:55:27Z</time></trkpt><trkpt lat="44.763183598723444" lon="9.384107692207762"><ele>268.0</ele><time>2026-04-30T14:55:28Z</time></trkpt><trkpt lat="44.7633003740959" lon="9.384298281706105"><ele>268.0</ele><time>2026-04-30T14:55:29Z</time></trkpt><trkpt lat="44.76339808896349" lon="9.384481954430406"><ele>265.66666666666663</ele><time>2026-04-30T14:55:29.999Z</time></trkpt><trkpt lat="44.763473089358115" lon="9.384688895345308"><ele>263.3333333333333</ele><time>2026-04-30T14:55:30.999Z</time></trkpt><trkpt lat="44.76357263762441" lon="9.38490438878636"><ele>261.0</ele><time>2026-04-30T14:55:31.999Z</time></trkpt><trkpt lat="44.76366738923879" lon="9.38508623566109"><ele>262.25</ele><time>2026-04-30T14:55:32.999Z</time></trkpt><trkpt lat="44.76374685351896" lon="9.38523928696152"><ele>263.5</ele><time>2026-04-30T14:55:33.999Z</time></trkpt><trkpt lat="44.76379229599697" lon="9.385370438898384"><ele>264.75</ele><time>2026-04-30T14:55:34.999Z</time></trkpt><trkpt lat="44.76386787560565" lon="9.385490804982739"><ele>266.0</ele><time>2026-04-30T14:55:35.999Z</time></trkpt><trkpt lat="44.76391241602637" lon="9.385623888658921"><ele>266.0</ele><time>2026-04-30T14:55:36.999Z</time></trkpt><trkpt lat="44.76396319291752" lon="9.385730256566026"><ele>266.0</ele><time>2026-04-30T14:55:37.999Z</time></trkpt><trkpt lat="44.76401343982929" lon="9.38583471629717"><ele>266.0</ele><time>2026-04-30T14:55:38.999Z</time></trkpt><trkpt lat="44.764074966303575" lon="9.38592023552672"><ele>266.0</ele><time>2026-04-30T14:55:39.999Z</time></trkpt><trkpt lat="44.76411212008115" lon="9.386016974441825"><ele>266.0</ele><time>2026-04-30T14:55:40.999Z</time></trkpt><trkpt lat="44.76416884721015" lon="9.38614651307517"><ele>266.0</ele><time>2026-04-30T14:55:42.999Z</time></trkpt><trkpt lat="44.764218304944826" lon="9.386224626065548"><ele>266.0</ele><time>2026-04-30T14:55:46.999Z</time></trkpt><trkpt lat="44.76414758597578" lon="9.386249316836762"><ele>266.0</ele><time>2026-04-30T14:56:01.999Z</time></trkpt><trkpt lat="44.76415421931959" lon="9.38613341533006"><ele>266.0</ele><time>2026-04-30T14:56:09.999Z</time></trkpt><trkpt lat="44.76419412849479" lon="9.38623065516013"><ele>266.0</ele><time>2026-04-30T14:56:57.998Z</time></trkpt><trkpt lat="44.76427424468341" lon="9.386323260279283"><ele>266.0</ele><time>2026-04-30T14:59:51.996Z</time></trkpt><trkpt lat="44.76431681930193" lon="9.386407053708403"><ele>265.5</ele><time>2026-04-30T14:59:52.996Z</time></trkpt><trkpt lat="44.7643598080253" lon="9.386496214131006"><ele>265.0</ele><time>2026-04-30T14:59:53.996Z</time></trkpt><trkpt lat="44.76440434897025" lon="9.386588256593335"><ele>264.5</ele><time>2026-04-30T14:59:54.996Z</time></trkpt><trkpt lat="44.76444823265444" lon="9.386678492062376"><ele>264.0</ele><time>2026-04-30T14:59:55.996Z</time></trkpt><trkpt lat="44.764491814972565" lon="9.38676751062343"><ele>263.5</ele><time>2026-04-30T14:59:56.996Z</time></trkpt><trkpt lat="44.764538521702065" lon="9.386862911002355"><ele>263.0</ele><time>2026-04-30T14:59:57.996Z</time></trkpt><trkpt lat="44.764588323083956" lon="9.386964632305329"><ele>263.0</ele><time>2026-04-30T14:59:58.996Z</time></trkpt><trkpt lat="44.76463813455755" lon="9.38706637410883"><ele>263.0</ele><time>2026-04-30T14:59:59.996Z</time></trkpt><trkpt lat="44.76468884060255" lon="9.38716923902846"><ele>263.0</ele><time>2026-04-30T15:00:00.996Z</time></trkpt><trkpt lat="44.764741056097044" lon="9.38727520620279"><ele>263.0</ele><time>2026-04-30T15:00:01.996Z</time></trkpt><trkpt lat="44.76479473702231" lon="9.387384328952892"><ele>263.0</ele><time>2026-04-30T15:00:02.996Z</time></trkpt><trkpt lat="44.764851996888794" lon="9.387500726906948"><ele>261.8</ele><time>2026-04-30T15:00:03.996Z</time></trkpt><trkpt lat="44.76490968006658" lon="9.387618671014861"><ele>260.6</ele><time>2026-04-30T15:00:04.996Z</time></trkpt><trkpt lat="44.764966902530965" lon="9.387737693208694"><ele>259.4</ele><time>2026-04-30T15:00:05.996Z</time></trkpt><trkpt lat="44.76503768517614" lon="9.387848151476277"><ele>258.2</ele><time>2026-04-30T15:00:06.996Z</time></trkpt><trkpt lat="44.76509828196403" lon="9.387971169022245"><ele>257.0</ele><time>2026-04-30T15:00:07.996Z</time></trkpt><trkpt lat="44.76516003863301" lon="9.388097860146342"><ele>258.0</ele><time>2026-04-30T15:00:08.996Z</time></trkpt><trkpt lat="44.76522375265579" lon="9.388226827282224"><ele>259.0</ele><time>2026-04-30T15:00:09.996Z</time></trkpt><trkpt lat="44.76528980284528" lon="9.388355042904445"><ele>260.0</ele><time>2026-04-30T15:00:10.996Z</time></trkpt><trkpt lat="44.765358052852804" lon="9.388482258239389"><ele>261.0</ele><time>2026-04-30T15:00:11.996Z</time></trkpt><trkpt lat="44.765420059592984" lon="9.388619767698795"><ele>261.0</ele><time>2026-04-30T15:00:12.996Z</time></trkpt><trkpt lat="44.76550223743985" lon="9.388739583593733"><ele>261.0</ele><time>2026-04-30T15:00:13.996Z</time></trkpt><trkpt lat="44.76559651557692" lon="9.388848188097938"><ele>261.0</ele><time>2026-04-30T15:00:14.996Z</time></trkpt><trkpt lat="44.76570920001042" lon="9.388924094509335"><ele>261.0</ele><time>2026-04-30T15:00:15.995Z</time></trkpt><trkpt lat="44.76581446406313" lon="9.38901431792164"><ele>260.5</ele><time>2026-04-30T15:00:16.995Z</time></trkpt><trkpt lat="44.76592664754953" lon="9.389091409561104"><ele>260.0</ele><time>2026-04-30T15:00:17.995Z</time></trkpt><trkpt lat="44.76604530299093" lon="9.389156784920466"><ele>259.5</ele><time>2026-04-30T15:00:18.995Z</time></trkpt><trkpt lat="44.76616699080027" lon="9.389198341518622"><ele>259.0</ele><time>2026-04-30T15:00:19.995Z</time></trkpt><trkpt lat="44.766289980188965" lon="9.389224691887815"><ele>259.0</ele><time>2026-04-30T15:00:20.995Z</time></trkpt><trkpt lat="44.76641555861112" lon="9.389229962286729"><ele>259.0</ele><time>2026-04-30T15:00:21.995Z</time></trkpt><trkpt lat="44.76654451741431" lon="9.38922300315363"><ele>259.0</ele><time>2026-04-30T15:00:22.995Z</time></trkpt><trkpt lat="44.76667310727897" lon="9.389202803920158"><ele>259.0</ele><time>2026-04-30T15:00:23.995Z</time></trkpt><trkpt lat="44.76679940447003" lon="9.389167330939243"><ele>259.0</ele><time>2026-04-30T15:00:24.995Z</time></trkpt><trkpt lat="44.76692391012636" lon="9.389120337699053"><ele>259.0</ele><time>2026-04-30T15:00:25.995Z</time></trkpt><trkpt lat="44.767049644519986" lon="9.389076154059827"><ele>259.0</ele><time>2026-04-30T15:00:26.995Z</time></trkpt><trkpt lat="44.76717661277062" lon="9.389032093578605"><ele>259.0</ele><time>2026-04-30T15:00:27.995Z</time></trkpt><trkpt lat="44.76730677483521" lon="9.388995832344959"><ele>259.0</ele><time>2026-04-30T15:00:28.995Z</time></trkpt><trkpt lat="44.767439884715" lon="9.388961054875812"><ele>259.0</ele><time>2026-04-30T15:00:29.995Z</time></trkpt><trkpt lat="44.76757678220496" lon="9.388927008985036"><ele>259.0</ele><time>2026-04-30T15:00:30.995Z</time></trkpt><trkpt lat="44.767715695786045" lon="9.388884663885909"><ele>259.0</ele><time>2026-04-30T15:00:31.995Z</time></trkpt><trkpt lat="44.76785800297132" lon="9.388846033617012"><ele>260.0</ele><time>2026-04-30T15:00:32.995Z</time></trkpt><trkpt lat="44.7680086810385" lon="9.388807580091383"><ele>261.0</ele><time>2026-04-30T15:00:33.995Z</time></trkpt><trkpt lat="44.768164441214836" lon="9.388760620004312"><ele>262.0</ele><time>2026-04-30T15:00:34.995Z</time></trkpt><trkpt lat="44.768324964281" lon="9.38871284266466"><ele>262.0</ele><time>2026-04-30T15:00:35.995Z</time></trkpt><trkpt lat="44.768490448020216" lon="9.38866226566425"><ele>262.0</ele><time>2026-04-30T15:00:36.995Z</time></trkpt><trkpt lat="44.76865939863825" lon="9.388621088938665"><ele>262.0</ele><time>2026-04-30T15:00:37.995Z</time></trkpt><trkpt lat="44.76882343574651" lon="9.388565694613199"><ele>262.66666666666663</ele><time>2026-04-30T15:00:38.995Z</time></trkpt><trkpt lat="44.76899256501722" lon="9.388528232142189"><ele>263.3333333333333</ele><time>2026-04-30T15:00:39.995Z</time></trkpt><trkpt lat="44.76917479358594" lon="9.388481846072196"><ele>264.0</ele><time>2026-04-30T15:00:40.995Z</time></trkpt><trkpt lat="44.76935774590631" lon="9.38844618436826"><ele>262.3333333333333</ele><time>2026-04-30T15:00:41.995Z</time></trkpt><trkpt lat="44.76953289698686" lon="9.388438716777594"><ele>260.66666666666663</ele><time>2026-04-30T15:00:42.995Z</time></trkpt><trkpt lat="44.76970477106388" lon="9.38843107011729"><ele>259.0</ele><time>2026-04-30T15:00:43.995Z</time></trkpt><trkpt lat="44.769879446588455" lon="9.388423409263568"><ele>259.0</ele><time>2026-04-30T15:00:44.995Z</time></trkpt><trkpt lat="44.77005481269728" lon="9.388444969553815"><ele>259.0</ele><time>2026-04-30T15:00:45.995Z</time></trkpt><trkpt lat="44.770237360214225" lon="9.388468581467594"><ele>259.0</ele><time>2026-04-30T15:00:46.995Z</time></trkpt><trkpt lat="44.77041308622057" lon="9.388520404567535"><ele>260.0</ele><time>2026-04-30T15:00:47.995Z</time></trkpt><trkpt lat="44.77059175024707" lon="9.388565245630382"><ele>261.0</ele><time>2026-04-30T15:00:48.995Z</time></trkpt><trkpt lat="44.77077019880682" lon="9.388632168404952"><ele>262.0</ele><time>2026-04-30T15:00:49.995Z</time></trkpt><trkpt lat="44.77094705395165" lon="9.38869992700206"><ele>262.66666666666663</ele><time>2026-04-30T15:00:50.995Z</time></trkpt><trkpt lat="44.771133240847384" lon="9.388777777650715"><ele>263.3333333333333</ele><time>2026-04-30T15:00:51.995Z</time></trkpt><trkpt lat="44.77133499347524" lon="9.388862860350889"><ele>264.0</ele><time>2026-04-30T15:00:52.995Z</time></trkpt><trkpt lat="44.77153069940021" lon="9.388947960009778"><ele>262.3333333333333</ele><time>2026-04-30T15:00:53.995Z</time></trkpt><trkpt lat="44.77171189898612" lon="9.389039471767532"><ele>260.66666666666663</ele><time>2026-04-30T15:00:54.995Z</time></trkpt><trkpt lat="44.77188788636558" lon="9.389091827346247"><ele>259.0</ele><time>2026-04-30T15:00:55.995Z</time></trkpt><trkpt lat="44.7720609751776" lon="9.389170318536882"><ele>259.0</ele><time>2026-04-30T15:00:56.995Z</time></trkpt><trkpt lat="44.772237960364755" lon="9.389246016850047"><ele>259.0</ele><time>2026-04-30T15:00:57.995Z</time></trkpt><trkpt lat="44.772418177612394" lon="9.389324286328122"><ele>259.0</ele><time>2026-04-30T15:00:58.995Z</time></trkpt><trkpt lat="44.77260668048681" lon="9.389364969502017"><ele>259.3333333333333</ele><time>2026-04-30T15:00:59.995Z</time></trkpt><trkpt lat="44.77278764926146" lon="9.389437513504424"><ele>259.6666666666667</ele><time>2026-04-30T15:01:00.995Z</time></trkpt><trkpt lat="44.772975494654574" lon="9.389485381541101"><ele>260.0</ele><time>2026-04-30T15:01:01.995Z</time></trkpt><trkpt lat="44.773156679145835" lon="9.38952719333591"><ele>260.0</ele><time>2026-04-30T15:01:02.995Z</time></trkpt><trkpt lat="44.77334468527189" lon="9.389549206344013"><ele>260.0</ele><time>2026-04-30T15:01:03.995Z</time></trkpt><trkpt lat="44.773534022437346" lon="9.389552900391616"><ele>260.0</ele><time>2026-04-30T15:01:04.995Z</time></trkpt><trkpt lat="44.773733131066656" lon="9.389544624537578"><ele>258.33333333333337</ele><time>2026-04-30T15:01:05.995Z</time></trkpt><trkpt lat="44.77392337562683" lon="9.389510549756238"><ele>256.6666666666667</ele><time>2026-04-30T15:01:06.995Z</time></trkpt><trkpt lat="44.77411955755004" lon="9.389513687078066"><ele>255.0</ele><time>2026-04-30T15:01:07.995Z</time></trkpt><trkpt lat="44.774312462043326" lon="9.389482647008563"><ele>255.0</ele><time>2026-04-30T15:01:08.995Z</time></trkpt><trkpt lat="44.77451418723116" lon="9.389478517627236"><ele>255.0</ele><time>2026-04-30T15:01:09.995Z</time></trkpt><trkpt lat="44.77470309441846" lon="9.389490178936114"><ele>255.0</ele><time>2026-04-30T15:01:10.995Z</time></trkpt><trkpt lat="44.77489522859584" lon="9.389498878509777"><ele>255.0</ele><time>2026-04-30T15:01:11.995Z</time></trkpt><trkpt lat="44.775082728484" lon="9.389582470907605"><ele>255.0</ele><time>2026-04-30T15:01:12.995Z</time></trkpt><trkpt lat="44.77527088465893" lon="9.389638122632054"><ele>255.0</ele><time>2026-04-30T15:01:13.995Z</time></trkpt><trkpt lat="44.7754707500413" lon="9.389720795993831"><ele>254.66666666666669</ele><time>2026-04-30T15:01:14.995Z</time></trkpt><trkpt lat="44.77565563199542" lon="9.389848282039233"><ele>254.33333333333334</ele><time>2026-04-30T15:01:15.995Z</time></trkpt><trkpt lat="44.77583539790435" lon="9.389984393788135"><ele>254.0</ele><time>2026-04-30T15:01:16.995Z</time></trkpt><trkpt lat="44.77601199505308" lon="9.390139621347569"><ele>262.0</ele><time>2026-04-30T15:01:17.999Z</time></trkpt><trkpt lat="44.776189536307456" lon="9.390302917124124"><ele>270.0</ele><time>2026-04-30T15:01:18.999Z</time></trkpt><trkpt lat="44.77638821302977" lon="9.390487111568401"><ele>264.5</ele><time>2026-04-30T15:01:19.999Z</time></trkpt><trkpt lat="44.7765726806265" lon="9.390659184105731"><ele>259.0</ele><time>2026-04-30T15:01:20.999Z</time></trkpt><trkpt lat="44.77676842535156" lon="9.390842824733276"><ele>258.0</ele><time>2026-04-30T15:01:21.999Z</time></trkpt><trkpt lat="44.77695565489846" lon="9.391018661567037"><ele>257.0</ele><time>2026-04-30T15:01:22.999Z</time></trkpt><trkpt lat="44.77714025490675" lon="9.39119454356598"><ele>256.0</ele><time>2026-04-30T15:01:23.999Z</time></trkpt><trkpt lat="44.77732844905429" lon="9.391374881046033"><ele>256.0</ele><time>2026-04-30T15:01:24.999Z</time></trkpt><trkpt lat="44.77751344695619" lon="9.391562742307244"><ele>256.0</ele><time>2026-04-30T15:01:25.999Z</time></trkpt><trkpt lat="44.777685692296714" lon="9.391751013459112"><ele>256.0</ele><time>2026-04-30T15:01:26.999Z</time></trkpt><trkpt lat="44.7778572965606" lon="9.39195596948631"><ele>255.66666666666666</ele><time>2026-04-30T15:01:27.999Z</time></trkpt><trkpt lat="44.77801950354396" lon="9.392164805009488"><ele>255.33333333333331</ele><time>2026-04-30T15:01:28.999Z</time></trkpt><trkpt lat="44.77817435908402" lon="9.392389547871357"><ele>255.0</ele><time>2026-04-30T15:01:29.999Z</time></trkpt><trkpt lat="44.77833239077581" lon="9.392636419522354"><ele>255.0</ele><time>2026-04-30T15:01:30.999Z</time></trkpt><trkpt lat="44.77847554332901" lon="9.392881660607499"><ele>255.0</ele><time>2026-04-30T15:01:31.999Z</time></trkpt><trkpt lat="44.778619158508434" lon="9.393149470120171"><ele>259.5</ele><time>2026-04-30T15:01:32.999Z</time></trkpt><trkpt lat="44.77875008111981" lon="9.393419379166948"><ele>264.0</ele><time>2026-04-30T15:01:33.999Z</time></trkpt><trkpt lat="44.778883595357335" lon="9.393720077858166"><ele>258.5</ele><time>2026-04-30T15:01:35Z</time></trkpt><trkpt lat="44.779006890172106" lon="9.394015382105042"><ele>253.0</ele><time>2026-04-30T15:01:36Z</time></trkpt><trkpt lat="44.77912874280197" lon="9.394331639353817"><ele>253.0</ele><time>2026-04-30T15:01:37Z</time></trkpt><trkpt lat="44.779223640273564" lon="9.394625044061454"><ele>253.0</ele><time>2026-04-30T15:01:38Z</time></trkpt><trkpt lat="44.77931288761699" lon="9.394925283869306"><ele>264.0</ele><time>2026-04-30T15:01:39Z</time></trkpt><trkpt lat="44.77939499060186" lon="9.395227872009633"><ele>275.0</ele><time>2026-04-30T15:01:40Z</time></trkpt><trkpt lat="44.77948245903896" lon="9.395547222692755"><ele>275.0</ele><time>2026-04-30T15:01:41Z</time></trkpt><trkpt lat="44.77954147774584" lon="9.395886886781899"><ele>275.0</ele><time>2026-04-30T15:01:42Z</time></trkpt><trkpt lat="44.77959331116808" lon="9.396212859216623"><ele>271.0</ele><time>2026-04-30T15:01:43Z</time></trkpt><trkpt lat="44.77966337537423" lon="9.396536244213205"><ele>267.0</ele><time>2026-04-30T15:01:44Z</time></trkpt><trkpt lat="44.779706232737205" lon="9.396860809175061"><ele>264.0</ele><time>2026-04-30T15:01:45Z</time></trkpt><trkpt lat="44.779722866375884" lon="9.397190923448099"><ele>261.0</ele><time>2026-04-30T15:01:46Z</time></trkpt><trkpt lat="44.77974658073593" lon="9.397509555668526"><ele>261.0</ele><time>2026-04-30T15:01:47Z</time></trkpt><trkpt lat="44.7797704762284" lon="9.39785276502486"><ele>261.0</ele><time>2026-04-30T15:01:48Z</time></trkpt><trkpt lat="44.7797926530963" lon="9.398171290075904"><ele>260.5</ele><time>2026-04-30T15:01:49Z</time></trkpt><trkpt lat="44.7798147988217" lon="9.398489042096022"><ele>260.0</ele><time>2026-04-30T15:01:50Z</time></trkpt><trkpt lat="44.77984959630042" lon="9.398805700375364"><ele>259.0</ele><time>2026-04-30T15:01:51Z</time></trkpt><trkpt lat="44.77987150782924" lon="9.399118541245223"><ele>258.0</ele><time>2026-04-30T15:01:52Z</time></trkpt><trkpt lat="44.77991138886492" lon="9.399405540866313"><ele>257.0</ele><time>2026-04-30T15:01:53Z</time></trkpt><trkpt lat="44.77997070842312" lon="9.399691374665398"><ele>256.33333333333337</ele><time>2026-04-30T15:01:54Z</time></trkpt><trkpt lat="44.78005371267482" lon="9.399982856940355"><ele>255.66666666666669</ele><time>2026-04-30T15:01:55Z</time></trkpt><trkpt lat="44.780157796491466" lon="9.400254014253319"><ele>255.0</ele><time>2026-04-30T15:01:56Z</time></trkpt><trkpt lat="44.780266971135774" lon="9.400532922201675"><ele>255.0</ele><time>2026-04-30T15:01:57Z</time></trkpt><trkpt lat="44.78035664100408" lon="9.400824793087114"><ele>255.0</ele><time>2026-04-30T15:01:58Z</time></trkpt><trkpt lat="44.780481057031" lon="9.401086627328468"><ele>255.0</ele><time>2026-04-30T15:01:59Z</time></trkpt><trkpt lat="44.780641172956955" lon="9.401319172157967"><ele>254.33333333333331</ele><time>2026-04-30T15:01:59.999Z</time></trkpt><trkpt lat="44.7808098811615" lon="9.401525459356247"><ele>253.66666666666666</ele><time>2026-04-30T15:02:00.999Z</time></trkpt><trkpt lat="44.780963965164545" lon="9.401754185051654"><ele>253.0</ele><time>2026-04-30T15:02:01.999Z</time></trkpt><trkpt lat="44.7811232223186" lon="9.40196553213775"><ele>251.0</ele><time>2026-04-30T15:02:02.999Z</time></trkpt><trkpt lat="44.781268468600686" lon="9.402193397019762"><ele>249.0</ele><time>2026-04-30T15:02:03.999Z</time></trkpt><trkpt lat="44.78141959793505" lon="9.402408959680754"><ele>247.0</ele><time>2026-04-30T15:02:04.999Z</time></trkpt><trkpt lat="44.78156235301502" lon="9.402614776638783"><ele>247.0</ele><time>2026-04-30T15:02:05.999Z</time></trkpt><trkpt lat="44.78171402696781" lon="9.402834021674321"><ele>247.0</ele><time>2026-04-30T15:02:06.999Z</time></trkpt><trkpt lat="44.781874194724075" lon="9.403039266647372"><ele>247.0</ele><time>2026-04-30T15:02:07.999Z</time></trkpt><trkpt lat="44.78201659811261" lon="9.403249575187195"><ele>245.5</ele><time>2026-04-30T15:02:08.999Z</time></trkpt><trkpt lat="44.782174896275635" lon="9.40347265600587"><ele>244.0</ele><time>2026-04-30T15:02:09.999Z</time></trkpt><trkpt lat="44.782324439352216" lon="9.403721841433931"><ele>243.66666666666666</ele><time>2026-04-30T15:02:10.999Z</time></trkpt><trkpt lat="44.78247324368633" lon="9.403914011412612"><ele>243.33333333333331</ele><time>2026-04-30T15:02:11.999Z</time></trkpt><trkpt lat="44.782610422969654" lon="9.40411102330675"><ele>243.0</ele><time>2026-04-30T15:02:12.999Z</time></trkpt><trkpt lat="44.782753739172634" lon="9.40431301302023"><ele>242.0</ele><time>2026-04-30T15:02:13.999Z</time></trkpt><trkpt lat="44.78289342404624" lon="9.404543908082886"><ele>241.0</ele><time>2026-04-30T15:02:14.999Z</time></trkpt><trkpt lat="44.78307360960171" lon="9.404795941294953"><ele>241.0</ele><time>2026-04-30T15:02:15.999Z</time></trkpt><trkpt lat="44.783239874938026" lon="9.405006476227895"><ele>241.0</ele><time>2026-04-30T15:02:16.999Z</time></trkpt><trkpt lat="44.783402325560736" lon="9.405248919096799"><ele>242.0</ele><time>2026-04-30T15:02:17.999Z</time></trkpt><trkpt lat="44.783550282416286" lon="9.405482551414645"><ele>243.0</ele><time>2026-04-30T15:02:18.999Z</time></trkpt><trkpt lat="44.78369660525507" lon="9.40571069550759"><ele>244.0</ele><time>2026-04-30T15:02:19.999Z</time></trkpt><trkpt lat="44.78384640839908" lon="9.405930623482389"><ele>244.0</ele><time>2026-04-30T15:02:20.999Z</time></trkpt><trkpt lat="44.78398795017668" lon="9.406127667641139"><ele>244.0</ele><time>2026-04-30T15:02:21.999Z</time></trkpt><trkpt lat="44.78412673863516" lon="9.406345269873711"><ele>244.0</ele><time>2026-04-30T15:02:22.999Z</time></trkpt><trkpt lat="44.78427023011588" lon="9.40655442025095"><ele>244.66666666666666</ele><time>2026-04-30T15:02:23.999Z</time></trkpt><trkpt lat="44.78441239233951" lon="9.406766781146187"><ele>245.33333333333331</ele><time>2026-04-30T15:02:24.999Z</time></trkpt><trkpt lat="44.78455621816464" lon="9.406978201003172"><ele>246.0</ele><time>2026-04-30T15:02:25.999Z</time></trkpt><trkpt lat="44.784700146529595" lon="9.407204606326074"><ele>246.66666666666669</ele><time>2026-04-30T15:02:26.999Z</time></trkpt><trkpt lat="44.78484559391405" lon="9.407410592316284"><ele>247.33333333333334</ele><time>2026-04-30T15:02:27.999Z</time></trkpt><trkpt lat="44.78500154419759" lon="9.407614435951059"><ele>248.0</ele><time>2026-04-30T15:02:28.999Z</time></trkpt><trkpt lat="44.785159595452264" lon="9.40782667912075"><ele>247.33333333333334</ele><time>2026-04-30T15:02:29.999Z</time></trkpt><trkpt lat="44.78532686017405" lon="9.408052374143097"><ele>246.66666666666669</ele><time>2026-04-30T15:02:30.999Z</time></trkpt><trkpt lat="44.785503704625135" lon="9.408231264063083"><ele>246.0</ele><time>2026-04-30T15:02:31.999Z</time></trkpt><trkpt lat="44.78565525229097" lon="9.408450376680461"><ele>246.0</ele><time>2026-04-30T15:02:32.999Z</time></trkpt><trkpt lat="44.7858140374212" lon="9.408648346020113"><ele>246.0</ele><time>2026-04-30T15:02:33.999Z</time></trkpt><trkpt lat="44.78597072936513" lon="9.408879514146275"><ele>246.0</ele><time>2026-04-30T15:02:34.999Z</time></trkpt><trkpt lat="44.786131083429716" lon="9.409089610398885"><ele>246.0</ele><time>2026-04-30T15:02:35.999Z</time></trkpt><trkpt lat="44.78628793924999" lon="9.40928317022268"><ele>246.0</ele><time>2026-04-30T15:02:36.999Z</time></trkpt><trkpt lat="44.78644786633267" lon="9.409500750489979"><ele>246.0</ele><time>2026-04-30T15:02:37.999Z</time></trkpt><trkpt lat="44.786603265004516" lon="9.409706512879739"><ele>246.66666666666669</ele><time>2026-04-30T15:02:38.999Z</time></trkpt><trkpt lat="44.786759379179344" lon="9.409921293221455"><ele>247.33333333333334</ele><time>2026-04-30T15:02:39.999Z</time></trkpt><trkpt lat="44.786917514760376" lon="9.41012676468077"><ele>248.0</ele><time>2026-04-30T15:02:40.999Z</time></trkpt><trkpt lat="44.78708945096712" lon="9.410327447153394"><ele>244.0</ele><time>2026-04-30T15:02:41.999Z</time></trkpt><trkpt lat="44.787260174116575" lon="9.410531737640422"><ele>240.0</ele><time>2026-04-30T15:02:42.999Z</time></trkpt><trkpt lat="44.787433697749115" lon="9.410758869584503"><ele>240.0</ele><time>2026-04-30T15:02:43.999Z</time></trkpt><trkpt lat="44.787587726944174" lon="9.410962472201724"><ele>240.0</ele><time>2026-04-30T15:02:44.999Z</time></trkpt><trkpt lat="44.78776257995553" lon="9.411167087234778"><ele>240.0</ele><time>2026-04-30T15:02:45.999Z</time></trkpt><trkpt lat="44.787917543062136" lon="9.411395672018296"><ele>239.33333333333331</ele><time>2026-04-30T15:02:46.999Z</time></trkpt><trkpt lat="44.78807384056573" lon="9.41160443500063"><ele>238.66666666666666</ele><time>2026-04-30T15:02:47.999Z</time></trkpt><trkpt lat="44.78823446823376" lon="9.411801160752077"><ele>238.0</ele><time>2026-04-30T15:02:48.999Z</time></trkpt><trkpt lat="44.78839188242001" lon="9.412018003422501"><ele>237.66666666666666</ele><time>2026-04-30T15:02:49.999Z</time></trkpt><trkpt lat="44.788554632721294" lon="9.412225878551485"><ele>237.33333333333331</ele><time>2026-04-30T15:02:50.999Z</time></trkpt><trkpt lat="44.788712232097915" lon="9.412440927171435"><ele>237.0</ele><time>2026-04-30T15:02:51.999Z</time></trkpt><trkpt lat="44.78887108507348" lon="9.412649792326825"><ele>237.0</ele><time>2026-04-30T15:02:52.999Z</time></trkpt><trkpt lat="44.78903980350998" lon="9.412848310575509"><ele>237.0</ele><time>2026-04-30T15:02:53.999Z</time></trkpt><trkpt lat="44.78917993186159" lon="9.413053399816775"><ele>237.0</ele><time>2026-04-30T15:02:54.999Z</time></trkpt><trkpt lat="44.78935435134489" lon="9.413263159623238"><ele>236.66666666666669</ele><time>2026-04-30T15:02:55.999Z</time></trkpt><trkpt lat="44.78950108101952" lon="9.413477131487157"><ele>236.33333333333334</ele><time>2026-04-30T15:02:56.999Z</time></trkpt><trkpt lat="44.78965042616246" lon="9.413715049097158"><ele>236.0</ele><time>2026-04-30T15:02:57.999Z</time></trkpt><trkpt lat="44.789800969721995" lon="9.413933519164434"><ele>237.0</ele><time>2026-04-30T15:02:58.999Z</time></trkpt><trkpt lat="44.78995776432413" lon="9.414145391989074"><ele>238.0</ele><time>2026-04-30T15:02:59.999Z</time></trkpt><trkpt lat="44.790147687996715" lon="9.414330564825185"><ele>239.0</ele><time>2026-04-30T15:03:00.999Z</time></trkpt><trkpt lat="44.790311085974636" lon="9.414587454253791"><ele>249.0</ele><time>2026-04-30T15:03:01.999Z</time></trkpt><trkpt lat="44.79049137868793" lon="9.414815230679286"><ele>259.0</ele><time>2026-04-30T15:03:02.999Z</time></trkpt><trkpt lat="44.79198496091196" lon="9.416704784465407"><ele>323.5</ele><time>2026-04-30T15:03:14.25Z</time></trkpt><trkpt lat="44.792139079390694" lon="9.416939151523458"><ele>388.0</ele><time>2026-04-30T15:03:15.248Z</time></trkpt><trkpt lat="44.79230543611928" lon="9.417157584164947"><ele>397.0</ele><time>2026-04-30T15:03:16.251Z</time></trkpt><trkpt lat="44.792482615382355" lon="9.41735822302089"><ele>406.0</ele><time>2026-04-30T15:03:17.251Z</time></trkpt><trkpt lat="44.79264836804794" lon="9.417575862344583"><ele>386.0</ele><time>2026-04-30T15:03:18.251Z</time></trkpt><trkpt lat="44.792803497251484" lon="9.417810097066608"><ele>366.0</ele><time>2026-04-30T15:03:19.251Z</time></trkpt><trkpt lat="44.79298064483106" lon="9.418010261511801"><ele>366.0</ele><time>2026-04-30T15:03:20.25Z</time></trkpt><trkpt lat="44.79313458636533" lon="9.418245255088532"><ele>366.0</ele><time>2026-04-30T15:03:21.249Z</time></trkpt><trkpt lat="44.79331180169232" lon="9.418446800541737"><ele>366.0</ele><time>2026-04-30T15:03:22.251Z</time></trkpt><trkpt lat="44.79346593209485" lon="9.418682043049843"><ele>366.0</ele><time>2026-04-30T15:03:23.251Z</time></trkpt><trkpt lat="44.793631549584525" lon="9.418900363640866"><ele>345.0</ele><time>2026-04-30T15:03:24.251Z</time></trkpt><trkpt lat="44.793808614747235" lon="9.41910105238557"><ele>324.0</ele><time>2026-04-30T15:03:25.251Z</time></trkpt><trkpt lat="44.79396156692774" lon="9.41933628192003"><ele>324.0</ele><time>2026-04-30T15:03:26.247Z</time></trkpt><trkpt lat="44.79413893445112" lon="9.419538581230448"><ele>324.0</ele><time>2026-04-30T15:03:27.251Z</time></trkpt><trkpt lat="44.79430496200767" lon="9.4197560266429"><ele>302.5</ele><time>2026-04-30T15:03:28.251Z</time></trkpt><trkpt lat="44.79445962558364" lon="9.41999055583488"><ele>281.0</ele><time>2026-04-30T15:03:29.251Z</time></trkpt><trkpt lat="44.794625194593834" lon="9.420207400671586"><ele>281.0</ele><time>2026-04-30T15:03:30.248Z</time></trkpt><trkpt lat="44.79479022639973" lon="9.420426397421162"><ele>281.0</ele><time>2026-04-30T15:03:31.249Z</time></trkpt><trkpt lat="44.794968472106326" lon="9.420626701878723"><ele>279.0</ele><time>2026-04-30T15:03:32.251Z</time></trkpt><trkpt lat="44.795134663518404" lon="9.420843918548098"><ele>277.0</ele><time>2026-04-30T15:03:33.251Z</time></trkpt><trkpt lat="44.795287884119105" lon="9.421078801070712"><ele>247.0</ele><time>2026-04-30T15:03:34.247Z</time></trkpt><trkpt lat="44.79563344518318" lon="9.421598287454872"><ele>247.0</ele><time>2026-04-30T15:03:36.998Z</time></trkpt><trkpt lat="44.795817981192435" lon="9.42184425369977"><ele>247.0</ele><time>2026-04-30T15:03:37.998Z</time></trkpt><trkpt lat="44.7959460244009" lon="9.422010357227913"><ele>247.0</ele><time>2026-04-30T15:03:38.998Z</time></trkpt><trkpt lat="44.79613437900233" lon="9.422267897619077"><ele>243.5</ele><time>2026-04-30T15:03:39.998Z</time></trkpt><trkpt lat="44.79633351147388" lon="9.422460303377633"><ele>240.0</ele><time>2026-04-30T15:03:40.998Z</time></trkpt><trkpt lat="44.79652765877271" lon="9.422636139766075"><ele>240.0</ele><time>2026-04-30T15:03:41.998Z</time></trkpt><trkpt lat="44.79671424136863" lon="9.422782379308625"><ele>240.0</ele><time>2026-04-30T15:03:42.998Z</time></trkpt><trkpt lat="44.796877548657555" lon="9.422873518304398"><ele>240.0</ele><time>2026-04-30T15:03:43.998Z</time></trkpt><trkpt lat="44.79704015305548" lon="9.422962828419312"><ele>240.66666666666669</ele><time>2026-04-30T15:03:44.998Z</time></trkpt><trkpt lat="44.79723473992868" lon="9.42305254157428"><ele>241.33333333333334</ele><time>2026-04-30T15:03:45.998Z</time></trkpt><trkpt lat="44.79743778152158" lon="9.423113189694662"><ele>242.0</ele><time>2026-04-30T15:03:46.998Z</time></trkpt><trkpt lat="44.79764275622133" lon="9.423162675438949"><ele>241.66666666666669</ele><time>2026-04-30T15:03:47.998Z</time></trkpt><trkpt lat="44.797856211595715" lon="9.42320953055224"><ele>241.33333333333331</ele><time>2026-04-30T15:03:48.998Z</time></trkpt><trkpt lat="44.79806566884233" lon="9.423238223248587"><ele>241.0</ele><time>2026-04-30T15:03:49.998Z</time></trkpt><trkpt lat="44.79826881815307" lon="9.423268558753668"><ele>241.0</ele><time>2026-04-30T15:03:50.998Z</time></trkpt><trkpt lat="44.798477003866935" lon="9.423276103161552"><ele>241.0</ele><time>2026-04-30T15:03:51.998Z</time></trkpt><trkpt lat="44.79869440559339" lon="9.423295227957583"><ele>241.0</ele><time>2026-04-30T15:03:52.998Z</time></trkpt><trkpt lat="44.79891314994276" lon="9.423311374339825"><ele>239.33333333333331</ele><time>2026-04-30T15:03:53.998Z</time></trkpt><trkpt lat="44.799119774467314" lon="9.423343940987596"><ele>237.66666666666669</ele><time>2026-04-30T15:03:54.998Z</time></trkpt><trkpt lat="44.79933008517141" lon="9.423378842030424"><ele>236.0</ele><time>2026-04-30T15:03:55.998Z</time></trkpt><trkpt lat="44.799529430099646" lon="9.423468615623582"><ele>235.33333333333334</ele><time>2026-04-30T15:03:56.998Z</time></trkpt><trkpt lat="44.799710519762954" lon="9.423539991994103"><ele>234.66666666666669</ele><time>2026-04-30T15:03:57.998Z</time></trkpt><trkpt lat="44.79990276663865" lon="9.423636227643076"><ele>234.0</ele><time>2026-04-30T15:03:58.998Z</time></trkpt><trkpt lat="44.8001034573988" lon="9.423735155619001"><ele>232.33333333333331</ele><time>2026-04-30T15:03:59.998Z</time></trkpt><trkpt lat="44.80029455527915" lon="9.423887375727956"><ele>230.66666666666666</ele><time>2026-04-30T15:04:00.998Z</time></trkpt><trkpt lat="44.80048431203306" lon="9.42403940995882"><ele>229.0</ele><time>2026-04-30T15:04:01.998Z</time></trkpt><trkpt lat="44.80068356527948" lon="9.424200550747491"><ele>229.0</ele><time>2026-04-30T15:04:02.998Z</time></trkpt><trkpt lat="44.80088615209644" lon="9.424342841491326"><ele>229.0</ele><time>2026-04-30T15:04:03.998Z</time></trkpt><trkpt lat="44.80109340065874" lon="9.424472505683047"><ele>228.33333333333331</ele><time>2026-04-30T15:04:04.998Z</time></trkpt><trkpt lat="44.801299470357215" lon="9.424606296474217"><ele>227.66666666666669</ele><time>2026-04-30T15:04:05.998Z</time></trkpt><trkpt lat="44.801495216059" lon="9.4247532119084"><ele>227.0</ele><time>2026-04-30T15:04:06.998Z</time></trkpt><trkpt lat="44.80169603288848" lon="9.42487085281617"><ele>229.0</ele><time>2026-04-30T15:04:07.998Z</time></trkpt><trkpt lat="44.80189509405507" lon="9.425022884813146"><ele>231.0</ele><time>2026-04-30T15:04:08.998Z</time></trkpt><trkpt lat="44.80209838445871" lon="9.425156490440711"><ele>231.0</ele><time>2026-04-30T15:04:09.998Z</time></trkpt><trkpt lat="44.80230250560078" lon="9.425321945995481"><ele>231.0</ele><time>2026-04-30T15:04:10.998Z</time></trkpt><trkpt lat="44.802504178912976" lon="9.425458552248918"><ele>229.0</ele><time>2026-04-30T15:04:11.998Z</time></trkpt><trkpt lat="44.802700437800596" lon="9.425621750849714"><ele>227.0</ele><time>2026-04-30T15:04:12.998Z</time></trkpt><trkpt lat="44.8028813280218" lon="9.42580462476237"><ele>227.0</ele><time>2026-04-30T15:04:13.998Z</time></trkpt><trkpt lat="44.80305216608242" lon="9.425975589797199"><ele>227.0</ele><time>2026-04-30T15:04:14.998Z</time></trkpt><trkpt lat="44.80322364248466" lon="9.426143030766335"><ele>227.0</ele><time>2026-04-30T15:04:15.998Z</time></trkpt><trkpt lat="44.80338145697006" lon="9.426340098275428"><ele>228.0</ele><time>2026-04-30T15:04:16.998Z</time></trkpt><trkpt lat="44.803536215799525" lon="9.426547924005591"><ele>229.0</ele><time>2026-04-30T15:04:17.998Z</time></trkpt><trkpt lat="44.80367216014909" lon="9.426771051491084"><ele>230.0</ele><time>2026-04-30T15:04:18.998Z</time></trkpt><trkpt lat="44.80385007904634" lon="9.426961338572157"><ele>228.66666666666669</ele><time>2026-04-30T15:04:19.998Z</time></trkpt><trkpt lat="44.8040063986844" lon="9.427176273176286"><ele>227.33333333333331</ele><time>2026-04-30T15:04:20.998Z</time></trkpt><trkpt lat="44.80416385416709" lon="9.427358389272415"><ele>226.0</ele><time>2026-04-30T15:04:21.998Z</time></trkpt><trkpt lat="44.80431459909479" lon="9.427562718453641"><ele>226.0</ele><time>2026-04-30T15:04:22.998Z</time></trkpt><trkpt lat="44.80447101955898" lon="9.427763514077725"><ele>226.0</ele><time>2026-04-30T15:04:23.998Z</time></trkpt><trkpt lat="44.80463805769969" lon="9.427954805922452"><ele>226.0</ele><time>2026-04-30T15:04:24.998Z</time></trkpt><trkpt lat="44.804781500287405" lon="9.428193652930918"><ele>226.0</ele><time>2026-04-30T15:04:25.998Z</time></trkpt><trkpt lat="44.80493980090996" lon="9.42841318125022"><ele>226.0</ele><time>2026-04-30T15:04:26.998Z</time></trkpt><trkpt lat="44.80510699118997" lon="9.428612775010246"><ele>226.0</ele><time>2026-04-30T15:04:27.998Z</time></trkpt><trkpt lat="44.80527134429456" lon="9.428819688595137"><ele>226.0</ele><time>2026-04-30T15:04:28.998Z</time></trkpt><trkpt lat="44.805421150439216" lon="9.429038174068827"><ele>226.0</ele><time>2026-04-30T15:04:29.998Z</time></trkpt><trkpt lat="44.805606149080916" lon="9.429260934083887"><ele>226.0</ele><time>2026-04-30T15:04:30.998Z</time></trkpt><trkpt lat="44.805777777611986" lon="9.429481489611112"><ele>226.0</ele><time>2026-04-30T15:04:31.998Z</time></trkpt><trkpt lat="44.80594368605944" lon="9.429722001600812"><ele>227.0</ele><time>2026-04-30T15:04:32.998Z</time></trkpt><trkpt lat="44.80608832501553" lon="9.429939910922068"><ele>228.0</ele><time>2026-04-30T15:04:33.998Z</time></trkpt><trkpt lat="44.80624536382995" lon="9.430159133267312"><ele>229.0</ele><time>2026-04-30T15:04:34.998Z</time></trkpt><trkpt lat="44.80639530406163" lon="9.430394241944523"><ele>229.0</ele><time>2026-04-30T15:04:35.998Z</time></trkpt><trkpt lat="44.80652551855961" lon="9.43062319873161"><ele>229.0</ele><time>2026-04-30T15:04:36.998Z</time></trkpt><trkpt lat="44.8066540094248" lon="9.43089285263206"><ele>229.0</ele><time>2026-04-30T15:04:37.998Z</time></trkpt><trkpt lat="44.80677074551931" lon="9.431166472761168"><ele>231.5</ele><time>2026-04-30T15:04:38.998Z</time></trkpt><trkpt lat="44.8068798348625" lon="9.43144313810598"><ele>234.0</ele><time>2026-04-30T15:04:39.998Z</time></trkpt><trkpt lat="44.807041192641435" lon="9.431692216596192"><ele>234.0</ele><time>2026-04-30T15:04:40.998Z</time></trkpt><trkpt lat="44.807151902410176" lon="9.431952857114075"><ele>234.0</ele><time>2026-04-30T15:04:41.998Z</time></trkpt><trkpt lat="44.8072590265467" lon="9.432232553435371"><ele>234.0</ele><time>2026-04-30T15:04:42.998Z</time></trkpt><trkpt lat="44.80735319720434" lon="9.432514317948513"><ele>231.0</ele><time>2026-04-30T15:04:43.998Z</time></trkpt><trkpt lat="44.80746196425432" lon="9.432797527792093"><ele>228.0</ele><time>2026-04-30T15:04:44.998Z</time></trkpt><trkpt lat="44.80756035755062" lon="9.433072999253408"><ele>225.0</ele><time>2026-04-30T15:04:45.998Z</time></trkpt><trkpt lat="44.807658356664106" lon="9.433363074571208"><ele>223.66666666666669</ele><time>2026-04-30T15:04:46.997Z</time></trkpt><trkpt lat="44.80775581967682" lon="9.433668716103236"><ele>222.33333333333334</ele><time>2026-04-30T15:04:47.997Z</time></trkpt><trkpt lat="44.807811470044804" lon="9.433926176823473"><ele>221.0</ele><time>2026-04-30T15:04:48.997Z</time></trkpt><trkpt lat="44.80792134169707" lon="9.434244973910172"><ele>221.0</ele><time>2026-04-30T15:04:49.997Z</time></trkpt><trkpt lat="44.808031018546664" lon="9.434539150572004"><ele>221.0</ele><time>2026-04-30T15:04:50.997Z</time></trkpt><trkpt lat="44.808152361339374" lon="9.434804880730983"><ele>221.0</ele><time>2026-04-30T15:04:51.997Z</time></trkpt><trkpt lat="44.80826409693156" lon="9.435077888781404"><ele>221.0</ele><time>2026-04-30T15:04:52.997Z</time></trkpt><trkpt lat="44.808353755684884" lon="9.435354178779823"><ele>221.0</ele><time>2026-04-30T15:04:53.997Z</time></trkpt><trkpt lat="44.808454917154336" lon="9.435623068612626"><ele>221.33333333333334</ele><time>2026-04-30T15:04:54.997Z</time></trkpt><trkpt lat="44.80854601069333" lon="9.435886109046278"><ele>221.66666666666669</ele><time>2026-04-30T15:04:55.997Z</time></trkpt><trkpt lat="44.80863155060059" lon="9.43615596964812"><ele>222.0</ele><time>2026-04-30T15:04:56.997Z</time></trkpt><trkpt lat="44.808735622439414" lon="9.436390144853833"><ele>222.0</ele><time>2026-04-30T15:04:57.997Z</time></trkpt><trkpt lat="44.80881060267092" lon="9.436650528722348"><ele>222.0</ele><time>2026-04-30T15:04:58.997Z</time></trkpt><trkpt lat="44.80889808285212" lon="9.436937827697763"><ele>222.0</ele><time>2026-04-30T15:04:59.997Z</time></trkpt><trkpt lat="44.8089975741355" lon="9.437205528696385"><ele>222.0</ele><time>2026-04-30T15:05:00.997Z</time></trkpt><trkpt lat="44.80911037938395" lon="9.437475934345093"><ele>222.0</ele><time>2026-04-30T15:05:01.997Z</time></trkpt><trkpt lat="44.80925462891505" lon="9.43770101192801"><ele>222.0</ele><time>2026-04-30T15:05:02.997Z</time></trkpt><trkpt lat="44.80941765107901" lon="9.437915738911677"><ele>224.33333333333331</ele><time>2026-04-30T15:05:03.997Z</time></trkpt><trkpt lat="44.80956466277405" lon="9.438139266918483"><ele>226.66666666666666</ele><time>2026-04-30T15:05:04.997Z</time></trkpt><trkpt lat="44.809724471817" lon="9.438345344027693"><ele>229.0</ele><time>2026-04-30T15:05:05.997Z</time></trkpt><trkpt lat="44.80987873032747" lon="9.438557159351376"><ele>229.0</ele><time>2026-04-30T15:05:06.997Z</time></trkpt><trkpt lat="44.810029250546876" lon="9.438774780481301"><ele>229.0</ele><time>2026-04-30T15:05:07.997Z</time></trkpt><trkpt lat="44.81018426792549" lon="9.438992853260268"><ele>229.0</ele><time>2026-04-30T15:05:08.997Z</time></trkpt><trkpt lat="44.81033263843251" lon="9.439205045168347"><ele>227.66666666666666</ele><time>2026-04-30T15:05:09.997Z</time></trkpt><trkpt lat="44.81047759095253" lon="9.439430081180175"><ele>226.33333333333331</ele><time>2026-04-30T15:05:10.997Z</time></trkpt><trkpt lat="44.810624125391115" lon="9.439654242998845"><ele>225.0</ele><time>2026-04-30T15:05:11.997Z</time></trkpt><trkpt lat="44.81075941890537" lon="9.439890455724885"><ele>225.0</ele><time>2026-04-30T15:05:12.997Z</time></trkpt><trkpt lat="44.81085313585613" lon="9.44016136312558"><ele>225.0</ele><time>2026-04-30T15:05:13.997Z</time></trkpt><trkpt lat="44.810944386738726" lon="9.440408228893874"><ele>225.0</ele><time>2026-04-30T15:05:14.997Z</time></trkpt><trkpt lat="44.81100249055024" lon="9.44069034091462"><ele>223.0</ele><time>2026-04-30T15:05:15.997Z</time></trkpt><trkpt lat="44.81104438673911" lon="9.440992512032766"><ele>221.0</ele><time>2026-04-30T15:05:16.997Z</time></trkpt><trkpt lat="44.81107298827939" lon="9.441300136744532"><ele>219.0</ele><time>2026-04-30T15:05:17.997Z</time></trkpt><trkpt lat="44.81110956984127" lon="9.441624069226572"><ele>219.0</ele><time>2026-04-30T15:05:18.997Z</time></trkpt><trkpt lat="44.81114515441039" lon="9.44192790993971"><ele>219.0</ele><time>2026-04-30T15:05:19.997Z</time></trkpt><trkpt lat="44.81117483074825" lon="9.442233328365143"><ele>219.0</ele><time>2026-04-30T15:05:20.997Z</time></trkpt><trkpt lat="44.81123499833274" lon="9.44251876772168"><ele>219.66666666666669</ele><time>2026-04-30T15:05:21.997Z</time></trkpt><trkpt lat="44.81125423639552" lon="9.442826641129866"><ele>220.33333333333334</ele><time>2026-04-30T15:05:22.997Z</time></trkpt><trkpt lat="44.81130409993406" lon="9.443133636669428"><ele>221.0</ele><time>2026-04-30T15:05:23.997Z</time></trkpt><trkpt lat="44.81134853394847" lon="9.443446605843668"><ele>221.0</ele><time>2026-04-30T15:05:24.997Z</time></trkpt><trkpt lat="44.81138511387855" lon="9.443769430400296"><ele>221.0</ele><time>2026-04-30T15:05:25.997Z</time></trkpt><trkpt lat="44.811434394535375" lon="9.444079981706347"><ele>221.5</ele><time>2026-04-30T15:05:26.997Z</time></trkpt><trkpt lat="44.81148496731835" lon="9.444389341875972"><ele>222.0</ele><time>2026-04-30T15:05:27.997Z</time></trkpt><trkpt lat="44.81151821575755" lon="9.444702977006791"><ele>222.0</ele><time>2026-04-30T15:05:28.997Z</time></trkpt><trkpt lat="44.81154610648977" lon="9.445022642444973"><ele>222.0</ele><time>2026-04-30T15:05:29.997Z</time></trkpt><trkpt lat="44.81159242251037" lon="9.445323809292283"><ele>222.0</ele><time>2026-04-30T15:05:30.997Z</time></trkpt><trkpt lat="44.811644361295286" lon="9.445642557219324"><ele>221.0</ele><time>2026-04-30T15:05:31.997Z</time></trkpt><trkpt lat="44.811682726241294" lon="9.445959315131326"><ele>220.0</ele><time>2026-04-30T15:05:32.997Z</time></trkpt><trkpt lat="44.8117054844261" lon="9.446272816051453"><ele>220.5</ele><time>2026-04-30T15:05:33.997Z</time></trkpt><trkpt lat="44.81174547083245" lon="9.446597949249323"><ele>221.0</ele><time>2026-04-30T15:05:34.997Z</time></trkpt><trkpt lat="44.81180031235619" lon="9.446927930415491"><ele>220.0</ele><time>2026-04-30T15:05:35.997Z</time></trkpt><trkpt lat="44.81181820411537" lon="9.447247439851536"><ele>219.0</ele><time>2026-04-30T15:05:36.997Z</time></trkpt><trkpt lat="44.81186026322955" lon="9.447586669995253"><ele>216.5</ele><time>2026-04-30T15:05:37.997Z</time></trkpt><trkpt lat="44.81191278803458" lon="9.447904800710623"><ele>214.0</ele><time>2026-04-30T15:05:38.997Z</time></trkpt><trkpt lat="44.81194248143189" lon="9.448227332645795"><ele>214.0</ele><time>2026-04-30T15:05:39.997Z</time></trkpt><trkpt lat="44.811981262366075" lon="9.448544740433656"><ele>214.0</ele><time>2026-04-30T15:05:40.997Z</time></trkpt><trkpt lat="44.812017978331944" lon="9.44884476128692"><ele>214.0</ele><time>2026-04-30T15:05:41.997Z</time></trkpt><trkpt lat="44.81205688077495" lon="9.4491626485203"><ele>214.33333333333331</ele><time>2026-04-30T15:05:42.997Z</time></trkpt><trkpt lat="44.81209063579451" lon="9.449448626780766"><ele>214.66666666666669</ele><time>2026-04-30T15:05:43.997Z</time></trkpt><trkpt lat="44.812123456275266" lon="9.449734014173037"><ele>215.0</ele><time>2026-04-30T15:05:44.997Z</time></trkpt><trkpt lat="44.81215605954005" lon="9.450012850764388"><ele>216.33333333333334</ele><time>2026-04-30T15:05:45.997Z</time></trkpt><trkpt lat="44.81220279736819" lon="9.450256348428834"><ele>217.66666666666669</ele><time>2026-04-30T15:05:46.997Z</time></trkpt><trkpt lat="44.81222289231788" lon="9.450500142257882"><ele>219.0</ele><time>2026-04-30T15:05:47.997Z</time></trkpt><trkpt lat="44.81224715209326" lon="9.450722067279598"><ele>219.0</ele><time>2026-04-30T15:05:48.997Z</time></trkpt><trkpt lat="44.812276745457815" lon="9.450980860854944"><ele>219.0</ele><time>2026-04-30T15:05:49.997Z</time></trkpt><trkpt lat="44.81230514127694" lon="9.451216162168736"><ele>219.0</ele><time>2026-04-30T15:05:50.997Z</time></trkpt><trkpt lat="44.81232939474463" lon="9.451434109386456"><ele>219.75</ele><time>2026-04-30T15:05:51.997Z</time></trkpt><trkpt lat="44.81235792504305" lon="9.451642367227446"><ele>220.5</ele><time>2026-04-30T15:05:52.997Z</time></trkpt><trkpt lat="44.81239631707557" lon="9.45184399763982"><ele>221.25</ele><time>2026-04-30T15:05:53.997Z</time></trkpt><trkpt lat="44.812449311379694" lon="9.452016647191723"><ele>222.0</ele><time>2026-04-30T15:05:54.997Z</time></trkpt><trkpt lat="44.81249293614028" lon="9.452196982258513"><ele>222.25</ele><time>2026-04-30T15:05:55.997Z</time></trkpt><trkpt lat="44.81253859063518" lon="9.452387479916645"><ele>222.5</ele><time>2026-04-30T15:05:56.997Z</time></trkpt><trkpt lat="44.81263263631917" lon="9.452527213438383"><ele>222.75</ele><time>2026-04-30T15:05:57.997Z</time></trkpt><trkpt lat="44.81269760185267" lon="9.452715852223896"><ele>223.0</ele><time>2026-04-30T15:05:58.997Z</time></trkpt><trkpt lat="44.81278717842363" lon="9.452871673155222"><ele>220.0</ele><time>2026-04-30T15:05:59.997Z</time></trkpt><trkpt lat="44.81285570115447" lon="9.453066017786067"><ele>217.0</ele><time>2026-04-30T15:06:00.997Z</time></trkpt><trkpt lat="44.81293727707736" lon="9.453246695877306"><ele>214.0</ele><time>2026-04-30T15:06:01.997Z</time></trkpt><trkpt lat="44.813024745565464" lon="9.453440425040577"><ele>214.0</ele><time>2026-04-30T15:06:02.997Z</time></trkpt><trkpt lat="44.8131140345059" lon="9.45363818627748"><ele>214.0</ele><time>2026-04-30T15:06:03.997Z</time></trkpt><trkpt lat="44.81320148938638" lon="9.453831885311287"><ele>214.0</ele><time>2026-04-30T15:06:04.997Z</time></trkpt><trkpt lat="44.813292924286564" lon="9.45403439954541"><ele>214.33333333333331</ele><time>2026-04-30T15:06:05.997Z</time></trkpt><trkpt lat="44.81338452123606" lon="9.454237706022898"><ele>214.66666666666669</ele><time>2026-04-30T15:06:06.996Z</time></trkpt><trkpt lat="44.81347458525394" lon="9.454438778429395"><ele>215.0</ele><time>2026-04-30T15:06:07.996Z</time></trkpt><trkpt lat="44.813572871694824" lon="9.454658208151411"><ele>215.0</ele><time>2026-04-30T15:06:08.996Z</time></trkpt><trkpt lat="44.81366422590744" lon="9.454862161225618"><ele>215.0</ele><time>2026-04-30T15:06:09.996Z</time></trkpt><trkpt lat="44.81375925647674" lon="9.45507432205247"><ele>215.0</ele><time>2026-04-30T15:06:10.996Z</time></trkpt><trkpt lat="44.81384331461382" lon="9.45526198717329"><ele>216.66666666666669</ele><time>2026-04-30T15:06:11.996Z</time></trkpt><trkpt lat="44.813937813459205" lon="9.455472960841636"><ele>218.33333333333331</ele><time>2026-04-30T15:06:12.996Z</time></trkpt><trkpt lat="44.81402418677728" lon="9.455665793696966"><ele>220.0</ele><time>2026-04-30T15:06:13.996Z</time></trkpt><trkpt lat="44.81411017155684" lon="9.455859366216599"><ele>220.0</ele><time>2026-04-30T15:06:14.996Z</time></trkpt><trkpt lat="44.814207427871374" lon="9.45603412937033"><ele>220.0</ele><time>2026-04-30T15:06:15.996Z</time></trkpt><trkpt lat="44.81427547086628" lon="9.456227088578721"><ele>220.0</ele><time>2026-04-30T15:06:16.996Z</time></trkpt><trkpt lat="44.81437291173092" lon="9.456409938667733"><ele>217.66666666666666</ele><time>2026-04-30T15:06:17.996Z</time></trkpt><trkpt lat="44.81445017296338" lon="9.456616106889705"><ele>215.33333333333331</ele><time>2026-04-30T15:06:18.996Z</time></trkpt><trkpt lat="44.81452838245915" lon="9.45679089160173"><ele>213.0</ele><time>2026-04-30T15:06:19.996Z</time></trkpt><trkpt lat="44.81460317882026" lon="9.456958048628856"><ele>216.25</ele><time>2026-04-30T15:06:20.996Z</time></trkpt><trkpt lat="44.81468450589063" lon="9.457139800474591"><ele>219.5</ele><time>2026-04-30T15:06:21.996Z</time></trkpt><trkpt lat="44.8147576379611" lon="9.457303237829876"><ele>222.75</ele><time>2026-04-30T15:06:22.996Z</time></trkpt><trkpt lat="44.81483375631411" lon="9.45747334932952"><ele>226.0</ele><time>2026-04-30T15:06:23.996Z</time></trkpt><trkpt lat="44.81491290539378" lon="9.457650804395094"><ele>226.0</ele><time>2026-04-30T15:06:24.996Z</time></trkpt><trkpt lat="44.814992296848835" lon="9.457829177415611"><ele>226.0</ele><time>2026-04-30T15:06:25.996Z</time></trkpt><trkpt lat="44.81506794717372" lon="9.45800624675195"><ele>226.0</ele><time>2026-04-30T15:06:26.996Z</time></trkpt><trkpt lat="44.815154873628025" lon="9.458182119551141"><ele>226.0</ele><time>2026-04-30T15:06:27.996Z</time></trkpt><trkpt lat="44.81521161115656" lon="9.458406567304923"><ele>225.0</ele><time>2026-04-30T15:06:28.996Z</time></trkpt><trkpt lat="44.815261050386134" lon="9.458597095288802"><ele>224.0</ele><time>2026-04-30T15:06:29.996Z</time></trkpt><trkpt lat="44.81530191763979" lon="9.458827125120747"><ele>223.0</ele><time>2026-04-30T15:06:30.996Z</time></trkpt><trkpt lat="44.81534310668417" lon="9.45904820904806"><ele>223.0</ele><time>2026-04-30T15:06:31.996Z</time></trkpt><trkpt lat="44.81536355344949" lon="9.459287842444017"><ele>223.0</ele><time>2026-04-30T15:06:32.996Z</time></trkpt><trkpt lat="44.81539639250971" lon="9.459505612030613"><ele>223.0</ele><time>2026-04-30T15:06:33.996Z</time></trkpt><trkpt lat="44.8154112826609" lon="9.459745292242019"><ele>222.66666666666666</ele><time>2026-04-30T15:06:34.996Z</time></trkpt><trkpt lat="44.815431674839296" lon="9.459991363811136"><ele>222.33333333333331</ele><time>2026-04-30T15:06:35.996Z</time></trkpt><trkpt lat="44.81545165941074" lon="9.460236443317687"><ele>222.0</ele><time>2026-04-30T15:06:36.996Z</time></trkpt><trkpt lat="44.815486067509674" lon="9.460467356577444"><ele>222.66666666666669</ele><time>2026-04-30T15:06:37.996Z</time></trkpt><trkpt lat="44.81552349491143" lon="9.460723924389242"><ele>223.33333333333334</ele><time>2026-04-30T15:06:38.996Z</time></trkpt><trkpt lat="44.81555457816371" lon="9.460967331977745"><ele>224.0</ele><time>2026-04-30T15:06:39.996Z</time></trkpt><trkpt lat="44.81556654075759" lon="9.461204100761915"><ele>224.66666666666669</ele><time>2026-04-30T15:06:40.996Z</time></trkpt><trkpt lat="44.81558785292289" lon="9.461444589385602"><ele>225.33333333333331</ele><time>2026-04-30T15:06:41.996Z</time></trkpt><trkpt lat="44.815610388772505" lon="9.46167873468982"><ele>226.0</ele><time>2026-04-30T15:06:42.996Z</time></trkpt><trkpt lat="44.815634268193435" lon="9.461900376799168"><ele>227.0</ele><time>2026-04-30T15:06:43.996Z</time></trkpt><trkpt lat="44.81565831935571" lon="9.462130057362968"><ele>228.0</ele><time>2026-04-30T15:06:44.996Z</time></trkpt><trkpt lat="44.81567842191969" lon="9.46236851635964"><ele>229.0</ele><time>2026-04-30T15:06:45.996Z</time></trkpt><trkpt lat="44.815714101932244" lon="9.46260767793564"><ele>229.0</ele><time>2026-04-30T15:06:46.996Z</time></trkpt><trkpt lat="44.815751834961084" lon="9.462831042959424"><ele>229.0</ele><time>2026-04-30T15:06:47.996Z</time></trkpt><trkpt lat="44.81579068418968" lon="9.463044235328542"><ele>229.0</ele><time>2026-04-30T15:06:48.996Z</time></trkpt><trkpt lat="44.81581728442999" lon="9.463272112548083"><ele>229.33333333333331</ele><time>2026-04-30T15:06:49.996Z</time></trkpt><trkpt lat="44.81586705886742" lon="9.463500022857763"><ele>229.66666666666669</ele><time>2026-04-30T15:06:50.996Z</time></trkpt><trkpt lat="44.81589138147358" lon="9.463734321254709"><ele>230.0</ele><time>2026-04-30T15:06:51.996Z</time></trkpt><trkpt lat="44.81590845414243" lon="9.463978153128197"><ele>230.0</ele><time>2026-04-30T15:06:52.996Z</time></trkpt><trkpt lat="44.815930367623885" lon="9.464214857294458"><ele>230.0</ele><time>2026-04-30T15:06:53.996Z</time></trkpt><trkpt lat="44.81596183622011" lon="9.464444421190297"><ele>230.0</ele><time>2026-04-30T15:06:54.996Z</time></trkpt><trkpt lat="44.81597269101008" lon="9.464682458732941"><ele>224.33333333333334</ele><time>2026-04-30T15:06:55.996Z</time></trkpt><trkpt lat="44.815987863592916" lon="9.464920647461074"><ele>218.66666666666669</ele><time>2026-04-30T15:06:56.996Z</time></trkpt><trkpt lat="44.81601328305487" lon="9.465151814839766"><ele>213.0</ele><time>2026-04-30T15:06:57.996Z</time></trkpt><trkpt lat="44.81605558701587" lon="9.46538119001934"><ele>215.0</ele><time>2026-04-30T15:06:58.996Z</time></trkpt><trkpt lat="44.81610731180604" lon="9.465575709181827"><ele>217.0</ele><time>2026-04-30T15:06:59.996Z</time></trkpt><trkpt lat="44.81618884688826" lon="9.465804913665176"><ele>219.0</ele><time>2026-04-30T15:07:00.996Z</time></trkpt><trkpt lat="44.816286620198944" lon="9.466024809833076"><ele>219.0</ele><time>2026-04-30T15:07:01.996Z</time></trkpt><trkpt lat="44.81639325718782" lon="9.466189761584946"><ele>219.0</ele><time>2026-04-30T15:07:02.996Z</time></trkpt><trkpt lat="44.81647651445739" lon="9.466364374689674"><ele>219.0</ele><time>2026-04-30T15:07:03.996Z</time></trkpt><trkpt lat="44.81654770381474" lon="9.466545931579809"><ele>222.0</ele><time>2026-04-30T15:07:04.996Z</time></trkpt><trkpt lat="44.8166161569116" lon="9.466752418045601"><ele>225.0</ele><time>2026-04-30T15:07:05.996Z</time></trkpt><trkpt lat="44.81668877980099" lon="9.466934283945188"><ele>228.0</ele><time>2026-04-30T15:07:06.996Z</time></trkpt><trkpt lat="44.81675956003875" lon="9.467121629613692"><ele>224.33333333333331</ele><time>2026-04-30T15:07:07.996Z</time></trkpt><trkpt lat="44.816817469527585" lon="9.467329180486344"><ele>220.66666666666666</ele><time>2026-04-30T15:07:08.996Z</time></trkpt><trkpt lat="44.81687470007731" lon="9.467549670822597"><ele>217.0</ele><time>2026-04-30T15:07:09.996Z</time></trkpt><trkpt lat="44.81689836840425" lon="9.46775910625656"><ele>217.33333333333331</ele><time>2026-04-30T15:07:10.996Z</time></trkpt><trkpt lat="44.816936856870065" lon="9.467966395433546"><ele>217.66666666666669</ele><time>2026-04-30T15:07:11.996Z</time></trkpt><trkpt lat="44.816983546559754" lon="9.46819246486483"><ele>218.0</ele><time>2026-04-30T15:07:12.996Z</time></trkpt><trkpt lat="44.817029296630494" lon="9.468414239315196"><ele>218.0</ele><time>2026-04-30T15:07:13.996Z</time></trkpt><trkpt lat="44.81710405484655" lon="9.468626383166443"><ele>218.0</ele><time>2026-04-30T15:07:14.996Z</time></trkpt><trkpt lat="44.81716957004024" lon="9.468856728565871"><ele>218.0</ele><time>2026-04-30T15:07:15.996Z</time></trkpt><trkpt lat="44.81723281755157" lon="9.469063823374785"><ele>218.66666666666669</ele><time>2026-04-30T15:07:16.996Z</time></trkpt><trkpt lat="44.81727536686012" lon="9.469270713110618"><ele>219.33333333333331</ele><time>2026-04-30T15:07:17.996Z</time></trkpt><trkpt lat="44.81732131619605" lon="9.46947613398171"><ele>220.0</ele><time>2026-04-30T15:07:18.996Z</time></trkpt><trkpt lat="44.817363021231124" lon="9.46969112273351"><ele>222.5</ele><time>2026-04-30T15:07:19.996Z</time></trkpt><trkpt lat="44.817401289003286" lon="9.469896877534385"><ele>225.0</ele><time>2026-04-30T15:07:20.996Z</time></trkpt><trkpt lat="44.817433947736774" lon="9.470106767252318"><ele>227.5</ele><time>2026-04-30T15:07:21.996Z</time></trkpt><trkpt lat="44.81743412725861" lon="9.470297346362482"><ele>230.0</ele><time>2026-04-30T15:07:22.996Z</time></trkpt><trkpt lat="44.817467904656" lon="9.470492392721125"><ele>231.33333333333334</ele><time>2026-04-30T15:07:23.996Z</time></trkpt><trkpt lat="44.81749825345105" lon="9.47069288949564"><ele>232.66666666666669</ele><time>2026-04-30T15:07:24.996Z</time></trkpt><trkpt lat="44.81753986294022" lon="9.470898357936305"><ele>234.0</ele><time>2026-04-30T15:07:25.996Z</time></trkpt><trkpt lat="44.81755848794143" lon="9.471118119107027"><ele>233.25</ele><time>2026-04-30T15:07:26.995Z</time></trkpt><trkpt lat="44.81755048391012" lon="9.471309689179472"><ele>232.5</ele><time>2026-04-30T15:07:27.995Z</time></trkpt><trkpt lat="44.81749351529521" lon="9.471510334445894"><ele>231.75</ele><time>2026-04-30T15:07:28.995Z</time></trkpt><trkpt lat="44.81743263019774" lon="9.471684890910906"><ele>231.0</ele><time>2026-04-30T15:07:29.995Z</time></trkpt><trkpt lat="44.81734323951242" lon="9.471821876850676"><ele>231.0</ele><time>2026-04-30T15:07:30.995Z</time></trkpt><trkpt lat="44.81726123826132" lon="9.471964946248683"><ele>231.0</ele><time>2026-04-30T15:07:31.995Z</time></trkpt><trkpt lat="44.817178209678104" lon="9.472088591818341"><ele>231.0</ele><time>2026-04-30T15:07:32.995Z</time></trkpt><trkpt lat="44.81710375449307" lon="9.472202326797868"><ele>231.0</ele><time>2026-04-30T15:07:33.995Z</time></trkpt><trkpt lat="44.81703122327289" lon="9.472305744359682"><ele>231.8</ele><time>2026-04-30T15:07:34.995Z</time></trkpt><trkpt lat="44.816953494574726" lon="9.472397679997067"><ele>232.60000000000002</ele><time>2026-04-30T15:07:35.995Z</time></trkpt><trkpt lat="44.81687729761541" lon="9.47250266746948"><ele>233.4</ele><time>2026-04-30T15:07:36.995Z</time></trkpt><trkpt lat="44.816778957745434" lon="9.472545635433008"><ele>234.2</ele><time>2026-04-30T15:07:37.995Z</time></trkpt><trkpt lat="44.816697377528016" lon="9.472569749350804"><ele>235.0</ele><time>2026-04-30T15:07:38.995Z</time></trkpt><trkpt lat="44.81662344544415" lon="9.472603484991014"><ele>235.0</ele><time>2026-04-30T15:07:39.995Z</time></trkpt><trkpt lat="44.81654529387746" lon="9.472597795062"><ele>235.0</ele><time>2026-04-30T15:07:40.995Z</time></trkpt><trkpt lat="44.81646480850378" lon="9.472648279535708"><ele>235.0</ele><time>2026-04-30T15:07:41.995Z</time></trkpt><trkpt lat="44.81643235839237" lon="9.47276399364754"><ele>235.0</ele><time>2026-04-30T15:07:42.995Z</time></trkpt><trkpt lat="44.81646430683734" lon="9.472990659112565"><ele>235.0</ele><time>2026-04-30T15:07:44.995Z</time></trkpt><trkpt lat="44.816541965700345" lon="9.473072998869295"><ele>233.83333333333331</ele><time>2026-04-30T15:07:45.995Z</time></trkpt><trkpt lat="44.816597150514326" lon="9.473161462372575"><ele>232.66666666666666</ele><time>2026-04-30T15:07:46.995Z</time></trkpt><trkpt lat="44.81664219977525" lon="9.473254363872321"><ele>231.5</ele><time>2026-04-30T15:07:47.995Z</time></trkpt><trkpt lat="44.81666532074527" lon="9.473368121725105"><ele>230.33333333333331</ele><time>2026-04-30T15:07:48.995Z</time></trkpt><trkpt lat="44.81668592588055" lon="9.473469013986472"><ele>229.16666666666666</ele><time>2026-04-30T15:07:49.995Z</time></trkpt><trkpt lat="44.816637878295886" lon="9.473615819998129"><ele>228.0</ele><time>2026-04-30T15:07:50.995Z</time></trkpt><trkpt lat="44.81664268735098" lon="9.473836777502108"><ele>228.0</ele><time>2026-04-30T15:07:51.995Z</time></trkpt><trkpt lat="44.8166236224059" lon="9.47405569371531"><ele>228.0</ele><time>2026-04-30T15:07:52.995Z</time></trkpt><trkpt lat="44.816607483420725" lon="9.474295764789847"><ele>228.0</ele><time>2026-04-30T15:07:53.995Z</time></trkpt><trkpt lat="44.81659793176803" lon="9.47454118484247"><ele>227.0</ele><time>2026-04-30T15:07:54.995Z</time></trkpt><trkpt lat="44.816566625909566" lon="9.474790663425777"><ele>226.0</ele><time>2026-04-30T15:07:55.995Z</time></trkpt><trkpt lat="44.81655794614806" lon="9.475078794896998"><ele>225.0</ele><time>2026-04-30T15:07:56.995Z</time></trkpt><trkpt lat="44.8165411029315" lon="9.47544665278297"><ele>223.0</ele><time>2026-04-30T15:07:57.995Z</time></trkpt><trkpt lat="44.816534601403724" lon="9.475874362989249"><ele>221.0</ele><time>2026-04-30T15:07:58.995Z</time></trkpt><trkpt lat="44.81653418667329" lon="9.476296047868429"><ele>218.5</ele><time>2026-04-30T15:07:59.995Z</time></trkpt><trkpt lat="44.81652860843442" lon="9.476699447835466"><ele>216.0</ele><time>2026-04-30T15:08:00.995Z</time></trkpt><trkpt lat="44.81654458285039" lon="9.477100098188279"><ele>213.5</ele><time>2026-04-30T15:08:01.995Z</time></trkpt><trkpt lat="44.816540375392" lon="9.477475698636805"><ele>211.0</ele><time>2026-04-30T15:08:02.995Z</time></trkpt><trkpt lat="44.81652615699347" lon="9.477831685431017"><ele>210.5</ele><time>2026-04-30T15:08:03.995Z</time></trkpt><trkpt lat="44.81652531556746" lon="9.478183318434526"><ele>210.0</ele><time>2026-04-30T15:08:04.995Z</time></trkpt><trkpt lat="44.81652533719641" lon="9.478536427962348"><ele>209.5</ele><time>2026-04-30T15:08:05.995Z</time></trkpt><trkpt lat="44.81652613423218" lon="9.478893604605423"><ele>209.0</ele><time>2026-04-30T15:08:06.995Z</time></trkpt><trkpt lat="44.816536060858525" lon="9.479250406204411"><ele>208.0</ele><time>2026-04-30T15:08:07.995Z</time></trkpt><trkpt lat="44.81656266180723" lon="9.479630201688604"><ele>207.0</ele><time>2026-04-30T15:08:08.995Z</time></trkpt><trkpt lat="44.81658930686998" lon="9.479996668502142"><ele>207.0</ele><time>2026-04-30T15:08:09.995Z</time></trkpt><trkpt lat="44.816657697352056" lon="9.480344996697944"><ele>207.0</ele><time>2026-04-30T15:08:10.995Z</time></trkpt><trkpt lat="44.816724309809466" lon="9.48069196647749"><ele>205.5</ele><time>2026-04-30T15:08:11.995Z</time></trkpt><trkpt lat="44.816807663640425" lon="9.481039130749288"><ele>204.0</ele><time>2026-04-30T15:08:12.995Z</time></trkpt><trkpt lat="44.816918703696984" lon="9.481357606249189"><ele>204.0</ele><time>2026-04-30T15:08:13.995Z</time></trkpt><trkpt lat="44.81703985441523" lon="9.481676814689028"><ele>204.0</ele><time>2026-04-30T15:08:14.995Z</time></trkpt><trkpt lat="44.817169656221765" lon="9.48199203133943"><ele>209.5</ele><time>2026-04-30T15:08:15.995Z</time></trkpt><trkpt lat="44.81726950969138" lon="9.48234113581649"><ele>215.0</ele><time>2026-04-30T15:08:16.995Z</time></trkpt><trkpt lat="44.81842202838985" lon="9.485245137217614"><ele>199.0</ele><time>2026-04-30T15:08:26.248Z</time></trkpt><trkpt lat="44.81857218097984" lon="9.486060997981937"><ele>199.0</ele><time>2026-04-30T15:08:29Z</time></trkpt><trkpt lat="44.818611923302555" lon="9.48624801486904"><ele>199.0</ele><time>2026-04-30T15:08:30Z</time></trkpt><trkpt lat="44.818663502103135" lon="9.486568744175466"><ele>199.0</ele><time>2026-04-30T15:08:31Z</time></trkpt><trkpt lat="44.81869721167727" lon="9.486912926074904"><ele>197.5</ele><time>2026-04-30T15:08:32Z</time></trkpt><trkpt lat="44.81870851019266" lon="9.487249194258942"><ele>196.0</ele><time>2026-04-30T15:08:33Z</time></trkpt><trkpt lat="44.818739559701434" lon="9.487580693310909"><ele>196.0</ele><time>2026-04-30T15:08:34Z</time></trkpt><trkpt lat="44.818741341976256" lon="9.487907305367255"><ele>196.0</ele><time>2026-04-30T15:08:35Z</time></trkpt><trkpt lat="44.81873788959234" lon="9.488233254970048"><ele>195.5</ele><time>2026-04-30T15:08:36Z</time></trkpt><trkpt lat="44.818737915088064" lon="9.488567589419885"><ele>195.0</ele><time>2026-04-30T15:08:37Z</time></trkpt><trkpt lat="44.818757561127434" lon="9.488890607282816"><ele>195.0</ele><time>2026-04-30T15:08:38Z</time></trkpt><trkpt lat="44.81878695805796" lon="9.489261470670765"><ele>195.0</ele><time>2026-04-30T15:08:39Z</time></trkpt><trkpt lat="44.81880845205337" lon="9.489598207925871"><ele>195.0</ele><time>2026-04-30T15:08:40Z</time></trkpt><trkpt lat="44.81881408705553" lon="9.489939699705252"><ele>195.0</ele><time>2026-04-30T15:08:41Z</time></trkpt><trkpt lat="44.818818714565694" lon="9.490260450385167"><ele>195.0</ele><time>2026-04-30T15:08:42Z</time></trkpt><trkpt lat="44.81879395909658" lon="9.490609552258295"><ele>195.0</ele><time>2026-04-30T15:08:43Z</time></trkpt><trkpt lat="44.8187870780701" lon="9.490947124264714"><ele>194.5</ele><time>2026-04-30T15:08:44Z</time></trkpt><trkpt lat="44.81880627108486" lon="9.491276183690246"><ele>194.0</ele><time>2026-04-30T15:08:45Z</time></trkpt><trkpt lat="44.81878363594138" lon="9.491617417889515"><ele>194.0</ele><time>2026-04-30T15:08:46Z</time></trkpt><trkpt lat="44.818771478151675" lon="9.491932585210284"><ele>194.0</ele><time>2026-04-30T15:08:47Z</time></trkpt><trkpt lat="44.81876115467509" lon="9.492256484591415"><ele>194.0</ele><time>2026-04-30T15:08:48Z</time></trkpt><trkpt lat="44.818753013287306" lon="9.492613089272789"><ele>194.0</ele><time>2026-04-30T15:08:49Z</time></trkpt><trkpt lat="44.81888850762559" lon="9.492926989522728"><ele>194.0</ele><time>2026-04-30T15:08:50Z</time></trkpt><trkpt lat="44.818930957944644" lon="9.49326694622198"><ele>194.0</ele><time>2026-04-30T15:08:51Z</time></trkpt><trkpt lat="44.818988925083275" lon="9.493632854697507"><ele>196.0</ele><time>2026-04-30T15:08:52Z</time></trkpt><trkpt lat="44.81905015430364" lon="9.493943710926345"><ele>198.0</ele><time>2026-04-30T15:08:53Z</time></trkpt><trkpt lat="44.8191251894082" lon="9.494269393987448"><ele>198.0</ele><time>2026-04-30T15:08:54Z</time></trkpt><trkpt lat="44.81920800879404" lon="9.494580756001938"><ele>198.0</ele><time>2026-04-30T15:08:55Z</time></trkpt><trkpt lat="44.81930078174505" lon="9.494904845884623"><ele>195.5</ele><time>2026-04-30T15:08:56Z</time></trkpt><trkpt lat="44.81939735311277" lon="9.495239295895294"><ele>193.0</ele><time>2026-04-30T15:08:57Z</time></trkpt><trkpt lat="44.81948349282728" lon="9.495519637381566"><ele>193.0</ele><time>2026-04-30T15:08:58Z</time></trkpt><trkpt lat="44.81958086470622" lon="9.495835276282126"><ele>193.0</ele><time>2026-04-30T15:08:59Z</time></trkpt><trkpt lat="44.819672147114105" lon="9.496147272730479"><ele>195.5</ele><time>2026-04-30T15:09:00Z</time></trkpt><trkpt lat="44.81975006611888" lon="9.496459934788307"><ele>198.0</ele><time>2026-04-30T15:09:01Z</time></trkpt><trkpt lat="44.81986068830866" lon="9.496784152713138"><ele>198.0</ele><time>2026-04-30T15:09:02Z</time></trkpt><trkpt lat="44.82000780054727" lon="9.497076585544537"><ele>198.0</ele><time>2026-04-30T15:09:03Z</time></trkpt><trkpt lat="44.82008090032607" lon="9.497384691672098"><ele>196.0</ele><time>2026-04-30T15:09:04Z</time></trkpt><trkpt lat="44.820159490153905" lon="9.497675765173197"><ele>194.0</ele><time>2026-04-30T15:09:04.999Z</time></trkpt><trkpt lat="44.82024768614861" lon="9.497942465952418"><ele>192.0</ele><time>2026-04-30T15:09:05.999Z</time></trkpt><trkpt lat="44.8203284528608" lon="9.498207662078933"><ele>192.0</ele><time>2026-04-30T15:09:06.999Z</time></trkpt><trkpt lat="44.820401202021536" lon="9.498466567379218"><ele>192.0</ele><time>2026-04-30T15:09:07.999Z</time></trkpt><trkpt lat="44.82046837259158" lon="9.498719122182782"><ele>192.0</ele><time>2026-04-30T15:09:08.999Z</time></trkpt><trkpt lat="44.820525815132235" lon="9.498987980829607"><ele>192.33333333333331</ele><time>2026-04-30T15:09:09.999Z</time></trkpt><trkpt lat="44.8206048797485" lon="9.499269243022514"><ele>192.66666666666666</ele><time>2026-04-30T15:09:10.999Z</time></trkpt><trkpt lat="44.82067541646775" lon="9.499561972472849"><ele>193.0</ele><time>2026-04-30T15:09:11.999Z</time></trkpt><trkpt lat="44.82077338985848" lon="9.499829032846026"><ele>193.0</ele><time>2026-04-30T15:09:12.999Z</time></trkpt><trkpt lat="44.82084112677936" lon="9.500123542946302"><ele>193.0</ele><time>2026-04-30T15:09:13.999Z</time></trkpt><trkpt lat="44.82092961358052" lon="9.500402252511881"><ele>193.0</ele><time>2026-04-30T15:09:14.999Z</time></trkpt><trkpt lat="44.82102539748875" lon="9.500660178091987"><ele>192.66666666666666</ele><time>2026-04-30T15:09:15.999Z</time></trkpt><trkpt lat="44.821123223773355" lon="9.500910894521487"><ele>192.33333333333331</ele><time>2026-04-30T15:09:16.999Z</time></trkpt><trkpt lat="44.82123709787052" lon="9.50112805850899"><ele>192.0</ele><time>2026-04-30T15:09:17.999Z</time></trkpt><trkpt lat="44.82134885116015" lon="9.501337643191233"><ele>192.0</ele><time>2026-04-30T15:09:18.999Z</time></trkpt><trkpt lat="44.82145903663661" lon="9.501534528564097"><ele>192.0</ele><time>2026-04-30T15:09:19.999Z</time></trkpt><trkpt lat="44.82157408277904" lon="9.501711000081722"><ele>192.0</ele><time>2026-04-30T15:09:20.999Z</time></trkpt><trkpt lat="44.821707139157695" lon="9.50189313751562"><ele>190.33333333333334</ele><time>2026-04-30T15:09:21.999Z</time></trkpt><trkpt lat="44.82185496645477" lon="9.502098116908993"><ele>188.66666666666669</ele><time>2026-04-30T15:09:22.999Z</time></trkpt><trkpt lat="44.822039658557486" lon="9.502278968472655"><ele>187.0</ele><time>2026-04-30T15:09:23.999Z</time></trkpt><trkpt lat="44.82221397926798" lon="9.5024870454474"><ele>187.0</ele><time>2026-04-30T15:09:24.999Z</time></trkpt><trkpt lat="44.82239978177132" lon="9.50266875213638"><ele>187.0</ele><time>2026-04-30T15:09:25.999Z</time></trkpt><trkpt lat="44.82257433337416" lon="9.502837531803113"><ele>187.0</ele><time>2026-04-30T15:09:26.999Z</time></trkpt><trkpt lat="44.82276102322729" lon="9.503020526664205"><ele>187.66666666666669</ele><time>2026-04-30T15:09:27.999Z</time></trkpt><trkpt lat="44.82293912902273" lon="9.503196623381333"><ele>188.33333333333334</ele><time>2026-04-30T15:09:28.999Z</time></trkpt><trkpt lat="44.823107771032745" lon="9.50337969023411"><ele>189.0</ele><time>2026-04-30T15:09:29.999Z</time></trkpt><trkpt lat="44.82326313141321" lon="9.503560354156761"><ele>189.0</ele><time>2026-04-30T15:09:30.999Z</time></trkpt><trkpt lat="44.823405511047895" lon="9.503712734484724"><ele>189.0</ele><time>2026-04-30T15:09:31.999Z</time></trkpt><trkpt lat="44.82353644913053" lon="9.503935178099356"><ele>189.0</ele><time>2026-04-30T15:09:32.999Z</time></trkpt><trkpt lat="44.82366694966843" lon="9.50416136566218"><ele>189.0</ele><time>2026-04-30T15:09:33.999Z</time></trkpt><trkpt lat="44.82380199467845" lon="9.504354048347873"><ele>189.0</ele><time>2026-04-30T15:09:34.999Z</time></trkpt><trkpt lat="44.823935914297266" lon="9.504588656590185"><ele>189.0</ele><time>2026-04-30T15:09:35.999Z</time></trkpt><trkpt lat="44.824075020217236" lon="9.50484466936927"><ele>189.0</ele><time>2026-04-30T15:09:36.999Z</time></trkpt><trkpt lat="44.82420227473653" lon="9.505127411326391"><ele>189.0</ele><time>2026-04-30T15:09:37.999Z</time></trkpt><trkpt lat="44.82430858945415" lon="9.505447813227342"><ele>188.5</ele><time>2026-04-30T15:09:38.999Z</time></trkpt><trkpt lat="44.824450132218416" lon="9.505729633819028"><ele>188.0</ele><time>2026-04-30T15:09:39.999Z</time></trkpt><trkpt lat="44.824611908792335" lon="9.505990922637526"><ele>188.5</ele><time>2026-04-30T15:09:40.999Z</time></trkpt><trkpt lat="44.82474575528515" lon="9.506266903189472"><ele>189.0</ele><time>2026-04-30T15:09:41.999Z</time></trkpt><trkpt lat="44.82487286115553" lon="9.506534066820553"><ele>189.0</ele><time>2026-04-30T15:09:42.999Z</time></trkpt><trkpt lat="44.82500625643354" lon="9.506822126857754"><ele>189.0</ele><time>2026-04-30T15:09:43.999Z</time></trkpt><trkpt lat="44.825117243889075" lon="9.507060718870333"><ele>189.0</ele><time>2026-04-30T15:09:44.999Z</time></trkpt><trkpt lat="44.825236006767696" lon="9.507315816539586"><ele>188.66666666666666</ele><time>2026-04-30T15:09:45.999Z</time></trkpt><trkpt lat="44.825353538712484" lon="9.507565387004416"><ele>188.33333333333331</ele><time>2026-04-30T15:09:46.999Z</time></trkpt><trkpt lat="44.825474344261096" lon="9.50781791224754"><ele>188.0</ele><time>2026-04-30T15:09:47.999Z</time></trkpt><trkpt lat="44.825598138376606" lon="9.508073098888971"><ele>189.66666666666666</ele><time>2026-04-30T15:09:48.999Z</time></trkpt><trkpt lat="44.82571496658442" lon="9.508310602165185"><ele>191.33333333333331</ele><time>2026-04-30T15:09:49.999Z</time></trkpt><trkpt lat="44.82583652163708" lon="9.508555956413511"><ele>193.0</ele><time>2026-04-30T15:09:50.999Z</time></trkpt><trkpt lat="44.825964030729715" lon="9.508781650768686"><ele>191.0</ele><time>2026-04-30T15:09:51.999Z</time></trkpt><trkpt lat="44.826077281033626" lon="9.509037595540232"><ele>189.0</ele><time>2026-04-30T15:09:52.999Z</time></trkpt><trkpt lat="44.82619193510075" lon="9.509288845409746"><ele>187.0</ele><time>2026-04-30T15:09:53.999Z</time></trkpt><trkpt lat="44.82630481747324" lon="9.509539674005302"><ele>187.33333333333334</ele><time>2026-04-30T15:09:54.999Z</time></trkpt><trkpt lat="44.82642286383864" lon="9.509784129013253"><ele>187.66666666666666</ele><time>2026-04-30T15:09:55.999Z</time></trkpt><trkpt lat="44.82655549776873" lon="9.510007615450515"><ele>188.0</ele><time>2026-04-30T15:09:56.999Z</time></trkpt><trkpt lat="44.826682915791686" lon="9.510243382649843"><ele>188.33333333333331</ele><time>2026-04-30T15:09:57.999Z</time></trkpt><trkpt lat="44.826811003800216" lon="9.510463017506222"><ele>188.66666666666666</ele><time>2026-04-30T15:09:58.999Z</time></trkpt><trkpt lat="44.82693952295726" lon="9.510673356380662"><ele>189.0</ele><time>2026-04-30T15:09:59.999Z</time></trkpt><trkpt lat="44.82707561737529" lon="9.510884930409485"><ele>189.0</ele><time>2026-04-30T15:10:00.999Z</time></trkpt><trkpt lat="44.8272076412325" lon="9.511088379986079"><ele>189.0</ele><time>2026-04-30T15:10:01.999Z</time></trkpt><trkpt lat="44.82733705580294" lon="9.511291569144111"><ele>189.0</ele><time>2026-04-30T15:10:02.999Z</time></trkpt><trkpt lat="44.8274631153473" lon="9.511495233043746"><ele>188.33333333333334</ele><time>2026-04-30T15:10:03.999Z</time></trkpt><trkpt lat="44.82756832905543" lon="9.511728157339606"><ele>187.66666666666669</ele><time>2026-04-30T15:10:04.999Z</time></trkpt><trkpt lat="44.827672287250614" lon="9.51194916390303"><ele>187.0</ele><time>2026-04-30T15:10:05.999Z</time></trkpt><trkpt lat="44.82775078117592" lon="9.512204207784956"><ele>188.33333333333334</ele><time>2026-04-30T15:10:06.999Z</time></trkpt><trkpt lat="44.827822665546876" lon="9.512463780232274"><ele>189.66666666666666</ele><time>2026-04-30T15:10:07.999Z</time></trkpt><trkpt lat="44.82792062204516" lon="9.51272496148291"><ele>191.0</ele><time>2026-04-30T15:10:08.999Z</time></trkpt><trkpt lat="44.82800148573418" lon="9.512996240879698"><ele>194.66666666666666</ele><time>2026-04-30T15:10:09.999Z</time></trkpt><trkpt lat="44.82811828684054" lon="9.513250302279689"><ele>198.33333333333331</ele><time>2026-04-30T15:10:10.999Z</time></trkpt><trkpt lat="44.82825262682989" lon="9.51347310680191"><ele>202.0</ele><time>2026-04-30T15:10:11.999Z</time></trkpt><trkpt lat="44.82837354684841" lon="9.51369588501813"><ele>199.66666666666666</ele><time>2026-04-30T15:10:12.999Z</time></trkpt><trkpt lat="44.82850624852615" lon="9.513904316819271"><ele>197.33333333333331</ele><time>2026-04-30T15:10:13.999Z</time></trkpt><trkpt lat="44.828660121236766" lon="9.51408437824306"><ele>195.0</ele><time>2026-04-30T15:10:14.999Z</time></trkpt><trkpt lat="44.82879290044495" lon="9.514282244850545"><ele>195.0</ele><time>2026-04-30T15:10:15.999Z</time></trkpt><trkpt lat="44.82895554843696" lon="9.514415506793878"><ele>195.0</ele><time>2026-04-30T15:10:16.998Z</time></trkpt><trkpt lat="44.82911314567147" lon="9.51455790268368"><ele>195.0</ele><time>2026-04-30T15:10:17.998Z</time></trkpt><trkpt lat="44.8292635013794" lon="9.51470496009259"><ele>194.66666666666669</ele><time>2026-04-30T15:10:18.998Z</time></trkpt><trkpt lat="44.82941372707139" lon="9.514832445566855"><ele>194.33333333333334</ele><time>2026-04-30T15:10:19.998Z</time></trkpt><trkpt lat="44.829551727850514" lon="9.514968190010746"><ele>194.0</ele><time>2026-04-30T15:10:20.998Z</time></trkpt><trkpt lat="44.82969363887725" lon="9.515097522000728"><ele>194.0</ele><time>2026-04-30T15:10:21.998Z</time></trkpt><trkpt lat="44.82983214526322" lon="9.515223751092252"><ele>194.0</ele><time>2026-04-30T15:10:22.998Z</time></trkpt><trkpt lat="44.829955550996694" lon="9.515338879140291"><ele>194.0</ele><time>2026-04-30T15:10:23.998Z</time></trkpt><trkpt lat="44.83008683636173" lon="9.515471782628799"><ele>194.6</ele><time>2026-04-30T15:10:24.998Z</time></trkpt><trkpt lat="44.8301711303882" lon="9.515569956596655"><ele>195.2</ele><time>2026-04-30T15:10:25.998Z</time></trkpt><trkpt lat="44.83023943403188" lon="9.515661241302562"><ele>195.79999999999998</ele><time>2026-04-30T15:10:26.998Z</time></trkpt><trkpt lat="44.83029744003808" lon="9.51575414495053"><ele>196.39999999999998</ele><time>2026-04-30T15:10:27.998Z</time></trkpt><trkpt lat="44.83036071515427" lon="9.515890730935173"><ele>197.0</ele><time>2026-04-30T15:10:29.998Z</time></trkpt><trkpt lat="44.830436964646736" lon="9.515906578048481"><ele>197.0</ele><time>2026-04-30T15:10:30.998Z</time></trkpt><trkpt lat="44.83038517573624" lon="9.516082650268645"><ele>197.0</ele><time>2026-04-30T15:10:32.998Z</time></trkpt><trkpt lat="44.830370601129374" lon="9.516171589797235"><ele>197.0</ele><time>2026-04-30T15:10:33.998Z</time></trkpt><trkpt lat="44.83037317063163" lon="9.51626427150524"><ele>197.0</ele><time>2026-04-30T15:10:34.998Z</time></trkpt><trkpt lat="44.83047501851611" lon="9.51628979497258"><ele>197.0</ele><time>2026-04-30T15:10:37.998Z</time></trkpt><trkpt lat="44.83057572662234" lon="9.516255957538526"><ele>198.33333333333334</ele><time>2026-04-30T15:10:39.998Z</time></trkpt><trkpt lat="44.83062927117881" lon="9.516302961798441"><ele>199.66666666666669</ele><time>2026-04-30T15:10:40.998Z</time></trkpt><trkpt lat="44.83068030982998" lon="9.51638481676945"><ele>201.0</ele><time>2026-04-30T15:10:41.998Z</time></trkpt><trkpt lat="44.830727689638934" lon="9.516491396618578"><ele>202.33333333333331</ele><time>2026-04-30T15:10:42.998Z</time></trkpt><trkpt lat="44.830758653895685" lon="9.516622604008925"><ele>203.66666666666666</ele><time>2026-04-30T15:10:43.998Z</time></trkpt><trkpt lat="44.83078578083625" lon="9.51678357141084"><ele>205.0</ele><time>2026-04-30T15:10:44.998Z</time></trkpt><trkpt lat="44.83079342288775" lon="9.516933478984088"><ele>205.2</ele><time>2026-04-30T15:10:45.998Z</time></trkpt><trkpt lat="44.83080329759129" lon="9.51709923749625"><ele>205.4</ele><time>2026-04-30T15:10:46.998Z</time></trkpt><trkpt lat="44.83084332429303" lon="9.517257868703265"><ele>205.60000000000002</ele><time>2026-04-30T15:10:47.998Z</time></trkpt><trkpt lat="44.8308105767943" lon="9.517387519932347"><ele>205.8</ele><time>2026-04-30T15:10:48.998Z</time></trkpt><trkpt lat="44.830763627682416" lon="9.517483202941882"><ele>206.0</ele><time>2026-04-30T15:10:49.998Z</time></trkpt><trkpt lat="44.830708565801146" lon="9.517621053632972"><ele>206.0</ele><time>2026-04-30T15:10:50.998Z</time></trkpt><trkpt lat="44.83064812712067" lon="9.517776718302006"><ele>206.0</ele><time>2026-04-30T15:10:51.998Z</time></trkpt><trkpt lat="44.83059182060551" lon="9.517931854572193"><ele>206.0</ele><time>2026-04-30T15:10:52.998Z</time></trkpt><trkpt lat="44.830529926859604" lon="9.518100543293311"><ele>206.0</ele><time>2026-04-30T15:10:53.998Z</time></trkpt><trkpt lat="44.830491354024815" lon="9.51827901279324"><ele>205.0</ele><time>2026-04-30T15:10:54.998Z</time></trkpt><trkpt lat="44.83048101119514" lon="9.518469198806809"><ele>204.0</ele><time>2026-04-30T15:10:55.998Z</time></trkpt><trkpt lat="44.83049923697936" lon="9.518623643622544"><ele>203.0</ele><time>2026-04-30T15:10:56.998Z</time></trkpt><trkpt lat="44.83055373090642" lon="9.518766202347178"><ele>202.0</ele><time>2026-04-30T15:10:57.998Z</time></trkpt><trkpt lat="44.830624723520316" lon="9.518896984680726"><ele>202.0</ele><time>2026-04-30T15:10:58.998Z</time></trkpt><trkpt lat="44.83071467874018" lon="9.519001058791313"><ele>202.0</ele><time>2026-04-30T15:10:59.998Z</time></trkpt><trkpt lat="44.83081478369862" lon="9.519121051361424"><ele>202.0</ele><time>2026-04-30T15:11:00.998Z</time></trkpt><trkpt lat="44.83090826887914" lon="9.519246947866485"><ele>202.0</ele><time>2026-04-30T15:11:01.998Z</time></trkpt><trkpt lat="44.83101321014543" lon="9.519359840242593"><ele>202.75</ele><time>2026-04-30T15:11:02.998Z</time></trkpt><trkpt lat="44.83110429027512" lon="9.519519509682848"><ele>203.5</ele><time>2026-04-30T15:11:03.998Z</time></trkpt><trkpt lat="44.831201582214184" lon="9.51964609761248"><ele>204.25</ele><time>2026-04-30T15:11:04.998Z</time></trkpt><trkpt lat="44.831280729872766" lon="9.519772372589422"><ele>205.0</ele><time>2026-04-30T15:11:05.998Z</time></trkpt><trkpt lat="44.83135394582976" lon="9.519906954592976"><ele>205.0</ele><time>2026-04-30T15:11:06.998Z</time></trkpt><trkpt lat="44.831448637560186" lon="9.520035316949958"><ele>205.0</ele><time>2026-04-30T15:11:07.998Z</time></trkpt><trkpt lat="44.83156783350787" lon="9.520150186449449"><ele>205.0</ele><time>2026-04-30T15:11:08.998Z</time></trkpt><trkpt lat="44.83170059433308" lon="9.52020554198886"><ele>205.0</ele><time>2026-04-30T15:11:09.998Z</time></trkpt><trkpt lat="44.831851896517705" lon="9.520171336572147"><ele>206.0</ele><time>2026-04-30T15:11:10.998Z</time></trkpt><trkpt lat="44.83199156699479" lon="9.520110241623806"><ele>207.0</ele><time>2026-04-30T15:11:11.998Z</time></trkpt><trkpt lat="44.832137081192045" lon="9.520073983708704"><ele>208.0</ele><time>2026-04-30T15:11:12.998Z</time></trkpt><trkpt lat="44.83228406471289" lon="9.52001393948475"><ele>209.0</ele><time>2026-04-30T15:11:13.998Z</time></trkpt><trkpt lat="44.83243116803419" lon="9.519944030848606"><ele>209.0</ele><time>2026-04-30T15:11:14.998Z</time></trkpt><trkpt lat="44.832577628744666" lon="9.519875676896628"><ele>209.0</ele><time>2026-04-30T15:11:15.998Z</time></trkpt><trkpt lat="44.83270059191607" lon="9.519808577636558"><ele>209.0</ele><time>2026-04-30T15:11:16.998Z</time></trkpt><trkpt lat="44.8328387106605" lon="9.519740135856688"><ele>209.0</ele><time>2026-04-30T15:11:17.998Z</time></trkpt><trkpt lat="44.83299437380976" lon="9.51968263705348"><ele>208.5</ele><time>2026-04-30T15:11:18.998Z</time></trkpt><trkpt lat="44.83314581838205" lon="9.519630326534426"><ele>208.0</ele><time>2026-04-30T15:11:19.998Z</time></trkpt><trkpt lat="44.833290664030386" lon="9.519619713909"><ele>207.5</ele><time>2026-04-30T15:11:20.998Z</time></trkpt><trkpt lat="44.83342742601613" lon="9.519644290017002"><ele>207.0</ele><time>2026-04-30T15:11:21.998Z</time></trkpt><trkpt lat="44.833515248786576" lon="9.519684760360672"><ele>207.0</ele><time>2026-04-30T15:11:22.998Z</time></trkpt><trkpt lat="44.83363623545278" lon="9.519754537953393"><ele>207.0</ele><time>2026-04-30T15:11:23.998Z</time></trkpt><trkpt lat="44.83375330673232" lon="9.519826328942393"><ele>207.0</ele><time>2026-04-30T15:11:24.998Z</time></trkpt><trkpt lat="44.8338616784942" lon="9.519902902506063"><ele>207.0</ele><time>2026-04-30T15:11:25.998Z</time></trkpt><trkpt lat="44.83395772579597" lon="9.51998338634242"><ele>207.0</ele><time>2026-04-30T15:11:26.998Z</time></trkpt><trkpt lat="44.83405710976554" lon="9.52008126012167"><ele>207.0</ele><time>2026-04-30T15:11:27.998Z</time></trkpt><trkpt lat="44.83414317751264" lon="9.520167797169083"><ele>207.0</ele><time>2026-04-30T15:11:28.998Z</time></trkpt><trkpt lat="44.83423921278938" lon="9.520239264665408"><ele>207.0</ele><time>2026-04-30T15:11:29.998Z</time></trkpt><trkpt lat="44.83431804463424" lon="9.520347489200118"><ele>207.0</ele><time>2026-04-30T15:11:30.998Z</time></trkpt><trkpt lat="44.83440778627675" lon="9.520416121896844"><ele>208.25</ele><time>2026-04-30T15:11:31.998Z</time></trkpt><trkpt lat="44.834536422790826" lon="9.520391001539524"><ele>209.5</ele><time>2026-04-30T15:11:32.998Z</time></trkpt><trkpt lat="44.83462944472566" lon="9.520309123811833"><ele>210.75</ele><time>2026-04-30T15:11:33.997Z</time></trkpt><trkpt lat="44.83473332894462" lon="9.520241032010725"><ele>212.0</ele><time>2026-04-30T15:11:34.997Z</time></trkpt><trkpt lat="44.834823886456455" lon="9.520148081684104"><ele>212.0</ele><time>2026-04-30T15:11:35.997Z</time></trkpt><trkpt lat="44.83491265720496" lon="9.520068504428467"><ele>212.0</ele><time>2026-04-30T15:11:36.997Z</time></trkpt><trkpt lat="44.83499285507923" lon="9.519973360647718"><ele>212.0</ele><time>2026-04-30T15:11:37.997Z</time></trkpt><trkpt lat="44.83507811401367" lon="9.51994309946825"><ele>212.0</ele><time>2026-04-30T15:11:38.997Z</time></trkpt><trkpt lat="44.83516162793856" lon="9.519932577000407"><ele>212.0</ele><time>2026-04-30T15:11:39.997Z</time></trkpt><trkpt lat="44.83526569915726" lon="9.51994342599635"><ele>210.0</ele><time>2026-04-30T15:11:40.997Z</time></trkpt><trkpt lat="44.83537237730588" lon="9.520001145589033"><ele>208.0</ele><time>2026-04-30T15:11:41.997Z</time></trkpt><trkpt lat="44.83547331962201" lon="9.520074676049616"><ele>206.0</ele><time>2026-04-30T15:11:42.997Z</time></trkpt><trkpt lat="44.83560233514489" lon="9.520122497279838"><ele>204.0</ele><time>2026-04-30T15:11:43.997Z</time></trkpt><trkpt lat="44.83572084768995" lon="9.520184507088048"><ele>204.0</ele><time>2026-04-30T15:11:44.997Z</time></trkpt><trkpt lat="44.835842165881516" lon="9.520242528864257"><ele>204.0</ele><time>2026-04-30T15:11:45.997Z</time></trkpt><trkpt lat="44.835957971248234" lon="9.520308745886728"><ele>204.0</ele><time>2026-04-30T15:11:46.997Z</time></trkpt><trkpt lat="44.83606321027174" lon="9.520415244092419"><ele>204.0</ele><time>2026-04-30T15:11:47.997Z</time></trkpt><trkpt lat="44.83616744479403" lon="9.52053669961884"><ele>205.0</ele><time>2026-04-30T15:11:48.997Z</time></trkpt><trkpt lat="44.836289460337724" lon="9.52066611626186"><ele>206.0</ele><time>2026-04-30T15:11:49.997Z</time></trkpt><trkpt lat="44.836394723013996" lon="9.520808870558263"><ele>207.0</ele><time>2026-04-30T15:11:50.997Z</time></trkpt><trkpt lat="44.83649197790086" lon="9.520964629834973"><ele>208.0</ele><time>2026-04-30T15:11:51.997Z</time></trkpt><trkpt lat="44.836577511776625" lon="9.521135457090063"><ele>206.75</ele><time>2026-04-30T15:11:52.997Z</time></trkpt><trkpt lat="44.83669003752922" lon="9.521288884843846"><ele>205.5</ele><time>2026-04-30T15:11:53.997Z</time></trkpt><trkpt lat="44.83679295709568" lon="9.521443831253384"><ele>204.25</ele><time>2026-04-30T15:11:54.997Z</time></trkpt><trkpt lat="44.836904322166056" lon="9.521559223650275"><ele>203.0</ele><time>2026-04-30T15:11:55.997Z</time></trkpt><trkpt lat="44.837027249260416" lon="9.521685249755487"><ele>203.0</ele><time>2026-04-30T15:11:56.997Z</time></trkpt><trkpt lat="44.83715621121377" lon="9.521818897825328"><ele>203.0</ele><time>2026-04-30T15:11:57.997Z</time></trkpt><trkpt lat="44.83726316565844" lon="9.521950065856396"><ele>203.0</ele><time>2026-04-30T15:11:58.997Z</time></trkpt><trkpt lat="44.837386199753695" lon="9.52205370524629"><ele>203.0</ele><time>2026-04-30T15:11:59.997Z</time></trkpt><trkpt lat="44.83751159879744" lon="9.52218493048585"><ele>203.0</ele><time>2026-04-30T15:12:00.997Z</time></trkpt><trkpt lat="44.83763225083011" lon="9.522304563402841"><ele>203.0</ele><time>2026-04-30T15:12:01.997Z</time></trkpt><trkpt lat="44.83773618966881" lon="9.522435451239609"><ele>203.0</ele><time>2026-04-30T15:12:02.997Z</time></trkpt><trkpt lat="44.83783803552659" lon="9.522548619352003"><ele>203.0</ele><time>2026-04-30T15:12:03.997Z</time></trkpt><trkpt lat="44.83795025458331" lon="9.52266037902544"><ele>203.0</ele><time>2026-04-30T15:12:04.997Z</time></trkpt><trkpt lat="44.83805745363665" lon="9.522761964994212"><ele>203.0</ele><time>2026-04-30T15:12:05.997Z</time></trkpt><trkpt lat="44.838160204579125" lon="9.522865233026991"><ele>203.0</ele><time>2026-04-30T15:12:06.997Z</time></trkpt><trkpt lat="44.83827308316969" lon="9.522985703540048"><ele>203.0</ele><time>2026-04-30T15:12:07.997Z</time></trkpt><trkpt lat="44.8384128739998" lon="9.523138314151215"><ele>200.66666666666669</ele><time>2026-04-30T15:12:08.997Z</time></trkpt><trkpt lat="44.838497506527176" lon="9.523331453515778"><ele>198.33333333333331</ele><time>2026-04-30T15:12:09.997Z</time></trkpt><trkpt lat="44.838571600994605" lon="9.52351330346807"><ele>196.0</ele><time>2026-04-30T15:12:10.997Z</time></trkpt><trkpt lat="44.83864789341275" lon="9.52368127699416"><ele>200.0</ele><time>2026-04-30T15:12:11.997Z</time></trkpt><trkpt lat="44.83870952292914" lon="9.523880841149506"><ele>204.0</ele><time>2026-04-30T15:12:12.997Z</time></trkpt><trkpt lat="44.83878869280427" lon="9.524068634698482"><ele>208.0</ele><time>2026-04-30T15:12:13.997Z</time></trkpt><trkpt lat="44.83883393924904" lon="9.524265344655461"><ele>208.0</ele><time>2026-04-30T15:12:14.997Z</time></trkpt><trkpt lat="44.83886904661251" lon="9.524469367545903"><ele>208.0</ele><time>2026-04-30T15:12:15.997Z</time></trkpt><trkpt lat="44.83890376488406" lon="9.524688328356811"><ele>208.0</ele><time>2026-04-30T15:12:16.997Z</time></trkpt><trkpt lat="44.83893769104305" lon="9.524886074230066"><ele>210.0</ele><time>2026-04-30T15:12:17.997Z</time></trkpt><trkpt lat="44.838984771679144" lon="9.5251246219031"><ele>212.0</ele><time>2026-04-30T15:12:18.997Z</time></trkpt><trkpt lat="44.83907165229654" lon="9.525327797643452"><ele>214.0</ele><time>2026-04-30T15:12:19.997Z</time></trkpt><trkpt lat="44.839189503369084" lon="9.525529524798776"><ele>219.33333333333331</ele><time>2026-04-30T15:12:20.997Z</time></trkpt><trkpt lat="44.83928216547906" lon="9.525719849996918"><ele>224.66666666666669</ele><time>2026-04-30T15:12:21.997Z</time></trkpt><trkpt lat="44.839384408982895" lon="9.52590099987706"><ele>230.0</ele><time>2026-04-30T15:12:22.997Z</time></trkpt><trkpt lat="44.839467563206284" lon="9.526088812012144"><ele>222.0</ele><time>2026-04-30T15:12:23.997Z</time></trkpt><trkpt lat="44.83956068937676" lon="9.526322951313407"><ele>214.0</ele><time>2026-04-30T15:12:24.998Z</time></trkpt><trkpt lat="44.839614637371504" lon="9.526530779599431"><ele>206.0</ele><time>2026-04-30T15:12:25.998Z</time></trkpt><trkpt lat="44.83968099964992" lon="9.526732045594601"><ele>206.0</ele><time>2026-04-30T15:12:26.998Z</time></trkpt><trkpt lat="44.839744381895684" lon="9.526929387094514"><ele>206.0</ele><time>2026-04-30T15:12:27.998Z</time></trkpt><trkpt lat="44.83981884283695" lon="9.52714850942006"><ele>206.0</ele><time>2026-04-30T15:12:28.998Z</time></trkpt><trkpt lat="44.83990968649205" lon="9.527371532630228"><ele>205.0</ele><time>2026-04-30T15:12:29.998Z</time></trkpt><trkpt lat="44.84000320096682" lon="9.527567572114625"><ele>204.0</ele><time>2026-04-30T15:12:30.998Z</time></trkpt><trkpt lat="44.840097946776986" lon="9.527782520441683"><ele>203.0</ele><time>2026-04-30T15:12:31.998Z</time></trkpt><trkpt lat="44.840196681573254" lon="9.5279847965591"><ele>203.0</ele><time>2026-04-30T15:12:32.998Z</time></trkpt><trkpt lat="44.84027926540679" lon="9.52822324800496"><ele>203.0</ele><time>2026-04-30T15:12:33.998Z</time></trkpt><trkpt lat="44.84039797231145" lon="9.52841756830878"><ele>203.0</ele><time>2026-04-30T15:12:34.998Z</time></trkpt><trkpt lat="44.840494267473716" lon="9.52862129129342"><ele>204.66666666666669</ele><time>2026-04-30T15:12:35.998Z</time></trkpt><trkpt lat="44.84060279253838" lon="9.528813249904589"><ele>206.33333333333331</ele><time>2026-04-30T15:12:36.998Z</time></trkpt><trkpt lat="44.84071149282616" lon="9.529006974404464"><ele>208.0</ele><time>2026-04-30T15:12:37.998Z</time></trkpt><trkpt lat="44.840824661138676" lon="9.529184571912634"><ele>208.0</ele><time>2026-04-30T15:12:38.998Z</time></trkpt><trkpt lat="44.84092097317443" lon="9.529370822585152"><ele>208.0</ele><time>2026-04-30T15:12:39.998Z</time></trkpt><trkpt lat="44.84104064086704" lon="9.52957318406885"><ele>208.0</ele><time>2026-04-30T15:12:40.998Z</time></trkpt><trkpt lat="44.841161075591025" lon="9.529766771122503"><ele>209.0</ele><time>2026-04-30T15:12:41.998Z</time></trkpt><trkpt lat="44.84127364176908" lon="9.529973262531035"><ele>210.0</ele><time>2026-04-30T15:12:42.998Z</time></trkpt><trkpt lat="44.84135984260309" lon="9.530195919375196"><ele>211.0</ele><time>2026-04-30T15:12:43.998Z</time></trkpt><trkpt lat="44.841440680486656" lon="9.530426742837616"><ele>211.0</ele><time>2026-04-30T15:12:44.998Z</time></trkpt><trkpt lat="44.84151637204688" lon="9.530623620400338"><ele>211.0</ele><time>2026-04-30T15:12:45.998Z</time></trkpt><trkpt lat="44.8415915343128" lon="9.530823810720896"><ele>211.0</ele><time>2026-04-30T15:12:46.998Z</time></trkpt><trkpt lat="44.841677280207996" lon="9.531009302903774"><ele>211.0</ele><time>2026-04-30T15:12:47.998Z</time></trkpt><trkpt lat="44.8417560174168" lon="9.531188344949099"><ele>211.0</ele><time>2026-04-30T15:12:48.998Z</time></trkpt><trkpt lat="44.84187345816247" lon="9.531336232007781"><ele>211.0</ele><time>2026-04-30T15:12:49.997Z</time></trkpt><trkpt lat="44.84200320433701" lon="9.531465644306653"><ele>210.25</ele><time>2026-04-30T15:12:50.997Z</time></trkpt><trkpt lat="44.84214800316878" lon="9.531515391837283"><ele>209.5</ele><time>2026-04-30T15:12:51.997Z</time></trkpt><trkpt lat="44.84228062617651" lon="9.531575706112847"><ele>208.75</ele><time>2026-04-30T15:12:52.997Z</time></trkpt><trkpt lat="44.842411812717806" lon="9.531638286554024"><ele>208.0</ele><time>2026-04-30T15:12:53.997Z</time></trkpt><trkpt lat="44.842533101110405" lon="9.531716148205645"><ele>203.0</ele><time>2026-04-30T15:12:54.997Z</time></trkpt><trkpt lat="44.842645867621485" lon="9.531814461078849"><ele>198.0</ele><time>2026-04-30T15:12:55.997Z</time></trkpt><trkpt lat="44.842749713440526" lon="9.531950899499956"><ele>193.0</ele><time>2026-04-30T15:12:56.997Z</time></trkpt><trkpt lat="44.84280308517736" lon="9.532135685184457"><ele>188.0</ele><time>2026-04-30T15:12:57.997Z</time></trkpt><trkpt lat="44.84283168167453" lon="9.532342119384614"><ele>188.0</ele><time>2026-04-30T15:12:58.997Z</time></trkpt><trkpt lat="44.84287084793475" lon="9.532575371826942"><ele>188.0</ele><time>2026-04-30T15:12:59.997Z</time></trkpt><trkpt lat="44.84293349673454" lon="9.532767680028838"><ele>188.0</ele><time>2026-04-30T15:13:00.997Z</time></trkpt><trkpt lat="44.84296080865646" lon="9.532944972290977"><ele>188.0</ele><time>2026-04-30T15:13:01.997Z</time></trkpt><trkpt lat="44.84297831337618" lon="9.533155551493126"><ele>190.25</ele><time>2026-04-30T15:13:02.997Z</time></trkpt><trkpt lat="44.843020271855764" lon="9.533348150445384"><ele>192.5</ele><time>2026-04-30T15:13:03.997Z</time></trkpt><trkpt lat="44.84306645233461" lon="9.533539955683171"><ele>194.75</ele><time>2026-04-30T15:13:04.997Z</time></trkpt><trkpt lat="44.84309518398426" lon="9.533725057468596"><ele>197.0</ele><time>2026-04-30T15:13:05.997Z</time></trkpt><trkpt lat="44.84310465973692" lon="9.53393316359385"><ele>198.0</ele><time>2026-04-30T15:13:06.997Z</time></trkpt><trkpt lat="44.843131319914825" lon="9.534138803190054"><ele>199.0</ele><time>2026-04-30T15:13:07.997Z</time></trkpt><trkpt lat="44.84315184704802" lon="9.534345981367945"><ele>200.0</ele><time>2026-04-30T15:13:08.997Z</time></trkpt><trkpt lat="44.84317059060759" lon="9.534540500917972"><ele>201.0</ele><time>2026-04-30T15:13:09.997Z</time></trkpt><trkpt lat="44.84318878131221" lon="9.534733728526845"><ele>202.25</ele><time>2026-04-30T15:13:10.997Z</time></trkpt><trkpt lat="44.8432061174728" lon="9.534917878811052"><ele>203.5</ele><time>2026-04-30T15:13:11.997Z</time></trkpt><trkpt lat="44.843222071109096" lon="9.535087343419354"><ele>204.75</ele><time>2026-04-30T15:13:12.997Z</time></trkpt><trkpt lat="44.84324016048684" lon="9.535278934035722"><ele>206.0</ele><time>2026-04-30T15:13:13.997Z</time></trkpt><trkpt lat="44.84324915593245" lon="9.535467565179987"><ele>207.0</ele><time>2026-04-30T15:13:14.997Z</time></trkpt><trkpt lat="44.84332979734684" lon="9.535653042507809"><ele>208.0</ele><time>2026-04-30T15:13:15.997Z</time></trkpt><trkpt lat="44.84340280254083" lon="9.535802886340052"><ele>209.0</ele><time>2026-04-30T15:13:16.997Z</time></trkpt><trkpt lat="44.84350638215487" lon="9.535904739819749"><ele>210.0</ele><time>2026-04-30T15:13:17.997Z</time></trkpt><trkpt lat="44.8436353534872" lon="9.535963779590823"><ele>207.0</ele><time>2026-04-30T15:13:18.997Z</time></trkpt><trkpt lat="44.843764605181065" lon="9.535991300161461"><ele>204.0</ele><time>2026-04-30T15:13:19.997Z</time></trkpt><trkpt lat="44.843917275012146" lon="9.53599848458818"><ele>201.0</ele><time>2026-04-30T15:13:20.997Z</time></trkpt><trkpt lat="44.84403414641851" lon="9.535970024264941"><ele>198.0</ele><time>2026-04-30T15:13:21.997Z</time></trkpt><trkpt lat="44.84415376564513" lon="9.535951056414692"><ele>198.0</ele><time>2026-04-30T15:13:22.997Z</time></trkpt><trkpt lat="44.844259481622565" lon="9.535952376162427"><ele>198.0</ele><time>2026-04-30T15:13:23.997Z</time></trkpt><trkpt lat="44.84437480019481" lon="9.535992580750017"><ele>198.0</ele><time>2026-04-30T15:13:24.997Z</time></trkpt><trkpt lat="44.844494407361566" lon="9.5361530447693"><ele>198.0</ele><time>2026-04-30T15:13:25.997Z</time></trkpt><trkpt lat="44.8445953392977" lon="9.53632917967141"><ele>197.75</ele><time>2026-04-30T15:13:26.997Z</time></trkpt><trkpt lat="44.844654005419" lon="9.536483864736752"><ele>197.5</ele><time>2026-04-30T15:13:27.997Z</time></trkpt><trkpt lat="44.84471432384239" lon="9.536614140192466"><ele>197.25</ele><time>2026-04-30T15:13:28.997Z</time></trkpt><trkpt lat="44.84482430464625" lon="9.536705162772133"><ele>197.0</ele><time>2026-04-30T15:13:29.997Z</time></trkpt><trkpt lat="44.84494400740155" lon="9.536789539170753"><ele>197.0</ele><time>2026-04-30T15:13:30.997Z</time></trkpt><trkpt lat="44.84508161505034" lon="9.536822649741776"><ele>197.0</ele><time>2026-04-30T15:13:31.997Z</time></trkpt><trkpt lat="44.84522197823778" lon="9.536860202298756"><ele>197.0</ele><time>2026-04-30T15:13:32.997Z</time></trkpt><trkpt lat="44.84533396644399" lon="9.536963420692967"><ele>197.0</ele><time>2026-04-30T15:13:33.997Z</time></trkpt><trkpt lat="44.84543412180534" lon="9.53708856179258"><ele>195.33333333333334</ele><time>2026-04-30T15:13:34.997Z</time></trkpt><trkpt lat="44.84551729919173" lon="9.537255609827875"><ele>193.66666666666669</ele><time>2026-04-30T15:13:35.997Z</time></trkpt><trkpt lat="44.84559475357644" lon="9.53743545624102"><ele>192.0</ele><time>2026-04-30T15:13:36.997Z</time></trkpt><trkpt lat="44.845689535614326" lon="9.53761439399074"><ele>192.0</ele><time>2026-04-30T15:13:37.997Z</time></trkpt><trkpt lat="44.845784041025674" lon="9.537788685598484"><ele>192.0</ele><time>2026-04-30T15:13:38.997Z</time></trkpt><trkpt lat="44.84585249591375" lon="9.537930833356024"><ele>192.0</ele><time>2026-04-30T15:13:39.997Z</time></trkpt><trkpt lat="44.84591245810248" lon="9.53806737066395"><ele>192.0</ele><time>2026-04-30T15:13:40.997Z</time></trkpt><trkpt lat="44.84599911382323" lon="9.538173430328664"><ele>191.0</ele><time>2026-04-30T15:13:41.997Z</time></trkpt><trkpt lat="44.846134280053235" lon="9.538239625104055"><ele>190.0</ele><time>2026-04-30T15:13:42.997Z</time></trkpt><trkpt lat="44.846282319476224" lon="9.5382880771823"><ele>189.0</ele><time>2026-04-30T15:13:43.997Z</time></trkpt><trkpt lat="44.84643122450046" lon="9.538341282759198"><ele>188.0</ele><time>2026-04-30T15:13:44.997Z</time></trkpt><trkpt lat="44.84655320387742" lon="9.538397695786395"><ele>188.0</ele><time>2026-04-30T15:13:45.997Z</time></trkpt><trkpt lat="44.84667065147333" lon="9.538457083882303"><ele>188.0</ele><time>2026-04-30T15:13:46.997Z</time></trkpt><trkpt lat="44.84677651503526" lon="9.538557546860545"><ele>188.0</ele><time>2026-04-30T15:13:47.997Z</time></trkpt><trkpt lat="44.846879909240506" lon="9.538647310504885"><ele>188.0</ele><time>2026-04-30T15:13:48.997Z</time></trkpt><trkpt lat="44.84698163479478" lon="9.538753736683418"><ele>188.25</ele><time>2026-04-30T15:13:49.997Z</time></trkpt><trkpt lat="44.847084648622484" lon="9.538872236803831"><ele>188.5</ele><time>2026-04-30T15:13:50.997Z</time></trkpt><trkpt lat="44.84719476482245" lon="9.53903441429645"><ele>188.75</ele><time>2026-04-30T15:13:51.997Z</time></trkpt><trkpt lat="44.84730206580908" lon="9.539184984005999"><ele>189.0</ele><time>2026-04-30T15:13:52.997Z</time></trkpt><trkpt lat="44.847401666489596" lon="9.539333982481141"><ele>189.0</ele><time>2026-04-30T15:13:53.997Z</time></trkpt><trkpt lat="44.84749166836939" lon="9.539461076631722"><ele>189.0</ele><time>2026-04-30T15:13:54.997Z</time></trkpt><trkpt lat="44.8475803213971" lon="9.539635238756683"><ele>189.0</ele><time>2026-04-30T15:13:55.997Z</time></trkpt><trkpt lat="44.847681165594466" lon="9.53975759228642"><ele>189.0</ele><time>2026-04-30T15:13:56.997Z</time></trkpt><trkpt lat="44.84776638510052" lon="9.539912441351369"><ele>189.25</ele><time>2026-04-30T15:13:57.997Z</time></trkpt><trkpt lat="44.847847110434785" lon="9.540066782596318"><ele>189.5</ele><time>2026-04-30T15:13:58.997Z</time></trkpt><trkpt lat="44.84793123670719" lon="9.54022440878498"><ele>189.75</ele><time>2026-04-30T15:13:59.997Z</time></trkpt><trkpt lat="44.84803251988262" lon="9.5403798675832"><ele>190.0</ele><time>2026-04-30T15:14:00.997Z</time></trkpt><trkpt lat="44.84815418060497" lon="9.540505658701154"><ele>190.0</ele><time>2026-04-30T15:14:01.997Z</time></trkpt><trkpt lat="44.84826953277716" lon="9.540612293069348"><ele>190.0</ele><time>2026-04-30T15:14:02.997Z</time></trkpt><trkpt lat="44.84839093311109" lon="9.540680973969751"><ele>190.0</ele><time>2026-04-30T15:14:03.997Z</time></trkpt><trkpt lat="44.84851692808509" lon="9.540733005890393"><ele>190.0</ele><time>2026-04-30T15:14:04.997Z</time></trkpt><trkpt lat="44.848643109879085" lon="9.540741596156172"><ele>190.75</ele><time>2026-04-30T15:14:05.997Z</time></trkpt><trkpt lat="44.848794198750376" lon="9.540694125207686"><ele>191.5</ele><time>2026-04-30T15:14:06.996Z</time></trkpt><trkpt lat="44.848925098212455" lon="9.540648652340774"><ele>192.25</ele><time>2026-04-30T15:14:07.996Z</time></trkpt><trkpt lat="44.84905496556988" lon="9.540684999478145"><ele>193.0</ele><time>2026-04-30T15:14:08.996Z</time></trkpt><trkpt lat="44.849179677737546" lon="9.540678070001503"><ele>192.25</ele><time>2026-04-30T15:14:09.996Z</time></trkpt><trkpt lat="44.84930744393079" lon="9.540713034611958"><ele>191.5</ele><time>2026-04-30T15:14:10.996Z</time></trkpt><trkpt lat="44.84943327188961" lon="9.540726831584305"><ele>190.75</ele><time>2026-04-30T15:14:11.996Z</time></trkpt><trkpt lat="44.849553465277836" lon="9.54074541337131"><ele>190.0</ele><time>2026-04-30T15:14:12.996Z</time></trkpt><trkpt lat="44.84968708801122" lon="9.540761597416774"><ele>190.0</ele><time>2026-04-30T15:14:13.996Z</time></trkpt><trkpt lat="44.84982270411256" lon="9.540778022826043"><ele>190.0</ele><time>2026-04-30T15:14:14.996Z</time></trkpt><trkpt lat="44.84996738295334" lon="9.540795160937083"><ele>190.0</ele><time>2026-04-30T15:14:15.996Z</time></trkpt><trkpt lat="44.85010584157195" lon="9.540811308621267"><ele>190.0</ele><time>2026-04-30T15:14:16.996Z</time></trkpt><trkpt lat="44.85023418631767" lon="9.540826276863445"><ele>190.5</ele><time>2026-04-30T15:14:17.996Z</time></trkpt><trkpt lat="44.850361692660506" lon="9.540841149255133"><ele>191.0</ele><time>2026-04-30T15:14:18.996Z</time></trkpt><trkpt lat="44.850492733727094" lon="9.540856431899547"><ele>191.5</ele><time>2026-04-30T15:14:19.996Z</time></trkpt><trkpt lat="44.85061157053584" lon="9.540870291252883"><ele>192.0</ele><time>2026-04-30T15:14:20.996Z</time></trkpt><trkpt lat="44.8507308670841" lon="9.540884204205982"><ele>192.0</ele><time>2026-04-30T15:14:21.996Z</time></trkpt><trkpt lat="44.850849110432044" lon="9.540898103994854"><ele>192.0</ele><time>2026-04-30T15:14:22.996Z</time></trkpt><trkpt lat="44.850964811088474" lon="9.540898376334736"><ele>192.0</ele><time>2026-04-30T15:14:23.996Z</time></trkpt><trkpt lat="44.85108547937482" lon="9.540933579071933"><ele>192.0</ele><time>2026-04-30T15:14:24.996Z</time></trkpt><trkpt lat="44.85120430959049" lon="9.54097378455072"><ele>191.5</ele><time>2026-04-30T15:14:25.996Z</time></trkpt><trkpt lat="44.85132516145593" lon="9.54102020387712"><ele>191.0</ele><time>2026-04-30T15:14:26.996Z</time></trkpt><trkpt lat="44.85144364375969" lon="9.541098971484967"><ele>190.5</ele><time>2026-04-30T15:14:27.996Z</time></trkpt><trkpt lat="44.85157680053554" lon="9.54117717035959"><ele>190.0</ele><time>2026-04-30T15:14:28.996Z</time></trkpt><trkpt lat="44.85171795640207" lon="9.541250446810585"><ele>191.0</ele><time>2026-04-30T15:14:29.996Z</time></trkpt><trkpt lat="44.85185999028929" lon="9.54135143533616"><ele>192.0</ele><time>2026-04-30T15:14:30.996Z</time></trkpt><trkpt lat="44.85200598211436" lon="9.54144201108982"><ele>193.0</ele><time>2026-04-30T15:14:31.996Z</time></trkpt><trkpt lat="44.85216178183742" lon="9.541540386482069"><ele>193.0</ele><time>2026-04-30T15:14:32.996Z</time></trkpt><trkpt lat="44.852299035434704" lon="9.541628114756797"><ele>193.0</ele><time>2026-04-30T15:14:33.996Z</time></trkpt><trkpt lat="44.85243981902878" lon="9.541720855882625"><ele>193.0</ele><time>2026-04-30T15:14:34.996Z</time></trkpt><trkpt lat="44.85258904603173" lon="9.54180911655437"><ele>192.33333333333331</ele><time>2026-04-30T15:14:35.996Z</time></trkpt><trkpt lat="44.85272918048092" lon="9.541911419566869"><ele>191.66666666666666</ele><time>2026-04-30T15:14:36.996Z</time></trkpt><trkpt lat="44.85287492577851" lon="9.542026804045125"><ele>191.0</ele><time>2026-04-30T15:14:37.996Z</time></trkpt><trkpt lat="44.85301447216363" lon="9.542125865506996"><ele>191.0</ele><time>2026-04-30T15:14:38.996Z</time></trkpt><trkpt lat="44.853160833009426" lon="9.542214161805402"><ele>191.0</ele><time>2026-04-30T15:14:39.996Z</time></trkpt><trkpt lat="44.85328167109918" lon="9.542330912350078"><ele>191.0</ele><time>2026-04-30T15:14:40.996Z</time></trkpt><trkpt lat="44.853387728942614" lon="9.54245548394821"><ele>191.0</ele><time>2026-04-30T15:14:41.996Z</time></trkpt><trkpt lat="44.85348207347143" lon="9.542583317570132"><ele>187.33333333333331</ele><time>2026-04-30T15:14:42.996Z</time></trkpt><trkpt lat="44.853561418874115" lon="9.542760384914267"><ele>183.66666666666666</ele><time>2026-04-30T15:14:43.996Z</time></trkpt><trkpt lat="44.85363465197135" lon="9.5429517450106"><ele>180.0</ele><time>2026-04-30T15:14:44.996Z</time></trkpt><trkpt lat="44.853681799711126" lon="9.543149664027318"><ele>180.0</ele><time>2026-04-30T15:14:45.996Z</time></trkpt><trkpt lat="44.85372399013266" lon="9.543365517039131"><ele>180.0</ele><time>2026-04-30T15:14:46.996Z</time></trkpt><trkpt lat="44.853757266035366" lon="9.543583087520702"><ele>180.0</ele><time>2026-04-30T15:14:47.996Z</time></trkpt><trkpt lat="44.85376907594935" lon="9.543796245445433"><ele>180.66666666666666</ele><time>2026-04-30T15:14:48.996Z</time></trkpt><trkpt lat="44.853793588443395" lon="9.54400458661832"><ele>181.33333333333331</ele><time>2026-04-30T15:14:49.996Z</time></trkpt><trkpt lat="44.853814494029244" lon="9.544245048169275"><ele>182.0</ele><time>2026-04-30T15:14:50.996Z</time></trkpt><trkpt lat="44.85387117040435" lon="9.544437787700117"><ele>183.75</ele><time>2026-04-30T15:14:51.996Z</time></trkpt><trkpt lat="44.85392535013561" lon="9.544640769305492"><ele>185.5</ele><time>2026-04-30T15:14:52.996Z</time></trkpt><trkpt lat="44.85398791883724" lon="9.54483853122818"><ele>187.25</ele><time>2026-04-30T15:14:53.996Z</time></trkpt><trkpt lat="44.85408060299666" lon="9.544980613380758"><ele>189.0</ele><time>2026-04-30T15:14:54.996Z</time></trkpt><trkpt lat="44.85415181910308" lon="9.545144426670749"><ele>189.0</ele><time>2026-04-30T15:14:55.996Z</time></trkpt><trkpt lat="44.85423503901056" lon="9.545293451799363"><ele>189.0</ele><time>2026-04-30T15:14:56.996Z</time></trkpt><trkpt lat="44.85432855466471" lon="9.545444826455562"><ele>189.0</ele><time>2026-04-30T15:14:57.996Z</time></trkpt><trkpt lat="44.85443043458405" lon="9.545607027574988"><ele>189.0</ele><time>2026-04-30T15:14:58.996Z</time></trkpt><trkpt lat="44.85457169676147" lon="9.545730867837108"><ele>187.0</ele><time>2026-04-30T15:14:59.996Z</time></trkpt><trkpt lat="44.854706939622986" lon="9.545873845462477"><ele>185.0</ele><time>2026-04-30T15:15:00.996Z</time></trkpt><trkpt lat="44.85482239418637" lon="9.5460448176472"><ele>183.0</ele><time>2026-04-30T15:15:01.996Z</time></trkpt><trkpt lat="44.854955723286494" lon="9.546190995591754"><ele>183.0</ele><time>2026-04-30T15:15:02.996Z</time></trkpt><trkpt lat="44.85505533416544" lon="9.54638095606295"><ele>183.0</ele><time>2026-04-30T15:15:03.996Z</time></trkpt><trkpt lat="44.85516655393919" lon="9.546509351980548"><ele>183.0</ele><time>2026-04-30T15:15:04.996Z</time></trkpt><trkpt lat="44.855287150875306" lon="9.546656854492234"><ele>183.0</ele><time>2026-04-30T15:15:05.996Z</time></trkpt><trkpt lat="44.85541289036079" lon="9.546765250609475"><ele>183.0</ele><time>2026-04-30T15:15:06.996Z</time></trkpt><trkpt lat="44.85551890736431" lon="9.546902181391086"><ele>183.0</ele><time>2026-04-30T15:15:07.996Z</time></trkpt><trkpt lat="44.85560480879003" lon="9.547004303388821"><ele>183.0</ele><time>2026-04-30T15:15:08.996Z</time></trkpt><trkpt lat="44.855685083512775" lon="9.547122766955646"><ele>182.0</ele><time>2026-04-30T15:15:09.996Z</time></trkpt><trkpt lat="44.85577486561317" lon="9.547240306516901"><ele>181.0</ele><time>2026-04-30T15:15:10.996Z</time></trkpt><trkpt lat="44.855887780999275" lon="9.547396810830579"><ele>180.0</ele><time>2026-04-30T15:15:11.996Z</time></trkpt><trkpt lat="44.85601328471771" lon="9.54755555822125"><ele>179.0</ele><time>2026-04-30T15:15:12.996Z</time></trkpt><trkpt lat="44.85615016132685" lon="9.547723799152157"><ele>179.0</ele><time>2026-04-30T15:15:13.996Z</time></trkpt><trkpt lat="44.85630506302633" lon="9.54784122522942"><ele>179.0</ele><time>2026-04-30T15:15:14.996Z</time></trkpt><trkpt lat="44.85646569794005" lon="9.547941058845483"><ele>179.0</ele><time>2026-04-30T15:15:15.996Z</time></trkpt><trkpt lat="44.856629747420634" lon="9.548026340645407"><ele>181.0</ele><time>2026-04-30T15:15:16.996Z</time></trkpt><trkpt lat="44.85680428476803" lon="9.548050378844264"><ele>183.0</ele><time>2026-04-30T15:15:17.996Z</time></trkpt><trkpt lat="44.85696022613875" lon="9.548098335573293"><ele>185.0</ele><time>2026-04-30T15:15:18.996Z</time></trkpt><trkpt lat="44.85713930122891" lon="9.548201272812927"><ele>185.0</ele><time>2026-04-30T15:15:19.996Z</time></trkpt><trkpt lat="44.8572980227879" lon="9.548237364791405"><ele>185.0</ele><time>2026-04-30T15:15:20.996Z</time></trkpt><trkpt lat="44.85742706960177" lon="9.548348631394761"><ele>185.0</ele><time>2026-04-30T15:15:21.996Z</time></trkpt><trkpt lat="44.857570974049835" lon="9.548402705732087"><ele>182.75</ele><time>2026-04-30T15:15:22.995Z</time></trkpt><trkpt lat="44.8577024548847" lon="9.548476571110116"><ele>180.5</ele><time>2026-04-30T15:15:23.995Z</time></trkpt><trkpt lat="44.85783373613048" lon="9.548541005921592"><ele>178.25</ele><time>2026-04-30T15:15:24.995Z</time></trkpt><trkpt lat="44.8579535115421" lon="9.548607053701206"><ele>176.0</ele><time>2026-04-30T15:15:25.995Z</time></trkpt><trkpt lat="44.8580715811622" lon="9.548692140487146"><ele>175.0</ele><time>2026-04-30T15:15:26.995Z</time></trkpt><trkpt lat="44.85818070782834" lon="9.548801942080893"><ele>174.0</ele><time>2026-04-30T15:15:27.995Z</time></trkpt><trkpt lat="44.85829345496985" lon="9.548932416969452"><ele>173.0</ele><time>2026-04-30T15:15:29.001Z</time></trkpt><trkpt lat="44.85841576253883" lon="9.549075482751526"><ele>172.0</ele><time>2026-04-30T15:15:30.001Z</time></trkpt><trkpt lat="44.85858867976911" lon="9.549248503702943"><ele>172.0</ele><time>2026-04-30T15:15:31.001Z</time></trkpt><trkpt lat="44.858789546629346" lon="9.549441885144374"><ele>172.0</ele><time>2026-04-30T15:15:32.001Z</time></trkpt><trkpt lat="44.85900418981269" lon="9.549626338100152"><ele>173.0</ele><time>2026-04-30T15:15:33.001Z</time></trkpt><trkpt lat="44.85919719181915" lon="9.549861381234427"><ele>174.0</ele><time>2026-04-30T15:15:34Z</time></trkpt><trkpt lat="44.859397460640416" lon="9.550051086002892"><ele>174.0</ele><time>2026-04-30T15:15:35Z</time></trkpt><trkpt lat="44.85958225275869" lon="9.5502453638012"><ele>174.0</ele><time>2026-04-30T15:15:36Z</time></trkpt><trkpt lat="44.8597545644864" lon="9.55046528984511"><ele>184.0</ele><time>2026-04-30T15:15:37Z</time></trkpt><trkpt lat="44.85993808345155" lon="9.550674906447352"><ele>194.0</ele><time>2026-04-30T15:15:38Z</time></trkpt><trkpt lat="44.86010456377257" lon="9.550904822940664"><ele>191.66666666666669</ele><time>2026-04-30T15:15:39Z</time></trkpt><trkpt lat="44.86025387010818" lon="9.55111674778539"><ele>189.33333333333334</ele><time>2026-04-30T15:15:40Z</time></trkpt><trkpt lat="44.860405306398945" lon="9.55132123895757"><ele>187.0</ele><time>2026-04-30T15:15:41Z</time></trkpt><trkpt lat="44.86057727507877" lon="9.551542360417141"><ele>187.0</ele><time>2026-04-30T15:15:42Z</time></trkpt><trkpt lat="44.860750049968665" lon="9.551679900881517"><ele>187.0</ele><time>2026-04-30T15:15:43Z</time></trkpt><trkpt lat="44.86091154828398" lon="9.551856790641173"><ele>187.0</ele><time>2026-04-30T15:15:44Z</time></trkpt><trkpt lat="44.86105214453892" lon="9.551941092714102"><ele>186.33333333333334</ele><time>2026-04-30T15:15:45Z</time></trkpt><trkpt lat="44.86116232603095" lon="9.552092259131735"><ele>185.66666666666666</ele><time>2026-04-30T15:15:46Z</time></trkpt><trkpt lat="44.86127893606145" lon="9.552310516472478"><ele>185.0</ele><time>2026-04-30T15:15:47Z</time></trkpt><trkpt lat="44.86138142234582" lon="9.552531886922596"><ele>185.0</ele><time>2026-04-30T15:15:48Z</time></trkpt><trkpt lat="44.861499514904324" lon="9.552765967752446"><ele>185.0</ele><time>2026-04-30T15:15:49Z</time></trkpt><trkpt lat="44.8615961490404" lon="9.552999611777944"><ele>185.0</ele><time>2026-04-30T15:15:50Z</time></trkpt><trkpt lat="44.861691963729506" lon="9.553202175089995"><ele>183.33333333333331</ele><time>2026-04-30T15:15:51Z</time></trkpt><trkpt lat="44.861790483925624" lon="9.553394591823459"><ele>181.66666666666666</ele><time>2026-04-30T15:15:52Z</time></trkpt><trkpt lat="44.861930346992956" lon="9.553508923815343"><ele>180.0</ele><time>2026-04-30T15:15:53Z</time></trkpt><trkpt lat="44.86208339453843" lon="9.553606043357945"><ele>183.66666666666666</ele><time>2026-04-30T15:15:54Z</time></trkpt><trkpt lat="44.862233738608126" lon="9.553714318744387"><ele>187.33333333333331</ele><time>2026-04-30T15:15:55Z</time></trkpt><trkpt lat="44.86236323640121" lon="9.553817339922434"><ele>191.0</ele><time>2026-04-30T15:15:56Z</time></trkpt><trkpt lat="44.86250823906297" lon="9.553944121476956"><ele>190.0</ele><time>2026-04-30T15:15:57Z</time></trkpt><trkpt lat="44.862624317141325" lon="9.55411126240217"><ele>189.0</ele><time>2026-04-30T15:15:58Z</time></trkpt><trkpt lat="44.86272992424954" lon="9.554367227135725"><ele>188.0</ele><time>2026-04-30T15:15:59Z</time></trkpt><trkpt lat="44.862836671205145" lon="9.554590249475066"><ele>188.0</ele><time>2026-04-30T15:16:00Z</time></trkpt><trkpt lat="44.86294639959218" lon="9.554814441877564"><ele>188.0</ele><time>2026-04-30T15:16:01Z</time></trkpt><trkpt lat="44.86308923814097" lon="9.554983297666537"><ele>188.0</ele><time>2026-04-30T15:16:02Z</time></trkpt><trkpt lat="44.863251116102994" lon="9.555124483078819"><ele>188.0</ele><time>2026-04-30T15:16:03Z</time></trkpt><trkpt lat="44.86342583508569" lon="9.555242917252995"><ele>188.0</ele><time>2026-04-30T15:16:04Z</time></trkpt><trkpt lat="44.86360180645131" lon="9.555273102961355"><ele>188.0</ele><time>2026-04-30T15:16:05Z</time></trkpt><trkpt lat="44.863787992222896" lon="9.555263965996184"><ele>188.0</ele><time>2026-04-30T15:16:06Z</time></trkpt><trkpt lat="44.86396473266488" lon="9.55520218035177"><ele>188.0</ele><time>2026-04-30T15:16:07Z</time></trkpt><trkpt lat="44.864151193034715" lon="9.555147573657488"><ele>188.0</ele><time>2026-04-30T15:16:08Z</time></trkpt><trkpt lat="44.864332777551716" lon="9.555105570792765"><ele>189.66666666666666</ele><time>2026-04-30T15:16:09Z</time></trkpt><trkpt lat="44.86452847899172" lon="9.555043381577637"><ele>191.33333333333331</ele><time>2026-04-30T15:16:10Z</time></trkpt><trkpt lat="44.86472608298045" lon="9.554984116255993"><ele>193.0</ele><time>2026-04-30T15:16:11Z</time></trkpt><trkpt lat="44.86491475391689" lon="9.554927530083553"><ele>193.66666666666666</ele><time>2026-04-30T15:16:12Z</time></trkpt><trkpt lat="44.86511377999137" lon="9.554868132007222"><ele>194.33333333333331</ele><time>2026-04-30T15:16:13Z</time></trkpt><trkpt lat="44.86531118453952" lon="9.554799601299036"><ele>195.0</ele><time>2026-04-30T15:16:14Z</time></trkpt><trkpt lat="44.865496307710174" lon="9.554761842420016"><ele>195.0</ele><time>2026-04-30T15:16:15Z</time></trkpt><trkpt lat="44.86568085024542" lon="9.554717234058252"><ele>195.0</ele><time>2026-04-30T15:16:16Z</time></trkpt><trkpt lat="44.8658425620458" lon="9.55468716148121"><ele>195.0</ele><time>2026-04-30T15:16:17Z</time></trkpt><trkpt lat="44.86597664032431" lon="9.554695619247433"><ele>192.75</ele><time>2026-04-30T15:16:18Z</time></trkpt><trkpt lat="44.86608498549612" lon="9.55474244605704"><ele>190.5</ele><time>2026-04-30T15:16:19Z</time></trkpt><trkpt lat="44.86619502874097" lon="9.554826225369084"><ele>188.25</ele><time>2026-04-30T15:16:20Z</time></trkpt><trkpt lat="44.866307861026655" lon="9.554967852905223"><ele>186.0</ele><time>2026-04-30T15:16:21Z</time></trkpt><trkpt lat="44.86644363426696" lon="9.555150602989965"><ele>186.0</ele><time>2026-04-30T15:16:22Z</time></trkpt><trkpt lat="44.86658671782465" lon="9.555343919492042"><ele>186.0</ele><time>2026-04-30T15:16:23Z</time></trkpt><trkpt lat="44.866724467600726" lon="9.55553002947782"><ele>186.0</ele><time>2026-04-30T15:16:24Z</time></trkpt><trkpt lat="44.86684942684928" lon="9.555694254401502"><ele>186.0</ele><time>2026-04-30T15:16:25Z</time></trkpt><trkpt lat="44.866988065532745" lon="9.555861729098337"><ele>186.0</ele><time>2026-04-30T15:16:26Z</time></trkpt><trkpt lat="44.867136017665366" lon="9.556023438832801"><ele>186.0</ele><time>2026-04-30T15:16:27Z</time></trkpt><trkpt lat="44.867337444826255" lon="9.556089713871554"><ele>186.0</ele><time>2026-04-30T15:16:28Z</time></trkpt><trkpt lat="44.86753594059281" lon="9.556159951969864"><ele>186.0</ele><time>2026-04-30T15:16:29Z</time></trkpt><trkpt lat="44.86772389705352" lon="9.556208017543035"><ele>186.0</ele><time>2026-04-30T15:16:30Z</time></trkpt><trkpt lat="44.86789808228363" lon="9.556256167763761"><ele>186.5</ele><time>2026-04-30T15:16:31Z</time></trkpt><trkpt lat="44.86804864441004" lon="9.55632511555755"><ele>187.0</ele><time>2026-04-30T15:16:32Z</time></trkpt><trkpt lat="44.86817188542728" lon="9.556420118576195"><ele>187.5</ele><time>2026-04-30T15:16:33Z</time></trkpt><trkpt lat="44.86827807826289" lon="9.5565500122627"><ele>188.0</ele><time>2026-04-30T15:16:34Z</time></trkpt><trkpt lat="44.86837597725485" lon="9.556737190001243"><ele>187.0</ele><time>2026-04-30T15:16:35Z</time></trkpt><trkpt lat="44.868467983859006" lon="9.556943167878789"><ele>186.0</ele><time>2026-04-30T15:16:36Z</time></trkpt><trkpt lat="44.868572032743494" lon="9.557192642969108"><ele>185.0</ele><time>2026-04-30T15:16:37Z</time></trkpt><trkpt lat="44.86867873360444" lon="9.557432248544739"><ele>185.0</ele><time>2026-04-30T15:16:38Z</time></trkpt><trkpt lat="44.868783523680854" lon="9.557637743596219"><ele>185.0</ele><time>2026-04-30T15:16:39Z</time></trkpt><trkpt lat="44.86890130113107" lon="9.55780718206196"><ele>185.0</ele><time>2026-04-30T15:16:40Z</time></trkpt><trkpt lat="44.869044737272795" lon="9.557892442727885"><ele>188.66666666666666</ele><time>2026-04-30T15:16:41Z</time></trkpt><trkpt lat="44.86920825166283" lon="9.558011943908353"><ele>192.33333333333331</ele><time>2026-04-30T15:16:42Z</time></trkpt><trkpt lat="44.869392819122154" lon="9.55801775304186"><ele>196.0</ele><time>2026-04-30T15:16:43Z</time></trkpt><trkpt lat="44.869577037432116" lon="9.557994417613465"><ele>196.0</ele><time>2026-04-30T15:16:44Z</time></trkpt><trkpt lat="44.869771976731144" lon="9.557962225360638"><ele>196.0</ele><time>2026-04-30T15:16:45Z</time></trkpt><trkpt lat="44.869972327058754" lon="9.55792288961111"><ele>196.0</ele><time>2026-04-30T15:16:46Z</time></trkpt><trkpt lat="44.87018525714838" lon="9.557863343514411"><ele>192.66666666666666</ele><time>2026-04-30T15:16:47Z</time></trkpt><trkpt lat="44.870377432553695" lon="9.557807957043844"><ele>189.33333333333331</ele><time>2026-04-30T15:16:48Z</time></trkpt><trkpt lat="44.87056548326644" lon="9.557753528259155"><ele>186.0</ele><time>2026-04-30T15:16:48.999Z</time></trkpt><trkpt lat="44.870745557170984" lon="9.557701166928481"><ele>186.0</ele><time>2026-04-30T15:16:49.999Z</time></trkpt><trkpt lat="44.87092442151152" lon="9.557649157499249"><ele>186.0</ele><time>2026-04-30T15:16:50.999Z</time></trkpt><trkpt lat="44.87108330085942" lon="9.557625177503796"><ele>186.0</ele><time>2026-04-30T15:16:51.999Z</time></trkpt><trkpt lat="44.871223317789685" lon="9.557623626638483"><ele>186.0</ele><time>2026-04-30T15:16:52.999Z</time></trkpt><trkpt lat="44.87134275079818" lon="9.557654565921448"><ele>186.0</ele><time>2026-04-30T15:16:53.999Z</time></trkpt><trkpt lat="44.87145567837153" lon="9.55772443337933"><ele>186.0</ele><time>2026-04-30T15:16:54.999Z</time></trkpt><trkpt lat="44.87155000696115" lon="9.5577978676934"><ele>186.0</ele><time>2026-04-30T15:16:55.999Z</time></trkpt><trkpt lat="44.87165729448073" lon="9.55790645530573"><ele>182.0</ele><time>2026-04-30T15:16:56.999Z</time></trkpt><trkpt lat="44.87177748399976" lon="9.558072856180788"><ele>178.0</ele><time>2026-04-30T15:16:57.999Z</time></trkpt><trkpt lat="44.87187941417792" lon="9.55827258851744"><ele>174.0</ele><time>2026-04-30T15:16:58.999Z</time></trkpt><trkpt lat="44.87197814826631" lon="9.558525497466125"><ele>175.33333333333334</ele><time>2026-04-30T15:16:59.999Z</time></trkpt><trkpt lat="44.87205666408362" lon="9.558804798547078"><ele>176.66666666666669</ele><time>2026-04-30T15:17:00.999Z</time></trkpt><trkpt lat="44.87212463848827" lon="9.559054111030068"><ele>178.0</ele><time>2026-04-30T15:17:01.999Z</time></trkpt><trkpt lat="44.872232310379815" lon="9.559242486644228"><ele>178.0</ele><time>2026-04-30T15:17:02.999Z</time></trkpt><trkpt lat="44.87234969033829" lon="9.559422717317073"><ele>178.0</ele><time>2026-04-30T15:17:03.999Z</time></trkpt><trkpt lat="44.872527123871265" lon="9.559502872733223"><ele>178.0</ele><time>2026-04-30T15:17:04.999Z</time></trkpt><trkpt lat="44.87269564807291" lon="9.5596205617228"><ele>179.0</ele><time>2026-04-30T15:17:05.999Z</time></trkpt><trkpt lat="44.87286881962193" lon="9.559746431553593"><ele>180.0</ele><time>2026-04-30T15:17:06.999Z</time></trkpt><trkpt lat="44.873043341428485" lon="9.559873282938499"><ele>181.0</ele><time>2026-04-30T15:17:07.999Z</time></trkpt><trkpt lat="44.87322821533793" lon="9.560008765402198"><ele>181.0</ele><time>2026-04-30T15:17:08.999Z</time></trkpt><trkpt lat="44.873408458423505" lon="9.560141010876556"><ele>181.0</ele><time>2026-04-30T15:17:09.999Z</time></trkpt><trkpt lat="44.873591159647226" lon="9.560273822521038"><ele>181.0</ele><time>2026-04-30T15:17:10.999Z</time></trkpt><trkpt lat="44.87378962459688" lon="9.560392800833354"><ele>180.33333333333334</ele><time>2026-04-30T15:17:11.999Z</time></trkpt><trkpt lat="44.87397454412755" lon="9.560554576166144"><ele>179.66666666666666</ele><time>2026-04-30T15:17:12.999Z</time></trkpt><trkpt lat="44.87416662241921" lon="9.560690184231774"><ele>179.0</ele><time>2026-04-30T15:17:13.999Z</time></trkpt><trkpt lat="44.87433341081686" lon="9.560818255176107"><ele>178.33333333333331</ele><time>2026-04-30T15:17:14.999Z</time></trkpt><trkpt lat="44.87449363194956" lon="9.560940838909554"><ele>177.66666666666666</ele><time>2026-04-30T15:17:15.999Z</time></trkpt><trkpt lat="44.87464968901356" lon="9.561033504430869"><ele>177.0</ele><time>2026-04-30T15:17:16.999Z</time></trkpt><trkpt lat="44.874807257753154" lon="9.561122119838213"><ele>177.0</ele><time>2026-04-30T15:17:17.999Z</time></trkpt><trkpt lat="44.87497924920893" lon="9.561141416744455"><ele>177.0</ele><time>2026-04-30T15:17:18.999Z</time></trkpt><trkpt lat="44.87517497049674" lon="9.561073589687009"><ele>177.0</ele><time>2026-04-30T15:17:19.999Z</time></trkpt><trkpt lat="44.87535406515776" lon="9.561013104988046"><ele>176.66666666666666</ele><time>2026-04-30T15:17:20.999Z</time></trkpt><trkpt lat="44.875532329971826" lon="9.560986411488027"><ele>176.33333333333331</ele><time>2026-04-30T15:17:21.999Z</time></trkpt><trkpt lat="44.87568979918628" lon="9.560937522197232"><ele>176.0</ele><time>2026-04-30T15:17:22.999Z</time></trkpt><trkpt lat="44.8758606132817" lon="9.560917753346343"><ele>175.66666666666666</ele><time>2026-04-30T15:17:23.999Z</time></trkpt><trkpt lat="44.87603088906934" lon="9.560919007554634"><ele>175.33333333333334</ele><time>2026-04-30T15:17:24.999Z</time></trkpt><trkpt lat="44.87618774582192" lon="9.560949395257436"><ele>175.0</ele><time>2026-04-30T15:17:25.999Z</time></trkpt><trkpt lat="44.87634011279124" lon="9.561006583171862"><ele>175.0</ele><time>2026-04-30T15:17:26.999Z</time></trkpt><trkpt lat="44.876510129454644" lon="9.561092698992615"><ele>175.0</ele><time>2026-04-30T15:17:27.999Z</time></trkpt><trkpt lat="44.876665610513726" lon="9.56118830709557"><ele>175.0</ele><time>2026-04-30T15:17:28.999Z</time></trkpt><trkpt lat="44.87680942084451" lon="9.561306202640903"><ele>175.0</ele><time>2026-04-30T15:17:29.999Z</time></trkpt><trkpt lat="44.87695730118582" lon="9.561449445960653"><ele>175.0</ele><time>2026-04-30T15:17:30.999Z</time></trkpt><trkpt lat="44.87710213397207" lon="9.56159500113561"><ele>175.0</ele><time>2026-04-30T15:17:31.999Z</time></trkpt><trkpt lat="44.87724912059957" lon="9.561744937781796"><ele>175.0</ele><time>2026-04-30T15:17:32.999Z</time></trkpt><trkpt lat="44.87739339338899" lon="9.561894830488763"><ele>175.0</ele><time>2026-04-30T15:17:33.999Z</time></trkpt><trkpt lat="44.87753001981194" lon="9.56203677893007"><ele>175.0</ele><time>2026-04-30T15:17:34.999Z</time></trkpt><trkpt lat="44.877680501843855" lon="9.562193065498292"><ele>174.66666666666669</ele><time>2026-04-30T15:17:35.999Z</time></trkpt><trkpt lat="44.87781905383763" lon="9.562344383693961"><ele>174.33333333333334</ele><time>2026-04-30T15:17:36.999Z</time></trkpt><trkpt lat="44.877959630152205" lon="9.56249677261724"><ele>174.0</ele><time>2026-04-30T15:17:37.999Z</time></trkpt><trkpt lat="44.87808929085432" lon="9.562636364772914"><ele>174.0</ele><time>2026-04-30T15:17:38.999Z</time></trkpt><trkpt lat="44.87822570964526" lon="9.562783232879521"><ele>174.0</ele><time>2026-04-30T15:17:39.999Z</time></trkpt><trkpt lat="44.87837330593375" lon="9.562945480835824"><ele>174.0</ele><time>2026-04-30T15:17:40.999Z</time></trkpt><trkpt lat="44.87853241231484" lon="9.563105013022025"><ele>171.33333333333334</ele><time>2026-04-30T15:17:41.999Z</time></trkpt><trkpt lat="44.87867540478468" lon="9.563296213540863"><ele>168.66666666666669</ele><time>2026-04-30T15:17:42.999Z</time></trkpt><trkpt lat="44.878811351402184" lon="9.563491156098722"><ele>166.0</ele><time>2026-04-30T15:17:43.999Z</time></trkpt><trkpt lat="44.87894322645759" lon="9.563688422569008"><ele>163.66666666666669</ele><time>2026-04-30T15:17:44.999Z</time></trkpt><trkpt lat="44.87906884432244" lon="9.563869884169604"><ele>161.33333333333334</ele><time>2026-04-30T15:17:45.999Z</time></trkpt><trkpt lat="44.879210632773535" lon="9.564053997764075"><ele>159.0</ele><time>2026-04-30T15:17:46.999Z</time></trkpt><trkpt lat="44.87934079475842" lon="9.564250957098924"><ele>159.0</ele><time>2026-04-30T15:17:47.999Z</time></trkpt><trkpt lat="44.87946408992978" lon="9.56443722099966"><ele>159.0</ele><time>2026-04-30T15:17:48.999Z</time></trkpt><trkpt lat="44.87959099604333" lon="9.564644098764836"><ele>159.0</ele><time>2026-04-30T15:17:49.999Z</time></trkpt><trkpt lat="44.879727007707835" lon="9.564839253636457"><ele>160.0</ele><time>2026-04-30T15:17:50.999Z</time></trkpt><trkpt lat="44.87986710838673" lon="9.565001477774802"><ele>161.0</ele><time>2026-04-30T15:17:51.999Z</time></trkpt><trkpt lat="44.87998800491134" lon="9.565183958485123"><ele>162.0</ele><time>2026-04-30T15:17:52.999Z</time></trkpt><trkpt lat="44.88011345301354" lon="9.565351670459847"><ele>164.33333333333334</ele><time>2026-04-30T15:17:53.999Z</time></trkpt><trkpt lat="44.88023313352176" lon="9.565551276687032"><ele>166.66666666666669</ele><time>2026-04-30T15:17:54.999Z</time></trkpt><trkpt lat="44.880363999091635" lon="9.565758692457237"><ele>169.0</ele><time>2026-04-30T15:17:55.999Z</time></trkpt><trkpt lat="44.880508130140235" lon="9.565939463948176"><ele>169.0</ele><time>2026-04-30T15:17:56.999Z</time></trkpt><trkpt lat="44.880660898168294" lon="9.566108902838296"><ele>169.0</ele><time>2026-04-30T15:17:57.999Z</time></trkpt><trkpt lat="44.88079579396941" lon="9.566293925755991"><ele>169.0</ele><time>2026-04-30T15:17:58.999Z</time></trkpt><trkpt lat="44.880939096602575" lon="9.566445340048563"><ele>169.0</ele><time>2026-04-30T15:17:59.999Z</time></trkpt><trkpt lat="44.88107072874384" lon="9.566580051388994"><ele>169.0</ele><time>2026-04-30T15:18:00.999Z</time></trkpt><trkpt lat="44.88121144640973" lon="9.566767116071304"><ele>169.0</ele><time>2026-04-30T15:18:01.999Z</time></trkpt><trkpt lat="44.881321997343015" lon="9.566950164611825"><ele>171.0</ele><time>2026-04-30T15:18:02.999Z</time></trkpt><trkpt lat="44.88144912327013" lon="9.567126906241649"><ele>173.0</ele><time>2026-04-30T15:18:03.998Z</time></trkpt><trkpt lat="44.88158907172452" lon="9.56727583873699"><ele>175.0</ele><time>2026-04-30T15:18:04.998Z</time></trkpt><trkpt lat="44.881691134334986" lon="9.567447831118479"><ele>172.33333333333334</ele><time>2026-04-30T15:18:05.998Z</time></trkpt><trkpt lat="44.881794236309794" lon="9.56767104496901"><ele>169.66666666666666</ele><time>2026-04-30T15:18:06.998Z</time></trkpt><trkpt lat="44.881894930208" lon="9.56791638979097"><ele>167.0</ele><time>2026-04-30T15:18:07.998Z</time></trkpt><trkpt lat="44.88194947754789" lon="9.568165241374809"><ele>167.0</ele><time>2026-04-30T15:18:08.998Z</time></trkpt><trkpt lat="44.88202695393681" lon="9.56839804801339"><ele>167.0</ele><time>2026-04-30T15:18:09.998Z</time></trkpt><trkpt lat="44.88210326551357" lon="9.568630601663624"><ele>167.0</ele><time>2026-04-30T15:18:10.998Z</time></trkpt><trkpt lat="44.88217799265444" lon="9.568842717189689"><ele>168.33333333333331</ele><time>2026-04-30T15:18:11.998Z</time></trkpt><trkpt lat="44.88225858545842" lon="9.569077752386265"><ele>169.66666666666666</ele><time>2026-04-30T15:18:12.998Z</time></trkpt><trkpt lat="44.882351898542865" lon="9.569287050300156"><ele>171.0</ele><time>2026-04-30T15:18:13.998Z</time></trkpt><trkpt lat="44.88242917692154" lon="9.569479047018218"><ele>172.66666666666666</ele><time>2026-04-30T15:18:14.998Z</time></trkpt><trkpt lat="44.882513321853274" lon="9.569696441219246"><ele>174.33333333333331</ele><time>2026-04-30T15:18:15.998Z</time></trkpt><trkpt lat="44.88257799060747" lon="9.569936282265797"><ele>176.0</ele><time>2026-04-30T15:18:16.998Z</time></trkpt><trkpt lat="44.88265389663579" lon="9.57014128546773"><ele>172.33333333333331</ele><time>2026-04-30T15:18:17.998Z</time></trkpt><trkpt lat="44.88272232461715" lon="9.570366011469678"><ele>168.66666666666666</ele><time>2026-04-30T15:18:18.998Z</time></trkpt><trkpt lat="44.88278870686192" lon="9.570593590380156"><ele>165.0</ele><time>2026-04-30T15:18:19.998Z</time></trkpt><trkpt lat="44.88289122349232" lon="9.5707835520751"><ele>165.0</ele><time>2026-04-30T15:18:20.998Z</time></trkpt><trkpt lat="44.88296019590071" lon="9.570995876405865"><ele>165.0</ele><time>2026-04-30T15:18:21.998Z</time></trkpt><trkpt lat="44.8830302563305" lon="9.571196000466163"><ele>165.0</ele><time>2026-04-30T15:18:22.998Z</time></trkpt><trkpt lat="44.88312398483158" lon="9.571442381379534"><ele>166.33333333333334</ele><time>2026-04-30T15:18:23.998Z</time></trkpt><trkpt lat="44.8831996322998" lon="9.571649169303816"><ele>167.66666666666669</ele><time>2026-04-30T15:18:24.998Z</time></trkpt><trkpt lat="44.88325761249704" lon="9.571879969602861"><ele>169.0</ele><time>2026-04-30T15:18:25.998Z</time></trkpt><trkpt lat="44.88333904256907" lon="9.57212261309871"><ele>167.66666666666669</ele><time>2026-04-30T15:18:26.998Z</time></trkpt><trkpt lat="44.88342604309223" lon="9.572341854857958"><ele>166.33333333333334</ele><time>2026-04-30T15:18:27.998Z</time></trkpt><trkpt lat="44.88350461219827" lon="9.572577865540314"><ele>165.0</ele><time>2026-04-30T15:18:28.998Z</time></trkpt><trkpt lat="44.88359150590839" lon="9.572770967627559"><ele>166.0</ele><time>2026-04-30T15:18:29.998Z</time></trkpt><trkpt lat="44.883665668164056" lon="9.572983784824714"><ele>167.0</ele><time>2026-04-30T15:18:30.998Z</time></trkpt><trkpt lat="44.88372434023871" lon="9.573189775634178"><ele>168.0</ele><time>2026-04-30T15:18:31.998Z</time></trkpt><trkpt lat="44.88380651256902" lon="9.57332804799489"><ele>168.0</ele><time>2026-04-30T15:18:32.998Z</time></trkpt><trkpt lat="44.88384353574513" lon="9.573502459209427"><ele>168.0</ele><time>2026-04-30T15:18:33.998Z</time></trkpt><trkpt lat="44.88386759313266" lon="9.573680533659603"><ele>168.0</ele><time>2026-04-30T15:18:34.998Z</time></trkpt><trkpt lat="44.88388845788465" lon="9.573899829970854"><ele>168.0</ele><time>2026-04-30T15:18:35.998Z</time></trkpt><trkpt lat="44.88392237991186" lon="9.574111119016354"><ele>168.0</ele><time>2026-04-30T15:18:36.998Z</time></trkpt><trkpt lat="44.88389234523619" lon="9.574322088699036"><ele>168.0</ele><time>2026-04-30T15:18:37.998Z</time></trkpt><trkpt lat="44.88384177980632" lon="9.574536872327549"><ele>168.0</ele><time>2026-04-30T15:18:38.998Z</time></trkpt><trkpt lat="44.88380972978715" lon="9.574777674071797"><ele>167.66666666666666</ele><time>2026-04-30T15:18:39.998Z</time></trkpt><trkpt lat="44.883806965553866" lon="9.575016309566077"><ele>167.33333333333331</ele><time>2026-04-30T15:18:40.998Z</time></trkpt><trkpt lat="44.883781760628494" lon="9.575246854554727"><ele>167.0</ele><time>2026-04-30T15:18:41.998Z</time></trkpt><trkpt lat="44.88377049081819" lon="9.575443982092985"><ele>168.5</ele><time>2026-04-30T15:18:42.998Z</time></trkpt><trkpt lat="44.883806023712346" lon="9.575660895162487"><ele>170.0</ele><time>2026-04-30T15:18:43.998Z</time></trkpt><trkpt lat="44.88387708743555" lon="9.575855736260879"><ele>171.5</ele><time>2026-04-30T15:18:44.998Z</time></trkpt><trkpt lat="44.88397084275968" lon="9.575965659969922"><ele>173.0</ele><time>2026-04-30T15:18:45.998Z</time></trkpt><trkpt lat="44.88411547974854" lon="9.576020132331559"><ele>173.0</ele><time>2026-04-30T15:18:46.998Z</time></trkpt><trkpt lat="44.88426221674087" lon="9.576088832771266"><ele>173.0</ele><time>2026-04-30T15:18:47.998Z</time></trkpt><trkpt lat="44.88439597846572" lon="9.576208256018907"><ele>173.0</ele><time>2026-04-30T15:18:48.998Z</time></trkpt><trkpt lat="44.88450279575563" lon="9.576307958813045"><ele>173.0</ele><time>2026-04-30T15:18:49.998Z</time></trkpt><trkpt lat="44.884602691071734" lon="9.576465878052458"><ele>172.0</ele><time>2026-04-30T15:18:50.998Z</time></trkpt><trkpt lat="44.88464524266041" lon="9.576652598505014"><ele>171.0</ele><time>2026-04-30T15:18:51.998Z</time></trkpt><trkpt lat="44.88465845336383" lon="9.5768955920411"><ele>170.0</ele><time>2026-04-30T15:18:52.998Z</time></trkpt><trkpt lat="44.88463346362608" lon="9.577158477948311"><ele>170.0</ele><time>2026-04-30T15:18:53.998Z</time></trkpt><trkpt lat="44.88459950685443" lon="9.577395645558752"><ele>170.0</ele><time>2026-04-30T15:18:54.998Z</time></trkpt><trkpt lat="44.88460386631795" lon="9.5776869890444"><ele>170.0</ele><time>2026-04-30T15:18:55.998Z</time></trkpt><trkpt lat="44.88462767659269" lon="9.577938732689693"><ele>172.33333333333331</ele><time>2026-04-30T15:18:56.998Z</time></trkpt><trkpt lat="44.88464701977717" lon="9.578174786394845"><ele>174.66666666666666</ele><time>2026-04-30T15:18:57.998Z</time></trkpt><trkpt lat="44.884698182224426" lon="9.57842507685553"><ele>177.0</ele><time>2026-04-30T15:18:58.998Z</time></trkpt><trkpt lat="44.88475326992302" lon="9.578674135572246"><ele>177.66666666666666</ele><time>2026-04-30T15:18:59.998Z</time></trkpt><trkpt lat="44.884790042077704" lon="9.578926533269167"><ele>178.33333333333331</ele><time>2026-04-30T15:19:00.998Z</time></trkpt><trkpt lat="44.88483007747694" lon="9.57918137350593"><ele>179.0</ele><time>2026-04-30T15:19:01.998Z</time></trkpt><trkpt lat="44.88486711313436" lon="9.57944586651888"><ele>180.33333333333331</ele><time>2026-04-30T15:19:02.998Z</time></trkpt><trkpt lat="44.884912370667934" lon="9.579682881932193"><ele>181.66666666666666</ele><time>2026-04-30T15:19:03.998Z</time></trkpt><trkpt lat="44.88497313159252" lon="9.579920840410239"><ele>183.0</ele><time>2026-04-30T15:19:04.998Z</time></trkpt><trkpt lat="44.88505785048205" lon="9.580169263466601"><ele>179.33333333333334</ele><time>2026-04-30T15:19:05.998Z</time></trkpt><trkpt lat="44.885147842855254" lon="9.58038964904316"><ele>175.66666666666669</ele><time>2026-04-30T15:19:06.998Z</time></trkpt><trkpt lat="44.88524349829173" lon="9.580591562928504"><ele>172.0</ele><time>2026-04-30T15:19:07.998Z</time></trkpt><trkpt lat="44.885307194435725" lon="9.580808788634405"><ele>172.0</ele><time>2026-04-30T15:19:08.998Z</time></trkpt><trkpt lat="44.885374039430346" lon="9.581024776319683"><ele>172.0</ele><time>2026-04-30T15:19:09.998Z</time></trkpt><trkpt lat="44.885405901286845" lon="9.581260214236316"><ele>172.0</ele><time>2026-04-30T15:19:10.998Z</time></trkpt><trkpt lat="44.88541171648415" lon="9.581492980624441"><ele>172.66666666666669</ele><time>2026-04-30T15:19:11.998Z</time></trkpt><trkpt lat="44.88544585932599" lon="9.58174419622047"><ele>173.33333333333334</ele><time>2026-04-30T15:19:12.998Z</time></trkpt><trkpt lat="44.885517101651054" lon="9.581990576545527"><ele>174.0</ele><time>2026-04-30T15:19:13.998Z</time></trkpt><trkpt lat="44.88559481667308" lon="9.582204291543066"><ele>176.0</ele><time>2026-04-30T15:19:14.998Z</time></trkpt><trkpt lat="44.88567869533308" lon="9.582402208998571"><ele>178.0</ele><time>2026-04-30T15:19:15.998Z</time></trkpt><trkpt lat="44.88576407165259" lon="9.582601062280599"><ele>180.0</ele><time>2026-04-30T15:19:16.998Z</time></trkpt><trkpt lat="44.88584521920092" lon="9.582802408506515"><ele>179.66666666666666</ele><time>2026-04-30T15:19:17.998Z</time></trkpt><trkpt lat="44.885935459224086" lon="9.582992994752018"><ele>179.33333333333331</ele><time>2026-04-30T15:19:18.997Z</time></trkpt><trkpt lat="44.88604681065635" lon="9.583163842567087"><ele>179.0</ele><time>2026-04-30T15:19:19.997Z</time></trkpt><trkpt lat="44.886139194686706" lon="9.583342285297341"><ele>179.0</ele><time>2026-04-30T15:19:20.997Z</time></trkpt><trkpt lat="44.88626357349057" lon="9.583458525989647"><ele>179.0</ele><time>2026-04-30T15:19:21.997Z</time></trkpt><trkpt lat="44.8864246762123" lon="9.5834728897373"><ele>179.0</ele><time>2026-04-30T15:19:22.997Z</time></trkpt><trkpt lat="44.886588872336475" lon="9.58342437237056"><ele>179.0</ele><time>2026-04-30T15:19:23.997Z</time></trkpt><trkpt lat="44.88674382097398" lon="9.583397517442915"><ele>179.0</ele><time>2026-04-30T15:19:24.997Z</time></trkpt><trkpt lat="44.88688720012357" lon="9.583351395099573"><ele>179.0</ele><time>2026-04-30T15:19:25.997Z</time></trkpt><trkpt lat="44.887019915037115" lon="9.58337225524882"><ele>179.0</ele><time>2026-04-30T15:19:26.997Z</time></trkpt><trkpt lat="44.88714269429956" lon="9.583410783435578"><ele>179.25</ele><time>2026-04-30T15:19:27.997Z</time></trkpt><trkpt lat="44.88726093566785" lon="9.58349084378295"><ele>179.5</ele><time>2026-04-30T15:19:28.997Z</time></trkpt><trkpt lat="44.887379550711586" lon="9.583617039478293"><ele>179.75</ele><time>2026-04-30T15:19:29.997Z</time></trkpt><trkpt lat="44.887479906415074" lon="9.58380374899242"><ele>180.0</ele><time>2026-04-30T15:19:30.997Z</time></trkpt><trkpt lat="44.88757213705575" lon="9.583956063324633"><ele>181.0</ele><time>2026-04-30T15:19:31.997Z</time></trkpt><trkpt lat="44.887672656888554" lon="9.584080703426187"><ele>182.0</ele><time>2026-04-30T15:19:32.997Z</time></trkpt><trkpt lat="44.88779300698579" lon="9.584185447216692"><ele>183.0</ele><time>2026-04-30T15:19:33.997Z</time></trkpt><trkpt lat="44.88794548268336" lon="9.584188255247318"><ele>184.0</ele><time>2026-04-30T15:19:34.997Z</time></trkpt><trkpt lat="44.88811595451092" lon="9.584162353896238"><ele>184.0</ele><time>2026-04-30T15:19:35.997Z</time></trkpt><trkpt lat="44.88825485202216" lon="9.584138021029782"><ele>184.0</ele><time>2026-04-30T15:19:36.997Z</time></trkpt><trkpt lat="44.88835523007054" lon="9.584129063073311"><ele>184.0</ele><time>2026-04-30T15:19:37.997Z</time></trkpt><trkpt lat="44.88846017121382" lon="9.584129829175623"><ele>184.0</ele><time>2026-04-30T15:19:38.997Z</time></trkpt><trkpt lat="44.88857362023129" lon="9.58416132784099"><ele>183.25</ele><time>2026-04-30T15:19:39.997Z</time></trkpt><trkpt lat="44.88868310327483" lon="9.584237442289668"><ele>182.5</ele><time>2026-04-30T15:19:40.997Z</time></trkpt><trkpt lat="44.88877361132259" lon="9.584405602291973"><ele>181.75</ele><time>2026-04-30T15:19:41.997Z</time></trkpt><trkpt lat="44.88886778642362" lon="9.584548261037108"><ele>181.0</ele><time>2026-04-30T15:19:42.997Z</time></trkpt><trkpt lat="44.88894610923987" lon="9.58472313434363"><ele>181.0</ele><time>2026-04-30T15:19:43.997Z</time></trkpt><trkpt lat="44.88902603432992" lon="9.584896273768354"><ele>181.0</ele><time>2026-04-30T15:19:44.997Z</time></trkpt><trkpt lat="44.88911824991045" lon="9.585055062719581"><ele>181.0</ele><time>2026-04-30T15:19:45.997Z</time></trkpt><trkpt lat="44.88921726981179" lon="9.585189443784126"><ele>181.0</ele><time>2026-04-30T15:19:46.997Z</time></trkpt><trkpt lat="44.88934432482066" lon="9.585305063721005"><ele>185.0</ele><time>2026-04-30T15:19:47.997Z</time></trkpt><trkpt lat="44.88946768657777" lon="9.585422688180259"><ele>189.0</ele><time>2026-04-30T15:19:48.997Z</time></trkpt><trkpt lat="44.88960064601256" lon="9.585551949139024"><ele>193.0</ele><time>2026-04-30T15:19:49.997Z</time></trkpt><trkpt lat="44.88976588472039" lon="9.585613535712591"><ele>193.0</ele><time>2026-04-30T15:19:50.997Z</time></trkpt><trkpt lat="44.889956123611036" lon="9.585594904761827"><ele>193.0</ele><time>2026-04-30T15:19:51.997Z</time></trkpt><trkpt lat="44.89011430205904" lon="9.585548325309505"><ele>193.0</ele><time>2026-04-30T15:19:52.997Z</time></trkpt><trkpt lat="44.89026815984604" lon="9.585496014844582"><ele>192.5</ele><time>2026-04-30T15:19:53.997Z</time></trkpt><trkpt lat="44.890410384454434" lon="9.58545981265384"><ele>192.0</ele><time>2026-04-30T15:19:54.997Z</time></trkpt><trkpt lat="44.8905459913881" lon="9.58543946646648"><ele>191.5</ele><time>2026-04-30T15:19:55.997Z</time></trkpt><trkpt lat="44.890684098028935" lon="9.58542268429298"><ele>191.0</ele><time>2026-04-30T15:19:56.997Z</time></trkpt><trkpt lat="44.890841978803934" lon="9.585413602410794"><ele>191.25</ele><time>2026-04-30T15:19:57.997Z</time></trkpt><trkpt lat="44.89097260556655" lon="9.585408442366134"><ele>191.5</ele><time>2026-04-30T15:19:58.997Z</time></trkpt><trkpt lat="44.89111428630134" lon="9.585402845667145"><ele>191.75</ele><time>2026-04-30T15:19:59.997Z</time></trkpt><trkpt lat="44.89125406918944" lon="9.585397325902079"><ele>192.0</ele><time>2026-04-30T15:20:00.997Z</time></trkpt><trkpt lat="44.89138408687146" lon="9.585370985703348"><ele>192.0</ele><time>2026-04-30T15:20:01.997Z</time></trkpt><trkpt lat="44.891478465395885" lon="9.585388080680062"><ele>192.0</ele><time>2026-04-30T15:20:02.997Z</time></trkpt><trkpt lat="44.89159108396618" lon="9.585383335431846"><ele>192.0</ele><time>2026-04-30T15:20:03.997Z</time></trkpt><trkpt lat="44.89172003356997" lon="9.58537790204205"><ele>192.0</ele><time>2026-04-30T15:20:04.997Z</time></trkpt><trkpt lat="44.89184439581302" lon="9.585373752432467"><ele>192.0</ele><time>2026-04-30T15:20:05.997Z</time></trkpt><trkpt lat="44.89196131061999" lon="9.585369816890314"><ele>192.0</ele><time>2026-04-30T15:20:06.997Z</time></trkpt><trkpt lat="44.89208478349371" lon="9.585365660596489"><ele>192.0</ele><time>2026-04-30T15:20:07.997Z</time></trkpt><trkpt lat="44.89221654773084" lon="9.58536122519854"><ele>192.0</ele><time>2026-04-30T15:20:08.997Z</time></trkpt><trkpt lat="44.89236867480316" lon="9.585356421643105"><ele>192.0</ele><time>2026-04-30T15:20:09.997Z</time></trkpt><trkpt lat="44.89253618737537" lon="9.585351742871083"><ele>192.0</ele><time>2026-04-30T15:20:10.997Z</time></trkpt><trkpt lat="44.892727959071564" lon="9.585346386516292"><ele>192.0</ele><time>2026-04-30T15:20:11.997Z</time></trkpt><trkpt lat="44.89292688269953" lon="9.585340830402814"><ele>189.66666666666666</ele><time>2026-04-30T15:20:12.997Z</time></trkpt><trkpt lat="44.893129943686866" lon="9.585210139527037"><ele>187.33333333333331</ele><time>2026-04-30T15:20:13.997Z</time></trkpt><trkpt lat="44.89334132870394" lon="9.585185363214904"><ele>185.0</ele><time>2026-04-30T15:20:14.997Z</time></trkpt><trkpt lat="44.89355716846072" lon="9.585198978669478"><ele>184.0</ele><time>2026-04-30T15:20:15.997Z</time></trkpt><trkpt lat="44.89380495420837" lon="9.585170567772998"><ele>183.0</ele><time>2026-04-30T15:20:16.997Z</time></trkpt><trkpt lat="44.894032220697866" lon="9.585307045965738"><ele>183.0</ele><time>2026-04-30T15:20:17.997Z</time></trkpt><trkpt lat="44.894231106793725" lon="9.585301156142663"><ele>183.0</ele><time>2026-04-30T15:20:18.997Z</time></trkpt><trkpt lat="44.89444432016578" lon="9.585293658803806"><ele>183.0</ele><time>2026-04-30T15:20:19.997Z</time></trkpt><trkpt lat="44.89464468982488" lon="9.585283451506161"><ele>183.0</ele><time>2026-04-30T15:20:20.997Z</time></trkpt><trkpt lat="44.894839243916614" lon="9.585264719293292"><ele>183.0</ele><time>2026-04-30T15:20:21.997Z</time></trkpt><trkpt lat="44.895015199360685" lon="9.585226994067963"><ele>183.0</ele><time>2026-04-30T15:20:22.997Z</time></trkpt><trkpt lat="44.89520549905246" lon="9.585175988029295"><ele>182.0</ele><time>2026-04-30T15:20:23.997Z</time></trkpt><trkpt lat="44.89538566030468" lon="9.585126862594622"><ele>181.0</ele><time>2026-04-30T15:20:24.997Z</time></trkpt><trkpt lat="44.89556950541485" lon="9.585076732722463"><ele>180.0</ele><time>2026-04-30T15:20:25.997Z</time></trkpt><trkpt lat="44.89573947990567" lon="9.585046295166142"><ele>177.66666666666666</ele><time>2026-04-30T15:20:26.997Z</time></trkpt><trkpt lat="44.89592655076302" lon="9.585080612586463"><ele>175.33333333333331</ele><time>2026-04-30T15:20:27.997Z</time></trkpt><trkpt lat="44.8961469821652" lon="9.585138086294194"><ele>173.0</ele><time>2026-04-30T15:20:28.997Z</time></trkpt><trkpt lat="44.8963305133757" lon="9.585195430773963"><ele>173.0</ele><time>2026-04-30T15:20:29.997Z</time></trkpt><trkpt lat="44.89651078639873" lon="9.585269097926888"><ele>173.0</ele><time>2026-04-30T15:20:30.997Z</time></trkpt><trkpt lat="44.89673323481259" lon="9.585383582062525"><ele>173.0</ele><time>2026-04-30T15:20:31.997Z</time></trkpt><trkpt lat="44.896906753395434" lon="9.585539243127238"><ele>175.0</ele><time>2026-04-30T15:20:32.997Z</time></trkpt><trkpt lat="44.897089281440245" lon="9.585650262542035"><ele>177.0</ele><time>2026-04-30T15:20:33.996Z</time></trkpt><trkpt lat="44.8972667597148" lon="9.585742158314854"><ele>179.0</ele><time>2026-04-30T15:20:34.996Z</time></trkpt><trkpt lat="44.897426788806335" lon="9.585839251992693"><ele>179.0</ele><time>2026-04-30T15:20:35.996Z</time></trkpt><trkpt lat="44.89756298542423" lon="9.585935853905106"><ele>179.0</ele><time>2026-04-30T15:20:36.996Z</time></trkpt><trkpt lat="44.89772847485515" lon="9.585993796774778"><ele>179.0</ele><time>2026-04-30T15:20:37.996Z</time></trkpt><trkpt lat="44.89793746246504" lon="9.585972007938409"><ele>177.33333333333331</ele><time>2026-04-30T15:20:38.996Z</time></trkpt><trkpt lat="44.89812210982601" lon="9.585914573859492"><ele>175.66666666666666</ele><time>2026-04-30T15:20:39.996Z</time></trkpt><trkpt lat="44.89828059008138" lon="9.585782063633701"><ele>174.0</ele><time>2026-04-30T15:20:40.996Z</time></trkpt><trkpt lat="44.89843394372965" lon="9.5856740057956"><ele>172.33333333333334</ele><time>2026-04-30T15:20:41.996Z</time></trkpt><trkpt lat="44.89859461149882" lon="9.585609097684616"><ele>170.66666666666669</ele><time>2026-04-30T15:20:42.996Z</time></trkpt><trkpt lat="44.898763757544195" lon="9.585660033781146"><ele>169.0</ele><time>2026-04-30T15:20:43.996Z</time></trkpt><trkpt lat="44.89893724932959" lon="9.585718489362197"><ele>169.0</ele><time>2026-04-30T15:20:44.996Z</time></trkpt><trkpt lat="44.89913505984956" lon="9.585787423548451"><ele>169.0</ele><time>2026-04-30T15:20:45.996Z</time></trkpt><trkpt lat="44.89934429020899" lon="9.58585603081796"><ele>169.0</ele><time>2026-04-30T15:20:46.996Z</time></trkpt><trkpt lat="44.89954800308198" lon="9.585915630473828"><ele>167.0</ele><time>2026-04-30T15:20:47.996Z</time></trkpt><trkpt lat="44.89975956696942" lon="9.58594990671503"><ele>165.0</ele><time>2026-04-30T15:20:48.996Z</time></trkpt><trkpt lat="44.899957794612206" lon="9.586034704883778"><ele>163.0</ele><time>2026-04-30T15:20:49.996Z</time></trkpt><trkpt lat="44.90014718205043" lon="9.586101649211098"><ele>164.0</ele><time>2026-04-30T15:20:50.996Z</time></trkpt><trkpt lat="44.900335954660044" lon="9.586169126407405"><ele>165.0</ele><time>2026-04-30T15:20:51.996Z</time></trkpt><trkpt lat="44.9005205924973" lon="9.58624229753806"><ele>166.0</ele><time>2026-04-30T15:20:52.996Z</time></trkpt><trkpt lat="44.90069118109807" lon="9.586337871639575"><ele>166.0</ele><time>2026-04-30T15:20:53.996Z</time></trkpt><trkpt lat="44.90085512460676" lon="9.58643903013138"><ele>166.0</ele><time>2026-04-30T15:20:54.996Z</time></trkpt><trkpt lat="44.90102935801427" lon="9.586550211015279"><ele>166.0</ele><time>2026-04-30T15:20:55.996Z</time></trkpt><trkpt lat="44.901194734460375" lon="9.586667779363717"><ele>167.33333333333334</ele><time>2026-04-30T15:20:56.996Z</time></trkpt><trkpt lat="44.90135435191506" lon="9.5867950811956"><ele>168.66666666666666</ele><time>2026-04-30T15:20:57.996Z</time></trkpt><trkpt lat="44.90151958855468" lon="9.586928687537249"><ele>170.0</ele><time>2026-04-30T15:20:58.996Z</time></trkpt><trkpt lat="44.90166789473301" lon="9.587050424291846"><ele>166.33333333333331</ele><time>2026-04-30T15:20:59.996Z</time></trkpt><trkpt lat="44.901818816786374" lon="9.587175405980217"><ele>162.66666666666666</ele><time>2026-04-30T15:21:00.996Z</time></trkpt><trkpt lat="44.90195815566125" lon="9.587293446681242"><ele>159.0</ele><time>2026-04-30T15:21:01.996Z</time></trkpt><trkpt lat="44.902089297184055" lon="9.587409134110073"><ele>159.0</ele><time>2026-04-30T15:21:02.996Z</time></trkpt><trkpt lat="44.902235025426265" lon="9.58754129830298"><ele>159.0</ele><time>2026-04-30T15:21:03.996Z</time></trkpt><trkpt lat="44.90238957707678" lon="9.587681930260773"><ele>159.0</ele><time>2026-04-30T15:21:04.996Z</time></trkpt><trkpt lat="44.90256860951296" lon="9.587836648028864"><ele>156.66666666666666</ele><time>2026-04-30T15:21:05.996Z</time></trkpt><trkpt lat="44.90273614146547" lon="9.587963839034538"><ele>154.33333333333331</ele><time>2026-04-30T15:21:06.996Z</time></trkpt><trkpt lat="44.902885060190755" lon="9.588082124125188"><ele>152.0</ele><time>2026-04-30T15:21:07.996Z</time></trkpt><trkpt lat="44.90303864478193" lon="9.588217410290682"><ele>152.0</ele><time>2026-04-30T15:21:08.996Z</time></trkpt><trkpt lat="44.903202256257444" lon="9.588333686957364"><ele>152.0</ele><time>2026-04-30T15:21:09.996Z</time></trkpt><trkpt lat="44.90335990003422" lon="9.588484987741966"><ele>152.0</ele><time>2026-04-30T15:21:10.996Z</time></trkpt><trkpt lat="44.903520339938815" lon="9.588615576173831"><ele>152.0</ele><time>2026-04-30T15:21:11.996Z</time></trkpt><trkpt lat="44.90369161584981" lon="9.588755583842687"><ele>152.0</ele><time>2026-04-30T15:21:12.996Z</time></trkpt><trkpt lat="44.90386081439067" lon="9.588893904417366"><ele>152.0</ele><time>2026-04-30T15:21:13.996Z</time></trkpt><trkpt lat="44.90403933484904" lon="9.589021732857248"><ele>152.0</ele><time>2026-04-30T15:21:14.996Z</time></trkpt><trkpt lat="44.90421054679515" lon="9.589179971939421"><ele>152.0</ele><time>2026-04-30T15:21:15.996Z</time></trkpt><trkpt lat="44.904403972878846" lon="9.5893382246487"><ele>152.0</ele><time>2026-04-30T15:21:16.996Z</time></trkpt><trkpt lat="44.904578719524494" lon="9.589481194658209"><ele>150.33333333333331</ele><time>2026-04-30T15:21:17.996Z</time></trkpt><trkpt lat="44.904754470093685" lon="9.589624985804551"><ele>148.66666666666666</ele><time>2026-04-30T15:21:18.996Z</time></trkpt><trkpt lat="44.90492789790642" lon="9.589767494468076"><ele>147.0</ele><time>2026-04-30T15:21:19.996Z</time></trkpt><trkpt lat="44.905108845660415" lon="9.589916213297597"><ele>147.66666666666666</ele><time>2026-04-30T15:21:20.996Z</time></trkpt><trkpt lat="44.905296724917086" lon="9.590070950378989"><ele>148.33333333333331</ele><time>2026-04-30T15:21:21.996Z</time></trkpt><trkpt lat="44.90547310074944" lon="9.590216213233807"><ele>149.0</ele><time>2026-04-30T15:21:22.996Z</time></trkpt><trkpt lat="44.90565307106504" lon="9.59036464309271"><ele>149.0</ele><time>2026-04-30T15:21:23.996Z</time></trkpt><trkpt lat="44.90582349003756" lon="9.590505433506474"><ele>149.0</ele><time>2026-04-30T15:21:24.996Z</time></trkpt><trkpt lat="44.906007925966186" lon="9.590657802668414"><ele>149.0</ele><time>2026-04-30T15:21:25.996Z</time></trkpt><trkpt lat="44.90616712157016" lon="9.59078950338177"><ele>146.66666666666666</ele><time>2026-04-30T15:21:26.996Z</time></trkpt><trkpt lat="44.90634490624769" lon="9.590937946619194"><ele>144.33333333333334</ele><time>2026-04-30T15:21:27.996Z</time></trkpt><trkpt lat="44.90651458873486" lon="9.591079624783037"><ele>142.0</ele><time>2026-04-30T15:21:28.996Z</time></trkpt><trkpt lat="44.90669277866104" lon="9.59122548396949"><ele>139.66666666666669</ele><time>2026-04-30T15:21:29.996Z</time></trkpt><trkpt lat="44.90688098516948" lon="9.591379434499977"><ele>137.33333333333334</ele><time>2026-04-30T15:21:30.996Z</time></trkpt><trkpt lat="44.90705138579622" lon="9.591520066095272"><ele>135.0</ele><time>2026-04-30T15:21:31.996Z</time></trkpt><trkpt lat="44.90723023465558" lon="9.591667812918484"><ele>135.0</ele><time>2026-04-30T15:21:32.996Z</time></trkpt><trkpt lat="44.9073988647911" lon="9.591807085034388"><ele>135.0</ele><time>2026-04-30T15:21:33.996Z</time></trkpt><trkpt lat="44.907578627951516" lon="9.591954191026907"><ele>135.0</ele><time>2026-04-30T15:21:34.996Z</time></trkpt><trkpt lat="44.90775107141586" lon="9.592095307186955"><ele>134.66666666666666</ele><time>2026-04-30T15:21:35.996Z</time></trkpt><trkpt lat="44.907913906535036" lon="9.592228560464786"><ele>134.33333333333331</ele><time>2026-04-30T15:21:36.996Z</time></trkpt><trkpt lat="44.90808229017692" lon="9.592366305051007"><ele>134.0</ele><time>2026-04-30T15:21:37.996Z</time></trkpt><trkpt lat="44.90821749762537" lon="9.592494056073125"><ele>134.0</ele><time>2026-04-30T15:21:38.996Z</time></trkpt><trkpt lat="44.908374773117345" lon="9.592665136969641"><ele>134.0</ele><time>2026-04-30T15:21:39.996Z</time></trkpt><trkpt lat="44.90851021346368" lon="9.59284851769694"><ele>134.0</ele><time>2026-04-30T15:21:40.996Z</time></trkpt><trkpt lat="44.90864520293425" lon="9.59305756509857"><ele>134.0</ele><time>2026-04-30T15:21:41.996Z</time></trkpt><trkpt lat="44.90877463433508" lon="9.593253392477866"><ele>134.0</ele><time>2026-04-30T15:21:42.996Z</time></trkpt><trkpt lat="44.90889996390475" lon="9.593445936227644"><ele>134.0</ele><time>2026-04-30T15:21:43.996Z</time></trkpt><trkpt lat="44.90902833654998" lon="9.59362993248735"><ele>134.66666666666666</ele><time>2026-04-30T15:21:44.996Z</time></trkpt><trkpt lat="44.90914391929641" lon="9.593831660585579"><ele>135.33333333333334</ele><time>2026-04-30T15:21:45.996Z</time></trkpt><trkpt lat="44.90927977824125" lon="9.59407629961457"><ele>136.0</ele><time>2026-04-30T15:21:46.996Z</time></trkpt><trkpt lat="44.90941369395866" lon="9.594235905014877"><ele>134.66666666666669</ele><time>2026-04-30T15:21:47.995Z</time></trkpt><trkpt lat="44.909526400549375" lon="9.594415160554583"><ele>133.33333333333334</ele><time>2026-04-30T15:21:48.995Z</time></trkpt><trkpt lat="44.9096454380396" lon="9.59460306811099"><ele>132.0</ele><time>2026-04-30T15:21:49.995Z</time></trkpt><trkpt lat="44.90977167606899" lon="9.594785898846839"><ele>132.0</ele><time>2026-04-30T15:21:50.995Z</time></trkpt><trkpt lat="44.90989202201713" lon="9.594972278064231"><ele>132.0</ele><time>2026-04-30T15:21:51.995Z</time></trkpt><trkpt lat="44.910030620034746" lon="9.595145310467753"><ele>132.0</ele><time>2026-04-30T15:21:52.995Z</time></trkpt><trkpt lat="44.91018763244065" lon="9.595284098874135"><ele>133.0</ele><time>2026-04-30T15:21:53.995Z</time></trkpt><trkpt lat="44.910328141024216" lon="9.595407554288107"><ele>134.0</ele><time>2026-04-30T15:21:54.995Z</time></trkpt><trkpt lat="44.91048461029183" lon="9.595518028118772"><ele>135.0</ele><time>2026-04-30T15:21:55.995Z</time></trkpt><trkpt lat="44.910616695164514" lon="9.595614052910527"><ele>135.0</ele><time>2026-04-30T15:21:56.995Z</time></trkpt><trkpt lat="44.91075040216367" lon="9.59567935810011"><ele>135.0</ele><time>2026-04-30T15:21:57.995Z</time></trkpt><trkpt lat="44.91086988830672" lon="9.595759939128191"><ele>135.0</ele><time>2026-04-30T15:21:58.995Z</time></trkpt><trkpt lat="44.91098628030729" lon="9.595827175465402"><ele>135.0</ele><time>2026-04-30T15:21:59.995Z</time></trkpt><trkpt lat="44.91109075380512" lon="9.595874165863966"><ele>134.4</ele><time>2026-04-30T15:22:00.995Z</time></trkpt><trkpt lat="44.911180434643164" lon="9.595920756638172"><ele>133.8</ele><time>2026-04-30T15:22:01.995Z</time></trkpt><trkpt lat="44.9112515977964" lon="9.595957727217348"><ele>133.2</ele><time>2026-04-30T15:22:02.995Z</time></trkpt><trkpt lat="44.911337474195236" lon="9.596002764337225"><ele>132.6</ele><time>2026-04-30T15:22:03.995Z</time></trkpt><trkpt lat="44.91142048629208" lon="9.596046684850336"><ele>132.0</ele><time>2026-04-30T15:22:04.995Z</time></trkpt><trkpt lat="44.91151459758123" lon="9.596096887576104"><ele>132.0</ele><time>2026-04-30T15:22:05.995Z</time></trkpt><trkpt lat="44.91161679030299" lon="9.596150501128289"><ele>132.0</ele><time>2026-04-30T15:22:06.995Z</time></trkpt><trkpt lat="44.91173213890428" lon="9.596210792603985"><ele>132.0</ele><time>2026-04-30T15:22:07.995Z</time></trkpt><trkpt lat="44.911858489282274" lon="9.596276834483838"><ele>132.0</ele><time>2026-04-30T15:22:08.995Z</time></trkpt><trkpt lat="44.91198687782934" lon="9.596344086697897"><ele>133.75</ele><time>2026-04-30T15:22:09.995Z</time></trkpt><trkpt lat="44.91211415663781" lon="9.596415675960198"><ele>135.5</ele><time>2026-04-30T15:22:10.995Z</time></trkpt><trkpt lat="44.912255454144464" lon="9.596479987231408"><ele>137.25</ele><time>2026-04-30T15:22:11.995Z</time></trkpt><trkpt lat="44.912371019767605" lon="9.59659720946871"><ele>139.0</ele><time>2026-04-30T15:22:12.995Z</time></trkpt><trkpt lat="44.91247683694611" lon="9.596707943874415"><ele>138.66666666666669</ele><time>2026-04-30T15:22:13.995Z</time></trkpt><trkpt lat="44.912594736496466" lon="9.59684898533905"><ele>138.33333333333334</ele><time>2026-04-30T15:22:14.995Z</time></trkpt><trkpt lat="44.91270593102109" lon="9.596994769915492"><ele>138.0</ele><time>2026-04-30T15:22:15.995Z</time></trkpt><trkpt lat="44.91281830118361" lon="9.597134878810163"><ele>137.66666666666666</ele><time>2026-04-30T15:22:16.995Z</time></trkpt><trkpt lat="44.91292229919757" lon="9.597279865881655"><ele>137.33333333333331</ele><time>2026-04-30T15:22:17.995Z</time></trkpt><trkpt lat="44.91302044515176" lon="9.59743583140062"><ele>137.0</ele><time>2026-04-30T15:22:18.995Z</time></trkpt><trkpt lat="44.913092920020844" lon="9.597631803469612"><ele>137.33333333333331</ele><time>2026-04-30T15:22:19.995Z</time></trkpt><trkpt lat="44.91318335130962" lon="9.597855661068957"><ele>137.66666666666666</ele><time>2026-04-30T15:22:20.995Z</time></trkpt><trkpt lat="44.91325439913788" lon="9.598031640901677"><ele>138.0</ele><time>2026-04-30T15:22:21.995Z</time></trkpt><trkpt lat="44.913315624043946" lon="9.598218950355156"><ele>138.0</ele><time>2026-04-30T15:22:22.995Z</time></trkpt><trkpt lat="44.91338962787374" lon="9.598347653965675"><ele>138.0</ele><time>2026-04-30T15:22:23.995Z</time></trkpt><trkpt lat="44.913442891269895" lon="9.598502958714176"><ele>138.0</ele><time>2026-04-30T15:22:24.995Z</time></trkpt><trkpt lat="44.91351411293866" lon="9.598682126776975"><ele>138.0</ele><time>2026-04-30T15:22:25.995Z</time></trkpt><trkpt lat="44.913573639382605" lon="9.598829586532696"><ele>137.8</ele><time>2026-04-30T15:22:26.995Z</time></trkpt><trkpt lat="44.91361847104269" lon="9.59894104722611"><ele>137.60000000000002</ele><time>2026-04-30T15:22:27.995Z</time></trkpt><trkpt lat="44.91366911644569" lon="9.599057792799648"><ele>137.39999999999998</ele><time>2026-04-30T15:22:29.995Z</time></trkpt><trkpt lat="44.913691214587146" lon="9.599179056078494"><ele>137.2</ele><time>2026-04-30T15:22:30.995Z</time></trkpt><trkpt lat="44.913735024192704" lon="9.599305778303062"><ele>137.0</ele><time>2026-04-30T15:22:31.995Z</time></trkpt><trkpt lat="44.91374730224555" lon="9.599426391930647"><ele>136.79999999999998</ele><time>2026-04-30T15:22:32.995Z</time></trkpt><trkpt lat="44.91381695803487" lon="9.599513063208562"><ele>136.6</ele><time>2026-04-30T15:22:33.995Z</time></trkpt><trkpt lat="44.91385806959277" lon="9.599618250980361"><ele>136.39999999999998</ele><time>2026-04-30T15:22:35Z</time></trkpt><trkpt lat="44.91390325525963" lon="9.59974858417655"><ele>136.2</ele><time>2026-04-30T15:22:36Z</time></trkpt><trkpt lat="44.91397168276733" lon="9.599867379681402"><ele>136.0</ele><time>2026-04-30T15:22:37Z</time></trkpt><trkpt lat="44.91403088957346" lon="9.599979094037751"><ele>136.0</ele><time>2026-04-30T15:22:38Z</time></trkpt><trkpt lat="44.9140797704753" lon="9.600101853740222"><ele>136.0</ele><time>2026-04-30T15:22:39Z</time></trkpt><trkpt lat="44.91414210490545" lon="9.600258087248498"><ele>136.0</ele><time>2026-04-30T15:22:40Z</time></trkpt><trkpt lat="44.9141928509542" lon="9.600385276025156"><ele>136.0</ele><time>2026-04-30T15:22:41Z</time></trkpt><trkpt lat="44.91424978177905" lon="9.600527966103838"><ele>136.0</ele><time>2026-04-30T15:22:42Z</time></trkpt><trkpt lat="44.91431733544804" lon="9.600697281156913"><ele>135.75</ele><time>2026-04-30T15:22:43Z</time></trkpt><trkpt lat="44.91437902912877" lon="9.600851908188599"><ele>135.5</ele><time>2026-04-30T15:22:44Z</time></trkpt><trkpt lat="44.914436405258684" lon="9.600996227507713"><ele>135.25</ele><time>2026-04-30T15:22:45Z</time></trkpt><trkpt lat="44.91449403438217" lon="9.601141148466583"><ele>135.0</ele><time>2026-04-30T15:22:46Z</time></trkpt><trkpt lat="44.91456001589103" lon="9.601307073476725"><ele>135.0</ele><time>2026-04-30T15:22:47Z</time></trkpt><trkpt lat="44.91462777456011" lon="9.601477467419434"><ele>135.0</ele><time>2026-04-30T15:22:48Z</time></trkpt><trkpt lat="44.91469282968" lon="9.60164106269288"><ele>135.0</ele><time>2026-04-30T15:22:49Z</time></trkpt><trkpt lat="44.91475556962972" lon="9.601798836018245"><ele>135.0</ele><time>2026-04-30T15:22:50Z</time></trkpt><trkpt lat="44.91482512418916" lon="9.601973746229016"><ele>135.66666666666666</ele><time>2026-04-30T15:22:51Z</time></trkpt><trkpt lat="44.91490105152858" lon="9.6021648271875"><ele>136.33333333333331</ele><time>2026-04-30T15:22:52Z</time></trkpt><trkpt lat="44.91497914220212" lon="9.602361452211907"><ele>137.0</ele><time>2026-04-30T15:22:53Z</time></trkpt><trkpt lat="44.91505875926323" lon="9.602561475676682"><ele>137.0</ele><time>2026-04-30T15:22:54Z</time></trkpt><trkpt lat="44.91513493916367" lon="9.602752863804346"><ele>137.0</ele><time>2026-04-30T15:22:55Z</time></trkpt><trkpt lat="44.91521660739254" lon="9.602958040378452"><ele>137.0</ele><time>2026-04-30T15:22:56Z</time></trkpt><trkpt lat="44.91530211169351" lon="9.603172853451357"><ele>138.33333333333331</ele><time>2026-04-30T15:22:57Z</time></trkpt><trkpt lat="44.91539128340341" lon="9.603395751065628"><ele>139.66666666666666</ele><time>2026-04-30T15:22:58Z</time></trkpt><trkpt lat="44.91547947114517" lon="9.60361629719226"><ele>141.0</ele><time>2026-04-30T15:22:59Z</time></trkpt><trkpt lat="44.9155658158856" lon="9.603832232220157"><ele>141.66666666666666</ele><time>2026-04-30T15:23:00Z</time></trkpt><trkpt lat="44.91566033056644" lon="9.604075014685828"><ele>142.33333333333331</ele><time>2026-04-30T15:23:01Z</time></trkpt><trkpt lat="44.915742631830994" lon="9.60428527269666"><ele>143.0</ele><time>2026-04-30T15:23:02Z</time></trkpt><trkpt lat="44.91583639032526" lon="9.604513580128003"><ele>142.33333333333331</ele><time>2026-04-30T15:23:03Z</time></trkpt><trkpt lat="44.915939316769894" lon="9.60474519218796"><ele>141.66666666666666</ele><time>2026-04-30T15:23:04Z</time></trkpt><trkpt lat="44.91603211413183" lon="9.604924500133151"><ele>141.0</ele><time>2026-04-30T15:23:05Z</time></trkpt><trkpt lat="44.916116859734515" lon="9.605073355825308"><ele>141.0</ele><time>2026-04-30T15:23:06Z</time></trkpt><trkpt lat="44.916211134817765" lon="9.605220958148909"><ele>141.0</ele><time>2026-04-30T15:23:07Z</time></trkpt><trkpt lat="44.91638181337209" lon="9.605271284391034"><ele>141.0</ele><time>2026-04-30T15:23:08Z</time></trkpt><trkpt lat="44.91650247646967" lon="9.605415770139418"><ele>141.0</ele><time>2026-04-30T15:23:09Z</time></trkpt><trkpt lat="44.916619267069414" lon="9.605565668745045"><ele>141.0</ele><time>2026-04-30T15:23:10Z</time></trkpt><trkpt lat="44.91672801193699" lon="9.605712628694457"><ele>141.0</ele><time>2026-04-30T15:23:11Z</time></trkpt><trkpt lat="44.91677593332182" lon="9.605935266326602"><ele>141.0</ele><time>2026-04-30T15:23:12Z</time></trkpt><trkpt lat="44.91688362961795" lon="9.606047263043083"><ele>141.0</ele><time>2026-04-30T15:23:13Z</time></trkpt><trkpt lat="44.91698762691867" lon="9.606156687615353"><ele>141.0</ele><time>2026-04-30T15:23:14Z</time></trkpt><trkpt lat="44.91709683471056" lon="9.606271400929321"><ele>141.0</ele><time>2026-04-30T15:23:15Z</time></trkpt><trkpt lat="44.91722785756918" lon="9.606384869630316"><ele>141.0</ele><time>2026-04-30T15:23:16Z</time></trkpt><trkpt lat="44.91734651658105" lon="9.606536648753321"><ele>141.0</ele><time>2026-04-30T15:23:17Z</time></trkpt><trkpt lat="44.917477132206216" lon="9.606667003926571"><ele>141.0</ele><time>2026-04-30T15:23:18Z</time></trkpt><trkpt lat="44.917612741865874" lon="9.606791674126587"><ele>140.33333333333334</ele><time>2026-04-30T15:23:19Z</time></trkpt><trkpt lat="44.91776823729476" lon="9.606917016589419"><ele>139.66666666666669</ele><time>2026-04-30T15:23:20Z</time></trkpt><trkpt lat="44.917928638745806" lon="9.607036764444732"><ele>139.0</ele><time>2026-04-30T15:23:21Z</time></trkpt><trkpt lat="44.918095490330586" lon="9.607148581886793"><ele>139.0</ele><time>2026-04-30T15:23:22Z</time></trkpt><trkpt lat="44.91826078196328" lon="9.60726012828348"><ele>139.0</ele><time>2026-04-30T15:23:23Z</time></trkpt><trkpt lat="44.918421203986014" lon="9.607368577574377"><ele>139.0</ele><time>2026-04-30T15:23:24Z</time></trkpt><trkpt lat="44.91859191757352" lon="9.607455704079634"><ele>138.0</ele><time>2026-04-30T15:23:25Z</time></trkpt><trkpt lat="44.918759523864175" lon="9.607562193452079"><ele>137.0</ele><time>2026-04-30T15:23:26Z</time></trkpt><trkpt lat="44.91890996592543" lon="9.60768734387675"><ele>136.0</ele><time>2026-04-30T15:23:27Z</time></trkpt><trkpt lat="44.91907344922905" lon="9.6077827333978"><ele>136.33333333333334</ele><time>2026-04-30T15:23:28Z</time></trkpt><trkpt lat="44.91922680275458" lon="9.607887723255947"><ele>136.66666666666666</ele><time>2026-04-30T15:23:29Z</time></trkpt><trkpt lat="44.91937550712912" lon="9.607978041394697"><ele>137.0</ele><time>2026-04-30T15:23:30Z</time></trkpt><trkpt lat="44.91953552997039" lon="9.608085500573022"><ele>136.33333333333331</ele><time>2026-04-30T15:23:31Z</time></trkpt><trkpt lat="44.91969949259188" lon="9.608205027493772"><ele>135.66666666666666</ele><time>2026-04-30T15:23:31.999Z</time></trkpt><trkpt lat="44.91987306173764" lon="9.60832368275045"><ele>135.0</ele><time>2026-04-30T15:23:32.999Z</time></trkpt><trkpt lat="44.92002970978938" lon="9.608467417111777"><ele>134.66666666666666</ele><time>2026-04-30T15:23:33.999Z</time></trkpt><trkpt lat="44.920208616721865" lon="9.608628929356447"><ele>134.33333333333331</ele><time>2026-04-30T15:23:34.999Z</time></trkpt><trkpt lat="44.920361397895086" lon="9.608781926078205"><ele>134.0</ele><time>2026-04-30T15:23:35.999Z</time></trkpt><trkpt lat="44.9205124386424" lon="9.608940377327249"><ele>134.0</ele><time>2026-04-30T15:23:36.999Z</time></trkpt><trkpt lat="44.92066007252389" lon="9.609096750459903"><ele>134.0</ele><time>2026-04-30T15:23:37.999Z</time></trkpt><trkpt lat="44.92080950457021" lon="9.609257108558799"><ele>134.0</ele><time>2026-04-30T15:23:38.999Z</time></trkpt><trkpt lat="44.920942748901545" lon="9.609402644302948"><ele>133.33333333333331</ele><time>2026-04-30T15:23:39.999Z</time></trkpt><trkpt lat="44.92108332018019" lon="9.609562188844667"><ele>132.66666666666666</ele><time>2026-04-30T15:23:40.999Z</time></trkpt><trkpt lat="44.921204075273636" lon="9.60969707399001"><ele>132.0</ele><time>2026-04-30T15:23:41.999Z</time></trkpt><trkpt lat="44.921338984205285" lon="9.609845904816023"><ele>132.0</ele><time>2026-04-30T15:23:42.999Z</time></trkpt><trkpt lat="44.92147111119474" lon="9.609991663229698"><ele>132.0</ele><time>2026-04-30T15:23:43.999Z</time></trkpt><trkpt lat="44.921611352394365" lon="9.610147378586612"><ele>132.0</ele><time>2026-04-30T15:23:44.999Z</time></trkpt><trkpt lat="44.92176202522743" lon="9.610312648444296"><ele>131.66666666666666</ele><time>2026-04-30T15:23:45.999Z</time></trkpt><trkpt lat="44.92191671050267" lon="9.610482637742084"><ele>131.33333333333331</ele><time>2026-04-30T15:23:46.999Z</time></trkpt><trkpt lat="44.92210365281426" lon="9.610689528304007"><ele>131.0</ele><time>2026-04-30T15:23:47.999Z</time></trkpt><trkpt lat="44.92225596172723" lon="9.610858089243164"><ele>131.0</ele><time>2026-04-30T15:23:48.999Z</time></trkpt><trkpt lat="44.92240668132545" lon="9.611024891609922"><ele>131.0</ele><time>2026-04-30T15:23:49.999Z</time></trkpt><trkpt lat="44.92256499561349" lon="9.611200099088624"><ele>131.0</ele><time>2026-04-30T15:23:50.999Z</time></trkpt><trkpt lat="44.922730076685895" lon="9.61138279531083"><ele>131.66666666666666</ele><time>2026-04-30T15:23:51.999Z</time></trkpt><trkpt lat="44.92290879284274" lon="9.611578925252143"><ele>132.33333333333334</ele><time>2026-04-30T15:23:52.999Z</time></trkpt><trkpt lat="44.92308743766738" lon="9.611764831632852"><ele>133.0</ele><time>2026-04-30T15:23:53.999Z</time></trkpt><trkpt lat="44.923275971437945" lon="9.6119475400598"><ele>132.0</ele><time>2026-04-30T15:23:54.999Z</time></trkpt><trkpt lat="44.92347334135445" lon="9.612133310808856"><ele>131.0</ele><time>2026-04-30T15:23:55.999Z</time></trkpt><trkpt lat="44.923664286814855" lon="9.612300578066348"><ele>131.0</ele><time>2026-04-30T15:23:56.999Z</time></trkpt><trkpt lat="44.923857271659514" lon="9.612466343919275"><ele>131.0</ele><time>2026-04-30T15:23:57.999Z</time></trkpt><trkpt lat="44.924061058567744" lon="9.612643667158384"><ele>130.33333333333331</ele><time>2026-04-30T15:23:58.999Z</time></trkpt><trkpt lat="44.924248756233126" lon="9.612810051678009"><ele>129.66666666666666</ele><time>2026-04-30T15:23:59.999Z</time></trkpt><trkpt lat="44.92442464804098" lon="9.612966231745247"><ele>129.0</ele><time>2026-04-30T15:24:00.999Z</time></trkpt><trkpt lat="44.92460392450132" lon="9.61312644264306"><ele>130.0</ele><time>2026-04-30T15:24:01.999Z</time></trkpt><trkpt lat="44.924777270166125" lon="9.613281056263778"><ele>131.0</ele><time>2026-04-30T15:24:02.999Z</time></trkpt><trkpt lat="44.92494587096285" lon="9.61343120412666"><ele>132.0</ele><time>2026-04-30T15:24:03.999Z</time></trkpt><trkpt lat="44.92511117879786" lon="9.61357696016724"><ele>132.66666666666666</ele><time>2026-04-30T15:24:04.999Z</time></trkpt><trkpt lat="44.92526971388505" lon="9.613715809018226"><ele>133.33333333333331</ele><time>2026-04-30T15:24:05.999Z</time></trkpt><trkpt lat="44.925423307988204" lon="9.613850331922697"><ele>134.0</ele><time>2026-04-30T15:24:06.999Z</time></trkpt><trkpt lat="44.92557661333045" lon="9.61398460039073"><ele>134.0</ele><time>2026-04-30T15:24:07.999Z</time></trkpt><trkpt lat="44.925723520309305" lon="9.614113265071676"><ele>134.0</ele><time>2026-04-30T15:24:08.999Z</time></trkpt><trkpt lat="44.925874383785796" lon="9.61424539481568"><ele>134.0</ele><time>2026-04-30T15:24:09.999Z</time></trkpt><trkpt lat="44.92601830604808" lon="9.61437279214408"><ele>134.0</ele><time>2026-04-30T15:24:10.999Z</time></trkpt><trkpt lat="44.92614728077649" lon="9.614489752164987"><ele>134.0</ele><time>2026-04-30T15:24:11.999Z</time></trkpt><trkpt lat="44.92628072418333" lon="9.6146170004474"><ele>134.0</ele><time>2026-04-30T15:24:12.999Z</time></trkpt><trkpt lat="44.926410848961034" lon="9.61474266685612"><ele>134.0</ele><time>2026-04-30T15:24:13.999Z</time></trkpt><trkpt lat="44.92653503867491" lon="9.614867619450205"><ele>134.0</ele><time>2026-04-30T15:24:14.999Z</time></trkpt><trkpt lat="44.926659853143235" lon="9.615007617173584"><ele>134.0</ele><time>2026-04-30T15:24:15.999Z</time></trkpt><trkpt lat="44.92676294360228" lon="9.615166074407469"><ele>134.0</ele><time>2026-04-30T15:24:16.999Z</time></trkpt><trkpt lat="44.92687362378755" lon="9.615305292221642"><ele>134.0</ele><time>2026-04-30T15:24:17.999Z</time></trkpt><trkpt lat="44.926970314702686" lon="9.615460408273202"><ele>134.0</ele><time>2026-04-30T15:24:18.999Z</time></trkpt><trkpt lat="44.92707137139297" lon="9.615609302222389"><ele>134.0</ele><time>2026-04-30T15:24:19.999Z</time></trkpt><trkpt lat="44.927162520640806" lon="9.615783028437626"><ele>134.0</ele><time>2026-04-30T15:24:20.999Z</time></trkpt><trkpt lat="44.92728387673864" lon="9.61592536911797"><ele>134.0</ele><time>2026-04-30T15:24:21.999Z</time></trkpt><trkpt lat="44.92738563285413" lon="9.61610219932725"><ele>134.0</ele><time>2026-04-30T15:24:22.999Z</time></trkpt><trkpt lat="44.927489098920375" lon="9.616255441044421"><ele>134.0</ele><time>2026-04-30T15:24:23.999Z</time></trkpt><trkpt lat="44.92763501515221" lon="9.616429401477085"><ele>134.0</ele><time>2026-04-30T15:24:24.999Z</time></trkpt><trkpt lat="44.92773330966454" lon="9.61660646214885"><ele>134.0</ele><time>2026-04-30T15:24:25.999Z</time></trkpt><trkpt lat="44.92783851292402" lon="9.616776237267645"><ele>134.0</ele><time>2026-04-30T15:24:26.999Z</time></trkpt><trkpt lat="44.92793697058993" lon="9.616934741665583"><ele>134.0</ele><time>2026-04-30T15:24:27.999Z</time></trkpt><trkpt lat="44.92802406872046" lon="9.617072143232125"><ele>134.0</ele><time>2026-04-30T15:24:28.999Z</time></trkpt><trkpt lat="44.928109724261645" lon="9.617204637119045"><ele>134.0</ele><time>2026-04-30T15:24:29.999Z</time></trkpt><trkpt lat="44.928221363644454" lon="9.617369750450633"><ele>134.25</ele><time>2026-04-30T15:24:30.999Z</time></trkpt><trkpt lat="44.92832629028234" lon="9.617513091606387"><ele>134.5</ele><time>2026-04-30T15:24:31.999Z</time></trkpt><trkpt lat="44.92842571230632" lon="9.617637534677927"><ele>134.75</ele><time>2026-04-30T15:24:32.999Z</time></trkpt><trkpt lat="44.92853633602258" lon="9.61776733203672"><ele>135.0</ele><time>2026-04-30T15:24:33.999Z</time></trkpt><trkpt lat="44.928664137370625" lon="9.617900731663351"><ele>135.33333333333334</ele><time>2026-04-30T15:24:34.999Z</time></trkpt><trkpt lat="44.928797044946975" lon="9.618035769839159"><ele>135.66666666666669</ele><time>2026-04-30T15:24:35.999Z</time></trkpt><trkpt lat="44.92895080696632" lon="9.618176882790461"><ele>136.0</ele><time>2026-04-30T15:24:36.999Z</time></trkpt><trkpt lat="44.929093580626514" lon="9.618352198432422"><ele>135.33333333333334</ele><time>2026-04-30T15:24:37.999Z</time></trkpt><trkpt lat="44.929263348568675" lon="9.61853202303397"><ele>134.66666666666666</ele><time>2026-04-30T15:24:38.999Z</time></trkpt><trkpt lat="44.92943895138369" lon="9.618692883914301"><ele>134.0</ele><time>2026-04-30T15:24:39.999Z</time></trkpt><trkpt lat="44.929606153451466" lon="9.618866869483144"><ele>134.0</ele><time>2026-04-30T15:24:40.999Z</time></trkpt><trkpt lat="44.929780622376406" lon="9.619052437196963"><ele>134.0</ele><time>2026-04-30T15:24:41.999Z</time></trkpt><trkpt lat="44.92995749037132" lon="9.619231490756812"><ele>134.0</ele><time>2026-04-30T15:24:42.998Z</time></trkpt><trkpt lat="44.9301355581104" lon="9.619409910400558"><ele>134.66666666666666</ele><time>2026-04-30T15:24:43.998Z</time></trkpt><trkpt lat="44.930317071974386" lon="9.61959178297987"><ele>135.33333333333334</ele><time>2026-04-30T15:24:44.998Z</time></trkpt><trkpt lat="44.93049866312749" lon="9.619779567284969"><ele>136.0</ele><time>2026-04-30T15:24:45.998Z</time></trkpt><trkpt lat="44.930687471091886" lon="9.619977924867642"><ele>136.0</ele><time>2026-04-30T15:24:46.998Z</time></trkpt><trkpt lat="44.93087269578211" lon="9.620179995740934"><ele>136.0</ele><time>2026-04-30T15:24:47.998Z</time></trkpt><trkpt lat="44.93104940414437" lon="9.620375363752428"><ele>135.0</ele><time>2026-04-30T15:24:48.998Z</time></trkpt><trkpt lat="44.931233792166964" lon="9.6205799158671"><ele>134.0</ele><time>2026-04-30T15:24:49.998Z</time></trkpt><trkpt lat="44.93142748733581" lon="9.620794792926883"><ele>134.0</ele><time>2026-04-30T15:24:50.998Z</time></trkpt><trkpt lat="44.931617994146045" lon="9.621006942485668"><ele>134.0</ele><time>2026-04-30T15:24:51.998Z</time></trkpt><trkpt lat="44.93180539651025" lon="9.62121741406285"><ele>134.5</ele><time>2026-04-30T15:24:52.998Z</time></trkpt><trkpt lat="44.9319914817899" lon="9.62142640642227"><ele>135.0</ele><time>2026-04-30T15:24:53.998Z</time></trkpt><trkpt lat="44.93216662833306" lon="9.621623567209753"><ele>135.0</ele><time>2026-04-30T15:24:54.998Z</time></trkpt><trkpt lat="44.93233660208515" lon="9.621815643836142"><ele>135.0</ele><time>2026-04-30T15:24:55.998Z</time></trkpt><trkpt lat="44.93250809968268" lon="9.622009394877045"><ele>135.0</ele><time>2026-04-30T15:24:56.998Z</time></trkpt><trkpt lat="44.9326853287201" lon="9.622207115523228"><ele>135.0</ele><time>2026-04-30T15:24:57.998Z</time></trkpt><trkpt lat="44.93285364949833" lon="9.622395301840356"><ele>135.0</ele><time>2026-04-30T15:24:58.998Z</time></trkpt><trkpt lat="44.933023351782495" lon="9.622586724942693"><ele>135.0</ele><time>2026-04-30T15:24:59.998Z</time></trkpt><trkpt lat="44.933187458997516" lon="9.622771838195778"><ele>135.66666666666666</ele><time>2026-04-30T15:25:00.998Z</time></trkpt><trkpt lat="44.93335566180273" lon="9.622961746503826"><ele>136.33333333333331</ele><time>2026-04-30T15:25:01.998Z</time></trkpt><trkpt lat="44.93352901615671" lon="9.62315750248873"><ele>137.0</ele><time>2026-04-30T15:25:02.998Z</time></trkpt><trkpt lat="44.93368166504687" lon="9.623327347678181"><ele>136.0</ele><time>2026-04-30T15:25:03.998Z</time></trkpt><trkpt lat="44.933838587179686" lon="9.623503632854025"><ele>135.0</ele><time>2026-04-30T15:25:04.998Z</time></trkpt><trkpt lat="44.93399992607243" lon="9.623684879788442"><ele>134.0</ele><time>2026-04-30T15:25:05.998Z</time></trkpt><trkpt lat="44.93414755932273" lon="9.62385119750519"><ele>132.66666666666666</ele><time>2026-04-30T15:25:06.998Z</time></trkpt><trkpt lat="44.934281655295955" lon="9.624002468193487"><ele>131.33333333333334</ele><time>2026-04-30T15:25:07.998Z</time></trkpt><trkpt lat="44.93442061881628" lon="9.624156371209116"><ele>130.0</ele><time>2026-04-30T15:25:08.998Z</time></trkpt><trkpt lat="44.93455243994942" lon="9.624301455290343"><ele>130.0</ele><time>2026-04-30T15:25:09.998Z</time></trkpt><trkpt lat="44.93469285046399" lon="9.624454089713923"><ele>130.0</ele><time>2026-04-30T15:25:10.998Z</time></trkpt><trkpt lat="44.93482400393953" lon="9.624594691859272"><ele>130.0</ele><time>2026-04-30T15:25:11.998Z</time></trkpt><trkpt lat="44.93495932857304" lon="9.624739765652539"><ele>131.33333333333334</ele><time>2026-04-30T15:25:12.998Z</time></trkpt><trkpt lat="44.935099272614266" lon="9.624889636726643"><ele>132.66666666666666</ele><time>2026-04-30T15:25:13.998Z</time></trkpt><trkpt lat="44.93522931238358" lon="9.625028038614829"><ele>134.0</ele><time>2026-04-30T15:25:14.998Z</time></trkpt><trkpt lat="44.93534016342428" lon="9.625146017851266"><ele>134.0</ele><time>2026-04-30T15:25:15.998Z</time></trkpt><trkpt lat="44.935455528834964" lon="9.625268801753867"><ele>134.0</ele><time>2026-04-30T15:25:16.998Z</time></trkpt><trkpt lat="44.93555836024024" lon="9.625378245649499"><ele>134.0</ele><time>2026-04-30T15:25:17.998Z</time></trkpt><trkpt lat="44.935663285425676" lon="9.625489917979698"><ele>134.0</ele><time>2026-04-30T15:25:18.998Z</time></trkpt><trkpt lat="44.935763777966585" lon="9.62559726769552"><ele>134.0</ele><time>2026-04-30T15:25:19.998Z</time></trkpt><trkpt lat="44.93586457776996" lon="9.625705205322518"><ele>134.0</ele><time>2026-04-30T15:25:20.998Z</time></trkpt><trkpt lat="44.935977431124925" lon="9.625826050049469"><ele>134.0</ele><time>2026-04-30T15:25:21.998Z</time></trkpt><trkpt lat="44.936077306129235" lon="9.625932997398001"><ele>134.0</ele><time>2026-04-30T15:25:22.998Z</time></trkpt><trkpt lat="44.93616942623543" lon="9.62603227815904"><ele>134.25</ele><time>2026-04-30T15:25:23.998Z</time></trkpt><trkpt lat="44.936263216840196" lon="9.626133440563677"><ele>134.5</ele><time>2026-04-30T15:25:24.998Z</time></trkpt><trkpt lat="44.93636111205764" lon="9.626239030244514"><ele>134.75</ele><time>2026-04-30T15:25:25.998Z</time></trkpt><trkpt lat="44.936465774744995" lon="9.62635106120364"><ele>135.0</ele><time>2026-04-30T15:25:26.998Z</time></trkpt><trkpt lat="44.93657849617498" lon="9.626470488569266"><ele>135.0</ele><time>2026-04-30T15:25:27.998Z</time></trkpt><trkpt lat="44.93669844447519" lon="9.626597572755683"><ele>135.0</ele><time>2026-04-30T15:25:28.998Z</time></trkpt><trkpt lat="44.93681783544865" lon="9.626724066440586"><ele>135.0</ele><time>2026-04-30T15:25:29.998Z</time></trkpt><trkpt lat="44.93693620821645" lon="9.6268494813587"><ele>135.0</ele><time>2026-04-30T15:25:30.998Z</time></trkpt><trkpt lat="44.93705888048454" lon="9.62697945155246"><ele>134.25</ele><time>2026-04-30T15:25:31.998Z</time></trkpt><trkpt lat="44.93717331585408" lon="9.627102146517123"><ele>133.5</ele><time>2026-04-30T15:25:32.998Z</time></trkpt><trkpt lat="44.93729389274735" lon="9.627231535685665"><ele>132.75</ele><time>2026-04-30T15:25:33.998Z</time></trkpt><trkpt lat="44.93740958525335" lon="9.627355683500037"><ele>132.0</ele><time>2026-04-30T15:25:34.998Z</time></trkpt><trkpt lat="44.93752732041937" lon="9.627485790936719"><ele>132.0</ele><time>2026-04-30T15:25:35.998Z</time></trkpt><trkpt lat="44.93765358409028" lon="9.627614638362832"><ele>132.0</ele><time>2026-04-30T15:25:36.998Z</time></trkpt><trkpt lat="44.937774385991275" lon="9.627741232431939"><ele>132.0</ele><time>2026-04-30T15:25:37.998Z</time></trkpt><trkpt lat="44.937898791327406" lon="9.627875697314726"><ele>132.0</ele><time>2026-04-30T15:25:38.998Z</time></trkpt><trkpt lat="44.938023119810524" lon="9.62801191706195"><ele>132.0</ele><time>2026-04-30T15:25:39.998Z</time></trkpt><trkpt lat="44.93814191288897" lon="9.628145771023972"><ele>132.0</ele><time>2026-04-30T15:25:40.998Z</time></trkpt><trkpt lat="44.93825906365812" lon="9.628279323811682"><ele>132.0</ele><time>2026-04-30T15:25:41.998Z</time></trkpt><trkpt lat="44.93837562237662" lon="9.628416716080885"><ele>132.0</ele><time>2026-04-30T15:25:42.998Z</time></trkpt><trkpt lat="44.9384780096405" lon="9.628543574224098"><ele>132.0</ele><time>2026-04-30T15:25:43.998Z</time></trkpt><trkpt lat="44.938602177125816" lon="9.62869317147955"><ele>131.66666666666666</ele><time>2026-04-30T15:25:44.998Z</time></trkpt><trkpt lat="44.93872675532248" lon="9.628888969264843"><ele>131.33333333333331</ele><time>2026-04-30T15:25:45.998Z</time></trkpt><trkpt lat="44.938842266097794" lon="9.629062761867708"><ele>131.0</ele><time>2026-04-30T15:25:46.998Z</time></trkpt><trkpt lat="44.93896032909767" lon="9.62924555257202"><ele>131.0</ele><time>2026-04-30T15:25:47.998Z</time></trkpt><trkpt lat="44.93907172659094" lon="9.629405283128605"><ele>131.0</ele><time>2026-04-30T15:25:48.998Z</time></trkpt><trkpt lat="44.93916848577801" lon="9.629553334084322"><ele>131.0</ele><time>2026-04-30T15:25:49.998Z</time></trkpt><trkpt lat="44.939260045593734" lon="9.629737634440648"><ele>130.66666666666666</ele><time>2026-04-30T15:25:50.998Z</time></trkpt><trkpt lat="44.93936837511048" lon="9.62991531549598"><ele>130.33333333333334</ele><time>2026-04-30T15:25:51.998Z</time></trkpt><trkpt lat="44.939480031451644" lon="9.630094344442247"><ele>130.0</ele><time>2026-04-30T15:25:52.998Z</time></trkpt><trkpt lat="44.93958483595578" lon="9.630262887352009"><ele>130.0</ele><time>2026-04-30T15:25:53.998Z</time></trkpt><trkpt lat="44.93968855877137" lon="9.630426359379653"><ele>130.0</ele><time>2026-04-30T15:25:54.997Z</time></trkpt><trkpt lat="44.93979819072939" lon="9.630590762232558"><ele>130.0</ele><time>2026-04-30T15:25:55.997Z</time></trkpt><trkpt lat="44.93990269765439" lon="9.630739688581976"><ele>130.0</ele><time>2026-04-30T15:25:56.997Z</time></trkpt><trkpt lat="44.940002321565444" lon="9.63087646461609"><ele>130.0</ele><time>2026-04-30T15:25:57.997Z</time></trkpt><trkpt lat="44.940095237936504" lon="9.631002395682012"><ele>130.0</ele><time>2026-04-30T15:25:58.997Z</time></trkpt><trkpt lat="44.94017847172901" lon="9.63111400047526"><ele>130.0</ele><time>2026-04-30T15:25:59.997Z</time></trkpt><trkpt lat="44.94026099045227" lon="9.631222770263804"><ele>129.0</ele><time>2026-04-30T15:26:00.997Z</time></trkpt><trkpt lat="44.94033735661005" lon="9.631320666310703"><ele>128.0</ele><time>2026-04-30T15:26:01.997Z</time></trkpt><trkpt lat="44.94044204129149" lon="9.631450543849843"><ele>127.0</ele><time>2026-04-30T15:26:02.997Z</time></trkpt><trkpt lat="44.940531806496985" lon="9.631555103000027"><ele>126.0</ele><time>2026-04-30T15:26:03.997Z</time></trkpt><trkpt lat="44.94061329846445" lon="9.631647656852872"><ele>126.0</ele><time>2026-04-30T15:26:04.997Z</time></trkpt><trkpt lat="44.94069690028759" lon="9.63173954826016"><ele>126.0</ele><time>2026-04-30T15:26:05.997Z</time></trkpt><trkpt lat="44.94077380628073" lon="9.631821834044128"><ele>126.0</ele><time>2026-04-30T15:26:06.997Z</time></trkpt><trkpt lat="44.94085720292761" lon="9.631884160329275"><ele>126.0</ele><time>2026-04-30T15:26:07.997Z</time></trkpt><trkpt lat="44.94092625905575" lon="9.631984324253866"><ele>126.0</ele><time>2026-04-30T15:26:08.997Z</time></trkpt><trkpt lat="44.940995891173145" lon="9.632055133872672"><ele>126.0</ele><time>2026-04-30T15:26:09.997Z</time></trkpt><trkpt lat="44.94105906287762" lon="9.632106955517319"><ele>126.0</ele><time>2026-04-30T15:26:10.997Z</time></trkpt><trkpt lat="44.94111205064737" lon="9.632172854695925"><ele>126.0</ele><time>2026-04-30T15:26:11.997Z</time></trkpt><trkpt lat="44.94117061093103" lon="9.63223400335639"><ele>126.0</ele><time>2026-04-30T15:26:12.997Z</time></trkpt><trkpt lat="44.94124185285591" lon="9.632305881910668"><ele>126.0</ele><time>2026-04-30T15:26:13.997Z</time></trkpt><trkpt lat="44.94129372384852" lon="9.632358593223797"><ele>126.0</ele><time>2026-04-30T15:26:14.997Z</time></trkpt><trkpt lat="44.94139134964343" lon="9.63238597630191"><ele>126.0</ele><time>2026-04-30T15:26:16.997Z</time></trkpt><trkpt lat="44.941458945495974" lon="9.632435657729387"><ele>126.0</ele><time>2026-04-30T15:26:18.997Z</time></trkpt><trkpt lat="44.94155350430753" lon="9.632556254712739"><ele>126.0</ele><time>2026-04-30T15:26:45.997Z</time></trkpt><trkpt lat="44.94163547759077" lon="9.632653342930723"><ele>126.0</ele><time>2026-04-30T15:26:46.997Z</time></trkpt><trkpt lat="44.941735080169764" lon="9.632774167006884"><ele>126.0</ele><time>2026-04-30T15:26:47.997Z</time></trkpt><trkpt lat="44.94187522218405" lon="9.632879365795747"><ele>125.25</ele><time>2026-04-30T15:26:48.997Z</time></trkpt><trkpt lat="44.941938883370064" lon="9.633019774942666"><ele>124.5</ele><time>2026-04-30T15:26:49.997Z</time></trkpt><trkpt lat="44.94203706873512" lon="9.63311795188884"><ele>123.75</ele><time>2026-04-30T15:26:50.997Z</time></trkpt><trkpt lat="44.942135722331344" lon="9.633216597032778"><ele>123.0</ele><time>2026-04-30T15:26:51.997Z</time></trkpt><trkpt lat="44.94224219035449" lon="9.63332238011534"><ele>123.0</ele><time>2026-04-30T15:26:52.997Z</time></trkpt><trkpt lat="44.94235712497372" lon="9.633437377568987"><ele>123.0</ele><time>2026-04-30T15:26:53.997Z</time></trkpt><trkpt lat="44.942470574938234" lon="9.633551016099833"><ele>123.0</ele><time>2026-04-30T15:26:54.997Z</time></trkpt><trkpt lat="44.94259131899384" lon="9.633669541220915"><ele>123.0</ele><time>2026-04-30T15:26:55.997Z</time></trkpt><trkpt lat="44.94273700000025" lon="9.633741742277843"><ele>122.33333333333334</ele><time>2026-04-30T15:26:56.997Z</time></trkpt><trkpt lat="44.942877480030766" lon="9.633885522611378"><ele>121.66666666666667</ele><time>2026-04-30T15:26:57.997Z</time></trkpt><trkpt lat="44.943020443255314" lon="9.634059775652252"><ele>121.0</ele><time>2026-04-30T15:26:58.997Z</time></trkpt><trkpt lat="44.94316547890867" lon="9.634204316095742"><ele>121.0</ele><time>2026-04-30T15:26:59.997Z</time></trkpt><trkpt lat="44.94332667045569" lon="9.634357326848205"><ele>121.0</ele><time>2026-04-30T15:27:00.997Z</time></trkpt><trkpt lat="44.943484290343314" lon="9.634503002687973"><ele>121.0</ele><time>2026-04-30T15:27:01.997Z</time></trkpt><trkpt lat="44.94366010781634" lon="9.63461986540479"><ele>120.66666666666667</ele><time>2026-04-30T15:27:02.997Z</time></trkpt><trkpt lat="44.94382326342688" lon="9.634750415859054"><ele>120.33333333333334</ele><time>2026-04-30T15:27:03.997Z</time></trkpt><trkpt lat="44.943993000371044" lon="9.634847214055322"><ele>120.0</ele><time>2026-04-30T15:27:04.997Z</time></trkpt><trkpt lat="44.9441657783672" lon="9.634976085368681"><ele>120.33333333333334</ele><time>2026-04-30T15:27:05.997Z</time></trkpt><trkpt lat="44.944345464277376" lon="9.635102960647671"><ele>120.66666666666667</ele><time>2026-04-30T15:27:06.996Z</time></trkpt><trkpt lat="44.944524485735826" lon="9.635250126453538"><ele>121.0</ele><time>2026-04-30T15:27:07.996Z</time></trkpt><trkpt lat="44.94470956327025" lon="9.635361361278296"><ele>121.0</ele><time>2026-04-30T15:27:08.996Z</time></trkpt><trkpt lat="44.94488846945787" lon="9.63550909905193"><ele>121.0</ele><time>2026-04-30T15:27:09.996Z</time></trkpt><trkpt lat="44.94507572478691" lon="9.635644178322757"><ele>121.0</ele><time>2026-04-30T15:27:10.996Z</time></trkpt><trkpt lat="44.94525733018267" lon="9.63577273261723"><ele>121.0</ele><time>2026-04-30T15:27:11.996Z</time></trkpt><trkpt lat="44.9454477259973" lon="9.63591145609385"><ele>121.0</ele><time>2026-04-30T15:27:12.996Z</time></trkpt><trkpt lat="44.94563569025797" lon="9.636033228108527"><ele>121.0</ele><time>2026-04-30T15:27:13.996Z</time></trkpt><trkpt lat="44.94583110122208" lon="9.636170452977009"><ele>121.33333333333334</ele><time>2026-04-30T15:27:14.996Z</time></trkpt><trkpt lat="44.94603265308741" lon="9.636282992676602"><ele>121.66666666666666</ele><time>2026-04-30T15:27:15.996Z</time></trkpt><trkpt lat="44.94623519407992" lon="9.63643568039423"><ele>122.0</ele><time>2026-04-30T15:27:16.996Z</time></trkpt><trkpt lat="44.94643655387302" lon="9.636572432446895"><ele>122.0</ele><time>2026-04-30T15:27:17.996Z</time></trkpt><trkpt lat="44.94662874182122" lon="9.636724436654399"><ele>122.0</ele><time>2026-04-30T15:27:18.996Z</time></trkpt><trkpt lat="44.94683016072415" lon="9.636868084367899"><ele>122.0</ele><time>2026-04-30T15:27:19.996Z</time></trkpt><trkpt lat="44.947036651612464" lon="9.637014359386757"><ele>121.0</ele><time>2026-04-30T15:27:20.996Z</time></trkpt><trkpt lat="44.9472219834396" lon="9.637140667224543"><ele>120.0</ele><time>2026-04-30T15:27:21.996Z</time></trkpt><trkpt lat="44.94738984206612" lon="9.637255066710324"><ele>119.0</ele><time>2026-04-30T15:27:22.996Z</time></trkpt><trkpt lat="44.947538538212555" lon="9.637358980812879"><ele>119.0</ele><time>2026-04-30T15:27:23.996Z</time></trkpt><trkpt lat="44.94768914462672" lon="9.637464611350676"><ele>119.0</ele><time>2026-04-30T15:27:24.996Z</time></trkpt><trkpt lat="44.947872212543324" lon="9.63750972935419"><ele>119.0</ele><time>2026-04-30T15:27:25.996Z</time></trkpt><trkpt lat="44.94803370557071" lon="9.637658002493668"><ele>119.0</ele><time>2026-04-30T15:27:26.996Z</time></trkpt><trkpt lat="44.948209630073315" lon="9.637775019995145"><ele>119.0</ele><time>2026-04-30T15:27:27.996Z</time></trkpt><trkpt lat="44.948405688977374" lon="9.637907099794896"><ele>119.0</ele><time>2026-04-30T15:27:28.996Z</time></trkpt><trkpt lat="44.9485842905388" lon="9.638099562407628"><ele>119.0</ele><time>2026-04-30T15:27:29.996Z</time></trkpt><trkpt lat="44.94877363943814" lon="9.638234177079983"><ele>119.0</ele><time>2026-04-30T15:27:30.996Z</time></trkpt><trkpt lat="44.948974905629136" lon="9.638377264170732"><ele>119.0</ele><time>2026-04-30T15:27:31.996Z</time></trkpt><trkpt lat="44.94918330300655" lon="9.638525421072737"><ele>118.5</ele><time>2026-04-30T15:27:32.996Z</time></trkpt><trkpt lat="44.94938853517386" lon="9.63867252698596"><ele>118.0</ele><time>2026-04-30T15:27:33.996Z</time></trkpt><trkpt lat="44.94958734191113" lon="9.638815198178175"><ele>118.0</ele><time>2026-04-30T15:27:34.996Z</time></trkpt><trkpt lat="44.949779943542595" lon="9.638956954071288"><ele>118.0</ele><time>2026-04-30T15:27:35.996Z</time></trkpt><trkpt lat="44.94998058369745" lon="9.639106067420228"><ele>118.0</ele><time>2026-04-30T15:27:36.996Z</time></trkpt><trkpt lat="44.9501706631516" lon="9.639250269335662"><ele>117.5</ele><time>2026-04-30T15:27:37.996Z</time></trkpt><trkpt lat="44.95037189173485" lon="9.63940738881993"><ele>117.0</ele><time>2026-04-30T15:27:38.996Z</time></trkpt><trkpt lat="44.95057934900032" lon="9.639574690505027"><ele>116.5</ele><time>2026-04-30T15:27:39.996Z</time></trkpt><trkpt lat="44.95077329555883" lon="9.639735564302299"><ele>116.0</ele><time>2026-04-30T15:27:40.996Z</time></trkpt><trkpt lat="44.95096978994535" lon="9.639903639574632"><ele>115.66666666666666</ele><time>2026-04-30T15:27:41.996Z</time></trkpt><trkpt lat="44.9511446403635" lon="9.640058210893896"><ele>115.33333333333334</ele><time>2026-04-30T15:27:42.996Z</time></trkpt><trkpt lat="44.95132838970646" lon="9.640225365934063"><ele>115.0</ele><time>2026-04-30T15:27:43.996Z</time></trkpt><trkpt lat="44.95150463946588" lon="9.640391395324531"><ele>115.0</ele><time>2026-04-30T15:27:44.996Z</time></trkpt><trkpt lat="44.95168112464939" lon="9.64056160209899"><ele>115.0</ele><time>2026-04-30T15:27:45.996Z</time></trkpt><trkpt lat="44.95186371161542" lon="9.640743975185606"><ele>115.0</ele><time>2026-04-30T15:27:46.996Z</time></trkpt><trkpt lat="44.9520660446164" lon="9.640950617948876"><ele>115.0</ele><time>2026-04-30T15:27:47.996Z</time></trkpt><trkpt lat="44.95223495755393" lon="9.641127988100148"><ele>115.0</ele><time>2026-04-30T15:27:48.996Z</time></trkpt><trkpt lat="44.95239527992789" lon="9.64130100292823"><ele>115.0</ele><time>2026-04-30T15:27:49.996Z</time></trkpt><trkpt lat="44.952570860686265" lon="9.641495049988636"><ele>114.0</ele><time>2026-04-30T15:27:50.996Z</time></trkpt><trkpt lat="44.952752423162345" lon="9.641696940416526"><ele>113.0</ele><time>2026-04-30T15:27:51.996Z</time></trkpt><trkpt lat="44.95296232369469" lon="9.641934898682765"><ele>113.0</ele><time>2026-04-30T15:27:52.996Z</time></trkpt><trkpt lat="44.95313173227213" lon="9.642137871728966"><ele>113.0</ele><time>2026-04-30T15:27:53.996Z</time></trkpt><trkpt lat="44.95328487254614" lon="9.642327412809806"><ele>113.0</ele><time>2026-04-30T15:27:54.996Z</time></trkpt><trkpt lat="44.95343013368471" lon="9.64251209771309"><ele>113.0</ele><time>2026-04-30T15:27:55.996Z</time></trkpt><trkpt lat="44.953581913459985" lon="9.64270968413062"><ele>113.0</ele><time>2026-04-30T15:27:56.996Z</time></trkpt><trkpt lat="44.95372431074786" lon="9.642898087838212"><ele>113.0</ele><time>2026-04-30T15:27:57.996Z</time></trkpt><trkpt lat="44.95387362681784" lon="9.643095645615533"><ele>113.0</ele><time>2026-04-30T15:27:58.996Z</time></trkpt><trkpt lat="44.95401625225541" lon="9.643284351108994"><ele>113.0</ele><time>2026-04-30T15:27:59.996Z</time></trkpt><trkpt lat="44.95416752984454" lon="9.643484504443872"><ele>113.0</ele><time>2026-04-30T15:28:00.996Z</time></trkpt><trkpt lat="44.95431241760718" lon="9.643676203161604"><ele>112.0</ele><time>2026-04-30T15:28:01.996Z</time></trkpt><trkpt lat="44.954463537606784" lon="9.64387614776868"><ele>111.0</ele><time>2026-04-30T15:28:02.996Z</time></trkpt><trkpt lat="44.95460812306704" lon="9.64406710125143"><ele>110.0</ele><time>2026-04-30T15:28:03.996Z</time></trkpt><trkpt lat="44.95475192525537" lon="9.644256577757524"><ele>110.0</ele><time>2026-04-30T15:28:04.996Z</time></trkpt><trkpt lat="44.95489840701365" lon="9.64444958484399"><ele>110.0</ele><time>2026-04-30T15:28:05.996Z</time></trkpt><trkpt lat="44.95503316365144" lon="9.644627142741948"><ele>110.0</ele><time>2026-04-30T15:28:06.996Z</time></trkpt><trkpt lat="44.95517478302693" lon="9.644812389305326"><ele>110.0</ele><time>2026-04-30T15:28:07.996Z</time></trkpt><trkpt lat="44.95532296695874" lon="9.645005209190597"><ele>110.0</ele><time>2026-04-30T15:28:08.996Z</time></trkpt><trkpt lat="44.95548238530644" lon="9.645210174034045"><ele>110.0</ele><time>2026-04-30T15:28:09.996Z</time></trkpt><trkpt lat="44.95564842468529" lon="9.645415688724848"><ele>109.66666666666666</ele><time>2026-04-30T15:28:10.996Z</time></trkpt><trkpt lat="44.95586146669808" lon="9.645540251686421"><ele>109.33333333333334</ele><time>2026-04-30T15:28:11.996Z</time></trkpt><trkpt lat="44.956030650320855" lon="9.645707945189079"><ele>109.0</ele><time>2026-04-30T15:28:12.996Z</time></trkpt><trkpt lat="44.95618912369032" lon="9.645898392345941"><ele>108.66666666666667</ele><time>2026-04-30T15:28:13.996Z</time></trkpt><trkpt lat="44.95635195798138" lon="9.646077789593724"><ele>108.33333333333334</ele><time>2026-04-30T15:28:14.996Z</time></trkpt><trkpt lat="44.956494076084255" lon="9.646309664450797"><ele>108.0</ele><time>2026-04-30T15:28:15.996Z</time></trkpt><trkpt lat="44.956662592990384" lon="9.64646308235086"><ele>107.66666666666666</ele><time>2026-04-30T15:28:16.996Z</time></trkpt><trkpt lat="44.956844552583696" lon="9.646616008810222"><ele>107.33333333333333</ele><time>2026-04-30T15:28:17.995Z</time></trkpt><trkpt lat="44.95701813290874" lon="9.646761625330322"><ele>107.0</ele><time>2026-04-30T15:28:18.995Z</time></trkpt><trkpt lat="44.95719543435351" lon="9.646902319384488"><ele>107.0</ele><time>2026-04-30T15:28:19.995Z</time></trkpt><trkpt lat="44.95737793399655" lon="9.647047460057733"><ele>107.0</ele><time>2026-04-30T15:28:20.995Z</time></trkpt><trkpt lat="44.95755571084838" lon="9.647188155039817"><ele>107.0</ele><time>2026-04-30T15:28:21.995Z</time></trkpt><trkpt lat="44.95773538969773" lon="9.647329829540082"><ele>106.33333333333333</ele><time>2026-04-30T15:28:22.995Z</time></trkpt><trkpt lat="44.95792624417143" lon="9.647480315995331"><ele>105.66666666666666</ele><time>2026-04-30T15:28:23.995Z</time></trkpt><trkpt lat="44.95810822767538" lon="9.64762380765532"><ele>105.0</ele><time>2026-04-30T15:28:24.995Z</time></trkpt><trkpt lat="44.95828731674644" lon="9.647765017100477"><ele>105.0</ele><time>2026-04-30T15:28:25.995Z</time></trkpt><trkpt lat="44.95850918798653" lon="9.647781487926002"><ele>105.0</ele><time>2026-04-30T15:28:26.995Z</time></trkpt><trkpt lat="44.95869341210354" lon="9.647920820049654"><ele>105.0</ele><time>2026-04-30T15:28:27.995Z</time></trkpt><trkpt lat="44.958888105121254" lon="9.648101294024253"><ele>105.0</ele><time>2026-04-30T15:28:28.995Z</time></trkpt><trkpt lat="44.959079250473295" lon="9.648233888398286"><ele>105.0</ele><time>2026-04-30T15:28:29.995Z</time></trkpt><trkpt lat="44.95922079566856" lon="9.64850078866733"><ele>105.0</ele><time>2026-04-30T15:28:30.995Z</time></trkpt><trkpt lat="44.95941234397619" lon="9.648651817854047"><ele>104.5</ele><time>2026-04-30T15:28:31.995Z</time></trkpt><trkpt lat="44.95961903559848" lon="9.648815158958262"><ele>104.0</ele><time>2026-04-30T15:28:32.995Z</time></trkpt><trkpt lat="44.95981390578876" lon="9.648970087960809"><ele>104.0</ele><time>2026-04-30T15:28:33.995Z</time></trkpt><trkpt lat="44.960016359421445" lon="9.649131046058034"><ele>104.0</ele><time>2026-04-30T15:28:34.995Z</time></trkpt><trkpt lat="44.96020944240716" lon="9.649284554078662"><ele>103.33333333333333</ele><time>2026-04-30T15:28:35.995Z</time></trkpt><trkpt lat="44.96039981261017" lon="9.649435905370309"><ele>102.66666666666666</ele><time>2026-04-30T15:28:36.995Z</time></trkpt><trkpt lat="44.960584057251594" lon="9.649581322461968"><ele>102.0</ele><time>2026-04-30T15:28:37.995Z</time></trkpt><trkpt lat="44.960761736224946" lon="9.649721318441218"><ele>101.66666666666666</ele><time>2026-04-30T15:28:38.995Z</time></trkpt><trkpt lat="44.96094046407945" lon="9.64986214079668"><ele>101.33333333333333</ele><time>2026-04-30T15:28:39.995Z</time></trkpt><trkpt lat="44.96111411815016" lon="9.64999950580457"><ele>101.0</ele><time>2026-04-30T15:28:40.995Z</time></trkpt><trkpt lat="44.96129280901447" lon="9.650140972793603"><ele>101.0</ele><time>2026-04-30T15:28:41.995Z</time></trkpt><trkpt lat="44.9614435854933" lon="9.650260340633478"><ele>101.0</ele><time>2026-04-30T15:28:42.995Z</time></trkpt><trkpt lat="44.961597668938694" lon="9.650382326617663"><ele>101.0</ele><time>2026-04-30T15:28:43.995Z</time></trkpt><trkpt lat="44.96175596482902" lon="9.650507647258213"><ele>101.33333333333333</ele><time>2026-04-30T15:28:44.995Z</time></trkpt><trkpt lat="44.961900418636695" lon="9.650622009514954"><ele>101.66666666666666</ele><time>2026-04-30T15:28:45.995Z</time></trkpt><trkpt lat="44.96204321406201" lon="9.650735058843017"><ele>102.0</ele><time>2026-04-30T15:28:46.995Z</time></trkpt><trkpt lat="44.96218529127308" lon="9.65084754114009"><ele>102.0</ele><time>2026-04-30T15:28:47.995Z</time></trkpt><trkpt lat="44.962316373787296" lon="9.65095131744503"><ele>102.0</ele><time>2026-04-30T15:28:48.995Z</time></trkpt><trkpt lat="44.96245445611976" lon="9.651060635414218"><ele>102.0</ele><time>2026-04-30T15:28:49.995Z</time></trkpt><trkpt lat="44.96259343470819" lon="9.651170662951381"><ele>101.66666666666666</ele><time>2026-04-30T15:28:50.995Z</time></trkpt><trkpt lat="44.96274531318928" lon="9.651290894374732"><ele>101.33333333333333</ele><time>2026-04-30T15:28:51.995Z</time></trkpt><trkpt lat="44.962892854496154" lon="9.65140768590841"><ele>101.0</ele><time>2026-04-30T15:28:52.995Z</time></trkpt><trkpt lat="44.9630665241426" lon="9.651545160317449"><ele>101.0</ele><time>2026-04-30T15:28:53.995Z</time></trkpt><trkpt lat="44.96323107130188" lon="9.651675413455953"><ele>101.0</ele><time>2026-04-30T15:28:54.995Z</time></trkpt><trkpt lat="44.963409987563765" lon="9.651817040991942"><ele>101.0</ele><time>2026-04-30T15:28:55.995Z</time></trkpt><trkpt lat="44.96356424068593" lon="9.65193914551775"><ele>101.33333333333333</ele><time>2026-04-30T15:28:56.995Z</time></trkpt><trkpt lat="44.96373589251663" lon="9.65207502264898"><ele>101.66666666666666</ele><time>2026-04-30T15:28:57.995Z</time></trkpt><trkpt lat="44.96389129277767" lon="9.652197730095283"><ele>102.0</ele><time>2026-04-30T15:28:58.995Z</time></trkpt><trkpt lat="44.96404096548448" lon="9.652314371439354"><ele>102.0</ele><time>2026-04-30T15:28:59.995Z</time></trkpt><trkpt lat="44.964194330029876" lon="9.652431440739319"><ele>102.0</ele><time>2026-04-30T15:29:00.995Z</time></trkpt><trkpt lat="44.964348643462316" lon="9.652548667346805"><ele>102.0</ele><time>2026-04-30T15:29:01.995Z</time></trkpt><trkpt lat="44.96449468941025" lon="9.652654173315803"><ele>101.66666666666666</ele><time>2026-04-30T15:29:02.995Z</time></trkpt><trkpt lat="44.96464594828253" lon="9.652755134076747"><ele>101.33333333333333</ele><time>2026-04-30T15:29:03.995Z</time></trkpt><trkpt lat="44.96481641540244" lon="9.652860090014476"><ele>101.0</ele><time>2026-04-30T15:29:04.995Z</time></trkpt><trkpt lat="44.96499049791368" lon="9.652959789001606"><ele>100.66666666666666</ele><time>2026-04-30T15:29:05.995Z</time></trkpt><trkpt lat="44.96516927857018" lon="9.653056429945082"><ele>100.33333333333334</ele><time>2026-04-30T15:29:06.995Z</time></trkpt><trkpt lat="44.96534802872886" lon="9.653150076094956"><ele>100.0</ele><time>2026-04-30T15:29:07.995Z</time></trkpt><trkpt lat="44.96553235578228" lon="9.653246928216355"><ele>100.0</ele><time>2026-04-30T15:29:08.995Z</time></trkpt><trkpt lat="44.96571191155775" lon="9.653339878226738"><ele>100.0</ele><time>2026-04-30T15:29:09.995Z</time></trkpt><trkpt lat="44.96590773136514" lon="9.653441067515537"><ele>100.0</ele><time>2026-04-30T15:29:10.995Z</time></trkpt><trkpt lat="44.96609190342785" lon="9.653536368605128"><ele>99.66666666666667</ele><time>2026-04-30T15:29:11.995Z</time></trkpt><trkpt lat="44.96627742970895" lon="9.653632640531857"><ele>99.33333333333334</ele><time>2026-04-30T15:29:12.995Z</time></trkpt><trkpt lat="44.96647048986486" lon="9.653732821891525"><ele>99.0</ele><time>2026-04-30T15:29:13.995Z</time></trkpt><trkpt lat="44.966658420635795" lon="9.653830341557423"><ele>99.0</ele><time>2026-04-30T15:29:14.995Z</time></trkpt><trkpt lat="44.96684825684187" lon="9.653928849985222"><ele>99.0</ele><time>2026-04-30T15:29:15.995Z</time></trkpt><trkpt lat="44.967037210654134" lon="9.654026902376142"><ele>99.0</ele><time>2026-04-30T15:29:16.995Z</time></trkpt><trkpt lat="44.9672234110574" lon="9.654123524108977"><ele>99.0</ele><time>2026-04-30T15:29:17.995Z</time></trkpt><trkpt lat="44.96741259970873" lon="9.654221696508095"><ele>99.0</ele><time>2026-04-30T15:29:18.995Z</time></trkpt><trkpt lat="44.967599436669296" lon="9.654318648569719"><ele>99.0</ele><time>2026-04-30T15:29:19.995Z</time></trkpt><trkpt lat="44.9677823688929" lon="9.654413216739622"><ele>98.33333333333334</ele><time>2026-04-30T15:29:20.995Z</time></trkpt><trkpt lat="44.96796363856813" lon="9.654506425118619"><ele>97.66666666666667</ele><time>2026-04-30T15:29:21.995Z</time></trkpt><trkpt lat="44.96814809767835" lon="9.654601273515432"><ele>97.0</ele><time>2026-04-30T15:29:22.995Z</time></trkpt><trkpt lat="44.968337686717334" lon="9.654698759668028"><ele>97.0</ele><time>2026-04-30T15:29:23.995Z</time></trkpt><trkpt lat="44.96852640518823" lon="9.654795798230248"><ele>97.0</ele><time>2026-04-30T15:29:24.995Z</time></trkpt><trkpt lat="44.96871150782578" lon="9.654890977510524"><ele>97.0</ele><time>2026-04-30T15:29:25.995Z</time></trkpt><trkpt lat="44.9688939799258" lon="9.654984804181916"><ele>97.0</ele><time>2026-04-30T15:29:26.995Z</time></trkpt><trkpt lat="44.969052163697505" lon="9.655066141912178"><ele>97.0</ele><time>2026-04-30T15:29:27.995Z</time></trkpt><trkpt lat="44.96923486513722" lon="9.65516008651251"><ele>97.0</ele><time>2026-04-30T15:29:28.995Z</time></trkpt><trkpt lat="44.96942171081616" lon="9.65525594045723"><ele>96.66666666666667</ele><time>2026-04-30T15:29:29.994Z</time></trkpt><trkpt lat="44.969614475973174" lon="9.65535541245963"><ele>96.33333333333334</ele><time>2026-04-30T15:29:30.994Z</time></trkpt><trkpt lat="44.96980607384701" lon="9.65545446369669"><ele>96.0</ele><time>2026-04-30T15:29:31.994Z</time></trkpt><trkpt lat="44.969989735188754" lon="9.655549726990195"><ele>96.0</ele><time>2026-04-30T15:29:32.994Z</time></trkpt><trkpt lat="44.97017867107044" lon="9.655647885214357"><ele>96.0</ele><time>2026-04-30T15:29:33.994Z</time></trkpt><trkpt lat="44.970407093295094" lon="9.655630072270188"><ele>96.0</ele><time>2026-04-30T15:29:34.994Z</time></trkpt><trkpt lat="44.97060602010137" lon="9.655711498915073"><ele>96.0</ele><time>2026-04-30T15:29:35.994Z</time></trkpt><trkpt lat="44.97079527228192" lon="9.655800816015864"><ele>96.0</ele><time>2026-04-30T15:29:36.994Z</time></trkpt><trkpt lat="44.97098451852101" lon="9.655926207950934"><ele>96.0</ele><time>2026-04-30T15:29:37.994Z</time></trkpt><trkpt lat="44.97114617140359" lon="9.656147093021048"><ele>96.0</ele><time>2026-04-30T15:29:38.994Z</time></trkpt><trkpt lat="44.971341146932865" lon="9.656247526300856"><ele>96.0</ele><time>2026-04-30T15:29:39.994Z</time></trkpt><trkpt lat="44.971565204890446" lon="9.656219887962463"><ele>96.0</ele><time>2026-04-30T15:29:41Z</time></trkpt><trkpt lat="44.97175706610083" lon="9.656325190001812"><ele>96.0</ele><time>2026-04-30T15:29:42Z</time></trkpt><trkpt lat="44.971947193763675" lon="9.656421146978186"><ele>96.0</ele><time>2026-04-30T15:29:43Z</time></trkpt><trkpt lat="44.97213971985969" lon="9.656491930650587"><ele>96.0</ele><time>2026-04-30T15:29:44Z</time></trkpt><trkpt lat="44.97233097335195" lon="9.656572747648328"><ele>95.66666666666667</ele><time>2026-04-30T15:29:45Z</time></trkpt><trkpt lat="44.97252314097637" lon="9.656676127662033"><ele>95.33333333333334</ele><time>2026-04-30T15:29:46Z</time></trkpt><trkpt lat="44.97271440661689" lon="9.656804997629942"><ele>95.0</ele><time>2026-04-30T15:29:47Z</time></trkpt><trkpt lat="44.972876699206665" lon="9.657045648461605"><ele>95.0</ele><time>2026-04-30T15:29:48Z</time></trkpt><trkpt lat="44.97306968286811" lon="9.657145965606329"><ele>95.0</ele><time>2026-04-30T15:29:49Z</time></trkpt><trkpt lat="44.97327465399214" lon="9.657252513967768"><ele>95.0</ele><time>2026-04-30T15:29:50Z</time></trkpt><trkpt lat="44.97348236942089" lon="9.657360589353052"><ele>94.0</ele><time>2026-04-30T15:29:51Z</time></trkpt><trkpt lat="44.97368502105122" lon="9.657466142665628"><ele>93.0</ele><time>2026-04-30T15:29:52Z</time></trkpt><trkpt lat="44.97391583471038" lon="9.657586364593447"><ele>93.0</ele><time>2026-04-30T15:29:53Z</time></trkpt><trkpt lat="44.974135568108956" lon="9.657700814874454"><ele>93.0</ele><time>2026-04-30T15:29:54Z</time></trkpt><trkpt lat="44.97434512626441" lon="9.657809965392328"><ele>93.33333333333333</ele><time>2026-04-30T15:29:55Z</time></trkpt><trkpt lat="44.974551318167066" lon="9.657916669295227"><ele>93.66666666666666</ele><time>2026-04-30T15:29:56Z</time></trkpt><trkpt lat="44.97475894244354" lon="9.658024032385939"><ele>94.0</ele><time>2026-04-30T15:29:57Z</time></trkpt><trkpt lat="44.97496596748746" lon="9.658129531795606"><ele>93.66666666666666</ele><time>2026-04-30T15:29:58Z</time></trkpt><trkpt lat="44.97517251082279" lon="9.658232279740407"><ele>93.33333333333333</ele><time>2026-04-30T15:29:59Z</time></trkpt><trkpt lat="44.97538006670945" lon="9.658331627706517"><ele>93.0</ele><time>2026-04-30T15:30:00Z</time></trkpt><trkpt lat="44.97558193495038" lon="9.658423762852093"><ele>93.0</ele><time>2026-04-30T15:30:01Z</time></trkpt><trkpt lat="44.9757930787333" lon="9.658507188193946"><ele>93.0</ele><time>2026-04-30T15:30:02Z</time></trkpt><trkpt lat="44.97601162528911" lon="9.658577339935357"><ele>93.0</ele><time>2026-04-30T15:30:03Z</time></trkpt><trkpt lat="44.9762222813601" lon="9.65864050082825"><ele>92.66666666666667</ele><time>2026-04-30T15:30:04Z</time></trkpt><trkpt lat="44.976424069342436" lon="9.658697824225548"><ele>92.33333333333334</ele><time>2026-04-30T15:30:05Z</time></trkpt><trkpt lat="44.976622605003186" lon="9.658752833080152"><ele>92.0</ele><time>2026-04-30T15:30:06Z</time></trkpt><trkpt lat="44.97683735896887" lon="9.658812254432911"><ele>91.66666666666667</ele><time>2026-04-30T15:30:07Z</time></trkpt><trkpt lat="44.97703986141711" lon="9.658867289294987"><ele>91.33333333333333</ele><time>2026-04-30T15:30:08Z</time></trkpt><trkpt lat="44.97725402812626" lon="9.658925491007217"><ele>91.0</ele><time>2026-04-30T15:30:09Z</time></trkpt><trkpt lat="44.97747169556719" lon="9.658985192358307"><ele>90.5</ele><time>2026-04-30T15:30:10Z</time></trkpt><trkpt lat="44.97770229847136" lon="9.659049312777102"><ele>90.0</ele><time>2026-04-30T15:30:11Z</time></trkpt><trkpt lat="44.97792764392715" lon="9.659111971333102"><ele>90.0</ele><time>2026-04-30T15:30:11.999Z</time></trkpt><trkpt lat="44.978168038567425" lon="9.65917881439829"><ele>90.0</ele><time>2026-04-30T15:30:12.999Z</time></trkpt><trkpt lat="44.978412027422365" lon="9.659246656854792"><ele>91.0</ele><time>2026-04-30T15:30:13.999Z</time></trkpt><trkpt lat="44.97866469178769" lon="9.659316911685748"><ele>92.0</ele><time>2026-04-30T15:30:14.999Z</time></trkpt><trkpt lat="44.97891371792438" lon="9.659386153374651"><ele>91.5</ele><time>2026-04-30T15:30:15.999Z</time></trkpt><trkpt lat="44.97915723190561" lon="9.659452658998521"><ele>91.0</ele><time>2026-04-30T15:30:16.999Z</time></trkpt><trkpt lat="44.979403997397355" lon="9.65952021636777"><ele>90.5</ele><time>2026-04-30T15:30:17.999Z</time></trkpt><trkpt lat="44.97965530742406" lon="9.65959004802108"><ele>90.0</ele><time>2026-04-30T15:30:18.999Z</time></trkpt><trkpt lat="44.97992993556327" lon="9.659423386842636"><ele>89.5</ele><time>2026-04-30T15:30:19.999Z</time></trkpt><trkpt lat="44.980167587398526" lon="9.659493757750077"><ele>89.0</ele><time>2026-04-30T15:30:20.999Z</time></trkpt><trkpt lat="44.98040629441647" lon="9.659565258126444"><ele>89.0</ele><time>2026-04-30T15:30:21.999Z</time></trkpt><trkpt lat="44.98064846129272" lon="9.65957212440902"><ele>89.0</ele><time>2026-04-30T15:30:22.999Z</time></trkpt><trkpt lat="44.98083807848661" lon="9.6599127240968"><ele>89.0</ele><time>2026-04-30T15:30:23.999Z</time></trkpt><trkpt lat="44.98106069381297" lon="9.659973940228333"><ele>89.0</ele><time>2026-04-30T15:30:24.999Z</time></trkpt><trkpt lat="44.98129241920827" lon="9.660037661512794"><ele>89.0</ele><time>2026-04-30T15:30:25.999Z</time></trkpt><trkpt lat="44.98152097955477" lon="9.660100512472882"><ele>89.0</ele><time>2026-04-30T15:30:26.999Z</time></trkpt><trkpt lat="44.981784673171575" lon="9.660173024658235"><ele>89.0</ele><time>2026-04-30T15:30:27.999Z</time></trkpt><trkpt lat="44.9820435317681" lon="9.660243977591582"><ele>89.0</ele><time>2026-04-30T15:30:28.999Z</time></trkpt><trkpt lat="44.98228992291239" lon="9.660311172350397"><ele>89.0</ele><time>2026-04-30T15:30:29.999Z</time></trkpt><trkpt lat="44.982529153737715" lon="9.660376414364654"><ele>89.0</ele><time>2026-04-30T15:30:30.999Z</time></trkpt><trkpt lat="44.98276117791938" lon="9.660439690820283"><ele>89.0</ele><time>2026-04-30T15:30:31.999Z</time></trkpt><trkpt lat="44.982961755036186" lon="9.660494391252865"><ele>89.0</ele><time>2026-04-30T15:30:32.999Z</time></trkpt><trkpt lat="44.98316671856159" lon="9.660550121484194"><ele>89.0</ele><time>2026-04-30T15:30:33.999Z</time></trkpt><trkpt lat="44.98335720095918" lon="9.660601417651467"><ele>88.0</ele><time>2026-04-30T15:30:34.999Z</time></trkpt><trkpt lat="44.98357339462734" lon="9.660659637697055"><ele>87.0</ele><time>2026-04-30T15:30:35.999Z</time></trkpt><trkpt lat="44.983799574573496" lon="9.660720897345954"><ele>87.0</ele><time>2026-04-30T15:30:36.999Z</time></trkpt><trkpt lat="44.98402516079931" lon="9.660782884170215"><ele>87.0</ele><time>2026-04-30T15:30:37.999Z</time></trkpt><trkpt lat="44.98424944851048" lon="9.660844512212412"><ele>87.33333333333333</ele><time>2026-04-30T15:30:38.999Z</time></trkpt><trkpt lat="44.984481699860154" lon="9.660908328459655"><ele>87.66666666666666</ele><time>2026-04-30T15:30:39.999Z</time></trkpt><trkpt lat="44.98467513185914" lon="9.660961478222369"><ele>88.0</ele><time>2026-04-30T15:30:40.999Z</time></trkpt><trkpt lat="44.98488445314435" lon="9.661018993861754"><ele>88.0</ele><time>2026-04-30T15:30:41.999Z</time></trkpt><trkpt lat="44.98508073658313" lon="9.661072972188329"><ele>88.0</ele><time>2026-04-30T15:30:42.999Z</time></trkpt><trkpt lat="44.985286083105926" lon="9.661132650966783"><ele>88.0</ele><time>2026-04-30T15:30:43.999Z</time></trkpt><trkpt lat="44.98550983555591" lon="9.661199727248029"><ele>87.66666666666666</ele><time>2026-04-30T15:30:44.999Z</time></trkpt><trkpt lat="44.9857185355594" lon="9.661265097113493"><ele>87.33333333333333</ele><time>2026-04-30T15:30:45.999Z</time></trkpt><trkpt lat="44.985921706545646" lon="9.661339286377634"><ele>87.0</ele><time>2026-04-30T15:30:46.999Z</time></trkpt><trkpt lat="44.98610669121998" lon="9.661421235595531"><ele>87.0</ele><time>2026-04-30T15:30:47.999Z</time></trkpt><trkpt lat="44.98629463208376" lon="9.661515320395342"><ele>87.0</ele><time>2026-04-30T15:30:48.999Z</time></trkpt><trkpt lat="44.98646986479773" lon="9.661608173168528"><ele>87.0</ele><time>2026-04-30T15:30:49.999Z</time></trkpt><trkpt lat="44.986657225690784" lon="9.66171063305096"><ele>86.66666666666667</ele><time>2026-04-30T15:30:50.999Z</time></trkpt><trkpt lat="44.98685360013397" lon="9.661818022096906"><ele>86.33333333333334</ele><time>2026-04-30T15:30:51.999Z</time></trkpt><trkpt lat="44.98703888228338" lon="9.66191934477858"><ele>86.0</ele><time>2026-04-30T15:30:52.999Z</time></trkpt><trkpt lat="44.98722843093717" lon="9.662023023323757"><ele>85.66666666666667</ele><time>2026-04-30T15:30:53.999Z</time></trkpt><trkpt lat="44.98742730383878" lon="9.662131413643698"><ele>85.33333333333333</ele><time>2026-04-30T15:30:54.999Z</time></trkpt><trkpt lat="44.98762837856159" lon="9.662240427594808"><ele>85.0</ele><time>2026-04-30T15:30:55.999Z</time></trkpt><trkpt lat="44.98782768357085" lon="9.662349411052608"><ele>85.0</ele><time>2026-04-30T15:30:56.999Z</time></trkpt><trkpt lat="44.98806771185618" lon="9.662480662664777"><ele>85.0</ele><time>2026-04-30T15:30:57.999Z</time></trkpt><trkpt lat="44.98828630143771" lon="9.662600449159138"><ele>84.66666666666666</ele><time>2026-04-30T15:30:58.999Z</time></trkpt><trkpt lat="44.9884878527283" lon="9.662707231100606"><ele>84.33333333333333</ele><time>2026-04-30T15:30:59.999Z</time></trkpt><trkpt lat="44.98869846971505" lon="9.662816441226038"><ele>84.0</ele><time>2026-04-30T15:31:00.999Z</time></trkpt><trkpt lat="44.988923783696485" lon="9.662921746951316"><ele>84.0</ele><time>2026-04-30T15:31:01.999Z</time></trkpt><trkpt lat="44.989135633657185" lon="9.66300747053661"><ele>84.0</ele><time>2026-04-30T15:31:02.999Z</time></trkpt><trkpt lat="44.9893273645099" lon="9.66307974601408"><ele>84.0</ele><time>2026-04-30T15:31:03.999Z</time></trkpt><trkpt lat="44.98953283651817" lon="9.663156135832649"><ele>83.33333333333333</ele><time>2026-04-30T15:31:04.999Z</time></trkpt><trkpt lat="44.98972607418826" lon="9.663227035609276"><ele>82.66666666666666</ele><time>2026-04-30T15:31:05.999Z</time></trkpt><trkpt lat="44.989928168771804" lon="9.663299949647701"><ele>82.0</ele><time>2026-04-30T15:31:06.999Z</time></trkpt><trkpt lat="44.99012287841738" lon="9.663370199243559"><ele>82.0</ele><time>2026-04-30T15:31:07.999Z</time></trkpt><trkpt lat="44.99032228663584" lon="9.663442198060434"><ele>82.0</ele><time>2026-04-30T15:31:08.999Z</time></trkpt><trkpt lat="44.99049904224881" lon="9.663506471113841"><ele>82.0</ele><time>2026-04-30T15:31:09.999Z</time></trkpt><trkpt lat="44.99068786043715" lon="9.663575131098748"><ele>83.0</ele><time>2026-04-30T15:31:10.999Z</time></trkpt><trkpt lat="44.99088337803616" lon="9.663646227180898"><ele>84.0</ele><time>2026-04-30T15:31:11.999Z</time></trkpt><trkpt lat="44.99108242303803" lon="9.663718605949061"><ele>85.0</ele><time>2026-04-30T15:31:12.999Z</time></trkpt><trkpt lat="44.99131768196148" lon="9.663804153120473"><ele>85.0</ele><time>2026-04-30T15:31:13.999Z</time></trkpt><trkpt lat="44.991577351993506" lon="9.663898378102235"><ele>85.0</ele><time>2026-04-30T15:31:14.999Z</time></trkpt><trkpt lat="44.99181338180701" lon="9.663983639797165"><ele>85.0</ele><time>2026-04-30T15:31:15.999Z</time></trkpt><trkpt lat="44.992040895121036" lon="9.66406582514009"><ele>85.0</ele><time>2026-04-30T15:31:16.999Z</time></trkpt><trkpt lat="44.99225489183225" lon="9.664143127780644"><ele>85.0</ele><time>2026-04-30T15:31:17.999Z</time></trkpt><trkpt lat="44.9924641114352" lon="9.664219354120606"><ele>85.0</ele><time>2026-04-30T15:31:18.999Z</time></trkpt><trkpt lat="44.99266283528036" lon="9.664292457195714"><ele>85.0</ele><time>2026-04-30T15:31:19.998Z</time></trkpt><trkpt lat="44.99285263368377" lon="9.66436304707104"><ele>85.0</ele><time>2026-04-30T15:31:20.998Z</time></trkpt><trkpt lat="44.99305931007946" lon="9.664441307277915"><ele>85.0</ele><time>2026-04-30T15:31:21.998Z</time></trkpt><trkpt lat="44.99325310276706" lon="9.664519029025527"><ele>85.0</ele><time>2026-04-30T15:31:22.998Z</time></trkpt><trkpt lat="44.99343719407545" lon="9.664599102943649"><ele>85.0</ele><time>2026-04-30T15:31:23.998Z</time></trkpt><trkpt lat="44.9936320605132" lon="9.664688940662863"><ele>85.0</ele><time>2026-04-30T15:31:24.998Z</time></trkpt><trkpt lat="44.99380030201187" lon="9.664767500559536"><ele>85.0</ele><time>2026-04-30T15:31:25.998Z</time></trkpt><trkpt lat="44.99395981173997" lon="9.66484189177498"><ele>85.0</ele><time>2026-04-30T15:31:26.998Z</time></trkpt><trkpt lat="44.994116701663295" lon="9.66491388657934"><ele>85.0</ele><time>2026-04-30T15:31:27.998Z</time></trkpt><trkpt lat="44.994253766002586" lon="9.664976746613505"><ele>85.0</ele><time>2026-04-30T15:31:28.998Z</time></trkpt><trkpt lat="44.99438011993606" lon="9.665034965303342"><ele>85.0</ele><time>2026-04-30T15:31:29.998Z</time></trkpt><trkpt lat="44.9945151585916" lon="9.665097265504837"><ele>85.0</ele><time>2026-04-30T15:31:30.998Z</time></trkpt><trkpt lat="44.994666228528416" lon="9.6651669616711"><ele>85.0</ele><time>2026-04-30T15:31:31.998Z</time></trkpt><trkpt lat="44.994794061764644" lon="9.66522593843021"><ele>85.0</ele><time>2026-04-30T15:31:32.998Z</time></trkpt><trkpt lat="44.99490737772054" lon="9.665278517633839"><ele>85.0</ele><time>2026-04-30T15:31:33.998Z</time></trkpt><trkpt lat="44.995004438943056" lon="9.665323514303054"><ele>84.8</ele><time>2026-04-30T15:31:34.998Z</time></trkpt><trkpt lat="44.99509374390311" lon="9.665364914950036"><ele>84.6</ele><time>2026-04-30T15:31:35.998Z</time></trkpt><trkpt lat="44.995199571684736" lon="9.665413975359685"><ele>84.4</ele><time>2026-04-30T15:31:36.998Z</time></trkpt><trkpt lat="44.995307503450604" lon="9.66546202559263"><ele>84.2</ele><time>2026-04-30T15:31:37.998Z</time></trkpt><trkpt lat="44.99540831412757" lon="9.665506088972682"><ele>84.0</ele><time>2026-04-30T15:31:38.998Z</time></trkpt><trkpt lat="44.99550524490773" lon="9.6655421935674"><ele>84.0</ele><time>2026-04-30T15:31:39.998Z</time></trkpt><trkpt lat="44.99561758773797" lon="9.665581930430932"><ele>84.0</ele><time>2026-04-30T15:31:40.998Z</time></trkpt><trkpt lat="44.9957081730142" lon="9.665613350588941"><ele>84.0</ele><time>2026-04-30T15:31:41.998Z</time></trkpt><trkpt lat="44.99580359568636" lon="9.665646448599132"><ele>84.0</ele><time>2026-04-30T15:31:42.998Z</time></trkpt><trkpt lat="44.99590776625312" lon="9.665683523891227"><ele>84.0</ele><time>2026-04-30T15:31:43.998Z</time></trkpt><trkpt lat="44.99600426331604" lon="9.665718109774938"><ele>84.25</ele><time>2026-04-30T15:31:44.998Z</time></trkpt><trkpt lat="44.996109710775904" lon="9.665755903480658"><ele>84.5</ele><time>2026-04-30T15:31:45.998Z</time></trkpt><trkpt lat="44.996227454368565" lon="9.665780528671133"><ele>84.75</ele><time>2026-04-30T15:31:46.998Z</time></trkpt><trkpt lat="44.99633737273361" lon="9.6658420967218"><ele>85.0</ele><time>2026-04-30T15:31:47.998Z</time></trkpt><trkpt lat="44.9964618511063" lon="9.665897468366786"><ele>85.0</ele><time>2026-04-30T15:31:48.998Z</time></trkpt><trkpt lat="44.99657485768115" lon="9.66594563389659"><ele>85.0</ele><time>2026-04-30T15:31:49.998Z</time></trkpt><trkpt lat="44.99668461276205" lon="9.666014333784435"><ele>85.0</ele><time>2026-04-30T15:31:50.998Z</time></trkpt><trkpt lat="44.996797962083086" lon="9.666081603003107"><ele>85.0</ele><time>2026-04-30T15:31:51.998Z</time></trkpt><trkpt lat="44.996912758804044" lon="9.66617861506565"><ele>84.5</ele><time>2026-04-30T15:31:52.998Z</time></trkpt><trkpt lat="44.997026429713124" lon="9.666256488002364"><ele>84.0</ele><time>2026-04-30T15:31:53.998Z</time></trkpt><trkpt lat="44.997137223584744" lon="9.66632282670188"><ele>83.5</ele><time>2026-04-30T15:31:54.998Z</time></trkpt><trkpt lat="44.99725106158242" lon="9.666391811907003"><ele>83.0</ele><time>2026-04-30T15:31:55.998Z</time></trkpt><trkpt lat="44.99735766461624" lon="9.666457064683614"><ele>83.0</ele><time>2026-04-30T15:31:56.998Z</time></trkpt><trkpt lat="44.997470675186094" lon="9.666525604765488"><ele>83.0</ele><time>2026-04-30T15:31:57.998Z</time></trkpt><trkpt lat="44.99760096218139" lon="9.666604057751893"><ele>83.0</ele><time>2026-04-30T15:31:58.998Z</time></trkpt><trkpt lat="44.99774018351849" lon="9.666687890187266"><ele>83.0</ele><time>2026-04-30T15:31:59.998Z</time></trkpt><trkpt lat="44.99788985448835" lon="9.66677566814231"><ele>82.66666666666667</ele><time>2026-04-30T15:32:00.998Z</time></trkpt><trkpt lat="44.99804327505303" lon="9.666860796516058"><ele>82.33333333333333</ele><time>2026-04-30T15:32:01.998Z</time></trkpt><trkpt lat="44.99818978734124" lon="9.666940348930837"><ele>82.0</ele><time>2026-04-30T15:32:02.998Z</time></trkpt><trkpt lat="44.998324749062306" lon="9.667013629477747"><ele>81.5</ele><time>2026-04-30T15:32:03.998Z</time></trkpt><trkpt lat="44.99846083542432" lon="9.66708513761299"><ele>81.0</ele><time>2026-04-30T15:32:04.998Z</time></trkpt><trkpt lat="44.99858942252954" lon="9.667152944128873"><ele>80.5</ele><time>2026-04-30T15:32:05.998Z</time></trkpt><trkpt lat="44.998701348059534" lon="9.667210602770323"><ele>80.0</ele><time>2026-04-30T15:32:06.998Z</time></trkpt><trkpt lat="44.99881391520375" lon="9.66726726591139"><ele>80.0</ele><time>2026-04-30T15:32:07.998Z</time></trkpt><trkpt lat="44.99892986011078" lon="9.667325627142038"><ele>80.0</ele><time>2026-04-30T15:32:08.998Z</time></trkpt><trkpt lat="44.99904812522363" lon="9.667385156455593"><ele>80.0</ele><time>2026-04-30T15:32:09.998Z</time></trkpt><trkpt lat="44.99917284420005" lon="9.66744679440369"><ele>80.0</ele><time>2026-04-30T15:32:10.998Z</time></trkpt><trkpt lat="44.99928618081709" lon="9.667502237309566"><ele>79.75</ele><time>2026-04-30T15:32:11.998Z</time></trkpt><trkpt lat="44.999413691439514" lon="9.667564614135838"><ele>79.5</ele><time>2026-04-30T15:32:12.998Z</time></trkpt><trkpt lat="44.9995439582552" lon="9.66762833891909"><ele>79.25</ele><time>2026-04-30T15:32:13.998Z</time></trkpt><trkpt lat="44.99967175456422" lon="9.667690855624699"><ele>79.0</ele><time>2026-04-30T15:32:14.998Z</time></trkpt><trkpt lat="44.99980065113388" lon="9.66775366119355"><ele>79.25</ele><time>2026-04-30T15:32:15.998Z</time></trkpt><trkpt lat="44.999911601381186" lon="9.66780767356152"><ele>79.5</ele><time>2026-04-30T15:32:16.998Z</time></trkpt><trkpt lat="45.00007233789889" lon="9.667885922349825"><ele>79.75</ele><time>2026-04-30T15:32:17.998Z</time></trkpt><trkpt lat="45.00021732962546" lon="9.667956507517642"><ele>80.0</ele><time>2026-04-30T15:32:18.998Z</time></trkpt><trkpt lat="45.00034350841798" lon="9.668016946664412"><ele>80.0</ele><time>2026-04-30T15:32:19.998Z</time></trkpt><trkpt lat="45.00046699768734" lon="9.668076307382764"><ele>80.0</ele><time>2026-04-30T15:32:20.998Z</time></trkpt><trkpt lat="45.000572469104" lon="9.668126693563993"><ele>80.0</ele><time>2026-04-30T15:32:21.998Z</time></trkpt><trkpt lat="45.000669577609855" lon="9.668173036720871"><ele>80.0</ele><time>2026-04-30T15:32:22.998Z</time></trkpt><trkpt lat="45.000782333209706" lon="9.66822684710805"><ele>80.0</ele><time>2026-04-30T15:32:23.998Z</time></trkpt><trkpt lat="45.00089601965272" lon="9.668281101784249"><ele>80.0</ele><time>2026-04-30T15:32:24.998Z</time></trkpt><trkpt lat="45.00101258824325" lon="9.66833713356181"><ele>80.0</ele><time>2026-04-30T15:32:25.998Z</time></trkpt><trkpt lat="45.00113399759158" lon="9.668395773483173"><ele>80.0</ele><time>2026-04-30T15:32:26.998Z</time></trkpt><trkpt lat="45.001279316748565" lon="9.668465961779939"><ele>80.0</ele><time>2026-04-30T15:32:27.998Z</time></trkpt><trkpt lat="45.001408914692895" lon="9.668528556877762"><ele>80.0</ele><time>2026-04-30T15:32:28.998Z</time></trkpt><trkpt lat="45.0015498485342" lon="9.668596627106833"><ele>80.0</ele><time>2026-04-30T15:32:29.998Z</time></trkpt><trkpt lat="45.00169767002021" lon="9.668668024066875"><ele>80.0</ele><time>2026-04-30T15:32:30.997Z</time></trkpt><trkpt lat="45.00183562338904" lon="9.668734615563393"><ele>80.33333333333334</ele><time>2026-04-30T15:32:31.997Z</time></trkpt><trkpt lat="45.00198666984969" lon="9.668807497811123"><ele>80.66666666666667</ele><time>2026-04-30T15:32:32.997Z</time></trkpt><trkpt lat="45.0021387881936" lon="9.668880897296429"><ele>81.0</ele><time>2026-04-30T15:32:33.997Z</time></trkpt><trkpt lat="45.002305647107654" lon="9.668961409356218"><ele>81.0</ele><time>2026-04-30T15:32:34.997Z</time></trkpt><trkpt lat="45.00248413829057" lon="9.669047534159187"><ele>81.0</ele><time>2026-04-30T15:32:35.997Z</time></trkpt><trkpt lat="45.002647091287166" lon="9.669126161493388"><ele>81.0</ele><time>2026-04-30T15:32:36.997Z</time></trkpt><trkpt lat="45.00281419012021" lon="9.669206789079638"><ele>80.66666666666667</ele><time>2026-04-30T15:32:37.997Z</time></trkpt><trkpt lat="45.00297406076437" lon="9.669282316334582"><ele>80.33333333333334</ele><time>2026-04-30T15:32:38.997Z</time></trkpt><trkpt lat="45.00312695051373" lon="9.669354656623403"><ele>80.0</ele><time>2026-04-30T15:32:39.997Z</time></trkpt><trkpt lat="45.00328403219453" lon="9.669428980380545"><ele>79.66666666666667</ele><time>2026-04-30T15:32:40.997Z</time></trkpt><trkpt lat="45.00344966467737" lon="9.669508543442515"><ele>79.33333333333333</ele><time>2026-04-30T15:32:41.997Z</time></trkpt><trkpt lat="45.00361804377395" lon="9.669592095020167"><ele>79.0</ele><time>2026-04-30T15:32:42.997Z</time></trkpt><trkpt lat="45.00379233147364" lon="9.669677711147713"><ele>79.0</ele><time>2026-04-30T15:32:43.997Z</time></trkpt><trkpt lat="45.00395887668816" lon="9.6697594440017"><ele>79.0</ele><time>2026-04-30T15:32:44.997Z</time></trkpt><trkpt lat="45.00411278007172" lon="9.66983499485574"><ele>79.0</ele><time>2026-04-30T15:32:45.997Z</time></trkpt><trkpt lat="45.00425942841117" lon="9.669907165460293"><ele>79.0</ele><time>2026-04-30T15:32:46.997Z</time></trkpt><trkpt lat="45.004398448080515" lon="9.669975581698434"><ele>79.0</ele><time>2026-04-30T15:32:47.997Z</time></trkpt><trkpt lat="45.004539643064405" lon="9.670045068433424"><ele>79.0</ele><time>2026-04-30T15:32:48.997Z</time></trkpt><trkpt lat="45.00468655501487" lon="9.670117368746553"><ele>79.0</ele><time>2026-04-30T15:32:49.997Z</time></trkpt><trkpt lat="45.00482020791288" lon="9.670183143840486"><ele>79.0</ele><time>2026-04-30T15:32:50.997Z</time></trkpt><trkpt lat="45.00495243968971" lon="9.670248219525984"><ele>79.0</ele><time>2026-04-30T15:32:51.997Z</time></trkpt><trkpt lat="45.00509931755907" lon="9.670320503047341"><ele>79.0</ele><time>2026-04-30T15:32:52.997Z</time></trkpt><trkpt lat="45.00525460036685" lon="9.67039692291627"><ele>78.33333333333333</ele><time>2026-04-30T15:32:53.997Z</time></trkpt><trkpt lat="45.00541595879915" lon="9.670472299449333"><ele>77.66666666666667</ele><time>2026-04-30T15:32:54.997Z</time></trkpt><trkpt lat="45.00558911375943" lon="9.670550186354772"><ele>77.0</ele><time>2026-04-30T15:32:55.997Z</time></trkpt><trkpt lat="45.005813227311414" lon="9.670650995062404"><ele>77.0</ele><time>2026-04-30T15:32:56.997Z</time></trkpt><trkpt lat="45.00600568332704" lon="9.670736804517228"><ele>77.0</ele><time>2026-04-30T15:32:57.997Z</time></trkpt><trkpt lat="45.006187572106825" lon="9.670817320535578"><ele>77.0</ele><time>2026-04-30T15:32:58.997Z</time></trkpt><trkpt lat="45.00635676162844" lon="9.67089221506511"><ele>77.0</ele><time>2026-04-30T15:32:59.997Z</time></trkpt><trkpt lat="45.00653648926979" lon="9.670971774433628"><ele>77.0</ele><time>2026-04-30T15:33:00.997Z</time></trkpt><trkpt lat="45.006740938557364" lon="9.67106227732851"><ele>77.0</ele><time>2026-04-30T15:33:01.997Z</time></trkpt><trkpt lat="45.00692710147458" lon="9.67114468540376"><ele>77.0</ele><time>2026-04-30T15:33:02.997Z</time></trkpt><trkpt lat="45.007078651735235" lon="9.671211770367545"><ele>77.0</ele><time>2026-04-30T15:33:03.997Z</time></trkpt><trkpt lat="45.00723521886138" lon="9.671282229005259"><ele>77.0</ele><time>2026-04-30T15:33:04.997Z</time></trkpt><trkpt lat="45.00738042421076" lon="9.671347273585248"><ele>77.0</ele><time>2026-04-30T15:33:05.997Z</time></trkpt><trkpt lat="45.00752593802474" lon="9.671413673344139"><ele>77.0</ele><time>2026-04-30T15:33:06.997Z</time></trkpt><trkpt lat="45.0076680364006" lon="9.671478674324865"><ele>77.0</ele><time>2026-04-30T15:33:07.997Z</time></trkpt><trkpt lat="45.00780727627198" lon="9.671542367669925"><ele>77.0</ele><time>2026-04-30T15:33:08.997Z</time></trkpt><trkpt lat="45.007935649453636" lon="9.671602726699483"><ele>77.0</ele><time>2026-04-30T15:33:09.997Z</time></trkpt><trkpt lat="45.0080604477499" lon="9.671663204375275"><ele>77.0</ele><time>2026-04-30T15:33:10.997Z</time></trkpt><trkpt lat="45.008194837146746" lon="9.671728329851799"><ele>77.0</ele><time>2026-04-30T15:33:11.997Z</time></trkpt><trkpt lat="45.008327243504944" lon="9.671794787371127"><ele>77.0</ele><time>2026-04-30T15:33:12.997Z</time></trkpt><trkpt lat="45.008463113370574" lon="9.671864427349442"><ele>77.0</ele><time>2026-04-30T15:33:13.997Z</time></trkpt><trkpt lat="45.00859933357769" lon="9.671934055502078"><ele>77.0</ele><time>2026-04-30T15:33:14.997Z</time></trkpt><trkpt lat="45.00872402117061" lon="9.671997787061834"><ele>77.0</ele><time>2026-04-30T15:33:15.997Z</time></trkpt><trkpt lat="45.0088593550556" lon="9.672066960376352"><ele>77.0</ele><time>2026-04-30T15:33:16.997Z</time></trkpt><trkpt lat="45.00899788059315" lon="9.672137764911497"><ele>77.0</ele><time>2026-04-30T15:33:17.997Z</time></trkpt><trkpt lat="45.00913894928284" lon="9.672209869412415"><ele>77.0</ele><time>2026-04-30T15:33:18.997Z</time></trkpt><trkpt lat="45.009272575698446" lon="9.672278169938172"><ele>77.0</ele><time>2026-04-30T15:33:19.997Z</time></trkpt><trkpt lat="45.00940100361294" lon="9.67234664873902"><ele>77.0</ele><time>2026-04-30T15:33:20.997Z</time></trkpt><trkpt lat="45.00952183214037" lon="9.67241268794819"><ele>76.25</ele><time>2026-04-30T15:33:21.997Z</time></trkpt><trkpt lat="45.00964926912886" lon="9.672482339203594"><ele>75.5</ele><time>2026-04-30T15:33:22.997Z</time></trkpt><trkpt lat="45.009756278968254" lon="9.67254082588906"><ele>74.75</ele><time>2026-04-30T15:33:23.997Z</time></trkpt><trkpt lat="45.009861624661575" lon="9.672599413887177"><ele>74.0</ele><time>2026-04-30T15:33:24.997Z</time></trkpt><trkpt lat="45.0099562282196" lon="9.672660470315037"><ele>74.0</ele><time>2026-04-30T15:33:25.997Z</time></trkpt><trkpt lat="45.01002735059059" lon="9.672712148316137"><ele>74.0</ele><time>2026-04-30T15:33:26.997Z</time></trkpt><trkpt lat="45.01009085462717" lon="9.672758291787611"><ele>74.0</ele><time>2026-04-30T15:33:27.997Z</time></trkpt><trkpt lat="45.01018055435653" lon="9.67279460503941"><ele>74.0</ele><time>2026-04-30T15:33:29.997Z</time></trkpt><trkpt lat="45.01023750219909" lon="9.672868325098932"><ele>74.0</ele><time>2026-04-30T15:33:31.997Z</time></trkpt><trkpt lat="45.010304182571275" lon="9.672983940301929"><ele>74.0</ele><time>2026-04-30T15:33:33.997Z</time></trkpt><trkpt lat="45.010376334782755" lon="9.673139624605199"><ele>73.8</ele><time>2026-04-30T15:33:35.997Z</time></trkpt><trkpt lat="45.01048250875544" lon="9.67315544542694"><ele>73.60000000000001</ele><time>2026-04-30T15:33:36.997Z</time></trkpt><trkpt lat="45.010536775295535" lon="9.67309960783634"><ele>73.4</ele><time>2026-04-30T15:33:37.997Z</time></trkpt><trkpt lat="45.010682616925635" lon="9.673087079176486"><ele>73.2</ele><time>2026-04-30T15:33:39.997Z</time></trkpt><trkpt lat="45.01075853543536" lon="9.6730245604317"><ele>73.0</ele><time>2026-04-30T15:33:40.997Z</time></trkpt><trkpt lat="45.010832108454224" lon="9.673094735013601"><ele>73.6</ele><time>2026-04-30T15:33:41.996Z</time></trkpt><trkpt lat="45.01092682230927" lon="9.673138850098956"><ele>74.19999999999999</ele><time>2026-04-30T15:33:42.996Z</time></trkpt><trkpt lat="45.01102625555606" lon="9.673185163333244"><ele>74.8</ele><time>2026-04-30T15:33:43.996Z</time></trkpt><trkpt lat="45.01112843374908" lon="9.673232755176985"><ele>75.39999999999999</ele><time>2026-04-30T15:33:44.996Z</time></trkpt><trkpt lat="45.01124144620477" lon="9.67328539321451"><ele>76.0</ele><time>2026-04-30T15:33:45.996Z</time></trkpt><trkpt lat="45.011361121891404" lon="9.67334113483115"><ele>76.0</ele><time>2026-04-30T15:33:46.996Z</time></trkpt><trkpt lat="45.01148522990598" lon="9.673399224239438"><ele>76.0</ele><time>2026-04-30T15:33:47.996Z</time></trkpt><trkpt lat="45.011621376226636" lon="9.673445909116968"><ele>76.0</ele><time>2026-04-30T15:33:48.996Z</time></trkpt><trkpt lat="45.0117405092084" lon="9.673526787441824"><ele>76.0</ele><time>2026-04-30T15:33:49.996Z</time></trkpt><trkpt lat="45.01186176041816" lon="9.673587376771865"><ele>75.5</ele><time>2026-04-30T15:33:50.996Z</time></trkpt><trkpt lat="45.011992267481695" lon="9.673652591329425"><ele>75.0</ele><time>2026-04-30T15:33:51.996Z</time></trkpt><trkpt lat="45.012127949118074" lon="9.673720391448596"><ele>74.5</ele><time>2026-04-30T15:33:52.996Z</time></trkpt><trkpt lat="45.01226576108356" lon="9.673789085288586"><ele>74.0</ele><time>2026-04-30T15:33:53.996Z</time></trkpt><trkpt lat="45.01240952063845" lon="9.673860699081466"><ele>73.66666666666667</ele><time>2026-04-30T15:33:54.996Z</time></trkpt><trkpt lat="45.01257222628157" lon="9.673941750903227"><ele>73.33333333333333</ele><time>2026-04-30T15:33:55.996Z</time></trkpt><trkpt lat="45.01273428768502" lon="9.674022481709537"><ele>73.0</ele><time>2026-04-30T15:33:56.996Z</time></trkpt><trkpt lat="45.012913570334916" lon="9.67411131281597"><ele>73.0</ele><time>2026-04-30T15:33:57.996Z</time></trkpt><trkpt lat="45.013103279865526" lon="9.674203318837844"><ele>73.0</ele><time>2026-04-30T15:33:58.996Z</time></trkpt><trkpt lat="45.01330097560529" lon="9.674299199933794"><ele>73.0</ele><time>2026-04-30T15:33:59.996Z</time></trkpt><trkpt lat="45.013511776352715" lon="9.674400530556612"><ele>73.5</ele><time>2026-04-30T15:34:00.996Z</time></trkpt><trkpt lat="45.01373695790894" lon="9.674507291107505"><ele>74.0</ele><time>2026-04-30T15:34:01.996Z</time></trkpt><trkpt lat="45.01395222785079" lon="9.674609352663442"><ele>73.66666666666667</ele><time>2026-04-30T15:34:02.996Z</time></trkpt><trkpt lat="45.014159541517124" lon="9.674707641984675"><ele>73.33333333333333</ele><time>2026-04-30T15:34:03.996Z</time></trkpt><trkpt lat="45.01435632303354" lon="9.67479988761324"><ele>73.0</ele><time>2026-04-30T15:34:04.996Z</time></trkpt><trkpt lat="45.01456366171379" lon="9.67489691071762"><ele>73.0</ele><time>2026-04-30T15:34:05.996Z</time></trkpt><trkpt lat="45.01476426608337" lon="9.674990781905683"><ele>73.0</ele><time>2026-04-30T15:34:06.996Z</time></trkpt><trkpt lat="45.01496055719436" lon="9.675082635429552"><ele>73.0</ele><time>2026-04-30T15:34:07.996Z</time></trkpt><trkpt lat="45.015153262225034" lon="9.675172547915443"><ele>72.33333333333333</ele><time>2026-04-30T15:34:08.996Z</time></trkpt><trkpt lat="45.01533733861975" lon="9.675258165496883"><ele>71.66666666666667</ele><time>2026-04-30T15:34:09.996Z</time></trkpt><trkpt lat="45.0155172980913" lon="9.675341868241164"><ele>71.0</ele><time>2026-04-30T15:34:10.996Z</time></trkpt><trkpt lat="45.01568825465744" lon="9.6754213833736"><ele>72.0</ele><time>2026-04-30T15:34:11.996Z</time></trkpt><trkpt lat="45.01583661817922" lon="9.67549038992985"><ele>73.0</ele><time>2026-04-30T15:34:12.996Z</time></trkpt><trkpt lat="45.01598571143686" lon="9.675558700401991"><ele>74.0</ele><time>2026-04-30T15:34:13.996Z</time></trkpt><trkpt lat="45.016125600093794" lon="9.675622848728601"><ele>74.0</ele><time>2026-04-30T15:34:14.996Z</time></trkpt><trkpt lat="45.01626915289887" lon="9.675688677309047"><ele>74.0</ele><time>2026-04-30T15:34:15.996Z</time></trkpt><trkpt lat="45.01641575462545" lon="9.675755904213627"><ele>74.0</ele><time>2026-04-30T15:34:16.996Z</time></trkpt><trkpt lat="45.0165361438539" lon="9.675811580139515"><ele>74.0</ele><time>2026-04-30T15:34:17.996Z</time></trkpt><trkpt lat="45.01666321662415" lon="9.675869676067444"><ele>73.75</ele><time>2026-04-30T15:34:18.996Z</time></trkpt><trkpt lat="45.016801354060014" lon="9.675932830614554"><ele>73.5</ele><time>2026-04-30T15:34:19.996Z</time></trkpt><trkpt lat="45.016938103316456" lon="9.675998426591715"><ele>73.25</ele><time>2026-04-30T15:34:20.996Z</time></trkpt><trkpt lat="45.017084254867115" lon="9.676071193611019"><ele>73.0</ele><time>2026-04-30T15:34:21.996Z</time></trkpt><trkpt lat="45.017235556309316" lon="9.676148001910738"><ele>73.0</ele><time>2026-04-30T15:34:22.996Z</time></trkpt><trkpt lat="45.01737370414598" lon="9.676222783750086"><ele>73.0</ele><time>2026-04-30T15:34:23.996Z</time></trkpt><trkpt lat="45.017505957039475" lon="9.676296288765558"><ele>73.0</ele><time>2026-04-30T15:34:24.996Z</time></trkpt><trkpt lat="45.0176296548937" lon="9.676365240556523"><ele>73.0</ele><time>2026-04-30T15:34:25.996Z</time></trkpt><trkpt lat="45.01775513092824" lon="9.676435183548765"><ele>73.0</ele><time>2026-04-30T15:34:26.996Z</time></trkpt><trkpt lat="45.01787766064135" lon="9.67650348419895"><ele>73.0</ele><time>2026-04-30T15:34:27.996Z</time></trkpt><trkpt lat="45.01801001681163" lon="9.676577262366287"><ele>73.0</ele><time>2026-04-30T15:34:28.996Z</time></trkpt><trkpt lat="45.018135466235044" lon="9.676647890830207"><ele>73.0</ele><time>2026-04-30T15:34:29.996Z</time></trkpt><trkpt lat="45.01826352453147" lon="9.676719893810619"><ele>73.0</ele><time>2026-04-30T15:34:30.996Z</time></trkpt><trkpt lat="45.018413491612876" lon="9.676804215379972"><ele>73.0</ele><time>2026-04-30T15:34:31.996Z</time></trkpt><trkpt lat="45.01854677218469" lon="9.676879154675351"><ele>73.0</ele><time>2026-04-30T15:34:32.996Z</time></trkpt><trkpt lat="45.018680480093" lon="9.67695348743208"><ele>73.0</ele><time>2026-04-30T15:34:33.996Z</time></trkpt><trkpt lat="45.01882904914299" lon="9.677035672294567"><ele>73.0</ele><time>2026-04-30T15:34:34.996Z</time></trkpt><trkpt lat="45.018972862248695" lon="9.677115226278827"><ele>73.0</ele><time>2026-04-30T15:34:35.996Z</time></trkpt><trkpt lat="45.01912065011999" lon="9.677196979010114"><ele>73.0</ele><time>2026-04-30T15:34:36.996Z</time></trkpt><trkpt lat="45.01927192692538" lon="9.677280609625717"><ele>73.0</ele><time>2026-04-30T15:34:37.996Z</time></trkpt><trkpt lat="45.0194100602782" lon="9.677357655553516"><ele>73.0</ele><time>2026-04-30T15:34:38.996Z</time></trkpt><trkpt lat="45.019555679706265" lon="9.677439090660425"><ele>73.0</ele><time>2026-04-30T15:34:39.996Z</time></trkpt><trkpt lat="45.019710778775575" lon="9.677525837541053"><ele>73.0</ele><time>2026-04-30T15:34:40.996Z</time></trkpt><trkpt lat="45.0198669747734" lon="9.677613197950558"><ele>73.0</ele><time>2026-04-30T15:34:41.996Z</time></trkpt><trkpt lat="45.020023024586244" lon="9.677700183863438"><ele>73.0</ele><time>2026-04-30T15:34:42.996Z</time></trkpt><trkpt lat="45.020162992076195" lon="9.677777275702006"><ele>72.75</ele><time>2026-04-30T15:34:43.996Z</time></trkpt><trkpt lat="45.02030264726276" lon="9.67785419552299"><ele>72.5</ele><time>2026-04-30T15:34:44.996Z</time></trkpt><trkpt lat="45.02044842806565" lon="9.677934490979675"><ele>72.25</ele><time>2026-04-30T15:34:45.996Z</time></trkpt><trkpt lat="45.02057780482254" lon="9.678005749628806"><ele>72.0</ele><time>2026-04-30T15:34:46.996Z</time></trkpt><trkpt lat="45.02071477458012" lon="9.678082027039126"><ele>72.0</ele><time>2026-04-30T15:34:47.996Z</time></trkpt><trkpt lat="45.02084587792717" lon="9.678154846355605"><ele>72.0</ele><time>2026-04-30T15:34:48.996Z</time></trkpt><trkpt lat="45.020982938099806" lon="9.678230955556355"><ele>72.0</ele><time>2026-04-30T15:34:49.996Z</time></trkpt><trkpt lat="45.021126029480676" lon="9.67831041387687"><ele>72.0</ele><time>2026-04-30T15:34:50.996Z</time></trkpt><trkpt lat="45.02126469174115" lon="9.678387412712667"><ele>72.0</ele><time>2026-04-30T15:34:51.996Z</time></trkpt><trkpt lat="45.021406360473954" lon="9.678466081039007"><ele>72.0</ele><time>2026-04-30T15:34:52.995Z</time></trkpt><trkpt lat="45.02154342297677" lon="9.678542386458123"><ele>72.0</ele><time>2026-04-30T15:34:53.995Z</time></trkpt><trkpt lat="45.02168080471436" lon="9.678618869110931"><ele>72.0</ele><time>2026-04-30T15:34:54.995Z</time></trkpt><trkpt lat="45.021794438919045" lon="9.678682131122576"><ele>71.75</ele><time>2026-04-30T15:34:55.995Z</time></trkpt><trkpt lat="45.02190272414647" lon="9.678742415210928"><ele>71.5</ele><time>2026-04-30T15:34:56.995Z</time></trkpt><trkpt lat="45.02202889428805" lon="9.678809767601706"><ele>71.25</ele><time>2026-04-30T15:34:57.995Z</time></trkpt><trkpt lat="45.02215977800675" lon="9.678871921322738"><ele>71.0</ele><time>2026-04-30T15:34:58.995Z</time></trkpt><trkpt lat="45.02229187549664" lon="9.678926550385539"><ele>71.0</ele><time>2026-04-30T15:34:59.995Z</time></trkpt><trkpt lat="45.02242466170608" lon="9.678975553894897"><ele>71.0</ele><time>2026-04-30T15:35:00.995Z</time></trkpt><trkpt lat="45.02255122000979" lon="9.679014167478302"><ele>71.0</ele><time>2026-04-30T15:35:01.995Z</time></trkpt><trkpt lat="45.02267208875769" lon="9.679049031957147"><ele>71.0</ele><time>2026-04-30T15:35:02.995Z</time></trkpt><trkpt lat="45.022793593441506" lon="9.679083412329383"><ele>71.0</ele><time>2026-04-30T15:35:03.995Z</time></trkpt><trkpt lat="45.022919246408755" lon="9.679118966482001"><ele>71.0</ele><time>2026-04-30T15:35:04.995Z</time></trkpt><trkpt lat="45.023034519067096" lon="9.67915070464422"><ele>71.0</ele><time>2026-04-30T15:35:05.995Z</time></trkpt><trkpt lat="45.023166133456826" lon="9.679162754138172"><ele>71.0</ele><time>2026-04-30T15:35:06.995Z</time></trkpt><trkpt lat="45.023290485175146" lon="9.67922039920805"><ele>70.5</ele><time>2026-04-30T15:35:07.995Z</time></trkpt><trkpt lat="45.02340967865051" lon="9.679265158160986"><ele>70.0</ele><time>2026-04-30T15:35:08.995Z</time></trkpt><trkpt lat="45.023539088500165" lon="9.67932856366159"><ele>69.5</ele><time>2026-04-30T15:35:09.995Z</time></trkpt><trkpt lat="45.023665322913594" lon="9.679391426996968"><ele>69.0</ele><time>2026-04-30T15:35:10.995Z</time></trkpt><trkpt lat="45.02378783800736" lon="9.679456694774231"><ele>69.0</ele><time>2026-04-30T15:35:11.995Z</time></trkpt><trkpt lat="45.02390815584885" lon="9.679530039476909"><ele>69.0</ele><time>2026-04-30T15:35:12.995Z</time></trkpt><trkpt lat="45.02403053725765" lon="9.679603411340965"><ele>69.0</ele><time>2026-04-30T15:35:13.995Z</time></trkpt><trkpt lat="45.02415360025601" lon="9.679635046226538"><ele>69.0</ele><time>2026-04-30T15:35:14.995Z</time></trkpt><trkpt lat="45.024296083495535" lon="9.679720477953843"><ele>68.75</ele><time>2026-04-30T15:35:15.995Z</time></trkpt><trkpt lat="45.02442272989641" lon="9.679780022103337"><ele>68.5</ele><time>2026-04-30T15:35:16.995Z</time></trkpt><trkpt lat="45.02455382459794" lon="9.679841657663001"><ele>68.25</ele><time>2026-04-30T15:35:17.995Z</time></trkpt><trkpt lat="45.02467896784095" lon="9.679900495089326"><ele>68.0</ele><time>2026-04-30T15:35:18.995Z</time></trkpt><trkpt lat="45.02481077671178" lon="9.679962466424273"><ele>68.0</ele><time>2026-04-30T15:35:19.995Z</time></trkpt><trkpt lat="45.02494454854257" lon="9.680025360709719"><ele>68.0</ele><time>2026-04-30T15:35:20.995Z</time></trkpt><trkpt lat="45.02508047542717" lon="9.680089268096213"><ele>68.0</ele><time>2026-04-30T15:35:21.995Z</time></trkpt><trkpt lat="45.0252137525889" lon="9.680152259046233"><ele>68.0</ele><time>2026-04-30T15:35:22.995Z</time></trkpt><trkpt lat="45.025341829529495" lon="9.680212831821777"><ele>67.75</ele><time>2026-04-30T15:35:23.995Z</time></trkpt><trkpt lat="45.025473796476795" lon="9.680275532687618"><ele>67.5</ele><time>2026-04-30T15:35:24.995Z</time></trkpt><trkpt lat="45.02560872885549" lon="9.680340354749513"><ele>67.25</ele><time>2026-04-30T15:35:25.995Z</time></trkpt><trkpt lat="45.02575222934071" lon="9.680409292971655"><ele>67.0</ele><time>2026-04-30T15:35:26.995Z</time></trkpt><trkpt lat="45.02587954966016" lon="9.680470458179618"><ele>67.0</ele><time>2026-04-30T15:35:27.995Z</time></trkpt><trkpt lat="45.0260045872391" lon="9.680530892085963"><ele>67.0</ele><time>2026-04-30T15:35:28.995Z</time></trkpt><trkpt lat="45.0261382815169" lon="9.68059555633115"><ele>67.0</ele><time>2026-04-30T15:35:29.995Z</time></trkpt><trkpt lat="45.02626840472899" lon="9.680658537492402"><ele>67.0</ele><time>2026-04-30T15:35:30.995Z</time></trkpt><trkpt lat="45.02638068396019" lon="9.680713268379677"><ele>67.0</ele><time>2026-04-30T15:35:31.995Z</time></trkpt><trkpt lat="45.0264904138974" lon="9.68077161650311"><ele>67.0</ele><time>2026-04-30T15:35:32.995Z</time></trkpt><trkpt lat="45.02659323221728" lon="9.680838587545807"><ele>67.0</ele><time>2026-04-30T15:35:33.995Z</time></trkpt><trkpt lat="45.026694137057014" lon="9.680917038014249"><ele>67.0</ele><time>2026-04-30T15:35:34.995Z</time></trkpt><trkpt lat="45.0267908597439" lon="9.681007644170762"><ele>66.5</ele><time>2026-04-30T15:35:35.995Z</time></trkpt><trkpt lat="45.02689545727123" lon="9.681128079646099"><ele>66.0</ele><time>2026-04-30T15:35:36.995Z</time></trkpt><trkpt lat="45.02700508560586" lon="9.681279497116243"><ele>65.5</ele><time>2026-04-30T15:35:37.995Z</time></trkpt><trkpt lat="45.027090361988705" lon="9.68141764372692"><ele>65.0</ele><time>2026-04-30T15:35:38.995Z</time></trkpt><trkpt lat="45.02717381585376" lon="9.681571613379267"><ele>65.0</ele><time>2026-04-30T15:35:39.995Z</time></trkpt><trkpt lat="45.027242409198884" lon="9.681711548062971"><ele>65.0</ele><time>2026-04-30T15:35:40.995Z</time></trkpt><trkpt lat="45.027329401511814" lon="9.681856137349403"><ele>65.0</ele><time>2026-04-30T15:35:41.995Z</time></trkpt><trkpt lat="45.02739047379578" lon="9.682032977498869"><ele>65.0</ele><time>2026-04-30T15:35:42.995Z</time></trkpt><trkpt lat="45.02744301379661" lon="9.682152470337227"><ele>64.6</ele><time>2026-04-30T15:35:43.995Z</time></trkpt><trkpt lat="45.02750357145896" lon="9.68228871010367"><ele>64.2</ele><time>2026-04-30T15:35:44.995Z</time></trkpt><trkpt lat="45.027565680114485" lon="9.682360503784565"><ele>63.8</ele><time>2026-04-30T15:35:45.995Z</time></trkpt><trkpt lat="45.02757885591815" lon="9.682473944170985"><ele>63.4</ele><time>2026-04-30T15:35:54.995Z</time></trkpt><trkpt lat="45.027518249364206" lon="9.682609119384413"><ele>63.0</ele><time>2026-04-30T15:35:55.995Z</time></trkpt><trkpt lat="45.027512811564776" lon="9.682725394842269"><ele>63.2</ele><time>2026-04-30T15:35:56.995Z</time></trkpt><trkpt lat="45.02751761390827" lon="9.682851020675217"><ele>63.4</ele><time>2026-04-30T15:35:57.995Z</time></trkpt><trkpt lat="45.027525502965666" lon="9.682971661709573"><ele>63.60000000000001</ele><time>2026-04-30T15:35:58.995Z</time></trkpt><trkpt lat="45.02754062531829" lon="9.683114204173519"><ele>63.800000000000004</ele><time>2026-04-30T15:35:59.995Z</time></trkpt><trkpt lat="45.02758626522305" lon="9.683239264388446"><ele>64.0</ele><time>2026-04-30T15:36:00.995Z</time></trkpt><trkpt lat="45.02760706865463" lon="9.683411295061564"><ele>63.75</ele><time>2026-04-30T15:36:01.995Z</time></trkpt><trkpt lat="45.02762046529119" lon="9.68360686126327"><ele>63.5</ele><time>2026-04-30T15:36:02.995Z</time></trkpt><trkpt lat="45.027615232880606" lon="9.683807175020542"><ele>63.25</ele><time>2026-04-30T15:36:03.994Z</time></trkpt><trkpt lat="45.02760810554599" lon="9.684020952344081"><ele>63.0</ele><time>2026-04-30T15:36:04.994Z</time></trkpt><trkpt lat="45.027590998013515" lon="9.684240019523637"><ele>62.33333333333333</ele><time>2026-04-30T15:36:05.994Z</time></trkpt><trkpt lat="45.02757719391438" lon="9.684469873546751"><ele>61.666666666666664</ele><time>2026-04-30T15:36:06.994Z</time></trkpt><trkpt lat="45.027544641292884" lon="9.68470131299263"><ele>61.0</ele><time>2026-04-30T15:36:07.994Z</time></trkpt><trkpt lat="45.02753757740991" lon="9.684906069939165"><ele>61.0</ele><time>2026-04-30T15:36:08.994Z</time></trkpt><trkpt lat="45.02756653658545" lon="9.685168249369136"><ele>61.0</ele><time>2026-04-30T15:36:09.994Z</time></trkpt><trkpt lat="45.027602297394345" lon="9.685408611188882"><ele>61.0</ele><time>2026-04-30T15:36:10.994Z</time></trkpt><trkpt lat="45.0275659543294" lon="9.685657776254097"><ele>61.666666666666664</ele><time>2026-04-30T15:36:11.994Z</time></trkpt><trkpt lat="45.027544265265526" lon="9.685904879735473"><ele>62.33333333333333</ele><time>2026-04-30T15:36:12.994Z</time></trkpt><trkpt lat="45.02752296582127" lon="9.686156769618467"><ele>63.0</ele><time>2026-04-30T15:36:13.994Z</time></trkpt><trkpt lat="45.027501041673446" lon="9.686416047413298"><ele>63.0</ele><time>2026-04-30T15:36:14.994Z</time></trkpt><trkpt lat="45.0274809586049" lon="9.686653552300424"><ele>63.0</ele><time>2026-04-30T15:36:15.994Z</time></trkpt><trkpt lat="45.0274578474452" lon="9.68692686772788"><ele>63.0</ele><time>2026-04-30T15:36:16.994Z</time></trkpt><trkpt lat="45.02743611704182" lon="9.687183854822345"><ele>63.33333333333333</ele><time>2026-04-30T15:36:17.994Z</time></trkpt><trkpt lat="45.02740516245361" lon="9.687417617251612"><ele>63.666666666666664</ele><time>2026-04-30T15:36:18.994Z</time></trkpt><trkpt lat="45.02737451071394" lon="9.687666924103096"><ele>64.0</ele><time>2026-04-30T15:36:19.994Z</time></trkpt><trkpt lat="45.02733876616869" lon="9.687906880160746"><ele>63.33333333333333</ele><time>2026-04-30T15:36:20.995Z</time></trkpt><trkpt lat="45.0273001934756" lon="9.688151029148328"><ele>62.66666666666667</ele><time>2026-04-30T15:36:21.995Z</time></trkpt><trkpt lat="45.02724576214784" lon="9.688418205597783"><ele>62.0</ele><time>2026-04-30T15:36:22.995Z</time></trkpt><trkpt lat="45.02720577306688" lon="9.688682484954585"><ele>62.0</ele><time>2026-04-30T15:36:23.995Z</time></trkpt><trkpt lat="45.027177659186016" lon="9.688937998513152"><ele>62.0</ele><time>2026-04-30T15:36:24.995Z</time></trkpt><trkpt lat="45.027143267621945" lon="9.689205747447172"><ele>62.0</ele><time>2026-04-30T15:36:25.995Z</time></trkpt><trkpt lat="45.027100022602106" lon="9.689474524168274"><ele>62.0</ele><time>2026-04-30T15:36:26.995Z</time></trkpt><trkpt lat="45.02706282381107" lon="9.689741088210134"><ele>62.0</ele><time>2026-04-30T15:36:27.995Z</time></trkpt><trkpt lat="45.02702134990915" lon="9.68999949639673"><ele>62.0</ele><time>2026-04-30T15:36:28.995Z</time></trkpt><trkpt lat="45.02698809149067" lon="9.690230191829409"><ele>62.5</ele><time>2026-04-30T15:36:29.995Z</time></trkpt><trkpt lat="45.02695223406219" lon="9.69042582426375"><ele>63.0</ele><time>2026-04-30T15:36:30.995Z</time></trkpt><trkpt lat="45.026924156382805" lon="9.690632054144007"><ele>63.5</ele><time>2026-04-30T15:36:31.995Z</time></trkpt><trkpt lat="45.02690134368068" lon="9.690818855241213"><ele>64.0</ele><time>2026-04-30T15:36:32.995Z</time></trkpt><trkpt lat="45.02692034634598" lon="9.691027850197706"><ele>63.75</ele><time>2026-04-30T15:36:33.995Z</time></trkpt><trkpt lat="45.02691862540205" lon="9.691193249049025"><ele>63.5</ele><time>2026-04-30T15:36:34.995Z</time></trkpt><trkpt lat="45.02689188485741" lon="9.69137052983982"><ele>63.25</ele><time>2026-04-30T15:36:35.995Z</time></trkpt><trkpt lat="45.02687198190953" lon="9.69152434328658"><ele>63.0</ele><time>2026-04-30T15:36:36.995Z</time></trkpt><trkpt lat="45.026855660910186" lon="9.691682905407916"><ele>63.0</ele><time>2026-04-30T15:36:37.995Z</time></trkpt><trkpt lat="45.026835879757805" lon="9.691820644132216"><ele>63.0</ele><time>2026-04-30T15:36:38.995Z</time></trkpt><trkpt lat="45.02683689924722" lon="9.691969095919807"><ele>63.0</ele><time>2026-04-30T15:36:39.995Z</time></trkpt><trkpt lat="45.02684942501522" lon="9.692062026054135"><ele>63.0</ele><time>2026-04-30T15:36:40.995Z</time></trkpt><trkpt lat="45.02685365559239" lon="9.692190776885477"><ele>63.0</ele><time>2026-04-30T15:36:41.995Z</time></trkpt><trkpt lat="45.0268664437532" lon="9.692321144674194"><ele>63.4</ele><time>2026-04-30T15:36:43.995Z</time></trkpt><trkpt lat="45.0268192899327" lon="9.692519553390301"><ele>63.8</ele><time>2026-04-30T15:36:55.001Z</time></trkpt><trkpt lat="45.0268258734218" lon="9.6926572410895"><ele>64.2</ele><time>2026-04-30T15:36:56.001Z</time></trkpt><trkpt lat="45.026815427074766" lon="9.69278776268754"><ele>64.6</ele><time>2026-04-30T15:36:57.001Z</time></trkpt><trkpt lat="45.02686209655539" lon="9.692898213908277"><ele>65.0</ele><time>2026-04-30T15:36:58.001Z</time></trkpt><trkpt lat="45.02691863241116" lon="9.692955908303194"><ele>65.16666666666667</ele><time>2026-04-30T15:36:59.001Z</time></trkpt><trkpt lat="45.02697753694179" lon="9.693007706007489"><ele>65.33333333333334</ele><time>2026-04-30T15:37:00.001Z</time></trkpt><trkpt lat="45.02709473955446" lon="9.69298251129322"><ele>65.5</ele><time>2026-04-30T15:37:02.001Z</time></trkpt><trkpt lat="45.02715583005349" lon="9.692924824860894"><ele>65.66666666666667</ele><time>2026-04-30T15:37:03.001Z</time></trkpt><trkpt lat="45.0272196852204" lon="9.6929088372007"><ele>65.83333333333333</ele><time>2026-04-30T15:37:04.001Z</time></trkpt><trkpt lat="45.027293979652214" lon="9.692931328024061"><ele>66.0</ele><time>2026-04-30T15:37:05.001Z</time></trkpt><trkpt lat="45.02737313717356" lon="9.692977188772307"><ele>66.0</ele><time>2026-04-30T15:37:06.001Z</time></trkpt><trkpt lat="45.027459980648615" lon="9.693030541946737"><ele>66.0</ele><time>2026-04-30T15:37:07.001Z</time></trkpt><trkpt lat="45.027569014663875" lon="9.693094897406066"><ele>66.0</ele><time>2026-04-30T15:37:08.001Z</time></trkpt><trkpt lat="45.02767656114273" lon="9.69316113438904"><ele>66.0</ele><time>2026-04-30T15:37:09.001Z</time></trkpt><trkpt lat="45.02777773965168" lon="9.693227742720413"><ele>66.0</ele><time>2026-04-30T15:37:10.001Z</time></trkpt><trkpt lat="45.02788932746127" lon="9.693313396348683"><ele>65.75</ele><time>2026-04-30T15:37:11.001Z</time></trkpt><trkpt lat="45.0280131198823" lon="9.693415077970593"><ele>65.5</ele><time>2026-04-30T15:37:12.001Z</time></trkpt><trkpt lat="45.028127527953586" lon="9.693511035735375"><ele>65.25</ele><time>2026-04-30T15:37:13.001Z</time></trkpt><trkpt lat="45.028227978342194" lon="9.693600238711925"><ele>65.0</ele><time>2026-04-30T15:37:14Z</time></trkpt><trkpt lat="45.028309695735395" lon="9.69367946472111"><ele>64.5</ele><time>2026-04-30T15:37:15Z</time></trkpt><trkpt lat="45.028360313488406" lon="9.693748617376194"><ele>64.0</ele><time>2026-04-30T15:37:16Z</time></trkpt><trkpt lat="45.02840319165158" lon="9.693823296478028"><ele>63.5</ele><time>2026-04-30T15:37:17Z</time></trkpt><trkpt lat="45.02837273916826" lon="9.693916702190641"><ele>63.0</ele><time>2026-04-30T15:37:18Z</time></trkpt><trkpt lat="45.02844483082844" lon="9.694065283382535"><ele>62.50000000000001</ele><time>2026-04-30T15:37:19Z</time></trkpt><trkpt lat="45.02853481758367" lon="9.694095707871325"><ele>62.0</ele><time>2026-04-30T15:37:20Z</time></trkpt><trkpt lat="45.028633557886" lon="9.694066714239268"><ele>62.0</ele><time>2026-04-30T15:37:21Z</time></trkpt><trkpt lat="45.02870916306717" lon="9.694022514420881"><ele>62.0</ele><time>2026-04-30T15:37:22Z</time></trkpt><trkpt lat="45.02878994161116" lon="9.694053420382938"><ele>62.0</ele><time>2026-04-30T15:37:23Z</time></trkpt><trkpt lat="45.028875896822086" lon="9.694120991111676"><ele>62.0</ele><time>2026-04-30T15:37:24Z</time></trkpt><trkpt lat="45.028977645910004" lon="9.694225266745981"><ele>62.0</ele><time>2026-04-30T15:37:25Z</time></trkpt><trkpt lat="45.029104838058146" lon="9.694340038745583"><ele>61.66666666666667</ele><time>2026-04-30T15:37:26Z</time></trkpt><trkpt lat="45.02924689098062" lon="9.69445999445094"><ele>61.33333333333333</ele><time>2026-04-30T15:37:27Z</time></trkpt><trkpt lat="45.02939018173726" lon="9.694565866166055"><ele>61.0</ele><time>2026-04-30T15:37:28Z</time></trkpt><trkpt lat="45.02953530904526" lon="9.694652364783325"><ele>61.0</ele><time>2026-04-30T15:37:29Z</time></trkpt><trkpt lat="45.029680071781065" lon="9.694759313533865"><ele>61.0</ele><time>2026-04-30T15:37:30Z</time></trkpt><trkpt lat="45.029819618873844" lon="9.694880344530095"><ele>61.0</ele><time>2026-04-30T15:37:31Z</time></trkpt><trkpt lat="45.02996954867905" lon="9.694999649564773"><ele>61.0</ele><time>2026-04-30T15:37:32Z</time></trkpt><trkpt lat="45.03010449655792" lon="9.695120103101084"><ele>61.0</ele><time>2026-04-30T15:37:33Z</time></trkpt><trkpt lat="45.03025305714176" lon="9.695282844921763"><ele>61.0</ele><time>2026-04-30T15:37:34Z</time></trkpt><trkpt lat="45.03036324335637" lon="9.695408615554857"><ele>60.5</ele><time>2026-04-30T15:37:35Z</time></trkpt><trkpt lat="45.030471741729755" lon="9.6955331477631"><ele>60.0</ele><time>2026-04-30T15:37:36Z</time></trkpt><trkpt lat="45.03057340131463" lon="9.695651125953237"><ele>59.5</ele><time>2026-04-30T15:37:37Z</time></trkpt><trkpt lat="45.03067645314129" lon="9.69577066050314"><ele>59.0</ele><time>2026-04-30T15:37:38Z</time></trkpt><trkpt lat="45.030779501307585" lon="9.695890190606532"><ele>59.800000000000004</ele><time>2026-04-30T15:37:39Z</time></trkpt><trkpt lat="45.03085324772479" lon="9.69597850999659"><ele>60.60000000000001</ele><time>2026-04-30T15:37:40Z</time></trkpt><trkpt lat="45.03094079729428" lon="9.696103730079347"><ele>61.4</ele><time>2026-04-30T15:37:41Z</time></trkpt><trkpt lat="45.0310059595952" lon="9.696207299373444"><ele>62.2</ele><time>2026-04-30T15:37:42Z</time></trkpt><trkpt lat="45.031032845085875" lon="9.696338758401351"><ele>63.0</ele><time>2026-04-30T15:37:43Z</time></trkpt><trkpt lat="45.031152073103954" lon="9.696352682320594"><ele>63.0</ele><time>2026-04-30T15:37:44Z</time></trkpt><trkpt lat="45.03120821015186" lon="9.696418926327981"><ele>63.0</ele><time>2026-04-30T15:37:45Z</time></trkpt><trkpt lat="45.03128389801636" lon="9.696443618003329"><ele>63.0</ele><time>2026-04-30T15:37:46Z</time></trkpt><trkpt lat="45.031360442364715" lon="9.696468095782421"><ele>63.0</ele><time>2026-04-30T15:37:47Z</time></trkpt><trkpt lat="45.031472727870344" lon="9.696516577049016"><ele>63.0</ele><time>2026-04-30T15:37:48Z</time></trkpt><trkpt lat="45.03160618522197" lon="9.69661429387076"><ele>62.66666666666667</ele><time>2026-04-30T15:37:49Z</time></trkpt><trkpt lat="45.03172746927356" lon="9.696708560308494"><ele>62.333333333333336</ele><time>2026-04-30T15:37:50Z</time></trkpt><trkpt lat="45.031858939389735" lon="9.696801998239142"><ele>62.0</ele><time>2026-04-30T15:37:51Z</time></trkpt><trkpt lat="45.03201005068387" lon="9.696896250482117"><ele>62.0</ele><time>2026-04-30T15:37:52Z</time></trkpt><trkpt lat="45.03214499435998" lon="9.697016714171127"><ele>62.0</ele><time>2026-04-30T15:37:53Z</time></trkpt><trkpt lat="45.032273283669646" lon="9.697117758309401"><ele>62.0</ele><time>2026-04-30T15:37:54Z</time></trkpt><trkpt lat="45.0324118760054" lon="9.697226917376632"><ele>61.5</ele><time>2026-04-30T15:37:55Z</time></trkpt><trkpt lat="45.032536365095304" lon="9.6973249683535"><ele>61.0</ele><time>2026-04-30T15:37:56Z</time></trkpt><trkpt lat="45.032653023262874" lon="9.697415227356641"><ele>60.5</ele><time>2026-04-30T15:37:57Z</time></trkpt><trkpt lat="45.03275366642692" lon="9.697492958173704"><ele>60.0</ele><time>2026-04-30T15:37:58Z</time></trkpt><trkpt lat="45.03285006736305" lon="9.697568479605366"><ele>60.0</ele><time>2026-04-30T15:37:59Z</time></trkpt><trkpt lat="45.03293232928382" lon="9.697633356940793"><ele>60.0</ele><time>2026-04-30T15:38:00Z</time></trkpt><trkpt lat="45.03300463480858" lon="9.697690381906185"><ele>60.0</ele><time>2026-04-30T15:38:01Z</time></trkpt><trkpt lat="45.03307600158122" lon="9.697746666544788"><ele>60.0</ele><time>2026-04-30T15:38:02Z</time></trkpt><trkpt lat="45.033145241241115" lon="9.697801273551963"><ele>60.0</ele><time>2026-04-30T15:38:03Z</time></trkpt><trkpt lat="45.03321470579595" lon="9.69785605795382"><ele>60.0</ele><time>2026-04-30T15:38:04Z</time></trkpt><trkpt lat="45.03327878368944" lon="9.697906594040495"><ele>60.4</ele><time>2026-04-30T15:38:05Z</time></trkpt><trkpt lat="45.033378793224834" lon="9.697985468286529"><ele>60.8</ele><time>2026-04-30T15:38:07Z</time></trkpt><trkpt lat="45.03345037422465" lon="9.698041921824917"><ele>61.2</ele><time>2026-04-30T15:38:09Z</time></trkpt><trkpt lat="45.03351968042414" lon="9.698096581329692"><ele>61.6</ele><time>2026-04-30T15:38:12Z</time></trkpt><trkpt lat="45.03357755317436" lon="9.698194370440644"><ele>62.0</ele><time>2026-04-30T15:38:14.999Z</time></trkpt><trkpt lat="45.03365209820981" lon="9.698262602773045"><ele>62.0</ele><time>2026-04-30T15:38:16.999Z</time></trkpt><trkpt lat="45.03373531098472" lon="9.698282026683295"><ele>62.00000000000001</ele><time>2026-04-30T15:38:18.999Z</time></trkpt><trkpt lat="45.033798193520674" lon="9.698316235354074"><ele>62.0</ele><time>2026-04-30T15:38:20.999Z</time></trkpt><trkpt lat="45.033862908269825" lon="9.698367579177843"><ele>62.0</ele><time>2026-04-30T15:38:22.999Z</time></trkpt><trkpt lat="45.03394520083868" lon="9.69843372511848"><ele>62.00000000000001</ele><time>2026-04-30T15:38:24.999Z</time></trkpt><trkpt lat="45.034000510925665" lon="9.698478182753487"><ele>62.0</ele><time>2026-04-30T15:38:25.999Z</time></trkpt><trkpt lat="45.03405587031702" lon="9.698522680085876"><ele>62.0</ele><time>2026-04-30T15:38:26.999Z</time></trkpt><trkpt lat="45.034157995140745" lon="9.698604063442831"><ele>61.8</ele><time>2026-04-30T15:38:28.999Z</time></trkpt><trkpt lat="45.03421342335364" lon="9.698647551711169"><ele>61.6</ele><time>2026-04-30T15:38:29.999Z</time></trkpt><trkpt lat="45.03432586663082" lon="9.698735773289412"><ele>61.39999999999999</ele><time>2026-04-30T15:38:31.999Z</time></trkpt><trkpt lat="45.03440882685653" lon="9.698800862776578"><ele>61.199999999999996</ele><time>2026-04-30T15:38:33.999Z</time></trkpt><trkpt lat="45.03450732153436" lon="9.698871979414207"><ele>61.0</ele><time>2026-04-30T15:38:35.999Z</time></trkpt><trkpt lat="45.0346052006769" lon="9.698936920156608"><ele>60.99999999999999</ele><time>2026-04-30T15:38:37.999Z</time></trkpt><trkpt lat="45.034694034230064" lon="9.698987169745259"><ele>61.0</ele><time>2026-04-30T15:38:39.999Z</time></trkpt><trkpt lat="45.03475852324615" lon="9.699016499404719"><ele>61.0</ele><time>2026-04-30T15:38:40.999Z</time></trkpt><trkpt lat="45.034854176055724" lon="9.699044137373265"><ele>61.0</ele><time>2026-04-30T15:38:42.999Z</time></trkpt><trkpt lat="45.034943033629354" lon="9.699052023922624"><ele>60.99999999999999</ele><time>2026-04-30T15:38:45.999Z</time></trkpt><trkpt lat="45.03502987977159" lon="9.699060571216968"><ele>61.0</ele><time>2026-04-30T15:38:49.999Z</time></trkpt><trkpt lat="45.03509112770761" lon="9.69914847161313"><ele>61.0</ele><time>2026-04-30T15:38:51.999Z</time></trkpt><trkpt lat="45.035157343614564" lon="9.699212575064044"><ele>60.99999999999999</ele><time>2026-04-30T15:38:56.999Z</time></trkpt><trkpt lat="45.03528705930041" lon="9.699263204648004"><ele>60.99999999999999</ele><time>2026-04-30T15:38:59.999Z</time></trkpt><trkpt lat="45.035379907727034" lon="9.699259098987687"><ele>61.0</ele><time>2026-04-30T15:39:06.999Z</time></trkpt><trkpt lat="45.035451559515856" lon="9.699161058007112"><ele>61.0</ele><time>2026-04-30T15:39:07.999Z</time></trkpt><trkpt lat="45.03553927590611" lon="9.699095075264841"><ele>61.0</ele><time>2026-04-30T15:39:09.999Z</time></trkpt><trkpt lat="45.035615682220325" lon="9.699186116962641"><ele>61.0</ele><time>2026-04-30T15:39:10.999Z</time></trkpt><trkpt lat="45.03569288675876" lon="9.699309739816435"><ele>61.0</ele><time>2026-04-30T15:39:11.999Z</time></trkpt><trkpt lat="45.03578138127364" lon="9.69944234648306"><ele>61.0</ele><time>2026-04-30T15:39:12.999Z</time></trkpt><trkpt lat="45.035875388661125" lon="9.699574489227409"><ele>60.75</ele><time>2026-04-30T15:39:13.999Z</time></trkpt><trkpt lat="45.03598618547189" lon="9.699679511563868"><ele>60.5</ele><time>2026-04-30T15:39:14.999Z</time></trkpt><trkpt lat="45.03611345052419" lon="9.699792309699125"><ele>60.25</ele><time>2026-04-30T15:39:15.999Z</time></trkpt><trkpt lat="45.03624004242692" lon="9.699908418678412"><ele>60.0</ele><time>2026-04-30T15:39:16.999Z</time></trkpt><trkpt lat="45.03640734933341" lon="9.699927216248676"><ele>60.0</ele><time>2026-04-30T15:39:17.999Z</time></trkpt><trkpt lat="45.036600426250025" lon="9.69998830902205"><ele>60.0</ele><time>2026-04-30T15:39:18.998Z</time></trkpt><trkpt lat="45.03677987167795" lon="9.700034870031162"><ele>60.0</ele><time>2026-04-30T15:39:19.998Z</time></trkpt><trkpt lat="45.0369939942834" lon="9.70013182024668"><ele>60.0</ele><time>2026-04-30T15:39:20.998Z</time></trkpt><trkpt lat="45.037172715055284" lon="9.70019592289531"><ele>60.0</ele><time>2026-04-30T15:39:21.998Z</time></trkpt><trkpt lat="45.03733440262101" lon="9.70025391610075"><ele>60.0</ele><time>2026-04-30T15:39:22.998Z</time></trkpt><trkpt lat="45.037509573407405" lon="9.700318565447132"><ele>59.66666666666667</ele><time>2026-04-30T15:39:23.998Z</time></trkpt><trkpt lat="45.0376836529096" lon="9.70038284951337"><ele>59.333333333333336</ele><time>2026-04-30T15:39:24.998Z</time></trkpt><trkpt lat="45.03786882707481" lon="9.7004510522228"><ele>59.0</ele><time>2026-04-30T15:39:25.998Z</time></trkpt><trkpt lat="45.03804887307809" lon="9.700514228519904"><ele>59.0</ele><time>2026-04-30T15:39:26.998Z</time></trkpt><trkpt lat="45.03821241432667" lon="9.700569127504785"><ele>59.0</ele><time>2026-04-30T15:39:27.998Z</time></trkpt><trkpt lat="45.03835782695563" lon="9.700617940957063"><ele>59.0</ele><time>2026-04-30T15:39:28.998Z</time></trkpt><trkpt lat="45.03849031157823" lon="9.700664581699813"><ele>58.6</ele><time>2026-04-30T15:39:29.998Z</time></trkpt><trkpt lat="45.03860679315322" lon="9.700710905954445"><ele>58.2</ele><time>2026-04-30T15:39:30.998Z</time></trkpt><trkpt lat="45.03869708073621" lon="9.700750735957802"><ele>57.800000000000004</ele><time>2026-04-30T15:39:31.998Z</time></trkpt><trkpt lat="45.03877558124172" lon="9.700790365348588"><ele>57.400000000000006</ele><time>2026-04-30T15:39:32.998Z</time></trkpt><trkpt lat="45.03885588556689" lon="9.70084173854818"><ele>57.0</ele><time>2026-04-30T15:39:33.998Z</time></trkpt><trkpt lat="45.03890961523721" lon="9.70096766051877"><ele>57.0</ele><time>2026-04-30T15:39:34.998Z</time></trkpt><trkpt lat="45.038988887362216" lon="9.701019077470436"><ele>57.0</ele><time>2026-04-30T15:39:35.998Z</time></trkpt><trkpt lat="45.03911418822181" lon="9.701006739900919"><ele>57.0</ele><time>2026-04-30T15:39:36.998Z</time></trkpt><trkpt lat="45.03921435965856" lon="9.700955874428296"><ele>57.0</ele><time>2026-04-30T15:39:37.998Z</time></trkpt><trkpt lat="45.03932135858228" lon="9.700901503191353"><ele>57.0</ele><time>2026-04-30T15:39:38.998Z</time></trkpt><trkpt lat="45.03945428231914" lon="9.70092171717485"><ele>56.75</ele><time>2026-04-30T15:39:39.998Z</time></trkpt><trkpt lat="45.03956905530451" lon="9.700964502495287"><ele>56.5</ele><time>2026-04-30T15:39:40.998Z</time></trkpt><trkpt lat="45.03970421113392" lon="9.701050190604883"><ele>56.25</ele><time>2026-04-30T15:39:41.998Z</time></trkpt><trkpt lat="45.03985652181672" lon="9.701100689745987"><ele>56.0</ele><time>2026-04-30T15:39:42.998Z</time></trkpt><trkpt lat="45.0400022944233" lon="9.701135009461385"><ele>57.0</ele><time>2026-04-30T15:39:43.998Z</time></trkpt><trkpt lat="45.04015416212335" lon="9.701146163783495"><ele>58.0</ele><time>2026-04-30T15:39:44.998Z</time></trkpt><trkpt lat="45.040299730686876" lon="9.701190803281772"><ele>59.0</ele><time>2026-04-30T15:39:45.998Z</time></trkpt><trkpt lat="45.04043993120457" lon="9.701233088087877"><ele>60.0</ele><time>2026-04-30T15:39:46.998Z</time></trkpt><trkpt lat="45.040541916631625" lon="9.701268590989216"><ele>60.0</ele><time>2026-04-30T15:39:47.998Z</time></trkpt><trkpt lat="45.040625825204586" lon="9.701309585272208"><ele>60.0</ele><time>2026-04-30T15:39:48.998Z</time></trkpt><trkpt lat="45.04068005015238" lon="9.701360332385878"><ele>60.0</ele><time>2026-04-30T15:39:49.998Z</time></trkpt><trkpt lat="45.040770157622916" lon="9.701476502317787"><ele>60.0</ele><time>2026-04-30T15:39:51.998Z</time></trkpt><trkpt lat="45.040924158057706" lon="9.701551222701427"><ele>60.0</ele><time>2026-04-30T15:39:52.998Z</time></trkpt><trkpt lat="45.040996644573724" lon="9.701494668656224"><ele>59.666666666666664</ele><time>2026-04-30T15:39:53.998Z</time></trkpt><trkpt lat="45.041071406689184" lon="9.701508861940948"><ele>59.33333333333333</ele><time>2026-04-30T15:39:54.998Z</time></trkpt><trkpt lat="45.04114400939294" lon="9.701529400284713"><ele>59.0</ele><time>2026-04-30T15:39:55.998Z</time></trkpt><trkpt lat="45.041210363347176" lon="9.701562891893749"><ele>58.666666666666664</ele><time>2026-04-30T15:39:56.998Z</time></trkpt><trkpt lat="45.04127344215447" lon="9.701607792915668"><ele>58.33333333333333</ele><time>2026-04-30T15:39:57.998Z</time></trkpt><trkpt lat="45.04135023106586" lon="9.701658113073714"><ele>58.0</ele><time>2026-04-30T15:39:58.998Z</time></trkpt><trkpt lat="45.04142667721586" lon="9.701708208402346"><ele>57.99999999999999</ele><time>2026-04-30T15:39:59.998Z</time></trkpt><trkpt lat="45.04151067821367" lon="9.701762247407625"><ele>58.0</ele><time>2026-04-30T15:40:00.998Z</time></trkpt><trkpt lat="45.04159413169925" lon="9.701814496381434"><ele>58.0</ele><time>2026-04-30T15:40:01.998Z</time></trkpt><trkpt lat="45.041678083101374" lon="9.701867057287684"><ele>58.0</ele><time>2026-04-30T15:40:02.998Z</time></trkpt><trkpt lat="45.04174533765327" lon="9.70190916424305"><ele>57.99999999999999</ele><time>2026-04-30T15:40:03.998Z</time></trkpt><trkpt lat="45.0418169514401" lon="9.701954000642967"><ele>58.0</ele><time>2026-04-30T15:40:04.998Z</time></trkpt><trkpt lat="45.04188832518612" lon="9.701998686710635"><ele>57.8</ele><time>2026-04-30T15:40:05.998Z</time></trkpt><trkpt lat="45.0419998196816" lon="9.702075650221326"><ele>57.599999999999994</ele><time>2026-04-30T15:40:07.998Z</time></trkpt><trkpt lat="45.042077474274976" lon="9.702138335950076"><ele>57.400000000000006</ele><time>2026-04-30T15:40:09.998Z</time></trkpt><trkpt lat="45.04213128841995" lon="9.702201642957045"><ele>57.2</ele><time>2026-04-30T15:40:12.998Z</time></trkpt><trkpt lat="45.04216909120082" lon="9.702308480107902"><ele>57.0</ele><time>2026-04-30T15:40:15.998Z</time></trkpt><trkpt lat="45.042235479567076" lon="9.702425753050901"><ele>57.0</ele><time>2026-04-30T15:40:18.998Z</time></trkpt><trkpt lat="45.042316569923" lon="9.702530585598382"><ele>57.0</ele><time>2026-04-30T15:40:20.998Z</time></trkpt><trkpt lat="45.04243471942994" lon="9.702452443314828"><ele>57.0</ele><time>2026-04-30T15:40:22.998Z</time></trkpt><trkpt lat="45.04251425155784" lon="9.70250473352171"><ele>57.0</ele><time>2026-04-30T15:40:25.997Z</time></trkpt><trkpt lat="45.04258391199538" lon="9.702474592709892"><ele>57.0</ele><time>2026-04-30T15:40:27.997Z</time></trkpt><trkpt lat="45.04265088885384" lon="9.702516231924852"><ele>56.6</ele><time>2026-04-30T15:40:30.997Z</time></trkpt><trkpt lat="45.042708734876996" lon="9.702575877797633"><ele>56.2</ele><time>2026-04-30T15:40:32.997Z</time></trkpt><trkpt lat="45.04278092471908" lon="9.702657605264513"><ele>55.8</ele><time>2026-04-30T15:40:34.997Z</time></trkpt><trkpt lat="45.04287729883617" lon="9.702755278199374"><ele>55.4</ele><time>2026-04-30T15:40:36.997Z</time></trkpt><trkpt lat="45.042943108073615" lon="9.702887110645573"><ele>55.0</ele><time>2026-04-30T15:40:38.997Z</time></trkpt><trkpt lat="45.04300357209803" lon="9.702972012635632"><ele>55.0</ele><time>2026-04-30T15:40:40.997Z</time></trkpt><trkpt lat="45.043080287465" lon="9.70304663589684"><ele>55.0</ele><time>2026-04-30T15:40:43.997Z</time></trkpt><trkpt lat="45.04315451411248" lon="9.703142511139092"><ele>55.0</ele><time>2026-04-30T15:40:45.997Z</time></trkpt><trkpt lat="45.043240585791956" lon="9.703258045014229"><ele>55.0</ele><time>2026-04-30T15:40:47.997Z</time></trkpt><trkpt lat="45.04333431930561" lon="9.703352887000802"><ele>55.0</ele><time>2026-04-30T15:40:49.997Z</time></trkpt><trkpt lat="45.043420482893715" lon="9.703486051260942"><ele>55.14285714285714</ele><time>2026-04-30T15:40:51.997Z</time></trkpt><trkpt lat="45.04346810164311" lon="9.70354755830409"><ele>55.285714285714285</ele><time>2026-04-30T15:40:52.997Z</time></trkpt><trkpt lat="45.04351728903933" lon="9.703611091332718"><ele>55.42857142857143</ele><time>2026-04-30T15:40:54.997Z</time></trkpt><trkpt lat="45.04356752138215" lon="9.70367597434236"><ele>55.57142857142857</ele><time>2026-04-30T15:40:57.997Z</time></trkpt><trkpt lat="45.04361560879281" lon="9.703738086676092"><ele>55.714285714285715</ele><time>2026-04-30T15:41:00.997Z</time></trkpt><trkpt lat="45.043665268960375" lon="9.703802230581807"><ele>55.857142857142854</ele><time>2026-04-30T15:41:08.997Z</time></trkpt><trkpt lat="45.043723022000286" lon="9.703876826747315"><ele>56.0</ele><time>2026-04-30T15:41:11.997Z</time></trkpt><trkpt lat="45.04378082509354" lon="9.703925846779233"><ele>56.333333333333336</ele><time>2026-04-30T15:41:14.997Z</time></trkpt><trkpt lat="45.04382486044152" lon="9.703990550348601"><ele>56.66666666666667</ele><time>2026-04-30T15:41:18.997Z</time></trkpt><trkpt lat="45.04385687580345" lon="9.70389783314393"><ele>57.0</ele><time>2026-04-30T15:41:19.997Z</time></trkpt><trkpt lat="45.04390449109766" lon="9.703824720124155"><ele>57.33333333333333</ele><time>2026-04-30T15:41:21.997Z</time></trkpt><trkpt lat="45.04399794674444" lon="9.703930181076823"><ele>57.666666666666664</ele><time>2026-04-30T15:41:23.997Z</time></trkpt><trkpt lat="45.044048005607856" lon="9.703994495891653"><ele>58.0</ele><time>2026-04-30T15:41:24.997Z</time></trkpt><trkpt lat="45.044092722253325" lon="9.704077637354537"><ele>57.99999999999999</ele><time>2026-04-30T15:41:25.997Z</time></trkpt><trkpt lat="45.04414275174308" lon="9.70414734815529"><ele>58.0</ele><time>2026-04-30T15:41:26.997Z</time></trkpt><trkpt lat="45.044197782764854" lon="9.704221969144747"><ele>58.0</ele><time>2026-04-30T15:41:27.997Z</time></trkpt><trkpt lat="45.04425552948388" lon="9.704283804819744"><ele>58.0</ele><time>2026-04-30T15:41:28.997Z</time></trkpt><trkpt lat="45.044319160708824" lon="9.704364006260722"><ele>57.99999999999999</ele><time>2026-04-30T15:41:29.997Z</time></trkpt><trkpt lat="45.04436554773855" lon="9.704439964052082"><ele>58.0</ele><time>2026-04-30T15:41:30.997Z</time></trkpt><trkpt lat="45.044420799396" lon="9.704523702275493"><ele>57.8</ele><time>2026-04-30T15:41:31.996Z</time></trkpt><trkpt lat="45.044475736481346" lon="9.704596079173136"><ele>57.599999999999994</ele><time>2026-04-30T15:41:32.996Z</time></trkpt><trkpt lat="45.044529988197894" lon="9.704661296756234"><ele>57.400000000000006</ele><time>2026-04-30T15:41:33.996Z</time></trkpt><trkpt lat="45.04461506209647" lon="9.704770888457594"><ele>57.2</ele><time>2026-04-30T15:41:35.996Z</time></trkpt><trkpt lat="45.04470061274881" lon="9.704865907120727"><ele>57.0</ele><time>2026-04-30T15:41:37.996Z</time></trkpt><trkpt lat="45.044816844343394" lon="9.704843766340447"><ele>57.0</ele><time>2026-04-30T15:41:39.996Z</time></trkpt><trkpt lat="45.044913542803634" lon="9.704770990962814"><ele>57.0</ele><time>2026-04-30T15:41:41.996Z</time></trkpt><trkpt lat="45.044985505456715" lon="9.704685951707232"><ele>57.0</ele><time>2026-04-30T15:41:43.996Z</time></trkpt><trkpt lat="45.045017718910835" lon="9.704852033114182"><ele>57.0</ele><time>2026-04-30T15:41:44.996Z</time></trkpt><trkpt lat="45.04503063876687" lon="9.70468424069458"><ele>57.0</ele><time>2026-04-30T15:41:45.996Z</time></trkpt><trkpt lat="45.04508551318369" lon="9.704735479068061"><ele>57.0</ele><time>2026-04-30T15:41:56.996Z</time></trkpt><trkpt lat="45.0451513798298" lon="9.704779196221715"><ele>57.0</ele><time>2026-04-30T15:41:57.996Z</time></trkpt><trkpt lat="45.045228087315685" lon="9.704666970465333"><ele>57.0</ele><time>2026-04-30T15:41:59.996Z</time></trkpt><trkpt lat="45.045272458562756" lon="9.704602053741318"><ele>57.0</ele><time>2026-04-30T15:42:00.996Z</time></trkpt><trkpt lat="45.04535460727795" lon="9.704482068976585"><ele>57.0</ele><time>2026-04-30T15:42:02.996Z</time></trkpt><trkpt lat="45.04541544971813" lon="9.704393935385692"><ele>57.0</ele><time>2026-04-30T15:42:04.996Z</time></trkpt><trkpt lat="45.045484646703734" lon="9.704370836518533"><ele>57.0</ele><time>2026-04-30T15:42:09.996Z</time></trkpt><trkpt lat="45.04554503113607" lon="9.704324535783748"><ele>57.0</ele><time>2026-04-30T15:42:15.996Z</time></trkpt><trkpt lat="45.04573003722927" lon="9.704360726078287"><ele>57.0</ele><time>2026-04-30T15:42:19.996Z</time></trkpt><trkpt lat="45.045818403556815" lon="9.704459432538856"><ele>57.0</ele><time>2026-04-30T15:42:20.996Z</time></trkpt><trkpt lat="45.04589238185724" lon="9.704556382016658"><ele>57.0</ele><time>2026-04-30T15:42:21.996Z</time></trkpt><trkpt lat="45.04598015260821" lon="9.704671406819605"><ele>57.0</ele><time>2026-04-30T15:42:22.996Z</time></trkpt><trkpt lat="45.04606840066723" lon="9.704787056279459"><ele>57.0</ele><time>2026-04-30T15:42:23.996Z</time></trkpt><trkpt lat="45.04615398791306" lon="9.704899220050951"><ele>57.0</ele><time>2026-04-30T15:42:24.996Z</time></trkpt><trkpt lat="45.04624008715353" lon="9.705013176408533"><ele>57.0</ele><time>2026-04-30T15:42:25.996Z</time></trkpt><trkpt lat="45.046326590415596" lon="9.70512760001178"><ele>57.0</ele><time>2026-04-30T15:42:26.996Z</time></trkpt><trkpt lat="45.04641358921407" lon="9.70524267928295"><ele>57.0</ele><time>2026-04-30T15:42:27.996Z</time></trkpt><trkpt lat="45.04651311289676" lon="9.705337221540352"><ele>57.0</ele><time>2026-04-30T15:42:28.996Z</time></trkpt><trkpt lat="45.046582235794276" lon="9.705433568481263"><ele>57.2</ele><time>2026-04-30T15:42:29.996Z</time></trkpt><trkpt lat="45.046653105428085" lon="9.70552731249662"><ele>57.400000000000006</ele><time>2026-04-30T15:42:30.996Z</time></trkpt><trkpt lat="45.04672140732018" lon="9.705611297633316"><ele>57.599999999999994</ele><time>2026-04-30T15:42:31.996Z</time></trkpt><trkpt lat="45.046784589215065" lon="9.70566562915961"><ele>57.8</ele><time>2026-04-30T15:42:32.996Z</time></trkpt><trkpt lat="45.04685265048175" lon="9.705786528622022"><ele>58.0</ele><time>2026-04-30T15:42:34.996Z</time></trkpt><trkpt lat="45.0469010135645" lon="9.70591818001172"><ele>58.0</ele><time>2026-04-30T15:42:36.996Z</time></trkpt><trkpt lat="45.046975578373875" lon="9.70602106795734"><ele>58.0</ele><time>2026-04-30T15:42:38.995Z</time></trkpt><trkpt lat="45.04713083152996" lon="9.706254587668303"><ele>58.0</ele><time>2026-04-30T15:42:40.995Z</time></trkpt><trkpt lat="45.047265674963164" lon="9.706042314473239"><ele>57.99999999999999</ele><time>2026-04-30T15:42:43.995Z</time></trkpt><trkpt lat="45.047330887103136" lon="9.705967582205263"><ele>58.0</ele><time>2026-04-30T15:42:45.995Z</time></trkpt><trkpt lat="45.047402554838264" lon="9.705859599769347"><ele>58.0</ele><time>2026-04-30T15:42:47.995Z</time></trkpt><trkpt lat="45.047439174550135" lon="9.705785029362982"><ele>58.0</ele><time>2026-04-30T15:42:48.995Z</time></trkpt><trkpt lat="45.04748147587995" lon="9.705688197968676"><ele>57.99999999999999</ele><time>2026-04-30T15:42:51.995Z</time></trkpt><trkpt lat="45.04756103318983" lon="9.705757035885659"><ele>58.0</ele><time>2026-04-30T15:42:54.995Z</time></trkpt><trkpt lat="45.04766453708607" lon="9.705876003536652"><ele>57.99999999999999</ele><time>2026-04-30T15:42:56.995Z</time></trkpt><trkpt lat="45.04772228233077" lon="9.705941431287686"><ele>58.0</ele><time>2026-04-30T15:42:57.995Z</time></trkpt><trkpt lat="45.04778297651636" lon="9.706003143402075"><ele>58.0</ele><time>2026-04-30T15:42:58.995Z</time></trkpt><trkpt lat="45.04784212195513" lon="9.7060767446782"><ele>58.0</ele><time>2026-04-30T15:42:59.995Z</time></trkpt><trkpt lat="45.04790622822133" lon="9.70616302056102"><ele>57.99999999999999</ele><time>2026-04-30T15:43:00.995Z</time></trkpt><trkpt lat="45.04797947089383" lon="9.70624318225473"><ele>58.0</ele><time>2026-04-30T15:43:01.995Z</time></trkpt><trkpt lat="45.048054091186295" lon="9.706298702319922"><ele>57.666666666666664</ele><time>2026-04-30T15:43:02.995Z</time></trkpt><trkpt lat="45.0481174625847" lon="9.70637198719773"><ele>57.33333333333333</ele><time>2026-04-30T15:43:03.995Z</time></trkpt><trkpt lat="45.04817593097171" lon="9.706439601823185"><ele>57.0</ele><time>2026-04-30T15:43:04.995Z</time></trkpt><trkpt lat="45.048230277073515" lon="9.70650244950811"><ele>56.66666666666667</ele><time>2026-04-30T15:43:05.995Z</time></trkpt><trkpt lat="45.04828760250826" lon="9.706578136296908"><ele>56.333333333333336</ele><time>2026-04-30T15:43:06.995Z</time></trkpt><trkpt lat="45.04835544990779" lon="9.706648466289947"><ele>56.0</ele><time>2026-04-30T15:43:07.995Z</time></trkpt><trkpt lat="45.048421962629256" lon="9.706689613912697"><ele>56.0</ele><time>2026-04-30T15:43:08.995Z</time></trkpt><trkpt lat="45.048527987163794" lon="9.706753554563136"><ele>55.99999999999999</ele><time>2026-04-30T15:43:09.995Z</time></trkpt><trkpt lat="45.04862578510252" lon="9.706772794689835"><ele>55.99999999999999</ele><time>2026-04-30T15:43:10.995Z</time></trkpt><trkpt lat="45.04870985691528" lon="9.706763316789507"><ele>56.0</ele><time>2026-04-30T15:43:11.995Z</time></trkpt><trkpt lat="45.0488371999199" lon="9.706707909921418"><ele>56.0</ele><time>2026-04-30T15:43:13.995Z</time></trkpt><trkpt lat="45.04890615828164" lon="9.706670710081204"><ele>56.00000000000001</ele><time>2026-04-30T15:43:14.995Z</time></trkpt><trkpt lat="45.04898371133595" lon="9.70662662900064"><ele>56.0</ele><time>2026-04-30T15:43:15.995Z</time></trkpt><trkpt lat="45.049053562363476" lon="9.706587150141486"><ele>56.0</ele><time>2026-04-30T15:43:16.995Z</time></trkpt><trkpt lat="45.049126389359415" lon="9.706545994513652"><ele>56.0</ele><time>2026-04-30T15:43:17.995Z</time></trkpt><trkpt lat="45.04920418570396" lon="9.706502030580115"><ele>56.00000000000001</ele><time>2026-04-30T15:43:18.995Z</time></trkpt><trkpt lat="45.04928228169962" lon="9.706457434658752"><ele>56.0</ele><time>2026-04-30T15:43:19.995Z</time></trkpt><trkpt lat="45.04934674581439" lon="9.706420312358567"><ele>56.199999999999996</ele><time>2026-04-30T15:43:20.995Z</time></trkpt><trkpt lat="45.04945456615615" lon="9.7063582229654"><ele>56.39999999999999</ele><time>2026-04-30T15:43:22.995Z</time></trkpt><trkpt lat="45.04955370011203" lon="9.70629551710129"><ele>56.6</ele><time>2026-04-30T15:43:24.995Z</time></trkpt><trkpt lat="45.04966158169152" lon="9.706266949979478"><ele>56.8</ele><time>2026-04-30T15:43:26.995Z</time></trkpt><trkpt lat="45.04972364318878" lon="9.7062520110116"><ele>57.0</ele><time>2026-04-30T15:43:27.995Z</time></trkpt><trkpt lat="45.049792792765565" lon="9.70624254387621"><ele>57.0</ele><time>2026-04-30T15:43:28.995Z</time></trkpt><trkpt lat="45.04986592679858" lon="9.706228552612016"><ele>57.0</ele><time>2026-04-30T15:43:29.995Z</time></trkpt><trkpt lat="45.049947754393195" lon="9.706186197663415"><ele>57.0</ele><time>2026-04-30T15:43:30.995Z</time></trkpt><trkpt lat="45.050027049231424" lon="9.706224914416321"><ele>57.0</ele><time>2026-04-30T15:43:31.995Z</time></trkpt><trkpt lat="45.05011260453418" lon="9.706206101989448"><ele>57.0</ele><time>2026-04-30T15:43:32.995Z</time></trkpt><trkpt lat="45.050184739938345" lon="9.70616050087621"><ele>57.0</ele><time>2026-04-30T15:43:33.995Z</time></trkpt><trkpt lat="45.050251632943585" lon="9.706118171831447"><ele>58.0</ele><time>2026-04-30T15:43:34.995Z</time></trkpt><trkpt lat="45.05033480403579" lon="9.706064531543284"><ele>59.0</ele><time>2026-04-30T15:43:35.995Z</time></trkpt><trkpt lat="45.05041415602379" lon="9.70601230654583"><ele>60.0</ele><time>2026-04-30T15:43:36.995Z</time></trkpt><trkpt lat="45.05049246102308" lon="9.705959526135835"><ele>61.0</ele><time>2026-04-30T15:43:37.995Z</time></trkpt><trkpt lat="45.05057034147724" lon="9.705904407616151"><ele>62.0</ele><time>2026-04-30T15:43:38.995Z</time></trkpt><trkpt lat="45.05064233039561" lon="9.705851237614548"><ele>63.0</ele><time>2026-04-30T15:43:39.995Z</time></trkpt><trkpt lat="45.0507091285308" lon="9.705801274599935"><ele>63.0</ele><time>2026-04-30T15:43:40.995Z</time></trkpt><trkpt lat="45.050769724326464" lon="9.705755950471932"><ele>63.0</ele><time>2026-04-30T15:43:41.995Z</time></trkpt><trkpt lat="45.05087747925787" lon="9.705675153333004"><ele>63.0</ele><time>2026-04-30T15:43:43.995Z</time></trkpt><trkpt lat="45.05096121597851" lon="9.705610039687251"><ele>63.0</ele><time>2026-04-30T15:43:45.994Z</time></trkpt><trkpt lat="45.05102012708931" lon="9.705537524344507"><ele>63.0</ele><time>2026-04-30T15:43:47.994Z</time></trkpt><trkpt lat="45.05118880442101" lon="9.70554045778523"><ele>62.599999999999994</ele><time>2026-04-30T15:43:53.002Z</time></trkpt><trkpt lat="45.051358478017264" lon="9.705515329327657"><ele>62.199999999999996</ele><time>2026-04-30T15:43:56.002Z</time></trkpt><trkpt lat="45.051392901527784" lon="9.705375260369205"><ele>61.8</ele><time>2026-04-30T15:44:08.001Z</time></trkpt><trkpt lat="45.051452421496336" lon="9.705272640286768"><ele>61.4</ele><time>2026-04-30T15:44:10.001Z</time></trkpt><trkpt lat="45.05151649500462" lon="9.705224941245794"><ele>61.0</ele><time>2026-04-30T15:44:11.001Z</time></trkpt><trkpt lat="45.05158211093542" lon="9.705177369260177"><ele>59.199999999999996</ele><time>2026-04-30T15:44:12.001Z</time></trkpt><trkpt lat="45.05165393527935" lon="9.70512455319579"><ele>57.39999999999999</ele><time>2026-04-30T15:44:13.001Z</time></trkpt><trkpt lat="45.05173745117313" lon="9.70506882387158"><ele>55.6</ele><time>2026-04-30T15:44:14.001Z</time></trkpt><trkpt lat="45.05182894200984" lon="9.705024763445657"><ele>53.8</ele><time>2026-04-30T15:44:15.001Z</time></trkpt><trkpt lat="45.05195138395455" lon="9.705011133351594"><ele>52.0</ele><time>2026-04-30T15:44:16.001Z</time></trkpt><trkpt lat="45.05205522952869" lon="9.704909900263972"><ele>52.0</ele><time>2026-04-30T15:44:17.001Z</time></trkpt><trkpt lat="45.05221871396553" lon="9.704866711257136"><ele>52.0</ele><time>2026-04-30T15:44:19Z</time></trkpt><trkpt lat="45.05235772777309" lon="9.704815365320304"><ele>52.0</ele><time>2026-04-30T15:44:20Z</time></trkpt><trkpt lat="45.05250662811481" lon="9.70473608021697"><ele>52.25</ele><time>2026-04-30T15:44:21Z</time></trkpt><trkpt lat="45.052643368340895" lon="9.704657985359685"><ele>52.5</ele><time>2026-04-30T15:44:22Z</time></trkpt><trkpt lat="45.05274738475931" lon="9.704597657435993"><ele>52.75</ele><time>2026-04-30T15:44:23Z</time></trkpt><trkpt lat="45.05286982717447" lon="9.70452664297966"><ele>53.0</ele><time>2026-04-30T15:44:24Z</time></trkpt><trkpt lat="45.05296810161278" lon="9.704469645291555"><ele>53.00000000000001</ele><time>2026-04-30T15:44:25Z</time></trkpt><trkpt lat="45.0530474612988" lon="9.704423618103087"><ele>53.0</ele><time>2026-04-30T15:44:26Z</time></trkpt><trkpt lat="45.05312453882962" lon="9.70437891430165"><ele>53.0</ele><time>2026-04-30T15:44:27Z</time></trkpt><trkpt lat="45.05319967438557" lon="9.704335337069327"><ele>53.0</ele><time>2026-04-30T15:44:28Z</time></trkpt><trkpt lat="45.05327300418208" lon="9.70429280682327"><ele>53.00000000000001</ele><time>2026-04-30T15:44:29Z</time></trkpt><trkpt lat="45.05334846973366" lon="9.704249038362141"><ele>53.0</ele><time>2026-04-30T15:44:30Z</time></trkpt><trkpt lat="45.053423459443735" lon="9.70420556356525"><ele>52.714285714285715</ele><time>2026-04-30T15:44:31Z</time></trkpt><trkpt lat="45.0534916852879" lon="9.704165721946433"><ele>52.42857142857142</ele><time>2026-04-30T15:44:32Z</time></trkpt><trkpt lat="45.053561913522174" lon="9.704124711089634"><ele>52.14285714285714</ele><time>2026-04-30T15:44:33Z</time></trkpt><trkpt lat="45.05363834185368" lon="9.704080079478706"><ele>51.85714285714286</ele><time>2026-04-30T15:44:34Z</time></trkpt><trkpt lat="45.05370362695572" lon="9.704041058007805"><ele>51.57142857142857</ele><time>2026-04-30T15:44:35Z</time></trkpt><trkpt lat="45.05376553482636" lon="9.704003083599547"><ele>51.285714285714285</ele><time>2026-04-30T15:44:36Z</time></trkpt><trkpt lat="45.053824545207775" lon="9.703966886504707"><ele>51.0</ele><time>2026-04-30T15:44:37Z</time></trkpt><trkpt lat="45.05391942275321" lon="9.703909312133739"><ele>51.0</ele><time>2026-04-30T15:44:39Z</time></trkpt><trkpt lat="45.05400617016756" lon="9.703858966267664"><ele>51.0</ele><time>2026-04-30T15:44:41Z</time></trkpt><trkpt lat="45.054072433434996" lon="9.703785278101313"><ele>51.0</ele><time>2026-04-30T15:44:43Z</time></trkpt><trkpt lat="45.05414515615597" lon="9.703763724348324"><ele>51.0</ele><time>2026-04-30T15:44:45Z</time></trkpt><trkpt lat="45.0542327714695" lon="9.70371490663837"><ele>51.0</ele><time>2026-04-30T15:44:47Z</time></trkpt><trkpt lat="45.05435059995024" lon="9.703650181310538"><ele>50.833333333333336</ele><time>2026-04-30T15:44:49Z</time></trkpt><trkpt lat="45.05441241666684" lon="9.703601804431257"><ele>50.66666666666667</ele><time>2026-04-30T15:44:50Z</time></trkpt><trkpt lat="45.05447759884815" lon="9.703547281591666"><ele>50.5</ele><time>2026-04-30T15:44:51Z</time></trkpt><trkpt lat="45.05454278142708" lon="9.703480368728117"><ele>50.333333333333336</ele><time>2026-04-30T15:44:52Z</time></trkpt><trkpt lat="45.05462310538172" lon="9.70350482180871"><ele>50.16666666666667</ele><time>2026-04-30T15:44:53Z</time></trkpt><trkpt lat="45.054693128247415" lon="9.703470344881437"><ele>50.0</ele><time>2026-04-30T15:44:54Z</time></trkpt><trkpt lat="45.05477262555822" lon="9.703429173745818"><ele>50.333333333333336</ele><time>2026-04-30T15:44:55Z</time></trkpt><trkpt lat="45.05485472501784" lon="9.703384083896733"><ele>50.66666666666667</ele><time>2026-04-30T15:44:55.999Z</time></trkpt><trkpt lat="45.054935167605585" lon="9.703340211098425"><ele>51.0</ele><time>2026-04-30T15:44:56.999Z</time></trkpt><trkpt lat="45.05501746775889" lon="9.703293897190807"><ele>51.33333333333333</ele><time>2026-04-30T15:44:57.999Z</time></trkpt><trkpt lat="45.055093069145336" lon="9.70324975064909"><ele>51.666666666666664</ele><time>2026-04-30T15:44:58.999Z</time></trkpt><trkpt lat="45.05516448313187" lon="9.7032092345329"><ele>52.0</ele><time>2026-04-30T15:44:59.999Z</time></trkpt><trkpt lat="45.05524019961653" lon="9.703164988375557"><ele>52.166666666666664</ele><time>2026-04-30T15:45:00.999Z</time></trkpt><trkpt lat="45.05531491572665" lon="9.703121581257783"><ele>52.33333333333333</ele><time>2026-04-30T15:45:01.999Z</time></trkpt><trkpt lat="45.05539040207598" lon="9.703077726664443"><ele>52.5</ele><time>2026-04-30T15:45:02.999Z</time></trkpt><trkpt lat="45.0554669746189" lon="9.703033241051525"><ele>52.66666666666667</ele><time>2026-04-30T15:45:03.999Z</time></trkpt><trkpt lat="45.05554866615253" lon="9.702986594047815"><ele>52.833333333333336</ele><time>2026-04-30T15:45:04.999Z</time></trkpt><trkpt lat="45.05562533682358" lon="9.702942956592452"><ele>53.0</ele><time>2026-04-30T15:45:05.999Z</time></trkpt><trkpt lat="45.05570326887813" lon="9.702898057318482"><ele>52.833333333333336</ele><time>2026-04-30T15:45:06.999Z</time></trkpt><trkpt lat="45.05578822514966" lon="9.702846470440205"><ele>52.66666666666667</ele><time>2026-04-30T15:45:07.999Z</time></trkpt><trkpt lat="45.05586739078938" lon="9.702791680386152"><ele>52.5</ele><time>2026-04-30T15:45:08.999Z</time></trkpt><trkpt lat="45.05595439088557" lon="9.702721523644716"><ele>52.33333333333333</ele><time>2026-04-30T15:45:09.999Z</time></trkpt><trkpt lat="45.056019922152664" lon="9.702644398748753"><ele>52.166666666666664</ele><time>2026-04-30T15:45:10.999Z</time></trkpt><trkpt lat="45.056076515171355" lon="9.702565318359929"><ele>52.0</ele><time>2026-04-30T15:45:11.999Z</time></trkpt><trkpt lat="45.05612570280094" lon="9.70249128136265"><ele>51.99999999999999</ele><time>2026-04-30T15:45:12.999Z</time></trkpt><trkpt lat="45.05617423710269" lon="9.702410011111523"><ele>52.0</ele><time>2026-04-30T15:45:13.999Z</time></trkpt><trkpt lat="45.05621597360093" lon="9.70233768479314"><ele>52.0</ele><time>2026-04-30T15:45:14.999Z</time></trkpt><trkpt lat="45.0562890199714" lon="9.702224788276162"><ele>52.0</ele><time>2026-04-30T15:45:16.999Z</time></trkpt><trkpt lat="45.05636041758091" lon="9.702113348284515"><ele>51.99999999999999</ele><time>2026-04-30T15:45:18.999Z</time></trkpt><trkpt lat="45.05642465434103" lon="9.70202404005419"><ele>52.0</ele><time>2026-04-30T15:45:20.999Z</time></trkpt><trkpt lat="45.056487524306256" lon="9.701936139058187"><ele>52.0</ele><time>2026-04-30T15:45:22.999Z</time></trkpt><trkpt lat="45.05656034991059" lon="9.701844322145039"><ele>52.0</ele><time>2026-04-30T15:45:25.999Z</time></trkpt><trkpt lat="45.05661915750778" lon="9.701783272913499"><ele>52.0</ele><time>2026-04-30T15:45:27.999Z</time></trkpt><trkpt lat="45.05673021815322" lon="9.701671150979935"><ele>52.0</ele><time>2026-04-30T15:45:29.999Z</time></trkpt><trkpt lat="45.05676390107996" lon="9.701528329237918"><ele>52.0</ele><time>2026-04-30T15:45:30.999Z</time></trkpt><trkpt lat="45.05680302507308" lon="9.70144169280783"><ele>52.25</ele><time>2026-04-30T15:45:31.999Z</time></trkpt><trkpt lat="45.05685764296948" lon="9.701287056858714"><ele>52.5</ele><time>2026-04-30T15:45:32.999Z</time></trkpt><trkpt lat="45.056915201857066" lon="9.701126083178652"><ele>52.75</ele><time>2026-04-30T15:45:33.999Z</time></trkpt><trkpt lat="45.0569742346846" lon="9.70096147932741"><ele>53.0</ele><time>2026-04-30T15:45:34.999Z</time></trkpt><trkpt lat="45.0570284559312" lon="9.700810804728018"><ele>53.2</ele><time>2026-04-30T15:45:35.999Z</time></trkpt><trkpt lat="45.0570758633536" lon="9.70067932188536"><ele>53.4</ele><time>2026-04-30T15:45:36.999Z</time></trkpt><trkpt lat="45.057118166322844" lon="9.70056199621035"><ele>53.60000000000001</ele><time>2026-04-30T15:45:37.999Z</time></trkpt><trkpt lat="45.05715896451167" lon="9.70042530323663"><ele>53.800000000000004</ele><time>2026-04-30T15:45:38.999Z</time></trkpt><trkpt lat="45.057211396892335" lon="9.700263527520468"><ele>54.0</ele><time>2026-04-30T15:45:40.999Z</time></trkpt><trkpt lat="45.05726846270265" lon="9.700124723523267"><ele>54.0</ele><time>2026-04-30T15:45:44.999Z</time></trkpt><trkpt lat="45.057372889727134" lon="9.700126593436815"><ele>54.0</ele><time>2026-04-30T15:45:46.999Z</time></trkpt><trkpt lat="45.0574891545116" lon="9.700132041346885"><ele>54.0</ele><time>2026-04-30T15:45:48.999Z</time></trkpt><trkpt lat="45.05760803279365" lon="9.700210975435217"><ele>54.0</ele><time>2026-04-30T15:45:49.998Z</time></trkpt><trkpt lat="45.05769435541333" lon="9.700299432990981"><ele>54.0</ele><time>2026-04-30T15:45:50.998Z</time></trkpt><trkpt lat="45.057773032786116" lon="9.70039785236667"><ele>54.0</ele><time>2026-04-30T15:45:51.998Z</time></trkpt><trkpt lat="45.057857920232216" lon="9.700505772563972"><ele>54.0</ele><time>2026-04-30T15:45:52.998Z</time></trkpt><trkpt lat="45.05795186183012" lon="9.700626872832864"><ele>54.0</ele><time>2026-04-30T15:45:53.998Z</time></trkpt><trkpt lat="45.058043875879505" lon="9.700753667880972"><ele>54.0</ele><time>2026-04-30T15:45:54.998Z</time></trkpt><trkpt lat="45.058152464430144" lon="9.700853718927835"><ele>54.0</ele><time>2026-04-30T15:45:55.998Z</time></trkpt><trkpt lat="45.058262573312554" lon="9.70095702757661"><ele>54.0</ele><time>2026-04-30T15:45:56.998Z</time></trkpt><trkpt lat="45.05836815516835" lon="9.701067593135269"><ele>54.0</ele><time>2026-04-30T15:45:57.998Z</time></trkpt><trkpt lat="45.05847086466891" lon="9.701183378254154"><ele>53.25</ele><time>2026-04-30T15:45:58.998Z</time></trkpt><trkpt lat="45.05857286240678" lon="9.701296476249016"><ele>52.5</ele><time>2026-04-30T15:45:59.998Z</time></trkpt><trkpt lat="45.05867289279407" lon="9.701411459889115"><ele>51.75</ele><time>2026-04-30T15:46:00.998Z</time></trkpt><trkpt lat="45.05877228866151" lon="9.701529002364312"><ele>51.0</ele><time>2026-04-30T15:46:01.998Z</time></trkpt><trkpt lat="45.058872558475734" lon="9.701648993353226"><ele>51.0</ele><time>2026-04-30T15:46:02.998Z</time></trkpt><trkpt lat="45.05896844699213" lon="9.701778644597919"><ele>51.0</ele><time>2026-04-30T15:46:03.998Z</time></trkpt><trkpt lat="45.05906585051558" lon="9.701901836250595"><ele>51.0</ele><time>2026-04-30T15:46:04.998Z</time></trkpt><trkpt lat="45.059164876057984" lon="9.7020195974183"><ele>51.0</ele><time>2026-04-30T15:46:05.998Z</time></trkpt><trkpt lat="45.059275687180175" lon="9.70213789067965"><ele>51.5</ele><time>2026-04-30T15:46:06.998Z</time></trkpt><trkpt lat="45.05938523513515" lon="9.702274857010678"><ele>52.0</ele><time>2026-04-30T15:46:07.998Z</time></trkpt><trkpt lat="45.059517917433496" lon="9.70236252029643"><ele>52.5</ele><time>2026-04-30T15:46:08.998Z</time></trkpt><trkpt lat="45.059645694003734" lon="9.7024677788544"><ele>53.0</ele><time>2026-04-30T15:46:09.998Z</time></trkpt><trkpt lat="45.05977638085612" lon="9.702574573226357"><ele>53.0</ele><time>2026-04-30T15:46:10.998Z</time></trkpt><trkpt lat="45.05991184924734" lon="9.702672087321377"><ele>53.0</ele><time>2026-04-30T15:46:11.998Z</time></trkpt><trkpt lat="45.06004564337938" lon="9.702767979480234"><ele>53.0</ele><time>2026-04-30T15:46:12.998Z</time></trkpt><trkpt lat="45.060178657645096" lon="9.702873448012907"><ele>49.0</ele><time>2026-04-30T15:46:13.998Z</time></trkpt><trkpt lat="45.060318978505656" lon="9.70297948879448"><ele>45.0</ele><time>2026-04-30T15:46:14.998Z</time></trkpt><trkpt lat="45.06045977361757" lon="9.703089447138694"><ele>41.0</ele><time>2026-04-30T15:46:15.998Z</time></trkpt><trkpt lat="45.06059651565442" lon="9.703231193283143"><ele>41.0</ele><time>2026-04-30T15:46:16.998Z</time></trkpt><trkpt lat="45.060744516294534" lon="9.703360867735999"><ele>41.0</ele><time>2026-04-30T15:46:17.998Z</time></trkpt><trkpt lat="45.06090284497066" lon="9.703474157929536"><ele>41.0</ele><time>2026-04-30T15:46:18.998Z</time></trkpt><trkpt lat="45.06106836691607" lon="9.703586323728523"><ele>41.33333333333333</ele><time>2026-04-30T15:46:19.998Z</time></trkpt><trkpt lat="45.06124959657357" lon="9.703735953429725"><ele>41.666666666666664</ele><time>2026-04-30T15:46:20.998Z</time></trkpt><trkpt lat="45.06139106128918" lon="9.703850037483106"><ele>42.0</ele><time>2026-04-30T15:46:21.998Z</time></trkpt><trkpt lat="45.061543415256615" lon="9.703944648116082"><ele>43.666666666666664</ele><time>2026-04-30T15:46:22.998Z</time></trkpt><trkpt lat="45.06170721025287" lon="9.704058648965548"><ele>45.33333333333333</ele><time>2026-04-30T15:46:23.998Z</time></trkpt><trkpt lat="45.061866552033145" lon="9.704159578767781"><ele>47.0</ele><time>2026-04-30T15:46:24.998Z</time></trkpt><trkpt lat="45.062021521608116" lon="9.704249135114427"><ele>47.0</ele><time>2026-04-30T15:46:25.998Z</time></trkpt><trkpt lat="45.06216787219095" lon="9.704395494198035"><ele>47.0</ele><time>2026-04-30T15:46:26.998Z</time></trkpt><trkpt lat="45.06234110020127" lon="9.704515312652639"><ele>47.0</ele><time>2026-04-30T15:46:27.998Z</time></trkpt><trkpt lat="45.06250300513624" lon="9.70461677396031"><ele>48.0</ele><time>2026-04-30T15:46:28.998Z</time></trkpt><trkpt lat="45.062645006665846" lon="9.704743956204554"><ele>49.0</ele><time>2026-04-30T15:46:29.998Z</time></trkpt><trkpt lat="45.06279078569275" lon="9.704856568108905"><ele>50.0</ele><time>2026-04-30T15:46:30.998Z</time></trkpt><trkpt lat="45.06294963460089" lon="9.704982275826143"><ele>50.0</ele><time>2026-04-30T15:46:31.998Z</time></trkpt><trkpt lat="45.06311926144776" lon="9.70509688726135"><ele>50.0</ele><time>2026-04-30T15:46:32.998Z</time></trkpt><trkpt lat="45.063285962740366" lon="9.705186249593934"><ele>50.0</ele><time>2026-04-30T15:46:33.998Z</time></trkpt><trkpt lat="45.06345452284823" lon="9.70530176288773"><ele>48.66666666666667</ele><time>2026-04-30T15:46:34.998Z</time></trkpt><trkpt lat="45.06361855264056" lon="9.705423662329878"><ele>47.333333333333336</ele><time>2026-04-30T15:46:35.998Z</time></trkpt><trkpt lat="45.06379529526876" lon="9.705519772077933"><ele>46.0</ele><time>2026-04-30T15:46:36.998Z</time></trkpt><trkpt lat="45.06396344532323" lon="9.705642801671129"><ele>47.0</ele><time>2026-04-30T15:46:37.998Z</time></trkpt><trkpt lat="45.06413379035878" lon="9.705767127266574"><ele>48.0</ele><time>2026-04-30T15:46:38.998Z</time></trkpt><trkpt lat="45.06430447535341" lon="9.705891699100164"><ele>49.0</ele><time>2026-04-30T15:46:39.998Z</time></trkpt><trkpt lat="45.06446514559373" lon="9.706008961836595"><ele>48.33333333333333</ele><time>2026-04-30T15:46:40.998Z</time></trkpt><trkpt lat="45.06462745203067" lon="9.706127418802524"><ele>47.666666666666664</ele><time>2026-04-30T15:46:41.998Z</time></trkpt><trkpt lat="45.064787569936314" lon="9.706244278498135"><ele>47.0</ele><time>2026-04-30T15:46:42.998Z</time></trkpt><trkpt lat="45.06493507840276" lon="9.706352074132155"><ele>46.33333333333333</ele><time>2026-04-30T15:46:43.998Z</time></trkpt><trkpt lat="45.065091595500505" lon="9.706466515082575"><ele>45.666666666666664</ele><time>2026-04-30T15:46:44.998Z</time></trkpt><trkpt lat="45.06525767537341" lon="9.706587948072107"><ele>45.0</ele><time>2026-04-30T15:46:45.997Z</time></trkpt><trkpt lat="45.06540927989516" lon="9.706698797048047"><ele>45.0</ele><time>2026-04-30T15:46:46.997Z</time></trkpt><trkpt lat="45.06557253037891" lon="9.706818161254226"><ele>45.0</ele><time>2026-04-30T15:46:47.997Z</time></trkpt><trkpt lat="45.0657370651674" lon="9.706938464438041"><ele>45.0</ele><time>2026-04-30T15:46:48.997Z</time></trkpt><trkpt lat="45.06590410559132" lon="9.707060451829152"><ele>45.333333333333336</ele><time>2026-04-30T15:46:49.997Z</time></trkpt><trkpt lat="45.0660578796005" lon="9.707172513375982"><ele>45.66666666666667</ele><time>2026-04-30T15:46:50.997Z</time></trkpt><trkpt lat="45.06622816465286" lon="9.707296550078029"><ele>46.0</ele><time>2026-04-30T15:46:51.997Z</time></trkpt><trkpt lat="45.066388621777996" lon="9.70741301706645"><ele>46.0</ele><time>2026-04-30T15:46:52.997Z</time></trkpt><trkpt lat="45.06652961854848" lon="9.707515144671495"><ele>46.0</ele><time>2026-04-30T15:46:53.997Z</time></trkpt><trkpt lat="45.06667230159888" lon="9.707618494248285"><ele>46.0</ele><time>2026-04-30T15:46:54.997Z</time></trkpt><trkpt lat="45.066811327788784" lon="9.70771945864945"><ele>46.66666666666667</ele><time>2026-04-30T15:46:55.997Z</time></trkpt><trkpt lat="45.06696717154092" lon="9.707808953274752"><ele>47.333333333333336</ele><time>2026-04-30T15:46:56.997Z</time></trkpt><trkpt lat="45.06710087772596" lon="9.707930666266344"><ele>48.0</ele><time>2026-04-30T15:46:57.997Z</time></trkpt><trkpt lat="45.06724210620301" lon="9.708033251983252"><ele>48.0</ele><time>2026-04-30T15:46:58.997Z</time></trkpt><trkpt lat="45.06738739365604" lon="9.70813885942088"><ele>48.0</ele><time>2026-04-30T15:46:59.997Z</time></trkpt><trkpt lat="45.06751542122885" lon="9.708233461260221"><ele>48.0</ele><time>2026-04-30T15:47:00.997Z</time></trkpt><trkpt lat="45.067652400542656" lon="9.708334283334127"><ele>48.0</ele><time>2026-04-30T15:47:01.997Z</time></trkpt><trkpt lat="45.06778473318452" lon="9.708431685148467"><ele>48.0</ele><time>2026-04-30T15:47:02.997Z</time></trkpt><trkpt lat="45.06790601457239" lon="9.708520953124845"><ele>48.0</ele><time>2026-04-30T15:47:03.997Z</time></trkpt><trkpt lat="45.06802466537685" lon="9.708608284206512"><ele>48.0</ele><time>2026-04-30T15:47:04.997Z</time></trkpt><trkpt lat="45.06815452186849" lon="9.708686874923778"><ele>48.66666666666667</ele><time>2026-04-30T15:47:05.997Z</time></trkpt><trkpt lat="45.06828995763372" lon="9.708778240479974"><ele>49.333333333333336</ele><time>2026-04-30T15:47:06.997Z</time></trkpt><trkpt lat="45.06842026972901" lon="9.708900243538782"><ele>50.0</ele><time>2026-04-30T15:47:07.997Z</time></trkpt><trkpt lat="45.06855998518226" lon="9.709004082448091"><ele>50.0</ele><time>2026-04-30T15:47:08.997Z</time></trkpt><trkpt lat="45.068696029294735" lon="9.709104760528575"><ele>50.0</ele><time>2026-04-30T15:47:09.997Z</time></trkpt><trkpt lat="45.06883726944606" lon="9.709208873582607"><ele>50.0</ele><time>2026-04-30T15:47:10.997Z</time></trkpt><trkpt lat="45.06897616666819" lon="9.709311082822618"><ele>50.333333333333336</ele><time>2026-04-30T15:47:11.997Z</time></trkpt><trkpt lat="45.06911443976112" lon="9.70941261257701"><ele>50.66666666666667</ele><time>2026-04-30T15:47:12.997Z</time></trkpt><trkpt lat="45.06925300020038" lon="9.70951062220526"><ele>51.0</ele><time>2026-04-30T15:47:13.997Z</time></trkpt><trkpt lat="45.06938774886491" lon="9.709602284466962"><ele>51.0</ele><time>2026-04-30T15:47:14.997Z</time></trkpt><trkpt lat="45.06955339906014" lon="9.709686260186178"><ele>51.0</ele><time>2026-04-30T15:47:15.997Z</time></trkpt><trkpt lat="45.0697455570298" lon="9.70973690278384"><ele>51.0</ele><time>2026-04-30T15:47:16.997Z</time></trkpt><trkpt lat="45.06987817078712" lon="9.709746708975167"><ele>50.5</ele><time>2026-04-30T15:47:17.997Z</time></trkpt><trkpt lat="45.069973522332795" lon="9.709749706849381"><ele>50.0</ele><time>2026-04-30T15:47:18.997Z</time></trkpt><trkpt lat="45.07009928286338" lon="9.70974383405984"><ele>49.5</ele><time>2026-04-30T15:47:19.997Z</time></trkpt><trkpt lat="45.07025420346887" lon="9.70969741611238"><ele>49.0</ele><time>2026-04-30T15:47:20.997Z</time></trkpt><trkpt lat="45.070415163724974" lon="9.709613329702401"><ele>49.0</ele><time>2026-04-30T15:47:21.997Z</time></trkpt><trkpt lat="45.0705653677441" lon="9.709501666805384"><ele>49.0</ele><time>2026-04-30T15:47:22.997Z</time></trkpt><trkpt lat="45.0707128952656" lon="9.709385319126644"><ele>49.0</ele><time>2026-04-30T15:47:23.997Z</time></trkpt><trkpt lat="45.07085156670615" lon="9.709270028140992"><ele>49.0</ele><time>2026-04-30T15:47:24.997Z</time></trkpt><trkpt lat="45.07099696974603" lon="9.709150137107097"><ele>49.0</ele><time>2026-04-30T15:47:25.997Z</time></trkpt><trkpt lat="45.07113681843008" lon="9.709034983212756"><ele>49.0</ele><time>2026-04-30T15:47:26.997Z</time></trkpt><trkpt lat="45.07128681084593" lon="9.708912123678022"><ele>49.0</ele><time>2026-04-30T15:47:27.997Z</time></trkpt><trkpt lat="45.0714326937159" lon="9.708792457473928"><ele>49.0</ele><time>2026-04-30T15:47:28.997Z</time></trkpt><trkpt lat="45.071591060552024" lon="9.70866249745887"><ele>49.0</ele><time>2026-04-30T15:47:29.997Z</time></trkpt><trkpt lat="45.07175452872458" lon="9.708528485926548"><ele>48.33333333333333</ele><time>2026-04-30T15:47:30.997Z</time></trkpt><trkpt lat="45.071920865595466" lon="9.708393186629939"><ele>47.666666666666664</ele><time>2026-04-30T15:47:31.997Z</time></trkpt><trkpt lat="45.07208703537615" lon="9.70825802324548"><ele>47.0</ele><time>2026-04-30T15:47:32.997Z</time></trkpt><trkpt lat="45.07224969020219" lon="9.708125718942267"><ele>47.0</ele><time>2026-04-30T15:47:33.997Z</time></trkpt><trkpt lat="45.07241669672246" lon="9.707989874946335"><ele>47.0</ele><time>2026-04-30T15:47:34.997Z</time></trkpt><trkpt lat="45.07259054588326" lon="9.707848994886664"><ele>47.0</ele><time>2026-04-30T15:47:35.997Z</time></trkpt><trkpt lat="45.072761105898294" lon="9.7077109259441"><ele>47.33333333333333</ele><time>2026-04-30T15:47:36.997Z</time></trkpt><trkpt lat="45.07293122582961" lon="9.707573213252228"><ele>47.666666666666664</ele><time>2026-04-30T15:47:37.997Z</time></trkpt><trkpt lat="45.07310815499053" lon="9.707430348536887"><ele>48.0</ele><time>2026-04-30T15:47:38.997Z</time></trkpt><trkpt lat="45.07328337301593" lon="9.707289074219682"><ele>48.0</ele><time>2026-04-30T15:47:39.997Z</time></trkpt><trkpt lat="45.07345816714663" lon="9.70714814167679"><ele>48.0</ele><time>2026-04-30T15:47:40.997Z</time></trkpt><trkpt lat="45.07362074870016" lon="9.707017196752538"><ele>48.0</ele><time>2026-04-30T15:47:41.996Z</time></trkpt><trkpt lat="45.0737759696793" lon="9.706892284266575"><ele>47.666666666666664</ele><time>2026-04-30T15:47:42.996Z</time></trkpt><trkpt lat="45.07391557356602" lon="9.706779943370847"><ele>47.33333333333333</ele><time>2026-04-30T15:47:43.996Z</time></trkpt><trkpt lat="45.07404989763629" lon="9.70667185518183"><ele>47.0</ele><time>2026-04-30T15:47:44.996Z</time></trkpt><trkpt lat="45.07418474667777" lon="9.706563344558775"><ele>47.0</ele><time>2026-04-30T15:47:45.996Z</time></trkpt><trkpt lat="45.07432167140702" lon="9.706453163670774"><ele>47.0</ele><time>2026-04-30T15:47:46.996Z</time></trkpt><trkpt lat="45.074448255018126" lon="9.706333041746198"><ele>47.0</ele><time>2026-04-30T15:47:47.996Z</time></trkpt><trkpt lat="45.07460477309509" lon="9.70625343466489"><ele>47.0</ele><time>2026-04-30T15:47:48.996Z</time></trkpt><trkpt lat="45.07473841876626" lon="9.70616435466894"><ele>47.0</ele><time>2026-04-30T15:47:49.996Z</time></trkpt><trkpt lat="45.07486216634282" lon="9.706073112244882"><ele>47.0</ele><time>2026-04-30T15:47:50.996Z</time></trkpt><trkpt lat="45.07496812206608" lon="9.705954246165154"><ele>47.0</ele><time>2026-04-30T15:47:51.996Z</time></trkpt><trkpt lat="45.07506100870203" lon="9.705863944176137"><ele>47.2</ele><time>2026-04-30T15:47:52.996Z</time></trkpt><trkpt lat="45.07516300081336" lon="9.705803499662016"><ele>47.400000000000006</ele><time>2026-04-30T15:47:53.996Z</time></trkpt><trkpt lat="45.07525052406241" lon="9.705747230319941"><ele>47.599999999999994</ele><time>2026-04-30T15:47:54.996Z</time></trkpt><trkpt lat="45.075334433233046" lon="9.705679264096352"><ele>47.8</ele><time>2026-04-30T15:47:55.996Z</time></trkpt><trkpt lat="45.075422810418694" lon="9.705645385608287"><ele>48.0</ele><time>2026-04-30T15:47:56.996Z</time></trkpt><trkpt lat="45.07551225561658" lon="9.705562401563402"><ele>48.0</ele><time>2026-04-30T15:47:57.996Z</time></trkpt><trkpt lat="45.07560468633267" lon="9.705479359338286"><ele>48.0</ele><time>2026-04-30T15:47:58.996Z</time></trkpt><trkpt lat="45.075700681194334" lon="9.705412299898027"><ele>48.0</ele><time>2026-04-30T15:47:59.996Z</time></trkpt><trkpt lat="45.07580520002652" lon="9.705360689306431"><ele>48.0</ele><time>2026-04-30T15:48:00.996Z</time></trkpt><trkpt lat="45.07589129423792" lon="9.705260028409887"><ele>48.0</ele><time>2026-04-30T15:48:01.996Z</time></trkpt><trkpt lat="45.075936612558614" lon="9.70513243207827"><ele>48.0</ele><time>2026-04-30T15:48:02.996Z</time></trkpt><trkpt lat="45.07600381675535" lon="9.705074976382035"><ele>48.0</ele><time>2026-04-30T15:48:03.996Z</time></trkpt><trkpt lat="45.076076057692724" lon="9.705011803213893"><ele>48.0</ele><time>2026-04-30T15:48:04.996Z</time></trkpt><trkpt lat="45.07618055452754" lon="9.704943749492683"><ele>48.0</ele><time>2026-04-30T15:48:05.996Z</time></trkpt><trkpt lat="45.07627818091932" lon="9.704880959907555"><ele>48.0</ele><time>2026-04-30T15:48:06.996Z</time></trkpt><trkpt lat="45.076363769086086" lon="9.704817668838215"><ele>48.0</ele><time>2026-04-30T15:48:07.996Z</time></trkpt><trkpt lat="45.07643288342176" lon="9.704759979398982"><ele>48.0</ele><time>2026-04-30T15:48:08.996Z</time></trkpt><trkpt lat="45.07648898965733" lon="9.704713147793461"><ele>48.0</ele><time>2026-04-30T15:48:09.996Z</time></trkpt><trkpt lat="45.07660579399548" lon="9.704616385405378"><ele>48.0</ele><time>2026-04-30T15:48:11.996Z</time></trkpt><trkpt lat="45.076672746532665" lon="9.70456246370786"><ele>48.0</ele><time>2026-04-30T15:48:13.996Z</time></trkpt><trkpt lat="45.07673656058275" lon="9.704487024584775"><ele>48.0</ele><time>2026-04-30T15:48:15.996Z</time></trkpt><trkpt lat="45.07683242311614" lon="9.704395938735077"><ele>47.4</ele><time>2026-04-30T15:48:17.996Z</time></trkpt><trkpt lat="45.07690275488354" lon="9.704353265328939"><ele>46.8</ele><time>2026-04-30T15:48:19.996Z</time></trkpt><trkpt lat="45.07698617292436" lon="9.704274753835959"><ele>46.2</ele><time>2026-04-30T15:48:21.996Z</time></trkpt><trkpt lat="45.077077880246776" lon="9.704192222111281"><ele>45.6</ele><time>2026-04-30T15:48:23.996Z</time></trkpt><trkpt lat="45.077163740678095" lon="9.704158942150974"><ele>45.0</ele><time>2026-04-30T15:48:25.996Z</time></trkpt><trkpt lat="45.07727787326671" lon="9.704137412004139"><ele>45.0</ele><time>2026-04-30T15:48:26.996Z</time></trkpt><trkpt lat="45.077348941742784" lon="9.703963522198668"><ele>45.0</ele><time>2026-04-30T15:48:27.996Z</time></trkpt><trkpt lat="45.07734987337066" lon="9.703798917799963"><ele>45.0</ele><time>2026-04-30T15:48:28.996Z</time></trkpt><trkpt lat="45.077346076345144" lon="9.703667340301164"><ele>45.0</ele><time>2026-04-30T15:48:29.996Z</time></trkpt><trkpt lat="45.07736673623471" lon="9.70353413547371"><ele>45.0</ele><time>2026-04-30T15:48:30.996Z</time></trkpt><trkpt lat="45.077411415249664" lon="9.703417384347961"><ele>44.5</ele><time>2026-04-30T15:48:31.996Z</time></trkpt><trkpt lat="45.07746082391529" lon="9.703291439935064"><ele>44.0</ele><time>2026-04-30T15:48:32.996Z</time></trkpt><trkpt lat="45.07750903515137" lon="9.7031679211727"><ele>43.5</ele><time>2026-04-30T15:48:33.996Z</time></trkpt><trkpt lat="45.07760180047007" lon="9.703043234549453"><ele>43.0</ele><time>2026-04-30T15:48:34.996Z</time></trkpt><trkpt lat="45.07769453384603" lon="9.70288262140553"><ele>43.333333333333336</ele><time>2026-04-30T15:48:35.996Z</time></trkpt><trkpt lat="45.07779002511233" lon="9.70271534670879"><ele>43.666666666666664</ele><time>2026-04-30T15:48:36.995Z</time></trkpt><trkpt lat="45.077872659840835" lon="9.702529203730316"><ele>44.0</ele><time>2026-04-30T15:48:37.995Z</time></trkpt><trkpt lat="45.07794869096544" lon="9.702317127391161"><ele>44.0</ele><time>2026-04-30T15:48:38.995Z</time></trkpt><trkpt lat="45.07802794754963" lon="9.702089080740636"><ele>44.0</ele><time>2026-04-30T15:48:39.995Z</time></trkpt><trkpt lat="45.07810112252316" lon="9.701854778589688"><ele>44.0</ele><time>2026-04-30T15:48:40.995Z</time></trkpt><trkpt lat="45.07817241571828" lon="9.701628997870685"><ele>44.666666666666664</ele><time>2026-04-30T15:48:41.995Z</time></trkpt><trkpt lat="45.078250536451804" lon="9.701406574109368"><ele>45.333333333333336</ele><time>2026-04-30T15:48:42.995Z</time></trkpt><trkpt lat="45.0783293970072" lon="9.70118287359269"><ele>46.0</ele><time>2026-04-30T15:48:43.995Z</time></trkpt><trkpt lat="45.07839018308623" lon="9.700943236833067"><ele>47.0</ele><time>2026-04-30T15:48:44.995Z</time></trkpt><trkpt lat="45.07844634455461" lon="9.700715865006668"><ele>48.0</ele><time>2026-04-30T15:48:45.995Z</time></trkpt><trkpt lat="45.078524132373246" lon="9.700489889897913"><ele>49.0</ele><time>2026-04-30T15:48:46.995Z</time></trkpt><trkpt lat="45.07862622590689" lon="9.700294534186218"><ele>47.666666666666664</ele><time>2026-04-30T15:48:47.995Z</time></trkpt><trkpt lat="45.078668365654806" lon="9.700042408430841"><ele>46.33333333333333</ele><time>2026-04-30T15:48:48.995Z</time></trkpt><trkpt lat="45.07872921574424" lon="9.69979682403674"><ele>45.0</ele><time>2026-04-30T15:48:49.995Z</time></trkpt><trkpt lat="45.078795721882" lon="9.6995625071162"><ele>45.0</ele><time>2026-04-30T15:48:50.995Z</time></trkpt><trkpt lat="45.078874638001096" lon="9.699327845509394"><ele>45.0</ele><time>2026-04-30T15:48:51.995Z</time></trkpt><trkpt lat="45.078936220825284" lon="9.699075443704007"><ele>45.0</ele><time>2026-04-30T15:48:52.995Z</time></trkpt><trkpt lat="45.078998915121424" lon="9.698853511224263"><ele>45.0</ele><time>2026-04-30T15:48:53.995Z</time></trkpt><trkpt lat="45.079040013783064" lon="9.698543118996335"><ele>45.0</ele><time>2026-04-30T15:48:54.995Z</time></trkpt><trkpt lat="45.07908765490957" lon="9.698274717974073"><ele>45.0</ele><time>2026-04-30T15:48:55.995Z</time></trkpt><trkpt lat="45.07915142024316" lon="9.698006418283605"><ele>46.0</ele><time>2026-04-30T15:48:56.995Z</time></trkpt><trkpt lat="45.079204825745656" lon="9.6977460155895"><ele>47.0</ele><time>2026-04-30T15:48:57.995Z</time></trkpt><trkpt lat="45.07926823521147" lon="9.69750233903429"><ele>48.0</ele><time>2026-04-30T15:48:58.995Z</time></trkpt><trkpt lat="45.07934036032225" lon="9.697269709651554"><ele>48.0</ele><time>2026-04-30T15:48:59.995Z</time></trkpt><trkpt lat="45.079462967145325" lon="9.697057169795102"><ele>48.0</ele><time>2026-04-30T15:49:00.995Z</time></trkpt><trkpt lat="45.07952575214877" lon="9.696829108823218"><ele>48.0</ele><time>2026-04-30T15:49:01.995Z</time></trkpt><trkpt lat="45.079589198341026" lon="9.696595631113055"><ele>47.333333333333336</ele><time>2026-04-30T15:49:02.995Z</time></trkpt><trkpt lat="45.079637272981664" lon="9.696356239618225"><ele>46.66666666666667</ele><time>2026-04-30T15:49:03.995Z</time></trkpt><trkpt lat="45.07972566434233" lon="9.696130384274369"><ele>46.0</ele><time>2026-04-30T15:49:04.995Z</time></trkpt><trkpt lat="45.07980306139638" lon="9.695914952970083"><ele>46.333333333333336</ele><time>2026-04-30T15:49:05.995Z</time></trkpt><trkpt lat="45.079892662668065" lon="9.695669645477993"><ele>46.666666666666664</ele><time>2026-04-30T15:49:06.995Z</time></trkpt><trkpt lat="45.079967048433275" lon="9.695433992637323"><ele>47.0</ele><time>2026-04-30T15:49:07.995Z</time></trkpt><trkpt lat="45.08003544569568" lon="9.69521569529406"><ele>47.0</ele><time>2026-04-30T15:49:08.995Z</time></trkpt><trkpt lat="45.080106267608684" lon="9.694988980792543"><ele>47.0</ele><time>2026-04-30T15:49:09.995Z</time></trkpt><trkpt lat="45.080177249373584" lon="9.694758342210706"><ele>47.0</ele><time>2026-04-30T15:49:10.995Z</time></trkpt><trkpt lat="45.08023905046494" lon="9.69453025396233"><ele>46.666666666666664</ele><time>2026-04-30T15:49:11.995Z</time></trkpt><trkpt lat="45.08029931518588" lon="9.694295688649186"><ele>46.333333333333336</ele><time>2026-04-30T15:49:12.995Z</time></trkpt><trkpt lat="45.080363451569035" lon="9.69408152308314"><ele>46.0</ele><time>2026-04-30T15:49:13.995Z</time></trkpt><trkpt lat="45.080433218199" lon="9.693846669073766"><ele>46.333333333333336</ele><time>2026-04-30T15:49:14.995Z</time></trkpt><trkpt lat="45.080496988383665" lon="9.693582942850785"><ele>46.666666666666664</ele><time>2026-04-30T15:49:15.995Z</time></trkpt><trkpt lat="45.08056108472448" lon="9.69335094299537"><ele>47.0</ele><time>2026-04-30T15:49:16.995Z</time></trkpt><trkpt lat="45.08063290911558" lon="9.693109695598451"><ele>47.0</ele><time>2026-04-30T15:49:17.995Z</time></trkpt><trkpt lat="45.08070503883869" lon="9.69291232793124"><ele>47.0</ele><time>2026-04-30T15:49:18.995Z</time></trkpt><trkpt lat="45.080808083949904" lon="9.692739718416489"><ele>47.0</ele><time>2026-04-30T15:49:19.995Z</time></trkpt><trkpt lat="45.08091810775965" lon="9.692602782538792"><ele>46.75</ele><time>2026-04-30T15:49:20.995Z</time></trkpt><trkpt lat="45.08099819983162" lon="9.692443532562224"><ele>46.5</ele><time>2026-04-30T15:49:21.995Z</time></trkpt><trkpt lat="45.081132251466194" lon="9.692346488456796"><ele>46.25</ele><time>2026-04-30T15:49:22.995Z</time></trkpt><trkpt lat="45.08127989414407" lon="9.69232950779397"><ele>46.0</ele><time>2026-04-30T15:49:23.995Z</time></trkpt><trkpt lat="45.08143347743281" lon="9.692311610606659"><ele>46.0</ele><time>2026-04-30T15:49:24.995Z</time></trkpt><trkpt lat="45.081593028438256" lon="9.692295935497475"><ele>46.0</ele><time>2026-04-30T15:49:25.995Z</time></trkpt><trkpt lat="45.081753000220665" lon="9.692282575582471"><ele>46.0</ele><time>2026-04-30T15:49:26.995Z</time></trkpt><trkpt lat="45.08191594824926" lon="9.692273119590674"><ele>47.0</ele><time>2026-04-30T15:49:27.995Z</time></trkpt><trkpt lat="45.08207568196111" lon="9.692248487578174"><ele>48.0</ele><time>2026-04-30T15:49:28.995Z</time></trkpt><trkpt lat="45.08223946955889" lon="9.692192524383511"><ele>49.0</ele><time>2026-04-30T15:49:29.995Z</time></trkpt><trkpt lat="45.0824056074245" lon="9.692118060065784"><ele>49.0</ele><time>2026-04-30T15:49:30.995Z</time></trkpt><trkpt lat="45.08256304758646" lon="9.691993580237154"><ele>49.0</ele><time>2026-04-30T15:49:31.995Z</time></trkpt><trkpt lat="45.08272693220585" lon="9.691892160038517"><ele>49.0</ele><time>2026-04-30T15:49:32.994Z</time></trkpt><trkpt lat="45.08287183058" lon="9.691789294394649"><ele>48.666666666666664</ele><time>2026-04-30T15:49:33.994Z</time></trkpt><trkpt lat="45.08302496240351" lon="9.691684162054564"><ele>48.33333333333333</ele><time>2026-04-30T15:49:34.994Z</time></trkpt><trkpt lat="45.08316552538592" lon="9.691578385991715"><ele>48.0</ele><time>2026-04-30T15:49:35.994Z</time></trkpt><trkpt lat="45.08330673250705" lon="9.691458888480348"><ele>48.0</ele><time>2026-04-30T15:49:36.994Z</time></trkpt><trkpt lat="45.08345758764038" lon="9.691362306071968"><ele>48.0</ele><time>2026-04-30T15:49:37.994Z</time></trkpt><trkpt lat="45.083603608877205" lon="9.69124942357471"><ele>48.0</ele><time>2026-04-30T15:49:38.994Z</time></trkpt><trkpt lat="45.08376123449521" lon="9.691153814855955"><ele>48.0</ele><time>2026-04-30T15:49:39.994Z</time></trkpt><trkpt lat="45.0839326909151" lon="9.691075925379243"><ele>48.0</ele><time>2026-04-30T15:49:40.994Z</time></trkpt><trkpt lat="45.08410479247077" lon="9.690966598030132"><ele>48.0</ele><time>2026-04-30T15:49:41.994Z</time></trkpt><trkpt lat="45.08427315899629" lon="9.690850161837954"><ele>47.333333333333336</ele><time>2026-04-30T15:49:42.994Z</time></trkpt><trkpt lat="45.08443531815499" lon="9.690734735760097"><ele>46.66666666666667</ele><time>2026-04-30T15:49:43.994Z</time></trkpt><trkpt lat="45.0846027570796" lon="9.690615141502676"><ele>46.0</ele><time>2026-04-30T15:49:44.994Z</time></trkpt><trkpt lat="45.084765882071466" lon="9.69049862849175"><ele>46.0</ele><time>2026-04-30T15:49:45.994Z</time></trkpt><trkpt lat="45.08493347872194" lon="9.6903789216405"><ele>46.0</ele><time>2026-04-30T15:49:46.994Z</time></trkpt><trkpt lat="45.085104193882785" lon="9.690256987361415"><ele>46.0</ele><time>2026-04-30T15:49:47.994Z</time></trkpt><trkpt lat="45.08527571817287" lon="9.690134475145125"><ele>46.0</ele><time>2026-04-30T15:49:48.994Z</time></trkpt><trkpt lat="45.08544228083016" lon="9.69001563712488"><ele>46.0</ele><time>2026-04-30T15:49:49.994Z</time></trkpt><trkpt lat="45.08561013356564" lon="9.689896420469772"><ele>46.0</ele><time>2026-04-30T15:49:50.994Z</time></trkpt><trkpt lat="45.08578333592624" lon="9.689773111962344"><ele>45.66666666666667</ele><time>2026-04-30T15:49:51.994Z</time></trkpt><trkpt lat="45.0859519057474" lon="9.689651765470803"><ele>45.333333333333336</ele><time>2026-04-30T15:49:52.994Z</time></trkpt><trkpt lat="45.08612624130996" lon="9.689524674854669"><ele>45.0</ele><time>2026-04-30T15:49:53.994Z</time></trkpt><trkpt lat="45.08630142597478" lon="9.689400170008065"><ele>45.0</ele><time>2026-04-30T15:49:54.994Z</time></trkpt><trkpt lat="45.08642722210615" lon="9.68920316617399"><ele>45.0</ele><time>2026-04-30T15:49:55.994Z</time></trkpt><trkpt lat="45.086596286123076" lon="9.689111467235705"><ele>45.0</ele><time>2026-04-30T15:49:56.994Z</time></trkpt><trkpt lat="45.08676446095577" lon="9.689016589835003"><ele>45.0</ele><time>2026-04-30T15:49:57.994Z</time></trkpt><trkpt lat="45.08695452246665" lon="9.689026474373186"><ele>45.0</ele><time>2026-04-30T15:49:58.994Z</time></trkpt><trkpt lat="45.087130942762954" lon="9.689192813210678"><ele>45.0</ele><time>2026-04-30T15:49:59.994Z</time></trkpt><trkpt lat="45.08730487833163" lon="9.689227723639373"><ele>45.333333333333336</ele><time>2026-04-30T15:50:00.994Z</time></trkpt><trkpt lat="45.08748020630403" lon="9.689269481252106"><ele>45.66666666666667</ele><time>2026-04-30T15:50:01.994Z</time></trkpt><trkpt lat="45.08764023623748" lon="9.689308386339935"><ele>46.0</ele><time>2026-04-30T15:50:02.994Z</time></trkpt><trkpt lat="45.08780215547242" lon="9.689347662973379"><ele>46.0</ele><time>2026-04-30T15:50:03.994Z</time></trkpt><trkpt lat="45.087957119600105" lon="9.689385148700762"><ele>46.0</ele><time>2026-04-30T15:50:04.994Z</time></trkpt><trkpt lat="45.08810986342417" lon="9.689422099223284"><ele>46.0</ele><time>2026-04-30T15:50:05.994Z</time></trkpt><trkpt lat="45.088260761268636" lon="9.689458601408882"><ele>46.0</ele><time>2026-04-30T15:50:06.994Z</time></trkpt><trkpt lat="45.08841732131267" lon="9.689496473126988"><ele>46.0</ele><time>2026-04-30T15:50:07.994Z</time></trkpt><trkpt lat="45.088579710857" lon="9.689535755027876"><ele>46.0</ele><time>2026-04-30T15:50:08.994Z</time></trkpt><trkpt lat="45.08872703216379" lon="9.689571391985222"><ele>46.0</ele><time>2026-04-30T15:50:09.994Z</time></trkpt><trkpt lat="45.08886270881639" lon="9.689604212082267"><ele>46.0</ele><time>2026-04-30T15:50:10.994Z</time></trkpt><trkpt lat="45.089011260536935" lon="9.68964014662791"><ele>46.0</ele><time>2026-04-30T15:50:11.994Z</time></trkpt><trkpt lat="45.089153204508726" lon="9.689674280628068"><ele>46.0</ele><time>2026-04-30T15:50:12.994Z</time></trkpt><trkpt lat="45.089306615180256" lon="9.689711133088473"><ele>46.333333333333336</ele><time>2026-04-30T15:50:13.994Z</time></trkpt><trkpt lat="45.089472457228965" lon="9.689750971867412"><ele>46.666666666666664</ele><time>2026-04-30T15:50:14.994Z</time></trkpt><trkpt lat="45.089631803889816" lon="9.6897892502563"><ele>47.0</ele><time>2026-04-30T15:50:15.994Z</time></trkpt><trkpt lat="45.0897826500328" lon="9.68982548667668"><ele>47.0</ele><time>2026-04-30T15:50:16.994Z</time></trkpt><trkpt lat="45.089938794424754" lon="9.689862995828706"><ele>47.0</ele><time>2026-04-30T15:50:17.994Z</time></trkpt><trkpt lat="45.09008987187233" lon="9.689899287778623"><ele>47.0</ele><time>2026-04-30T15:50:18.994Z</time></trkpt><trkpt lat="45.09025198817358" lon="9.689940032894803"><ele>47.0</ele><time>2026-04-30T15:50:19.994Z</time></trkpt><trkpt lat="45.09041054469134" lon="9.689979730912961"><ele>47.0</ele><time>2026-04-30T15:50:20.994Z</time></trkpt><trkpt lat="45.09055931089467" lon="9.690016111558485"><ele>47.0</ele><time>2026-04-30T15:50:21.994Z</time></trkpt><trkpt lat="45.09071382130449" lon="9.690051285005818"><ele>46.33333333333333</ele><time>2026-04-30T15:50:22.994Z</time></trkpt><trkpt lat="45.090887961211955" lon="9.69008479214638"><ele>45.666666666666664</ele><time>2026-04-30T15:50:23.994Z</time></trkpt><trkpt lat="45.09106419176161" lon="9.690091866448004"><ele>45.0</ele><time>2026-04-30T15:50:24.994Z</time></trkpt><trkpt lat="45.09124140822122" lon="9.690061646276614"><ele>45.0</ele><time>2026-04-30T15:50:25.994Z</time></trkpt><trkpt lat="45.09140655964053" lon="9.69001166336194"><ele>45.0</ele><time>2026-04-30T15:50:26.994Z</time></trkpt><trkpt lat="45.09158974759743" lon="9.689951075470374"><ele>45.0</ele><time>2026-04-30T15:50:27.994Z</time></trkpt><trkpt lat="45.09177294782844" lon="9.689894348486456"><ele>45.0</ele><time>2026-04-30T15:50:28.993Z</time></trkpt><trkpt lat="45.09194770247362" lon="9.689840877284915"><ele>45.0</ele><time>2026-04-30T15:50:29.993Z</time></trkpt><trkpt lat="45.09211011983033" lon="9.689791181048099"><ele>45.0</ele><time>2026-04-30T15:50:30.993Z</time></trkpt><trkpt lat="45.092282813035766" lon="9.689738093261939"><ele>44.666666666666664</ele><time>2026-04-30T15:50:31.993Z</time></trkpt><trkpt lat="45.092432224141895" lon="9.68969084586655"><ele>44.33333333333333</ele><time>2026-04-30T15:50:32.993Z</time></trkpt><trkpt lat="45.09259713883378" lon="9.68963869598077"><ele>44.0</ele><time>2026-04-30T15:50:33.993Z</time></trkpt><trkpt lat="45.092741867899726" lon="9.689592929288095"><ele>44.0</ele><time>2026-04-30T15:50:34.993Z</time></trkpt><trkpt lat="45.09289995799609" lon="9.689542937400699"><ele>44.0</ele><time>2026-04-30T15:50:35.993Z</time></trkpt><trkpt lat="45.09305093577345" lon="9.689495196581804"><ele>44.0</ele><time>2026-04-30T15:50:36.993Z</time></trkpt><trkpt lat="45.093199568641836" lon="9.689448535707182"><ele>44.33333333333333</ele><time>2026-04-30T15:50:37.993Z</time></trkpt><trkpt lat="45.09335317636871" lon="9.689404280171082"><ele>44.666666666666664</ele><time>2026-04-30T15:50:38.993Z</time></trkpt><trkpt lat="45.09350716106525" lon="9.689359916021353"><ele>45.0</ele><time>2026-04-30T15:50:39.993Z</time></trkpt><trkpt lat="45.09365123651757" lon="9.689318406745102"><ele>45.0</ele><time>2026-04-30T15:50:40.993Z</time></trkpt><trkpt lat="45.09381549464692" lon="9.6892710827253"><ele>45.0</ele><time>2026-04-30T15:50:41.993Z</time></trkpt><trkpt lat="45.0939916473724" lon="9.68922033180235"><ele>45.0</ele><time>2026-04-30T15:50:42.993Z</time></trkpt><trkpt lat="45.09415238623997" lon="9.689173927598672"><ele>45.666666666666664</ele><time>2026-04-30T15:50:43.993Z</time></trkpt><trkpt lat="45.09432713117398" lon="9.689123452883866"><ele>46.33333333333333</ele><time>2026-04-30T15:50:44.993Z</time></trkpt><trkpt lat="45.094510211705504" lon="9.689067674704807"><ele>47.0</ele><time>2026-04-30T15:50:45.993Z</time></trkpt><trkpt lat="45.094689099233655" lon="9.689012451400552"><ele>47.0</ele><time>2026-04-30T15:50:46.993Z</time></trkpt><trkpt lat="45.09485256249506" lon="9.688961989482863"><ele>47.0</ele><time>2026-04-30T15:50:47.993Z</time></trkpt><trkpt lat="45.095021572616524" lon="9.688909768653797"><ele>47.0</ele><time>2026-04-30T15:50:48.993Z</time></trkpt><trkpt lat="45.09518405514571" lon="9.688859545514358"><ele>47.0</ele><time>2026-04-30T15:50:49.993Z</time></trkpt><trkpt lat="45.095361321221326" lon="9.688804752763625"><ele>47.0</ele><time>2026-04-30T15:50:50.993Z</time></trkpt><trkpt lat="45.09552601954542" lon="9.68875384475106"><ele>47.0</ele><time>2026-04-30T15:50:51.993Z</time></trkpt><trkpt lat="45.09569117424061" lon="9.68870279558383"><ele>46.666666666666664</ele><time>2026-04-30T15:50:52.993Z</time></trkpt><trkpt lat="45.09584727372197" lon="9.688652226349863"><ele>46.333333333333336</ele><time>2026-04-30T15:50:53.993Z</time></trkpt><trkpt lat="45.09602499448558" lon="9.68858877517147"><ele>46.0</ele><time>2026-04-30T15:50:54.993Z</time></trkpt><trkpt lat="45.096212813998925" lon="9.688496058673891"><ele>46.0</ele><time>2026-04-30T15:50:55.993Z</time></trkpt><trkpt lat="45.09638058815636" lon="9.688392121452718"><ele>46.0</ele><time>2026-04-30T15:50:56.993Z</time></trkpt><trkpt lat="45.09651656217685" lon="9.688296429120381"><ele>46.0</ele><time>2026-04-30T15:50:58Z</time></trkpt><trkpt lat="45.09664075379396" lon="9.688204939716954"><ele>46.0</ele><time>2026-04-30T15:50:59Z</time></trkpt><trkpt lat="45.09674926527439" lon="9.688123276919232"><ele>46.0</ele><time>2026-04-30T15:51:00Z</time></trkpt><trkpt lat="45.09685368670274" lon="9.688044159107182"><ele>46.0</ele><time>2026-04-30T15:51:01Z</time></trkpt><trkpt lat="45.09695173919437" lon="9.687969253597306"><ele>46.0</ele><time>2026-04-30T15:51:02Z</time></trkpt><trkpt lat="45.09704537630594" lon="9.687898917884796"><ele>46.0</ele><time>2026-04-30T15:51:03Z</time></trkpt><trkpt lat="45.09713209024925" lon="9.687834265165847"><ele>46.0</ele><time>2026-04-30T15:51:04Z</time></trkpt><trkpt lat="45.09720701269873" lon="9.687776765991181"><ele>46.0</ele><time>2026-04-30T15:51:05Z</time></trkpt><trkpt lat="45.097255862735445" lon="9.687684003291682"><ele>46.0</ele><time>2026-04-30T15:51:06Z</time></trkpt><trkpt lat="45.09731958264357" lon="9.687669928135868"><ele>46.0</ele><time>2026-04-30T15:51:07Z</time></trkpt><trkpt lat="45.097445828489676" lon="9.687685171440767"><ele>45.5</ele><time>2026-04-30T15:51:09Z</time></trkpt><trkpt lat="45.09753849255136" lon="9.687650447085057"><ele>45.0</ele><time>2026-04-30T15:51:10Z</time></trkpt><trkpt lat="45.09759326011151" lon="9.687581194856067"><ele>44.5</ele><time>2026-04-30T15:51:11Z</time></trkpt><trkpt lat="45.09762887504537" lon="9.687472954910339"><ele>44.0</ele><time>2026-04-30T15:51:12Z</time></trkpt><trkpt lat="45.09768784258735" lon="9.687403596189268"><ele>43.5</ele><time>2026-04-30T15:51:13Z</time></trkpt><trkpt lat="45.097762947172434" lon="9.687347901382893"><ele>43.0</ele><time>2026-04-30T15:51:14Z</time></trkpt><trkpt lat="45.097855483637886" lon="9.68727779795674"><ele>43.0</ele><time>2026-04-30T15:51:15Z</time></trkpt><trkpt lat="45.097965039202336" lon="9.687194528240605"><ele>43.0</ele><time>2026-04-30T15:51:16Z</time></trkpt><trkpt lat="45.098057960608365" lon="9.687123901550814"><ele>43.0</ele><time>2026-04-30T15:51:17Z</time></trkpt><trkpt lat="45.09816633571027" lon="9.687041528993824"><ele>43.0</ele><time>2026-04-30T15:51:18Z</time></trkpt><trkpt lat="45.09826840028104" lon="9.686964121963015"><ele>43.75</ele><time>2026-04-30T15:51:19Z</time></trkpt><trkpt lat="45.09836499016198" lon="9.686868266425755"><ele>44.5</ele><time>2026-04-30T15:51:20Z</time></trkpt><trkpt lat="45.09847211047447" lon="9.686794886924442"><ele>45.25</ele><time>2026-04-30T15:51:21Z</time></trkpt><trkpt lat="45.09857675181481" lon="9.686713239006329"><ele>46.0</ele><time>2026-04-30T15:51:22Z</time></trkpt><trkpt lat="45.098649263244454" lon="9.686595471338649"><ele>46.0</ele><time>2026-04-30T15:51:23Z</time></trkpt><trkpt lat="45.09873735115665" lon="9.686492294253993"><ele>46.0</ele><time>2026-04-30T15:51:24Z</time></trkpt><trkpt lat="45.0988529779577" lon="9.686409971649674"><ele>46.0</ele><time>2026-04-30T15:51:25Z</time></trkpt><trkpt lat="45.09898313597067" lon="9.686318817515017"><ele>46.0</ele><time>2026-04-30T15:51:26Z</time></trkpt><trkpt lat="45.09912449545465" lon="9.68630912376775"><ele>46.0</ele><time>2026-04-30T15:51:27Z</time></trkpt><trkpt lat="45.09923509876524" lon="9.686226991033399"><ele>46.0</ele><time>2026-04-30T15:51:28Z</time></trkpt><trkpt lat="45.09934789838232" lon="9.686143480963485"><ele>46.0</ele><time>2026-04-30T15:51:29Z</time></trkpt><trkpt lat="45.09945364993066" lon="9.686070787156387"><ele>46.0</ele><time>2026-04-30T15:51:30Z</time></trkpt><trkpt lat="45.09956281844731" lon="9.68599081548844"><ele>46.0</ele><time>2026-04-30T15:51:31Z</time></trkpt><trkpt lat="45.09968845726455" lon="9.68589945131294"><ele>46.0</ele><time>2026-04-30T15:51:32Z</time></trkpt><trkpt lat="45.09980279883658" lon="9.685815854410302"><ele>46.0</ele><time>2026-04-30T15:51:33Z</time></trkpt><trkpt lat="45.09992119479853" lon="9.685725755795874"><ele>46.0</ele><time>2026-04-30T15:51:34Z</time></trkpt><trkpt lat="45.09998066451785" lon="9.685469928500035"><ele>46.0</ele><time>2026-04-30T15:51:35Z</time></trkpt><trkpt lat="45.10009292299536" lon="9.685364256332115"><ele>46.0</ele><time>2026-04-30T15:51:35.999Z</time></trkpt><trkpt lat="45.1002202542391" lon="9.685275878852263"><ele>46.0</ele><time>2026-04-30T15:51:36.999Z</time></trkpt><trkpt lat="45.100329960264055" lon="9.68520597262626"><ele>46.0</ele><time>2026-04-30T15:51:37.999Z</time></trkpt><trkpt lat="45.10049537251182" lon="9.685292104442706"><ele>46.199999999999996</ele><time>2026-04-30T15:51:38.999Z</time></trkpt><trkpt lat="45.100600464343714" lon="9.68521931702729"><ele>46.4</ele><time>2026-04-30T15:51:39.999Z</time></trkpt><trkpt lat="45.10067652328797" lon="9.68516786000334"><ele>46.6</ele><time>2026-04-30T15:51:40.999Z</time></trkpt><trkpt lat="45.10074274165404" lon="9.685122912399919"><ele>46.8</ele><time>2026-04-30T15:51:41.999Z</time></trkpt><trkpt lat="45.10081390210112" lon="9.685083110576564"><ele>47.0</ele><time>2026-04-30T15:51:42.999Z</time></trkpt><trkpt lat="45.10089443871888" lon="9.684954833961484"><ele>46.400000000000006</ele><time>2026-04-30T15:51:43.999Z</time></trkpt><trkpt lat="45.10097377683037" lon="9.684997076209799"><ele>45.800000000000004</ele><time>2026-04-30T15:51:44.999Z</time></trkpt><trkpt lat="45.10105700206839" lon="9.685054543539977"><ele>45.2</ele><time>2026-04-30T15:51:45.999Z</time></trkpt><trkpt lat="45.10116601570869" lon="9.68503386869744"><ele>44.6</ele><time>2026-04-30T15:51:46.999Z</time></trkpt><trkpt lat="45.101281034996894" lon="9.685043308605238"><ele>44.0</ele><time>2026-04-30T15:51:47.999Z</time></trkpt><trkpt lat="45.101385180471446" lon="9.685009758644348"><ele>44.0</ele><time>2026-04-30T15:51:48.999Z</time></trkpt><trkpt lat="45.10149844256985" lon="9.684979229046938"><ele>44.0</ele><time>2026-04-30T15:51:49.999Z</time></trkpt><trkpt lat="45.10162790977623" lon="9.684964499455461"><ele>44.0</ele><time>2026-04-30T15:51:50.999Z</time></trkpt><trkpt lat="45.1017509165377" lon="9.68495050488114"><ele>44.0</ele><time>2026-04-30T15:51:51.999Z</time></trkpt><trkpt lat="45.10187465362637" lon="9.68493963406817"><ele>44.0</ele><time>2026-04-30T15:51:52.999Z</time></trkpt><trkpt lat="45.10199148217151" lon="9.684935000272446"><ele>44.0</ele><time>2026-04-30T15:51:53.999Z</time></trkpt><trkpt lat="45.10210857242352" lon="9.684929459320472"><ele>44.0</ele><time>2026-04-30T15:51:54.999Z</time></trkpt><trkpt lat="45.10222568794203" lon="9.68492391528588"><ele>44.0</ele><time>2026-04-30T15:51:55.999Z</time></trkpt><trkpt lat="45.102350046534134" lon="9.684854819728653"><ele>44.75</ele><time>2026-04-30T15:51:56.999Z</time></trkpt><trkpt lat="45.10247676253085" lon="9.684833965182312"><ele>45.5</ele><time>2026-04-30T15:51:57.999Z</time></trkpt><trkpt lat="45.10260078986199" lon="9.684804262539183"><ele>46.25</ele><time>2026-04-30T15:51:58.999Z</time></trkpt><trkpt lat="45.10273587694641" lon="9.684787545085808"><ele>47.0</ele><time>2026-04-30T15:51:59.999Z</time></trkpt><trkpt lat="45.10287030679716" lon="9.684886420807933"><ele>47.0</ele><time>2026-04-30T15:52:00.999Z</time></trkpt><trkpt lat="45.103017995029404" lon="9.684877784781795"><ele>47.0</ele><time>2026-04-30T15:52:01.999Z</time></trkpt><trkpt lat="45.103159074323415" lon="9.684870802552805"><ele>47.0</ele><time>2026-04-30T15:52:02.999Z</time></trkpt><trkpt lat="45.10329238467147" lon="9.684864506891625"><ele>47.0</ele><time>2026-04-30T15:52:03.999Z</time></trkpt><trkpt lat="45.103441535080655" lon="9.684857463068752"><ele>46.75</ele><time>2026-04-30T15:52:04.999Z</time></trkpt><trkpt lat="45.10359046025432" lon="9.68484737166515"><ele>46.5</ele><time>2026-04-30T15:52:05.999Z</time></trkpt><trkpt lat="45.103724377706484" lon="9.684731508478672"><ele>46.25</ele><time>2026-04-30T15:52:06.999Z</time></trkpt><trkpt lat="45.103853111992265" lon="9.684714827818548"><ele>46.0</ele><time>2026-04-30T15:52:07.999Z</time></trkpt><trkpt lat="45.1039929401102" lon="9.684703304802166"><ele>45.75</ele><time>2026-04-30T15:52:08.999Z</time></trkpt><trkpt lat="45.10413398776809" lon="9.684709878497474"><ele>45.5</ele><time>2026-04-30T15:52:09.999Z</time></trkpt><trkpt lat="45.10426342729409" lon="9.684712971338799"><ele>45.25</ele><time>2026-04-30T15:52:10.999Z</time></trkpt><trkpt lat="45.104387253094295" lon="9.684671556496564"><ele>45.0</ele><time>2026-04-30T15:52:11.999Z</time></trkpt><trkpt lat="45.1045066608436" lon="9.684667769729467"><ele>45.0</ele><time>2026-04-30T15:52:12.999Z</time></trkpt><trkpt lat="45.1046291543212" lon="9.684672660504292"><ele>45.0</ele><time>2026-04-30T15:52:13.999Z</time></trkpt><trkpt lat="45.10476325086669" lon="9.684789330783019"><ele>45.0</ele><time>2026-04-30T15:52:14.999Z</time></trkpt><trkpt lat="45.104876220350434" lon="9.68479213612213"><ele>45.0</ele><time>2026-04-30T15:52:15.999Z</time></trkpt><trkpt lat="45.10500485814749" lon="9.684797269548563"><ele>45.4</ele><time>2026-04-30T15:52:16.999Z</time></trkpt><trkpt lat="45.10513523736771" lon="9.684810947833355"><ele>45.8</ele><time>2026-04-30T15:52:17.999Z</time></trkpt><trkpt lat="45.10524647872314" lon="9.684829202729555"><ele>46.2</ele><time>2026-04-30T15:52:18.999Z</time></trkpt><trkpt lat="45.10533456569063" lon="9.684853575849518"><ele>46.6</ele><time>2026-04-30T15:52:19.999Z</time></trkpt><trkpt lat="45.105429623008014" lon="9.684899530176873"><ele>47.0</ele><time>2026-04-30T15:52:20.999Z</time></trkpt><trkpt lat="45.105542597568736" lon="9.684964115966208"><ele>47.0</ele><time>2026-04-30T15:52:21.999Z</time></trkpt><trkpt lat="45.105637025723574" lon="9.68510826270973"><ele>47.0</ele><time>2026-04-30T15:52:22.999Z</time></trkpt><trkpt lat="45.105721461392115" lon="9.685235955438051"><ele>47.0</ele><time>2026-04-30T15:52:23.999Z</time></trkpt><trkpt lat="45.10576482676609" lon="9.685429896389557"><ele>47.0</ele><time>2026-04-30T15:52:24.999Z</time></trkpt><trkpt lat="45.105820615452934" lon="9.685615924730048"><ele>46.666666666666664</ele><time>2026-04-30T15:52:25.999Z</time></trkpt><trkpt lat="45.105732548631266" lon="9.685852166756902"><ele>46.333333333333336</ele><time>2026-04-30T15:52:26.998Z</time></trkpt><trkpt lat="45.10570051368428" lon="9.686034735540405"><ele>46.0</ele><time>2026-04-30T15:52:27.998Z</time></trkpt><trkpt lat="45.105686601871334" lon="9.68623348493419"><ele>46.0</ele><time>2026-04-30T15:52:28.998Z</time></trkpt><trkpt lat="45.10567535454495" lon="9.686397860813305"><ele>46.0</ele><time>2026-04-30T15:52:29.998Z</time></trkpt><trkpt lat="45.1056631832137" lon="9.68658151712377"><ele>46.0</ele><time>2026-04-30T15:52:30.998Z</time></trkpt><trkpt lat="45.105654889462485" lon="9.686765178933463"><ele>46.0</ele><time>2026-04-30T15:52:31.998Z</time></trkpt><trkpt lat="45.105651267769936" lon="9.686905765813904"><ele>46.199999999999996</ele><time>2026-04-30T15:52:32.998Z</time></trkpt><trkpt lat="45.10564041084913" lon="9.687043849848207"><ele>46.4</ele><time>2026-04-30T15:52:33.998Z</time></trkpt><trkpt lat="45.10560158385172" lon="9.687175484194679"><ele>46.6</ele><time>2026-04-30T15:52:34.998Z</time></trkpt><trkpt lat="45.105555476278134" lon="9.68732005901761"><ele>46.8</ele><time>2026-04-30T15:52:35.998Z</time></trkpt><trkpt lat="45.1055632941389" lon="9.687491683387542"><ele>47.0</ele><time>2026-04-30T15:52:36.998Z</time></trkpt><trkpt lat="45.10552272984778" lon="9.687626171100598"><ele>47.0</ele><time>2026-04-30T15:52:37.998Z</time></trkpt><trkpt lat="45.10549252818027" lon="9.68773125282126"><ele>47.0</ele><time>2026-04-30T15:52:38.998Z</time></trkpt><trkpt lat="45.10544844212874" lon="9.687832583414615"><ele>47.0</ele><time>2026-04-30T15:52:39.998Z</time></trkpt><trkpt lat="45.105395537749324" lon="9.6879522556291"><ele>47.0</ele><time>2026-04-30T15:52:40.998Z</time></trkpt><trkpt lat="45.105355183592614" lon="9.688069508823013"><ele>47.0</ele><time>2026-04-30T15:52:41.998Z</time></trkpt><trkpt lat="45.10532770038759" lon="9.688164412534022"><ele>47.0</ele><time>2026-04-30T15:52:42.998Z</time></trkpt><trkpt lat="45.10532805665668" lon="9.688260475599284"><ele>47.166666666666664</ele><time>2026-04-30T15:52:44.998Z</time></trkpt><trkpt lat="45.10531351449935" lon="9.688371781286554"><ele>47.33333333333333</ele><time>2026-04-30T15:53:07.998Z</time></trkpt><trkpt lat="45.10530280492293" lon="9.688463414132231"><ele>47.5</ele><time>2026-04-30T15:53:08.998Z</time></trkpt><trkpt lat="45.10531827549717" lon="9.688584628715118"><ele>47.666666666666664</ele><time>2026-04-30T15:53:09.998Z</time></trkpt><trkpt lat="45.10536264178566" lon="9.688696729462032"><ele>47.833333333333336</ele><time>2026-04-30T15:53:10.998Z</time></trkpt><trkpt lat="45.10539406138019" lon="9.688824969847227"><ele>48.0</ele><time>2026-04-30T15:53:11.998Z</time></trkpt><trkpt lat="45.105415582639885" lon="9.688973339979054"><ele>48.0</ele><time>2026-04-30T15:53:12.998Z</time></trkpt><trkpt lat="45.10543364595881" lon="9.689146898960916"><ele>48.0</ele><time>2026-04-30T15:53:13.998Z</time></trkpt><trkpt lat="45.1054487590157" lon="9.689334085597784"><ele>48.0</ele><time>2026-04-30T15:53:14.998Z</time></trkpt><trkpt lat="45.105464735831376" lon="9.68953196595902"><ele>48.0</ele><time>2026-04-30T15:53:15.998Z</time></trkpt><trkpt lat="45.10539626950625" lon="9.689766353051315"><ele>47.0</ele><time>2026-04-30T15:53:16.998Z</time></trkpt><trkpt lat="45.10540073878796" lon="9.689988019569862"><ele>46.0</ele><time>2026-04-30T15:53:17.998Z</time></trkpt><trkpt lat="45.10542201444569" lon="9.690225552332528"><ele>45.0</ele><time>2026-04-30T15:53:18.998Z</time></trkpt><trkpt lat="45.10545262078426" lon="9.690477364636475"><ele>45.0</ele><time>2026-04-30T15:53:19.997Z</time></trkpt><trkpt lat="45.10549808155758" lon="9.690728772875593"><ele>45.0</ele><time>2026-04-30T15:53:20.997Z</time></trkpt><trkpt lat="45.10555674602269" lon="9.690976136498666"><ele>45.0</ele><time>2026-04-30T15:53:21.997Z</time></trkpt><trkpt lat="45.105636906007355" lon="9.691232942939696"><ele>45.0</ele><time>2026-04-30T15:53:22.997Z</time></trkpt><trkpt lat="45.10572201434826" lon="9.6914755666106"><ele>45.0</ele><time>2026-04-30T15:53:23.997Z</time></trkpt><trkpt lat="45.105831072418795" lon="9.691708157762601"><ele>45.0</ele><time>2026-04-30T15:53:24.997Z</time></trkpt><trkpt lat="45.10596120130025" lon="9.691942753196434"><ele>46.0</ele><time>2026-04-30T15:53:25.997Z</time></trkpt><trkpt lat="45.10609185526419" lon="9.692145132115668"><ele>47.0</ele><time>2026-04-30T15:53:26.997Z</time></trkpt><trkpt lat="45.10623033997463" lon="9.692376802420979"><ele>48.0</ele><time>2026-04-30T15:53:27.997Z</time></trkpt><trkpt lat="45.10635080355179" lon="9.692602608662073"><ele>48.0</ele><time>2026-04-30T15:53:28.997Z</time></trkpt><trkpt lat="45.106462328945625" lon="9.69283561938011"><ele>48.0</ele><time>2026-04-30T15:53:29.997Z</time></trkpt><trkpt lat="45.10654223151884" lon="9.693046950760154"><ele>48.0</ele><time>2026-04-30T15:53:30.997Z</time></trkpt><trkpt lat="45.10660043489107" lon="9.693276335756048"><ele>48.0</ele><time>2026-04-30T15:53:31.997Z</time></trkpt><trkpt lat="45.106625127917646" lon="9.693478661898931"><ele>48.0</ele><time>2026-04-30T15:53:32.997Z</time></trkpt><trkpt lat="45.10662795447679" lon="9.693693985278289"><ele>48.0</ele><time>2026-04-30T15:53:33.997Z</time></trkpt><trkpt lat="45.10660291908931" lon="9.69392576442458"><ele>47.333333333333336</ele><time>2026-04-30T15:53:34.997Z</time></trkpt><trkpt lat="45.106541625139656" lon="9.69414328311897"><ele>46.66666666666667</ele><time>2026-04-30T15:53:35.997Z</time></trkpt><trkpt lat="45.10643962234409" lon="9.69432547556833"><ele>46.0</ele><time>2026-04-30T15:53:36.997Z</time></trkpt><trkpt lat="45.10630996896506" lon="9.694462293793997"><ele>45.66666666666667</ele><time>2026-04-30T15:53:37.997Z</time></trkpt><trkpt lat="45.10616109506353" lon="9.694570617043041"><ele>45.333333333333336</ele><time>2026-04-30T15:53:38.997Z</time></trkpt><trkpt lat="45.105969464928606" lon="9.694613171254804"><ele>45.0</ele><time>2026-04-30T15:53:39.997Z</time></trkpt><trkpt lat="45.1057755497718" lon="9.69458497809404"><ele>45.0</ele><time>2026-04-30T15:53:40.997Z</time></trkpt><trkpt lat="45.1056004379934" lon="9.6944708507713"><ele>45.0</ele><time>2026-04-30T15:53:41.997Z</time></trkpt><trkpt lat="45.10545612821324" lon="9.694320882847144"><ele>45.0</ele><time>2026-04-30T15:53:42.997Z</time></trkpt><trkpt lat="45.105363701451445" lon="9.694153423596196"><ele>45.0</ele><time>2026-04-30T15:53:43.997Z</time></trkpt><trkpt lat="45.10528619437397" lon="9.693952550738496"><ele>45.0</ele><time>2026-04-30T15:53:44.997Z</time></trkpt><trkpt lat="45.10525995425447" lon="9.693694987040208"><ele>45.0</ele><time>2026-04-30T15:53:45.997Z</time></trkpt><trkpt lat="45.10530046337106" lon="9.693447322515093"><ele>45.0</ele><time>2026-04-30T15:53:46.997Z</time></trkpt><trkpt lat="45.10535034302522" lon="9.693236652461412"><ele>45.0</ele><time>2026-04-30T15:53:47.997Z</time></trkpt><trkpt lat="45.10542436785488" lon="9.69302768956708"><ele>45.0</ele><time>2026-04-30T15:53:48.997Z</time></trkpt><trkpt lat="45.10552017081951" lon="9.692851649849839"><ele>45.0</ele><time>2026-04-30T15:53:49.997Z</time></trkpt><trkpt lat="45.10564176856444" lon="9.692684170329654"><ele>45.0</ele><time>2026-04-30T15:53:50.997Z</time></trkpt><trkpt lat="45.10576590511151" lon="9.692486748565823"><ele>45.0</ele><time>2026-04-30T15:53:51.997Z</time></trkpt><trkpt lat="45.1059122792585" lon="9.69231420140592"><ele>46.0</ele><time>2026-04-30T15:53:52.997Z</time></trkpt><trkpt lat="45.10606587760452" lon="9.692140959014935"><ele>47.0</ele><time>2026-04-30T15:53:53.997Z</time></trkpt><trkpt lat="45.10622487306055" lon="9.691962584525713"><ele>48.0</ele><time>2026-04-30T15:53:54.997Z</time></trkpt><trkpt lat="45.1064057958895" lon="9.69179498473802"><ele>48.0</ele><time>2026-04-30T15:53:55.997Z</time></trkpt><trkpt lat="45.10657447058627" lon="9.691606341356096"><ele>48.0</ele><time>2026-04-30T15:53:56.997Z</time></trkpt><trkpt lat="45.106746366615454" lon="9.691418834106697"><ele>48.0</ele><time>2026-04-30T15:53:57.997Z</time></trkpt><trkpt lat="45.10691419799839" lon="9.691213702802093"><ele>47.0</ele><time>2026-04-30T15:53:58.997Z</time></trkpt><trkpt lat="45.10711941789234" lon="9.691001500812165"><ele>46.0</ele><time>2026-04-30T15:53:59.997Z</time></trkpt><trkpt lat="45.10731693407358" lon="9.690786276433366"><ele>46.0</ele><time>2026-04-30T15:54:00.997Z</time></trkpt><trkpt lat="45.107511144236064" lon="9.690581145280744"><ele>46.0</ele><time>2026-04-30T15:54:01.997Z</time></trkpt><trkpt lat="45.10771495594526" lon="9.69037846790964"><ele>46.5</ele><time>2026-04-30T15:54:02.997Z</time></trkpt><trkpt lat="45.107900833489666" lon="9.690134995089075"><ele>47.0</ele><time>2026-04-30T15:54:03.997Z</time></trkpt><trkpt lat="45.108092894958055" lon="9.689928919407643"><ele>47.5</ele><time>2026-04-30T15:54:04.997Z</time></trkpt><trkpt lat="45.10829215563443" lon="9.689692245131068"><ele>48.0</ele><time>2026-04-30T15:54:05.997Z</time></trkpt><trkpt lat="45.10847231079101" lon="9.689421409740715"><ele>48.0</ele><time>2026-04-30T15:54:06.997Z</time></trkpt><trkpt lat="45.10862228100212" lon="9.689190611710162"><ele>48.0</ele><time>2026-04-30T15:54:07.997Z</time></trkpt><trkpt lat="45.108836731161915" lon="9.688947795263358"><ele>48.0</ele><time>2026-04-30T15:54:08.997Z</time></trkpt><trkpt lat="45.109046006824066" lon="9.688709763467108"><ele>48.0</ele><time>2026-04-30T15:54:09.997Z</time></trkpt><trkpt lat="45.10925836671999" lon="9.68847442709924"><ele>47.0</ele><time>2026-04-30T15:54:10.997Z</time></trkpt><trkpt lat="45.109460543303584" lon="9.688230092457301"><ele>46.0</ele><time>2026-04-30T15:54:11.997Z</time></trkpt><trkpt lat="45.10967359917449" lon="9.687993489653106"><ele>46.0</ele><time>2026-04-30T15:54:12.996Z</time></trkpt><trkpt lat="45.109899484450295" lon="9.687760744267248"><ele>46.0</ele><time>2026-04-30T15:54:13.996Z</time></trkpt><trkpt lat="45.11012093729777" lon="9.687533299809054"><ele>46.5</ele><time>2026-04-30T15:54:14.996Z</time></trkpt><trkpt lat="45.110338360267605" lon="9.687276593410354"><ele>47.0</ele><time>2026-04-30T15:54:15.996Z</time></trkpt><trkpt lat="45.110557866074515" lon="9.687013951373979"><ele>47.0</ele><time>2026-04-30T15:54:16.996Z</time></trkpt><trkpt lat="45.11078127985577" lon="9.686743158706348"><ele>47.0</ele><time>2026-04-30T15:54:17.996Z</time></trkpt><trkpt lat="45.1110009031488" lon="9.686471464061126"><ele>47.0</ele><time>2026-04-30T15:54:18.996Z</time></trkpt><trkpt lat="45.1112196084386" lon="9.686227338637066"><ele>47.0</ele><time>2026-04-30T15:54:19.996Z</time></trkpt><trkpt lat="45.111421132517634" lon="9.685977728657644"><ele>46.0</ele><time>2026-04-30T15:54:20.996Z</time></trkpt><trkpt lat="45.11162782869572" lon="9.68569525075474"><ele>45.0</ele><time>2026-04-30T15:54:21.996Z</time></trkpt><trkpt lat="45.11182497214025" lon="9.685450103564136"><ele>45.5</ele><time>2026-04-30T15:54:22.996Z</time></trkpt><trkpt lat="45.11201179449231" lon="9.685175659106717"><ele>46.0</ele><time>2026-04-30T15:54:23.996Z</time></trkpt><trkpt lat="45.11219151890039" lon="9.684912084516776"><ele>46.0</ele><time>2026-04-30T15:54:24.996Z</time></trkpt><trkpt lat="45.112372952264046" lon="9.684645346214385"><ele>46.0</ele><time>2026-04-30T15:54:25.996Z</time></trkpt><trkpt lat="45.1125542495149" lon="9.684358645110894"><ele>45.5</ele><time>2026-04-30T15:54:26.996Z</time></trkpt><trkpt lat="45.11273672555282" lon="9.684106984967698"><ele>45.0</ele><time>2026-04-30T15:54:27.996Z</time></trkpt><trkpt lat="45.112933609135496" lon="9.683842802699436"><ele>44.0</ele><time>2026-04-30T15:54:28.996Z</time></trkpt><trkpt lat="45.113128222500464" lon="9.683596973200245"><ele>43.0</ele><time>2026-04-30T15:54:29.996Z</time></trkpt><trkpt lat="45.11331156730974" lon="9.683324952419358"><ele>43.0</ele><time>2026-04-30T15:54:30.996Z</time></trkpt><trkpt lat="45.113494447132055" lon="9.683051416903801"><ele>43.0</ele><time>2026-04-30T15:54:31.996Z</time></trkpt><trkpt lat="45.11364091578067" lon="9.682757345755014"><ele>43.5</ele><time>2026-04-30T15:54:32.996Z</time></trkpt><trkpt lat="45.113789789490546" lon="9.682464156827526"><ele>44.0</ele><time>2026-04-30T15:54:33.996Z</time></trkpt><trkpt lat="45.113955740239014" lon="9.682183331621042"><ele>43.5</ele><time>2026-04-30T15:54:34.996Z</time></trkpt><trkpt lat="45.11414312109486" lon="9.681907776952645"><ele>43.0</ele><time>2026-04-30T15:54:35.996Z</time></trkpt><trkpt lat="45.114338655112796" lon="9.681656850439998"><ele>43.0</ele><time>2026-04-30T15:54:36.996Z</time></trkpt><trkpt lat="45.11452443283808" lon="9.68138948279298"><ele>43.0</ele><time>2026-04-30T15:54:37.996Z</time></trkpt><trkpt lat="45.11471209803492" lon="9.681121564068391"><ele>43.0</ele><time>2026-04-30T15:54:38.996Z</time></trkpt><trkpt lat="45.11488446988216" lon="9.680857119987374"><ele>43.0</ele><time>2026-04-30T15:54:39.996Z</time></trkpt><trkpt lat="45.115063116327505" lon="9.680613538916619"><ele>44.0</ele><time>2026-04-30T15:54:40.996Z</time></trkpt><trkpt lat="45.11523620839251" lon="9.680364007130025"><ele>45.0</ele><time>2026-04-30T15:54:41.996Z</time></trkpt><trkpt lat="45.11541101771748" lon="9.680111999026519"><ele>45.0</ele><time>2026-04-30T15:54:42.996Z</time></trkpt><trkpt lat="45.11559288434089" lon="9.679849816840356"><ele>45.0</ele><time>2026-04-30T15:54:43.996Z</time></trkpt><trkpt lat="45.11577198900854" lon="9.679591616576438"><ele>45.0</ele><time>2026-04-30T15:54:44.996Z</time></trkpt><trkpt lat="45.115938075547675" lon="9.679316116992112"><ele>45.0</ele><time>2026-04-30T15:54:45.996Z</time></trkpt><trkpt lat="45.11611417210904" lon="9.679036428790218"><ele>45.0</ele><time>2026-04-30T15:54:46.996Z</time></trkpt><trkpt lat="45.11628642895127" lon="9.678782504198034"><ele>45.0</ele><time>2026-04-30T15:54:47.996Z</time></trkpt><trkpt lat="45.11646554240407" lon="9.678513854483537"><ele>44.5</ele><time>2026-04-30T15:54:48.996Z</time></trkpt><trkpt lat="45.11667706329075" lon="9.678289039894127"><ele>44.0</ele><time>2026-04-30T15:54:49.996Z</time></trkpt><trkpt lat="45.11685165244366" lon="9.678037725803367"><ele>44.0</ele><time>2026-04-30T15:54:50.996Z</time></trkpt><trkpt lat="45.11703824641309" lon="9.67776991336318"><ele>44.0</ele><time>2026-04-30T15:54:51.996Z</time></trkpt><trkpt lat="45.1172244423165" lon="9.677502210724596"><ele>44.0</ele><time>2026-04-30T15:54:52.996Z</time></trkpt><trkpt lat="45.11741032099152" lon="9.67723483634779"><ele>44.0</ele><time>2026-04-30T15:54:53.996Z</time></trkpt><trkpt lat="45.117583431974914" lon="9.676955422422102"><ele>45.5</ele><time>2026-04-30T15:54:54.996Z</time></trkpt><trkpt lat="45.11777713452901" lon="9.676707199377017"><ele>47.0</ele><time>2026-04-30T15:54:55.996Z</time></trkpt><trkpt lat="45.11796228221058" lon="9.676440869113058"><ele>47.0</ele><time>2026-04-30T15:54:56.996Z</time></trkpt><trkpt lat="45.1181291787996" lon="9.676173683143002"><ele>47.0</ele><time>2026-04-30T15:54:57.996Z</time></trkpt><trkpt lat="45.11831116321096" lon="9.675918722236785"><ele>46.0</ele><time>2026-04-30T15:54:58.996Z</time></trkpt><trkpt lat="45.118507453098864" lon="9.67565360939293"><ele>45.0</ele><time>2026-04-30T15:54:59.996Z</time></trkpt><trkpt lat="45.11868250423783" lon="9.675400825121763"><ele>45.0</ele><time>2026-04-30T15:55:00.996Z</time></trkpt><trkpt lat="45.11886497896671" lon="9.67513732073798"><ele>45.0</ele><time>2026-04-30T15:55:01.996Z</time></trkpt><trkpt lat="45.119055597819646" lon="9.674862055694108"><ele>44.5</ele><time>2026-04-30T15:55:02.996Z</time></trkpt><trkpt lat="45.11923617852893" lon="9.67460128619019"><ele>44.0</ele><time>2026-04-30T15:55:03.996Z</time></trkpt><trkpt lat="45.11941716160951" lon="9.674339935677041"><ele>44.0</ele><time>2026-04-30T15:55:04.996Z</time></trkpt><trkpt lat="45.11959317403769" lon="9.6740857630649"><ele>44.0</ele><time>2026-04-30T15:55:05.996Z</time></trkpt><trkpt lat="45.11977572975249" lon="9.673822141590767"><ele>45.5</ele><time>2026-04-30T15:55:06.995Z</time></trkpt><trkpt lat="45.11995899357254" lon="9.673557497408654"><ele>47.0</ele><time>2026-04-30T15:55:07.995Z</time></trkpt><trkpt lat="45.12014167920945" lon="9.67329396545803"><ele>47.0</ele><time>2026-04-30T15:55:08.995Z</time></trkpt><trkpt lat="45.120317795529154" lon="9.673015748710533"><ele>47.0</ele><time>2026-04-30T15:55:09.995Z</time></trkpt><trkpt lat="45.12050681593243" lon="9.672761076192332"><ele>47.0</ele><time>2026-04-30T15:55:10.995Z</time></trkpt><trkpt lat="45.1207029552946" lon="9.672516712780869"><ele>47.0</ele><time>2026-04-30T15:55:11.995Z</time></trkpt><trkpt lat="45.12090142187884" lon="9.672261175907593"><ele>46.5</ele><time>2026-04-30T15:55:12.995Z</time></trkpt><trkpt lat="45.12107005035396" lon="9.671991024206129"><ele>46.0</ele><time>2026-04-30T15:55:13.995Z</time></trkpt><trkpt lat="45.12124521310806" lon="9.67172183181582"><ele>46.0</ele><time>2026-04-30T15:55:14.995Z</time></trkpt><trkpt lat="45.12142374724932" lon="9.671451555302333"><ele>46.0</ele><time>2026-04-30T15:55:15.995Z</time></trkpt><trkpt lat="45.12159039537341" lon="9.671175432551697"><ele>45.5</ele><time>2026-04-30T15:55:16.995Z</time></trkpt><trkpt lat="45.12177997141002" lon="9.670933594918546"><ele>45.0</ele><time>2026-04-30T15:55:17.995Z</time></trkpt><trkpt lat="45.12195634497313" lon="9.670680034166615"><ele>45.0</ele><time>2026-04-30T15:55:18.995Z</time></trkpt><trkpt lat="45.12213462326538" lon="9.670398376178133"><ele>45.0</ele><time>2026-04-30T15:55:19.995Z</time></trkpt><trkpt lat="45.12232750715055" lon="9.670146438132376"><ele>44.5</ele><time>2026-04-30T15:55:20.995Z</time></trkpt><trkpt lat="45.122500032381375" lon="9.669898409914413"><ele>44.0</ele><time>2026-04-30T15:55:21.995Z</time></trkpt><trkpt lat="45.12268463612095" lon="9.669633017417027"><ele>44.0</ele><time>2026-04-30T15:55:22.995Z</time></trkpt><trkpt lat="45.12285898742524" lon="9.669382096430324"><ele>44.0</ele><time>2026-04-30T15:55:23.995Z</time></trkpt><trkpt lat="45.12303053825562" lon="9.669134444195118"><ele>44.0</ele><time>2026-04-30T15:55:24.995Z</time></trkpt><trkpt lat="45.12320197074897" lon="9.668886962932286"><ele>44.0</ele><time>2026-04-30T15:55:25.995Z</time></trkpt><trkpt lat="45.12336469885238" lon="9.668652047447095"><ele>44.5</ele><time>2026-04-30T15:55:26.995Z</time></trkpt><trkpt lat="45.123533328223346" lon="9.668408612779691"><ele>45.0</ele><time>2026-04-30T15:55:27.995Z</time></trkpt><trkpt lat="45.1237070089081" lon="9.66815788601393"><ele>45.0</ele><time>2026-04-30T15:55:28.995Z</time></trkpt><trkpt lat="45.123886922671055" lon="9.667898161300428"><ele>45.0</ele><time>2026-04-30T15:55:29.995Z</time></trkpt><trkpt lat="45.124059914728605" lon="9.667648419700306"><ele>44.5</ele><time>2026-04-30T15:55:30.995Z</time></trkpt><trkpt lat="45.124234404232936" lon="9.667396516482496"><ele>44.0</ele><time>2026-04-30T15:55:31.995Z</time></trkpt><trkpt lat="45.12440682461957" lon="9.667147600340039"><ele>45.0</ele><time>2026-04-30T15:55:32.995Z</time></trkpt><trkpt lat="45.12458984600484" lon="9.666883092650304"><ele>46.0</ele><time>2026-04-30T15:55:33.995Z</time></trkpt><trkpt lat="45.124762314549365" lon="9.666633589811259"><ele>46.0</ele><time>2026-04-30T15:55:34.995Z</time></trkpt><trkpt lat="45.12494203435772" lon="9.66637150856593"><ele>46.0</ele><time>2026-04-30T15:55:35.995Z</time></trkpt><trkpt lat="45.12511746371636" lon="9.666114868695775"><ele>46.5</ele><time>2026-04-30T15:55:36.995Z</time></trkpt><trkpt lat="45.1252887860406" lon="9.665864236459283"><ele>47.0</ele><time>2026-04-30T15:55:37.995Z</time></trkpt><trkpt lat="45.12546853893929" lon="9.66560127175818"><ele>47.0</ele><time>2026-04-30T15:55:38.995Z</time></trkpt><trkpt lat="45.12565635166157" lon="9.66532561196382"><ele>47.0</ele><time>2026-04-30T15:55:39.995Z</time></trkpt><trkpt lat="45.125837986494844" lon="9.665055354050084"><ele>47.0</ele><time>2026-04-30T15:55:40.995Z</time></trkpt><trkpt lat="45.12602056002215" lon="9.664781476679215"><ele>47.0</ele><time>2026-04-30T15:55:41.995Z</time></trkpt><trkpt lat="45.12619636596416" lon="9.664510025462567"><ele>47.0</ele><time>2026-04-30T15:55:42.995Z</time></trkpt><trkpt lat="45.12636532068367" lon="9.664245477774745"><ele>47.0</ele><time>2026-04-30T15:55:43.995Z</time></trkpt><trkpt lat="45.12653465977097" lon="9.663976055276008"><ele>47.0</ele><time>2026-04-30T15:55:44.995Z</time></trkpt><trkpt lat="45.126702017352" lon="9.663707414139445"><ele>47.0</ele><time>2026-04-30T15:55:45.995Z</time></trkpt><trkpt lat="45.126861232654" lon="9.663448545700213"><ele>47.0</ele><time>2026-04-30T15:55:46.995Z</time></trkpt><trkpt lat="45.12702366001374" lon="9.663182973221002"><ele>47.0</ele><time>2026-04-30T15:55:47.995Z</time></trkpt><trkpt lat="45.12718957669055" lon="9.662908614742706"><ele>46.5</ele><time>2026-04-30T15:55:48.995Z</time></trkpt><trkpt lat="45.12733891605182" lon="9.662637891511288"><ele>46.0</ele><time>2026-04-30T15:55:49.995Z</time></trkpt><trkpt lat="45.12749099805803" lon="9.662356019902553"><ele>46.5</ele><time>2026-04-30T15:55:50.995Z</time></trkpt><trkpt lat="45.127659359051634" lon="9.662094922873493"><ele>47.0</ele><time>2026-04-30T15:55:51.995Z</time></trkpt><trkpt lat="45.12782686736537" lon="9.661842403759309"><ele>47.0</ele><time>2026-04-30T15:55:52.995Z</time></trkpt><trkpt lat="45.12799407068656" lon="9.66159096525825"><ele>47.0</ele><time>2026-04-30T15:55:53.995Z</time></trkpt><trkpt lat="45.12815244118915" lon="9.661340962175988"><ele>47.5</ele><time>2026-04-30T15:55:54.995Z</time></trkpt><trkpt lat="45.12831030616657" lon="9.661077093740612"><ele>48.0</ele><time>2026-04-30T15:55:55.995Z</time></trkpt><trkpt lat="45.128458881612794" lon="9.660795920068784"><ele>48.0</ele><time>2026-04-30T15:55:56.995Z</time></trkpt><trkpt lat="45.12862646753785" lon="9.660510386714757"><ele>48.0</ele><time>2026-04-30T15:55:57.995Z</time></trkpt><trkpt lat="45.128798873596836" lon="9.660218313148427"><ele>47.0</ele><time>2026-04-30T15:55:58.995Z</time></trkpt><trkpt lat="45.12894807346591" lon="9.659914762242368"><ele>46.0</ele><time>2026-04-30T15:55:59.994Z</time></trkpt><trkpt lat="45.129099240742505" lon="9.65961129961163"><ele>46.5</ele><time>2026-04-30T15:56:00.994Z</time></trkpt><trkpt lat="45.12925553358313" lon="9.659322897302166"><ele>47.0</ele><time>2026-04-30T15:56:01.994Z</time></trkpt><trkpt lat="45.1294272764664" lon="9.659043399689777"><ele>47.0</ele><time>2026-04-30T15:56:02.994Z</time></trkpt><trkpt lat="45.129586578678655" lon="9.658756879990442"><ele>47.0</ele><time>2026-04-30T15:56:03.994Z</time></trkpt><trkpt lat="45.12973986417018" lon="9.658457825101365"><ele>47.0</ele><time>2026-04-30T15:56:04.994Z</time></trkpt><trkpt lat="45.129885849750565" lon="9.658154024117533"><ele>47.0</ele><time>2026-04-30T15:56:05.994Z</time></trkpt><trkpt lat="45.13002692909732" lon="9.657852485670844"><ele>48.5</ele><time>2026-04-30T15:56:06.994Z</time></trkpt><trkpt lat="45.13017683754912" lon="9.657549641996836"><ele>50.0</ele><time>2026-04-30T15:56:07.994Z</time></trkpt><trkpt lat="45.13031483020403" lon="9.657241202696618"><ele>50.0</ele><time>2026-04-30T15:56:08.994Z</time></trkpt><trkpt lat="45.130456979577545" lon="9.656947193580576"><ele>50.0</ele><time>2026-04-30T15:56:09.994Z</time></trkpt><trkpt lat="45.13061018786965" lon="9.656663142545625"><ele>48.5</ele><time>2026-04-30T15:56:10.994Z</time></trkpt><trkpt lat="45.13075975186397" lon="9.656371000414559"><ele>47.0</ele><time>2026-04-30T15:56:11.994Z</time></trkpt><trkpt lat="45.13091014065699" lon="9.656063138268252"><ele>47.0</ele><time>2026-04-30T15:56:12.994Z</time></trkpt><trkpt lat="45.1310630654066" lon="9.6557756301374"><ele>47.0</ele><time>2026-04-30T15:56:13.994Z</time></trkpt><trkpt lat="45.131211992064124" lon="9.655469804880951"><ele>48.5</ele><time>2026-04-30T15:56:14.994Z</time></trkpt><trkpt lat="45.13134799714127" lon="9.655173336224248"><ele>50.0</ele><time>2026-04-30T15:56:15.994Z</time></trkpt><trkpt lat="45.131499010152915" lon="9.654878541627378"><ele>49.0</ele><time>2026-04-30T15:56:16.994Z</time></trkpt><trkpt lat="45.13164695404513" lon="9.654574879619553"><ele>48.0</ele><time>2026-04-30T15:56:17.994Z</time></trkpt><trkpt lat="45.131801858258996" lon="9.65425847278261"><ele>48.0</ele><time>2026-04-30T15:56:18.994Z</time></trkpt><trkpt lat="45.13194990814644" lon="9.653963973904442"><ele>48.0</ele><time>2026-04-30T15:56:19.994Z</time></trkpt><trkpt lat="45.13212604297437" lon="9.65367365234159"><ele>48.0</ele><time>2026-04-30T15:56:20.994Z</time></trkpt><trkpt lat="45.13229935777732" lon="9.653393805817135"><ele>48.0</ele><time>2026-04-30T15:56:21.994Z</time></trkpt><trkpt lat="45.132458323428565" lon="9.653094136851667"><ele>48.0</ele><time>2026-04-30T15:56:22.994Z</time></trkpt><trkpt lat="45.132624637302264" lon="9.652814226236563"><ele>48.0</ele><time>2026-04-30T15:56:23.994Z</time></trkpt><trkpt lat="45.13274459922895" lon="9.652514035927055"><ele>48.0</ele><time>2026-04-30T15:56:24.994Z</time></trkpt><trkpt lat="45.13287383762328" lon="9.65217853998553"><ele>48.0</ele><time>2026-04-30T15:56:25.994Z</time></trkpt><trkpt lat="45.13302357154026" lon="9.651885961803979"><ele>47.5</ele><time>2026-04-30T15:56:26.994Z</time></trkpt><trkpt lat="45.13316048192368" lon="9.651579521414245"><ele>47.0</ele><time>2026-04-30T15:56:27.994Z</time></trkpt><trkpt lat="45.133313318863216" lon="9.651281494074238"><ele>46.5</ele><time>2026-04-30T15:56:28.994Z</time></trkpt><trkpt lat="45.13348583073379" lon="9.650995826223921"><ele>46.0</ele><time>2026-04-30T15:56:29.994Z</time></trkpt><trkpt lat="45.13363864429348" lon="9.650681935752578"><ele>46.0</ele><time>2026-04-30T15:56:30.994Z</time></trkpt><trkpt lat="45.13378167617496" lon="9.650381941281656"><ele>46.0</ele><time>2026-04-30T15:56:31.994Z</time></trkpt><trkpt lat="45.133931881702196" lon="9.650080146032355"><ele>46.5</ele><time>2026-04-30T15:56:32.994Z</time></trkpt><trkpt lat="45.13407951619247" lon="9.649788694693731"><ele>47.0</ele><time>2026-04-30T15:56:33.994Z</time></trkpt><trkpt lat="45.13425153537212" lon="9.649487530318254"><ele>46.5</ele><time>2026-04-30T15:56:34.994Z</time></trkpt><trkpt lat="45.134421601020236" lon="9.649156105191812"><ele>46.0</ele><time>2026-04-30T15:56:35.994Z</time></trkpt><trkpt lat="45.134584131175096" lon="9.648839365484788"><ele>46.5</ele><time>2026-04-30T15:56:36.994Z</time></trkpt><trkpt lat="45.13474768042499" lon="9.648519752794067"><ele>47.0</ele><time>2026-04-30T15:56:37.994Z</time></trkpt><trkpt lat="45.13490632128411" lon="9.64820923631397"><ele>47.0</ele><time>2026-04-30T15:56:38.994Z</time></trkpt><trkpt lat="45.135061231801245" lon="9.647906019944193"><ele>47.0</ele><time>2026-04-30T15:56:39.994Z</time></trkpt><trkpt lat="45.1352049882658" lon="9.647594166400285"><ele>47.5</ele><time>2026-04-30T15:56:40.994Z</time></trkpt><trkpt lat="45.135373964480685" lon="9.647293889513858"><ele>48.0</ele><time>2026-04-30T15:56:41.994Z</time></trkpt><trkpt lat="45.13553128344198" lon="9.646985856438729"><ele>48.0</ele><time>2026-04-30T15:56:42.994Z</time></trkpt><trkpt lat="45.13568254576775" lon="9.646689263752943"><ele>48.0</ele><time>2026-04-30T15:56:43.994Z</time></trkpt><trkpt lat="45.135796543507745" lon="9.646339574808584"><ele>47.0</ele><time>2026-04-30T15:56:44.994Z</time></trkpt><trkpt lat="45.13597185729286" lon="9.646058341625718"><ele>46.0</ele><time>2026-04-30T15:56:45.994Z</time></trkpt><trkpt lat="45.1361034419202" lon="9.645798604881065"><ele>46.0</ele><time>2026-04-30T15:56:46.994Z</time></trkpt><trkpt lat="45.13627484437876" lon="9.64553126959569"><ele>46.0</ele><time>2026-04-30T15:56:47.994Z</time></trkpt><trkpt lat="45.13643334853318" lon="9.645243644638935"><ele>47.0</ele><time>2026-04-30T15:56:48.994Z</time></trkpt><trkpt lat="45.1366037139631" lon="9.64494222995483"><ele>48.0</ele><time>2026-04-30T15:56:49.994Z</time></trkpt><trkpt lat="45.136770244381395" lon="9.644633796802845"><ele>48.0</ele><time>2026-04-30T15:56:50.994Z</time></trkpt><trkpt lat="45.136924490472836" lon="9.644315569976841"><ele>48.0</ele><time>2026-04-30T15:56:51.994Z</time></trkpt><trkpt lat="45.1370846859398" lon="9.643990465556511"><ele>48.0</ele><time>2026-04-30T15:56:52.993Z</time></trkpt><trkpt lat="45.13724354737454" lon="9.643714265101787"><ele>48.0</ele><time>2026-04-30T15:56:53.993Z</time></trkpt><trkpt lat="45.137394270312356" lon="9.643421995103482"><ele>48.0</ele><time>2026-04-30T15:56:54.993Z</time></trkpt><trkpt lat="45.13755771928491" lon="9.64312467531438"><ele>48.0</ele><time>2026-04-30T15:56:55.993Z</time></trkpt><trkpt lat="45.137676151470295" lon="9.642810996908127"><ele>49.5</ele><time>2026-04-30T15:56:56.993Z</time></trkpt><trkpt lat="45.1378121175004" lon="9.642524805740504"><ele>51.0</ele><time>2026-04-30T15:56:57.993Z</time></trkpt><trkpt lat="45.137948981850286" lon="9.642258023551575"><ele>51.0</ele><time>2026-04-30T15:56:58.993Z</time></trkpt><trkpt lat="45.13809405568391" lon="9.641975319730763"><ele>51.0</ele><time>2026-04-30T15:56:59.993Z</time></trkpt><trkpt lat="45.13823633436917" lon="9.641698610095249"><ele>50.5</ele><time>2026-04-30T15:57:00.993Z</time></trkpt><trkpt lat="45.13838315408968" lon="9.641413068827854"><ele>50.0</ele><time>2026-04-30T15:57:01.993Z</time></trkpt><trkpt lat="45.13853382200818" lon="9.64112004350684"><ele>49.5</ele><time>2026-04-30T15:57:02.993Z</time></trkpt><trkpt lat="45.138668479004515" lon="9.640858156903922"><ele>49.0</ele><time>2026-04-30T15:57:03.993Z</time></trkpt><trkpt lat="45.13881744323601" lon="9.640568444930485"><ele>49.0</ele><time>2026-04-30T15:57:04.993Z</time></trkpt><trkpt lat="45.13894103638951" lon="9.640327736608286"><ele>49.0</ele><time>2026-04-30T15:57:05.993Z</time></trkpt><trkpt lat="45.13909398666238" lon="9.640028589174582"><ele>49.0</ele><time>2026-04-30T15:57:06.993Z</time></trkpt><trkpt lat="45.13923561963302" lon="9.639751337986901"><ele>49.0</ele><time>2026-04-30T15:57:07.993Z</time></trkpt><trkpt lat="45.13937624041471" lon="9.639474538037636"><ele>48.5</ele><time>2026-04-30T15:57:08.993Z</time></trkpt><trkpt lat="45.13951140814686" lon="9.63920847128375"><ele>48.0</ele><time>2026-04-30T15:57:09.993Z</time></trkpt><trkpt lat="45.13966066385718" lon="9.638955558619834"><ele>48.0</ele><time>2026-04-30T15:57:10.993Z</time></trkpt><trkpt lat="45.13979558787266" lon="9.638724110078172"><ele>48.0</ele><time>2026-04-30T15:57:11.993Z</time></trkpt><trkpt lat="45.139930872982056" lon="9.638493890947537"><ele>48.0</ele><time>2026-04-30T15:57:12.993Z</time></trkpt><trkpt lat="45.14004302329902" lon="9.638234876164963"><ele>48.0</ele><time>2026-04-30T15:57:13.993Z</time></trkpt><trkpt lat="45.1401597408291" lon="9.637989716001844"><ele>48.0</ele><time>2026-04-30T15:57:14.993Z</time></trkpt><trkpt lat="45.14028133394816" lon="9.637743099159014"><ele>48.0</ele><time>2026-04-30T15:57:15.993Z</time></trkpt><trkpt lat="45.140421263321066" lon="9.637521245799729"><ele>48.0</ele><time>2026-04-30T15:57:16.993Z</time></trkpt><trkpt lat="45.14056731280391" lon="9.637299521292194"><ele>48.0</ele><time>2026-04-30T15:57:17.993Z</time></trkpt><trkpt lat="45.14071665391448" lon="9.637086754297142"><ele>48.0</ele><time>2026-04-30T15:57:18.993Z</time></trkpt><trkpt lat="45.14085771939581" lon="9.636884484843549"><ele>48.0</ele><time>2026-04-30T15:57:19.993Z</time></trkpt><trkpt lat="45.14098501146797" lon="9.636663046710467"><ele>48.0</ele><time>2026-04-30T15:57:20.993Z</time></trkpt><trkpt lat="45.14110479199712" lon="9.636440838562358"><ele>48.0</ele><time>2026-04-30T15:57:21.993Z</time></trkpt><trkpt lat="45.14120798335934" lon="9.636228872520899"><ele>48.33333333333333</ele><time>2026-04-30T15:57:22.993Z</time></trkpt><trkpt lat="45.14129499443921" lon="9.636079678774948"><ele>48.666666666666664</ele><time>2026-04-30T15:57:23.993Z</time></trkpt><trkpt lat="45.14139757915233" lon="9.635920600834304"><ele>49.0</ele><time>2026-04-30T15:57:24.993Z</time></trkpt><trkpt lat="45.14149707826163" lon="9.635724239779092"><ele>48.75</ele><time>2026-04-30T15:57:25.993Z</time></trkpt><trkpt lat="45.141593832277515" lon="9.635582668944894"><ele>48.5</ele><time>2026-04-30T15:57:26.993Z</time></trkpt><trkpt lat="45.141702656656726" lon="9.635453389457822"><ele>48.25</ele><time>2026-04-30T15:57:27.993Z</time></trkpt><trkpt lat="45.14182993715663" lon="9.635335463365658"><ele>48.0</ele><time>2026-04-30T15:57:28.993Z</time></trkpt><trkpt lat="45.14194325988785" lon="9.635217229614998"><ele>48.599999999999994</ele><time>2026-04-30T15:57:29.993Z</time></trkpt><trkpt lat="45.14204242733558" lon="9.635123924941919"><ele>49.199999999999996</ele><time>2026-04-30T15:57:30.993Z</time></trkpt><trkpt lat="45.14214152679071" lon="9.635026865729746"><ele>49.8</ele><time>2026-04-30T15:57:31.993Z</time></trkpt><trkpt lat="45.1422148954752" lon="9.634926479681875"><ele>50.4</ele><time>2026-04-30T15:57:32.993Z</time></trkpt><trkpt lat="45.14227948570464" lon="9.634858597535388"><ele>51.0</ele><time>2026-04-30T15:57:33.993Z</time></trkpt><trkpt lat="45.14231269544936" lon="9.634728780948706"><ele>51.75</ele><time>2026-04-30T15:57:34.993Z</time></trkpt><trkpt lat="45.14241868659167" lon="9.634593540844849"><ele>52.5</ele><time>2026-04-30T15:57:36.993Z</time></trkpt><trkpt lat="45.14250819868823" lon="9.6345349517652"><ele>53.25</ele><time>2026-04-30T15:57:38.993Z</time></trkpt><trkpt lat="45.14257468516481" lon="9.634494885897091"><ele>54.0</ele><time>2026-04-30T15:57:39.993Z</time></trkpt><trkpt lat="45.14252243920887" lon="9.634744367630956"><ele>54.0</ele><time>2026-04-30T15:57:41.993Z</time></trkpt><trkpt lat="45.14261941722049" lon="9.634847448403908"><ele>54.0</ele><time>2026-04-30T15:57:43.993Z</time></trkpt><trkpt lat="45.14279163598595" lon="9.634750145495879"><ele>54.0</ele><time>2026-04-30T15:57:44.993Z</time></trkpt><trkpt lat="45.14285734463476" lon="9.634707909974859"><ele>54.0</ele><time>2026-04-30T15:57:46.992Z</time></trkpt><trkpt lat="45.14291180456346" lon="9.634613684516271"><ele>54.0</ele><time>2026-04-30T15:57:48.992Z</time></trkpt><trkpt lat="45.1429583535441" lon="9.634542249765156"><ele>54.0</ele><time>2026-04-30T15:57:50.992Z</time></trkpt></trkseg><trkseg><trkpt lat="45.1430380163405" lon="9.634623011493625"><ele>54.0</ele><time>2026-04-30T16:18:27.77Z</time></trkpt><trkpt lat="45.14306740750381" lon="9.634523298954548"><ele>54.0</ele><time>2026-04-30T16:18:29.984Z</time></trkpt><trkpt lat="45.14314929823065" lon="9.634426912346346"><ele>54.0</ele><time>2026-04-30T16:18:32.984Z</time></trkpt><trkpt lat="45.14315353436181" lon="9.634331897863548"><ele>54.0</ele><time>2026-04-30T16:18:34.984Z</time></trkpt><trkpt lat="45.14311829212401" lon="9.634225962616036"><ele>54.0</ele><time>2026-04-30T16:18:36.984Z</time></trkpt><trkpt lat="45.143099058048826" lon="9.634072542866846"><ele>54.0</ele><time>2026-04-30T16:18:38.984Z</time></trkpt><trkpt lat="45.14311526694302" lon="9.63391998052548"><ele>54.166666666666664</ele><time>2026-04-30T16:18:40.984Z</time></trkpt><trkpt lat="45.14319497410355" lon="9.633792040198054"><ele>54.33333333333333</ele><time>2026-04-30T16:18:42.984Z</time></trkpt><trkpt lat="45.1432519073419" lon="9.633725621490806"><ele>54.5</ele><time>2026-04-30T16:18:43.983Z</time></trkpt><trkpt lat="45.14329875207614" lon="9.633645488761896"><ele>54.666666666666664</ele><time>2026-04-30T16:18:44.983Z</time></trkpt><trkpt lat="45.14334994475268" lon="9.633566204574462"><ele>54.83333333333333</ele><time>2026-04-30T16:18:45.983Z</time></trkpt><trkpt lat="45.143409069830376" lon="9.633471233235682"><ele>55.0</ele><time>2026-04-30T16:18:46.983Z</time></trkpt><trkpt lat="45.14347183082598" lon="9.633364094112228"><ele>55.0</ele><time>2026-04-30T16:18:47.983Z</time></trkpt><trkpt lat="45.14351119352203" lon="9.633244152187668"><ele>55.0</ele><time>2026-04-30T16:18:48.983Z</time></trkpt><trkpt lat="45.14356514828945" lon="9.63313251300871"><ele>55.0</ele><time>2026-04-30T16:18:49.983Z</time></trkpt><trkpt lat="45.143624748188735" lon="9.63302242232033"><ele>55.0</ele><time>2026-04-30T16:18:50.983Z</time></trkpt><trkpt lat="45.143683433392376" lon="9.632920570272393"><ele>55.0</ele><time>2026-04-30T16:18:51.983Z</time></trkpt><trkpt lat="45.14377328295196" lon="9.6328320695206"><ele>55.5</ele><time>2026-04-30T16:18:52.983Z</time></trkpt><trkpt lat="45.14384096796296" lon="9.632715121143875"><ele>56.0</ele><time>2026-04-30T16:18:53.983Z</time></trkpt><trkpt lat="45.14392661883943" lon="9.632592986526676"><ele>56.5</ele><time>2026-04-30T16:18:54.983Z</time></trkpt><trkpt lat="45.14400690158883" lon="9.632449732787924"><ele>57.0</ele><time>2026-04-30T16:18:55.983Z</time></trkpt><trkpt lat="45.144065772211235" lon="9.632283026030034"><ele>57.25</ele><time>2026-04-30T16:18:56.983Z</time></trkpt><trkpt lat="45.14413817950024" lon="9.632121089026661"><ele>57.5</ele><time>2026-04-30T16:18:57.983Z</time></trkpt><trkpt lat="45.144254790932024" lon="9.63198366883374"><ele>57.75</ele><time>2026-04-30T16:18:58.983Z</time></trkpt><trkpt lat="45.144369395557305" lon="9.631837428509245"><ele>58.0</ele><time>2026-04-30T16:18:59.983Z</time></trkpt><trkpt lat="45.144481880462365" lon="9.631678878159919"><ele>57.33333333333333</ele><time>2026-04-30T16:19:00.983Z</time></trkpt><trkpt lat="45.14459834533721" lon="9.631505976538648"><ele>56.66666666666667</ele><time>2026-04-30T16:19:01.983Z</time></trkpt><trkpt lat="45.14473297523082" lon="9.631325497937341"><ele>56.0</ele><time>2026-04-30T16:19:02.983Z</time></trkpt><trkpt lat="45.14486494309135" lon="9.631124295647894"><ele>56.333333333333336</ele><time>2026-04-30T16:19:03.983Z</time></trkpt><trkpt lat="45.145011735150995" lon="9.63091543788862"><ele>56.66666666666667</ele><time>2026-04-30T16:19:04.983Z</time></trkpt><trkpt lat="45.145150891512074" lon="9.630688415409013"><ele>57.0</ele><time>2026-04-30T16:19:05.983Z</time></trkpt><trkpt lat="45.14529586871944" lon="9.630487514712724"><ele>57.0</ele><time>2026-04-30T16:19:06.983Z</time></trkpt><trkpt lat="45.14544690550761" lon="9.630297371150403"><ele>57.0</ele><time>2026-04-30T16:19:07.983Z</time></trkpt><trkpt lat="45.14559170006503" lon="9.630087096963805"><ele>57.0</ele><time>2026-04-30T16:19:08.983Z</time></trkpt><trkpt lat="45.145739136421874" lon="9.629869054496655"><ele>57.0</ele><time>2026-04-30T16:19:09.983Z</time></trkpt><trkpt lat="45.14588466765406" lon="9.629649491385932"><ele>57.0</ele><time>2026-04-30T16:19:10.983Z</time></trkpt><trkpt lat="45.14603608611601" lon="9.629450431779182"><ele>57.0</ele><time>2026-04-30T16:19:11.983Z</time></trkpt><trkpt lat="45.146189461781574" lon="9.629260634473745"><ele>57.0</ele><time>2026-04-30T16:19:12.983Z</time></trkpt><trkpt lat="45.14633230785799" lon="9.629051365810712"><ele>57.0</ele><time>2026-04-30T16:19:13.983Z</time></trkpt><trkpt lat="45.14647162536724" lon="9.628846636319285"><ele>57.0</ele><time>2026-04-30T16:19:14.983Z</time></trkpt><trkpt lat="45.14662150562721" lon="9.628653685138651"><ele>56.66666666666667</ele><time>2026-04-30T16:19:15.983Z</time></trkpt><trkpt lat="45.14675570408186" lon="9.628455982554947"><ele>56.333333333333336</ele><time>2026-04-30T16:19:16.983Z</time></trkpt><trkpt lat="45.14690930653361" lon="9.628266100761788"><ele>56.0</ele><time>2026-04-30T16:19:17.983Z</time></trkpt><trkpt lat="45.14705221649298" lon="9.628071458429352"><ele>56.0</ele><time>2026-04-30T16:19:18.983Z</time></trkpt><trkpt lat="45.14719555411839" lon="9.627865288605422"><ele>56.0</ele><time>2026-04-30T16:19:19.983Z</time></trkpt><trkpt lat="45.147334267509144" lon="9.627666776801824"><ele>56.0</ele><time>2026-04-30T16:19:20.983Z</time></trkpt><trkpt lat="45.14747980691595" lon="9.62748144306568"><ele>56.333333333333336</ele><time>2026-04-30T16:19:21.983Z</time></trkpt><trkpt lat="45.14761492638157" lon="9.62728001635769"><ele>56.66666666666667</ele><time>2026-04-30T16:19:22.983Z</time></trkpt><trkpt lat="45.14774842547115" lon="9.627068953571039"><ele>57.0</ele><time>2026-04-30T16:19:23.983Z</time></trkpt><trkpt lat="45.147890751012866" lon="9.626868411721187"><ele>57.33333333333333</ele><time>2026-04-30T16:19:24.983Z</time></trkpt><trkpt lat="45.148030786710045" lon="9.6266540572844"><ele>57.666666666666664</ele><time>2026-04-30T16:19:25.983Z</time></trkpt><trkpt lat="45.148171819905755" lon="9.626432753249604"><ele>58.0</ele><time>2026-04-30T16:19:26.983Z</time></trkpt><trkpt lat="45.14832295955591" lon="9.626211283507544"><ele>59.0</ele><time>2026-04-30T16:19:27.983Z</time></trkpt><trkpt lat="45.148475097562674" lon="9.625995435308775"><ele>60.0</ele><time>2026-04-30T16:19:28.983Z</time></trkpt><trkpt lat="45.14861773094426" lon="9.625766481559955"><ele>61.0</ele><time>2026-04-30T16:19:29.983Z</time></trkpt><trkpt lat="45.14877071968609" lon="9.625553779261342"><ele>61.0</ele><time>2026-04-30T16:19:30.983Z</time></trkpt><trkpt lat="45.148930567732464" lon="9.62535051856405"><ele>61.0</ele><time>2026-04-30T16:19:31.983Z</time></trkpt><trkpt lat="45.14906575093462" lon="9.625151164978705"><ele>61.0</ele><time>2026-04-30T16:19:32.983Z</time></trkpt><trkpt lat="45.149219876204334" lon="9.624928886106764"><ele>60.33333333333333</ele><time>2026-04-30T16:19:33.983Z</time></trkpt><trkpt lat="45.149362908783374" lon="9.624710777300624"><ele>59.66666666666667</ele><time>2026-04-30T16:19:34.983Z</time></trkpt><trkpt lat="45.14951679640075" lon="9.624487207856655"><ele>59.0</ele><time>2026-04-30T16:19:35.983Z</time></trkpt><trkpt lat="45.14967177802981" lon="9.624264594741113"><ele>59.0</ele><time>2026-04-30T16:19:36.983Z</time></trkpt><trkpt lat="45.14983479698145" lon="9.62405342079051"><ele>59.0</ele><time>2026-04-30T16:19:37.983Z</time></trkpt><trkpt lat="45.14999672669914" lon="9.623830939425451"><ele>59.0</ele><time>2026-04-30T16:19:38.983Z</time></trkpt><trkpt lat="45.15012983867302" lon="9.623605542481828"><ele>59.0</ele><time>2026-04-30T16:19:39.983Z</time></trkpt><trkpt lat="45.15030671378456" lon="9.623384865758647"><ele>59.0</ele><time>2026-04-30T16:19:40.983Z</time></trkpt><trkpt lat="45.15046721299163" lon="9.623159412996442"><ele>59.0</ele><time>2026-04-30T16:19:41.983Z</time></trkpt><trkpt lat="45.15063312667638" lon="9.622971339961042"><ele>59.0</ele><time>2026-04-30T16:19:42.983Z</time></trkpt><trkpt lat="45.15081041943601" lon="9.622739334190364"><ele>59.0</ele><time>2026-04-30T16:19:43.983Z</time></trkpt><trkpt lat="45.15098474346907" lon="9.622519888650304"><ele>59.0</ele><time>2026-04-30T16:19:44.983Z</time></trkpt><trkpt lat="45.15114149321811" lon="9.622284146350353"><ele>59.0</ele><time>2026-04-30T16:19:45.982Z</time></trkpt><trkpt lat="45.151288892581455" lon="9.622062941407508"><ele>59.0</ele><time>2026-04-30T16:19:46.982Z</time></trkpt><trkpt lat="45.151450562461804" lon="9.621855853084181"><ele>59.0</ele><time>2026-04-30T16:19:47.982Z</time></trkpt><trkpt lat="45.15162271112612" lon="9.621643048479795"><ele>59.0</ele><time>2026-04-30T16:19:48.982Z</time></trkpt><trkpt lat="45.15177162683544" lon="9.621412423370671"><ele>59.0</ele><time>2026-04-30T16:19:49.982Z</time></trkpt><trkpt lat="45.151902888572025" lon="9.621185462809091"><ele>59.0</ele><time>2026-04-30T16:19:50.982Z</time></trkpt><trkpt lat="45.152055772703385" lon="9.620960980103778"><ele>59.333333333333336</ele><time>2026-04-30T16:19:51.982Z</time></trkpt><trkpt lat="45.15218617481293" lon="9.620702815538365"><ele>59.66666666666667</ele><time>2026-04-30T16:19:52.982Z</time></trkpt><trkpt lat="45.1523383683728" lon="9.620494341158077"><ele>60.0</ele><time>2026-04-30T16:19:53.982Z</time></trkpt><trkpt lat="45.15249220133002" lon="9.620267276895635"><ele>60.0</ele><time>2026-04-30T16:19:54.982Z</time></trkpt><trkpt lat="45.15265173020889" lon="9.62004380719722"><ele>60.0</ele><time>2026-04-30T16:19:55.982Z</time></trkpt><trkpt lat="45.15280589843017" lon="9.61983478140019"><ele>60.0</ele><time>2026-04-30T16:19:56.982Z</time></trkpt><trkpt lat="45.152964449716016" lon="9.619624851207073"><ele>60.0</ele><time>2026-04-30T16:19:57.982Z</time></trkpt><trkpt lat="45.15312777745774" lon="9.619395015525818"><ele>60.0</ele><time>2026-04-30T16:19:58.982Z</time></trkpt><trkpt lat="45.15330991375111" lon="9.619160027537346"><ele>60.0</ele><time>2026-04-30T16:19:59.982Z</time></trkpt><trkpt lat="45.1534768309828" lon="9.61892492463757"><ele>60.0</ele><time>2026-04-30T16:20:00.982Z</time></trkpt><trkpt lat="45.15366118608049" lon="9.61866850420487"><ele>60.0</ele><time>2026-04-30T16:20:01.982Z</time></trkpt><trkpt lat="45.15386160585537" lon="9.618419892999208"><ele>60.0</ele><time>2026-04-30T16:20:02.982Z</time></trkpt><trkpt lat="45.15404514400605" lon="9.618169466737509"><ele>60.0</ele><time>2026-04-30T16:20:03.982Z</time></trkpt><trkpt lat="45.15424687724616" lon="9.617907324877693"><ele>60.0</ele><time>2026-04-30T16:20:04.982Z</time></trkpt><trkpt lat="45.15444973040685" lon="9.617714781680496"><ele>59.5</ele><time>2026-04-30T16:20:05.982Z</time></trkpt><trkpt lat="45.15464316901739" lon="9.617420281013086"><ele>59.0</ele><time>2026-04-30T16:20:06.982Z</time></trkpt><trkpt lat="45.15483325074117" lon="9.617163877553887"><ele>59.0</ele><time>2026-04-30T16:20:07.982Z</time></trkpt><trkpt lat="45.15498390591133" lon="9.616889800223621"><ele>59.0</ele><time>2026-04-30T16:20:08.982Z</time></trkpt><trkpt lat="45.15513941356819" lon="9.616597446856149"><ele>59.0</ele><time>2026-04-30T16:20:09.982Z</time></trkpt><trkpt lat="45.155330146192775" lon="9.616343513662892"><ele>59.0</ele><time>2026-04-30T16:20:10.982Z</time></trkpt><trkpt lat="45.155552942983014" lon="9.616107771763158"><ele>59.5</ele><time>2026-04-30T16:20:11.982Z</time></trkpt><trkpt lat="45.155747352695414" lon="9.61585167036127"><ele>60.0</ele><time>2026-04-30T16:20:12.982Z</time></trkpt><trkpt lat="45.155941954454605" lon="9.615569369471622"><ele>60.0</ele><time>2026-04-30T16:20:13.982Z</time></trkpt><trkpt lat="45.15613747520146" lon="9.615323420727522"><ele>60.0</ele><time>2026-04-30T16:20:14.982Z</time></trkpt><trkpt lat="45.15631409942226" lon="9.615069829932509"><ele>60.5</ele><time>2026-04-30T16:20:15.982Z</time></trkpt><trkpt lat="45.15648657713757" lon="9.614810139686941"><ele>61.0</ele><time>2026-04-30T16:20:16.982Z</time></trkpt><trkpt lat="45.15666190361899" lon="9.614559604980993"><ele>60.0</ele><time>2026-04-30T16:20:17.982Z</time></trkpt><trkpt lat="45.15684528747731" lon="9.614273275953739"><ele>59.0</ele><time>2026-04-30T16:20:18.982Z</time></trkpt><trkpt lat="45.15701522369155" lon="9.614031040531554"><ele>59.0</ele><time>2026-04-30T16:20:19.982Z</time></trkpt><trkpt lat="45.15718402263317" lon="9.613805499147592"><ele>59.0</ele><time>2026-04-30T16:20:20.982Z</time></trkpt><trkpt lat="45.15736147229397" lon="9.613554269291493"><ele>59.5</ele><time>2026-04-30T16:20:21.982Z</time></trkpt><trkpt lat="45.157556287138064" lon="9.613317403611752"><ele>60.0</ele><time>2026-04-30T16:20:22.982Z</time></trkpt><trkpt lat="45.15776661462354" lon="9.6130582720494"><ele>60.0</ele><time>2026-04-30T16:20:23.982Z</time></trkpt><trkpt lat="45.157935776034265" lon="9.612801558474667"><ele>60.0</ele><time>2026-04-30T16:20:24.982Z</time></trkpt><trkpt lat="45.158116184593986" lon="9.612554287601073"><ele>60.0</ele><time>2026-04-30T16:20:25.982Z</time></trkpt><trkpt lat="45.15828728459111" lon="9.612318361958296"><ele>60.0</ele><time>2026-04-30T16:20:26.982Z</time></trkpt><trkpt lat="45.158478101522014" lon="9.612074646161716"><ele>60.0</ele><time>2026-04-30T16:20:27.982Z</time></trkpt><trkpt lat="45.15862214885257" lon="9.611811389929317"><ele>60.0</ele><time>2026-04-30T16:20:28.982Z</time></trkpt><trkpt lat="45.15880349225255" lon="9.611576715070152"><ele>60.0</ele><time>2026-04-30T16:20:29.982Z</time></trkpt><trkpt lat="45.15896157978574" lon="9.611321336923417"><ele>60.0</ele><time>2026-04-30T16:20:30.982Z</time></trkpt><trkpt lat="45.15914498318225" lon="9.611085069813674"><ele>60.5</ele><time>2026-04-30T16:20:31.982Z</time></trkpt><trkpt lat="45.159296439846486" lon="9.610829625125543"><ele>61.0</ele><time>2026-04-30T16:20:32.982Z</time></trkpt><trkpt lat="45.15942459924998" lon="9.610516657981591"><ele>61.0</ele><time>2026-04-30T16:20:33.982Z</time></trkpt><trkpt lat="45.15959336308363" lon="9.610314681966985"><ele>61.0</ele><time>2026-04-30T16:20:34.982Z</time></trkpt><trkpt lat="45.15977588449987" lon="9.610115342520448"><ele>60.5</ele><time>2026-04-30T16:20:35.982Z</time></trkpt><trkpt lat="45.15996350073628" lon="9.609891990543595"><ele>60.0</ele><time>2026-04-30T16:20:36.982Z</time></trkpt><trkpt lat="45.1601134004569" lon="9.60964148906517"><ele>61.0</ele><time>2026-04-30T16:20:37.982Z</time></trkpt><trkpt lat="45.16027203839819" lon="9.609384277711165"><ele>62.0</ele><time>2026-04-30T16:20:38.982Z</time></trkpt><trkpt lat="45.160440039425666" lon="9.609143808177038"><ele>62.0</ele><time>2026-04-30T16:20:39.982Z</time></trkpt><trkpt lat="45.16063021966221" lon="9.608941198450257"><ele>62.0</ele><time>2026-04-30T16:20:40.982Z</time></trkpt><trkpt lat="45.16081843136701" lon="9.608704854510847"><ele>62.0</ele><time>2026-04-30T16:20:41.982Z</time></trkpt><trkpt lat="45.16096901998935" lon="9.608441677846717"><ele>62.0</ele><time>2026-04-30T16:20:42.982Z</time></trkpt><trkpt lat="45.16116051598226" lon="9.608231215004528"><ele>62.0</ele><time>2026-04-30T16:20:43.982Z</time></trkpt><trkpt lat="45.16132752681417" lon="9.607980078187124"><ele>62.0</ele><time>2026-04-30T16:20:44.982Z</time></trkpt><trkpt lat="45.161508611241274" lon="9.607749947231056"><ele>62.0</ele><time>2026-04-30T16:20:45.982Z</time></trkpt><trkpt lat="45.16169177800835" lon="9.607508269015886"><ele>62.0</ele><time>2026-04-30T16:20:46.982Z</time></trkpt><trkpt lat="45.161883280522325" lon="9.60726339529915"><ele>62.0</ele><time>2026-04-30T16:20:47.981Z</time></trkpt><trkpt lat="45.16205878465576" lon="9.607025565937505"><ele>62.0</ele><time>2026-04-30T16:20:48.981Z</time></trkpt><trkpt lat="45.16224214908031" lon="9.606782034797142"><ele>62.0</ele><time>2026-04-30T16:20:49.981Z</time></trkpt><trkpt lat="45.16241593941679" lon="9.606527551702168"><ele>62.0</ele><time>2026-04-30T16:20:50.981Z</time></trkpt><trkpt lat="45.16257359495388" lon="9.60625271106733"><ele>61.5</ele><time>2026-04-30T16:20:51.981Z</time></trkpt><trkpt lat="45.16277287476977" lon="9.605996230904292"><ele>61.0</ele><time>2026-04-30T16:20:52.981Z</time></trkpt><trkpt lat="45.16296589830662" lon="9.605742255157129"><ele>61.0</ele><time>2026-04-30T16:20:53.981Z</time></trkpt><trkpt lat="45.16315688964613" lon="9.605498581752206"><ele>61.0</ele><time>2026-04-30T16:20:54.981Z</time></trkpt><trkpt lat="45.16334423024929" lon="9.605245576162933"><ele>63.0</ele><time>2026-04-30T16:20:55.981Z</time></trkpt><trkpt lat="45.16353450650148" lon="9.604981071357896"><ele>65.0</ele><time>2026-04-30T16:20:56.981Z</time></trkpt><trkpt lat="45.163729046663484" lon="9.60474041361724"><ele>65.0</ele><time>2026-04-30T16:20:57.981Z</time></trkpt><trkpt lat="45.16389443880086" lon="9.604465287723425"><ele>65.0</ele><time>2026-04-30T16:20:58.981Z</time></trkpt><trkpt lat="45.16403793080791" lon="9.604199430550771"><ele>63.0</ele><time>2026-04-30T16:20:59.981Z</time></trkpt><trkpt lat="45.16421458563781" lon="9.603967763127729"><ele>61.0</ele><time>2026-04-30T16:21:00.981Z</time></trkpt><trkpt lat="45.16438109582433" lon="9.603719829048904"><ele>61.0</ele><time>2026-04-30T16:21:01.981Z</time></trkpt><trkpt lat="45.164577738815126" lon="9.603485323305545"><ele>61.0</ele><time>2026-04-30T16:21:02.981Z</time></trkpt><trkpt lat="45.16475598919557" lon="9.60322573953615"><ele>60.5</ele><time>2026-04-30T16:21:03.981Z</time></trkpt><trkpt lat="45.16493152003993" lon="9.602971232060836"><ele>60.0</ele><time>2026-04-30T16:21:04.981Z</time></trkpt><trkpt lat="45.16513027685243" lon="9.60275326480774"><ele>60.0</ele><time>2026-04-30T16:21:05.981Z</time></trkpt><trkpt lat="45.1653081022387" lon="9.602487561157005"><ele>60.0</ele><time>2026-04-30T16:21:06.981Z</time></trkpt><trkpt lat="45.16549148112555" lon="9.602221580650502"><ele>60.0</ele><time>2026-04-30T16:21:07.981Z</time></trkpt><trkpt lat="45.16566490967622" lon="9.601953983184304"><ele>60.0</ele><time>2026-04-30T16:21:08.981Z</time></trkpt><trkpt lat="45.16584543873358" lon="9.601702492074308"><ele>60.0</ele><time>2026-04-30T16:21:09.981Z</time></trkpt><trkpt lat="45.166032810887614" lon="9.601450675879487"><ele>60.0</ele><time>2026-04-30T16:21:10.981Z</time></trkpt><trkpt lat="45.1662168758913" lon="9.601202921396606"><ele>60.5</ele><time>2026-04-30T16:21:11.981Z</time></trkpt><trkpt lat="45.16639151957638" lon="9.600940829329934"><ele>61.0</ele><time>2026-04-30T16:21:12.981Z</time></trkpt><trkpt lat="45.1665807858859" lon="9.600691501428017"><ele>61.0</ele><time>2026-04-30T16:21:13.981Z</time></trkpt><trkpt lat="45.16676194488198" lon="9.600414493067026"><ele>61.0</ele><time>2026-04-30T16:21:14.981Z</time></trkpt><trkpt lat="45.16691038543305" lon="9.600132822616306"><ele>61.5</ele><time>2026-04-30T16:21:15.981Z</time></trkpt><trkpt lat="45.16706507945264" lon="9.599868391783312"><ele>62.0</ele><time>2026-04-30T16:21:16.981Z</time></trkpt><trkpt lat="45.16723658726476" lon="9.599636500837525"><ele>61.0</ele><time>2026-04-30T16:21:17.981Z</time></trkpt><trkpt lat="45.16739536916726" lon="9.59936447214391"><ele>60.0</ele><time>2026-04-30T16:21:18.981Z</time></trkpt><trkpt lat="45.16757013551781" lon="9.599100696449467"><ele>60.0</ele><time>2026-04-30T16:21:19.981Z</time></trkpt><trkpt lat="45.16773852522667" lon="9.59881904574384"><ele>60.0</ele><time>2026-04-30T16:21:20.981Z</time></trkpt><trkpt lat="45.16790438722879" lon="9.598548505949518"><ele>60.0</ele><time>2026-04-30T16:21:21.981Z</time></trkpt><trkpt lat="45.168071690541346" lon="9.598253547924653"><ele>60.0</ele><time>2026-04-30T16:21:22.981Z</time></trkpt><trkpt lat="45.1682562451945" lon="9.59798183391006"><ele>60.5</ele><time>2026-04-30T16:21:23.981Z</time></trkpt><trkpt lat="45.168458018644564" lon="9.59768521733756"><ele>61.0</ele><time>2026-04-30T16:21:24.981Z</time></trkpt><trkpt lat="45.16865523414823" lon="9.597436882923628"><ele>61.0</ele><time>2026-04-30T16:21:25.981Z</time></trkpt><trkpt lat="45.16883220801912" lon="9.597149395097368"><ele>61.0</ele><time>2026-04-30T16:21:26.981Z</time></trkpt><trkpt lat="45.16897285175198" lon="9.596894126641606"><ele>62.0</ele><time>2026-04-30T16:21:27.981Z</time></trkpt><trkpt lat="45.16911239931772" lon="9.596644450627812"><ele>63.0</ele><time>2026-04-30T16:21:28.981Z</time></trkpt><trkpt lat="45.169278233434405" lon="9.59639221169851"><ele>63.0</ele><time>2026-04-30T16:21:29.981Z</time></trkpt><trkpt lat="45.16943090299538" lon="9.596135764487633"><ele>63.0</ele><time>2026-04-30T16:21:30.981Z</time></trkpt><trkpt lat="45.169603925622454" lon="9.595881789158716"><ele>63.0</ele><time>2026-04-30T16:21:31.981Z</time></trkpt><trkpt lat="45.16981871907317" lon="9.595609337397843"><ele>63.0</ele><time>2026-04-30T16:21:32.981Z</time></trkpt><trkpt lat="45.17000904560622" lon="9.595343033165724"><ele>65.0</ele><time>2026-04-30T16:21:33.981Z</time></trkpt><trkpt lat="45.17016966713251" lon="9.595085033113271"><ele>67.0</ele><time>2026-04-30T16:21:34.981Z</time></trkpt><trkpt lat="45.170329036507546" lon="9.594819203961952"><ele>67.0</ele><time>2026-04-30T16:21:35.981Z</time></trkpt><trkpt lat="45.17047412691479" lon="9.594563312810923"><ele>67.0</ele><time>2026-04-30T16:21:36.981Z</time></trkpt><trkpt lat="45.17059515241639" lon="9.594276038094518"><ele>66.5</ele><time>2026-04-30T16:21:37.981Z</time></trkpt><trkpt lat="45.170758335879974" lon="9.594018657314699"><ele>66.0</ele><time>2026-04-30T16:21:38.981Z</time></trkpt><trkpt lat="45.17090821051953" lon="9.593763152252457"><ele>66.0</ele><time>2026-04-30T16:21:39.981Z</time></trkpt><trkpt lat="45.1710866633812" lon="9.593522359563993"><ele>66.0</ele><time>2026-04-30T16:21:40.981Z</time></trkpt><trkpt lat="45.17126294280367" lon="9.593267804476996"><ele>66.0</ele><time>2026-04-30T16:21:41.981Z</time></trkpt><trkpt lat="45.1714496492519" lon="9.593014494462018"><ele>66.0</ele><time>2026-04-30T16:21:42.981Z</time></trkpt><trkpt lat="45.17162944607777" lon="9.592761296081381"><ele>66.0</ele><time>2026-04-30T16:21:43.981Z</time></trkpt><trkpt lat="45.17179357639983" lon="9.592498997404874"><ele>66.0</ele><time>2026-04-30T16:21:44.981Z</time></trkpt><trkpt lat="45.171952490140434" lon="9.59223086226469"><ele>65.0</ele><time>2026-04-30T16:21:45.981Z</time></trkpt><trkpt lat="45.172108373474366" lon="9.591984567975757"><ele>64.0</ele><time>2026-04-30T16:21:46.981Z</time></trkpt><trkpt lat="45.172278315452935" lon="9.591737319229894"><ele>63.5</ele><time>2026-04-30T16:21:47.981Z</time></trkpt><trkpt lat="45.17242407663917" lon="9.59146162084788"><ele>63.0</ele><time>2026-04-30T16:21:48.98Z</time></trkpt><trkpt lat="45.17259501843439" lon="9.591201555475859"><ele>64.0</ele><time>2026-04-30T16:21:49.98Z</time></trkpt><trkpt lat="45.17274409842087" lon="9.590921728812738"><ele>65.0</ele><time>2026-04-30T16:21:50.98Z</time></trkpt><trkpt lat="45.17293458732992" lon="9.590664316936879"><ele>65.0</ele><time>2026-04-30T16:21:51.98Z</time></trkpt><trkpt lat="45.17310446482702" lon="9.590410593993976"><ele>65.0</ele><time>2026-04-30T16:21:52.98Z</time></trkpt><trkpt lat="45.173278215932875" lon="9.590139355105864"><ele>65.0</ele><time>2026-04-30T16:21:53.98Z</time></trkpt><trkpt lat="45.1734571268386" lon="9.589860565206676"><ele>65.0</ele><time>2026-04-30T16:21:54.98Z</time></trkpt><trkpt lat="45.17363966547922" lon="9.58958660616364"><ele>64.5</ele><time>2026-04-30T16:21:55.98Z</time></trkpt><trkpt lat="45.17381884607899" lon="9.589315506444432"><ele>64.0</ele><time>2026-04-30T16:21:56.98Z</time></trkpt><trkpt lat="45.17397937598254" lon="9.589041812385101"><ele>63.0</ele><time>2026-04-30T16:21:57.98Z</time></trkpt><trkpt lat="45.17410815657269" lon="9.58877802219637"><ele>62.0</ele><time>2026-04-30T16:21:58.98Z</time></trkpt><trkpt lat="45.17425710929608" lon="9.588536236334507"><ele>62.0</ele><time>2026-04-30T16:21:59.98Z</time></trkpt><trkpt lat="45.17444199503317" lon="9.58828293901394"><ele>62.0</ele><time>2026-04-30T16:22:00.98Z</time></trkpt><trkpt lat="45.17461752567834" lon="9.588031214005323"><ele>62.5</ele><time>2026-04-30T16:22:01.98Z</time></trkpt><trkpt lat="45.174800196069135" lon="9.587791356783555"><ele>63.0</ele><time>2026-04-30T16:22:02.98Z</time></trkpt><trkpt lat="45.17497819584342" lon="9.587509094620868"><ele>63.0</ele><time>2026-04-30T16:22:03.98Z</time></trkpt><trkpt lat="45.17513810439586" lon="9.587208947360644"><ele>63.0</ele><time>2026-04-30T16:22:04.98Z</time></trkpt><trkpt lat="45.175316023921695" lon="9.586921171555595"><ele>63.5</ele><time>2026-04-30T16:22:05.98Z</time></trkpt><trkpt lat="45.17549304740534" lon="9.586639673558231"><ele>64.0</ele><time>2026-04-30T16:22:06.98Z</time></trkpt><trkpt lat="45.175685359960276" lon="9.586368650431687"><ele>64.0</ele><time>2026-04-30T16:22:07.98Z</time></trkpt><trkpt lat="45.17585559791509" lon="9.586085500985119"><ele>64.0</ele><time>2026-04-30T16:22:08.98Z</time></trkpt><trkpt lat="45.17605463197069" lon="9.585822579164375"><ele>64.0</ele><time>2026-04-30T16:22:09.98Z</time></trkpt><trkpt lat="45.17623323277129" lon="9.585541158498277"><ele>64.0</ele><time>2026-04-30T16:22:10.98Z</time></trkpt><trkpt lat="45.17640018777228" lon="9.58525354760087"><ele>63.0</ele><time>2026-04-30T16:22:11.98Z</time></trkpt><trkpt lat="45.1765736227711" lon="9.584989473276563"><ele>62.0</ele><time>2026-04-30T16:22:12.98Z</time></trkpt><trkpt lat="45.17674343354533" lon="9.584700303859982"><ele>62.5</ele><time>2026-04-30T16:22:13.98Z</time></trkpt><trkpt lat="45.17689216539825" lon="9.584437371167581"><ele>63.0</ele><time>2026-04-30T16:22:14.98Z</time></trkpt><trkpt lat="45.17706320949596" lon="9.584173006974451"><ele>63.0</ele><time>2026-04-30T16:22:15.98Z</time></trkpt><trkpt lat="45.17722791766651" lon="9.583923774188031"><ele>63.0</ele><time>2026-04-30T16:22:16.98Z</time></trkpt><trkpt lat="45.17738844690709" lon="9.583662082124713"><ele>64.5</ele><time>2026-04-30T16:22:17.98Z</time></trkpt><trkpt lat="45.177564376253926" lon="9.583407723782166"><ele>66.0</ele><time>2026-04-30T16:22:18.98Z</time></trkpt><trkpt lat="45.177745287671776" lon="9.583163402840642"><ele>66.0</ele><time>2026-04-30T16:22:19.98Z</time></trkpt><trkpt lat="45.17788944937476" lon="9.582869065325752"><ele>66.0</ele><time>2026-04-30T16:22:20.98Z</time></trkpt><trkpt lat="45.178054932394055" lon="9.582578108247963"><ele>64.0</ele><time>2026-04-30T16:22:21.98Z</time></trkpt><trkpt lat="45.17822996139757" lon="9.582322563113435"><ele>62.0</ele><time>2026-04-30T16:22:22.98Z</time></trkpt><trkpt lat="45.178422810571135" lon="9.582082145250661"><ele>62.5</ele><time>2026-04-30T16:22:23.98Z</time></trkpt><trkpt lat="45.178588075085784" lon="9.581819828456483"><ele>63.0</ele><time>2026-04-30T16:22:24.98Z</time></trkpt><trkpt lat="45.17879719912397" lon="9.581583233974023"><ele>63.0</ele><time>2026-04-30T16:22:25.98Z</time></trkpt><trkpt lat="45.17898467203492" lon="9.581327674874728"><ele>63.0</ele><time>2026-04-30T16:22:26.98Z</time></trkpt><trkpt lat="45.17914270148737" lon="9.58106787125754"><ele>62.5</ele><time>2026-04-30T16:22:27.98Z</time></trkpt><trkpt lat="45.179295349038455" lon="9.580802735085022"><ele>62.0</ele><time>2026-04-30T16:22:28.98Z</time></trkpt><trkpt lat="45.17945765800076" lon="9.580529356060225"><ele>62.5</ele><time>2026-04-30T16:22:29.98Z</time></trkpt><trkpt lat="45.179604817147435" lon="9.580245514914754"><ele>63.0</ele><time>2026-04-30T16:22:30.98Z</time></trkpt><trkpt lat="45.179771870851454" lon="9.579997570908821"><ele>63.0</ele><time>2026-04-30T16:22:31.98Z</time></trkpt><trkpt lat="45.17995991319791" lon="9.579730250696121"><ele>63.0</ele><time>2026-04-30T16:22:32.98Z</time></trkpt><trkpt lat="45.18013519831956" lon="9.579457950089518"><ele>64.0</ele><time>2026-04-30T16:22:33.98Z</time></trkpt><trkpt lat="45.18030521454473" lon="9.579180875787129"><ele>65.0</ele><time>2026-04-30T16:22:34.98Z</time></trkpt><trkpt lat="45.180474999419495" lon="9.578910730791646"><ele>63.5</ele><time>2026-04-30T16:22:35.98Z</time></trkpt><trkpt lat="45.18062976692527" lon="9.578611114623953"><ele>62.0</ele><time>2026-04-30T16:22:36.98Z</time></trkpt><trkpt lat="45.18080305559075" lon="9.578325443537897"><ele>62.0</ele><time>2026-04-30T16:22:37.98Z</time></trkpt><trkpt lat="45.1809823094622" lon="9.5780266288244"><ele>62.0</ele><time>2026-04-30T16:22:38.98Z</time></trkpt><trkpt lat="45.18116694625286" lon="9.577766329723985"><ele>62.0</ele><time>2026-04-30T16:22:39.98Z</time></trkpt><trkpt lat="45.18134694601879" lon="9.577504357499567"><ele>62.0</ele><time>2026-04-30T16:22:40.98Z</time></trkpt><trkpt lat="45.1815263371499" lon="9.577227233093714"><ele>62.5</ele><time>2026-04-30T16:22:41.98Z</time></trkpt><trkpt lat="45.181705884540726" lon="9.57695320908136"><ele>63.0</ele><time>2026-04-30T16:22:42.98Z</time></trkpt><trkpt lat="45.18189018172612" lon="9.576686353547693"><ele>63.0</ele><time>2026-04-30T16:22:43.98Z</time></trkpt><trkpt lat="45.18205427035135" lon="9.576388059728757"><ele>63.0</ele><time>2026-04-30T16:22:44.98Z</time></trkpt><trkpt lat="45.182235314307086" lon="9.576120429590567"><ele>62.0</ele><time>2026-04-30T16:22:45.98Z</time></trkpt><trkpt lat="45.18241692833671" lon="9.5758226134977"><ele>61.0</ele><time>2026-04-30T16:22:46.98Z</time></trkpt><trkpt lat="45.18265405369684" lon="9.575573919402364"><ele>61.5</ele><time>2026-04-30T16:22:47.98Z</time></trkpt><trkpt lat="45.18284884247667" lon="9.575265882994929"><ele>62.0</ele><time>2026-04-30T16:22:48.98Z</time></trkpt><trkpt lat="45.183026571883325" lon="9.574964426197521"><ele>62.0</ele><time>2026-04-30T16:22:49.98Z</time></trkpt><trkpt lat="45.183202582250594" lon="9.574680988304772"><ele>62.0</ele><time>2026-04-30T16:22:50.979Z</time></trkpt><trkpt lat="45.1833557405852" lon="9.574391348888415"><ele>62.0</ele><time>2026-04-30T16:22:51.979Z</time></trkpt><trkpt lat="45.18353523890108" lon="9.574114958987884"><ele>62.0</ele><time>2026-04-30T16:22:52.979Z</time></trkpt><trkpt lat="45.18371986106224" lon="9.57385135061238"><ele>62.0</ele><time>2026-04-30T16:22:53.979Z</time></trkpt><trkpt lat="45.18391306688765" lon="9.573569103911433"><ele>62.0</ele><time>2026-04-30T16:22:54.979Z</time></trkpt><trkpt lat="45.18409407715059" lon="9.573276318620525"><ele>62.0</ele><time>2026-04-30T16:22:55.979Z</time></trkpt><trkpt lat="45.18425325941449" lon="9.572958283549454"><ele>62.0</ele><time>2026-04-30T16:22:56.979Z</time></trkpt><trkpt lat="45.18442254216875" lon="9.572664478165805"><ele>62.0</ele><time>2026-04-30T16:22:57.979Z</time></trkpt><trkpt lat="45.18459809306938" lon="9.572379274864293"><ele>62.0</ele><time>2026-04-30T16:22:58.979Z</time></trkpt><trkpt lat="45.18476995159335" lon="9.572077563222729"><ele>61.0</ele><time>2026-04-30T16:22:59.979Z</time></trkpt><trkpt lat="45.1849491747073" lon="9.571788522014794"><ele>60.0</ele><time>2026-04-30T16:23:00.979Z</time></trkpt><trkpt lat="45.185133138383755" lon="9.5715089344427"><ele>60.0</ele><time>2026-04-30T16:23:01.979Z</time></trkpt><trkpt lat="45.18530365251444" lon="9.571208243348249"><ele>60.0</ele><time>2026-04-30T16:23:02.979Z</time></trkpt><trkpt lat="45.18549695343721" lon="9.570926003792785"><ele>61.0</ele><time>2026-04-30T16:23:03.979Z</time></trkpt><trkpt lat="45.185667041178945" lon="9.570628983512975"><ele>62.0</ele><time>2026-04-30T16:23:04.979Z</time></trkpt><trkpt lat="45.18587223215954" lon="9.570354341254765"><ele>62.5</ele><time>2026-04-30T16:23:05.979Z</time></trkpt><trkpt lat="45.186061146481656" lon="9.570067893097919"><ele>63.0</ele><time>2026-04-30T16:23:06.979Z</time></trkpt><trkpt lat="45.18623369522794" lon="9.569787165673011"><ele>62.5</ele><time>2026-04-30T16:23:07.979Z</time></trkpt><trkpt lat="45.18640329670806" lon="9.569494702796193"><ele>62.0</ele><time>2026-04-30T16:23:08.979Z</time></trkpt><trkpt lat="45.18660385358046" lon="9.569232030210546"><ele>62.0</ele><time>2026-04-30T16:23:09.979Z</time></trkpt><trkpt lat="45.186826501046426" lon="9.568922388246508"><ele>62.0</ele><time>2026-04-30T16:23:10.979Z</time></trkpt><trkpt lat="45.18698349268475" lon="9.56858412067351"><ele>62.0</ele><time>2026-04-30T16:23:11.979Z</time></trkpt><trkpt lat="45.18717044781954" lon="9.568237697253313"><ele>62.0</ele><time>2026-04-30T16:23:12.979Z</time></trkpt><trkpt lat="45.187382513129556" lon="9.567906398010344"><ele>62.0</ele><time>2026-04-30T16:23:13.979Z</time></trkpt><trkpt lat="45.18758752908515" lon="9.567585581920724"><ele>62.0</ele><time>2026-04-30T16:23:14.979Z</time></trkpt><trkpt lat="45.18778091590852" lon="9.567280524322982"><ele>61.5</ele><time>2026-04-30T16:23:15.979Z</time></trkpt><trkpt lat="45.18797900093189" lon="9.566968055506376"><ele>61.0</ele><time>2026-04-30T16:23:16.979Z</time></trkpt><trkpt lat="45.188196587672714" lon="9.566663003264564"><ele>62.0</ele><time>2026-04-30T16:23:17.979Z</time></trkpt><trkpt lat="45.188406930748094" lon="9.56634893533947"><ele>63.0</ele><time>2026-04-30T16:23:18.979Z</time></trkpt><trkpt lat="45.18860261883396" lon="9.566047282714315"><ele>63.5</ele><time>2026-04-30T16:23:19.979Z</time></trkpt><trkpt lat="45.18880313833099" lon="9.565785835154305"><ele>64.0</ele><time>2026-04-30T16:23:20.979Z</time></trkpt><trkpt lat="45.1889941905809" lon="9.565491338942962"><ele>63.0</ele><time>2026-04-30T16:23:21.979Z</time></trkpt><trkpt lat="45.189185261602574" lon="9.565177963255847"><ele>62.0</ele><time>2026-04-30T16:23:22.979Z</time></trkpt><trkpt lat="45.18942630114488" lon="9.564879527148074"><ele>62.0</ele><time>2026-04-30T16:23:23.979Z</time></trkpt><trkpt lat="45.189623509569614" lon="9.564601702386007"><ele>62.0</ele><time>2026-04-30T16:23:24.979Z</time></trkpt><trkpt lat="45.18982756186447" lon="9.56429298564026"><ele>61.5</ele><time>2026-04-30T16:23:25.979Z</time></trkpt><trkpt lat="45.19002866157664" lon="9.563995894705045"><ele>61.0</ele><time>2026-04-30T16:23:26.979Z</time></trkpt><trkpt lat="45.19022102767652" lon="9.563699878440552"><ele>61.5</ele><time>2026-04-30T16:23:27.979Z</time></trkpt><trkpt lat="45.19040713530628" lon="9.56341750450525"><ele>62.0</ele><time>2026-04-30T16:23:28.979Z</time></trkpt><trkpt lat="45.190595992782164" lon="9.56312584597711"><ele>62.0</ele><time>2026-04-30T16:23:29.979Z</time></trkpt><trkpt lat="45.19078670658076" lon="9.56284930019668"><ele>62.0</ele><time>2026-04-30T16:23:30.979Z</time></trkpt><trkpt lat="45.190977511904656" lon="9.562571175910987"><ele>62.0</ele><time>2026-04-30T16:23:31.979Z</time></trkpt><trkpt lat="45.191160862372186" lon="9.562295699068112"><ele>62.0</ele><time>2026-04-30T16:23:32.979Z</time></trkpt><trkpt lat="45.191329062483625" lon="9.561990396617308"><ele>62.0</ele><time>2026-04-30T16:23:33.979Z</time></trkpt><trkpt lat="45.19150866169858" lon="9.561722231217594"><ele>62.0</ele><time>2026-04-30T16:23:34.979Z</time></trkpt><trkpt lat="45.19167585842198" lon="9.561449559121064"><ele>61.5</ele><time>2026-04-30T16:23:35.979Z</time></trkpt><trkpt lat="45.191854079836205" lon="9.561169922506117"><ele>61.0</ele><time>2026-04-30T16:23:36.979Z</time></trkpt><trkpt lat="45.19204226405777" lon="9.56091068887894"><ele>61.0</ele><time>2026-04-30T16:23:37.979Z</time></trkpt><trkpt lat="45.19219170109369" lon="9.560612298370062"><ele>61.0</ele><time>2026-04-30T16:23:38.979Z</time></trkpt><trkpt lat="45.192359337379074" lon="9.560365411817461"><ele>60.5</ele><time>2026-04-30T16:23:39.979Z</time></trkpt><trkpt lat="45.19253767477997" lon="9.560121043265891"><ele>60.0</ele><time>2026-04-30T16:23:40.979Z</time></trkpt><trkpt lat="45.19271835408138" lon="9.559878684930014"><ele>60.0</ele><time>2026-04-30T16:23:41.979Z</time></trkpt><trkpt lat="45.19294417758954" lon="9.559651289747274"><ele>60.0</ele><time>2026-04-30T16:23:42.979Z</time></trkpt><trkpt lat="45.19313371054919" lon="9.559409242050693"><ele>61.0</ele><time>2026-04-30T16:23:43.979Z</time></trkpt><trkpt lat="45.19330781283185" lon="9.559146585352662"><ele>62.0</ele><time>2026-04-30T16:23:44.979Z</time></trkpt><trkpt lat="45.193485955945604" lon="9.558903373218872"><ele>62.5</ele><time>2026-04-30T16:23:45.979Z</time></trkpt><trkpt lat="45.193656796783756" lon="9.558652364608221"><ele>63.0</ele><time>2026-04-30T16:23:46.979Z</time></trkpt><trkpt lat="45.193827616146" lon="9.558386229858627"><ele>61.5</ele><time>2026-04-30T16:23:47.979Z</time></trkpt><trkpt lat="45.19403326436924" lon="9.558152005541265"><ele>60.0</ele><time>2026-04-30T16:23:48.979Z</time></trkpt><trkpt lat="45.19422889370735" lon="9.55792030206643"><ele>61.5</ele><time>2026-04-30T16:23:49.979Z</time></trkpt><trkpt lat="45.19441720483125" lon="9.557681260192076"><ele>63.0</ele><time>2026-04-30T16:23:50.979Z</time></trkpt><trkpt lat="45.19459813115114" lon="9.55741120118353"><ele>63.0</ele><time>2026-04-30T16:23:51.979Z</time></trkpt><trkpt lat="45.194775834009754" lon="9.557153196741227"><ele>63.0</ele><time>2026-04-30T16:23:52.978Z</time></trkpt><trkpt lat="45.194954483130296" lon="9.556919073649924"><ele>62.5</ele><time>2026-04-30T16:23:53.978Z</time></trkpt><trkpt lat="45.19513102945926" lon="9.556662926136415"><ele>62.0</ele><time>2026-04-30T16:23:54.978Z</time></trkpt><trkpt lat="45.19532271078015" lon="9.556453983512082"><ele>61.5</ele><time>2026-04-30T16:23:55.978Z</time></trkpt><trkpt lat="45.19552158264737" lon="9.55619905046055"><ele>61.0</ele><time>2026-04-30T16:23:56.978Z</time></trkpt><trkpt lat="45.19571084252238" lon="9.555974350100435"><ele>61.0</ele><time>2026-04-30T16:23:57.978Z</time></trkpt><trkpt lat="45.1958993107797" lon="9.555715609791863"><ele>61.0</ele><time>2026-04-30T16:23:58.978Z</time></trkpt><trkpt lat="45.19606432655443" lon="9.55545570353045"><ele>62.0</ele><time>2026-04-30T16:23:59.978Z</time></trkpt><trkpt lat="45.196248990359436" lon="9.555205217906558"><ele>63.0</ele><time>2026-04-30T16:24:00.978Z</time></trkpt><trkpt lat="45.196429063552166" lon="9.55495863180305"><ele>63.0</ele><time>2026-04-30T16:24:01.978Z</time></trkpt><trkpt lat="45.19660859423288" lon="9.554743303073595"><ele>63.0</ele><time>2026-04-30T16:24:02.978Z</time></trkpt><trkpt lat="45.19679739269255" lon="9.554500789875084"><ele>63.0</ele><time>2026-04-30T16:24:03.978Z</time></trkpt><trkpt lat="45.1969777799999" lon="9.554276510738466"><ele>63.0</ele><time>2026-04-30T16:24:04.978Z</time></trkpt><trkpt lat="45.19715688649475" lon="9.5540321030861"><ele>62.5</ele><time>2026-04-30T16:24:05.978Z</time></trkpt><trkpt lat="45.19734994776126" lon="9.553801949809616"><ele>62.0</ele><time>2026-04-30T16:24:06.978Z</time></trkpt><trkpt lat="45.19752004788427" lon="9.553550042858173"><ele>62.0</ele><time>2026-04-30T16:24:07.978Z</time></trkpt><trkpt lat="45.197720780954974" lon="9.553317302482318"><ele>62.0</ele><time>2026-04-30T16:24:08.978Z</time></trkpt><trkpt lat="45.19789365562046" lon="9.553066457787127"><ele>62.0</ele><time>2026-04-30T16:24:09.978Z</time></trkpt><trkpt lat="45.198081277726736" lon="9.552812684061644"><ele>62.0</ele><time>2026-04-30T16:24:10.978Z</time></trkpt><trkpt lat="45.198271405494694" lon="9.5525784419044"><ele>63.5</ele><time>2026-04-30T16:24:11.978Z</time></trkpt><trkpt lat="45.19843751161491" lon="9.55232806420426"><ele>65.0</ele><time>2026-04-30T16:24:12.978Z</time></trkpt><trkpt lat="45.19861911761148" lon="9.55208489491217"><ele>65.0</ele><time>2026-04-30T16:24:13.978Z</time></trkpt><trkpt lat="45.19881145238098" lon="9.55184538224985"><ele>65.0</ele><time>2026-04-30T16:24:14.978Z</time></trkpt><trkpt lat="45.19900268424099" lon="9.551598476212785"><ele>63.5</ele><time>2026-04-30T16:24:15.978Z</time></trkpt><trkpt lat="45.199176783691044" lon="9.551341009658287"><ele>62.0</ele><time>2026-04-30T16:24:16.978Z</time></trkpt><trkpt lat="45.19936195746047" lon="9.55107959692204"><ele>62.0</ele><time>2026-04-30T16:24:17.978Z</time></trkpt><trkpt lat="45.19956582784816" lon="9.550816295403905"><ele>62.0</ele><time>2026-04-30T16:24:18.978Z</time></trkpt><trkpt lat="45.19972297799423" lon="9.550570117854825"><ele>62.0</ele><time>2026-04-30T16:24:19.978Z</time></trkpt><trkpt lat="45.19990502121731" lon="9.550319020537355"><ele>62.0</ele><time>2026-04-30T16:24:20.978Z</time></trkpt><trkpt lat="45.20010792830626" lon="9.55007569070524"><ele>62.0</ele><time>2026-04-30T16:24:21.978Z</time></trkpt><trkpt lat="45.20030454281911" lon="9.549833944948125"><ele>62.0</ele><time>2026-04-30T16:24:22.978Z</time></trkpt><trkpt lat="45.20050242896665" lon="9.5495930355168"><ele>62.5</ele><time>2026-04-30T16:24:23.978Z</time></trkpt><trkpt lat="45.20069227944674" lon="9.5493354443472"><ele>63.0</ele><time>2026-04-30T16:24:24.978Z</time></trkpt><trkpt lat="45.20087635269637" lon="9.549097397759535"><ele>63.0</ele><time>2026-04-30T16:24:25.978Z</time></trkpt><trkpt lat="45.201063403716795" lon="9.548842336637746"><ele>63.0</ele><time>2026-04-30T16:24:26.978Z</time></trkpt><trkpt lat="45.20124008433502" lon="9.548585737816454"><ele>63.0</ele><time>2026-04-30T16:24:27.978Z</time></trkpt><trkpt lat="45.20142670567914" lon="9.54833651995618"><ele>63.0</ele><time>2026-04-30T16:24:28.978Z</time></trkpt><trkpt lat="45.201605981995655" lon="9.548088667129836"><ele>62.5</ele><time>2026-04-30T16:24:29.978Z</time></trkpt><trkpt lat="45.20181766720098" lon="9.547832981211117"><ele>62.0</ele><time>2026-04-30T16:24:30.978Z</time></trkpt><trkpt lat="45.202002238215535" lon="9.547574020492075"><ele>62.0</ele><time>2026-04-30T16:24:31.978Z</time></trkpt><trkpt lat="45.20218790536842" lon="9.547331202500418"><ele>62.0</ele><time>2026-04-30T16:24:32.978Z</time></trkpt><trkpt lat="45.202390352702544" lon="9.54708526263689"><ele>63.0</ele><time>2026-04-30T16:24:33.978Z</time></trkpt><trkpt lat="45.20258115346458" lon="9.546841514953053"><ele>64.0</ele><time>2026-04-30T16:24:34.978Z</time></trkpt><trkpt lat="45.202759305667" lon="9.546597247335033"><ele>64.0</ele><time>2026-04-30T16:24:35.978Z</time></trkpt><trkpt lat="45.20294312321227" lon="9.546341289887804"><ele>64.0</ele><time>2026-04-30T16:24:36.978Z</time></trkpt><trkpt lat="45.203140835781056" lon="9.546106417877402"><ele>64.0</ele><time>2026-04-30T16:24:37.978Z</time></trkpt><trkpt lat="45.20334866659176" lon="9.545872688783856"><ele>64.0</ele><time>2026-04-30T16:24:38.978Z</time></trkpt><trkpt lat="45.20353077804546" lon="9.545620434804754"><ele>64.0</ele><time>2026-04-30T16:24:39.978Z</time></trkpt><trkpt lat="45.20373142138806" lon="9.54538023105802"><ele>64.0</ele><time>2026-04-30T16:24:40.978Z</time></trkpt><trkpt lat="45.203928602720765" lon="9.545122556095606"><ele>63.0</ele><time>2026-04-30T16:24:41.978Z</time></trkpt><trkpt lat="45.20410816039701" lon="9.54490133765604"><ele>62.0</ele><time>2026-04-30T16:24:42.978Z</time></trkpt><trkpt lat="45.204287114779845" lon="9.54464793665164"><ele>62.0</ele><time>2026-04-30T16:24:43.978Z</time></trkpt><trkpt lat="45.20446066762019" lon="9.544398139390387"><ele>62.0</ele><time>2026-04-30T16:24:44.978Z</time></trkpt><trkpt lat="45.20464702137662" lon="9.544144639435942"><ele>62.5</ele><time>2026-04-30T16:24:45.978Z</time></trkpt><trkpt lat="45.20483792854637" lon="9.543928133516207"><ele>63.0</ele><time>2026-04-30T16:24:46.978Z</time></trkpt><trkpt lat="45.20501542720016" lon="9.543669793331752"><ele>63.0</ele><time>2026-04-30T16:24:47.978Z</time></trkpt><trkpt lat="45.205200185455105" lon="9.543408237128839"><ele>63.0</ele><time>2026-04-30T16:24:48.978Z</time></trkpt><trkpt lat="45.20538927729353" lon="9.54316062628304"><ele>63.0</ele><time>2026-04-30T16:24:49.978Z</time></trkpt><trkpt lat="45.2055744754029" lon="9.542912819981298"><ele>63.0</ele><time>2026-04-30T16:24:50.978Z</time></trkpt><trkpt lat="45.20575176076026" lon="9.54266844149877"><ele>64.0</ele><time>2026-04-30T16:24:51.978Z</time></trkpt><trkpt lat="45.205914389960476" lon="9.542411807778365"><ele>65.0</ele><time>2026-04-30T16:24:52.978Z</time></trkpt><trkpt lat="45.20611829848222" lon="9.5421941418071"><ele>65.0</ele><time>2026-04-30T16:24:53.977Z</time></trkpt><trkpt lat="45.20630703833402" lon="9.541969092609522"><ele>65.0</ele><time>2026-04-30T16:24:54.977Z</time></trkpt><trkpt lat="45.206493840552554" lon="9.541736996864048"><ele>64.0</ele><time>2026-04-30T16:24:55.977Z</time></trkpt><trkpt lat="45.20672339245694" lon="9.541511023828193"><ele>63.0</ele><time>2026-04-30T16:24:56.977Z</time></trkpt><trkpt lat="45.206897248855384" lon="9.541231944110905"><ele>63.0</ele><time>2026-04-30T16:24:57.977Z</time></trkpt><trkpt lat="45.20707779246797" lon="9.540981049376523"><ele>63.0</ele><time>2026-04-30T16:24:58.977Z</time></trkpt><trkpt lat="45.20729009093025" lon="9.540758469502402"><ele>63.5</ele><time>2026-04-30T16:24:59.977Z</time></trkpt><trkpt lat="45.20747124082154" lon="9.540506357344578"><ele>64.0</ele><time>2026-04-30T16:25:00.977Z</time></trkpt><trkpt lat="45.20762352270435" lon="9.540239471952983"><ele>64.5</ele><time>2026-04-30T16:25:01.977Z</time></trkpt><trkpt lat="45.207813247339665" lon="9.539979265567299"><ele>65.0</ele><time>2026-04-30T16:25:02.977Z</time></trkpt><trkpt lat="45.20800148020841" lon="9.53973576456658"><ele>64.5</ele><time>2026-04-30T16:25:03.977Z</time></trkpt><trkpt lat="45.20821623652399" lon="9.539504530329735"><ele>64.0</ele><time>2026-04-30T16:25:04.977Z</time></trkpt><trkpt lat="45.2084203192043" lon="9.539269090936537"><ele>64.0</ele><time>2026-04-30T16:25:05.977Z</time></trkpt><trkpt lat="45.20861702808555" lon="9.539025532862693"><ele>64.0</ele><time>2026-04-30T16:25:06.977Z</time></trkpt><trkpt lat="45.20882065298267" lon="9.538781003056007"><ele>64.5</ele><time>2026-04-30T16:25:07.977Z</time></trkpt><trkpt lat="45.209005272054725" lon="9.538546245348911"><ele>65.0</ele><time>2026-04-30T16:25:08.977Z</time></trkpt><trkpt lat="45.20919245101072" lon="9.538303857957054"><ele>65.0</ele><time>2026-04-30T16:25:09.977Z</time></trkpt><trkpt lat="45.20937270649094" lon="9.538040523762486"><ele>65.0</ele><time>2026-04-30T16:25:10.977Z</time></trkpt><trkpt lat="45.20957294623288" lon="9.537802013103871"><ele>65.0</ele><time>2026-04-30T16:25:11.977Z</time></trkpt><trkpt lat="45.209749916545725" lon="9.537537732788795"><ele>65.0</ele><time>2026-04-30T16:25:12.977Z</time></trkpt><trkpt lat="45.2099286841008" lon="9.537285972985739"><ele>64.5</ele><time>2026-04-30T16:25:13.977Z</time></trkpt><trkpt lat="45.210105917903846" lon="9.537051298673871"><ele>64.0</ele><time>2026-04-30T16:25:14.977Z</time></trkpt><trkpt lat="45.2102849609374" lon="9.536856854390363"><ele>64.0</ele><time>2026-04-30T16:25:15.977Z</time></trkpt><trkpt lat="45.210433249874825" lon="9.536553891112144"><ele>64.0</ele><time>2026-04-30T16:25:16.977Z</time></trkpt><trkpt lat="45.210619432123856" lon="9.536305906957312"><ele>64.0</ele><time>2026-04-30T16:25:17.977Z</time></trkpt><trkpt lat="45.21080610925024" lon="9.536061292943058"><ele>64.0</ele><time>2026-04-30T16:25:18.977Z</time></trkpt><trkpt lat="45.21098185652351" lon="9.535813813344582"><ele>64.0</ele><time>2026-04-30T16:25:19.978Z</time></trkpt><trkpt lat="45.21116459418275" lon="9.53556997790522"><ele>64.0</ele><time>2026-04-30T16:25:20.978Z</time></trkpt><trkpt lat="45.21134654297358" lon="9.53531634123638"><ele>64.5</ele><time>2026-04-30T16:25:21.978Z</time></trkpt><trkpt lat="45.211531354829795" lon="9.535091709448343"><ele>65.0</ele><time>2026-04-30T16:25:22.978Z</time></trkpt><trkpt lat="45.21172492393133" lon="9.534843887482099"><ele>65.0</ele><time>2026-04-30T16:25:23.978Z</time></trkpt><trkpt lat="45.21189430627792" lon="9.534603507579416"><ele>65.0</ele><time>2026-04-30T16:25:24.978Z</time></trkpt><trkpt lat="45.212072492804644" lon="9.53436793215297"><ele>65.0</ele><time>2026-04-30T16:25:25.978Z</time></trkpt><trkpt lat="45.212254731439174" lon="9.534138048582482"><ele>65.0</ele><time>2026-04-30T16:25:26.978Z</time></trkpt><trkpt lat="45.212430014136956" lon="9.533894869263285"><ele>65.0</ele><time>2026-04-30T16:25:27.978Z</time></trkpt><trkpt lat="45.21261466181506" lon="9.533635910060253"><ele>65.0</ele><time>2026-04-30T16:25:28.978Z</time></trkpt><trkpt lat="45.212788131650484" lon="9.533362972342783"><ele>65.0</ele><time>2026-04-30T16:25:29.978Z</time></trkpt><trkpt lat="45.21296184537624" lon="9.533061934356573"><ele>65.0</ele><time>2026-04-30T16:25:30.978Z</time></trkpt><trkpt lat="45.21316831431189" lon="9.532826354934647"><ele>64.5</ele><time>2026-04-30T16:25:31.978Z</time></trkpt><trkpt lat="45.21337844549794" lon="9.532593528296557"><ele>64.0</ele><time>2026-04-30T16:25:32.983Z</time></trkpt><trkpt lat="45.213569059910085" lon="9.532338499796982"><ele>64.0</ele><time>2026-04-30T16:25:33.983Z</time></trkpt><trkpt lat="45.21377146304639" lon="9.53208288727027"><ele>64.0</ele><time>2026-04-30T16:25:34.983Z</time></trkpt><trkpt lat="45.21398326232864" lon="9.53184334218805"><ele>63.5</ele><time>2026-04-30T16:25:35.984Z</time></trkpt><trkpt lat="45.21417914560781" lon="9.53157631044491"><ele>63.0</ele><time>2026-04-30T16:25:36.985Z</time></trkpt><trkpt lat="45.214381576320186" lon="9.53130805671264"><ele>64.0</ele><time>2026-04-30T16:25:37.986Z</time></trkpt><trkpt lat="45.21456714833716" lon="9.531058739741246"><ele>65.0</ele><time>2026-04-30T16:25:38.987Z</time></trkpt><trkpt lat="45.21476600709043" lon="9.53079239115038"><ele>64.5</ele><time>2026-04-30T16:25:39.988Z</time></trkpt><trkpt lat="45.214965661011604" lon="9.53052933159505"><ele>64.0</ele><time>2026-04-30T16:25:40.989Z</time></trkpt><trkpt lat="45.21518905287256" lon="9.53025541411885"><ele>64.0</ele><time>2026-04-30T16:25:41.99Z</time></trkpt><trkpt lat="45.21538956413225" lon="9.529978300727072"><ele>64.0</ele><time>2026-04-30T16:25:42.991Z</time></trkpt><trkpt lat="45.2155717042005" lon="9.529706418553983"><ele>66.0</ele><time>2026-04-30T16:25:43.991Z</time></trkpt><trkpt lat="45.21578436658859" lon="9.529465933416501"><ele>68.0</ele><time>2026-04-30T16:25:44.992Z</time></trkpt><trkpt lat="45.215973087726375" lon="9.529173674877946"><ele>68.0</ele><time>2026-04-30T16:25:45.993Z</time></trkpt><trkpt lat="45.216167972415086" lon="9.52888329407554"><ele>68.0</ele><time>2026-04-30T16:25:46.993Z</time></trkpt><trkpt lat="45.21636485944708" lon="9.52862233384578"><ele>66.5</ele><time>2026-04-30T16:25:47.994Z</time></trkpt><trkpt lat="45.216570748776064" lon="9.528377367432292"><ele>65.0</ele><time>2026-04-30T16:25:48.994Z</time></trkpt><trkpt lat="45.21677074302513" lon="9.528127998651843"><ele>65.0</ele><time>2026-04-30T16:25:49.994Z</time></trkpt><trkpt lat="45.21697385321944" lon="9.527878156360277"><ele>65.0</ele><time>2026-04-30T16:25:50.995Z</time></trkpt><trkpt lat="45.217179337100156" lon="9.527587121211756"><ele>65.0</ele><time>2026-04-30T16:25:51.995Z</time></trkpt><trkpt lat="45.21737054828059" lon="9.527305722421564"><ele>65.0</ele><time>2026-04-30T16:25:52.996Z</time></trkpt><trkpt lat="45.217567106869346" lon="9.527036721045917"><ele>65.0</ele><time>2026-04-30T16:25:53.996Z</time></trkpt><trkpt lat="45.2177729204003" lon="9.52675712146368"><ele>65.0</ele><time>2026-04-30T16:25:54.996Z</time></trkpt><trkpt lat="45.21797430982787" lon="9.5264840768775"><ele>65.5</ele><time>2026-04-30T16:25:55.997Z</time></trkpt><trkpt lat="45.21818634814951" lon="9.526211022905406"><ele>66.0</ele><time>2026-04-30T16:25:56.997Z</time></trkpt><trkpt lat="45.218397554343106" lon="9.525944670076154"><ele>66.0</ele><time>2026-04-30T16:25:57.997Z</time></trkpt><trkpt lat="45.218621917710934" lon="9.52568554515046"><ele>66.0</ele><time>2026-04-30T16:25:58.997Z</time></trkpt><trkpt lat="45.218827984642836" lon="9.525434989801015"><ele>65.5</ele><time>2026-04-30T16:25:59.997Z</time></trkpt><trkpt lat="45.21902528905857" lon="9.525166581428943"><ele>65.0</ele><time>2026-04-30T16:26:00.998Z</time></trkpt><trkpt lat="45.21922234974218" lon="9.524903698079463"><ele>65.0</ele><time>2026-04-30T16:26:01.998Z</time></trkpt><trkpt lat="45.21938727311041" lon="9.524607770970432"><ele>65.0</ele><time>2026-04-30T16:26:02.998Z</time></trkpt><trkpt lat="45.219579471335926" lon="9.5243597428713"><ele>65.0</ele><time>2026-04-30T16:26:03.998Z</time></trkpt><trkpt lat="45.219783132701046" lon="9.524095346256255"><ele>65.0</ele><time>2026-04-30T16:26:04.998Z</time></trkpt><trkpt lat="45.21996656247964" lon="9.523817470534707"><ele>65.5</ele><time>2026-04-30T16:26:05.999Z</time></trkpt><trkpt lat="45.220172497792895" lon="9.523583864644063"><ele>66.0</ele><time>2026-04-30T16:26:06.999Z</time></trkpt><trkpt lat="45.220358449430535" lon="9.523307138608278"><ele>66.0</ele><time>2026-04-30T16:26:07.999Z</time></trkpt><trkpt lat="45.22056496365955" lon="9.523055702678063"><ele>66.0</ele><time>2026-04-30T16:26:08.999Z</time></trkpt><trkpt lat="45.22077807352145" lon="9.522809146417101"><ele>66.0</ele><time>2026-04-30T16:26:09.999Z</time></trkpt><trkpt lat="45.220979274634274" lon="9.522536107790698"><ele>66.0</ele><time>2026-04-30T16:26:10.999Z</time></trkpt><trkpt lat="45.221191293489014" lon="9.522274621363229"><ele>66.0</ele><time>2026-04-30T16:26:11.999Z</time></trkpt><trkpt lat="45.22138725874993" lon="9.521993031050716"><ele>66.0</ele><time>2026-04-30T16:26:12.999Z</time></trkpt><trkpt lat="45.2215953965294" lon="9.521735337508728"><ele>66.5</ele><time>2026-04-30T16:26:13.999Z</time></trkpt><trkpt lat="45.22180076004605" lon="9.521469975756228"><ele>67.0</ele><time>2026-04-30T16:26:15Z</time></trkpt><trkpt lat="45.222013713404884" lon="9.52121345152649"><ele>67.0</ele><time>2026-04-30T16:26:16Z</time></trkpt><trkpt lat="45.22222013846638" lon="9.520920606058512"><ele>67.0</ele><time>2026-04-30T16:26:17Z</time></trkpt><trkpt lat="45.222431433541296" lon="9.520657226640134"><ele>66.0</ele><time>2026-04-30T16:26:18Z</time></trkpt><trkpt lat="45.222628258885436" lon="9.520372195690271"><ele>65.0</ele><time>2026-04-30T16:26:19Z</time></trkpt><trkpt lat="45.222832416857614" lon="9.520093918463141"><ele>65.0</ele><time>2026-04-30T16:26:20Z</time></trkpt><trkpt lat="45.223040040177715" lon="9.51982213242377"><ele>65.0</ele><time>2026-04-30T16:26:21Z</time></trkpt><trkpt lat="45.22325213526998" lon="9.51956853425491"><ele>66.0</ele><time>2026-04-30T16:26:22Z</time></trkpt><trkpt lat="45.223458342395666" lon="9.519283342728803"><ele>67.0</ele><time>2026-04-30T16:26:23Z</time></trkpt><trkpt lat="45.2236582773375" lon="9.51900684241575"><ele>67.5</ele><time>2026-04-30T16:26:24Z</time></trkpt><trkpt lat="45.22386063237403" lon="9.518732163974136"><ele>68.0</ele><time>2026-04-30T16:26:25Z</time></trkpt><trkpt lat="45.224059244544144" lon="9.518455887931376"><ele>68.0</ele><time>2026-04-30T16:26:26Z</time></trkpt><trkpt lat="45.22425638326918" lon="9.518147390656157"><ele>68.0</ele><time>2026-04-30T16:26:27Z</time></trkpt><trkpt lat="45.2244790571896" lon="9.517911120354032"><ele>66.5</ele><time>2026-04-30T16:26:28Z</time></trkpt><trkpt lat="45.22469782761054" lon="9.517650234714575"><ele>65.0</ele><time>2026-04-30T16:26:29Z</time></trkpt><trkpt lat="45.22489465300256" lon="9.517365180920548"><ele>65.0</ele><time>2026-04-30T16:26:30Z</time></trkpt><trkpt lat="45.22513048143346" lon="9.517109136070482"><ele>65.0</ele><time>2026-04-30T16:26:31Z</time></trkpt><trkpt lat="45.22535116393951" lon="9.51685203277741"><ele>65.0</ele><time>2026-04-30T16:26:32Z</time></trkpt><trkpt lat="45.22554190685702" lon="9.516588176609046"><ele>65.0</ele><time>2026-04-30T16:26:33Z</time></trkpt><trkpt lat="45.22578556222115" lon="9.516383461595563"><ele>66.0</ele><time>2026-04-30T16:26:34Z</time></trkpt><trkpt lat="45.22596552746184" lon="9.516096954809013"><ele>67.0</ele><time>2026-04-30T16:26:35Z</time></trkpt><trkpt lat="45.22613362539457" lon="9.515829738928304"><ele>67.0</ele><time>2026-04-30T16:26:36Z</time></trkpt><trkpt lat="45.22630540628799" lon="9.515564155794438"><ele>67.0</ele><time>2026-04-30T16:26:37Z</time></trkpt><trkpt lat="45.22646394557432" lon="9.515283424071953"><ele>66.5</ele><time>2026-04-30T16:26:38Z</time></trkpt><trkpt lat="45.2266408248318" lon="9.515025216599845"><ele>66.0</ele><time>2026-04-30T16:26:39Z</time></trkpt><trkpt lat="45.226833305555736" lon="9.514756679463698"><ele>66.5</ele><time>2026-04-30T16:26:40Z</time></trkpt><trkpt lat="45.227027280419755" lon="9.514496453887546"><ele>67.0</ele><time>2026-04-30T16:26:41Z</time></trkpt><trkpt lat="45.22722774392658" lon="9.514244260062052"><ele>66.5</ele><time>2026-04-30T16:26:42.001Z</time></trkpt><trkpt lat="45.227432597480835" lon="9.514004461580317"><ele>66.0</ele><time>2026-04-30T16:26:43.001Z</time></trkpt><trkpt lat="45.22763190636484" lon="9.51375185868878"><ele>66.0</ele><time>2026-04-30T16:26:44.001Z</time></trkpt><trkpt lat="45.22783553160416" lon="9.513529556265482"><ele>66.0</ele><time>2026-04-30T16:26:45.001Z</time></trkpt><trkpt lat="45.22803603231636" lon="9.513257266821501"><ele>67.0</ele><time>2026-04-30T16:26:46.001Z</time></trkpt><trkpt lat="45.22825666772076" lon="9.512983624518323"><ele>68.0</ele><time>2026-04-30T16:26:47.001Z</time></trkpt><trkpt lat="45.228459502111896" lon="9.51270398081781"><ele>68.5</ele><time>2026-04-30T16:26:48.001Z</time></trkpt><trkpt lat="45.22866841376597" lon="9.512427339834138"><ele>69.0</ele><time>2026-04-30T16:26:49.001Z</time></trkpt><trkpt lat="45.22886165692584" lon="9.512145076162597"><ele>68.5</ele><time>2026-04-30T16:26:50.001Z</time></trkpt><trkpt lat="45.22905447756266" lon="9.511881103270323"><ele>68.0</ele><time>2026-04-30T16:26:51.001Z</time></trkpt><trkpt lat="45.22924505893535" lon="9.511622909952239"><ele>68.0</ele><time>2026-04-30T16:26:52.001Z</time></trkpt><trkpt lat="45.22943792139695" lon="9.511373852370587"><ele>68.0</ele><time>2026-04-30T16:26:53.001Z</time></trkpt><trkpt lat="45.22961877014316" lon="9.511122766297191"><ele>68.0</ele><time>2026-04-30T16:26:54.001Z</time></trkpt><trkpt lat="45.22983426078577" lon="9.51085405546133"><ele>68.0</ele><time>2026-04-30T16:26:55.001Z</time></trkpt><trkpt lat="45.23006631601337" lon="9.510639564729319"><ele>68.0</ele><time>2026-04-30T16:26:56.001Z</time></trkpt><trkpt lat="45.2302700695997" lon="9.51033635806121"><ele>68.0</ele><time>2026-04-30T16:26:57.001Z</time></trkpt><trkpt lat="45.230484654830754" lon="9.5100785567174"><ele>67.5</ele><time>2026-04-30T16:26:58.001Z</time></trkpt><trkpt lat="45.230664901484474" lon="9.509791824253643"><ele>67.0</ele><time>2026-04-30T16:26:59.001Z</time></trkpt><trkpt lat="45.230843904711165" lon="9.509548430487836"><ele>67.0</ele><time>2026-04-30T16:27:00.001Z</time></trkpt><trkpt lat="45.231032063265936" lon="9.509289865763936"><ele>67.0</ele><time>2026-04-30T16:27:01.001Z</time></trkpt><trkpt lat="45.23122596628108" lon="9.509026397215715"><ele>67.0</ele><time>2026-04-30T16:27:02.001Z</time></trkpt><trkpt lat="45.2314148345053" lon="9.50876509136581"><ele>67.0</ele><time>2026-04-30T16:27:03.001Z</time></trkpt><trkpt lat="45.23160918013355" lon="9.50850496068676"><ele>67.0</ele><time>2026-04-30T16:27:04.001Z</time></trkpt><trkpt lat="45.2318067428361" lon="9.508246915553284"><ele>67.0</ele><time>2026-04-30T16:27:05.001Z</time></trkpt><trkpt lat="45.23201826087705" lon="9.507993301101024"><ele>67.5</ele><time>2026-04-30T16:27:06.001Z</time></trkpt><trkpt lat="45.23223337698303" lon="9.50774456886329"><ele>68.0</ele><time>2026-04-30T16:27:07.001Z</time></trkpt><trkpt lat="45.23242452604294" lon="9.507460958911707"><ele>68.0</ele><time>2026-04-30T16:27:08.001Z</time></trkpt><trkpt lat="45.23262558582671" lon="9.507212831055375"><ele>68.0</ele><time>2026-04-30T16:27:09.001Z</time></trkpt><trkpt lat="45.23284181413686" lon="9.506941735880684"><ele>68.0</ele><time>2026-04-30T16:27:10.001Z</time></trkpt><trkpt lat="45.23306941994398" lon="9.506670322623222"><ele>68.0</ele><time>2026-04-30T16:27:11.001Z</time></trkpt><trkpt lat="45.23329412744808" lon="9.506422593158518"><ele>68.0</ele><time>2026-04-30T16:27:12.001Z</time></trkpt><trkpt lat="45.233493445241535" lon="9.506162366309184"><ele>68.0</ele><time>2026-04-30T16:27:13.001Z</time></trkpt><trkpt lat="45.233692532832066" lon="9.50589171000957"><ele>68.0</ele><time>2026-04-30T16:27:14.001Z</time></trkpt><trkpt lat="45.23388051832599" lon="9.505620368542935"><ele>68.0</ele><time>2026-04-30T16:27:15.001Z</time></trkpt><trkpt lat="45.234116282682606" lon="9.505393014097693"><ele>68.0</ele><time>2026-04-30T16:27:16.001Z</time></trkpt><trkpt lat="45.23433209845924" lon="9.505113486238379"><ele>68.0</ele><time>2026-04-30T16:27:17.001Z</time></trkpt><trkpt lat="45.23454750630891" lon="9.504856658925744"><ele>68.0</ele><time>2026-04-30T16:27:18.001Z</time></trkpt><trkpt lat="45.23476859461169" lon="9.504569085461997"><ele>68.0</ele><time>2026-04-30T16:27:19.001Z</time></trkpt><trkpt lat="45.234958293234065" lon="9.504266783933202"><ele>68.0</ele><time>2026-04-30T16:27:20.001Z</time></trkpt><trkpt lat="45.23514476841608" lon="9.504009785778956"><ele>68.0</ele><time>2026-04-30T16:27:21.001Z</time></trkpt><trkpt lat="45.23533686827277" lon="9.503743113245292"><ele>68.5</ele><time>2026-04-30T16:27:22.001Z</time></trkpt><trkpt lat="45.235529320143705" lon="9.503497373903246"><ele>69.0</ele><time>2026-04-30T16:27:23.001Z</time></trkpt><trkpt lat="45.235727493175176" lon="9.503247431331364"><ele>70.0</ele><time>2026-04-30T16:27:24.001Z</time></trkpt><trkpt lat="45.23592003042992" lon="9.503007764793185"><ele>71.0</ele><time>2026-04-30T16:27:25.001Z</time></trkpt><trkpt lat="45.23610443541925" lon="9.502760552122286"><ele>71.0</ele><time>2026-04-30T16:27:26.001Z</time></trkpt><trkpt lat="45.236292690772125" lon="9.50249557180185"><ele>71.0</ele><time>2026-04-30T16:27:27.001Z</time></trkpt><trkpt lat="45.23648031061333" lon="9.50224687781271"><ele>71.0</ele><time>2026-04-30T16:27:28.001Z</time></trkpt><trkpt lat="45.236684698279035" lon="9.502018770937367"><ele>71.0</ele><time>2026-04-30T16:27:29.001Z</time></trkpt><trkpt lat="45.23685265840335" lon="9.50176889708523"><ele>71.0</ele><time>2026-04-30T16:27:30.001Z</time></trkpt><trkpt lat="45.237038148438174" lon="9.501508202005432"><ele>71.0</ele><time>2026-04-30T16:27:31.001Z</time></trkpt><trkpt lat="45.2372239572332" lon="9.50124845712012"><ele>70.5</ele><time>2026-04-30T16:27:32.001Z</time></trkpt><trkpt lat="45.237408568909515" lon="9.500981988531004"><ele>70.0</ele><time>2026-04-30T16:27:33.001Z</time></trkpt><trkpt lat="45.23760161852351" lon="9.500726981633813"><ele>70.0</ele><time>2026-04-30T16:27:34.001Z</time></trkpt><trkpt lat="45.23780248983176" lon="9.500475766111201"><ele>70.0</ele><time>2026-04-30T16:27:35.001Z</time></trkpt><trkpt lat="45.23802310736263" lon="9.500234843093384"><ele>70.5</ele><time>2026-04-30T16:27:36.001Z</time></trkpt><trkpt lat="45.238226693565444" lon="9.499979316746836"><ele>71.0</ele><time>2026-04-30T16:27:37.001Z</time></trkpt><trkpt lat="45.23839954858888" lon="9.499702883162536"><ele>70.5</ele><time>2026-04-30T16:27:38.001Z</time></trkpt><trkpt lat="45.238549167897546" lon="9.49940083204548"><ele>70.0</ele><time>2026-04-30T16:27:39.001Z</time></trkpt><trkpt lat="45.238758898475005" lon="9.499190674659001"><ele>70.0</ele><time>2026-04-30T16:27:40.001Z</time></trkpt><trkpt lat="45.2389449510312" lon="9.498946038376328"><ele>70.0</ele><time>2026-04-30T16:27:41.001Z</time></trkpt><trkpt lat="45.23912396504238" lon="9.498690731283245"><ele>70.0</ele><time>2026-04-30T16:27:42.001Z</time></trkpt><trkpt lat="45.23931833331404" lon="9.498452299848626"><ele>70.0</ele><time>2026-04-30T16:27:43.001Z</time></trkpt><trkpt lat="45.23951188694571" lon="9.498188334924741"><ele>70.0</ele><time>2026-04-30T16:27:44Z</time></trkpt><trkpt lat="45.23971722262464" lon="9.497940071444848"><ele>70.0</ele><time>2026-04-30T16:27:45Z</time></trkpt><trkpt lat="45.23992003528093" lon="9.497690556611554"><ele>70.0</ele><time>2026-04-30T16:27:46Z</time></trkpt><trkpt lat="45.24010764243489" lon="9.497463450237492"><ele>70.0</ele><time>2026-04-30T16:27:47Z</time></trkpt><trkpt lat="45.24030763907287" lon="9.497199109032874"><ele>69.5</ele><time>2026-04-30T16:27:48Z</time></trkpt><trkpt lat="45.2405079946968" lon="9.496937960429241"><ele>69.0</ele><time>2026-04-30T16:27:49Z</time></trkpt><trkpt lat="45.24069509714374" lon="9.49666759356084"><ele>69.0</ele><time>2026-04-30T16:27:50Z</time></trkpt><trkpt lat="45.240938027878904" lon="9.496452146075995"><ele>69.0</ele><time>2026-04-30T16:27:51Z</time></trkpt><trkpt lat="45.241129483006524" lon="9.496209434331755"><ele>69.0</ele><time>2026-04-30T16:27:52Z</time></trkpt><trkpt lat="45.2413073418666" lon="9.495958551389487"><ele>69.0</ele><time>2026-04-30T16:27:53Z</time></trkpt><trkpt lat="45.241480481023494" lon="9.495710328615417"><ele>69.0</ele><time>2026-04-30T16:27:54Z</time></trkpt><trkpt lat="45.24164845696698" lon="9.495463816227966"><ele>69.0</ele><time>2026-04-30T16:27:55Z</time></trkpt><trkpt lat="45.24180036656995" lon="9.495179644319062"><ele>69.0</ele><time>2026-04-30T16:27:56Z</time></trkpt><trkpt lat="45.24196425237796" lon="9.494928971335993"><ele>69.0</ele><time>2026-04-30T16:27:57Z</time></trkpt><trkpt lat="45.242161340506364" lon="9.494689080368001"><ele>69.0</ele><time>2026-04-30T16:27:58Z</time></trkpt><trkpt lat="45.242337992625316" lon="9.494477828307867"><ele>69.0</ele><time>2026-04-30T16:27:59Z</time></trkpt><trkpt lat="45.24251585969388" lon="9.494243740637561"><ele>69.0</ele><time>2026-04-30T16:28:00Z</time></trkpt><trkpt lat="45.24270159780723" lon="9.49403084927674"><ele>69.0</ele><time>2026-04-30T16:28:01Z</time></trkpt><trkpt lat="45.24288064640565" lon="9.49376911600076"><ele>69.5</ele><time>2026-04-30T16:28:02Z</time></trkpt><trkpt lat="45.2430751444852" lon="9.493538259675987"><ele>70.0</ele><time>2026-04-30T16:28:03Z</time></trkpt><trkpt lat="45.24331376936876" lon="9.493301050864051"><ele>70.0</ele><time>2026-04-30T16:28:04Z</time></trkpt><trkpt lat="45.24351693497844" lon="9.493057645185806"><ele>70.0</ele><time>2026-04-30T16:28:05Z</time></trkpt><trkpt lat="45.2437201224049" lon="9.492817760066977"><ele>70.5</ele><time>2026-04-30T16:28:06Z</time></trkpt><trkpt lat="45.24389530176505" lon="9.49255806631936"><ele>71.0</ele><time>2026-04-30T16:28:07Z</time></trkpt><trkpt lat="45.24405326414723" lon="9.492312032859113"><ele>71.0</ele><time>2026-04-30T16:28:08Z</time></trkpt><trkpt lat="45.24423265773927" lon="9.4921023613857"><ele>71.0</ele><time>2026-04-30T16:28:09Z</time></trkpt><trkpt lat="45.24439676478578" lon="9.491867515095317"><ele>70.5</ele><time>2026-04-30T16:28:10Z</time></trkpt><trkpt lat="45.2445595585639" lon="9.491631931897512"><ele>70.0</ele><time>2026-04-30T16:28:11Z</time></trkpt><trkpt lat="45.244738052438336" lon="9.491381831309116"><ele>69.5</ele><time>2026-04-30T16:28:12Z</time></trkpt><trkpt lat="45.24492301067585" lon="9.491135110611703"><ele>69.0</ele><time>2026-04-30T16:28:13Z</time></trkpt><trkpt lat="45.24508479205456" lon="9.490901319795778"><ele>69.0</ele><time>2026-04-30T16:28:14Z</time></trkpt><trkpt lat="45.24526025796319" lon="9.490636575938314"><ele>69.0</ele><time>2026-04-30T16:28:15Z</time></trkpt><trkpt lat="45.24542952043596" lon="9.490409076071767"><ele>69.5</ele><time>2026-04-30T16:28:16Z</time></trkpt><trkpt lat="45.245612896962655" lon="9.490191431053047"><ele>70.0</ele><time>2026-04-30T16:28:17Z</time></trkpt><trkpt lat="45.2457930338981" lon="9.489924239357713"><ele>70.0</ele><time>2026-04-30T16:28:18Z</time></trkpt><trkpt lat="45.24597289857423" lon="9.489718185085822"><ele>70.0</ele><time>2026-04-30T16:28:19Z</time></trkpt><trkpt lat="45.246159166413136" lon="9.489498904625712"><ele>70.5</ele><time>2026-04-30T16:28:20Z</time></trkpt><trkpt lat="45.246333384073765" lon="9.489285021593917"><ele>71.0</ele><time>2026-04-30T16:28:21Z</time></trkpt><trkpt lat="45.24652437174037" lon="9.489061865704947"><ele>71.5</ele><time>2026-04-30T16:28:22Z</time></trkpt><trkpt lat="45.2467044024057" lon="9.488827087211513"><ele>72.0</ele><time>2026-04-30T16:28:23Z</time></trkpt><trkpt lat="45.246877888462855" lon="9.488595750350624"><ele>72.0</ele><time>2026-04-30T16:28:24Z</time></trkpt><trkpt lat="45.24706674684267" lon="9.488378399192309"><ele>72.0</ele><time>2026-04-30T16:28:25Z</time></trkpt><trkpt lat="45.247257722981644" lon="9.488155170045767"><ele>71.0</ele><time>2026-04-30T16:28:26Z</time></trkpt><trkpt lat="45.24741408182554" lon="9.487893208888535"><ele>70.0</ele><time>2026-04-30T16:28:27Z</time></trkpt><trkpt lat="45.24755134395152" lon="9.487652297721574"><ele>70.0</ele><time>2026-04-30T16:28:28Z</time></trkpt><trkpt lat="45.24770501837201" lon="9.487410723005775"><ele>70.0</ele><time>2026-04-30T16:28:29Z</time></trkpt><trkpt lat="45.24788885689597" lon="9.487181134764553"><ele>69.5</ele><time>2026-04-30T16:28:30Z</time></trkpt><trkpt lat="45.24809223803246" lon="9.486948525464744"><ele>69.0</ele><time>2026-04-30T16:28:31Z</time></trkpt><trkpt lat="45.248258028012366" lon="9.486693156944307"><ele>69.0</ele><time>2026-04-30T16:28:32Z</time></trkpt><trkpt lat="45.24846300323241" lon="9.486475320422077"><ele>69.0</ele><time>2026-04-30T16:28:33Z</time></trkpt><trkpt lat="45.24866623696306" lon="9.486258786134284"><ele>69.0</ele><time>2026-04-30T16:28:34Z</time></trkpt><trkpt lat="45.248855975965384" lon="9.486040171025522"><ele>69.0</ele><time>2026-04-30T16:28:35Z</time></trkpt><trkpt lat="45.24902139657126" lon="9.4857839433404"><ele>69.0</ele><time>2026-04-30T16:28:36Z</time></trkpt><trkpt lat="45.24919957119388" lon="9.485558947083227"><ele>69.0</ele><time>2026-04-30T16:28:37Z</time></trkpt><trkpt lat="45.24937249944175" lon="9.485340792978352"><ele>69.0</ele><time>2026-04-30T16:28:38Z</time></trkpt><trkpt lat="45.24955799277404" lon="9.485129024642582"><ele>69.0</ele><time>2026-04-30T16:28:39Z</time></trkpt><trkpt lat="45.24971755027805" lon="9.484877941294624"><ele>69.5</ele><time>2026-04-30T16:28:40Z</time></trkpt><trkpt lat="45.24987698762461" lon="9.484632840046073"><ele>70.0</ele><time>2026-04-30T16:28:41Z</time></trkpt><trkpt lat="45.25005315725198" lon="9.48439269419642"><ele>70.0</ele><time>2026-04-30T16:28:42Z</time></trkpt><trkpt lat="45.25022259215978" lon="9.484156671613192"><ele>70.0</ele><time>2026-04-30T16:28:43Z</time></trkpt><trkpt lat="45.25038910534167" lon="9.483928982014206"><ele>70.0</ele><time>2026-04-30T16:28:44Z</time></trkpt><trkpt lat="45.25057061560254" lon="9.483701982541644"><ele>70.0</ele><time>2026-04-30T16:28:45Z</time></trkpt><trkpt lat="45.2507579315395" lon="9.483473830651103"><ele>70.5</ele><time>2026-04-30T16:28:46Z</time></trkpt><trkpt lat="45.250935778215045" lon="9.48324209579227"><ele>71.0</ele><time>2026-04-30T16:28:47Z</time></trkpt><trkpt lat="45.25111993141857" lon="9.483025450869311"><ele>70.5</ele><time>2026-04-30T16:28:48Z</time></trkpt><trkpt lat="45.25131935689579" lon="9.482822027175105"><ele>70.0</ele><time>2026-04-30T16:28:49Z</time></trkpt><trkpt lat="45.251510812732434" lon="9.482594870653784"><ele>70.0</ele><time>2026-04-30T16:28:50Z</time></trkpt><trkpt lat="45.251685295449555" lon="9.482336930918041"><ele>70.0</ele><time>2026-04-30T16:28:51Z</time></trkpt><trkpt lat="45.251864191517555" lon="9.482093574422786"><ele>70.5</ele><time>2026-04-30T16:28:52Z</time></trkpt><trkpt lat="45.25204515324581" lon="9.481865916478219"><ele>71.0</ele><time>2026-04-30T16:28:53Z</time></trkpt><trkpt lat="45.25222847409092" lon="9.481633928449284"><ele>71.0</ele><time>2026-04-30T16:28:54Z</time></trkpt><trkpt lat="45.25240364099881" lon="9.481398936037058"><ele>71.0</ele><time>2026-04-30T16:28:55Z</time></trkpt><trkpt lat="45.25257255325454" lon="9.48117469697909"><ele>71.0</ele><time>2026-04-30T16:28:56Z</time></trkpt><trkpt lat="45.25276296995454" lon="9.480954382904528"><ele>71.0</ele><time>2026-04-30T16:28:57Z</time></trkpt><trkpt lat="45.25293555822203" lon="9.480707089122598"><ele>71.0</ele><time>2026-04-30T16:28:58Z</time></trkpt><trkpt lat="45.25311319489719" lon="9.480450467664495"><ele>71.0</ele><time>2026-04-30T16:28:59Z</time></trkpt><trkpt lat="45.25328298401992" lon="9.480200304219741"><ele>71.0</ele><time>2026-04-30T16:29:00Z</time></trkpt><trkpt lat="45.25346104594387" lon="9.479953770246352"><ele>71.0</ele><time>2026-04-30T16:29:01Z</time></trkpt><trkpt lat="45.253633297358874" lon="9.479712052005667"><ele>71.0</ele><time>2026-04-30T16:29:02Z</time></trkpt><trkpt lat="45.253829023753966" lon="9.479520055997076"><ele>71.0</ele><time>2026-04-30T16:29:03Z</time></trkpt><trkpt lat="45.25399427226684" lon="9.479281014563734"><ele>71.5</ele><time>2026-04-30T16:29:04Z</time></trkpt><trkpt lat="45.254160717357315" lon="9.479015971953167"><ele>72.0</ele><time>2026-04-30T16:29:05Z</time></trkpt><trkpt lat="45.25435607328026" lon="9.478803443997238"><ele>72.0</ele><time>2026-04-30T16:29:06Z</time></trkpt><trkpt lat="45.25455025550737" lon="9.47856863513568"><ele>72.0</ele><time>2026-04-30T16:29:07Z</time></trkpt><trkpt lat="45.254732297240565" lon="9.478327521705944"><ele>72.0</ele><time>2026-04-30T16:29:08Z</time></trkpt><trkpt lat="45.25489621081578" lon="9.478083053711588"><ele>72.0</ele><time>2026-04-30T16:29:09Z</time></trkpt><trkpt lat="45.255068248252925" lon="9.477834074206854"><ele>72.0</ele><time>2026-04-30T16:29:10Z</time></trkpt><trkpt lat="45.2552378441547" lon="9.477583198130729"><ele>72.0</ele><time>2026-04-30T16:29:11Z</time></trkpt><trkpt lat="45.25542086403392" lon="9.47734365042588"><ele>71.0</ele><time>2026-04-30T16:29:12Z</time></trkpt><trkpt lat="45.255607534440614" lon="9.47706945900804"><ele>70.0</ele><time>2026-04-30T16:29:13Z</time></trkpt><trkpt lat="45.25579661467333" lon="9.47684152085093"><ele>70.0</ele><time>2026-04-30T16:29:14Z</time></trkpt><trkpt lat="45.2559765898688" lon="9.476602305680244"><ele>70.0</ele><time>2026-04-30T16:29:15Z</time></trkpt><trkpt lat="45.256161390106776" lon="9.476352926635721"><ele>70.0</ele><time>2026-04-30T16:29:16Z</time></trkpt><trkpt lat="45.25636869540747" lon="9.476126761207146"><ele>70.0</ele><time>2026-04-30T16:29:17Z</time></trkpt><trkpt lat="45.256551157004026" lon="9.475889423309562"><ele>70.0</ele><time>2026-04-30T16:29:18Z</time></trkpt><trkpt lat="45.25672329234375" lon="9.475623484954276"><ele>70.0</ele><time>2026-04-30T16:29:19Z</time></trkpt><trkpt lat="45.25689436262641" lon="9.475378812467323"><ele>69.5</ele><time>2026-04-30T16:29:20Z</time></trkpt><trkpt lat="45.257065876695506" lon="9.475121017494892"><ele>69.0</ele><time>2026-04-30T16:29:21Z</time></trkpt><trkpt lat="45.257260079318414" lon="9.474883736813771"><ele>70.0</ele><time>2026-04-30T16:29:22Z</time></trkpt><trkpt lat="45.257647912723016" lon="9.474406298771862"><ele>70.0</ele><time>2026-04-30T16:29:24Z</time></trkpt><trkpt lat="45.257846114059895" lon="9.474165179114777"><ele>70.0</ele><time>2026-04-30T16:29:25Z</time></trkpt><trkpt lat="45.25800599518539" lon="9.47388615443027"><ele>70.5</ele><time>2026-04-30T16:29:26Z</time></trkpt><trkpt lat="45.25819674955185" lon="9.47364120105087"><ele>71.0</ele><time>2026-04-30T16:29:27Z</time></trkpt><trkpt lat="45.25838239478006" lon="9.47340299720853"><ele>71.0</ele><time>2026-04-30T16:29:28Z</time></trkpt><trkpt lat="45.25857019497045" lon="9.473156723659892"><ele>71.0</ele><time>2026-04-30T16:29:29Z</time></trkpt><trkpt lat="45.25876964990487" lon="9.47287669065697"><ele>70.0</ele><time>2026-04-30T16:29:30Z</time></trkpt><trkpt lat="45.25897025987899" lon="9.472608474657957"><ele>69.0</ele><time>2026-04-30T16:29:31Z</time></trkpt><trkpt lat="45.2591534517421" lon="9.472356974683237"><ele>69.0</ele><time>2026-04-30T16:29:32Z</time></trkpt><trkpt lat="45.259358792093444" lon="9.472147006640435"><ele>69.0</ele><time>2026-04-30T16:29:33Z</time></trkpt><trkpt lat="45.25952788179174" lon="9.471919909681972"><ele>69.0</ele><time>2026-04-30T16:29:34Z</time></trkpt><trkpt lat="45.259715119100115" lon="9.47169518968039"><ele>69.0</ele><time>2026-04-30T16:29:35Z</time></trkpt><trkpt lat="45.25988981230997" lon="9.471443573939897"><ele>70.0</ele><time>2026-04-30T16:29:36Z</time></trkpt><trkpt lat="45.26006910550316" lon="9.471214459683303"><ele>71.0</ele><time>2026-04-30T16:29:37Z</time></trkpt><trkpt lat="45.26023863302747" lon="9.47098464365041"><ele>71.0</ele><time>2026-04-30T16:29:38Z</time></trkpt><trkpt lat="45.26043293612551" lon="9.470762259773656"><ele>71.0</ele><time>2026-04-30T16:29:39Z</time></trkpt><trkpt lat="45.26060779377167" lon="9.470525587513828"><ele>71.0</ele><time>2026-04-30T16:29:40Z</time></trkpt><trkpt lat="45.26076414960703" lon="9.470273099837579"><ele>71.0</ele><time>2026-04-30T16:29:41Z</time></trkpt><trkpt lat="45.26095666302066" lon="9.470076268222869"><ele>71.0</ele><time>2026-04-30T16:29:42Z</time></trkpt><trkpt lat="45.26112486005839" lon="9.469807382263086"><ele>71.0</ele><time>2026-04-30T16:29:43Z</time></trkpt><trkpt lat="45.261311296626246" lon="9.469589839904678"><ele>71.5</ele><time>2026-04-30T16:29:44Z</time></trkpt><trkpt lat="45.261498455339655" lon="9.469334958283406"><ele>72.0</ele><time>2026-04-30T16:29:45Z</time></trkpt><trkpt lat="45.26166109818354" lon="9.469090829274014"><ele>72.0</ele><time>2026-04-30T16:29:46Z</time></trkpt><trkpt lat="45.261838169554416" lon="9.468864206678537"><ele>72.0</ele><time>2026-04-30T16:29:47Z</time></trkpt><trkpt lat="45.26200508438292" lon="9.468614643334629"><ele>72.5</ele><time>2026-04-30T16:29:48Z</time></trkpt><trkpt lat="45.26219609133716" lon="9.468377684206153"><ele>73.0</ele><time>2026-04-30T16:29:49Z</time></trkpt><trkpt lat="45.26236124908175" lon="9.468092325720198"><ele>73.0</ele><time>2026-04-30T16:29:50Z</time></trkpt><trkpt lat="45.26256532569869" lon="9.467880378555186"><ele>73.0</ele><time>2026-04-30T16:29:51Z</time></trkpt><trkpt lat="45.26276868805783" lon="9.467655073171724"><ele>73.0</ele><time>2026-04-30T16:29:52Z</time></trkpt><trkpt lat="45.262958117147676" lon="9.467425102449564"><ele>73.0</ele><time>2026-04-30T16:29:53Z</time></trkpt><trkpt lat="45.263150923777374" lon="9.46719166454965"><ele>74.0</ele><time>2026-04-30T16:29:54Z</time></trkpt><trkpt lat="45.26332692077134" lon="9.4669687268857"><ele>75.0</ele><time>2026-04-30T16:29:55Z</time></trkpt><trkpt lat="45.263472938015575" lon="9.466700705036933"><ele>75.0</ele><time>2026-04-30T16:29:56Z</time></trkpt><trkpt lat="45.26365716511003" lon="9.466467393624324"><ele>75.0</ele><time>2026-04-30T16:29:57Z</time></trkpt><trkpt lat="45.26382965173089" lon="9.46627374102571"><ele>73.5</ele><time>2026-04-30T16:29:58Z</time></trkpt><trkpt lat="45.26399036698337" lon="9.466041902086445"><ele>72.0</ele><time>2026-04-30T16:29:59Z</time></trkpt><trkpt lat="45.26415662162951" lon="9.465809668319265"><ele>72.0</ele><time>2026-04-30T16:30:00Z</time></trkpt><trkpt lat="45.26435010587703" lon="9.465598903293767"><ele>72.0</ele><time>2026-04-30T16:30:01Z</time></trkpt><trkpt lat="45.26453608316599" lon="9.465377775132243"><ele>72.0</ele><time>2026-04-30T16:30:02Z</time></trkpt><trkpt lat="45.26471323622297" lon="9.465162887359048"><ele>72.0</ele><time>2026-04-30T16:30:03Z</time></trkpt><trkpt lat="45.264892086750336" lon="9.4649417276339"><ele>71.5</ele><time>2026-04-30T16:30:04Z</time></trkpt><trkpt lat="45.26506100156514" lon="9.464701733707882"><ele>71.0</ele><time>2026-04-30T16:30:05Z</time></trkpt><trkpt lat="45.26521224329546" lon="9.464488339219068"><ele>72.0</ele><time>2026-04-30T16:30:06Z</time></trkpt><trkpt lat="45.26538248931517" lon="9.464254618459197"><ele>73.0</ele><time>2026-04-30T16:30:07Z</time></trkpt><trkpt lat="45.265545218214726" lon="9.46402884467701"><ele>72.66666666666666</ele><time>2026-04-30T16:30:08Z</time></trkpt><trkpt lat="45.265694189107066" lon="9.463821992647361"><ele>72.33333333333333</ele><time>2026-04-30T16:30:09Z</time></trkpt><trkpt lat="45.26587106816953" lon="9.463598798377168"><ele>72.0</ele><time>2026-04-30T16:30:10Z</time></trkpt><trkpt lat="45.266053371832456" lon="9.463349312945514"><ele>72.0</ele><time>2026-04-30T16:30:11Z</time></trkpt><trkpt lat="45.266230019251026" lon="9.46313609906594"><ele>72.0</ele><time>2026-04-30T16:30:12Z</time></trkpt><trkpt lat="45.26639060175959" lon="9.462907912254174"><ele>72.5</ele><time>2026-04-30T16:30:13Z</time></trkpt><trkpt lat="45.26657627054928" lon="9.46266944361741"><ele>73.0</ele><time>2026-04-30T16:30:14Z</time></trkpt><trkpt lat="45.266757378871986" lon="9.462434511097626"><ele>73.0</ele><time>2026-04-30T16:30:15Z</time></trkpt><trkpt lat="45.266923973776606" lon="9.462196862172048"><ele>73.0</ele><time>2026-04-30T16:30:16Z</time></trkpt><trkpt lat="45.267088446380434" lon="9.461952165027517"><ele>72.5</ele><time>2026-04-30T16:30:17Z</time></trkpt><trkpt lat="45.26728182503906" lon="9.461729210540854"><ele>72.0</ele><time>2026-04-30T16:30:18Z</time></trkpt><trkpt lat="45.26748465457558" lon="9.461517468360324"><ele>72.0</ele><time>2026-04-30T16:30:19Z</time></trkpt><trkpt lat="45.26767516900513" lon="9.46130793880443"><ele>72.0</ele><time>2026-04-30T16:30:20Z</time></trkpt><trkpt lat="45.26783847052647" lon="9.461070177292793"><ele>72.0</ele><time>2026-04-30T16:30:21Z</time></trkpt><trkpt lat="45.26801241339437" lon="9.460800317110639"><ele>72.0</ele><time>2026-04-30T16:30:22Z</time></trkpt><trkpt lat="45.26817661684055" lon="9.460579676898284"><ele>73.0</ele><time>2026-04-30T16:30:23Z</time></trkpt><trkpt lat="45.26834168342436" lon="9.4603401398686"><ele>74.0</ele><time>2026-04-30T16:30:24Z</time></trkpt><trkpt lat="45.26849105345353" lon="9.460092153444794"><ele>74.0</ele><time>2026-04-30T16:30:25Z</time></trkpt><trkpt lat="45.26866121274605" lon="9.45987520234852"><ele>74.0</ele><time>2026-04-30T16:30:26Z</time></trkpt><trkpt lat="45.26882563532162" lon="9.459637831493245"><ele>73.0</ele><time>2026-04-30T16:30:27Z</time></trkpt><trkpt lat="45.26901142310971" lon="9.459411560728215"><ele>72.0</ele><time>2026-04-30T16:30:28Z</time></trkpt><trkpt lat="45.26918942040218" lon="9.459158143519407"><ele>72.0</ele><time>2026-04-30T16:30:29Z</time></trkpt><trkpt lat="45.26935815685966" lon="9.458925596728971"><ele>72.0</ele><time>2026-04-30T16:30:30Z</time></trkpt><trkpt lat="45.26954931866523" lon="9.458683658912474"><ele>72.0</ele><time>2026-04-30T16:30:31Z</time></trkpt><trkpt lat="45.26973368080288" lon="9.458442835063433"><ele>72.0</ele><time>2026-04-30T16:30:32Z</time></trkpt><trkpt lat="45.26990294441985" lon="9.458189481180703"><ele>73.5</ele><time>2026-04-30T16:30:33Z</time></trkpt><trkpt lat="45.270081521329175" lon="9.45795027496537"><ele>75.0</ele><time>2026-04-30T16:30:34Z</time></trkpt><trkpt lat="45.27024200850334" lon="9.457708584807243"><ele>75.0</ele><time>2026-04-30T16:30:35Z</time></trkpt><trkpt lat="45.270395783955" lon="9.457474403920537"><ele>75.0</ele><time>2026-04-30T16:30:36Z</time></trkpt><trkpt lat="45.27054272387749" lon="9.457219383221657"><ele>74.33333333333333</ele><time>2026-04-30T16:30:37Z</time></trkpt><trkpt lat="45.270686515058024" lon="9.456974351178028"><ele>73.66666666666666</ele><time>2026-04-30T16:30:38Z</time></trkpt><trkpt lat="45.270826729635935" lon="9.45674086424747"><ele>73.0</ele><time>2026-04-30T16:30:39Z</time></trkpt><trkpt lat="45.27099622803475" lon="9.456512415076803"><ele>74.0</ele><time>2026-04-30T16:30:40Z</time></trkpt><trkpt lat="45.27116015226449" lon="9.4562796321197"><ele>75.0</ele><time>2026-04-30T16:30:41Z</time></trkpt><trkpt lat="45.27130695655484" lon="9.456004477381896"><ele>74.0</ele><time>2026-04-30T16:30:42Z</time></trkpt><trkpt lat="45.27148287179827" lon="9.455746382827629"><ele>73.0</ele><time>2026-04-30T16:30:43Z</time></trkpt><trkpt lat="45.27164558066296" lon="9.455502568596215"><ele>73.5</ele><time>2026-04-30T16:30:44Z</time></trkpt><trkpt lat="45.27181375751138" lon="9.455256211393305"><ele>74.0</ele><time>2026-04-30T16:30:45Z</time></trkpt><trkpt lat="45.271978195197505" lon="9.455015786152947"><ele>74.0</ele><time>2026-04-30T16:30:46Z</time></trkpt><trkpt lat="45.27213225271845" lon="9.454784294653175"><ele>74.0</ele><time>2026-04-30T16:30:47Z</time></trkpt><trkpt lat="45.27227587369873" lon="9.454566816474848"><ele>74.0</ele><time>2026-04-30T16:30:48Z</time></trkpt><trkpt lat="45.272432539539146" lon="9.454320953191491"><ele>73.66666666666667</ele><time>2026-04-30T16:30:49Z</time></trkpt><trkpt lat="45.27259791500566" lon="9.454077805403768"><ele>73.33333333333333</ele><time>2026-04-30T16:30:50Z</time></trkpt><trkpt lat="45.272750221351856" lon="9.45386988555349"><ele>73.0</ele><time>2026-04-30T16:30:51Z</time></trkpt><trkpt lat="45.272903488486826" lon="9.45358688235997"><ele>74.0</ele><time>2026-04-30T16:30:52Z</time></trkpt><trkpt lat="45.273052680373716" lon="9.453323413923073"><ele>75.0</ele><time>2026-04-30T16:30:53Z</time></trkpt><trkpt lat="45.273203284930716" lon="9.453059139826589"><ele>74.5</ele><time>2026-04-30T16:30:54Z</time></trkpt><trkpt lat="45.27337808334363" lon="9.452823571004206"><ele>74.0</ele><time>2026-04-30T16:30:55Z</time></trkpt><trkpt lat="45.27353117418445" lon="9.452557158940134"><ele>74.0</ele><time>2026-04-30T16:30:56Z</time></trkpt><trkpt lat="45.27368013949785" lon="9.452263641023427"><ele>74.0</ele><time>2026-04-30T16:30:57Z</time></trkpt><trkpt lat="45.27385419957277" lon="9.451991819009812"><ele>74.5</ele><time>2026-04-30T16:30:58Z</time></trkpt><trkpt lat="45.274057964609675" lon="9.451765429187796"><ele>75.0</ele><time>2026-04-30T16:30:59Z</time></trkpt><trkpt lat="45.27421976686535" lon="9.451481132494873"><ele>75.0</ele><time>2026-04-30T16:31:00Z</time></trkpt><trkpt lat="45.27438317833211" lon="9.451214351176857"><ele>75.0</ele><time>2026-04-30T16:31:01Z</time></trkpt><trkpt lat="45.27453715486347" lon="9.450933229150607"><ele>75.0</ele><time>2026-04-30T16:31:02Z</time></trkpt><trkpt lat="45.274674754332835" lon="9.450640247560752"><ele>75.0</ele><time>2026-04-30T16:31:03Z</time></trkpt><trkpt lat="45.274824485067555" lon="9.45037404799203"><ele>76.0</ele><time>2026-04-30T16:31:04Z</time></trkpt><trkpt lat="45.27498788184518" lon="9.450134399146036"><ele>77.0</ele><time>2026-04-30T16:31:05Z</time></trkpt><trkpt lat="45.2751140671165" lon="9.449846969387233"><ele>76.0</ele><time>2026-04-30T16:31:06Z</time></trkpt><trkpt lat="45.2752690596009" lon="9.449613331754264"><ele>75.0</ele><time>2026-04-30T16:31:07Z</time></trkpt><trkpt lat="45.275436423600794" lon="9.449352778265167"><ele>75.5</ele><time>2026-04-30T16:31:08Z</time></trkpt><trkpt lat="45.275625543608854" lon="9.449086021730848"><ele>76.0</ele><time>2026-04-30T16:31:09Z</time></trkpt><trkpt lat="45.275796216855056" lon="9.4488679054391"><ele>76.66666666666666</ele><time>2026-04-30T16:31:10Z</time></trkpt><trkpt lat="45.27593189353318" lon="9.448627785792935"><ele>77.33333333333333</ele><time>2026-04-30T16:31:11Z</time></trkpt><trkpt lat="45.27606618128021" lon="9.448372367337852"><ele>78.0</ele><time>2026-04-30T16:31:12Z</time></trkpt><trkpt lat="45.276194012003074" lon="9.44812687521771"><ele>77.33333333333333</ele><time>2026-04-30T16:31:13Z</time></trkpt><trkpt lat="45.27633239766156" lon="9.447884418779646"><ele>76.66666666666666</ele><time>2026-04-30T16:31:14Z</time></trkpt><trkpt lat="45.27647045196116" lon="9.447632284043486"><ele>76.0</ele><time>2026-04-30T16:31:15Z</time></trkpt><trkpt lat="45.27661280802659" lon="9.447376096710242"><ele>75.0</ele><time>2026-04-30T16:31:16Z</time></trkpt><trkpt lat="45.27676292948929" lon="9.44714218568681"><ele>74.0</ele><time>2026-04-30T16:31:17Z</time></trkpt><trkpt lat="45.27692886966679" lon="9.446897993757181"><ele>74.0</ele><time>2026-04-30T16:31:18Z</time></trkpt><trkpt lat="45.27710179213267" lon="9.446656098956872"><ele>74.0</ele><time>2026-04-30T16:31:19Z</time></trkpt><trkpt lat="45.27725937241861" lon="9.44641507395072"><ele>73.66666666666667</ele><time>2026-04-30T16:31:20Z</time></trkpt><trkpt lat="45.277407799195615" lon="9.446193609110939"><ele>73.33333333333333</ele><time>2026-04-30T16:31:21Z</time></trkpt><trkpt lat="45.27752901355181" lon="9.445941425444436"><ele>73.0</ele><time>2026-04-30T16:31:22Z</time></trkpt><trkpt lat="45.27765098383528" lon="9.445695974961989"><ele>73.33333333333333</ele><time>2026-04-30T16:31:23Z</time></trkpt><trkpt lat="45.27777215087763" lon="9.44544978895811"><ele>73.66666666666667</ele><time>2026-04-30T16:31:24Z</time></trkpt><trkpt lat="45.27791812132648" lon="9.445211472149802"><ele>74.0</ele><time>2026-04-30T16:31:25Z</time></trkpt><trkpt lat="45.27807208775016" lon="9.444969725511031"><ele>74.0</ele><time>2026-04-30T16:31:26Z</time></trkpt><trkpt lat="45.27822576965023" lon="9.444711721383776"><ele>74.0</ele><time>2026-04-30T16:31:27Z</time></trkpt><trkpt lat="45.27839994878597" lon="9.444465152834683"><ele>74.0</ele><time>2026-04-30T16:31:28Z</time></trkpt><trkpt lat="45.27854234085544" lon="9.444179610363676"><ele>74.0</ele><time>2026-04-30T16:31:29Z</time></trkpt><trkpt lat="45.27871165905352" lon="9.443917200663712"><ele>73.5</ele><time>2026-04-30T16:31:30Z</time></trkpt><trkpt lat="45.278854158383325" lon="9.443619041198021"><ele>73.0</ele><time>2026-04-30T16:31:31Z</time></trkpt><trkpt lat="45.2790129403506" lon="9.443353550859655"><ele>73.0</ele><time>2026-04-30T16:31:32Z</time></trkpt><trkpt lat="45.27917831756025" lon="9.443098238688647"><ele>73.0</ele><time>2026-04-30T16:31:33Z</time></trkpt><trkpt lat="45.27933471975263" lon="9.442842586060733"><ele>73.0</ele><time>2026-04-30T16:31:34Z</time></trkpt><trkpt lat="45.279501662172954" lon="9.442592768570433"><ele>73.0</ele><time>2026-04-30T16:31:35Z</time></trkpt><trkpt lat="45.27966462705474" lon="9.442325601905305"><ele>73.0</ele><time>2026-04-30T16:31:36Z</time></trkpt><trkpt lat="45.27982543177624" lon="9.442062579190457"><ele>73.0</ele><time>2026-04-30T16:31:37Z</time></trkpt><trkpt lat="45.279975161088245" lon="9.44182151061203"><ele>73.0</ele><time>2026-04-30T16:31:38Z</time></trkpt><trkpt lat="45.28014147018573" lon="9.441577506682494"><ele>73.0</ele><time>2026-04-30T16:31:39Z</time></trkpt><trkpt lat="45.280295940222075" lon="9.441315802232468"><ele>73.0</ele><time>2026-04-30T16:31:40Z</time></trkpt><trkpt lat="45.28045245223746" lon="9.441063273249855"><ele>73.0</ele><time>2026-04-30T16:31:41Z</time></trkpt><trkpt lat="45.28060564607456" lon="9.440803172916599"><ele>73.0</ele><time>2026-04-30T16:31:42Z</time></trkpt><trkpt lat="45.28074886399883" lon="9.440523220308002"><ele>73.0</ele><time>2026-04-30T16:31:43Z</time></trkpt><trkpt lat="45.28092106501243" lon="9.440265761827217"><ele>73.0</ele><time>2026-04-30T16:31:44Z</time></trkpt><trkpt lat="45.28107494033584" lon="9.4399988010135"><ele>73.0</ele><time>2026-04-30T16:31:45Z</time></trkpt><trkpt lat="45.281249124680194" lon="9.439751154139381"><ele>73.0</ele><time>2026-04-30T16:31:46Z</time></trkpt><trkpt lat="45.28140902035587" lon="9.439482505631121"><ele>73.0</ele><time>2026-04-30T16:31:47Z</time></trkpt><trkpt lat="45.28154055416745" lon="9.43921614309086"><ele>73.0</ele><time>2026-04-30T16:31:48Z</time></trkpt><trkpt lat="45.2816948438862" lon="9.438977392833475"><ele>73.0</ele><time>2026-04-30T16:31:49Z</time></trkpt><trkpt lat="45.281838945153034" lon="9.438718843657563"><ele>73.0</ele><time>2026-04-30T16:31:50Z</time></trkpt><trkpt lat="45.28198079370338" lon="9.438451818652231"><ele>73.0</ele><time>2026-04-30T16:31:51Z</time></trkpt><trkpt lat="45.28212887368255" lon="9.43820707218043"><ele>73.5</ele><time>2026-04-30T16:31:52Z</time></trkpt><trkpt lat="45.28228621482113" lon="9.437947133323915"><ele>74.0</ele><time>2026-04-30T16:31:53Z</time></trkpt><trkpt lat="45.282425395931" lon="9.437680491391466"><ele>74.0</ele><time>2026-04-30T16:31:54Z</time></trkpt><trkpt lat="45.28257340799723" lon="9.437426381588887"><ele>74.0</ele><time>2026-04-30T16:31:55Z</time></trkpt><trkpt lat="45.28273047732318" lon="9.437165169556838"><ele>74.0</ele><time>2026-04-30T16:31:56Z</time></trkpt><trkpt lat="45.28288995876382" lon="9.436910397964773"><ele>74.0</ele><time>2026-04-30T16:31:57Z</time></trkpt><trkpt lat="45.283051552361066" lon="9.436657004908334"><ele>74.5</ele><time>2026-04-30T16:31:58Z</time></trkpt><trkpt lat="45.28320526267912" lon="9.436416529838496"><ele>75.0</ele><time>2026-04-30T16:31:59Z</time></trkpt><trkpt lat="45.28336777496805" lon="9.436167634990595"><ele>75.0</ele><time>2026-04-30T16:32:00Z</time></trkpt><trkpt lat="45.283528510260325" lon="9.435910893944708"><ele>75.0</ele><time>2026-04-30T16:32:01Z</time></trkpt><trkpt lat="45.283701118619106" lon="9.435680945773202"><ele>75.0</ele><time>2026-04-30T16:32:02Z</time></trkpt><trkpt lat="45.28386763574129" lon="9.4354015641288"><ele>75.0</ele><time>2026-04-30T16:32:03Z</time></trkpt><trkpt lat="45.28399850721164" lon="9.435048685589143"><ele>74.5</ele><time>2026-04-30T16:32:04Z</time></trkpt><trkpt lat="45.28418373171765" lon="9.434762753987318"><ele>74.0</ele><time>2026-04-30T16:32:05Z</time></trkpt><trkpt lat="45.28436492940327" lon="9.434477967232471"><ele>73.5</ele><time>2026-04-30T16:32:06Z</time></trkpt><trkpt lat="45.28454302729033" lon="9.434165724172699"><ele>73.0</ele><time>2026-04-30T16:32:07Z</time></trkpt><trkpt lat="45.28470463613485" lon="9.433873427132042"><ele>74.5</ele><time>2026-04-30T16:32:08Z</time></trkpt><trkpt lat="45.28487979196969" lon="9.433606302976262"><ele>76.0</ele><time>2026-04-30T16:32:09Z</time></trkpt><trkpt lat="45.285042991067456" lon="9.433335597223172"><ele>76.0</ele><time>2026-04-30T16:32:10Z</time></trkpt><trkpt lat="45.28521574022214" lon="9.433049418747972"><ele>76.0</ele><time>2026-04-30T16:32:11Z</time></trkpt><trkpt lat="45.28538069556616" lon="9.432760041393173"><ele>76.0</ele><time>2026-04-30T16:32:12Z</time></trkpt><trkpt lat="45.28555072262888" lon="9.432488975072108"><ele>76.0</ele><time>2026-04-30T16:32:13Z</time></trkpt><trkpt lat="45.28573499324295" lon="9.432237784318934"><ele>75.5</ele><time>2026-04-30T16:32:14Z</time></trkpt><trkpt lat="45.285913161498556" lon="9.431991414678278"><ele>75.0</ele><time>2026-04-30T16:32:15Z</time></trkpt><trkpt lat="45.286060787104056" lon="9.431724526277916"><ele>75.0</ele><time>2026-04-30T16:32:16Z</time></trkpt><trkpt lat="45.286199985228656" lon="9.431417944302593"><ele>75.0</ele><time>2026-04-30T16:32:17Z</time></trkpt><trkpt lat="45.286362463432226" lon="9.431136360496053"><ele>74.5</ele><time>2026-04-30T16:32:18Z</time></trkpt><trkpt lat="45.28653717747874" lon="9.430871840647951"><ele>74.0</ele><time>2026-04-30T16:32:19Z</time></trkpt><trkpt lat="45.28671377152858" lon="9.430613298650282"><ele>75.5</ele><time>2026-04-30T16:32:19.999Z</time></trkpt><trkpt lat="45.2868972029854" lon="9.43032630749264"><ele>77.0</ele><time>2026-04-30T16:32:20.999Z</time></trkpt><trkpt lat="45.28705895760118" lon="9.430031968943924"><ele>77.0</ele><time>2026-04-30T16:32:21.999Z</time></trkpt><trkpt lat="45.28721558717452" lon="9.429721926763644"><ele>77.0</ele><time>2026-04-30T16:32:22.999Z</time></trkpt><trkpt lat="45.28735251039914" lon="9.429436493847703"><ele>78.5</ele><time>2026-04-30T16:32:23.999Z</time></trkpt><trkpt lat="45.28750063063579" lon="9.429163659369356"><ele>80.0</ele><time>2026-04-30T16:32:24.999Z</time></trkpt><trkpt lat="45.28766454371157" lon="9.428897719339957"><ele>79.0</ele><time>2026-04-30T16:32:25.999Z</time></trkpt><trkpt lat="45.287807429374574" lon="9.428599566444586"><ele>78.0</ele><time>2026-04-30T16:32:26.999Z</time></trkpt><trkpt lat="45.28794911886957" lon="9.428335777918754"><ele>78.0</ele><time>2026-04-30T16:32:27.999Z</time></trkpt><trkpt lat="45.2880815255747" lon="9.428052118615133"><ele>78.0</ele><time>2026-04-30T16:32:28.999Z</time></trkpt><trkpt lat="45.2882462625888" lon="9.427821929403635"><ele>77.5</ele><time>2026-04-30T16:32:29.999Z</time></trkpt><trkpt lat="45.28840518177795" lon="9.427555744534972"><ele>77.0</ele><time>2026-04-30T16:32:30.999Z</time></trkpt><trkpt lat="45.28855550681088" lon="9.42728750841453"><ele>77.0</ele><time>2026-04-30T16:32:31.999Z</time></trkpt><trkpt lat="45.28870467252969" lon="9.427007021093264"><ele>77.0</ele><time>2026-04-30T16:32:32.999Z</time></trkpt><trkpt lat="45.28888001279032" lon="9.426751635554593"><ele>77.0</ele><time>2026-04-30T16:32:33.999Z</time></trkpt><trkpt lat="45.28903479655442" lon="9.426481888447505"><ele>77.0</ele><time>2026-04-30T16:32:34.999Z</time></trkpt><trkpt lat="45.28917270168877" lon="9.426198864557515"><ele>77.0</ele><time>2026-04-30T16:32:35.999Z</time></trkpt><trkpt lat="45.28930999469775" lon="9.425871611140344"><ele>77.0</ele><time>2026-04-30T16:32:36.999Z</time></trkpt><trkpt lat="45.28946667250643" lon="9.425580760164866"><ele>76.5</ele><time>2026-04-30T16:32:37.999Z</time></trkpt><trkpt lat="45.289629434613886" lon="9.425294374341867"><ele>76.0</ele><time>2026-04-30T16:32:39.005Z</time></trkpt><trkpt lat="45.28979195762309" lon="9.425007931884805"><ele>76.0</ele><time>2026-04-30T16:32:40.005Z</time></trkpt><trkpt lat="45.28994105525088" lon="9.424709482220464"><ele>76.0</ele><time>2026-04-30T16:32:41.005Z</time></trkpt><trkpt lat="45.290116445331805" lon="9.424418332247058"><ele>76.0</ele><time>2026-04-30T16:32:42.005Z</time></trkpt><trkpt lat="45.2902724765656" lon="9.424106766610487"><ele>76.0</ele><time>2026-04-30T16:32:43.005Z</time></trkpt><trkpt lat="45.2904451346185" lon="9.423810196679254"><ele>76.0</ele><time>2026-04-30T16:32:44.004Z</time></trkpt><trkpt lat="45.29060651723243" lon="9.423541903048978"><ele>76.0</ele><time>2026-04-30T16:32:45.004Z</time></trkpt><trkpt lat="45.290786292486125" lon="9.42325068512482"><ele>76.0</ele><time>2026-04-30T16:32:46.004Z</time></trkpt><trkpt lat="45.29096714033246" lon="9.422975176316305"><ele>76.0</ele><time>2026-04-30T16:32:47.004Z</time></trkpt><trkpt lat="45.29113581543839" lon="9.422701947762354"><ele>76.0</ele><time>2026-04-30T16:32:48.004Z</time></trkpt><trkpt lat="45.2913052356768" lon="9.422432397650619"><ele>76.0</ele><time>2026-04-30T16:32:49.003Z</time></trkpt><trkpt lat="45.29144780938578" lon="9.422120146128691"><ele>76.0</ele><time>2026-04-30T16:32:50.003Z</time></trkpt><trkpt lat="45.29161613694563" lon="9.421844457986134"><ele>76.0</ele><time>2026-04-30T16:32:51.003Z</time></trkpt><trkpt lat="45.291784088309335" lon="9.421568837650756"><ele>76.0</ele><time>2026-04-30T16:32:52.003Z</time></trkpt><trkpt lat="45.29194160152211" lon="9.421302823279103"><ele>76.0</ele><time>2026-04-30T16:32:53.003Z</time></trkpt><trkpt lat="45.29209419092384" lon="9.421033918288725"><ele>76.0</ele><time>2026-04-30T16:32:54.003Z</time></trkpt><trkpt lat="45.292204284307125" lon="9.420732413763218"><ele>76.0</ele><time>2026-04-30T16:32:55.003Z</time></trkpt><trkpt lat="45.292368164294466" lon="9.420480552976898"><ele>75.5</ele><time>2026-04-30T16:32:56.002Z</time></trkpt><trkpt lat="45.29252646124072" lon="9.420207233282808"><ele>75.0</ele><time>2026-04-30T16:32:57.002Z</time></trkpt><trkpt lat="45.29269327198593" lon="9.419935854579382"><ele>75.0</ele><time>2026-04-30T16:32:58.002Z</time></trkpt><trkpt lat="45.29283925499082" lon="9.419656076893544"><ele>75.0</ele><time>2026-04-30T16:32:59.002Z</time></trkpt><trkpt lat="45.29299672438437" lon="9.419366839007457"><ele>75.5</ele><time>2026-04-30T16:33:00.002Z</time></trkpt><trkpt lat="45.29314153370466" lon="9.419109003507412"><ele>76.0</ele><time>2026-04-30T16:33:01.002Z</time></trkpt><trkpt lat="45.293306341643735" lon="9.418851327073309"><ele>75.5</ele><time>2026-04-30T16:33:02.002Z</time></trkpt><trkpt lat="45.29346900738195" lon="9.418593003229365"><ele>75.0</ele><time>2026-04-30T16:33:03.002Z</time></trkpt><trkpt lat="45.29360627971402" lon="9.418298730209623"><ele>75.0</ele><time>2026-04-30T16:33:04.002Z</time></trkpt><trkpt lat="45.293765640700606" lon="9.418012152289752"><ele>75.0</ele><time>2026-04-30T16:33:05.001Z</time></trkpt><trkpt lat="45.293934354110974" lon="9.417736846800475"><ele>76.0</ele><time>2026-04-30T16:33:06.001Z</time></trkpt><trkpt lat="45.29409990123866" lon="9.41747030771562"><ele>77.0</ele><time>2026-04-30T16:33:07.001Z</time></trkpt><trkpt lat="45.29424525219404" lon="9.417189879977569"><ele>76.5</ele><time>2026-04-30T16:33:08.001Z</time></trkpt><trkpt lat="45.29438948314289" lon="9.416924063637873"><ele>76.0</ele><time>2026-04-30T16:33:09.001Z</time></trkpt><trkpt lat="45.29452726157757" lon="9.416639920009795"><ele>76.0</ele><time>2026-04-30T16:33:10.001Z</time></trkpt><trkpt lat="45.29469306094382" lon="9.41638497177977"><ele>76.0</ele><time>2026-04-30T16:33:11.001Z</time></trkpt><trkpt lat="45.29486010091266" lon="9.416132309126008"><ele>76.5</ele><time>2026-04-30T16:33:12.001Z</time></trkpt><trkpt lat="45.29502692939319" lon="9.415858573479678"><ele>77.0</ele><time>2026-04-30T16:33:13.001Z</time></trkpt><trkpt lat="45.29516859306653" lon="9.415566693396077"><ele>76.5</ele><time>2026-04-30T16:33:14.001Z</time></trkpt><trkpt lat="45.295336793667765" lon="9.41531929547722"><ele>76.0</ele><time>2026-04-30T16:33:15.001Z</time></trkpt><trkpt lat="45.295504486757956" lon="9.415078869694698"><ele>76.0</ele><time>2026-04-30T16:33:16.001Z</time></trkpt><trkpt lat="45.29565514096967" lon="9.414806915961655"><ele>76.0</ele><time>2026-04-30T16:33:17.001Z</time></trkpt><trkpt lat="45.29582581475928" lon="9.414535918061631"><ele>76.0</ele><time>2026-04-30T16:33:18.001Z</time></trkpt><trkpt lat="45.295998887687034" lon="9.414267656431074"><ele>76.0</ele><time>2026-04-30T16:33:19.001Z</time></trkpt><trkpt lat="45.29617687619923" lon="9.414000038806934"><ele>76.5</ele><time>2026-04-30T16:33:20.001Z</time></trkpt><trkpt lat="45.296343047053895" lon="9.413727785344149"><ele>77.0</ele><time>2026-04-30T16:33:21.001Z</time></trkpt><trkpt lat="45.29651886190942" lon="9.413463670112396"><ele>77.5</ele><time>2026-04-30T16:33:22.001Z</time></trkpt><trkpt lat="45.296686415117364" lon="9.41319490302102"><ele>78.0</ele><time>2026-04-30T16:33:23.001Z</time></trkpt><trkpt lat="45.29686370470956" lon="9.412926797446882"><ele>78.5</ele><time>2026-04-30T16:33:24.001Z</time></trkpt><trkpt lat="45.29702736142172" lon="9.412653992625394"><ele>79.0</ele><time>2026-04-30T16:33:25.001Z</time></trkpt><trkpt lat="45.2971904999837" lon="9.412389078420588"><ele>78.0</ele><time>2026-04-30T16:33:26.001Z</time></trkpt><trkpt lat="45.29737839508112" lon="9.412138283181116"><ele>77.0</ele><time>2026-04-30T16:33:27.001Z</time></trkpt><trkpt lat="45.297552007655845" lon="9.41187657091539"><ele>77.0</ele><time>2026-04-30T16:33:28Z</time></trkpt><trkpt lat="45.29773430687562" lon="9.41161213845714"><ele>77.0</ele><time>2026-04-30T16:33:29Z</time></trkpt><trkpt lat="45.29794205786687" lon="9.41139951532439"><ele>78.0</ele><time>2026-04-30T16:33:30Z</time></trkpt><trkpt lat="45.298112504596816" lon="9.411108679991967"><ele>79.0</ele><time>2026-04-30T16:33:31Z</time></trkpt><trkpt lat="45.29828163087283" lon="9.410835646642123"><ele>79.0</ele><time>2026-04-30T16:33:32Z</time></trkpt><trkpt lat="45.29846354732732" lon="9.410573812811112"><ele>79.0</ele><time>2026-04-30T16:33:33Z</time></trkpt><trkpt lat="45.29863021060299" lon="9.410308483311173"><ele>78.0</ele><time>2026-04-30T16:33:34Z</time></trkpt><trkpt lat="45.29879908425391" lon="9.410042816101502"><ele>77.0</ele><time>2026-04-30T16:33:35Z</time></trkpt><trkpt lat="45.298974776840254" lon="9.40977122455643"><ele>77.5</ele><time>2026-04-30T16:33:36Z</time></trkpt><trkpt lat="45.29915335495531" lon="9.409518477363214"><ele>78.0</ele><time>2026-04-30T16:33:37Z</time></trkpt><trkpt lat="45.299323456369684" lon="9.409272753990846"><ele>78.0</ele><time>2026-04-30T16:33:38Z</time></trkpt><trkpt lat="45.29950077788181" lon="9.409023079272304"><ele>78.0</ele><time>2026-04-30T16:33:39Z</time></trkpt><trkpt lat="45.29969013211721" lon="9.408765669583504"><ele>79.0</ele><time>2026-04-30T16:33:40Z</time></trkpt><trkpt lat="45.29987521394342" lon="9.408522067764885"><ele>80.0</ele><time>2026-04-30T16:33:41Z</time></trkpt><trkpt lat="45.30005443643197" lon="9.408283730553826"><ele>80.0</ele><time>2026-04-30T16:33:42Z</time></trkpt><trkpt lat="45.30021569301485" lon="9.408022860840669"><ele>80.0</ele><time>2026-04-30T16:33:43Z</time></trkpt><trkpt lat="45.30038949001305" lon="9.407783060437323"><ele>80.0</ele><time>2026-04-30T16:33:44Z</time></trkpt><trkpt lat="45.30056595259937" lon="9.407525009634954"><ele>80.0</ele><time>2026-04-30T16:33:45Z</time></trkpt><trkpt lat="45.30077178718392" lon="9.407282802446826"><ele>80.0</ele><time>2026-04-30T16:33:46Z</time></trkpt><trkpt lat="45.300947121539025" lon="9.40702151068423"><ele>80.0</ele><time>2026-04-30T16:33:47Z</time></trkpt><trkpt lat="45.30114794435557" lon="9.406777887345493"><ele>80.0</ele><time>2026-04-30T16:33:48Z</time></trkpt><trkpt lat="45.301341140128734" lon="9.406504466771663"><ele>80.0</ele><time>2026-04-30T16:33:49Z</time></trkpt><trkpt lat="45.30155132513115" lon="9.40629470476893"><ele>79.5</ele><time>2026-04-30T16:33:50Z</time></trkpt><trkpt lat="45.301744368664146" lon="9.406032839130681"><ele>79.0</ele><time>2026-04-30T16:33:51Z</time></trkpt><trkpt lat="45.30194059179712" lon="9.405780281584576"><ele>79.0</ele><time>2026-04-30T16:33:52Z</time></trkpt><trkpt lat="45.3021073887375" lon="9.405543377275949"><ele>79.0</ele><time>2026-04-30T16:33:53Z</time></trkpt><trkpt lat="45.302286567353974" lon="9.405300674235006"><ele>79.5</ele><time>2026-04-30T16:33:54Z</time></trkpt><trkpt lat="45.302430809897956" lon="9.404995963936782"><ele>80.0</ele><time>2026-04-30T16:33:55Z</time></trkpt><trkpt lat="45.302626273081955" lon="9.404767740186308"><ele>79.5</ele><time>2026-04-30T16:33:56Z</time></trkpt><trkpt lat="45.302810092795525" lon="9.404537321479731"><ele>79.0</ele><time>2026-04-30T16:33:57Z</time></trkpt><trkpt lat="45.302977020105686" lon="9.40427900981374"><ele>79.0</ele><time>2026-04-30T16:33:58Z</time></trkpt><trkpt lat="45.30313971343281" lon="9.40401326593213"><ele>79.0</ele><time>2026-04-30T16:33:59Z</time></trkpt><trkpt lat="45.303313188437954" lon="9.403743999834367"><ele>79.0</ele><time>2026-04-30T16:34:00Z</time></trkpt><trkpt lat="45.30348357090988" lon="9.403473190646588"><ele>79.0</ele><time>2026-04-30T16:34:01Z</time></trkpt><trkpt lat="45.30364926814557" lon="9.403215480006121"><ele>79.0</ele><time>2026-04-30T16:34:02Z</time></trkpt><trkpt lat="45.303834033943616" lon="9.402966550711144"><ele>79.0</ele><time>2026-04-30T16:34:03Z</time></trkpt><trkpt lat="45.30403346325186" lon="9.402726558523273"><ele>79.0</ele><time>2026-04-30T16:34:04Z</time></trkpt><trkpt lat="45.30421122550093" lon="9.40246013699882"><ele>79.0</ele><time>2026-04-30T16:34:05Z</time></trkpt><trkpt lat="45.30440159137811" lon="9.402204728044607"><ele>79.0</ele><time>2026-04-30T16:34:06Z</time></trkpt><trkpt lat="45.30458605483162" lon="9.40194713749195"><ele>79.0</ele><time>2026-04-30T16:34:07Z</time></trkpt><trkpt lat="45.3047635844137" lon="9.401676762316747"><ele>79.0</ele><time>2026-04-30T16:34:08Z</time></trkpt><trkpt lat="45.304934700508205" lon="9.40139703578678"><ele>79.0</ele><time>2026-04-30T16:34:09Z</time></trkpt><trkpt lat="45.30509651922698" lon="9.401128367321888"><ele>80.0</ele><time>2026-04-30T16:34:10Z</time></trkpt><trkpt lat="45.30526470393092" lon="9.400870263575703"><ele>81.0</ele><time>2026-04-30T16:34:11Z</time></trkpt><trkpt lat="45.305434109714525" lon="9.400590096235039"><ele>81.0</ele><time>2026-04-30T16:34:12Z</time></trkpt><trkpt lat="45.30561847316909" lon="9.400341443669666"><ele>81.0</ele><time>2026-04-30T16:34:13Z</time></trkpt><trkpt lat="45.30577730282017" lon="9.400064555368141"><ele>81.0</ele><time>2026-04-30T16:34:14Z</time></trkpt><trkpt lat="45.30595619837558" lon="9.399820952490778"><ele>81.0</ele><time>2026-04-30T16:34:15Z</time></trkpt><trkpt lat="45.30611932542634" lon="9.399569675161104"><ele>81.0</ele><time>2026-04-30T16:34:16Z</time></trkpt><trkpt lat="45.30627940788347" lon="9.399314177389837"><ele>81.0</ele><time>2026-04-30T16:34:17Z</time></trkpt><trkpt lat="45.306448827352504" lon="9.399063103695859"><ele>81.5</ele><time>2026-04-30T16:34:18Z</time></trkpt><trkpt lat="45.30663652670669" lon="9.398824364994937"><ele>82.0</ele><time>2026-04-30T16:34:19Z</time></trkpt><trkpt lat="45.306822917043846" lon="9.398607771889257"><ele>82.0</ele><time>2026-04-30T16:34:20Z</time></trkpt><trkpt lat="45.307008556489464" lon="9.398348259896135"><ele>82.0</ele><time>2026-04-30T16:34:21Z</time></trkpt><trkpt lat="45.307183350780875" lon="9.398078414826383"><ele>81.0</ele><time>2026-04-30T16:34:22Z</time></trkpt><trkpt lat="45.30735655639897" lon="9.397867795009054"><ele>80.0</ele><time>2026-04-30T16:34:23Z</time></trkpt><trkpt lat="45.307496527743226" lon="9.397530627217296"><ele>80.0</ele><time>2026-04-30T16:34:24Z</time></trkpt><trkpt lat="45.30764577583493" lon="9.397273750517158"><ele>80.0</ele><time>2026-04-30T16:34:25Z</time></trkpt><trkpt lat="45.30780509371992" lon="9.397010318208762"><ele>80.0</ele><time>2026-04-30T16:34:26Z</time></trkpt><trkpt lat="45.307967800344464" lon="9.39673997052728"><ele>80.0</ele><time>2026-04-30T16:34:27Z</time></trkpt><trkpt lat="45.30813869588265" lon="9.396466622225347"><ele>80.5</ele><time>2026-04-30T16:34:28Z</time></trkpt><trkpt lat="45.30831763628434" lon="9.396200299111767"><ele>81.0</ele><time>2026-04-30T16:34:29Z</time></trkpt><trkpt lat="45.30848616486336" lon="9.395921957629763"><ele>81.0</ele><time>2026-04-30T16:34:30Z</time></trkpt><trkpt lat="45.308648730971115" lon="9.395613250958801"><ele>81.0</ele><time>2026-04-30T16:34:31Z</time></trkpt><trkpt lat="45.30882467899376" lon="9.395340620717475"><ele>80.5</ele><time>2026-04-30T16:34:32Z</time></trkpt><trkpt lat="45.30900687710106" lon="9.395068314782678"><ele>80.0</ele><time>2026-04-30T16:34:33Z</time></trkpt><trkpt lat="45.30919184486086" lon="9.394806258447538"><ele>80.5</ele><time>2026-04-30T16:34:34Z</time></trkpt><trkpt lat="45.30937489551575" lon="9.394545964924886"><ele>81.0</ele><time>2026-04-30T16:34:35Z</time></trkpt><trkpt lat="45.30953702173359" lon="9.394245600243268"><ele>81.0</ele><time>2026-04-30T16:34:35.999Z</time></trkpt><trkpt lat="45.30972041555854" lon="9.393967343975723"><ele>81.0</ele><time>2026-04-30T16:34:36.999Z</time></trkpt><trkpt lat="45.309904811970675" lon="9.393719418188583"><ele>81.0</ele><time>2026-04-30T16:34:37.999Z</time></trkpt><trkpt lat="45.31009732970877" lon="9.393505413929196"><ele>81.0</ele><time>2026-04-30T16:34:38.999Z</time></trkpt><trkpt lat="45.31031104169015" lon="9.393261731322479"><ele>81.0</ele><time>2026-04-30T16:34:39.999Z</time></trkpt><trkpt lat="45.31050322511525" lon="9.39300472404663"><ele>81.0</ele><time>2026-04-30T16:34:40.999Z</time></trkpt><trkpt lat="45.31067407758378" lon="9.39272823843076"><ele>81.0</ele><time>2026-04-30T16:34:41.999Z</time></trkpt><trkpt lat="45.31084076235352" lon="9.392453968707887"><ele>81.0</ele><time>2026-04-30T16:34:42.999Z</time></trkpt><trkpt lat="45.31099973701056" lon="9.392185345155438"><ele>80.5</ele><time>2026-04-30T16:34:43.999Z</time></trkpt><trkpt lat="45.31115151658848" lon="9.391893277340586"><ele>80.0</ele><time>2026-04-30T16:34:44.999Z</time></trkpt><trkpt lat="45.31131214622117" lon="9.391605780187602"><ele>80.0</ele><time>2026-04-30T16:34:45.999Z</time></trkpt><trkpt lat="45.31147977833777" lon="9.391354563139997"><ele>80.0</ele><time>2026-04-30T16:34:46.999Z</time></trkpt><trkpt lat="45.31165389241811" lon="9.391113882033771"><ele>80.0</ele><time>2026-04-30T16:34:47.999Z</time></trkpt><trkpt lat="45.311822032327" lon="9.390870969049912"><ele>80.0</ele><time>2026-04-30T16:34:48.999Z</time></trkpt><trkpt lat="45.31199281126015" lon="9.39061016936801"><ele>80.0</ele><time>2026-04-30T16:34:49.999Z</time></trkpt><trkpt lat="45.31216048632774" lon="9.390333410193174"><ele>80.0</ele><time>2026-04-30T16:34:50.999Z</time></trkpt><trkpt lat="45.31232911375772" lon="9.390062711946095"><ele>80.0</ele><time>2026-04-30T16:34:51.999Z</time></trkpt><trkpt lat="45.31250382571147" lon="9.389797234912294"><ele>80.0</ele><time>2026-04-30T16:34:52.999Z</time></trkpt><trkpt lat="45.31267129681552" lon="9.389536049671129"><ele>80.5</ele><time>2026-04-30T16:34:53.999Z</time></trkpt><trkpt lat="45.31286591114648" lon="9.389290682366157"><ele>81.0</ele><time>2026-04-30T16:34:54.999Z</time></trkpt><trkpt lat="45.31304474567575" lon="9.389043571953986"><ele>81.5</ele><time>2026-04-30T16:34:55.999Z</time></trkpt><trkpt lat="45.31320451878504" lon="9.388806758708128"><ele>82.0</ele><time>2026-04-30T16:34:56.999Z</time></trkpt><trkpt lat="45.313359744783874" lon="9.388534251346078"><ele>82.0</ele><time>2026-04-30T16:34:57.999Z</time></trkpt><trkpt lat="45.313515855313454" lon="9.388278897828078"><ele>82.0</ele><time>2026-04-30T16:34:58.999Z</time></trkpt><trkpt lat="45.31371113346956" lon="9.38805533458132"><ele>81.5</ele><time>2026-04-30T16:34:59.999Z</time></trkpt><trkpt lat="45.313861479396074" lon="9.3877634823411"><ele>81.0</ele><time>2026-04-30T16:35:00.999Z</time></trkpt><trkpt lat="45.31400689581924" lon="9.387489220526467"><ele>81.0</ele><time>2026-04-30T16:35:01.999Z</time></trkpt><trkpt lat="45.31416286373485" lon="9.387230580629051"><ele>81.0</ele><time>2026-04-30T16:35:02.999Z</time></trkpt><trkpt lat="45.31430989046613" lon="9.38698170880187"><ele>82.0</ele><time>2026-04-30T16:35:03.999Z</time></trkpt><trkpt lat="45.31447521416639" lon="9.386729437525798"><ele>83.0</ele><time>2026-04-30T16:35:04.999Z</time></trkpt><trkpt lat="45.3146437453204" lon="9.38648891514993"><ele>81.5</ele><time>2026-04-30T16:35:05.999Z</time></trkpt><trkpt lat="45.31480426932351" lon="9.386225974497796"><ele>80.0</ele><time>2026-04-30T16:35:06.999Z</time></trkpt><trkpt lat="45.314980067762484" lon="9.385960396447723"><ele>80.0</ele><time>2026-04-30T16:35:07.999Z</time></trkpt><trkpt lat="45.31514857304249" lon="9.385697730910918"><ele>80.0</ele><time>2026-04-30T16:35:08.999Z</time></trkpt><trkpt lat="45.315328455854164" lon="9.385440914899936"><ele>80.5</ele><time>2026-04-30T16:35:09.999Z</time></trkpt><trkpt lat="45.315484355955654" lon="9.385141958472635"><ele>81.0</ele><time>2026-04-30T16:35:10.999Z</time></trkpt><trkpt lat="45.31563211902531" lon="9.384893594639841"><ele>81.0</ele><time>2026-04-30T16:35:11.999Z</time></trkpt><trkpt lat="45.31580925753654" lon="9.38464692304022"><ele>81.0</ele><time>2026-04-30T16:35:12.999Z</time></trkpt><trkpt lat="45.315980315694354" lon="9.384399363333305"><ele>81.0</ele><time>2026-04-30T16:35:13.999Z</time></trkpt><trkpt lat="45.31615642523599" lon="9.384150740360989"><ele>81.0</ele><time>2026-04-30T16:35:14.999Z</time></trkpt><trkpt lat="45.31633855492575" lon="9.383912924652655"><ele>81.5</ele><time>2026-04-30T16:35:15.999Z</time></trkpt><trkpt lat="45.31650815559982" lon="9.383656715320432"><ele>82.0</ele><time>2026-04-30T16:35:16.999Z</time></trkpt><trkpt lat="45.316672249750106" lon="9.383397383524754"><ele>82.0</ele><time>2026-04-30T16:35:17.999Z</time></trkpt><trkpt lat="45.3168202465547" lon="9.383124881585722"><ele>82.0</ele><time>2026-04-30T16:35:18.999Z</time></trkpt><trkpt lat="45.31699394192509" lon="9.382886416533667"><ele>82.0</ele><time>2026-04-30T16:35:19.999Z</time></trkpt><trkpt lat="45.31715745422504" lon="9.382636582121625"><ele>82.0</ele><time>2026-04-30T16:35:20.999Z</time></trkpt><trkpt lat="45.31732671773905" lon="9.382384642423522"><ele>82.0</ele><time>2026-04-30T16:35:21.999Z</time></trkpt><trkpt lat="45.317479936438325" lon="9.382129161165143"><ele>82.0</ele><time>2026-04-30T16:35:22.999Z</time></trkpt><trkpt lat="45.317646372004695" lon="9.381879284456463"><ele>82.0</ele><time>2026-04-30T16:35:23.999Z</time></trkpt><trkpt lat="45.31780325676607" lon="9.381619904050027"><ele>82.0</ele><time>2026-04-30T16:35:24.999Z</time></trkpt><trkpt lat="45.31798198074162" lon="9.381387130491568"><ele>82.5</ele><time>2026-04-30T16:35:25.999Z</time></trkpt><trkpt lat="45.31815416331297" lon="9.381141918458988"><ele>83.0</ele><time>2026-04-30T16:35:26.999Z</time></trkpt><trkpt lat="45.318318760409014" lon="9.38089447136904"><ele>83.0</ele><time>2026-04-30T16:35:27.999Z</time></trkpt><trkpt lat="45.31846196596752" lon="9.380615984077936"><ele>83.0</ele><time>2026-04-30T16:35:28.999Z</time></trkpt><trkpt lat="45.318612041813054" lon="9.38033903221514"><ele>82.5</ele><time>2026-04-30T16:35:29.999Z</time></trkpt><trkpt lat="45.31878003625128" lon="9.380112788102357"><ele>82.0</ele><time>2026-04-30T16:35:30.999Z</time></trkpt><trkpt lat="45.31894442010077" lon="9.379875791872001"><ele>83.0</ele><time>2026-04-30T16:35:31.999Z</time></trkpt><trkpt lat="45.319091826908654" lon="9.379624869807303"><ele>84.0</ele><time>2026-04-30T16:35:32.999Z</time></trkpt><trkpt lat="45.31926766921456" lon="9.379382067340138"><ele>84.0</ele><time>2026-04-30T16:35:33.999Z</time></trkpt><trkpt lat="45.319428574463245" lon="9.379137807878182"><ele>84.0</ele><time>2026-04-30T16:35:34.999Z</time></trkpt><trkpt lat="45.3196138416347" lon="9.378901615315595"><ele>84.0</ele><time>2026-04-30T16:35:35.999Z</time></trkpt><trkpt lat="45.31978075855284" lon="9.378677147249508"><ele>84.0</ele><time>2026-04-30T16:35:36.999Z</time></trkpt><trkpt lat="45.31993835465985" lon="9.378412565960668"><ele>84.0</ele><time>2026-04-30T16:35:37.999Z</time></trkpt><trkpt lat="45.32008350642005" lon="9.378141017177441"><ele>84.0</ele><time>2026-04-30T16:35:38.999Z</time></trkpt><trkpt lat="45.3202396272507" lon="9.377897790606616"><ele>84.0</ele><time>2026-04-30T16:35:39.999Z</time></trkpt><trkpt lat="45.320406561950605" lon="9.377642572983175"><ele>84.0</ele><time>2026-04-30T16:35:40.999Z</time></trkpt><trkpt lat="45.32056918878748" lon="9.377376952856809"><ele>84.5</ele><time>2026-04-30T16:35:41.999Z</time></trkpt><trkpt lat="45.320744274574935" lon="9.377132640115688"><ele>85.0</ele><time>2026-04-30T16:35:42.999Z</time></trkpt><trkpt lat="45.32093554652727" lon="9.376887833394095"><ele>85.0</ele><time>2026-04-30T16:35:43.999Z</time></trkpt><trkpt lat="45.32110432449895" lon="9.376620336471117"><ele>85.0</ele><time>2026-04-30T16:35:44.999Z</time></trkpt><trkpt lat="45.321251156570526" lon="9.376361198282009"><ele>84.5</ele><time>2026-04-30T16:35:45.999Z</time></trkpt><trkpt lat="45.321400258455654" lon="9.3760777240796"><ele>84.0</ele><time>2026-04-30T16:35:46.999Z</time></trkpt><trkpt lat="45.321568755181836" lon="9.375841063688286"><ele>84.0</ele><time>2026-04-30T16:35:47.999Z</time></trkpt><trkpt lat="45.32173822331404" lon="9.37559835064545"><ele>84.0</ele><time>2026-04-30T16:35:48.999Z</time></trkpt><trkpt lat="45.3219069593082" lon="9.37532716579752"><ele>84.0</ele><time>2026-04-30T16:35:49.999Z</time></trkpt><trkpt lat="45.32208037551577" lon="9.375079867702672"><ele>84.0</ele><time>2026-04-30T16:35:50.999Z</time></trkpt><trkpt lat="45.322237074437425" lon="9.374796317197513"><ele>84.0</ele><time>2026-04-30T16:35:51.999Z</time></trkpt><trkpt lat="45.3224148344571" lon="9.374539944675298"><ele>84.0</ele><time>2026-04-30T16:35:52.999Z</time></trkpt><trkpt lat="45.32260747472032" lon="9.374309264604243"><ele>84.0</ele><time>2026-04-30T16:35:53.999Z</time></trkpt><trkpt lat="45.32278605785549" lon="9.374069674427885"><ele>84.0</ele><time>2026-04-30T16:35:54.999Z</time></trkpt><trkpt lat="45.32293890996153" lon="9.373795299089064"><ele>83.5</ele><time>2026-04-30T16:35:55.999Z</time></trkpt><trkpt lat="45.32310726780502" lon="9.373545279561995"><ele>83.0</ele><time>2026-04-30T16:35:56.999Z</time></trkpt><trkpt lat="45.323272033" lon="9.373295878151264"><ele>83.0</ele><time>2026-04-30T16:35:57.999Z</time></trkpt><trkpt lat="45.32347091232499" lon="9.373069378290504"><ele>83.0</ele><time>2026-04-30T16:35:58.999Z</time></trkpt><trkpt lat="45.32362433985207" lon="9.372804321595812"><ele>82.5</ele><time>2026-04-30T16:35:59.999Z</time></trkpt><trkpt lat="45.32380575587691" lon="9.372590860289543"><ele>82.0</ele><time>2026-04-30T16:36:00.999Z</time></trkpt><trkpt lat="45.32396252533558" lon="9.372332090115032"><ele>83.5</ele><time>2026-04-30T16:36:01.999Z</time></trkpt><trkpt lat="45.32411202380588" lon="9.372070166437718"><ele>85.0</ele><time>2026-04-30T16:36:02.999Z</time></trkpt><trkpt lat="45.32427549711254" lon="9.371810323606132"><ele>85.0</ele><time>2026-04-30T16:36:03.999Z</time></trkpt><trkpt lat="45.324424639513765" lon="9.371540104950235"><ele>85.0</ele><time>2026-04-30T16:36:04.999Z</time></trkpt><trkpt lat="45.324580688278296" lon="9.371283571099939"><ele>83.5</ele><time>2026-04-30T16:36:05.999Z</time></trkpt><trkpt lat="45.324755813454885" lon="9.371030874884172"><ele>82.0</ele><time>2026-04-30T16:36:06.999Z</time></trkpt><trkpt lat="45.324913577250754" lon="9.370770114548783"><ele>82.0</ele><time>2026-04-30T16:36:07.999Z</time></trkpt><trkpt lat="45.32509165484777" lon="9.370510053907342"><ele>82.0</ele><time>2026-04-30T16:36:08.999Z</time></trkpt><trkpt lat="45.32526272242904" lon="9.370249465832554"><ele>82.0</ele><time>2026-04-30T16:36:09.999Z</time></trkpt><trkpt lat="45.32545144407092" lon="9.370018297025172"><ele>82.0</ele><time>2026-04-30T16:36:10.999Z</time></trkpt><trkpt lat="45.32563483280617" lon="9.36976462570695"><ele>82.5</ele><time>2026-04-30T16:36:11.999Z</time></trkpt><trkpt lat="45.32581771987375" lon="9.369548095302822"><ele>83.0</ele><time>2026-04-30T16:36:12.999Z</time></trkpt><trkpt lat="45.325991783651844" lon="9.369309162156734"><ele>83.0</ele><time>2026-04-30T16:36:13.999Z</time></trkpt><trkpt lat="45.3261644106336" lon="9.369070069652459"><ele>83.0</ele><time>2026-04-30T16:36:14.999Z</time></trkpt><trkpt lat="45.32633312285737" lon="9.368772330383292"><ele>82.0</ele><time>2026-04-30T16:36:15.999Z</time></trkpt><trkpt lat="45.32649536541094" lon="9.368501956623003"><ele>81.0</ele><time>2026-04-30T16:36:16.998Z</time></trkpt><trkpt lat="45.326655301318446" lon="9.368245415788856"><ele>82.0</ele><time>2026-04-30T16:36:17.998Z</time></trkpt><trkpt lat="45.326809647683476" lon="9.367975535692787"><ele>83.0</ele><time>2026-04-30T16:36:18.998Z</time></trkpt><trkpt lat="45.326970227839105" lon="9.367740016551467"><ele>83.0</ele><time>2026-04-30T16:36:19.998Z</time></trkpt><trkpt lat="45.327106080642366" lon="9.367474606716282"><ele>83.0</ele><time>2026-04-30T16:36:20.998Z</time></trkpt><trkpt lat="45.327269732989635" lon="9.367246737278556"><ele>83.0</ele><time>2026-04-30T16:36:21.998Z</time></trkpt><trkpt lat="45.32744520061523" lon="9.366995992627169"><ele>83.0</ele><time>2026-04-30T16:36:22.998Z</time></trkpt><trkpt lat="45.32759240748746" lon="9.366742746314582"><ele>83.0</ele><time>2026-04-30T16:36:23.998Z</time></trkpt><trkpt lat="45.32775745033888" lon="9.366476379082972"><ele>83.0</ele><time>2026-04-30T16:36:24.998Z</time></trkpt><trkpt lat="45.32790713473898" lon="9.366215253626159"><ele>83.0</ele><time>2026-04-30T16:36:25.998Z</time></trkpt><trkpt lat="45.32805709387225" lon="9.365963701031282"><ele>83.0</ele><time>2026-04-30T16:36:26.998Z</time></trkpt><trkpt lat="45.328208361497204" lon="9.365729172768429"><ele>83.0</ele><time>2026-04-30T16:36:27.998Z</time></trkpt><trkpt lat="45.32833898860274" lon="9.365451111567468"><ele>83.0</ele><time>2026-04-30T16:36:28.998Z</time></trkpt><trkpt lat="45.32850169490404" lon="9.36522348640256"><ele>83.0</ele><time>2026-04-30T16:36:29.998Z</time></trkpt><trkpt lat="45.32867623758736" lon="9.364961054616556"><ele>83.0</ele><time>2026-04-30T16:36:30.998Z</time></trkpt><trkpt lat="45.328850644706456" lon="9.36472590548535"><ele>84.0</ele><time>2026-04-30T16:36:31.998Z</time></trkpt><trkpt lat="45.329012385935904" lon="9.36448263152655"><ele>85.0</ele><time>2026-04-30T16:36:32.998Z</time></trkpt><trkpt lat="45.329190974620296" lon="9.36424154672271"><ele>85.0</ele><time>2026-04-30T16:36:33.998Z</time></trkpt><trkpt lat="45.32934496666037" lon="9.363968364321336"><ele>85.0</ele><time>2026-04-30T16:36:34.998Z</time></trkpt><trkpt lat="45.32953818427772" lon="9.363730326914014"><ele>85.0</ele><time>2026-04-30T16:36:35.998Z</time></trkpt><trkpt lat="45.32968787670659" lon="9.363448011321129"><ele>85.0</ele><time>2026-04-30T16:36:36.998Z</time></trkpt><trkpt lat="45.329839169493575" lon="9.363185766451"><ele>85.5</ele><time>2026-04-30T16:36:37.998Z</time></trkpt><trkpt lat="45.33000342673309" lon="9.362932564178672"><ele>86.0</ele><time>2026-04-30T16:36:38.998Z</time></trkpt><trkpt lat="45.33016603982989" lon="9.362667309946348"><ele>86.0</ele><time>2026-04-30T16:36:39.998Z</time></trkpt><trkpt lat="45.3303372169867" lon="9.362413191289976"><ele>86.0</ele><time>2026-04-30T16:36:40.998Z</time></trkpt><trkpt lat="45.33051125492086" lon="9.36217023316422"><ele>86.0</ele><time>2026-04-30T16:36:41.998Z</time></trkpt><trkpt lat="45.33065077350244" lon="9.361872911996404"><ele>86.0</ele><time>2026-04-30T16:36:42.998Z</time></trkpt><trkpt lat="45.33079226113215" lon="9.36160098288428"><ele>86.0</ele><time>2026-04-30T16:36:43.998Z</time></trkpt><trkpt lat="45.33095960487459" lon="9.361326233337163"><ele>86.0</ele><time>2026-04-30T16:36:44.998Z</time></trkpt><trkpt lat="45.33112035761602" lon="9.361050204641915"><ele>86.0</ele><time>2026-04-30T16:36:45.998Z</time></trkpt><trkpt lat="45.33127780264193" lon="9.360780579930532"><ele>86.0</ele><time>2026-04-30T16:36:46.998Z</time></trkpt><trkpt lat="45.33143675647323" lon="9.360485442739384"><ele>84.5</ele><time>2026-04-30T16:36:47.998Z</time></trkpt><trkpt lat="45.33160119233183" lon="9.36022508471957"><ele>83.0</ele><time>2026-04-30T16:36:48.998Z</time></trkpt><trkpt lat="45.331764883030445" lon="9.359937806045293"><ele>83.5</ele><time>2026-04-30T16:36:49.998Z</time></trkpt><trkpt lat="45.331909586706196" lon="9.35965186839131"><ele>84.0</ele><time>2026-04-30T16:36:50.998Z</time></trkpt><trkpt lat="45.332092919490144" lon="9.359383918108872"><ele>84.0</ele><time>2026-04-30T16:36:51.998Z</time></trkpt><trkpt lat="45.33223103826542" lon="9.359058311022176"><ele>84.0</ele><time>2026-04-30T16:36:52.998Z</time></trkpt><trkpt lat="45.332393315144145" lon="9.358751147128974"><ele>84.5</ele><time>2026-04-30T16:36:53.998Z</time></trkpt><trkpt lat="45.33254909395287" lon="9.358464307749705"><ele>85.0</ele><time>2026-04-30T16:36:54.998Z</time></trkpt><trkpt lat="45.33266670243391" lon="9.358168888413868"><ele>83.5</ele><time>2026-04-30T16:36:55.998Z</time></trkpt><trkpt lat="45.3328066926994" lon="9.357849614127995"><ele>82.0</ele><time>2026-04-30T16:36:56.998Z</time></trkpt><trkpt lat="45.33294722580218" lon="9.357519307675267"><ele>82.0</ele><time>2026-04-30T16:36:57.998Z</time></trkpt><trkpt lat="45.33309657009287" lon="9.357232697235279"><ele>82.0</ele><time>2026-04-30T16:36:58.998Z</time></trkpt><trkpt lat="45.33326135433386" lon="9.356925049660816"><ele>81.0</ele><time>2026-04-30T16:36:59.998Z</time></trkpt><trkpt lat="45.333395105600566" lon="9.356610456326932"><ele>80.0</ele><time>2026-04-30T16:37:00.998Z</time></trkpt><trkpt lat="45.33353498114133" lon="9.356307519201124"><ele>79.5</ele><time>2026-04-30T16:37:01.998Z</time></trkpt><trkpt lat="45.3336441863294" lon="9.35598157416719"><ele>79.0</ele><time>2026-04-30T16:37:02.998Z</time></trkpt><trkpt lat="45.333768319614784" lon="9.355649188294942"><ele>80.0</ele><time>2026-04-30T16:37:03.998Z</time></trkpt><trkpt lat="45.333897996701985" lon="9.355289377455996"><ele>81.0</ele><time>2026-04-30T16:37:04.998Z</time></trkpt><trkpt lat="45.3340114075622" lon="9.354958079499147"><ele>81.0</ele><time>2026-04-30T16:37:05.998Z</time></trkpt><trkpt lat="45.33411500521074" lon="9.3546436888604"><ele>81.0</ele><time>2026-04-30T16:37:06.998Z</time></trkpt><trkpt lat="45.33422412075947" lon="9.354316304621074"><ele>81.0</ele><time>2026-04-30T16:37:07.998Z</time></trkpt><trkpt lat="45.33433714877484" lon="9.354000454799383"><ele>81.0</ele><time>2026-04-30T16:37:08.998Z</time></trkpt><trkpt lat="45.334435376357675" lon="9.353671151758682"><ele>80.5</ele><time>2026-04-30T16:37:09.998Z</time></trkpt><trkpt lat="45.334508961999234" lon="9.353324802676006"><ele>80.0</ele><time>2026-04-30T16:37:10.998Z</time></trkpt><trkpt lat="45.33460032328411" lon="9.352994290198264"><ele>79.5</ele><time>2026-04-30T16:37:11.998Z</time></trkpt><trkpt lat="45.33465151042132" lon="9.352648918333891"><ele>79.0</ele><time>2026-04-30T16:37:12.998Z</time></trkpt><trkpt lat="45.33475933228751" lon="9.352343421937867"><ele>79.0</ele><time>2026-04-30T16:37:13.998Z</time></trkpt><trkpt lat="45.33487000914568" lon="9.352030209284754"><ele>79.0</ele><time>2026-04-30T16:37:14.998Z</time></trkpt><trkpt lat="45.33494823682425" lon="9.351730934254501"><ele>79.0</ele><time>2026-04-30T16:37:15.998Z</time></trkpt><trkpt lat="45.335034813665615" lon="9.351418091355088"><ele>79.0</ele><time>2026-04-30T16:37:16.998Z</time></trkpt><trkpt lat="45.33510615261913" lon="9.351070879237223"><ele>79.5</ele><time>2026-04-30T16:37:17.998Z</time></trkpt><trkpt lat="45.33516409642124" lon="9.35073947549395"><ele>80.0</ele><time>2026-04-30T16:37:18.998Z</time></trkpt><trkpt lat="45.335237811509366" lon="9.350399114105176"><ele>80.0</ele><time>2026-04-30T16:37:19.998Z</time></trkpt><trkpt lat="45.33532079599426" lon="9.350075228806356"><ele>80.0</ele><time>2026-04-30T16:37:20.998Z</time></trkpt><trkpt lat="45.33540811776956" lon="9.349749935924939"><ele>79.5</ele><time>2026-04-30T16:37:21.998Z</time></trkpt><trkpt lat="45.335473699962826" lon="9.349414271438057"><ele>79.0</ele><time>2026-04-30T16:37:22.998Z</time></trkpt><trkpt lat="45.3355436523608" lon="9.349082110008187"><ele>79.5</ele><time>2026-04-30T16:37:23.998Z</time></trkpt><trkpt lat="45.3355918065085" lon="9.348735124154473"><ele>80.0</ele><time>2026-04-30T16:37:24.998Z</time></trkpt><trkpt lat="45.33562673571643" lon="9.348400409531184"><ele>80.0</ele><time>2026-04-30T16:37:25.998Z</time></trkpt><trkpt lat="45.3356904883868" lon="9.348057044552592"><ele>80.0</ele><time>2026-04-30T16:37:26.998Z</time></trkpt><trkpt lat="45.335737309671806" lon="9.347710596813736"><ele>80.0</ele><time>2026-04-30T16:37:27.998Z</time></trkpt><trkpt lat="45.33580228142549" lon="9.347364128474817"><ele>80.0</ele><time>2026-04-30T16:37:28.998Z</time></trkpt><trkpt lat="45.335836078724014" lon="9.347009573781296"><ele>79.5</ele><time>2026-04-30T16:37:29.998Z</time></trkpt><trkpt lat="45.33587691989343" lon="9.346660443662785"><ele>79.0</ele><time>2026-04-30T16:37:30.998Z</time></trkpt><trkpt lat="45.33593538422545" lon="9.346322132137798"><ele>79.0</ele><time>2026-04-30T16:37:31.998Z</time></trkpt><trkpt lat="45.33600775216042" lon="9.34597482557167"><ele>79.0</ele><time>2026-04-30T16:37:32.998Z</time></trkpt><trkpt lat="45.33605328276656" lon="9.345637496733637"><ele>79.0</ele><time>2026-04-30T16:37:33.998Z</time></trkpt><trkpt lat="45.336099451438024" lon="9.345316612304824"><ele>79.0</ele><time>2026-04-30T16:37:34.998Z</time></trkpt><trkpt lat="45.33614166033868" lon="9.34500271631318"><ele>78.5</ele><time>2026-04-30T16:37:35.998Z</time></trkpt><trkpt lat="45.336178927975624" lon="9.344649664396211"><ele>78.0</ele><time>2026-04-30T16:37:36.998Z</time></trkpt><trkpt lat="45.33622880766595" lon="9.344319537035142"><ele>78.0</ele><time>2026-04-30T16:37:37.998Z</time></trkpt><trkpt lat="45.336265128630814" lon="9.34397684205447"><ele>78.0</ele><time>2026-04-30T16:37:38.998Z</time></trkpt><trkpt lat="45.33630923620039" lon="9.34364499556792"><ele>77.5</ele><time>2026-04-30T16:37:39.998Z</time></trkpt><trkpt lat="45.33636254800757" lon="9.343301821212021"><ele>77.0</ele><time>2026-04-30T16:37:40.998Z</time></trkpt><trkpt lat="45.336401037423556" lon="9.342935956505606"><ele>77.0</ele><time>2026-04-30T16:37:41.998Z</time></trkpt><trkpt lat="45.33645729828519" lon="9.34259228700457"><ele>77.0</ele><time>2026-04-30T16:37:42.998Z</time></trkpt><trkpt lat="45.33649486362793" lon="9.342248317040408"><ele>76.5</ele><time>2026-04-30T16:37:43.998Z</time></trkpt><trkpt lat="45.336565760360216" lon="9.34192526886879"><ele>76.0</ele><time>2026-04-30T16:37:44.998Z</time></trkpt><trkpt lat="45.33661659426044" lon="9.341603529452364"><ele>74.5</ele><time>2026-04-30T16:37:45.997Z</time></trkpt><trkpt lat="45.33666214563579" lon="9.341271288154019"><ele>73.0</ele><time>2026-04-30T16:37:46.997Z</time></trkpt><trkpt lat="45.33670527210511" lon="9.34091446819821"><ele>73.0</ele><time>2026-04-30T16:37:47.997Z</time></trkpt><trkpt lat="45.33676647658693" lon="9.340585270084588"><ele>73.0</ele><time>2026-04-30T16:37:48.997Z</time></trkpt><trkpt lat="45.33679782873006" lon="9.340236958580237"><ele>74.0</ele><time>2026-04-30T16:37:49.997Z</time></trkpt><trkpt lat="45.336854180851425" lon="9.33988156443348"><ele>75.0</ele><time>2026-04-30T16:37:50.997Z</time></trkpt><trkpt lat="45.336911627430304" lon="9.339537056856068"><ele>77.0</ele><time>2026-04-30T16:37:51.997Z</time></trkpt><trkpt lat="45.33695484899415" lon="9.339185215846973"><ele>79.0</ele><time>2026-04-30T16:37:52.997Z</time></trkpt><trkpt lat="45.33699988973198" lon="9.33885218355965"><ele>80.5</ele><time>2026-04-30T16:37:53.997Z</time></trkpt><trkpt lat="45.337034406641074" lon="9.338518589560124"><ele>82.0</ele><time>2026-04-30T16:37:54.997Z</time></trkpt><trkpt lat="45.33706647373189" lon="9.338173288700167"><ele>83.0</ele><time>2026-04-30T16:37:55.997Z</time></trkpt><trkpt lat="45.33713045825533" lon="9.33785223290221"><ele>84.0</ele><time>2026-04-30T16:37:56.997Z</time></trkpt><trkpt lat="45.337193714935545" lon="9.33752129498329"><ele>84.0</ele><time>2026-04-30T16:37:57.997Z</time></trkpt><trkpt lat="45.33724563916852" lon="9.337183176535495"><ele>84.0</ele><time>2026-04-30T16:37:58.997Z</time></trkpt><trkpt lat="45.33729819584954" lon="9.336838746064203"><ele>84.0</ele><time>2026-04-30T16:37:59.997Z</time></trkpt><trkpt lat="45.337355334793116" lon="9.33650696080913"><ele>84.0</ele><time>2026-04-30T16:38:00.997Z</time></trkpt><trkpt lat="45.33739002676019" lon="9.336150100541305"><ele>84.0</ele><time>2026-04-30T16:38:01.997Z</time></trkpt><trkpt lat="45.33744753914225" lon="9.33581152226477"><ele>84.0</ele><time>2026-04-30T16:38:02.997Z</time></trkpt><trkpt lat="45.33748441182384" lon="9.33549325508159"><ele>83.5</ele><time>2026-04-30T16:38:03.997Z</time></trkpt><trkpt lat="45.33754241523062" lon="9.33519843100561"><ele>83.0</ele><time>2026-04-30T16:38:04.997Z</time></trkpt><trkpt lat="45.33758626780322" lon="9.334856287582111"><ele>83.5</ele><time>2026-04-30T16:38:05.997Z</time></trkpt><trkpt lat="45.33764302752716" lon="9.334533988202756"><ele>84.0</ele><time>2026-04-30T16:38:06.997Z</time></trkpt><trkpt lat="45.33770404249163" lon="9.33418577188163"><ele>84.0</ele><time>2026-04-30T16:38:07.997Z</time></trkpt><trkpt lat="45.337810037674565" lon="9.333863685945646"><ele>84.0</ele><time>2026-04-30T16:38:08.997Z</time></trkpt><trkpt lat="45.33785634386702" lon="9.333517630574464"><ele>84.0</ele><time>2026-04-30T16:38:09.997Z</time></trkpt><trkpt lat="45.33789471823704" lon="9.333151022009782"><ele>84.0</ele><time>2026-04-30T16:38:10.997Z</time></trkpt><trkpt lat="45.337939522638294" lon="9.332816410400099"><ele>83.5</ele><time>2026-04-30T16:38:11.997Z</time></trkpt><trkpt lat="45.33799176133672" lon="9.332484343809814"><ele>83.0</ele><time>2026-04-30T16:38:12.997Z</time></trkpt><trkpt lat="45.33803404402087" lon="9.332158603286258"><ele>84.5</ele><time>2026-04-30T16:38:13.997Z</time></trkpt><trkpt lat="45.3380875742821" lon="9.331819405267817"><ele>86.0</ele><time>2026-04-30T16:38:14.997Z</time></trkpt><trkpt lat="45.33811909433918" lon="9.331513135863778"><ele>86.5</ele><time>2026-04-30T16:38:15.997Z</time></trkpt><trkpt lat="45.33814673015707" lon="9.331195150164458"><ele>87.0</ele><time>2026-04-30T16:38:16.997Z</time></trkpt><trkpt lat="45.338192434726935" lon="9.33087232373224"><ele>87.0</ele><time>2026-04-30T16:38:17.997Z</time></trkpt><trkpt lat="45.338263328460386" lon="9.330513988690335"><ele>87.0</ele><time>2026-04-30T16:38:18.997Z</time></trkpt><trkpt lat="45.338323411269954" lon="9.330185651325364"><ele>87.0</ele><time>2026-04-30T16:38:19.997Z</time></trkpt><trkpt lat="45.33839178676833" lon="9.3298287402648"><ele>87.0</ele><time>2026-04-30T16:38:20.997Z</time></trkpt><trkpt lat="45.33846687938013" lon="9.329453287620025"><ele>87.5</ele><time>2026-04-30T16:38:21.997Z</time></trkpt><trkpt lat="45.338523513045764" lon="9.3290978616972"><ele>88.0</ele><time>2026-04-30T16:38:22.997Z</time></trkpt><trkpt lat="45.33859860772067" lon="9.328756425433683"><ele>87.0</ele><time>2026-04-30T16:38:23.997Z</time></trkpt><trkpt lat="45.33867812574452" lon="9.328444353933154"><ele>86.0</ele><time>2026-04-30T16:38:24.997Z</time></trkpt><trkpt lat="45.33875431763794" lon="9.328140236935397"><ele>86.0</ele><time>2026-04-30T16:38:25.997Z</time></trkpt><trkpt lat="45.33882905720998" lon="9.327811277685365"><ele>86.0</ele><time>2026-04-30T16:38:26.997Z</time></trkpt><trkpt lat="45.33894187038729" lon="9.327537861600069"><ele>86.0</ele><time>2026-04-30T16:38:27.997Z</time></trkpt><trkpt lat="45.33902535851926" lon="9.327220007929318"><ele>86.0</ele><time>2026-04-30T16:38:28.997Z</time></trkpt><trkpt lat="45.33908270136897" lon="9.326881542974446"><ele>86.0</ele><time>2026-04-30T16:38:29.997Z</time></trkpt><trkpt lat="45.33917375352695" lon="9.326556698149163"><ele>86.0</ele><time>2026-04-30T16:38:30.997Z</time></trkpt><trkpt lat="45.33927185002124" lon="9.326215215242403"><ele>87.0</ele><time>2026-04-30T16:38:31.997Z</time></trkpt><trkpt lat="45.339371487521106" lon="9.325882419931823"><ele>88.0</ele><time>2026-04-30T16:38:32.997Z</time></trkpt><trkpt lat="45.339479613026676" lon="9.325535089195585"><ele>88.0</ele><time>2026-04-30T16:38:33.997Z</time></trkpt><trkpt lat="45.33956896830884" lon="9.32521259004817"><ele>88.0</ele><time>2026-04-30T16:38:34.997Z</time></trkpt><trkpt lat="45.33967049515895" lon="9.324907519384576"><ele>88.5</ele><time>2026-04-30T16:38:35.997Z</time></trkpt><trkpt lat="45.33978207234794" lon="9.324612519453742"><ele>89.0</ele><time>2026-04-30T16:38:36.997Z</time></trkpt><trkpt lat="45.33988727100648" lon="9.324323871541793"><ele>89.0</ele><time>2026-04-30T16:38:37.997Z</time></trkpt><trkpt lat="45.33998453573146" lon="9.324016382819657"><ele>89.0</ele><time>2026-04-30T16:38:38.997Z</time></trkpt><trkpt lat="45.34009957733467" lon="9.323740298265186"><ele>88.5</ele><time>2026-04-30T16:38:39.997Z</time></trkpt><trkpt lat="45.340210295818714" lon="9.323437542209822"><ele>88.0</ele><time>2026-04-30T16:38:40.997Z</time></trkpt><trkpt lat="45.34032392433696" lon="9.323161569590138"><ele>88.0</ele><time>2026-04-30T16:38:41.997Z</time></trkpt><trkpt lat="45.34043764062581" lon="9.322910006801505"><ele>88.0</ele><time>2026-04-30T16:38:42.997Z</time></trkpt><trkpt lat="45.34054036373617" lon="9.322623001591932"><ele>88.0</ele><time>2026-04-30T16:38:43.997Z</time></trkpt><trkpt lat="45.340661477072246" lon="9.322364898262231"><ele>88.66666666666666</ele><time>2026-04-30T16:38:44.997Z</time></trkpt><trkpt lat="45.34077470428265" lon="9.322097132050098"><ele>89.33333333333333</ele><time>2026-04-30T16:38:45.997Z</time></trkpt><trkpt lat="45.34087966458447" lon="9.32182035170398"><ele>90.0</ele><time>2026-04-30T16:38:46.997Z</time></trkpt><trkpt lat="45.34099267468566" lon="9.321547452716572"><ele>90.5</ele><time>2026-04-30T16:38:47.997Z</time></trkpt><trkpt lat="45.34113856457875" lon="9.321286709218514"><ele>91.0</ele><time>2026-04-30T16:38:48.997Z</time></trkpt><trkpt lat="45.34127662575026" lon="9.321002872773"><ele>90.0</ele><time>2026-04-30T16:38:49.997Z</time></trkpt><trkpt lat="45.3414095246162" lon="9.320716167129971"><ele>89.0</ele><time>2026-04-30T16:38:50.997Z</time></trkpt><trkpt lat="45.34154034595279" lon="9.32042072329293"><ele>89.0</ele><time>2026-04-30T16:38:51.997Z</time></trkpt><trkpt lat="45.34168015831033" lon="9.320141853542168"><ele>89.0</ele><time>2026-04-30T16:38:52.997Z</time></trkpt><trkpt lat="45.34183751822771" lon="9.319863557182687"><ele>89.0</ele><time>2026-04-30T16:38:53.997Z</time></trkpt><trkpt lat="45.3420060477005" lon="9.319594179169437"><ele>89.0</ele><time>2026-04-30T16:38:54.997Z</time></trkpt><trkpt lat="45.34217737268052" lon="9.319324652672185"><ele>88.5</ele><time>2026-04-30T16:38:55.997Z</time></trkpt><trkpt lat="45.34232127809572" lon="9.319032542782857"><ele>88.0</ele><time>2026-04-30T16:38:56.997Z</time></trkpt><trkpt lat="45.342453978656124" lon="9.318755335039171"><ele>89.5</ele><time>2026-04-30T16:38:57.997Z</time></trkpt><trkpt lat="45.34261147456141" lon="9.318487859888002"><ele>91.0</ele><time>2026-04-30T16:38:58.997Z</time></trkpt><trkpt lat="45.34277764487609" lon="9.31822200885785"><ele>92.0</ele><time>2026-04-30T16:38:59.997Z</time></trkpt><trkpt lat="45.342943862372906" lon="9.317979589015444"><ele>93.0</ele><time>2026-04-30T16:39:00.997Z</time></trkpt><trkpt lat="45.34310862867339" lon="9.317717302151436"><ele>91.0</ele><time>2026-04-30T16:39:01.997Z</time></trkpt><trkpt lat="45.343264993618064" lon="9.317468375049351"><ele>89.0</ele><time>2026-04-30T16:39:02.997Z</time></trkpt><trkpt lat="45.34342889910854" lon="9.317236144200185"><ele>89.0</ele><time>2026-04-30T16:39:03.997Z</time></trkpt><trkpt lat="45.34359103388157" lon="9.316993698458809"><ele>89.0</ele><time>2026-04-30T16:39:04.997Z</time></trkpt><trkpt lat="45.34371987896957" lon="9.316746842056832"><ele>89.0</ele><time>2026-04-30T16:39:05.997Z</time></trkpt><trkpt lat="45.34385276069254" lon="9.316486483801043"><ele>89.0</ele><time>2026-04-30T16:39:06.997Z</time></trkpt><trkpt lat="45.34401917925479" lon="9.31626889737263"><ele>89.0</ele><time>2026-04-30T16:39:07.997Z</time></trkpt><trkpt lat="45.344187712639446" lon="9.316043765986603"><ele>89.0</ele><time>2026-04-30T16:39:08.997Z</time></trkpt><trkpt lat="45.344358955115524" lon="9.315813396949059"><ele>89.0</ele><time>2026-04-30T16:39:09.997Z</time></trkpt><trkpt lat="45.34456700856209" lon="9.315608717023167"><ele>89.0</ele><time>2026-04-30T16:39:10.997Z</time></trkpt><trkpt lat="45.34475483917615" lon="9.315383483970942"><ele>89.5</ele><time>2026-04-30T16:39:11.997Z</time></trkpt><trkpt lat="45.34493477299129" lon="9.315183334040807"><ele>90.0</ele><time>2026-04-30T16:39:12.997Z</time></trkpt><trkpt lat="45.34511796914858" lon="9.314951049684534"><ele>89.5</ele><time>2026-04-30T16:39:13.996Z</time></trkpt><trkpt lat="45.34529760983498" lon="9.314737643945485"><ele>89.0</ele><time>2026-04-30T16:39:14.996Z</time></trkpt><trkpt lat="45.34547781318118" lon="9.3145254613091"><ele>89.33333333333334</ele><time>2026-04-30T16:39:15.996Z</time></trkpt><trkpt lat="45.345640606591374" lon="9.314333994184109"><ele>89.66666666666667</ele><time>2026-04-30T16:39:16.996Z</time></trkpt><trkpt lat="45.34582359685803" lon="9.31413672186126"><ele>90.0</ele><time>2026-04-30T16:39:17.996Z</time></trkpt><trkpt lat="45.34598184399419" lon="9.31392495179316"><ele>89.5</ele><time>2026-04-30T16:39:18.996Z</time></trkpt><trkpt lat="45.34616757101544" lon="9.313733374409905"><ele>89.0</ele><time>2026-04-30T16:39:19.996Z</time></trkpt><trkpt lat="45.34635692816041" lon="9.31355056732798"><ele>89.0</ele><time>2026-04-30T16:39:20.996Z</time></trkpt><trkpt lat="45.346524220991874" lon="9.313370671506476"><ele>89.0</ele><time>2026-04-30T16:39:21.996Z</time></trkpt><trkpt lat="45.34669791394861" lon="9.313168665624682"><ele>89.0</ele><time>2026-04-30T16:39:22.996Z</time></trkpt><trkpt lat="45.34687133127684" lon="9.312990494419466"><ele>89.0</ele><time>2026-04-30T16:39:23.996Z</time></trkpt><trkpt lat="45.34703473205703" lon="9.312801775760459"><ele>89.0</ele><time>2026-04-30T16:39:24.996Z</time></trkpt><trkpt lat="45.3471849952927" lon="9.312599024257269"><ele>89.0</ele><time>2026-04-30T16:39:25.996Z</time></trkpt><trkpt lat="45.34734516188397" lon="9.312442811392927"><ele>89.0</ele><time>2026-04-30T16:39:26.996Z</time></trkpt><trkpt lat="45.34748701944574" lon="9.312282390577513"><ele>89.0</ele><time>2026-04-30T16:39:27.996Z</time></trkpt><trkpt lat="45.34758882119492" lon="9.312114203976195"><ele>89.0</ele><time>2026-04-30T16:39:28.996Z</time></trkpt><trkpt lat="45.3477014853414" lon="9.311937344612161"><ele>89.0</ele><time>2026-04-30T16:39:29.996Z</time></trkpt><trkpt lat="45.347884471223956" lon="9.311761162934943"><ele>89.0</ele><time>2026-04-30T16:39:30.996Z</time></trkpt><trkpt lat="45.34802472452828" lon="9.3116167363409"><ele>89.0</ele><time>2026-04-30T16:39:31.996Z</time></trkpt><trkpt lat="45.34815909446071" lon="9.31144206168528"><ele>89.0</ele><time>2026-04-30T16:39:32.996Z</time></trkpt><trkpt lat="45.3482901245941" lon="9.311297561953058"><ele>89.0</ele><time>2026-04-30T16:39:33.996Z</time></trkpt><trkpt lat="45.34841906900429" lon="9.311155999970842"><ele>89.0</ele><time>2026-04-30T16:39:34.996Z</time></trkpt><trkpt lat="45.34849651440048" lon="9.311022974779977"><ele>89.0</ele><time>2026-04-30T16:39:35.996Z</time></trkpt><trkpt lat="45.348634381364974" lon="9.31097147919191"><ele>89.0</ele><time>2026-04-30T16:39:36.996Z</time></trkpt><trkpt lat="45.34874991159149" lon="9.31087057616588"><ele>89.0</ele><time>2026-04-30T16:39:37.996Z</time></trkpt><trkpt lat="45.348856719048634" lon="9.310786936289578"><ele>89.0</ele><time>2026-04-30T16:39:38.996Z</time></trkpt><trkpt lat="45.34892904239159" lon="9.31065398509883"><ele>89.80000000000001</ele><time>2026-04-30T16:39:39.996Z</time></trkpt><trkpt lat="45.34902413455359" lon="9.310564403354057"><ele>90.60000000000001</ele><time>2026-04-30T16:39:40.996Z</time></trkpt><trkpt lat="45.349099504020494" lon="9.310477295464025"><ele>91.4</ele><time>2026-04-30T16:39:41.996Z</time></trkpt><trkpt lat="45.34918692878352" lon="9.31040743025167"><ele>92.2</ele><time>2026-04-30T16:39:42.996Z</time></trkpt><trkpt lat="45.34927481712647" lon="9.310326726351732"><ele>93.0</ele><time>2026-04-30T16:39:43.996Z</time></trkpt><trkpt lat="45.349323023839126" lon="9.310260873914174"><ele>93.0</ele><time>2026-04-30T16:39:45.002Z</time></trkpt><trkpt lat="45.34941176878225" lon="9.310169315346089"><ele>93.0</ele><time>2026-04-30T16:39:47.002Z</time></trkpt><trkpt lat="45.34945306892544" lon="9.31009844201149"><ele>93.0</ele><time>2026-04-30T16:39:50.002Z</time></trkpt><trkpt lat="45.34954601865112" lon="9.309985385755779"><ele>93.0</ele><time>2026-04-30T16:40:47.999Z</time></trkpt><trkpt lat="45.34962720966611" lon="9.30991584154574"><ele>93.0</ele><time>2026-04-30T16:40:49.999Z</time></trkpt><trkpt lat="45.34968823084109" lon="9.309847395725683"><ele>92.5</ele><time>2026-04-30T16:40:50.999Z</time></trkpt><trkpt lat="45.349768522469" lon="9.309745622183005"><ele>92.0</ele><time>2026-04-30T16:40:51.999Z</time></trkpt><trkpt lat="45.349859324248136" lon="9.30962527588458"><ele>91.5</ele><time>2026-04-30T16:40:52.999Z</time></trkpt><trkpt lat="45.3499754993081" lon="9.309495271486913"><ele>91.0</ele><time>2026-04-30T16:40:53.999Z</time></trkpt><trkpt lat="45.35009241402288" lon="9.309336307278185"><ele>90.66666666666666</ele><time>2026-04-30T16:40:54.999Z</time></trkpt><trkpt lat="45.350197462916306" lon="9.309175238012205"><ele>90.33333333333333</ele><time>2026-04-30T16:40:55.999Z</time></trkpt><trkpt lat="45.35032741195988" lon="9.30897510649338"><ele>90.0</ele><time>2026-04-30T16:40:56.999Z</time></trkpt><trkpt lat="45.35047703380439" lon="9.308786135986159"><ele>90.33333333333333</ele><time>2026-04-30T16:40:57.999Z</time></trkpt><trkpt lat="45.35061107523089" lon="9.30857635047739"><ele>90.66666666666666</ele><time>2026-04-30T16:40:58.999Z</time></trkpt><trkpt lat="45.350753047367384" lon="9.308382710980219"><ele>91.0</ele><time>2026-04-30T16:40:59.999Z</time></trkpt><trkpt lat="45.350896114990505" lon="9.308192984940446"><ele>90.66666666666666</ele><time>2026-04-30T16:41:00.999Z</time></trkpt><trkpt lat="45.35103348879529" lon="9.307974179581016"><ele>90.33333333333333</ele><time>2026-04-30T16:41:01.999Z</time></trkpt><trkpt lat="45.35120334429697" lon="9.307794792413178"><ele>90.0</ele><time>2026-04-30T16:41:02.999Z</time></trkpt><trkpt lat="45.35136239144654" lon="9.307613438081262"><ele>90.0</ele><time>2026-04-30T16:41:03.999Z</time></trkpt><trkpt lat="45.35153350727388" lon="9.307430992654842"><ele>90.0</ele><time>2026-04-30T16:41:04.999Z</time></trkpt><trkpt lat="45.35171175157416" lon="9.307240167471166"><ele>90.0</ele><time>2026-04-30T16:41:05.999Z</time></trkpt><trkpt lat="45.35188242940053" lon="9.307046140129067"><ele>90.0</ele><time>2026-04-30T16:41:06.999Z</time></trkpt><trkpt lat="45.35206138907562" lon="9.306857935428619"><ele>90.0</ele><time>2026-04-30T16:41:07.999Z</time></trkpt><trkpt lat="45.35223023657456" lon="9.306664814505636"><ele>90.0</ele><time>2026-04-30T16:41:08.999Z</time></trkpt><trkpt lat="45.35238596776483" lon="9.306458796381838"><ele>90.33333333333333</ele><time>2026-04-30T16:41:09.999Z</time></trkpt><trkpt lat="45.352549759147905" lon="9.306279954329822"><ele>90.66666666666666</ele><time>2026-04-30T16:41:10.999Z</time></trkpt><trkpt lat="45.352711090822545" lon="9.306093566822696"><ele>91.0</ele><time>2026-04-30T16:41:11.999Z</time></trkpt><trkpt lat="45.35286471950084" lon="9.305895031522999"><ele>91.0</ele><time>2026-04-30T16:41:12.999Z</time></trkpt><trkpt lat="45.3530253471936" lon="9.305705601473038"><ele>91.0</ele><time>2026-04-30T16:41:13.999Z</time></trkpt><trkpt lat="45.35318990049827" lon="9.305504815996319"><ele>91.0</ele><time>2026-04-30T16:41:14.999Z</time></trkpt><trkpt lat="45.35333101950356" lon="9.305329597301448"><ele>91.0</ele><time>2026-04-30T16:41:15.999Z</time></trkpt><trkpt lat="45.35349345697042" lon="9.305114482028317"><ele>91.0</ele><time>2026-04-30T16:41:16.999Z</time></trkpt><trkpt lat="45.35365298718251" lon="9.304909971967879"><ele>91.0</ele><time>2026-04-30T16:41:17.999Z</time></trkpt><trkpt lat="45.353817890295424" lon="9.304710165174159"><ele>90.0</ele><time>2026-04-30T16:41:18.999Z</time></trkpt><trkpt lat="45.35398339434769" lon="9.304525071898038"><ele>89.0</ele><time>2026-04-30T16:41:19.999Z</time></trkpt><trkpt lat="45.354151725544334" lon="9.304335406698101"><ele>88.0</ele><time>2026-04-30T16:41:20.999Z</time></trkpt><trkpt lat="45.354328563005296" lon="9.30413491161744"><ele>88.0</ele><time>2026-04-30T16:41:21.999Z</time></trkpt><trkpt lat="45.3544948734882" lon="9.303921195110957"><ele>88.0</ele><time>2026-04-30T16:41:22.999Z</time></trkpt><trkpt lat="45.354655377361894" lon="9.303735521851799"><ele>88.0</ele><time>2026-04-30T16:41:23.999Z</time></trkpt><trkpt lat="45.35482211566634" lon="9.303535068171092"><ele>89.5</ele><time>2026-04-30T16:41:24.999Z</time></trkpt><trkpt lat="45.35499323984526" lon="9.303343793699291"><ele>91.0</ele><time>2026-04-30T16:41:25.999Z</time></trkpt><trkpt lat="45.35518360242671" lon="9.303154130111038"><ele>91.0</ele><time>2026-04-30T16:41:26.999Z</time></trkpt><trkpt lat="45.35536584934177" lon="9.302948336835348"><ele>91.0</ele><time>2026-04-30T16:41:27.999Z</time></trkpt><trkpt lat="45.355544688285036" lon="9.302760748152698"><ele>91.0</ele><time>2026-04-30T16:41:28.999Z</time></trkpt><trkpt lat="45.35572387678973" lon="9.302567104965286"><ele>91.0</ele><time>2026-04-30T16:41:29.999Z</time></trkpt><trkpt lat="45.355890178066296" lon="9.302329567307844"><ele>91.5</ele><time>2026-04-30T16:41:30.999Z</time></trkpt><trkpt lat="45.3560682679922" lon="9.302080655714486"><ele>92.0</ele><time>2026-04-30T16:41:31.999Z</time></trkpt><trkpt lat="45.35624981888103" lon="9.30185075441687"><ele>91.5</ele><time>2026-04-30T16:41:32.999Z</time></trkpt><trkpt lat="45.35643841054011" lon="9.301629680007222"><ele>91.0</ele><time>2026-04-30T16:41:33.999Z</time></trkpt><trkpt lat="45.356646159278846" lon="9.301408855288216"><ele>91.0</ele><time>2026-04-30T16:41:34.999Z</time></trkpt><trkpt lat="45.356847871592656" lon="9.301185236673968"><ele>91.0</ele><time>2026-04-30T16:41:35.999Z</time></trkpt><trkpt lat="45.35703366988827" lon="9.300956580944597"><ele>91.0</ele><time>2026-04-30T16:41:36.999Z</time></trkpt><trkpt lat="45.35722624879685" lon="9.300735351550138"><ele>91.0</ele><time>2026-04-30T16:41:37.999Z</time></trkpt><trkpt lat="45.35742893725923" lon="9.300512725343404"><ele>92.5</ele><time>2026-04-30T16:41:38.999Z</time></trkpt><trkpt lat="45.35764106110292" lon="9.300265206703566"><ele>94.0</ele><time>2026-04-30T16:41:39.999Z</time></trkpt><trkpt lat="45.357831874570444" lon="9.30000241127863"><ele>94.0</ele><time>2026-04-30T16:41:40.999Z</time></trkpt><trkpt lat="45.35801691167662" lon="9.299796577928833"><ele>94.0</ele><time>2026-04-30T16:41:41.999Z</time></trkpt><trkpt lat="45.358211139078655" lon="9.299566331649322"><ele>94.0</ele><time>2026-04-30T16:41:42.999Z</time></trkpt><trkpt lat="45.358401680756906" lon="9.29932474696431"><ele>94.0</ele><time>2026-04-30T16:41:43.999Z</time></trkpt><trkpt lat="45.35861136742198" lon="9.299078170397289"><ele>93.0</ele><time>2026-04-30T16:41:44.999Z</time></trkpt><trkpt lat="45.35880497812484" lon="9.298826160989416"><ele>92.0</ele><time>2026-04-30T16:41:45.999Z</time></trkpt><trkpt lat="45.35900659622816" lon="9.298611306371088"><ele>91.5</ele><time>2026-04-30T16:41:46.999Z</time></trkpt><trkpt lat="45.359206522500706" lon="9.298398533507472"><ele>91.0</ele><time>2026-04-30T16:41:47.999Z</time></trkpt><trkpt lat="45.35940577029279" lon="9.298156102839059"><ele>91.0</ele><time>2026-04-30T16:41:48.999Z</time></trkpt><trkpt lat="45.3596014704833" lon="9.297919598660501"><ele>91.0</ele><time>2026-04-30T16:41:49.999Z</time></trkpt><trkpt lat="45.359787414240266" lon="9.297699136044642"><ele>91.0</ele><time>2026-04-30T16:41:50.998Z</time></trkpt><trkpt lat="45.359990289508" lon="9.29747097205127"><ele>91.0</ele><time>2026-04-30T16:41:51.998Z</time></trkpt><trkpt lat="45.360190887458955" lon="9.297257377729997"><ele>91.0</ele><time>2026-04-30T16:41:52.998Z</time></trkpt><trkpt lat="45.36036896014052" lon="9.297057585159386"><ele>91.0</ele><time>2026-04-30T16:41:53.998Z</time></trkpt><trkpt lat="45.36054679212426" lon="9.296834555544711"><ele>91.0</ele><time>2026-04-30T16:41:54.998Z</time></trkpt><trkpt lat="45.360720040527866" lon="9.296615935032682"><ele>91.0</ele><time>2026-04-30T16:41:55.998Z</time></trkpt><trkpt lat="45.36090579831271" lon="9.296419918120192"><ele>91.0</ele><time>2026-04-30T16:41:56.998Z</time></trkpt><trkpt lat="45.36105322115077" lon="9.29624960709351"><ele>91.0</ele><time>2026-04-30T16:41:57.998Z</time></trkpt><trkpt lat="45.36120474592135" lon="9.296054975020017"><ele>91.0</ele><time>2026-04-30T16:41:58.998Z</time></trkpt><trkpt lat="45.36136307470754" lon="9.2959060131493"><ele>91.0</ele><time>2026-04-30T16:41:59.998Z</time></trkpt><trkpt lat="45.36151118980975" lon="9.295753920994498"><ele>91.0</ele><time>2026-04-30T16:42:00.998Z</time></trkpt><trkpt lat="45.3616473579337" lon="9.295591141890036"><ele>91.0</ele><time>2026-04-30T16:42:01.998Z</time></trkpt><trkpt lat="45.361778690231006" lon="9.295433746471504"><ele>91.0</ele><time>2026-04-30T16:42:02.998Z</time></trkpt><trkpt lat="45.36192044107243" lon="9.29528138054497"><ele>91.0</ele><time>2026-04-30T16:42:03.998Z</time></trkpt><trkpt lat="45.36204877828475" lon="9.29512555004635"><ele>91.0</ele><time>2026-04-30T16:42:04.998Z</time></trkpt><trkpt lat="45.36218609008304" lon="9.29496696243363"><ele>91.0</ele><time>2026-04-30T16:42:05.998Z</time></trkpt><trkpt lat="45.362307675777345" lon="9.294808977918004"><ele>91.0</ele><time>2026-04-30T16:42:06.998Z</time></trkpt><trkpt lat="45.36242789983859" lon="9.294629277264349"><ele>91.0</ele><time>2026-04-30T16:42:07.998Z</time></trkpt><trkpt lat="45.36255635109462" lon="9.294505892007125"><ele>91.0</ele><time>2026-04-30T16:42:08.998Z</time></trkpt><trkpt lat="45.36267993356463" lon="9.294339291984004"><ele>91.0</ele><time>2026-04-30T16:42:09.998Z</time></trkpt><trkpt lat="45.36278174597607" lon="9.29421093643673"><ele>91.0</ele><time>2026-04-30T16:42:10.998Z</time></trkpt><trkpt lat="45.36289490512053" lon="9.294073845521515"><ele>91.0</ele><time>2026-04-30T16:42:11.998Z</time></trkpt><trkpt lat="45.36300203857075" lon="9.29394973599193"><ele>91.0</ele><time>2026-04-30T16:42:12.998Z</time></trkpt><trkpt lat="45.36312158785996" lon="9.29383630685459"><ele>91.0</ele><time>2026-04-30T16:42:13.998Z</time></trkpt><trkpt lat="45.36325757610714" lon="9.293710472254043"><ele>91.0</ele><time>2026-04-30T16:42:14.998Z</time></trkpt><trkpt lat="45.363381236793266" lon="9.293583422320353"><ele>91.25</ele><time>2026-04-30T16:42:15.998Z</time></trkpt><trkpt lat="45.36349301817279" lon="9.293443532507979"><ele>91.5</ele><time>2026-04-30T16:42:16.998Z</time></trkpt><trkpt lat="45.363596979491334" lon="9.293306659197848"><ele>91.75</ele><time>2026-04-30T16:42:17.998Z</time></trkpt><trkpt lat="45.363712673246695" lon="9.293200325669943"><ele>92.0</ele><time>2026-04-30T16:42:18.998Z</time></trkpt><trkpt lat="45.36380308610915" lon="9.293088030980702"><ele>91.8</ele><time>2026-04-30T16:42:19.998Z</time></trkpt><trkpt lat="45.36389483319595" lon="9.292978157410351"><ele>91.6</ele><time>2026-04-30T16:42:20.998Z</time></trkpt><trkpt lat="45.36397876376028" lon="9.292881248131986"><ele>91.39999999999999</ele><time>2026-04-30T16:42:21.998Z</time></trkpt><trkpt lat="45.36403656737152" lon="9.292760419190186"><ele>91.19999999999999</ele><time>2026-04-30T16:42:22.998Z</time></trkpt><trkpt lat="45.36411522325774" lon="9.292675216901468"><ele>91.0</ele><time>2026-04-30T16:42:23.998Z</time></trkpt><trkpt lat="45.36418917392995" lon="9.292599717302611"><ele>91.0</ele><time>2026-04-30T16:42:24.998Z</time></trkpt><trkpt lat="45.36423263687293" lon="9.292518342480113"><ele>91.0</ele><time>2026-04-30T16:42:25.998Z</time></trkpt><trkpt lat="45.364289967871834" lon="9.292431768292438"><ele>91.0</ele><time>2026-04-30T16:42:26.998Z</time></trkpt><trkpt lat="45.364348507384555" lon="9.29236462067195"><ele>91.0</ele><time>2026-04-30T16:42:27.998Z</time></trkpt><trkpt lat="45.364399018783054" lon="9.292286105064793"><ele>91.0</ele><time>2026-04-30T16:42:28.998Z</time></trkpt><trkpt lat="45.36446836447459" lon="9.292190295679248"><ele>91.0</ele><time>2026-04-30T16:42:29.998Z</time></trkpt><trkpt lat="45.36454984168054" lon="9.292107624341764"><ele>91.0</ele><time>2026-04-30T16:42:30.998Z</time></trkpt><trkpt lat="45.364620537796974" lon="9.292031876699427"><ele>91.0</ele><time>2026-04-30T16:42:31.998Z</time></trkpt><trkpt lat="45.3646851726057" lon="9.291948361168183"><ele>91.0</ele><time>2026-04-30T16:42:32.998Z</time></trkpt><trkpt lat="45.36477113971109" lon="9.291852628103642"><ele>91.0</ele><time>2026-04-30T16:42:33.998Z</time></trkpt><trkpt lat="45.36485657620773" lon="9.291757351369755"><ele>91.0</ele><time>2026-04-30T16:42:34.998Z</time></trkpt><trkpt lat="45.3649261429228" lon="9.29166969695207"><ele>91.0</ele><time>2026-04-30T16:42:35.998Z</time></trkpt><trkpt lat="45.36499955769462" lon="9.291574356619478"><ele>91.0</ele><time>2026-04-30T16:42:36.998Z</time></trkpt><trkpt lat="45.36509057745196" lon="9.291475031564428"><ele>91.0</ele><time>2026-04-30T16:42:37.998Z</time></trkpt><trkpt lat="45.365173075136106" lon="9.291368372661807"><ele>91.0</ele><time>2026-04-30T16:42:38.998Z</time></trkpt><trkpt lat="45.365254779030266" lon="9.291268338998282"><ele>91.0</ele><time>2026-04-30T16:42:39.998Z</time></trkpt><trkpt lat="45.3653280576863" lon="9.291172960241791"><ele>91.19999999999999</ele><time>2026-04-30T16:42:40.998Z</time></trkpt><trkpt lat="45.36539438266691" lon="9.291070670431576"><ele>91.39999999999999</ele><time>2026-04-30T16:42:41.998Z</time></trkpt><trkpt lat="45.365491143401215" lon="9.29097490394134"><ele>91.6</ele><time>2026-04-30T16:42:42.998Z</time></trkpt><trkpt lat="45.36556975218141" lon="9.290852239655818"><ele>91.8</ele><time>2026-04-30T16:42:43.998Z</time></trkpt><trkpt lat="45.36565231168053" lon="9.290747277737943"><ele>92.0</ele><time>2026-04-30T16:42:44.998Z</time></trkpt><trkpt lat="45.36574022223935" lon="9.290636098091808"><ele>92.25</ele><time>2026-04-30T16:42:45.998Z</time></trkpt><trkpt lat="45.365830280204186" lon="9.290545721496557"><ele>92.5</ele><time>2026-04-30T16:42:46.998Z</time></trkpt><trkpt lat="45.3659260555256" lon="9.290407782484216"><ele>92.75</ele><time>2026-04-30T16:42:47.998Z</time></trkpt><trkpt lat="45.36603563940864" lon="9.290292461994428"><ele>93.0</ele><time>2026-04-30T16:42:48.998Z</time></trkpt><trkpt lat="45.366126921481914" lon="9.290174695246426"><ele>93.0</ele><time>2026-04-30T16:42:49.998Z</time></trkpt><trkpt lat="45.36621677852134" lon="9.290086968529604"><ele>93.0</ele><time>2026-04-30T16:42:50.998Z</time></trkpt><trkpt lat="45.3663188410443" lon="9.289955210334442"><ele>93.0</ele><time>2026-04-30T16:42:51.998Z</time></trkpt><trkpt lat="45.36640170810299" lon="9.289847043823956"><ele>93.0</ele><time>2026-04-30T16:42:52.998Z</time></trkpt><trkpt lat="45.3664647023687" lon="9.289742133081472"><ele>92.75</ele><time>2026-04-30T16:42:53.998Z</time></trkpt><trkpt lat="45.3665773787907" lon="9.289662128463556"><ele>92.5</ele><time>2026-04-30T16:42:54.998Z</time></trkpt><trkpt lat="45.366671282689005" lon="9.289585811654364"><ele>92.25</ele><time>2026-04-30T16:42:55.998Z</time></trkpt><trkpt lat="45.366758223638875" lon="9.289500263286039"><ele>92.0</ele><time>2026-04-30T16:42:56.998Z</time></trkpt><trkpt lat="45.366849032014144" lon="9.289387114233575"><ele>92.0</ele><time>2026-04-30T16:42:57.997Z</time></trkpt><trkpt lat="45.36694839632707" lon="9.289270827586245"><ele>92.0</ele><time>2026-04-30T16:42:58.997Z</time></trkpt><trkpt lat="45.36706708539584" lon="9.289123748648525"><ele>92.0</ele><time>2026-04-30T16:42:59.997Z</time></trkpt><trkpt lat="45.367203606639066" lon="9.288954770537819"><ele>92.0</ele><time>2026-04-30T16:43:00.997Z</time></trkpt><trkpt lat="45.367326423542" lon="9.288783705458282"><ele>92.0</ele><time>2026-04-30T16:43:01.997Z</time></trkpt><trkpt lat="45.367451329519426" lon="9.288618264765624"><ele>92.0</ele><time>2026-04-30T16:43:02.997Z</time></trkpt><trkpt lat="45.36754391415966" lon="9.288468287777041"><ele>92.0</ele><time>2026-04-30T16:43:03.997Z</time></trkpt><trkpt lat="45.36768034558283" lon="9.288315101950012"><ele>92.0</ele><time>2026-04-30T16:43:04.997Z</time></trkpt><trkpt lat="45.367815908596874" lon="9.288164360591963"><ele>92.0</ele><time>2026-04-30T16:43:05.997Z</time></trkpt><trkpt lat="45.36799320099967" lon="9.28796572036821"><ele>92.33333333333334</ele><time>2026-04-30T16:43:06.997Z</time></trkpt><trkpt lat="45.36815747746312" lon="9.287769737832038"><ele>92.66666666666667</ele><time>2026-04-30T16:43:07.997Z</time></trkpt><trkpt lat="45.368325998590315" lon="9.28761491896359"><ele>93.0</ele><time>2026-04-30T16:43:08.997Z</time></trkpt><trkpt lat="45.36848330310683" lon="9.287443512950984"><ele>93.0</ele><time>2026-04-30T16:43:09.997Z</time></trkpt><trkpt lat="45.36862685611748" lon="9.287269902986337"><ele>93.0</ele><time>2026-04-30T16:43:10.997Z</time></trkpt><trkpt lat="45.36876649611839" lon="9.28708304092452"><ele>93.0</ele><time>2026-04-30T16:43:11.997Z</time></trkpt><trkpt lat="45.368895457474466" lon="9.286958406760974"><ele>93.0</ele><time>2026-04-30T16:43:12.997Z</time></trkpt><trkpt lat="45.36903014201047" lon="9.286828413806044"><ele>93.0</ele><time>2026-04-30T16:43:13.997Z</time></trkpt><trkpt lat="45.36917271842511" lon="9.286684704832979"><ele>93.0</ele><time>2026-04-30T16:43:14.997Z</time></trkpt><trkpt lat="45.36930350204409" lon="9.286518542696607"><ele>93.0</ele><time>2026-04-30T16:43:15.997Z</time></trkpt><trkpt lat="45.3694506021874" lon="9.286331546754807"><ele>93.0</ele><time>2026-04-30T16:43:16.997Z</time></trkpt><trkpt lat="45.36959235119565" lon="9.286162247944002"><ele>93.0</ele><time>2026-04-30T16:43:17.997Z</time></trkpt><trkpt lat="45.36974615964005" lon="9.285970787268155"><ele>93.0</ele><time>2026-04-30T16:43:18.997Z</time></trkpt><trkpt lat="45.36988091795342" lon="9.285752960036493"><ele>93.0</ele><time>2026-04-30T16:43:19.997Z</time></trkpt><trkpt lat="45.37002877313619" lon="9.285578831170556"><ele>93.0</ele><time>2026-04-30T16:43:20.997Z</time></trkpt><trkpt lat="45.37019416918539" lon="9.285413149702594"><ele>93.0</ele><time>2026-04-30T16:43:21.997Z</time></trkpt><trkpt lat="45.370379192880925" lon="9.285235327171929"><ele>93.0</ele><time>2026-04-30T16:43:22.997Z</time></trkpt><trkpt lat="45.37055283371597" lon="9.285038429153854"><ele>93.0</ele><time>2026-04-30T16:43:23.997Z</time></trkpt><trkpt lat="45.370715323275746" lon="9.284862513119773"><ele>93.0</ele><time>2026-04-30T16:43:24.997Z</time></trkpt><trkpt lat="45.370885040011" lon="9.2846720137097"><ele>93.0</ele><time>2026-04-30T16:43:25.997Z</time></trkpt><trkpt lat="45.371050279147234" lon="9.284470176576678"><ele>93.0</ele><time>2026-04-30T16:43:26.997Z</time></trkpt><trkpt lat="45.371199175561266" lon="9.28423479758253"><ele>93.33333333333333</ele><time>2026-04-30T16:43:27.997Z</time></trkpt><trkpt lat="45.37137053819561" lon="9.284051832351548"><ele>93.66666666666666</ele><time>2026-04-30T16:43:28.997Z</time></trkpt><trkpt lat="45.37154062329733" lon="9.283856823371014"><ele>94.0</ele><time>2026-04-30T16:43:29.997Z</time></trkpt><trkpt lat="45.371710564323045" lon="9.283660352896327"><ele>94.0</ele><time>2026-04-30T16:43:30.997Z</time></trkpt><trkpt lat="45.371884860367565" lon="9.283450913552398"><ele>94.0</ele><time>2026-04-30T16:43:31.997Z</time></trkpt><trkpt lat="45.37207747531371" lon="9.283263998658361"><ele>93.5</ele><time>2026-04-30T16:43:32.997Z</time></trkpt><trkpt lat="45.37224862698428" lon="9.283048077380064"><ele>93.0</ele><time>2026-04-30T16:43:33.997Z</time></trkpt><trkpt lat="45.372436695981605" lon="9.282854301266001"><ele>93.0</ele><time>2026-04-30T16:43:34.997Z</time></trkpt><trkpt lat="45.372619454434385" lon="9.28264721853897"><ele>93.0</ele><time>2026-04-30T16:43:35.997Z</time></trkpt><trkpt lat="45.372800415179825" lon="9.282438893002245"><ele>93.0</ele><time>2026-04-30T16:43:36.997Z</time></trkpt><trkpt lat="45.37297847461173" lon="9.282233392065065"><ele>93.0</ele><time>2026-04-30T16:43:37.997Z</time></trkpt><trkpt lat="45.373158730184265" lon="9.28202101665523"><ele>93.0</ele><time>2026-04-30T16:43:38.997Z</time></trkpt><trkpt lat="45.37333193968094" lon="9.281825569509616"><ele>93.0</ele><time>2026-04-30T16:43:39.997Z</time></trkpt><trkpt lat="45.37350429208605" lon="9.281654462546715"><ele>93.0</ele><time>2026-04-30T16:43:40.997Z</time></trkpt><trkpt lat="45.37369128671083" lon="9.281451363522253"><ele>93.0</ele><time>2026-04-30T16:43:41.997Z</time></trkpt><trkpt lat="45.373859659877155" lon="9.28122852157207"><ele>93.0</ele><time>2026-04-30T16:43:42.997Z</time></trkpt><trkpt lat="45.37403006222414" lon="9.281026318958725"><ele>93.0</ele><time>2026-04-30T16:43:43.997Z</time></trkpt><trkpt lat="45.37419530680574" lon="9.28081117180184"><ele>93.0</ele><time>2026-04-30T16:43:44.997Z</time></trkpt><trkpt lat="45.374371385223675" lon="9.28062288606021"><ele>93.0</ele><time>2026-04-30T16:43:45.997Z</time></trkpt><trkpt lat="45.374544546245325" lon="9.280422593990558"><ele>93.33333333333333</ele><time>2026-04-30T16:43:46.997Z</time></trkpt><trkpt lat="45.37472750329079" lon="9.280239064025018"><ele>93.66666666666666</ele><time>2026-04-30T16:43:47.997Z</time></trkpt><trkpt lat="45.374872708369125" lon="9.28000955598165"><ele>94.0</ele><time>2026-04-30T16:43:48.997Z</time></trkpt><trkpt lat="45.375048976577546" lon="9.279811926418542"><ele>94.33333333333333</ele><time>2026-04-30T16:43:49.997Z</time></trkpt><trkpt lat="45.37522220806965" lon="9.279619161793416"><ele>94.66666666666667</ele><time>2026-04-30T16:43:50.997Z</time></trkpt><trkpt lat="45.37538769350494" lon="9.279441006959123"><ele>95.0</ele><time>2026-04-30T16:43:51.997Z</time></trkpt><trkpt lat="45.37555527570392" lon="9.279226533372686"><ele>95.0</ele><time>2026-04-30T16:43:52.997Z</time></trkpt><trkpt lat="45.375717117673354" lon="9.279012459802662"><ele>95.0</ele><time>2026-04-30T16:43:53.997Z</time></trkpt><trkpt lat="45.37588804683514" lon="9.278820063240094"><ele>95.0</ele><time>2026-04-30T16:43:54.997Z</time></trkpt><trkpt lat="45.376069133929" lon="9.27863275754496"><ele>95.0</ele><time>2026-04-30T16:43:55.997Z</time></trkpt><trkpt lat="45.37625108690197" lon="9.278431947223668"><ele>95.0</ele><time>2026-04-30T16:43:56.997Z</time></trkpt><trkpt lat="45.3764257926267" lon="9.278218735960424"><ele>95.33333333333334</ele><time>2026-04-30T16:43:57.997Z</time></trkpt><trkpt lat="45.37660226606446" lon="9.27802137885022"><ele>95.66666666666667</ele><time>2026-04-30T16:43:58.997Z</time></trkpt><trkpt lat="45.37674965168479" lon="9.277815916677463"><ele>96.0</ele><time>2026-04-30T16:43:59.997Z</time></trkpt><trkpt lat="45.376908357598055" lon="9.27761771971191"><ele>96.0</ele><time>2026-04-30T16:44:00.997Z</time></trkpt><trkpt lat="45.377078739921494" lon="9.277424358299744"><ele>96.0</ele><time>2026-04-30T16:44:01.997Z</time></trkpt><trkpt lat="45.37727901500663" lon="9.277238316992738"><ele>96.0</ele><time>2026-04-30T16:44:02.997Z</time></trkpt><trkpt lat="45.37745693033736" lon="9.277037419976681"><ele>96.0</ele><time>2026-04-30T16:44:03.997Z</time></trkpt><trkpt lat="45.37763728987692" lon="9.276847793714069"><ele>96.0</ele><time>2026-04-30T16:44:04.997Z</time></trkpt><trkpt lat="45.37780015664225" lon="9.276639253366092"><ele>96.0</ele><time>2026-04-30T16:44:05.996Z</time></trkpt><trkpt lat="45.377972629455094" lon="9.276438557257828"><ele>96.0</ele><time>2026-04-30T16:44:06.996Z</time></trkpt><trkpt lat="45.37814088946894" lon="9.27626322172056"><ele>96.0</ele><time>2026-04-30T16:44:07.996Z</time></trkpt><trkpt lat="45.3783055933059" lon="9.276057639860015"><ele>96.0</ele><time>2026-04-30T16:44:08.996Z</time></trkpt><trkpt lat="45.37848592373241" lon="9.275838286992453"><ele>96.0</ele><time>2026-04-30T16:44:09.996Z</time></trkpt><trkpt lat="45.37866971411421" lon="9.275651013386787"><ele>96.0</ele><time>2026-04-30T16:44:10.996Z</time></trkpt><trkpt lat="45.37884245873342" lon="9.275453313907722"><ele>96.0</ele><time>2026-04-30T16:44:11.996Z</time></trkpt><trkpt lat="45.37898448802705" lon="9.275223482874887"><ele>95.66666666666667</ele><time>2026-04-30T16:44:12.996Z</time></trkpt><trkpt lat="45.37911664688925" lon="9.275037490528197"><ele>95.33333333333334</ele><time>2026-04-30T16:44:13.996Z</time></trkpt><trkpt lat="45.37926361451089" lon="9.27486343092373"><ele>95.0</ele><time>2026-04-30T16:44:14.996Z</time></trkpt><trkpt lat="45.37943119810614" lon="9.274702666174784"><ele>94.66666666666667</ele><time>2026-04-30T16:44:15.996Z</time></trkpt><trkpt lat="45.37957643345991" lon="9.274497979895559"><ele>94.33333333333333</ele><time>2026-04-30T16:44:16.996Z</time></trkpt><trkpt lat="45.379738543582135" lon="9.274287309411582"><ele>94.0</ele><time>2026-04-30T16:44:17.996Z</time></trkpt><trkpt lat="45.37991415032049" lon="9.274094838542561"><ele>95.0</ele><time>2026-04-30T16:44:18.996Z</time></trkpt><trkpt lat="45.380098769869875" lon="9.273915265729165"><ele>96.0</ele><time>2026-04-30T16:44:19.996Z</time></trkpt><trkpt lat="45.380269404351026" lon="9.27372332709791"><ele>97.0</ele><time>2026-04-30T16:44:20.996Z</time></trkpt><trkpt lat="45.38042144739903" lon="9.273542104004168"><ele>96.66666666666667</ele><time>2026-04-30T16:44:21.996Z</time></trkpt><trkpt lat="45.38059836938705" lon="9.27334022804549"><ele>96.33333333333334</ele><time>2026-04-30T16:44:22.996Z</time></trkpt><trkpt lat="45.38077400096536" lon="9.273149324530376"><ele>96.0</ele><time>2026-04-30T16:44:23.996Z</time></trkpt><trkpt lat="45.3809239500753" lon="9.272962435398123"><ele>96.0</ele><time>2026-04-30T16:44:24.996Z</time></trkpt><trkpt lat="45.38106547814678" lon="9.272756759453497"><ele>96.0</ele><time>2026-04-30T16:44:25.996Z</time></trkpt><trkpt lat="45.38121968614467" lon="9.272552054722803"><ele>96.0</ele><time>2026-04-30T16:44:26.996Z</time></trkpt><trkpt lat="45.38136856104045" lon="9.27237281431712"><ele>96.0</ele><time>2026-04-30T16:44:27.996Z</time></trkpt><trkpt lat="45.38150982132791" lon="9.272213324668385"><ele>96.0</ele><time>2026-04-30T16:44:28.996Z</time></trkpt><trkpt lat="45.38167227795453" lon="9.272023339941155"><ele>96.0</ele><time>2026-04-30T16:44:29.996Z</time></trkpt><trkpt lat="45.38184558719449" lon="9.271847524834937"><ele>96.0</ele><time>2026-04-30T16:44:30.996Z</time></trkpt><trkpt lat="45.38200571791566" lon="9.271631840039174"><ele>96.0</ele><time>2026-04-30T16:44:31.996Z</time></trkpt><trkpt lat="45.38214176376802" lon="9.271487128473572"><ele>96.0</ele><time>2026-04-30T16:44:32.996Z</time></trkpt><trkpt lat="45.382298149242644" lon="9.271306068758651"><ele>95.33333333333333</ele><time>2026-04-30T16:44:33.996Z</time></trkpt><trkpt lat="45.38245219837723" lon="9.271106746451245"><ele>94.66666666666666</ele><time>2026-04-30T16:44:34.996Z</time></trkpt><trkpt lat="45.38260593553625" lon="9.270898750572716"><ele>94.0</ele><time>2026-04-30T16:44:35.996Z</time></trkpt><trkpt lat="45.38276797727587" lon="9.27070146888925"><ele>94.0</ele><time>2026-04-30T16:44:36.996Z</time></trkpt><trkpt lat="45.38295263930721" lon="9.270548182463305"><ele>94.0</ele><time>2026-04-30T16:44:37.996Z</time></trkpt><trkpt lat="45.38314582009492" lon="9.270372226946202"><ele>94.0</ele><time>2026-04-30T16:44:38.996Z</time></trkpt><trkpt lat="45.38331071488056" lon="9.270194709027587"><ele>95.5</ele><time>2026-04-30T16:44:39.996Z</time></trkpt><trkpt lat="45.38348473053525" lon="9.269968576812609"><ele>97.0</ele><time>2026-04-30T16:44:40.996Z</time></trkpt><trkpt lat="45.38365279793664" lon="9.269764521875052"><ele>97.0</ele><time>2026-04-30T16:44:41.996Z</time></trkpt><trkpt lat="45.3838203940016" lon="9.269557423325633"><ele>97.0</ele><time>2026-04-30T16:44:42.996Z</time></trkpt><trkpt lat="45.38397327065062" lon="9.269397085088524"><ele>97.0</ele><time>2026-04-30T16:44:43.996Z</time></trkpt><trkpt lat="45.384123298797476" lon="9.269212177630608"><ele>97.5</ele><time>2026-04-30T16:44:44.996Z</time></trkpt><trkpt lat="45.38429149819548" lon="9.269007536286438"><ele>98.0</ele><time>2026-04-30T16:44:45.996Z</time></trkpt><trkpt lat="45.38446377792998" lon="9.26879355221131"><ele>98.0</ele><time>2026-04-30T16:44:46.996Z</time></trkpt><trkpt lat="45.38463366639232" lon="9.268594276009328"><ele>98.0</ele><time>2026-04-30T16:44:47.996Z</time></trkpt><trkpt lat="45.38480407817836" lon="9.268396615955687"><ele>98.0</ele><time>2026-04-30T16:44:48.996Z</time></trkpt><trkpt lat="45.38495156449744" lon="9.268203282698513"><ele>97.66666666666666</ele><time>2026-04-30T16:44:49.996Z</time></trkpt><trkpt lat="45.38511768154138" lon="9.268003404045531"><ele>97.33333333333334</ele><time>2026-04-30T16:44:50.996Z</time></trkpt><trkpt lat="45.38528971752178" lon="9.267806989806452"><ele>97.0</ele><time>2026-04-30T16:44:51.996Z</time></trkpt><trkpt lat="45.38545951196468" lon="9.267626874754892"><ele>97.0</ele><time>2026-04-30T16:44:52.996Z</time></trkpt><trkpt lat="45.38563147944002" lon="9.267443736381402"><ele>97.0</ele><time>2026-04-30T16:44:53.996Z</time></trkpt><trkpt lat="45.38575268204996" lon="9.267220045761967"><ele>97.0</ele><time>2026-04-30T16:44:54.996Z</time></trkpt><trkpt lat="45.385915922403505" lon="9.267018667989992"><ele>97.0</ele><time>2026-04-30T16:44:55.996Z</time></trkpt><trkpt lat="45.38608229859064" lon="9.266822206841216"><ele>97.0</ele><time>2026-04-30T16:44:56.996Z</time></trkpt><trkpt lat="45.38627565467029" lon="9.266640474484875"><ele>97.0</ele><time>2026-04-30T16:44:57.996Z</time></trkpt><trkpt lat="45.38644624423068" lon="9.266443106626406"><ele>97.0</ele><time>2026-04-30T16:44:58.996Z</time></trkpt><trkpt lat="45.386617487390225" lon="9.266253539892418"><ele>97.0</ele><time>2026-04-30T16:44:59.996Z</time></trkpt><trkpt lat="45.38678340284752" lon="9.266083804250552"><ele>97.0</ele><time>2026-04-30T16:45:00.996Z</time></trkpt><trkpt lat="45.3869393797252" lon="9.265867194671427"><ele>97.0</ele><time>2026-04-30T16:45:01.996Z</time></trkpt><trkpt lat="45.387118678160896" lon="9.265655421679705"><ele>97.0</ele><time>2026-04-30T16:45:02.996Z</time></trkpt><trkpt lat="45.387287208168466" lon="9.26548317440256"><ele>97.0</ele><time>2026-04-30T16:45:03.996Z</time></trkpt><trkpt lat="45.387438188745925" lon="9.265268320632645"><ele>97.33333333333334</ele><time>2026-04-30T16:45:04.996Z</time></trkpt><trkpt lat="45.38758600453088" lon="9.265084941251747"><ele>97.66666666666666</ele><time>2026-04-30T16:45:05.996Z</time></trkpt><trkpt lat="45.38774774246174" lon="9.26485903202979"><ele>98.0</ele><time>2026-04-30T16:45:06.996Z</time></trkpt><trkpt lat="45.38794029589889" lon="9.26467110040829"><ele>97.0</ele><time>2026-04-30T16:45:07.996Z</time></trkpt><trkpt lat="45.388118282357695" lon="9.264465790136272"><ele>96.0</ele><time>2026-04-30T16:45:08.996Z</time></trkpt><trkpt lat="45.388286867512214" lon="9.264283480060918"><ele>95.0</ele><time>2026-04-30T16:45:09.996Z</time></trkpt><trkpt lat="45.38845804609378" lon="9.264069321797377"><ele>95.33333333333334</ele><time>2026-04-30T16:45:10.996Z</time></trkpt><trkpt lat="45.38862981906977" lon="9.263885901697833"><ele>95.66666666666667</ele><time>2026-04-30T16:45:11.996Z</time></trkpt><trkpt lat="45.3887992376351" lon="9.263677044030224"><ele>96.0</ele><time>2026-04-30T16:45:12.996Z</time></trkpt><trkpt lat="45.388987946429296" lon="9.263480016416056"><ele>96.0</ele><time>2026-04-30T16:45:13.995Z</time></trkpt><trkpt lat="45.38917228931838" lon="9.263281108374397"><ele>96.0</ele><time>2026-04-30T16:45:14.995Z</time></trkpt><trkpt lat="45.38934006983393" lon="9.263083144194207"><ele>96.0</ele><time>2026-04-30T16:45:15.995Z</time></trkpt><trkpt lat="45.389528347490966" lon="9.26290973724435"><ele>96.0</ele><time>2026-04-30T16:45:16.995Z</time></trkpt><trkpt lat="45.38971541211925" lon="9.262743078597245"><ele>96.0</ele><time>2026-04-30T16:45:17.995Z</time></trkpt><trkpt lat="45.38991689228227" lon="9.262576061493267"><ele>96.0</ele><time>2026-04-30T16:45:18.995Z</time></trkpt><trkpt lat="45.39009384892391" lon="9.262442809278975"><ele>96.0</ele><time>2026-04-30T16:45:19.995Z</time></trkpt><trkpt lat="45.39030563022778" lon="9.262311855114156"><ele>96.0</ele><time>2026-04-30T16:45:20.995Z</time></trkpt><trkpt lat="45.3904929751739" lon="9.262154396396047"><ele>97.0</ele><time>2026-04-30T16:45:21.995Z</time></trkpt><trkpt lat="45.39066991001975" lon="9.262005968290337"><ele>98.0</ele><time>2026-04-30T16:45:22.995Z</time></trkpt><trkpt lat="45.390865425592644" lon="9.261865106962968"><ele>99.0</ele><time>2026-04-30T16:45:23.995Z</time></trkpt><trkpt lat="45.391072557502795" lon="9.261737964046374"><ele>99.0</ele><time>2026-04-30T16:45:24.995Z</time></trkpt><trkpt lat="45.3912727740452" lon="9.26161163253432"><ele>99.0</ele><time>2026-04-30T16:45:25.995Z</time></trkpt><trkpt lat="45.39149927771547" lon="9.261520471625147"><ele>98.5</ele><time>2026-04-30T16:45:26.995Z</time></trkpt><trkpt lat="45.391704829151486" lon="9.261383360101064"><ele>98.0</ele><time>2026-04-30T16:45:27.995Z</time></trkpt><trkpt lat="45.39192060535508" lon="9.261272015974486"><ele>98.0</ele><time>2026-04-30T16:45:28.995Z</time></trkpt><trkpt lat="45.392128220508845" lon="9.261148761124218"><ele>98.0</ele><time>2026-04-30T16:45:29.995Z</time></trkpt><trkpt lat="45.39233107748815" lon="9.261056409318437"><ele>98.0</ele><time>2026-04-30T16:45:30.995Z</time></trkpt><trkpt lat="45.39254389021635" lon="9.260985520130268"><ele>99.0</ele><time>2026-04-30T16:45:31.995Z</time></trkpt><trkpt lat="45.39277625231475" lon="9.26094150979976"><ele>100.0</ele><time>2026-04-30T16:45:32.995Z</time></trkpt><trkpt lat="45.39296315188979" lon="9.26084369848715"><ele>101.0</ele><time>2026-04-30T16:45:33.995Z</time></trkpt><trkpt lat="45.3931580870345" lon="9.260799172400867"><ele>101.0</ele><time>2026-04-30T16:45:34.995Z</time></trkpt><trkpt lat="45.393349302586344" lon="9.260680822649524"><ele>101.0</ele><time>2026-04-30T16:45:35.995Z</time></trkpt><trkpt lat="45.39354648908969" lon="9.260629305182107"><ele>101.0</ele><time>2026-04-30T16:45:36.995Z</time></trkpt><trkpt lat="45.393759591765125" lon="9.26056510724476"><ele>101.33333333333333</ele><time>2026-04-30T16:45:37.995Z</time></trkpt><trkpt lat="45.39396847270142" lon="9.26053220969888"><ele>101.66666666666666</ele><time>2026-04-30T16:45:38.995Z</time></trkpt><trkpt lat="45.394201625007156" lon="9.260483563044371"><ele>102.0</ele><time>2026-04-30T16:45:39.995Z</time></trkpt><trkpt lat="45.39442066352183" lon="9.260454126391231"><ele>102.0</ele><time>2026-04-30T16:45:40.995Z</time></trkpt><trkpt lat="45.39463568907881" lon="9.260436052963362"><ele>102.0</ele><time>2026-04-30T16:45:41.995Z</time></trkpt><trkpt lat="45.394855638619426" lon="9.260421841998424"><ele>102.0</ele><time>2026-04-30T16:45:42.995Z</time></trkpt><trkpt lat="45.39506350339985" lon="9.260417808086668"><ele>101.0</ele><time>2026-04-30T16:45:43.995Z</time></trkpt><trkpt lat="45.395282097927776" lon="9.260402441253529"><ele>100.0</ele><time>2026-04-30T16:45:44.995Z</time></trkpt><trkpt lat="45.39553232951458" lon="9.260398941800009"><ele>100.0</ele><time>2026-04-30T16:45:45.995Z</time></trkpt><trkpt lat="45.39577053245369" lon="9.260404515509302"><ele>100.0</ele><time>2026-04-30T16:45:46.995Z</time></trkpt><trkpt lat="45.39599473393814" lon="9.260352361503317"><ele>100.0</ele><time>2026-04-30T16:45:47.995Z</time></trkpt><trkpt lat="45.396229893601344" lon="9.260359489996846"><ele>100.0</ele><time>2026-04-30T16:45:48.995Z</time></trkpt><trkpt lat="45.39646508704626" lon="9.260397355704324"><ele>100.0</ele><time>2026-04-30T16:45:49.995Z</time></trkpt><trkpt lat="45.39670573128773" lon="9.260457806910654"><ele>100.0</ele><time>2026-04-30T16:45:50.995Z</time></trkpt><trkpt lat="45.39693387921045" lon="9.260508618734727"><ele>100.0</ele><time>2026-04-30T16:45:51.995Z</time></trkpt><trkpt lat="45.39715764059731" lon="9.260497553849218"><ele>100.0</ele><time>2026-04-30T16:45:52.995Z</time></trkpt><trkpt lat="45.397380718142756" lon="9.260565034837194"><ele>100.0</ele><time>2026-04-30T16:45:53.995Z</time></trkpt><trkpt lat="45.397604809485586" lon="9.260598881344752"><ele>100.0</ele><time>2026-04-30T16:45:54.995Z</time></trkpt><trkpt lat="45.39782663472424" lon="9.260650822044019"><ele>100.33333333333334</ele><time>2026-04-30T16:45:55.995Z</time></trkpt><trkpt lat="45.398059282819176" lon="9.260688538964379"><ele>100.66666666666666</ele><time>2026-04-30T16:45:56.995Z</time></trkpt><trkpt lat="45.39827391847333" lon="9.260709032382291"><ele>101.0</ele><time>2026-04-30T16:45:57.995Z</time></trkpt><trkpt lat="45.39849760006726" lon="9.26074175733649"><ele>101.0</ele><time>2026-04-30T16:45:58.995Z</time></trkpt><trkpt lat="45.39872672578484" lon="9.260756693680415"><ele>101.0</ele><time>2026-04-30T16:45:59.995Z</time></trkpt><trkpt lat="45.398949735701564" lon="9.260804379458133"><ele>101.0</ele><time>2026-04-30T16:46:00.995Z</time></trkpt><trkpt lat="45.399175422916144" lon="9.260821287482367"><ele>101.0</ele><time>2026-04-30T16:46:01.995Z</time></trkpt><trkpt lat="45.399398867522706" lon="9.260836370009109"><ele>101.0</ele><time>2026-04-30T16:46:02.995Z</time></trkpt><trkpt lat="45.399626631208385" lon="9.260873425126006"><ele>101.0</ele><time>2026-04-30T16:46:03.995Z</time></trkpt><trkpt lat="45.399868535183124" lon="9.260888155884915"><ele>100.0</ele><time>2026-04-30T16:46:04.995Z</time></trkpt><trkpt lat="45.40010763904955" lon="9.26093123289521"><ele>99.0</ele><time>2026-04-30T16:46:05.995Z</time></trkpt><trkpt lat="45.40031456384114" lon="9.260947781772629"><ele>98.0</ele><time>2026-04-30T16:46:06.995Z</time></trkpt><trkpt lat="45.400540699705886" lon="9.260983209767756"><ele>98.0</ele><time>2026-04-30T16:46:07.995Z</time></trkpt><trkpt lat="45.40075697631272" lon="9.261000250081585"><ele>98.0</ele><time>2026-04-30T16:46:08.995Z</time></trkpt><trkpt lat="45.400983534341" lon="9.261005803656193"><ele>98.0</ele><time>2026-04-30T16:46:09.995Z</time></trkpt><trkpt lat="45.401208698384416" lon="9.261041334946679"><ele>98.33333333333333</ele><time>2026-04-30T16:46:10.995Z</time></trkpt><trkpt lat="45.40144207289882" lon="9.261064394918554"><ele>98.66666666666666</ele><time>2026-04-30T16:46:11.995Z</time></trkpt><trkpt lat="45.4016484937687" lon="9.261118589375615"><ele>99.0</ele><time>2026-04-30T16:46:12.995Z</time></trkpt><trkpt lat="45.4018593469278" lon="9.261166087787398"><ele>99.0</ele><time>2026-04-30T16:46:13.995Z</time></trkpt><trkpt lat="45.40209001206484" lon="9.261188615662546"><ele>99.0</ele><time>2026-04-30T16:46:14.995Z</time></trkpt><trkpt lat="45.40232071552397" lon="9.261222512253969"><ele>99.0</ele><time>2026-04-30T16:46:15.995Z</time></trkpt><trkpt lat="45.402513094702776" lon="9.261239246672034"><ele>99.0</ele><time>2026-04-30T16:46:16.995Z</time></trkpt><trkpt lat="45.402752911763066" lon="9.26126808484926"><ele>99.0</ele><time>2026-04-30T16:46:17.995Z</time></trkpt><trkpt lat="45.40299265723554" lon="9.261306308625795"><ele>99.5</ele><time>2026-04-30T16:46:18.995Z</time></trkpt><trkpt lat="45.403239218230276" lon="9.261329674021809"><ele>100.0</ele><time>2026-04-30T16:46:19.995Z</time></trkpt><trkpt lat="45.40344526557837" lon="9.26133830359677"><ele>100.0</ele><time>2026-04-30T16:46:20.995Z</time></trkpt><trkpt lat="45.40366115720469" lon="9.261397133906945"><ele>100.0</ele><time>2026-04-30T16:46:21.994Z</time></trkpt><trkpt lat="45.403888489877694" lon="9.261402034458234"><ele>100.0</ele><time>2026-04-30T16:46:22.994Z</time></trkpt><trkpt lat="45.40412848244123" lon="9.261425511464092"><ele>99.66666666666667</ele><time>2026-04-30T16:46:23.994Z</time></trkpt><trkpt lat="45.404353330883765" lon="9.26144772878403"><ele>99.33333333333334</ele><time>2026-04-30T16:46:24.994Z</time></trkpt><trkpt lat="45.40455544964074" lon="9.261434113158963"><ele>99.0</ele><time>2026-04-30T16:46:25.994Z</time></trkpt><trkpt lat="45.40477909157858" lon="9.261462632806067"><ele>99.0</ele><time>2026-04-30T16:46:26.994Z</time></trkpt><trkpt lat="45.404997833669675" lon="9.261442672875834"><ele>99.0</ele><time>2026-04-30T16:46:27.994Z</time></trkpt><trkpt lat="45.4052166763738" lon="9.261479786648422"><ele>99.0</ele><time>2026-04-30T16:46:28.994Z</time></trkpt><trkpt lat="45.405434209796645" lon="9.261484300430737"><ele>99.0</ele><time>2026-04-30T16:46:29.994Z</time></trkpt><trkpt lat="45.40562208096771" lon="9.261561002167445"><ele>99.0</ele><time>2026-04-30T16:46:30.994Z</time></trkpt><trkpt lat="45.405807840047174" lon="9.261607099333348"><ele>99.0</ele><time>2026-04-30T16:46:31.994Z</time></trkpt><trkpt lat="45.40599784208395" lon="9.261604234176973"><ele>99.0</ele><time>2026-04-30T16:46:32.994Z</time></trkpt><trkpt lat="45.406173013663" lon="9.261560614698169"><ele>99.0</ele><time>2026-04-30T16:46:33.994Z</time></trkpt><trkpt lat="45.40637111637354" lon="9.26149515580033"><ele>99.0</ele><time>2026-04-30T16:46:34.994Z</time></trkpt><trkpt lat="45.406568798957274" lon="9.261424775901613"><ele>99.0</ele><time>2026-04-30T16:46:35.994Z</time></trkpt><trkpt lat="45.40677382992893" lon="9.261354965859896"><ele>99.0</ele><time>2026-04-30T16:46:36.994Z</time></trkpt><trkpt lat="45.40697827103581" lon="9.261275650824706"><ele>99.0</ele><time>2026-04-30T16:46:37.994Z</time></trkpt><trkpt lat="45.40720329575014" lon="9.261149095461727"><ele>98.5</ele><time>2026-04-30T16:46:38.994Z</time></trkpt><trkpt lat="45.4074321448148" lon="9.261089767954598"><ele>98.0</ele><time>2026-04-30T16:46:39.994Z</time></trkpt><trkpt lat="45.40767185844336" lon="9.260989039264055"><ele>98.0</ele><time>2026-04-30T16:46:40.994Z</time></trkpt><trkpt lat="45.40789865615582" lon="9.260872218340745"><ele>98.0</ele><time>2026-04-30T16:46:41.994Z</time></trkpt><trkpt lat="45.40812257682501" lon="9.260743441672977"><ele>98.0</ele><time>2026-04-30T16:46:42.994Z</time></trkpt><trkpt lat="45.4083056997822" lon="9.260588334562602"><ele>98.0</ele><time>2026-04-30T16:46:43.994Z</time></trkpt><trkpt lat="45.40848865688739" lon="9.260396645923011"><ele>98.0</ele><time>2026-04-30T16:46:44.994Z</time></trkpt><trkpt lat="45.40867430501921" lon="9.260197317197592"><ele>98.0</ele><time>2026-04-30T16:46:45.994Z</time></trkpt><trkpt lat="45.40885651399712" lon="9.25998722926859"><ele>98.0</ele><time>2026-04-30T16:46:46.994Z</time></trkpt><trkpt lat="45.40902784788416" lon="9.259767345185448"><ele>98.0</ele><time>2026-04-30T16:46:47.994Z</time></trkpt><trkpt lat="45.40919536549378" lon="9.259558421896779"><ele>98.0</ele><time>2026-04-30T16:46:48.994Z</time></trkpt><trkpt lat="45.409356076947745" lon="9.259327529037844"><ele>98.0</ele><time>2026-04-30T16:46:49.994Z</time></trkpt><trkpt lat="45.40951398607362" lon="9.259132337136311"><ele>98.0</ele><time>2026-04-30T16:46:51Z</time></trkpt><trkpt lat="45.40965768467854" lon="9.258917158783124"><ele>98.0</ele><time>2026-04-30T16:46:52Z</time></trkpt><trkpt lat="45.40982216142701" lon="9.258699620007883"><ele>100.0</ele><time>2026-04-30T16:46:53Z</time></trkpt><trkpt lat="45.40997610758198" lon="9.258490024761008"><ele>102.0</ele><time>2026-04-30T16:46:54Z</time></trkpt><trkpt lat="45.41015698858475" lon="9.258235044398035"><ele>102.0</ele><time>2026-04-30T16:46:55Z</time></trkpt><trkpt lat="45.41032863785433" lon="9.258014031426287"><ele>102.0</ele><time>2026-04-30T16:46:56Z</time></trkpt><trkpt lat="45.41049828313827" lon="9.257788670405912"><ele>102.0</ele><time>2026-04-30T16:46:57Z</time></trkpt><trkpt lat="45.41068117688046" lon="9.257628352933972"><ele>102.0</ele><time>2026-04-30T16:46:58Z</time></trkpt><trkpt lat="45.41086777994273" lon="9.257423668489814"><ele>100.5</ele><time>2026-04-30T16:46:59Z</time></trkpt><trkpt lat="45.41107346939324" lon="9.257236451800567"><ele>99.0</ele><time>2026-04-30T16:47:00Z</time></trkpt><trkpt lat="45.41121408684925" lon="9.257016769134566"><ele>100.0</ele><time>2026-04-30T16:47:01Z</time></trkpt><trkpt lat="45.41140962594298" lon="9.256797957798565"><ele>101.0</ele><time>2026-04-30T16:47:02Z</time></trkpt><trkpt lat="45.41160137864376" lon="9.256584508906442"><ele>100.66666666666666</ele><time>2026-04-30T16:47:03Z</time></trkpt><trkpt lat="45.41175941440523" lon="9.256355941899617"><ele>100.33333333333334</ele><time>2026-04-30T16:47:04Z</time></trkpt><trkpt lat="45.41190122162179" lon="9.256115381910332"><ele>100.0</ele><time>2026-04-30T16:47:05Z</time></trkpt><trkpt lat="45.41206898664682" lon="9.255867997210302"><ele>100.0</ele><time>2026-04-30T16:47:06Z</time></trkpt><trkpt lat="45.41224283292364" lon="9.25564920579681"><ele>100.0</ele><time>2026-04-30T16:47:07Z</time></trkpt><trkpt lat="45.41240000695322" lon="9.255434891244985"><ele>100.0</ele><time>2026-04-30T16:47:08Z</time></trkpt><trkpt lat="45.41255945533543" lon="9.255210760660962"><ele>100.0</ele><time>2026-04-30T16:47:09Z</time></trkpt><trkpt lat="45.41272655482156" lon="9.255017455448053"><ele>100.0</ele><time>2026-04-30T16:47:10Z</time></trkpt><trkpt lat="45.41287920793924" lon="9.254794858752552"><ele>100.5</ele><time>2026-04-30T16:47:11Z</time></trkpt><trkpt lat="45.41304594423041" lon="9.254594100010499"><ele>101.0</ele><time>2026-04-30T16:47:12Z</time></trkpt><trkpt lat="45.41318174280799" lon="9.254325050575723"><ele>101.0</ele><time>2026-04-30T16:47:13Z</time></trkpt><trkpt lat="45.41337058469412" lon="9.254133412450443"><ele>101.0</ele><time>2026-04-30T16:47:14Z</time></trkpt><trkpt lat="45.41355771996303" lon="9.25392387698963"><ele>101.66666666666666</ele><time>2026-04-30T16:47:14.999Z</time></trkpt><trkpt lat="45.413722635549696" lon="9.253689924344046"><ele>102.33333333333334</ele><time>2026-04-30T16:47:15.999Z</time></trkpt><trkpt lat="45.41385700150682" lon="9.253465196177787"><ele>103.0</ele><time>2026-04-30T16:47:16.999Z</time></trkpt><trkpt lat="45.41402175846698" lon="9.253260004238463"><ele>104.0</ele><time>2026-04-30T16:47:17.999Z</time></trkpt><trkpt lat="45.41417770589509" lon="9.253046401199141"><ele>105.0</ele><time>2026-04-30T16:47:18.999Z</time></trkpt><trkpt lat="45.41435320688708" lon="9.252837425687149"><ele>106.0</ele><time>2026-04-30T16:47:19.999Z</time></trkpt><trkpt lat="45.4144989429955" lon="9.2526040089831"><ele>103.66666666666667</ele><time>2026-04-30T16:47:20.999Z</time></trkpt><trkpt lat="45.414657286917986" lon="9.252397454276167"><ele>101.33333333333334</ele><time>2026-04-30T16:47:21.999Z</time></trkpt><trkpt lat="45.414800542564244" lon="9.252152189870568"><ele>99.0</ele><time>2026-04-30T16:47:22.999Z</time></trkpt><trkpt lat="45.4149460323711" lon="9.251921163670023"><ele>99.0</ele><time>2026-04-30T16:47:23.999Z</time></trkpt><trkpt lat="45.41511434476106" lon="9.251703403708618"><ele>99.0</ele><time>2026-04-30T16:47:24.999Z</time></trkpt><trkpt lat="45.41526827448741" lon="9.251472948402323"><ele>99.0</ele><time>2026-04-30T16:47:25.999Z</time></trkpt><trkpt lat="45.415437295527774" lon="9.2512557082975"><ele>99.0</ele><time>2026-04-30T16:47:26.999Z</time></trkpt><trkpt lat="45.415570141006555" lon="9.251007804990797"><ele>99.0</ele><time>2026-04-30T16:47:27.999Z</time></trkpt><trkpt lat="45.41571996637332" lon="9.250807468022298"><ele>100.33333333333334</ele><time>2026-04-30T16:47:28.999Z</time></trkpt><trkpt lat="45.415857497164474" lon="9.250591026186884"><ele>101.66666666666667</ele><time>2026-04-30T16:47:29.999Z</time></trkpt><trkpt lat="45.4159819787774" lon="9.250343422650843"><ele>103.0</ele><time>2026-04-30T16:47:30.999Z</time></trkpt><trkpt lat="45.41613780671192" lon="9.25015682592477"><ele>103.0</ele><time>2026-04-30T16:47:31.999Z</time></trkpt><trkpt lat="45.41627271102699" lon="9.249925711119811"><ele>103.0</ele><time>2026-04-30T16:47:32.999Z</time></trkpt><trkpt lat="45.41642295673998" lon="9.24972429666159"><ele>103.0</ele><time>2026-04-30T16:47:33.999Z</time></trkpt><trkpt lat="45.41655876188844" lon="9.24946416511179"><ele>102.66666666666667</ele><time>2026-04-30T16:47:34.999Z</time></trkpt><trkpt lat="45.41670470767228" lon="9.249255659270307"><ele>102.33333333333334</ele><time>2026-04-30T16:47:35.999Z</time></trkpt><trkpt lat="45.41685720522931" lon="9.249046023024935"><ele>102.0</ele><time>2026-04-30T16:47:36.999Z</time></trkpt><trkpt lat="45.4170074043679" lon="9.248811950404741"><ele>100.66666666666666</ele><time>2026-04-30T16:47:37.999Z</time></trkpt><trkpt lat="45.41717168354673" lon="9.248605309313763"><ele>99.33333333333333</ele><time>2026-04-30T16:47:38.999Z</time></trkpt><trkpt lat="45.41733209160623" lon="9.248415015596878"><ele>98.0</ele><time>2026-04-30T16:47:39.999Z</time></trkpt><trkpt lat="45.417499057047344" lon="9.24816160804226"><ele>98.66666666666666</ele><time>2026-04-30T16:47:40.999Z</time></trkpt><trkpt lat="45.41766302116757" lon="9.247948195928958"><ele>99.33333333333334</ele><time>2026-04-30T16:47:41.999Z</time></trkpt><trkpt lat="45.41780976798482" lon="9.24775682765716"><ele>100.0</ele><time>2026-04-30T16:47:42.999Z</time></trkpt><trkpt lat="45.41796734100604" lon="9.247580048277413"><ele>100.33333333333334</ele><time>2026-04-30T16:47:43.999Z</time></trkpt><trkpt lat="45.41815954268286" lon="9.24741057689337"><ele>100.66666666666666</ele><time>2026-04-30T16:47:44.999Z</time></trkpt><trkpt lat="45.41834214577018" lon="9.247239170055488"><ele>101.0</ele><time>2026-04-30T16:47:45.999Z</time></trkpt><trkpt lat="45.418509906464756" lon="9.247044277264191"><ele>101.0</ele><time>2026-04-30T16:47:46.999Z</time></trkpt><trkpt lat="45.41870336131994" lon="9.246913332591173"><ele>101.0</ele><time>2026-04-30T16:47:47.999Z</time></trkpt><trkpt lat="45.41889759870605" lon="9.246772994313426"><ele>101.0</ele><time>2026-04-30T16:47:48.999Z</time></trkpt><trkpt lat="45.41908464804668" lon="9.246654783279004"><ele>102.33333333333333</ele><time>2026-04-30T16:47:49.999Z</time></trkpt><trkpt lat="45.41928556810805" lon="9.246572004244241"><ele>103.66666666666666</ele><time>2026-04-30T16:47:50.999Z</time></trkpt><trkpt lat="45.41948775330703" lon="9.24647334819452"><ele>105.0</ele><time>2026-04-30T16:47:51.999Z</time></trkpt><trkpt lat="45.41968131095533" lon="9.24634142280975"><ele>105.0</ele><time>2026-04-30T16:47:52.999Z</time></trkpt><trkpt lat="45.41985813989368" lon="9.246230867597276"><ele>105.0</ele><time>2026-04-30T16:47:53.999Z</time></trkpt><trkpt lat="45.42005683477648" lon="9.246131221043392"><ele>105.0</ele><time>2026-04-30T16:47:54.999Z</time></trkpt><trkpt lat="45.42023182877118" lon="9.24607314360812"><ele>105.0</ele><time>2026-04-30T16:47:55.999Z</time></trkpt><trkpt lat="45.420445197853496" lon="9.246050319471125"><ele>105.0</ele><time>2026-04-30T16:47:56.999Z</time></trkpt><trkpt lat="45.42066792202755" lon="9.24601693249167"><ele>105.0</ele><time>2026-04-30T16:47:57.999Z</time></trkpt><trkpt lat="45.42087378619757" lon="9.245992427946202"><ele>105.66666666666666</ele><time>2026-04-30T16:47:58.999Z</time></trkpt><trkpt lat="45.42109103040982" lon="9.246008935255023"><ele>106.33333333333333</ele><time>2026-04-30T16:47:59.999Z</time></trkpt><trkpt lat="45.42129418722733" lon="9.245975384333317"><ele>107.0</ele><time>2026-04-30T16:48:00.999Z</time></trkpt><trkpt lat="45.42151375982517" lon="9.245983968830572"><ele>107.0</ele><time>2026-04-30T16:48:01.999Z</time></trkpt><trkpt lat="45.42173910376059" lon="9.245992761270742"><ele>107.0</ele><time>2026-04-30T16:48:02.999Z</time></trkpt><trkpt lat="45.42195225745928" lon="9.2459366712907"><ele>107.0</ele><time>2026-04-30T16:48:03.999Z</time></trkpt><trkpt lat="45.42216778213426" lon="9.24589165550884"><ele>106.33333333333333</ele><time>2026-04-30T16:48:04.999Z</time></trkpt><trkpt lat="45.422369788317006" lon="9.245885280446414"><ele>105.66666666666666</ele><time>2026-04-30T16:48:05.999Z</time></trkpt><trkpt lat="45.42257165500953" lon="9.245856462951261"><ele>105.0</ele><time>2026-04-30T16:48:06.999Z</time></trkpt><trkpt lat="45.42278544917103" lon="9.245838416505327"><ele>104.33333333333334</ele><time>2026-04-30T16:48:07.999Z</time></trkpt><trkpt lat="45.423007242095906" lon="9.245828926781613"><ele>103.66666666666667</ele><time>2026-04-30T16:48:08.999Z</time></trkpt><trkpt lat="45.42322430775652" lon="9.245798982148639"><ele>103.0</ele><time>2026-04-30T16:48:09.999Z</time></trkpt><trkpt lat="45.42343584130122" lon="9.245777984766129"><ele>103.0</ele><time>2026-04-30T16:48:10.999Z</time></trkpt><trkpt lat="45.42362565746723" lon="9.245774392774686"><ele>103.0</ele><time>2026-04-30T16:48:11.999Z</time></trkpt><trkpt lat="45.423830885047366" lon="9.245745352065084"><ele>103.0</ele><time>2026-04-30T16:48:12.999Z</time></trkpt><trkpt lat="45.42404198969838" lon="9.245722845629391"><ele>102.66666666666667</ele><time>2026-04-30T16:48:13.999Z</time></trkpt><trkpt lat="45.42424977103889" lon="9.245687850588117"><ele>102.33333333333334</ele><time>2026-04-30T16:48:14.999Z</time></trkpt><trkpt lat="45.42444715623057" lon="9.245679734123673"><ele>102.0</ele><time>2026-04-30T16:48:15.999Z</time></trkpt><trkpt lat="45.424638340082325" lon="9.24565033209286"><ele>103.0</ele><time>2026-04-30T16:48:16.999Z</time></trkpt><trkpt lat="45.42486270040724" lon="9.245610733821463"><ele>104.0</ele><time>2026-04-30T16:48:17.999Z</time></trkpt><trkpt lat="45.42510389734562" lon="9.245556253267695"><ele>104.0</ele><time>2026-04-30T16:48:18.999Z</time></trkpt><trkpt lat="45.42533822891098" lon="9.245544133990581"><ele>104.0</ele><time>2026-04-30T16:48:19.999Z</time></trkpt><trkpt lat="45.42556780975111" lon="9.24553063126213"><ele>104.0</ele><time>2026-04-30T16:48:20.999Z</time></trkpt><trkpt lat="45.42580361483107" lon="9.245568964497224"><ele>104.0</ele><time>2026-04-30T16:48:21.998Z</time></trkpt><trkpt lat="45.42602145840911" lon="9.245631008783155"><ele>104.0</ele><time>2026-04-30T16:48:22.998Z</time></trkpt><trkpt lat="45.42623014270013" lon="9.245717256025697"><ele>104.0</ele><time>2026-04-30T16:48:23.998Z</time></trkpt><trkpt lat="45.42646936113338" lon="9.245743431545927"><ele>103.0</ele><time>2026-04-30T16:48:24.998Z</time></trkpt><trkpt lat="45.426675694311086" lon="9.24587082154184"><ele>102.0</ele><time>2026-04-30T16:48:25.998Z</time></trkpt><trkpt lat="45.426874879590535" lon="9.245986815325349"><ele>101.0</ele><time>2026-04-30T16:48:26.998Z</time></trkpt><trkpt lat="45.42706946398327" lon="9.246100021175254"><ele>102.0</ele><time>2026-04-30T16:48:27.998Z</time></trkpt><trkpt lat="45.427284361170095" lon="9.246210202583804"><ele>103.0</ele><time>2026-04-30T16:48:28.998Z</time></trkpt><trkpt lat="45.4274656585029" lon="9.246365912232843"><ele>104.0</ele><time>2026-04-30T16:48:29.998Z</time></trkpt><trkpt lat="45.42763568908138" lon="9.24652954404752"><ele>104.66666666666666</ele><time>2026-04-30T16:48:30.998Z</time></trkpt><trkpt lat="45.427807527658906" lon="9.246709221629128"><ele>105.33333333333334</ele><time>2026-04-30T16:48:31.998Z</time></trkpt><trkpt lat="45.427975677904826" lon="9.24689524918308"><ele>106.0</ele><time>2026-04-30T16:48:32.998Z</time></trkpt><trkpt lat="45.42813448469499" lon="9.247084720153113"><ele>107.66666666666667</ele><time>2026-04-30T16:48:33.998Z</time></trkpt><trkpt lat="45.428256454070954" lon="9.247298074127919"><ele>109.33333333333334</ele><time>2026-04-30T16:48:34.998Z</time></trkpt><trkpt lat="45.428422124457654" lon="9.247476837559974"><ele>111.0</ele><time>2026-04-30T16:48:35.998Z</time></trkpt><trkpt lat="45.428571678567636" lon="9.247683396523358"><ele>111.0</ele><time>2026-04-30T16:48:36.998Z</time></trkpt><trkpt lat="45.42871523905849" lon="9.247877315943724"><ele>111.0</ele><time>2026-04-30T16:48:37.998Z</time></trkpt><trkpt lat="45.42890040863138" lon="9.248095184196858"><ele>111.0</ele><time>2026-04-30T16:48:38.998Z</time></trkpt><trkpt lat="45.42901636001944" lon="9.248378040375743"><ele>110.66666666666666</ele><time>2026-04-30T16:48:39.998Z</time></trkpt><trkpt lat="45.429157420328806" lon="9.248611253324352"><ele>110.33333333333333</ele><time>2026-04-30T16:48:40.998Z</time></trkpt><trkpt lat="45.42931038885487" lon="9.248826113658517"><ele>110.0</ele><time>2026-04-30T16:48:41.998Z</time></trkpt><trkpt lat="45.42945579983395" lon="9.249056440464459"><ele>109.33333333333333</ele><time>2026-04-30T16:48:42.998Z</time></trkpt><trkpt lat="45.42962030490022" lon="9.249279616198057"><ele>108.66666666666666</ele><time>2026-04-30T16:48:43.998Z</time></trkpt><trkpt lat="45.42975984730029" lon="9.24950910042569"><ele>108.0</ele><time>2026-04-30T16:48:44.998Z</time></trkpt><trkpt lat="45.42987736207435" lon="9.249766263915411"><ele>107.66666666666666</ele><time>2026-04-30T16:48:45.998Z</time></trkpt><trkpt lat="45.43000620157793" lon="9.250016009613084"><ele>107.33333333333333</ele><time>2026-04-30T16:48:46.998Z</time></trkpt><trkpt lat="45.43016020737319" lon="9.25022748635696"><ele>107.0</ele><time>2026-04-30T16:48:47.998Z</time></trkpt><trkpt lat="45.43028424738867" lon="9.250466582164568"><ele>106.66666666666666</ele><time>2026-04-30T16:48:48.998Z</time></trkpt><trkpt lat="45.430422308895494" lon="9.25069120414022"><ele>106.33333333333334</ele><time>2026-04-30T16:48:49.998Z</time></trkpt><trkpt lat="45.4305445954644" lon="9.250930337565576"><ele>106.0</ele><time>2026-04-30T16:48:50.998Z</time></trkpt><trkpt lat="45.43067348369525" lon="9.251157318072416"><ele>106.0</ele><time>2026-04-30T16:48:51.998Z</time></trkpt><trkpt lat="45.43081819860834" lon="9.251377582967809"><ele>106.0</ele><time>2026-04-30T16:48:52.998Z</time></trkpt><trkpt lat="45.43096837096644" lon="9.2516001581827"><ele>106.0</ele><time>2026-04-30T16:48:53.998Z</time></trkpt><trkpt lat="45.43111266704022" lon="9.251835744327595"><ele>106.0</ele><time>2026-04-30T16:48:54.998Z</time></trkpt><trkpt lat="45.43127525736256" lon="9.252036040830612"><ele>106.0</ele><time>2026-04-30T16:48:55.998Z</time></trkpt><trkpt lat="45.431432561543325" lon="9.25224046553951"><ele>106.0</ele><time>2026-04-30T16:48:56.998Z</time></trkpt><trkpt lat="45.43159042025271" lon="9.252446702267584"><ele>105.33333333333334</ele><time>2026-04-30T16:48:57.998Z</time></trkpt><trkpt lat="45.43174813108225" lon="9.252652638820651"><ele>104.66666666666666</ele><time>2026-04-30T16:48:58.998Z</time></trkpt><trkpt lat="45.43190037375701" lon="9.252864582378713"><ele>104.0</ele><time>2026-04-30T16:48:59.998Z</time></trkpt><trkpt lat="45.43205990020679" lon="9.25305427760053"><ele>103.33333333333333</ele><time>2026-04-30T16:49:00.998Z</time></trkpt><trkpt lat="45.432227521973786" lon="9.253222879189016"><ele>102.66666666666666</ele><time>2026-04-30T16:49:01.998Z</time></trkpt><trkpt lat="45.43240199128939" lon="9.253383284328201"><ele>102.0</ele><time>2026-04-30T16:49:02.999Z</time></trkpt><trkpt lat="45.43258675362754" lon="9.253576700632108"><ele>102.0</ele><time>2026-04-30T16:49:03.999Z</time></trkpt><trkpt lat="45.43275869300151" lon="9.25371243735502"><ele>102.0</ele><time>2026-04-30T16:49:04.999Z</time></trkpt><trkpt lat="45.43292845648091" lon="9.25387232510798"><ele>102.0</ele><time>2026-04-30T16:49:05.999Z</time></trkpt><trkpt lat="45.43309434300329" lon="9.254044170773009"><ele>103.66666666666666</ele><time>2026-04-30T16:49:06.999Z</time></trkpt><trkpt lat="45.4332767279311" lon="9.254212588945197"><ele>105.33333333333333</ele><time>2026-04-30T16:49:07.999Z</time></trkpt><trkpt lat="45.433448354053944" lon="9.254388434768007"><ele>107.0</ele><time>2026-04-30T16:49:08.999Z</time></trkpt><trkpt lat="45.43362994601764" lon="9.254544942775775"><ele>107.0</ele><time>2026-04-30T16:49:09.999Z</time></trkpt><trkpt lat="45.433809437547815" lon="9.254692784910608"><ele>107.0</ele><time>2026-04-30T16:49:10.999Z</time></trkpt><trkpt lat="45.43399353069114" lon="9.254842339808777"><ele>107.0</ele><time>2026-04-30T16:49:11.999Z</time></trkpt><trkpt lat="45.43418736449727" lon="9.254970022571149"><ele>107.0</ele><time>2026-04-30T16:49:12.999Z</time></trkpt><trkpt lat="45.43437573948954" lon="9.255097735918644"><ele>107.0</ele><time>2026-04-30T16:49:13.999Z</time></trkpt><trkpt lat="45.43457532864639" lon="9.255218089818083"><ele>107.0</ele><time>2026-04-30T16:49:14.999Z</time></trkpt><trkpt lat="45.434764009589685" lon="9.255322629859464"><ele>106.66666666666666</ele><time>2026-04-30T16:49:15.999Z</time></trkpt><trkpt lat="45.434954169803426" lon="9.255435502051554"><ele>106.33333333333334</ele><time>2026-04-30T16:49:16.999Z</time></trkpt><trkpt lat="45.43515998869993" lon="9.255552280848931"><ele>106.0</ele><time>2026-04-30T16:49:17.999Z</time></trkpt><trkpt lat="45.43539671493501" lon="9.255589556043216"><ele>106.66666666666667</ele><time>2026-04-30T16:49:18.999Z</time></trkpt><trkpt lat="45.435589997484946" lon="9.255710795482068"><ele>107.33333333333334</ele><time>2026-04-30T16:49:19.999Z</time></trkpt><trkpt lat="45.43579667107878" lon="9.255819876983102"><ele>108.0</ele><time>2026-04-30T16:49:20.999Z</time></trkpt><trkpt lat="45.43600725915511" lon="9.255917936768855"><ele>108.0</ele><time>2026-04-30T16:49:21.999Z</time></trkpt><trkpt lat="45.436174365049396" lon="9.256059638193864"><ele>108.0</ele><time>2026-04-30T16:49:22.999Z</time></trkpt><trkpt lat="45.43637886832943" lon="9.256125449095352"><ele>108.0</ele><time>2026-04-30T16:49:23.999Z</time></trkpt><trkpt lat="45.43657300034014" lon="9.256176740520281"><ele>107.33333333333334</ele><time>2026-04-30T16:49:24.999Z</time></trkpt><trkpt lat="45.436765958788335" lon="9.256269477538602"><ele>106.66666666666667</ele><time>2026-04-30T16:49:25.999Z</time></trkpt><trkpt lat="45.43694485918265" lon="9.256342874018438"><ele>106.0</ele><time>2026-04-30T16:49:26.999Z</time></trkpt><trkpt lat="45.437116626289864" lon="9.25639102532582"><ele>106.66666666666667</ele><time>2026-04-30T16:49:27.999Z</time></trkpt><trkpt lat="45.437291482056935" lon="9.25643619225204"><ele>107.33333333333334</ele><time>2026-04-30T16:49:28.998Z</time></trkpt><trkpt lat="45.437479812815035" lon="9.256498125207015"><ele>108.0</ele><time>2026-04-30T16:49:29.998Z</time></trkpt><trkpt lat="45.437672886264345" lon="9.256562098917298"><ele>106.66666666666666</ele><time>2026-04-30T16:49:30.998Z</time></trkpt><trkpt lat="45.43786504817999" lon="9.256597457848065"><ele>105.33333333333333</ele><time>2026-04-30T16:49:31.998Z</time></trkpt><trkpt lat="45.438039258611866" lon="9.256614085178729"><ele>104.0</ele><time>2026-04-30T16:49:32.998Z</time></trkpt><trkpt lat="45.438225452249355" lon="9.25665343733503"><ele>104.0</ele><time>2026-04-30T16:49:33.998Z</time></trkpt><trkpt lat="45.43837419868474" lon="9.25669123830269"><ele>104.0</ele><time>2026-04-30T16:49:34.998Z</time></trkpt><trkpt lat="45.43853363109712" lon="9.256718729048805"><ele>104.0</ele><time>2026-04-30T16:49:35.998Z</time></trkpt><trkpt lat="45.43867684470806" lon="9.25676211222606"><ele>104.0</ele><time>2026-04-30T16:49:36.998Z</time></trkpt><trkpt lat="45.438817554733774" lon="9.256812660616424"><ele>104.0</ele><time>2026-04-30T16:49:37.998Z</time></trkpt><trkpt lat="45.43895562821311" lon="9.25686680538738"><ele>104.0</ele><time>2026-04-30T16:49:38.998Z</time></trkpt><trkpt lat="45.43910907267952" lon="9.256919181663907"><ele>104.0</ele><time>2026-04-30T16:49:39.998Z</time></trkpt><trkpt lat="45.439248732455255" lon="9.256959452805637"><ele>104.0</ele><time>2026-04-30T16:49:40.998Z</time></trkpt><trkpt lat="45.43937858256745" lon="9.25699359749697"><ele>104.0</ele><time>2026-04-30T16:49:41.998Z</time></trkpt><trkpt lat="45.439520462222255" lon="9.257046589655394"><ele>104.0</ele><time>2026-04-30T16:49:42.998Z</time></trkpt><trkpt lat="45.43965125146778" lon="9.257095462647543"><ele>104.0</ele><time>2026-04-30T16:49:43.998Z</time></trkpt><trkpt lat="45.439780486937636" lon="9.257136974661789"><ele>104.25</ele><time>2026-04-30T16:49:44.998Z</time></trkpt><trkpt lat="45.43990627826828" lon="9.25718508915398"><ele>104.5</ele><time>2026-04-30T16:49:45.998Z</time></trkpt><trkpt lat="45.440024335092495" lon="9.257237158400482"><ele>104.75</ele><time>2026-04-30T16:49:46.998Z</time></trkpt><trkpt lat="45.440171001818584" lon="9.257261733964661"><ele>105.0</ele><time>2026-04-30T16:49:47.998Z</time></trkpt><trkpt lat="45.44031021045448" lon="9.257318809650938"><ele>104.5</ele><time>2026-04-30T16:49:48.998Z</time></trkpt><trkpt lat="45.44043185040651" lon="9.257383030391402"><ele>104.0</ele><time>2026-04-30T16:49:49.998Z</time></trkpt><trkpt lat="45.44055104116367" lon="9.257421076770811"><ele>103.5</ele><time>2026-04-30T16:49:50.998Z</time></trkpt><trkpt lat="45.44064838425104" lon="9.257466780065242"><ele>103.0</ele><time>2026-04-30T16:49:51.998Z</time></trkpt><trkpt lat="45.44076612360178" lon="9.257419400241883"><ele>103.0</ele><time>2026-04-30T16:49:52.998Z</time></trkpt><trkpt lat="45.44087523680112" lon="9.257434407804013"><ele>103.0</ele><time>2026-04-30T16:49:53.998Z</time></trkpt><trkpt lat="45.44098359288977" lon="9.257479478919283"><ele>103.0</ele><time>2026-04-30T16:49:54.998Z</time></trkpt><trkpt lat="45.441085943782944" lon="9.257486108518252"><ele>103.0</ele><time>2026-04-30T16:49:55.998Z</time></trkpt><trkpt lat="45.441189124477376" lon="9.257562125147137"><ele>103.0</ele><time>2026-04-30T16:49:56.998Z</time></trkpt><trkpt lat="45.44127196984866" lon="9.257589852494615"><ele>101.75</ele><time>2026-04-30T16:49:57.998Z</time></trkpt><trkpt lat="45.44140161621656" lon="9.257651106243701"><ele>100.5</ele><time>2026-04-30T16:49:58.998Z</time></trkpt><trkpt lat="45.44151822069821" lon="9.257684324526018"><ele>99.25</ele><time>2026-04-30T16:49:59.998Z</time></trkpt><trkpt lat="45.44164965870655" lon="9.25772075542271"><ele>98.0</ele><time>2026-04-30T16:50:00.998Z</time></trkpt><trkpt lat="45.441746795887155" lon="9.257754268605773"><ele>98.0</ele><time>2026-04-30T16:50:01.998Z</time></trkpt><trkpt lat="45.441859530956854" lon="9.25780347363844"><ele>98.0</ele><time>2026-04-30T16:50:02.998Z</time></trkpt><trkpt lat="45.44196666555636" lon="9.257838659462708"><ele>98.0</ele><time>2026-04-30T16:50:03.998Z</time></trkpt><trkpt lat="45.442094135705375" lon="9.257835126868192"><ele>98.0</ele><time>2026-04-30T16:50:04.998Z</time></trkpt><trkpt lat="45.44221440532524" lon="9.257860183623093"><ele>98.99999999999999</ele><time>2026-04-30T16:50:05.998Z</time></trkpt><trkpt lat="45.44229122055138" lon="9.25788515635655"><ele>100.0</ele><time>2026-04-30T16:50:06.998Z</time></trkpt><trkpt lat="45.44238331056442" lon="9.257939124992733"><ele>101.0</ele><time>2026-04-30T16:50:07.998Z</time></trkpt><trkpt lat="45.44245573391252" lon="9.25796273748913"><ele>102.0</ele><time>2026-04-30T16:50:08.998Z</time></trkpt><trkpt lat="45.442517314018936" lon="9.258021127309943"><ele>102.99999999999999</ele><time>2026-04-30T16:50:09.998Z</time></trkpt><trkpt lat="45.44259173872179" lon="9.258065440798875"><ele>104.0</ele><time>2026-04-30T16:50:10.998Z</time></trkpt><trkpt lat="45.44268036373941" lon="9.258102737564398"><ele>104.0</ele><time>2026-04-30T16:50:11.998Z</time></trkpt><trkpt lat="45.442777346551296" lon="9.258157558714835"><ele>104.0</ele><time>2026-04-30T16:50:12.998Z</time></trkpt><trkpt lat="45.44290512404524" lon="9.258072531214719"><ele>104.0</ele><time>2026-04-30T16:50:13.998Z</time></trkpt><trkpt lat="45.443026612279105" lon="9.258107913488141"><ele>104.0</ele><time>2026-04-30T16:50:14.998Z</time></trkpt><trkpt lat="45.44314517474455" lon="9.25814244365709"><ele>103.25</ele><time>2026-04-30T16:50:15.998Z</time></trkpt><trkpt lat="45.44324818663579" lon="9.258171899937997"><ele>102.5</ele><time>2026-04-30T16:50:16.998Z</time></trkpt><trkpt lat="45.44336028537425" lon="9.258203330628474"><ele>101.75</ele><time>2026-04-30T16:50:17.998Z</time></trkpt><trkpt lat="45.44349897979501" lon="9.258161244917543"><ele>101.0</ele><time>2026-04-30T16:50:18.998Z</time></trkpt><trkpt lat="45.4436549362571" lon="9.258189733538082"><ele>101.0</ele><time>2026-04-30T16:50:19.998Z</time></trkpt><trkpt lat="45.443780727575934" lon="9.25823328366459"><ele>101.0</ele><time>2026-04-30T16:50:20.998Z</time></trkpt><trkpt lat="45.443902777193074" lon="9.258269083783139"><ele>101.0</ele><time>2026-04-30T16:50:21.998Z</time></trkpt><trkpt lat="45.44403567427253" lon="9.258305931623507"><ele>101.0</ele><time>2026-04-30T16:50:22.998Z</time></trkpt><trkpt lat="45.44414563727655" lon="9.258340036879533"><ele>98.75</ele><time>2026-04-30T16:50:23.998Z</time></trkpt><trkpt lat="45.444275946859406" lon="9.258372950401364"><ele>96.5</ele><time>2026-04-30T16:50:24.998Z</time></trkpt><trkpt lat="45.444392058113586" lon="9.258411595747756"><ele>94.25</ele><time>2026-04-30T16:50:25.998Z</time></trkpt><trkpt lat="45.44453430055446" lon="9.25845253745836"><ele>92.0</ele><time>2026-04-30T16:50:26.998Z</time></trkpt><trkpt lat="45.444641672964686" lon="9.258526791425375"><ele>91.8</ele><time>2026-04-30T16:50:27.998Z</time></trkpt><trkpt lat="45.44474921980745" lon="9.258563355620009"><ele>91.6</ele><time>2026-04-30T16:50:28.998Z</time></trkpt><trkpt lat="45.44486226470199" lon="9.25859729215259"><ele>91.39999999999999</ele><time>2026-04-30T16:50:29.998Z</time></trkpt><trkpt lat="45.444947313402515" lon="9.258647425374463"><ele>91.19999999999999</ele><time>2026-04-30T16:50:30.998Z</time></trkpt><trkpt lat="45.44504825312499" lon="9.258689192093453"><ele>91.0</ele><time>2026-04-30T16:50:31.998Z</time></trkpt><trkpt lat="45.44513779014279" lon="9.25871347726761"><ele>91.0</ele><time>2026-04-30T16:50:32.998Z</time></trkpt><trkpt lat="45.44522598690375" lon="9.258745863540163"><ele>91.0</ele><time>2026-04-30T16:50:33.998Z</time></trkpt><trkpt lat="45.44530905327567" lon="9.258765203871278"><ele>91.0</ele><time>2026-04-30T16:50:34.998Z</time></trkpt><trkpt lat="45.44539333465409" lon="9.258793351919481"><ele>91.0</ele><time>2026-04-30T16:50:35.997Z</time></trkpt><trkpt lat="45.44548069663958" lon="9.258799768277294"><ele>91.0</ele><time>2026-04-30T16:50:36.997Z</time></trkpt><trkpt lat="45.44558544113793" lon="9.258742631967367"><ele>92.66666666666666</ele><time>2026-04-30T16:50:37.997Z</time></trkpt><trkpt lat="45.445684472208136" lon="9.258776312488381"><ele>94.33333333333333</ele><time>2026-04-30T16:50:38.997Z</time></trkpt><trkpt lat="45.44577987899368" lon="9.258805554838924"><ele>96.0</ele><time>2026-04-30T16:50:39.997Z</time></trkpt><trkpt lat="45.44588180393723" lon="9.25883818366405"><ele>97.66666666666666</ele><time>2026-04-30T16:50:40.997Z</time></trkpt><trkpt lat="45.445948002872804" lon="9.258867371919365"><ele>99.33333333333333</ele><time>2026-04-30T16:50:41.997Z</time></trkpt><trkpt lat="45.44601859422134" lon="9.25888271127194"><ele>101.0</ele><time>2026-04-30T16:50:42.997Z</time></trkpt><trkpt lat="45.44612767893673" lon="9.258912268393134"><ele>101.0</ele><time>2026-04-30T16:50:43.997Z</time></trkpt><trkpt lat="45.44623022997311" lon="9.258925807333812"><ele>101.0</ele><time>2026-04-30T16:50:44.997Z</time></trkpt><trkpt lat="45.446353988449545" lon="9.258965324894923"><ele>101.0</ele><time>2026-04-30T16:50:45.997Z</time></trkpt><trkpt lat="45.44644918185917" lon="9.258988751217018"><ele>101.0</ele><time>2026-04-30T16:50:46.997Z</time></trkpt><trkpt lat="45.44655874342413" lon="9.259032228991378"><ele>101.0</ele><time>2026-04-30T16:50:47.997Z</time></trkpt><trkpt lat="45.4466402711394" lon="9.259027430846015"><ele>102.25</ele><time>2026-04-30T16:50:48.997Z</time></trkpt><trkpt lat="45.44677048211493" lon="9.259026201716784"><ele>103.5</ele><time>2026-04-30T16:50:49.997Z</time></trkpt><trkpt lat="45.44688826412715" lon="9.25904276368627"><ele>104.75</ele><time>2026-04-30T16:50:50.997Z</time></trkpt><trkpt lat="45.446996250866306" lon="9.25906090553086"><ele>106.0</ele><time>2026-04-30T16:50:51.997Z</time></trkpt><trkpt lat="45.44709651310511" lon="9.25908653814232"><ele>106.5</ele><time>2026-04-30T16:50:52.997Z</time></trkpt><trkpt lat="45.44721685279699" lon="9.25909060907284"><ele>107.0</ele><time>2026-04-30T16:50:53.997Z</time></trkpt><trkpt lat="45.44732739510125" lon="9.259136604715533"><ele>107.5</ele><time>2026-04-30T16:50:54.997Z</time></trkpt><trkpt lat="45.44744287890378" lon="9.259173459365085"><ele>108.0</ele><time>2026-04-30T16:50:55.997Z</time></trkpt><trkpt lat="45.44756791849362" lon="9.25917662080928"><ele>108.0</ele><time>2026-04-30T16:50:56.997Z</time></trkpt><trkpt lat="45.447677170866015" lon="9.259176982480207"><ele>108.00000000000001</ele><time>2026-04-30T16:50:57.997Z</time></trkpt><trkpt lat="45.44777911165142" lon="9.259112146830288"><ele>108.00000000000001</ele><time>2026-04-30T16:50:58.997Z</time></trkpt><trkpt lat="45.44787521319831" lon="9.2590870125658"><ele>108.0</ele><time>2026-04-30T16:50:59.997Z</time></trkpt><trkpt lat="45.44799273149717" lon="9.259075541770374"><ele>108.0</ele><time>2026-04-30T16:51:00.997Z</time></trkpt><trkpt lat="45.448109118860785" lon="9.259074255136944"><ele>107.25</ele><time>2026-04-30T16:51:01.997Z</time></trkpt><trkpt lat="45.44822242063965" lon="9.259055949264267"><ele>106.5</ele><time>2026-04-30T16:51:02.997Z</time></trkpt><trkpt lat="45.448335153002084" lon="9.259043548268824"><ele>105.75</ele><time>2026-04-30T16:51:03.997Z</time></trkpt><trkpt lat="45.44845470002659" lon="9.259029613329544"><ele>105.0</ele><time>2026-04-30T16:51:04.997Z</time></trkpt><trkpt lat="45.44857526423071" lon="9.259023860733322"><ele>105.0</ele><time>2026-04-30T16:51:05.997Z</time></trkpt><trkpt lat="45.44869507065809" lon="9.258979662318556"><ele>105.0</ele><time>2026-04-30T16:51:06.997Z</time></trkpt><trkpt lat="45.44882186708134" lon="9.258925059385499"><ele>105.0</ele><time>2026-04-30T16:51:07.997Z</time></trkpt><trkpt lat="45.44892895303909" lon="9.258862713713198"><ele>105.0</ele><time>2026-04-30T16:51:08.997Z</time></trkpt><trkpt lat="45.44905610013874" lon="9.258826108226328"><ele>106.0</ele><time>2026-04-30T16:51:09.997Z</time></trkpt><trkpt lat="45.449182922616465" lon="9.258786943887094"><ele>107.0</ele><time>2026-04-30T16:51:10.997Z</time></trkpt><trkpt lat="45.44930363617564" lon="9.258751862561247"><ele>108.0</ele><time>2026-04-30T16:51:11.997Z</time></trkpt><trkpt lat="45.44944136777803" lon="9.258709777871312"><ele>109.0</ele><time>2026-04-30T16:51:12.997Z</time></trkpt><trkpt lat="45.44958816580911" lon="9.258648669296724"><ele>109.75</ele><time>2026-04-30T16:51:13.997Z</time></trkpt><trkpt lat="45.44971567021897" lon="9.258608463331171"><ele>110.5</ele><time>2026-04-30T16:51:14.997Z</time></trkpt><trkpt lat="45.449840316745984" lon="9.258577112677424"><ele>111.25</ele><time>2026-04-30T16:51:15.997Z</time></trkpt><trkpt lat="45.44996144929705" lon="9.258528718163122"><ele>112.0</ele><time>2026-04-30T16:51:16.997Z</time></trkpt><trkpt lat="45.45008195548622" lon="9.258445723090817"><ele>112.0</ele><time>2026-04-30T16:51:17.997Z</time></trkpt><trkpt lat="45.450196296815676" lon="9.25836714371266"><ele>111.99999999999999</ele><time>2026-04-30T16:51:18.997Z</time></trkpt><trkpt lat="45.450293338423315" lon="9.258293894885163"><ele>111.99999999999999</ele><time>2026-04-30T16:51:19.997Z</time></trkpt><trkpt lat="45.45037871308531" lon="9.258230470048856"><ele>112.0</ele><time>2026-04-30T16:51:20.997Z</time></trkpt><trkpt lat="45.450479947020405" lon="9.258200346324013"><ele>112.0</ele><time>2026-04-30T16:51:21.997Z</time></trkpt><trkpt lat="45.45055365561365" lon="9.258165099975933"><ele>112.0</ele><time>2026-04-30T16:51:22.997Z</time></trkpt><trkpt lat="45.4506409877791" lon="9.258101624203338"><ele>111.99999999999999</ele><time>2026-04-30T16:51:23.997Z</time></trkpt><trkpt lat="45.45073056877291" lon="9.258040710014157"><ele>111.99999999999999</ele><time>2026-04-30T16:51:24.997Z</time></trkpt><trkpt lat="45.45082292368671" lon="9.257961373402017"><ele>112.0</ele><time>2026-04-30T16:51:25.997Z</time></trkpt><trkpt lat="45.450902556222026" lon="9.257883596984026"><ele>112.0</ele><time>2026-04-30T16:51:26.997Z</time></trkpt><trkpt lat="45.450990456197694" lon="9.257812655575782"><ele>112.0</ele><time>2026-04-30T16:51:27.997Z</time></trkpt><trkpt lat="45.45108275175001" lon="9.257735752284427"><ele>111.99999999999999</ele><time>2026-04-30T16:51:28.997Z</time></trkpt><trkpt lat="45.451174481884976" lon="9.257665806715872"><ele>111.99999999999999</ele><time>2026-04-30T16:51:29.997Z</time></trkpt><trkpt lat="45.45125190600684" lon="9.257599651775898"><ele>112.0</ele><time>2026-04-30T16:51:30.997Z</time></trkpt><trkpt lat="45.45133438913061" lon="9.25753465617442"><ele>112.0</ele><time>2026-04-30T16:51:31.997Z</time></trkpt><trkpt lat="45.45140286724677" lon="9.257428627185837"><ele>111.8</ele><time>2026-04-30T16:51:32.997Z</time></trkpt><trkpt lat="45.45146052309383" lon="9.257358136259382"><ele>111.6</ele><time>2026-04-30T16:51:33.997Z</time></trkpt><trkpt lat="45.45157432465193" lon="9.257286038809214"><ele>111.39999999999999</ele><time>2026-04-30T16:51:34.997Z</time></trkpt><trkpt lat="45.45166231338148" lon="9.257207929590171"><ele>111.19999999999999</ele><time>2026-04-30T16:51:35.997Z</time></trkpt><trkpt lat="45.45173233224753" lon="9.25715985718895"><ele>111.0</ele><time>2026-04-30T16:51:36.997Z</time></trkpt><trkpt lat="45.45180249960191" lon="9.257073617517335"><ele>111.0</ele><time>2026-04-30T16:51:37.997Z</time></trkpt><trkpt lat="45.451877241125295" lon="9.257001768449964"><ele>111.0</ele><time>2026-04-30T16:51:38.997Z</time></trkpt><trkpt lat="45.4519484360532" lon="9.256929121358002"><ele>111.0</ele><time>2026-04-30T16:51:39.997Z</time></trkpt><trkpt lat="45.45201940781871" lon="9.256864800945355"><ele>111.0</ele><time>2026-04-30T16:51:40.997Z</time></trkpt><trkpt lat="45.45209408242398" lon="9.256792195446655"><ele>111.0</ele><time>2026-04-30T16:51:41.997Z</time></trkpt><trkpt lat="45.452172838524255" lon="9.256733059108742"><ele>111.0</ele><time>2026-04-30T16:51:42.996Z</time></trkpt><trkpt lat="45.45225091924683" lon="9.256661968411818"><ele>110.8</ele><time>2026-04-30T16:51:43.996Z</time></trkpt><trkpt lat="45.452332991683136" lon="9.25658677044071"><ele>110.6</ele><time>2026-04-30T16:51:44.996Z</time></trkpt><trkpt lat="45.452420274533516" lon="9.256518329415314"><ele>110.4</ele><time>2026-04-30T16:51:45.996Z</time></trkpt><trkpt lat="45.45251055693468" lon="9.256449577081924"><ele>110.2</ele><time>2026-04-30T16:51:46.996Z</time></trkpt><trkpt lat="45.45259569474204" lon="9.25637323149298"><ele>110.0</ele><time>2026-04-30T16:51:47.996Z</time></trkpt><trkpt lat="45.45267544769941" lon="9.256305695302757"><ele>109.99999999999999</ele><time>2026-04-30T16:51:48.996Z</time></trkpt><trkpt lat="45.45274737122998" lon="9.256243644893937"><ele>110.0</ele><time>2026-04-30T16:51:49.996Z</time></trkpt><trkpt lat="45.452813439998664" lon="9.256191426870515"><ele>110.0</ele><time>2026-04-30T16:51:50.996Z</time></trkpt><trkpt lat="45.45287167023414" lon="9.256138392175997"><ele>110.0</ele><time>2026-04-30T16:51:51.996Z</time></trkpt><trkpt lat="45.452927818852615" lon="9.25609095462417"><ele>109.99999999999999</ele><time>2026-04-30T16:51:52.996Z</time></trkpt><trkpt lat="45.45303465866617" lon="9.256002483069283"><ele>110.0</ele><time>2026-04-30T16:51:54.996Z</time></trkpt><trkpt lat="45.453090805405" lon="9.255961628904107"><ele>109.99999999999999</ele><time>2026-04-30T16:51:55.996Z</time></trkpt><trkpt lat="45.45314626642937" lon="9.255915826607882"><ele>110.0</ele><time>2026-04-30T16:51:56.996Z</time></trkpt><trkpt lat="45.45320371701053" lon="9.255860781682742"><ele>110.0</ele><time>2026-04-30T16:51:57.996Z</time></trkpt><trkpt lat="45.453266906692136" lon="9.255803236726958"><ele>110.0</ele><time>2026-04-30T16:51:58.996Z</time></trkpt><trkpt lat="45.453337177415584" lon="9.255741758420704"><ele>109.99999999999999</ele><time>2026-04-30T16:51:59.996Z</time></trkpt><trkpt lat="45.453411850605015" lon="9.255665658556174"><ele>110.0</ele><time>2026-04-30T16:52:00.996Z</time></trkpt><trkpt lat="45.4534939158258" lon="9.255602119522928"><ele>110.0</ele><time>2026-04-30T16:52:01.996Z</time></trkpt><trkpt lat="45.45357971800523" lon="9.255520244553042"><ele>110.0</ele><time>2026-04-30T16:52:02.996Z</time></trkpt><trkpt lat="45.45367632712622" lon="9.25543912868909"><ele>110.0</ele><time>2026-04-30T16:52:03.996Z</time></trkpt><trkpt lat="45.45377598431152" lon="9.25535341989377"><ele>110.0</ele><time>2026-04-30T16:52:04.996Z</time></trkpt><trkpt lat="45.45387270254111" lon="9.255251910392564"><ele>110.25</ele><time>2026-04-30T16:52:05.996Z</time></trkpt><trkpt lat="45.45398083577512" lon="9.255165798253651"><ele>110.5</ele><time>2026-04-30T16:52:06.996Z</time></trkpt><trkpt lat="45.454093896414626" lon="9.255070606235371"><ele>110.75</ele><time>2026-04-30T16:52:07.996Z</time></trkpt><trkpt lat="45.45421144611991" lon="9.25497037526225"><ele>111.0</ele><time>2026-04-30T16:52:08.996Z</time></trkpt><trkpt lat="45.454331779969564" lon="9.254870491525923"><ele>110.5</ele><time>2026-04-30T16:52:09.996Z</time></trkpt><trkpt lat="45.45444589172733" lon="9.25476892068741"><ele>110.0</ele><time>2026-04-30T16:52:10.996Z</time></trkpt><trkpt lat="45.454567880702065" lon="9.254675734420273"><ele>109.5</ele><time>2026-04-30T16:52:11.996Z</time></trkpt><trkpt lat="45.454684126349264" lon="9.254573698329544"><ele>109.0</ele><time>2026-04-30T16:52:12.996Z</time></trkpt><trkpt lat="45.454805361245135" lon="9.254477061951516"><ele>110.5</ele><time>2026-04-30T16:52:13.996Z</time></trkpt><trkpt lat="45.454920369804846" lon="9.254380904185593"><ele>112.0</ele><time>2026-04-30T16:52:14.996Z</time></trkpt><trkpt lat="45.45503298066698" lon="9.25427862980869"><ele>113.5</ele><time>2026-04-30T16:52:15.996Z</time></trkpt><trkpt lat="45.45514952207857" lon="9.254194659359612"><ele>115.0</ele><time>2026-04-30T16:52:16.996Z</time></trkpt><trkpt lat="45.45526280493825" lon="9.25410524460134"><ele>115.0</ele><time>2026-04-30T16:52:17.996Z</time></trkpt><trkpt lat="45.45537065768361" lon="9.254011703606096"><ele>115.0</ele><time>2026-04-30T16:52:18.996Z</time></trkpt><trkpt lat="45.45547855537822" lon="9.253918260715956"><ele>115.0</ele><time>2026-04-30T16:52:19.996Z</time></trkpt><trkpt lat="45.455588326961546" lon="9.253828650392972"><ele>115.0</ele><time>2026-04-30T16:52:20.996Z</time></trkpt><trkpt lat="45.45570038822115" lon="9.253742753007053"><ele>114.0</ele><time>2026-04-30T16:52:21.996Z</time></trkpt><trkpt lat="45.45581232788512" lon="9.253663987560172"><ele>113.0</ele><time>2026-04-30T16:52:22.996Z</time></trkpt><trkpt lat="45.45592147078866" lon="9.253584336910679"><ele>112.0</ele><time>2026-04-30T16:52:23.996Z</time></trkpt><trkpt lat="45.456025997546" lon="9.253497388258381"><ele>111.0</ele><time>2026-04-30T16:52:24.996Z</time></trkpt><trkpt lat="45.45613222788983" lon="9.253414851676087"><ele>111.0</ele><time>2026-04-30T16:52:25.996Z</time></trkpt><trkpt lat="45.456238140846615" lon="9.253331734353065"><ele>111.0</ele><time>2026-04-30T16:52:26.996Z</time></trkpt><trkpt lat="45.45635127672276" lon="9.253262932389514"><ele>111.0</ele><time>2026-04-30T16:52:27.996Z</time></trkpt><trkpt lat="45.45646088459202" lon="9.253174656128406"><ele>111.0</ele><time>2026-04-30T16:52:28.996Z</time></trkpt><trkpt lat="45.45657231181204" lon="9.25308413850161"><ele>111.33333333333334</ele><time>2026-04-30T16:52:29.996Z</time></trkpt><trkpt lat="45.45681221689642" lon="9.25289718543505"><ele>111.66666666666667</ele><time>2026-04-30T16:52:31.996Z</time></trkpt><trkpt lat="45.45693971768874" lon="9.252804443785395"><ele>112.0</ele><time>2026-04-30T16:52:32.996Z</time></trkpt><trkpt lat="45.45707009777074" lon="9.252725102815022"><ele>112.25</ele><time>2026-04-30T16:52:33.996Z</time></trkpt><trkpt lat="45.45719914075279" lon="9.252643594085946"><ele>112.5</ele><time>2026-04-30T16:52:34.996Z</time></trkpt><trkpt lat="45.4573242857959" lon="9.252555489345804"><ele>112.75</ele><time>2026-04-30T16:52:35.996Z</time></trkpt><trkpt lat="45.457452428014456" lon="9.252481466097382"><ele>113.0</ele><time>2026-04-30T16:52:36.996Z</time></trkpt><trkpt lat="45.457580468858886" lon="9.25240358414232"><ele>113.0</ele><time>2026-04-30T16:52:37.996Z</time></trkpt><trkpt lat="45.45770791269156" lon="9.252325282303207"><ele>113.0</ele><time>2026-04-30T16:52:38.996Z</time></trkpt><trkpt lat="45.457836823656855" lon="9.252258933970792"><ele>113.0</ele><time>2026-04-30T16:52:39.996Z</time></trkpt><trkpt lat="45.45796558928346" lon="9.252194538442048"><ele>113.0</ele><time>2026-04-30T16:52:40.996Z</time></trkpt><trkpt lat="45.458091791250865" lon="9.2521373618863"><ele>113.25</ele><time>2026-04-30T16:52:41.996Z</time></trkpt><trkpt lat="45.45820832358326" lon="9.25208384045941"><ele>113.5</ele><time>2026-04-30T16:52:42.996Z</time></trkpt><trkpt lat="45.45831718608399" lon="9.252043250057607"><ele>113.75</ele><time>2026-04-30T16:52:43.996Z</time></trkpt><trkpt lat="45.4584249617283" lon="9.252004741514952"><ele>114.0</ele><time>2026-04-30T16:52:44.996Z</time></trkpt><trkpt lat="45.45852936933484" lon="9.251959381963845"><ele>114.0</ele><time>2026-04-30T16:52:45.996Z</time></trkpt><trkpt lat="45.45863179234697" lon="9.251916434596321"><ele>114.0</ele><time>2026-04-30T16:52:46.996Z</time></trkpt><trkpt lat="45.458735735647984" lon="9.251871621328302"><ele>114.0</ele><time>2026-04-30T16:52:47.996Z</time></trkpt><trkpt lat="45.458845463057955" lon="9.251833814147192"><ele>114.0</ele><time>2026-04-30T16:52:48.996Z</time></trkpt><trkpt lat="45.45895589415722" lon="9.251787102762425"><ele>114.0</ele><time>2026-04-30T16:52:49.996Z</time></trkpt><trkpt lat="45.45906627309492" lon="9.251744648820669"><ele>113.75</ele><time>2026-04-30T16:52:50.995Z</time></trkpt><trkpt lat="45.45918180400293" lon="9.25171780385995"><ele>113.5</ele><time>2026-04-30T16:52:51.995Z</time></trkpt><trkpt lat="45.45929863688012" lon="9.251687004276388"><ele>113.25</ele><time>2026-04-30T16:52:52.995Z</time></trkpt><trkpt lat="45.45941736785192" lon="9.251661139777273"><ele>113.0</ele><time>2026-04-30T16:52:53.995Z</time></trkpt><trkpt lat="45.45953663387729" lon="9.251628747907976"><ele>113.75</ele><time>2026-04-30T16:52:54.995Z</time></trkpt><trkpt lat="45.45965730486837" lon="9.251607128483972"><ele>114.5</ele><time>2026-04-30T16:52:55.995Z</time></trkpt><trkpt lat="45.45977942687311" lon="9.251587740060016"><ele>115.25</ele><time>2026-04-30T16:52:56.995Z</time></trkpt><trkpt lat="45.459900328654136" lon="9.251565886715527"><ele>116.0</ele><time>2026-04-30T16:52:57.995Z</time></trkpt><trkpt lat="45.46002055041046" lon="9.251543013980395"><ele>116.0</ele><time>2026-04-30T16:52:58.995Z</time></trkpt><trkpt lat="45.46014140702776" lon="9.25152759860932"><ele>116.0</ele><time>2026-04-30T16:52:59.995Z</time></trkpt><trkpt lat="45.46026258820232" lon="9.25150198136412"><ele>116.0</ele><time>2026-04-30T16:53:00.995Z</time></trkpt><trkpt lat="45.46038526549761" lon="9.251489945674448"><ele>116.0</ele><time>2026-04-30T16:53:01.995Z</time></trkpt><trkpt lat="45.46050105124205" lon="9.251470812207165"><ele>115.6</ele><time>2026-04-30T16:53:02.995Z</time></trkpt><trkpt lat="45.4606113565632" lon="9.251474764007838"><ele>115.19999999999999</ele><time>2026-04-30T16:53:03.995Z</time></trkpt><trkpt lat="45.46072114886756" lon="9.251465791355452"><ele>114.80000000000001</ele><time>2026-04-30T16:53:04.995Z</time></trkpt><trkpt lat="45.460831626372" lon="9.251475980237583"><ele>114.4</ele><time>2026-04-30T16:53:05.995Z</time></trkpt><trkpt lat="45.46094240271169" lon="9.251472212557172"><ele>114.0</ele><time>2026-04-30T16:53:06.995Z</time></trkpt><trkpt lat="45.46105479749714" lon="9.251479961386888"><ele>114.0</ele><time>2026-04-30T16:53:07.995Z</time></trkpt><trkpt lat="45.4611702983576" lon="9.251482613650088"><ele>114.0</ele><time>2026-04-30T16:53:08.995Z</time></trkpt><trkpt lat="45.461287223841936" lon="9.251486067765997"><ele>114.0</ele><time>2026-04-30T16:53:09.995Z</time></trkpt><trkpt lat="45.46140278248987" lon="9.25148725107721"><ele>114.0</ele><time>2026-04-30T16:53:10.995Z</time></trkpt><trkpt lat="45.461517745468726" lon="9.251490313015939"><ele>114.25</ele><time>2026-04-30T16:53:11.995Z</time></trkpt><trkpt lat="45.461633705275695" lon="9.251503855160115"><ele>114.5</ele><time>2026-04-30T16:53:12.995Z</time></trkpt><trkpt lat="45.46175060478082" lon="9.251510919152542"><ele>114.75</ele><time>2026-04-30T16:53:13.995Z</time></trkpt><trkpt lat="45.461866561140276" lon="9.251523962184823"><ele>115.0</ele><time>2026-04-30T16:53:14.995Z</time></trkpt><trkpt lat="45.461982049505416" lon="9.25153288125065"><ele>115.0</ele><time>2026-04-30T16:53:15.995Z</time></trkpt><trkpt lat="45.46209555408817" lon="9.2515579378082"><ele>115.0</ele><time>2026-04-30T16:53:16.995Z</time></trkpt><trkpt lat="45.46220945521071" lon="9.251584915975892"><ele>115.0</ele><time>2026-04-30T16:53:17.995Z</time></trkpt><trkpt lat="45.46232304630595" lon="9.251611776697894"><ele>115.0</ele><time>2026-04-30T16:53:18.995Z</time></trkpt><trkpt lat="45.46243500814069" lon="9.251639195364858"><ele>114.0</ele><time>2026-04-30T16:53:19.995Z</time></trkpt><trkpt lat="45.462548914639406" lon="9.251667083113693"><ele>113.0</ele><time>2026-04-30T16:53:20.995Z</time></trkpt><trkpt lat="45.462665271863564" lon="9.25167646388158"><ele>112.0</ele><time>2026-04-30T16:53:21.995Z</time></trkpt><trkpt lat="45.462778592457724" lon="9.25170706414069"><ele>111.0</ele><time>2026-04-30T16:53:22.995Z</time></trkpt><trkpt lat="45.462890652547365" lon="9.25173752081837"><ele>110.25</ele><time>2026-04-30T16:53:23.995Z</time></trkpt><trkpt lat="45.46300319905536" lon="9.25176815339124"><ele>109.5</ele><time>2026-04-30T16:53:24.995Z</time></trkpt><trkpt lat="45.46311463449298" lon="9.251799474376881"><ele>108.75</ele><time>2026-04-30T16:53:25.995Z</time></trkpt><trkpt lat="45.463227506624186" lon="9.251831199205931"><ele>108.0</ele><time>2026-04-30T16:53:26.995Z</time></trkpt><trkpt lat="45.46334203984074" lon="9.251863531884204"><ele>108.0</ele><time>2026-04-30T16:53:27.995Z</time></trkpt><trkpt lat="45.463457590981236" lon="9.251896209958096"><ele>108.0</ele><time>2026-04-30T16:53:28.995Z</time></trkpt><trkpt lat="45.46357151802028" lon="9.251947570101516"><ele>108.0</ele><time>2026-04-30T16:53:29.995Z</time></trkpt><trkpt lat="45.463690856099234" lon="9.251985157681204"><ele>108.0</ele><time>2026-04-30T16:53:30.995Z</time></trkpt><trkpt lat="45.46381429294587" lon="9.251995384061699"><ele>108.25</ele><time>2026-04-30T16:53:31.995Z</time></trkpt><trkpt lat="45.46393456295632" lon="9.252028574053265"><ele>108.5</ele><time>2026-04-30T16:53:32.995Z</time></trkpt><trkpt lat="45.464056018374805" lon="9.252062091154553"><ele>108.75</ele><time>2026-04-30T16:53:33.995Z</time></trkpt><trkpt lat="45.46417570007683" lon="9.252095276346616"><ele>109.0</ele><time>2026-04-30T16:53:34.995Z</time></trkpt><trkpt lat="45.4642922110364" lon="9.25212781592566"><ele>109.0</ele><time>2026-04-30T16:53:35.995Z</time></trkpt><trkpt lat="45.46440969147663" lon="9.252160626267774"><ele>109.0</ele><time>2026-04-30T16:53:36.995Z</time></trkpt><trkpt lat="45.46452651058652" lon="9.25221335414941"><ele>109.0</ele><time>2026-04-30T16:53:37.995Z</time></trkpt><trkpt lat="45.46464688530287" lon="9.252242876789607"><ele>109.0</ele><time>2026-04-30T16:53:38.995Z</time></trkpt><trkpt lat="45.464769882745756" lon="9.252265353674854"><ele>111.5</ele><time>2026-04-30T16:53:39.995Z</time></trkpt><trkpt lat="45.464896267106035" lon="9.252292597507"><ele>114.0</ele><time>2026-04-30T16:53:40.995Z</time></trkpt><trkpt lat="45.46502361129793" lon="9.252309388222246"><ele>116.5</ele><time>2026-04-30T16:53:41.995Z</time></trkpt><trkpt lat="45.465146785434214" lon="9.252331712521993"><ele>119.0</ele><time>2026-04-30T16:53:42.995Z</time></trkpt><trkpt lat="45.46526650045843" lon="9.252357329921503"><ele>119.0</ele><time>2026-04-30T16:53:43.995Z</time></trkpt><trkpt lat="45.46538625919563" lon="9.252370796386751"><ele>119.0</ele><time>2026-04-30T16:53:44.995Z</time></trkpt><trkpt lat="45.465508428099916" lon="9.252380280062056"><ele>119.0</ele><time>2026-04-30T16:53:45.995Z</time></trkpt><trkpt lat="45.465627597201376" lon="9.252391021230471"><ele>119.0</ele><time>2026-04-30T16:53:46.995Z</time></trkpt><trkpt lat="45.46574017878911" lon="9.252393424918635"><ele>118.0</ele><time>2026-04-30T16:53:47.995Z</time></trkpt><trkpt lat="45.46584955478107" lon="9.252399313618774"><ele>117.0</ele><time>2026-04-30T16:53:48.995Z</time></trkpt><trkpt lat="45.46596049305653" lon="9.252398234761214"><ele>116.0</ele><time>2026-04-30T16:53:49.995Z</time></trkpt><trkpt lat="45.46607323505353" lon="9.252392556290113"><ele>115.0</ele><time>2026-04-30T16:53:50.995Z</time></trkpt><trkpt lat="45.46618697997361" lon="9.252387938405416"><ele>114.0</ele><time>2026-04-30T16:53:51.995Z</time></trkpt><trkpt lat="45.46629930274564" lon="9.25237981242965"><ele>113.6</ele><time>2026-04-30T16:53:52.995Z</time></trkpt><trkpt lat="45.46640957149853" lon="9.252370264724663"><ele>113.2</ele><time>2026-04-30T16:53:53.995Z</time></trkpt><trkpt lat="45.46652061887666" lon="9.252364133632192"><ele>112.79999999999998</ele><time>2026-04-30T16:53:54.995Z</time></trkpt><trkpt lat="45.46663184328215" lon="9.252354522963762"><ele>112.39999999999999</ele><time>2026-04-30T16:53:56.001Z</time></trkpt><trkpt lat="45.466743430963476" lon="9.25235612526064"><ele>112.0</ele><time>2026-04-30T16:53:57.001Z</time></trkpt><trkpt lat="45.46685557783586" lon="9.252365292623477"><ele>112.0</ele><time>2026-04-30T16:53:58.001Z</time></trkpt><trkpt lat="45.46696694556229" lon="9.252363728183795"><ele>112.0</ele><time>2026-04-30T16:53:59.001Z</time></trkpt><trkpt lat="45.46708086845349" lon="9.252364194143444"><ele>112.0</ele><time>2026-04-30T16:54:00.001Z</time></trkpt><trkpt lat="45.467193608855794" lon="9.252361845400824"><ele>112.0</ele><time>2026-04-30T16:54:01.001Z</time></trkpt><trkpt lat="45.46730523948903" lon="9.252363222149945"><ele>112.0</ele><time>2026-04-30T16:54:02.001Z</time></trkpt><trkpt lat="45.4674163694945" lon="9.252363849606965"><ele>111.99999999999999</ele><time>2026-04-30T16:54:03.001Z</time></trkpt><trkpt lat="45.46752682461412" lon="9.252358990447135"><ele>111.99999999999999</ele><time>2026-04-30T16:54:04.001Z</time></trkpt><trkpt lat="45.46763239950314" lon="9.25236246333141"><ele>112.0</ele><time>2026-04-30T16:54:05.001Z</time></trkpt><trkpt lat="45.467736736627685" lon="9.25236144679893"><ele>112.0</ele><time>2026-04-30T16:54:06.001Z</time></trkpt><trkpt lat="45.46784334820349" lon="9.252361095671343"><ele>112.39999999999999</ele><time>2026-04-30T16:54:07Z</time></trkpt><trkpt lat="45.46795151110026" lon="9.252350160486536"><ele>112.79999999999998</ele><time>2026-04-30T16:54:08Z</time></trkpt><trkpt lat="45.46806147345303" lon="9.252338734733792"><ele>113.2</ele><time>2026-04-30T16:54:09Z</time></trkpt><trkpt lat="45.468171735151344" lon="9.2523278313454"><ele>113.6</ele><time>2026-04-30T16:54:10Z</time></trkpt><trkpt lat="45.46828308327025" lon="9.25231734620784"><ele>114.0</ele><time>2026-04-30T16:54:11Z</time></trkpt><trkpt lat="45.468391487361586" lon="9.252315820426654"><ele>114.0</ele><time>2026-04-30T16:54:12Z</time></trkpt><trkpt lat="45.468502585892026" lon="9.252326283853316"><ele>114.0</ele><time>2026-04-30T16:54:13Z</time></trkpt><trkpt lat="45.468618441282786" lon="9.252311851718458"><ele>114.0</ele><time>2026-04-30T16:54:14Z</time></trkpt><trkpt lat="45.46873494448002" lon="9.252317156628818"><ele>114.0</ele><time>2026-04-30T16:54:15Z</time></trkpt><trkpt lat="45.46885274830364" lon="9.252315987861468"><ele>113.5</ele><time>2026-04-30T16:54:16Z</time></trkpt><trkpt lat="45.4689701293123" lon="9.252312528532832"><ele>113.0</ele><time>2026-04-30T16:54:17Z</time></trkpt><trkpt lat="45.46908803925329" lon="9.252311178716319"><ele>112.5</ele><time>2026-04-30T16:54:18Z</time></trkpt><trkpt lat="45.46920666457926" lon="9.252311199907867"><ele>112.0</ele><time>2026-04-30T16:54:19Z</time></trkpt><trkpt lat="45.46932597540936" lon="9.252315926193404"><ele>112.0</ele><time>2026-04-30T16:54:20Z</time></trkpt><trkpt lat="45.46944455404273" lon="9.252311897681293"><ele>112.0</ele><time>2026-04-30T16:54:21Z</time></trkpt><trkpt lat="45.46956403208437" lon="9.252318218544083"><ele>112.0</ele><time>2026-04-30T16:54:22Z</time></trkpt><trkpt lat="45.469684686766136" lon="9.252309993623275"><ele>112.0</ele><time>2026-04-30T16:54:23Z</time></trkpt><trkpt lat="45.469806858545056" lon="9.252305373622344"><ele>113.0</ele><time>2026-04-30T16:54:24Z</time></trkpt><trkpt lat="45.46993385251076" lon="9.252312332671424"><ele>114.0</ele><time>2026-04-30T16:54:25Z</time></trkpt><trkpt lat="45.470065544170396" lon="9.252321042302853"><ele>115.0</ele><time>2026-04-30T16:54:26Z</time></trkpt><trkpt lat="45.47019701860868" lon="9.252330023455126"><ele>116.0</ele><time>2026-04-30T16:54:27Z</time></trkpt><trkpt lat="45.47032505270064" lon="9.252345367326187"><ele>116.0</ele><time>2026-04-30T16:54:28Z</time></trkpt><trkpt lat="45.470449738551075" lon="9.252348423966351"><ele>116.0</ele><time>2026-04-30T16:54:29Z</time></trkpt><trkpt lat="45.470568888584495" lon="9.252354235606145"><ele>116.0</ele><time>2026-04-30T16:54:30Z</time></trkpt><trkpt lat="45.470680933625076" lon="9.252359674807838"><ele>116.0</ele><time>2026-04-30T16:54:31Z</time></trkpt><trkpt lat="45.47078898207338" lon="9.252372938762997"><ele>116.0</ele><time>2026-04-30T16:54:32Z</time></trkpt><trkpt lat="45.470892658620706" lon="9.252388971846976"><ele>116.0</ele><time>2026-04-30T16:54:33Z</time></trkpt><trkpt lat="45.47098968682358" lon="9.252415171478921"><ele>116.0</ele><time>2026-04-30T16:54:34Z</time></trkpt><trkpt lat="45.47108758935248" lon="9.252446080919556"><ele>116.0</ele><time>2026-04-30T16:54:35Z</time></trkpt><trkpt lat="45.47119286269611" lon="9.252480337672537"><ele>116.0</ele><time>2026-04-30T16:54:36Z</time></trkpt><trkpt lat="45.471308255165894" lon="9.252489940492739"><ele>116.25</ele><time>2026-04-30T16:54:37Z</time></trkpt><trkpt lat="45.47142521348728" lon="9.252512878579438"><ele>116.5</ele><time>2026-04-30T16:54:38Z</time></trkpt><trkpt lat="45.47154515016822" lon="9.252537670384948"><ele>116.75</ele><time>2026-04-30T16:54:39Z</time></trkpt><trkpt lat="45.47166720755507" lon="9.25255723969823"><ele>117.0</ele><time>2026-04-30T16:54:40Z</time></trkpt><trkpt lat="45.471791598615006" lon="9.252585058145334"><ele>117.0</ele><time>2026-04-30T16:54:41Z</time></trkpt><trkpt lat="45.47191725108588" lon="9.252619448076006"><ele>117.0</ele><time>2026-04-30T16:54:42Z</time></trkpt><trkpt lat="45.472046616429736" lon="9.252651861292165"><ele>117.0</ele><time>2026-04-30T16:54:43Z</time></trkpt><trkpt lat="45.47217869845765" lon="9.25269012491896"><ele>117.0</ele><time>2026-04-30T16:54:44Z</time></trkpt><trkpt lat="45.47231574506947" lon="9.252720038377149"><ele>118.0</ele><time>2026-04-30T16:54:45Z</time></trkpt><trkpt lat="45.47245144776339" lon="9.252769898872238"><ele>119.0</ele><time>2026-04-30T16:54:46Z</time></trkpt><trkpt lat="45.47259047314979" lon="9.25280880055674"><ele>120.0</ele><time>2026-04-30T16:54:47Z</time></trkpt><trkpt lat="45.47272932588678" lon="9.252845659826546"><ele>121.0</ele><time>2026-04-30T16:54:48Z</time></trkpt><trkpt lat="45.47286317980819" lon="9.25288463650764"><ele>120.5</ele><time>2026-04-30T16:54:49Z</time></trkpt><trkpt lat="45.47299603682085" lon="9.252921611462037"><ele>120.0</ele><time>2026-04-30T16:54:50Z</time></trkpt><trkpt lat="45.4731309833516" lon="9.252954128017441"><ele>119.5</ele><time>2026-04-30T16:54:51Z</time></trkpt><trkpt lat="45.473266527423895" lon="9.252991506224477"><ele>119.0</ele><time>2026-04-30T16:54:52Z</time></trkpt><trkpt lat="45.473401787483965" lon="9.253033057084348"><ele>119.0</ele><time>2026-04-30T16:54:53Z</time></trkpt><trkpt lat="45.47353976008515" lon="9.25307243878995"><ele>119.0</ele><time>2026-04-30T16:54:54Z</time></trkpt><trkpt lat="45.473680398435384" lon="9.253117573167168"><ele>119.0</ele><time>2026-04-30T16:54:55Z</time></trkpt><trkpt lat="45.47382158407952" lon="9.253165757519279"><ele>119.0</ele><time>2026-04-30T16:54:56Z</time></trkpt><trkpt lat="45.47396482584065" lon="9.253216618794312"><ele>119.33333333333333</ele><time>2026-04-30T16:54:57Z</time></trkpt><trkpt lat="45.47411025118147" lon="9.253261952124255"><ele>119.66666666666666</ele><time>2026-04-30T16:54:58Z</time></trkpt><trkpt lat="45.47425707201745" lon="9.25330708923755"><ele>120.0</ele><time>2026-04-30T16:54:59Z</time></trkpt><trkpt lat="45.47440563221018" lon="9.253356009565426"><ele>120.0</ele><time>2026-04-30T16:55:00Z</time></trkpt><trkpt lat="45.474556701480594" lon="9.253412790814098"><ele>120.0</ele><time>2026-04-30T16:55:01Z</time></trkpt><trkpt lat="45.47472014559416" lon="9.253450560775722"><ele>120.0</ele><time>2026-04-30T16:55:02Z</time></trkpt><trkpt lat="45.47489476755703" lon="9.253498917152077"><ele>120.0</ele><time>2026-04-30T16:55:03Z</time></trkpt><trkpt lat="45.47506506820241" lon="9.253538814218054"><ele>120.0</ele><time>2026-04-30T16:55:04Z</time></trkpt><trkpt lat="45.47536863910338" lon="9.253613110698712"><ele>119.0</ele><time>2026-04-30T16:55:06Z</time></trkpt><trkpt lat="45.47552408608194" lon="9.253679413777341"><ele>118.0</ele><time>2026-04-30T16:55:07Z</time></trkpt><trkpt lat="45.475690913528624" lon="9.25371944215239"><ele>117.0</ele><time>2026-04-30T16:55:07.999Z</time></trkpt><trkpt lat="45.47587310215305" lon="9.253754033207832"><ele>117.0</ele><time>2026-04-30T16:55:08.999Z</time></trkpt><trkpt lat="45.47604797444901" lon="9.25375991280489"><ele>117.0</ele><time>2026-04-30T16:55:09.999Z</time></trkpt><trkpt lat="45.47623377965797" lon="9.253756244817877"><ele>117.0</ele><time>2026-04-30T16:55:10.999Z</time></trkpt><trkpt lat="45.47640862447568" lon="9.253766293540162"><ele>117.0</ele><time>2026-04-30T16:55:11.999Z</time></trkpt><trkpt lat="45.4766054339359" lon="9.253773534505983"><ele>117.0</ele><time>2026-04-30T16:55:12.999Z</time></trkpt><trkpt lat="45.47679415710494" lon="9.253757769749985"><ele>117.0</ele><time>2026-04-30T16:55:13.999Z</time></trkpt><trkpt lat="45.476973311263386" lon="9.253722358549233"><ele>116.0</ele><time>2026-04-30T16:55:14.999Z</time></trkpt><trkpt lat="45.4771419016595" lon="9.253674707114971"><ele>115.0</ele><time>2026-04-30T16:55:15.999Z</time></trkpt><trkpt lat="45.47730982532681" lon="9.253649566227491"><ele>114.0</ele><time>2026-04-30T16:55:16.999Z</time></trkpt><trkpt lat="45.47745089771549" lon="9.253577292082182"><ele>114.0</ele><time>2026-04-30T16:55:17.999Z</time></trkpt><trkpt lat="45.47759441110449" lon="9.253524123882826"><ele>114.0</ele><time>2026-04-30T16:55:18.999Z</time></trkpt><trkpt lat="45.477720371425995" lon="9.253473256858333"><ele>114.0</ele><time>2026-04-30T16:55:19.999Z</time></trkpt><trkpt lat="45.47784260044095" lon="9.253396391767744"><ele>114.0</ele><time>2026-04-30T16:55:20.999Z</time></trkpt><trkpt lat="45.47795514087025" lon="9.253330165994573"><ele>114.75</ele><time>2026-04-30T16:55:21.999Z</time></trkpt><trkpt lat="45.47805621677465" lon="9.253278993855856"><ele>115.5</ele><time>2026-04-30T16:55:22.999Z</time></trkpt><trkpt lat="45.4781652801935" lon="9.253241899345966"><ele>116.25</ele><time>2026-04-30T16:55:23.999Z</time></trkpt><trkpt lat="45.47829356118245" lon="9.253215426880498"><ele>117.0</ele><time>2026-04-30T16:55:24.999Z</time></trkpt><trkpt lat="45.478410015438676" lon="9.253171352148522"><ele>117.0</ele><time>2026-04-30T16:55:25.999Z</time></trkpt><trkpt lat="45.47852207033411" lon="9.25312998480844"><ele>117.0</ele><time>2026-04-30T16:55:26.999Z</time></trkpt><trkpt lat="45.47862717990265" lon="9.253091250044555"><ele>117.0</ele><time>2026-04-30T16:55:27.999Z</time></trkpt><trkpt lat="45.478742748160144" lon="9.253106649457719"><ele>117.0</ele><time>2026-04-30T16:55:28.999Z</time></trkpt><trkpt lat="45.47885751567448" lon="9.253062465225879"><ele>117.5</ele><time>2026-04-30T16:55:29.999Z</time></trkpt><trkpt lat="45.47898012370782" lon="9.25299316974527"><ele>118.0</ele><time>2026-04-30T16:55:30.999Z</time></trkpt><trkpt lat="45.47911670669325" lon="9.252930887679497"><ele>118.5</ele><time>2026-04-30T16:55:31.999Z</time></trkpt><trkpt lat="45.479230400126085" lon="9.252870207712029"><ele>119.0</ele><time>2026-04-30T16:55:32.999Z</time></trkpt><trkpt lat="45.47931008826015" lon="9.252830155905585"><ele>119.0</ele><time>2026-04-30T16:55:33.999Z</time></trkpt><trkpt lat="45.47941503577153" lon="9.252771671230173"><ele>119.0</ele><time>2026-04-30T16:55:34.999Z</time></trkpt><trkpt lat="45.479511919401396" lon="9.252737664035536"><ele>119.0</ele><time>2026-04-30T16:55:35.999Z</time></trkpt><trkpt lat="45.47961964019675" lon="9.2526999791683"><ele>119.0</ele><time>2026-04-30T16:55:36.999Z</time></trkpt><trkpt lat="45.479694398903376" lon="9.25264962906312"><ele>119.0</ele><time>2026-04-30T16:55:37.999Z</time></trkpt><trkpt lat="45.47976660413861" lon="9.252607562675792"><ele>118.6</ele><time>2026-04-30T16:55:38.999Z</time></trkpt><trkpt lat="45.4798379726477" lon="9.252585862603151"><ele>118.2</ele><time>2026-04-30T16:55:39.999Z</time></trkpt><trkpt lat="45.479914160237044" lon="9.252555299644426"><ele>117.79999999999998</ele><time>2026-04-30T16:55:40.999Z</time></trkpt><trkpt lat="45.480036957074105" lon="9.252484253790213"><ele>117.39999999999999</ele><time>2026-04-30T16:55:42.999Z</time></trkpt><trkpt lat="45.48015465344277" lon="9.252464928354772"><ele>117.0</ele><time>2026-04-30T16:55:43.999Z</time></trkpt><trkpt lat="45.48023634812162" lon="9.25241546129908"><ele>117.0</ele><time>2026-04-30T16:55:44.999Z</time></trkpt><trkpt lat="45.48032942252481" lon="9.252372710742444"><ele>116.99999999999999</ele><time>2026-04-30T16:55:45.999Z</time></trkpt><trkpt lat="45.480412247240835" lon="9.252321308202145"><ele>116.99999999999999</ele><time>2026-04-30T16:55:46.999Z</time></trkpt><trkpt lat="45.48052909027778" lon="9.252273851729964"><ele>117.0</ele><time>2026-04-30T16:55:47.999Z</time></trkpt><trkpt lat="45.48060687124501" lon="9.252244067686501"><ele>117.0</ele><time>2026-04-30T16:55:48.999Z</time></trkpt><trkpt lat="45.48071621992104" lon="9.252181878426216"><ele>118.0</ele><time>2026-04-30T16:55:49.999Z</time></trkpt><trkpt lat="45.48082920628428" lon="9.25212329541949"><ele>119.0</ele><time>2026-04-30T16:55:50.999Z</time></trkpt><trkpt lat="45.4809583715772" lon="9.252075527246696"><ele>120.0</ele><time>2026-04-30T16:55:51.999Z</time></trkpt><trkpt lat="45.48106427379019" lon="9.252003888652073"><ele>121.0</ele><time>2026-04-30T16:55:52.999Z</time></trkpt><trkpt lat="45.481178930743354" lon="9.25197267696327"><ele>121.0</ele><time>2026-04-30T16:55:53.999Z</time></trkpt><trkpt lat="45.48128217742332" lon="9.251932810564291"><ele>121.0</ele><time>2026-04-30T16:55:54.999Z</time></trkpt><trkpt lat="45.48137193322218" lon="9.251903249678387"><ele>121.0</ele><time>2026-04-30T16:55:55.999Z</time></trkpt><trkpt lat="45.48146988126466" lon="9.251862024764634"><ele>121.0</ele><time>2026-04-30T16:55:56.999Z</time></trkpt><trkpt lat="45.48155749176076" lon="9.251809069661775"><ele>121.0</ele><time>2026-04-30T16:55:57.999Z</time></trkpt><trkpt lat="45.48164034709361" lon="9.25175944285466"><ele>121.0</ele><time>2026-04-30T16:55:58.999Z</time></trkpt><trkpt lat="45.48174067560708" lon="9.251721681035942"><ele>121.0</ele><time>2026-04-30T16:55:59.999Z</time></trkpt><trkpt lat="45.48185168480373" lon="9.251667398643397"><ele>121.0</ele><time>2026-04-30T16:56:00.999Z</time></trkpt><trkpt lat="45.48197858075203" lon="9.2516228719358"><ele>121.0</ele><time>2026-04-30T16:56:01.999Z</time></trkpt><trkpt lat="45.482077719009226" lon="9.251570084363475"><ele>120.75</ele><time>2026-04-30T16:56:02.999Z</time></trkpt><trkpt lat="45.4822187524756" lon="9.251503679742308"><ele>120.5</ele><time>2026-04-30T16:56:03.999Z</time></trkpt><trkpt lat="45.48232122246737" lon="9.251474800174302"><ele>120.25</ele><time>2026-04-30T16:56:04.999Z</time></trkpt><trkpt lat="45.48248065964825" lon="9.251459996785245"><ele>120.0</ele><time>2026-04-30T16:56:05.999Z</time></trkpt><trkpt lat="45.48258493732513" lon="9.251396376867602"><ele>120.0</ele><time>2026-04-30T16:56:06.999Z</time></trkpt><trkpt lat="45.482718960828244" lon="9.251351284377664"><ele>120.0</ele><time>2026-04-30T16:56:07.999Z</time></trkpt><trkpt lat="45.482858498561484" lon="9.251310531511585"><ele>120.0</ele><time>2026-04-30T16:56:08.999Z</time></trkpt><trkpt lat="45.48295905741918" lon="9.251281161583245"><ele>120.0</ele><time>2026-04-30T16:56:09.999Z</time></trkpt><trkpt lat="45.48309172355084" lon="9.251225487628014"><ele>119.5</ele><time>2026-04-30T16:56:10.999Z</time></trkpt><trkpt lat="45.48325121002887" lon="9.25125783470804"><ele>119.0</ele><time>2026-04-30T16:56:11.999Z</time></trkpt><trkpt lat="45.48336570831774" lon="9.251231453937642"><ele>118.5</ele><time>2026-04-30T16:56:12.999Z</time></trkpt><trkpt lat="45.48347956120028" lon="9.251202522952468"><ele>118.0</ele><time>2026-04-30T16:56:13.998Z</time></trkpt><trkpt lat="45.48360957777076" lon="9.251190799263771"><ele>118.0</ele><time>2026-04-30T16:56:14.998Z</time></trkpt><trkpt lat="45.483742264234536" lon="9.251194622864205"><ele>118.0</ele><time>2026-04-30T16:56:15.998Z</time></trkpt><trkpt lat="45.48388325943616" lon="9.251199139483408"><ele>118.0</ele><time>2026-04-30T16:56:16.998Z</time></trkpt><trkpt lat="45.48403097958998" lon="9.251200803445872"><ele>118.0</ele><time>2026-04-30T16:56:17.998Z</time></trkpt><trkpt lat="45.484185258978805" lon="9.251197121783374"><ele>118.0</ele><time>2026-04-30T16:56:18.998Z</time></trkpt><trkpt lat="45.48435365741705" lon="9.25120263688913"><ele>118.0</ele><time>2026-04-30T16:56:19.998Z</time></trkpt><trkpt lat="45.484505633006194" lon="9.251201795578453"><ele>118.0</ele><time>2026-04-30T16:56:20.998Z</time></trkpt><trkpt lat="45.48466133783937" lon="9.251217977677044"><ele>118.0</ele><time>2026-04-30T16:56:21.998Z</time></trkpt><trkpt lat="45.48480248330448" lon="9.251202701537213"><ele>118.0</ele><time>2026-04-30T16:56:22.998Z</time></trkpt><trkpt lat="45.484947942832555" lon="9.25122043111325"><ele>118.0</ele><time>2026-04-30T16:56:23.998Z</time></trkpt><trkpt lat="45.48509903724325" lon="9.251220742029298"><ele>118.0</ele><time>2026-04-30T16:56:24.998Z</time></trkpt><trkpt lat="45.48525972024081" lon="9.251203062387134"><ele>118.0</ele><time>2026-04-30T16:56:25.998Z</time></trkpt><trkpt lat="45.48542458462304" lon="9.251218253486869"><ele>118.0</ele><time>2026-04-30T16:56:26.998Z</time></trkpt><trkpt lat="45.485591464492394" lon="9.251233526877014"><ele>118.0</ele><time>2026-04-30T16:56:27.998Z</time></trkpt><trkpt lat="45.485760357060904" lon="9.251258033217907"><ele>118.0</ele><time>2026-04-30T16:56:28.998Z</time></trkpt><trkpt lat="45.4859141972639" lon="9.251308583236371"><ele>118.0</ele><time>2026-04-30T16:56:29.998Z</time></trkpt><trkpt lat="45.486073858890585" lon="9.251369856401194"><ele>118.0</ele><time>2026-04-30T16:56:30.998Z</time></trkpt><trkpt lat="45.48623997642862" lon="9.251395032444947"><ele>118.33333333333334</ele><time>2026-04-30T16:56:31.998Z</time></trkpt><trkpt lat="45.486410467285076" lon="9.251429276823945"><ele>118.66666666666666</ele><time>2026-04-30T16:56:32.998Z</time></trkpt><trkpt lat="45.48657704870402" lon="9.251471384513554"><ele>119.0</ele><time>2026-04-30T16:56:33.998Z</time></trkpt><trkpt lat="45.48671905280837" lon="9.251509110685406"><ele>119.0</ele><time>2026-04-30T16:56:34.998Z</time></trkpt><trkpt lat="45.486852356515065" lon="9.251540825311773"><ele>119.0</ele><time>2026-04-30T16:56:35.998Z</time></trkpt><trkpt lat="45.486979373626845" lon="9.251562617540989"><ele>119.0</ele><time>2026-04-30T16:56:36.998Z</time></trkpt><trkpt lat="45.4871032730579" lon="9.251608935773861"><ele>119.0</ele><time>2026-04-30T16:56:37.998Z</time></trkpt><trkpt lat="45.48724825416331" lon="9.251620182776602"><ele>118.75</ele><time>2026-04-30T16:56:38.998Z</time></trkpt><trkpt lat="45.48737299125765" lon="9.251631722070702"><ele>118.5</ele><time>2026-04-30T16:56:39.998Z</time></trkpt><trkpt lat="45.487487351876894" lon="9.251622848291234"><ele>118.25</ele><time>2026-04-30T16:56:40.998Z</time></trkpt><trkpt lat="45.48759440017182" lon="9.25165334662534"><ele>118.0</ele><time>2026-04-30T16:56:41.998Z</time></trkpt><trkpt lat="45.487705657332796" lon="9.251648390372061"><ele>118.0</ele><time>2026-04-30T16:56:42.998Z</time></trkpt><trkpt lat="45.487822660587085" lon="9.251658281978749"><ele>118.0</ele><time>2026-04-30T16:56:43.998Z</time></trkpt><trkpt lat="45.487960027952134" lon="9.251691554889373"><ele>118.0</ele><time>2026-04-30T16:56:44.998Z</time></trkpt><trkpt lat="45.488070406899986" lon="9.25166669057427"><ele>118.0</ele><time>2026-04-30T16:56:45.998Z</time></trkpt><trkpt lat="45.48818667248648" lon="9.251692380655786"><ele>118.2</ele><time>2026-04-30T16:56:46.998Z</time></trkpt><trkpt lat="45.48831097580356" lon="9.251729986577992"><ele>118.4</ele><time>2026-04-30T16:56:47.998Z</time></trkpt><trkpt lat="45.48842389164742" lon="9.251760362328033"><ele>118.60000000000001</ele><time>2026-04-30T16:56:48.998Z</time></trkpt><trkpt lat="45.48852547365259" lon="9.251764711764451"><ele>118.80000000000001</ele><time>2026-04-30T16:56:49.998Z</time></trkpt><trkpt lat="45.48862653574776" lon="9.251793628309626"><ele>119.0</ele><time>2026-04-30T16:56:50.998Z</time></trkpt><trkpt lat="45.48872076181055" lon="9.25182022905303"><ele>119.4</ele><time>2026-04-30T16:56:51.998Z</time></trkpt><trkpt lat="45.48881145704361" lon="9.25184948774281"><ele>119.80000000000001</ele><time>2026-04-30T16:56:52.998Z</time></trkpt><trkpt lat="45.48891362658674" lon="9.25184299748911"><ele>120.19999999999999</ele><time>2026-04-30T16:56:53.998Z</time></trkpt><trkpt lat="45.48898589903792" lon="9.251856199920335"><ele>120.6</ele><time>2026-04-30T16:56:54.998Z</time></trkpt><trkpt lat="45.489062567136386" lon="9.251887024537904"><ele>121.0</ele><time>2026-04-30T16:56:55.998Z</time></trkpt><trkpt lat="45.48918453721202" lon="9.251933736463752"><ele>121.00000000000001</ele><time>2026-04-30T16:56:57.998Z</time></trkpt><trkpt lat="45.48930525108793" lon="9.251940278344044"><ele>121.0</ele><time>2026-04-30T16:56:59.998Z</time></trkpt><trkpt lat="45.48937526144827" lon="9.251935475082696"><ele>121.0</ele><time>2026-04-30T16:57:00.998Z</time></trkpt><trkpt lat="45.48945486721522" lon="9.251938417030429"><ele>121.0</ele><time>2026-04-30T16:57:01.998Z</time></trkpt><trkpt lat="45.48953420498213" lon="9.251929282891536"><ele>121.00000000000001</ele><time>2026-04-30T16:57:02.998Z</time></trkpt><trkpt lat="45.489611157586246" lon="9.251910957540304"><ele>121.0</ele><time>2026-04-30T16:57:03.998Z</time></trkpt><trkpt lat="45.489708750177584" lon="9.251964880004191"><ele>121.0</ele><time>2026-04-30T16:57:04.998Z</time></trkpt><trkpt lat="45.48979551156923" lon="9.251965300034456"><ele>121.0</ele><time>2026-04-30T16:57:05.998Z</time></trkpt><trkpt lat="45.48987494127657" lon="9.251979405798581"><ele>121.0</ele><time>2026-04-30T16:57:06.998Z</time></trkpt><trkpt lat="45.48997784181217" lon="9.25199616931824"><ele>121.0</ele><time>2026-04-30T16:57:07.998Z</time></trkpt><trkpt lat="45.49007939739974" lon="9.252000139911287"><ele>121.0</ele><time>2026-04-30T16:57:08.998Z</time></trkpt><trkpt lat="45.490181849440134" lon="9.251998396496683"><ele>121.0</ele><time>2026-04-30T16:57:09.998Z</time></trkpt><trkpt lat="45.49028397209366" lon="9.25202211092287"><ele>121.0</ele><time>2026-04-30T16:57:10.998Z</time></trkpt><trkpt lat="45.490390626324654" lon="9.252033151906293"><ele>121.0</ele><time>2026-04-30T16:57:11.998Z</time></trkpt><trkpt lat="45.49048678450563" lon="9.252091067564777"><ele>121.0</ele><time>2026-04-30T16:57:12.998Z</time></trkpt><trkpt lat="45.49058400684182" lon="9.252101401522147"><ele>121.0</ele><time>2026-04-30T16:57:13.998Z</time></trkpt><trkpt lat="45.49068411125285" lon="9.252148427219643"><ele>121.0</ele><time>2026-04-30T16:57:14.998Z</time></trkpt><trkpt lat="45.49078378489141" lon="9.252193443410656"><ele>121.0</ele><time>2026-04-30T16:57:15.998Z</time></trkpt><trkpt lat="45.49088984042643" lon="9.252215248331407"><ele>121.0</ele><time>2026-04-30T16:57:16.998Z</time></trkpt><trkpt lat="45.49098830938511" lon="9.252240860648657"><ele>121.0</ele><time>2026-04-30T16:57:17.998Z</time></trkpt><trkpt lat="45.49109097501641" lon="9.252311448557439"><ele>121.0</ele><time>2026-04-30T16:57:18.997Z</time></trkpt><trkpt lat="45.49119181826777" lon="9.252340228644009"><ele>122.0</ele><time>2026-04-30T16:57:19.997Z</time></trkpt><trkpt lat="45.491307880523905" lon="9.252361256615133"><ele>123.0</ele><time>2026-04-30T16:57:20.997Z</time></trkpt><trkpt lat="45.49141462006537" lon="9.252403587353621"><ele>124.0</ele><time>2026-04-30T16:57:21.997Z</time></trkpt><trkpt lat="45.49152315441222" lon="9.252428032300832"><ele>125.0</ele><time>2026-04-30T16:57:22.997Z</time></trkpt><trkpt lat="45.49163473055065" lon="9.252501104220046"><ele>125.0</ele><time>2026-04-30T16:57:23.997Z</time></trkpt><trkpt lat="45.49175461097899" lon="9.252542686191257"><ele>125.0</ele><time>2026-04-30T16:57:24.997Z</time></trkpt><trkpt lat="45.49185678890741" lon="9.25260238092867"><ele>125.0</ele><time>2026-04-30T16:57:25.997Z</time></trkpt><trkpt lat="45.49196402398471" lon="9.252658157888503"><ele>125.0</ele><time>2026-04-30T16:57:26.997Z</time></trkpt><trkpt lat="45.49209862562522" lon="9.252707016364285"><ele>124.2</ele><time>2026-04-30T16:57:27.997Z</time></trkpt><trkpt lat="45.492208438519555" lon="9.252784850638216"><ele>123.4</ele><time>2026-04-30T16:57:28.997Z</time></trkpt><trkpt lat="45.49230620657958" lon="9.252849216446334"><ele>122.6</ele><time>2026-04-30T16:57:29.997Z</time></trkpt><trkpt lat="45.49239738788354" lon="9.252925351156634"><ele>121.8</ele><time>2026-04-30T16:57:30.997Z</time></trkpt><trkpt lat="45.492490428543945" lon="9.252975474743131"><ele>121.0</ele><time>2026-04-30T16:57:31.997Z</time></trkpt><trkpt lat="45.49257870390379" lon="9.253017566227134"><ele>121.0</ele><time>2026-04-30T16:57:32.997Z</time></trkpt><trkpt lat="45.492676234552945" lon="9.25305529077452"><ele>121.0</ele><time>2026-04-30T16:57:33.997Z</time></trkpt><trkpt lat="45.49275862940634" lon="9.253106102342828"><ele>121.0</ele><time>2026-04-30T16:57:34.997Z</time></trkpt><trkpt lat="45.49285125201769" lon="9.253150700326003"><ele>121.0</ele><time>2026-04-30T16:57:35.997Z</time></trkpt><trkpt lat="45.49294657380179" lon="9.253209380457209"><ele>121.0</ele><time>2026-04-30T16:57:36.997Z</time></trkpt><trkpt lat="45.49304698799774" lon="9.253282872325432"><ele>121.0</ele><time>2026-04-30T16:57:37.997Z</time></trkpt><trkpt lat="45.49316295225135" lon="9.253326490427565"><ele>121.0</ele><time>2026-04-30T16:57:38.997Z</time></trkpt><trkpt lat="45.49326827700304" lon="9.25339268704221"><ele>121.0</ele><time>2026-04-30T16:57:39.997Z</time></trkpt><trkpt lat="45.49336697296528" lon="9.253496999495445"><ele>121.0</ele><time>2026-04-30T16:57:40.997Z</time></trkpt><trkpt lat="45.49345933124084" lon="9.253568785686703"><ele>121.0</ele><time>2026-04-30T16:57:41.997Z</time></trkpt><trkpt lat="45.493538052452436" lon="9.253674926496203"><ele>121.0</ele><time>2026-04-30T16:57:42.997Z</time></trkpt><trkpt lat="45.493654349087535" lon="9.253738027015615"><ele>121.0</ele><time>2026-04-30T16:57:43.997Z</time></trkpt><trkpt lat="45.49376783790465" lon="9.253786842136098"><ele>121.0</ele><time>2026-04-30T16:57:44.997Z</time></trkpt><trkpt lat="45.49387093717525" lon="9.253859321216977"><ele>120.75</ele><time>2026-04-30T16:57:45.997Z</time></trkpt><trkpt lat="45.49399686015988" lon="9.253920022463905"><ele>120.5</ele><time>2026-04-30T16:57:46.997Z</time></trkpt><trkpt lat="45.49413723278021" lon="9.253972838196837"><ele>120.25</ele><time>2026-04-30T16:57:47.997Z</time></trkpt><trkpt lat="45.494250266389756" lon="9.254015691525067"><ele>120.0</ele><time>2026-04-30T16:57:48.997Z</time></trkpt><trkpt lat="45.49434831147774" lon="9.254061648838285"><ele>120.0</ele><time>2026-04-30T16:57:49.997Z</time></trkpt><trkpt lat="45.49445849743711" lon="9.254138338391575"><ele>120.0</ele><time>2026-04-30T16:57:50.997Z</time></trkpt><trkpt lat="45.49458672076266" lon="9.254304577198264"><ele>120.0</ele><time>2026-04-30T16:57:51.997Z</time></trkpt><trkpt lat="45.49469752559577" lon="9.254434533866629"><ele>120.0</ele><time>2026-04-30T16:57:52.997Z</time></trkpt><trkpt lat="45.49481863434399" lon="9.254531171225484"><ele>120.0</ele><time>2026-04-30T16:57:53.997Z</time></trkpt><trkpt lat="45.494938557164936" lon="9.254635115441872"><ele>120.0</ele><time>2026-04-30T16:57:54.997Z</time></trkpt><trkpt lat="45.495064806376604" lon="9.254728917465906"><ele>120.0</ele><time>2026-04-30T16:57:55.997Z</time></trkpt><trkpt lat="45.495200495930604" lon="9.254806819347092"><ele>120.0</ele><time>2026-04-30T16:57:56.997Z</time></trkpt><trkpt lat="45.4953490618895" lon="9.254897462517267"><ele>121.0</ele><time>2026-04-30T16:57:57.997Z</time></trkpt><trkpt lat="45.495501124363244" lon="9.254990953792834"><ele>122.0</ele><time>2026-04-30T16:57:58.997Z</time></trkpt><trkpt lat="45.49565226418993" lon="9.25506079717091"><ele>123.0</ele><time>2026-04-30T16:57:59.997Z</time></trkpt><trkpt lat="45.495788871600006" lon="9.255136076503446"><ele>123.0</ele><time>2026-04-30T16:58:00.997Z</time></trkpt><trkpt lat="45.495927238337" lon="9.255218317126499"><ele>123.0</ele><time>2026-04-30T16:58:01.997Z</time></trkpt><trkpt lat="45.49607567269125" lon="9.255289698027404"><ele>123.0</ele><time>2026-04-30T16:58:02.997Z</time></trkpt><trkpt lat="45.49622888840882" lon="9.255345146142304"><ele>122.0</ele><time>2026-04-30T16:58:03.997Z</time></trkpt><trkpt lat="45.49636044513541" lon="9.255394524675346"><ele>121.0</ele><time>2026-04-30T16:58:04.997Z</time></trkpt><trkpt lat="45.49648826663963" lon="9.255421761815475"><ele>120.0</ele><time>2026-04-30T16:58:05.997Z</time></trkpt><trkpt lat="45.49662120746432" lon="9.255453502948884"><ele>119.0</ele><time>2026-04-30T16:58:06.997Z</time></trkpt><trkpt lat="45.49677720962843" lon="9.255474863321922"><ele>119.0</ele><time>2026-04-30T16:58:07.997Z</time></trkpt><trkpt lat="45.49691550562822" lon="9.255509844058858"><ele>119.0</ele><time>2026-04-30T16:58:08.997Z</time></trkpt><trkpt lat="45.49704669306015" lon="9.255542943286278"><ele>119.0</ele><time>2026-04-30T16:58:09.997Z</time></trkpt><trkpt lat="45.49716574972331" lon="9.255575071078603"><ele>119.0</ele><time>2026-04-30T16:58:10.997Z</time></trkpt><trkpt lat="45.497311704174464" lon="9.255572553666655"><ele>120.25</ele><time>2026-04-30T16:58:11.997Z</time></trkpt><trkpt lat="45.497446691251234" lon="9.25558200215975"><ele>121.5</ele><time>2026-04-30T16:58:12.997Z</time></trkpt><trkpt lat="45.49757889874028" lon="9.255604342014129"><ele>122.75</ele><time>2026-04-30T16:58:13.997Z</time></trkpt><trkpt lat="45.49769778435622" lon="9.25560992231477"><ele>124.0</ele><time>2026-04-30T16:58:14.997Z</time></trkpt><trkpt lat="45.497815972674616" lon="9.255618736276885"><ele>123.6</ele><time>2026-04-30T16:58:15.997Z</time></trkpt><trkpt lat="45.4979328782168" lon="9.255622751560997"><ele>123.2</ele><time>2026-04-30T16:58:16.997Z</time></trkpt><trkpt lat="45.49801911354881" lon="9.255659284787777"><ele>122.79999999999998</ele><time>2026-04-30T16:58:17.997Z</time></trkpt><trkpt lat="45.498115570573894" lon="9.255681301307375"><ele>122.39999999999999</ele><time>2026-04-30T16:58:18.997Z</time></trkpt><trkpt lat="45.49821518599055" lon="9.25569812777772"><ele>122.0</ele><time>2026-04-30T16:58:19.997Z</time></trkpt><trkpt lat="45.49829658276438" lon="9.255699249000756"><ele>122.0</ele><time>2026-04-30T16:58:20.997Z</time></trkpt><trkpt lat="45.49839215227403" lon="9.255714869881443"><ele>122.0</ele><time>2026-04-30T16:58:21.997Z</time></trkpt><trkpt lat="45.4985133283031" lon="9.255711829818358"><ele>122.0</ele><time>2026-04-30T16:58:22.997Z</time></trkpt><trkpt lat="45.49863672432662" lon="9.255714634861807"><ele>122.0</ele><time>2026-04-30T16:58:23.997Z</time></trkpt><trkpt lat="45.49875511340077" lon="9.255730230674835"><ele>123.0</ele><time>2026-04-30T16:58:24.996Z</time></trkpt><trkpt lat="45.49887039677325" lon="9.255746599260283"><ele>124.0</ele><time>2026-04-30T16:58:25.996Z</time></trkpt><trkpt lat="45.498955762118385" lon="9.255733158729777"><ele>125.0</ele><time>2026-04-30T16:58:26.996Z</time></trkpt><trkpt lat="45.499084478825914" lon="9.255788023256947"><ele>126.0</ele><time>2026-04-30T16:58:27.996Z</time></trkpt><trkpt lat="45.499212189376586" lon="9.255791249962815"><ele>126.0</ele><time>2026-04-30T16:58:28.996Z</time></trkpt><trkpt lat="45.49931968226568" lon="9.25580133001412"><ele>126.0</ele><time>2026-04-30T16:58:29.996Z</time></trkpt><trkpt lat="45.49942526974589" lon="9.25583397510038"><ele>126.0</ele><time>2026-04-30T16:58:30.996Z</time></trkpt><trkpt lat="45.49955130959005" lon="9.255822916618536"><ele>126.0</ele><time>2026-04-30T16:58:31.996Z</time></trkpt><trkpt lat="45.49966962303811" lon="9.255835331218895"><ele>125.6</ele><time>2026-04-30T16:58:32.996Z</time></trkpt><trkpt lat="45.499773132177914" lon="9.255785329174785"><ele>125.19999999999999</ele><time>2026-04-30T16:58:33.996Z</time></trkpt><trkpt lat="45.499871756733064" lon="9.255801082468485"><ele>124.80000000000001</ele><time>2026-04-30T16:58:34.996Z</time></trkpt><trkpt lat="45.49998272683391" lon="9.255809802242075"><ele>124.4</ele><time>2026-04-30T16:58:35.996Z</time></trkpt><trkpt lat="45.5001014302002" lon="9.255818337812077"><ele>124.0</ele><time>2026-04-30T16:58:36.996Z</time></trkpt><trkpt lat="45.50021502271044" lon="9.255855247226004"><ele>124.0</ele><time>2026-04-30T16:58:37.996Z</time></trkpt><trkpt lat="45.500327876354866" lon="9.25588535013871"><ele>124.0</ele><time>2026-04-30T16:58:38.996Z</time></trkpt><trkpt lat="45.5004593381013" lon="9.255906929413475"><ele>124.0</ele><time>2026-04-30T16:58:39.996Z</time></trkpt><trkpt lat="45.50057682985908" lon="9.255945677335074"><ele>124.0</ele><time>2026-04-30T16:58:40.996Z</time></trkpt><trkpt lat="45.50068723848683" lon="9.255979613965366"><ele>123.25</ele><time>2026-04-30T16:58:41.996Z</time></trkpt><trkpt lat="45.500803905685984" lon="9.256049502769534"><ele>122.5</ele><time>2026-04-30T16:58:42.996Z</time></trkpt><trkpt lat="45.500920893985395" lon="9.256099737942806"><ele>121.75</ele><time>2026-04-30T16:58:43.996Z</time></trkpt><trkpt lat="45.50103364275513" lon="9.256141696717776"><ele>121.0</ele><time>2026-04-30T16:58:44.996Z</time></trkpt><trkpt lat="45.50114590224972" lon="9.256204855569719"><ele>121.0</ele><time>2026-04-30T16:58:45.996Z</time></trkpt><trkpt lat="45.50124490859836" lon="9.256272087695322"><ele>121.0</ele><time>2026-04-30T16:58:46.996Z</time></trkpt><trkpt lat="45.50136921908679" lon="9.256334834574028"><ele>121.0</ele><time>2026-04-30T16:58:47.996Z</time></trkpt><trkpt lat="45.50148706519455" lon="9.25637495477786"><ele>121.0</ele><time>2026-04-30T16:58:48.996Z</time></trkpt><trkpt lat="45.50159736622456" lon="9.25646335748285"><ele>120.8</ele><time>2026-04-30T16:58:49.996Z</time></trkpt><trkpt lat="45.50170474342645" lon="9.256535824216057"><ele>120.6</ele><time>2026-04-30T16:58:50.996Z</time></trkpt><trkpt lat="45.50180306755886" lon="9.256590700348116"><ele>120.4</ele><time>2026-04-30T16:58:51.996Z</time></trkpt><trkpt lat="45.501893204282794" lon="9.25665674545716"><ele>120.2</ele><time>2026-04-30T16:58:52.996Z</time></trkpt><trkpt lat="45.501998200664374" lon="9.256734063855848"><ele>120.0</ele><time>2026-04-30T16:58:53.996Z</time></trkpt><trkpt lat="45.50211691539685" lon="9.256809005991403"><ele>120.0</ele><time>2026-04-30T16:58:54.996Z</time></trkpt><trkpt lat="45.50222194415148" lon="9.256888038708151"><ele>120.0</ele><time>2026-04-30T16:58:55.996Z</time></trkpt><trkpt lat="45.502316757838216" lon="9.256964033341553"><ele>120.0</ele><time>2026-04-30T16:58:56.996Z</time></trkpt><trkpt lat="45.50242372308221" lon="9.257054499725388"><ele>120.0</ele><time>2026-04-30T16:58:57.996Z</time></trkpt><trkpt lat="45.502535866984836" lon="9.257134451423285"><ele>120.0</ele><time>2026-04-30T16:58:58.996Z</time></trkpt><trkpt lat="45.502666674226084" lon="9.257221732425535"><ele>120.0</ele><time>2026-04-30T16:58:59.996Z</time></trkpt><trkpt lat="45.50278527361614" lon="9.257311011396766"><ele>120.0</ele><time>2026-04-30T16:59:00.996Z</time></trkpt><trkpt lat="45.50289022648609" lon="9.257374504280698"><ele>120.0</ele><time>2026-04-30T16:59:01.996Z</time></trkpt><trkpt lat="45.50300347492433" lon="9.257468794946755"><ele>120.0</ele><time>2026-04-30T16:59:02.996Z</time></trkpt><trkpt lat="45.503129119985964" lon="9.257575128476617"><ele>120.0</ele><time>2026-04-30T16:59:03.996Z</time></trkpt><trkpt lat="45.503273844343255" lon="9.257671892677555"><ele>120.0</ele><time>2026-04-30T16:59:04.996Z</time></trkpt><trkpt lat="45.503418081484966" lon="9.257799701951186"><ele>120.0</ele><time>2026-04-30T16:59:05.996Z</time></trkpt><trkpt lat="45.503560951100965" lon="9.257900512511819"><ele>120.0</ele><time>2026-04-30T16:59:06.996Z</time></trkpt><trkpt lat="45.503710520764784" lon="9.258021288842055"><ele>120.0</ele><time>2026-04-30T16:59:07.996Z</time></trkpt><trkpt lat="45.503870255801566" lon="9.258130996300048"><ele>121.0</ele><time>2026-04-30T16:59:08.996Z</time></trkpt><trkpt lat="45.50403184872408" lon="9.258268176645874"><ele>122.0</ele><time>2026-04-30T16:59:09.996Z</time></trkpt><trkpt lat="45.50418720361419" lon="9.258386023608601"><ele>123.0</ele><time>2026-04-30T16:59:10.996Z</time></trkpt><trkpt lat="45.5043323608664" lon="9.258460922512773"><ele>123.0</ele><time>2026-04-30T16:59:11.996Z</time></trkpt><trkpt lat="45.50448951322471" lon="9.258608686580757"><ele>123.0</ele><time>2026-04-30T16:59:12.996Z</time></trkpt><trkpt lat="45.50463600348905" lon="9.258717397160261"><ele>123.0</ele><time>2026-04-30T16:59:13.996Z</time></trkpt><trkpt lat="45.504772074264146" lon="9.258806643123979"><ele>123.0</ele><time>2026-04-30T16:59:14.996Z</time></trkpt><trkpt lat="45.50489626237812" lon="9.258878772230211"><ele>123.0</ele><time>2026-04-30T16:59:15.996Z</time></trkpt><trkpt lat="45.50501195963846" lon="9.258985463071081"><ele>123.0</ele><time>2026-04-30T16:59:16.996Z</time></trkpt><trkpt lat="45.50512048855893" lon="9.259106209750703"><ele>123.0</ele><time>2026-04-30T16:59:17.996Z</time></trkpt><trkpt lat="45.505224080572305" lon="9.2592370034008"><ele>122.5</ele><time>2026-04-30T16:59:18.996Z</time></trkpt><trkpt lat="45.505342028087966" lon="9.259341430780449"><ele>122.0</ele><time>2026-04-30T16:59:19.996Z</time></trkpt><trkpt lat="45.50546110585716" lon="9.259441869939705"><ele>121.5</ele><time>2026-04-30T16:59:20.996Z</time></trkpt><trkpt lat="45.50557872067941" lon="9.259518951130662"><ele>121.0</ele><time>2026-04-30T16:59:21.996Z</time></trkpt><trkpt lat="45.50569437912227" lon="9.259580690753387"><ele>121.0</ele><time>2026-04-30T16:59:22.996Z</time></trkpt><trkpt lat="45.505814506377035" lon="9.259669727951124"><ele>121.0</ele><time>2026-04-30T16:59:23.996Z</time></trkpt><trkpt lat="45.505931340833015" lon="9.259784904849628"><ele>121.0</ele><time>2026-04-30T16:59:24.996Z</time></trkpt><trkpt lat="45.50605507171714" lon="9.259888434612868"><ele>121.0</ele><time>2026-04-30T16:59:25.996Z</time></trkpt><trkpt lat="45.50614784784853" lon="9.260010412075266"><ele>121.66666666666667</ele><time>2026-04-30T16:59:26.996Z</time></trkpt><trkpt lat="45.506271754764555" lon="9.260109427520755"><ele>122.33333333333334</ele><time>2026-04-30T16:59:27.996Z</time></trkpt><trkpt lat="45.50641307106903" lon="9.2602060203689"><ele>123.0</ele><time>2026-04-30T16:59:28.996Z</time></trkpt><trkpt lat="45.506550980903945" lon="9.260302739740208"><ele>123.0</ele><time>2026-04-30T16:59:29.995Z</time></trkpt><trkpt lat="45.50668081269188" lon="9.260383054008646"><ele>123.0</ele><time>2026-04-30T16:59:30.995Z</time></trkpt><trkpt lat="45.506835510965786" lon="9.26044754190678"><ele>123.0</ele><time>2026-04-30T16:59:31.995Z</time></trkpt><trkpt lat="45.506999889919626" lon="9.26051952743308"><ele>123.33333333333334</ele><time>2026-04-30T16:59:32.995Z</time></trkpt><trkpt lat="45.50716149361806" lon="9.26062421997398"><ele>123.66666666666667</ele><time>2026-04-30T16:59:33.995Z</time></trkpt><trkpt lat="45.50729174406545" lon="9.260761207640009"><ele>124.0</ele><time>2026-04-30T16:59:34.995Z</time></trkpt><trkpt lat="45.50740223019186" lon="9.26094045085486"><ele>124.0</ele><time>2026-04-30T16:59:35.995Z</time></trkpt><trkpt lat="45.50753837466916" lon="9.261050407554304"><ele>124.0</ele><time>2026-04-30T16:59:36.995Z</time></trkpt><trkpt lat="45.50766929075327" lon="9.261163421949986"><ele>124.0</ele><time>2026-04-30T16:59:37.995Z</time></trkpt><trkpt lat="45.50778437651475" lon="9.261311343259326"><ele>123.66666666666667</ele><time>2026-04-30T16:59:38.995Z</time></trkpt><trkpt lat="45.50792697766343" lon="9.261415310230719"><ele>123.33333333333334</ele><time>2026-04-30T16:59:39.995Z</time></trkpt><trkpt lat="45.508065012438706" lon="9.261514614516413"><ele>123.0</ele><time>2026-04-30T16:59:40.995Z</time></trkpt><trkpt lat="45.50821750747082" lon="9.261628994983722"><ele>123.25</ele><time>2026-04-30T16:59:41.995Z</time></trkpt><trkpt lat="45.508384411719405" lon="9.261749457995613"><ele>123.5</ele><time>2026-04-30T16:59:42.995Z</time></trkpt><trkpt lat="45.5084953632266" lon="9.26181041039409"><ele>123.75</ele><time>2026-04-30T16:59:43.995Z</time></trkpt><trkpt lat="45.5086199200074" lon="9.261867938617282"><ele>124.0</ele><time>2026-04-30T16:59:44.995Z</time></trkpt><trkpt lat="45.5087708571432" lon="9.261931654213901"><ele>124.0</ele><time>2026-04-30T16:59:45.995Z</time></trkpt><trkpt lat="45.50893191001226" lon="9.261990452915532"><ele>124.0</ele><time>2026-04-30T16:59:46.995Z</time></trkpt><trkpt lat="45.50909525364688" lon="9.262037360270163"><ele>124.0</ele><time>2026-04-30T16:59:47.995Z</time></trkpt><trkpt lat="45.50926797298151" lon="9.262074560984301"><ele>124.0</ele><time>2026-04-30T16:59:48.995Z</time></trkpt><trkpt lat="45.50944073883506" lon="9.262115101513766"><ele>124.0</ele><time>2026-04-30T16:59:49.995Z</time></trkpt><trkpt lat="45.50962641507273" lon="9.262125886086963"><ele>124.0</ele><time>2026-04-30T16:59:50.995Z</time></trkpt><trkpt lat="45.509808919990796" lon="9.262134022966046"><ele>124.33333333333334</ele><time>2026-04-30T16:59:51.995Z</time></trkpt><trkpt lat="45.50996867171064" lon="9.262074359640549"><ele>124.66666666666666</ele><time>2026-04-30T16:59:52.995Z</time></trkpt><trkpt lat="45.510157329264054" lon="9.262038736643783"><ele>125.0</ele><time>2026-04-30T16:59:53.995Z</time></trkpt><trkpt lat="45.51035772277757" lon="9.261995267248128"><ele>125.0</ele><time>2026-04-30T16:59:54.995Z</time></trkpt><trkpt lat="45.510568982999686" lon="9.261951919927412"><ele>125.0</ele><time>2026-04-30T16:59:55.995Z</time></trkpt><trkpt lat="45.51076516917146" lon="9.261933138442263"><ele>125.0</ele><time>2026-04-30T16:59:56.995Z</time></trkpt><trkpt lat="45.51093954010947" lon="9.261898937162949"><ele>125.0</ele><time>2026-04-30T16:59:57.995Z</time></trkpt><trkpt lat="45.51108941043068" lon="9.261866577759028"><ele>125.0</ele><time>2026-04-30T16:59:58.995Z</time></trkpt><trkpt lat="45.51125561495453" lon="9.26184448389997"><ele>125.0</ele><time>2026-04-30T16:59:59.995Z</time></trkpt><trkpt lat="45.511393389960325" lon="9.261824354811194"><ele>125.75</ele><time>2026-04-30T17:00:00.995Z</time></trkpt><trkpt lat="45.51151796648597" lon="9.261825071783171"><ele>126.5</ele><time>2026-04-30T17:00:01.995Z</time></trkpt><trkpt lat="45.51163838169555" lon="9.261842812929354"><ele>127.25</ele><time>2026-04-30T17:00:02.995Z</time></trkpt><trkpt lat="45.51179917985438" lon="9.261771121820475"><ele>128.0</ele><time>2026-04-30T17:00:03.995Z</time></trkpt><trkpt lat="45.51198112548571" lon="9.261813173156797"><ele>127.75</ele><time>2026-04-30T17:00:04.995Z</time></trkpt><trkpt lat="45.512136897895054" lon="9.261868340188183"><ele>127.5</ele><time>2026-04-30T17:00:05.995Z</time></trkpt><trkpt lat="45.512279657123976" lon="9.261914360453146"><ele>127.25</ele><time>2026-04-30T17:00:06.995Z</time></trkpt><trkpt lat="45.51240008484382" lon="9.261990627442467"><ele>127.0</ele><time>2026-04-30T17:00:07.995Z</time></trkpt><trkpt lat="45.512500808565186" lon="9.26205677972997"><ele>127.0</ele><time>2026-04-30T17:00:08.995Z</time></trkpt><trkpt lat="45.512577890739124" lon="9.262107315762863"><ele>126.99999999999999</ele><time>2026-04-30T17:00:09.995Z</time></trkpt><trkpt lat="45.51267919045257" lon="9.262126017733012"><ele>126.99999999999999</ele><time>2026-04-30T17:00:10.995Z</time></trkpt><trkpt lat="45.51277240395297" lon="9.262170534052967"><ele>127.0</ele><time>2026-04-30T17:00:11.995Z</time></trkpt><trkpt lat="45.51280248604863" lon="9.261990013401212"><ele>127.0</ele><time>2026-04-30T17:00:13.995Z</time></trkpt><trkpt lat="45.512767687523414" lon="9.261846058302135"><ele>127.0</ele><time>2026-04-30T17:00:14.995Z</time></trkpt><trkpt lat="45.512751209052404" lon="9.261674023270901"><ele>127.0</ele><time>2026-04-30T17:00:15.995Z</time></trkpt><trkpt lat="45.51277386200495" lon="9.261523729937773"><ele>127.0</ele><time>2026-04-30T17:00:16.995Z</time></trkpt><trkpt lat="45.5126870610458" lon="9.2613054197984"><ele>127.0</ele><time>2026-04-30T17:00:17.995Z</time></trkpt><trkpt lat="45.512618779993524" lon="9.261091054918381"><ele>127.33333333333334</ele><time>2026-04-30T17:00:18.995Z</time></trkpt><trkpt lat="45.51255251379426" lon="9.260876140141653"><ele>127.66666666666666</ele><time>2026-04-30T17:00:19.995Z</time></trkpt><trkpt lat="45.51249843318813" lon="9.260666511669854"><ele>128.0</ele><time>2026-04-30T17:00:20.995Z</time></trkpt><trkpt lat="45.512449554738936" lon="9.260493327654737"><ele>128.0</ele><time>2026-04-30T17:00:21.995Z</time></trkpt><trkpt lat="45.51240969709967" lon="9.260372447475268"><ele>128.0</ele><time>2026-04-30T17:00:22.995Z</time></trkpt><trkpt lat="45.51238673567761" lon="9.260258905860791"><ele>128.0</ele><time>2026-04-30T17:00:23.995Z</time></trkpt><trkpt lat="45.51235994923582" lon="9.26010768319743"><ele>128.0</ele><time>2026-04-30T17:00:25.995Z</time></trkpt><trkpt lat="45.5123344681799" lon="9.259915960355181"><ele>128.0</ele><time>2026-04-30T17:00:39.994Z</time></trkpt><trkpt lat="45.51233298750437" lon="9.25974231801226"><ele>127.60000000000001</ele><time>2026-04-30T17:00:40.994Z</time></trkpt><trkpt lat="45.51230392343222" lon="9.259612000674501"><ele>127.20000000000002</ele><time>2026-04-30T17:00:41.994Z</time></trkpt><trkpt lat="45.51228288474634" lon="9.259464257744634"><ele>126.8</ele><time>2026-04-30T17:00:42.994Z</time></trkpt><trkpt lat="45.51225997791852" lon="9.259302503276936"><ele>126.4</ele><time>2026-04-30T17:00:43.994Z</time></trkpt><trkpt lat="45.51224819836638" lon="9.259156530675815"><ele>126.0</ele><time>2026-04-30T17:00:44.994Z</time></trkpt><trkpt lat="45.512209256607264" lon="9.259063010054852"><ele>126.0</ele><time>2026-04-30T17:00:45.994Z</time></trkpt><trkpt lat="45.51220514444229" lon="9.258948694236397"><ele>126.0</ele><time>2026-04-30T17:00:46.994Z</time></trkpt><trkpt lat="45.51216571785182" lon="9.258791703578519"><ele>126.0</ele><time>2026-04-30T17:00:48.994Z</time></trkpt><trkpt lat="45.51214761862443" lon="9.258670585681429"><ele>126.0</ele><time>2026-04-30T17:00:50.994Z</time></trkpt><trkpt lat="45.512129721186454" lon="9.258560155520566"><ele>126.0</ele><time>2026-04-30T17:00:52.994Z</time></trkpt><trkpt lat="45.512114817940876" lon="9.25842643653393"><ele>126.0</ele><time>2026-04-30T17:00:54.994Z</time></trkpt><trkpt lat="45.51210701031196" lon="9.258335668754404"><ele>126.0</ele><time>2026-04-30T17:00:55.994Z</time></trkpt><trkpt lat="45.512184034514746" lon="9.258297133039987"><ele>126.0</ele><time>2026-04-30T17:00:57.994Z</time></trkpt><trkpt lat="45.51227730264851" lon="9.258221666043205"><ele>126.0</ele><time>2026-04-30T17:00:59.994Z</time></trkpt><trkpt lat="45.51235974966884" lon="9.258160341640872"><ele>126.0</ele><time>2026-04-30T17:01:02.001Z</time></trkpt><trkpt lat="45.512452093710785" lon="9.258159528245978"><ele>126.0</ele><time>2026-04-30T17:01:04.001Z</time></trkpt><trkpt lat="45.512532660687874" lon="9.258121743294167"><ele>126.66666666666667</ele><time>2026-04-30T17:01:07.001Z</time></trkpt><trkpt lat="45.51258987315374" lon="9.258079884436263"><ele>127.33333333333334</ele><time>2026-04-30T17:01:09.001Z</time></trkpt><trkpt lat="45.512657097203004" lon="9.258014732679262"><ele>128.0</ele><time>2026-04-30T17:01:11.001Z</time></trkpt><trkpt lat="45.51270180973475" lon="9.2579514632856"><ele>128.66666666666669</ele><time>2026-04-30T17:01:13.001Z</time></trkpt><trkpt lat="45.5127592202481" lon="9.257826576708874"><ele>129.33333333333334</ele><time>2026-04-30T17:01:15.001Z</time></trkpt><trkpt lat="45.51282192730483" lon="9.257717265586328"><ele>130.0</ele><time>2026-04-30T17:01:17Z</time></trkpt><trkpt lat="45.512848220308705" lon="9.257626160337274"><ele>130.0</ele><time>2026-04-30T17:01:19Z</time></trkpt><trkpt lat="45.51290076158752" lon="9.25748305018685"><ele>130.0</ele><time>2026-04-30T17:01:20Z</time></trkpt><trkpt lat="45.5129506871808" lon="9.257395414829912"><ele>130.0</ele><time>2026-04-30T17:01:21Z</time></trkpt><trkpt lat="45.51303156655044" lon="9.257335109763734"><ele>130.0</ele><time>2026-04-30T17:01:23Z</time></trkpt><trkpt lat="45.51309317756161" lon="9.257267306760008"><ele>130.0</ele><time>2026-04-30T17:01:25Z</time></trkpt><trkpt lat="45.51312629813663" lon="9.257176959684713"><ele>130.0</ele><time>2026-04-30T17:01:27Z</time></trkpt><trkpt lat="45.513132126689364" lon="9.25708386499092"><ele>129.6</ele><time>2026-04-30T17:01:31Z</time></trkpt><trkpt lat="45.51310917349197" lon="9.256984781607681"><ele>129.2</ele><time>2026-04-30T17:01:34Z</time></trkpt><trkpt lat="45.51304393696839" lon="9.256950879614504"><ele>128.8</ele><time>2026-04-30T17:01:38Z</time></trkpt><trkpt lat="45.512963477763776" lon="9.256912559957579"><ele>128.4</ele><time>2026-04-30T17:01:40Z</time></trkpt><trkpt lat="45.512898191124066" lon="9.256896356400528"><ele>128.0</ele><time>2026-04-30T17:01:41Z</time></trkpt><trkpt lat="45.51287037860946" lon="9.256620052649982"><ele>128.0</ele><time>2026-04-30T17:01:42Z</time></trkpt><trkpt lat="45.512764976532154" lon="9.256624187617676"><ele>128.0</ele><time>2026-04-30T17:01:44Z</time></trkpt><trkpt lat="45.512674086010406" lon="9.256786475350426"><ele>128.0</ele><time>2026-04-30T17:01:46Z</time></trkpt><trkpt lat="45.512618121026755" lon="9.256646043327935"><ele>128.0</ele><time>2026-04-30T17:01:47Z</time></trkpt><trkpt lat="45.51255117188441" lon="9.256636203943511"><ele>128.0</ele><time>2026-04-30T17:01:48Z</time></trkpt><trkpt lat="45.51248053118758" lon="9.256628385616754"><ele>127.99999999999999</ele><time>2026-04-30T17:01:49Z</time></trkpt><trkpt lat="45.51241557965244" lon="9.256561606154774"><ele>128.0</ele><time>2026-04-30T17:01:50Z</time></trkpt><trkpt lat="45.512356881477324" lon="9.256524005900413"><ele>128.0</ele><time>2026-04-30T17:01:51Z</time></trkpt><trkpt lat="45.512284190472556" lon="9.256477175248833"><ele>128.0</ele><time>2026-04-30T17:01:52Z</time></trkpt><trkpt lat="45.51221452714994" lon="9.256432295387782"><ele>127.99999999999999</ele><time>2026-04-30T17:01:52.999Z</time></trkpt><trkpt lat="45.512110972180196" lon="9.25635252806764"><ele>128.0</ele><time>2026-04-30T17:01:54.999Z</time></trkpt><trkpt lat="45.51203294129703" lon="9.256284812794338"><ele>128.0</ele><time>2026-04-30T17:01:56.999Z</time></trkpt><trkpt lat="45.51194169452228" lon="9.256187609445785"><ele>128.0</ele><time>2026-04-30T17:01:58.999Z</time></trkpt><trkpt lat="45.51184292710621" lon="9.256072608008175"><ele>128.0</ele><time>2026-04-30T17:02:00.999Z</time></trkpt><trkpt lat="45.511750452862884" lon="9.255946575158953"><ele>128.0</ele><time>2026-04-30T17:02:02.999Z</time></trkpt><trkpt lat="45.51170407094751" lon="9.25588005971403"><ele>128.0</ele><time>2026-04-30T17:02:03.999Z</time></trkpt><trkpt lat="45.511659091470676" lon="9.25581555549363"><ele>128.0</ele><time>2026-04-30T17:02:04.999Z</time></trkpt><trkpt lat="45.51157579561965" lon="9.255696100784151"><ele>128.0</ele><time>2026-04-30T17:02:06.999Z</time></trkpt><trkpt lat="45.51150642735648" lon="9.255566066756424"><ele>128.0</ele><time>2026-04-30T17:02:08.999Z</time></trkpt><trkpt lat="45.51144388597689" lon="9.255472393628484"><ele>128.0</ele><time>2026-04-30T17:02:10.999Z</time></trkpt><trkpt lat="45.5114237910701" lon="9.255363030704133"><ele>128.0</ele><time>2026-04-30T17:02:13.999Z</time></trkpt><trkpt lat="45.51140638729205" lon="9.255276418351002"><ele>128.33333333333331</ele><time>2026-04-30T17:02:15.999Z</time></trkpt><trkpt lat="45.51139238293476" lon="9.255182527464575"><ele>128.66666666666666</ele><time>2026-04-30T17:02:16.999Z</time></trkpt><trkpt lat="45.51136929263216" lon="9.255078986928249"><ele>129.0</ele><time>2026-04-30T17:02:17.999Z</time></trkpt><trkpt lat="45.51134339857353" lon="9.254968874089286"><ele>129.33333333333334</ele><time>2026-04-30T17:02:18.999Z</time></trkpt><trkpt lat="45.51131602104608" lon="9.254847623881767"><ele>129.66666666666669</ele><time>2026-04-30T17:02:19.999Z</time></trkpt><trkpt lat="45.511293192765905" lon="9.2547005117809"><ele>130.0</ele><time>2026-04-30T17:02:20.999Z</time></trkpt><trkpt lat="45.51126110147714" lon="9.254545502350988"><ele>130.0</ele><time>2026-04-30T17:02:21.999Z</time></trkpt><trkpt lat="45.5112290142621" lon="9.254383759417436"><ele>130.0</ele><time>2026-04-30T17:02:22.999Z</time></trkpt><trkpt lat="45.51120276430721" lon="9.254238051350104"><ele>130.0</ele><time>2026-04-30T17:02:23.999Z</time></trkpt><trkpt lat="45.51117361770735" lon="9.254112782739544"><ele>130.0</ele><time>2026-04-30T17:02:24.999Z</time></trkpt><trkpt lat="45.511154824917575" lon="9.253993047640035"><ele>130.0</ele><time>2026-04-30T17:02:25.999Z</time></trkpt><trkpt lat="45.511126487611165" lon="9.253882368395464"><ele>130.00000000000003</ele><time>2026-04-30T17:02:26.999Z</time></trkpt><trkpt lat="45.511100301681786" lon="9.25378266893291"><ele>130.0</ele><time>2026-04-30T17:02:27.999Z</time></trkpt><trkpt lat="45.511079442867015" lon="9.253682928936893"><ele>130.0</ele><time>2026-04-30T17:02:28.999Z</time></trkpt><trkpt lat="45.51107545709974" lon="9.253580294262141"><ele>130.0</ele><time>2026-04-30T17:02:29.999Z</time></trkpt><trkpt lat="45.51105815180507" lon="9.25349006394141"><ele>130.0</ele><time>2026-04-30T17:02:30.999Z</time></trkpt><trkpt lat="45.511041128911785" lon="9.253401306248"><ele>130.00000000000003</ele><time>2026-04-30T17:02:31.999Z</time></trkpt><trkpt lat="45.51101010711276" lon="9.25332190152846"><ele>130.0</ele><time>2026-04-30T17:02:32.999Z</time></trkpt><trkpt lat="45.510991944859924" lon="9.253233843593947"><ele>130.0</ele><time>2026-04-30T17:02:33.999Z</time></trkpt><trkpt lat="45.510977404594854" lon="9.253146236618"><ele>130.0</ele><time>2026-04-30T17:02:34.999Z</time></trkpt><trkpt lat="45.51095753185285" lon="9.2529735240707"><ele>130.0</ele><time>2026-04-30T17:02:36.999Z</time></trkpt><trkpt lat="45.51092687640256" lon="9.252805590761215"><ele>130.0</ele><time>2026-04-30T17:02:38.999Z</time></trkpt><trkpt lat="45.51091020297353" lon="9.252718655030034"><ele>130.0</ele><time>2026-04-30T17:02:39.999Z</time></trkpt><trkpt lat="45.51087834001438" lon="9.252638499936175"><ele>130.0</ele><time>2026-04-30T17:02:40.999Z</time></trkpt><trkpt lat="45.5108482427839" lon="9.252473948149472"><ele>130.25</ele><time>2026-04-30T17:02:42.999Z</time></trkpt><trkpt lat="45.51081713053005" lon="9.252311580290879"><ele>130.5</ele><time>2026-04-30T17:02:44.999Z</time></trkpt><trkpt lat="45.51078439133505" lon="9.252144997536348"><ele>130.75</ele><time>2026-04-30T17:02:46.999Z</time></trkpt><trkpt lat="45.510751251784676" lon="9.25197436335279"><ele>131.0</ele><time>2026-04-30T17:02:48.999Z</time></trkpt><trkpt lat="45.510733592216376" lon="9.251801449687648"><ele>131.0</ele><time>2026-04-30T17:02:50.998Z</time></trkpt><trkpt lat="45.51070102778327" lon="9.251721981040228"><ele>131.0</ele><time>2026-04-30T17:02:51.998Z</time></trkpt><trkpt lat="45.51068429936829" lon="9.251633845547897"><ele>131.0</ele><time>2026-04-30T17:02:52.998Z</time></trkpt><trkpt lat="45.51066602686495" lon="9.251537076436563"><ele>131.0</ele><time>2026-04-30T17:02:53.998Z</time></trkpt><trkpt lat="45.51066123291352" lon="9.251429148578605"><ele>131.0</ele><time>2026-04-30T17:02:54.998Z</time></trkpt><trkpt lat="45.51064180976157" lon="9.251329273266881"><ele>131.0</ele><time>2026-04-30T17:02:55.998Z</time></trkpt><trkpt lat="45.510621070428" lon="9.251222629978253"><ele>131.0</ele><time>2026-04-30T17:02:56.998Z</time></trkpt><trkpt lat="45.51059973882022" lon="9.251112941253268"><ele>131.0</ele><time>2026-04-30T17:02:57.998Z</time></trkpt><trkpt lat="45.51057800632875" lon="9.250999687231252"><ele>131.0</ele><time>2026-04-30T17:02:58.998Z</time></trkpt><trkpt lat="45.510540322598104" lon="9.25089233004755"><ele>131.0</ele><time>2026-04-30T17:02:59.998Z</time></trkpt><trkpt lat="45.51051975241626" lon="9.250781915929016"><ele>131.0</ele><time>2026-04-30T17:03:00.998Z</time></trkpt><trkpt lat="45.51049906096203" lon="9.250670745715526"><ele>131.0</ele><time>2026-04-30T17:03:01.998Z</time></trkpt><trkpt lat="45.51047726744737" lon="9.250559209332764"><ele>131.0</ele><time>2026-04-30T17:03:02.998Z</time></trkpt><trkpt lat="45.51047143323998" lon="9.250442478026736"><ele>131.0</ele><time>2026-04-30T17:03:03.998Z</time></trkpt><trkpt lat="45.51043414798589" lon="9.250338759916994"><ele>131.0</ele><time>2026-04-30T17:03:04.998Z</time></trkpt><trkpt lat="45.51041427156278" lon="9.250233975657828"><ele>131.0</ele><time>2026-04-30T17:03:05.998Z</time></trkpt><trkpt lat="45.51039449114011" lon="9.250131463592313"><ele>131.0</ele><time>2026-04-30T17:03:06.998Z</time></trkpt><trkpt lat="45.51039299047941" lon="9.250036257880055"><ele>131.0</ele><time>2026-04-30T17:03:07.998Z</time></trkpt><trkpt lat="45.51036229965724" lon="9.249877323801105"><ele>131.0</ele><time>2026-04-30T17:03:09.998Z</time></trkpt><trkpt lat="45.51032203996553" lon="9.249748400789732"><ele>131.2</ele><time>2026-04-30T17:03:11.998Z</time></trkpt><trkpt lat="45.51029845440619" lon="9.24962755240483"><ele>131.39999999999998</ele><time>2026-04-30T17:03:13.998Z</time></trkpt><trkpt lat="45.51027799779591" lon="9.249479225821784"><ele>131.6</ele><time>2026-04-30T17:03:15.998Z</time></trkpt><trkpt lat="45.51027202523343" lon="9.249361129847031"><ele>131.79999999999998</ele><time>2026-04-30T17:03:16.998Z</time></trkpt><trkpt lat="45.51023929323509" lon="9.249229851190119"><ele>132.0</ele><time>2026-04-30T17:03:17.998Z</time></trkpt><trkpt lat="45.51020891857306" lon="9.24908040848969"><ele>132.2</ele><time>2026-04-30T17:03:18.998Z</time></trkpt><trkpt lat="45.5101880247476" lon="9.248913482474798"><ele>132.39999999999998</ele><time>2026-04-30T17:03:19.998Z</time></trkpt><trkpt lat="45.51014351066394" lon="9.248767923358052"><ele>132.60000000000002</ele><time>2026-04-30T17:03:20.998Z</time></trkpt><trkpt lat="45.51009768108973" lon="9.248638173701998"><ele>132.8</ele><time>2026-04-30T17:03:21.998Z</time></trkpt><trkpt lat="45.51004316916419" lon="9.248531270572759"><ele>133.0</ele><time>2026-04-30T17:03:22.998Z</time></trkpt><trkpt lat="45.50999015812396" lon="9.248441668811003"><ele>133.0</ele><time>2026-04-30T17:03:23.998Z</time></trkpt><trkpt lat="45.50994462393148" lon="9.248363906942565"><ele>133.0</ele><time>2026-04-30T17:03:24.998Z</time></trkpt><trkpt lat="45.50990470736945" lon="9.248292760838654"><ele>133.0</ele><time>2026-04-30T17:03:25.998Z</time></trkpt><trkpt lat="45.509825516032315" lon="9.24818872218642"><ele>133.0</ele><time>2026-04-30T17:03:27.998Z</time></trkpt><trkpt lat="45.50978215234186" lon="9.248116979128685"><ele>133.0</ele><time>2026-04-30T17:03:29.998Z</time></trkpt><trkpt lat="45.50970403084194" lon="9.24798619619494"><ele>133.0</ele><time>2026-04-30T17:04:12.997Z</time></trkpt><trkpt lat="45.509636664248525" lon="9.247866613353693"><ele>132.4</ele><time>2026-04-30T17:04:14.997Z</time></trkpt><trkpt lat="45.50958242337759" lon="9.247780845987627"><ele>131.8</ele><time>2026-04-30T17:04:15.997Z</time></trkpt><trkpt lat="45.50952047967852" lon="9.247685455156178"><ele>131.2</ele><time>2026-04-30T17:04:16.997Z</time></trkpt><trkpt lat="45.509458944964116" lon="9.247591893281681"><ele>130.6</ele><time>2026-04-30T17:04:17.997Z</time></trkpt><trkpt lat="45.50938776474824" lon="9.247495614890257"><ele>130.0</ele><time>2026-04-30T17:04:18.997Z</time></trkpt><trkpt lat="45.50932126127367" lon="9.24740513259425"><ele>130.00000000000003</ele><time>2026-04-30T17:04:19.997Z</time></trkpt><trkpt lat="45.50926369721338" lon="9.247330015488576"><ele>130.0</ele><time>2026-04-30T17:04:20.997Z</time></trkpt><trkpt lat="45.50921318169301" lon="9.24726335793208"><ele>130.0</ele><time>2026-04-30T17:04:21.997Z</time></trkpt><trkpt lat="45.50916549625713" lon="9.247200434756394"><ele>130.0</ele><time>2026-04-30T17:04:22.997Z</time></trkpt><trkpt lat="45.5091075110639" lon="9.247123920568754"><ele>130.0</ele><time>2026-04-30T17:04:24.997Z</time></trkpt><trkpt lat="45.50904724495743" lon="9.247043096523708"><ele>130.00000000000003</ele><time>2026-04-30T17:04:27.997Z</time></trkpt><trkpt lat="45.50899794176056" lon="9.246976054399699"><ele>130.0</ele><time>2026-04-30T17:04:29.997Z</time></trkpt><trkpt lat="45.508937936115586" lon="9.246891062089286"><ele>130.0</ele><time>2026-04-30T17:04:31.997Z</time></trkpt><trkpt lat="45.50885928357993" lon="9.24677979401377"><ele>130.0</ele><time>2026-04-30T17:04:33.997Z</time></trkpt><trkpt lat="45.50876495743064" lon="9.246650479059994"><ele>130.0</ele><time>2026-04-30T17:04:35.997Z</time></trkpt><trkpt lat="45.508705878035116" lon="9.246581143201878"><ele>130.0</ele><time>2026-04-30T17:04:36.997Z</time></trkpt><trkpt lat="45.50864717244133" lon="9.246515557322137"><ele>130.0</ele><time>2026-04-30T17:04:37.997Z</time></trkpt><trkpt lat="45.50858899950493" lon="9.246446070862213"><ele>130.0</ele><time>2026-04-30T17:04:38.997Z</time></trkpt><trkpt lat="45.50854753691319" lon="9.246361371767662"><ele>130.0</ele><time>2026-04-30T17:04:39.997Z</time></trkpt><trkpt lat="45.508484155899424" lon="9.246306651114574"><ele>130.0</ele><time>2026-04-30T17:04:40.997Z</time></trkpt><trkpt lat="45.508436622909734" lon="9.246241490107193"><ele>130.0</ele><time>2026-04-30T17:04:41.997Z</time></trkpt><trkpt lat="45.50835736814425" lon="9.246107067359334"><ele>130.0</ele><time>2026-04-30T17:04:43.997Z</time></trkpt><trkpt lat="45.508265479761974" lon="9.246004739053275"><ele>130.0</ele><time>2026-04-30T17:04:45.997Z</time></trkpt><trkpt lat="45.50817471893889" lon="9.245894393946687"><ele>130.0</ele><time>2026-04-30T17:04:47.997Z</time></trkpt><trkpt lat="45.508119414224474" lon="9.245818908396002"><ele>130.0</ele><time>2026-04-30T17:04:48.997Z</time></trkpt><trkpt lat="45.50807137855582" lon="9.24572431421203"><ele>130.0</ele><time>2026-04-30T17:04:49.996Z</time></trkpt><trkpt lat="45.50800819720346" lon="9.24563959041932"><ele>130.0</ele><time>2026-04-30T17:04:50.996Z</time></trkpt><trkpt lat="45.50793382519842" lon="9.245569926630054"><ele>130.83333333333334</ele><time>2026-04-30T17:04:51.996Z</time></trkpt><trkpt lat="45.50787314514441" lon="9.24548529795613"><ele>131.66666666666669</ele><time>2026-04-30T17:04:52.996Z</time></trkpt><trkpt lat="45.50782004125889" lon="9.245386936634562"><ele>132.5</ele><time>2026-04-30T17:04:53.996Z</time></trkpt><trkpt lat="45.50775713226461" lon="9.245302370713604"><ele>133.33333333333334</ele><time>2026-04-30T17:04:54.996Z</time></trkpt><trkpt lat="45.507683763786254" lon="9.245235520388293"><ele>134.16666666666666</ele><time>2026-04-30T17:04:55.996Z</time></trkpt><trkpt lat="45.50763542814558" lon="9.24513876927037"><ele>135.0</ele><time>2026-04-30T17:04:56.996Z</time></trkpt><trkpt lat="45.507565532463694" lon="9.245076271718986"><ele>135.0</ele><time>2026-04-30T17:04:57.996Z</time></trkpt><trkpt lat="45.50752676603207" lon="9.244993084774112"><ele>135.0</ele><time>2026-04-30T17:04:58.996Z</time></trkpt><trkpt lat="45.50746877188121" lon="9.244947408884649"><ele>135.0</ele><time>2026-04-30T17:05:01.996Z</time></trkpt><trkpt lat="45.50742379946934" lon="9.244855115756021"><ele>135.0</ele><time>2026-04-30T17:05:37.996Z</time></trkpt><trkpt lat="45.50736305904623" lon="9.244773727239538"><ele>135.0</ele><time>2026-04-30T17:11:02.997Z</time></trkpt><trkpt lat="45.5072305903641" lon="9.244629674159633"><ele>134.6</ele><time>2026-04-30T17:22:57.999Z</time></trkpt><trkpt lat="45.50726733892619" lon="9.244707873125401"><ele>134.2</ele><time>2026-04-30T17:30:19Z</time></trkpt><trkpt lat="45.507318357033554" lon="9.244771328041153"><ele>133.8</ele><time>2026-04-30T17:30:25Z</time></trkpt><trkpt lat="45.507238059157395" lon="9.244648246992984"><ele>133.4</ele><time>2026-04-30T17:30:37Z</time></trkpt><trkpt lat="45.507196561898446" lon="9.24454823606302"><ele>133.0</ele><time>2026-04-30T17:30:38Z</time></trkpt><trkpt lat="45.50710711059916" lon="9.244424169917407"><ele>131.66666666666669</ele><time>2026-04-30T17:30:39Z</time></trkpt><trkpt lat="45.50700914754397" lon="9.244278530325577"><ele>130.33333333333334</ele><time>2026-04-30T17:30:40Z</time></trkpt><trkpt lat="45.50687810704171" lon="9.244117443526894"><ele>129.0</ele><time>2026-04-30T17:30:41Z</time></trkpt><trkpt lat="45.50676905956856" lon="9.243960513816361"><ele>128.75</ele><time>2026-04-30T17:30:42Z</time></trkpt><trkpt lat="45.50665736492766" lon="9.243809797452226"><ele>128.5</ele><time>2026-04-30T17:30:43Z</time></trkpt><trkpt lat="45.50655959438299" lon="9.243677328604436"><ele>128.25</ele><time>2026-04-30T17:30:44Z</time></trkpt><trkpt lat="45.50647107158385" lon="9.243556169313335"><ele>128.0</ele><time>2026-04-30T17:30:45Z</time></trkpt><trkpt lat="45.50638394051637" lon="9.243445247645846"><ele>128.0</ele><time>2026-04-30T17:30:46Z</time></trkpt><trkpt lat="45.50629486560413" lon="9.243333226980612"><ele>128.0</ele><time>2026-04-30T17:30:47Z</time></trkpt><trkpt lat="45.50621531026357" lon="9.2432362225755"><ele>128.0</ele><time>2026-04-30T17:30:48Z</time></trkpt><trkpt lat="45.50614077182324" lon="9.243142272691637"><ele>128.0</ele><time>2026-04-30T17:30:49Z</time></trkpt><trkpt lat="45.50607248385763" lon="9.243058330529264"><ele>128.0</ele><time>2026-04-30T17:30:50Z</time></trkpt><trkpt lat="45.506010492787674" lon="9.242981839140834"><ele>127.99999999999999</ele><time>2026-04-30T17:30:51Z</time></trkpt><trkpt lat="45.50595065224321" lon="9.242905960282407"><ele>128.0</ele><time>2026-04-30T17:30:52Z</time></trkpt><trkpt lat="45.50588802442458" lon="9.242823348002274"><ele>128.0</ele><time>2026-04-30T17:30:53Z</time></trkpt><trkpt lat="45.50582617193887" lon="9.242736920428179"><ele>128.0</ele><time>2026-04-30T17:30:54Z</time></trkpt><trkpt lat="45.50576601079162" lon="9.24265433197813"><ele>127.99999999999999</ele><time>2026-04-30T17:30:55Z</time></trkpt><trkpt lat="45.50570197942158" lon="9.242565998678879"><ele>128.0</ele><time>2026-04-30T17:30:56Z</time></trkpt><trkpt lat="45.50563482758528" lon="9.242468471358688"><ele>128.0</ele><time>2026-04-30T17:30:57Z</time></trkpt><trkpt lat="45.50556424175897" lon="9.242369624782683"><ele>128.0</ele><time>2026-04-30T17:30:58Z</time></trkpt><trkpt lat="45.505493595666024" lon="9.242267992383784"><ele>128.0</ele><time>2026-04-30T17:30:59Z</time></trkpt><trkpt lat="45.50541266406806" lon="9.242151093943118"><ele>128.0</ele><time>2026-04-30T17:31:00Z</time></trkpt><trkpt lat="45.505336489940774" lon="9.242043430764225"><ele>128.0</ele><time>2026-04-30T17:31:01Z</time></trkpt><trkpt lat="45.50525454423229" lon="9.241928622173951"><ele>128.5</ele><time>2026-04-30T17:31:02Z</time></trkpt><trkpt lat="45.50516764078404" lon="9.241809251875338"><ele>129.0</ele><time>2026-04-30T17:31:03Z</time></trkpt><trkpt lat="45.50507428156081" lon="9.241685624036679"><ele>129.5</ele><time>2026-04-30T17:31:04Z</time></trkpt><trkpt lat="45.50498308082479" lon="9.241551598568853"><ele>130.0</ele><time>2026-04-30T17:31:05Z</time></trkpt><trkpt lat="45.504890348701814" lon="9.241421422973575"><ele>130.0</ele><time>2026-04-30T17:31:06Z</time></trkpt><trkpt lat="45.50480011349229" lon="9.241294668182658"><ele>130.0</ele><time>2026-04-30T17:31:07Z</time></trkpt><trkpt lat="45.50471164913896" lon="9.241172200894155"><ele>130.0</ele><time>2026-04-30T17:31:08Z</time></trkpt><trkpt lat="45.50463253729511" lon="9.241065539951876"><ele>130.0</ele><time>2026-04-30T17:31:09Z</time></trkpt><trkpt lat="45.504555488650865" lon="9.240965173460129"><ele>130.0</ele><time>2026-04-30T17:31:10Z</time></trkpt><trkpt lat="45.50448354163492" lon="9.24086151254303"><ele>130.0</ele><time>2026-04-30T17:31:11Z</time></trkpt><trkpt lat="45.50441413638794" lon="9.240770340537374"><ele>130.0</ele><time>2026-04-30T17:31:12Z</time></trkpt><trkpt lat="45.50434546108958" lon="9.240705090879048"><ele>130.0</ele><time>2026-04-30T17:31:13Z</time></trkpt><trkpt lat="45.504296882157654" lon="9.240621823257337"><ele>130.0</ele><time>2026-04-30T17:31:14Z</time></trkpt><trkpt lat="45.50425104628808" lon="9.240553680379916"><ele>130.0</ele><time>2026-04-30T17:31:15Z</time></trkpt><trkpt lat="45.504155569161625" lon="9.240453744845745"><ele>130.0</ele><time>2026-04-30T17:31:17Z</time></trkpt><trkpt lat="45.504072380471435" lon="9.240343634033202"><ele>130.0</ele><time>2026-04-30T17:31:19Z</time></trkpt><trkpt lat="45.50400193693405" lon="9.240251309211999"><ele>130.0</ele><time>2026-04-30T17:31:21Z</time></trkpt><trkpt lat="45.50394370701441" lon="9.240195538943327"><ele>130.0</ele><time>2026-04-30T17:31:23Z</time></trkpt><trkpt lat="45.50388215425431" lon="9.240165768396983"><ele>130.0</ele><time>2026-04-30T17:31:25Z</time></trkpt><trkpt lat="45.503821180397765" lon="9.24011403707598"><ele>130.0</ele><time>2026-04-30T17:31:28Z</time></trkpt><trkpt lat="45.50374820571467" lon="9.239974633217251"><ele>130.0</ele><time>2026-04-30T17:31:31Z</time></trkpt><trkpt lat="45.50379134721384" lon="9.239907190539734"><ele>130.0</ele><time>2026-04-30T17:31:33Z</time></trkpt><trkpt lat="45.503883788928626" lon="9.239762579785722"><ele>130.0</ele><time>2026-04-30T17:31:35Z</time></trkpt><trkpt lat="45.503944816970396" lon="9.239667049827384"><ele>130.0</ele><time>2026-04-30T17:31:36Z</time></trkpt><trkpt lat="45.50400976023582" lon="9.239565391216681"><ele>130.0</ele><time>2026-04-30T17:31:37Z</time></trkpt><trkpt lat="45.5040879113849" lon="9.239470619762399"><ele>130.0</ele><time>2026-04-30T17:31:38Z</time></trkpt><trkpt lat="45.50414865521967" lon="9.239348381095786"><ele>130.0</ele><time>2026-04-30T17:31:39Z</time></trkpt><trkpt lat="45.50421993123494" lon="9.239240996906158"><ele>130.0</ele><time>2026-04-30T17:31:40Z</time></trkpt><trkpt lat="45.50429122856668" lon="9.2391301469899"><ele>130.0</ele><time>2026-04-30T17:31:41Z</time></trkpt><trkpt lat="45.50436590425386" lon="9.239014719388848"><ele>130.0</ele><time>2026-04-30T17:31:42Z</time></trkpt><trkpt lat="45.504440351992216" lon="9.238903487178664"><ele>130.0</ele><time>2026-04-30T17:31:43Z</time></trkpt><trkpt lat="45.50451157374707" lon="9.238798233685277"><ele>130.0</ele><time>2026-04-30T17:31:44Z</time></trkpt><trkpt lat="45.50458032456081" lon="9.238696451004976"><ele>130.0</ele><time>2026-04-30T17:31:45Z</time></trkpt><trkpt lat="45.504642193619034" lon="9.238598676370046"><ele>130.0</ele><time>2026-04-30T17:31:46Z</time></trkpt><trkpt lat="45.50470532372733" lon="9.238510635363198"><ele>130.0</ele><time>2026-04-30T17:31:47Z</time></trkpt><trkpt lat="45.50474767461835" lon="9.2384082342746"><ele>130.0</ele><time>2026-04-30T17:31:48Z</time></trkpt><trkpt lat="45.5048103418728" lon="9.238347941233105"><ele>130.0</ele><time>2026-04-30T17:31:49Z</time></trkpt><trkpt lat="45.50486043231614" lon="9.238277381925064"><ele>130.0</ele><time>2026-04-30T17:31:50Z</time></trkpt><trkpt lat="45.50490664896946" lon="9.238213473828676"><ele>130.0</ele><time>2026-04-30T17:31:51Z</time></trkpt><trkpt lat="45.504985391815154" lon="9.238095897529291"><ele>130.0</ele><time>2026-04-30T17:31:53Z</time></trkpt><trkpt lat="45.5050501790908" lon="9.238012123140333"><ele>130.0</ele><time>2026-04-30T17:31:55Z</time></trkpt><trkpt lat="45.50512157127446" lon="9.237944052113889"><ele>130.0</ele><time>2026-04-30T17:31:57Z</time></trkpt><trkpt lat="45.505202214687216" lon="9.23787158030162"><ele>130.0</ele><time>2026-04-30T17:31:59Z</time></trkpt><trkpt lat="45.50527983626736" lon="9.237775560974326"><ele>130.0</ele><time>2026-04-30T17:32:01Z</time></trkpt><trkpt lat="45.50535901985318" lon="9.23773448007841"><ele>130.0</ele><time>2026-04-30T17:32:03Z</time></trkpt><trkpt lat="45.50546162620983" lon="9.237685017345523"><ele>130.0</ele><time>2026-04-30T17:32:05Z</time></trkpt><trkpt lat="45.50552465943369" lon="9.23765577326536"><ele>130.33333333333334</ele><time>2026-04-30T17:32:06Z</time></trkpt><trkpt lat="45.50559839342869" lon="9.23762313542002"><ele>130.66666666666669</ele><time>2026-04-30T17:32:07Z</time></trkpt><trkpt lat="45.50567920354884" lon="9.23758823233249"><ele>131.0</ele><time>2026-04-30T17:32:08Z</time></trkpt><trkpt lat="45.50575045313391" lon="9.237574933612612"><ele>131.33333333333334</ele><time>2026-04-30T17:32:09Z</time></trkpt><trkpt lat="45.50584718596427" lon="9.23753244880756"><ele>131.66666666666666</ele><time>2026-04-30T17:32:11Z</time></trkpt><trkpt lat="45.50591037652653" lon="9.237459424673535"><ele>132.0</ele><time>2026-04-30T17:32:13Z</time></trkpt><trkpt lat="45.50597209327668" lon="9.23741603053047"><ele>132.0</ele><time>2026-04-30T17:32:16Z</time></trkpt><trkpt lat="45.50603808597255" lon="9.23738382117382"><ele>132.0</ele><time>2026-04-30T17:32:18Z</time></trkpt><trkpt lat="45.5061293376759" lon="9.237360773285618"><ele>132.0</ele><time>2026-04-30T17:32:20Z</time></trkpt><trkpt lat="45.50623097650695" lon="9.23732168437186"><ele>132.0</ele><time>2026-04-30T17:32:22Z</time></trkpt><trkpt lat="45.50632326773163" lon="9.237282647342145"><ele>132.0</ele><time>2026-04-30T17:32:24Z</time></trkpt><trkpt lat="45.506420431239754" lon="9.23724281735792"><ele>131.83333333333334</ele><time>2026-04-30T17:32:26Z</time></trkpt><trkpt lat="45.50653578653875" lon="9.23719270432574"><ele>131.66666666666666</ele><time>2026-04-30T17:32:28Z</time></trkpt><trkpt lat="45.50660568914125" lon="9.237163775347135"><ele>131.5</ele><time>2026-04-30T17:32:29Z</time></trkpt><trkpt lat="45.50667852133603" lon="9.237135779072629"><ele>131.33333333333331</ele><time>2026-04-30T17:32:30Z</time></trkpt><trkpt lat="45.50675329167408" lon="9.237097475632215"><ele>131.16666666666666</ele><time>2026-04-30T17:32:31Z</time></trkpt><trkpt lat="45.506827475239206" lon="9.237060647137866"><ele>131.0</ele><time>2026-04-30T17:32:32Z</time></trkpt><trkpt lat="45.50690382346304" lon="9.237021650623145"><ele>131.0</ele><time>2026-04-30T17:32:33Z</time></trkpt><trkpt lat="45.50697392453187" lon="9.236988777347792"><ele>131.0</ele><time>2026-04-30T17:32:34Z</time></trkpt><trkpt lat="45.50708113454492" lon="9.236936696096675"><ele>131.0</ele><time>2026-04-30T17:32:36Z</time></trkpt><trkpt lat="45.50717002279107" lon="9.23689156357081"><ele>131.0</ele><time>2026-04-30T17:32:38Z</time></trkpt><trkpt lat="45.507237352287476" lon="9.236883217706621"><ele>131.0</ele><time>2026-04-30T17:32:40Z</time></trkpt><trkpt lat="45.50737214913467" lon="9.236858234450958"><ele>131.16666666666666</ele><time>2026-04-30T17:33:05Z</time></trkpt><trkpt lat="45.50742938534512" lon="9.236965245560805"><ele>131.33333333333331</ele><time>2026-04-30T17:33:07Z</time></trkpt><trkpt lat="45.50745646308797" lon="9.237058200307695"><ele>131.5</ele><time>2026-04-30T17:33:08Z</time></trkpt><trkpt lat="45.50747666106215" lon="9.237158838256573"><ele>131.66666666666666</ele><time>2026-04-30T17:33:09Z</time></trkpt><trkpt lat="45.50750387415156" lon="9.23725986929198"><ele>131.83333333333334</ele><time>2026-04-30T17:33:10Z</time></trkpt><trkpt lat="45.507525883827846" lon="9.237360983346203"><ele>132.0</ele><time>2026-04-30T17:33:11Z</time></trkpt><trkpt lat="45.5075729560252" lon="9.23745091061604"><ele>132.33333333333334</ele><time>2026-04-30T17:33:12Z</time></trkpt><trkpt lat="45.50758979867024" lon="9.237548229032317"><ele>132.66666666666666</ele><time>2026-04-30T17:33:13Z</time></trkpt><trkpt lat="45.50760728164008" lon="9.237636395879802"><ele>133.0</ele><time>2026-04-30T17:33:14Z</time></trkpt><trkpt lat="45.50764169897834" lon="9.23778618501156"><ele>133.33333333333331</ele><time>2026-04-30T17:33:16Z</time></trkpt><trkpt lat="45.50766684537244" lon="9.237895149786693"><ele>133.66666666666666</ele><time>2026-04-30T17:33:18Z</time></trkpt><trkpt lat="45.507684027046814" lon="9.237997683814742"><ele>134.0</ele><time>2026-04-30T17:33:24Z</time></trkpt><trkpt lat="45.50760369665515" lon="9.238057931384798"><ele>134.0</ele><time>2026-04-30T17:33:27Z</time></trkpt><trkpt lat="45.5075260866672" lon="9.238104102917665"><ele>134.0</ele><time>2026-04-30T17:33:29.001Z</time></trkpt><trkpt lat="45.50743138222952" lon="9.23815080067725"><ele>134.0</ele><time>2026-04-30T17:33:31.001Z</time></trkpt><trkpt lat="45.50732564746242" lon="9.238210090796793"><ele>134.0</ele><time>2026-04-30T17:33:33.001Z</time></trkpt><trkpt lat="45.507223167021245" lon="9.238264466748765"><ele>134.0</ele><time>2026-04-30T17:33:35.001Z</time></trkpt><trkpt lat="45.507109299577834" lon="9.238323696038808"><ele>133.6</ele><time>2026-04-30T17:33:37.001Z</time></trkpt><trkpt lat="45.50698702453155" lon="9.238374553222256"><ele>133.2</ele><time>2026-04-30T17:33:39.001Z</time></trkpt><trkpt lat="45.50687729393384" lon="9.238430563911663"><ele>132.79999999999998</ele><time>2026-04-30T17:33:41.001Z</time></trkpt><trkpt lat="45.5068019230065" lon="9.238462458929765"><ele>132.4</ele><time>2026-04-30T17:33:43.001Z</time></trkpt><trkpt lat="45.50674556714951" lon="9.238513340617285"><ele>132.0</ele><time>2026-04-30T17:33:49.001Z</time></trkpt><trkpt lat="45.506652747967415" lon="9.23876084071702"><ele>132.0</ele><time>2026-04-30T17:33:53.001Z</time></trkpt><trkpt lat="45.50668839416397" lon="9.238923446893448"><ele>132.0</ele><time>2026-04-30T17:33:55.001Z</time></trkpt><trkpt lat="45.50671843320878" lon="9.239049747859548"><ele>132.0</ele><time>2026-04-30T17:33:57.001Z</time></trkpt><trkpt lat="45.50675016452224" lon="9.239144812289751"><ele>132.0</ele><time>2026-04-30T17:33:59.001Z</time></trkpt><trkpt lat="45.5067426141055" lon="9.239246446433956"><ele>132.0</ele><time>2026-04-30T17:34:29.001Z</time></trkpt><trkpt lat="45.506761542790315" lon="9.239337016584427"><ele>132.0</ele><time>2026-04-30T17:34:30.001Z</time></trkpt><trkpt lat="45.50679025714471" lon="9.239438366751742"><ele>131.4</ele><time>2026-04-30T17:34:32.001Z</time></trkpt><trkpt lat="45.50680132480111" lon="9.239543529458938"><ele>130.79999999999998</ele><time>2026-04-30T17:34:34.001Z</time></trkpt><trkpt lat="45.506619663350996" lon="9.239653127320107"><ele>130.2</ele><time>2026-04-30T17:34:36.001Z</time></trkpt><trkpt lat="45.50655113049877" lon="9.239687689621721"><ele>129.6</ele><time>2026-04-30T17:34:38.001Z</time></trkpt><trkpt lat="45.506468871687545" lon="9.23969786067013"><ele>129.0</ele><time>2026-04-30T17:34:42.001Z</time></trkpt><trkpt lat="45.506665969313985" lon="9.23940837395748"><ele>129.0</ele><time>2026-04-30T17:37:21.609Z</time></trkpt><trkpt lat="45.506673354695835" lon="9.239220563085484"><ele>129.0</ele><time>2026-04-30T17:37:27.608Z</time></trkpt><trkpt lat="45.50674386264133" lon="9.23911911682069"><ele>129.0</ele><time>2026-04-30T17:37:33.875Z</time></trkpt><trkpt lat="45.50674438792404" lon="9.23887854742923"><ele>129.0</ele><time>2026-04-30T17:37:39.626Z</time></trkpt><trkpt lat="45.50681242025862" lon="9.239234728955102"><ele>129.0</ele><time>2026-04-30T17:37:51.618Z</time></trkpt><trkpt lat="45.506834115925685" lon="9.239395764794347"><ele>129.0</ele><time>2026-04-30T17:37:57.609Z</time></trkpt><trkpt lat="45.506796992213786" lon="9.239484520773225"><ele>129.0</ele><time>2026-04-30T17:38:09.621Z</time></trkpt></trkseg></trk></gpx>